<?xml version="1.0" encoding="UTF-8" standalone="no" ?>
<gpx xmlns="http://www.topografix.com/GPX/1/1" xmlns:xsi="http://www.w3.org/2001/XMLSchema-instance" xsi:schemaLocation="http://www.topografix.com/GPX/1/1 http://www.topografix.com/GPX/1/1/gpx.xsd" version="1.1" creator="VisuGPX - https://www.visugpx.com">
  <metadata>
    <name>Beaufort - Tour du Grand Mont et col de Comborsier</name>
    <desc><![CDATA[Sortie CAF-RSF/GUMS avec Nico - Logement au-dessus de Beaufort]]></desc>
  </metadata>
  <trk>
    <name><![CDATA[Beaufort - Tour du Grand Mont et col de Comborsier]]></name>
    <extensions>
      <line xmlns="http://www.topografix.com/GPX/gpx_style/0/2">
        <color>00ff00</color>
        <width>4</width>
      </line>
    </extensions>
    <trkseg>
      <trkpt lat="45.63951" lon="6.55095">
        <ele>2212.8</ele>
        <time>2025-02-20T09:07:01Z</time>
      </trkpt>
      <trkpt lat="45.63951" lon="6.55095">
        <ele>2212.8</ele>
        <time>2025-02-20T09:07:02Z</time>
      </trkpt>
      <trkpt lat="45.63951" lon="6.55095">
        <ele>2212.8</ele>
        <time>2025-02-20T09:07:03Z</time>
      </trkpt>
      <trkpt lat="45.63951" lon="6.55095">
        <ele>2212.8</ele>
        <time>2025-02-20T09:07:04Z</time>
      </trkpt>
      <trkpt lat="45.63951" lon="6.55095">
        <ele>2213</ele>
        <time>2025-02-20T09:07:05Z</time>
      </trkpt>
      <trkpt lat="45.63951" lon="6.55095">
        <ele>2213</ele>
        <time>2025-02-20T09:07:06Z</time>
      </trkpt>
      <trkpt lat="45.63951" lon="6.55095">
        <ele>2213</ele>
        <time>2025-02-20T09:07:07Z</time>
      </trkpt>
      <trkpt lat="45.63951" lon="6.55095">
        <ele>2213</ele>
        <time>2025-02-20T09:07:08Z</time>
      </trkpt>
      <trkpt lat="45.63951" lon="6.55095">
        <ele>2212.8</ele>
        <time>2025-02-20T09:07:09Z</time>
      </trkpt>
      <trkpt lat="45.63951" lon="6.55095">
        <ele>2212.8</ele>
        <time>2025-02-20T09:07:10Z</time>
      </trkpt>
      <trkpt lat="45.63951" lon="6.55095">
        <ele>2212.8</ele>
        <time>2025-02-20T09:07:11Z</time>
      </trkpt>
      <trkpt lat="45.63951" lon="6.55095">
        <ele>2212.8</ele>
        <time>2025-02-20T09:07:12Z</time>
      </trkpt>
      <trkpt lat="45.63951" lon="6.55095">
        <ele>2212.2</ele>
        <time>2025-02-20T09:07:13Z</time>
      </trkpt>
      <trkpt lat="45.63951" lon="6.55095">
        <ele>2212.2</ele>
        <time>2025-02-20T09:07:14Z</time>
      </trkpt>
      <trkpt lat="45.63951" lon="6.55095">
        <ele>2212.2</ele>
        <time>2025-02-20T09:07:15Z</time>
      </trkpt>
      <trkpt lat="45.63951" lon="6.55095">
        <ele>2213.2</ele>
        <time>2025-02-20T09:07:16Z</time>
      </trkpt>
      <trkpt lat="45.63951" lon="6.55095">
        <ele>2213</ele>
        <time>2025-02-20T09:07:17Z</time>
      </trkpt>
      <trkpt lat="45.63951" lon="6.55095">
        <ele>2213</ele>
        <time>2025-02-20T09:07:18Z</time>
      </trkpt>
      <trkpt lat="45.63951" lon="6.55095">
        <ele>2213</ele>
        <time>2025-02-20T09:07:19Z</time>
      </trkpt>
      <trkpt lat="45.63951" lon="6.55095">
        <ele>2213</ele>
        <time>2025-02-20T09:07:20Z</time>
      </trkpt>
      <trkpt lat="45.63951" lon="6.55095">
        <ele>2213.2</ele>
        <time>2025-02-20T09:07:21Z</time>
      </trkpt>
      <trkpt lat="45.63951" lon="6.55095">
        <ele>2213.2</ele>
        <time>2025-02-20T09:07:22Z</time>
      </trkpt>
      <trkpt lat="45.63951" lon="6.55095">
        <ele>2213.2</ele>
        <time>2025-02-20T09:07:23Z</time>
      </trkpt>
      <trkpt lat="45.63951" lon="6.55095">
        <ele>2212.2</ele>
        <time>2025-02-20T09:07:24Z</time>
      </trkpt>
      <trkpt lat="45.63951" lon="6.55095">
        <ele>2212.6</ele>
        <time>2025-02-20T09:07:25Z</time>
      </trkpt>
      <trkpt lat="45.63951" lon="6.55095">
        <ele>2212.6</ele>
        <time>2025-02-20T09:07:26Z</time>
      </trkpt>
      <trkpt lat="45.63951" lon="6.55095">
        <ele>2212.6</ele>
        <time>2025-02-20T09:07:27Z</time>
      </trkpt>
      <trkpt lat="45.63951" lon="6.55095">
        <ele>2212.6</ele>
        <time>2025-02-20T09:07:28Z</time>
      </trkpt>
      <trkpt lat="45.63951" lon="6.55095">
        <ele>2212.4</ele>
        <time>2025-02-20T09:07:29Z</time>
      </trkpt>
      <trkpt lat="45.63951" lon="6.55095">
        <ele>2212.4</ele>
        <time>2025-02-20T09:07:30Z</time>
      </trkpt>
      <trkpt lat="45.63945" lon="6.5509">
        <ele>2212.4</ele>
        <time>2025-02-20T09:07:31Z</time>
      </trkpt>
      <trkpt lat="45.63945" lon="6.5509">
        <ele>2212.4</ele>
        <time>2025-02-20T09:07:32Z</time>
      </trkpt>
      <trkpt lat="45.63945" lon="6.5509">
        <ele>2212.8</ele>
        <time>2025-02-20T09:07:33Z</time>
      </trkpt>
      <trkpt lat="45.63945" lon="6.5509">
        <ele>2212.8</ele>
        <time>2025-02-20T09:07:34Z</time>
      </trkpt>
      <trkpt lat="45.63945" lon="6.5509">
        <ele>2212.8</ele>
        <time>2025-02-20T09:07:35Z</time>
      </trkpt>
      <trkpt lat="45.63945" lon="6.5509">
        <ele>2212.6</ele>
        <time>2025-02-20T09:07:36Z</time>
      </trkpt>
      <trkpt lat="45.63945" lon="6.5509">
        <ele>2212.8</ele>
        <time>2025-02-20T09:07:37Z</time>
      </trkpt>
      <trkpt lat="45.63945" lon="6.5509">
        <ele>2212.8</ele>
        <time>2025-02-20T09:07:38Z</time>
      </trkpt>
      <trkpt lat="45.63945" lon="6.5509">
        <ele>2212.8</ele>
        <time>2025-02-20T09:07:39Z</time>
      </trkpt>
      <trkpt lat="45.63945" lon="6.5509">
        <ele>2212.8</ele>
        <time>2025-02-20T09:07:40Z</time>
      </trkpt>
      <trkpt lat="45.63945" lon="6.5509">
        <ele>2212.2</ele>
        <time>2025-02-20T09:07:41Z</time>
      </trkpt>
      <trkpt lat="45.63945" lon="6.5509">
        <ele>2212.2</ele>
        <time>2025-02-20T09:07:42Z</time>
      </trkpt>
      <trkpt lat="45.63945" lon="6.5509">
        <ele>2212.2</ele>
        <time>2025-02-20T09:07:43Z</time>
      </trkpt>
      <trkpt lat="45.63945" lon="6.5509">
        <ele>2212.2</ele>
        <time>2025-02-20T09:07:44Z</time>
      </trkpt>
      <trkpt lat="45.63945" lon="6.5509">
        <ele>2211.8</ele>
        <time>2025-02-20T09:07:45Z</time>
      </trkpt>
      <trkpt lat="45.63945" lon="6.5509">
        <ele>2211.8</ele>
        <time>2025-02-20T09:07:46Z</time>
      </trkpt>
      <trkpt lat="45.63945" lon="6.5509">
        <ele>2211.8</ele>
        <time>2025-02-20T09:07:47Z</time>
      </trkpt>
      <trkpt lat="45.63945" lon="6.5509">
        <ele>2212</ele>
        <time>2025-02-20T09:07:48Z</time>
      </trkpt>
      <trkpt lat="45.63945" lon="6.5509">
        <ele>2212.8</ele>
        <time>2025-02-20T09:07:49Z</time>
      </trkpt>
      <trkpt lat="45.63945" lon="6.5509">
        <ele>2212.8</ele>
        <time>2025-02-20T09:07:50Z</time>
      </trkpt>
      <trkpt lat="45.63945" lon="6.5509">
        <ele>2212.8</ele>
        <time>2025-02-20T09:07:51Z</time>
      </trkpt>
      <trkpt lat="45.63945" lon="6.5509">
        <ele>2212.8</ele>
        <time>2025-02-20T09:07:52Z</time>
      </trkpt>
      <trkpt lat="45.63945" lon="6.5509">
        <ele>2212.8</ele>
        <time>2025-02-20T09:07:53Z</time>
      </trkpt>
      <trkpt lat="45.63945" lon="6.5509">
        <ele>2212.8</ele>
        <time>2025-02-20T09:07:54Z</time>
      </trkpt>
      <trkpt lat="45.63945" lon="6.5509">
        <ele>2212.8</ele>
        <time>2025-02-20T09:07:55Z</time>
      </trkpt>
      <trkpt lat="45.63945" lon="6.5509">
        <ele>2212.8</ele>
        <time>2025-02-20T09:07:56Z</time>
      </trkpt>
      <trkpt lat="45.63945" lon="6.5509">
        <ele>2212.4</ele>
        <time>2025-02-20T09:07:57Z</time>
      </trkpt>
      <trkpt lat="45.63945" lon="6.5509">
        <ele>2212.4</ele>
        <time>2025-02-20T09:07:58Z</time>
      </trkpt>
      <trkpt lat="45.63945" lon="6.5509">
        <ele>2212.4</ele>
        <time>2025-02-20T09:07:59Z</time>
      </trkpt>
      <trkpt lat="45.63945" lon="6.5509">
        <ele>2212.4</ele>
        <time>2025-02-20T09:08:00Z</time>
      </trkpt>
      <trkpt lat="45.63945" lon="6.5509">
        <ele>2212.4</ele>
        <time>2025-02-20T09:08:01Z</time>
      </trkpt>
      <trkpt lat="45.63945" lon="6.5509">
        <ele>2212.4</ele>
        <time>2025-02-20T09:08:02Z</time>
      </trkpt>
      <trkpt lat="45.63945" lon="6.5509">
        <ele>2212.4</ele>
        <time>2025-02-20T09:08:03Z</time>
      </trkpt>
      <trkpt lat="45.63945" lon="6.5509">
        <ele>2212.4</ele>
        <time>2025-02-20T09:08:04Z</time>
      </trkpt>
      <trkpt lat="45.63945" lon="6.5509">
        <ele>2212.6</ele>
        <time>2025-02-20T09:08:05Z</time>
      </trkpt>
      <trkpt lat="45.63945" lon="6.5509">
        <ele>2212.6</ele>
        <time>2025-02-20T09:08:06Z</time>
      </trkpt>
      <trkpt lat="45.63945" lon="6.5509">
        <ele>2212.6</ele>
        <time>2025-02-20T09:08:07Z</time>
      </trkpt>
      <trkpt lat="45.63945" lon="6.5509">
        <ele>2212.8</ele>
        <time>2025-02-20T09:08:08Z</time>
      </trkpt>
      <trkpt lat="45.63945" lon="6.5509">
        <ele>2212.6</ele>
        <time>2025-02-20T09:08:09Z</time>
      </trkpt>
      <trkpt lat="45.63945" lon="6.5509">
        <ele>2212.6</ele>
        <time>2025-02-20T09:08:10Z</time>
      </trkpt>
      <trkpt lat="45.63945" lon="6.5509">
        <ele>2212.6</ele>
        <time>2025-02-20T09:08:11Z</time>
      </trkpt>
      <trkpt lat="45.63945" lon="6.5509">
        <ele>2212</ele>
        <time>2025-02-20T09:08:12Z</time>
      </trkpt>
      <trkpt lat="45.63945" lon="6.5509">
        <ele>2212.2</ele>
        <time>2025-02-20T09:08:13Z</time>
      </trkpt>
      <trkpt lat="45.63945" lon="6.5509">
        <ele>2212.2</ele>
        <time>2025-02-20T09:08:14Z</time>
      </trkpt>
      <trkpt lat="45.63945" lon="6.5509">
        <ele>2212.2</ele>
        <time>2025-02-20T09:08:15Z</time>
      </trkpt>
      <trkpt lat="45.63945" lon="6.5509">
        <ele>2212.2</ele>
        <time>2025-02-20T09:08:16Z</time>
      </trkpt>
      <trkpt lat="45.63945" lon="6.5509">
        <ele>2212.6</ele>
        <time>2025-02-20T09:08:17Z</time>
      </trkpt>
      <trkpt lat="45.63945" lon="6.5509">
        <ele>2212.6</ele>
        <time>2025-02-20T09:08:18Z</time>
      </trkpt>
      <trkpt lat="45.63945" lon="6.5509">
        <ele>2212.6</ele>
        <time>2025-02-20T09:08:19Z</time>
      </trkpt>
      <trkpt lat="45.63945" lon="6.5509">
        <ele>2212</ele>
        <time>2025-02-20T09:08:20Z</time>
      </trkpt>
      <trkpt lat="45.63945" lon="6.5509">
        <ele>2211.4</ele>
        <time>2025-02-20T09:08:21Z</time>
      </trkpt>
      <trkpt lat="45.63945" lon="6.5509">
        <ele>2211.4</ele>
        <time>2025-02-20T09:08:22Z</time>
      </trkpt>
      <trkpt lat="45.63945" lon="6.5509">
        <ele>2211.4</ele>
        <time>2025-02-20T09:08:23Z</time>
      </trkpt>
      <trkpt lat="45.63945" lon="6.5509">
        <ele>2211.4</ele>
        <time>2025-02-20T09:08:24Z</time>
      </trkpt>
      <trkpt lat="45.63945" lon="6.5509">
        <ele>2213</ele>
        <time>2025-02-20T09:08:25Z</time>
      </trkpt>
      <trkpt lat="45.63945" lon="6.5509">
        <ele>2213</ele>
        <time>2025-02-20T09:08:26Z</time>
      </trkpt>
      <trkpt lat="45.63945" lon="6.5509">
        <ele>2213</ele>
        <time>2025-02-20T09:08:27Z</time>
      </trkpt>
      <trkpt lat="45.63945" lon="6.5509">
        <ele>2212.2</ele>
        <time>2025-02-20T09:08:28Z</time>
      </trkpt>
      <trkpt lat="45.63945" lon="6.5509">
        <ele>2213</ele>
        <time>2025-02-20T09:08:29Z</time>
      </trkpt>
      <trkpt lat="45.63945" lon="6.5509">
        <ele>2213</ele>
        <time>2025-02-20T09:08:30Z</time>
      </trkpt>
      <trkpt lat="45.63945" lon="6.5509">
        <ele>2213</ele>
        <time>2025-02-20T09:08:31Z</time>
      </trkpt>
      <trkpt lat="45.63945" lon="6.5509">
        <ele>2212.6</ele>
        <time>2025-02-20T09:08:32Z</time>
      </trkpt>
      <trkpt lat="45.63945" lon="6.5509">
        <ele>2212.4</ele>
        <time>2025-02-20T09:08:33Z</time>
      </trkpt>
      <trkpt lat="45.63945" lon="6.5509">
        <ele>2212.4</ele>
        <time>2025-02-20T09:08:34Z</time>
      </trkpt>
      <trkpt lat="45.63945" lon="6.5509">
        <ele>2212.4</ele>
        <time>2025-02-20T09:08:35Z</time>
      </trkpt>
      <trkpt lat="45.63945" lon="6.5509">
        <ele>2212.4</ele>
        <time>2025-02-20T09:08:36Z</time>
      </trkpt>
      <trkpt lat="45.63945" lon="6.5509">
        <ele>2212.8</ele>
        <time>2025-02-20T09:08:37Z</time>
      </trkpt>
      <trkpt lat="45.63945" lon="6.5509">
        <ele>2212.8</ele>
        <time>2025-02-20T09:08:38Z</time>
      </trkpt>
      <trkpt lat="45.63945" lon="6.5509">
        <ele>2212.8</ele>
        <time>2025-02-20T09:08:39Z</time>
      </trkpt>
      <trkpt lat="45.63945" lon="6.5509">
        <ele>2212.4</ele>
        <time>2025-02-20T09:08:40Z</time>
      </trkpt>
      <trkpt lat="45.63945" lon="6.5509">
        <ele>2212.2</ele>
        <time>2025-02-20T09:08:41Z</time>
      </trkpt>
      <trkpt lat="45.63945" lon="6.5509">
        <ele>2212.2</ele>
        <time>2025-02-20T09:08:42Z</time>
      </trkpt>
      <trkpt lat="45.63945" lon="6.5509">
        <ele>2212.2</ele>
        <time>2025-02-20T09:08:43Z</time>
      </trkpt>
      <trkpt lat="45.63945" lon="6.5509">
        <ele>2212</ele>
        <time>2025-02-20T09:08:44Z</time>
      </trkpt>
      <trkpt lat="45.63945" lon="6.5509">
        <ele>2212.6</ele>
        <time>2025-02-20T09:08:45Z</time>
      </trkpt>
      <trkpt lat="45.63945" lon="6.5509">
        <ele>2212.6</ele>
        <time>2025-02-20T09:08:46Z</time>
      </trkpt>
      <trkpt lat="45.63945" lon="6.5509">
        <ele>2212.6</ele>
        <time>2025-02-20T09:08:47Z</time>
      </trkpt>
      <trkpt lat="45.63945" lon="6.5509">
        <ele>2212</ele>
        <time>2025-02-20T09:08:48Z</time>
      </trkpt>
      <trkpt lat="45.63945" lon="6.5509">
        <ele>2212.4</ele>
        <time>2025-02-20T09:08:49Z</time>
      </trkpt>
      <trkpt lat="45.63945" lon="6.5509">
        <ele>2212.4</ele>
        <time>2025-02-20T09:08:50Z</time>
      </trkpt>
      <trkpt lat="45.63945" lon="6.5509">
        <ele>2212.4</ele>
        <time>2025-02-20T09:08:51Z</time>
      </trkpt>
      <trkpt lat="45.63945" lon="6.5509">
        <ele>2213.4</ele>
        <time>2025-02-20T09:08:52Z</time>
      </trkpt>
      <trkpt lat="45.63945" lon="6.5509">
        <ele>2213.8</ele>
        <time>2025-02-20T09:08:53Z</time>
      </trkpt>
      <trkpt lat="45.63945" lon="6.5509">
        <ele>2213.8</ele>
        <time>2025-02-20T09:08:54Z</time>
      </trkpt>
      <trkpt lat="45.63945" lon="6.5509">
        <ele>2213.8</ele>
        <time>2025-02-20T09:08:55Z</time>
      </trkpt>
      <trkpt lat="45.63945" lon="6.5509">
        <ele>2212.8</ele>
        <time>2025-02-20T09:08:56Z</time>
      </trkpt>
      <trkpt lat="45.63945" lon="6.5509">
        <ele>2212</ele>
        <time>2025-02-20T09:08:57Z</time>
      </trkpt>
      <trkpt lat="45.63945" lon="6.5509">
        <ele>2212</ele>
        <time>2025-02-20T09:08:58Z</time>
      </trkpt>
      <trkpt lat="45.63945" lon="6.5509">
        <ele>2212</ele>
        <time>2025-02-20T09:08:59Z</time>
      </trkpt>
      <trkpt lat="45.63945" lon="6.5509">
        <ele>2212</ele>
        <time>2025-02-20T09:09:00Z</time>
      </trkpt>
      <trkpt lat="45.63945" lon="6.5509">
        <ele>2212.4</ele>
        <time>2025-02-20T09:09:01Z</time>
      </trkpt>
      <trkpt lat="45.63945" lon="6.5509">
        <ele>2212.4</ele>
        <time>2025-02-20T09:09:02Z</time>
      </trkpt>
      <trkpt lat="45.63945" lon="6.5509">
        <ele>2212.4</ele>
        <time>2025-02-20T09:09:03Z</time>
      </trkpt>
      <trkpt lat="45.63945" lon="6.5509">
        <ele>2212.4</ele>
        <time>2025-02-20T09:09:04Z</time>
      </trkpt>
      <trkpt lat="45.63945" lon="6.5509">
        <ele>2212.4</ele>
        <time>2025-02-20T09:09:05Z</time>
      </trkpt>
      <trkpt lat="45.63945" lon="6.5509">
        <ele>2212.4</ele>
        <time>2025-02-20T09:09:06Z</time>
      </trkpt>
      <trkpt lat="45.63945" lon="6.5509">
        <ele>2212.4</ele>
        <time>2025-02-20T09:09:07Z</time>
      </trkpt>
      <trkpt lat="45.63945" lon="6.5509">
        <ele>2212.4</ele>
        <time>2025-02-20T09:09:08Z</time>
      </trkpt>
      <trkpt lat="45.63945" lon="6.5509">
        <ele>2212.2</ele>
        <time>2025-02-20T09:09:09Z</time>
      </trkpt>
      <trkpt lat="45.63945" lon="6.5509">
        <ele>2212.2</ele>
        <time>2025-02-20T09:09:10Z</time>
      </trkpt>
      <trkpt lat="45.63945" lon="6.5509">
        <ele>2212.2</ele>
        <time>2025-02-20T09:09:11Z</time>
      </trkpt>
      <trkpt lat="45.63945" lon="6.5509">
        <ele>2212.2</ele>
        <time>2025-02-20T09:09:12Z</time>
      </trkpt>
      <trkpt lat="45.63945" lon="6.5509">
        <ele>2212.2</ele>
        <time>2025-02-20T09:09:13Z</time>
      </trkpt>
      <trkpt lat="45.63945" lon="6.5509">
        <ele>2212.2</ele>
        <time>2025-02-20T09:09:14Z</time>
      </trkpt>
      <trkpt lat="45.63945" lon="6.5509">
        <ele>2212.2</ele>
        <time>2025-02-20T09:09:15Z</time>
      </trkpt>
      <trkpt lat="45.63945" lon="6.5509">
        <ele>2212.2</ele>
        <time>2025-02-20T09:09:16Z</time>
      </trkpt>
      <trkpt lat="45.63945" lon="6.5509">
        <ele>2212.8</ele>
        <time>2025-02-20T09:09:17Z</time>
      </trkpt>
      <trkpt lat="45.63945" lon="6.5509">
        <ele>2212.8</ele>
        <time>2025-02-20T09:09:18Z</time>
      </trkpt>
      <trkpt lat="45.63945" lon="6.5509">
        <ele>2212.8</ele>
        <time>2025-02-20T09:09:19Z</time>
      </trkpt>
      <trkpt lat="45.63945" lon="6.5509">
        <ele>2212.6</ele>
        <time>2025-02-20T09:09:20Z</time>
      </trkpt>
      <trkpt lat="45.63945" lon="6.5509">
        <ele>2212.2</ele>
        <time>2025-02-20T09:09:21Z</time>
      </trkpt>
      <trkpt lat="45.63945" lon="6.5509">
        <ele>2212.2</ele>
        <time>2025-02-20T09:09:22Z</time>
      </trkpt>
      <trkpt lat="45.63945" lon="6.5509">
        <ele>2212.2</ele>
        <time>2025-02-20T09:09:23Z</time>
      </trkpt>
      <trkpt lat="45.63945" lon="6.5509">
        <ele>2212.6</ele>
        <time>2025-02-20T09:09:24Z</time>
      </trkpt>
      <trkpt lat="45.63945" lon="6.5509">
        <ele>2212.8</ele>
        <time>2025-02-20T09:09:25Z</time>
      </trkpt>
      <trkpt lat="45.63945" lon="6.5509">
        <ele>2212.8</ele>
        <time>2025-02-20T09:09:26Z</time>
      </trkpt>
      <trkpt lat="45.63945" lon="6.5509">
        <ele>2212.8</ele>
        <time>2025-02-20T09:09:27Z</time>
      </trkpt>
      <trkpt lat="45.63945" lon="6.5509">
        <ele>2212.8</ele>
        <time>2025-02-20T09:09:28Z</time>
      </trkpt>
      <trkpt lat="45.63945" lon="6.5509">
        <ele>2212.2</ele>
        <time>2025-02-20T09:09:29Z</time>
      </trkpt>
      <trkpt lat="45.63945" lon="6.5509">
        <ele>2212.2</ele>
        <time>2025-02-20T09:09:30Z</time>
      </trkpt>
      <trkpt lat="45.63945" lon="6.5509">
        <ele>2212.2</ele>
        <time>2025-02-20T09:09:31Z</time>
      </trkpt>
      <trkpt lat="45.63945" lon="6.5509">
        <ele>2212.2</ele>
        <time>2025-02-20T09:09:32Z</time>
      </trkpt>
      <trkpt lat="45.63945" lon="6.5509">
        <ele>2208.4</ele>
        <time>2025-02-20T09:09:33Z</time>
      </trkpt>
      <trkpt lat="45.63945" lon="6.5509">
        <ele>2208.4</ele>
        <time>2025-02-20T09:09:34Z</time>
      </trkpt>
      <trkpt lat="45.63945" lon="6.5509">
        <ele>2208.4</ele>
        <time>2025-02-20T09:09:35Z</time>
      </trkpt>
      <trkpt lat="45.63945" lon="6.5509">
        <ele>2209.4</ele>
        <time>2025-02-20T09:09:36Z</time>
      </trkpt>
      <trkpt lat="45.63945" lon="6.5509">
        <ele>2212.6</ele>
        <time>2025-02-20T09:09:37Z</time>
      </trkpt>
      <trkpt lat="45.63945" lon="6.5509">
        <ele>2212.6</ele>
        <time>2025-02-20T09:09:38Z</time>
      </trkpt>
      <trkpt lat="45.63945" lon="6.5509">
        <ele>2212.6</ele>
        <time>2025-02-20T09:09:39Z</time>
      </trkpt>
      <trkpt lat="45.63945" lon="6.5509">
        <ele>2212.2</ele>
        <time>2025-02-20T09:09:40Z</time>
      </trkpt>
      <trkpt lat="45.63945" lon="6.5509">
        <ele>2213.2</ele>
        <time>2025-02-20T09:09:41Z</time>
      </trkpt>
      <trkpt lat="45.63945" lon="6.5509">
        <ele>2213.2</ele>
        <time>2025-02-20T09:09:42Z</time>
      </trkpt>
      <trkpt lat="45.63945" lon="6.5509">
        <ele>2213.2</ele>
        <time>2025-02-20T09:09:43Z</time>
      </trkpt>
      <trkpt lat="45.63945" lon="6.5509">
        <ele>2212.6</ele>
        <time>2025-02-20T09:09:44Z</time>
      </trkpt>
      <trkpt lat="45.63945" lon="6.5509">
        <ele>2212</ele>
        <time>2025-02-20T09:09:45Z</time>
      </trkpt>
      <trkpt lat="45.63945" lon="6.5509">
        <ele>2212</ele>
        <time>2025-02-20T09:09:46Z</time>
      </trkpt>
      <trkpt lat="45.63945" lon="6.5509">
        <ele>2212</ele>
        <time>2025-02-20T09:09:47Z</time>
      </trkpt>
      <trkpt lat="45.63945" lon="6.5509">
        <ele>2212.2</ele>
        <time>2025-02-20T09:09:48Z</time>
      </trkpt>
      <trkpt lat="45.63945" lon="6.5509">
        <ele>2212.6</ele>
        <time>2025-02-20T09:09:49Z</time>
      </trkpt>
      <trkpt lat="45.63945" lon="6.5509">
        <ele>2212.6</ele>
        <time>2025-02-20T09:09:50Z</time>
      </trkpt>
      <trkpt lat="45.63945" lon="6.5509">
        <ele>2212.6</ele>
        <time>2025-02-20T09:09:51Z</time>
      </trkpt>
      <trkpt lat="45.63945" lon="6.5509">
        <ele>2212.6</ele>
        <time>2025-02-20T09:09:52Z</time>
      </trkpt>
      <trkpt lat="45.63945" lon="6.5509">
        <ele>2212.8</ele>
        <time>2025-02-20T09:09:53Z</time>
      </trkpt>
      <trkpt lat="45.63945" lon="6.5509">
        <ele>2212.8</ele>
        <time>2025-02-20T09:09:54Z</time>
      </trkpt>
      <trkpt lat="45.63945" lon="6.5509">
        <ele>2212.8</ele>
        <time>2025-02-20T09:09:55Z</time>
      </trkpt>
      <trkpt lat="45.63945" lon="6.5509">
        <ele>2212.8</ele>
        <time>2025-02-20T09:09:56Z</time>
      </trkpt>
      <trkpt lat="45.63945" lon="6.5509">
        <ele>2213.4</ele>
        <time>2025-02-20T09:09:57Z</time>
      </trkpt>
      <trkpt lat="45.63945" lon="6.5509">
        <ele>2213.4</ele>
        <time>2025-02-20T09:09:58Z</time>
      </trkpt>
      <trkpt lat="45.63945" lon="6.5509">
        <ele>2213.4</ele>
        <time>2025-02-20T09:09:59Z</time>
      </trkpt>
      <trkpt lat="45.63945" lon="6.5509">
        <ele>2212.8</ele>
        <time>2025-02-20T09:10:00Z</time>
      </trkpt>
      <trkpt lat="45.63945" lon="6.5509">
        <ele>2212.8</ele>
        <time>2025-02-20T09:10:01Z</time>
      </trkpt>
      <trkpt lat="45.63945" lon="6.5509">
        <ele>2212.8</ele>
        <time>2025-02-20T09:10:02Z</time>
      </trkpt>
      <trkpt lat="45.63945" lon="6.5509">
        <ele>2212.8</ele>
        <time>2025-02-20T09:10:03Z</time>
      </trkpt>
      <trkpt lat="45.63945" lon="6.5509">
        <ele>2212.8</ele>
        <time>2025-02-20T09:10:04Z</time>
      </trkpt>
      <trkpt lat="45.63945" lon="6.5509">
        <ele>2213</ele>
        <time>2025-02-20T09:10:05Z</time>
      </trkpt>
      <trkpt lat="45.63945" lon="6.5509">
        <ele>2213</ele>
        <time>2025-02-20T09:10:06Z</time>
      </trkpt>
      <trkpt lat="45.63945" lon="6.5509">
        <ele>2213</ele>
        <time>2025-02-20T09:10:07Z</time>
      </trkpt>
      <trkpt lat="45.63945" lon="6.5509">
        <ele>2213</ele>
        <time>2025-02-20T09:10:08Z</time>
      </trkpt>
      <trkpt lat="45.63945" lon="6.5509">
        <ele>2213</ele>
        <time>2025-02-20T09:10:09Z</time>
      </trkpt>
      <trkpt lat="45.63945" lon="6.5509">
        <ele>2213</ele>
        <time>2025-02-20T09:10:10Z</time>
      </trkpt>
      <trkpt lat="45.63945" lon="6.5509">
        <ele>2213</ele>
        <time>2025-02-20T09:10:11Z</time>
      </trkpt>
      <trkpt lat="45.63945" lon="6.5509">
        <ele>2212.6</ele>
        <time>2025-02-20T09:10:12Z</time>
      </trkpt>
      <trkpt lat="45.63945" lon="6.5509">
        <ele>2212.4</ele>
        <time>2025-02-20T09:10:13Z</time>
      </trkpt>
      <trkpt lat="45.63945" lon="6.5509">
        <ele>2212.4</ele>
        <time>2025-02-20T09:10:14Z</time>
      </trkpt>
      <trkpt lat="45.63945" lon="6.5509">
        <ele>2212.4</ele>
        <time>2025-02-20T09:10:15Z</time>
      </trkpt>
      <trkpt lat="45.63945" lon="6.5509">
        <ele>2212.4</ele>
        <time>2025-02-20T09:10:16Z</time>
      </trkpt>
      <trkpt lat="45.63945" lon="6.5509">
        <ele>2212.2</ele>
        <time>2025-02-20T09:10:17Z</time>
      </trkpt>
      <trkpt lat="45.63945" lon="6.5509">
        <ele>2212.2</ele>
        <time>2025-02-20T09:10:18Z</time>
      </trkpt>
      <trkpt lat="45.63945" lon="6.5509">
        <ele>2212.2</ele>
        <time>2025-02-20T09:10:19Z</time>
      </trkpt>
      <trkpt lat="45.63945" lon="6.5509">
        <ele>2212.4</ele>
        <time>2025-02-20T09:10:20Z</time>
      </trkpt>
      <trkpt lat="45.63945" lon="6.5509">
        <ele>2212.2</ele>
        <time>2025-02-20T09:10:21Z</time>
      </trkpt>
      <trkpt lat="45.63945" lon="6.5509">
        <ele>2212.2</ele>
        <time>2025-02-20T09:10:22Z</time>
      </trkpt>
      <trkpt lat="45.63945" lon="6.5509">
        <ele>2212.2</ele>
        <time>2025-02-20T09:10:23Z</time>
      </trkpt>
      <trkpt lat="45.63945" lon="6.5509">
        <ele>2212.2</ele>
        <time>2025-02-20T09:10:24Z</time>
      </trkpt>
      <trkpt lat="45.63945" lon="6.5509">
        <ele>2212.2</ele>
        <time>2025-02-20T09:10:25Z</time>
      </trkpt>
      <trkpt lat="45.63945" lon="6.5509">
        <ele>2212.2</ele>
        <time>2025-02-20T09:10:26Z</time>
      </trkpt>
      <trkpt lat="45.63945" lon="6.5509">
        <ele>2212.2</ele>
        <time>2025-02-20T09:10:27Z</time>
      </trkpt>
      <trkpt lat="45.63945" lon="6.5509">
        <ele>2212.4</ele>
        <time>2025-02-20T09:10:28Z</time>
      </trkpt>
      <trkpt lat="45.63945" lon="6.5509">
        <ele>2212.6</ele>
        <time>2025-02-20T09:10:29Z</time>
      </trkpt>
      <trkpt lat="45.63945" lon="6.5509">
        <ele>2212.6</ele>
        <time>2025-02-20T09:10:30Z</time>
      </trkpt>
      <trkpt lat="45.63945" lon="6.5509">
        <ele>2212.6</ele>
        <time>2025-02-20T09:10:31Z</time>
      </trkpt>
      <trkpt lat="45.63945" lon="6.5509">
        <ele>2212.6</ele>
        <time>2025-02-20T09:10:32Z</time>
      </trkpt>
      <trkpt lat="45.63945" lon="6.5509">
        <ele>2212.4</ele>
        <time>2025-02-20T09:10:33Z</time>
      </trkpt>
      <trkpt lat="45.63945" lon="6.5509">
        <ele>2212.4</ele>
        <time>2025-02-20T09:10:34Z</time>
      </trkpt>
      <trkpt lat="45.63945" lon="6.5509">
        <ele>2212.4</ele>
        <time>2025-02-20T09:10:35Z</time>
      </trkpt>
      <trkpt lat="45.63945" lon="6.5509">
        <ele>2212.4</ele>
        <time>2025-02-20T09:10:36Z</time>
      </trkpt>
      <trkpt lat="45.63945" lon="6.5509">
        <ele>2212.6</ele>
        <time>2025-02-20T09:10:37Z</time>
      </trkpt>
      <trkpt lat="45.63945" lon="6.5509">
        <ele>2212.6</ele>
        <time>2025-02-20T09:10:38Z</time>
      </trkpt>
      <trkpt lat="45.63945" lon="6.5509">
        <ele>2212.6</ele>
        <time>2025-02-20T09:10:39Z</time>
      </trkpt>
      <trkpt lat="45.63945" lon="6.5509">
        <ele>2212.6</ele>
        <time>2025-02-20T09:10:40Z</time>
      </trkpt>
      <trkpt lat="45.63945" lon="6.5509">
        <ele>2213</ele>
        <time>2025-02-20T09:10:41Z</time>
      </trkpt>
      <trkpt lat="45.63945" lon="6.5509">
        <ele>2213</ele>
        <time>2025-02-20T09:10:42Z</time>
      </trkpt>
      <trkpt lat="45.63945" lon="6.5509">
        <ele>2213</ele>
        <time>2025-02-20T09:10:43Z</time>
      </trkpt>
      <trkpt lat="45.63945" lon="6.5509">
        <ele>2213</ele>
        <time>2025-02-20T09:10:44Z</time>
      </trkpt>
      <trkpt lat="45.63945" lon="6.5509">
        <ele>2212.4</ele>
        <time>2025-02-20T09:10:45Z</time>
      </trkpt>
      <trkpt lat="45.63945" lon="6.5509">
        <ele>2212.4</ele>
        <time>2025-02-20T09:10:46Z</time>
      </trkpt>
      <trkpt lat="45.63945" lon="6.5509">
        <ele>2212.4</ele>
        <time>2025-02-20T09:10:47Z</time>
      </trkpt>
      <trkpt lat="45.63945" lon="6.5509">
        <ele>2212.4</ele>
        <time>2025-02-20T09:10:48Z</time>
      </trkpt>
      <trkpt lat="45.63945" lon="6.5509">
        <ele>2212.6</ele>
        <time>2025-02-20T09:10:49Z</time>
      </trkpt>
      <trkpt lat="45.63945" lon="6.5509">
        <ele>2212.6</ele>
        <time>2025-02-20T09:10:50Z</time>
      </trkpt>
      <trkpt lat="45.63945" lon="6.5509">
        <ele>2212.6</ele>
        <time>2025-02-20T09:10:51Z</time>
      </trkpt>
      <trkpt lat="45.63945" lon="6.5509">
        <ele>2212.6</ele>
        <time>2025-02-20T09:10:52Z</time>
      </trkpt>
      <trkpt lat="45.63945" lon="6.5509">
        <ele>2212.6</ele>
        <time>2025-02-20T09:10:53Z</time>
      </trkpt>
      <trkpt lat="45.63945" lon="6.5509">
        <ele>2212.6</ele>
        <time>2025-02-20T09:10:54Z</time>
      </trkpt>
      <trkpt lat="45.63945" lon="6.5509">
        <ele>2212.6</ele>
        <time>2025-02-20T09:10:55Z</time>
      </trkpt>
      <trkpt lat="45.63945" lon="6.5509">
        <ele>2212.4</ele>
        <time>2025-02-20T09:10:56Z</time>
      </trkpt>
      <trkpt lat="45.63945" lon="6.5509">
        <ele>2212.6</ele>
        <time>2025-02-20T09:10:57Z</time>
      </trkpt>
      <trkpt lat="45.63945" lon="6.5509">
        <ele>2212.6</ele>
        <time>2025-02-20T09:10:58Z</time>
      </trkpt>
      <trkpt lat="45.63945" lon="6.5509">
        <ele>2212.6</ele>
        <time>2025-02-20T09:10:59Z</time>
      </trkpt>
      <trkpt lat="45.63945" lon="6.5509">
        <ele>2212.6</ele>
        <time>2025-02-20T09:11:00Z</time>
      </trkpt>
      <trkpt lat="45.63945" lon="6.5509">
        <ele>2212.6</ele>
        <time>2025-02-20T09:11:01Z</time>
      </trkpt>
      <trkpt lat="45.63945" lon="6.5509">
        <ele>2212.6</ele>
        <time>2025-02-20T09:11:02Z</time>
      </trkpt>
      <trkpt lat="45.63945" lon="6.5509">
        <ele>2212.6</ele>
        <time>2025-02-20T09:11:03Z</time>
      </trkpt>
      <trkpt lat="45.63945" lon="6.5509">
        <ele>2212.4</ele>
        <time>2025-02-20T09:11:04Z</time>
      </trkpt>
      <trkpt lat="45.63945" lon="6.5509">
        <ele>2212.6</ele>
        <time>2025-02-20T09:11:05Z</time>
      </trkpt>
      <trkpt lat="45.63945" lon="6.5509">
        <ele>2212.6</ele>
        <time>2025-02-20T09:11:06Z</time>
      </trkpt>
      <trkpt lat="45.63945" lon="6.5509">
        <ele>2212.6</ele>
        <time>2025-02-20T09:11:07Z</time>
      </trkpt>
      <trkpt lat="45.63945" lon="6.5509">
        <ele>2212.6</ele>
        <time>2025-02-20T09:11:08Z</time>
      </trkpt>
      <trkpt lat="45.63945" lon="6.5509">
        <ele>2212.4</ele>
        <time>2025-02-20T09:11:09Z</time>
      </trkpt>
      <trkpt lat="45.63945" lon="6.5509">
        <ele>2212.4</ele>
        <time>2025-02-20T09:11:10Z</time>
      </trkpt>
      <trkpt lat="45.63945" lon="6.5509">
        <ele>2212.4</ele>
        <time>2025-02-20T09:11:11Z</time>
      </trkpt>
      <trkpt lat="45.63945" lon="6.5509">
        <ele>2212.4</ele>
        <time>2025-02-20T09:11:12Z</time>
      </trkpt>
      <trkpt lat="45.63945" lon="6.5509">
        <ele>2212.2</ele>
        <time>2025-02-20T09:11:13Z</time>
      </trkpt>
      <trkpt lat="45.63945" lon="6.5509">
        <ele>2212.2</ele>
        <time>2025-02-20T09:11:14Z</time>
      </trkpt>
      <trkpt lat="45.63945" lon="6.5509">
        <ele>2212.2</ele>
        <time>2025-02-20T09:11:15Z</time>
      </trkpt>
      <trkpt lat="45.63945" lon="6.5509">
        <ele>2212.2</ele>
        <time>2025-02-20T09:11:16Z</time>
      </trkpt>
      <trkpt lat="45.63945" lon="6.5509">
        <ele>2212.6</ele>
        <time>2025-02-20T09:11:17Z</time>
      </trkpt>
      <trkpt lat="45.63945" lon="6.5509">
        <ele>2212.6</ele>
        <time>2025-02-20T09:11:18Z</time>
      </trkpt>
      <trkpt lat="45.63945" lon="6.5509">
        <ele>2212.6</ele>
        <time>2025-02-20T09:11:19Z</time>
      </trkpt>
      <trkpt lat="45.63945" lon="6.5509">
        <ele>2212.6</ele>
        <time>2025-02-20T09:11:20Z</time>
      </trkpt>
      <trkpt lat="45.63945" lon="6.5509">
        <ele>2212.8</ele>
        <time>2025-02-20T09:11:21Z</time>
      </trkpt>
      <trkpt lat="45.63945" lon="6.5509">
        <ele>2212.8</ele>
        <time>2025-02-20T09:11:22Z</time>
      </trkpt>
      <trkpt lat="45.63945" lon="6.5509">
        <ele>2212.8</ele>
        <time>2025-02-20T09:11:23Z</time>
      </trkpt>
      <trkpt lat="45.63945" lon="6.5509">
        <ele>2212.2</ele>
        <time>2025-02-20T09:11:24Z</time>
      </trkpt>
      <trkpt lat="45.63945" lon="6.5509">
        <ele>2212.6</ele>
        <time>2025-02-20T09:11:25Z</time>
      </trkpt>
      <trkpt lat="45.63945" lon="6.5509">
        <ele>2212.6</ele>
        <time>2025-02-20T09:11:26Z</time>
      </trkpt>
      <trkpt lat="45.63945" lon="6.5509">
        <ele>2212.6</ele>
        <time>2025-02-20T09:11:27Z</time>
      </trkpt>
      <trkpt lat="45.63945" lon="6.5509">
        <ele>2212.6</ele>
        <time>2025-02-20T09:11:28Z</time>
      </trkpt>
      <trkpt lat="45.63945" lon="6.5509">
        <ele>2212.6</ele>
        <time>2025-02-20T09:11:29Z</time>
      </trkpt>
      <trkpt lat="45.63945" lon="6.5509">
        <ele>2212.6</ele>
        <time>2025-02-20T09:11:30Z</time>
      </trkpt>
      <trkpt lat="45.63945" lon="6.5509">
        <ele>2212.6</ele>
        <time>2025-02-20T09:11:31Z</time>
      </trkpt>
      <trkpt lat="45.63945" lon="6.5509">
        <ele>2212.6</ele>
        <time>2025-02-20T09:11:32Z</time>
      </trkpt>
      <trkpt lat="45.63945" lon="6.5509">
        <ele>2212.6</ele>
        <time>2025-02-20T09:11:33Z</time>
      </trkpt>
      <trkpt lat="45.63945" lon="6.5509">
        <ele>2212.6</ele>
        <time>2025-02-20T09:11:34Z</time>
      </trkpt>
      <trkpt lat="45.63945" lon="6.5509">
        <ele>2212.6</ele>
        <time>2025-02-20T09:11:35Z</time>
      </trkpt>
      <trkpt lat="45.63945" lon="6.5509">
        <ele>2212.2</ele>
        <time>2025-02-20T09:11:36Z</time>
      </trkpt>
      <trkpt lat="45.63945" lon="6.5509">
        <ele>2212.4</ele>
        <time>2025-02-20T09:11:37Z</time>
      </trkpt>
      <trkpt lat="45.63945" lon="6.5509">
        <ele>2212.4</ele>
        <time>2025-02-20T09:11:38Z</time>
      </trkpt>
      <trkpt lat="45.63945" lon="6.5509">
        <ele>2212.4</ele>
        <time>2025-02-20T09:11:39Z</time>
      </trkpt>
      <trkpt lat="45.63945" lon="6.5509">
        <ele>2212.4</ele>
        <time>2025-02-20T09:11:40Z</time>
      </trkpt>
      <trkpt lat="45.63945" lon="6.5509">
        <ele>2212.6</ele>
        <time>2025-02-20T09:11:41Z</time>
      </trkpt>
      <trkpt lat="45.63945" lon="6.5509">
        <ele>2212.6</ele>
        <time>2025-02-20T09:11:42Z</time>
      </trkpt>
      <trkpt lat="45.63945" lon="6.5509">
        <ele>2212.6</ele>
        <time>2025-02-20T09:11:43Z</time>
      </trkpt>
      <trkpt lat="45.63945" lon="6.5509">
        <ele>2212.6</ele>
        <time>2025-02-20T09:11:44Z</time>
      </trkpt>
      <trkpt lat="45.63945" lon="6.5509">
        <ele>2212.6</ele>
        <time>2025-02-20T09:11:45Z</time>
      </trkpt>
      <trkpt lat="45.63945" lon="6.5509">
        <ele>2212.6</ele>
        <time>2025-02-20T09:11:46Z</time>
      </trkpt>
      <trkpt lat="45.63945" lon="6.5509">
        <ele>2212.6</ele>
        <time>2025-02-20T09:11:47Z</time>
      </trkpt>
      <trkpt lat="45.63945" lon="6.5509">
        <ele>2212</ele>
        <time>2025-02-20T09:11:48Z</time>
      </trkpt>
      <trkpt lat="45.63945" lon="6.5509">
        <ele>2211.8</ele>
        <time>2025-02-20T09:11:49Z</time>
      </trkpt>
      <trkpt lat="45.63945" lon="6.5509">
        <ele>2211.8</ele>
        <time>2025-02-20T09:11:50Z</time>
      </trkpt>
      <trkpt lat="45.63945" lon="6.5509">
        <ele>2211.8</ele>
        <time>2025-02-20T09:11:51Z</time>
      </trkpt>
      <trkpt lat="45.63945" lon="6.5509">
        <ele>2212</ele>
        <time>2025-02-20T09:11:52Z</time>
      </trkpt>
      <trkpt lat="45.63945" lon="6.5509">
        <ele>2212.2</ele>
        <time>2025-02-20T09:11:53Z</time>
      </trkpt>
      <trkpt lat="45.63945" lon="6.5509">
        <ele>2212.2</ele>
        <time>2025-02-20T09:11:54Z</time>
      </trkpt>
      <trkpt lat="45.63945" lon="6.5509">
        <ele>2212.2</ele>
        <time>2025-02-20T09:11:55Z</time>
      </trkpt>
      <trkpt lat="45.63945" lon="6.5509">
        <ele>2212.2</ele>
        <time>2025-02-20T09:11:56Z</time>
      </trkpt>
      <trkpt lat="45.63945" lon="6.5509">
        <ele>2213</ele>
        <time>2025-02-20T09:11:57Z</time>
      </trkpt>
      <trkpt lat="45.63945" lon="6.5509">
        <ele>2213</ele>
        <time>2025-02-20T09:11:58Z</time>
      </trkpt>
      <trkpt lat="45.63945" lon="6.5509">
        <ele>2213</ele>
        <time>2025-02-20T09:11:59Z</time>
      </trkpt>
      <trkpt lat="45.63945" lon="6.55091">
        <ele>2213</ele>
        <time>2025-02-20T09:12:00Z</time>
      </trkpt>
      <trkpt lat="45.63945" lon="6.55092">
        <ele>2207</ele>
        <time>2025-02-20T09:12:01Z</time>
      </trkpt>
      <trkpt lat="45.63944" lon="6.55093">
        <ele>2207</ele>
        <time>2025-02-20T09:12:02Z</time>
      </trkpt>
      <trkpt lat="45.63943" lon="6.55093">
        <ele>2207</ele>
        <time>2025-02-20T09:12:03Z</time>
      </trkpt>
      <trkpt lat="45.63942" lon="6.55094">
        <ele>2208</ele>
        <time>2025-02-20T09:12:04Z</time>
      </trkpt>
      <trkpt lat="45.63941" lon="6.55095">
        <ele>2213.2</ele>
        <time>2025-02-20T09:12:05Z</time>
      </trkpt>
      <trkpt lat="45.63941" lon="6.55095">
        <ele>2213.2</ele>
        <time>2025-02-20T09:12:06Z</time>
      </trkpt>
      <trkpt lat="45.63941" lon="6.55097">
        <ele>2213.2</ele>
        <time>2025-02-20T09:12:07Z</time>
      </trkpt>
      <trkpt lat="45.6394" lon="6.55098">
        <ele>2213.2</ele>
        <time>2025-02-20T09:12:08Z</time>
      </trkpt>
      <trkpt lat="45.63939" lon="6.55099">
        <ele>2214.6</ele>
        <time>2025-02-20T09:12:09Z</time>
      </trkpt>
      <trkpt lat="45.63939" lon="6.551">
        <ele>2214.6</ele>
        <time>2025-02-20T09:12:10Z</time>
      </trkpt>
      <trkpt lat="45.63938" lon="6.55101">
        <ele>2214.6</ele>
        <time>2025-02-20T09:12:11Z</time>
      </trkpt>
      <trkpt lat="45.63938" lon="6.55102">
        <ele>2214.6</ele>
        <time>2025-02-20T09:12:12Z</time>
      </trkpt>
      <trkpt lat="45.63937" lon="6.55103">
        <ele>2214.4</ele>
        <time>2025-02-20T09:12:13Z</time>
      </trkpt>
      <trkpt lat="45.63937" lon="6.55104">
        <ele>2214.4</ele>
        <time>2025-02-20T09:12:14Z</time>
      </trkpt>
      <trkpt lat="45.63936" lon="6.55105">
        <ele>2214.4</ele>
        <time>2025-02-20T09:12:15Z</time>
      </trkpt>
      <trkpt lat="45.63936" lon="6.55106">
        <ele>2214.4</ele>
        <time>2025-02-20T09:12:16Z</time>
      </trkpt>
      <trkpt lat="45.63935" lon="6.55107">
        <ele>2212.8</ele>
        <time>2025-02-20T09:12:17Z</time>
      </trkpt>
      <trkpt lat="45.63935" lon="6.55107">
        <ele>2212.8</ele>
        <time>2025-02-20T09:12:18Z</time>
      </trkpt>
      <trkpt lat="45.63934" lon="6.55108">
        <ele>2212.8</ele>
        <time>2025-02-20T09:12:19Z</time>
      </trkpt>
      <trkpt lat="45.63933" lon="6.55108">
        <ele>2212.8</ele>
        <time>2025-02-20T09:12:20Z</time>
      </trkpt>
      <trkpt lat="45.63933" lon="6.55109">
        <ele>2214.4</ele>
        <time>2025-02-20T09:12:21Z</time>
      </trkpt>
      <trkpt lat="45.63932" lon="6.5511">
        <ele>2214.4</ele>
        <time>2025-02-20T09:12:22Z</time>
      </trkpt>
      <trkpt lat="45.63932" lon="6.55111">
        <ele>2214.4</ele>
        <time>2025-02-20T09:12:23Z</time>
      </trkpt>
      <trkpt lat="45.63931" lon="6.55111">
        <ele>2214.4</ele>
        <time>2025-02-20T09:12:24Z</time>
      </trkpt>
      <trkpt lat="45.6393" lon="6.55111">
        <ele>2214.8</ele>
        <time>2025-02-20T09:12:25Z</time>
      </trkpt>
      <trkpt lat="45.6393" lon="6.55112">
        <ele>2214.8</ele>
        <time>2025-02-20T09:12:26Z</time>
      </trkpt>
      <trkpt lat="45.6393" lon="6.55112">
        <ele>2214.8</ele>
        <time>2025-02-20T09:12:27Z</time>
      </trkpt>
      <trkpt lat="45.6393" lon="6.55112">
        <ele>2214.8</ele>
        <time>2025-02-20T09:12:28Z</time>
      </trkpt>
      <trkpt lat="45.6393" lon="6.55112">
        <ele>2215</ele>
        <time>2025-02-20T09:12:29Z</time>
      </trkpt>
      <trkpt lat="45.6393" lon="6.55112">
        <ele>2215</ele>
        <time>2025-02-20T09:12:30Z</time>
      </trkpt>
      <trkpt lat="45.6393" lon="6.55112">
        <ele>2215</ele>
        <time>2025-02-20T09:12:31Z</time>
      </trkpt>
      <trkpt lat="45.6393" lon="6.55112">
        <ele>2215</ele>
        <time>2025-02-20T09:12:32Z</time>
      </trkpt>
      <trkpt lat="45.6393" lon="6.55112">
        <ele>2214.4</ele>
        <time>2025-02-20T09:12:33Z</time>
      </trkpt>
      <trkpt lat="45.6393" lon="6.55112">
        <ele>2214.4</ele>
        <time>2025-02-20T09:12:34Z</time>
      </trkpt>
      <trkpt lat="45.6393" lon="6.55112">
        <ele>2214.4</ele>
        <time>2025-02-20T09:12:35Z</time>
      </trkpt>
      <trkpt lat="45.6393" lon="6.55112">
        <ele>2214.6</ele>
        <time>2025-02-20T09:12:36Z</time>
      </trkpt>
      <trkpt lat="45.6393" lon="6.55112">
        <ele>2214.2</ele>
        <time>2025-02-20T09:12:37Z</time>
      </trkpt>
      <trkpt lat="45.6393" lon="6.55112">
        <ele>2214.2</ele>
        <time>2025-02-20T09:12:38Z</time>
      </trkpt>
      <trkpt lat="45.6393" lon="6.55112">
        <ele>2214.2</ele>
        <time>2025-02-20T09:12:39Z</time>
      </trkpt>
      <trkpt lat="45.6393" lon="6.55112">
        <ele>2214.2</ele>
        <time>2025-02-20T09:12:40Z</time>
      </trkpt>
      <trkpt lat="45.6393" lon="6.55112">
        <ele>2214.4</ele>
        <time>2025-02-20T09:12:41Z</time>
      </trkpt>
      <trkpt lat="45.6393" lon="6.55112">
        <ele>2214.4</ele>
        <time>2025-02-20T09:12:42Z</time>
      </trkpt>
      <trkpt lat="45.6393" lon="6.55112">
        <ele>2214.4</ele>
        <time>2025-02-20T09:12:43Z</time>
      </trkpt>
      <trkpt lat="45.6393" lon="6.55112">
        <ele>2214.4</ele>
        <time>2025-02-20T09:12:44Z</time>
      </trkpt>
      <trkpt lat="45.6393" lon="6.55112">
        <ele>2214.4</ele>
        <time>2025-02-20T09:12:45Z</time>
      </trkpt>
      <trkpt lat="45.6393" lon="6.55112">
        <ele>2214.4</ele>
        <time>2025-02-20T09:12:46Z</time>
      </trkpt>
      <trkpt lat="45.6393" lon="6.55112">
        <ele>2214.4</ele>
        <time>2025-02-20T09:12:47Z</time>
      </trkpt>
      <trkpt lat="45.6393" lon="6.55112">
        <ele>2214.4</ele>
        <time>2025-02-20T09:12:48Z</time>
      </trkpt>
      <trkpt lat="45.6393" lon="6.55112">
        <ele>2215</ele>
        <time>2025-02-20T09:12:49Z</time>
      </trkpt>
      <trkpt lat="45.6393" lon="6.55112">
        <ele>2215</ele>
        <time>2025-02-20T09:12:50Z</time>
      </trkpt>
      <trkpt lat="45.6393" lon="6.55112">
        <ele>2215</ele>
        <time>2025-02-20T09:12:51Z</time>
      </trkpt>
      <trkpt lat="45.6393" lon="6.55112">
        <ele>2215</ele>
        <time>2025-02-20T09:12:52Z</time>
      </trkpt>
      <trkpt lat="45.6393" lon="6.55112">
        <ele>2214</ele>
        <time>2025-02-20T09:12:53Z</time>
      </trkpt>
      <trkpt lat="45.6393" lon="6.55112">
        <ele>2214</ele>
        <time>2025-02-20T09:12:54Z</time>
      </trkpt>
      <trkpt lat="45.6393" lon="6.55112">
        <ele>2214</ele>
        <time>2025-02-20T09:12:55Z</time>
      </trkpt>
      <trkpt lat="45.6393" lon="6.55112">
        <ele>2215</ele>
        <time>2025-02-20T09:12:56Z</time>
      </trkpt>
      <trkpt lat="45.6393" lon="6.55112">
        <ele>2215.2</ele>
        <time>2025-02-20T09:12:57Z</time>
      </trkpt>
      <trkpt lat="45.6393" lon="6.55112">
        <ele>2215.2</ele>
        <time>2025-02-20T09:12:58Z</time>
      </trkpt>
      <trkpt lat="45.6393" lon="6.55112">
        <ele>2215.2</ele>
        <time>2025-02-20T09:12:59Z</time>
      </trkpt>
      <trkpt lat="45.6393" lon="6.55112">
        <ele>2215.2</ele>
        <time>2025-02-20T09:13:00Z</time>
      </trkpt>
      <trkpt lat="45.6393" lon="6.55112">
        <ele>2214.6</ele>
        <time>2025-02-20T09:13:01Z</time>
      </trkpt>
      <trkpt lat="45.6393" lon="6.55112">
        <ele>2214.6</ele>
        <time>2025-02-20T09:13:02Z</time>
      </trkpt>
      <trkpt lat="45.6393" lon="6.55112">
        <ele>2214.6</ele>
        <time>2025-02-20T09:13:03Z</time>
      </trkpt>
      <trkpt lat="45.6393" lon="6.55112">
        <ele>2214.6</ele>
        <time>2025-02-20T09:13:04Z</time>
      </trkpt>
      <trkpt lat="45.6393" lon="6.55112">
        <ele>2214.2</ele>
        <time>2025-02-20T09:13:05Z</time>
      </trkpt>
      <trkpt lat="45.6393" lon="6.55112">
        <ele>2214.2</ele>
        <time>2025-02-20T09:13:06Z</time>
      </trkpt>
      <trkpt lat="45.6393" lon="6.55112">
        <ele>2214.2</ele>
        <time>2025-02-20T09:13:07Z</time>
      </trkpt>
      <trkpt lat="45.6393" lon="6.55112">
        <ele>2214.4</ele>
        <time>2025-02-20T09:13:08Z</time>
      </trkpt>
      <trkpt lat="45.6393" lon="6.55112">
        <ele>2214</ele>
        <time>2025-02-20T09:13:09Z</time>
      </trkpt>
      <trkpt lat="45.6393" lon="6.55112">
        <ele>2214</ele>
        <time>2025-02-20T09:13:10Z</time>
      </trkpt>
      <trkpt lat="45.6393" lon="6.55112">
        <ele>2214</ele>
        <time>2025-02-20T09:13:11Z</time>
      </trkpt>
      <trkpt lat="45.6393" lon="6.55112">
        <ele>2214.6</ele>
        <time>2025-02-20T09:13:12Z</time>
      </trkpt>
      <trkpt lat="45.6393" lon="6.55112">
        <ele>2214.6</ele>
        <time>2025-02-20T09:13:13Z</time>
      </trkpt>
      <trkpt lat="45.6393" lon="6.55112">
        <ele>2214.6</ele>
        <time>2025-02-20T09:13:14Z</time>
      </trkpt>
      <trkpt lat="45.6393" lon="6.55112">
        <ele>2214.6</ele>
        <time>2025-02-20T09:13:15Z</time>
      </trkpt>
      <trkpt lat="45.6393" lon="6.55112">
        <ele>2214.6</ele>
        <time>2025-02-20T09:13:16Z</time>
      </trkpt>
      <trkpt lat="45.6393" lon="6.55112">
        <ele>2213.2</ele>
        <time>2025-02-20T09:13:17Z</time>
      </trkpt>
      <trkpt lat="45.6393" lon="6.55112">
        <ele>2213.2</ele>
        <time>2025-02-20T09:13:18Z</time>
      </trkpt>
      <trkpt lat="45.6393" lon="6.55112">
        <ele>2213.2</ele>
        <time>2025-02-20T09:13:19Z</time>
      </trkpt>
      <trkpt lat="45.6393" lon="6.55112">
        <ele>2213.2</ele>
        <time>2025-02-20T09:13:20Z</time>
      </trkpt>
      <trkpt lat="45.6393" lon="6.55112">
        <ele>2214.2</ele>
        <time>2025-02-20T09:13:21Z</time>
      </trkpt>
      <trkpt lat="45.6393" lon="6.55112">
        <ele>2214.2</ele>
        <time>2025-02-20T09:13:22Z</time>
      </trkpt>
      <trkpt lat="45.6393" lon="6.55112">
        <ele>2214.2</ele>
        <time>2025-02-20T09:13:23Z</time>
      </trkpt>
      <trkpt lat="45.6393" lon="6.55112">
        <ele>2214.6</ele>
        <time>2025-02-20T09:13:24Z</time>
      </trkpt>
      <trkpt lat="45.6393" lon="6.55112">
        <ele>2214.4</ele>
        <time>2025-02-20T09:13:25Z</time>
      </trkpt>
      <trkpt lat="45.6393" lon="6.55112">
        <ele>2214.4</ele>
        <time>2025-02-20T09:13:26Z</time>
      </trkpt>
      <trkpt lat="45.6393" lon="6.55112">
        <ele>2214.4</ele>
        <time>2025-02-20T09:13:27Z</time>
      </trkpt>
      <trkpt lat="45.6393" lon="6.55112">
        <ele>2214.4</ele>
        <time>2025-02-20T09:13:28Z</time>
      </trkpt>
      <trkpt lat="45.6393" lon="6.55112">
        <ele>2214.8</ele>
        <time>2025-02-20T09:13:29Z</time>
      </trkpt>
      <trkpt lat="45.6393" lon="6.55112">
        <ele>2214.8</ele>
        <time>2025-02-20T09:13:30Z</time>
      </trkpt>
      <trkpt lat="45.6393" lon="6.55112">
        <ele>2214.8</ele>
        <time>2025-02-20T09:13:31Z</time>
      </trkpt>
      <trkpt lat="45.6393" lon="6.55112">
        <ele>2214.8</ele>
        <time>2025-02-20T09:13:32Z</time>
      </trkpt>
      <trkpt lat="45.6393" lon="6.55112">
        <ele>2217</ele>
        <time>2025-02-20T09:13:33Z</time>
      </trkpt>
      <trkpt lat="45.6393" lon="6.55112">
        <ele>2217</ele>
        <time>2025-02-20T09:13:34Z</time>
      </trkpt>
      <trkpt lat="45.6393" lon="6.55112">
        <ele>2217</ele>
        <time>2025-02-20T09:13:35Z</time>
      </trkpt>
      <trkpt lat="45.63922" lon="6.55115">
        <ele>2216</ele>
        <time>2025-02-20T09:13:36Z</time>
      </trkpt>
      <trkpt lat="45.63922" lon="6.55115">
        <ele>2216</ele>
        <time>2025-02-20T09:13:37Z</time>
      </trkpt>
      <trkpt lat="45.63921" lon="6.55115">
        <ele>2216</ele>
        <time>2025-02-20T09:13:38Z</time>
      </trkpt>
      <trkpt lat="45.6392" lon="6.55116">
        <ele>2216</ele>
        <time>2025-02-20T09:13:39Z</time>
      </trkpt>
      <trkpt lat="45.63919" lon="6.55116">
        <ele>2216</ele>
        <time>2025-02-20T09:13:40Z</time>
      </trkpt>
      <trkpt lat="45.63919" lon="6.55116">
        <ele>2214</ele>
        <time>2025-02-20T09:13:41Z</time>
      </trkpt>
      <trkpt lat="45.63919" lon="6.55116">
        <ele>2214</ele>
        <time>2025-02-20T09:13:42Z</time>
      </trkpt>
      <trkpt lat="45.63919" lon="6.55116">
        <ele>2214</ele>
        <time>2025-02-20T09:13:43Z</time>
      </trkpt>
      <trkpt lat="45.63917" lon="6.55118">
        <ele>2214</ele>
        <time>2025-02-20T09:13:44Z</time>
      </trkpt>
      <trkpt lat="45.63917" lon="6.55118">
        <ele>2216</ele>
        <time>2025-02-20T09:13:45Z</time>
      </trkpt>
      <trkpt lat="45.63916" lon="6.55118">
        <ele>2216</ele>
        <time>2025-02-20T09:13:46Z</time>
      </trkpt>
      <trkpt lat="45.63915" lon="6.55119">
        <ele>2216</ele>
        <time>2025-02-20T09:13:47Z</time>
      </trkpt>
      <trkpt lat="45.63915" lon="6.55119">
        <ele>2216</ele>
        <time>2025-02-20T09:13:48Z</time>
      </trkpt>
      <trkpt lat="45.63914" lon="6.5512">
        <ele>2211.4</ele>
        <time>2025-02-20T09:13:49Z</time>
      </trkpt>
      <trkpt lat="45.63913" lon="6.5512">
        <ele>2211.4</ele>
        <time>2025-02-20T09:13:50Z</time>
      </trkpt>
      <trkpt lat="45.63912" lon="6.5512">
        <ele>2211.4</ele>
        <time>2025-02-20T09:13:51Z</time>
      </trkpt>
      <trkpt lat="45.63912" lon="6.55121">
        <ele>2212.4</ele>
        <time>2025-02-20T09:13:52Z</time>
      </trkpt>
      <trkpt lat="45.63911" lon="6.55122">
        <ele>2216.2</ele>
        <time>2025-02-20T09:13:53Z</time>
      </trkpt>
      <trkpt lat="45.63911" lon="6.55122">
        <ele>2216.2</ele>
        <time>2025-02-20T09:13:54Z</time>
      </trkpt>
      <trkpt lat="45.63911" lon="6.55122">
        <ele>2216.2</ele>
        <time>2025-02-20T09:13:55Z</time>
      </trkpt>
      <trkpt lat="45.63911" lon="6.55122">
        <ele>2216.2</ele>
        <time>2025-02-20T09:13:56Z</time>
      </trkpt>
      <trkpt lat="45.63911" lon="6.55122">
        <ele>2215.6</ele>
        <time>2025-02-20T09:13:57Z</time>
      </trkpt>
      <trkpt lat="45.63911" lon="6.55122">
        <ele>2215.6</ele>
        <time>2025-02-20T09:13:58Z</time>
      </trkpt>
      <trkpt lat="45.63911" lon="6.55122">
        <ele>2215.6</ele>
        <time>2025-02-20T09:13:59Z</time>
      </trkpt>
      <trkpt lat="45.63911" lon="6.55122">
        <ele>2215.6</ele>
        <time>2025-02-20T09:14:00Z</time>
      </trkpt>
      <trkpt lat="45.63911" lon="6.55122">
        <ele>2215.2</ele>
        <time>2025-02-20T09:14:01Z</time>
      </trkpt>
      <trkpt lat="45.63911" lon="6.55122">
        <ele>2215.2</ele>
        <time>2025-02-20T09:14:02Z</time>
      </trkpt>
      <trkpt lat="45.63911" lon="6.55122">
        <ele>2215.2</ele>
        <time>2025-02-20T09:14:03Z</time>
      </trkpt>
      <trkpt lat="45.63911" lon="6.55122">
        <ele>2215.2</ele>
        <time>2025-02-20T09:14:04Z</time>
      </trkpt>
      <trkpt lat="45.63911" lon="6.55122">
        <ele>2214</ele>
        <time>2025-02-20T09:14:05Z</time>
      </trkpt>
      <trkpt lat="45.63911" lon="6.55122">
        <ele>2214</ele>
        <time>2025-02-20T09:14:06Z</time>
      </trkpt>
      <trkpt lat="45.63911" lon="6.55122">
        <ele>2214</ele>
        <time>2025-02-20T09:14:07Z</time>
      </trkpt>
      <trkpt lat="45.63911" lon="6.55122">
        <ele>2215</ele>
        <time>2025-02-20T09:14:08Z</time>
      </trkpt>
      <trkpt lat="45.63911" lon="6.55122">
        <ele>2215.8</ele>
        <time>2025-02-20T09:14:09Z</time>
      </trkpt>
      <trkpt lat="45.63911" lon="6.55122">
        <ele>2215.8</ele>
        <time>2025-02-20T09:14:10Z</time>
      </trkpt>
      <trkpt lat="45.63911" lon="6.55122">
        <ele>2215.8</ele>
        <time>2025-02-20T09:14:11Z</time>
      </trkpt>
      <trkpt lat="45.63911" lon="6.55122">
        <ele>2215.8</ele>
        <time>2025-02-20T09:14:12Z</time>
      </trkpt>
      <trkpt lat="45.63911" lon="6.55122">
        <ele>2216.6</ele>
        <time>2025-02-20T09:14:13Z</time>
      </trkpt>
      <trkpt lat="45.63911" lon="6.55122">
        <ele>2216.6</ele>
        <time>2025-02-20T09:14:14Z</time>
      </trkpt>
      <trkpt lat="45.63911" lon="6.55122">
        <ele>2216.6</ele>
        <time>2025-02-20T09:14:15Z</time>
      </trkpt>
      <trkpt lat="45.63911" lon="6.55122">
        <ele>2217.4</ele>
        <time>2025-02-20T09:14:16Z</time>
      </trkpt>
      <trkpt lat="45.63911" lon="6.55122">
        <ele>2216.8</ele>
        <time>2025-02-20T09:14:17Z</time>
      </trkpt>
      <trkpt lat="45.63911" lon="6.55122">
        <ele>2216.8</ele>
        <time>2025-02-20T09:14:18Z</time>
      </trkpt>
      <trkpt lat="45.63911" lon="6.55122">
        <ele>2216.8</ele>
        <time>2025-02-20T09:14:19Z</time>
      </trkpt>
      <trkpt lat="45.63911" lon="6.55122">
        <ele>2216.2</ele>
        <time>2025-02-20T09:14:20Z</time>
      </trkpt>
      <trkpt lat="45.63911" lon="6.55122">
        <ele>2216.4</ele>
        <time>2025-02-20T09:14:21Z</time>
      </trkpt>
      <trkpt lat="45.63911" lon="6.55122">
        <ele>2216.4</ele>
        <time>2025-02-20T09:14:22Z</time>
      </trkpt>
      <trkpt lat="45.63911" lon="6.55122">
        <ele>2216.4</ele>
        <time>2025-02-20T09:14:23Z</time>
      </trkpt>
      <trkpt lat="45.63911" lon="6.55122">
        <ele>2215.6</ele>
        <time>2025-02-20T09:14:24Z</time>
      </trkpt>
      <trkpt lat="45.63911" lon="6.55122">
        <ele>2214.8</ele>
        <time>2025-02-20T09:14:25Z</time>
      </trkpt>
      <trkpt lat="45.63911" lon="6.55122">
        <ele>2214.8</ele>
        <time>2025-02-20T09:14:26Z</time>
      </trkpt>
      <trkpt lat="45.63911" lon="6.55122">
        <ele>2214.8</ele>
        <time>2025-02-20T09:14:27Z</time>
      </trkpt>
      <trkpt lat="45.63911" lon="6.55122">
        <ele>2215.8</ele>
        <time>2025-02-20T09:14:28Z</time>
      </trkpt>
      <trkpt lat="45.63911" lon="6.55122">
        <ele>2216.4</ele>
        <time>2025-02-20T09:14:29Z</time>
      </trkpt>
      <trkpt lat="45.63911" lon="6.55122">
        <ele>2216.4</ele>
        <time>2025-02-20T09:14:30Z</time>
      </trkpt>
      <trkpt lat="45.63911" lon="6.55122">
        <ele>2216.4</ele>
        <time>2025-02-20T09:14:31Z</time>
      </trkpt>
      <trkpt lat="45.63911" lon="6.55122">
        <ele>2216.4</ele>
        <time>2025-02-20T09:14:32Z</time>
      </trkpt>
      <trkpt lat="45.63911" lon="6.55122">
        <ele>2216</ele>
        <time>2025-02-20T09:14:33Z</time>
      </trkpt>
      <trkpt lat="45.63911" lon="6.55122">
        <ele>2216</ele>
        <time>2025-02-20T09:14:34Z</time>
      </trkpt>
      <trkpt lat="45.63906" lon="6.55125">
        <ele>2216</ele>
        <time>2025-02-20T09:14:35Z</time>
      </trkpt>
      <trkpt lat="45.63906" lon="6.55126">
        <ele>2216</ele>
        <time>2025-02-20T09:14:36Z</time>
      </trkpt>
      <trkpt lat="45.63905" lon="6.55127">
        <ele>2216.4</ele>
        <time>2025-02-20T09:14:37Z</time>
      </trkpt>
      <trkpt lat="45.63904" lon="6.55128">
        <ele>2216.4</ele>
        <time>2025-02-20T09:14:38Z</time>
      </trkpt>
      <trkpt lat="45.63904" lon="6.55129">
        <ele>2216.4</ele>
        <time>2025-02-20T09:14:39Z</time>
      </trkpt>
      <trkpt lat="45.63903" lon="6.55129">
        <ele>2216.4</ele>
        <time>2025-02-20T09:14:40Z</time>
      </trkpt>
      <trkpt lat="45.63903" lon="6.55129">
        <ele>2212.8</ele>
        <time>2025-02-20T09:14:41Z</time>
      </trkpt>
      <trkpt lat="45.63903" lon="6.5513">
        <ele>2212.8</ele>
        <time>2025-02-20T09:14:42Z</time>
      </trkpt>
      <trkpt lat="45.63902" lon="6.5513">
        <ele>2212.8</ele>
        <time>2025-02-20T09:14:43Z</time>
      </trkpt>
      <trkpt lat="45.63902" lon="6.55131">
        <ele>2213.8</ele>
        <time>2025-02-20T09:14:44Z</time>
      </trkpt>
      <trkpt lat="45.63901" lon="6.55132">
        <ele>2214</ele>
        <time>2025-02-20T09:14:45Z</time>
      </trkpt>
      <trkpt lat="45.63901" lon="6.55133">
        <ele>2214</ele>
        <time>2025-02-20T09:14:46Z</time>
      </trkpt>
      <trkpt lat="45.639" lon="6.55133">
        <ele>2214</ele>
        <time>2025-02-20T09:14:47Z</time>
      </trkpt>
      <trkpt lat="45.639" lon="6.55134">
        <ele>2215</ele>
        <time>2025-02-20T09:14:48Z</time>
      </trkpt>
      <trkpt lat="45.63899" lon="6.55135">
        <ele>2215.8</ele>
        <time>2025-02-20T09:14:49Z</time>
      </trkpt>
      <trkpt lat="45.63898" lon="6.55135">
        <ele>2215.8</ele>
        <time>2025-02-20T09:14:50Z</time>
      </trkpt>
      <trkpt lat="45.63898" lon="6.55136">
        <ele>2215.8</ele>
        <time>2025-02-20T09:14:51Z</time>
      </trkpt>
      <trkpt lat="45.63898" lon="6.55136">
        <ele>2216.8</ele>
        <time>2025-02-20T09:14:52Z</time>
      </trkpt>
      <trkpt lat="45.63897" lon="6.55137">
        <ele>2216.8</ele>
        <time>2025-02-20T09:14:53Z</time>
      </trkpt>
      <trkpt lat="45.63897" lon="6.55138">
        <ele>2216.8</ele>
        <time>2025-02-20T09:14:54Z</time>
      </trkpt>
      <trkpt lat="45.63896" lon="6.55138">
        <ele>2216.8</ele>
        <time>2025-02-20T09:14:55Z</time>
      </trkpt>
      <trkpt lat="45.63896" lon="6.55139">
        <ele>2216.8</ele>
        <time>2025-02-20T09:14:56Z</time>
      </trkpt>
      <trkpt lat="45.63895" lon="6.5514">
        <ele>2221</ele>
        <time>2025-02-20T09:14:57Z</time>
      </trkpt>
      <trkpt lat="45.63895" lon="6.55141">
        <ele>2221</ele>
        <time>2025-02-20T09:14:58Z</time>
      </trkpt>
      <trkpt lat="45.63894" lon="6.55141">
        <ele>2221</ele>
        <time>2025-02-20T09:14:59Z</time>
      </trkpt>
      <trkpt lat="45.63894" lon="6.55142">
        <ele>2220</ele>
        <time>2025-02-20T09:15:00Z</time>
      </trkpt>
      <trkpt lat="45.63893" lon="6.55142">
        <ele>2218.2</ele>
        <time>2025-02-20T09:15:01Z</time>
      </trkpt>
      <trkpt lat="45.63892" lon="6.55143">
        <ele>2218.2</ele>
        <time>2025-02-20T09:15:02Z</time>
      </trkpt>
      <trkpt lat="45.63892" lon="6.55143">
        <ele>2218.2</ele>
        <time>2025-02-20T09:15:03Z</time>
      </trkpt>
      <trkpt lat="45.63891" lon="6.55144">
        <ele>2219.2</ele>
        <time>2025-02-20T09:15:04Z</time>
      </trkpt>
      <trkpt lat="45.63891" lon="6.55145">
        <ele>2221.6</ele>
        <time>2025-02-20T09:15:05Z</time>
      </trkpt>
      <trkpt lat="45.6389" lon="6.55145">
        <ele>2221.6</ele>
        <time>2025-02-20T09:15:06Z</time>
      </trkpt>
      <trkpt lat="45.6389" lon="6.55146">
        <ele>2221.6</ele>
        <time>2025-02-20T09:15:07Z</time>
      </trkpt>
      <trkpt lat="45.63889" lon="6.55146">
        <ele>2220.6</ele>
        <time>2025-02-20T09:15:08Z</time>
      </trkpt>
      <trkpt lat="45.63888" lon="6.55147">
        <ele>2223</ele>
        <time>2025-02-20T09:15:09Z</time>
      </trkpt>
      <trkpt lat="45.63888" lon="6.55147">
        <ele>2223</ele>
        <time>2025-02-20T09:15:10Z</time>
      </trkpt>
      <trkpt lat="45.63887" lon="6.55147">
        <ele>2223</ele>
        <time>2025-02-20T09:15:11Z</time>
      </trkpt>
      <trkpt lat="45.63886" lon="6.55148">
        <ele>2223</ele>
        <time>2025-02-20T09:15:12Z</time>
      </trkpt>
      <trkpt lat="45.63886" lon="6.55148">
        <ele>2216.8</ele>
        <time>2025-02-20T09:15:13Z</time>
      </trkpt>
      <trkpt lat="45.63885" lon="6.55147">
        <ele>2216.8</ele>
        <time>2025-02-20T09:15:14Z</time>
      </trkpt>
      <trkpt lat="45.63885" lon="6.55147">
        <ele>2216.8</ele>
        <time>2025-02-20T09:15:15Z</time>
      </trkpt>
      <trkpt lat="45.63885" lon="6.55146">
        <ele>2217.8</ele>
        <time>2025-02-20T09:15:16Z</time>
      </trkpt>
      <trkpt lat="45.63885" lon="6.55145">
        <ele>2222.4</ele>
        <time>2025-02-20T09:15:17Z</time>
      </trkpt>
      <trkpt lat="45.63885" lon="6.55144">
        <ele>2222.4</ele>
        <time>2025-02-20T09:15:18Z</time>
      </trkpt>
      <trkpt lat="45.63885" lon="6.55143">
        <ele>2222.4</ele>
        <time>2025-02-20T09:15:19Z</time>
      </trkpt>
      <trkpt lat="45.63885" lon="6.55142">
        <ele>2222.4</ele>
        <time>2025-02-20T09:15:20Z</time>
      </trkpt>
      <trkpt lat="45.63884" lon="6.55142">
        <ele>2223.4</ele>
        <time>2025-02-20T09:15:21Z</time>
      </trkpt>
      <trkpt lat="45.63884" lon="6.55142">
        <ele>2223.4</ele>
        <time>2025-02-20T09:15:22Z</time>
      </trkpt>
      <trkpt lat="45.63884" lon="6.55141">
        <ele>2223.4</ele>
        <time>2025-02-20T09:15:23Z</time>
      </trkpt>
      <trkpt lat="45.63883" lon="6.55141">
        <ele>2223.4</ele>
        <time>2025-02-20T09:15:24Z</time>
      </trkpt>
      <trkpt lat="45.63882" lon="6.55142">
        <ele>2224.6</ele>
        <time>2025-02-20T09:15:25Z</time>
      </trkpt>
      <trkpt lat="45.63882" lon="6.55141">
        <ele>2224.6</ele>
        <time>2025-02-20T09:15:26Z</time>
      </trkpt>
      <trkpt lat="45.63881" lon="6.55142">
        <ele>2224.6</ele>
        <time>2025-02-20T09:15:27Z</time>
      </trkpt>
      <trkpt lat="45.63881" lon="6.55142">
        <ele>2224.6</ele>
        <time>2025-02-20T09:15:28Z</time>
      </trkpt>
      <trkpt lat="45.6388" lon="6.55141">
        <ele>2219.8</ele>
        <time>2025-02-20T09:15:29Z</time>
      </trkpt>
      <trkpt lat="45.63879" lon="6.55141">
        <ele>2219.8</ele>
        <time>2025-02-20T09:15:30Z</time>
      </trkpt>
      <trkpt lat="45.63878" lon="6.55141">
        <ele>2219.8</ele>
        <time>2025-02-20T09:15:31Z</time>
      </trkpt>
      <trkpt lat="45.63878" lon="6.55141">
        <ele>2219.8</ele>
        <time>2025-02-20T09:15:32Z</time>
      </trkpt>
      <trkpt lat="45.63877" lon="6.55141">
        <ele>2219.2</ele>
        <time>2025-02-20T09:15:33Z</time>
      </trkpt>
      <trkpt lat="45.63877" lon="6.55141">
        <ele>2219.2</ele>
        <time>2025-02-20T09:15:34Z</time>
      </trkpt>
      <trkpt lat="45.63877" lon="6.55141">
        <ele>2219.2</ele>
        <time>2025-02-20T09:15:35Z</time>
      </trkpt>
      <trkpt lat="45.63876" lon="6.55142">
        <ele>2220.2</ele>
        <time>2025-02-20T09:15:36Z</time>
      </trkpt>
      <trkpt lat="45.63875" lon="6.55142">
        <ele>2223.2</ele>
        <time>2025-02-20T09:15:37Z</time>
      </trkpt>
      <trkpt lat="45.63875" lon="6.55142">
        <ele>2223.2</ele>
        <time>2025-02-20T09:15:38Z</time>
      </trkpt>
      <trkpt lat="45.63875" lon="6.55142">
        <ele>2223.2</ele>
        <time>2025-02-20T09:15:39Z</time>
      </trkpt>
      <trkpt lat="45.63874" lon="6.55143">
        <ele>2224.2</ele>
        <time>2025-02-20T09:15:40Z</time>
      </trkpt>
      <trkpt lat="45.63873" lon="6.55143">
        <ele>2228.2</ele>
        <time>2025-02-20T09:15:41Z</time>
      </trkpt>
      <trkpt lat="45.63872" lon="6.55143">
        <ele>2228.2</ele>
        <time>2025-02-20T09:15:42Z</time>
      </trkpt>
      <trkpt lat="45.63872" lon="6.55144">
        <ele>2228.2</ele>
        <time>2025-02-20T09:15:43Z</time>
      </trkpt>
      <trkpt lat="45.63871" lon="6.55144">
        <ele>2227.2</ele>
        <time>2025-02-20T09:15:44Z</time>
      </trkpt>
      <trkpt lat="45.6387" lon="6.55144">
        <ele>2227.2</ele>
        <time>2025-02-20T09:15:45Z</time>
      </trkpt>
      <trkpt lat="45.6387" lon="6.55145">
        <ele>2227.2</ele>
        <time>2025-02-20T09:15:46Z</time>
      </trkpt>
      <trkpt lat="45.63869" lon="6.55145">
        <ele>2227.2</ele>
        <time>2025-02-20T09:15:47Z</time>
      </trkpt>
      <trkpt lat="45.63868" lon="6.55146">
        <ele>2227.2</ele>
        <time>2025-02-20T09:15:48Z</time>
      </trkpt>
      <trkpt lat="45.63867" lon="6.55146">
        <ele>2225</ele>
        <time>2025-02-20T09:15:49Z</time>
      </trkpt>
      <trkpt lat="45.63866" lon="6.55146">
        <ele>2225</ele>
        <time>2025-02-20T09:15:50Z</time>
      </trkpt>
      <trkpt lat="45.63866" lon="6.55147">
        <ele>2225</ele>
        <time>2025-02-20T09:15:51Z</time>
      </trkpt>
      <trkpt lat="45.63865" lon="6.55147">
        <ele>2225</ele>
        <time>2025-02-20T09:15:52Z</time>
      </trkpt>
      <trkpt lat="45.63865" lon="6.55148">
        <ele>2229.4</ele>
        <time>2025-02-20T09:15:53Z</time>
      </trkpt>
      <trkpt lat="45.63864" lon="6.55148">
        <ele>2229.4</ele>
        <time>2025-02-20T09:15:54Z</time>
      </trkpt>
      <trkpt lat="45.63864" lon="6.55148">
        <ele>2229.4</ele>
        <time>2025-02-20T09:15:55Z</time>
      </trkpt>
      <trkpt lat="45.63863" lon="6.55148">
        <ele>2228.4</ele>
        <time>2025-02-20T09:15:56Z</time>
      </trkpt>
      <trkpt lat="45.63863" lon="6.55149">
        <ele>2223.4</ele>
        <time>2025-02-20T09:15:57Z</time>
      </trkpt>
      <trkpt lat="45.63862" lon="6.5515">
        <ele>2223.4</ele>
        <time>2025-02-20T09:15:58Z</time>
      </trkpt>
      <trkpt lat="45.63861" lon="6.5515">
        <ele>2223.4</ele>
        <time>2025-02-20T09:15:59Z</time>
      </trkpt>
      <trkpt lat="45.63861" lon="6.55151">
        <ele>2223.4</ele>
        <time>2025-02-20T09:16:00Z</time>
      </trkpt>
      <trkpt lat="45.63861" lon="6.55151">
        <ele>2228</ele>
        <time>2025-02-20T09:16:01Z</time>
      </trkpt>
      <trkpt lat="45.63861" lon="6.55152">
        <ele>2228</ele>
        <time>2025-02-20T09:16:02Z</time>
      </trkpt>
      <trkpt lat="45.6386" lon="6.55152">
        <ele>2228</ele>
        <time>2025-02-20T09:16:03Z</time>
      </trkpt>
      <trkpt lat="45.6386" lon="6.55152">
        <ele>2228</ele>
        <time>2025-02-20T09:16:04Z</time>
      </trkpt>
      <trkpt lat="45.63859" lon="6.55151">
        <ele>2226.6</ele>
        <time>2025-02-20T09:16:05Z</time>
      </trkpt>
      <trkpt lat="45.63859" lon="6.55151">
        <ele>2226.6</ele>
        <time>2025-02-20T09:16:06Z</time>
      </trkpt>
      <trkpt lat="45.63859" lon="6.5515">
        <ele>2226.6</ele>
        <time>2025-02-20T09:16:07Z</time>
      </trkpt>
      <trkpt lat="45.63859" lon="6.55149">
        <ele>2226.6</ele>
        <time>2025-02-20T09:16:08Z</time>
      </trkpt>
      <trkpt lat="45.63859" lon="6.55148">
        <ele>2226.4</ele>
        <time>2025-02-20T09:16:09Z</time>
      </trkpt>
      <trkpt lat="45.63859" lon="6.55147">
        <ele>2226.4</ele>
        <time>2025-02-20T09:16:10Z</time>
      </trkpt>
      <trkpt lat="45.63859" lon="6.55146">
        <ele>2226.4</ele>
        <time>2025-02-20T09:16:11Z</time>
      </trkpt>
      <trkpt lat="45.63859" lon="6.55144">
        <ele>2226.4</ele>
        <time>2025-02-20T09:16:12Z</time>
      </trkpt>
      <trkpt lat="45.63859" lon="6.55144">
        <ele>2228.8</ele>
        <time>2025-02-20T09:16:13Z</time>
      </trkpt>
      <trkpt lat="45.63859" lon="6.55142">
        <ele>2228.8</ele>
        <time>2025-02-20T09:16:14Z</time>
      </trkpt>
      <trkpt lat="45.6386" lon="6.55141">
        <ele>2228.8</ele>
        <time>2025-02-20T09:16:15Z</time>
      </trkpt>
      <trkpt lat="45.6386" lon="6.5514">
        <ele>2228.8</ele>
        <time>2025-02-20T09:16:16Z</time>
      </trkpt>
      <trkpt lat="45.6386" lon="6.55139">
        <ele>2228.8</ele>
        <time>2025-02-20T09:16:17Z</time>
      </trkpt>
      <trkpt lat="45.6386" lon="6.55138">
        <ele>2228.8</ele>
        <time>2025-02-20T09:16:18Z</time>
      </trkpt>
      <trkpt lat="45.63861" lon="6.55137">
        <ele>2228.8</ele>
        <time>2025-02-20T09:16:19Z</time>
      </trkpt>
      <trkpt lat="45.63861" lon="6.55136">
        <ele>2228.8</ele>
        <time>2025-02-20T09:16:20Z</time>
      </trkpt>
      <trkpt lat="45.63861" lon="6.55135">
        <ele>2228.4</ele>
        <time>2025-02-20T09:16:21Z</time>
      </trkpt>
      <trkpt lat="45.63861" lon="6.55134">
        <ele>2228.4</ele>
        <time>2025-02-20T09:16:22Z</time>
      </trkpt>
      <trkpt lat="45.63861" lon="6.55133">
        <ele>2228.4</ele>
        <time>2025-02-20T09:16:23Z</time>
      </trkpt>
      <trkpt lat="45.63862" lon="6.55132">
        <ele>2228.4</ele>
        <time>2025-02-20T09:16:24Z</time>
      </trkpt>
      <trkpt lat="45.63862" lon="6.55131">
        <ele>2229.4</ele>
        <time>2025-02-20T09:16:25Z</time>
      </trkpt>
      <trkpt lat="45.63863" lon="6.5513">
        <ele>2229.4</ele>
        <time>2025-02-20T09:16:26Z</time>
      </trkpt>
      <trkpt lat="45.63863" lon="6.55129">
        <ele>2229.4</ele>
        <time>2025-02-20T09:16:27Z</time>
      </trkpt>
      <trkpt lat="45.63864" lon="6.55129">
        <ele>2229.4</ele>
        <time>2025-02-20T09:16:28Z</time>
      </trkpt>
      <trkpt lat="45.63864" lon="6.55128">
        <ele>2231.2</ele>
        <time>2025-02-20T09:16:29Z</time>
      </trkpt>
      <trkpt lat="45.63864" lon="6.55127">
        <ele>2231.2</ele>
        <time>2025-02-20T09:16:30Z</time>
      </trkpt>
      <trkpt lat="45.63865" lon="6.55126">
        <ele>2231.2</ele>
        <time>2025-02-20T09:16:31Z</time>
      </trkpt>
      <trkpt lat="45.63865" lon="6.55125">
        <ele>2230.8</ele>
        <time>2025-02-20T09:16:32Z</time>
      </trkpt>
      <trkpt lat="45.63866" lon="6.55125">
        <ele>2230.6</ele>
        <time>2025-02-20T09:16:33Z</time>
      </trkpt>
      <trkpt lat="45.63866" lon="6.55124">
        <ele>2230.6</ele>
        <time>2025-02-20T09:16:34Z</time>
      </trkpt>
      <trkpt lat="45.63867" lon="6.55123">
        <ele>2230.6</ele>
        <time>2025-02-20T09:16:35Z</time>
      </trkpt>
      <trkpt lat="45.63867" lon="6.55123">
        <ele>2229.6</ele>
        <time>2025-02-20T09:16:36Z</time>
      </trkpt>
      <trkpt lat="45.63867" lon="6.55121">
        <ele>2231.8</ele>
        <time>2025-02-20T09:16:37Z</time>
      </trkpt>
      <trkpt lat="45.63868" lon="6.55121">
        <ele>2231.8</ele>
        <time>2025-02-20T09:16:38Z</time>
      </trkpt>
      <trkpt lat="45.63868" lon="6.55119">
        <ele>2231.8</ele>
        <time>2025-02-20T09:16:39Z</time>
      </trkpt>
      <trkpt lat="45.63869" lon="6.55118">
        <ele>2231.6</ele>
        <time>2025-02-20T09:16:40Z</time>
      </trkpt>
      <trkpt lat="45.63869" lon="6.55117">
        <ele>2232.6</ele>
        <time>2025-02-20T09:16:41Z</time>
      </trkpt>
      <trkpt lat="45.63869" lon="6.55116">
        <ele>2232.6</ele>
        <time>2025-02-20T09:16:42Z</time>
      </trkpt>
      <trkpt lat="45.6387" lon="6.55115">
        <ele>2232.6</ele>
        <time>2025-02-20T09:16:43Z</time>
      </trkpt>
      <trkpt lat="45.6387" lon="6.55114">
        <ele>2232.6</ele>
        <time>2025-02-20T09:16:44Z</time>
      </trkpt>
      <trkpt lat="45.6387" lon="6.55113">
        <ele>2232.4</ele>
        <time>2025-02-20T09:16:45Z</time>
      </trkpt>
      <trkpt lat="45.63871" lon="6.55112">
        <ele>2232.4</ele>
        <time>2025-02-20T09:16:46Z</time>
      </trkpt>
      <trkpt lat="45.63871" lon="6.55111">
        <ele>2232.4</ele>
        <time>2025-02-20T09:16:47Z</time>
      </trkpt>
      <trkpt lat="45.63871" lon="6.5511">
        <ele>2232.4</ele>
        <time>2025-02-20T09:16:48Z</time>
      </trkpt>
      <trkpt lat="45.63872" lon="6.55109">
        <ele>2234</ele>
        <time>2025-02-20T09:16:49Z</time>
      </trkpt>
      <trkpt lat="45.63872" lon="6.55108">
        <ele>2234</ele>
        <time>2025-02-20T09:16:50Z</time>
      </trkpt>
      <trkpt lat="45.63872" lon="6.55107">
        <ele>2234</ele>
        <time>2025-02-20T09:16:51Z</time>
      </trkpt>
      <trkpt lat="45.63872" lon="6.55106">
        <ele>2233</ele>
        <time>2025-02-20T09:16:52Z</time>
      </trkpt>
      <trkpt lat="45.63872" lon="6.55105">
        <ele>2231.6</ele>
        <time>2025-02-20T09:16:53Z</time>
      </trkpt>
      <trkpt lat="45.63873" lon="6.55105">
        <ele>2231.6</ele>
        <time>2025-02-20T09:16:54Z</time>
      </trkpt>
      <trkpt lat="45.63873" lon="6.55103">
        <ele>2231.6</ele>
        <time>2025-02-20T09:16:55Z</time>
      </trkpt>
      <trkpt lat="45.63873" lon="6.55102">
        <ele>2232.6</ele>
        <time>2025-02-20T09:16:56Z</time>
      </trkpt>
      <trkpt lat="45.63873" lon="6.55101">
        <ele>2233.8</ele>
        <time>2025-02-20T09:16:57Z</time>
      </trkpt>
      <trkpt lat="45.63873" lon="6.551">
        <ele>2233.8</ele>
        <time>2025-02-20T09:16:58Z</time>
      </trkpt>
      <trkpt lat="45.63873" lon="6.551">
        <ele>2233.8</ele>
        <time>2025-02-20T09:16:59Z</time>
      </trkpt>
      <trkpt lat="45.63874" lon="6.55099">
        <ele>2233.8</ele>
        <time>2025-02-20T09:17:00Z</time>
      </trkpt>
      <trkpt lat="45.63874" lon="6.55098">
        <ele>2235.4</ele>
        <time>2025-02-20T09:17:01Z</time>
      </trkpt>
      <trkpt lat="45.63874" lon="6.55096">
        <ele>2235.4</ele>
        <time>2025-02-20T09:17:02Z</time>
      </trkpt>
      <trkpt lat="45.63874" lon="6.55095">
        <ele>2235.4</ele>
        <time>2025-02-20T09:17:03Z</time>
      </trkpt>
      <trkpt lat="45.63874" lon="6.55095">
        <ele>2234.4</ele>
        <time>2025-02-20T09:17:04Z</time>
      </trkpt>
      <trkpt lat="45.63874" lon="6.55094">
        <ele>2234.8</ele>
        <time>2025-02-20T09:17:05Z</time>
      </trkpt>
      <trkpt lat="45.63874" lon="6.55094">
        <ele>2234.8</ele>
        <time>2025-02-20T09:17:06Z</time>
      </trkpt>
      <trkpt lat="45.63873" lon="6.55093">
        <ele>2234.8</ele>
        <time>2025-02-20T09:17:07Z</time>
      </trkpt>
      <trkpt lat="45.63873" lon="6.55094">
        <ele>2234.8</ele>
        <time>2025-02-20T09:17:08Z</time>
      </trkpt>
      <trkpt lat="45.63873" lon="6.55094">
        <ele>2233.2</ele>
        <time>2025-02-20T09:17:09Z</time>
      </trkpt>
      <trkpt lat="45.63872" lon="6.55094">
        <ele>2233.2</ele>
        <time>2025-02-20T09:17:10Z</time>
      </trkpt>
      <trkpt lat="45.63872" lon="6.55095">
        <ele>2233.2</ele>
        <time>2025-02-20T09:17:11Z</time>
      </trkpt>
      <trkpt lat="45.63871" lon="6.55095">
        <ele>2232.8</ele>
        <time>2025-02-20T09:17:12Z</time>
      </trkpt>
      <trkpt lat="45.63871" lon="6.55095">
        <ele>2234.2</ele>
        <time>2025-02-20T09:17:13Z</time>
      </trkpt>
      <trkpt lat="45.6387" lon="6.55096">
        <ele>2234.2</ele>
        <time>2025-02-20T09:17:14Z</time>
      </trkpt>
      <trkpt lat="45.6387" lon="6.55096">
        <ele>2234.2</ele>
        <time>2025-02-20T09:17:15Z</time>
      </trkpt>
      <trkpt lat="45.63869" lon="6.55096">
        <ele>2235.2</ele>
        <time>2025-02-20T09:17:16Z</time>
      </trkpt>
      <trkpt lat="45.63869" lon="6.55097">
        <ele>2234</ele>
        <time>2025-02-20T09:17:17Z</time>
      </trkpt>
      <trkpt lat="45.63868" lon="6.55097">
        <ele>2234</ele>
        <time>2025-02-20T09:17:18Z</time>
      </trkpt>
      <trkpt lat="45.63868" lon="6.55097">
        <ele>2234</ele>
        <time>2025-02-20T09:17:19Z</time>
      </trkpt>
      <trkpt lat="45.63867" lon="6.55097">
        <ele>2233</ele>
        <time>2025-02-20T09:17:20Z</time>
      </trkpt>
      <trkpt lat="45.63867" lon="6.55098">
        <ele>2235.6</ele>
        <time>2025-02-20T09:17:21Z</time>
      </trkpt>
      <trkpt lat="45.63866" lon="6.55098">
        <ele>2235.6</ele>
        <time>2025-02-20T09:17:22Z</time>
      </trkpt>
      <trkpt lat="45.63866" lon="6.55098">
        <ele>2235.6</ele>
        <time>2025-02-20T09:17:23Z</time>
      </trkpt>
      <trkpt lat="45.63865" lon="6.55098">
        <ele>2236.6</ele>
        <time>2025-02-20T09:17:24Z</time>
      </trkpt>
      <trkpt lat="45.63864" lon="6.55098">
        <ele>2237.8</ele>
        <time>2025-02-20T09:17:25Z</time>
      </trkpt>
      <trkpt lat="45.63864" lon="6.55098">
        <ele>2237.8</ele>
        <time>2025-02-20T09:17:26Z</time>
      </trkpt>
      <trkpt lat="45.63863" lon="6.55098">
        <ele>2237.8</ele>
        <time>2025-02-20T09:17:27Z</time>
      </trkpt>
      <trkpt lat="45.63863" lon="6.55098">
        <ele>2236.8</ele>
        <time>2025-02-20T09:17:28Z</time>
      </trkpt>
      <trkpt lat="45.63863" lon="6.55098">
        <ele>2232.8</ele>
        <time>2025-02-20T09:17:29Z</time>
      </trkpt>
      <trkpt lat="45.63861" lon="6.55098">
        <ele>2232.8</ele>
        <time>2025-02-20T09:17:30Z</time>
      </trkpt>
      <trkpt lat="45.63861" lon="6.55098">
        <ele>2232.8</ele>
        <time>2025-02-20T09:17:31Z</time>
      </trkpt>
      <trkpt lat="45.63861" lon="6.55097">
        <ele>2233.8</ele>
        <time>2025-02-20T09:17:32Z</time>
      </trkpt>
      <trkpt lat="45.63861" lon="6.55098">
        <ele>2239.2</ele>
        <time>2025-02-20T09:17:33Z</time>
      </trkpt>
      <trkpt lat="45.63861" lon="6.55097">
        <ele>2239.2</ele>
        <time>2025-02-20T09:17:34Z</time>
      </trkpt>
      <trkpt lat="45.63861" lon="6.55097">
        <ele>2239.2</ele>
        <time>2025-02-20T09:17:35Z</time>
      </trkpt>
      <trkpt lat="45.6386" lon="6.55096">
        <ele>2239.2</ele>
        <time>2025-02-20T09:17:36Z</time>
      </trkpt>
      <trkpt lat="45.6386" lon="6.55095">
        <ele>2241.2</ele>
        <time>2025-02-20T09:17:37Z</time>
      </trkpt>
      <trkpt lat="45.6386" lon="6.55094">
        <ele>2241.2</ele>
        <time>2025-02-20T09:17:38Z</time>
      </trkpt>
      <trkpt lat="45.6386" lon="6.55094">
        <ele>2241.2</ele>
        <time>2025-02-20T09:17:39Z</time>
      </trkpt>
      <trkpt lat="45.6386" lon="6.55093">
        <ele>2240.6</ele>
        <time>2025-02-20T09:17:40Z</time>
      </trkpt>
      <trkpt lat="45.6386" lon="6.55092">
        <ele>2240.6</ele>
        <time>2025-02-20T09:17:41Z</time>
      </trkpt>
      <trkpt lat="45.63859" lon="6.55091">
        <ele>2240.6</ele>
        <time>2025-02-20T09:17:42Z</time>
      </trkpt>
      <trkpt lat="45.6386" lon="6.55091">
        <ele>2240.6</ele>
        <time>2025-02-20T09:17:43Z</time>
      </trkpt>
      <trkpt lat="45.63859" lon="6.55089">
        <ele>2240.6</ele>
        <time>2025-02-20T09:17:44Z</time>
      </trkpt>
      <trkpt lat="45.63859" lon="6.55089">
        <ele>2238</ele>
        <time>2025-02-20T09:17:45Z</time>
      </trkpt>
      <trkpt lat="45.63859" lon="6.55089">
        <ele>2238</ele>
        <time>2025-02-20T09:17:46Z</time>
      </trkpt>
      <trkpt lat="45.63859" lon="6.55088">
        <ele>2238</ele>
        <time>2025-02-20T09:17:47Z</time>
      </trkpt>
      <trkpt lat="45.63858" lon="6.55088">
        <ele>2238</ele>
        <time>2025-02-20T09:17:48Z</time>
      </trkpt>
      <trkpt lat="45.63858" lon="6.55087">
        <ele>2241</ele>
        <time>2025-02-20T09:17:49Z</time>
      </trkpt>
      <trkpt lat="45.63858" lon="6.55087">
        <ele>2241</ele>
        <time>2025-02-20T09:17:50Z</time>
      </trkpt>
      <trkpt lat="45.63858" lon="6.55086">
        <ele>2241</ele>
        <time>2025-02-20T09:17:51Z</time>
      </trkpt>
      <trkpt lat="45.63857" lon="6.55086">
        <ele>2241</ele>
        <time>2025-02-20T09:17:52Z</time>
      </trkpt>
      <trkpt lat="45.63856" lon="6.55086">
        <ele>2243.6</ele>
        <time>2025-02-20T09:17:53Z</time>
      </trkpt>
      <trkpt lat="45.63856" lon="6.55086">
        <ele>2243.6</ele>
        <time>2025-02-20T09:17:54Z</time>
      </trkpt>
      <trkpt lat="45.63855" lon="6.55086">
        <ele>2243.6</ele>
        <time>2025-02-20T09:17:55Z</time>
      </trkpt>
      <trkpt lat="45.63854" lon="6.55086">
        <ele>2243.6</ele>
        <time>2025-02-20T09:17:56Z</time>
      </trkpt>
      <trkpt lat="45.63854" lon="6.55086">
        <ele>2238.6</ele>
        <time>2025-02-20T09:17:57Z</time>
      </trkpt>
      <trkpt lat="45.63853" lon="6.55086">
        <ele>2238.6</ele>
        <time>2025-02-20T09:17:58Z</time>
      </trkpt>
      <trkpt lat="45.63852" lon="6.55086">
        <ele>2238.6</ele>
        <time>2025-02-20T09:17:59Z</time>
      </trkpt>
      <trkpt lat="45.63852" lon="6.55086">
        <ele>2239.6</ele>
        <time>2025-02-20T09:18:00Z</time>
      </trkpt>
      <trkpt lat="45.63852" lon="6.55086">
        <ele>2243.6</ele>
        <time>2025-02-20T09:18:01Z</time>
      </trkpt>
      <trkpt lat="45.63851" lon="6.55086">
        <ele>2243.6</ele>
        <time>2025-02-20T09:18:02Z</time>
      </trkpt>
      <trkpt lat="45.6385" lon="6.55085">
        <ele>2243.6</ele>
        <time>2025-02-20T09:18:03Z</time>
      </trkpt>
      <trkpt lat="45.6385" lon="6.55086">
        <ele>2242.6</ele>
        <time>2025-02-20T09:18:04Z</time>
      </trkpt>
      <trkpt lat="45.63849" lon="6.55086">
        <ele>2243.8</ele>
        <time>2025-02-20T09:18:05Z</time>
      </trkpt>
      <trkpt lat="45.63849" lon="6.55085">
        <ele>2243.8</ele>
        <time>2025-02-20T09:18:06Z</time>
      </trkpt>
      <trkpt lat="45.63848" lon="6.55085">
        <ele>2243.8</ele>
        <time>2025-02-20T09:18:07Z</time>
      </trkpt>
      <trkpt lat="45.63848" lon="6.55086">
        <ele>2244.8</ele>
        <time>2025-02-20T09:18:08Z</time>
      </trkpt>
      <trkpt lat="45.63847" lon="6.55086">
        <ele>2244.8</ele>
        <time>2025-02-20T09:18:09Z</time>
      </trkpt>
      <trkpt lat="45.63846" lon="6.55085">
        <ele>2244.8</ele>
        <time>2025-02-20T09:18:10Z</time>
      </trkpt>
      <trkpt lat="45.63846" lon="6.55086">
        <ele>2244.8</ele>
        <time>2025-02-20T09:18:11Z</time>
      </trkpt>
      <trkpt lat="45.63845" lon="6.55086">
        <ele>2244.6</ele>
        <time>2025-02-20T09:18:12Z</time>
      </trkpt>
      <trkpt lat="45.63844" lon="6.55086">
        <ele>2246.4</ele>
        <time>2025-02-20T09:18:13Z</time>
      </trkpt>
      <trkpt lat="45.63844" lon="6.55086">
        <ele>2246.4</ele>
        <time>2025-02-20T09:18:14Z</time>
      </trkpt>
      <trkpt lat="45.63843" lon="6.55086">
        <ele>2246.4</ele>
        <time>2025-02-20T09:18:15Z</time>
      </trkpt>
      <trkpt lat="45.63843" lon="6.55087">
        <ele>2245.4</ele>
        <time>2025-02-20T09:18:16Z</time>
      </trkpt>
      <trkpt lat="45.63842" lon="6.55087">
        <ele>2245.4</ele>
        <time>2025-02-20T09:18:17Z</time>
      </trkpt>
      <trkpt lat="45.63842" lon="6.55088">
        <ele>2245.4</ele>
        <time>2025-02-20T09:18:18Z</time>
      </trkpt>
      <trkpt lat="45.63841" lon="6.55088">
        <ele>2245.4</ele>
        <time>2025-02-20T09:18:19Z</time>
      </trkpt>
      <trkpt lat="45.63841" lon="6.55088">
        <ele>2246</ele>
        <time>2025-02-20T09:18:20Z</time>
      </trkpt>
      <trkpt lat="45.6384" lon="6.55089">
        <ele>2242.8</ele>
        <time>2025-02-20T09:18:21Z</time>
      </trkpt>
      <trkpt lat="45.63839" lon="6.5509">
        <ele>2242.8</ele>
        <time>2025-02-20T09:18:22Z</time>
      </trkpt>
      <trkpt lat="45.63839" lon="6.5509">
        <ele>2242.8</ele>
        <time>2025-02-20T09:18:23Z</time>
      </trkpt>
      <trkpt lat="45.63838" lon="6.55091">
        <ele>2242.8</ele>
        <time>2025-02-20T09:18:24Z</time>
      </trkpt>
      <trkpt lat="45.63838" lon="6.55091">
        <ele>2247.6</ele>
        <time>2025-02-20T09:18:25Z</time>
      </trkpt>
      <trkpt lat="45.63837" lon="6.55092">
        <ele>2247.6</ele>
        <time>2025-02-20T09:18:26Z</time>
      </trkpt>
      <trkpt lat="45.63837" lon="6.55092">
        <ele>2247.6</ele>
        <time>2025-02-20T09:18:27Z</time>
      </trkpt>
      <trkpt lat="45.63836" lon="6.55092">
        <ele>2246.6</ele>
        <time>2025-02-20T09:18:28Z</time>
      </trkpt>
      <trkpt lat="45.63836" lon="6.55093">
        <ele>2247</ele>
        <time>2025-02-20T09:18:29Z</time>
      </trkpt>
      <trkpt lat="45.63835" lon="6.55093">
        <ele>2247</ele>
        <time>2025-02-20T09:18:30Z</time>
      </trkpt>
      <trkpt lat="45.63835" lon="6.55093">
        <ele>2247</ele>
        <time>2025-02-20T09:18:31Z</time>
      </trkpt>
      <trkpt lat="45.63834" lon="6.55093">
        <ele>2247.6</ele>
        <time>2025-02-20T09:18:32Z</time>
      </trkpt>
      <trkpt lat="45.63834" lon="6.55093">
        <ele>2247.8</ele>
        <time>2025-02-20T09:18:33Z</time>
      </trkpt>
      <trkpt lat="45.63833" lon="6.55093">
        <ele>2247.8</ele>
        <time>2025-02-20T09:18:34Z</time>
      </trkpt>
      <trkpt lat="45.63833" lon="6.55094">
        <ele>2247.8</ele>
        <time>2025-02-20T09:18:35Z</time>
      </trkpt>
      <trkpt lat="45.63833" lon="6.55094">
        <ele>2246.8</ele>
        <time>2025-02-20T09:18:36Z</time>
      </trkpt>
      <trkpt lat="45.63832" lon="6.55095">
        <ele>2241.6</ele>
        <time>2025-02-20T09:18:37Z</time>
      </trkpt>
      <trkpt lat="45.63832" lon="6.55095">
        <ele>2241.6</ele>
        <time>2025-02-20T09:18:38Z</time>
      </trkpt>
      <trkpt lat="45.63831" lon="6.55095">
        <ele>2241.6</ele>
        <time>2025-02-20T09:18:39Z</time>
      </trkpt>
      <trkpt lat="45.6383" lon="6.55096">
        <ele>2242.6</ele>
        <time>2025-02-20T09:18:40Z</time>
      </trkpt>
      <trkpt lat="45.6383" lon="6.55096">
        <ele>2250.2</ele>
        <time>2025-02-20T09:18:41Z</time>
      </trkpt>
      <trkpt lat="45.6383" lon="6.55097">
        <ele>2250.2</ele>
        <time>2025-02-20T09:18:42Z</time>
      </trkpt>
      <trkpt lat="45.63829" lon="6.55097">
        <ele>2250.2</ele>
        <time>2025-02-20T09:18:43Z</time>
      </trkpt>
      <trkpt lat="45.63829" lon="6.55097">
        <ele>2249.2</ele>
        <time>2025-02-20T09:18:44Z</time>
      </trkpt>
      <trkpt lat="45.63828" lon="6.55098">
        <ele>2247.4</ele>
        <time>2025-02-20T09:18:45Z</time>
      </trkpt>
      <trkpt lat="45.63828" lon="6.55098">
        <ele>2247.4</ele>
        <time>2025-02-20T09:18:46Z</time>
      </trkpt>
      <trkpt lat="45.63827" lon="6.55099">
        <ele>2247.4</ele>
        <time>2025-02-20T09:18:47Z</time>
      </trkpt>
      <trkpt lat="45.63827" lon="6.55099">
        <ele>2247.4</ele>
        <time>2025-02-20T09:18:48Z</time>
      </trkpt>
      <trkpt lat="45.63827" lon="6.55099">
        <ele>2249.2</ele>
        <time>2025-02-20T09:18:49Z</time>
      </trkpt>
      <trkpt lat="45.63826" lon="6.551">
        <ele>2249.2</ele>
        <time>2025-02-20T09:18:50Z</time>
      </trkpt>
      <trkpt lat="45.63825" lon="6.551">
        <ele>2249.2</ele>
        <time>2025-02-20T09:18:51Z</time>
      </trkpt>
      <trkpt lat="45.63825" lon="6.551">
        <ele>2249.2</ele>
        <time>2025-02-20T09:18:52Z</time>
      </trkpt>
      <trkpt lat="45.63824" lon="6.551">
        <ele>2249.8</ele>
        <time>2025-02-20T09:18:53Z</time>
      </trkpt>
      <trkpt lat="45.63824" lon="6.551">
        <ele>2249.8</ele>
        <time>2025-02-20T09:18:54Z</time>
      </trkpt>
      <trkpt lat="45.63823" lon="6.55101">
        <ele>2249.8</ele>
        <time>2025-02-20T09:18:55Z</time>
      </trkpt>
      <trkpt lat="45.63822" lon="6.55101">
        <ele>2248.8</ele>
        <time>2025-02-20T09:18:56Z</time>
      </trkpt>
      <trkpt lat="45.63822" lon="6.55101">
        <ele>2250.8</ele>
        <time>2025-02-20T09:18:57Z</time>
      </trkpt>
      <trkpt lat="45.63821" lon="6.55102">
        <ele>2250.8</ele>
        <time>2025-02-20T09:18:58Z</time>
      </trkpt>
      <trkpt lat="45.63821" lon="6.55101">
        <ele>2250.8</ele>
        <time>2025-02-20T09:18:59Z</time>
      </trkpt>
      <trkpt lat="45.6382" lon="6.55101">
        <ele>2250.8</ele>
        <time>2025-02-20T09:19:00Z</time>
      </trkpt>
      <trkpt lat="45.63819" lon="6.55101">
        <ele>2247</ele>
        <time>2025-02-20T09:19:01Z</time>
      </trkpt>
      <trkpt lat="45.63819" lon="6.55101">
        <ele>2247</ele>
        <time>2025-02-20T09:19:02Z</time>
      </trkpt>
      <trkpt lat="45.63818" lon="6.55101">
        <ele>2247</ele>
        <time>2025-02-20T09:19:03Z</time>
      </trkpt>
      <trkpt lat="45.63817" lon="6.55101">
        <ele>2248</ele>
        <time>2025-02-20T09:19:04Z</time>
      </trkpt>
      <trkpt lat="45.63816" lon="6.55101">
        <ele>2251.2</ele>
        <time>2025-02-20T09:19:05Z</time>
      </trkpt>
      <trkpt lat="45.63816" lon="6.55101">
        <ele>2251.2</ele>
        <time>2025-02-20T09:19:06Z</time>
      </trkpt>
      <trkpt lat="45.63816" lon="6.55101">
        <ele>2251.2</ele>
        <time>2025-02-20T09:19:07Z</time>
      </trkpt>
      <trkpt lat="45.63816" lon="6.55101">
        <ele>2251</ele>
        <time>2025-02-20T09:19:08Z</time>
      </trkpt>
      <trkpt lat="45.63816" lon="6.55101">
        <ele>2250.4</ele>
        <time>2025-02-20T09:19:09Z</time>
      </trkpt>
      <trkpt lat="45.63816" lon="6.55101">
        <ele>2250.4</ele>
        <time>2025-02-20T09:19:10Z</time>
      </trkpt>
      <trkpt lat="45.63816" lon="6.55101">
        <ele>2250.4</ele>
        <time>2025-02-20T09:19:11Z</time>
      </trkpt>
      <trkpt lat="45.63816" lon="6.55101">
        <ele>2250.2</ele>
        <time>2025-02-20T09:19:12Z</time>
      </trkpt>
      <trkpt lat="45.63816" lon="6.55101">
        <ele>2252.2</ele>
        <time>2025-02-20T09:19:13Z</time>
      </trkpt>
      <trkpt lat="45.63815" lon="6.55101">
        <ele>2252.2</ele>
        <time>2025-02-20T09:19:14Z</time>
      </trkpt>
      <trkpt lat="45.63815" lon="6.551">
        <ele>2252.2</ele>
        <time>2025-02-20T09:19:15Z</time>
      </trkpt>
      <trkpt lat="45.63814" lon="6.551">
        <ele>2252.2</ele>
        <time>2025-02-20T09:19:16Z</time>
      </trkpt>
      <trkpt lat="45.63813" lon="6.551">
        <ele>2253</ele>
        <time>2025-02-20T09:19:17Z</time>
      </trkpt>
      <trkpt lat="45.63812" lon="6.55099">
        <ele>2253</ele>
        <time>2025-02-20T09:19:18Z</time>
      </trkpt>
      <trkpt lat="45.63811" lon="6.55099">
        <ele>2253</ele>
        <time>2025-02-20T09:19:19Z</time>
      </trkpt>
      <trkpt lat="45.6381" lon="6.55098">
        <ele>2253</ele>
        <time>2025-02-20T09:19:20Z</time>
      </trkpt>
      <trkpt lat="45.63809" lon="6.55098">
        <ele>2251.8</ele>
        <time>2025-02-20T09:19:21Z</time>
      </trkpt>
      <trkpt lat="45.63808" lon="6.55098">
        <ele>2251.8</ele>
        <time>2025-02-20T09:19:22Z</time>
      </trkpt>
      <trkpt lat="45.63807" lon="6.55097">
        <ele>2251.8</ele>
        <time>2025-02-20T09:19:23Z</time>
      </trkpt>
      <trkpt lat="45.63805" lon="6.55097">
        <ele>2251.4</ele>
        <time>2025-02-20T09:19:24Z</time>
      </trkpt>
      <trkpt lat="45.63805" lon="6.55097">
        <ele>2252.8</ele>
        <time>2025-02-20T09:19:25Z</time>
      </trkpt>
      <trkpt lat="45.63804" lon="6.55097">
        <ele>2252.8</ele>
        <time>2025-02-20T09:19:26Z</time>
      </trkpt>
      <trkpt lat="45.63803" lon="6.55097">
        <ele>2252.8</ele>
        <time>2025-02-20T09:19:27Z</time>
      </trkpt>
      <trkpt lat="45.63803" lon="6.55097">
        <ele>2251.8</ele>
        <time>2025-02-20T09:19:28Z</time>
      </trkpt>
      <trkpt lat="45.63802" lon="6.55097">
        <ele>2252.4</ele>
        <time>2025-02-20T09:19:29Z</time>
      </trkpt>
      <trkpt lat="45.63801" lon="6.55098">
        <ele>2252.4</ele>
        <time>2025-02-20T09:19:30Z</time>
      </trkpt>
      <trkpt lat="45.63801" lon="6.55098">
        <ele>2252.4</ele>
        <time>2025-02-20T09:19:31Z</time>
      </trkpt>
      <trkpt lat="45.638" lon="6.55098">
        <ele>2251.4</ele>
        <time>2025-02-20T09:19:32Z</time>
      </trkpt>
      <trkpt lat="45.638" lon="6.55098">
        <ele>2247.2</ele>
        <time>2025-02-20T09:19:33Z</time>
      </trkpt>
      <trkpt lat="45.63799" lon="6.55098">
        <ele>2247.2</ele>
        <time>2025-02-20T09:19:34Z</time>
      </trkpt>
      <trkpt lat="45.63799" lon="6.55098">
        <ele>2247.2</ele>
        <time>2025-02-20T09:19:35Z</time>
      </trkpt>
      <trkpt lat="45.63799" lon="6.55098">
        <ele>2248.2</ele>
        <time>2025-02-20T09:19:36Z</time>
      </trkpt>
      <trkpt lat="45.63799" lon="6.55098">
        <ele>2251.4</ele>
        <time>2025-02-20T09:19:37Z</time>
      </trkpt>
      <trkpt lat="45.63799" lon="6.55098">
        <ele>2251.4</ele>
        <time>2025-02-20T09:19:38Z</time>
      </trkpt>
      <trkpt lat="45.63799" lon="6.55098">
        <ele>2251.4</ele>
        <time>2025-02-20T09:19:39Z</time>
      </trkpt>
      <trkpt lat="45.63799" lon="6.55098">
        <ele>2251.4</ele>
        <time>2025-02-20T09:19:40Z</time>
      </trkpt>
      <trkpt lat="45.63799" lon="6.55098">
        <ele>2251.2</ele>
        <time>2025-02-20T09:19:41Z</time>
      </trkpt>
      <trkpt lat="45.63799" lon="6.55098">
        <ele>2251.2</ele>
        <time>2025-02-20T09:19:42Z</time>
      </trkpt>
      <trkpt lat="45.63799" lon="6.55098">
        <ele>2251.2</ele>
        <time>2025-02-20T09:19:43Z</time>
      </trkpt>
      <trkpt lat="45.63799" lon="6.55098">
        <ele>2252</ele>
        <time>2025-02-20T09:19:44Z</time>
      </trkpt>
      <trkpt lat="45.63799" lon="6.55098">
        <ele>2252</ele>
        <time>2025-02-20T09:19:45Z</time>
      </trkpt>
      <trkpt lat="45.63799" lon="6.55098">
        <ele>2252</ele>
        <time>2025-02-20T09:19:46Z</time>
      </trkpt>
      <trkpt lat="45.63799" lon="6.55098">
        <ele>2252</ele>
        <time>2025-02-20T09:19:47Z</time>
      </trkpt>
      <trkpt lat="45.63798" lon="6.55098">
        <ele>2252</ele>
        <time>2025-02-20T09:19:48Z</time>
      </trkpt>
      <trkpt lat="45.63798" lon="6.55099">
        <ele>2253</ele>
        <time>2025-02-20T09:19:49Z</time>
      </trkpt>
      <trkpt lat="45.63797" lon="6.55099">
        <ele>2253</ele>
        <time>2025-02-20T09:19:50Z</time>
      </trkpt>
      <trkpt lat="45.63796" lon="6.551">
        <ele>2253</ele>
        <time>2025-02-20T09:19:51Z</time>
      </trkpt>
      <trkpt lat="45.63795" lon="6.55101">
        <ele>2253</ele>
        <time>2025-02-20T09:19:52Z</time>
      </trkpt>
      <trkpt lat="45.63795" lon="6.55101">
        <ele>2250</ele>
        <time>2025-02-20T09:19:53Z</time>
      </trkpt>
      <trkpt lat="45.63794" lon="6.55101">
        <ele>2250</ele>
        <time>2025-02-20T09:19:54Z</time>
      </trkpt>
      <trkpt lat="45.63793" lon="6.55102">
        <ele>2250</ele>
        <time>2025-02-20T09:19:55Z</time>
      </trkpt>
      <trkpt lat="45.63793" lon="6.55102">
        <ele>2250</ele>
        <time>2025-02-20T09:19:56Z</time>
      </trkpt>
      <trkpt lat="45.63792" lon="6.55102">
        <ele>2249</ele>
        <time>2025-02-20T09:19:57Z</time>
      </trkpt>
      <trkpt lat="45.63791" lon="6.55102">
        <ele>2249</ele>
        <time>2025-02-20T09:19:58Z</time>
      </trkpt>
      <trkpt lat="45.63791" lon="6.55102">
        <ele>2249</ele>
        <time>2025-02-20T09:19:59Z</time>
      </trkpt>
      <trkpt lat="45.6379" lon="6.55102">
        <ele>2250</ele>
        <time>2025-02-20T09:20:00Z</time>
      </trkpt>
      <trkpt lat="45.63789" lon="6.55102">
        <ele>2249.2</ele>
        <time>2025-02-20T09:20:01Z</time>
      </trkpt>
      <trkpt lat="45.63789" lon="6.55102">
        <ele>2249.2</ele>
        <time>2025-02-20T09:20:02Z</time>
      </trkpt>
      <trkpt lat="45.63788" lon="6.55103">
        <ele>2249.2</ele>
        <time>2025-02-20T09:20:03Z</time>
      </trkpt>
      <trkpt lat="45.63786" lon="6.55104">
        <ele>2250.2</ele>
        <time>2025-02-20T09:20:04Z</time>
      </trkpt>
      <trkpt lat="45.63786" lon="6.55104">
        <ele>2254.8</ele>
        <time>2025-02-20T09:20:05Z</time>
      </trkpt>
      <trkpt lat="45.63785" lon="6.55105">
        <ele>2254.8</ele>
        <time>2025-02-20T09:20:06Z</time>
      </trkpt>
      <trkpt lat="45.63785" lon="6.55105">
        <ele>2254.8</ele>
        <time>2025-02-20T09:20:07Z</time>
      </trkpt>
      <trkpt lat="45.63784" lon="6.55105">
        <ele>2254.8</ele>
        <time>2025-02-20T09:20:08Z</time>
      </trkpt>
      <trkpt lat="45.63783" lon="6.55105">
        <ele>2253.8</ele>
        <time>2025-02-20T09:20:09Z</time>
      </trkpt>
      <trkpt lat="45.63783" lon="6.55106">
        <ele>2253.8</ele>
        <time>2025-02-20T09:20:10Z</time>
      </trkpt>
      <trkpt lat="45.63782" lon="6.55107">
        <ele>2253.8</ele>
        <time>2025-02-20T09:20:11Z</time>
      </trkpt>
      <trkpt lat="45.63782" lon="6.55107">
        <ele>2253.8</ele>
        <time>2025-02-20T09:20:12Z</time>
      </trkpt>
      <trkpt lat="45.63781" lon="6.55108">
        <ele>2256</ele>
        <time>2025-02-20T09:20:13Z</time>
      </trkpt>
      <trkpt lat="45.63781" lon="6.55108">
        <ele>2256</ele>
        <time>2025-02-20T09:20:14Z</time>
      </trkpt>
      <trkpt lat="45.6378" lon="6.55108">
        <ele>2256</ele>
        <time>2025-02-20T09:20:15Z</time>
      </trkpt>
      <trkpt lat="45.6378" lon="6.55109">
        <ele>2256</ele>
        <time>2025-02-20T09:20:16Z</time>
      </trkpt>
      <trkpt lat="45.63779" lon="6.55109">
        <ele>2253.8</ele>
        <time>2025-02-20T09:20:17Z</time>
      </trkpt>
      <trkpt lat="45.63778" lon="6.5511">
        <ele>2253.8</ele>
        <time>2025-02-20T09:20:18Z</time>
      </trkpt>
      <trkpt lat="45.63778" lon="6.55111">
        <ele>2253.8</ele>
        <time>2025-02-20T09:20:19Z</time>
      </trkpt>
      <trkpt lat="45.63778" lon="6.55111">
        <ele>2254.8</ele>
        <time>2025-02-20T09:20:20Z</time>
      </trkpt>
      <trkpt lat="45.63777" lon="6.55112">
        <ele>2255.4</ele>
        <time>2025-02-20T09:20:21Z</time>
      </trkpt>
      <trkpt lat="45.63776" lon="6.55112">
        <ele>2255.4</ele>
        <time>2025-02-20T09:20:22Z</time>
      </trkpt>
      <trkpt lat="45.63776" lon="6.55112">
        <ele>2255.4</ele>
        <time>2025-02-20T09:20:23Z</time>
      </trkpt>
      <trkpt lat="45.63776" lon="6.55112">
        <ele>2255.4</ele>
        <time>2025-02-20T09:20:24Z</time>
      </trkpt>
      <trkpt lat="45.63776" lon="6.55112">
        <ele>2256</ele>
        <time>2025-02-20T09:20:25Z</time>
      </trkpt>
      <trkpt lat="45.63775" lon="6.55114">
        <ele>2256</ele>
        <time>2025-02-20T09:20:26Z</time>
      </trkpt>
      <trkpt lat="45.63775" lon="6.55114">
        <ele>2256</ele>
        <time>2025-02-20T09:20:27Z</time>
      </trkpt>
      <trkpt lat="45.63774" lon="6.55115">
        <ele>2255</ele>
        <time>2025-02-20T09:20:28Z</time>
      </trkpt>
      <trkpt lat="45.63774" lon="6.55115">
        <ele>2257</ele>
        <time>2025-02-20T09:20:29Z</time>
      </trkpt>
      <trkpt lat="45.63774" lon="6.55115">
        <ele>2257</ele>
        <time>2025-02-20T09:20:30Z</time>
      </trkpt>
      <trkpt lat="45.63773" lon="6.55116">
        <ele>2257</ele>
        <time>2025-02-20T09:20:31Z</time>
      </trkpt>
      <trkpt lat="45.63772" lon="6.55116">
        <ele>2257</ele>
        <time>2025-02-20T09:20:32Z</time>
      </trkpt>
      <trkpt lat="45.63772" lon="6.55117">
        <ele>2258.8</ele>
        <time>2025-02-20T09:20:33Z</time>
      </trkpt>
      <trkpt lat="45.63772" lon="6.55117">
        <ele>2258.8</ele>
        <time>2025-02-20T09:20:34Z</time>
      </trkpt>
      <trkpt lat="45.63771" lon="6.55118">
        <ele>2258.8</ele>
        <time>2025-02-20T09:20:35Z</time>
      </trkpt>
      <trkpt lat="45.63771" lon="6.55118">
        <ele>2258.8</ele>
        <time>2025-02-20T09:20:36Z</time>
      </trkpt>
      <trkpt lat="45.63771" lon="6.55118">
        <ele>2259.2</ele>
        <time>2025-02-20T09:20:37Z</time>
      </trkpt>
      <trkpt lat="45.63771" lon="6.55118">
        <ele>2259.2</ele>
        <time>2025-02-20T09:20:38Z</time>
      </trkpt>
      <trkpt lat="45.6377" lon="6.5512">
        <ele>2259.2</ele>
        <time>2025-02-20T09:20:39Z</time>
      </trkpt>
      <trkpt lat="45.6377" lon="6.5512">
        <ele>2259.2</ele>
        <time>2025-02-20T09:20:40Z</time>
      </trkpt>
      <trkpt lat="45.63769" lon="6.55121">
        <ele>2259.4</ele>
        <time>2025-02-20T09:20:41Z</time>
      </trkpt>
      <trkpt lat="45.63769" lon="6.55121">
        <ele>2259.4</ele>
        <time>2025-02-20T09:20:42Z</time>
      </trkpt>
      <trkpt lat="45.63768" lon="6.55122">
        <ele>2259.4</ele>
        <time>2025-02-20T09:20:43Z</time>
      </trkpt>
      <trkpt lat="45.63767" lon="6.55123">
        <ele>2258.4</ele>
        <time>2025-02-20T09:20:44Z</time>
      </trkpt>
      <trkpt lat="45.63767" lon="6.55123">
        <ele>2256.8</ele>
        <time>2025-02-20T09:20:45Z</time>
      </trkpt>
      <trkpt lat="45.63766" lon="6.55123">
        <ele>2256.8</ele>
        <time>2025-02-20T09:20:46Z</time>
      </trkpt>
      <trkpt lat="45.63766" lon="6.55123">
        <ele>2256.8</ele>
        <time>2025-02-20T09:20:47Z</time>
      </trkpt>
      <trkpt lat="45.63765" lon="6.55124">
        <ele>2257.8</ele>
        <time>2025-02-20T09:20:48Z</time>
      </trkpt>
      <trkpt lat="45.63764" lon="6.55124">
        <ele>2258</ele>
        <time>2025-02-20T09:20:49Z</time>
      </trkpt>
      <trkpt lat="45.63764" lon="6.55124">
        <ele>2258</ele>
        <time>2025-02-20T09:20:50Z</time>
      </trkpt>
      <trkpt lat="45.63763" lon="6.55125">
        <ele>2258</ele>
        <time>2025-02-20T09:20:51Z</time>
      </trkpt>
      <trkpt lat="45.63763" lon="6.55125">
        <ele>2258</ele>
        <time>2025-02-20T09:20:52Z</time>
      </trkpt>
      <trkpt lat="45.63762" lon="6.55125">
        <ele>2257.2</ele>
        <time>2025-02-20T09:20:53Z</time>
      </trkpt>
      <trkpt lat="45.63762" lon="6.55126">
        <ele>2257.2</ele>
        <time>2025-02-20T09:20:54Z</time>
      </trkpt>
      <trkpt lat="45.63761" lon="6.55126">
        <ele>2257.2</ele>
        <time>2025-02-20T09:20:55Z</time>
      </trkpt>
      <trkpt lat="45.63761" lon="6.55126">
        <ele>2257.2</ele>
        <time>2025-02-20T09:20:56Z</time>
      </trkpt>
      <trkpt lat="45.6376" lon="6.55127">
        <ele>2259.8</ele>
        <time>2025-02-20T09:20:57Z</time>
      </trkpt>
      <trkpt lat="45.63759" lon="6.55126">
        <ele>2259.8</ele>
        <time>2025-02-20T09:20:58Z</time>
      </trkpt>
      <trkpt lat="45.63759" lon="6.55127">
        <ele>2259.8</ele>
        <time>2025-02-20T09:20:59Z</time>
      </trkpt>
      <trkpt lat="45.63758" lon="6.55127">
        <ele>2259.8</ele>
        <time>2025-02-20T09:21:00Z</time>
      </trkpt>
      <trkpt lat="45.63757" lon="6.55127">
        <ele>2260.8</ele>
        <time>2025-02-20T09:21:01Z</time>
      </trkpt>
      <trkpt lat="45.63756" lon="6.55128">
        <ele>2260.8</ele>
        <time>2025-02-20T09:21:02Z</time>
      </trkpt>
      <trkpt lat="45.63755" lon="6.55129">
        <ele>2260.8</ele>
        <time>2025-02-20T09:21:03Z</time>
      </trkpt>
      <trkpt lat="45.63754" lon="6.55129">
        <ele>2260.4</ele>
        <time>2025-02-20T09:21:04Z</time>
      </trkpt>
      <trkpt lat="45.63753" lon="6.55129">
        <ele>2260.8</ele>
        <time>2025-02-20T09:21:05Z</time>
      </trkpt>
      <trkpt lat="45.63753" lon="6.5513">
        <ele>2260.8</ele>
        <time>2025-02-20T09:21:06Z</time>
      </trkpt>
      <trkpt lat="45.63752" lon="6.5513">
        <ele>2260.8</ele>
        <time>2025-02-20T09:21:07Z</time>
      </trkpt>
      <trkpt lat="45.63751" lon="6.55131">
        <ele>2260.8</ele>
        <time>2025-02-20T09:21:08Z</time>
      </trkpt>
      <trkpt lat="45.6375" lon="6.55131">
        <ele>2258.4</ele>
        <time>2025-02-20T09:21:09Z</time>
      </trkpt>
      <trkpt lat="45.6375" lon="6.55131">
        <ele>2258.4</ele>
        <time>2025-02-20T09:21:10Z</time>
      </trkpt>
      <trkpt lat="45.63749" lon="6.55131">
        <ele>2258.4</ele>
        <time>2025-02-20T09:21:11Z</time>
      </trkpt>
      <trkpt lat="45.63749" lon="6.55131">
        <ele>2258.4</ele>
        <time>2025-02-20T09:21:12Z</time>
      </trkpt>
      <trkpt lat="45.63748" lon="6.55132">
        <ele>2261.4</ele>
        <time>2025-02-20T09:21:13Z</time>
      </trkpt>
      <trkpt lat="45.63747" lon="6.55132">
        <ele>2261.4</ele>
        <time>2025-02-20T09:21:14Z</time>
      </trkpt>
      <trkpt lat="45.63746" lon="6.55132">
        <ele>2261.4</ele>
        <time>2025-02-20T09:21:15Z</time>
      </trkpt>
      <trkpt lat="45.63746" lon="6.55133">
        <ele>2261.4</ele>
        <time>2025-02-20T09:21:16Z</time>
      </trkpt>
      <trkpt lat="45.63745" lon="6.55133">
        <ele>2259</ele>
        <time>2025-02-20T09:21:17Z</time>
      </trkpt>
      <trkpt lat="45.63744" lon="6.55133">
        <ele>2259</ele>
        <time>2025-02-20T09:21:18Z</time>
      </trkpt>
      <trkpt lat="45.63743" lon="6.55133">
        <ele>2259</ele>
        <time>2025-02-20T09:21:19Z</time>
      </trkpt>
      <trkpt lat="45.63743" lon="6.55133">
        <ele>2259</ele>
        <time>2025-02-20T09:21:20Z</time>
      </trkpt>
      <trkpt lat="45.63742" lon="6.55133">
        <ele>2262</ele>
        <time>2025-02-20T09:21:21Z</time>
      </trkpt>
      <trkpt lat="45.63741" lon="6.55133">
        <ele>2262</ele>
        <time>2025-02-20T09:21:22Z</time>
      </trkpt>
      <trkpt lat="45.6374" lon="6.55133">
        <ele>2262</ele>
        <time>2025-02-20T09:21:23Z</time>
      </trkpt>
      <trkpt lat="45.6374" lon="6.55133">
        <ele>2262</ele>
        <time>2025-02-20T09:21:24Z</time>
      </trkpt>
      <trkpt lat="45.63739" lon="6.55133">
        <ele>2257.4</ele>
        <time>2025-02-20T09:21:25Z</time>
      </trkpt>
      <trkpt lat="45.63738" lon="6.55134">
        <ele>2257.4</ele>
        <time>2025-02-20T09:21:26Z</time>
      </trkpt>
      <trkpt lat="45.63737" lon="6.55134">
        <ele>2257.4</ele>
        <time>2025-02-20T09:21:27Z</time>
      </trkpt>
      <trkpt lat="45.63737" lon="6.55134">
        <ele>2258.4</ele>
        <time>2025-02-20T09:21:28Z</time>
      </trkpt>
      <trkpt lat="45.63736" lon="6.55134">
        <ele>2263</ele>
        <time>2025-02-20T09:21:29Z</time>
      </trkpt>
      <trkpt lat="45.63735" lon="6.55134">
        <ele>2263</ele>
        <time>2025-02-20T09:21:30Z</time>
      </trkpt>
      <trkpt lat="45.63735" lon="6.55134">
        <ele>2263</ele>
        <time>2025-02-20T09:21:31Z</time>
      </trkpt>
      <trkpt lat="45.63734" lon="6.55134">
        <ele>2262</ele>
        <time>2025-02-20T09:21:32Z</time>
      </trkpt>
      <trkpt lat="45.63733" lon="6.55134">
        <ele>2263.8</ele>
        <time>2025-02-20T09:21:33Z</time>
      </trkpt>
      <trkpt lat="45.63733" lon="6.55134">
        <ele>2263.8</ele>
        <time>2025-02-20T09:21:34Z</time>
      </trkpt>
      <trkpt lat="45.63732" lon="6.55134">
        <ele>2263.8</ele>
        <time>2025-02-20T09:21:35Z</time>
      </trkpt>
      <trkpt lat="45.63732" lon="6.55134">
        <ele>2262.8</ele>
        <time>2025-02-20T09:21:36Z</time>
      </trkpt>
      <trkpt lat="45.63731" lon="6.55134">
        <ele>2260.8</ele>
        <time>2025-02-20T09:21:37Z</time>
      </trkpt>
      <trkpt lat="45.63731" lon="6.55134">
        <ele>2260.8</ele>
        <time>2025-02-20T09:21:38Z</time>
      </trkpt>
      <trkpt lat="45.6373" lon="6.55134">
        <ele>2260.8</ele>
        <time>2025-02-20T09:21:39Z</time>
      </trkpt>
      <trkpt lat="45.63729" lon="6.55134">
        <ele>2261.8</ele>
        <time>2025-02-20T09:21:40Z</time>
      </trkpt>
      <trkpt lat="45.63728" lon="6.55134">
        <ele>2264.4</ele>
        <time>2025-02-20T09:21:41Z</time>
      </trkpt>
      <trkpt lat="45.63728" lon="6.55134">
        <ele>2264.4</ele>
        <time>2025-02-20T09:21:42Z</time>
      </trkpt>
      <trkpt lat="45.63727" lon="6.55134">
        <ele>2264.4</ele>
        <time>2025-02-20T09:21:43Z</time>
      </trkpt>
      <trkpt lat="45.63727" lon="6.55133">
        <ele>2264.4</ele>
        <time>2025-02-20T09:21:44Z</time>
      </trkpt>
      <trkpt lat="45.63726" lon="6.55133">
        <ele>2262.4</ele>
        <time>2025-02-20T09:21:45Z</time>
      </trkpt>
      <trkpt lat="45.63726" lon="6.55133">
        <ele>2262.4</ele>
        <time>2025-02-20T09:21:46Z</time>
      </trkpt>
      <trkpt lat="45.63725" lon="6.55133">
        <ele>2262.4</ele>
        <time>2025-02-20T09:21:47Z</time>
      </trkpt>
      <trkpt lat="45.63724" lon="6.55133">
        <ele>2263.4</ele>
        <time>2025-02-20T09:21:48Z</time>
      </trkpt>
      <trkpt lat="45.63724" lon="6.55133">
        <ele>2266.2</ele>
        <time>2025-02-20T09:21:49Z</time>
      </trkpt>
      <trkpt lat="45.63723" lon="6.55133">
        <ele>2266.2</ele>
        <time>2025-02-20T09:21:50Z</time>
      </trkpt>
      <trkpt lat="45.63723" lon="6.55132">
        <ele>2266.2</ele>
        <time>2025-02-20T09:21:51Z</time>
      </trkpt>
      <trkpt lat="45.63722" lon="6.55132">
        <ele>2265.4</ele>
        <time>2025-02-20T09:21:52Z</time>
      </trkpt>
      <trkpt lat="45.63721" lon="6.55132">
        <ele>2261.8</ele>
        <time>2025-02-20T09:21:53Z</time>
      </trkpt>
      <trkpt lat="45.63721" lon="6.55132">
        <ele>2261.8</ele>
        <time>2025-02-20T09:21:54Z</time>
      </trkpt>
      <trkpt lat="45.6372" lon="6.55132">
        <ele>2261.8</ele>
        <time>2025-02-20T09:21:55Z</time>
      </trkpt>
      <trkpt lat="45.63719" lon="6.55131">
        <ele>2261.8</ele>
        <time>2025-02-20T09:21:56Z</time>
      </trkpt>
      <trkpt lat="45.63718" lon="6.55131">
        <ele>2265.6</ele>
        <time>2025-02-20T09:21:57Z</time>
      </trkpt>
      <trkpt lat="45.63718" lon="6.5513">
        <ele>2265.6</ele>
        <time>2025-02-20T09:21:58Z</time>
      </trkpt>
      <trkpt lat="45.63717" lon="6.5513">
        <ele>2265.6</ele>
        <time>2025-02-20T09:21:59Z</time>
      </trkpt>
      <trkpt lat="45.63716" lon="6.5513">
        <ele>2265.6</ele>
        <time>2025-02-20T09:22:00Z</time>
      </trkpt>
      <trkpt lat="45.63715" lon="6.5513">
        <ele>2266.2</ele>
        <time>2025-02-20T09:22:01Z</time>
      </trkpt>
      <trkpt lat="45.63715" lon="6.55129">
        <ele>2266.2</ele>
        <time>2025-02-20T09:22:02Z</time>
      </trkpt>
      <trkpt lat="45.63714" lon="6.55129">
        <ele>2266.2</ele>
        <time>2025-02-20T09:22:03Z</time>
      </trkpt>
      <trkpt lat="45.63713" lon="6.55129">
        <ele>2266.2</ele>
        <time>2025-02-20T09:22:04Z</time>
      </trkpt>
      <trkpt lat="45.63712" lon="6.55129">
        <ele>2266.4</ele>
        <time>2025-02-20T09:22:05Z</time>
      </trkpt>
      <trkpt lat="45.63712" lon="6.55129">
        <ele>2266.4</ele>
        <time>2025-02-20T09:22:06Z</time>
      </trkpt>
      <trkpt lat="45.63711" lon="6.55129">
        <ele>2266.4</ele>
        <time>2025-02-20T09:22:07Z</time>
      </trkpt>
      <trkpt lat="45.6371" lon="6.55129">
        <ele>2266.4</ele>
        <time>2025-02-20T09:22:08Z</time>
      </trkpt>
      <trkpt lat="45.6371" lon="6.55128">
        <ele>2268.6</ele>
        <time>2025-02-20T09:22:09Z</time>
      </trkpt>
      <trkpt lat="45.63709" lon="6.55127">
        <ele>2268.6</ele>
        <time>2025-02-20T09:22:10Z</time>
      </trkpt>
      <trkpt lat="45.63708" lon="6.55127">
        <ele>2268.6</ele>
        <time>2025-02-20T09:22:11Z</time>
      </trkpt>
      <trkpt lat="45.63707" lon="6.55127">
        <ele>2267.6</ele>
        <time>2025-02-20T09:22:12Z</time>
      </trkpt>
      <trkpt lat="45.63706" lon="6.55126">
        <ele>2266.8</ele>
        <time>2025-02-20T09:22:13Z</time>
      </trkpt>
      <trkpt lat="45.63706" lon="6.55126">
        <ele>2266.8</ele>
        <time>2025-02-20T09:22:14Z</time>
      </trkpt>
      <trkpt lat="45.63705" lon="6.55126">
        <ele>2266.8</ele>
        <time>2025-02-20T09:22:15Z</time>
      </trkpt>
      <trkpt lat="45.63704" lon="6.55126">
        <ele>2265.8</ele>
        <time>2025-02-20T09:22:16Z</time>
      </trkpt>
      <trkpt lat="45.63703" lon="6.55125">
        <ele>2266.2</ele>
        <time>2025-02-20T09:22:17Z</time>
      </trkpt>
      <trkpt lat="45.63702" lon="6.55125">
        <ele>2266.2</ele>
        <time>2025-02-20T09:22:18Z</time>
      </trkpt>
      <trkpt lat="45.63701" lon="6.55125">
        <ele>2266.2</ele>
        <time>2025-02-20T09:22:19Z</time>
      </trkpt>
      <trkpt lat="45.637" lon="6.55124">
        <ele>2266.2</ele>
        <time>2025-02-20T09:22:20Z</time>
      </trkpt>
      <trkpt lat="45.63699" lon="6.55124">
        <ele>2267.4</ele>
        <time>2025-02-20T09:22:21Z</time>
      </trkpt>
      <trkpt lat="45.63699" lon="6.55124">
        <ele>2267.4</ele>
        <time>2025-02-20T09:22:22Z</time>
      </trkpt>
      <trkpt lat="45.63698" lon="6.55123">
        <ele>2267.4</ele>
        <time>2025-02-20T09:22:23Z</time>
      </trkpt>
      <trkpt lat="45.63697" lon="6.55123">
        <ele>2267.4</ele>
        <time>2025-02-20T09:22:24Z</time>
      </trkpt>
      <trkpt lat="45.63696" lon="6.55123">
        <ele>2268.2</ele>
        <time>2025-02-20T09:22:25Z</time>
      </trkpt>
      <trkpt lat="45.63696" lon="6.55123">
        <ele>2268.2</ele>
        <time>2025-02-20T09:22:26Z</time>
      </trkpt>
      <trkpt lat="45.63695" lon="6.55122">
        <ele>2268.2</ele>
        <time>2025-02-20T09:22:27Z</time>
      </trkpt>
      <trkpt lat="45.63694" lon="6.55122">
        <ele>2268.2</ele>
        <time>2025-02-20T09:22:28Z</time>
      </trkpt>
      <trkpt lat="45.63693" lon="6.55122">
        <ele>2268.4</ele>
        <time>2025-02-20T09:22:29Z</time>
      </trkpt>
      <trkpt lat="45.63692" lon="6.55122">
        <ele>2268.4</ele>
        <time>2025-02-20T09:22:30Z</time>
      </trkpt>
      <trkpt lat="45.63692" lon="6.55121">
        <ele>2268.4</ele>
        <time>2025-02-20T09:22:31Z</time>
      </trkpt>
      <trkpt lat="45.63691" lon="6.55121">
        <ele>2268.4</ele>
        <time>2025-02-20T09:22:32Z</time>
      </trkpt>
      <trkpt lat="45.6369" lon="6.55121">
        <ele>2264</ele>
        <time>2025-02-20T09:22:33Z</time>
      </trkpt>
      <trkpt lat="45.6369" lon="6.5512">
        <ele>2264</ele>
        <time>2025-02-20T09:22:34Z</time>
      </trkpt>
      <trkpt lat="45.63689" lon="6.5512">
        <ele>2264</ele>
        <time>2025-02-20T09:22:35Z</time>
      </trkpt>
      <trkpt lat="45.63689" lon="6.55119">
        <ele>2265</ele>
        <time>2025-02-20T09:22:36Z</time>
      </trkpt>
      <trkpt lat="45.63688" lon="6.55119">
        <ele>2260.8</ele>
        <time>2025-02-20T09:22:37Z</time>
      </trkpt>
      <trkpt lat="45.63687" lon="6.55118">
        <ele>2260.8</ele>
        <time>2025-02-20T09:22:38Z</time>
      </trkpt>
      <trkpt lat="45.63687" lon="6.55118">
        <ele>2260.8</ele>
        <time>2025-02-20T09:22:39Z</time>
      </trkpt>
      <trkpt lat="45.63686" lon="6.55117">
        <ele>2261.8</ele>
        <time>2025-02-20T09:22:40Z</time>
      </trkpt>
      <trkpt lat="45.63686" lon="6.55117">
        <ele>2267</ele>
        <time>2025-02-20T09:22:41Z</time>
      </trkpt>
      <trkpt lat="45.63686" lon="6.55116">
        <ele>2267</ele>
        <time>2025-02-20T09:22:42Z</time>
      </trkpt>
      <trkpt lat="45.63685" lon="6.55115">
        <ele>2267</ele>
        <time>2025-02-20T09:22:43Z</time>
      </trkpt>
      <trkpt lat="45.63685" lon="6.55115">
        <ele>2267</ele>
        <time>2025-02-20T09:22:44Z</time>
      </trkpt>
      <trkpt lat="45.63684" lon="6.55114">
        <ele>2267.2</ele>
        <time>2025-02-20T09:22:45Z</time>
      </trkpt>
      <trkpt lat="45.63683" lon="6.55114">
        <ele>2267.2</ele>
        <time>2025-02-20T09:22:46Z</time>
      </trkpt>
      <trkpt lat="45.63683" lon="6.55113">
        <ele>2267.2</ele>
        <time>2025-02-20T09:22:47Z</time>
      </trkpt>
      <trkpt lat="45.63682" lon="6.55113">
        <ele>2268.2</ele>
        <time>2025-02-20T09:22:48Z</time>
      </trkpt>
      <trkpt lat="45.63681" lon="6.55112">
        <ele>2268</ele>
        <time>2025-02-20T09:22:49Z</time>
      </trkpt>
      <trkpt lat="45.63681" lon="6.55111">
        <ele>2268</ele>
        <time>2025-02-20T09:22:50Z</time>
      </trkpt>
      <trkpt lat="45.6368" lon="6.55111">
        <ele>2268</ele>
        <time>2025-02-20T09:22:51Z</time>
      </trkpt>
      <trkpt lat="45.63679" lon="6.5511">
        <ele>2268</ele>
        <time>2025-02-20T09:22:52Z</time>
      </trkpt>
      <trkpt lat="45.63678" lon="6.5511">
        <ele>2266.6</ele>
        <time>2025-02-20T09:22:53Z</time>
      </trkpt>
      <trkpt lat="45.63677" lon="6.5511">
        <ele>2266.6</ele>
        <time>2025-02-20T09:22:54Z</time>
      </trkpt>
      <trkpt lat="45.63676" lon="6.55109">
        <ele>2266.6</ele>
        <time>2025-02-20T09:22:55Z</time>
      </trkpt>
      <trkpt lat="45.63675" lon="6.55108">
        <ele>2266.6</ele>
        <time>2025-02-20T09:22:56Z</time>
      </trkpt>
      <trkpt lat="45.63674" lon="6.55108">
        <ele>2268</ele>
        <time>2025-02-20T09:22:57Z</time>
      </trkpt>
      <trkpt lat="45.63673" lon="6.55107">
        <ele>2268</ele>
        <time>2025-02-20T09:22:58Z</time>
      </trkpt>
      <trkpt lat="45.63672" lon="6.55107">
        <ele>2268</ele>
        <time>2025-02-20T09:22:59Z</time>
      </trkpt>
      <trkpt lat="45.63671" lon="6.55105">
        <ele>2269</ele>
        <time>2025-02-20T09:23:00Z</time>
      </trkpt>
      <trkpt lat="45.63671" lon="6.55105">
        <ele>2266.4</ele>
        <time>2025-02-20T09:23:01Z</time>
      </trkpt>
      <trkpt lat="45.63671" lon="6.55104">
        <ele>2266.4</ele>
        <time>2025-02-20T09:23:02Z</time>
      </trkpt>
      <trkpt lat="45.63671" lon="6.55104">
        <ele>2266.4</ele>
        <time>2025-02-20T09:23:03Z</time>
      </trkpt>
      <trkpt lat="45.63671" lon="6.55104">
        <ele>2266.4</ele>
        <time>2025-02-20T09:23:04Z</time>
      </trkpt>
      <trkpt lat="45.63671" lon="6.55104">
        <ele>2269.2</ele>
        <time>2025-02-20T09:23:05Z</time>
      </trkpt>
      <trkpt lat="45.63671" lon="6.55104">
        <ele>2269.2</ele>
        <time>2025-02-20T09:23:06Z</time>
      </trkpt>
      <trkpt lat="45.63671" lon="6.55104">
        <ele>2269.2</ele>
        <time>2025-02-20T09:23:07Z</time>
      </trkpt>
      <trkpt lat="45.63671" lon="6.55104">
        <ele>2269.2</ele>
        <time>2025-02-20T09:23:08Z</time>
      </trkpt>
      <trkpt lat="45.63671" lon="6.55104">
        <ele>2268.6</ele>
        <time>2025-02-20T09:23:09Z</time>
      </trkpt>
      <trkpt lat="45.63671" lon="6.55104">
        <ele>2268.6</ele>
        <time>2025-02-20T09:23:10Z</time>
      </trkpt>
      <trkpt lat="45.63671" lon="6.55104">
        <ele>2268.6</ele>
        <time>2025-02-20T09:23:11Z</time>
      </trkpt>
      <trkpt lat="45.63671" lon="6.55104">
        <ele>2269.2</ele>
        <time>2025-02-20T09:23:12Z</time>
      </trkpt>
      <trkpt lat="45.63671" lon="6.55104">
        <ele>2269.2</ele>
        <time>2025-02-20T09:23:13Z</time>
      </trkpt>
      <trkpt lat="45.63671" lon="6.55104">
        <ele>2269.2</ele>
        <time>2025-02-20T09:23:14Z</time>
      </trkpt>
      <trkpt lat="45.63671" lon="6.55104">
        <ele>2269.2</ele>
        <time>2025-02-20T09:23:15Z</time>
      </trkpt>
      <trkpt lat="45.63671" lon="6.55104">
        <ele>2269.2</ele>
        <time>2025-02-20T09:23:16Z</time>
      </trkpt>
      <trkpt lat="45.63671" lon="6.55104">
        <ele>2268.6</ele>
        <time>2025-02-20T09:23:17Z</time>
      </trkpt>
      <trkpt lat="45.63671" lon="6.55104">
        <ele>2268.6</ele>
        <time>2025-02-20T09:23:18Z</time>
      </trkpt>
      <trkpt lat="45.63671" lon="6.55104">
        <ele>2268.6</ele>
        <time>2025-02-20T09:23:19Z</time>
      </trkpt>
      <trkpt lat="45.63671" lon="6.55104">
        <ele>2269</ele>
        <time>2025-02-20T09:23:20Z</time>
      </trkpt>
      <trkpt lat="45.63671" lon="6.55104">
        <ele>2268.6</ele>
        <time>2025-02-20T09:23:21Z</time>
      </trkpt>
      <trkpt lat="45.63671" lon="6.55104">
        <ele>2268.6</ele>
        <time>2025-02-20T09:23:22Z</time>
      </trkpt>
      <trkpt lat="45.63671" lon="6.55104">
        <ele>2268.6</ele>
        <time>2025-02-20T09:23:23Z</time>
      </trkpt>
      <trkpt lat="45.63671" lon="6.55104">
        <ele>2268.6</ele>
        <time>2025-02-20T09:23:24Z</time>
      </trkpt>
      <trkpt lat="45.63671" lon="6.55104">
        <ele>2268.4</ele>
        <time>2025-02-20T09:23:25Z</time>
      </trkpt>
      <trkpt lat="45.63671" lon="6.55104">
        <ele>2268.4</ele>
        <time>2025-02-20T09:23:26Z</time>
      </trkpt>
      <trkpt lat="45.63671" lon="6.55104">
        <ele>2268.4</ele>
        <time>2025-02-20T09:23:27Z</time>
      </trkpt>
      <trkpt lat="45.63671" lon="6.55104">
        <ele>2269</ele>
        <time>2025-02-20T09:23:28Z</time>
      </trkpt>
      <trkpt lat="45.63671" lon="6.55104">
        <ele>2269.2</ele>
        <time>2025-02-20T09:23:29Z</time>
      </trkpt>
      <trkpt lat="45.63671" lon="6.55104">
        <ele>2269.2</ele>
        <time>2025-02-20T09:23:30Z</time>
      </trkpt>
      <trkpt lat="45.63671" lon="6.55104">
        <ele>2269.2</ele>
        <time>2025-02-20T09:23:31Z</time>
      </trkpt>
      <trkpt lat="45.63671" lon="6.55104">
        <ele>2269.2</ele>
        <time>2025-02-20T09:23:32Z</time>
      </trkpt>
      <trkpt lat="45.63671" lon="6.55104">
        <ele>2269</ele>
        <time>2025-02-20T09:23:33Z</time>
      </trkpt>
      <trkpt lat="45.63671" lon="6.55104">
        <ele>2269</ele>
        <time>2025-02-20T09:23:34Z</time>
      </trkpt>
      <trkpt lat="45.63671" lon="6.55104">
        <ele>2269</ele>
        <time>2025-02-20T09:23:35Z</time>
      </trkpt>
      <trkpt lat="45.63671" lon="6.55104">
        <ele>2268.8</ele>
        <time>2025-02-20T09:23:36Z</time>
      </trkpt>
      <trkpt lat="45.63671" lon="6.55104">
        <ele>2268.8</ele>
        <time>2025-02-20T09:23:37Z</time>
      </trkpt>
      <trkpt lat="45.63671" lon="6.55104">
        <ele>2268.8</ele>
        <time>2025-02-20T09:23:38Z</time>
      </trkpt>
      <trkpt lat="45.63671" lon="6.55104">
        <ele>2268.8</ele>
        <time>2025-02-20T09:23:39Z</time>
      </trkpt>
      <trkpt lat="45.63671" lon="6.55104">
        <ele>2268.8</ele>
        <time>2025-02-20T09:23:40Z</time>
      </trkpt>
      <trkpt lat="45.63671" lon="6.55104">
        <ele>2268.8</ele>
        <time>2025-02-20T09:23:41Z</time>
      </trkpt>
      <trkpt lat="45.63671" lon="6.55104">
        <ele>2268.8</ele>
        <time>2025-02-20T09:23:42Z</time>
      </trkpt>
      <trkpt lat="45.63671" lon="6.55104">
        <ele>2268.8</ele>
        <time>2025-02-20T09:23:43Z</time>
      </trkpt>
      <trkpt lat="45.63671" lon="6.55104">
        <ele>2269</ele>
        <time>2025-02-20T09:23:44Z</time>
      </trkpt>
      <trkpt lat="45.63671" lon="6.55104">
        <ele>2268.6</ele>
        <time>2025-02-20T09:23:45Z</time>
      </trkpt>
      <trkpt lat="45.63671" lon="6.55104">
        <ele>2268.6</ele>
        <time>2025-02-20T09:23:46Z</time>
      </trkpt>
      <trkpt lat="45.63671" lon="6.55104">
        <ele>2268.6</ele>
        <time>2025-02-20T09:23:47Z</time>
      </trkpt>
      <trkpt lat="45.63671" lon="6.55104">
        <ele>2268.8</ele>
        <time>2025-02-20T09:23:48Z</time>
      </trkpt>
      <trkpt lat="45.63671" lon="6.55104">
        <ele>2269.2</ele>
        <time>2025-02-20T09:23:49Z</time>
      </trkpt>
      <trkpt lat="45.63671" lon="6.55104">
        <ele>2269.2</ele>
        <time>2025-02-20T09:23:50Z</time>
      </trkpt>
      <trkpt lat="45.63671" lon="6.55104">
        <ele>2269.2</ele>
        <time>2025-02-20T09:23:51Z</time>
      </trkpt>
      <trkpt lat="45.63671" lon="6.55104">
        <ele>2269.2</ele>
        <time>2025-02-20T09:23:52Z</time>
      </trkpt>
      <trkpt lat="45.63671" lon="6.55104">
        <ele>2268.8</ele>
        <time>2025-02-20T09:23:53Z</time>
      </trkpt>
      <trkpt lat="45.63671" lon="6.55104">
        <ele>2268.8</ele>
        <time>2025-02-20T09:23:54Z</time>
      </trkpt>
      <trkpt lat="45.63671" lon="6.55104">
        <ele>2268.8</ele>
        <time>2025-02-20T09:23:55Z</time>
      </trkpt>
      <trkpt lat="45.63671" lon="6.55104">
        <ele>2268.8</ele>
        <time>2025-02-20T09:23:56Z</time>
      </trkpt>
      <trkpt lat="45.63671" lon="6.55104">
        <ele>2267.8</ele>
        <time>2025-02-20T09:23:57Z</time>
      </trkpt>
      <trkpt lat="45.63671" lon="6.55104">
        <ele>2267.8</ele>
        <time>2025-02-20T09:23:58Z</time>
      </trkpt>
      <trkpt lat="45.63671" lon="6.55104">
        <ele>2267.8</ele>
        <time>2025-02-20T09:23:59Z</time>
      </trkpt>
      <trkpt lat="45.63671" lon="6.55104">
        <ele>2268.8</ele>
        <time>2025-02-20T09:24:00Z</time>
      </trkpt>
      <trkpt lat="45.63671" lon="6.55104">
        <ele>2268.8</ele>
        <time>2025-02-20T09:24:01Z</time>
      </trkpt>
      <trkpt lat="45.63671" lon="6.55104">
        <ele>2268.8</ele>
        <time>2025-02-20T09:24:02Z</time>
      </trkpt>
      <trkpt lat="45.63671" lon="6.55104">
        <ele>2268.8</ele>
        <time>2025-02-20T09:24:03Z</time>
      </trkpt>
      <trkpt lat="45.63671" lon="6.55104">
        <ele>2269.2</ele>
        <time>2025-02-20T09:24:04Z</time>
      </trkpt>
      <trkpt lat="45.63671" lon="6.55104">
        <ele>2268.6</ele>
        <time>2025-02-20T09:24:05Z</time>
      </trkpt>
      <trkpt lat="45.63671" lon="6.55104">
        <ele>2268.6</ele>
        <time>2025-02-20T09:24:06Z</time>
      </trkpt>
      <trkpt lat="45.63671" lon="6.55104">
        <ele>2268.6</ele>
        <time>2025-02-20T09:24:07Z</time>
      </trkpt>
      <trkpt lat="45.63671" lon="6.55104">
        <ele>2268.6</ele>
        <time>2025-02-20T09:24:08Z</time>
      </trkpt>
      <trkpt lat="45.63671" lon="6.55104">
        <ele>2268.8</ele>
        <time>2025-02-20T09:24:09Z</time>
      </trkpt>
      <trkpt lat="45.63671" lon="6.55104">
        <ele>2268.8</ele>
        <time>2025-02-20T09:24:10Z</time>
      </trkpt>
      <trkpt lat="45.63671" lon="6.55104">
        <ele>2268.8</ele>
        <time>2025-02-20T09:24:11Z</time>
      </trkpt>
      <trkpt lat="45.63671" lon="6.55104">
        <ele>2268.8</ele>
        <time>2025-02-20T09:24:12Z</time>
      </trkpt>
      <trkpt lat="45.63671" lon="6.55104">
        <ele>2268.6</ele>
        <time>2025-02-20T09:24:13Z</time>
      </trkpt>
      <trkpt lat="45.63671" lon="6.55104">
        <ele>2268.6</ele>
        <time>2025-02-20T09:24:14Z</time>
      </trkpt>
      <trkpt lat="45.63671" lon="6.55104">
        <ele>2268.6</ele>
        <time>2025-02-20T09:24:15Z</time>
      </trkpt>
      <trkpt lat="45.63671" lon="6.55104">
        <ele>2268.6</ele>
        <time>2025-02-20T09:24:16Z</time>
      </trkpt>
      <trkpt lat="45.63671" lon="6.55104">
        <ele>2269</ele>
        <time>2025-02-20T09:24:17Z</time>
      </trkpt>
      <trkpt lat="45.63671" lon="6.55104">
        <ele>2269</ele>
        <time>2025-02-20T09:24:18Z</time>
      </trkpt>
      <trkpt lat="45.63671" lon="6.55104">
        <ele>2269</ele>
        <time>2025-02-20T09:24:19Z</time>
      </trkpt>
      <trkpt lat="45.63671" lon="6.55104">
        <ele>2269</ele>
        <time>2025-02-20T09:24:20Z</time>
      </trkpt>
      <trkpt lat="45.63671" lon="6.55104">
        <ele>2268.8</ele>
        <time>2025-02-20T09:24:21Z</time>
      </trkpt>
      <trkpt lat="45.63671" lon="6.55104">
        <ele>2268.8</ele>
        <time>2025-02-20T09:24:22Z</time>
      </trkpt>
      <trkpt lat="45.63671" lon="6.55104">
        <ele>2268.8</ele>
        <time>2025-02-20T09:24:23Z</time>
      </trkpt>
      <trkpt lat="45.63671" lon="6.55104">
        <ele>2269</ele>
        <time>2025-02-20T09:24:24Z</time>
      </trkpt>
      <trkpt lat="45.63671" lon="6.55104">
        <ele>2268.6</ele>
        <time>2025-02-20T09:24:25Z</time>
      </trkpt>
      <trkpt lat="45.63671" lon="6.55104">
        <ele>2268.6</ele>
        <time>2025-02-20T09:24:26Z</time>
      </trkpt>
      <trkpt lat="45.63671" lon="6.55104">
        <ele>2268.6</ele>
        <time>2025-02-20T09:24:27Z</time>
      </trkpt>
      <trkpt lat="45.63671" lon="6.55104">
        <ele>2268.6</ele>
        <time>2025-02-20T09:24:28Z</time>
      </trkpt>
      <trkpt lat="45.63671" lon="6.55104">
        <ele>2268.6</ele>
        <time>2025-02-20T09:24:29Z</time>
      </trkpt>
      <trkpt lat="45.63671" lon="6.55104">
        <ele>2268.6</ele>
        <time>2025-02-20T09:24:30Z</time>
      </trkpt>
      <trkpt lat="45.63671" lon="6.55104">
        <ele>2268.6</ele>
        <time>2025-02-20T09:24:31Z</time>
      </trkpt>
      <trkpt lat="45.63671" lon="6.55104">
        <ele>2268.6</ele>
        <time>2025-02-20T09:24:32Z</time>
      </trkpt>
      <trkpt lat="45.63671" lon="6.55104">
        <ele>2268</ele>
        <time>2025-02-20T09:24:33Z</time>
      </trkpt>
      <trkpt lat="45.63671" lon="6.55104">
        <ele>2268</ele>
        <time>2025-02-20T09:24:34Z</time>
      </trkpt>
      <trkpt lat="45.63671" lon="6.55104">
        <ele>2268</ele>
        <time>2025-02-20T09:24:35Z</time>
      </trkpt>
      <trkpt lat="45.63671" lon="6.55104">
        <ele>2268.8</ele>
        <time>2025-02-20T09:24:36Z</time>
      </trkpt>
      <trkpt lat="45.63671" lon="6.55104">
        <ele>2269</ele>
        <time>2025-02-20T09:24:37Z</time>
      </trkpt>
      <trkpt lat="45.63671" lon="6.55104">
        <ele>2269</ele>
        <time>2025-02-20T09:24:38Z</time>
      </trkpt>
      <trkpt lat="45.63671" lon="6.55104">
        <ele>2269</ele>
        <time>2025-02-20T09:24:39Z</time>
      </trkpt>
      <trkpt lat="45.63671" lon="6.55104">
        <ele>2269</ele>
        <time>2025-02-20T09:24:40Z</time>
      </trkpt>
      <trkpt lat="45.63671" lon="6.55104">
        <ele>2268.8</ele>
        <time>2025-02-20T09:24:41Z</time>
      </trkpt>
      <trkpt lat="45.63671" lon="6.55104">
        <ele>2268.8</ele>
        <time>2025-02-20T09:24:42Z</time>
      </trkpt>
      <trkpt lat="45.63671" lon="6.55104">
        <ele>2268.8</ele>
        <time>2025-02-20T09:24:43Z</time>
      </trkpt>
      <trkpt lat="45.63671" lon="6.55104">
        <ele>2268.8</ele>
        <time>2025-02-20T09:24:44Z</time>
      </trkpt>
      <trkpt lat="45.63671" lon="6.55104">
        <ele>2268.6</ele>
        <time>2025-02-20T09:24:45Z</time>
      </trkpt>
      <trkpt lat="45.63671" lon="6.55104">
        <ele>2268.6</ele>
        <time>2025-02-20T09:24:46Z</time>
      </trkpt>
      <trkpt lat="45.63671" lon="6.55104">
        <ele>2268.6</ele>
        <time>2025-02-20T09:24:47Z</time>
      </trkpt>
      <trkpt lat="45.63671" lon="6.55104">
        <ele>2269</ele>
        <time>2025-02-20T09:24:48Z</time>
      </trkpt>
      <trkpt lat="45.63671" lon="6.55104">
        <ele>2268.8</ele>
        <time>2025-02-20T09:24:49Z</time>
      </trkpt>
      <trkpt lat="45.63671" lon="6.55104">
        <ele>2268.8</ele>
        <time>2025-02-20T09:24:50Z</time>
      </trkpt>
      <trkpt lat="45.63671" lon="6.55104">
        <ele>2268.8</ele>
        <time>2025-02-20T09:24:51Z</time>
      </trkpt>
      <trkpt lat="45.63671" lon="6.55104">
        <ele>2268.8</ele>
        <time>2025-02-20T09:24:52Z</time>
      </trkpt>
      <trkpt lat="45.63671" lon="6.55104">
        <ele>2268.8</ele>
        <time>2025-02-20T09:24:53Z</time>
      </trkpt>
      <trkpt lat="45.63671" lon="6.55104">
        <ele>2268.8</ele>
        <time>2025-02-20T09:24:54Z</time>
      </trkpt>
      <trkpt lat="45.63671" lon="6.55104">
        <ele>2268.8</ele>
        <time>2025-02-20T09:24:55Z</time>
      </trkpt>
      <trkpt lat="45.63671" lon="6.55104">
        <ele>2268.8</ele>
        <time>2025-02-20T09:24:56Z</time>
      </trkpt>
      <trkpt lat="45.63671" lon="6.55104">
        <ele>2269</ele>
        <time>2025-02-20T09:24:57Z</time>
      </trkpt>
      <trkpt lat="45.63671" lon="6.55104">
        <ele>2269</ele>
        <time>2025-02-20T09:24:58Z</time>
      </trkpt>
      <trkpt lat="45.63671" lon="6.55104">
        <ele>2269</ele>
        <time>2025-02-20T09:24:59Z</time>
      </trkpt>
      <trkpt lat="45.63671" lon="6.55104">
        <ele>2269</ele>
        <time>2025-02-20T09:25:00Z</time>
      </trkpt>
      <trkpt lat="45.63671" lon="6.55104">
        <ele>2269.2</ele>
        <time>2025-02-20T09:25:01Z</time>
      </trkpt>
      <trkpt lat="45.63671" lon="6.55104">
        <ele>2269.2</ele>
        <time>2025-02-20T09:25:02Z</time>
      </trkpt>
      <trkpt lat="45.63671" lon="6.55104">
        <ele>2269.2</ele>
        <time>2025-02-20T09:25:03Z</time>
      </trkpt>
      <trkpt lat="45.63671" lon="6.55104">
        <ele>2269.2</ele>
        <time>2025-02-20T09:25:04Z</time>
      </trkpt>
      <trkpt lat="45.63671" lon="6.55104">
        <ele>2268.6</ele>
        <time>2025-02-20T09:25:05Z</time>
      </trkpt>
      <trkpt lat="45.63671" lon="6.55104">
        <ele>2268.6</ele>
        <time>2025-02-20T09:25:06Z</time>
      </trkpt>
      <trkpt lat="45.63671" lon="6.55104">
        <ele>2268.6</ele>
        <time>2025-02-20T09:25:07Z</time>
      </trkpt>
      <trkpt lat="45.63671" lon="6.55104">
        <ele>2269</ele>
        <time>2025-02-20T09:25:08Z</time>
      </trkpt>
      <trkpt lat="45.63671" lon="6.55104">
        <ele>2268.8</ele>
        <time>2025-02-20T09:25:09Z</time>
      </trkpt>
      <trkpt lat="45.63671" lon="6.55104">
        <ele>2268.8</ele>
        <time>2025-02-20T09:25:10Z</time>
      </trkpt>
      <trkpt lat="45.63671" lon="6.55104">
        <ele>2268.8</ele>
        <time>2025-02-20T09:25:11Z</time>
      </trkpt>
      <trkpt lat="45.63671" lon="6.55104">
        <ele>2269</ele>
        <time>2025-02-20T09:25:12Z</time>
      </trkpt>
      <trkpt lat="45.63671" lon="6.55104">
        <ele>2269.2</ele>
        <time>2025-02-20T09:25:13Z</time>
      </trkpt>
      <trkpt lat="45.63671" lon="6.55104">
        <ele>2269.2</ele>
        <time>2025-02-20T09:25:14Z</time>
      </trkpt>
      <trkpt lat="45.63671" lon="6.55104">
        <ele>2269.2</ele>
        <time>2025-02-20T09:25:15Z</time>
      </trkpt>
      <trkpt lat="45.63671" lon="6.55104">
        <ele>2269.2</ele>
        <time>2025-02-20T09:25:16Z</time>
      </trkpt>
      <trkpt lat="45.63671" lon="6.55104">
        <ele>2269.2</ele>
        <time>2025-02-20T09:25:17Z</time>
      </trkpt>
      <trkpt lat="45.63671" lon="6.55104">
        <ele>2269.2</ele>
        <time>2025-02-20T09:25:18Z</time>
      </trkpt>
      <trkpt lat="45.63671" lon="6.55104">
        <ele>2269.2</ele>
        <time>2025-02-20T09:25:19Z</time>
      </trkpt>
      <trkpt lat="45.63671" lon="6.55104">
        <ele>2269.2</ele>
        <time>2025-02-20T09:25:20Z</time>
      </trkpt>
      <trkpt lat="45.63671" lon="6.55104">
        <ele>2269</ele>
        <time>2025-02-20T09:25:21Z</time>
      </trkpt>
      <trkpt lat="45.63671" lon="6.55104">
        <ele>2269</ele>
        <time>2025-02-20T09:25:22Z</time>
      </trkpt>
      <trkpt lat="45.63671" lon="6.55104">
        <ele>2269</ele>
        <time>2025-02-20T09:25:23Z</time>
      </trkpt>
      <trkpt lat="45.63671" lon="6.55104">
        <ele>2269</ele>
        <time>2025-02-20T09:25:24Z</time>
      </trkpt>
      <trkpt lat="45.63671" lon="6.55104">
        <ele>2269.4</ele>
        <time>2025-02-20T09:25:25Z</time>
      </trkpt>
      <trkpt lat="45.63671" lon="6.55104">
        <ele>2269.4</ele>
        <time>2025-02-20T09:25:26Z</time>
      </trkpt>
      <trkpt lat="45.63671" lon="6.55104">
        <ele>2269.4</ele>
        <time>2025-02-20T09:25:27Z</time>
      </trkpt>
      <trkpt lat="45.63671" lon="6.55104">
        <ele>2269.4</ele>
        <time>2025-02-20T09:25:28Z</time>
      </trkpt>
      <trkpt lat="45.63671" lon="6.55104">
        <ele>2269</ele>
        <time>2025-02-20T09:25:29Z</time>
      </trkpt>
      <trkpt lat="45.63671" lon="6.55104">
        <ele>2269</ele>
        <time>2025-02-20T09:25:30Z</time>
      </trkpt>
      <trkpt lat="45.63671" lon="6.55104">
        <ele>2269</ele>
        <time>2025-02-20T09:25:31Z</time>
      </trkpt>
      <trkpt lat="45.63671" lon="6.55104">
        <ele>2269</ele>
        <time>2025-02-20T09:25:32Z</time>
      </trkpt>
      <trkpt lat="45.63671" lon="6.55104">
        <ele>2269</ele>
        <time>2025-02-20T09:25:33Z</time>
      </trkpt>
      <trkpt lat="45.63671" lon="6.55104">
        <ele>2269</ele>
        <time>2025-02-20T09:25:34Z</time>
      </trkpt>
      <trkpt lat="45.63671" lon="6.55104">
        <ele>2269</ele>
        <time>2025-02-20T09:25:35Z</time>
      </trkpt>
      <trkpt lat="45.63671" lon="6.55104">
        <ele>2269</ele>
        <time>2025-02-20T09:25:36Z</time>
      </trkpt>
      <trkpt lat="45.63671" lon="6.55104">
        <ele>2269</ele>
        <time>2025-02-20T09:25:37Z</time>
      </trkpt>
      <trkpt lat="45.63671" lon="6.55104">
        <ele>2269</ele>
        <time>2025-02-20T09:25:38Z</time>
      </trkpt>
      <trkpt lat="45.63671" lon="6.55104">
        <ele>2269</ele>
        <time>2025-02-20T09:25:39Z</time>
      </trkpt>
      <trkpt lat="45.63671" lon="6.55104">
        <ele>2269</ele>
        <time>2025-02-20T09:25:40Z</time>
      </trkpt>
      <trkpt lat="45.63671" lon="6.55104">
        <ele>2269.4</ele>
        <time>2025-02-20T09:25:41Z</time>
      </trkpt>
      <trkpt lat="45.63671" lon="6.55104">
        <ele>2269.4</ele>
        <time>2025-02-20T09:25:42Z</time>
      </trkpt>
      <trkpt lat="45.63671" lon="6.55104">
        <ele>2269.4</ele>
        <time>2025-02-20T09:25:43Z</time>
      </trkpt>
      <trkpt lat="45.63671" lon="6.55104">
        <ele>2269.2</ele>
        <time>2025-02-20T09:25:44Z</time>
      </trkpt>
      <trkpt lat="45.63671" lon="6.55104">
        <ele>2269.6</ele>
        <time>2025-02-20T09:25:45Z</time>
      </trkpt>
      <trkpt lat="45.63671" lon="6.55104">
        <ele>2269.6</ele>
        <time>2025-02-20T09:25:46Z</time>
      </trkpt>
      <trkpt lat="45.63671" lon="6.55104">
        <ele>2269.6</ele>
        <time>2025-02-20T09:25:47Z</time>
      </trkpt>
      <trkpt lat="45.63671" lon="6.55104">
        <ele>2269.6</ele>
        <time>2025-02-20T09:25:48Z</time>
      </trkpt>
      <trkpt lat="45.63671" lon="6.55104">
        <ele>2269.2</ele>
        <time>2025-02-20T09:25:49Z</time>
      </trkpt>
      <trkpt lat="45.63671" lon="6.55104">
        <ele>2269.2</ele>
        <time>2025-02-20T09:25:50Z</time>
      </trkpt>
      <trkpt lat="45.63671" lon="6.55104">
        <ele>2269.2</ele>
        <time>2025-02-20T09:25:51Z</time>
      </trkpt>
      <trkpt lat="45.63671" lon="6.55104">
        <ele>2268.8</ele>
        <time>2025-02-20T09:25:52Z</time>
      </trkpt>
      <trkpt lat="45.63671" lon="6.55104">
        <ele>2269</ele>
        <time>2025-02-20T09:25:53Z</time>
      </trkpt>
      <trkpt lat="45.63671" lon="6.55104">
        <ele>2269</ele>
        <time>2025-02-20T09:25:54Z</time>
      </trkpt>
      <trkpt lat="45.63671" lon="6.55104">
        <ele>2269</ele>
        <time>2025-02-20T09:25:55Z</time>
      </trkpt>
      <trkpt lat="45.63671" lon="6.55104">
        <ele>2269</ele>
        <time>2025-02-20T09:25:56Z</time>
      </trkpt>
      <trkpt lat="45.63671" lon="6.55104">
        <ele>2269.6</ele>
        <time>2025-02-20T09:25:57Z</time>
      </trkpt>
      <trkpt lat="45.63671" lon="6.55104">
        <ele>2269.6</ele>
        <time>2025-02-20T09:25:58Z</time>
      </trkpt>
      <trkpt lat="45.63671" lon="6.55104">
        <ele>2269.6</ele>
        <time>2025-02-20T09:25:59Z</time>
      </trkpt>
      <trkpt lat="45.63671" lon="6.55104">
        <ele>2269</ele>
        <time>2025-02-20T09:26:00Z</time>
      </trkpt>
      <trkpt lat="45.63671" lon="6.55104">
        <ele>2269.4</ele>
        <time>2025-02-20T09:26:01Z</time>
      </trkpt>
      <trkpt lat="45.63671" lon="6.55104">
        <ele>2269.4</ele>
        <time>2025-02-20T09:26:02Z</time>
      </trkpt>
      <trkpt lat="45.63671" lon="6.55104">
        <ele>2269.4</ele>
        <time>2025-02-20T09:26:03Z</time>
      </trkpt>
      <trkpt lat="45.63671" lon="6.55104">
        <ele>2269.4</ele>
        <time>2025-02-20T09:26:04Z</time>
      </trkpt>
      <trkpt lat="45.63671" lon="6.55104">
        <ele>2269.4</ele>
        <time>2025-02-20T09:26:05Z</time>
      </trkpt>
      <trkpt lat="45.63671" lon="6.55104">
        <ele>2269.4</ele>
        <time>2025-02-20T09:26:06Z</time>
      </trkpt>
      <trkpt lat="45.63671" lon="6.55104">
        <ele>2269.4</ele>
        <time>2025-02-20T09:26:07Z</time>
      </trkpt>
      <trkpt lat="45.63671" lon="6.55104">
        <ele>2269.4</ele>
        <time>2025-02-20T09:26:08Z</time>
      </trkpt>
      <trkpt lat="45.63671" lon="6.55104">
        <ele>2269.2</ele>
        <time>2025-02-20T09:26:09Z</time>
      </trkpt>
      <trkpt lat="45.63671" lon="6.55104">
        <ele>2269.2</ele>
        <time>2025-02-20T09:26:10Z</time>
      </trkpt>
      <trkpt lat="45.63671" lon="6.55104">
        <ele>2269.2</ele>
        <time>2025-02-20T09:26:11Z</time>
      </trkpt>
      <trkpt lat="45.63671" lon="6.55104">
        <ele>2269.2</ele>
        <time>2025-02-20T09:26:12Z</time>
      </trkpt>
      <trkpt lat="45.63671" lon="6.55104">
        <ele>2269</ele>
        <time>2025-02-20T09:26:13Z</time>
      </trkpt>
      <trkpt lat="45.63671" lon="6.55104">
        <ele>2269</ele>
        <time>2025-02-20T09:26:14Z</time>
      </trkpt>
      <trkpt lat="45.63671" lon="6.55104">
        <ele>2269</ele>
        <time>2025-02-20T09:26:15Z</time>
      </trkpt>
      <trkpt lat="45.63671" lon="6.55104">
        <ele>2269.4</ele>
        <time>2025-02-20T09:26:16Z</time>
      </trkpt>
      <trkpt lat="45.63671" lon="6.55104">
        <ele>2269.4</ele>
        <time>2025-02-20T09:26:17Z</time>
      </trkpt>
      <trkpt lat="45.63671" lon="6.55104">
        <ele>2269.4</ele>
        <time>2025-02-20T09:26:18Z</time>
      </trkpt>
      <trkpt lat="45.63671" lon="6.55104">
        <ele>2269.4</ele>
        <time>2025-02-20T09:26:19Z</time>
      </trkpt>
      <trkpt lat="45.63671" lon="6.55104">
        <ele>2269.2</ele>
        <time>2025-02-20T09:26:20Z</time>
      </trkpt>
      <trkpt lat="45.63671" lon="6.55104">
        <ele>2269.4</ele>
        <time>2025-02-20T09:26:21Z</time>
      </trkpt>
      <trkpt lat="45.63671" lon="6.55104">
        <ele>2269.4</ele>
        <time>2025-02-20T09:26:22Z</time>
      </trkpt>
      <trkpt lat="45.63671" lon="6.55104">
        <ele>2269.4</ele>
        <time>2025-02-20T09:26:23Z</time>
      </trkpt>
      <trkpt lat="45.63671" lon="6.55104">
        <ele>2269</ele>
        <time>2025-02-20T09:26:24Z</time>
      </trkpt>
      <trkpt lat="45.63671" lon="6.55104">
        <ele>2268.6</ele>
        <time>2025-02-20T09:26:25Z</time>
      </trkpt>
      <trkpt lat="45.63671" lon="6.55104">
        <ele>2268.6</ele>
        <time>2025-02-20T09:26:26Z</time>
      </trkpt>
      <trkpt lat="45.63671" lon="6.55104">
        <ele>2268.6</ele>
        <time>2025-02-20T09:26:27Z</time>
      </trkpt>
      <trkpt lat="45.63671" lon="6.55104">
        <ele>2269</ele>
        <time>2025-02-20T09:26:28Z</time>
      </trkpt>
      <trkpt lat="45.63671" lon="6.55104">
        <ele>2268.2</ele>
        <time>2025-02-20T09:26:29Z</time>
      </trkpt>
      <trkpt lat="45.63671" lon="6.55104">
        <ele>2268.2</ele>
        <time>2025-02-20T09:26:30Z</time>
      </trkpt>
      <trkpt lat="45.63671" lon="6.55104">
        <ele>2268.2</ele>
        <time>2025-02-20T09:26:31Z</time>
      </trkpt>
      <trkpt lat="45.63671" lon="6.55104">
        <ele>2269.2</ele>
        <time>2025-02-20T09:26:32Z</time>
      </trkpt>
      <trkpt lat="45.63671" lon="6.55104">
        <ele>2269</ele>
        <time>2025-02-20T09:26:33Z</time>
      </trkpt>
      <trkpt lat="45.63671" lon="6.55104">
        <ele>2269</ele>
        <time>2025-02-20T09:26:34Z</time>
      </trkpt>
      <trkpt lat="45.63671" lon="6.55104">
        <ele>2269</ele>
        <time>2025-02-20T09:26:35Z</time>
      </trkpt>
      <trkpt lat="45.63671" lon="6.55104">
        <ele>2269</ele>
        <time>2025-02-20T09:26:36Z</time>
      </trkpt>
      <trkpt lat="45.63671" lon="6.55104">
        <ele>2269.4</ele>
        <time>2025-02-20T09:26:37Z</time>
      </trkpt>
      <trkpt lat="45.63671" lon="6.55104">
        <ele>2269.4</ele>
        <time>2025-02-20T09:26:38Z</time>
      </trkpt>
      <trkpt lat="45.63671" lon="6.55104">
        <ele>2269.4</ele>
        <time>2025-02-20T09:26:39Z</time>
      </trkpt>
      <trkpt lat="45.63671" lon="6.55104">
        <ele>2269.4</ele>
        <time>2025-02-20T09:26:40Z</time>
      </trkpt>
      <trkpt lat="45.63671" lon="6.55104">
        <ele>2269</ele>
        <time>2025-02-20T09:26:41Z</time>
      </trkpt>
      <trkpt lat="45.63671" lon="6.55104">
        <ele>2269</ele>
        <time>2025-02-20T09:26:42Z</time>
      </trkpt>
      <trkpt lat="45.63671" lon="6.55104">
        <ele>2269</ele>
        <time>2025-02-20T09:26:43Z</time>
      </trkpt>
      <trkpt lat="45.63671" lon="6.55104">
        <ele>2269</ele>
        <time>2025-02-20T09:26:44Z</time>
      </trkpt>
      <trkpt lat="45.63671" lon="6.55104">
        <ele>2268.8</ele>
        <time>2025-02-20T09:26:45Z</time>
      </trkpt>
      <trkpt lat="45.63671" lon="6.55104">
        <ele>2268.8</ele>
        <time>2025-02-20T09:26:46Z</time>
      </trkpt>
      <trkpt lat="45.63671" lon="6.55104">
        <ele>2268.8</ele>
        <time>2025-02-20T09:26:47Z</time>
      </trkpt>
      <trkpt lat="45.63671" lon="6.55104">
        <ele>2268.8</ele>
        <time>2025-02-20T09:26:48Z</time>
      </trkpt>
      <trkpt lat="45.63671" lon="6.55104">
        <ele>2269.4</ele>
        <time>2025-02-20T09:26:49Z</time>
      </trkpt>
      <trkpt lat="45.63671" lon="6.55104">
        <ele>2269.4</ele>
        <time>2025-02-20T09:26:50Z</time>
      </trkpt>
      <trkpt lat="45.63671" lon="6.55104">
        <ele>2269.4</ele>
        <time>2025-02-20T09:26:51Z</time>
      </trkpt>
      <trkpt lat="45.63671" lon="6.55104">
        <ele>2269.4</ele>
        <time>2025-02-20T09:26:52Z</time>
      </trkpt>
      <trkpt lat="45.63671" lon="6.55104">
        <ele>2268.6</ele>
        <time>2025-02-20T09:26:53Z</time>
      </trkpt>
      <trkpt lat="45.63671" lon="6.55104">
        <ele>2268.6</ele>
        <time>2025-02-20T09:26:54Z</time>
      </trkpt>
      <trkpt lat="45.63671" lon="6.55104">
        <ele>2268.6</ele>
        <time>2025-02-20T09:26:55Z</time>
      </trkpt>
      <trkpt lat="45.63671" lon="6.55104">
        <ele>2269</ele>
        <time>2025-02-20T09:26:56Z</time>
      </trkpt>
      <trkpt lat="45.63671" lon="6.55104">
        <ele>2268.6</ele>
        <time>2025-02-20T09:26:57Z</time>
      </trkpt>
      <trkpt lat="45.63671" lon="6.55104">
        <ele>2268.6</ele>
        <time>2025-02-20T09:26:58Z</time>
      </trkpt>
      <trkpt lat="45.63671" lon="6.55104">
        <ele>2268.6</ele>
        <time>2025-02-20T09:26:59Z</time>
      </trkpt>
      <trkpt lat="45.63671" lon="6.55104">
        <ele>2268.6</ele>
        <time>2025-02-20T09:27:00Z</time>
      </trkpt>
      <trkpt lat="45.63671" lon="6.55104">
        <ele>2269.8</ele>
        <time>2025-02-20T09:27:01Z</time>
      </trkpt>
      <trkpt lat="45.63671" lon="6.55104">
        <ele>2269.8</ele>
        <time>2025-02-20T09:27:02Z</time>
      </trkpt>
      <trkpt lat="45.63671" lon="6.55104">
        <ele>2269.8</ele>
        <time>2025-02-20T09:27:03Z</time>
      </trkpt>
      <trkpt lat="45.63671" lon="6.55104">
        <ele>2268.8</ele>
        <time>2025-02-20T09:27:04Z</time>
      </trkpt>
      <trkpt lat="45.63671" lon="6.55104">
        <ele>2270.2</ele>
        <time>2025-02-20T09:27:05Z</time>
      </trkpt>
      <trkpt lat="45.63671" lon="6.55104">
        <ele>2270.2</ele>
        <time>2025-02-20T09:27:06Z</time>
      </trkpt>
      <trkpt lat="45.63671" lon="6.55104">
        <ele>2270.2</ele>
        <time>2025-02-20T09:27:07Z</time>
      </trkpt>
      <trkpt lat="45.63671" lon="6.55104">
        <ele>2270.2</ele>
        <time>2025-02-20T09:27:08Z</time>
      </trkpt>
      <trkpt lat="45.63671" lon="6.55104">
        <ele>2269.2</ele>
        <time>2025-02-20T09:27:09Z</time>
      </trkpt>
      <trkpt lat="45.63671" lon="6.55104">
        <ele>2269.2</ele>
        <time>2025-02-20T09:27:10Z</time>
      </trkpt>
      <trkpt lat="45.63671" lon="6.55104">
        <ele>2269.2</ele>
        <time>2025-02-20T09:27:11Z</time>
      </trkpt>
      <trkpt lat="45.63671" lon="6.55104">
        <ele>2269.2</ele>
        <time>2025-02-20T09:27:12Z</time>
      </trkpt>
      <trkpt lat="45.63671" lon="6.55104">
        <ele>2269.4</ele>
        <time>2025-02-20T09:27:13Z</time>
      </trkpt>
      <trkpt lat="45.63671" lon="6.55104">
        <ele>2269.4</ele>
        <time>2025-02-20T09:27:14Z</time>
      </trkpt>
      <trkpt lat="45.63671" lon="6.55104">
        <ele>2269.4</ele>
        <time>2025-02-20T09:27:15Z</time>
      </trkpt>
      <trkpt lat="45.63671" lon="6.55103">
        <ele>2269.4</ele>
        <time>2025-02-20T09:27:16Z</time>
      </trkpt>
      <trkpt lat="45.6367" lon="6.55102">
        <ele>2264.4</ele>
        <time>2025-02-20T09:27:17Z</time>
      </trkpt>
      <trkpt lat="45.63669" lon="6.55102">
        <ele>2264.4</ele>
        <time>2025-02-20T09:27:18Z</time>
      </trkpt>
      <trkpt lat="45.63667" lon="6.55102">
        <ele>2264.4</ele>
        <time>2025-02-20T09:27:19Z</time>
      </trkpt>
      <trkpt lat="45.63666" lon="6.55101">
        <ele>2265.4</ele>
        <time>2025-02-20T09:27:20Z</time>
      </trkpt>
      <trkpt lat="45.63665" lon="6.55101">
        <ele>2265</ele>
        <time>2025-02-20T09:27:21Z</time>
      </trkpt>
      <trkpt lat="45.63664" lon="6.551">
        <ele>2265</ele>
        <time>2025-02-20T09:27:22Z</time>
      </trkpt>
      <trkpt lat="45.63662" lon="6.551">
        <ele>2265</ele>
        <time>2025-02-20T09:27:23Z</time>
      </trkpt>
      <trkpt lat="45.6366" lon="6.55099">
        <ele>2266</ele>
        <time>2025-02-20T09:27:24Z</time>
      </trkpt>
      <trkpt lat="45.63659" lon="6.55098">
        <ele>2268.8</ele>
        <time>2025-02-20T09:27:25Z</time>
      </trkpt>
      <trkpt lat="45.63657" lon="6.55097">
        <ele>2268.8</ele>
        <time>2025-02-20T09:27:26Z</time>
      </trkpt>
      <trkpt lat="45.63656" lon="6.55097">
        <ele>2268.8</ele>
        <time>2025-02-20T09:27:27Z</time>
      </trkpt>
      <trkpt lat="45.63655" lon="6.55096">
        <ele>2268.8</ele>
        <time>2025-02-20T09:27:28Z</time>
      </trkpt>
      <trkpt lat="45.63654" lon="6.55096">
        <ele>2271</ele>
        <time>2025-02-20T09:27:29Z</time>
      </trkpt>
      <trkpt lat="45.63654" lon="6.55094">
        <ele>2271</ele>
        <time>2025-02-20T09:27:30Z</time>
      </trkpt>
      <trkpt lat="45.63652" lon="6.55093">
        <ele>2271</ele>
        <time>2025-02-20T09:27:31Z</time>
      </trkpt>
      <trkpt lat="45.63651" lon="6.55092">
        <ele>2270</ele>
        <time>2025-02-20T09:27:32Z</time>
      </trkpt>
      <trkpt lat="45.6365" lon="6.55091">
        <ele>2272</ele>
        <time>2025-02-20T09:27:33Z</time>
      </trkpt>
      <trkpt lat="45.6365" lon="6.55091">
        <ele>2272</ele>
        <time>2025-02-20T09:27:34Z</time>
      </trkpt>
      <trkpt lat="45.63648" lon="6.5509">
        <ele>2272</ele>
        <time>2025-02-20T09:27:35Z</time>
      </trkpt>
      <trkpt lat="45.63648" lon="6.5509">
        <ele>2272</ele>
        <time>2025-02-20T09:27:36Z</time>
      </trkpt>
      <trkpt lat="45.63647" lon="6.55089">
        <ele>2261.6</ele>
        <time>2025-02-20T09:27:37Z</time>
      </trkpt>
      <trkpt lat="45.63646" lon="6.55088">
        <ele>2261.6</ele>
        <time>2025-02-20T09:27:38Z</time>
      </trkpt>
      <trkpt lat="45.63645" lon="6.55088">
        <ele>2261.6</ele>
        <time>2025-02-20T09:27:39Z</time>
      </trkpt>
      <trkpt lat="45.63644" lon="6.55088">
        <ele>2262.6</ele>
        <time>2025-02-20T09:27:40Z</time>
      </trkpt>
      <trkpt lat="45.63643" lon="6.55087">
        <ele>2270.8</ele>
        <time>2025-02-20T09:27:41Z</time>
      </trkpt>
      <trkpt lat="45.63642" lon="6.55086">
        <ele>2270.8</ele>
        <time>2025-02-20T09:27:42Z</time>
      </trkpt>
      <trkpt lat="45.63642" lon="6.55086">
        <ele>2270.8</ele>
        <time>2025-02-20T09:27:43Z</time>
      </trkpt>
      <trkpt lat="45.63641" lon="6.55085">
        <ele>2270.8</ele>
        <time>2025-02-20T09:27:44Z</time>
      </trkpt>
      <trkpt lat="45.6364" lon="6.55084">
        <ele>2266.2</ele>
        <time>2025-02-20T09:27:45Z</time>
      </trkpt>
      <trkpt lat="45.6364" lon="6.55084">
        <ele>2266.2</ele>
        <time>2025-02-20T09:27:46Z</time>
      </trkpt>
      <trkpt lat="45.63639" lon="6.55083">
        <ele>2266.2</ele>
        <time>2025-02-20T09:27:47Z</time>
      </trkpt>
      <trkpt lat="45.63638" lon="6.55083">
        <ele>2267.2</ele>
        <time>2025-02-20T09:27:48Z</time>
      </trkpt>
      <trkpt lat="45.63638" lon="6.55083">
        <ele>2265.4</ele>
        <time>2025-02-20T09:27:49Z</time>
      </trkpt>
      <trkpt lat="45.63637" lon="6.55082">
        <ele>2265.4</ele>
        <time>2025-02-20T09:27:50Z</time>
      </trkpt>
      <trkpt lat="45.63636" lon="6.55082">
        <ele>2265.4</ele>
        <time>2025-02-20T09:27:51Z</time>
      </trkpt>
      <trkpt lat="45.63635" lon="6.55081">
        <ele>2266.4</ele>
        <time>2025-02-20T09:27:52Z</time>
      </trkpt>
      <trkpt lat="45.63634" lon="6.55081">
        <ele>2269.4</ele>
        <time>2025-02-20T09:27:53Z</time>
      </trkpt>
      <trkpt lat="45.63633" lon="6.55081">
        <ele>2269.4</ele>
        <time>2025-02-20T09:27:54Z</time>
      </trkpt>
      <trkpt lat="45.63632" lon="6.55081">
        <ele>2269.4</ele>
        <time>2025-02-20T09:27:55Z</time>
      </trkpt>
      <trkpt lat="45.63631" lon="6.55081">
        <ele>2270.4</ele>
        <time>2025-02-20T09:27:56Z</time>
      </trkpt>
      <trkpt lat="45.63631" lon="6.5508">
        <ele>2271.2</ele>
        <time>2025-02-20T09:27:57Z</time>
      </trkpt>
      <trkpt lat="45.6363" lon="6.5508">
        <ele>2271.2</ele>
        <time>2025-02-20T09:27:58Z</time>
      </trkpt>
      <trkpt lat="45.63629" lon="6.5508">
        <ele>2271.2</ele>
        <time>2025-02-20T09:27:59Z</time>
      </trkpt>
      <trkpt lat="45.63628" lon="6.55079">
        <ele>2271.2</ele>
        <time>2025-02-20T09:28:00Z</time>
      </trkpt>
      <trkpt lat="45.63627" lon="6.55079">
        <ele>2270</ele>
        <time>2025-02-20T09:28:01Z</time>
      </trkpt>
      <trkpt lat="45.63626" lon="6.55079">
        <ele>2270</ele>
        <time>2025-02-20T09:28:02Z</time>
      </trkpt>
      <trkpt lat="45.63626" lon="6.55079">
        <ele>2270</ele>
        <time>2025-02-20T09:28:03Z</time>
      </trkpt>
      <trkpt lat="45.63625" lon="6.55078">
        <ele>2270</ele>
        <time>2025-02-20T09:28:04Z</time>
      </trkpt>
      <trkpt lat="45.63624" lon="6.55078">
        <ele>2273.4</ele>
        <time>2025-02-20T09:28:05Z</time>
      </trkpt>
      <trkpt lat="45.63623" lon="6.55078">
        <ele>2273.4</ele>
        <time>2025-02-20T09:28:06Z</time>
      </trkpt>
      <trkpt lat="45.63623" lon="6.55077">
        <ele>2273.4</ele>
        <time>2025-02-20T09:28:07Z</time>
      </trkpt>
      <trkpt lat="45.63622" lon="6.55077">
        <ele>2272.4</ele>
        <time>2025-02-20T09:28:08Z</time>
      </trkpt>
      <trkpt lat="45.63621" lon="6.55077">
        <ele>2271</ele>
        <time>2025-02-20T09:28:09Z</time>
      </trkpt>
      <trkpt lat="45.6362" lon="6.55076">
        <ele>2271</ele>
        <time>2025-02-20T09:28:10Z</time>
      </trkpt>
      <trkpt lat="45.63619" lon="6.55076">
        <ele>2271</ele>
        <time>2025-02-20T09:28:11Z</time>
      </trkpt>
      <trkpt lat="45.63619" lon="6.55076">
        <ele>2271</ele>
        <time>2025-02-20T09:28:12Z</time>
      </trkpt>
      <trkpt lat="45.63618" lon="6.55076">
        <ele>2272.2</ele>
        <time>2025-02-20T09:28:13Z</time>
      </trkpt>
      <trkpt lat="45.63617" lon="6.55076">
        <ele>2272.2</ele>
        <time>2025-02-20T09:28:14Z</time>
      </trkpt>
      <trkpt lat="45.63616" lon="6.55076">
        <ele>2272.2</ele>
        <time>2025-02-20T09:28:15Z</time>
      </trkpt>
      <trkpt lat="45.63615" lon="6.55076">
        <ele>2272.2</ele>
        <time>2025-02-20T09:28:16Z</time>
      </trkpt>
      <trkpt lat="45.63614" lon="6.55076">
        <ele>2263.6</ele>
        <time>2025-02-20T09:28:17Z</time>
      </trkpt>
      <trkpt lat="45.63613" lon="6.55076">
        <ele>2263.6</ele>
        <time>2025-02-20T09:28:18Z</time>
      </trkpt>
      <trkpt lat="45.63612" lon="6.55076">
        <ele>2263.6</ele>
        <time>2025-02-20T09:28:19Z</time>
      </trkpt>
      <trkpt lat="45.63611" lon="6.55077">
        <ele>2264.6</ele>
        <time>2025-02-20T09:28:20Z</time>
      </trkpt>
      <trkpt lat="45.6361" lon="6.55076">
        <ele>2270</ele>
        <time>2025-02-20T09:28:21Z</time>
      </trkpt>
      <trkpt lat="45.63609" lon="6.55077">
        <ele>2270</ele>
        <time>2025-02-20T09:28:22Z</time>
      </trkpt>
      <trkpt lat="45.63608" lon="6.55077">
        <ele>2270</ele>
        <time>2025-02-20T09:28:23Z</time>
      </trkpt>
      <trkpt lat="45.63608" lon="6.55077">
        <ele>2271</ele>
        <time>2025-02-20T09:28:24Z</time>
      </trkpt>
      <trkpt lat="45.63607" lon="6.55078">
        <ele>2266.2</ele>
        <time>2025-02-20T09:28:25Z</time>
      </trkpt>
      <trkpt lat="45.63606" lon="6.55078">
        <ele>2266.2</ele>
        <time>2025-02-20T09:28:26Z</time>
      </trkpt>
      <trkpt lat="45.63606" lon="6.55078">
        <ele>2266.2</ele>
        <time>2025-02-20T09:28:27Z</time>
      </trkpt>
      <trkpt lat="45.63605" lon="6.55078">
        <ele>2267.2</ele>
        <time>2025-02-20T09:28:28Z</time>
      </trkpt>
      <trkpt lat="45.63604" lon="6.55079">
        <ele>2267.6</ele>
        <time>2025-02-20T09:28:29Z</time>
      </trkpt>
      <trkpt lat="45.63603" lon="6.55079">
        <ele>2267.6</ele>
        <time>2025-02-20T09:28:30Z</time>
      </trkpt>
      <trkpt lat="45.63602" lon="6.55079">
        <ele>2267.6</ele>
        <time>2025-02-20T09:28:31Z</time>
      </trkpt>
      <trkpt lat="45.63602" lon="6.5508">
        <ele>2267.6</ele>
        <time>2025-02-20T09:28:32Z</time>
      </trkpt>
      <trkpt lat="45.63601" lon="6.5508">
        <ele>2268.4</ele>
        <time>2025-02-20T09:28:33Z</time>
      </trkpt>
      <trkpt lat="45.636" lon="6.5508">
        <ele>2268.4</ele>
        <time>2025-02-20T09:28:34Z</time>
      </trkpt>
      <trkpt lat="45.636" lon="6.55079">
        <ele>2268.4</ele>
        <time>2025-02-20T09:28:35Z</time>
      </trkpt>
      <trkpt lat="45.63599" lon="6.55079">
        <ele>2269.4</ele>
        <time>2025-02-20T09:28:36Z</time>
      </trkpt>
      <trkpt lat="45.63598" lon="6.55079">
        <ele>2274</ele>
        <time>2025-02-20T09:28:37Z</time>
      </trkpt>
      <trkpt lat="45.63597" lon="6.55079">
        <ele>2274</ele>
        <time>2025-02-20T09:28:38Z</time>
      </trkpt>
      <trkpt lat="45.63597" lon="6.5508">
        <ele>2274</ele>
        <time>2025-02-20T09:28:39Z</time>
      </trkpt>
      <trkpt lat="45.63596" lon="6.5508">
        <ele>2273</ele>
        <time>2025-02-20T09:28:40Z</time>
      </trkpt>
      <trkpt lat="45.63595" lon="6.55079">
        <ele>2272.6</ele>
        <time>2025-02-20T09:28:41Z</time>
      </trkpt>
      <trkpt lat="45.63595" lon="6.55079">
        <ele>2272.6</ele>
        <time>2025-02-20T09:28:42Z</time>
      </trkpt>
      <trkpt lat="45.63594" lon="6.55079">
        <ele>2272.6</ele>
        <time>2025-02-20T09:28:43Z</time>
      </trkpt>
      <trkpt lat="45.63593" lon="6.55079">
        <ele>2272.6</ele>
        <time>2025-02-20T09:28:44Z</time>
      </trkpt>
      <trkpt lat="45.63593" lon="6.55079">
        <ele>2273.2</ele>
        <time>2025-02-20T09:28:45Z</time>
      </trkpt>
      <trkpt lat="45.63592" lon="6.55079">
        <ele>2273.2</ele>
        <time>2025-02-20T09:28:46Z</time>
      </trkpt>
      <trkpt lat="45.63591" lon="6.55079">
        <ele>2273.2</ele>
        <time>2025-02-20T09:28:47Z</time>
      </trkpt>
      <trkpt lat="45.6359" lon="6.55079">
        <ele>2273.2</ele>
        <time>2025-02-20T09:28:48Z</time>
      </trkpt>
      <trkpt lat="45.6359" lon="6.55078">
        <ele>2269.8</ele>
        <time>2025-02-20T09:28:49Z</time>
      </trkpt>
      <trkpt lat="45.63589" lon="6.55078">
        <ele>2269.8</ele>
        <time>2025-02-20T09:28:50Z</time>
      </trkpt>
      <trkpt lat="45.63589" lon="6.55078">
        <ele>2269.8</ele>
        <time>2025-02-20T09:28:51Z</time>
      </trkpt>
      <trkpt lat="45.63588" lon="6.55078">
        <ele>2269.8</ele>
        <time>2025-02-20T09:28:52Z</time>
      </trkpt>
      <trkpt lat="45.63587" lon="6.55078">
        <ele>2272.8</ele>
        <time>2025-02-20T09:28:53Z</time>
      </trkpt>
      <trkpt lat="45.63587" lon="6.55078">
        <ele>2272.8</ele>
        <time>2025-02-20T09:28:54Z</time>
      </trkpt>
      <trkpt lat="45.63586" lon="6.55077">
        <ele>2272.8</ele>
        <time>2025-02-20T09:28:55Z</time>
      </trkpt>
      <trkpt lat="45.63586" lon="6.55077">
        <ele>2272.8</ele>
        <time>2025-02-20T09:28:56Z</time>
      </trkpt>
      <trkpt lat="45.63585" lon="6.55076">
        <ele>2269.4</ele>
        <time>2025-02-20T09:28:57Z</time>
      </trkpt>
      <trkpt lat="45.63584" lon="6.55076">
        <ele>2269.4</ele>
        <time>2025-02-20T09:28:58Z</time>
      </trkpt>
      <trkpt lat="45.63584" lon="6.55075">
        <ele>2269.4</ele>
        <time>2025-02-20T09:28:59Z</time>
      </trkpt>
      <trkpt lat="45.63583" lon="6.55075">
        <ele>2270.4</ele>
        <time>2025-02-20T09:29:00Z</time>
      </trkpt>
      <trkpt lat="45.63583" lon="6.55074">
        <ele>2271.2</ele>
        <time>2025-02-20T09:29:01Z</time>
      </trkpt>
      <trkpt lat="45.63582" lon="6.55074">
        <ele>2271.2</ele>
        <time>2025-02-20T09:29:02Z</time>
      </trkpt>
      <trkpt lat="45.63582" lon="6.55073">
        <ele>2271.2</ele>
        <time>2025-02-20T09:29:03Z</time>
      </trkpt>
      <trkpt lat="45.63581" lon="6.55073">
        <ele>2271.2</ele>
        <time>2025-02-20T09:29:04Z</time>
      </trkpt>
      <trkpt lat="45.63581" lon="6.55072">
        <ele>2273.8</ele>
        <time>2025-02-20T09:29:05Z</time>
      </trkpt>
      <trkpt lat="45.6358" lon="6.55072">
        <ele>2273.8</ele>
        <time>2025-02-20T09:29:06Z</time>
      </trkpt>
      <trkpt lat="45.6358" lon="6.55071">
        <ele>2273.8</ele>
        <time>2025-02-20T09:29:07Z</time>
      </trkpt>
      <trkpt lat="45.63579" lon="6.55071">
        <ele>2273.8</ele>
        <time>2025-02-20T09:29:08Z</time>
      </trkpt>
      <trkpt lat="45.63579" lon="6.55071">
        <ele>2274.8</ele>
        <time>2025-02-20T09:29:09Z</time>
      </trkpt>
      <trkpt lat="45.63578" lon="6.55071">
        <ele>2274.8</ele>
        <time>2025-02-20T09:29:10Z</time>
      </trkpt>
      <trkpt lat="45.63578" lon="6.5507">
        <ele>2274.8</ele>
        <time>2025-02-20T09:29:11Z</time>
      </trkpt>
      <trkpt lat="45.63577" lon="6.5507">
        <ele>2274.8</ele>
        <time>2025-02-20T09:29:12Z</time>
      </trkpt>
      <trkpt lat="45.63577" lon="6.5507">
        <ele>2277.2</ele>
        <time>2025-02-20T09:29:13Z</time>
      </trkpt>
      <trkpt lat="45.63577" lon="6.55069">
        <ele>2277.2</ele>
        <time>2025-02-20T09:29:14Z</time>
      </trkpt>
      <trkpt lat="45.63576" lon="6.55069">
        <ele>2277.2</ele>
        <time>2025-02-20T09:29:15Z</time>
      </trkpt>
      <trkpt lat="45.63576" lon="6.55068">
        <ele>2277.2</ele>
        <time>2025-02-20T09:29:16Z</time>
      </trkpt>
      <trkpt lat="45.63576" lon="6.55068">
        <ele>2279.2</ele>
        <time>2025-02-20T09:29:17Z</time>
      </trkpt>
      <trkpt lat="45.63576" lon="6.55068">
        <ele>2279.2</ele>
        <time>2025-02-20T09:29:18Z</time>
      </trkpt>
      <trkpt lat="45.63576" lon="6.55068">
        <ele>2279.2</ele>
        <time>2025-02-20T09:29:19Z</time>
      </trkpt>
      <trkpt lat="45.63576" lon="6.55068">
        <ele>2278.2</ele>
        <time>2025-02-20T09:29:20Z</time>
      </trkpt>
      <trkpt lat="45.63574" lon="6.55066">
        <ele>2274.6</ele>
        <time>2025-02-20T09:29:21Z</time>
      </trkpt>
      <trkpt lat="45.63574" lon="6.55065">
        <ele>2274.6</ele>
        <time>2025-02-20T09:29:22Z</time>
      </trkpt>
      <trkpt lat="45.63573" lon="6.55065">
        <ele>2274.6</ele>
        <time>2025-02-20T09:29:23Z</time>
      </trkpt>
      <trkpt lat="45.63573" lon="6.55065">
        <ele>2275.6</ele>
        <time>2025-02-20T09:29:24Z</time>
      </trkpt>
      <trkpt lat="45.63572" lon="6.55065">
        <ele>2279.4</ele>
        <time>2025-02-20T09:29:25Z</time>
      </trkpt>
      <trkpt lat="45.63571" lon="6.55064">
        <ele>2279.4</ele>
        <time>2025-02-20T09:29:26Z</time>
      </trkpt>
      <trkpt lat="45.63571" lon="6.55064">
        <ele>2279.4</ele>
        <time>2025-02-20T09:29:27Z</time>
      </trkpt>
      <trkpt lat="45.63571" lon="6.55063">
        <ele>2278.4</ele>
        <time>2025-02-20T09:29:28Z</time>
      </trkpt>
      <trkpt lat="45.6357" lon="6.55063">
        <ele>2275.4</ele>
        <time>2025-02-20T09:29:29Z</time>
      </trkpt>
      <trkpt lat="45.63569" lon="6.55063">
        <ele>2275.4</ele>
        <time>2025-02-20T09:29:30Z</time>
      </trkpt>
      <trkpt lat="45.63569" lon="6.55062">
        <ele>2275.4</ele>
        <time>2025-02-20T09:29:31Z</time>
      </trkpt>
      <trkpt lat="45.63568" lon="6.55062">
        <ele>2274.4</ele>
        <time>2025-02-20T09:29:32Z</time>
      </trkpt>
      <trkpt lat="45.63568" lon="6.55061">
        <ele>2273.4</ele>
        <time>2025-02-20T09:29:33Z</time>
      </trkpt>
      <trkpt lat="45.63568" lon="6.55061">
        <ele>2273.4</ele>
        <time>2025-02-20T09:29:34Z</time>
      </trkpt>
      <trkpt lat="45.63567" lon="6.55061">
        <ele>2273.4</ele>
        <time>2025-02-20T09:29:35Z</time>
      </trkpt>
      <trkpt lat="45.63567" lon="6.55061">
        <ele>2273.4</ele>
        <time>2025-02-20T09:29:36Z</time>
      </trkpt>
      <trkpt lat="45.63566" lon="6.5506">
        <ele>2273.8</ele>
        <time>2025-02-20T09:29:37Z</time>
      </trkpt>
      <trkpt lat="45.63566" lon="6.55059">
        <ele>2273.8</ele>
        <time>2025-02-20T09:29:38Z</time>
      </trkpt>
      <trkpt lat="45.63566" lon="6.55059">
        <ele>2273.8</ele>
        <time>2025-02-20T09:29:39Z</time>
      </trkpt>
      <trkpt lat="45.63566" lon="6.55059">
        <ele>2273.8</ele>
        <time>2025-02-20T09:29:40Z</time>
      </trkpt>
      <trkpt lat="45.63564" lon="6.55058">
        <ele>2278.2</ele>
        <time>2025-02-20T09:29:41Z</time>
      </trkpt>
      <trkpt lat="45.63564" lon="6.55058">
        <ele>2278.2</ele>
        <time>2025-02-20T09:29:42Z</time>
      </trkpt>
      <trkpt lat="45.63563" lon="6.55057">
        <ele>2278.2</ele>
        <time>2025-02-20T09:29:43Z</time>
      </trkpt>
      <trkpt lat="45.63563" lon="6.55057">
        <ele>2278.6</ele>
        <time>2025-02-20T09:29:44Z</time>
      </trkpt>
      <trkpt lat="45.63563" lon="6.55056">
        <ele>2272.8</ele>
        <time>2025-02-20T09:29:45Z</time>
      </trkpt>
      <trkpt lat="45.63562" lon="6.55056">
        <ele>2272.8</ele>
        <time>2025-02-20T09:29:46Z</time>
      </trkpt>
      <trkpt lat="45.63561" lon="6.55056">
        <ele>2272.8</ele>
        <time>2025-02-20T09:29:47Z</time>
      </trkpt>
      <trkpt lat="45.63561" lon="6.55055">
        <ele>2273.8</ele>
        <time>2025-02-20T09:29:48Z</time>
      </trkpt>
      <trkpt lat="45.63561" lon="6.55055">
        <ele>2280.6</ele>
        <time>2025-02-20T09:29:49Z</time>
      </trkpt>
      <trkpt lat="45.6356" lon="6.55054">
        <ele>2280.6</ele>
        <time>2025-02-20T09:29:50Z</time>
      </trkpt>
      <trkpt lat="45.6356" lon="6.55054">
        <ele>2280.6</ele>
        <time>2025-02-20T09:29:51Z</time>
      </trkpt>
      <trkpt lat="45.63559" lon="6.55053">
        <ele>2279.6</ele>
        <time>2025-02-20T09:29:52Z</time>
      </trkpt>
      <trkpt lat="45.63559" lon="6.55053">
        <ele>2277.2</ele>
        <time>2025-02-20T09:29:53Z</time>
      </trkpt>
      <trkpt lat="45.63558" lon="6.55053">
        <ele>2277.2</ele>
        <time>2025-02-20T09:29:54Z</time>
      </trkpt>
      <trkpt lat="45.63558" lon="6.55052">
        <ele>2277.2</ele>
        <time>2025-02-20T09:29:55Z</time>
      </trkpt>
      <trkpt lat="45.63557" lon="6.55052">
        <ele>2277.2</ele>
        <time>2025-02-20T09:29:56Z</time>
      </trkpt>
      <trkpt lat="45.63557" lon="6.55051">
        <ele>2279.6</ele>
        <time>2025-02-20T09:29:57Z</time>
      </trkpt>
      <trkpt lat="45.63556" lon="6.55051">
        <ele>2279.6</ele>
        <time>2025-02-20T09:29:58Z</time>
      </trkpt>
      <trkpt lat="45.63556" lon="6.55051">
        <ele>2279.6</ele>
        <time>2025-02-20T09:29:59Z</time>
      </trkpt>
      <trkpt lat="45.63555" lon="6.5505">
        <ele>2278.6</ele>
        <time>2025-02-20T09:30:00Z</time>
      </trkpt>
      <trkpt lat="45.63555" lon="6.5505">
        <ele>2280.4</ele>
        <time>2025-02-20T09:30:01Z</time>
      </trkpt>
      <trkpt lat="45.63554" lon="6.55049">
        <ele>2280.4</ele>
        <time>2025-02-20T09:30:02Z</time>
      </trkpt>
      <trkpt lat="45.63554" lon="6.55049">
        <ele>2280.4</ele>
        <time>2025-02-20T09:30:03Z</time>
      </trkpt>
      <trkpt lat="45.63553" lon="6.55048">
        <ele>2279.4</ele>
        <time>2025-02-20T09:30:04Z</time>
      </trkpt>
      <trkpt lat="45.63553" lon="6.55048">
        <ele>2280</ele>
        <time>2025-02-20T09:30:05Z</time>
      </trkpt>
      <trkpt lat="45.63552" lon="6.55048">
        <ele>2280</ele>
        <time>2025-02-20T09:30:06Z</time>
      </trkpt>
      <trkpt lat="45.63552" lon="6.55047">
        <ele>2280</ele>
        <time>2025-02-20T09:30:07Z</time>
      </trkpt>
      <trkpt lat="45.63552" lon="6.55047">
        <ele>2280</ele>
        <time>2025-02-20T09:30:08Z</time>
      </trkpt>
      <trkpt lat="45.63551" lon="6.55047">
        <ele>2281</ele>
        <time>2025-02-20T09:30:09Z</time>
      </trkpt>
      <trkpt lat="45.63551" lon="6.55046">
        <ele>2281</ele>
        <time>2025-02-20T09:30:10Z</time>
      </trkpt>
      <trkpt lat="45.6355" lon="6.55046">
        <ele>2281</ele>
        <time>2025-02-20T09:30:11Z</time>
      </trkpt>
      <trkpt lat="45.6355" lon="6.55046">
        <ele>2281</ele>
        <time>2025-02-20T09:30:12Z</time>
      </trkpt>
      <trkpt lat="45.63549" lon="6.55045">
        <ele>2282.4</ele>
        <time>2025-02-20T09:30:13Z</time>
      </trkpt>
      <trkpt lat="45.63549" lon="6.55045">
        <ele>2282.4</ele>
        <time>2025-02-20T09:30:14Z</time>
      </trkpt>
      <trkpt lat="45.63548" lon="6.55044">
        <ele>2282.4</ele>
        <time>2025-02-20T09:30:15Z</time>
      </trkpt>
      <trkpt lat="45.63548" lon="6.55044">
        <ele>2282.4</ele>
        <time>2025-02-20T09:30:16Z</time>
      </trkpt>
      <trkpt lat="45.63547" lon="6.55044">
        <ele>2283.4</ele>
        <time>2025-02-20T09:30:17Z</time>
      </trkpt>
      <trkpt lat="45.63547" lon="6.55043">
        <ele>2283.4</ele>
        <time>2025-02-20T09:30:18Z</time>
      </trkpt>
      <trkpt lat="45.63546" lon="6.55043">
        <ele>2283.4</ele>
        <time>2025-02-20T09:30:19Z</time>
      </trkpt>
      <trkpt lat="45.63546" lon="6.55042">
        <ele>2282.4</ele>
        <time>2025-02-20T09:30:20Z</time>
      </trkpt>
      <trkpt lat="45.63546" lon="6.55042">
        <ele>2280.8</ele>
        <time>2025-02-20T09:30:21Z</time>
      </trkpt>
      <trkpt lat="45.63545" lon="6.55041">
        <ele>2280.8</ele>
        <time>2025-02-20T09:30:22Z</time>
      </trkpt>
      <trkpt lat="45.63545" lon="6.55041">
        <ele>2280.8</ele>
        <time>2025-02-20T09:30:23Z</time>
      </trkpt>
      <trkpt lat="45.63544" lon="6.55041">
        <ele>2280.8</ele>
        <time>2025-02-20T09:30:24Z</time>
      </trkpt>
      <trkpt lat="45.63544" lon="6.5504">
        <ele>2278.8</ele>
        <time>2025-02-20T09:30:25Z</time>
      </trkpt>
      <trkpt lat="45.63543" lon="6.55039">
        <ele>2278.8</ele>
        <time>2025-02-20T09:30:26Z</time>
      </trkpt>
      <trkpt lat="45.63543" lon="6.55039">
        <ele>2278.8</ele>
        <time>2025-02-20T09:30:27Z</time>
      </trkpt>
      <trkpt lat="45.63543" lon="6.55039">
        <ele>2278.8</ele>
        <time>2025-02-20T09:30:28Z</time>
      </trkpt>
      <trkpt lat="45.63543" lon="6.55038">
        <ele>2280.6</ele>
        <time>2025-02-20T09:30:29Z</time>
      </trkpt>
      <trkpt lat="45.63542" lon="6.55038">
        <ele>2280.6</ele>
        <time>2025-02-20T09:30:30Z</time>
      </trkpt>
      <trkpt lat="45.63542" lon="6.55038">
        <ele>2280.6</ele>
        <time>2025-02-20T09:30:31Z</time>
      </trkpt>
      <trkpt lat="45.63541" lon="6.55037">
        <ele>2280.6</ele>
        <time>2025-02-20T09:30:32Z</time>
      </trkpt>
      <trkpt lat="45.63541" lon="6.55037">
        <ele>2281.6</ele>
        <time>2025-02-20T09:30:33Z</time>
      </trkpt>
      <trkpt lat="45.6354" lon="6.55037">
        <ele>2281.6</ele>
        <time>2025-02-20T09:30:34Z</time>
      </trkpt>
      <trkpt lat="45.6354" lon="6.55037">
        <ele>2281.6</ele>
        <time>2025-02-20T09:30:35Z</time>
      </trkpt>
      <trkpt lat="45.6354" lon="6.55036">
        <ele>2281.6</ele>
        <time>2025-02-20T09:30:36Z</time>
      </trkpt>
      <trkpt lat="45.6354" lon="6.55036">
        <ele>2284.2</ele>
        <time>2025-02-20T09:30:37Z</time>
      </trkpt>
      <trkpt lat="45.63539" lon="6.55035">
        <ele>2284.2</ele>
        <time>2025-02-20T09:30:38Z</time>
      </trkpt>
      <trkpt lat="45.63538" lon="6.55035">
        <ele>2284.2</ele>
        <time>2025-02-20T09:30:39Z</time>
      </trkpt>
      <trkpt lat="45.63538" lon="6.55035">
        <ele>2284.2</ele>
        <time>2025-02-20T09:30:40Z</time>
      </trkpt>
      <trkpt lat="45.63537" lon="6.55035">
        <ele>2285.8</ele>
        <time>2025-02-20T09:30:41Z</time>
      </trkpt>
      <trkpt lat="45.63537" lon="6.55034">
        <ele>2285.8</ele>
        <time>2025-02-20T09:30:42Z</time>
      </trkpt>
      <trkpt lat="45.63537" lon="6.55034">
        <ele>2285.8</ele>
        <time>2025-02-20T09:30:43Z</time>
      </trkpt>
      <trkpt lat="45.63536" lon="6.55034">
        <ele>2284.8</ele>
        <time>2025-02-20T09:30:44Z</time>
      </trkpt>
      <trkpt lat="45.63536" lon="6.55034">
        <ele>2286</ele>
        <time>2025-02-20T09:30:45Z</time>
      </trkpt>
      <trkpt lat="45.63535" lon="6.55033">
        <ele>2286</ele>
        <time>2025-02-20T09:30:46Z</time>
      </trkpt>
      <trkpt lat="45.63535" lon="6.55033">
        <ele>2286</ele>
        <time>2025-02-20T09:30:47Z</time>
      </trkpt>
      <trkpt lat="45.63535" lon="6.55032">
        <ele>2285</ele>
        <time>2025-02-20T09:30:48Z</time>
      </trkpt>
      <trkpt lat="45.63534" lon="6.55032">
        <ele>2287.6</ele>
        <time>2025-02-20T09:30:49Z</time>
      </trkpt>
      <trkpt lat="45.63534" lon="6.55032">
        <ele>2287.6</ele>
        <time>2025-02-20T09:30:50Z</time>
      </trkpt>
      <trkpt lat="45.63533" lon="6.55032">
        <ele>2287.6</ele>
        <time>2025-02-20T09:30:51Z</time>
      </trkpt>
      <trkpt lat="45.63533" lon="6.55032">
        <ele>2286.6</ele>
        <time>2025-02-20T09:30:52Z</time>
      </trkpt>
      <trkpt lat="45.63532" lon="6.55032">
        <ele>2287.4</ele>
        <time>2025-02-20T09:30:53Z</time>
      </trkpt>
      <trkpt lat="45.63532" lon="6.55031">
        <ele>2287.4</ele>
        <time>2025-02-20T09:30:54Z</time>
      </trkpt>
      <trkpt lat="45.63531" lon="6.55031">
        <ele>2287.4</ele>
        <time>2025-02-20T09:30:55Z</time>
      </trkpt>
      <trkpt lat="45.63531" lon="6.55031">
        <ele>2287.4</ele>
        <time>2025-02-20T09:30:56Z</time>
      </trkpt>
      <trkpt lat="45.63531" lon="6.55031">
        <ele>2286</ele>
        <time>2025-02-20T09:30:57Z</time>
      </trkpt>
      <trkpt lat="45.63529" lon="6.55031">
        <ele>2286</ele>
        <time>2025-02-20T09:30:58Z</time>
      </trkpt>
      <trkpt lat="45.63529" lon="6.5503">
        <ele>2286</ele>
        <time>2025-02-20T09:30:59Z</time>
      </trkpt>
      <trkpt lat="45.63528" lon="6.5503">
        <ele>2285.4</ele>
        <time>2025-02-20T09:31:00Z</time>
      </trkpt>
      <trkpt lat="45.63528" lon="6.5503">
        <ele>2281.4</ele>
        <time>2025-02-20T09:31:01Z</time>
      </trkpt>
      <trkpt lat="45.63527" lon="6.5503">
        <ele>2281.4</ele>
        <time>2025-02-20T09:31:02Z</time>
      </trkpt>
      <trkpt lat="45.63527" lon="6.5503">
        <ele>2281.4</ele>
        <time>2025-02-20T09:31:03Z</time>
      </trkpt>
      <trkpt lat="45.63526" lon="6.55029">
        <ele>2281.4</ele>
        <time>2025-02-20T09:31:04Z</time>
      </trkpt>
      <trkpt lat="45.63526" lon="6.55029">
        <ele>2280</ele>
        <time>2025-02-20T09:31:05Z</time>
      </trkpt>
      <trkpt lat="45.63526" lon="6.55029">
        <ele>2280</ele>
        <time>2025-02-20T09:31:06Z</time>
      </trkpt>
      <trkpt lat="45.63525" lon="6.55028">
        <ele>2280</ele>
        <time>2025-02-20T09:31:07Z</time>
      </trkpt>
      <trkpt lat="45.63525" lon="6.55028">
        <ele>2281</ele>
        <time>2025-02-20T09:31:08Z</time>
      </trkpt>
      <trkpt lat="45.63524" lon="6.55028">
        <ele>2280.2</ele>
        <time>2025-02-20T09:31:09Z</time>
      </trkpt>
      <trkpt lat="45.63524" lon="6.55028">
        <ele>2280.2</ele>
        <time>2025-02-20T09:31:10Z</time>
      </trkpt>
      <trkpt lat="45.63523" lon="6.55027">
        <ele>2280.2</ele>
        <time>2025-02-20T09:31:11Z</time>
      </trkpt>
      <trkpt lat="45.63523" lon="6.55026">
        <ele>2281.2</ele>
        <time>2025-02-20T09:31:12Z</time>
      </trkpt>
      <trkpt lat="45.63522" lon="6.55026">
        <ele>2284.4</ele>
        <time>2025-02-20T09:31:13Z</time>
      </trkpt>
      <trkpt lat="45.63522" lon="6.55025">
        <ele>2284.4</ele>
        <time>2025-02-20T09:31:14Z</time>
      </trkpt>
      <trkpt lat="45.63522" lon="6.55025">
        <ele>2284.4</ele>
        <time>2025-02-20T09:31:15Z</time>
      </trkpt>
      <trkpt lat="45.63521" lon="6.55025">
        <ele>2285.4</ele>
        <time>2025-02-20T09:31:16Z</time>
      </trkpt>
      <trkpt lat="45.63521" lon="6.55025">
        <ele>2287.4</ele>
        <time>2025-02-20T09:31:17Z</time>
      </trkpt>
      <trkpt lat="45.63521" lon="6.55025">
        <ele>2287.4</ele>
        <time>2025-02-20T09:31:18Z</time>
      </trkpt>
      <trkpt lat="45.63521" lon="6.55025">
        <ele>2287.4</ele>
        <time>2025-02-20T09:31:19Z</time>
      </trkpt>
      <trkpt lat="45.63521" lon="6.55025">
        <ele>2287.4</ele>
        <time>2025-02-20T09:31:20Z</time>
      </trkpt>
      <trkpt lat="45.63521" lon="6.55025">
        <ele>2284.4</ele>
        <time>2025-02-20T09:31:21Z</time>
      </trkpt>
      <trkpt lat="45.63519" lon="6.55024">
        <ele>2284.4</ele>
        <time>2025-02-20T09:31:22Z</time>
      </trkpt>
      <trkpt lat="45.63518" lon="6.55024">
        <ele>2284.4</ele>
        <time>2025-02-20T09:31:23Z</time>
      </trkpt>
      <trkpt lat="45.63518" lon="6.55024">
        <ele>2283.4</ele>
        <time>2025-02-20T09:31:24Z</time>
      </trkpt>
      <trkpt lat="45.63517" lon="6.55024">
        <ele>2286.8</ele>
        <time>2025-02-20T09:31:25Z</time>
      </trkpt>
      <trkpt lat="45.63516" lon="6.55023">
        <ele>2286.8</ele>
        <time>2025-02-20T09:31:26Z</time>
      </trkpt>
      <trkpt lat="45.63516" lon="6.55023">
        <ele>2286.8</ele>
        <time>2025-02-20T09:31:27Z</time>
      </trkpt>
      <trkpt lat="45.63515" lon="6.55023">
        <ele>2286.8</ele>
        <time>2025-02-20T09:31:28Z</time>
      </trkpt>
      <trkpt lat="45.63515" lon="6.55023">
        <ele>2285.4</ele>
        <time>2025-02-20T09:31:29Z</time>
      </trkpt>
      <trkpt lat="45.63514" lon="6.55023">
        <ele>2285.4</ele>
        <time>2025-02-20T09:31:30Z</time>
      </trkpt>
      <trkpt lat="45.63514" lon="6.55023">
        <ele>2285.4</ele>
        <time>2025-02-20T09:31:31Z</time>
      </trkpt>
      <trkpt lat="45.63513" lon="6.55022">
        <ele>2285.4</ele>
        <time>2025-02-20T09:31:32Z</time>
      </trkpt>
      <trkpt lat="45.63513" lon="6.55022">
        <ele>2287.4</ele>
        <time>2025-02-20T09:31:33Z</time>
      </trkpt>
      <trkpt lat="45.63512" lon="6.55022">
        <ele>2287.4</ele>
        <time>2025-02-20T09:31:34Z</time>
      </trkpt>
      <trkpt lat="45.63512" lon="6.55021">
        <ele>2287.4</ele>
        <time>2025-02-20T09:31:35Z</time>
      </trkpt>
      <trkpt lat="45.63511" lon="6.55021">
        <ele>2287.4</ele>
        <time>2025-02-20T09:31:36Z</time>
      </trkpt>
      <trkpt lat="45.63511" lon="6.55021">
        <ele>2288.6</ele>
        <time>2025-02-20T09:31:37Z</time>
      </trkpt>
      <trkpt lat="45.6351" lon="6.55021">
        <ele>2288.6</ele>
        <time>2025-02-20T09:31:38Z</time>
      </trkpt>
      <trkpt lat="45.6351" lon="6.55021">
        <ele>2288.6</ele>
        <time>2025-02-20T09:31:39Z</time>
      </trkpt>
      <trkpt lat="45.63509" lon="6.55021">
        <ele>2289.6</ele>
        <time>2025-02-20T09:31:40Z</time>
      </trkpt>
      <trkpt lat="45.63509" lon="6.55021">
        <ele>2291.4</ele>
        <time>2025-02-20T09:31:41Z</time>
      </trkpt>
      <trkpt lat="45.63509" lon="6.55021">
        <ele>2291.4</ele>
        <time>2025-02-20T09:31:42Z</time>
      </trkpt>
      <trkpt lat="45.63509" lon="6.55021">
        <ele>2291.4</ele>
        <time>2025-02-20T09:31:43Z</time>
      </trkpt>
      <trkpt lat="45.63509" lon="6.55021">
        <ele>2291.4</ele>
        <time>2025-02-20T09:31:44Z</time>
      </trkpt>
      <trkpt lat="45.63509" lon="6.55021">
        <ele>2294</ele>
        <time>2025-02-20T09:31:45Z</time>
      </trkpt>
      <trkpt lat="45.63506" lon="6.55021">
        <ele>2294</ele>
        <time>2025-02-20T09:31:46Z</time>
      </trkpt>
      <trkpt lat="45.63506" lon="6.55021">
        <ele>2294</ele>
        <time>2025-02-20T09:31:47Z</time>
      </trkpt>
      <trkpt lat="45.63506" lon="6.55021">
        <ele>2293</ele>
        <time>2025-02-20T09:31:48Z</time>
      </trkpt>
      <trkpt lat="45.63506" lon="6.55021">
        <ele>2292.8</ele>
        <time>2025-02-20T09:31:49Z</time>
      </trkpt>
      <trkpt lat="45.63506" lon="6.55021">
        <ele>2292.8</ele>
        <time>2025-02-20T09:31:50Z</time>
      </trkpt>
      <trkpt lat="45.63506" lon="6.55021">
        <ele>2292.8</ele>
        <time>2025-02-20T09:31:51Z</time>
      </trkpt>
      <trkpt lat="45.63506" lon="6.55021">
        <ele>2291.8</ele>
        <time>2025-02-20T09:31:52Z</time>
      </trkpt>
      <trkpt lat="45.63503" lon="6.55019">
        <ele>2289.6</ele>
        <time>2025-02-20T09:31:53Z</time>
      </trkpt>
      <trkpt lat="45.63503" lon="6.55019">
        <ele>2289.6</ele>
        <time>2025-02-20T09:31:54Z</time>
      </trkpt>
      <trkpt lat="45.63502" lon="6.55019">
        <ele>2289.6</ele>
        <time>2025-02-20T09:31:55Z</time>
      </trkpt>
      <trkpt lat="45.63502" lon="6.55019">
        <ele>2289.6</ele>
        <time>2025-02-20T09:31:56Z</time>
      </trkpt>
      <trkpt lat="45.63502" lon="6.55019">
        <ele>2285.4</ele>
        <time>2025-02-20T09:31:57Z</time>
      </trkpt>
      <trkpt lat="45.63502" lon="6.55019">
        <ele>2285.4</ele>
        <time>2025-02-20T09:31:58Z</time>
      </trkpt>
      <trkpt lat="45.63501" lon="6.55017">
        <ele>2285.4</ele>
        <time>2025-02-20T09:31:59Z</time>
      </trkpt>
      <trkpt lat="45.635" lon="6.55016">
        <ele>2286.4</ele>
        <time>2025-02-20T09:32:00Z</time>
      </trkpt>
      <trkpt lat="45.635" lon="6.55015">
        <ele>2292.8</ele>
        <time>2025-02-20T09:32:01Z</time>
      </trkpt>
      <trkpt lat="45.635" lon="6.55014">
        <ele>2292.8</ele>
        <time>2025-02-20T09:32:02Z</time>
      </trkpt>
      <trkpt lat="45.635" lon="6.55013">
        <ele>2292.8</ele>
        <time>2025-02-20T09:32:03Z</time>
      </trkpt>
      <trkpt lat="45.635" lon="6.55012">
        <ele>2292.8</ele>
        <time>2025-02-20T09:32:04Z</time>
      </trkpt>
      <trkpt lat="45.635" lon="6.55011">
        <ele>2293.6</ele>
        <time>2025-02-20T09:32:05Z</time>
      </trkpt>
      <trkpt lat="45.635" lon="6.5501">
        <ele>2293.6</ele>
        <time>2025-02-20T09:32:06Z</time>
      </trkpt>
      <trkpt lat="45.635" lon="6.55009">
        <ele>2293.6</ele>
        <time>2025-02-20T09:32:07Z</time>
      </trkpt>
      <trkpt lat="45.635" lon="6.55008">
        <ele>2293.6</ele>
        <time>2025-02-20T09:32:08Z</time>
      </trkpt>
      <trkpt lat="45.63501" lon="6.55007">
        <ele>2293.4</ele>
        <time>2025-02-20T09:32:09Z</time>
      </trkpt>
      <trkpt lat="45.635" lon="6.55007">
        <ele>2293.4</ele>
        <time>2025-02-20T09:32:10Z</time>
      </trkpt>
      <trkpt lat="45.63501" lon="6.55006">
        <ele>2293.4</ele>
        <time>2025-02-20T09:32:11Z</time>
      </trkpt>
      <trkpt lat="45.63501" lon="6.55005">
        <ele>2293.6</ele>
        <time>2025-02-20T09:32:12Z</time>
      </trkpt>
      <trkpt lat="45.63501" lon="6.55005">
        <ele>2293.8</ele>
        <time>2025-02-20T09:32:13Z</time>
      </trkpt>
      <trkpt lat="45.63502" lon="6.55003">
        <ele>2293.8</ele>
        <time>2025-02-20T09:32:14Z</time>
      </trkpt>
      <trkpt lat="45.63502" lon="6.55003">
        <ele>2293.8</ele>
        <time>2025-02-20T09:32:15Z</time>
      </trkpt>
      <trkpt lat="45.63502" lon="6.55002">
        <ele>2293.8</ele>
        <time>2025-02-20T09:32:16Z</time>
      </trkpt>
      <trkpt lat="45.63502" lon="6.55001">
        <ele>2294.6</ele>
        <time>2025-02-20T09:32:17Z</time>
      </trkpt>
      <trkpt lat="45.63503" lon="6.55">
        <ele>2294.6</ele>
        <time>2025-02-20T09:32:18Z</time>
      </trkpt>
      <trkpt lat="45.63503" lon="6.54999">
        <ele>2294.6</ele>
        <time>2025-02-20T09:32:19Z</time>
      </trkpt>
      <trkpt lat="45.63503" lon="6.54999">
        <ele>2294.6</ele>
        <time>2025-02-20T09:32:20Z</time>
      </trkpt>
      <trkpt lat="45.63504" lon="6.54998">
        <ele>2295</ele>
        <time>2025-02-20T09:32:21Z</time>
      </trkpt>
      <trkpt lat="45.63504" lon="6.54998">
        <ele>2295</ele>
        <time>2025-02-20T09:32:22Z</time>
      </trkpt>
      <trkpt lat="45.63504" lon="6.54997">
        <ele>2295</ele>
        <time>2025-02-20T09:32:23Z</time>
      </trkpt>
      <trkpt lat="45.63504" lon="6.54996">
        <ele>2296</ele>
        <time>2025-02-20T09:32:24Z</time>
      </trkpt>
      <trkpt lat="45.63505" lon="6.54995">
        <ele>2295.4</ele>
        <time>2025-02-20T09:32:25Z</time>
      </trkpt>
      <trkpt lat="45.63505" lon="6.54995">
        <ele>2295.4</ele>
        <time>2025-02-20T09:32:26Z</time>
      </trkpt>
      <trkpt lat="45.63506" lon="6.54994">
        <ele>2295.4</ele>
        <time>2025-02-20T09:32:27Z</time>
      </trkpt>
      <trkpt lat="45.63506" lon="6.54993">
        <ele>2296.4</ele>
        <time>2025-02-20T09:32:28Z</time>
      </trkpt>
      <trkpt lat="45.63506" lon="6.54993">
        <ele>2296</ele>
        <time>2025-02-20T09:32:29Z</time>
      </trkpt>
      <trkpt lat="45.63506" lon="6.54992">
        <ele>2296</ele>
        <time>2025-02-20T09:32:30Z</time>
      </trkpt>
      <trkpt lat="45.63507" lon="6.54992">
        <ele>2296</ele>
        <time>2025-02-20T09:32:31Z</time>
      </trkpt>
      <trkpt lat="45.63507" lon="6.54991">
        <ele>2296</ele>
        <time>2025-02-20T09:32:32Z</time>
      </trkpt>
      <trkpt lat="45.63508" lon="6.5499">
        <ele>2296.4</ele>
        <time>2025-02-20T09:32:33Z</time>
      </trkpt>
      <trkpt lat="45.63508" lon="6.54989">
        <ele>2296.4</ele>
        <time>2025-02-20T09:32:34Z</time>
      </trkpt>
      <trkpt lat="45.63508" lon="6.54989">
        <ele>2296.4</ele>
        <time>2025-02-20T09:32:35Z</time>
      </trkpt>
      <trkpt lat="45.63508" lon="6.54988">
        <ele>2296.4</ele>
        <time>2025-02-20T09:32:36Z</time>
      </trkpt>
      <trkpt lat="45.63509" lon="6.54987">
        <ele>2297</ele>
        <time>2025-02-20T09:32:37Z</time>
      </trkpt>
      <trkpt lat="45.63509" lon="6.54987">
        <ele>2297</ele>
        <time>2025-02-20T09:32:38Z</time>
      </trkpt>
      <trkpt lat="45.63508" lon="6.54986">
        <ele>2297</ele>
        <time>2025-02-20T09:32:39Z</time>
      </trkpt>
      <trkpt lat="45.63508" lon="6.54986">
        <ele>2298</ele>
        <time>2025-02-20T09:32:40Z</time>
      </trkpt>
      <trkpt lat="45.63508" lon="6.54985">
        <ele>2298.2</ele>
        <time>2025-02-20T09:32:41Z</time>
      </trkpt>
      <trkpt lat="45.63507" lon="6.54985">
        <ele>2298.2</ele>
        <time>2025-02-20T09:32:42Z</time>
      </trkpt>
      <trkpt lat="45.63507" lon="6.54984">
        <ele>2298.2</ele>
        <time>2025-02-20T09:32:43Z</time>
      </trkpt>
      <trkpt lat="45.63507" lon="6.54984">
        <ele>2298.2</ele>
        <time>2025-02-20T09:32:44Z</time>
      </trkpt>
      <trkpt lat="45.63506" lon="6.54984">
        <ele>2298.4</ele>
        <time>2025-02-20T09:32:45Z</time>
      </trkpt>
      <trkpt lat="45.63506" lon="6.54984">
        <ele>2298.4</ele>
        <time>2025-02-20T09:32:46Z</time>
      </trkpt>
      <trkpt lat="45.63505" lon="6.54984">
        <ele>2298.4</ele>
        <time>2025-02-20T09:32:47Z</time>
      </trkpt>
      <trkpt lat="45.63505" lon="6.54984">
        <ele>2298.4</ele>
        <time>2025-02-20T09:32:48Z</time>
      </trkpt>
      <trkpt lat="45.63504" lon="6.54984">
        <ele>2298.4</ele>
        <time>2025-02-20T09:32:49Z</time>
      </trkpt>
      <trkpt lat="45.63504" lon="6.54983">
        <ele>2298.4</ele>
        <time>2025-02-20T09:32:50Z</time>
      </trkpt>
      <trkpt lat="45.63503" lon="6.54983">
        <ele>2298.4</ele>
        <time>2025-02-20T09:32:51Z</time>
      </trkpt>
      <trkpt lat="45.63503" lon="6.54983">
        <ele>2299.4</ele>
        <time>2025-02-20T09:32:52Z</time>
      </trkpt>
      <trkpt lat="45.63502" lon="6.54983">
        <ele>2297</ele>
        <time>2025-02-20T09:32:53Z</time>
      </trkpt>
      <trkpt lat="45.63502" lon="6.54983">
        <ele>2297</ele>
        <time>2025-02-20T09:32:54Z</time>
      </trkpt>
      <trkpt lat="45.63501" lon="6.54982">
        <ele>2297</ele>
        <time>2025-02-20T09:32:55Z</time>
      </trkpt>
      <trkpt lat="45.63501" lon="6.54982">
        <ele>2297</ele>
        <time>2025-02-20T09:32:56Z</time>
      </trkpt>
      <trkpt lat="45.635" lon="6.54982">
        <ele>2298</ele>
        <time>2025-02-20T09:32:57Z</time>
      </trkpt>
      <trkpt lat="45.635" lon="6.54982">
        <ele>2298</ele>
        <time>2025-02-20T09:32:58Z</time>
      </trkpt>
      <trkpt lat="45.63499" lon="6.54982">
        <ele>2298</ele>
        <time>2025-02-20T09:32:59Z</time>
      </trkpt>
      <trkpt lat="45.63499" lon="6.54982">
        <ele>2298</ele>
        <time>2025-02-20T09:33:00Z</time>
      </trkpt>
      <trkpt lat="45.63498" lon="6.54982">
        <ele>2299.2</ele>
        <time>2025-02-20T09:33:01Z</time>
      </trkpt>
      <trkpt lat="45.63498" lon="6.54982">
        <ele>2299.2</ele>
        <time>2025-02-20T09:33:02Z</time>
      </trkpt>
      <trkpt lat="45.63497" lon="6.54981">
        <ele>2299.2</ele>
        <time>2025-02-20T09:33:03Z</time>
      </trkpt>
      <trkpt lat="45.63497" lon="6.54982">
        <ele>2300.2</ele>
        <time>2025-02-20T09:33:04Z</time>
      </trkpt>
      <trkpt lat="45.63496" lon="6.54981">
        <ele>2300</ele>
        <time>2025-02-20T09:33:05Z</time>
      </trkpt>
      <trkpt lat="45.63496" lon="6.54981">
        <ele>2300</ele>
        <time>2025-02-20T09:33:06Z</time>
      </trkpt>
      <trkpt lat="45.63495" lon="6.54981">
        <ele>2300</ele>
        <time>2025-02-20T09:33:07Z</time>
      </trkpt>
      <trkpt lat="45.63495" lon="6.54981">
        <ele>2301</ele>
        <time>2025-02-20T09:33:08Z</time>
      </trkpt>
      <trkpt lat="45.63494" lon="6.54981">
        <ele>2300.6</ele>
        <time>2025-02-20T09:33:09Z</time>
      </trkpt>
      <trkpt lat="45.63494" lon="6.5498">
        <ele>2300.6</ele>
        <time>2025-02-20T09:33:10Z</time>
      </trkpt>
      <trkpt lat="45.63494" lon="6.5498">
        <ele>2300.6</ele>
        <time>2025-02-20T09:33:11Z</time>
      </trkpt>
      <trkpt lat="45.63493" lon="6.54981">
        <ele>2301.6</ele>
        <time>2025-02-20T09:33:12Z</time>
      </trkpt>
      <trkpt lat="45.63493" lon="6.54981">
        <ele>2301.4</ele>
        <time>2025-02-20T09:33:13Z</time>
      </trkpt>
      <trkpt lat="45.63492" lon="6.5498">
        <ele>2301.4</ele>
        <time>2025-02-20T09:33:14Z</time>
      </trkpt>
      <trkpt lat="45.63492" lon="6.5498">
        <ele>2301.4</ele>
        <time>2025-02-20T09:33:15Z</time>
      </trkpt>
      <trkpt lat="45.63491" lon="6.5498">
        <ele>2301.4</ele>
        <time>2025-02-20T09:33:16Z</time>
      </trkpt>
      <trkpt lat="45.63491" lon="6.5498">
        <ele>2302</ele>
        <time>2025-02-20T09:33:17Z</time>
      </trkpt>
      <trkpt lat="45.63491" lon="6.5498">
        <ele>2302</ele>
        <time>2025-02-20T09:33:18Z</time>
      </trkpt>
      <trkpt lat="45.6349" lon="6.5498">
        <ele>2302</ele>
        <time>2025-02-20T09:33:19Z</time>
      </trkpt>
      <trkpt lat="45.63489" lon="6.54979">
        <ele>2301</ele>
        <time>2025-02-20T09:33:20Z</time>
      </trkpt>
      <trkpt lat="45.63489" lon="6.54979">
        <ele>2301</ele>
        <time>2025-02-20T09:33:21Z</time>
      </trkpt>
      <trkpt lat="45.63488" lon="6.54979">
        <ele>2301</ele>
        <time>2025-02-20T09:33:22Z</time>
      </trkpt>
      <trkpt lat="45.63487" lon="6.54979">
        <ele>2301</ele>
        <time>2025-02-20T09:33:23Z</time>
      </trkpt>
      <trkpt lat="45.63487" lon="6.54979">
        <ele>2301</ele>
        <time>2025-02-20T09:33:24Z</time>
      </trkpt>
      <trkpt lat="45.63486" lon="6.54979">
        <ele>2301.8</ele>
        <time>2025-02-20T09:33:25Z</time>
      </trkpt>
      <trkpt lat="45.63485" lon="6.54979">
        <ele>2301.8</ele>
        <time>2025-02-20T09:33:26Z</time>
      </trkpt>
      <trkpt lat="45.63485" lon="6.54979">
        <ele>2301.8</ele>
        <time>2025-02-20T09:33:27Z</time>
      </trkpt>
      <trkpt lat="45.63485" lon="6.54979">
        <ele>2300.8</ele>
        <time>2025-02-20T09:33:28Z</time>
      </trkpt>
      <trkpt lat="45.63484" lon="6.54978">
        <ele>2300</ele>
        <time>2025-02-20T09:33:29Z</time>
      </trkpt>
      <trkpt lat="45.63484" lon="6.54978">
        <ele>2300</ele>
        <time>2025-02-20T09:33:30Z</time>
      </trkpt>
      <trkpt lat="45.63483" lon="6.54978">
        <ele>2300</ele>
        <time>2025-02-20T09:33:31Z</time>
      </trkpt>
      <trkpt lat="45.63482" lon="6.54978">
        <ele>2299</ele>
        <time>2025-02-20T09:33:32Z</time>
      </trkpt>
      <trkpt lat="45.63482" lon="6.54978">
        <ele>2298.8</ele>
        <time>2025-02-20T09:33:33Z</time>
      </trkpt>
      <trkpt lat="45.63481" lon="6.54978">
        <ele>2298.8</ele>
        <time>2025-02-20T09:33:34Z</time>
      </trkpt>
      <trkpt lat="45.63481" lon="6.54978">
        <ele>2298.8</ele>
        <time>2025-02-20T09:33:35Z</time>
      </trkpt>
      <trkpt lat="45.63481" lon="6.54977">
        <ele>2298.8</ele>
        <time>2025-02-20T09:33:36Z</time>
      </trkpt>
      <trkpt lat="45.6348" lon="6.54977">
        <ele>2301.2</ele>
        <time>2025-02-20T09:33:37Z</time>
      </trkpt>
      <trkpt lat="45.6348" lon="6.54977">
        <ele>2301.2</ele>
        <time>2025-02-20T09:33:38Z</time>
      </trkpt>
      <trkpt lat="45.63479" lon="6.54977">
        <ele>2301.2</ele>
        <time>2025-02-20T09:33:39Z</time>
      </trkpt>
      <trkpt lat="45.63479" lon="6.54977">
        <ele>2301.2</ele>
        <time>2025-02-20T09:33:40Z</time>
      </trkpt>
      <trkpt lat="45.63479" lon="6.54977">
        <ele>2302</ele>
        <time>2025-02-20T09:33:41Z</time>
      </trkpt>
      <trkpt lat="45.63478" lon="6.54976">
        <ele>2302</ele>
        <time>2025-02-20T09:33:42Z</time>
      </trkpt>
      <trkpt lat="45.63478" lon="6.54976">
        <ele>2302</ele>
        <time>2025-02-20T09:33:43Z</time>
      </trkpt>
      <trkpt lat="45.63477" lon="6.54976">
        <ele>2302</ele>
        <time>2025-02-20T09:33:44Z</time>
      </trkpt>
      <trkpt lat="45.63477" lon="6.54976">
        <ele>2303.2</ele>
        <time>2025-02-20T09:33:45Z</time>
      </trkpt>
      <trkpt lat="45.63476" lon="6.54975">
        <ele>2303.2</ele>
        <time>2025-02-20T09:33:46Z</time>
      </trkpt>
      <trkpt lat="45.63476" lon="6.54975">
        <ele>2303.2</ele>
        <time>2025-02-20T09:33:47Z</time>
      </trkpt>
      <trkpt lat="45.63475" lon="6.54975">
        <ele>2304.2</ele>
        <time>2025-02-20T09:33:48Z</time>
      </trkpt>
      <trkpt lat="45.63475" lon="6.54975">
        <ele>2303.8</ele>
        <time>2025-02-20T09:33:49Z</time>
      </trkpt>
      <trkpt lat="45.63474" lon="6.54974">
        <ele>2303.8</ele>
        <time>2025-02-20T09:33:50Z</time>
      </trkpt>
      <trkpt lat="45.63474" lon="6.54974">
        <ele>2303.8</ele>
        <time>2025-02-20T09:33:51Z</time>
      </trkpt>
      <trkpt lat="45.63473" lon="6.54974">
        <ele>2303.8</ele>
        <time>2025-02-20T09:33:52Z</time>
      </trkpt>
      <trkpt lat="45.63473" lon="6.54974">
        <ele>2303.6</ele>
        <time>2025-02-20T09:33:53Z</time>
      </trkpt>
      <trkpt lat="45.63472" lon="6.54973">
        <ele>2303.6</ele>
        <time>2025-02-20T09:33:54Z</time>
      </trkpt>
      <trkpt lat="45.63472" lon="6.54973">
        <ele>2303.6</ele>
        <time>2025-02-20T09:33:55Z</time>
      </trkpt>
      <trkpt lat="45.63471" lon="6.54973">
        <ele>2303.6</ele>
        <time>2025-02-20T09:33:56Z</time>
      </trkpt>
      <trkpt lat="45.63471" lon="6.54972">
        <ele>2306.8</ele>
        <time>2025-02-20T09:33:57Z</time>
      </trkpt>
      <trkpt lat="45.6347" lon="6.54972">
        <ele>2306.8</ele>
        <time>2025-02-20T09:33:58Z</time>
      </trkpt>
      <trkpt lat="45.6347" lon="6.54971">
        <ele>2306.8</ele>
        <time>2025-02-20T09:33:59Z</time>
      </trkpt>
      <trkpt lat="45.63469" lon="6.54971">
        <ele>2306.2</ele>
        <time>2025-02-20T09:34:00Z</time>
      </trkpt>
      <trkpt lat="45.63469" lon="6.5497">
        <ele>2310</ele>
        <time>2025-02-20T09:34:01Z</time>
      </trkpt>
      <trkpt lat="45.63468" lon="6.5497">
        <ele>2310</ele>
        <time>2025-02-20T09:34:02Z</time>
      </trkpt>
      <trkpt lat="45.63468" lon="6.5497">
        <ele>2310</ele>
        <time>2025-02-20T09:34:03Z</time>
      </trkpt>
      <trkpt lat="45.63467" lon="6.54969">
        <ele>2309</ele>
        <time>2025-02-20T09:34:04Z</time>
      </trkpt>
      <trkpt lat="45.63466" lon="6.54969">
        <ele>2304.8</ele>
        <time>2025-02-20T09:34:05Z</time>
      </trkpt>
      <trkpt lat="45.63466" lon="6.54968">
        <ele>2304.8</ele>
        <time>2025-02-20T09:34:06Z</time>
      </trkpt>
      <trkpt lat="45.63466" lon="6.54968">
        <ele>2304.8</ele>
        <time>2025-02-20T09:34:07Z</time>
      </trkpt>
      <trkpt lat="45.63465" lon="6.54967">
        <ele>2304.8</ele>
        <time>2025-02-20T09:34:08Z</time>
      </trkpt>
      <trkpt lat="45.63464" lon="6.54967">
        <ele>2307.8</ele>
        <time>2025-02-20T09:34:09Z</time>
      </trkpt>
      <trkpt lat="45.63464" lon="6.54966">
        <ele>2307.8</ele>
        <time>2025-02-20T09:34:10Z</time>
      </trkpt>
      <trkpt lat="45.63463" lon="6.54966">
        <ele>2307.8</ele>
        <time>2025-02-20T09:34:11Z</time>
      </trkpt>
      <trkpt lat="45.63462" lon="6.54965">
        <ele>2307.6</ele>
        <time>2025-02-20T09:34:12Z</time>
      </trkpt>
      <trkpt lat="45.63462" lon="6.54965">
        <ele>2306.6</ele>
        <time>2025-02-20T09:34:13Z</time>
      </trkpt>
      <trkpt lat="45.63461" lon="6.54964">
        <ele>2306.6</ele>
        <time>2025-02-20T09:34:14Z</time>
      </trkpt>
      <trkpt lat="45.63461" lon="6.54964">
        <ele>2306.6</ele>
        <time>2025-02-20T09:34:15Z</time>
      </trkpt>
      <trkpt lat="45.63461" lon="6.54963">
        <ele>2306.6</ele>
        <time>2025-02-20T09:34:16Z</time>
      </trkpt>
      <trkpt lat="45.6346" lon="6.54963">
        <ele>2302.4</ele>
        <time>2025-02-20T09:34:17Z</time>
      </trkpt>
      <trkpt lat="45.63459" lon="6.54962">
        <ele>2302.4</ele>
        <time>2025-02-20T09:34:18Z</time>
      </trkpt>
      <trkpt lat="45.63458" lon="6.54962">
        <ele>2302.4</ele>
        <time>2025-02-20T09:34:19Z</time>
      </trkpt>
      <trkpt lat="45.63457" lon="6.54961">
        <ele>2303.4</ele>
        <time>2025-02-20T09:34:20Z</time>
      </trkpt>
      <trkpt lat="45.63457" lon="6.54961">
        <ele>2308</ele>
        <time>2025-02-20T09:34:21Z</time>
      </trkpt>
      <trkpt lat="45.63456" lon="6.54961">
        <ele>2308</ele>
        <time>2025-02-20T09:34:22Z</time>
      </trkpt>
      <trkpt lat="45.63455" lon="6.5496">
        <ele>2308</ele>
        <time>2025-02-20T09:34:23Z</time>
      </trkpt>
      <trkpt lat="45.63455" lon="6.5496">
        <ele>2308</ele>
        <time>2025-02-20T09:34:24Z</time>
      </trkpt>
      <trkpt lat="45.63454" lon="6.54959">
        <ele>2299.8</ele>
        <time>2025-02-20T09:34:25Z</time>
      </trkpt>
      <trkpt lat="45.63454" lon="6.54959">
        <ele>2299.8</ele>
        <time>2025-02-20T09:34:26Z</time>
      </trkpt>
      <trkpt lat="45.63453" lon="6.54958">
        <ele>2299.8</ele>
        <time>2025-02-20T09:34:27Z</time>
      </trkpt>
      <trkpt lat="45.63452" lon="6.54958">
        <ele>2299.8</ele>
        <time>2025-02-20T09:34:28Z</time>
      </trkpt>
      <trkpt lat="45.63452" lon="6.54958">
        <ele>2308</ele>
        <time>2025-02-20T09:34:29Z</time>
      </trkpt>
      <trkpt lat="45.63451" lon="6.54958">
        <ele>2308</ele>
        <time>2025-02-20T09:34:30Z</time>
      </trkpt>
      <trkpt lat="45.63451" lon="6.54957">
        <ele>2308</ele>
        <time>2025-02-20T09:34:31Z</time>
      </trkpt>
      <trkpt lat="45.6345" lon="6.54957">
        <ele>2308</ele>
        <time>2025-02-20T09:34:32Z</time>
      </trkpt>
      <trkpt lat="45.63449" lon="6.54957">
        <ele>2309</ele>
        <time>2025-02-20T09:34:33Z</time>
      </trkpt>
      <trkpt lat="45.63448" lon="6.54956">
        <ele>2309</ele>
        <time>2025-02-20T09:34:34Z</time>
      </trkpt>
      <trkpt lat="45.63448" lon="6.54955">
        <ele>2309</ele>
        <time>2025-02-20T09:34:35Z</time>
      </trkpt>
      <trkpt lat="45.63447" lon="6.54955">
        <ele>2308.8</ele>
        <time>2025-02-20T09:34:36Z</time>
      </trkpt>
      <trkpt lat="45.63446" lon="6.54955">
        <ele>2308</ele>
        <time>2025-02-20T09:34:37Z</time>
      </trkpt>
      <trkpt lat="45.63446" lon="6.54954">
        <ele>2308</ele>
        <time>2025-02-20T09:34:38Z</time>
      </trkpt>
      <trkpt lat="45.63445" lon="6.54954">
        <ele>2308</ele>
        <time>2025-02-20T09:34:39Z</time>
      </trkpt>
      <trkpt lat="45.63444" lon="6.54954">
        <ele>2308.8</ele>
        <time>2025-02-20T09:34:40Z</time>
      </trkpt>
      <trkpt lat="45.63443" lon="6.54954">
        <ele>2308.8</ele>
        <time>2025-02-20T09:34:41Z</time>
      </trkpt>
      <trkpt lat="45.63443" lon="6.54954">
        <ele>2308.8</ele>
        <time>2025-02-20T09:34:42Z</time>
      </trkpt>
      <trkpt lat="45.63442" lon="6.54953">
        <ele>2308.8</ele>
        <time>2025-02-20T09:34:43Z</time>
      </trkpt>
      <trkpt lat="45.63441" lon="6.54953">
        <ele>2308.8</ele>
        <time>2025-02-20T09:34:44Z</time>
      </trkpt>
      <trkpt lat="45.6344" lon="6.54953">
        <ele>2308.8</ele>
        <time>2025-02-20T09:34:45Z</time>
      </trkpt>
      <trkpt lat="45.6344" lon="6.54952">
        <ele>2308.8</ele>
        <time>2025-02-20T09:34:46Z</time>
      </trkpt>
      <trkpt lat="45.63439" lon="6.54952">
        <ele>2308.8</ele>
        <time>2025-02-20T09:34:47Z</time>
      </trkpt>
      <trkpt lat="45.63438" lon="6.54951">
        <ele>2308.8</ele>
        <time>2025-02-20T09:34:48Z</time>
      </trkpt>
      <trkpt lat="45.63438" lon="6.54951">
        <ele>2309.2</ele>
        <time>2025-02-20T09:34:49Z</time>
      </trkpt>
      <trkpt lat="45.63437" lon="6.54951">
        <ele>2309.2</ele>
        <time>2025-02-20T09:34:50Z</time>
      </trkpt>
      <trkpt lat="45.63436" lon="6.54951">
        <ele>2309.2</ele>
        <time>2025-02-20T09:34:51Z</time>
      </trkpt>
      <trkpt lat="45.63435" lon="6.54951">
        <ele>2309.2</ele>
        <time>2025-02-20T09:34:52Z</time>
      </trkpt>
      <trkpt lat="45.63435" lon="6.54951">
        <ele>2308.8</ele>
        <time>2025-02-20T09:34:53Z</time>
      </trkpt>
      <trkpt lat="45.63434" lon="6.5495">
        <ele>2308.8</ele>
        <time>2025-02-20T09:34:54Z</time>
      </trkpt>
      <trkpt lat="45.63433" lon="6.5495">
        <ele>2308.8</ele>
        <time>2025-02-20T09:34:55Z</time>
      </trkpt>
      <trkpt lat="45.63433" lon="6.5495">
        <ele>2308.8</ele>
        <time>2025-02-20T09:34:56Z</time>
      </trkpt>
      <trkpt lat="45.63432" lon="6.54949">
        <ele>2309.6</ele>
        <time>2025-02-20T09:34:57Z</time>
      </trkpt>
      <trkpt lat="45.63431" lon="6.54949">
        <ele>2309.6</ele>
        <time>2025-02-20T09:34:58Z</time>
      </trkpt>
      <trkpt lat="45.63431" lon="6.54948">
        <ele>2309.6</ele>
        <time>2025-02-20T09:34:59Z</time>
      </trkpt>
      <trkpt lat="45.6343" lon="6.54948">
        <ele>2309.6</ele>
        <time>2025-02-20T09:35:00Z</time>
      </trkpt>
      <trkpt lat="45.63429" lon="6.54948">
        <ele>2310.2</ele>
        <time>2025-02-20T09:35:01Z</time>
      </trkpt>
      <trkpt lat="45.63428" lon="6.54947">
        <ele>2310.2</ele>
        <time>2025-02-20T09:35:02Z</time>
      </trkpt>
      <trkpt lat="45.63427" lon="6.54946">
        <ele>2310.2</ele>
        <time>2025-02-20T09:35:03Z</time>
      </trkpt>
      <trkpt lat="45.63427" lon="6.54946">
        <ele>2310.2</ele>
        <time>2025-02-20T09:35:04Z</time>
      </trkpt>
      <trkpt lat="45.63426" lon="6.54945">
        <ele>2310.2</ele>
        <time>2025-02-20T09:35:05Z</time>
      </trkpt>
      <trkpt lat="45.63425" lon="6.54945">
        <ele>2310.2</ele>
        <time>2025-02-20T09:35:06Z</time>
      </trkpt>
      <trkpt lat="45.63425" lon="6.54945">
        <ele>2310.2</ele>
        <time>2025-02-20T09:35:07Z</time>
      </trkpt>
      <trkpt lat="45.63424" lon="6.54944">
        <ele>2310.2</ele>
        <time>2025-02-20T09:35:08Z</time>
      </trkpt>
      <trkpt lat="45.63423" lon="6.54944">
        <ele>2309.4</ele>
        <time>2025-02-20T09:35:09Z</time>
      </trkpt>
      <trkpt lat="45.63423" lon="6.54943">
        <ele>2309.4</ele>
        <time>2025-02-20T09:35:10Z</time>
      </trkpt>
      <trkpt lat="45.63422" lon="6.54942">
        <ele>2309.4</ele>
        <time>2025-02-20T09:35:11Z</time>
      </trkpt>
      <trkpt lat="45.63421" lon="6.54941">
        <ele>2310</ele>
        <time>2025-02-20T09:35:12Z</time>
      </trkpt>
      <trkpt lat="45.63421" lon="6.54941">
        <ele>2310.2</ele>
        <time>2025-02-20T09:35:13Z</time>
      </trkpt>
      <trkpt lat="45.6342" lon="6.5494">
        <ele>2310.2</ele>
        <time>2025-02-20T09:35:14Z</time>
      </trkpt>
      <trkpt lat="45.63419" lon="6.5494">
        <ele>2310.2</ele>
        <time>2025-02-20T09:35:15Z</time>
      </trkpt>
      <trkpt lat="45.63419" lon="6.54939">
        <ele>2310.2</ele>
        <time>2025-02-20T09:35:16Z</time>
      </trkpt>
      <trkpt lat="45.63418" lon="6.54939">
        <ele>2311</ele>
        <time>2025-02-20T09:35:17Z</time>
      </trkpt>
      <trkpt lat="45.63417" lon="6.54939">
        <ele>2311</ele>
        <time>2025-02-20T09:35:18Z</time>
      </trkpt>
      <trkpt lat="45.63416" lon="6.54938">
        <ele>2311</ele>
        <time>2025-02-20T09:35:19Z</time>
      </trkpt>
      <trkpt lat="45.63415" lon="6.54938">
        <ele>2310.6</ele>
        <time>2025-02-20T09:35:20Z</time>
      </trkpt>
      <trkpt lat="45.63415" lon="6.54937">
        <ele>2310.6</ele>
        <time>2025-02-20T09:35:21Z</time>
      </trkpt>
      <trkpt lat="45.63414" lon="6.54937">
        <ele>2310.6</ele>
        <time>2025-02-20T09:35:22Z</time>
      </trkpt>
      <trkpt lat="45.63413" lon="6.54937">
        <ele>2310.6</ele>
        <time>2025-02-20T09:35:23Z</time>
      </trkpt>
      <trkpt lat="45.63412" lon="6.54936">
        <ele>2310.6</ele>
        <time>2025-02-20T09:35:24Z</time>
      </trkpt>
      <trkpt lat="45.63411" lon="6.54936">
        <ele>2311.2</ele>
        <time>2025-02-20T09:35:25Z</time>
      </trkpt>
      <trkpt lat="45.63411" lon="6.54935">
        <ele>2311.2</ele>
        <time>2025-02-20T09:35:26Z</time>
      </trkpt>
      <trkpt lat="45.6341" lon="6.54935">
        <ele>2311.2</ele>
        <time>2025-02-20T09:35:27Z</time>
      </trkpt>
      <trkpt lat="45.63409" lon="6.54934">
        <ele>2311.2</ele>
        <time>2025-02-20T09:35:28Z</time>
      </trkpt>
      <trkpt lat="45.63408" lon="6.54934">
        <ele>2311.4</ele>
        <time>2025-02-20T09:35:29Z</time>
      </trkpt>
      <trkpt lat="45.63408" lon="6.54934">
        <ele>2311.4</ele>
        <time>2025-02-20T09:35:30Z</time>
      </trkpt>
      <trkpt lat="45.63407" lon="6.54934">
        <ele>2311.4</ele>
        <time>2025-02-20T09:35:31Z</time>
      </trkpt>
      <trkpt lat="45.63406" lon="6.54933">
        <ele>2311.4</ele>
        <time>2025-02-20T09:35:32Z</time>
      </trkpt>
      <trkpt lat="45.63405" lon="6.54933">
        <ele>2312</ele>
        <time>2025-02-20T09:35:33Z</time>
      </trkpt>
      <trkpt lat="45.63404" lon="6.54933">
        <ele>2312</ele>
        <time>2025-02-20T09:35:34Z</time>
      </trkpt>
      <trkpt lat="45.63403" lon="6.54932">
        <ele>2312</ele>
        <time>2025-02-20T09:35:35Z</time>
      </trkpt>
      <trkpt lat="45.63402" lon="6.54931">
        <ele>2312</ele>
        <time>2025-02-20T09:35:36Z</time>
      </trkpt>
      <trkpt lat="45.63401" lon="6.54931">
        <ele>2310.8</ele>
        <time>2025-02-20T09:35:37Z</time>
      </trkpt>
      <trkpt lat="45.63401" lon="6.54931">
        <ele>2310.8</ele>
        <time>2025-02-20T09:35:38Z</time>
      </trkpt>
      <trkpt lat="45.634" lon="6.5493">
        <ele>2310.8</ele>
        <time>2025-02-20T09:35:39Z</time>
      </trkpt>
      <trkpt lat="45.63399" lon="6.5493">
        <ele>2311.8</ele>
        <time>2025-02-20T09:35:40Z</time>
      </trkpt>
      <trkpt lat="45.63399" lon="6.54929">
        <ele>2311.6</ele>
        <time>2025-02-20T09:35:41Z</time>
      </trkpt>
      <trkpt lat="45.63398" lon="6.54928">
        <ele>2311.6</ele>
        <time>2025-02-20T09:35:42Z</time>
      </trkpt>
      <trkpt lat="45.63397" lon="6.54928">
        <ele>2311.6</ele>
        <time>2025-02-20T09:35:43Z</time>
      </trkpt>
      <trkpt lat="45.63396" lon="6.54928">
        <ele>2312</ele>
        <time>2025-02-20T09:35:44Z</time>
      </trkpt>
      <trkpt lat="45.63396" lon="6.54927">
        <ele>2312.6</ele>
        <time>2025-02-20T09:35:45Z</time>
      </trkpt>
      <trkpt lat="45.63395" lon="6.54927">
        <ele>2312.6</ele>
        <time>2025-02-20T09:35:46Z</time>
      </trkpt>
      <trkpt lat="45.63394" lon="6.54927">
        <ele>2312.6</ele>
        <time>2025-02-20T09:35:47Z</time>
      </trkpt>
      <trkpt lat="45.63394" lon="6.54927">
        <ele>2312.6</ele>
        <time>2025-02-20T09:35:48Z</time>
      </trkpt>
      <trkpt lat="45.63393" lon="6.54926">
        <ele>2312.2</ele>
        <time>2025-02-20T09:35:49Z</time>
      </trkpt>
      <trkpt lat="45.63392" lon="6.54925">
        <ele>2312.2</ele>
        <time>2025-02-20T09:35:50Z</time>
      </trkpt>
      <trkpt lat="45.63392" lon="6.54925">
        <ele>2312.2</ele>
        <time>2025-02-20T09:35:51Z</time>
      </trkpt>
      <trkpt lat="45.63391" lon="6.54925">
        <ele>2312.2</ele>
        <time>2025-02-20T09:35:52Z</time>
      </trkpt>
      <trkpt lat="45.6339" lon="6.54924">
        <ele>2314.2</ele>
        <time>2025-02-20T09:35:53Z</time>
      </trkpt>
      <trkpt lat="45.6339" lon="6.54924">
        <ele>2314.2</ele>
        <time>2025-02-20T09:35:54Z</time>
      </trkpt>
      <trkpt lat="45.63389" lon="6.54923">
        <ele>2314.2</ele>
        <time>2025-02-20T09:35:55Z</time>
      </trkpt>
      <trkpt lat="45.63388" lon="6.54923">
        <ele>2314.2</ele>
        <time>2025-02-20T09:35:56Z</time>
      </trkpt>
      <trkpt lat="45.63388" lon="6.54922">
        <ele>2314.4</ele>
        <time>2025-02-20T09:35:57Z</time>
      </trkpt>
      <trkpt lat="45.63387" lon="6.54922">
        <ele>2314.4</ele>
        <time>2025-02-20T09:35:58Z</time>
      </trkpt>
      <trkpt lat="45.63386" lon="6.54922">
        <ele>2314.4</ele>
        <time>2025-02-20T09:35:59Z</time>
      </trkpt>
      <trkpt lat="45.63386" lon="6.54921">
        <ele>2314.4</ele>
        <time>2025-02-20T09:36:00Z</time>
      </trkpt>
      <trkpt lat="45.63385" lon="6.54921">
        <ele>2315.2</ele>
        <time>2025-02-20T09:36:01Z</time>
      </trkpt>
      <trkpt lat="45.63385" lon="6.5492">
        <ele>2315.2</ele>
        <time>2025-02-20T09:36:02Z</time>
      </trkpt>
      <trkpt lat="45.63384" lon="6.5492">
        <ele>2315.2</ele>
        <time>2025-02-20T09:36:03Z</time>
      </trkpt>
      <trkpt lat="45.63383" lon="6.54919">
        <ele>2314.2</ele>
        <time>2025-02-20T09:36:04Z</time>
      </trkpt>
      <trkpt lat="45.63383" lon="6.54919">
        <ele>2314.4</ele>
        <time>2025-02-20T09:36:05Z</time>
      </trkpt>
      <trkpt lat="45.63382" lon="6.54919">
        <ele>2314.4</ele>
        <time>2025-02-20T09:36:06Z</time>
      </trkpt>
      <trkpt lat="45.63382" lon="6.54919">
        <ele>2314.4</ele>
        <time>2025-02-20T09:36:07Z</time>
      </trkpt>
      <trkpt lat="45.63381" lon="6.54918">
        <ele>2314.4</ele>
        <time>2025-02-20T09:36:08Z</time>
      </trkpt>
      <trkpt lat="45.6338" lon="6.54918">
        <ele>2314.6</ele>
        <time>2025-02-20T09:36:09Z</time>
      </trkpt>
      <trkpt lat="45.6338" lon="6.54918">
        <ele>2314.6</ele>
        <time>2025-02-20T09:36:10Z</time>
      </trkpt>
      <trkpt lat="45.63379" lon="6.54918">
        <ele>2314.6</ele>
        <time>2025-02-20T09:36:11Z</time>
      </trkpt>
      <trkpt lat="45.63379" lon="6.54918">
        <ele>2314.6</ele>
        <time>2025-02-20T09:36:12Z</time>
      </trkpt>
      <trkpt lat="45.63379" lon="6.54918">
        <ele>2315.2</ele>
        <time>2025-02-20T09:36:13Z</time>
      </trkpt>
      <trkpt lat="45.63377" lon="6.54917">
        <ele>2315.2</ele>
        <time>2025-02-20T09:36:14Z</time>
      </trkpt>
      <trkpt lat="45.63377" lon="6.54917">
        <ele>2315.2</ele>
        <time>2025-02-20T09:36:15Z</time>
      </trkpt>
      <trkpt lat="45.63376" lon="6.54916">
        <ele>2316.2</ele>
        <time>2025-02-20T09:36:16Z</time>
      </trkpt>
      <trkpt lat="45.63376" lon="6.54916">
        <ele>2316.4</ele>
        <time>2025-02-20T09:36:17Z</time>
      </trkpt>
      <trkpt lat="45.63375" lon="6.54916">
        <ele>2316.4</ele>
        <time>2025-02-20T09:36:18Z</time>
      </trkpt>
      <trkpt lat="45.63375" lon="6.54915">
        <ele>2316.4</ele>
        <time>2025-02-20T09:36:19Z</time>
      </trkpt>
      <trkpt lat="45.63374" lon="6.54915">
        <ele>2316.4</ele>
        <time>2025-02-20T09:36:20Z</time>
      </trkpt>
      <trkpt lat="45.63373" lon="6.54915">
        <ele>2317.4</ele>
        <time>2025-02-20T09:36:21Z</time>
      </trkpt>
      <trkpt lat="45.63373" lon="6.54915">
        <ele>2317.4</ele>
        <time>2025-02-20T09:36:22Z</time>
      </trkpt>
      <trkpt lat="45.63372" lon="6.54914">
        <ele>2317.4</ele>
        <time>2025-02-20T09:36:23Z</time>
      </trkpt>
      <trkpt lat="45.63371" lon="6.54914">
        <ele>2317.4</ele>
        <time>2025-02-20T09:36:24Z</time>
      </trkpt>
      <trkpt lat="45.63371" lon="6.54914">
        <ele>2316.6</ele>
        <time>2025-02-20T09:36:25Z</time>
      </trkpt>
      <trkpt lat="45.6337" lon="6.54913">
        <ele>2316.6</ele>
        <time>2025-02-20T09:36:26Z</time>
      </trkpt>
      <trkpt lat="45.6337" lon="6.54913">
        <ele>2316.6</ele>
        <time>2025-02-20T09:36:27Z</time>
      </trkpt>
      <trkpt lat="45.63369" lon="6.54912">
        <ele>2317.6</ele>
        <time>2025-02-20T09:36:28Z</time>
      </trkpt>
      <trkpt lat="45.63369" lon="6.54912">
        <ele>2316.4</ele>
        <time>2025-02-20T09:36:29Z</time>
      </trkpt>
      <trkpt lat="45.63368" lon="6.54912">
        <ele>2316.4</ele>
        <time>2025-02-20T09:36:30Z</time>
      </trkpt>
      <trkpt lat="45.63367" lon="6.54911">
        <ele>2316.4</ele>
        <time>2025-02-20T09:36:31Z</time>
      </trkpt>
      <trkpt lat="45.63367" lon="6.54911">
        <ele>2317.4</ele>
        <time>2025-02-20T09:36:32Z</time>
      </trkpt>
      <trkpt lat="45.63366" lon="6.54911">
        <ele>2318.6</ele>
        <time>2025-02-20T09:36:33Z</time>
      </trkpt>
      <trkpt lat="45.63366" lon="6.5491">
        <ele>2318.6</ele>
        <time>2025-02-20T09:36:34Z</time>
      </trkpt>
      <trkpt lat="45.63365" lon="6.5491">
        <ele>2318.6</ele>
        <time>2025-02-20T09:36:35Z</time>
      </trkpt>
      <trkpt lat="45.63365" lon="6.5491">
        <ele>2318.6</ele>
        <time>2025-02-20T09:36:36Z</time>
      </trkpt>
      <trkpt lat="45.63364" lon="6.5491">
        <ele>2319.4</ele>
        <time>2025-02-20T09:36:37Z</time>
      </trkpt>
      <trkpt lat="45.63363" lon="6.5491">
        <ele>2319.4</ele>
        <time>2025-02-20T09:36:38Z</time>
      </trkpt>
      <trkpt lat="45.63363" lon="6.54909">
        <ele>2319.4</ele>
        <time>2025-02-20T09:36:39Z</time>
      </trkpt>
      <trkpt lat="45.63362" lon="6.54909">
        <ele>2319.4</ele>
        <time>2025-02-20T09:36:40Z</time>
      </trkpt>
      <trkpt lat="45.63362" lon="6.54909">
        <ele>2318.4</ele>
        <time>2025-02-20T09:36:41Z</time>
      </trkpt>
      <trkpt lat="45.63362" lon="6.54909">
        <ele>2318.4</ele>
        <time>2025-02-20T09:36:42Z</time>
      </trkpt>
      <trkpt lat="45.63362" lon="6.54909">
        <ele>2318.4</ele>
        <time>2025-02-20T09:36:43Z</time>
      </trkpt>
      <trkpt lat="45.63362" lon="6.54909">
        <ele>2319</ele>
        <time>2025-02-20T09:36:44Z</time>
      </trkpt>
      <trkpt lat="45.6336" lon="6.54909">
        <ele>2320.6</ele>
        <time>2025-02-20T09:36:45Z</time>
      </trkpt>
      <trkpt lat="45.6336" lon="6.54909">
        <ele>2320.6</ele>
        <time>2025-02-20T09:36:46Z</time>
      </trkpt>
      <trkpt lat="45.63359" lon="6.5491">
        <ele>2320.6</ele>
        <time>2025-02-20T09:36:47Z</time>
      </trkpt>
      <trkpt lat="45.63359" lon="6.5491">
        <ele>2320.6</ele>
        <time>2025-02-20T09:36:48Z</time>
      </trkpt>
      <trkpt lat="45.63359" lon="6.54911">
        <ele>2320</ele>
        <time>2025-02-20T09:36:49Z</time>
      </trkpt>
      <trkpt lat="45.63359" lon="6.54912">
        <ele>2320</ele>
        <time>2025-02-20T09:36:50Z</time>
      </trkpt>
      <trkpt lat="45.63359" lon="6.54913">
        <ele>2320</ele>
        <time>2025-02-20T09:36:51Z</time>
      </trkpt>
      <trkpt lat="45.6336" lon="6.54914">
        <ele>2321</ele>
        <time>2025-02-20T09:36:52Z</time>
      </trkpt>
      <trkpt lat="45.6336" lon="6.54914">
        <ele>2321.6</ele>
        <time>2025-02-20T09:36:53Z</time>
      </trkpt>
      <trkpt lat="45.6336" lon="6.54915">
        <ele>2321.6</ele>
        <time>2025-02-20T09:36:54Z</time>
      </trkpt>
      <trkpt lat="45.63361" lon="6.54916">
        <ele>2321.6</ele>
        <time>2025-02-20T09:36:55Z</time>
      </trkpt>
      <trkpt lat="45.63361" lon="6.54917">
        <ele>2320.6</ele>
        <time>2025-02-20T09:36:56Z</time>
      </trkpt>
      <trkpt lat="45.63361" lon="6.54918">
        <ele>2322.2</ele>
        <time>2025-02-20T09:36:57Z</time>
      </trkpt>
      <trkpt lat="45.63362" lon="6.54918">
        <ele>2322.2</ele>
        <time>2025-02-20T09:36:58Z</time>
      </trkpt>
      <trkpt lat="45.63362" lon="6.54919">
        <ele>2322.2</ele>
        <time>2025-02-20T09:36:59Z</time>
      </trkpt>
      <trkpt lat="45.63363" lon="6.5492">
        <ele>2322.2</ele>
        <time>2025-02-20T09:37:00Z</time>
      </trkpt>
      <trkpt lat="45.63363" lon="6.54921">
        <ele>2322</ele>
        <time>2025-02-20T09:37:01Z</time>
      </trkpt>
      <trkpt lat="45.63364" lon="6.54922">
        <ele>2322</ele>
        <time>2025-02-20T09:37:02Z</time>
      </trkpt>
      <trkpt lat="45.63364" lon="6.54923">
        <ele>2322</ele>
        <time>2025-02-20T09:37:03Z</time>
      </trkpt>
      <trkpt lat="45.63365" lon="6.54923">
        <ele>2321.6</ele>
        <time>2025-02-20T09:37:04Z</time>
      </trkpt>
      <trkpt lat="45.63365" lon="6.54924">
        <ele>2321.4</ele>
        <time>2025-02-20T09:37:05Z</time>
      </trkpt>
      <trkpt lat="45.63366" lon="6.54925">
        <ele>2321.4</ele>
        <time>2025-02-20T09:37:06Z</time>
      </trkpt>
      <trkpt lat="45.63366" lon="6.54925">
        <ele>2321.4</ele>
        <time>2025-02-20T09:37:07Z</time>
      </trkpt>
      <trkpt lat="45.63367" lon="6.54926">
        <ele>2322.4</ele>
        <time>2025-02-20T09:37:08Z</time>
      </trkpt>
      <trkpt lat="45.63367" lon="6.54927">
        <ele>2322.4</ele>
        <time>2025-02-20T09:37:09Z</time>
      </trkpt>
      <trkpt lat="45.63368" lon="6.54927">
        <ele>2322.4</ele>
        <time>2025-02-20T09:37:10Z</time>
      </trkpt>
      <trkpt lat="45.63368" lon="6.54928">
        <ele>2322.4</ele>
        <time>2025-02-20T09:37:11Z</time>
      </trkpt>
      <trkpt lat="45.63369" lon="6.54929">
        <ele>2322.4</ele>
        <time>2025-02-20T09:37:12Z</time>
      </trkpt>
      <trkpt lat="45.63369" lon="6.5493">
        <ele>2322.8</ele>
        <time>2025-02-20T09:37:13Z</time>
      </trkpt>
      <trkpt lat="45.6337" lon="6.5493">
        <ele>2322.8</ele>
        <time>2025-02-20T09:37:14Z</time>
      </trkpt>
      <trkpt lat="45.6337" lon="6.54931">
        <ele>2322.8</ele>
        <time>2025-02-20T09:37:15Z</time>
      </trkpt>
      <trkpt lat="45.63371" lon="6.54932">
        <ele>2322</ele>
        <time>2025-02-20T09:37:16Z</time>
      </trkpt>
      <trkpt lat="45.63371" lon="6.54933">
        <ele>2321.8</ele>
        <time>2025-02-20T09:37:17Z</time>
      </trkpt>
      <trkpt lat="45.63372" lon="6.54933">
        <ele>2321.8</ele>
        <time>2025-02-20T09:37:18Z</time>
      </trkpt>
      <trkpt lat="45.63372" lon="6.54934">
        <ele>2321.8</ele>
        <time>2025-02-20T09:37:19Z</time>
      </trkpt>
      <trkpt lat="45.63373" lon="6.54935">
        <ele>2322.8</ele>
        <time>2025-02-20T09:37:20Z</time>
      </trkpt>
      <trkpt lat="45.63374" lon="6.54936">
        <ele>2323.6</ele>
        <time>2025-02-20T09:37:21Z</time>
      </trkpt>
      <trkpt lat="45.63375" lon="6.54936">
        <ele>2323.6</ele>
        <time>2025-02-20T09:37:22Z</time>
      </trkpt>
      <trkpt lat="45.63375" lon="6.54937">
        <ele>2323.6</ele>
        <time>2025-02-20T09:37:23Z</time>
      </trkpt>
      <trkpt lat="45.63376" lon="6.54938">
        <ele>2323.6</ele>
        <time>2025-02-20T09:37:24Z</time>
      </trkpt>
      <trkpt lat="45.63377" lon="6.54939">
        <ele>2323.6</ele>
        <time>2025-02-20T09:37:25Z</time>
      </trkpt>
      <trkpt lat="45.63377" lon="6.5494">
        <ele>2323.6</ele>
        <time>2025-02-20T09:37:26Z</time>
      </trkpt>
      <trkpt lat="45.63377" lon="6.54941">
        <ele>2323.6</ele>
        <time>2025-02-20T09:37:27Z</time>
      </trkpt>
      <trkpt lat="45.63378" lon="6.54942">
        <ele>2323.6</ele>
        <time>2025-02-20T09:37:28Z</time>
      </trkpt>
      <trkpt lat="45.63379" lon="6.54942">
        <ele>2323.4</ele>
        <time>2025-02-20T09:37:29Z</time>
      </trkpt>
      <trkpt lat="45.63379" lon="6.54943">
        <ele>2323.4</ele>
        <time>2025-02-20T09:37:30Z</time>
      </trkpt>
      <trkpt lat="45.63379" lon="6.54944">
        <ele>2323.4</ele>
        <time>2025-02-20T09:37:31Z</time>
      </trkpt>
      <trkpt lat="45.6338" lon="6.54944">
        <ele>2323</ele>
        <time>2025-02-20T09:37:32Z</time>
      </trkpt>
      <trkpt lat="45.6338" lon="6.54945">
        <ele>2323</ele>
        <time>2025-02-20T09:37:33Z</time>
      </trkpt>
      <trkpt lat="45.63381" lon="6.54946">
        <ele>2323</ele>
        <time>2025-02-20T09:37:34Z</time>
      </trkpt>
      <trkpt lat="45.63381" lon="6.54946">
        <ele>2323</ele>
        <time>2025-02-20T09:37:35Z</time>
      </trkpt>
      <trkpt lat="45.63382" lon="6.54947">
        <ele>2323</ele>
        <time>2025-02-20T09:37:36Z</time>
      </trkpt>
      <trkpt lat="45.63382" lon="6.54948">
        <ele>2323</ele>
        <time>2025-02-20T09:37:37Z</time>
      </trkpt>
      <trkpt lat="45.63382" lon="6.54949">
        <ele>2323</ele>
        <time>2025-02-20T09:37:38Z</time>
      </trkpt>
      <trkpt lat="45.63382" lon="6.54949">
        <ele>2323</ele>
        <time>2025-02-20T09:37:39Z</time>
      </trkpt>
      <trkpt lat="45.63382" lon="6.5495">
        <ele>2322.8</ele>
        <time>2025-02-20T09:37:40Z</time>
      </trkpt>
      <trkpt lat="45.63383" lon="6.5495">
        <ele>2323.2</ele>
        <time>2025-02-20T09:37:41Z</time>
      </trkpt>
      <trkpt lat="45.63383" lon="6.54951">
        <ele>2323.2</ele>
        <time>2025-02-20T09:37:42Z</time>
      </trkpt>
      <trkpt lat="45.63384" lon="6.54951">
        <ele>2323.2</ele>
        <time>2025-02-20T09:37:43Z</time>
      </trkpt>
      <trkpt lat="45.63384" lon="6.54951">
        <ele>2322.8</ele>
        <time>2025-02-20T09:37:44Z</time>
      </trkpt>
      <trkpt lat="45.63384" lon="6.54951">
        <ele>2323.4</ele>
        <time>2025-02-20T09:37:45Z</time>
      </trkpt>
      <trkpt lat="45.63384" lon="6.54951">
        <ele>2323.4</ele>
        <time>2025-02-20T09:37:46Z</time>
      </trkpt>
      <trkpt lat="45.63384" lon="6.54951">
        <ele>2323.4</ele>
        <time>2025-02-20T09:37:47Z</time>
      </trkpt>
      <trkpt lat="45.63384" lon="6.54951">
        <ele>2323.4</ele>
        <time>2025-02-20T09:37:48Z</time>
      </trkpt>
      <trkpt lat="45.63384" lon="6.54951">
        <ele>2323.8</ele>
        <time>2025-02-20T09:37:49Z</time>
      </trkpt>
      <trkpt lat="45.63384" lon="6.54951">
        <ele>2323.8</ele>
        <time>2025-02-20T09:37:50Z</time>
      </trkpt>
      <trkpt lat="45.63382" lon="6.54951">
        <ele>2323.8</ele>
        <time>2025-02-20T09:37:51Z</time>
      </trkpt>
      <trkpt lat="45.63381" lon="6.54951">
        <ele>2323.8</ele>
        <time>2025-02-20T09:37:52Z</time>
      </trkpt>
      <trkpt lat="45.6338" lon="6.5495">
        <ele>2325</ele>
        <time>2025-02-20T09:37:53Z</time>
      </trkpt>
      <trkpt lat="45.63379" lon="6.5495">
        <ele>2325</ele>
        <time>2025-02-20T09:37:54Z</time>
      </trkpt>
      <trkpt lat="45.63379" lon="6.5495">
        <ele>2325</ele>
        <time>2025-02-20T09:37:55Z</time>
      </trkpt>
      <trkpt lat="45.63378" lon="6.54949">
        <ele>2324</ele>
        <time>2025-02-20T09:37:56Z</time>
      </trkpt>
      <trkpt lat="45.63377" lon="6.54949">
        <ele>2324.4</ele>
        <time>2025-02-20T09:37:57Z</time>
      </trkpt>
      <trkpt lat="45.63376" lon="6.54949">
        <ele>2324.4</ele>
        <time>2025-02-20T09:37:58Z</time>
      </trkpt>
      <trkpt lat="45.63376" lon="6.54949">
        <ele>2324.4</ele>
        <time>2025-02-20T09:37:59Z</time>
      </trkpt>
      <trkpt lat="45.63375" lon="6.54948">
        <ele>2324.4</ele>
        <time>2025-02-20T09:38:00Z</time>
      </trkpt>
      <trkpt lat="45.63375" lon="6.54948">
        <ele>2323.6</ele>
        <time>2025-02-20T09:38:01Z</time>
      </trkpt>
      <trkpt lat="45.63374" lon="6.54948">
        <ele>2323.6</ele>
        <time>2025-02-20T09:38:02Z</time>
      </trkpt>
      <trkpt lat="45.63374" lon="6.54947">
        <ele>2323.6</ele>
        <time>2025-02-20T09:38:03Z</time>
      </trkpt>
      <trkpt lat="45.63373" lon="6.54947">
        <ele>2324.6</ele>
        <time>2025-02-20T09:38:04Z</time>
      </trkpt>
      <trkpt lat="45.63372" lon="6.54947">
        <ele>2325.8</ele>
        <time>2025-02-20T09:38:05Z</time>
      </trkpt>
      <trkpt lat="45.63372" lon="6.54947">
        <ele>2325.8</ele>
        <time>2025-02-20T09:38:06Z</time>
      </trkpt>
      <trkpt lat="45.63371" lon="6.54947">
        <ele>2325.8</ele>
        <time>2025-02-20T09:38:07Z</time>
      </trkpt>
      <trkpt lat="45.63371" lon="6.54947">
        <ele>2326.8</ele>
        <time>2025-02-20T09:38:08Z</time>
      </trkpt>
      <trkpt lat="45.6337" lon="6.54946">
        <ele>2327.2</ele>
        <time>2025-02-20T09:38:09Z</time>
      </trkpt>
      <trkpt lat="45.6337" lon="6.54946">
        <ele>2327.2</ele>
        <time>2025-02-20T09:38:10Z</time>
      </trkpt>
      <trkpt lat="45.63369" lon="6.54946">
        <ele>2327.2</ele>
        <time>2025-02-20T09:38:11Z</time>
      </trkpt>
      <trkpt lat="45.63369" lon="6.54946">
        <ele>2327.4</ele>
        <time>2025-02-20T09:38:12Z</time>
      </trkpt>
      <trkpt lat="45.63368" lon="6.54946">
        <ele>2327</ele>
        <time>2025-02-20T09:38:13Z</time>
      </trkpt>
      <trkpt lat="45.63368" lon="6.54945">
        <ele>2327</ele>
        <time>2025-02-20T09:38:14Z</time>
      </trkpt>
      <trkpt lat="45.63367" lon="6.54945">
        <ele>2327</ele>
        <time>2025-02-20T09:38:15Z</time>
      </trkpt>
      <trkpt lat="45.63367" lon="6.54945">
        <ele>2328</ele>
        <time>2025-02-20T09:38:16Z</time>
      </trkpt>
      <trkpt lat="45.63367" lon="6.54945">
        <ele>2327.6</ele>
        <time>2025-02-20T09:38:17Z</time>
      </trkpt>
      <trkpt lat="45.63366" lon="6.54944">
        <ele>2327.6</ele>
        <time>2025-02-20T09:38:18Z</time>
      </trkpt>
      <trkpt lat="45.63365" lon="6.54944">
        <ele>2327.6</ele>
        <time>2025-02-20T09:38:19Z</time>
      </trkpt>
      <trkpt lat="45.63365" lon="6.54944">
        <ele>2327.6</ele>
        <time>2025-02-20T09:38:20Z</time>
      </trkpt>
      <trkpt lat="45.63364" lon="6.54944">
        <ele>2327</ele>
        <time>2025-02-20T09:38:21Z</time>
      </trkpt>
      <trkpt lat="45.63364" lon="6.54943">
        <ele>2327</ele>
        <time>2025-02-20T09:38:22Z</time>
      </trkpt>
      <trkpt lat="45.63363" lon="6.54943">
        <ele>2327</ele>
        <time>2025-02-20T09:38:23Z</time>
      </trkpt>
      <trkpt lat="45.63363" lon="6.54943">
        <ele>2327</ele>
        <time>2025-02-20T09:38:24Z</time>
      </trkpt>
      <trkpt lat="45.63362" lon="6.54942">
        <ele>2328.2</ele>
        <time>2025-02-20T09:38:25Z</time>
      </trkpt>
      <trkpt lat="45.63362" lon="6.54942">
        <ele>2328.2</ele>
        <time>2025-02-20T09:38:26Z</time>
      </trkpt>
      <trkpt lat="45.63361" lon="6.54942">
        <ele>2328.2</ele>
        <time>2025-02-20T09:38:27Z</time>
      </trkpt>
      <trkpt lat="45.63361" lon="6.54942">
        <ele>2328.2</ele>
        <time>2025-02-20T09:38:28Z</time>
      </trkpt>
      <trkpt lat="45.6336" lon="6.54941">
        <ele>2330</ele>
        <time>2025-02-20T09:38:29Z</time>
      </trkpt>
      <trkpt lat="45.6336" lon="6.54941">
        <ele>2330</ele>
        <time>2025-02-20T09:38:30Z</time>
      </trkpt>
      <trkpt lat="45.63359" lon="6.5494">
        <ele>2330</ele>
        <time>2025-02-20T09:38:31Z</time>
      </trkpt>
      <trkpt lat="45.63359" lon="6.5494">
        <ele>2330</ele>
        <time>2025-02-20T09:38:32Z</time>
      </trkpt>
      <trkpt lat="45.63359" lon="6.5494">
        <ele>2330.8</ele>
        <time>2025-02-20T09:38:33Z</time>
      </trkpt>
      <trkpt lat="45.63358" lon="6.5494">
        <ele>2330.8</ele>
        <time>2025-02-20T09:38:34Z</time>
      </trkpt>
      <trkpt lat="45.63357" lon="6.54939">
        <ele>2330.8</ele>
        <time>2025-02-20T09:38:35Z</time>
      </trkpt>
      <trkpt lat="45.63357" lon="6.54939">
        <ele>2330.8</ele>
        <time>2025-02-20T09:38:36Z</time>
      </trkpt>
      <trkpt lat="45.63356" lon="6.54939">
        <ele>2331.4</ele>
        <time>2025-02-20T09:38:37Z</time>
      </trkpt>
      <trkpt lat="45.63355" lon="6.54939">
        <ele>2331.4</ele>
        <time>2025-02-20T09:38:38Z</time>
      </trkpt>
      <trkpt lat="45.63354" lon="6.54939">
        <ele>2331.4</ele>
        <time>2025-02-20T09:38:39Z</time>
      </trkpt>
      <trkpt lat="45.63354" lon="6.54938">
        <ele>2330.4</ele>
        <time>2025-02-20T09:38:40Z</time>
      </trkpt>
      <trkpt lat="45.63353" lon="6.54938">
        <ele>2330.4</ele>
        <time>2025-02-20T09:38:41Z</time>
      </trkpt>
      <trkpt lat="45.63353" lon="6.54937">
        <ele>2330.4</ele>
        <time>2025-02-20T09:38:42Z</time>
      </trkpt>
      <trkpt lat="45.63353" lon="6.54937">
        <ele>2330.4</ele>
        <time>2025-02-20T09:38:43Z</time>
      </trkpt>
      <trkpt lat="45.63352" lon="6.54937">
        <ele>2330.4</ele>
        <time>2025-02-20T09:38:44Z</time>
      </trkpt>
      <trkpt lat="45.63351" lon="6.54936">
        <ele>2331</ele>
        <time>2025-02-20T09:38:45Z</time>
      </trkpt>
      <trkpt lat="45.63351" lon="6.54936">
        <ele>2331</ele>
        <time>2025-02-20T09:38:46Z</time>
      </trkpt>
      <trkpt lat="45.6335" lon="6.54936">
        <ele>2331</ele>
        <time>2025-02-20T09:38:47Z</time>
      </trkpt>
      <trkpt lat="45.6335" lon="6.54935">
        <ele>2332</ele>
        <time>2025-02-20T09:38:48Z</time>
      </trkpt>
      <trkpt lat="45.6335" lon="6.54935">
        <ele>2332</ele>
        <time>2025-02-20T09:38:49Z</time>
      </trkpt>
      <trkpt lat="45.63349" lon="6.54934">
        <ele>2332</ele>
        <time>2025-02-20T09:38:50Z</time>
      </trkpt>
      <trkpt lat="45.63348" lon="6.54934">
        <ele>2332</ele>
        <time>2025-02-20T09:38:51Z</time>
      </trkpt>
      <trkpt lat="45.63348" lon="6.54934">
        <ele>2332</ele>
        <time>2025-02-20T09:38:52Z</time>
      </trkpt>
      <trkpt lat="45.63347" lon="6.54933">
        <ele>2333.2</ele>
        <time>2025-02-20T09:38:53Z</time>
      </trkpt>
      <trkpt lat="45.63347" lon="6.54933">
        <ele>2333.2</ele>
        <time>2025-02-20T09:38:54Z</time>
      </trkpt>
      <trkpt lat="45.63346" lon="6.54932">
        <ele>2333.2</ele>
        <time>2025-02-20T09:38:55Z</time>
      </trkpt>
      <trkpt lat="45.63345" lon="6.54932">
        <ele>2332.4</ele>
        <time>2025-02-20T09:38:56Z</time>
      </trkpt>
      <trkpt lat="45.63345" lon="6.54932">
        <ele>2332</ele>
        <time>2025-02-20T09:38:57Z</time>
      </trkpt>
      <trkpt lat="45.63344" lon="6.54932">
        <ele>2332</ele>
        <time>2025-02-20T09:38:58Z</time>
      </trkpt>
      <trkpt lat="45.63343" lon="6.54931">
        <ele>2332</ele>
        <time>2025-02-20T09:38:59Z</time>
      </trkpt>
      <trkpt lat="45.63343" lon="6.54931">
        <ele>2333</ele>
        <time>2025-02-20T09:39:00Z</time>
      </trkpt>
      <trkpt lat="45.63342" lon="6.5493">
        <ele>2333.6</ele>
        <time>2025-02-20T09:39:01Z</time>
      </trkpt>
      <trkpt lat="45.63341" lon="6.5493">
        <ele>2333.6</ele>
        <time>2025-02-20T09:39:02Z</time>
      </trkpt>
      <trkpt lat="45.63341" lon="6.5493">
        <ele>2333.6</ele>
        <time>2025-02-20T09:39:03Z</time>
      </trkpt>
      <trkpt lat="45.6334" lon="6.54929">
        <ele>2332.6</ele>
        <time>2025-02-20T09:39:04Z</time>
      </trkpt>
      <trkpt lat="45.6334" lon="6.54929">
        <ele>2334.2</ele>
        <time>2025-02-20T09:39:05Z</time>
      </trkpt>
      <trkpt lat="45.63339" lon="6.54929">
        <ele>2334.2</ele>
        <time>2025-02-20T09:39:06Z</time>
      </trkpt>
      <trkpt lat="45.63338" lon="6.54928">
        <ele>2334.2</ele>
        <time>2025-02-20T09:39:07Z</time>
      </trkpt>
      <trkpt lat="45.63338" lon="6.54928">
        <ele>2333.4</ele>
        <time>2025-02-20T09:39:08Z</time>
      </trkpt>
      <trkpt lat="45.63337" lon="6.54928">
        <ele>2333.6</ele>
        <time>2025-02-20T09:39:09Z</time>
      </trkpt>
      <trkpt lat="45.63337" lon="6.54928">
        <ele>2333.6</ele>
        <time>2025-02-20T09:39:10Z</time>
      </trkpt>
      <trkpt lat="45.63336" lon="6.54928">
        <ele>2333.6</ele>
        <time>2025-02-20T09:39:11Z</time>
      </trkpt>
      <trkpt lat="45.63336" lon="6.54927">
        <ele>2333.6</ele>
        <time>2025-02-20T09:39:12Z</time>
      </trkpt>
      <trkpt lat="45.63335" lon="6.54927">
        <ele>2335</ele>
        <time>2025-02-20T09:39:13Z</time>
      </trkpt>
      <trkpt lat="45.63334" lon="6.54927">
        <ele>2335</ele>
        <time>2025-02-20T09:39:14Z</time>
      </trkpt>
      <trkpt lat="45.63334" lon="6.54927">
        <ele>2335</ele>
        <time>2025-02-20T09:39:15Z</time>
      </trkpt>
      <trkpt lat="45.63333" lon="6.54927">
        <ele>2334</ele>
        <time>2025-02-20T09:39:16Z</time>
      </trkpt>
      <trkpt lat="45.63333" lon="6.54926">
        <ele>2336.4</ele>
        <time>2025-02-20T09:39:17Z</time>
      </trkpt>
      <trkpt lat="45.63332" lon="6.54926">
        <ele>2336.4</ele>
        <time>2025-02-20T09:39:18Z</time>
      </trkpt>
      <trkpt lat="45.63331" lon="6.54926">
        <ele>2336.4</ele>
        <time>2025-02-20T09:39:19Z</time>
      </trkpt>
      <trkpt lat="45.63331" lon="6.54926">
        <ele>2335.4</ele>
        <time>2025-02-20T09:39:20Z</time>
      </trkpt>
      <trkpt lat="45.6333" lon="6.54926">
        <ele>2335.4</ele>
        <time>2025-02-20T09:39:21Z</time>
      </trkpt>
      <trkpt lat="45.6333" lon="6.54926">
        <ele>2335.4</ele>
        <time>2025-02-20T09:39:22Z</time>
      </trkpt>
      <trkpt lat="45.6333" lon="6.54926">
        <ele>2335.4</ele>
        <time>2025-02-20T09:39:23Z</time>
      </trkpt>
      <trkpt lat="45.6333" lon="6.54926">
        <ele>2335.4</ele>
        <time>2025-02-20T09:39:24Z</time>
      </trkpt>
      <trkpt lat="45.6333" lon="6.54926">
        <ele>2335.8</ele>
        <time>2025-02-20T09:39:25Z</time>
      </trkpt>
      <trkpt lat="45.6333" lon="6.54927">
        <ele>2335.8</ele>
        <time>2025-02-20T09:39:26Z</time>
      </trkpt>
      <trkpt lat="45.63329" lon="6.54927">
        <ele>2335.8</ele>
        <time>2025-02-20T09:39:27Z</time>
      </trkpt>
      <trkpt lat="45.63328" lon="6.54927">
        <ele>2335.8</ele>
        <time>2025-02-20T09:39:28Z</time>
      </trkpt>
      <trkpt lat="45.63328" lon="6.54927">
        <ele>2336.4</ele>
        <time>2025-02-20T09:39:29Z</time>
      </trkpt>
      <trkpt lat="45.63327" lon="6.54928">
        <ele>2336.4</ele>
        <time>2025-02-20T09:39:30Z</time>
      </trkpt>
      <trkpt lat="45.63326" lon="6.54928">
        <ele>2336.4</ele>
        <time>2025-02-20T09:39:31Z</time>
      </trkpt>
      <trkpt lat="45.63325" lon="6.54929">
        <ele>2336.2</ele>
        <time>2025-02-20T09:39:32Z</time>
      </trkpt>
      <trkpt lat="45.63325" lon="6.54929">
        <ele>2337.4</ele>
        <time>2025-02-20T09:39:33Z</time>
      </trkpt>
      <trkpt lat="45.63324" lon="6.54929">
        <ele>2337.4</ele>
        <time>2025-02-20T09:39:34Z</time>
      </trkpt>
      <trkpt lat="45.63323" lon="6.5493">
        <ele>2337.4</ele>
        <time>2025-02-20T09:39:35Z</time>
      </trkpt>
      <trkpt lat="45.63323" lon="6.5493">
        <ele>2336.4</ele>
        <time>2025-02-20T09:39:36Z</time>
      </trkpt>
      <trkpt lat="45.63322" lon="6.5493">
        <ele>2336.4</ele>
        <time>2025-02-20T09:39:37Z</time>
      </trkpt>
      <trkpt lat="45.63321" lon="6.54931">
        <ele>2336.4</ele>
        <time>2025-02-20T09:39:38Z</time>
      </trkpt>
      <trkpt lat="45.6332" lon="6.54931">
        <ele>2336.4</ele>
        <time>2025-02-20T09:39:39Z</time>
      </trkpt>
      <trkpt lat="45.6332" lon="6.54931">
        <ele>2337</ele>
        <time>2025-02-20T09:39:40Z</time>
      </trkpt>
      <trkpt lat="45.63319" lon="6.54931">
        <ele>2336.4</ele>
        <time>2025-02-20T09:39:41Z</time>
      </trkpt>
      <trkpt lat="45.63318" lon="6.54932">
        <ele>2336.4</ele>
        <time>2025-02-20T09:39:42Z</time>
      </trkpt>
      <trkpt lat="45.63317" lon="6.54932">
        <ele>2336.4</ele>
        <time>2025-02-20T09:39:43Z</time>
      </trkpt>
      <trkpt lat="45.63317" lon="6.54932">
        <ele>2337.4</ele>
        <time>2025-02-20T09:39:44Z</time>
      </trkpt>
      <trkpt lat="45.63316" lon="6.54932">
        <ele>2338</ele>
        <time>2025-02-20T09:39:45Z</time>
      </trkpt>
      <trkpt lat="45.63316" lon="6.54932">
        <ele>2338</ele>
        <time>2025-02-20T09:39:46Z</time>
      </trkpt>
      <trkpt lat="45.63315" lon="6.54933">
        <ele>2338</ele>
        <time>2025-02-20T09:39:47Z</time>
      </trkpt>
      <trkpt lat="45.63314" lon="6.54933">
        <ele>2337.6</ele>
        <time>2025-02-20T09:39:48Z</time>
      </trkpt>
      <trkpt lat="45.63313" lon="6.54933">
        <ele>2337.8</ele>
        <time>2025-02-20T09:39:49Z</time>
      </trkpt>
      <trkpt lat="45.63312" lon="6.54934">
        <ele>2337.8</ele>
        <time>2025-02-20T09:39:50Z</time>
      </trkpt>
      <trkpt lat="45.63312" lon="6.54934">
        <ele>2337.8</ele>
        <time>2025-02-20T09:39:51Z</time>
      </trkpt>
      <trkpt lat="45.63311" lon="6.54934">
        <ele>2337.8</ele>
        <time>2025-02-20T09:39:52Z</time>
      </trkpt>
      <trkpt lat="45.6331" lon="6.54934">
        <ele>2338.4</ele>
        <time>2025-02-20T09:39:53Z</time>
      </trkpt>
      <trkpt lat="45.6331" lon="6.54934">
        <ele>2338.4</ele>
        <time>2025-02-20T09:39:54Z</time>
      </trkpt>
      <trkpt lat="45.63309" lon="6.54932">
        <ele>2338.4</ele>
        <time>2025-02-20T09:39:55Z</time>
      </trkpt>
      <trkpt lat="45.63308" lon="6.54932">
        <ele>2338.4</ele>
        <time>2025-02-20T09:39:56Z</time>
      </trkpt>
      <trkpt lat="45.63308" lon="6.54932">
        <ele>2337.4</ele>
        <time>2025-02-20T09:39:57Z</time>
      </trkpt>
      <trkpt lat="45.63307" lon="6.54932">
        <ele>2337.4</ele>
        <time>2025-02-20T09:39:58Z</time>
      </trkpt>
      <trkpt lat="45.63307" lon="6.54932">
        <ele>2337.4</ele>
        <time>2025-02-20T09:39:59Z</time>
      </trkpt>
      <trkpt lat="45.63306" lon="6.54932">
        <ele>2338.4</ele>
        <time>2025-02-20T09:40:00Z</time>
      </trkpt>
      <trkpt lat="45.63306" lon="6.54932">
        <ele>2339</ele>
        <time>2025-02-20T09:40:01Z</time>
      </trkpt>
      <trkpt lat="45.63305" lon="6.54932">
        <ele>2339</ele>
        <time>2025-02-20T09:40:02Z</time>
      </trkpt>
      <trkpt lat="45.63304" lon="6.54932">
        <ele>2339</ele>
        <time>2025-02-20T09:40:03Z</time>
      </trkpt>
      <trkpt lat="45.63303" lon="6.54932">
        <ele>2339</ele>
        <time>2025-02-20T09:40:04Z</time>
      </trkpt>
      <trkpt lat="45.63303" lon="6.54932">
        <ele>2338.4</ele>
        <time>2025-02-20T09:40:05Z</time>
      </trkpt>
      <trkpt lat="45.63303" lon="6.54932">
        <ele>2338.4</ele>
        <time>2025-02-20T09:40:06Z</time>
      </trkpt>
      <trkpt lat="45.63303" lon="6.54932">
        <ele>2338.4</ele>
        <time>2025-02-20T09:40:07Z</time>
      </trkpt>
      <trkpt lat="45.63303" lon="6.54932">
        <ele>2339.4</ele>
        <time>2025-02-20T09:40:08Z</time>
      </trkpt>
      <trkpt lat="45.63303" lon="6.54932">
        <ele>2339.2</ele>
        <time>2025-02-20T09:40:09Z</time>
      </trkpt>
      <trkpt lat="45.63303" lon="6.54932">
        <ele>2339.2</ele>
        <time>2025-02-20T09:40:10Z</time>
      </trkpt>
      <trkpt lat="45.63303" lon="6.54932">
        <ele>2339.2</ele>
        <time>2025-02-20T09:40:11Z</time>
      </trkpt>
      <trkpt lat="45.63303" lon="6.54932">
        <ele>2339.2</ele>
        <time>2025-02-20T09:40:12Z</time>
      </trkpt>
      <trkpt lat="45.63303" lon="6.54932">
        <ele>2339.6</ele>
        <time>2025-02-20T09:40:13Z</time>
      </trkpt>
      <trkpt lat="45.63303" lon="6.54932">
        <ele>2339.6</ele>
        <time>2025-02-20T09:40:14Z</time>
      </trkpt>
      <trkpt lat="45.63303" lon="6.54932">
        <ele>2339.6</ele>
        <time>2025-02-20T09:40:15Z</time>
      </trkpt>
      <trkpt lat="45.63303" lon="6.54932">
        <ele>2339.6</ele>
        <time>2025-02-20T09:40:16Z</time>
      </trkpt>
      <trkpt lat="45.63303" lon="6.54932">
        <ele>2339.6</ele>
        <time>2025-02-20T09:40:17Z</time>
      </trkpt>
      <trkpt lat="45.63303" lon="6.54932">
        <ele>2339.6</ele>
        <time>2025-02-20T09:40:18Z</time>
      </trkpt>
      <trkpt lat="45.63303" lon="6.54932">
        <ele>2339.6</ele>
        <time>2025-02-20T09:40:19Z</time>
      </trkpt>
      <trkpt lat="45.63303" lon="6.54932">
        <ele>2339.6</ele>
        <time>2025-02-20T09:40:20Z</time>
      </trkpt>
      <trkpt lat="45.63303" lon="6.54932">
        <ele>2339.2</ele>
        <time>2025-02-20T09:40:21Z</time>
      </trkpt>
      <trkpt lat="45.63303" lon="6.54932">
        <ele>2339.2</ele>
        <time>2025-02-20T09:40:22Z</time>
      </trkpt>
      <trkpt lat="45.63303" lon="6.54932">
        <ele>2339.2</ele>
        <time>2025-02-20T09:40:23Z</time>
      </trkpt>
      <trkpt lat="45.63303" lon="6.54932">
        <ele>2339.6</ele>
        <time>2025-02-20T09:40:24Z</time>
      </trkpt>
      <trkpt lat="45.63303" lon="6.54932">
        <ele>2340</ele>
        <time>2025-02-20T09:40:25Z</time>
      </trkpt>
      <trkpt lat="45.63303" lon="6.54932">
        <ele>2340</ele>
        <time>2025-02-20T09:40:26Z</time>
      </trkpt>
      <trkpt lat="45.63303" lon="6.54932">
        <ele>2340</ele>
        <time>2025-02-20T09:40:27Z</time>
      </trkpt>
      <trkpt lat="45.63303" lon="6.54932">
        <ele>2339.6</ele>
        <time>2025-02-20T09:40:28Z</time>
      </trkpt>
      <trkpt lat="45.63303" lon="6.54932">
        <ele>2339.4</ele>
        <time>2025-02-20T09:40:29Z</time>
      </trkpt>
      <trkpt lat="45.63303" lon="6.54932">
        <ele>2339.4</ele>
        <time>2025-02-20T09:40:30Z</time>
      </trkpt>
      <trkpt lat="45.63303" lon="6.54932">
        <ele>2339.4</ele>
        <time>2025-02-20T09:40:31Z</time>
      </trkpt>
      <trkpt lat="45.63303" lon="6.54932">
        <ele>2339.8</ele>
        <time>2025-02-20T09:40:32Z</time>
      </trkpt>
      <trkpt lat="45.63303" lon="6.54932">
        <ele>2339.2</ele>
        <time>2025-02-20T09:40:33Z</time>
      </trkpt>
      <trkpt lat="45.63303" lon="6.54932">
        <ele>2339.2</ele>
        <time>2025-02-20T09:40:34Z</time>
      </trkpt>
      <trkpt lat="45.63303" lon="6.54932">
        <ele>2339.2</ele>
        <time>2025-02-20T09:40:35Z</time>
      </trkpt>
      <trkpt lat="45.63303" lon="6.54932">
        <ele>2339.2</ele>
        <time>2025-02-20T09:40:36Z</time>
      </trkpt>
      <trkpt lat="45.63303" lon="6.54932">
        <ele>2339</ele>
        <time>2025-02-20T09:40:37Z</time>
      </trkpt>
      <trkpt lat="45.63303" lon="6.54932">
        <ele>2339</ele>
        <time>2025-02-20T09:40:38Z</time>
      </trkpt>
      <trkpt lat="45.63303" lon="6.54932">
        <ele>2339</ele>
        <time>2025-02-20T09:40:39Z</time>
      </trkpt>
      <trkpt lat="45.63303" lon="6.54932">
        <ele>2340</ele>
        <time>2025-02-20T09:40:40Z</time>
      </trkpt>
      <trkpt lat="45.63303" lon="6.54932">
        <ele>2339.8</ele>
        <time>2025-02-20T09:40:41Z</time>
      </trkpt>
      <trkpt lat="45.63303" lon="6.54932">
        <ele>2339.8</ele>
        <time>2025-02-20T09:40:42Z</time>
      </trkpt>
      <trkpt lat="45.63303" lon="6.54932">
        <ele>2339.8</ele>
        <time>2025-02-20T09:40:43Z</time>
      </trkpt>
      <trkpt lat="45.63303" lon="6.54932">
        <ele>2339.2</ele>
        <time>2025-02-20T09:40:44Z</time>
      </trkpt>
      <trkpt lat="45.63303" lon="6.54932">
        <ele>2339.6</ele>
        <time>2025-02-20T09:40:45Z</time>
      </trkpt>
      <trkpt lat="45.63303" lon="6.54932">
        <ele>2339.6</ele>
        <time>2025-02-20T09:40:46Z</time>
      </trkpt>
      <trkpt lat="45.63303" lon="6.54932">
        <ele>2339.6</ele>
        <time>2025-02-20T09:40:47Z</time>
      </trkpt>
      <trkpt lat="45.63303" lon="6.54932">
        <ele>2339.6</ele>
        <time>2025-02-20T09:40:48Z</time>
      </trkpt>
      <trkpt lat="45.63303" lon="6.54932">
        <ele>2339.2</ele>
        <time>2025-02-20T09:40:49Z</time>
      </trkpt>
      <trkpt lat="45.63303" lon="6.54932">
        <ele>2339.2</ele>
        <time>2025-02-20T09:40:50Z</time>
      </trkpt>
      <trkpt lat="45.63303" lon="6.54932">
        <ele>2339.2</ele>
        <time>2025-02-20T09:40:51Z</time>
      </trkpt>
      <trkpt lat="45.63303" lon="6.54932">
        <ele>2339.4</ele>
        <time>2025-02-20T09:40:52Z</time>
      </trkpt>
      <trkpt lat="45.63303" lon="6.54932">
        <ele>2339.2</ele>
        <time>2025-02-20T09:40:53Z</time>
      </trkpt>
      <trkpt lat="45.63303" lon="6.54932">
        <ele>2339.2</ele>
        <time>2025-02-20T09:40:54Z</time>
      </trkpt>
      <trkpt lat="45.63303" lon="6.54932">
        <ele>2339.2</ele>
        <time>2025-02-20T09:40:55Z</time>
      </trkpt>
      <trkpt lat="45.63303" lon="6.54932">
        <ele>2339.8</ele>
        <time>2025-02-20T09:40:56Z</time>
      </trkpt>
      <trkpt lat="45.63303" lon="6.54932">
        <ele>2339.4</ele>
        <time>2025-02-20T09:40:57Z</time>
      </trkpt>
      <trkpt lat="45.63303" lon="6.54932">
        <ele>2339.4</ele>
        <time>2025-02-20T09:40:58Z</time>
      </trkpt>
      <trkpt lat="45.63303" lon="6.54932">
        <ele>2339.4</ele>
        <time>2025-02-20T09:40:59Z</time>
      </trkpt>
      <trkpt lat="45.63303" lon="6.54932">
        <ele>2339.4</ele>
        <time>2025-02-20T09:41:00Z</time>
      </trkpt>
      <trkpt lat="45.63303" lon="6.54932">
        <ele>2339.8</ele>
        <time>2025-02-20T09:41:01Z</time>
      </trkpt>
      <trkpt lat="45.63303" lon="6.54932">
        <ele>2339.8</ele>
        <time>2025-02-20T09:41:02Z</time>
      </trkpt>
      <trkpt lat="45.63303" lon="6.54932">
        <ele>2339.8</ele>
        <time>2025-02-20T09:41:03Z</time>
      </trkpt>
      <trkpt lat="45.63303" lon="6.54932">
        <ele>2339.8</ele>
        <time>2025-02-20T09:41:04Z</time>
      </trkpt>
      <trkpt lat="45.63303" lon="6.54932">
        <ele>2339.2</ele>
        <time>2025-02-20T09:41:05Z</time>
      </trkpt>
      <trkpt lat="45.63303" lon="6.54932">
        <ele>2339.2</ele>
        <time>2025-02-20T09:41:06Z</time>
      </trkpt>
      <trkpt lat="45.63303" lon="6.54932">
        <ele>2339.2</ele>
        <time>2025-02-20T09:41:07Z</time>
      </trkpt>
      <trkpt lat="45.63303" lon="6.54932">
        <ele>2339.2</ele>
        <time>2025-02-20T09:41:08Z</time>
      </trkpt>
      <trkpt lat="45.63303" lon="6.54932">
        <ele>2339</ele>
        <time>2025-02-20T09:41:09Z</time>
      </trkpt>
      <trkpt lat="45.63303" lon="6.54932">
        <ele>2339</ele>
        <time>2025-02-20T09:41:10Z</time>
      </trkpt>
      <trkpt lat="45.63303" lon="6.54932">
        <ele>2339</ele>
        <time>2025-02-20T09:41:11Z</time>
      </trkpt>
      <trkpt lat="45.63303" lon="6.54932">
        <ele>2339</ele>
        <time>2025-02-20T09:41:12Z</time>
      </trkpt>
      <trkpt lat="45.63303" lon="6.54932">
        <ele>2339</ele>
        <time>2025-02-20T09:41:13Z</time>
      </trkpt>
      <trkpt lat="45.63303" lon="6.54932">
        <ele>2339</ele>
        <time>2025-02-20T09:41:14Z</time>
      </trkpt>
      <trkpt lat="45.63303" lon="6.54932">
        <ele>2339</ele>
        <time>2025-02-20T09:41:15Z</time>
      </trkpt>
      <trkpt lat="45.63303" lon="6.54932">
        <ele>2339</ele>
        <time>2025-02-20T09:41:16Z</time>
      </trkpt>
      <trkpt lat="45.63303" lon="6.54932">
        <ele>2339.4</ele>
        <time>2025-02-20T09:41:17Z</time>
      </trkpt>
      <trkpt lat="45.63303" lon="6.54932">
        <ele>2339.4</ele>
        <time>2025-02-20T09:41:18Z</time>
      </trkpt>
      <trkpt lat="45.63303" lon="6.54932">
        <ele>2339.4</ele>
        <time>2025-02-20T09:41:19Z</time>
      </trkpt>
      <trkpt lat="45.63303" lon="6.54932">
        <ele>2339.4</ele>
        <time>2025-02-20T09:41:20Z</time>
      </trkpt>
      <trkpt lat="45.63303" lon="6.54932">
        <ele>2338.8</ele>
        <time>2025-02-20T09:41:21Z</time>
      </trkpt>
      <trkpt lat="45.63303" lon="6.54932">
        <ele>2338.8</ele>
        <time>2025-02-20T09:41:22Z</time>
      </trkpt>
      <trkpt lat="45.63303" lon="6.54932">
        <ele>2338.8</ele>
        <time>2025-02-20T09:41:23Z</time>
      </trkpt>
      <trkpt lat="45.63303" lon="6.54932">
        <ele>2338.8</ele>
        <time>2025-02-20T09:41:24Z</time>
      </trkpt>
      <trkpt lat="45.63303" lon="6.54932">
        <ele>2339</ele>
        <time>2025-02-20T09:41:25Z</time>
      </trkpt>
      <trkpt lat="45.63303" lon="6.54932">
        <ele>2339</ele>
        <time>2025-02-20T09:41:26Z</time>
      </trkpt>
      <trkpt lat="45.63303" lon="6.54932">
        <ele>2339</ele>
        <time>2025-02-20T09:41:27Z</time>
      </trkpt>
      <trkpt lat="45.63303" lon="6.54932">
        <ele>2339</ele>
        <time>2025-02-20T09:41:28Z</time>
      </trkpt>
      <trkpt lat="45.63303" lon="6.54932">
        <ele>2339.6</ele>
        <time>2025-02-20T09:41:29Z</time>
      </trkpt>
      <trkpt lat="45.63303" lon="6.54932">
        <ele>2339.6</ele>
        <time>2025-02-20T09:41:30Z</time>
      </trkpt>
      <trkpt lat="45.63303" lon="6.54932">
        <ele>2339.6</ele>
        <time>2025-02-20T09:41:31Z</time>
      </trkpt>
      <trkpt lat="45.63303" lon="6.54932">
        <ele>2339.4</ele>
        <time>2025-02-20T09:41:32Z</time>
      </trkpt>
      <trkpt lat="45.63303" lon="6.54932">
        <ele>2339</ele>
        <time>2025-02-20T09:41:33Z</time>
      </trkpt>
      <trkpt lat="45.63303" lon="6.54932">
        <ele>2339</ele>
        <time>2025-02-20T09:41:34Z</time>
      </trkpt>
      <trkpt lat="45.63303" lon="6.54932">
        <ele>2339</ele>
        <time>2025-02-20T09:41:35Z</time>
      </trkpt>
      <trkpt lat="45.63303" lon="6.54932">
        <ele>2339.2</ele>
        <time>2025-02-20T09:41:36Z</time>
      </trkpt>
      <trkpt lat="45.63303" lon="6.54932">
        <ele>2339.4</ele>
        <time>2025-02-20T09:41:37Z</time>
      </trkpt>
      <trkpt lat="45.63303" lon="6.54932">
        <ele>2339.4</ele>
        <time>2025-02-20T09:41:38Z</time>
      </trkpt>
      <trkpt lat="45.63303" lon="6.54932">
        <ele>2339.4</ele>
        <time>2025-02-20T09:41:39Z</time>
      </trkpt>
      <trkpt lat="45.63303" lon="6.54932">
        <ele>2339.4</ele>
        <time>2025-02-20T09:41:40Z</time>
      </trkpt>
      <trkpt lat="45.63303" lon="6.54932">
        <ele>2340.2</ele>
        <time>2025-02-20T09:41:41Z</time>
      </trkpt>
      <trkpt lat="45.63303" lon="6.54932">
        <ele>2340.2</ele>
        <time>2025-02-20T09:41:42Z</time>
      </trkpt>
      <trkpt lat="45.63303" lon="6.54932">
        <ele>2340.2</ele>
        <time>2025-02-20T09:41:43Z</time>
      </trkpt>
      <trkpt lat="45.63303" lon="6.54932">
        <ele>2339.4</ele>
        <time>2025-02-20T09:41:44Z</time>
      </trkpt>
      <trkpt lat="45.63303" lon="6.54932">
        <ele>2339.6</ele>
        <time>2025-02-20T09:41:45Z</time>
      </trkpt>
      <trkpt lat="45.63303" lon="6.54932">
        <ele>2339.6</ele>
        <time>2025-02-20T09:41:46Z</time>
      </trkpt>
      <trkpt lat="45.63303" lon="6.54932">
        <ele>2339.6</ele>
        <time>2025-02-20T09:41:47Z</time>
      </trkpt>
      <trkpt lat="45.63303" lon="6.54932">
        <ele>2339.6</ele>
        <time>2025-02-20T09:41:48Z</time>
      </trkpt>
      <trkpt lat="45.63303" lon="6.54932">
        <ele>2339.2</ele>
        <time>2025-02-20T09:41:49Z</time>
      </trkpt>
      <trkpt lat="45.63303" lon="6.54932">
        <ele>2339.2</ele>
        <time>2025-02-20T09:41:50Z</time>
      </trkpt>
      <trkpt lat="45.63303" lon="6.54932">
        <ele>2339.2</ele>
        <time>2025-02-20T09:41:51Z</time>
      </trkpt>
      <trkpt lat="45.63303" lon="6.54932">
        <ele>2339.4</ele>
        <time>2025-02-20T09:41:52Z</time>
      </trkpt>
      <trkpt lat="45.63303" lon="6.54932">
        <ele>2339.2</ele>
        <time>2025-02-20T09:41:53Z</time>
      </trkpt>
      <trkpt lat="45.63303" lon="6.54932">
        <ele>2339.2</ele>
        <time>2025-02-20T09:41:54Z</time>
      </trkpt>
      <trkpt lat="45.63303" lon="6.54932">
        <ele>2339.2</ele>
        <time>2025-02-20T09:41:55Z</time>
      </trkpt>
      <trkpt lat="45.63303" lon="6.54932">
        <ele>2339.8</ele>
        <time>2025-02-20T09:41:56Z</time>
      </trkpt>
      <trkpt lat="45.63303" lon="6.54932">
        <ele>2339.2</ele>
        <time>2025-02-20T09:41:57Z</time>
      </trkpt>
      <trkpt lat="45.63303" lon="6.54932">
        <ele>2339.2</ele>
        <time>2025-02-20T09:41:58Z</time>
      </trkpt>
      <trkpt lat="45.63303" lon="6.54932">
        <ele>2339.2</ele>
        <time>2025-02-20T09:41:59Z</time>
      </trkpt>
      <trkpt lat="45.63303" lon="6.54932">
        <ele>2339.2</ele>
        <time>2025-02-20T09:42:00Z</time>
      </trkpt>
      <trkpt lat="45.63303" lon="6.54932">
        <ele>2339.8</ele>
        <time>2025-02-20T09:42:01Z</time>
      </trkpt>
      <trkpt lat="45.63303" lon="6.54932">
        <ele>2339.8</ele>
        <time>2025-02-20T09:42:02Z</time>
      </trkpt>
      <trkpt lat="45.63303" lon="6.54932">
        <ele>2339.8</ele>
        <time>2025-02-20T09:42:03Z</time>
      </trkpt>
      <trkpt lat="45.63303" lon="6.54932">
        <ele>2339.2</ele>
        <time>2025-02-20T09:42:04Z</time>
      </trkpt>
      <trkpt lat="45.63303" lon="6.54932">
        <ele>2339.6</ele>
        <time>2025-02-20T09:42:05Z</time>
      </trkpt>
      <trkpt lat="45.63303" lon="6.54932">
        <ele>2339.6</ele>
        <time>2025-02-20T09:42:06Z</time>
      </trkpt>
      <trkpt lat="45.63303" lon="6.54932">
        <ele>2339.6</ele>
        <time>2025-02-20T09:42:07Z</time>
      </trkpt>
      <trkpt lat="45.63303" lon="6.54932">
        <ele>2339.8</ele>
        <time>2025-02-20T09:42:08Z</time>
      </trkpt>
      <trkpt lat="45.63303" lon="6.54932">
        <ele>2340</ele>
        <time>2025-02-20T09:42:09Z</time>
      </trkpt>
      <trkpt lat="45.63303" lon="6.54932">
        <ele>2340</ele>
        <time>2025-02-20T09:42:10Z</time>
      </trkpt>
      <trkpt lat="45.63303" lon="6.54932">
        <ele>2340</ele>
        <time>2025-02-20T09:42:11Z</time>
      </trkpt>
      <trkpt lat="45.63303" lon="6.54932">
        <ele>2339.6</ele>
        <time>2025-02-20T09:42:12Z</time>
      </trkpt>
      <trkpt lat="45.63303" lon="6.54932">
        <ele>2339.2</ele>
        <time>2025-02-20T09:42:13Z</time>
      </trkpt>
      <trkpt lat="45.63303" lon="6.54932">
        <ele>2339.2</ele>
        <time>2025-02-20T09:42:14Z</time>
      </trkpt>
      <trkpt lat="45.63303" lon="6.54932">
        <ele>2339.2</ele>
        <time>2025-02-20T09:42:15Z</time>
      </trkpt>
      <trkpt lat="45.63303" lon="6.54932">
        <ele>2339.2</ele>
        <time>2025-02-20T09:42:16Z</time>
      </trkpt>
      <trkpt lat="45.63303" lon="6.54932">
        <ele>2339.8</ele>
        <time>2025-02-20T09:42:17Z</time>
      </trkpt>
      <trkpt lat="45.63303" lon="6.54932">
        <ele>2339.8</ele>
        <time>2025-02-20T09:42:18Z</time>
      </trkpt>
      <trkpt lat="45.63303" lon="6.54932">
        <ele>2339.8</ele>
        <time>2025-02-20T09:42:19Z</time>
      </trkpt>
      <trkpt lat="45.63303" lon="6.54932">
        <ele>2339.8</ele>
        <time>2025-02-20T09:42:20Z</time>
      </trkpt>
      <trkpt lat="45.63303" lon="6.54932">
        <ele>2340</ele>
        <time>2025-02-20T09:42:21Z</time>
      </trkpt>
      <trkpt lat="45.63303" lon="6.54932">
        <ele>2340</ele>
        <time>2025-02-20T09:42:22Z</time>
      </trkpt>
      <trkpt lat="45.63303" lon="6.54932">
        <ele>2340</ele>
        <time>2025-02-20T09:42:23Z</time>
      </trkpt>
      <trkpt lat="45.63303" lon="6.54932">
        <ele>2340</ele>
        <time>2025-02-20T09:42:24Z</time>
      </trkpt>
      <trkpt lat="45.63303" lon="6.54932">
        <ele>2339.4</ele>
        <time>2025-02-20T09:42:25Z</time>
      </trkpt>
      <trkpt lat="45.63303" lon="6.54932">
        <ele>2339.4</ele>
        <time>2025-02-20T09:42:26Z</time>
      </trkpt>
      <trkpt lat="45.63303" lon="6.54932">
        <ele>2339.4</ele>
        <time>2025-02-20T09:42:27Z</time>
      </trkpt>
      <trkpt lat="45.63303" lon="6.54932">
        <ele>2339.6</ele>
        <time>2025-02-20T09:42:28Z</time>
      </trkpt>
      <trkpt lat="45.63303" lon="6.54932">
        <ele>2339.4</ele>
        <time>2025-02-20T09:42:29Z</time>
      </trkpt>
      <trkpt lat="45.63303" lon="6.54932">
        <ele>2339.4</ele>
        <time>2025-02-20T09:42:30Z</time>
      </trkpt>
      <trkpt lat="45.63303" lon="6.54932">
        <ele>2339.4</ele>
        <time>2025-02-20T09:42:31Z</time>
      </trkpt>
      <trkpt lat="45.63303" lon="6.54932">
        <ele>2339.8</ele>
        <time>2025-02-20T09:42:32Z</time>
      </trkpt>
      <trkpt lat="45.63303" lon="6.54932">
        <ele>2339.6</ele>
        <time>2025-02-20T09:42:33Z</time>
      </trkpt>
      <trkpt lat="45.63303" lon="6.54932">
        <ele>2339.6</ele>
        <time>2025-02-20T09:42:34Z</time>
      </trkpt>
      <trkpt lat="45.63303" lon="6.54932">
        <ele>2339.6</ele>
        <time>2025-02-20T09:42:35Z</time>
      </trkpt>
      <trkpt lat="45.63303" lon="6.54932">
        <ele>2339.6</ele>
        <time>2025-02-20T09:42:36Z</time>
      </trkpt>
      <trkpt lat="45.63303" lon="6.54932">
        <ele>2339.8</ele>
        <time>2025-02-20T09:42:37Z</time>
      </trkpt>
      <trkpt lat="45.63303" lon="6.54932">
        <ele>2339.8</ele>
        <time>2025-02-20T09:42:38Z</time>
      </trkpt>
      <trkpt lat="45.63303" lon="6.54932">
        <ele>2339.8</ele>
        <time>2025-02-20T09:42:39Z</time>
      </trkpt>
      <trkpt lat="45.63303" lon="6.54932">
        <ele>2339.8</ele>
        <time>2025-02-20T09:42:40Z</time>
      </trkpt>
      <trkpt lat="45.63303" lon="6.54932">
        <ele>2339.8</ele>
        <time>2025-02-20T09:42:41Z</time>
      </trkpt>
      <trkpt lat="45.63303" lon="6.54932">
        <ele>2339.8</ele>
        <time>2025-02-20T09:42:42Z</time>
      </trkpt>
      <trkpt lat="45.63303" lon="6.54932">
        <ele>2339.8</ele>
        <time>2025-02-20T09:42:43Z</time>
      </trkpt>
      <trkpt lat="45.63303" lon="6.54932">
        <ele>2339.8</ele>
        <time>2025-02-20T09:42:44Z</time>
      </trkpt>
      <trkpt lat="45.63303" lon="6.54932">
        <ele>2339.8</ele>
        <time>2025-02-20T09:42:45Z</time>
      </trkpt>
      <trkpt lat="45.63303" lon="6.54932">
        <ele>2339.8</ele>
        <time>2025-02-20T09:42:46Z</time>
      </trkpt>
      <trkpt lat="45.63303" lon="6.54932">
        <ele>2339.8</ele>
        <time>2025-02-20T09:42:47Z</time>
      </trkpt>
      <trkpt lat="45.63303" lon="6.54932">
        <ele>2339.8</ele>
        <time>2025-02-20T09:42:48Z</time>
      </trkpt>
      <trkpt lat="45.63303" lon="6.54932">
        <ele>2339.6</ele>
        <time>2025-02-20T09:42:49Z</time>
      </trkpt>
      <trkpt lat="45.63303" lon="6.54932">
        <ele>2339.6</ele>
        <time>2025-02-20T09:42:50Z</time>
      </trkpt>
      <trkpt lat="45.63303" lon="6.54932">
        <ele>2339.6</ele>
        <time>2025-02-20T09:42:51Z</time>
      </trkpt>
      <trkpt lat="45.63303" lon="6.54932">
        <ele>2340.2</ele>
        <time>2025-02-20T09:42:52Z</time>
      </trkpt>
      <trkpt lat="45.63303" lon="6.54932">
        <ele>2340.4</ele>
        <time>2025-02-20T09:42:53Z</time>
      </trkpt>
      <trkpt lat="45.63303" lon="6.54932">
        <ele>2340.4</ele>
        <time>2025-02-20T09:42:54Z</time>
      </trkpt>
      <trkpt lat="45.63303" lon="6.54932">
        <ele>2340.4</ele>
        <time>2025-02-20T09:42:55Z</time>
      </trkpt>
      <trkpt lat="45.63303" lon="6.54932">
        <ele>2340.4</ele>
        <time>2025-02-20T09:42:56Z</time>
      </trkpt>
      <trkpt lat="45.63303" lon="6.54932">
        <ele>2339.8</ele>
        <time>2025-02-20T09:42:57Z</time>
      </trkpt>
      <trkpt lat="45.63303" lon="6.54932">
        <ele>2339.8</ele>
        <time>2025-02-20T09:42:58Z</time>
      </trkpt>
      <trkpt lat="45.63303" lon="6.54932">
        <ele>2339.8</ele>
        <time>2025-02-20T09:42:59Z</time>
      </trkpt>
      <trkpt lat="45.63303" lon="6.54932">
        <ele>2339.6</ele>
        <time>2025-02-20T09:43:00Z</time>
      </trkpt>
      <trkpt lat="45.63303" lon="6.54932">
        <ele>2340</ele>
        <time>2025-02-20T09:43:01Z</time>
      </trkpt>
      <trkpt lat="45.63303" lon="6.54932">
        <ele>2340</ele>
        <time>2025-02-20T09:43:02Z</time>
      </trkpt>
      <trkpt lat="45.63303" lon="6.54932">
        <ele>2340</ele>
        <time>2025-02-20T09:43:03Z</time>
      </trkpt>
      <trkpt lat="45.63303" lon="6.54932">
        <ele>2340</ele>
        <time>2025-02-20T09:43:04Z</time>
      </trkpt>
      <trkpt lat="45.63303" lon="6.54932">
        <ele>2339.8</ele>
        <time>2025-02-20T09:43:05Z</time>
      </trkpt>
      <trkpt lat="45.63303" lon="6.54932">
        <ele>2339.8</ele>
        <time>2025-02-20T09:43:06Z</time>
      </trkpt>
      <trkpt lat="45.63303" lon="6.54932">
        <ele>2339.8</ele>
        <time>2025-02-20T09:43:07Z</time>
      </trkpt>
      <trkpt lat="45.63303" lon="6.54932">
        <ele>2339.4</ele>
        <time>2025-02-20T09:43:08Z</time>
      </trkpt>
      <trkpt lat="45.63303" lon="6.54932">
        <ele>2339.6</ele>
        <time>2025-02-20T09:43:09Z</time>
      </trkpt>
      <trkpt lat="45.63303" lon="6.54932">
        <ele>2339.6</ele>
        <time>2025-02-20T09:43:10Z</time>
      </trkpt>
      <trkpt lat="45.63303" lon="6.54932">
        <ele>2339.6</ele>
        <time>2025-02-20T09:43:11Z</time>
      </trkpt>
      <trkpt lat="45.63303" lon="6.54932">
        <ele>2339.6</ele>
        <time>2025-02-20T09:43:12Z</time>
      </trkpt>
      <trkpt lat="45.63303" lon="6.54932">
        <ele>2339.8</ele>
        <time>2025-02-20T09:43:13Z</time>
      </trkpt>
      <trkpt lat="45.63303" lon="6.54932">
        <ele>2339.8</ele>
        <time>2025-02-20T09:43:14Z</time>
      </trkpt>
      <trkpt lat="45.63303" lon="6.54932">
        <ele>2339.8</ele>
        <time>2025-02-20T09:43:15Z</time>
      </trkpt>
      <trkpt lat="45.63303" lon="6.54932">
        <ele>2339.8</ele>
        <time>2025-02-20T09:43:16Z</time>
      </trkpt>
      <trkpt lat="45.63303" lon="6.54932">
        <ele>2339.4</ele>
        <time>2025-02-20T09:43:17Z</time>
      </trkpt>
      <trkpt lat="45.63303" lon="6.54932">
        <ele>2339.4</ele>
        <time>2025-02-20T09:43:18Z</time>
      </trkpt>
      <trkpt lat="45.63303" lon="6.54932">
        <ele>2339.4</ele>
        <time>2025-02-20T09:43:19Z</time>
      </trkpt>
      <trkpt lat="45.63303" lon="6.54932">
        <ele>2339.4</ele>
        <time>2025-02-20T09:43:20Z</time>
      </trkpt>
      <trkpt lat="45.63303" lon="6.54932">
        <ele>2339.4</ele>
        <time>2025-02-20T09:43:21Z</time>
      </trkpt>
      <trkpt lat="45.63303" lon="6.54932">
        <ele>2339.4</ele>
        <time>2025-02-20T09:43:22Z</time>
      </trkpt>
      <trkpt lat="45.63303" lon="6.54932">
        <ele>2339.4</ele>
        <time>2025-02-20T09:43:23Z</time>
      </trkpt>
      <trkpt lat="45.63303" lon="6.54932">
        <ele>2340.2</ele>
        <time>2025-02-20T09:43:24Z</time>
      </trkpt>
      <trkpt lat="45.63303" lon="6.54932">
        <ele>2340</ele>
        <time>2025-02-20T09:43:25Z</time>
      </trkpt>
      <trkpt lat="45.63303" lon="6.54932">
        <ele>2340</ele>
        <time>2025-02-20T09:43:26Z</time>
      </trkpt>
      <trkpt lat="45.63303" lon="6.54932">
        <ele>2340</ele>
        <time>2025-02-20T09:43:27Z</time>
      </trkpt>
      <trkpt lat="45.63303" lon="6.54932">
        <ele>2339.8</ele>
        <time>2025-02-20T09:43:28Z</time>
      </trkpt>
      <trkpt lat="45.63303" lon="6.54932">
        <ele>2340</ele>
        <time>2025-02-20T09:43:29Z</time>
      </trkpt>
      <trkpt lat="45.63303" lon="6.54932">
        <ele>2340</ele>
        <time>2025-02-20T09:43:30Z</time>
      </trkpt>
      <trkpt lat="45.63303" lon="6.54932">
        <ele>2340</ele>
        <time>2025-02-20T09:43:31Z</time>
      </trkpt>
      <trkpt lat="45.63303" lon="6.54932">
        <ele>2340</ele>
        <time>2025-02-20T09:43:32Z</time>
      </trkpt>
      <trkpt lat="45.63303" lon="6.54932">
        <ele>2340</ele>
        <time>2025-02-20T09:43:33Z</time>
      </trkpt>
      <trkpt lat="45.63303" lon="6.54932">
        <ele>2340</ele>
        <time>2025-02-20T09:43:34Z</time>
      </trkpt>
      <trkpt lat="45.63303" lon="6.54932">
        <ele>2340</ele>
        <time>2025-02-20T09:43:35Z</time>
      </trkpt>
      <trkpt lat="45.63303" lon="6.54932">
        <ele>2340</ele>
        <time>2025-02-20T09:43:36Z</time>
      </trkpt>
      <trkpt lat="45.63303" lon="6.54932">
        <ele>2339.8</ele>
        <time>2025-02-20T09:43:37Z</time>
      </trkpt>
      <trkpt lat="45.63303" lon="6.54932">
        <ele>2339.8</ele>
        <time>2025-02-20T09:43:38Z</time>
      </trkpt>
      <trkpt lat="45.63303" lon="6.54932">
        <ele>2339.8</ele>
        <time>2025-02-20T09:43:39Z</time>
      </trkpt>
      <trkpt lat="45.63303" lon="6.54932">
        <ele>2340</ele>
        <time>2025-02-20T09:43:40Z</time>
      </trkpt>
      <trkpt lat="45.63303" lon="6.54932">
        <ele>2339.8</ele>
        <time>2025-02-20T09:43:41Z</time>
      </trkpt>
      <trkpt lat="45.63303" lon="6.54932">
        <ele>2339.8</ele>
        <time>2025-02-20T09:43:42Z</time>
      </trkpt>
      <trkpt lat="45.63303" lon="6.54932">
        <ele>2339.8</ele>
        <time>2025-02-20T09:43:43Z</time>
      </trkpt>
      <trkpt lat="45.63303" lon="6.54932">
        <ele>2339.8</ele>
        <time>2025-02-20T09:43:44Z</time>
      </trkpt>
      <trkpt lat="45.63303" lon="6.54932">
        <ele>2339.8</ele>
        <time>2025-02-20T09:43:45Z</time>
      </trkpt>
      <trkpt lat="45.63303" lon="6.54932">
        <ele>2339.8</ele>
        <time>2025-02-20T09:43:46Z</time>
      </trkpt>
      <trkpt lat="45.63303" lon="6.54932">
        <ele>2339.8</ele>
        <time>2025-02-20T09:43:47Z</time>
      </trkpt>
      <trkpt lat="45.63303" lon="6.54932">
        <ele>2339.8</ele>
        <time>2025-02-20T09:43:48Z</time>
      </trkpt>
      <trkpt lat="45.63303" lon="6.54932">
        <ele>2339.8</ele>
        <time>2025-02-20T09:43:49Z</time>
      </trkpt>
      <trkpt lat="45.63303" lon="6.54932">
        <ele>2339.8</ele>
        <time>2025-02-20T09:43:50Z</time>
      </trkpt>
      <trkpt lat="45.63303" lon="6.54932">
        <ele>2339.8</ele>
        <time>2025-02-20T09:43:51Z</time>
      </trkpt>
      <trkpt lat="45.63303" lon="6.54932">
        <ele>2339.8</ele>
        <time>2025-02-20T09:43:52Z</time>
      </trkpt>
      <trkpt lat="45.63303" lon="6.54932">
        <ele>2340</ele>
        <time>2025-02-20T09:43:53Z</time>
      </trkpt>
      <trkpt lat="45.63303" lon="6.54932">
        <ele>2340</ele>
        <time>2025-02-20T09:43:54Z</time>
      </trkpt>
      <trkpt lat="45.63303" lon="6.54932">
        <ele>2340</ele>
        <time>2025-02-20T09:43:55Z</time>
      </trkpt>
      <trkpt lat="45.63303" lon="6.54932">
        <ele>2340</ele>
        <time>2025-02-20T09:43:56Z</time>
      </trkpt>
      <trkpt lat="45.63303" lon="6.54932">
        <ele>2339.8</ele>
        <time>2025-02-20T09:43:57Z</time>
      </trkpt>
      <trkpt lat="45.63303" lon="6.54932">
        <ele>2339.8</ele>
        <time>2025-02-20T09:43:58Z</time>
      </trkpt>
      <trkpt lat="45.63303" lon="6.54932">
        <ele>2339.8</ele>
        <time>2025-02-20T09:43:59Z</time>
      </trkpt>
      <trkpt lat="45.63303" lon="6.54932">
        <ele>2339.8</ele>
        <time>2025-02-20T09:44:00Z</time>
      </trkpt>
      <trkpt lat="45.63303" lon="6.54932">
        <ele>2339.8</ele>
        <time>2025-02-20T09:44:01Z</time>
      </trkpt>
      <trkpt lat="45.63303" lon="6.54932">
        <ele>2339.8</ele>
        <time>2025-02-20T09:44:02Z</time>
      </trkpt>
      <trkpt lat="45.63303" lon="6.54932">
        <ele>2339.8</ele>
        <time>2025-02-20T09:44:03Z</time>
      </trkpt>
      <trkpt lat="45.63303" lon="6.54932">
        <ele>2339.8</ele>
        <time>2025-02-20T09:44:04Z</time>
      </trkpt>
      <trkpt lat="45.63303" lon="6.54932">
        <ele>2340</ele>
        <time>2025-02-20T09:44:05Z</time>
      </trkpt>
      <trkpt lat="45.63303" lon="6.54932">
        <ele>2340</ele>
        <time>2025-02-20T09:44:06Z</time>
      </trkpt>
      <trkpt lat="45.63303" lon="6.54932">
        <ele>2340</ele>
        <time>2025-02-20T09:44:07Z</time>
      </trkpt>
      <trkpt lat="45.63303" lon="6.54932">
        <ele>2340</ele>
        <time>2025-02-20T09:44:08Z</time>
      </trkpt>
      <trkpt lat="45.63303" lon="6.54932">
        <ele>2339.6</ele>
        <time>2025-02-20T09:44:09Z</time>
      </trkpt>
      <trkpt lat="45.63303" lon="6.54932">
        <ele>2339.6</ele>
        <time>2025-02-20T09:44:10Z</time>
      </trkpt>
      <trkpt lat="45.63303" lon="6.54932">
        <ele>2339.6</ele>
        <time>2025-02-20T09:44:11Z</time>
      </trkpt>
      <trkpt lat="45.63303" lon="6.54932">
        <ele>2339.6</ele>
        <time>2025-02-20T09:44:12Z</time>
      </trkpt>
      <trkpt lat="45.63303" lon="6.54932">
        <ele>2340</ele>
        <time>2025-02-20T09:44:13Z</time>
      </trkpt>
      <trkpt lat="45.63303" lon="6.54932">
        <ele>2340</ele>
        <time>2025-02-20T09:44:14Z</time>
      </trkpt>
      <trkpt lat="45.63303" lon="6.54932">
        <ele>2340</ele>
        <time>2025-02-20T09:44:15Z</time>
      </trkpt>
      <trkpt lat="45.63303" lon="6.54932">
        <ele>2340</ele>
        <time>2025-02-20T09:44:16Z</time>
      </trkpt>
      <trkpt lat="45.63303" lon="6.54932">
        <ele>2340</ele>
        <time>2025-02-20T09:44:17Z</time>
      </trkpt>
      <trkpt lat="45.63303" lon="6.54932">
        <ele>2340</ele>
        <time>2025-02-20T09:44:18Z</time>
      </trkpt>
      <trkpt lat="45.63303" lon="6.54932">
        <ele>2340</ele>
        <time>2025-02-20T09:44:19Z</time>
      </trkpt>
      <trkpt lat="45.63303" lon="6.54932">
        <ele>2340</ele>
        <time>2025-02-20T09:44:20Z</time>
      </trkpt>
      <trkpt lat="45.63303" lon="6.54932">
        <ele>2340.2</ele>
        <time>2025-02-20T09:44:21Z</time>
      </trkpt>
      <trkpt lat="45.63303" lon="6.54932">
        <ele>2340.2</ele>
        <time>2025-02-20T09:44:22Z</time>
      </trkpt>
      <trkpt lat="45.63303" lon="6.54932">
        <ele>2340.2</ele>
        <time>2025-02-20T09:44:23Z</time>
      </trkpt>
      <trkpt lat="45.63303" lon="6.54932">
        <ele>2340</ele>
        <time>2025-02-20T09:44:24Z</time>
      </trkpt>
      <trkpt lat="45.63303" lon="6.54932">
        <ele>2339.6</ele>
        <time>2025-02-20T09:44:25Z</time>
      </trkpt>
      <trkpt lat="45.63303" lon="6.54932">
        <ele>2339.6</ele>
        <time>2025-02-20T09:44:26Z</time>
      </trkpt>
      <trkpt lat="45.63303" lon="6.54932">
        <ele>2339.6</ele>
        <time>2025-02-20T09:44:27Z</time>
      </trkpt>
      <trkpt lat="45.63303" lon="6.54932">
        <ele>2340</ele>
        <time>2025-02-20T09:44:28Z</time>
      </trkpt>
      <trkpt lat="45.63303" lon="6.54932">
        <ele>2339.8</ele>
        <time>2025-02-20T09:44:29Z</time>
      </trkpt>
      <trkpt lat="45.63303" lon="6.54932">
        <ele>2339.8</ele>
        <time>2025-02-20T09:44:30Z</time>
      </trkpt>
      <trkpt lat="45.63303" lon="6.54932">
        <ele>2339.8</ele>
        <time>2025-02-20T09:44:31Z</time>
      </trkpt>
      <trkpt lat="45.63303" lon="6.54932">
        <ele>2339.8</ele>
        <time>2025-02-20T09:44:32Z</time>
      </trkpt>
      <trkpt lat="45.63303" lon="6.54932">
        <ele>2340</ele>
        <time>2025-02-20T09:44:33Z</time>
      </trkpt>
      <trkpt lat="45.63303" lon="6.54932">
        <ele>2340</ele>
        <time>2025-02-20T09:44:34Z</time>
      </trkpt>
      <trkpt lat="45.63303" lon="6.54932">
        <ele>2340</ele>
        <time>2025-02-20T09:44:35Z</time>
      </trkpt>
      <trkpt lat="45.63303" lon="6.54932">
        <ele>2340</ele>
        <time>2025-02-20T09:44:36Z</time>
      </trkpt>
      <trkpt lat="45.63303" lon="6.54932">
        <ele>2340</ele>
        <time>2025-02-20T09:44:37Z</time>
      </trkpt>
      <trkpt lat="45.63303" lon="6.54932">
        <ele>2340</ele>
        <time>2025-02-20T09:44:38Z</time>
      </trkpt>
      <trkpt lat="45.63303" lon="6.54932">
        <ele>2340</ele>
        <time>2025-02-20T09:44:39Z</time>
      </trkpt>
      <trkpt lat="45.63303" lon="6.54932">
        <ele>2340</ele>
        <time>2025-02-20T09:44:40Z</time>
      </trkpt>
      <trkpt lat="45.63303" lon="6.54932">
        <ele>2339.8</ele>
        <time>2025-02-20T09:44:41Z</time>
      </trkpt>
      <trkpt lat="45.63303" lon="6.54932">
        <ele>2339.8</ele>
        <time>2025-02-20T09:44:42Z</time>
      </trkpt>
      <trkpt lat="45.63303" lon="6.54932">
        <ele>2339.8</ele>
        <time>2025-02-20T09:44:43Z</time>
      </trkpt>
      <trkpt lat="45.63303" lon="6.54932">
        <ele>2339.8</ele>
        <time>2025-02-20T09:44:44Z</time>
      </trkpt>
      <trkpt lat="45.63303" lon="6.54932">
        <ele>2339.8</ele>
        <time>2025-02-20T09:44:45Z</time>
      </trkpt>
      <trkpt lat="45.63303" lon="6.54932">
        <ele>2339.8</ele>
        <time>2025-02-20T09:44:46Z</time>
      </trkpt>
      <trkpt lat="45.63303" lon="6.54932">
        <ele>2339.8</ele>
        <time>2025-02-20T09:44:47Z</time>
      </trkpt>
      <trkpt lat="45.63303" lon="6.54932">
        <ele>2339.8</ele>
        <time>2025-02-20T09:44:48Z</time>
      </trkpt>
      <trkpt lat="45.63303" lon="6.54932">
        <ele>2339.8</ele>
        <time>2025-02-20T09:44:49Z</time>
      </trkpt>
      <trkpt lat="45.63303" lon="6.54932">
        <ele>2339.8</ele>
        <time>2025-02-20T09:44:50Z</time>
      </trkpt>
      <trkpt lat="45.63303" lon="6.54932">
        <ele>2339.8</ele>
        <time>2025-02-20T09:44:51Z</time>
      </trkpt>
      <trkpt lat="45.63303" lon="6.54932">
        <ele>2339.6</ele>
        <time>2025-02-20T09:44:52Z</time>
      </trkpt>
      <trkpt lat="45.63303" lon="6.54932">
        <ele>2339.6</ele>
        <time>2025-02-20T09:44:53Z</time>
      </trkpt>
      <trkpt lat="45.63303" lon="6.54932">
        <ele>2339.6</ele>
        <time>2025-02-20T09:44:54Z</time>
      </trkpt>
      <trkpt lat="45.63303" lon="6.54932">
        <ele>2339.6</ele>
        <time>2025-02-20T09:44:55Z</time>
      </trkpt>
      <trkpt lat="45.63303" lon="6.54932">
        <ele>2339.6</ele>
        <time>2025-02-20T09:44:56Z</time>
      </trkpt>
      <trkpt lat="45.63303" lon="6.54932">
        <ele>2340</ele>
        <time>2025-02-20T09:44:57Z</time>
      </trkpt>
      <trkpt lat="45.63303" lon="6.54932">
        <ele>2340</ele>
        <time>2025-02-20T09:44:58Z</time>
      </trkpt>
      <trkpt lat="45.63303" lon="6.54932">
        <ele>2340</ele>
        <time>2025-02-20T09:44:59Z</time>
      </trkpt>
      <trkpt lat="45.63303" lon="6.54932">
        <ele>2340</ele>
        <time>2025-02-20T09:45:00Z</time>
      </trkpt>
      <trkpt lat="45.63303" lon="6.54932">
        <ele>2340.2</ele>
        <time>2025-02-20T09:45:01Z</time>
      </trkpt>
      <trkpt lat="45.63303" lon="6.54932">
        <ele>2340.2</ele>
        <time>2025-02-20T09:45:02Z</time>
      </trkpt>
      <trkpt lat="45.63303" lon="6.54932">
        <ele>2340.2</ele>
        <time>2025-02-20T09:45:03Z</time>
      </trkpt>
      <trkpt lat="45.63303" lon="6.54932">
        <ele>2340</ele>
        <time>2025-02-20T09:45:04Z</time>
      </trkpt>
      <trkpt lat="45.63303" lon="6.54932">
        <ele>2339.8</ele>
        <time>2025-02-20T09:45:05Z</time>
      </trkpt>
      <trkpt lat="45.63303" lon="6.54932">
        <ele>2339.8</ele>
        <time>2025-02-20T09:45:06Z</time>
      </trkpt>
      <trkpt lat="45.63303" lon="6.54932">
        <ele>2339.8</ele>
        <time>2025-02-20T09:45:07Z</time>
      </trkpt>
      <trkpt lat="45.63303" lon="6.54932">
        <ele>2339.4</ele>
        <time>2025-02-20T09:45:08Z</time>
      </trkpt>
      <trkpt lat="45.63303" lon="6.54932">
        <ele>2339.2</ele>
        <time>2025-02-20T09:45:09Z</time>
      </trkpt>
      <trkpt lat="45.63303" lon="6.54932">
        <ele>2339.2</ele>
        <time>2025-02-20T09:45:10Z</time>
      </trkpt>
      <trkpt lat="45.63303" lon="6.54932">
        <ele>2339.2</ele>
        <time>2025-02-20T09:45:11Z</time>
      </trkpt>
      <trkpt lat="45.63303" lon="6.54932">
        <ele>2339.2</ele>
        <time>2025-02-20T09:45:12Z</time>
      </trkpt>
      <trkpt lat="45.63303" lon="6.54932">
        <ele>2339.6</ele>
        <time>2025-02-20T09:45:13Z</time>
      </trkpt>
      <trkpt lat="45.63303" lon="6.54932">
        <ele>2339.6</ele>
        <time>2025-02-20T09:45:14Z</time>
      </trkpt>
      <trkpt lat="45.63303" lon="6.54932">
        <ele>2339.6</ele>
        <time>2025-02-20T09:45:15Z</time>
      </trkpt>
      <trkpt lat="45.63303" lon="6.54932">
        <ele>2339.4</ele>
        <time>2025-02-20T09:45:16Z</time>
      </trkpt>
      <trkpt lat="45.63303" lon="6.54932">
        <ele>2339.4</ele>
        <time>2025-02-20T09:45:17Z</time>
      </trkpt>
      <trkpt lat="45.63303" lon="6.54932">
        <ele>2339.4</ele>
        <time>2025-02-20T09:45:18Z</time>
      </trkpt>
      <trkpt lat="45.63303" lon="6.54932">
        <ele>2339.4</ele>
        <time>2025-02-20T09:45:19Z</time>
      </trkpt>
      <trkpt lat="45.63303" lon="6.54932">
        <ele>2339.4</ele>
        <time>2025-02-20T09:45:20Z</time>
      </trkpt>
      <trkpt lat="45.63303" lon="6.54932">
        <ele>2339.8</ele>
        <time>2025-02-20T09:45:21Z</time>
      </trkpt>
      <trkpt lat="45.63303" lon="6.54932">
        <ele>2339.8</ele>
        <time>2025-02-20T09:45:22Z</time>
      </trkpt>
      <trkpt lat="45.63303" lon="6.54932">
        <ele>2339.8</ele>
        <time>2025-02-20T09:45:23Z</time>
      </trkpt>
      <trkpt lat="45.63303" lon="6.54932">
        <ele>2339.8</ele>
        <time>2025-02-20T09:45:24Z</time>
      </trkpt>
      <trkpt lat="45.63303" lon="6.54932">
        <ele>2339.6</ele>
        <time>2025-02-20T09:45:25Z</time>
      </trkpt>
      <trkpt lat="45.63303" lon="6.54932">
        <ele>2339.6</ele>
        <time>2025-02-20T09:45:26Z</time>
      </trkpt>
      <trkpt lat="45.63303" lon="6.54932">
        <ele>2339.6</ele>
        <time>2025-02-20T09:45:27Z</time>
      </trkpt>
      <trkpt lat="45.63303" lon="6.54932">
        <ele>2339.6</ele>
        <time>2025-02-20T09:45:28Z</time>
      </trkpt>
      <trkpt lat="45.63303" lon="6.54932">
        <ele>2339.6</ele>
        <time>2025-02-20T09:45:29Z</time>
      </trkpt>
      <trkpt lat="45.63303" lon="6.54932">
        <ele>2339.6</ele>
        <time>2025-02-20T09:45:30Z</time>
      </trkpt>
      <trkpt lat="45.63303" lon="6.54932">
        <ele>2339.6</ele>
        <time>2025-02-20T09:45:31Z</time>
      </trkpt>
      <trkpt lat="45.63303" lon="6.54932">
        <ele>2339.6</ele>
        <time>2025-02-20T09:45:32Z</time>
      </trkpt>
      <trkpt lat="45.63303" lon="6.54932">
        <ele>2339.4</ele>
        <time>2025-02-20T09:45:33Z</time>
      </trkpt>
      <trkpt lat="45.63303" lon="6.54932">
        <ele>2339.4</ele>
        <time>2025-02-20T09:45:34Z</time>
      </trkpt>
      <trkpt lat="45.63303" lon="6.54932">
        <ele>2339.4</ele>
        <time>2025-02-20T09:45:35Z</time>
      </trkpt>
      <trkpt lat="45.63303" lon="6.54932">
        <ele>2339.4</ele>
        <time>2025-02-20T09:45:36Z</time>
      </trkpt>
      <trkpt lat="45.63303" lon="6.54932">
        <ele>2339.6</ele>
        <time>2025-02-20T09:45:37Z</time>
      </trkpt>
      <trkpt lat="45.63303" lon="6.54932">
        <ele>2339.6</ele>
        <time>2025-02-20T09:45:38Z</time>
      </trkpt>
      <trkpt lat="45.63303" lon="6.54932">
        <ele>2339.6</ele>
        <time>2025-02-20T09:45:39Z</time>
      </trkpt>
      <trkpt lat="45.63303" lon="6.54932">
        <ele>2339.6</ele>
        <time>2025-02-20T09:45:40Z</time>
      </trkpt>
      <trkpt lat="45.63303" lon="6.54932">
        <ele>2339.6</ele>
        <time>2025-02-20T09:45:41Z</time>
      </trkpt>
      <trkpt lat="45.63303" lon="6.54932">
        <ele>2339.6</ele>
        <time>2025-02-20T09:45:42Z</time>
      </trkpt>
      <trkpt lat="45.63303" lon="6.54932">
        <ele>2339.6</ele>
        <time>2025-02-20T09:45:43Z</time>
      </trkpt>
      <trkpt lat="45.63303" lon="6.54932">
        <ele>2339</ele>
        <time>2025-02-20T09:45:44Z</time>
      </trkpt>
      <trkpt lat="45.63303" lon="6.54932">
        <ele>2339.4</ele>
        <time>2025-02-20T09:45:45Z</time>
      </trkpt>
      <trkpt lat="45.63303" lon="6.54932">
        <ele>2339.4</ele>
        <time>2025-02-20T09:45:46Z</time>
      </trkpt>
      <trkpt lat="45.63303" lon="6.54932">
        <ele>2339.4</ele>
        <time>2025-02-20T09:45:47Z</time>
      </trkpt>
      <trkpt lat="45.63303" lon="6.54932">
        <ele>2339.4</ele>
        <time>2025-02-20T09:45:48Z</time>
      </trkpt>
      <trkpt lat="45.63303" lon="6.54932">
        <ele>2339</ele>
        <time>2025-02-20T09:45:49Z</time>
      </trkpt>
      <trkpt lat="45.63303" lon="6.54932">
        <ele>2339</ele>
        <time>2025-02-20T09:45:50Z</time>
      </trkpt>
      <trkpt lat="45.63303" lon="6.54932">
        <ele>2339</ele>
        <time>2025-02-20T09:45:51Z</time>
      </trkpt>
      <trkpt lat="45.63303" lon="6.54932">
        <ele>2339.2</ele>
        <time>2025-02-20T09:45:52Z</time>
      </trkpt>
      <trkpt lat="45.63303" lon="6.54932">
        <ele>2340</ele>
        <time>2025-02-20T09:45:53Z</time>
      </trkpt>
      <trkpt lat="45.63303" lon="6.54932">
        <ele>2340</ele>
        <time>2025-02-20T09:45:54Z</time>
      </trkpt>
      <trkpt lat="45.63303" lon="6.54932">
        <ele>2340</ele>
        <time>2025-02-20T09:45:55Z</time>
      </trkpt>
      <trkpt lat="45.63303" lon="6.54932">
        <ele>2339.2</ele>
        <time>2025-02-20T09:45:56Z</time>
      </trkpt>
      <trkpt lat="45.63303" lon="6.54932">
        <ele>2339.4</ele>
        <time>2025-02-20T09:45:57Z</time>
      </trkpt>
      <trkpt lat="45.63303" lon="6.54932">
        <ele>2339.4</ele>
        <time>2025-02-20T09:45:58Z</time>
      </trkpt>
      <trkpt lat="45.63303" lon="6.54932">
        <ele>2339.4</ele>
        <time>2025-02-20T09:45:59Z</time>
      </trkpt>
      <trkpt lat="45.63303" lon="6.54932">
        <ele>2339.4</ele>
        <time>2025-02-20T09:46:00Z</time>
      </trkpt>
      <trkpt lat="45.63303" lon="6.54932">
        <ele>2339.2</ele>
        <time>2025-02-20T09:46:01Z</time>
      </trkpt>
      <trkpt lat="45.63303" lon="6.54932">
        <ele>2339.2</ele>
        <time>2025-02-20T09:46:02Z</time>
      </trkpt>
      <trkpt lat="45.63303" lon="6.54932">
        <ele>2339.2</ele>
        <time>2025-02-20T09:46:03Z</time>
      </trkpt>
      <trkpt lat="45.63303" lon="6.54932">
        <ele>2339.2</ele>
        <time>2025-02-20T09:46:04Z</time>
      </trkpt>
      <trkpt lat="45.63303" lon="6.54932">
        <ele>2339</ele>
        <time>2025-02-20T09:46:05Z</time>
      </trkpt>
      <trkpt lat="45.63303" lon="6.54932">
        <ele>2339</ele>
        <time>2025-02-20T09:46:06Z</time>
      </trkpt>
      <trkpt lat="45.63303" lon="6.54932">
        <ele>2339</ele>
        <time>2025-02-20T09:46:07Z</time>
      </trkpt>
      <trkpt lat="45.63303" lon="6.54932">
        <ele>2339</ele>
        <time>2025-02-20T09:46:08Z</time>
      </trkpt>
      <trkpt lat="45.63303" lon="6.54932">
        <ele>2339</ele>
        <time>2025-02-20T09:46:09Z</time>
      </trkpt>
      <trkpt lat="45.63303" lon="6.54932">
        <ele>2339</ele>
        <time>2025-02-20T09:46:10Z</time>
      </trkpt>
      <trkpt lat="45.63303" lon="6.54932">
        <ele>2339</ele>
        <time>2025-02-20T09:46:11Z</time>
      </trkpt>
      <trkpt lat="45.63303" lon="6.54932">
        <ele>2339</ele>
        <time>2025-02-20T09:46:12Z</time>
      </trkpt>
      <trkpt lat="45.63303" lon="6.54932">
        <ele>2339</ele>
        <time>2025-02-20T09:46:13Z</time>
      </trkpt>
      <trkpt lat="45.63303" lon="6.54932">
        <ele>2339</ele>
        <time>2025-02-20T09:46:14Z</time>
      </trkpt>
      <trkpt lat="45.63303" lon="6.54932">
        <ele>2339</ele>
        <time>2025-02-20T09:46:15Z</time>
      </trkpt>
      <trkpt lat="45.63303" lon="6.54932">
        <ele>2339</ele>
        <time>2025-02-20T09:46:16Z</time>
      </trkpt>
      <trkpt lat="45.63303" lon="6.54932">
        <ele>2339.4</ele>
        <time>2025-02-20T09:46:17Z</time>
      </trkpt>
      <trkpt lat="45.63303" lon="6.54932">
        <ele>2339.4</ele>
        <time>2025-02-20T09:46:18Z</time>
      </trkpt>
      <trkpt lat="45.63303" lon="6.54932">
        <ele>2339.4</ele>
        <time>2025-02-20T09:46:19Z</time>
      </trkpt>
      <trkpt lat="45.63303" lon="6.54932">
        <ele>2339</ele>
        <time>2025-02-20T09:46:20Z</time>
      </trkpt>
      <trkpt lat="45.63303" lon="6.54932">
        <ele>2339</ele>
        <time>2025-02-20T09:46:21Z</time>
      </trkpt>
      <trkpt lat="45.63303" lon="6.54932">
        <ele>2339</ele>
        <time>2025-02-20T09:46:22Z</time>
      </trkpt>
      <trkpt lat="45.63303" lon="6.54932">
        <ele>2339</ele>
        <time>2025-02-20T09:46:23Z</time>
      </trkpt>
      <trkpt lat="45.63303" lon="6.54932">
        <ele>2339</ele>
        <time>2025-02-20T09:46:24Z</time>
      </trkpt>
      <trkpt lat="45.63303" lon="6.54932">
        <ele>2339.2</ele>
        <time>2025-02-20T09:46:25Z</time>
      </trkpt>
      <trkpt lat="45.63303" lon="6.54932">
        <ele>2339.2</ele>
        <time>2025-02-20T09:46:26Z</time>
      </trkpt>
      <trkpt lat="45.63303" lon="6.54932">
        <ele>2339.2</ele>
        <time>2025-02-20T09:46:27Z</time>
      </trkpt>
      <trkpt lat="45.63303" lon="6.54932">
        <ele>2339.2</ele>
        <time>2025-02-20T09:46:28Z</time>
      </trkpt>
      <trkpt lat="45.63303" lon="6.54932">
        <ele>2339.4</ele>
        <time>2025-02-20T09:46:29Z</time>
      </trkpt>
      <trkpt lat="45.63303" lon="6.54932">
        <ele>2339.4</ele>
        <time>2025-02-20T09:46:30Z</time>
      </trkpt>
      <trkpt lat="45.63303" lon="6.54932">
        <ele>2339.4</ele>
        <time>2025-02-20T09:46:31Z</time>
      </trkpt>
      <trkpt lat="45.63303" lon="6.54932">
        <ele>2339.4</ele>
        <time>2025-02-20T09:46:32Z</time>
      </trkpt>
      <trkpt lat="45.63303" lon="6.54932">
        <ele>2339.2</ele>
        <time>2025-02-20T09:46:33Z</time>
      </trkpt>
      <trkpt lat="45.63303" lon="6.54932">
        <ele>2339.2</ele>
        <time>2025-02-20T09:46:34Z</time>
      </trkpt>
      <trkpt lat="45.63303" lon="6.54932">
        <ele>2339.2</ele>
        <time>2025-02-20T09:46:35Z</time>
      </trkpt>
      <trkpt lat="45.63303" lon="6.54932">
        <ele>2339.6</ele>
        <time>2025-02-20T09:46:36Z</time>
      </trkpt>
      <trkpt lat="45.63303" lon="6.54932">
        <ele>2339.2</ele>
        <time>2025-02-20T09:46:37Z</time>
      </trkpt>
      <trkpt lat="45.63303" lon="6.54932">
        <ele>2339.2</ele>
        <time>2025-02-20T09:46:38Z</time>
      </trkpt>
      <trkpt lat="45.63303" lon="6.54932">
        <ele>2339.2</ele>
        <time>2025-02-20T09:46:39Z</time>
      </trkpt>
      <trkpt lat="45.63303" lon="6.54932">
        <ele>2339.2</ele>
        <time>2025-02-20T09:46:40Z</time>
      </trkpt>
      <trkpt lat="45.63303" lon="6.54932">
        <ele>2338.8</ele>
        <time>2025-02-20T09:46:41Z</time>
      </trkpt>
      <trkpt lat="45.63303" lon="6.54932">
        <ele>2338.8</ele>
        <time>2025-02-20T09:46:42Z</time>
      </trkpt>
      <trkpt lat="45.63303" lon="6.54932">
        <ele>2338.8</ele>
        <time>2025-02-20T09:46:43Z</time>
      </trkpt>
      <trkpt lat="45.63303" lon="6.54932">
        <ele>2339.2</ele>
        <time>2025-02-20T09:46:44Z</time>
      </trkpt>
      <trkpt lat="45.63303" lon="6.54932">
        <ele>2339</ele>
        <time>2025-02-20T09:46:45Z</time>
      </trkpt>
      <trkpt lat="45.63303" lon="6.54932">
        <ele>2339</ele>
        <time>2025-02-20T09:46:46Z</time>
      </trkpt>
      <trkpt lat="45.63303" lon="6.54932">
        <ele>2339</ele>
        <time>2025-02-20T09:46:47Z</time>
      </trkpt>
      <trkpt lat="45.63303" lon="6.54932">
        <ele>2339</ele>
        <time>2025-02-20T09:46:48Z</time>
      </trkpt>
      <trkpt lat="45.63303" lon="6.54932">
        <ele>2339.4</ele>
        <time>2025-02-20T09:46:49Z</time>
      </trkpt>
      <trkpt lat="45.63303" lon="6.54932">
        <ele>2339.4</ele>
        <time>2025-02-20T09:46:50Z</time>
      </trkpt>
      <trkpt lat="45.63303" lon="6.54932">
        <ele>2339.4</ele>
        <time>2025-02-20T09:46:51Z</time>
      </trkpt>
      <trkpt lat="45.63303" lon="6.54932">
        <ele>2339.4</ele>
        <time>2025-02-20T09:46:52Z</time>
      </trkpt>
      <trkpt lat="45.63303" lon="6.54932">
        <ele>2339.6</ele>
        <time>2025-02-20T09:46:53Z</time>
      </trkpt>
      <trkpt lat="45.63303" lon="6.54932">
        <ele>2339.6</ele>
        <time>2025-02-20T09:46:54Z</time>
      </trkpt>
      <trkpt lat="45.63303" lon="6.54932">
        <ele>2339.6</ele>
        <time>2025-02-20T09:46:55Z</time>
      </trkpt>
      <trkpt lat="45.63303" lon="6.54932">
        <ele>2338.8</ele>
        <time>2025-02-20T09:46:56Z</time>
      </trkpt>
      <trkpt lat="45.63303" lon="6.54932">
        <ele>2339.4</ele>
        <time>2025-02-20T09:46:57Z</time>
      </trkpt>
      <trkpt lat="45.63303" lon="6.54932">
        <ele>2339.4</ele>
        <time>2025-02-20T09:46:58Z</time>
      </trkpt>
      <trkpt lat="45.63303" lon="6.54932">
        <ele>2339.4</ele>
        <time>2025-02-20T09:46:59Z</time>
      </trkpt>
      <trkpt lat="45.63303" lon="6.54932">
        <ele>2339.4</ele>
        <time>2025-02-20T09:47:00Z</time>
      </trkpt>
      <trkpt lat="45.63303" lon="6.54932">
        <ele>2339.4</ele>
        <time>2025-02-20T09:47:01Z</time>
      </trkpt>
      <trkpt lat="45.63303" lon="6.54932">
        <ele>2339.4</ele>
        <time>2025-02-20T09:47:02Z</time>
      </trkpt>
      <trkpt lat="45.63303" lon="6.54932">
        <ele>2339.4</ele>
        <time>2025-02-20T09:47:03Z</time>
      </trkpt>
      <trkpt lat="45.63303" lon="6.54932">
        <ele>2339.4</ele>
        <time>2025-02-20T09:47:04Z</time>
      </trkpt>
      <trkpt lat="45.63303" lon="6.54932">
        <ele>2339</ele>
        <time>2025-02-20T09:47:05Z</time>
      </trkpt>
      <trkpt lat="45.63303" lon="6.54932">
        <ele>2339</ele>
        <time>2025-02-20T09:47:06Z</time>
      </trkpt>
      <trkpt lat="45.63303" lon="6.54932">
        <ele>2339</ele>
        <time>2025-02-20T09:47:07Z</time>
      </trkpt>
      <trkpt lat="45.63303" lon="6.54932">
        <ele>2338.8</ele>
        <time>2025-02-20T09:47:08Z</time>
      </trkpt>
      <trkpt lat="45.63303" lon="6.54932">
        <ele>2338.8</ele>
        <time>2025-02-20T09:47:09Z</time>
      </trkpt>
      <trkpt lat="45.63303" lon="6.54932">
        <ele>2338.8</ele>
        <time>2025-02-20T09:47:10Z</time>
      </trkpt>
      <trkpt lat="45.63303" lon="6.54932">
        <ele>2338.8</ele>
        <time>2025-02-20T09:47:11Z</time>
      </trkpt>
      <trkpt lat="45.63303" lon="6.54932">
        <ele>2338.8</ele>
        <time>2025-02-20T09:47:12Z</time>
      </trkpt>
      <trkpt lat="45.63303" lon="6.54932">
        <ele>2339.2</ele>
        <time>2025-02-20T09:47:13Z</time>
      </trkpt>
      <trkpt lat="45.63303" lon="6.54932">
        <ele>2339.2</ele>
        <time>2025-02-20T09:47:14Z</time>
      </trkpt>
      <trkpt lat="45.63303" lon="6.54932">
        <ele>2339.2</ele>
        <time>2025-02-20T09:47:15Z</time>
      </trkpt>
      <trkpt lat="45.63303" lon="6.54932">
        <ele>2339.2</ele>
        <time>2025-02-20T09:47:16Z</time>
      </trkpt>
      <trkpt lat="45.63303" lon="6.54932">
        <ele>2339.2</ele>
        <time>2025-02-20T09:47:17Z</time>
      </trkpt>
      <trkpt lat="45.63303" lon="6.54932">
        <ele>2339.2</ele>
        <time>2025-02-20T09:47:18Z</time>
      </trkpt>
      <trkpt lat="45.63303" lon="6.54932">
        <ele>2339.2</ele>
        <time>2025-02-20T09:47:19Z</time>
      </trkpt>
      <trkpt lat="45.63303" lon="6.54932">
        <ele>2339</ele>
        <time>2025-02-20T09:47:20Z</time>
      </trkpt>
      <trkpt lat="45.63303" lon="6.54932">
        <ele>2338.8</ele>
        <time>2025-02-20T09:47:21Z</time>
      </trkpt>
      <trkpt lat="45.63303" lon="6.54932">
        <ele>2338.8</ele>
        <time>2025-02-20T09:47:22Z</time>
      </trkpt>
      <trkpt lat="45.63303" lon="6.54932">
        <ele>2338.8</ele>
        <time>2025-02-20T09:47:23Z</time>
      </trkpt>
      <trkpt lat="45.63303" lon="6.54932">
        <ele>2338.8</ele>
        <time>2025-02-20T09:47:24Z</time>
      </trkpt>
      <trkpt lat="45.63303" lon="6.54932">
        <ele>2338.8</ele>
        <time>2025-02-20T09:47:25Z</time>
      </trkpt>
      <trkpt lat="45.63303" lon="6.54932">
        <ele>2338.8</ele>
        <time>2025-02-20T09:47:26Z</time>
      </trkpt>
      <trkpt lat="45.63303" lon="6.54932">
        <ele>2338.8</ele>
        <time>2025-02-20T09:47:27Z</time>
      </trkpt>
      <trkpt lat="45.63303" lon="6.54932">
        <ele>2338.8</ele>
        <time>2025-02-20T09:47:28Z</time>
      </trkpt>
      <trkpt lat="45.63303" lon="6.54932">
        <ele>2338.8</ele>
        <time>2025-02-20T09:47:29Z</time>
      </trkpt>
      <trkpt lat="45.63303" lon="6.54932">
        <ele>2338.8</ele>
        <time>2025-02-20T09:47:30Z</time>
      </trkpt>
      <trkpt lat="45.63303" lon="6.54932">
        <ele>2338.8</ele>
        <time>2025-02-20T09:47:31Z</time>
      </trkpt>
      <trkpt lat="45.63303" lon="6.54932">
        <ele>2338.8</ele>
        <time>2025-02-20T09:47:32Z</time>
      </trkpt>
      <trkpt lat="45.63303" lon="6.54932">
        <ele>2339.2</ele>
        <time>2025-02-20T09:47:33Z</time>
      </trkpt>
      <trkpt lat="45.63303" lon="6.54932">
        <ele>2339.2</ele>
        <time>2025-02-20T09:47:34Z</time>
      </trkpt>
      <trkpt lat="45.63303" lon="6.54932">
        <ele>2339.2</ele>
        <time>2025-02-20T09:47:35Z</time>
      </trkpt>
      <trkpt lat="45.63303" lon="6.54932">
        <ele>2338.8</ele>
        <time>2025-02-20T09:47:36Z</time>
      </trkpt>
      <trkpt lat="45.63303" lon="6.54932">
        <ele>2338.8</ele>
        <time>2025-02-20T09:47:37Z</time>
      </trkpt>
      <trkpt lat="45.63303" lon="6.54932">
        <ele>2338.8</ele>
        <time>2025-02-20T09:47:38Z</time>
      </trkpt>
      <trkpt lat="45.63303" lon="6.54932">
        <ele>2338.8</ele>
        <time>2025-02-20T09:47:39Z</time>
      </trkpt>
      <trkpt lat="45.63303" lon="6.54932">
        <ele>2338.8</ele>
        <time>2025-02-20T09:47:40Z</time>
      </trkpt>
      <trkpt lat="45.63303" lon="6.54932">
        <ele>2337.8</ele>
        <time>2025-02-20T09:47:41Z</time>
      </trkpt>
      <trkpt lat="45.63303" lon="6.54932">
        <ele>2337.8</ele>
        <time>2025-02-20T09:47:42Z</time>
      </trkpt>
      <trkpt lat="45.63303" lon="6.54932">
        <ele>2337.8</ele>
        <time>2025-02-20T09:47:43Z</time>
      </trkpt>
      <trkpt lat="45.63303" lon="6.54932">
        <ele>2338.8</ele>
        <time>2025-02-20T09:47:44Z</time>
      </trkpt>
      <trkpt lat="45.63303" lon="6.54932">
        <ele>2339</ele>
        <time>2025-02-20T09:47:45Z</time>
      </trkpt>
      <trkpt lat="45.63303" lon="6.54932">
        <ele>2339</ele>
        <time>2025-02-20T09:47:46Z</time>
      </trkpt>
      <trkpt lat="45.63303" lon="6.54932">
        <ele>2339</ele>
        <time>2025-02-20T09:47:47Z</time>
      </trkpt>
      <trkpt lat="45.63303" lon="6.54932">
        <ele>2338.8</ele>
        <time>2025-02-20T09:47:48Z</time>
      </trkpt>
      <trkpt lat="45.63303" lon="6.54932">
        <ele>2338.8</ele>
        <time>2025-02-20T09:47:49Z</time>
      </trkpt>
      <trkpt lat="45.63303" lon="6.54932">
        <ele>2338.8</ele>
        <time>2025-02-20T09:47:50Z</time>
      </trkpt>
      <trkpt lat="45.63303" lon="6.54932">
        <ele>2338.8</ele>
        <time>2025-02-20T09:47:51Z</time>
      </trkpt>
      <trkpt lat="45.63303" lon="6.54932">
        <ele>2338.8</ele>
        <time>2025-02-20T09:47:52Z</time>
      </trkpt>
      <trkpt lat="45.63303" lon="6.54932">
        <ele>2339.4</ele>
        <time>2025-02-20T09:47:53Z</time>
      </trkpt>
      <trkpt lat="45.63303" lon="6.54932">
        <ele>2339.4</ele>
        <time>2025-02-20T09:47:54Z</time>
      </trkpt>
      <trkpt lat="45.63303" lon="6.54932">
        <ele>2339.4</ele>
        <time>2025-02-20T09:47:55Z</time>
      </trkpt>
      <trkpt lat="45.63303" lon="6.54932">
        <ele>2339</ele>
        <time>2025-02-20T09:47:56Z</time>
      </trkpt>
      <trkpt lat="45.63303" lon="6.54932">
        <ele>2339</ele>
        <time>2025-02-20T09:47:57Z</time>
      </trkpt>
      <trkpt lat="45.63303" lon="6.54932">
        <ele>2339</ele>
        <time>2025-02-20T09:47:58Z</time>
      </trkpt>
      <trkpt lat="45.63303" lon="6.54932">
        <ele>2339</ele>
        <time>2025-02-20T09:47:59Z</time>
      </trkpt>
      <trkpt lat="45.63303" lon="6.54932">
        <ele>2339</ele>
        <time>2025-02-20T09:48:00Z</time>
      </trkpt>
      <trkpt lat="45.63303" lon="6.54932">
        <ele>2339</ele>
        <time>2025-02-20T09:48:01Z</time>
      </trkpt>
      <trkpt lat="45.63303" lon="6.54932">
        <ele>2339</ele>
        <time>2025-02-20T09:48:02Z</time>
      </trkpt>
      <trkpt lat="45.63303" lon="6.54932">
        <ele>2339</ele>
        <time>2025-02-20T09:48:03Z</time>
      </trkpt>
      <trkpt lat="45.63303" lon="6.54932">
        <ele>2339</ele>
        <time>2025-02-20T09:48:04Z</time>
      </trkpt>
      <trkpt lat="45.63303" lon="6.54932">
        <ele>2339.2</ele>
        <time>2025-02-20T09:48:05Z</time>
      </trkpt>
      <trkpt lat="45.63303" lon="6.54932">
        <ele>2339.2</ele>
        <time>2025-02-20T09:48:06Z</time>
      </trkpt>
      <trkpt lat="45.63303" lon="6.54932">
        <ele>2339.2</ele>
        <time>2025-02-20T09:48:07Z</time>
      </trkpt>
      <trkpt lat="45.63303" lon="6.54932">
        <ele>2339.2</ele>
        <time>2025-02-20T09:48:08Z</time>
      </trkpt>
      <trkpt lat="45.63303" lon="6.54932">
        <ele>2338.8</ele>
        <time>2025-02-20T09:48:09Z</time>
      </trkpt>
      <trkpt lat="45.63303" lon="6.54932">
        <ele>2338.8</ele>
        <time>2025-02-20T09:48:10Z</time>
      </trkpt>
      <trkpt lat="45.63303" lon="6.54932">
        <ele>2338.8</ele>
        <time>2025-02-20T09:48:11Z</time>
      </trkpt>
      <trkpt lat="45.63303" lon="6.54932">
        <ele>2338.8</ele>
        <time>2025-02-20T09:48:12Z</time>
      </trkpt>
      <trkpt lat="45.63303" lon="6.54932">
        <ele>2339.2</ele>
        <time>2025-02-20T09:48:13Z</time>
      </trkpt>
      <trkpt lat="45.63303" lon="6.54932">
        <ele>2339.2</ele>
        <time>2025-02-20T09:48:14Z</time>
      </trkpt>
      <trkpt lat="45.63303" lon="6.54932">
        <ele>2339.2</ele>
        <time>2025-02-20T09:48:15Z</time>
      </trkpt>
      <trkpt lat="45.63303" lon="6.54932">
        <ele>2339.2</ele>
        <time>2025-02-20T09:48:16Z</time>
      </trkpt>
      <trkpt lat="45.63303" lon="6.54932">
        <ele>2338.6</ele>
        <time>2025-02-20T09:48:17Z</time>
      </trkpt>
      <trkpt lat="45.63303" lon="6.54932">
        <ele>2338.6</ele>
        <time>2025-02-20T09:48:18Z</time>
      </trkpt>
      <trkpt lat="45.63303" lon="6.54932">
        <ele>2338.6</ele>
        <time>2025-02-20T09:48:19Z</time>
      </trkpt>
      <trkpt lat="45.63303" lon="6.54932">
        <ele>2339.4</ele>
        <time>2025-02-20T09:48:20Z</time>
      </trkpt>
      <trkpt lat="45.63303" lon="6.54932">
        <ele>2338.4</ele>
        <time>2025-02-20T09:48:21Z</time>
      </trkpt>
      <trkpt lat="45.63302" lon="6.54932">
        <ele>2338.4</ele>
        <time>2025-02-20T09:48:22Z</time>
      </trkpt>
      <trkpt lat="45.63301" lon="6.54933">
        <ele>2338.4</ele>
        <time>2025-02-20T09:48:23Z</time>
      </trkpt>
      <trkpt lat="45.63301" lon="6.54933">
        <ele>2338.4</ele>
        <time>2025-02-20T09:48:24Z</time>
      </trkpt>
      <trkpt lat="45.63301" lon="6.54933">
        <ele>2339.2</ele>
        <time>2025-02-20T09:48:25Z</time>
      </trkpt>
      <trkpt lat="45.63301" lon="6.54933">
        <ele>2339.2</ele>
        <time>2025-02-20T09:48:26Z</time>
      </trkpt>
      <trkpt lat="45.63301" lon="6.54933">
        <ele>2339.2</ele>
        <time>2025-02-20T09:48:27Z</time>
      </trkpt>
      <trkpt lat="45.63301" lon="6.54933">
        <ele>2339.2</ele>
        <time>2025-02-20T09:48:28Z</time>
      </trkpt>
      <trkpt lat="45.63301" lon="6.54933">
        <ele>2338.6</ele>
        <time>2025-02-20T09:48:29Z</time>
      </trkpt>
      <trkpt lat="45.63301" lon="6.54933">
        <ele>2338.6</ele>
        <time>2025-02-20T09:48:30Z</time>
      </trkpt>
      <trkpt lat="45.63301" lon="6.54933">
        <ele>2338.6</ele>
        <time>2025-02-20T09:48:31Z</time>
      </trkpt>
      <trkpt lat="45.63301" lon="6.54933">
        <ele>2339.2</ele>
        <time>2025-02-20T09:48:32Z</time>
      </trkpt>
      <trkpt lat="45.63301" lon="6.54933">
        <ele>2339.4</ele>
        <time>2025-02-20T09:48:33Z</time>
      </trkpt>
      <trkpt lat="45.63301" lon="6.54933">
        <ele>2339.4</ele>
        <time>2025-02-20T09:48:34Z</time>
      </trkpt>
      <trkpt lat="45.63301" lon="6.54933">
        <ele>2339.4</ele>
        <time>2025-02-20T09:48:35Z</time>
      </trkpt>
      <trkpt lat="45.63301" lon="6.54933">
        <ele>2339.4</ele>
        <time>2025-02-20T09:48:36Z</time>
      </trkpt>
      <trkpt lat="45.63301" lon="6.54933">
        <ele>2338.6</ele>
        <time>2025-02-20T09:48:37Z</time>
      </trkpt>
      <trkpt lat="45.63301" lon="6.54933">
        <ele>2338.6</ele>
        <time>2025-02-20T09:48:38Z</time>
      </trkpt>
      <trkpt lat="45.63301" lon="6.54933">
        <ele>2338.6</ele>
        <time>2025-02-20T09:48:39Z</time>
      </trkpt>
      <trkpt lat="45.63301" lon="6.54933">
        <ele>2338.8</ele>
        <time>2025-02-20T09:48:40Z</time>
      </trkpt>
      <trkpt lat="45.63301" lon="6.54933">
        <ele>2339.4</ele>
        <time>2025-02-20T09:48:41Z</time>
      </trkpt>
      <trkpt lat="45.63301" lon="6.54933">
        <ele>2339.4</ele>
        <time>2025-02-20T09:48:42Z</time>
      </trkpt>
      <trkpt lat="45.63301" lon="6.54933">
        <ele>2339.4</ele>
        <time>2025-02-20T09:48:43Z</time>
      </trkpt>
      <trkpt lat="45.63301" lon="6.54933">
        <ele>2339.2</ele>
        <time>2025-02-20T09:48:44Z</time>
      </trkpt>
      <trkpt lat="45.63301" lon="6.54933">
        <ele>2339.4</ele>
        <time>2025-02-20T09:48:45Z</time>
      </trkpt>
      <trkpt lat="45.63301" lon="6.54933">
        <ele>2339.4</ele>
        <time>2025-02-20T09:48:46Z</time>
      </trkpt>
      <trkpt lat="45.63301" lon="6.54933">
        <ele>2339.4</ele>
        <time>2025-02-20T09:48:47Z</time>
      </trkpt>
      <trkpt lat="45.63301" lon="6.54933">
        <ele>2339.2</ele>
        <time>2025-02-20T09:48:48Z</time>
      </trkpt>
      <trkpt lat="45.63301" lon="6.54933">
        <ele>2339</ele>
        <time>2025-02-20T09:48:49Z</time>
      </trkpt>
      <trkpt lat="45.63301" lon="6.54933">
        <ele>2339</ele>
        <time>2025-02-20T09:48:50Z</time>
      </trkpt>
      <trkpt lat="45.63301" lon="6.54933">
        <ele>2339</ele>
        <time>2025-02-20T09:48:51Z</time>
      </trkpt>
      <trkpt lat="45.63301" lon="6.54933">
        <ele>2338.8</ele>
        <time>2025-02-20T09:48:52Z</time>
      </trkpt>
      <trkpt lat="45.63301" lon="6.54933">
        <ele>2339.2</ele>
        <time>2025-02-20T09:48:53Z</time>
      </trkpt>
      <trkpt lat="45.63301" lon="6.54933">
        <ele>2339.2</ele>
        <time>2025-02-20T09:48:54Z</time>
      </trkpt>
      <trkpt lat="45.63301" lon="6.54933">
        <ele>2339.2</ele>
        <time>2025-02-20T09:48:55Z</time>
      </trkpt>
      <trkpt lat="45.63301" lon="6.54933">
        <ele>2339.2</ele>
        <time>2025-02-20T09:48:56Z</time>
      </trkpt>
      <trkpt lat="45.63301" lon="6.54933">
        <ele>2339.6</ele>
        <time>2025-02-20T09:48:57Z</time>
      </trkpt>
      <trkpt lat="45.63301" lon="6.54933">
        <ele>2339.6</ele>
        <time>2025-02-20T09:48:58Z</time>
      </trkpt>
      <trkpt lat="45.63301" lon="6.54933">
        <ele>2339.6</ele>
        <time>2025-02-20T09:48:59Z</time>
      </trkpt>
      <trkpt lat="45.63301" lon="6.54933">
        <ele>2339.6</ele>
        <time>2025-02-20T09:49:00Z</time>
      </trkpt>
      <trkpt lat="45.63301" lon="6.54933">
        <ele>2339.4</ele>
        <time>2025-02-20T09:49:01Z</time>
      </trkpt>
      <trkpt lat="45.63301" lon="6.54933">
        <ele>2339.4</ele>
        <time>2025-02-20T09:49:02Z</time>
      </trkpt>
      <trkpt lat="45.63301" lon="6.54933">
        <ele>2339.4</ele>
        <time>2025-02-20T09:49:03Z</time>
      </trkpt>
      <trkpt lat="45.63301" lon="6.54933">
        <ele>2339.4</ele>
        <time>2025-02-20T09:49:04Z</time>
      </trkpt>
      <trkpt lat="45.63301" lon="6.54933">
        <ele>2339.8</ele>
        <time>2025-02-20T09:49:05Z</time>
      </trkpt>
      <trkpt lat="45.63301" lon="6.54933">
        <ele>2339.8</ele>
        <time>2025-02-20T09:49:06Z</time>
      </trkpt>
      <trkpt lat="45.63301" lon="6.54933">
        <ele>2339.8</ele>
        <time>2025-02-20T09:49:07Z</time>
      </trkpt>
      <trkpt lat="45.63301" lon="6.54933">
        <ele>2339.4</ele>
        <time>2025-02-20T09:49:08Z</time>
      </trkpt>
      <trkpt lat="45.63301" lon="6.54933">
        <ele>2338.6</ele>
        <time>2025-02-20T09:49:09Z</time>
      </trkpt>
      <trkpt lat="45.63301" lon="6.54933">
        <ele>2338.6</ele>
        <time>2025-02-20T09:49:10Z</time>
      </trkpt>
      <trkpt lat="45.63301" lon="6.54933">
        <ele>2338.6</ele>
        <time>2025-02-20T09:49:11Z</time>
      </trkpt>
      <trkpt lat="45.63301" lon="6.54933">
        <ele>2338.8</ele>
        <time>2025-02-20T09:49:12Z</time>
      </trkpt>
      <trkpt lat="45.63301" lon="6.54933">
        <ele>2338.6</ele>
        <time>2025-02-20T09:49:13Z</time>
      </trkpt>
      <trkpt lat="45.63301" lon="6.54933">
        <ele>2338.6</ele>
        <time>2025-02-20T09:49:14Z</time>
      </trkpt>
      <trkpt lat="45.63301" lon="6.54933">
        <ele>2338.6</ele>
        <time>2025-02-20T09:49:15Z</time>
      </trkpt>
      <trkpt lat="45.63301" lon="6.54933">
        <ele>2339</ele>
        <time>2025-02-20T09:49:16Z</time>
      </trkpt>
      <trkpt lat="45.63301" lon="6.54933">
        <ele>2339.4</ele>
        <time>2025-02-20T09:49:17Z</time>
      </trkpt>
      <trkpt lat="45.63301" lon="6.54933">
        <ele>2339.4</ele>
        <time>2025-02-20T09:49:18Z</time>
      </trkpt>
      <trkpt lat="45.63301" lon="6.54933">
        <ele>2339.4</ele>
        <time>2025-02-20T09:49:19Z</time>
      </trkpt>
      <trkpt lat="45.63301" lon="6.54933">
        <ele>2339.4</ele>
        <time>2025-02-20T09:49:20Z</time>
      </trkpt>
      <trkpt lat="45.63301" lon="6.54933">
        <ele>2339</ele>
        <time>2025-02-20T09:49:21Z</time>
      </trkpt>
      <trkpt lat="45.63301" lon="6.54933">
        <ele>2339</ele>
        <time>2025-02-20T09:49:22Z</time>
      </trkpt>
      <trkpt lat="45.63301" lon="6.54933">
        <ele>2339</ele>
        <time>2025-02-20T09:49:23Z</time>
      </trkpt>
      <trkpt lat="45.63301" lon="6.54933">
        <ele>2339</ele>
        <time>2025-02-20T09:49:24Z</time>
      </trkpt>
      <trkpt lat="45.63301" lon="6.54933">
        <ele>2339.6</ele>
        <time>2025-02-20T09:49:25Z</time>
      </trkpt>
      <trkpt lat="45.63301" lon="6.54933">
        <ele>2339.6</ele>
        <time>2025-02-20T09:49:26Z</time>
      </trkpt>
      <trkpt lat="45.63301" lon="6.54933">
        <ele>2339.6</ele>
        <time>2025-02-20T09:49:27Z</time>
      </trkpt>
      <trkpt lat="45.63301" lon="6.54933">
        <ele>2339.4</ele>
        <time>2025-02-20T09:49:28Z</time>
      </trkpt>
      <trkpt lat="45.63301" lon="6.54933">
        <ele>2339.6</ele>
        <time>2025-02-20T09:49:29Z</time>
      </trkpt>
      <trkpt lat="45.63301" lon="6.54933">
        <ele>2339.6</ele>
        <time>2025-02-20T09:49:30Z</time>
      </trkpt>
      <trkpt lat="45.63301" lon="6.54933">
        <ele>2339.6</ele>
        <time>2025-02-20T09:49:31Z</time>
      </trkpt>
      <trkpt lat="45.63301" lon="6.54933">
        <ele>2339.2</ele>
        <time>2025-02-20T09:49:32Z</time>
      </trkpt>
      <trkpt lat="45.63301" lon="6.54933">
        <ele>2339.2</ele>
        <time>2025-02-20T09:49:33Z</time>
      </trkpt>
      <trkpt lat="45.63301" lon="6.54933">
        <ele>2339.2</ele>
        <time>2025-02-20T09:49:34Z</time>
      </trkpt>
      <trkpt lat="45.63301" lon="6.54933">
        <ele>2339.2</ele>
        <time>2025-02-20T09:49:35Z</time>
      </trkpt>
      <trkpt lat="45.63301" lon="6.54933">
        <ele>2339</ele>
        <time>2025-02-20T09:49:36Z</time>
      </trkpt>
      <trkpt lat="45.63301" lon="6.54933">
        <ele>2339.2</ele>
        <time>2025-02-20T09:49:37Z</time>
      </trkpt>
      <trkpt lat="45.63301" lon="6.54933">
        <ele>2339.2</ele>
        <time>2025-02-20T09:49:38Z</time>
      </trkpt>
      <trkpt lat="45.63301" lon="6.54933">
        <ele>2339.2</ele>
        <time>2025-02-20T09:49:39Z</time>
      </trkpt>
      <trkpt lat="45.63301" lon="6.54933">
        <ele>2339.2</ele>
        <time>2025-02-20T09:49:40Z</time>
      </trkpt>
      <trkpt lat="45.63301" lon="6.54933">
        <ele>2339.6</ele>
        <time>2025-02-20T09:49:41Z</time>
      </trkpt>
      <trkpt lat="45.63301" lon="6.54933">
        <ele>2339.6</ele>
        <time>2025-02-20T09:49:42Z</time>
      </trkpt>
      <trkpt lat="45.63301" lon="6.54933">
        <ele>2339.6</ele>
        <time>2025-02-20T09:49:43Z</time>
      </trkpt>
      <trkpt lat="45.63301" lon="6.54933">
        <ele>2338.8</ele>
        <time>2025-02-20T09:49:44Z</time>
      </trkpt>
      <trkpt lat="45.63301" lon="6.54933">
        <ele>2338.8</ele>
        <time>2025-02-20T09:49:45Z</time>
      </trkpt>
      <trkpt lat="45.63301" lon="6.54933">
        <ele>2338.8</ele>
        <time>2025-02-20T09:49:46Z</time>
      </trkpt>
      <trkpt lat="45.63301" lon="6.54933">
        <ele>2338.8</ele>
        <time>2025-02-20T09:49:47Z</time>
      </trkpt>
      <trkpt lat="45.63301" lon="6.54933">
        <ele>2339.4</ele>
        <time>2025-02-20T09:49:48Z</time>
      </trkpt>
      <trkpt lat="45.63301" lon="6.54933">
        <ele>2339.4</ele>
        <time>2025-02-20T09:49:49Z</time>
      </trkpt>
      <trkpt lat="45.63301" lon="6.54933">
        <ele>2339.4</ele>
        <time>2025-02-20T09:49:50Z</time>
      </trkpt>
      <trkpt lat="45.63301" lon="6.54933">
        <ele>2339.4</ele>
        <time>2025-02-20T09:49:51Z</time>
      </trkpt>
      <trkpt lat="45.63301" lon="6.54933">
        <ele>2339.4</ele>
        <time>2025-02-20T09:49:52Z</time>
      </trkpt>
      <trkpt lat="45.63301" lon="6.54933">
        <ele>2339</ele>
        <time>2025-02-20T09:49:53Z</time>
      </trkpt>
      <trkpt lat="45.63301" lon="6.54933">
        <ele>2339</ele>
        <time>2025-02-20T09:49:54Z</time>
      </trkpt>
      <trkpt lat="45.63301" lon="6.54933">
        <ele>2339</ele>
        <time>2025-02-20T09:49:55Z</time>
      </trkpt>
      <trkpt lat="45.63301" lon="6.54933">
        <ele>2338</ele>
        <time>2025-02-20T09:49:56Z</time>
      </trkpt>
      <trkpt lat="45.63301" lon="6.54933">
        <ele>2339.2</ele>
        <time>2025-02-20T09:49:57Z</time>
      </trkpt>
      <trkpt lat="45.63301" lon="6.54933">
        <ele>2339.2</ele>
        <time>2025-02-20T09:49:58Z</time>
      </trkpt>
      <trkpt lat="45.63301" lon="6.54933">
        <ele>2339.2</ele>
        <time>2025-02-20T09:49:59Z</time>
      </trkpt>
      <trkpt lat="45.63301" lon="6.54933">
        <ele>2338.6</ele>
        <time>2025-02-20T09:50:00Z</time>
      </trkpt>
      <trkpt lat="45.63301" lon="6.54933">
        <ele>2339.6</ele>
        <time>2025-02-20T09:50:01Z</time>
      </trkpt>
      <trkpt lat="45.63301" lon="6.54933">
        <ele>2339.6</ele>
        <time>2025-02-20T09:50:02Z</time>
      </trkpt>
      <trkpt lat="45.63301" lon="6.54933">
        <ele>2339.6</ele>
        <time>2025-02-20T09:50:03Z</time>
      </trkpt>
      <trkpt lat="45.63301" lon="6.54933">
        <ele>2339.6</ele>
        <time>2025-02-20T09:50:04Z</time>
      </trkpt>
      <trkpt lat="45.63301" lon="6.54933">
        <ele>2339</ele>
        <time>2025-02-20T09:50:05Z</time>
      </trkpt>
      <trkpt lat="45.63301" lon="6.54933">
        <ele>2339</ele>
        <time>2025-02-20T09:50:06Z</time>
      </trkpt>
      <trkpt lat="45.63301" lon="6.54933">
        <ele>2339</ele>
        <time>2025-02-20T09:50:07Z</time>
      </trkpt>
      <trkpt lat="45.63301" lon="6.54933">
        <ele>2339</ele>
        <time>2025-02-20T09:50:08Z</time>
      </trkpt>
      <trkpt lat="45.63301" lon="6.54933">
        <ele>2338.6</ele>
        <time>2025-02-20T09:50:09Z</time>
      </trkpt>
      <trkpt lat="45.63301" lon="6.54933">
        <ele>2338.6</ele>
        <time>2025-02-20T09:50:10Z</time>
      </trkpt>
      <trkpt lat="45.63301" lon="6.54933">
        <ele>2338.6</ele>
        <time>2025-02-20T09:50:11Z</time>
      </trkpt>
      <trkpt lat="45.63301" lon="6.54933">
        <ele>2338.8</ele>
        <time>2025-02-20T09:50:12Z</time>
      </trkpt>
      <trkpt lat="45.63301" lon="6.54933">
        <ele>2338.8</ele>
        <time>2025-02-20T09:50:13Z</time>
      </trkpt>
      <trkpt lat="45.63301" lon="6.54933">
        <ele>2338.8</ele>
        <time>2025-02-20T09:50:14Z</time>
      </trkpt>
      <trkpt lat="45.63301" lon="6.54933">
        <ele>2338.8</ele>
        <time>2025-02-20T09:50:15Z</time>
      </trkpt>
      <trkpt lat="45.63301" lon="6.54933">
        <ele>2339</ele>
        <time>2025-02-20T09:50:16Z</time>
      </trkpt>
      <trkpt lat="45.63301" lon="6.54933">
        <ele>2339</ele>
        <time>2025-02-20T09:50:17Z</time>
      </trkpt>
      <trkpt lat="45.63301" lon="6.54933">
        <ele>2339</ele>
        <time>2025-02-20T09:50:18Z</time>
      </trkpt>
      <trkpt lat="45.63301" lon="6.54933">
        <ele>2339</ele>
        <time>2025-02-20T09:50:19Z</time>
      </trkpt>
      <trkpt lat="45.63301" lon="6.54933">
        <ele>2339</ele>
        <time>2025-02-20T09:50:20Z</time>
      </trkpt>
      <trkpt lat="45.63301" lon="6.54933">
        <ele>2338.6</ele>
        <time>2025-02-20T09:50:21Z</time>
      </trkpt>
      <trkpt lat="45.63301" lon="6.54933">
        <ele>2338.6</ele>
        <time>2025-02-20T09:50:22Z</time>
      </trkpt>
      <trkpt lat="45.63301" lon="6.54933">
        <ele>2338.6</ele>
        <time>2025-02-20T09:50:23Z</time>
      </trkpt>
      <trkpt lat="45.63301" lon="6.54933">
        <ele>2339.2</ele>
        <time>2025-02-20T09:50:24Z</time>
      </trkpt>
      <trkpt lat="45.63301" lon="6.54933">
        <ele>2338.8</ele>
        <time>2025-02-20T09:50:25Z</time>
      </trkpt>
      <trkpt lat="45.63301" lon="6.54933">
        <ele>2338.8</ele>
        <time>2025-02-20T09:50:26Z</time>
      </trkpt>
      <trkpt lat="45.63301" lon="6.54933">
        <ele>2338.8</ele>
        <time>2025-02-20T09:50:27Z</time>
      </trkpt>
      <trkpt lat="45.63301" lon="6.54933">
        <ele>2338.8</ele>
        <time>2025-02-20T09:50:28Z</time>
      </trkpt>
      <trkpt lat="45.63301" lon="6.54933">
        <ele>2338.8</ele>
        <time>2025-02-20T09:50:29Z</time>
      </trkpt>
      <trkpt lat="45.63301" lon="6.54933">
        <ele>2338.8</ele>
        <time>2025-02-20T09:50:30Z</time>
      </trkpt>
      <trkpt lat="45.63301" lon="6.54933">
        <ele>2338.8</ele>
        <time>2025-02-20T09:50:31Z</time>
      </trkpt>
      <trkpt lat="45.63301" lon="6.54933">
        <ele>2339.2</ele>
        <time>2025-02-20T09:50:32Z</time>
      </trkpt>
      <trkpt lat="45.63301" lon="6.54933">
        <ele>2339.2</ele>
        <time>2025-02-20T09:50:33Z</time>
      </trkpt>
      <trkpt lat="45.63301" lon="6.54933">
        <ele>2339.2</ele>
        <time>2025-02-20T09:50:34Z</time>
      </trkpt>
      <trkpt lat="45.63301" lon="6.54933">
        <ele>2339.2</ele>
        <time>2025-02-20T09:50:35Z</time>
      </trkpt>
      <trkpt lat="45.63301" lon="6.54933">
        <ele>2339.2</ele>
        <time>2025-02-20T09:50:36Z</time>
      </trkpt>
      <trkpt lat="45.63301" lon="6.54933">
        <ele>2339.6</ele>
        <time>2025-02-20T09:50:37Z</time>
      </trkpt>
      <trkpt lat="45.63301" lon="6.54933">
        <ele>2339.6</ele>
        <time>2025-02-20T09:50:38Z</time>
      </trkpt>
      <trkpt lat="45.63301" lon="6.54933">
        <ele>2339.6</ele>
        <time>2025-02-20T09:50:39Z</time>
      </trkpt>
      <trkpt lat="45.63301" lon="6.54933">
        <ele>2339.6</ele>
        <time>2025-02-20T09:50:40Z</time>
      </trkpt>
      <trkpt lat="45.63301" lon="6.54933">
        <ele>2338.8</ele>
        <time>2025-02-20T09:50:41Z</time>
      </trkpt>
      <trkpt lat="45.63301" lon="6.54933">
        <ele>2338.8</ele>
        <time>2025-02-20T09:50:42Z</time>
      </trkpt>
      <trkpt lat="45.63301" lon="6.54933">
        <ele>2338.8</ele>
        <time>2025-02-20T09:50:43Z</time>
      </trkpt>
      <trkpt lat="45.63301" lon="6.54933">
        <ele>2338.8</ele>
        <time>2025-02-20T09:50:44Z</time>
      </trkpt>
      <trkpt lat="45.63301" lon="6.54933">
        <ele>2339</ele>
        <time>2025-02-20T09:50:45Z</time>
      </trkpt>
      <trkpt lat="45.63301" lon="6.54933">
        <ele>2339</ele>
        <time>2025-02-20T09:50:46Z</time>
      </trkpt>
      <trkpt lat="45.63301" lon="6.54933">
        <ele>2339</ele>
        <time>2025-02-20T09:50:47Z</time>
      </trkpt>
      <trkpt lat="45.63301" lon="6.54933">
        <ele>2339</ele>
        <time>2025-02-20T09:50:48Z</time>
      </trkpt>
      <trkpt lat="45.63301" lon="6.54933">
        <ele>2339.2</ele>
        <time>2025-02-20T09:50:49Z</time>
      </trkpt>
      <trkpt lat="45.63301" lon="6.54933">
        <ele>2339.2</ele>
        <time>2025-02-20T09:50:50Z</time>
      </trkpt>
      <trkpt lat="45.63301" lon="6.54933">
        <ele>2339.2</ele>
        <time>2025-02-20T09:50:51Z</time>
      </trkpt>
      <trkpt lat="45.63301" lon="6.54933">
        <ele>2339.2</ele>
        <time>2025-02-20T09:50:52Z</time>
      </trkpt>
      <trkpt lat="45.63301" lon="6.54933">
        <ele>2339.2</ele>
        <time>2025-02-20T09:50:53Z</time>
      </trkpt>
      <trkpt lat="45.63301" lon="6.54933">
        <ele>2339.2</ele>
        <time>2025-02-20T09:50:54Z</time>
      </trkpt>
      <trkpt lat="45.63301" lon="6.54933">
        <ele>2339.2</ele>
        <time>2025-02-20T09:50:55Z</time>
      </trkpt>
      <trkpt lat="45.63301" lon="6.54933">
        <ele>2339.2</ele>
        <time>2025-02-20T09:50:56Z</time>
      </trkpt>
      <trkpt lat="45.63301" lon="6.54933">
        <ele>2339.2</ele>
        <time>2025-02-20T09:50:57Z</time>
      </trkpt>
      <trkpt lat="45.63301" lon="6.54933">
        <ele>2339.2</ele>
        <time>2025-02-20T09:50:58Z</time>
      </trkpt>
      <trkpt lat="45.63301" lon="6.54933">
        <ele>2339.2</ele>
        <time>2025-02-20T09:50:59Z</time>
      </trkpt>
      <trkpt lat="45.63301" lon="6.54933">
        <ele>2339.2</ele>
        <time>2025-02-20T09:51:00Z</time>
      </trkpt>
      <trkpt lat="45.63301" lon="6.54933">
        <ele>2339</ele>
        <time>2025-02-20T09:51:01Z</time>
      </trkpt>
      <trkpt lat="45.63301" lon="6.54933">
        <ele>2339</ele>
        <time>2025-02-20T09:51:02Z</time>
      </trkpt>
      <trkpt lat="45.63301" lon="6.54933">
        <ele>2339</ele>
        <time>2025-02-20T09:51:03Z</time>
      </trkpt>
      <trkpt lat="45.63301" lon="6.54933">
        <ele>2339</ele>
        <time>2025-02-20T09:51:04Z</time>
      </trkpt>
      <trkpt lat="45.63301" lon="6.54933">
        <ele>2339.6</ele>
        <time>2025-02-20T09:51:05Z</time>
      </trkpt>
      <trkpt lat="45.63301" lon="6.54933">
        <ele>2339.6</ele>
        <time>2025-02-20T09:51:06Z</time>
      </trkpt>
      <trkpt lat="45.63301" lon="6.54933">
        <ele>2339.6</ele>
        <time>2025-02-20T09:51:07Z</time>
      </trkpt>
      <trkpt lat="45.63301" lon="6.54933">
        <ele>2339.6</ele>
        <time>2025-02-20T09:51:08Z</time>
      </trkpt>
      <trkpt lat="45.63301" lon="6.54933">
        <ele>2339.4</ele>
        <time>2025-02-20T09:51:09Z</time>
      </trkpt>
      <trkpt lat="45.63301" lon="6.54933">
        <ele>2339.4</ele>
        <time>2025-02-20T09:51:10Z</time>
      </trkpt>
      <trkpt lat="45.63301" lon="6.54933">
        <ele>2339.4</ele>
        <time>2025-02-20T09:51:11Z</time>
      </trkpt>
      <trkpt lat="45.63301" lon="6.54933">
        <ele>2339.4</ele>
        <time>2025-02-20T09:51:12Z</time>
      </trkpt>
      <trkpt lat="45.63301" lon="6.54933">
        <ele>2339</ele>
        <time>2025-02-20T09:51:13Z</time>
      </trkpt>
      <trkpt lat="45.63301" lon="6.54933">
        <ele>2339</ele>
        <time>2025-02-20T09:51:14Z</time>
      </trkpt>
      <trkpt lat="45.63301" lon="6.54933">
        <ele>2339</ele>
        <time>2025-02-20T09:51:15Z</time>
      </trkpt>
      <trkpt lat="45.63301" lon="6.54933">
        <ele>2339</ele>
        <time>2025-02-20T09:51:16Z</time>
      </trkpt>
      <trkpt lat="45.63301" lon="6.54933">
        <ele>2338.2</ele>
        <time>2025-02-20T09:51:17Z</time>
      </trkpt>
      <trkpt lat="45.63301" lon="6.54933">
        <ele>2338.2</ele>
        <time>2025-02-20T09:51:18Z</time>
      </trkpt>
      <trkpt lat="45.63301" lon="6.54933">
        <ele>2338.2</ele>
        <time>2025-02-20T09:51:19Z</time>
      </trkpt>
      <trkpt lat="45.63301" lon="6.54933">
        <ele>2339.2</ele>
        <time>2025-02-20T09:51:20Z</time>
      </trkpt>
      <trkpt lat="45.63301" lon="6.54933">
        <ele>2338.8</ele>
        <time>2025-02-20T09:51:21Z</time>
      </trkpt>
      <trkpt lat="45.63301" lon="6.54933">
        <ele>2338.8</ele>
        <time>2025-02-20T09:51:22Z</time>
      </trkpt>
      <trkpt lat="45.63301" lon="6.54933">
        <ele>2338.8</ele>
        <time>2025-02-20T09:51:23Z</time>
      </trkpt>
      <trkpt lat="45.63301" lon="6.54933">
        <ele>2338.8</ele>
        <time>2025-02-20T09:51:24Z</time>
      </trkpt>
      <trkpt lat="45.63301" lon="6.54933">
        <ele>2339</ele>
        <time>2025-02-20T09:51:25Z</time>
      </trkpt>
      <trkpt lat="45.63301" lon="6.54933">
        <ele>2339</ele>
        <time>2025-02-20T09:51:26Z</time>
      </trkpt>
      <trkpt lat="45.63301" lon="6.54933">
        <ele>2339</ele>
        <time>2025-02-20T09:51:27Z</time>
      </trkpt>
      <trkpt lat="45.63301" lon="6.54933">
        <ele>2339</ele>
        <time>2025-02-20T09:51:28Z</time>
      </trkpt>
      <trkpt lat="45.63301" lon="6.54933">
        <ele>2340.2</ele>
        <time>2025-02-20T09:51:29Z</time>
      </trkpt>
      <trkpt lat="45.63301" lon="6.54933">
        <ele>2340.2</ele>
        <time>2025-02-20T09:51:30Z</time>
      </trkpt>
      <trkpt lat="45.63301" lon="6.54933">
        <ele>2340.2</ele>
        <time>2025-02-20T09:51:31Z</time>
      </trkpt>
      <trkpt lat="45.63301" lon="6.54933">
        <ele>2339.2</ele>
        <time>2025-02-20T09:51:32Z</time>
      </trkpt>
      <trkpt lat="45.63301" lon="6.54933">
        <ele>2338.8</ele>
        <time>2025-02-20T09:51:33Z</time>
      </trkpt>
      <trkpt lat="45.63301" lon="6.54933">
        <ele>2338.8</ele>
        <time>2025-02-20T09:51:34Z</time>
      </trkpt>
      <trkpt lat="45.63301" lon="6.54933">
        <ele>2338.8</ele>
        <time>2025-02-20T09:51:35Z</time>
      </trkpt>
      <trkpt lat="45.63301" lon="6.54933">
        <ele>2339</ele>
        <time>2025-02-20T09:51:36Z</time>
      </trkpt>
      <trkpt lat="45.63301" lon="6.54933">
        <ele>2339.4</ele>
        <time>2025-02-20T09:51:37Z</time>
      </trkpt>
      <trkpt lat="45.63301" lon="6.54933">
        <ele>2339.4</ele>
        <time>2025-02-20T09:51:38Z</time>
      </trkpt>
      <trkpt lat="45.63301" lon="6.54933">
        <ele>2339.4</ele>
        <time>2025-02-20T09:51:39Z</time>
      </trkpt>
      <trkpt lat="45.63301" lon="6.54933">
        <ele>2339.4</ele>
        <time>2025-02-20T09:51:40Z</time>
      </trkpt>
      <trkpt lat="45.63301" lon="6.54933">
        <ele>2339.2</ele>
        <time>2025-02-20T09:51:41Z</time>
      </trkpt>
      <trkpt lat="45.63301" lon="6.54933">
        <ele>2339.2</ele>
        <time>2025-02-20T09:51:42Z</time>
      </trkpt>
      <trkpt lat="45.63301" lon="6.54933">
        <ele>2339.2</ele>
        <time>2025-02-20T09:51:43Z</time>
      </trkpt>
      <trkpt lat="45.63301" lon="6.54933">
        <ele>2339.2</ele>
        <time>2025-02-20T09:51:44Z</time>
      </trkpt>
      <trkpt lat="45.63301" lon="6.54933">
        <ele>2339.4</ele>
        <time>2025-02-20T09:51:45Z</time>
      </trkpt>
      <trkpt lat="45.63301" lon="6.54933">
        <ele>2339.4</ele>
        <time>2025-02-20T09:51:46Z</time>
      </trkpt>
      <trkpt lat="45.63301" lon="6.54933">
        <ele>2339.4</ele>
        <time>2025-02-20T09:51:47Z</time>
      </trkpt>
      <trkpt lat="45.63301" lon="6.54933">
        <ele>2339</ele>
        <time>2025-02-20T09:51:48Z</time>
      </trkpt>
      <trkpt lat="45.63301" lon="6.54933">
        <ele>2339.2</ele>
        <time>2025-02-20T09:51:49Z</time>
      </trkpt>
      <trkpt lat="45.63301" lon="6.54933">
        <ele>2339.2</ele>
        <time>2025-02-20T09:51:50Z</time>
      </trkpt>
      <trkpt lat="45.63301" lon="6.54933">
        <ele>2339.2</ele>
        <time>2025-02-20T09:51:51Z</time>
      </trkpt>
      <trkpt lat="45.63301" lon="6.54933">
        <ele>2339.2</ele>
        <time>2025-02-20T09:51:52Z</time>
      </trkpt>
      <trkpt lat="45.63301" lon="6.54933">
        <ele>2339.4</ele>
        <time>2025-02-20T09:51:53Z</time>
      </trkpt>
      <trkpt lat="45.63301" lon="6.54933">
        <ele>2339.4</ele>
        <time>2025-02-20T09:51:54Z</time>
      </trkpt>
      <trkpt lat="45.63301" lon="6.54933">
        <ele>2339.4</ele>
        <time>2025-02-20T09:51:55Z</time>
      </trkpt>
      <trkpt lat="45.63301" lon="6.54933">
        <ele>2339.4</ele>
        <time>2025-02-20T09:51:56Z</time>
      </trkpt>
      <trkpt lat="45.63301" lon="6.54933">
        <ele>2339.4</ele>
        <time>2025-02-20T09:51:57Z</time>
      </trkpt>
      <trkpt lat="45.63301" lon="6.54933">
        <ele>2339.4</ele>
        <time>2025-02-20T09:51:58Z</time>
      </trkpt>
      <trkpt lat="45.63301" lon="6.54933">
        <ele>2339.4</ele>
        <time>2025-02-20T09:51:59Z</time>
      </trkpt>
      <trkpt lat="45.63301" lon="6.54933">
        <ele>2339.4</ele>
        <time>2025-02-20T09:52:00Z</time>
      </trkpt>
      <trkpt lat="45.63301" lon="6.54933">
        <ele>2339.6</ele>
        <time>2025-02-20T09:52:01Z</time>
      </trkpt>
      <trkpt lat="45.63301" lon="6.54933">
        <ele>2339.6</ele>
        <time>2025-02-20T09:52:02Z</time>
      </trkpt>
      <trkpt lat="45.63301" lon="6.54933">
        <ele>2339.6</ele>
        <time>2025-02-20T09:52:03Z</time>
      </trkpt>
      <trkpt lat="45.63301" lon="6.54933">
        <ele>2339.4</ele>
        <time>2025-02-20T09:52:04Z</time>
      </trkpt>
      <trkpt lat="45.63301" lon="6.54933">
        <ele>2339.6</ele>
        <time>2025-02-20T09:52:05Z</time>
      </trkpt>
      <trkpt lat="45.63301" lon="6.54933">
        <ele>2339.6</ele>
        <time>2025-02-20T09:52:06Z</time>
      </trkpt>
      <trkpt lat="45.63301" lon="6.54933">
        <ele>2339.6</ele>
        <time>2025-02-20T09:52:07Z</time>
      </trkpt>
      <trkpt lat="45.63301" lon="6.54933">
        <ele>2339.6</ele>
        <time>2025-02-20T09:52:08Z</time>
      </trkpt>
      <trkpt lat="45.63301" lon="6.54933">
        <ele>2339.6</ele>
        <time>2025-02-20T09:52:09Z</time>
      </trkpt>
      <trkpt lat="45.63301" lon="6.54933">
        <ele>2339.6</ele>
        <time>2025-02-20T09:52:10Z</time>
      </trkpt>
      <trkpt lat="45.63301" lon="6.54933">
        <ele>2339.6</ele>
        <time>2025-02-20T09:52:11Z</time>
      </trkpt>
      <trkpt lat="45.63301" lon="6.54933">
        <ele>2339.8</ele>
        <time>2025-02-20T09:52:12Z</time>
      </trkpt>
      <trkpt lat="45.63301" lon="6.54933">
        <ele>2339.4</ele>
        <time>2025-02-20T09:52:13Z</time>
      </trkpt>
      <trkpt lat="45.63301" lon="6.54933">
        <ele>2339.4</ele>
        <time>2025-02-20T09:52:14Z</time>
      </trkpt>
      <trkpt lat="45.63301" lon="6.54933">
        <ele>2339.4</ele>
        <time>2025-02-20T09:52:15Z</time>
      </trkpt>
      <trkpt lat="45.63301" lon="6.54933">
        <ele>2339.4</ele>
        <time>2025-02-20T09:52:16Z</time>
      </trkpt>
      <trkpt lat="45.63301" lon="6.54933">
        <ele>2339.4</ele>
        <time>2025-02-20T09:52:17Z</time>
      </trkpt>
      <trkpt lat="45.63301" lon="6.54933">
        <ele>2339.4</ele>
        <time>2025-02-20T09:52:18Z</time>
      </trkpt>
      <trkpt lat="45.63301" lon="6.54933">
        <ele>2339.4</ele>
        <time>2025-02-20T09:52:19Z</time>
      </trkpt>
      <trkpt lat="45.63301" lon="6.54933">
        <ele>2339.8</ele>
        <time>2025-02-20T09:52:20Z</time>
      </trkpt>
      <trkpt lat="45.63301" lon="6.54933">
        <ele>2339.4</ele>
        <time>2025-02-20T09:52:21Z</time>
      </trkpt>
      <trkpt lat="45.63301" lon="6.54933">
        <ele>2339.4</ele>
        <time>2025-02-20T09:52:22Z</time>
      </trkpt>
      <trkpt lat="45.63301" lon="6.54933">
        <ele>2339.4</ele>
        <time>2025-02-20T09:52:23Z</time>
      </trkpt>
      <trkpt lat="45.63301" lon="6.54933">
        <ele>2339.6</ele>
        <time>2025-02-20T09:52:24Z</time>
      </trkpt>
      <trkpt lat="45.63301" lon="6.54933">
        <ele>2339.4</ele>
        <time>2025-02-20T09:52:25Z</time>
      </trkpt>
      <trkpt lat="45.63301" lon="6.54933">
        <ele>2339.4</ele>
        <time>2025-02-20T09:52:26Z</time>
      </trkpt>
      <trkpt lat="45.63301" lon="6.54933">
        <ele>2339.4</ele>
        <time>2025-02-20T09:52:27Z</time>
      </trkpt>
      <trkpt lat="45.63301" lon="6.54933">
        <ele>2339.4</ele>
        <time>2025-02-20T09:52:28Z</time>
      </trkpt>
      <trkpt lat="45.63301" lon="6.54933">
        <ele>2339.6</ele>
        <time>2025-02-20T09:52:29Z</time>
      </trkpt>
      <trkpt lat="45.63301" lon="6.54933">
        <ele>2339.6</ele>
        <time>2025-02-20T09:52:30Z</time>
      </trkpt>
      <trkpt lat="45.63301" lon="6.54933">
        <ele>2339.6</ele>
        <time>2025-02-20T09:52:31Z</time>
      </trkpt>
      <trkpt lat="45.63301" lon="6.54933">
        <ele>2339.6</ele>
        <time>2025-02-20T09:52:32Z</time>
      </trkpt>
      <trkpt lat="45.63301" lon="6.54933">
        <ele>2339.6</ele>
        <time>2025-02-20T09:52:33Z</time>
      </trkpt>
      <trkpt lat="45.63301" lon="6.54933">
        <ele>2339.6</ele>
        <time>2025-02-20T09:52:34Z</time>
      </trkpt>
      <trkpt lat="45.63301" lon="6.54933">
        <ele>2339.6</ele>
        <time>2025-02-20T09:52:35Z</time>
      </trkpt>
      <trkpt lat="45.63301" lon="6.54933">
        <ele>2339.6</ele>
        <time>2025-02-20T09:52:36Z</time>
      </trkpt>
      <trkpt lat="45.63301" lon="6.54933">
        <ele>2339.8</ele>
        <time>2025-02-20T09:52:37Z</time>
      </trkpt>
      <trkpt lat="45.63301" lon="6.54933">
        <ele>2339.8</ele>
        <time>2025-02-20T09:52:38Z</time>
      </trkpt>
      <trkpt lat="45.63301" lon="6.54933">
        <ele>2339.8</ele>
        <time>2025-02-20T09:52:39Z</time>
      </trkpt>
      <trkpt lat="45.63301" lon="6.54933">
        <ele>2339.8</ele>
        <time>2025-02-20T09:52:40Z</time>
      </trkpt>
      <trkpt lat="45.63301" lon="6.54933">
        <ele>2339.6</ele>
        <time>2025-02-20T09:52:41Z</time>
      </trkpt>
      <trkpt lat="45.63301" lon="6.54933">
        <ele>2339.6</ele>
        <time>2025-02-20T09:52:42Z</time>
      </trkpt>
      <trkpt lat="45.63301" lon="6.54933">
        <ele>2339.6</ele>
        <time>2025-02-20T09:52:43Z</time>
      </trkpt>
      <trkpt lat="45.63301" lon="6.54933">
        <ele>2339.6</ele>
        <time>2025-02-20T09:52:44Z</time>
      </trkpt>
      <trkpt lat="45.63301" lon="6.54933">
        <ele>2339.6</ele>
        <time>2025-02-20T09:52:45Z</time>
      </trkpt>
      <trkpt lat="45.63301" lon="6.54933">
        <ele>2339.6</ele>
        <time>2025-02-20T09:52:46Z</time>
      </trkpt>
      <trkpt lat="45.63301" lon="6.54933">
        <ele>2339.6</ele>
        <time>2025-02-20T09:52:47Z</time>
      </trkpt>
      <trkpt lat="45.63301" lon="6.54933">
        <ele>2339.6</ele>
        <time>2025-02-20T09:52:48Z</time>
      </trkpt>
      <trkpt lat="45.63301" lon="6.54933">
        <ele>2339.4</ele>
        <time>2025-02-20T09:52:49Z</time>
      </trkpt>
      <trkpt lat="45.63301" lon="6.54933">
        <ele>2339.4</ele>
        <time>2025-02-20T09:52:50Z</time>
      </trkpt>
      <trkpt lat="45.63301" lon="6.54933">
        <ele>2339.4</ele>
        <time>2025-02-20T09:52:51Z</time>
      </trkpt>
      <trkpt lat="45.63301" lon="6.54933">
        <ele>2339.4</ele>
        <time>2025-02-20T09:52:52Z</time>
      </trkpt>
      <trkpt lat="45.63301" lon="6.54933">
        <ele>2339.4</ele>
        <time>2025-02-20T09:52:53Z</time>
      </trkpt>
      <trkpt lat="45.63301" lon="6.54933">
        <ele>2339.4</ele>
        <time>2025-02-20T09:52:54Z</time>
      </trkpt>
      <trkpt lat="45.63301" lon="6.54933">
        <ele>2339.4</ele>
        <time>2025-02-20T09:52:55Z</time>
      </trkpt>
      <trkpt lat="45.63301" lon="6.54933">
        <ele>2339.4</ele>
        <time>2025-02-20T09:52:56Z</time>
      </trkpt>
      <trkpt lat="45.63301" lon="6.54933">
        <ele>2339.2</ele>
        <time>2025-02-20T09:52:57Z</time>
      </trkpt>
      <trkpt lat="45.63301" lon="6.54933">
        <ele>2339.2</ele>
        <time>2025-02-20T09:52:58Z</time>
      </trkpt>
      <trkpt lat="45.63301" lon="6.54933">
        <ele>2339.2</ele>
        <time>2025-02-20T09:52:59Z</time>
      </trkpt>
      <trkpt lat="45.63301" lon="6.54933">
        <ele>2340</ele>
        <time>2025-02-20T09:53:00Z</time>
      </trkpt>
      <trkpt lat="45.63301" lon="6.54933">
        <ele>2339.6</ele>
        <time>2025-02-20T09:53:01Z</time>
      </trkpt>
      <trkpt lat="45.63301" lon="6.54933">
        <ele>2339.6</ele>
        <time>2025-02-20T09:53:02Z</time>
      </trkpt>
      <trkpt lat="45.63301" lon="6.54933">
        <ele>2339.6</ele>
        <time>2025-02-20T09:53:03Z</time>
      </trkpt>
      <trkpt lat="45.63301" lon="6.54933">
        <ele>2339.6</ele>
        <time>2025-02-20T09:53:04Z</time>
      </trkpt>
      <trkpt lat="45.63301" lon="6.54933">
        <ele>2339.6</ele>
        <time>2025-02-20T09:53:05Z</time>
      </trkpt>
      <trkpt lat="45.63301" lon="6.54933">
        <ele>2339.6</ele>
        <time>2025-02-20T09:53:06Z</time>
      </trkpt>
      <trkpt lat="45.63301" lon="6.54933">
        <ele>2339.6</ele>
        <time>2025-02-20T09:53:07Z</time>
      </trkpt>
      <trkpt lat="45.63301" lon="6.54933">
        <ele>2339.4</ele>
        <time>2025-02-20T09:53:08Z</time>
      </trkpt>
      <trkpt lat="45.63301" lon="6.54933">
        <ele>2339.4</ele>
        <time>2025-02-20T09:53:09Z</time>
      </trkpt>
      <trkpt lat="45.63301" lon="6.54933">
        <ele>2339.4</ele>
        <time>2025-02-20T09:53:10Z</time>
      </trkpt>
      <trkpt lat="45.63301" lon="6.54933">
        <ele>2339.4</ele>
        <time>2025-02-20T09:53:11Z</time>
      </trkpt>
      <trkpt lat="45.63301" lon="6.54933">
        <ele>2339.4</ele>
        <time>2025-02-20T09:53:12Z</time>
      </trkpt>
      <trkpt lat="45.63301" lon="6.54933">
        <ele>2339.2</ele>
        <time>2025-02-20T09:53:13Z</time>
      </trkpt>
      <trkpt lat="45.63301" lon="6.54933">
        <ele>2339.2</ele>
        <time>2025-02-20T09:53:14Z</time>
      </trkpt>
      <trkpt lat="45.63301" lon="6.54933">
        <ele>2339.2</ele>
        <time>2025-02-20T09:53:15Z</time>
      </trkpt>
      <trkpt lat="45.63301" lon="6.54933">
        <ele>2339.2</ele>
        <time>2025-02-20T09:53:16Z</time>
      </trkpt>
      <trkpt lat="45.63301" lon="6.54933">
        <ele>2339.6</ele>
        <time>2025-02-20T09:53:17Z</time>
      </trkpt>
      <trkpt lat="45.63301" lon="6.54933">
        <ele>2339.6</ele>
        <time>2025-02-20T09:53:18Z</time>
      </trkpt>
      <trkpt lat="45.63301" lon="6.54933">
        <ele>2339.6</ele>
        <time>2025-02-20T09:53:19Z</time>
      </trkpt>
      <trkpt lat="45.63301" lon="6.54933">
        <ele>2339.6</ele>
        <time>2025-02-20T09:53:20Z</time>
      </trkpt>
      <trkpt lat="45.63301" lon="6.54933">
        <ele>2339.2</ele>
        <time>2025-02-20T09:53:21Z</time>
      </trkpt>
      <trkpt lat="45.63301" lon="6.54933">
        <ele>2339.2</ele>
        <time>2025-02-20T09:53:22Z</time>
      </trkpt>
      <trkpt lat="45.63301" lon="6.54933">
        <ele>2339.2</ele>
        <time>2025-02-20T09:53:23Z</time>
      </trkpt>
      <trkpt lat="45.63301" lon="6.54933">
        <ele>2339.2</ele>
        <time>2025-02-20T09:53:24Z</time>
      </trkpt>
      <trkpt lat="45.63301" lon="6.54933">
        <ele>2339.4</ele>
        <time>2025-02-20T09:53:25Z</time>
      </trkpt>
      <trkpt lat="45.63301" lon="6.54933">
        <ele>2339.4</ele>
        <time>2025-02-20T09:53:26Z</time>
      </trkpt>
      <trkpt lat="45.63301" lon="6.54933">
        <ele>2339.4</ele>
        <time>2025-02-20T09:53:27Z</time>
      </trkpt>
      <trkpt lat="45.63301" lon="6.54933">
        <ele>2339.4</ele>
        <time>2025-02-20T09:53:28Z</time>
      </trkpt>
      <trkpt lat="45.63301" lon="6.54933">
        <ele>2339.6</ele>
        <time>2025-02-20T09:53:29Z</time>
      </trkpt>
      <trkpt lat="45.63301" lon="6.54933">
        <ele>2339.6</ele>
        <time>2025-02-20T09:53:30Z</time>
      </trkpt>
      <trkpt lat="45.63301" lon="6.54933">
        <ele>2339.6</ele>
        <time>2025-02-20T09:53:31Z</time>
      </trkpt>
      <trkpt lat="45.63301" lon="6.54933">
        <ele>2339.4</ele>
        <time>2025-02-20T09:53:32Z</time>
      </trkpt>
      <trkpt lat="45.63301" lon="6.54933">
        <ele>2339.6</ele>
        <time>2025-02-20T09:53:33Z</time>
      </trkpt>
      <trkpt lat="45.63301" lon="6.54933">
        <ele>2339.6</ele>
        <time>2025-02-20T09:53:34Z</time>
      </trkpt>
      <trkpt lat="45.63301" lon="6.54933">
        <ele>2339.6</ele>
        <time>2025-02-20T09:53:35Z</time>
      </trkpt>
      <trkpt lat="45.63301" lon="6.54933">
        <ele>2339.6</ele>
        <time>2025-02-20T09:53:36Z</time>
      </trkpt>
      <trkpt lat="45.63301" lon="6.54933">
        <ele>2339.8</ele>
        <time>2025-02-20T09:53:37Z</time>
      </trkpt>
      <trkpt lat="45.63301" lon="6.54933">
        <ele>2339.8</ele>
        <time>2025-02-20T09:53:38Z</time>
      </trkpt>
      <trkpt lat="45.63301" lon="6.54933">
        <ele>2339.8</ele>
        <time>2025-02-20T09:53:39Z</time>
      </trkpt>
      <trkpt lat="45.63301" lon="6.54933">
        <ele>2339.8</ele>
        <time>2025-02-20T09:53:40Z</time>
      </trkpt>
      <trkpt lat="45.63301" lon="6.54933">
        <ele>2339.8</ele>
        <time>2025-02-20T09:53:41Z</time>
      </trkpt>
      <trkpt lat="45.63301" lon="6.54933">
        <ele>2339.8</ele>
        <time>2025-02-20T09:53:42Z</time>
      </trkpt>
      <trkpt lat="45.63301" lon="6.54933">
        <ele>2339.8</ele>
        <time>2025-02-20T09:53:43Z</time>
      </trkpt>
      <trkpt lat="45.63301" lon="6.54933">
        <ele>2339.2</ele>
        <time>2025-02-20T09:53:44Z</time>
      </trkpt>
      <trkpt lat="45.63301" lon="6.54933">
        <ele>2339.2</ele>
        <time>2025-02-20T09:53:45Z</time>
      </trkpt>
      <trkpt lat="45.63301" lon="6.54933">
        <ele>2339.2</ele>
        <time>2025-02-20T09:53:46Z</time>
      </trkpt>
      <trkpt lat="45.63301" lon="6.54933">
        <ele>2339.2</ele>
        <time>2025-02-20T09:53:47Z</time>
      </trkpt>
      <trkpt lat="45.63301" lon="6.54933">
        <ele>2339.6</ele>
        <time>2025-02-20T09:53:48Z</time>
      </trkpt>
      <trkpt lat="45.63301" lon="6.54933">
        <ele>2339.4</ele>
        <time>2025-02-20T09:53:49Z</time>
      </trkpt>
      <trkpt lat="45.63301" lon="6.54933">
        <ele>2339.4</ele>
        <time>2025-02-20T09:53:50Z</time>
      </trkpt>
      <trkpt lat="45.63301" lon="6.54933">
        <ele>2339.4</ele>
        <time>2025-02-20T09:53:51Z</time>
      </trkpt>
      <trkpt lat="45.63301" lon="6.54933">
        <ele>2339.4</ele>
        <time>2025-02-20T09:53:52Z</time>
      </trkpt>
      <trkpt lat="45.63301" lon="6.54933">
        <ele>2339.6</ele>
        <time>2025-02-20T09:53:53Z</time>
      </trkpt>
      <trkpt lat="45.63301" lon="6.54933">
        <ele>2339.6</ele>
        <time>2025-02-20T09:53:54Z</time>
      </trkpt>
      <trkpt lat="45.63301" lon="6.54933">
        <ele>2339.6</ele>
        <time>2025-02-20T09:53:55Z</time>
      </trkpt>
      <trkpt lat="45.63301" lon="6.54933">
        <ele>2339.6</ele>
        <time>2025-02-20T09:53:56Z</time>
      </trkpt>
      <trkpt lat="45.63301" lon="6.54933">
        <ele>2339.6</ele>
        <time>2025-02-20T09:53:57Z</time>
      </trkpt>
      <trkpt lat="45.63301" lon="6.54933">
        <ele>2339.6</ele>
        <time>2025-02-20T09:53:58Z</time>
      </trkpt>
      <trkpt lat="45.63301" lon="6.54933">
        <ele>2339.6</ele>
        <time>2025-02-20T09:53:59Z</time>
      </trkpt>
      <trkpt lat="45.63301" lon="6.54933">
        <ele>2339.6</ele>
        <time>2025-02-20T09:54:00Z</time>
      </trkpt>
      <trkpt lat="45.63301" lon="6.54933">
        <ele>2339.6</ele>
        <time>2025-02-20T09:54:01Z</time>
      </trkpt>
      <trkpt lat="45.63301" lon="6.54933">
        <ele>2339.6</ele>
        <time>2025-02-20T09:54:02Z</time>
      </trkpt>
      <trkpt lat="45.63301" lon="6.54933">
        <ele>2339.6</ele>
        <time>2025-02-20T09:54:03Z</time>
      </trkpt>
      <trkpt lat="45.63301" lon="6.54933">
        <ele>2339.6</ele>
        <time>2025-02-20T09:54:04Z</time>
      </trkpt>
      <trkpt lat="45.63301" lon="6.54933">
        <ele>2339.8</ele>
        <time>2025-02-20T09:54:05Z</time>
      </trkpt>
      <trkpt lat="45.63301" lon="6.54933">
        <ele>2339.8</ele>
        <time>2025-02-20T09:54:06Z</time>
      </trkpt>
      <trkpt lat="45.63301" lon="6.54933">
        <ele>2339.8</ele>
        <time>2025-02-20T09:54:07Z</time>
      </trkpt>
      <trkpt lat="45.63301" lon="6.54933">
        <ele>2339.8</ele>
        <time>2025-02-20T09:54:08Z</time>
      </trkpt>
      <trkpt lat="45.63301" lon="6.54933">
        <ele>2339.6</ele>
        <time>2025-02-20T09:54:09Z</time>
      </trkpt>
      <trkpt lat="45.63301" lon="6.54933">
        <ele>2339.6</ele>
        <time>2025-02-20T09:54:10Z</time>
      </trkpt>
      <trkpt lat="45.63301" lon="6.54933">
        <ele>2339.6</ele>
        <time>2025-02-20T09:54:11Z</time>
      </trkpt>
      <trkpt lat="45.63301" lon="6.54933">
        <ele>2339.6</ele>
        <time>2025-02-20T09:54:12Z</time>
      </trkpt>
      <trkpt lat="45.63301" lon="6.54933">
        <ele>2339.4</ele>
        <time>2025-02-20T09:54:13Z</time>
      </trkpt>
      <trkpt lat="45.63301" lon="6.54933">
        <ele>2339.4</ele>
        <time>2025-02-20T09:54:14Z</time>
      </trkpt>
      <trkpt lat="45.63301" lon="6.54933">
        <ele>2339.4</ele>
        <time>2025-02-20T09:54:15Z</time>
      </trkpt>
      <trkpt lat="45.63301" lon="6.54933">
        <ele>2339.4</ele>
        <time>2025-02-20T09:54:16Z</time>
      </trkpt>
      <trkpt lat="45.63301" lon="6.54933">
        <ele>2339.2</ele>
        <time>2025-02-20T09:54:17Z</time>
      </trkpt>
      <trkpt lat="45.63301" lon="6.54933">
        <ele>2339.2</ele>
        <time>2025-02-20T09:54:18Z</time>
      </trkpt>
      <trkpt lat="45.63301" lon="6.54933">
        <ele>2339.2</ele>
        <time>2025-02-20T09:54:19Z</time>
      </trkpt>
      <trkpt lat="45.63301" lon="6.54933">
        <ele>2339.2</ele>
        <time>2025-02-20T09:54:20Z</time>
      </trkpt>
      <trkpt lat="45.63301" lon="6.54933">
        <ele>2339.4</ele>
        <time>2025-02-20T09:54:21Z</time>
      </trkpt>
      <trkpt lat="45.63301" lon="6.54933">
        <ele>2339.4</ele>
        <time>2025-02-20T09:54:22Z</time>
      </trkpt>
      <trkpt lat="45.63301" lon="6.54933">
        <ele>2339.4</ele>
        <time>2025-02-20T09:54:23Z</time>
      </trkpt>
      <trkpt lat="45.63301" lon="6.54933">
        <ele>2339.4</ele>
        <time>2025-02-20T09:54:24Z</time>
      </trkpt>
      <trkpt lat="45.63301" lon="6.54933">
        <ele>2339.4</ele>
        <time>2025-02-20T09:54:25Z</time>
      </trkpt>
      <trkpt lat="45.63301" lon="6.54933">
        <ele>2339.4</ele>
        <time>2025-02-20T09:54:26Z</time>
      </trkpt>
      <trkpt lat="45.63301" lon="6.54933">
        <ele>2339.4</ele>
        <time>2025-02-20T09:54:27Z</time>
      </trkpt>
      <trkpt lat="45.63301" lon="6.54933">
        <ele>2339.4</ele>
        <time>2025-02-20T09:54:28Z</time>
      </trkpt>
      <trkpt lat="45.63301" lon="6.54933">
        <ele>2339.4</ele>
        <time>2025-02-20T09:54:29Z</time>
      </trkpt>
      <trkpt lat="45.63301" lon="6.54933">
        <ele>2339.4</ele>
        <time>2025-02-20T09:54:30Z</time>
      </trkpt>
      <trkpt lat="45.63301" lon="6.54933">
        <ele>2339.4</ele>
        <time>2025-02-20T09:54:31Z</time>
      </trkpt>
      <trkpt lat="45.63301" lon="6.54933">
        <ele>2339.4</ele>
        <time>2025-02-20T09:54:32Z</time>
      </trkpt>
      <trkpt lat="45.63301" lon="6.54933">
        <ele>2339.2</ele>
        <time>2025-02-20T09:54:33Z</time>
      </trkpt>
      <trkpt lat="45.63301" lon="6.54933">
        <ele>2339.2</ele>
        <time>2025-02-20T09:54:34Z</time>
      </trkpt>
      <trkpt lat="45.63301" lon="6.54933">
        <ele>2339.2</ele>
        <time>2025-02-20T09:54:35Z</time>
      </trkpt>
      <trkpt lat="45.63301" lon="6.54933">
        <ele>2339.2</ele>
        <time>2025-02-20T09:54:36Z</time>
      </trkpt>
      <trkpt lat="45.63301" lon="6.54933">
        <ele>2339.4</ele>
        <time>2025-02-20T09:54:37Z</time>
      </trkpt>
      <trkpt lat="45.63301" lon="6.54933">
        <ele>2339.4</ele>
        <time>2025-02-20T09:54:38Z</time>
      </trkpt>
      <trkpt lat="45.63301" lon="6.54933">
        <ele>2339.4</ele>
        <time>2025-02-20T09:54:39Z</time>
      </trkpt>
      <trkpt lat="45.63301" lon="6.54933">
        <ele>2339.8</ele>
        <time>2025-02-20T09:54:40Z</time>
      </trkpt>
      <trkpt lat="45.63301" lon="6.54933">
        <ele>2339.6</ele>
        <time>2025-02-20T09:54:41Z</time>
      </trkpt>
      <trkpt lat="45.63301" lon="6.54933">
        <ele>2339.6</ele>
        <time>2025-02-20T09:54:42Z</time>
      </trkpt>
      <trkpt lat="45.63301" lon="6.54933">
        <ele>2339.6</ele>
        <time>2025-02-20T09:54:43Z</time>
      </trkpt>
      <trkpt lat="45.63301" lon="6.54933">
        <ele>2339.6</ele>
        <time>2025-02-20T09:54:44Z</time>
      </trkpt>
      <trkpt lat="45.63301" lon="6.54933">
        <ele>2339.2</ele>
        <time>2025-02-20T09:54:45Z</time>
      </trkpt>
      <trkpt lat="45.63301" lon="6.54933">
        <ele>2339.2</ele>
        <time>2025-02-20T09:54:46Z</time>
      </trkpt>
      <trkpt lat="45.63301" lon="6.54933">
        <ele>2339.2</ele>
        <time>2025-02-20T09:54:47Z</time>
      </trkpt>
      <trkpt lat="45.63301" lon="6.54933">
        <ele>2339.4</ele>
        <time>2025-02-20T09:54:48Z</time>
      </trkpt>
      <trkpt lat="45.63301" lon="6.54933">
        <ele>2339.6</ele>
        <time>2025-02-20T09:54:49Z</time>
      </trkpt>
      <trkpt lat="45.63301" lon="6.54933">
        <ele>2339.6</ele>
        <time>2025-02-20T09:54:50Z</time>
      </trkpt>
      <trkpt lat="45.63301" lon="6.54933">
        <ele>2339.6</ele>
        <time>2025-02-20T09:54:51Z</time>
      </trkpt>
      <trkpt lat="45.63301" lon="6.54933">
        <ele>2339.4</ele>
        <time>2025-02-20T09:54:52Z</time>
      </trkpt>
      <trkpt lat="45.63301" lon="6.54933">
        <ele>2339.6</ele>
        <time>2025-02-20T09:54:53Z</time>
      </trkpt>
      <trkpt lat="45.63301" lon="6.54933">
        <ele>2339.6</ele>
        <time>2025-02-20T09:54:54Z</time>
      </trkpt>
      <trkpt lat="45.63301" lon="6.54933">
        <ele>2339.6</ele>
        <time>2025-02-20T09:54:55Z</time>
      </trkpt>
      <trkpt lat="45.63301" lon="6.54933">
        <ele>2339.6</ele>
        <time>2025-02-20T09:54:56Z</time>
      </trkpt>
      <trkpt lat="45.63301" lon="6.54933">
        <ele>2340.2</ele>
        <time>2025-02-20T09:54:57Z</time>
      </trkpt>
      <trkpt lat="45.63301" lon="6.54933">
        <ele>2340.2</ele>
        <time>2025-02-20T09:54:58Z</time>
      </trkpt>
      <trkpt lat="45.63301" lon="6.54933">
        <ele>2340.2</ele>
        <time>2025-02-20T09:54:59Z</time>
      </trkpt>
      <trkpt lat="45.63301" lon="6.54933">
        <ele>2339.4</ele>
        <time>2025-02-20T09:55:00Z</time>
      </trkpt>
      <trkpt lat="45.63301" lon="6.54933">
        <ele>2339.4</ele>
        <time>2025-02-20T09:55:01Z</time>
      </trkpt>
      <trkpt lat="45.63301" lon="6.54933">
        <ele>2339.4</ele>
        <time>2025-02-20T09:55:02Z</time>
      </trkpt>
      <trkpt lat="45.63301" lon="6.54933">
        <ele>2339.4</ele>
        <time>2025-02-20T09:55:03Z</time>
      </trkpt>
      <trkpt lat="45.63301" lon="6.54933">
        <ele>2339.2</ele>
        <time>2025-02-20T09:55:04Z</time>
      </trkpt>
      <trkpt lat="45.63301" lon="6.54933">
        <ele>2339</ele>
        <time>2025-02-20T09:55:05Z</time>
      </trkpt>
      <trkpt lat="45.63301" lon="6.54933">
        <ele>2339</ele>
        <time>2025-02-20T09:55:06Z</time>
      </trkpt>
      <trkpt lat="45.63301" lon="6.54933">
        <ele>2339</ele>
        <time>2025-02-20T09:55:07Z</time>
      </trkpt>
      <trkpt lat="45.63301" lon="6.54933">
        <ele>2339.6</ele>
        <time>2025-02-20T09:55:08Z</time>
      </trkpt>
      <trkpt lat="45.63301" lon="6.54933">
        <ele>2339.2</ele>
        <time>2025-02-20T09:55:09Z</time>
      </trkpt>
      <trkpt lat="45.63301" lon="6.54933">
        <ele>2339.2</ele>
        <time>2025-02-20T09:55:10Z</time>
      </trkpt>
      <trkpt lat="45.63301" lon="6.54933">
        <ele>2339.2</ele>
        <time>2025-02-20T09:55:11Z</time>
      </trkpt>
      <trkpt lat="45.63301" lon="6.54933">
        <ele>2339.4</ele>
        <time>2025-02-20T09:55:12Z</time>
      </trkpt>
      <trkpt lat="45.63301" lon="6.54933">
        <ele>2339.4</ele>
        <time>2025-02-20T09:55:13Z</time>
      </trkpt>
      <trkpt lat="45.63301" lon="6.54933">
        <ele>2339.4</ele>
        <time>2025-02-20T09:55:14Z</time>
      </trkpt>
      <trkpt lat="45.63301" lon="6.54933">
        <ele>2339.4</ele>
        <time>2025-02-20T09:55:15Z</time>
      </trkpt>
      <trkpt lat="45.63301" lon="6.54933">
        <ele>2339.4</ele>
        <time>2025-02-20T09:55:16Z</time>
      </trkpt>
      <trkpt lat="45.63301" lon="6.54933">
        <ele>2339.6</ele>
        <time>2025-02-20T09:55:17Z</time>
      </trkpt>
      <trkpt lat="45.63301" lon="6.54933">
        <ele>2339.6</ele>
        <time>2025-02-20T09:55:18Z</time>
      </trkpt>
      <trkpt lat="45.63301" lon="6.54933">
        <ele>2339.6</ele>
        <time>2025-02-20T09:55:19Z</time>
      </trkpt>
      <trkpt lat="45.63301" lon="6.54933">
        <ele>2339.6</ele>
        <time>2025-02-20T09:55:20Z</time>
      </trkpt>
      <trkpt lat="45.63301" lon="6.54933">
        <ele>2339.2</ele>
        <time>2025-02-20T09:55:21Z</time>
      </trkpt>
      <trkpt lat="45.63301" lon="6.54933">
        <ele>2339.2</ele>
        <time>2025-02-20T09:55:22Z</time>
      </trkpt>
      <trkpt lat="45.63301" lon="6.54933">
        <ele>2339.2</ele>
        <time>2025-02-20T09:55:23Z</time>
      </trkpt>
      <trkpt lat="45.63301" lon="6.54933">
        <ele>2339.2</ele>
        <time>2025-02-20T09:55:24Z</time>
      </trkpt>
      <trkpt lat="45.63301" lon="6.54933">
        <ele>2339.2</ele>
        <time>2025-02-20T09:55:25Z</time>
      </trkpt>
      <trkpt lat="45.63301" lon="6.54933">
        <ele>2339.2</ele>
        <time>2025-02-20T09:55:26Z</time>
      </trkpt>
      <trkpt lat="45.63301" lon="6.54933">
        <ele>2339.2</ele>
        <time>2025-02-20T09:55:27Z</time>
      </trkpt>
      <trkpt lat="45.63301" lon="6.54933">
        <ele>2339.2</ele>
        <time>2025-02-20T09:55:28Z</time>
      </trkpt>
      <trkpt lat="45.63301" lon="6.54933">
        <ele>2339.8</ele>
        <time>2025-02-20T09:55:29Z</time>
      </trkpt>
      <trkpt lat="45.63301" lon="6.54933">
        <ele>2339.8</ele>
        <time>2025-02-20T09:55:30Z</time>
      </trkpt>
      <trkpt lat="45.63301" lon="6.54933">
        <ele>2339.8</ele>
        <time>2025-02-20T09:55:31Z</time>
      </trkpt>
      <trkpt lat="45.63301" lon="6.54933">
        <ele>2339.4</ele>
        <time>2025-02-20T09:55:32Z</time>
      </trkpt>
      <trkpt lat="45.63301" lon="6.54933">
        <ele>2339.4</ele>
        <time>2025-02-20T09:55:33Z</time>
      </trkpt>
      <trkpt lat="45.63301" lon="6.54933">
        <ele>2339.4</ele>
        <time>2025-02-20T09:55:34Z</time>
      </trkpt>
      <trkpt lat="45.63301" lon="6.54933">
        <ele>2339.4</ele>
        <time>2025-02-20T09:55:35Z</time>
      </trkpt>
      <trkpt lat="45.63301" lon="6.54933">
        <ele>2339.4</ele>
        <time>2025-02-20T09:55:36Z</time>
      </trkpt>
      <trkpt lat="45.63301" lon="6.54933">
        <ele>2339.4</ele>
        <time>2025-02-20T09:55:37Z</time>
      </trkpt>
      <trkpt lat="45.63301" lon="6.54933">
        <ele>2339.4</ele>
        <time>2025-02-20T09:55:38Z</time>
      </trkpt>
      <trkpt lat="45.63301" lon="6.54933">
        <ele>2339.4</ele>
        <time>2025-02-20T09:55:39Z</time>
      </trkpt>
      <trkpt lat="45.63301" lon="6.54933">
        <ele>2339.4</ele>
        <time>2025-02-20T09:55:40Z</time>
      </trkpt>
      <trkpt lat="45.63301" lon="6.54933">
        <ele>2339.2</ele>
        <time>2025-02-20T09:55:41Z</time>
      </trkpt>
      <trkpt lat="45.63301" lon="6.54933">
        <ele>2339.2</ele>
        <time>2025-02-20T09:55:42Z</time>
      </trkpt>
      <trkpt lat="45.63301" lon="6.54933">
        <ele>2339.2</ele>
        <time>2025-02-20T09:55:43Z</time>
      </trkpt>
      <trkpt lat="45.63301" lon="6.54933">
        <ele>2339.2</ele>
        <time>2025-02-20T09:55:44Z</time>
      </trkpt>
      <trkpt lat="45.63301" lon="6.54933">
        <ele>2339.2</ele>
        <time>2025-02-20T09:55:45Z</time>
      </trkpt>
      <trkpt lat="45.63301" lon="6.54933">
        <ele>2339.2</ele>
        <time>2025-02-20T09:55:46Z</time>
      </trkpt>
      <trkpt lat="45.63301" lon="6.54933">
        <ele>2339.2</ele>
        <time>2025-02-20T09:55:47Z</time>
      </trkpt>
      <trkpt lat="45.63301" lon="6.54933">
        <ele>2339.2</ele>
        <time>2025-02-20T09:55:48Z</time>
      </trkpt>
      <trkpt lat="45.63301" lon="6.54933">
        <ele>2339.6</ele>
        <time>2025-02-20T09:55:49Z</time>
      </trkpt>
      <trkpt lat="45.63301" lon="6.54933">
        <ele>2339.6</ele>
        <time>2025-02-20T09:55:50Z</time>
      </trkpt>
      <trkpt lat="45.63301" lon="6.54933">
        <ele>2339.6</ele>
        <time>2025-02-20T09:55:51Z</time>
      </trkpt>
      <trkpt lat="45.63301" lon="6.54933">
        <ele>2339.4</ele>
        <time>2025-02-20T09:55:52Z</time>
      </trkpt>
      <trkpt lat="45.63301" lon="6.54933">
        <ele>2339.4</ele>
        <time>2025-02-20T09:55:53Z</time>
      </trkpt>
      <trkpt lat="45.63301" lon="6.54933">
        <ele>2339.4</ele>
        <time>2025-02-20T09:55:54Z</time>
      </trkpt>
      <trkpt lat="45.63301" lon="6.54933">
        <ele>2339.4</ele>
        <time>2025-02-20T09:55:55Z</time>
      </trkpt>
      <trkpt lat="45.63301" lon="6.54933">
        <ele>2339</ele>
        <time>2025-02-20T09:55:56Z</time>
      </trkpt>
      <trkpt lat="45.63301" lon="6.54933">
        <ele>2339.6</ele>
        <time>2025-02-20T09:55:57Z</time>
      </trkpt>
      <trkpt lat="45.63301" lon="6.54933">
        <ele>2339.6</ele>
        <time>2025-02-20T09:55:58Z</time>
      </trkpt>
      <trkpt lat="45.63301" lon="6.54933">
        <ele>2339.6</ele>
        <time>2025-02-20T09:55:59Z</time>
      </trkpt>
      <trkpt lat="45.63301" lon="6.54933">
        <ele>2339.2</ele>
        <time>2025-02-20T09:56:00Z</time>
      </trkpt>
      <trkpt lat="45.63301" lon="6.54933">
        <ele>2339.4</ele>
        <time>2025-02-20T09:56:01Z</time>
      </trkpt>
      <trkpt lat="45.63301" lon="6.54933">
        <ele>2339.4</ele>
        <time>2025-02-20T09:56:02Z</time>
      </trkpt>
      <trkpt lat="45.63301" lon="6.54933">
        <ele>2339.4</ele>
        <time>2025-02-20T09:56:03Z</time>
      </trkpt>
      <trkpt lat="45.63301" lon="6.54933">
        <ele>2339.4</ele>
        <time>2025-02-20T09:56:04Z</time>
      </trkpt>
      <trkpt lat="45.63301" lon="6.54933">
        <ele>2339.4</ele>
        <time>2025-02-20T09:56:05Z</time>
      </trkpt>
      <trkpt lat="45.63301" lon="6.54933">
        <ele>2339.4</ele>
        <time>2025-02-20T09:56:06Z</time>
      </trkpt>
      <trkpt lat="45.63301" lon="6.54933">
        <ele>2339.4</ele>
        <time>2025-02-20T09:56:07Z</time>
      </trkpt>
      <trkpt lat="45.63301" lon="6.54933">
        <ele>2339.4</ele>
        <time>2025-02-20T09:56:08Z</time>
      </trkpt>
      <trkpt lat="45.63301" lon="6.54933">
        <ele>2339.2</ele>
        <time>2025-02-20T09:56:09Z</time>
      </trkpt>
      <trkpt lat="45.63301" lon="6.54933">
        <ele>2339.2</ele>
        <time>2025-02-20T09:56:10Z</time>
      </trkpt>
      <trkpt lat="45.63301" lon="6.54933">
        <ele>2339.2</ele>
        <time>2025-02-20T09:56:11Z</time>
      </trkpt>
      <trkpt lat="45.63301" lon="6.54933">
        <ele>2339.2</ele>
        <time>2025-02-20T09:56:12Z</time>
      </trkpt>
      <trkpt lat="45.63301" lon="6.54933">
        <ele>2339.4</ele>
        <time>2025-02-20T09:56:13Z</time>
      </trkpt>
      <trkpt lat="45.63301" lon="6.54933">
        <ele>2339.4</ele>
        <time>2025-02-20T09:56:14Z</time>
      </trkpt>
      <trkpt lat="45.63301" lon="6.54933">
        <ele>2339.4</ele>
        <time>2025-02-20T09:56:15Z</time>
      </trkpt>
      <trkpt lat="45.63301" lon="6.54933">
        <ele>2339.4</ele>
        <time>2025-02-20T09:56:16Z</time>
      </trkpt>
      <trkpt lat="45.63301" lon="6.54933">
        <ele>2339</ele>
        <time>2025-02-20T09:56:17Z</time>
      </trkpt>
      <trkpt lat="45.63301" lon="6.54933">
        <ele>2339</ele>
        <time>2025-02-20T09:56:18Z</time>
      </trkpt>
      <trkpt lat="45.63301" lon="6.54933">
        <ele>2339</ele>
        <time>2025-02-20T09:56:19Z</time>
      </trkpt>
      <trkpt lat="45.63301" lon="6.54933">
        <ele>2339.4</ele>
        <time>2025-02-20T09:56:20Z</time>
      </trkpt>
      <trkpt lat="45.63301" lon="6.54933">
        <ele>2339.6</ele>
        <time>2025-02-20T09:56:21Z</time>
      </trkpt>
      <trkpt lat="45.63301" lon="6.54933">
        <ele>2339.6</ele>
        <time>2025-02-20T09:56:22Z</time>
      </trkpt>
      <trkpt lat="45.63301" lon="6.54933">
        <ele>2339.6</ele>
        <time>2025-02-20T09:56:23Z</time>
      </trkpt>
      <trkpt lat="45.63301" lon="6.54933">
        <ele>2339.4</ele>
        <time>2025-02-20T09:56:24Z</time>
      </trkpt>
      <trkpt lat="45.63301" lon="6.54933">
        <ele>2339.4</ele>
        <time>2025-02-20T09:56:25Z</time>
      </trkpt>
      <trkpt lat="45.63301" lon="6.54933">
        <ele>2339.4</ele>
        <time>2025-02-20T09:56:26Z</time>
      </trkpt>
      <trkpt lat="45.63301" lon="6.54933">
        <ele>2339.4</ele>
        <time>2025-02-20T09:56:27Z</time>
      </trkpt>
      <trkpt lat="45.63301" lon="6.54933">
        <ele>2339.4</ele>
        <time>2025-02-20T09:56:28Z</time>
      </trkpt>
      <trkpt lat="45.63301" lon="6.54933">
        <ele>2339.4</ele>
        <time>2025-02-20T09:56:29Z</time>
      </trkpt>
      <trkpt lat="45.63301" lon="6.54933">
        <ele>2339.4</ele>
        <time>2025-02-20T09:56:30Z</time>
      </trkpt>
      <trkpt lat="45.63301" lon="6.54933">
        <ele>2339.4</ele>
        <time>2025-02-20T09:56:31Z</time>
      </trkpt>
      <trkpt lat="45.63301" lon="6.54933">
        <ele>2339.6</ele>
        <time>2025-02-20T09:56:32Z</time>
      </trkpt>
      <trkpt lat="45.63301" lon="6.54933">
        <ele>2339.4</ele>
        <time>2025-02-20T09:56:33Z</time>
      </trkpt>
      <trkpt lat="45.63301" lon="6.54933">
        <ele>2339.4</ele>
        <time>2025-02-20T09:56:34Z</time>
      </trkpt>
      <trkpt lat="45.63301" lon="6.54933">
        <ele>2339.4</ele>
        <time>2025-02-20T09:56:35Z</time>
      </trkpt>
      <trkpt lat="45.63301" lon="6.54933">
        <ele>2339.6</ele>
        <time>2025-02-20T09:56:36Z</time>
      </trkpt>
      <trkpt lat="45.63301" lon="6.54933">
        <ele>2339.4</ele>
        <time>2025-02-20T09:56:37Z</time>
      </trkpt>
      <trkpt lat="45.63301" lon="6.54933">
        <ele>2339.4</ele>
        <time>2025-02-20T09:56:38Z</time>
      </trkpt>
      <trkpt lat="45.63301" lon="6.54933">
        <ele>2339.4</ele>
        <time>2025-02-20T09:56:39Z</time>
      </trkpt>
      <trkpt lat="45.63301" lon="6.54933">
        <ele>2339.4</ele>
        <time>2025-02-20T09:56:40Z</time>
      </trkpt>
      <trkpt lat="45.63301" lon="6.54933">
        <ele>2339.6</ele>
        <time>2025-02-20T09:56:41Z</time>
      </trkpt>
      <trkpt lat="45.63301" lon="6.54933">
        <ele>2339.6</ele>
        <time>2025-02-20T09:56:42Z</time>
      </trkpt>
      <trkpt lat="45.63301" lon="6.54933">
        <ele>2339.6</ele>
        <time>2025-02-20T09:56:43Z</time>
      </trkpt>
      <trkpt lat="45.63301" lon="6.54933">
        <ele>2339.6</ele>
        <time>2025-02-20T09:56:44Z</time>
      </trkpt>
      <trkpt lat="45.63301" lon="6.54933">
        <ele>2339.4</ele>
        <time>2025-02-20T09:56:45Z</time>
      </trkpt>
      <trkpt lat="45.63301" lon="6.54933">
        <ele>2339.4</ele>
        <time>2025-02-20T09:56:46Z</time>
      </trkpt>
      <trkpt lat="45.63301" lon="6.54933">
        <ele>2339.4</ele>
        <time>2025-02-20T09:56:47Z</time>
      </trkpt>
      <trkpt lat="45.63301" lon="6.54933">
        <ele>2339.4</ele>
        <time>2025-02-20T09:56:48Z</time>
      </trkpt>
      <trkpt lat="45.63301" lon="6.54933">
        <ele>2339.4</ele>
        <time>2025-02-20T09:56:49Z</time>
      </trkpt>
      <trkpt lat="45.63301" lon="6.54933">
        <ele>2339.4</ele>
        <time>2025-02-20T09:56:50Z</time>
      </trkpt>
      <trkpt lat="45.63301" lon="6.54933">
        <ele>2339.4</ele>
        <time>2025-02-20T09:56:51Z</time>
      </trkpt>
      <trkpt lat="45.63301" lon="6.54933">
        <ele>2339.6</ele>
        <time>2025-02-20T09:56:52Z</time>
      </trkpt>
      <trkpt lat="45.63301" lon="6.54933">
        <ele>2339.6</ele>
        <time>2025-02-20T09:56:53Z</time>
      </trkpt>
      <trkpt lat="45.63301" lon="6.54933">
        <ele>2339.6</ele>
        <time>2025-02-20T09:56:54Z</time>
      </trkpt>
      <trkpt lat="45.63301" lon="6.54933">
        <ele>2339.6</ele>
        <time>2025-02-20T09:56:55Z</time>
      </trkpt>
      <trkpt lat="45.63301" lon="6.54933">
        <ele>2339.2</ele>
        <time>2025-02-20T09:56:56Z</time>
      </trkpt>
      <trkpt lat="45.63301" lon="6.54933">
        <ele>2340</ele>
        <time>2025-02-20T09:56:57Z</time>
      </trkpt>
      <trkpt lat="45.63301" lon="6.54933">
        <ele>2340</ele>
        <time>2025-02-20T09:56:58Z</time>
      </trkpt>
      <trkpt lat="45.63301" lon="6.54933">
        <ele>2340</ele>
        <time>2025-02-20T09:56:59Z</time>
      </trkpt>
      <trkpt lat="45.63301" lon="6.54933">
        <ele>2339.4</ele>
        <time>2025-02-20T09:57:00Z</time>
      </trkpt>
      <trkpt lat="45.63301" lon="6.54933">
        <ele>2339.2</ele>
        <time>2025-02-20T09:57:01Z</time>
      </trkpt>
      <trkpt lat="45.63301" lon="6.54933">
        <ele>2339.2</ele>
        <time>2025-02-20T09:57:02Z</time>
      </trkpt>
      <trkpt lat="45.63301" lon="6.54933">
        <ele>2339.2</ele>
        <time>2025-02-20T09:57:03Z</time>
      </trkpt>
      <trkpt lat="45.63301" lon="6.54933">
        <ele>2339.2</ele>
        <time>2025-02-20T09:57:04Z</time>
      </trkpt>
      <trkpt lat="45.63301" lon="6.54933">
        <ele>2339.2</ele>
        <time>2025-02-20T09:57:05Z</time>
      </trkpt>
      <trkpt lat="45.63301" lon="6.54933">
        <ele>2339.2</ele>
        <time>2025-02-20T09:57:06Z</time>
      </trkpt>
      <trkpt lat="45.63301" lon="6.54933">
        <ele>2339.2</ele>
        <time>2025-02-20T09:57:07Z</time>
      </trkpt>
      <trkpt lat="45.63301" lon="6.54933">
        <ele>2339.4</ele>
        <time>2025-02-20T09:57:08Z</time>
      </trkpt>
      <trkpt lat="45.63301" lon="6.54933">
        <ele>2339.6</ele>
        <time>2025-02-20T09:57:09Z</time>
      </trkpt>
      <trkpt lat="45.63301" lon="6.54933">
        <ele>2339.6</ele>
        <time>2025-02-20T09:57:10Z</time>
      </trkpt>
      <trkpt lat="45.63301" lon="6.54933">
        <ele>2339.6</ele>
        <time>2025-02-20T09:57:11Z</time>
      </trkpt>
      <trkpt lat="45.63301" lon="6.54933">
        <ele>2339.6</ele>
        <time>2025-02-20T09:57:12Z</time>
      </trkpt>
      <trkpt lat="45.63301" lon="6.54933">
        <ele>2338.2</ele>
        <time>2025-02-20T09:57:13Z</time>
      </trkpt>
      <trkpt lat="45.63301" lon="6.54933">
        <ele>2338.2</ele>
        <time>2025-02-20T09:57:14Z</time>
      </trkpt>
      <trkpt lat="45.63301" lon="6.54933">
        <ele>2338.2</ele>
        <time>2025-02-20T09:57:15Z</time>
      </trkpt>
      <trkpt lat="45.63301" lon="6.54933">
        <ele>2339.2</ele>
        <time>2025-02-20T09:57:16Z</time>
      </trkpt>
      <trkpt lat="45.63301" lon="6.54933">
        <ele>2339.8</ele>
        <time>2025-02-20T09:57:17Z</time>
      </trkpt>
      <trkpt lat="45.63301" lon="6.54933">
        <ele>2339.8</ele>
        <time>2025-02-20T09:57:18Z</time>
      </trkpt>
      <trkpt lat="45.63301" lon="6.54933">
        <ele>2339.8</ele>
        <time>2025-02-20T09:57:19Z</time>
      </trkpt>
      <trkpt lat="45.63301" lon="6.54933">
        <ele>2339.6</ele>
        <time>2025-02-20T09:57:20Z</time>
      </trkpt>
      <trkpt lat="45.63301" lon="6.54933">
        <ele>2340</ele>
        <time>2025-02-20T09:57:21Z</time>
      </trkpt>
      <trkpt lat="45.63301" lon="6.54933">
        <ele>2340</ele>
        <time>2025-02-20T09:57:22Z</time>
      </trkpt>
      <trkpt lat="45.63301" lon="6.54933">
        <ele>2340</ele>
        <time>2025-02-20T09:57:23Z</time>
      </trkpt>
      <trkpt lat="45.63301" lon="6.54933">
        <ele>2339.6</ele>
        <time>2025-02-20T09:57:24Z</time>
      </trkpt>
      <trkpt lat="45.63301" lon="6.54933">
        <ele>2339.8</ele>
        <time>2025-02-20T09:57:25Z</time>
      </trkpt>
      <trkpt lat="45.63301" lon="6.54933">
        <ele>2339.8</ele>
        <time>2025-02-20T09:57:26Z</time>
      </trkpt>
      <trkpt lat="45.63301" lon="6.54933">
        <ele>2339.8</ele>
        <time>2025-02-20T09:57:27Z</time>
      </trkpt>
      <trkpt lat="45.63301" lon="6.54933">
        <ele>2339.6</ele>
        <time>2025-02-20T09:57:28Z</time>
      </trkpt>
      <trkpt lat="45.63301" lon="6.54933">
        <ele>2339.8</ele>
        <time>2025-02-20T09:57:29Z</time>
      </trkpt>
      <trkpt lat="45.63301" lon="6.54933">
        <ele>2339.8</ele>
        <time>2025-02-20T09:57:30Z</time>
      </trkpt>
      <trkpt lat="45.63301" lon="6.54933">
        <ele>2339.8</ele>
        <time>2025-02-20T09:57:31Z</time>
      </trkpt>
      <trkpt lat="45.63301" lon="6.54933">
        <ele>2339.8</ele>
        <time>2025-02-20T09:57:32Z</time>
      </trkpt>
      <trkpt lat="45.63301" lon="6.54933">
        <ele>2339.8</ele>
        <time>2025-02-20T09:57:33Z</time>
      </trkpt>
      <trkpt lat="45.63301" lon="6.54933">
        <ele>2339.8</ele>
        <time>2025-02-20T09:57:34Z</time>
      </trkpt>
      <trkpt lat="45.63301" lon="6.54933">
        <ele>2339.8</ele>
        <time>2025-02-20T09:57:35Z</time>
      </trkpt>
      <trkpt lat="45.63301" lon="6.54933">
        <ele>2339.6</ele>
        <time>2025-02-20T09:57:36Z</time>
      </trkpt>
      <trkpt lat="45.63301" lon="6.54933">
        <ele>2339.4</ele>
        <time>2025-02-20T09:57:37Z</time>
      </trkpt>
      <trkpt lat="45.63301" lon="6.54933">
        <ele>2339.4</ele>
        <time>2025-02-20T09:57:38Z</time>
      </trkpt>
      <trkpt lat="45.63301" lon="6.54933">
        <ele>2339.4</ele>
        <time>2025-02-20T09:57:39Z</time>
      </trkpt>
      <trkpt lat="45.63301" lon="6.54933">
        <ele>2340</ele>
        <time>2025-02-20T09:57:40Z</time>
      </trkpt>
      <trkpt lat="45.63301" lon="6.54933">
        <ele>2340</ele>
        <time>2025-02-20T09:57:41Z</time>
      </trkpt>
      <trkpt lat="45.63301" lon="6.54933">
        <ele>2340</ele>
        <time>2025-02-20T09:57:42Z</time>
      </trkpt>
      <trkpt lat="45.63301" lon="6.54933">
        <ele>2340</ele>
        <time>2025-02-20T09:57:43Z</time>
      </trkpt>
      <trkpt lat="45.63301" lon="6.54933">
        <ele>2340</ele>
        <time>2025-02-20T09:57:44Z</time>
      </trkpt>
      <trkpt lat="45.63301" lon="6.54933">
        <ele>2339.4</ele>
        <time>2025-02-20T09:57:45Z</time>
      </trkpt>
      <trkpt lat="45.63301" lon="6.54933">
        <ele>2339.4</ele>
        <time>2025-02-20T09:57:46Z</time>
      </trkpt>
      <trkpt lat="45.63301" lon="6.54933">
        <ele>2339.4</ele>
        <time>2025-02-20T09:57:47Z</time>
      </trkpt>
      <trkpt lat="45.63301" lon="6.54933">
        <ele>2339.4</ele>
        <time>2025-02-20T09:57:48Z</time>
      </trkpt>
      <trkpt lat="45.63301" lon="6.54933">
        <ele>2340.2</ele>
        <time>2025-02-20T09:57:49Z</time>
      </trkpt>
      <trkpt lat="45.63301" lon="6.54933">
        <ele>2340.2</ele>
        <time>2025-02-20T09:57:50Z</time>
      </trkpt>
      <trkpt lat="45.63301" lon="6.54933">
        <ele>2340.2</ele>
        <time>2025-02-20T09:57:51Z</time>
      </trkpt>
      <trkpt lat="45.63301" lon="6.54933">
        <ele>2339.8</ele>
        <time>2025-02-20T09:57:52Z</time>
      </trkpt>
      <trkpt lat="45.63301" lon="6.54933">
        <ele>2339.4</ele>
        <time>2025-02-20T09:57:53Z</time>
      </trkpt>
      <trkpt lat="45.63301" lon="6.54933">
        <ele>2339.4</ele>
        <time>2025-02-20T09:57:54Z</time>
      </trkpt>
      <trkpt lat="45.63301" lon="6.54933">
        <ele>2339.4</ele>
        <time>2025-02-20T09:57:55Z</time>
      </trkpt>
      <trkpt lat="45.63301" lon="6.54933">
        <ele>2339.4</ele>
        <time>2025-02-20T09:57:56Z</time>
      </trkpt>
      <trkpt lat="45.63301" lon="6.54933">
        <ele>2340</ele>
        <time>2025-02-20T09:57:57Z</time>
      </trkpt>
      <trkpt lat="45.63301" lon="6.54933">
        <ele>2340</ele>
        <time>2025-02-20T09:57:58Z</time>
      </trkpt>
      <trkpt lat="45.63301" lon="6.54933">
        <ele>2340</ele>
        <time>2025-02-20T09:57:59Z</time>
      </trkpt>
      <trkpt lat="45.63301" lon="6.54933">
        <ele>2340</ele>
        <time>2025-02-20T09:58:00Z</time>
      </trkpt>
      <trkpt lat="45.63301" lon="6.54933">
        <ele>2339.4</ele>
        <time>2025-02-20T09:58:01Z</time>
      </trkpt>
      <trkpt lat="45.63301" lon="6.54933">
        <ele>2339.4</ele>
        <time>2025-02-20T09:58:02Z</time>
      </trkpt>
      <trkpt lat="45.63301" lon="6.54933">
        <ele>2339.4</ele>
        <time>2025-02-20T09:58:03Z</time>
      </trkpt>
      <trkpt lat="45.63301" lon="6.54933">
        <ele>2339.8</ele>
        <time>2025-02-20T09:58:04Z</time>
      </trkpt>
      <trkpt lat="45.63301" lon="6.54933">
        <ele>2340</ele>
        <time>2025-02-20T09:58:05Z</time>
      </trkpt>
      <trkpt lat="45.63301" lon="6.54933">
        <ele>2340</ele>
        <time>2025-02-20T09:58:06Z</time>
      </trkpt>
      <trkpt lat="45.63301" lon="6.54933">
        <ele>2340</ele>
        <time>2025-02-20T09:58:07Z</time>
      </trkpt>
      <trkpt lat="45.63301" lon="6.54933">
        <ele>2339.4</ele>
        <time>2025-02-20T09:58:08Z</time>
      </trkpt>
      <trkpt lat="45.63301" lon="6.54933">
        <ele>2339.4</ele>
        <time>2025-02-20T09:58:09Z</time>
      </trkpt>
      <trkpt lat="45.63301" lon="6.54933">
        <ele>2339.4</ele>
        <time>2025-02-20T09:58:10Z</time>
      </trkpt>
      <trkpt lat="45.63301" lon="6.54933">
        <ele>2339.4</ele>
        <time>2025-02-20T09:58:11Z</time>
      </trkpt>
      <trkpt lat="45.63301" lon="6.54933">
        <ele>2339.4</ele>
        <time>2025-02-20T09:58:12Z</time>
      </trkpt>
      <trkpt lat="45.63301" lon="6.54933">
        <ele>2339.6</ele>
        <time>2025-02-20T09:58:13Z</time>
      </trkpt>
      <trkpt lat="45.63301" lon="6.54933">
        <ele>2339.6</ele>
        <time>2025-02-20T09:58:14Z</time>
      </trkpt>
      <trkpt lat="45.63301" lon="6.54933">
        <ele>2339.6</ele>
        <time>2025-02-20T09:58:15Z</time>
      </trkpt>
      <trkpt lat="45.63301" lon="6.54933">
        <ele>2339.6</ele>
        <time>2025-02-20T09:58:16Z</time>
      </trkpt>
      <trkpt lat="45.63301" lon="6.54933">
        <ele>2339.6</ele>
        <time>2025-02-20T09:58:17Z</time>
      </trkpt>
      <trkpt lat="45.63301" lon="6.54933">
        <ele>2339.6</ele>
        <time>2025-02-20T09:58:18Z</time>
      </trkpt>
      <trkpt lat="45.63301" lon="6.54933">
        <ele>2339.6</ele>
        <time>2025-02-20T09:58:19Z</time>
      </trkpt>
      <trkpt lat="45.63301" lon="6.54933">
        <ele>2339.6</ele>
        <time>2025-02-20T09:58:20Z</time>
      </trkpt>
      <trkpt lat="45.63301" lon="6.54933">
        <ele>2339.2</ele>
        <time>2025-02-20T09:58:21Z</time>
      </trkpt>
      <trkpt lat="45.63301" lon="6.54933">
        <ele>2339.2</ele>
        <time>2025-02-20T09:58:22Z</time>
      </trkpt>
      <trkpt lat="45.63301" lon="6.54933">
        <ele>2339.2</ele>
        <time>2025-02-20T09:58:23Z</time>
      </trkpt>
      <trkpt lat="45.63301" lon="6.54933">
        <ele>2339.6</ele>
        <time>2025-02-20T09:58:24Z</time>
      </trkpt>
      <trkpt lat="45.63301" lon="6.54933">
        <ele>2339.4</ele>
        <time>2025-02-20T09:58:25Z</time>
      </trkpt>
      <trkpt lat="45.63301" lon="6.54933">
        <ele>2339.4</ele>
        <time>2025-02-20T09:58:26Z</time>
      </trkpt>
      <trkpt lat="45.63301" lon="6.54933">
        <ele>2339.4</ele>
        <time>2025-02-20T09:58:27Z</time>
      </trkpt>
      <trkpt lat="45.63301" lon="6.54933">
        <ele>2339.4</ele>
        <time>2025-02-20T09:58:28Z</time>
      </trkpt>
      <trkpt lat="45.63301" lon="6.54933">
        <ele>2339.4</ele>
        <time>2025-02-20T09:58:29Z</time>
      </trkpt>
      <trkpt lat="45.63301" lon="6.54933">
        <ele>2339.4</ele>
        <time>2025-02-20T09:58:30Z</time>
      </trkpt>
      <trkpt lat="45.63301" lon="6.54933">
        <ele>2339.4</ele>
        <time>2025-02-20T09:58:31Z</time>
      </trkpt>
      <trkpt lat="45.63301" lon="6.54933">
        <ele>2339.4</ele>
        <time>2025-02-20T09:58:32Z</time>
      </trkpt>
      <trkpt lat="45.63301" lon="6.54933">
        <ele>2339.4</ele>
        <time>2025-02-20T09:58:33Z</time>
      </trkpt>
      <trkpt lat="45.63301" lon="6.54933">
        <ele>2339.4</ele>
        <time>2025-02-20T09:58:34Z</time>
      </trkpt>
      <trkpt lat="45.63301" lon="6.54933">
        <ele>2339.4</ele>
        <time>2025-02-20T09:58:35Z</time>
      </trkpt>
      <trkpt lat="45.63301" lon="6.54933">
        <ele>2339.4</ele>
        <time>2025-02-20T09:58:36Z</time>
      </trkpt>
      <trkpt lat="45.63301" lon="6.54933">
        <ele>2339.2</ele>
        <time>2025-02-20T09:58:37Z</time>
      </trkpt>
      <trkpt lat="45.63301" lon="6.54933">
        <ele>2339.2</ele>
        <time>2025-02-20T09:58:38Z</time>
      </trkpt>
      <trkpt lat="45.63301" lon="6.54933">
        <ele>2339.2</ele>
        <time>2025-02-20T09:58:39Z</time>
      </trkpt>
      <trkpt lat="45.63301" lon="6.54933">
        <ele>2339.2</ele>
        <time>2025-02-20T09:58:40Z</time>
      </trkpt>
      <trkpt lat="45.63301" lon="6.54933">
        <ele>2339.2</ele>
        <time>2025-02-20T09:58:41Z</time>
      </trkpt>
      <trkpt lat="45.63301" lon="6.54933">
        <ele>2339.2</ele>
        <time>2025-02-20T09:58:42Z</time>
      </trkpt>
      <trkpt lat="45.63301" lon="6.54933">
        <ele>2339.2</ele>
        <time>2025-02-20T09:58:43Z</time>
      </trkpt>
      <trkpt lat="45.63301" lon="6.54933">
        <ele>2339.2</ele>
        <time>2025-02-20T09:58:44Z</time>
      </trkpt>
      <trkpt lat="45.63301" lon="6.54933">
        <ele>2339.6</ele>
        <time>2025-02-20T09:58:45Z</time>
      </trkpt>
      <trkpt lat="45.63301" lon="6.54933">
        <ele>2339.6</ele>
        <time>2025-02-20T09:58:46Z</time>
      </trkpt>
      <trkpt lat="45.63301" lon="6.54933">
        <ele>2339.6</ele>
        <time>2025-02-20T09:58:47Z</time>
      </trkpt>
      <trkpt lat="45.63301" lon="6.54933">
        <ele>2339.6</ele>
        <time>2025-02-20T09:58:48Z</time>
      </trkpt>
      <trkpt lat="45.63301" lon="6.54933">
        <ele>2339.4</ele>
        <time>2025-02-20T09:58:49Z</time>
      </trkpt>
      <trkpt lat="45.63301" lon="6.54933">
        <ele>2339.4</ele>
        <time>2025-02-20T09:58:50Z</time>
      </trkpt>
      <trkpt lat="45.63301" lon="6.54933">
        <ele>2339.4</ele>
        <time>2025-02-20T09:58:51Z</time>
      </trkpt>
      <trkpt lat="45.63301" lon="6.54933">
        <ele>2339.4</ele>
        <time>2025-02-20T09:58:52Z</time>
      </trkpt>
      <trkpt lat="45.63301" lon="6.54933">
        <ele>2339.6</ele>
        <time>2025-02-20T09:58:53Z</time>
      </trkpt>
      <trkpt lat="45.63301" lon="6.54933">
        <ele>2339.6</ele>
        <time>2025-02-20T09:58:54Z</time>
      </trkpt>
      <trkpt lat="45.63301" lon="6.54933">
        <ele>2339.6</ele>
        <time>2025-02-20T09:58:55Z</time>
      </trkpt>
      <trkpt lat="45.63301" lon="6.54933">
        <ele>2339.8</ele>
        <time>2025-02-20T09:58:56Z</time>
      </trkpt>
      <trkpt lat="45.63301" lon="6.54933">
        <ele>2339.8</ele>
        <time>2025-02-20T09:58:57Z</time>
      </trkpt>
      <trkpt lat="45.63301" lon="6.54933">
        <ele>2339.8</ele>
        <time>2025-02-20T09:58:58Z</time>
      </trkpt>
      <trkpt lat="45.63301" lon="6.54933">
        <ele>2339.8</ele>
        <time>2025-02-20T09:58:59Z</time>
      </trkpt>
      <trkpt lat="45.63301" lon="6.54933">
        <ele>2339.4</ele>
        <time>2025-02-20T09:59:00Z</time>
      </trkpt>
      <trkpt lat="45.63301" lon="6.54933">
        <ele>2339.2</ele>
        <time>2025-02-20T09:59:01Z</time>
      </trkpt>
      <trkpt lat="45.63301" lon="6.54933">
        <ele>2339.2</ele>
        <time>2025-02-20T09:59:02Z</time>
      </trkpt>
      <trkpt lat="45.63301" lon="6.54933">
        <ele>2339.2</ele>
        <time>2025-02-20T09:59:03Z</time>
      </trkpt>
      <trkpt lat="45.63301" lon="6.54933">
        <ele>2339.6</ele>
        <time>2025-02-20T09:59:04Z</time>
      </trkpt>
      <trkpt lat="45.63301" lon="6.54933">
        <ele>2339.4</ele>
        <time>2025-02-20T09:59:05Z</time>
      </trkpt>
      <trkpt lat="45.63301" lon="6.54933">
        <ele>2339.4</ele>
        <time>2025-02-20T09:59:06Z</time>
      </trkpt>
      <trkpt lat="45.63301" lon="6.54933">
        <ele>2339.4</ele>
        <time>2025-02-20T09:59:07Z</time>
      </trkpt>
      <trkpt lat="45.63301" lon="6.54933">
        <ele>2339.4</ele>
        <time>2025-02-20T09:59:08Z</time>
      </trkpt>
      <trkpt lat="45.63301" lon="6.54933">
        <ele>2339.4</ele>
        <time>2025-02-20T09:59:09Z</time>
      </trkpt>
      <trkpt lat="45.63301" lon="6.54933">
        <ele>2339.4</ele>
        <time>2025-02-20T09:59:10Z</time>
      </trkpt>
      <trkpt lat="45.63301" lon="6.54933">
        <ele>2339.4</ele>
        <time>2025-02-20T09:59:11Z</time>
      </trkpt>
      <trkpt lat="45.63301" lon="6.54933">
        <ele>2339.4</ele>
        <time>2025-02-20T09:59:12Z</time>
      </trkpt>
      <trkpt lat="45.63301" lon="6.54933">
        <ele>2339</ele>
        <time>2025-02-20T09:59:13Z</time>
      </trkpt>
      <trkpt lat="45.63301" lon="6.54933">
        <ele>2339</ele>
        <time>2025-02-20T09:59:14Z</time>
      </trkpt>
      <trkpt lat="45.63301" lon="6.54933">
        <ele>2339</ele>
        <time>2025-02-20T09:59:15Z</time>
      </trkpt>
      <trkpt lat="45.63301" lon="6.54933">
        <ele>2339.6</ele>
        <time>2025-02-20T09:59:16Z</time>
      </trkpt>
      <trkpt lat="45.63301" lon="6.54933">
        <ele>2339.4</ele>
        <time>2025-02-20T09:59:17Z</time>
      </trkpt>
      <trkpt lat="45.63301" lon="6.54933">
        <ele>2339.4</ele>
        <time>2025-02-20T09:59:18Z</time>
      </trkpt>
      <trkpt lat="45.63301" lon="6.54933">
        <ele>2339.4</ele>
        <time>2025-02-20T09:59:19Z</time>
      </trkpt>
      <trkpt lat="45.63301" lon="6.54933">
        <ele>2339.4</ele>
        <time>2025-02-20T09:59:20Z</time>
      </trkpt>
      <trkpt lat="45.63301" lon="6.54933">
        <ele>2339.2</ele>
        <time>2025-02-20T09:59:21Z</time>
      </trkpt>
      <trkpt lat="45.63301" lon="6.54933">
        <ele>2339.2</ele>
        <time>2025-02-20T09:59:22Z</time>
      </trkpt>
      <trkpt lat="45.63301" lon="6.54933">
        <ele>2339.2</ele>
        <time>2025-02-20T09:59:23Z</time>
      </trkpt>
      <trkpt lat="45.63301" lon="6.54933">
        <ele>2339.2</ele>
        <time>2025-02-20T09:59:24Z</time>
      </trkpt>
      <trkpt lat="45.63301" lon="6.54933">
        <ele>2340</ele>
        <time>2025-02-20T09:59:25Z</time>
      </trkpt>
      <trkpt lat="45.63301" lon="6.54933">
        <ele>2340</ele>
        <time>2025-02-20T09:59:26Z</time>
      </trkpt>
      <trkpt lat="45.63301" lon="6.54933">
        <ele>2340</ele>
        <time>2025-02-20T09:59:27Z</time>
      </trkpt>
      <trkpt lat="45.63301" lon="6.54933">
        <ele>2339.6</ele>
        <time>2025-02-20T09:59:28Z</time>
      </trkpt>
      <trkpt lat="45.63301" lon="6.54933">
        <ele>2340</ele>
        <time>2025-02-20T09:59:29Z</time>
      </trkpt>
      <trkpt lat="45.63301" lon="6.54933">
        <ele>2340</ele>
        <time>2025-02-20T09:59:30Z</time>
      </trkpt>
      <trkpt lat="45.63301" lon="6.54933">
        <ele>2340</ele>
        <time>2025-02-20T09:59:31Z</time>
      </trkpt>
      <trkpt lat="45.63301" lon="6.54933">
        <ele>2339.4</ele>
        <time>2025-02-20T09:59:32Z</time>
      </trkpt>
      <trkpt lat="45.63301" lon="6.54933">
        <ele>2339.2</ele>
        <time>2025-02-20T09:59:33Z</time>
      </trkpt>
      <trkpt lat="45.63301" lon="6.54933">
        <ele>2339.2</ele>
        <time>2025-02-20T09:59:34Z</time>
      </trkpt>
      <trkpt lat="45.63301" lon="6.54933">
        <ele>2339.2</ele>
        <time>2025-02-20T09:59:35Z</time>
      </trkpt>
      <trkpt lat="45.63301" lon="6.54933">
        <ele>2339.2</ele>
        <time>2025-02-20T09:59:36Z</time>
      </trkpt>
      <trkpt lat="45.63301" lon="6.54933">
        <ele>2339.2</ele>
        <time>2025-02-20T09:59:37Z</time>
      </trkpt>
      <trkpt lat="45.63301" lon="6.54933">
        <ele>2339.2</ele>
        <time>2025-02-20T09:59:38Z</time>
      </trkpt>
      <trkpt lat="45.63301" lon="6.54933">
        <ele>2339.2</ele>
        <time>2025-02-20T09:59:39Z</time>
      </trkpt>
      <trkpt lat="45.63301" lon="6.54933">
        <ele>2339.2</ele>
        <time>2025-02-20T09:59:40Z</time>
      </trkpt>
      <trkpt lat="45.63301" lon="6.54933">
        <ele>2339.2</ele>
        <time>2025-02-20T09:59:41Z</time>
      </trkpt>
      <trkpt lat="45.63301" lon="6.54933">
        <ele>2339.2</ele>
        <time>2025-02-20T09:59:42Z</time>
      </trkpt>
      <trkpt lat="45.63301" lon="6.54933">
        <ele>2339.2</ele>
        <time>2025-02-20T09:59:43Z</time>
      </trkpt>
      <trkpt lat="45.63301" lon="6.54933">
        <ele>2339.8</ele>
        <time>2025-02-20T09:59:44Z</time>
      </trkpt>
      <trkpt lat="45.63301" lon="6.54933">
        <ele>2339.8</ele>
        <time>2025-02-20T09:59:45Z</time>
      </trkpt>
      <trkpt lat="45.63301" lon="6.54933">
        <ele>2339.8</ele>
        <time>2025-02-20T09:59:46Z</time>
      </trkpt>
      <trkpt lat="45.63301" lon="6.54933">
        <ele>2339.8</ele>
        <time>2025-02-20T09:59:47Z</time>
      </trkpt>
      <trkpt lat="45.63301" lon="6.54933">
        <ele>2339.8</ele>
        <time>2025-02-20T09:59:48Z</time>
      </trkpt>
      <trkpt lat="45.63301" lon="6.54933">
        <ele>2339.4</ele>
        <time>2025-02-20T09:59:49Z</time>
      </trkpt>
      <trkpt lat="45.63301" lon="6.54933">
        <ele>2339.4</ele>
        <time>2025-02-20T09:59:50Z</time>
      </trkpt>
      <trkpt lat="45.63301" lon="6.54933">
        <ele>2339.4</ele>
        <time>2025-02-20T09:59:51Z</time>
      </trkpt>
      <trkpt lat="45.63301" lon="6.54933">
        <ele>2339.4</ele>
        <time>2025-02-20T09:59:52Z</time>
      </trkpt>
      <trkpt lat="45.63301" lon="6.54933">
        <ele>2339</ele>
        <time>2025-02-20T09:59:53Z</time>
      </trkpt>
      <trkpt lat="45.63301" lon="6.54933">
        <ele>2339</ele>
        <time>2025-02-20T09:59:54Z</time>
      </trkpt>
      <trkpt lat="45.63301" lon="6.54933">
        <ele>2339</ele>
        <time>2025-02-20T09:59:55Z</time>
      </trkpt>
      <trkpt lat="45.63301" lon="6.54933">
        <ele>2339</ele>
        <time>2025-02-20T09:59:56Z</time>
      </trkpt>
      <trkpt lat="45.63301" lon="6.54933">
        <ele>2339.2</ele>
        <time>2025-02-20T09:59:57Z</time>
      </trkpt>
      <trkpt lat="45.63301" lon="6.54933">
        <ele>2339.2</ele>
        <time>2025-02-20T09:59:58Z</time>
      </trkpt>
      <trkpt lat="45.63301" lon="6.54933">
        <ele>2339.2</ele>
        <time>2025-02-20T09:59:59Z</time>
      </trkpt>
      <trkpt lat="45.63301" lon="6.54933">
        <ele>2339.2</ele>
        <time>2025-02-20T10:00:00Z</time>
      </trkpt>
      <trkpt lat="45.63301" lon="6.54933">
        <ele>2339.2</ele>
        <time>2025-02-20T10:00:01Z</time>
      </trkpt>
      <trkpt lat="45.63301" lon="6.54933">
        <ele>2339.2</ele>
        <time>2025-02-20T10:00:02Z</time>
      </trkpt>
      <trkpt lat="45.63301" lon="6.54933">
        <ele>2339.2</ele>
        <time>2025-02-20T10:00:03Z</time>
      </trkpt>
      <trkpt lat="45.63301" lon="6.54933">
        <ele>2339.2</ele>
        <time>2025-02-20T10:00:04Z</time>
      </trkpt>
      <trkpt lat="45.63301" lon="6.54933">
        <ele>2339.2</ele>
        <time>2025-02-20T10:00:05Z</time>
      </trkpt>
      <trkpt lat="45.63301" lon="6.54933">
        <ele>2339.2</ele>
        <time>2025-02-20T10:00:06Z</time>
      </trkpt>
      <trkpt lat="45.63301" lon="6.54933">
        <ele>2339.2</ele>
        <time>2025-02-20T10:00:07Z</time>
      </trkpt>
      <trkpt lat="45.63301" lon="6.54933">
        <ele>2339.2</ele>
        <time>2025-02-20T10:00:08Z</time>
      </trkpt>
      <trkpt lat="45.63301" lon="6.54933">
        <ele>2339.2</ele>
        <time>2025-02-20T10:00:09Z</time>
      </trkpt>
      <trkpt lat="45.63301" lon="6.54933">
        <ele>2339.2</ele>
        <time>2025-02-20T10:00:10Z</time>
      </trkpt>
      <trkpt lat="45.63301" lon="6.54933">
        <ele>2339.2</ele>
        <time>2025-02-20T10:00:11Z</time>
      </trkpt>
      <trkpt lat="45.63301" lon="6.54933">
        <ele>2339.2</ele>
        <time>2025-02-20T10:00:12Z</time>
      </trkpt>
      <trkpt lat="45.63301" lon="6.54933">
        <ele>2339.2</ele>
        <time>2025-02-20T10:00:13Z</time>
      </trkpt>
      <trkpt lat="45.63301" lon="6.54933">
        <ele>2339.2</ele>
        <time>2025-02-20T10:00:14Z</time>
      </trkpt>
      <trkpt lat="45.63301" lon="6.54933">
        <ele>2339.2</ele>
        <time>2025-02-20T10:00:15Z</time>
      </trkpt>
      <trkpt lat="45.63301" lon="6.54933">
        <ele>2339.2</ele>
        <time>2025-02-20T10:00:16Z</time>
      </trkpt>
      <trkpt lat="45.63301" lon="6.54933">
        <ele>2339.4</ele>
        <time>2025-02-20T10:00:17Z</time>
      </trkpt>
      <trkpt lat="45.63301" lon="6.54933">
        <ele>2339.4</ele>
        <time>2025-02-20T10:00:18Z</time>
      </trkpt>
      <trkpt lat="45.63301" lon="6.54933">
        <ele>2339.4</ele>
        <time>2025-02-20T10:00:19Z</time>
      </trkpt>
      <trkpt lat="45.63301" lon="6.54933">
        <ele>2339.2</ele>
        <time>2025-02-20T10:00:20Z</time>
      </trkpt>
      <trkpt lat="45.63301" lon="6.54933">
        <ele>2339</ele>
        <time>2025-02-20T10:00:21Z</time>
      </trkpt>
      <trkpt lat="45.63301" lon="6.54933">
        <ele>2339</ele>
        <time>2025-02-20T10:00:22Z</time>
      </trkpt>
      <trkpt lat="45.63301" lon="6.54933">
        <ele>2339</ele>
        <time>2025-02-20T10:00:23Z</time>
      </trkpt>
      <trkpt lat="45.63301" lon="6.54933">
        <ele>2339</ele>
        <time>2025-02-20T10:00:24Z</time>
      </trkpt>
      <trkpt lat="45.63301" lon="6.54933">
        <ele>2339.2</ele>
        <time>2025-02-20T10:00:25Z</time>
      </trkpt>
      <trkpt lat="45.63301" lon="6.54933">
        <ele>2339.2</ele>
        <time>2025-02-20T10:00:26Z</time>
      </trkpt>
      <trkpt lat="45.63301" lon="6.54933">
        <ele>2339.2</ele>
        <time>2025-02-20T10:00:27Z</time>
      </trkpt>
      <trkpt lat="45.63301" lon="6.54933">
        <ele>2339</ele>
        <time>2025-02-20T10:00:28Z</time>
      </trkpt>
      <trkpt lat="45.63301" lon="6.54933">
        <ele>2339.2</ele>
        <time>2025-02-20T10:00:29Z</time>
      </trkpt>
      <trkpt lat="45.63301" lon="6.54933">
        <ele>2339.2</ele>
        <time>2025-02-20T10:00:30Z</time>
      </trkpt>
      <trkpt lat="45.63301" lon="6.54933">
        <ele>2339.2</ele>
        <time>2025-02-20T10:00:31Z</time>
      </trkpt>
      <trkpt lat="45.63301" lon="6.54933">
        <ele>2339.2</ele>
        <time>2025-02-20T10:00:32Z</time>
      </trkpt>
      <trkpt lat="45.63301" lon="6.54933">
        <ele>2339.2</ele>
        <time>2025-02-20T10:00:33Z</time>
      </trkpt>
      <trkpt lat="45.63301" lon="6.54933">
        <ele>2339.2</ele>
        <time>2025-02-20T10:00:34Z</time>
      </trkpt>
      <trkpt lat="45.63301" lon="6.54933">
        <ele>2339.2</ele>
        <time>2025-02-20T10:00:35Z</time>
      </trkpt>
      <trkpt lat="45.63301" lon="6.54933">
        <ele>2338.8</ele>
        <time>2025-02-20T10:00:36Z</time>
      </trkpt>
      <trkpt lat="45.63301" lon="6.54933">
        <ele>2339</ele>
        <time>2025-02-20T10:00:37Z</time>
      </trkpt>
      <trkpt lat="45.63301" lon="6.54933">
        <ele>2339</ele>
        <time>2025-02-20T10:00:38Z</time>
      </trkpt>
      <trkpt lat="45.63301" lon="6.54933">
        <ele>2339</ele>
        <time>2025-02-20T10:00:39Z</time>
      </trkpt>
      <trkpt lat="45.63301" lon="6.54933">
        <ele>2339</ele>
        <time>2025-02-20T10:00:40Z</time>
      </trkpt>
      <trkpt lat="45.63301" lon="6.54933">
        <ele>2338.8</ele>
        <time>2025-02-20T10:00:41Z</time>
      </trkpt>
      <trkpt lat="45.63301" lon="6.54933">
        <ele>2338.8</ele>
        <time>2025-02-20T10:00:42Z</time>
      </trkpt>
      <trkpt lat="45.63301" lon="6.54933">
        <ele>2338.8</ele>
        <time>2025-02-20T10:00:43Z</time>
      </trkpt>
      <trkpt lat="45.63301" lon="6.54933">
        <ele>2339.2</ele>
        <time>2025-02-20T10:00:44Z</time>
      </trkpt>
      <trkpt lat="45.63301" lon="6.54933">
        <ele>2339.4</ele>
        <time>2025-02-20T10:00:45Z</time>
      </trkpt>
      <trkpt lat="45.63301" lon="6.54933">
        <ele>2339.4</ele>
        <time>2025-02-20T10:00:46Z</time>
      </trkpt>
      <trkpt lat="45.63301" lon="6.54933">
        <ele>2339.4</ele>
        <time>2025-02-20T10:00:47Z</time>
      </trkpt>
      <trkpt lat="45.63301" lon="6.54933">
        <ele>2339.2</ele>
        <time>2025-02-20T10:00:48Z</time>
      </trkpt>
      <trkpt lat="45.63301" lon="6.54933">
        <ele>2339.2</ele>
        <time>2025-02-20T10:00:49Z</time>
      </trkpt>
      <trkpt lat="45.63301" lon="6.54933">
        <ele>2339.2</ele>
        <time>2025-02-20T10:00:50Z</time>
      </trkpt>
      <trkpt lat="45.63301" lon="6.54933">
        <ele>2339.2</ele>
        <time>2025-02-20T10:00:51Z</time>
      </trkpt>
      <trkpt lat="45.63301" lon="6.54933">
        <ele>2339.2</ele>
        <time>2025-02-20T10:00:52Z</time>
      </trkpt>
      <trkpt lat="45.63301" lon="6.54933">
        <ele>2339.2</ele>
        <time>2025-02-20T10:00:53Z</time>
      </trkpt>
      <trkpt lat="45.63301" lon="6.54933">
        <ele>2339.2</ele>
        <time>2025-02-20T10:00:54Z</time>
      </trkpt>
      <trkpt lat="45.63301" lon="6.54933">
        <ele>2339.2</ele>
        <time>2025-02-20T10:00:55Z</time>
      </trkpt>
      <trkpt lat="45.63301" lon="6.54933">
        <ele>2339.2</ele>
        <time>2025-02-20T10:00:56Z</time>
      </trkpt>
      <trkpt lat="45.63301" lon="6.54933">
        <ele>2339.2</ele>
        <time>2025-02-20T10:00:57Z</time>
      </trkpt>
      <trkpt lat="45.63301" lon="6.54933">
        <ele>2339.2</ele>
        <time>2025-02-20T10:00:58Z</time>
      </trkpt>
      <trkpt lat="45.63301" lon="6.54933">
        <ele>2339.2</ele>
        <time>2025-02-20T10:00:59Z</time>
      </trkpt>
      <trkpt lat="45.63301" lon="6.54933">
        <ele>2339.2</ele>
        <time>2025-02-20T10:01:00Z</time>
      </trkpt>
      <trkpt lat="45.63301" lon="6.54933">
        <ele>2339.2</ele>
        <time>2025-02-20T10:01:01Z</time>
      </trkpt>
      <trkpt lat="45.63301" lon="6.54933">
        <ele>2339.2</ele>
        <time>2025-02-20T10:01:02Z</time>
      </trkpt>
      <trkpt lat="45.63301" lon="6.54933">
        <ele>2339.2</ele>
        <time>2025-02-20T10:01:03Z</time>
      </trkpt>
      <trkpt lat="45.63301" lon="6.54933">
        <ele>2339.2</ele>
        <time>2025-02-20T10:01:04Z</time>
      </trkpt>
      <trkpt lat="45.63301" lon="6.54933">
        <ele>2339.2</ele>
        <time>2025-02-20T10:01:05Z</time>
      </trkpt>
      <trkpt lat="45.63301" lon="6.54933">
        <ele>2339.2</ele>
        <time>2025-02-20T10:01:06Z</time>
      </trkpt>
      <trkpt lat="45.63301" lon="6.54933">
        <ele>2339.2</ele>
        <time>2025-02-20T10:01:07Z</time>
      </trkpt>
      <trkpt lat="45.63301" lon="6.54933">
        <ele>2339.2</ele>
        <time>2025-02-20T10:01:08Z</time>
      </trkpt>
      <trkpt lat="45.63301" lon="6.54933">
        <ele>2339.2</ele>
        <time>2025-02-20T10:01:09Z</time>
      </trkpt>
      <trkpt lat="45.63301" lon="6.54933">
        <ele>2339.2</ele>
        <time>2025-02-20T10:01:10Z</time>
      </trkpt>
      <trkpt lat="45.63301" lon="6.54933">
        <ele>2339.2</ele>
        <time>2025-02-20T10:01:11Z</time>
      </trkpt>
      <trkpt lat="45.63301" lon="6.54933">
        <ele>2339.2</ele>
        <time>2025-02-20T10:01:12Z</time>
      </trkpt>
      <trkpt lat="45.63301" lon="6.54933">
        <ele>2339.2</ele>
        <time>2025-02-20T10:01:13Z</time>
      </trkpt>
      <trkpt lat="45.63301" lon="6.54933">
        <ele>2339.2</ele>
        <time>2025-02-20T10:01:14Z</time>
      </trkpt>
      <trkpt lat="45.63301" lon="6.54933">
        <ele>2339.2</ele>
        <time>2025-02-20T10:01:15Z</time>
      </trkpt>
      <trkpt lat="45.63301" lon="6.54933">
        <ele>2338.8</ele>
        <time>2025-02-20T10:01:16Z</time>
      </trkpt>
      <trkpt lat="45.63301" lon="6.54933">
        <ele>2339</ele>
        <time>2025-02-20T10:01:17Z</time>
      </trkpt>
      <trkpt lat="45.63301" lon="6.54933">
        <ele>2339</ele>
        <time>2025-02-20T10:01:18Z</time>
      </trkpt>
      <trkpt lat="45.63301" lon="6.54933">
        <ele>2339</ele>
        <time>2025-02-20T10:01:19Z</time>
      </trkpt>
      <trkpt lat="45.63301" lon="6.54933">
        <ele>2339</ele>
        <time>2025-02-20T10:01:20Z</time>
      </trkpt>
      <trkpt lat="45.63301" lon="6.54933">
        <ele>2339.4</ele>
        <time>2025-02-20T10:01:21Z</time>
      </trkpt>
      <trkpt lat="45.63301" lon="6.54933">
        <ele>2339.4</ele>
        <time>2025-02-20T10:01:22Z</time>
      </trkpt>
      <trkpt lat="45.63301" lon="6.54933">
        <ele>2339.4</ele>
        <time>2025-02-20T10:01:23Z</time>
      </trkpt>
      <trkpt lat="45.63301" lon="6.54933">
        <ele>2339.4</ele>
        <time>2025-02-20T10:01:24Z</time>
      </trkpt>
      <trkpt lat="45.63301" lon="6.54933">
        <ele>2339.2</ele>
        <time>2025-02-20T10:01:25Z</time>
      </trkpt>
      <trkpt lat="45.63301" lon="6.54933">
        <ele>2339.2</ele>
        <time>2025-02-20T10:01:26Z</time>
      </trkpt>
      <trkpt lat="45.63301" lon="6.54933">
        <ele>2339.2</ele>
        <time>2025-02-20T10:01:27Z</time>
      </trkpt>
      <trkpt lat="45.63301" lon="6.54933">
        <ele>2339.2</ele>
        <time>2025-02-20T10:01:28Z</time>
      </trkpt>
      <trkpt lat="45.63301" lon="6.54933">
        <ele>2339</ele>
        <time>2025-02-20T10:01:29Z</time>
      </trkpt>
      <trkpt lat="45.63301" lon="6.54933">
        <ele>2339</ele>
        <time>2025-02-20T10:01:30Z</time>
      </trkpt>
      <trkpt lat="45.63301" lon="6.54933">
        <ele>2339</ele>
        <time>2025-02-20T10:01:31Z</time>
      </trkpt>
      <trkpt lat="45.63301" lon="6.54933">
        <ele>2339</ele>
        <time>2025-02-20T10:01:32Z</time>
      </trkpt>
      <trkpt lat="45.63301" lon="6.54933">
        <ele>2339.4</ele>
        <time>2025-02-20T10:01:33Z</time>
      </trkpt>
      <trkpt lat="45.63301" lon="6.54933">
        <ele>2339.4</ele>
        <time>2025-02-20T10:01:34Z</time>
      </trkpt>
      <trkpt lat="45.63301" lon="6.54933">
        <ele>2339.4</ele>
        <time>2025-02-20T10:01:35Z</time>
      </trkpt>
      <trkpt lat="45.63301" lon="6.54933">
        <ele>2338.8</ele>
        <time>2025-02-20T10:01:36Z</time>
      </trkpt>
      <trkpt lat="45.63301" lon="6.54933">
        <ele>2339.4</ele>
        <time>2025-02-20T10:01:37Z</time>
      </trkpt>
      <trkpt lat="45.63301" lon="6.54933">
        <ele>2339.4</ele>
        <time>2025-02-20T10:01:38Z</time>
      </trkpt>
      <trkpt lat="45.63301" lon="6.54933">
        <ele>2339.4</ele>
        <time>2025-02-20T10:01:39Z</time>
      </trkpt>
      <trkpt lat="45.63301" lon="6.54933">
        <ele>2339.4</ele>
        <time>2025-02-20T10:01:40Z</time>
      </trkpt>
      <trkpt lat="45.63301" lon="6.54933">
        <ele>2339.2</ele>
        <time>2025-02-20T10:01:41Z</time>
      </trkpt>
      <trkpt lat="45.63301" lon="6.54933">
        <ele>2339.2</ele>
        <time>2025-02-20T10:01:42Z</time>
      </trkpt>
      <trkpt lat="45.63301" lon="6.54933">
        <ele>2339.2</ele>
        <time>2025-02-20T10:01:43Z</time>
      </trkpt>
      <trkpt lat="45.63301" lon="6.54933">
        <ele>2339.2</ele>
        <time>2025-02-20T10:01:44Z</time>
      </trkpt>
      <trkpt lat="45.63301" lon="6.54933">
        <ele>2339.2</ele>
        <time>2025-02-20T10:01:45Z</time>
      </trkpt>
      <trkpt lat="45.63301" lon="6.54933">
        <ele>2339.2</ele>
        <time>2025-02-20T10:01:46Z</time>
      </trkpt>
      <trkpt lat="45.63301" lon="6.54933">
        <ele>2339.2</ele>
        <time>2025-02-20T10:01:47Z</time>
      </trkpt>
      <trkpt lat="45.63301" lon="6.54933">
        <ele>2339.2</ele>
        <time>2025-02-20T10:01:48Z</time>
      </trkpt>
      <trkpt lat="45.63301" lon="6.54933">
        <ele>2339.4</ele>
        <time>2025-02-20T10:01:49Z</time>
      </trkpt>
      <trkpt lat="45.63301" lon="6.54933">
        <ele>2339.4</ele>
        <time>2025-02-20T10:01:50Z</time>
      </trkpt>
      <trkpt lat="45.63301" lon="6.54933">
        <ele>2339.4</ele>
        <time>2025-02-20T10:01:51Z</time>
      </trkpt>
      <trkpt lat="45.63301" lon="6.54933">
        <ele>2339</ele>
        <time>2025-02-20T10:01:52Z</time>
      </trkpt>
      <trkpt lat="45.63301" lon="6.54933">
        <ele>2339</ele>
        <time>2025-02-20T10:01:53Z</time>
      </trkpt>
      <trkpt lat="45.63301" lon="6.54933">
        <ele>2339</ele>
        <time>2025-02-20T10:01:54Z</time>
      </trkpt>
      <trkpt lat="45.63301" lon="6.54933">
        <ele>2339</ele>
        <time>2025-02-20T10:01:55Z</time>
      </trkpt>
      <trkpt lat="45.63301" lon="6.54933">
        <ele>2339.4</ele>
        <time>2025-02-20T10:01:56Z</time>
      </trkpt>
      <trkpt lat="45.63301" lon="6.54933">
        <ele>2339.2</ele>
        <time>2025-02-20T10:01:57Z</time>
      </trkpt>
      <trkpt lat="45.63301" lon="6.54933">
        <ele>2339.2</ele>
        <time>2025-02-20T10:01:58Z</time>
      </trkpt>
      <trkpt lat="45.63301" lon="6.54933">
        <ele>2339.2</ele>
        <time>2025-02-20T10:01:59Z</time>
      </trkpt>
      <trkpt lat="45.63301" lon="6.54933">
        <ele>2339.2</ele>
        <time>2025-02-20T10:02:00Z</time>
      </trkpt>
      <trkpt lat="45.63301" lon="6.54933">
        <ele>2339</ele>
        <time>2025-02-20T10:02:01Z</time>
      </trkpt>
      <trkpt lat="45.63301" lon="6.54933">
        <ele>2339</ele>
        <time>2025-02-20T10:02:02Z</time>
      </trkpt>
      <trkpt lat="45.63301" lon="6.54933">
        <ele>2339</ele>
        <time>2025-02-20T10:02:03Z</time>
      </trkpt>
      <trkpt lat="45.63301" lon="6.54933">
        <ele>2339</ele>
        <time>2025-02-20T10:02:04Z</time>
      </trkpt>
      <trkpt lat="45.63301" lon="6.54933">
        <ele>2339.4</ele>
        <time>2025-02-20T10:02:05Z</time>
      </trkpt>
      <trkpt lat="45.63301" lon="6.54933">
        <ele>2339.4</ele>
        <time>2025-02-20T10:02:06Z</time>
      </trkpt>
      <trkpt lat="45.63301" lon="6.54933">
        <ele>2339.4</ele>
        <time>2025-02-20T10:02:07Z</time>
      </trkpt>
      <trkpt lat="45.63301" lon="6.54933">
        <ele>2339.4</ele>
        <time>2025-02-20T10:02:08Z</time>
      </trkpt>
      <trkpt lat="45.63301" lon="6.54933">
        <ele>2339</ele>
        <time>2025-02-20T10:02:09Z</time>
      </trkpt>
      <trkpt lat="45.63301" lon="6.54933">
        <ele>2339</ele>
        <time>2025-02-20T10:02:10Z</time>
      </trkpt>
      <trkpt lat="45.63301" lon="6.54933">
        <ele>2339</ele>
        <time>2025-02-20T10:02:11Z</time>
      </trkpt>
      <trkpt lat="45.63301" lon="6.54933">
        <ele>2339</ele>
        <time>2025-02-20T10:02:12Z</time>
      </trkpt>
      <trkpt lat="45.63301" lon="6.54933">
        <ele>2339.8</ele>
        <time>2025-02-20T10:02:13Z</time>
      </trkpt>
      <trkpt lat="45.63301" lon="6.54933">
        <ele>2339.8</ele>
        <time>2025-02-20T10:02:14Z</time>
      </trkpt>
      <trkpt lat="45.63301" lon="6.54933">
        <ele>2339.8</ele>
        <time>2025-02-20T10:02:15Z</time>
      </trkpt>
      <trkpt lat="45.63301" lon="6.54933">
        <ele>2339.4</ele>
        <time>2025-02-20T10:02:16Z</time>
      </trkpt>
      <trkpt lat="45.63301" lon="6.54933">
        <ele>2339.6</ele>
        <time>2025-02-20T10:02:17Z</time>
      </trkpt>
      <trkpt lat="45.63301" lon="6.54933">
        <ele>2339.6</ele>
        <time>2025-02-20T10:02:18Z</time>
      </trkpt>
      <trkpt lat="45.63301" lon="6.54933">
        <ele>2339.6</ele>
        <time>2025-02-20T10:02:19Z</time>
      </trkpt>
      <trkpt lat="45.63301" lon="6.54933">
        <ele>2339.4</ele>
        <time>2025-02-20T10:02:20Z</time>
      </trkpt>
      <trkpt lat="45.63301" lon="6.54933">
        <ele>2339.4</ele>
        <time>2025-02-20T10:02:21Z</time>
      </trkpt>
      <trkpt lat="45.63301" lon="6.54933">
        <ele>2339.4</ele>
        <time>2025-02-20T10:02:22Z</time>
      </trkpt>
      <trkpt lat="45.63301" lon="6.54933">
        <ele>2339.4</ele>
        <time>2025-02-20T10:02:23Z</time>
      </trkpt>
      <trkpt lat="45.63301" lon="6.54933">
        <ele>2339.4</ele>
        <time>2025-02-20T10:02:24Z</time>
      </trkpt>
      <trkpt lat="45.63301" lon="6.54933">
        <ele>2339.8</ele>
        <time>2025-02-20T10:02:25Z</time>
      </trkpt>
      <trkpt lat="45.63301" lon="6.54933">
        <ele>2339.8</ele>
        <time>2025-02-20T10:02:26Z</time>
      </trkpt>
      <trkpt lat="45.63301" lon="6.54933">
        <ele>2339.8</ele>
        <time>2025-02-20T10:02:27Z</time>
      </trkpt>
      <trkpt lat="45.63301" lon="6.54933">
        <ele>2339.4</ele>
        <time>2025-02-20T10:02:28Z</time>
      </trkpt>
      <trkpt lat="45.63301" lon="6.54933">
        <ele>2339.2</ele>
        <time>2025-02-20T10:02:29Z</time>
      </trkpt>
      <trkpt lat="45.63301" lon="6.54933">
        <ele>2339.2</ele>
        <time>2025-02-20T10:02:30Z</time>
      </trkpt>
      <trkpt lat="45.63301" lon="6.54933">
        <ele>2339.2</ele>
        <time>2025-02-20T10:02:31Z</time>
      </trkpt>
      <trkpt lat="45.63301" lon="6.54933">
        <ele>2339.2</ele>
        <time>2025-02-20T10:02:32Z</time>
      </trkpt>
      <trkpt lat="45.63301" lon="6.54933">
        <ele>2339.2</ele>
        <time>2025-02-20T10:02:33Z</time>
      </trkpt>
      <trkpt lat="45.63301" lon="6.54933">
        <ele>2339.2</ele>
        <time>2025-02-20T10:02:34Z</time>
      </trkpt>
      <trkpt lat="45.63301" lon="6.54933">
        <ele>2339.2</ele>
        <time>2025-02-20T10:02:35Z</time>
      </trkpt>
      <trkpt lat="45.63301" lon="6.54933">
        <ele>2339.2</ele>
        <time>2025-02-20T10:02:36Z</time>
      </trkpt>
      <trkpt lat="45.63301" lon="6.54933">
        <ele>2338.8</ele>
        <time>2025-02-20T10:02:37Z</time>
      </trkpt>
      <trkpt lat="45.63301" lon="6.54933">
        <ele>2338.8</ele>
        <time>2025-02-20T10:02:38Z</time>
      </trkpt>
      <trkpt lat="45.63301" lon="6.54933">
        <ele>2338.8</ele>
        <time>2025-02-20T10:02:39Z</time>
      </trkpt>
      <trkpt lat="45.63301" lon="6.54933">
        <ele>2338.8</ele>
        <time>2025-02-20T10:02:40Z</time>
      </trkpt>
      <trkpt lat="45.63301" lon="6.54933">
        <ele>2339</ele>
        <time>2025-02-20T10:02:41Z</time>
      </trkpt>
      <trkpt lat="45.63301" lon="6.54933">
        <ele>2339</ele>
        <time>2025-02-20T10:02:42Z</time>
      </trkpt>
      <trkpt lat="45.63301" lon="6.54933">
        <ele>2339</ele>
        <time>2025-02-20T10:02:43Z</time>
      </trkpt>
      <trkpt lat="45.63301" lon="6.54933">
        <ele>2339</ele>
        <time>2025-02-20T10:02:44Z</time>
      </trkpt>
      <trkpt lat="45.63301" lon="6.54933">
        <ele>2338.6</ele>
        <time>2025-02-20T10:02:45Z</time>
      </trkpt>
      <trkpt lat="45.63301" lon="6.54933">
        <ele>2338.6</ele>
        <time>2025-02-20T10:02:46Z</time>
      </trkpt>
      <trkpt lat="45.63301" lon="6.54933">
        <ele>2338.6</ele>
        <time>2025-02-20T10:02:47Z</time>
      </trkpt>
      <trkpt lat="45.63301" lon="6.54933">
        <ele>2339.2</ele>
        <time>2025-02-20T10:02:48Z</time>
      </trkpt>
      <trkpt lat="45.63301" lon="6.54933">
        <ele>2338.6</ele>
        <time>2025-02-20T10:02:49Z</time>
      </trkpt>
      <trkpt lat="45.63301" lon="6.54933">
        <ele>2338.6</ele>
        <time>2025-02-20T10:02:50Z</time>
      </trkpt>
      <trkpt lat="45.63301" lon="6.54933">
        <ele>2338.6</ele>
        <time>2025-02-20T10:02:51Z</time>
      </trkpt>
      <trkpt lat="45.63301" lon="6.54933">
        <ele>2338.6</ele>
        <time>2025-02-20T10:02:52Z</time>
      </trkpt>
      <trkpt lat="45.63301" lon="6.54933">
        <ele>2339.2</ele>
        <time>2025-02-20T10:02:53Z</time>
      </trkpt>
      <trkpt lat="45.63301" lon="6.54933">
        <ele>2339.2</ele>
        <time>2025-02-20T10:02:54Z</time>
      </trkpt>
      <trkpt lat="45.63301" lon="6.54933">
        <ele>2339.2</ele>
        <time>2025-02-20T10:02:55Z</time>
      </trkpt>
      <trkpt lat="45.63301" lon="6.54933">
        <ele>2339.2</ele>
        <time>2025-02-20T10:02:56Z</time>
      </trkpt>
      <trkpt lat="45.63301" lon="6.54933">
        <ele>2339.2</ele>
        <time>2025-02-20T10:02:57Z</time>
      </trkpt>
      <trkpt lat="45.63301" lon="6.54933">
        <ele>2339.2</ele>
        <time>2025-02-20T10:02:58Z</time>
      </trkpt>
      <trkpt lat="45.63301" lon="6.54933">
        <ele>2339.2</ele>
        <time>2025-02-20T10:02:59Z</time>
      </trkpt>
      <trkpt lat="45.63301" lon="6.54933">
        <ele>2339.2</ele>
        <time>2025-02-20T10:03:00Z</time>
      </trkpt>
      <trkpt lat="45.63301" lon="6.54933">
        <ele>2339</ele>
        <time>2025-02-20T10:03:01Z</time>
      </trkpt>
      <trkpt lat="45.63301" lon="6.54933">
        <ele>2339</ele>
        <time>2025-02-20T10:03:02Z</time>
      </trkpt>
      <trkpt lat="45.63301" lon="6.54933">
        <ele>2339</ele>
        <time>2025-02-20T10:03:03Z</time>
      </trkpt>
      <trkpt lat="45.63301" lon="6.54933">
        <ele>2339</ele>
        <time>2025-02-20T10:03:04Z</time>
      </trkpt>
      <trkpt lat="45.63301" lon="6.54933">
        <ele>2339.2</ele>
        <time>2025-02-20T10:03:05Z</time>
      </trkpt>
      <trkpt lat="45.63301" lon="6.54933">
        <ele>2339.2</ele>
        <time>2025-02-20T10:03:06Z</time>
      </trkpt>
      <trkpt lat="45.63301" lon="6.54933">
        <ele>2339.2</ele>
        <time>2025-02-20T10:03:07Z</time>
      </trkpt>
      <trkpt lat="45.63301" lon="6.54933">
        <ele>2338.6</ele>
        <time>2025-02-20T10:03:08Z</time>
      </trkpt>
      <trkpt lat="45.63301" lon="6.54933">
        <ele>2339</ele>
        <time>2025-02-20T10:03:09Z</time>
      </trkpt>
      <trkpt lat="45.63301" lon="6.54933">
        <ele>2339</ele>
        <time>2025-02-20T10:03:10Z</time>
      </trkpt>
      <trkpt lat="45.63301" lon="6.54933">
        <ele>2339</ele>
        <time>2025-02-20T10:03:11Z</time>
      </trkpt>
      <trkpt lat="45.63301" lon="6.54933">
        <ele>2338.8</ele>
        <time>2025-02-20T10:03:12Z</time>
      </trkpt>
      <trkpt lat="45.63301" lon="6.54933">
        <ele>2338.8</ele>
        <time>2025-02-20T10:03:13Z</time>
      </trkpt>
      <trkpt lat="45.63301" lon="6.54933">
        <ele>2338.8</ele>
        <time>2025-02-20T10:03:14Z</time>
      </trkpt>
      <trkpt lat="45.63301" lon="6.54933">
        <ele>2338.8</ele>
        <time>2025-02-20T10:03:15Z</time>
      </trkpt>
      <trkpt lat="45.63301" lon="6.54933">
        <ele>2338.8</ele>
        <time>2025-02-20T10:03:16Z</time>
      </trkpt>
      <trkpt lat="45.63301" lon="6.54933">
        <ele>2338.8</ele>
        <time>2025-02-20T10:03:17Z</time>
      </trkpt>
      <trkpt lat="45.63301" lon="6.54933">
        <ele>2338.8</ele>
        <time>2025-02-20T10:03:18Z</time>
      </trkpt>
      <trkpt lat="45.63301" lon="6.54933">
        <ele>2338.8</ele>
        <time>2025-02-20T10:03:19Z</time>
      </trkpt>
      <trkpt lat="45.63301" lon="6.54933">
        <ele>2338.8</ele>
        <time>2025-02-20T10:03:20Z</time>
      </trkpt>
      <trkpt lat="45.63301" lon="6.54933">
        <ele>2339.2</ele>
        <time>2025-02-20T10:03:21Z</time>
      </trkpt>
      <trkpt lat="45.63301" lon="6.54933">
        <ele>2339.2</ele>
        <time>2025-02-20T10:03:22Z</time>
      </trkpt>
      <trkpt lat="45.63301" lon="6.54933">
        <ele>2339.2</ele>
        <time>2025-02-20T10:03:23Z</time>
      </trkpt>
      <trkpt lat="45.63301" lon="6.54933">
        <ele>2339</ele>
        <time>2025-02-20T10:03:24Z</time>
      </trkpt>
      <trkpt lat="45.63301" lon="6.54933">
        <ele>2339.4</ele>
        <time>2025-02-20T10:03:25Z</time>
      </trkpt>
      <trkpt lat="45.63301" lon="6.54933">
        <ele>2339.4</ele>
        <time>2025-02-20T10:03:26Z</time>
      </trkpt>
      <trkpt lat="45.63301" lon="6.54933">
        <ele>2339.4</ele>
        <time>2025-02-20T10:03:27Z</time>
      </trkpt>
      <trkpt lat="45.63301" lon="6.54933">
        <ele>2339.2</ele>
        <time>2025-02-20T10:03:28Z</time>
      </trkpt>
      <trkpt lat="45.63301" lon="6.54933">
        <ele>2339</ele>
        <time>2025-02-20T10:03:29Z</time>
      </trkpt>
      <trkpt lat="45.63301" lon="6.54933">
        <ele>2339</ele>
        <time>2025-02-20T10:03:30Z</time>
      </trkpt>
      <trkpt lat="45.63301" lon="6.54933">
        <ele>2339</ele>
        <time>2025-02-20T10:03:31Z</time>
      </trkpt>
      <trkpt lat="45.63301" lon="6.54933">
        <ele>2339</ele>
        <time>2025-02-20T10:03:32Z</time>
      </trkpt>
      <trkpt lat="45.63301" lon="6.54933">
        <ele>2338.8</ele>
        <time>2025-02-20T10:03:33Z</time>
      </trkpt>
      <trkpt lat="45.63301" lon="6.54933">
        <ele>2338.8</ele>
        <time>2025-02-20T10:03:34Z</time>
      </trkpt>
      <trkpt lat="45.63301" lon="6.54933">
        <ele>2338.8</ele>
        <time>2025-02-20T10:03:35Z</time>
      </trkpt>
      <trkpt lat="45.63301" lon="6.54933">
        <ele>2339.2</ele>
        <time>2025-02-20T10:03:36Z</time>
      </trkpt>
      <trkpt lat="45.63301" lon="6.54933">
        <ele>2339</ele>
        <time>2025-02-20T10:03:37Z</time>
      </trkpt>
      <trkpt lat="45.63301" lon="6.54933">
        <ele>2339</ele>
        <time>2025-02-20T10:03:38Z</time>
      </trkpt>
      <trkpt lat="45.63301" lon="6.54933">
        <ele>2339</ele>
        <time>2025-02-20T10:03:39Z</time>
      </trkpt>
      <trkpt lat="45.63301" lon="6.54933">
        <ele>2339</ele>
        <time>2025-02-20T10:03:40Z</time>
      </trkpt>
      <trkpt lat="45.63301" lon="6.54933">
        <ele>2338.8</ele>
        <time>2025-02-20T10:03:41Z</time>
      </trkpt>
      <trkpt lat="45.63301" lon="6.54933">
        <ele>2338.8</ele>
        <time>2025-02-20T10:03:42Z</time>
      </trkpt>
      <trkpt lat="45.63301" lon="6.54933">
        <ele>2338.8</ele>
        <time>2025-02-20T10:03:43Z</time>
      </trkpt>
      <trkpt lat="45.63301" lon="6.54933">
        <ele>2338.8</ele>
        <time>2025-02-20T10:03:44Z</time>
      </trkpt>
      <trkpt lat="45.63301" lon="6.54933">
        <ele>2339</ele>
        <time>2025-02-20T10:03:45Z</time>
      </trkpt>
      <trkpt lat="45.63301" lon="6.54933">
        <ele>2339</ele>
        <time>2025-02-20T10:03:46Z</time>
      </trkpt>
      <trkpt lat="45.63301" lon="6.54933">
        <ele>2339</ele>
        <time>2025-02-20T10:03:47Z</time>
      </trkpt>
      <trkpt lat="45.63301" lon="6.54933">
        <ele>2339</ele>
        <time>2025-02-20T10:03:48Z</time>
      </trkpt>
      <trkpt lat="45.63301" lon="6.54933">
        <ele>2339.2</ele>
        <time>2025-02-20T10:03:49Z</time>
      </trkpt>
      <trkpt lat="45.63301" lon="6.54933">
        <ele>2339.2</ele>
        <time>2025-02-20T10:03:50Z</time>
      </trkpt>
      <trkpt lat="45.63301" lon="6.54933">
        <ele>2339.2</ele>
        <time>2025-02-20T10:03:51Z</time>
      </trkpt>
      <trkpt lat="45.63301" lon="6.54933">
        <ele>2339.2</ele>
        <time>2025-02-20T10:03:52Z</time>
      </trkpt>
      <trkpt lat="45.63301" lon="6.54933">
        <ele>2339</ele>
        <time>2025-02-20T10:03:53Z</time>
      </trkpt>
      <trkpt lat="45.63301" lon="6.54933">
        <ele>2339</ele>
        <time>2025-02-20T10:03:54Z</time>
      </trkpt>
      <trkpt lat="45.63301" lon="6.54933">
        <ele>2339</ele>
        <time>2025-02-20T10:03:55Z</time>
      </trkpt>
      <trkpt lat="45.63301" lon="6.54933">
        <ele>2339</ele>
        <time>2025-02-20T10:03:56Z</time>
      </trkpt>
      <trkpt lat="45.63301" lon="6.54933">
        <ele>2339.2</ele>
        <time>2025-02-20T10:03:57Z</time>
      </trkpt>
      <trkpt lat="45.63301" lon="6.54933">
        <ele>2339.2</ele>
        <time>2025-02-20T10:03:58Z</time>
      </trkpt>
      <trkpt lat="45.63301" lon="6.54933">
        <ele>2339.2</ele>
        <time>2025-02-20T10:03:59Z</time>
      </trkpt>
      <trkpt lat="45.63301" lon="6.54933">
        <ele>2339.2</ele>
        <time>2025-02-20T10:04:00Z</time>
      </trkpt>
      <trkpt lat="45.63301" lon="6.54933">
        <ele>2338.8</ele>
        <time>2025-02-20T10:04:01Z</time>
      </trkpt>
      <trkpt lat="45.63301" lon="6.54933">
        <ele>2338.8</ele>
        <time>2025-02-20T10:04:02Z</time>
      </trkpt>
      <trkpt lat="45.63301" lon="6.54933">
        <ele>2338.8</ele>
        <time>2025-02-20T10:04:03Z</time>
      </trkpt>
      <trkpt lat="45.63301" lon="6.54933">
        <ele>2338.8</ele>
        <time>2025-02-20T10:04:04Z</time>
      </trkpt>
      <trkpt lat="45.63301" lon="6.54933">
        <ele>2339</ele>
        <time>2025-02-20T10:04:05Z</time>
      </trkpt>
      <trkpt lat="45.63301" lon="6.54933">
        <ele>2339</ele>
        <time>2025-02-20T10:04:06Z</time>
      </trkpt>
      <trkpt lat="45.63301" lon="6.54933">
        <ele>2339</ele>
        <time>2025-02-20T10:04:07Z</time>
      </trkpt>
      <trkpt lat="45.63301" lon="6.54933">
        <ele>2339</ele>
        <time>2025-02-20T10:04:08Z</time>
      </trkpt>
      <trkpt lat="45.63301" lon="6.54933">
        <ele>2339.2</ele>
        <time>2025-02-20T10:04:09Z</time>
      </trkpt>
      <trkpt lat="45.63301" lon="6.54933">
        <ele>2339.2</ele>
        <time>2025-02-20T10:04:10Z</time>
      </trkpt>
      <trkpt lat="45.63301" lon="6.54933">
        <ele>2339.2</ele>
        <time>2025-02-20T10:04:11Z</time>
      </trkpt>
      <trkpt lat="45.63301" lon="6.54933">
        <ele>2339.2</ele>
        <time>2025-02-20T10:04:12Z</time>
      </trkpt>
      <trkpt lat="45.63301" lon="6.54933">
        <ele>2339</ele>
        <time>2025-02-20T10:04:13Z</time>
      </trkpt>
      <trkpt lat="45.63301" lon="6.54933">
        <ele>2339</ele>
        <time>2025-02-20T10:04:14Z</time>
      </trkpt>
      <trkpt lat="45.63301" lon="6.54933">
        <ele>2339</ele>
        <time>2025-02-20T10:04:15Z</time>
      </trkpt>
      <trkpt lat="45.63301" lon="6.54933">
        <ele>2338.8</ele>
        <time>2025-02-20T10:04:16Z</time>
      </trkpt>
      <trkpt lat="45.63301" lon="6.54933">
        <ele>2338.8</ele>
        <time>2025-02-20T10:04:17Z</time>
      </trkpt>
      <trkpt lat="45.63301" lon="6.54933">
        <ele>2338.8</ele>
        <time>2025-02-20T10:04:18Z</time>
      </trkpt>
      <trkpt lat="45.63301" lon="6.54933">
        <ele>2338.8</ele>
        <time>2025-02-20T10:04:19Z</time>
      </trkpt>
      <trkpt lat="45.63301" lon="6.54933">
        <ele>2338.8</ele>
        <time>2025-02-20T10:04:20Z</time>
      </trkpt>
      <trkpt lat="45.63301" lon="6.54933">
        <ele>2339</ele>
        <time>2025-02-20T10:04:21Z</time>
      </trkpt>
      <trkpt lat="45.63301" lon="6.54933">
        <ele>2339</ele>
        <time>2025-02-20T10:04:22Z</time>
      </trkpt>
      <trkpt lat="45.63301" lon="6.54933">
        <ele>2339</ele>
        <time>2025-02-20T10:04:23Z</time>
      </trkpt>
      <trkpt lat="45.63301" lon="6.54933">
        <ele>2339</ele>
        <time>2025-02-20T10:04:24Z</time>
      </trkpt>
      <trkpt lat="45.63301" lon="6.54933">
        <ele>2338.4</ele>
        <time>2025-02-20T10:04:25Z</time>
      </trkpt>
      <trkpt lat="45.63301" lon="6.54933">
        <ele>2338.4</ele>
        <time>2025-02-20T10:04:26Z</time>
      </trkpt>
      <trkpt lat="45.63301" lon="6.54933">
        <ele>2338.4</ele>
        <time>2025-02-20T10:04:27Z</time>
      </trkpt>
      <trkpt lat="45.63301" lon="6.54933">
        <ele>2339.4</ele>
        <time>2025-02-20T10:04:28Z</time>
      </trkpt>
      <trkpt lat="45.63301" lon="6.54933">
        <ele>2339.4</ele>
        <time>2025-02-20T10:04:29Z</time>
      </trkpt>
      <trkpt lat="45.63301" lon="6.54933">
        <ele>2339.4</ele>
        <time>2025-02-20T10:04:30Z</time>
      </trkpt>
      <trkpt lat="45.63301" lon="6.54933">
        <ele>2339.4</ele>
        <time>2025-02-20T10:04:31Z</time>
      </trkpt>
      <trkpt lat="45.63301" lon="6.54933">
        <ele>2338.8</ele>
        <time>2025-02-20T10:04:32Z</time>
      </trkpt>
      <trkpt lat="45.63301" lon="6.54933">
        <ele>2338.4</ele>
        <time>2025-02-20T10:04:33Z</time>
      </trkpt>
      <trkpt lat="45.63301" lon="6.54933">
        <ele>2338.4</ele>
        <time>2025-02-20T10:04:34Z</time>
      </trkpt>
      <trkpt lat="45.63301" lon="6.54933">
        <ele>2338.4</ele>
        <time>2025-02-20T10:04:35Z</time>
      </trkpt>
      <trkpt lat="45.63301" lon="6.54933">
        <ele>2338.6</ele>
        <time>2025-02-20T10:04:36Z</time>
      </trkpt>
      <trkpt lat="45.63301" lon="6.54933">
        <ele>2338.8</ele>
        <time>2025-02-20T10:04:37Z</time>
      </trkpt>
      <trkpt lat="45.63301" lon="6.54933">
        <ele>2338.8</ele>
        <time>2025-02-20T10:04:38Z</time>
      </trkpt>
      <trkpt lat="45.63301" lon="6.54933">
        <ele>2338.8</ele>
        <time>2025-02-20T10:04:39Z</time>
      </trkpt>
      <trkpt lat="45.63301" lon="6.54933">
        <ele>2338.8</ele>
        <time>2025-02-20T10:04:40Z</time>
      </trkpt>
      <trkpt lat="45.63301" lon="6.54933">
        <ele>2338.6</ele>
        <time>2025-02-20T10:04:41Z</time>
      </trkpt>
      <trkpt lat="45.63301" lon="6.54933">
        <ele>2338.6</ele>
        <time>2025-02-20T10:04:42Z</time>
      </trkpt>
      <trkpt lat="45.63301" lon="6.54933">
        <ele>2338.6</ele>
        <time>2025-02-20T10:04:43Z</time>
      </trkpt>
      <trkpt lat="45.63301" lon="6.54933">
        <ele>2338.6</ele>
        <time>2025-02-20T10:04:44Z</time>
      </trkpt>
      <trkpt lat="45.63301" lon="6.54933">
        <ele>2338.8</ele>
        <time>2025-02-20T10:04:45Z</time>
      </trkpt>
      <trkpt lat="45.63301" lon="6.54933">
        <ele>2338.8</ele>
        <time>2025-02-20T10:04:46Z</time>
      </trkpt>
      <trkpt lat="45.63301" lon="6.54933">
        <ele>2338.8</ele>
        <time>2025-02-20T10:04:47Z</time>
      </trkpt>
      <trkpt lat="45.63301" lon="6.54933">
        <ele>2338.8</ele>
        <time>2025-02-20T10:04:48Z</time>
      </trkpt>
      <trkpt lat="45.63301" lon="6.54933">
        <ele>2338.6</ele>
        <time>2025-02-20T10:04:49Z</time>
      </trkpt>
      <trkpt lat="45.63301" lon="6.54933">
        <ele>2338.6</ele>
        <time>2025-02-20T10:04:50Z</time>
      </trkpt>
      <trkpt lat="45.63301" lon="6.54933">
        <ele>2338.6</ele>
        <time>2025-02-20T10:04:51Z</time>
      </trkpt>
      <trkpt lat="45.63301" lon="6.54933">
        <ele>2338.8</ele>
        <time>2025-02-20T10:04:52Z</time>
      </trkpt>
      <trkpt lat="45.63301" lon="6.54933">
        <ele>2338.4</ele>
        <time>2025-02-20T10:04:53Z</time>
      </trkpt>
      <trkpt lat="45.63301" lon="6.54933">
        <ele>2338.4</ele>
        <time>2025-02-20T10:04:54Z</time>
      </trkpt>
      <trkpt lat="45.63301" lon="6.54933">
        <ele>2338.4</ele>
        <time>2025-02-20T10:04:55Z</time>
      </trkpt>
      <trkpt lat="45.63301" lon="6.54933">
        <ele>2338.4</ele>
        <time>2025-02-20T10:04:56Z</time>
      </trkpt>
      <trkpt lat="45.63301" lon="6.54933">
        <ele>2339</ele>
        <time>2025-02-20T10:04:57Z</time>
      </trkpt>
      <trkpt lat="45.63301" lon="6.54933">
        <ele>2339</ele>
        <time>2025-02-20T10:04:58Z</time>
      </trkpt>
      <trkpt lat="45.63301" lon="6.54933">
        <ele>2339</ele>
        <time>2025-02-20T10:04:59Z</time>
      </trkpt>
      <trkpt lat="45.63301" lon="6.54933">
        <ele>2339</ele>
        <time>2025-02-20T10:05:00Z</time>
      </trkpt>
      <trkpt lat="45.63301" lon="6.54933">
        <ele>2339</ele>
        <time>2025-02-20T10:05:01Z</time>
      </trkpt>
      <trkpt lat="45.63301" lon="6.54933">
        <ele>2339</ele>
        <time>2025-02-20T10:05:02Z</time>
      </trkpt>
      <trkpt lat="45.63301" lon="6.54933">
        <ele>2339</ele>
        <time>2025-02-20T10:05:03Z</time>
      </trkpt>
      <trkpt lat="45.63301" lon="6.54933">
        <ele>2339</ele>
        <time>2025-02-20T10:05:04Z</time>
      </trkpt>
      <trkpt lat="45.63301" lon="6.54933">
        <ele>2339</ele>
        <time>2025-02-20T10:05:05Z</time>
      </trkpt>
      <trkpt lat="45.63301" lon="6.54933">
        <ele>2339</ele>
        <time>2025-02-20T10:05:06Z</time>
      </trkpt>
      <trkpt lat="45.63301" lon="6.54933">
        <ele>2339</ele>
        <time>2025-02-20T10:05:07Z</time>
      </trkpt>
      <trkpt lat="45.63301" lon="6.54933">
        <ele>2339</ele>
        <time>2025-02-20T10:05:08Z</time>
      </trkpt>
      <trkpt lat="45.63301" lon="6.54933">
        <ele>2339</ele>
        <time>2025-02-20T10:05:09Z</time>
      </trkpt>
      <trkpt lat="45.63301" lon="6.54933">
        <ele>2339</ele>
        <time>2025-02-20T10:05:10Z</time>
      </trkpt>
      <trkpt lat="45.63301" lon="6.54933">
        <ele>2339</ele>
        <time>2025-02-20T10:05:11Z</time>
      </trkpt>
      <trkpt lat="45.63301" lon="6.54933">
        <ele>2339</ele>
        <time>2025-02-20T10:05:12Z</time>
      </trkpt>
      <trkpt lat="45.63301" lon="6.54933">
        <ele>2338.8</ele>
        <time>2025-02-20T10:05:13Z</time>
      </trkpt>
      <trkpt lat="45.63301" lon="6.54933">
        <ele>2338.8</ele>
        <time>2025-02-20T10:05:14Z</time>
      </trkpt>
      <trkpt lat="45.63301" lon="6.54933">
        <ele>2338.8</ele>
        <time>2025-02-20T10:05:15Z</time>
      </trkpt>
      <trkpt lat="45.63301" lon="6.54933">
        <ele>2338.8</ele>
        <time>2025-02-20T10:05:16Z</time>
      </trkpt>
      <trkpt lat="45.63301" lon="6.54933">
        <ele>2338.8</ele>
        <time>2025-02-20T10:05:17Z</time>
      </trkpt>
      <trkpt lat="45.63301" lon="6.54933">
        <ele>2338.8</ele>
        <time>2025-02-20T10:05:18Z</time>
      </trkpt>
      <trkpt lat="45.63301" lon="6.54933">
        <ele>2338.8</ele>
        <time>2025-02-20T10:05:19Z</time>
      </trkpt>
      <trkpt lat="45.63301" lon="6.54933">
        <ele>2338.8</ele>
        <time>2025-02-20T10:05:20Z</time>
      </trkpt>
      <trkpt lat="45.63301" lon="6.54933">
        <ele>2338.4</ele>
        <time>2025-02-20T10:05:21Z</time>
      </trkpt>
      <trkpt lat="45.63301" lon="6.54933">
        <ele>2338.4</ele>
        <time>2025-02-20T10:05:22Z</time>
      </trkpt>
      <trkpt lat="45.63301" lon="6.54933">
        <ele>2338.4</ele>
        <time>2025-02-20T10:05:23Z</time>
      </trkpt>
      <trkpt lat="45.63301" lon="6.54933">
        <ele>2338.6</ele>
        <time>2025-02-20T10:05:24Z</time>
      </trkpt>
      <trkpt lat="45.63301" lon="6.54933">
        <ele>2338.8</ele>
        <time>2025-02-20T10:05:25Z</time>
      </trkpt>
      <trkpt lat="45.63301" lon="6.54933">
        <ele>2338.8</ele>
        <time>2025-02-20T10:05:26Z</time>
      </trkpt>
      <trkpt lat="45.63301" lon="6.54933">
        <ele>2338.8</ele>
        <time>2025-02-20T10:05:27Z</time>
      </trkpt>
      <trkpt lat="45.63301" lon="6.54933">
        <ele>2338.8</ele>
        <time>2025-02-20T10:05:28Z</time>
      </trkpt>
      <trkpt lat="45.63301" lon="6.54933">
        <ele>2338.8</ele>
        <time>2025-02-20T10:05:29Z</time>
      </trkpt>
      <trkpt lat="45.63301" lon="6.54933">
        <ele>2338.8</ele>
        <time>2025-02-20T10:05:30Z</time>
      </trkpt>
      <trkpt lat="45.63301" lon="6.54933">
        <ele>2338.8</ele>
        <time>2025-02-20T10:05:31Z</time>
      </trkpt>
      <trkpt lat="45.63301" lon="6.54933">
        <ele>2338.8</ele>
        <time>2025-02-20T10:05:32Z</time>
      </trkpt>
      <trkpt lat="45.63301" lon="6.54933">
        <ele>2338.8</ele>
        <time>2025-02-20T10:05:33Z</time>
      </trkpt>
      <trkpt lat="45.63301" lon="6.54933">
        <ele>2338.8</ele>
        <time>2025-02-20T10:05:34Z</time>
      </trkpt>
      <trkpt lat="45.63301" lon="6.54933">
        <ele>2338.8</ele>
        <time>2025-02-20T10:05:35Z</time>
      </trkpt>
      <trkpt lat="45.63301" lon="6.54933">
        <ele>2338.8</ele>
        <time>2025-02-20T10:05:36Z</time>
      </trkpt>
      <trkpt lat="45.63301" lon="6.54933">
        <ele>2338.6</ele>
        <time>2025-02-20T10:05:37Z</time>
      </trkpt>
      <trkpt lat="45.63301" lon="6.54933">
        <ele>2338.6</ele>
        <time>2025-02-20T10:05:38Z</time>
      </trkpt>
      <trkpt lat="45.63301" lon="6.54933">
        <ele>2338.6</ele>
        <time>2025-02-20T10:05:39Z</time>
      </trkpt>
      <trkpt lat="45.63301" lon="6.54933">
        <ele>2338.6</ele>
        <time>2025-02-20T10:05:40Z</time>
      </trkpt>
      <trkpt lat="45.63301" lon="6.54933">
        <ele>2339</ele>
        <time>2025-02-20T10:05:41Z</time>
      </trkpt>
      <trkpt lat="45.63301" lon="6.54933">
        <ele>2339</ele>
        <time>2025-02-20T10:05:42Z</time>
      </trkpt>
      <trkpt lat="45.63301" lon="6.54933">
        <ele>2339</ele>
        <time>2025-02-20T10:05:43Z</time>
      </trkpt>
      <trkpt lat="45.63301" lon="6.54933">
        <ele>2338.8</ele>
        <time>2025-02-20T10:05:44Z</time>
      </trkpt>
      <trkpt lat="45.63301" lon="6.54933">
        <ele>2338.8</ele>
        <time>2025-02-20T10:05:45Z</time>
      </trkpt>
      <trkpt lat="45.63301" lon="6.54933">
        <ele>2338.8</ele>
        <time>2025-02-20T10:05:46Z</time>
      </trkpt>
      <trkpt lat="45.63301" lon="6.54933">
        <ele>2338.8</ele>
        <time>2025-02-20T10:05:47Z</time>
      </trkpt>
      <trkpt lat="45.63301" lon="6.54933">
        <ele>2338.6</ele>
        <time>2025-02-20T10:05:48Z</time>
      </trkpt>
      <trkpt lat="45.63301" lon="6.54933">
        <ele>2338.4</ele>
        <time>2025-02-20T10:05:49Z</time>
      </trkpt>
      <trkpt lat="45.63301" lon="6.54933">
        <ele>2338.4</ele>
        <time>2025-02-20T10:05:50Z</time>
      </trkpt>
      <trkpt lat="45.63301" lon="6.54933">
        <ele>2338.4</ele>
        <time>2025-02-20T10:05:51Z</time>
      </trkpt>
      <trkpt lat="45.63301" lon="6.54933">
        <ele>2338.8</ele>
        <time>2025-02-20T10:05:52Z</time>
      </trkpt>
      <trkpt lat="45.63301" lon="6.54933">
        <ele>2339</ele>
        <time>2025-02-20T10:05:53Z</time>
      </trkpt>
      <trkpt lat="45.63301" lon="6.54933">
        <ele>2339</ele>
        <time>2025-02-20T10:05:54Z</time>
      </trkpt>
      <trkpt lat="45.63301" lon="6.54933">
        <ele>2339</ele>
        <time>2025-02-20T10:05:55Z</time>
      </trkpt>
      <trkpt lat="45.63301" lon="6.54933">
        <ele>2338.8</ele>
        <time>2025-02-20T10:05:56Z</time>
      </trkpt>
      <trkpt lat="45.63301" lon="6.54933">
        <ele>2338.8</ele>
        <time>2025-02-20T10:05:57Z</time>
      </trkpt>
      <trkpt lat="45.63301" lon="6.54933">
        <ele>2338.8</ele>
        <time>2025-02-20T10:05:58Z</time>
      </trkpt>
      <trkpt lat="45.63301" lon="6.54933">
        <ele>2338.8</ele>
        <time>2025-02-20T10:05:59Z</time>
      </trkpt>
      <trkpt lat="45.63301" lon="6.54933">
        <ele>2338.8</ele>
        <time>2025-02-20T10:06:00Z</time>
      </trkpt>
      <trkpt lat="45.63301" lon="6.54933">
        <ele>2338.6</ele>
        <time>2025-02-20T10:06:01Z</time>
      </trkpt>
      <trkpt lat="45.63301" lon="6.54933">
        <ele>2338.6</ele>
        <time>2025-02-20T10:06:02Z</time>
      </trkpt>
      <trkpt lat="45.63301" lon="6.54933">
        <ele>2338.6</ele>
        <time>2025-02-20T10:06:03Z</time>
      </trkpt>
      <trkpt lat="45.63301" lon="6.54933">
        <ele>2338.6</ele>
        <time>2025-02-20T10:06:04Z</time>
      </trkpt>
      <trkpt lat="45.63301" lon="6.54933">
        <ele>2338.8</ele>
        <time>2025-02-20T10:06:05Z</time>
      </trkpt>
      <trkpt lat="45.63301" lon="6.54933">
        <ele>2338.8</ele>
        <time>2025-02-20T10:06:06Z</time>
      </trkpt>
      <trkpt lat="45.63301" lon="6.54933">
        <ele>2338.8</ele>
        <time>2025-02-20T10:06:07Z</time>
      </trkpt>
      <trkpt lat="45.63301" lon="6.54933">
        <ele>2338.8</ele>
        <time>2025-02-20T10:06:08Z</time>
      </trkpt>
      <trkpt lat="45.63301" lon="6.54933">
        <ele>2338.8</ele>
        <time>2025-02-20T10:06:09Z</time>
      </trkpt>
      <trkpt lat="45.63301" lon="6.54933">
        <ele>2338.8</ele>
        <time>2025-02-20T10:06:10Z</time>
      </trkpt>
      <trkpt lat="45.63301" lon="6.54933">
        <ele>2338.8</ele>
        <time>2025-02-20T10:06:11Z</time>
      </trkpt>
      <trkpt lat="45.63301" lon="6.54933">
        <ele>2339</ele>
        <time>2025-02-20T10:06:12Z</time>
      </trkpt>
      <trkpt lat="45.63301" lon="6.54933">
        <ele>2339</ele>
        <time>2025-02-20T10:06:13Z</time>
      </trkpt>
      <trkpt lat="45.63301" lon="6.54933">
        <ele>2339</ele>
        <time>2025-02-20T10:06:14Z</time>
      </trkpt>
      <trkpt lat="45.63301" lon="6.54933">
        <ele>2339</ele>
        <time>2025-02-20T10:06:15Z</time>
      </trkpt>
      <trkpt lat="45.63301" lon="6.54933">
        <ele>2339</ele>
        <time>2025-02-20T10:06:16Z</time>
      </trkpt>
      <trkpt lat="45.63301" lon="6.54933">
        <ele>2339</ele>
        <time>2025-02-20T10:06:17Z</time>
      </trkpt>
      <trkpt lat="45.63301" lon="6.54933">
        <ele>2339</ele>
        <time>2025-02-20T10:06:18Z</time>
      </trkpt>
      <trkpt lat="45.63301" lon="6.54933">
        <ele>2339</ele>
        <time>2025-02-20T10:06:19Z</time>
      </trkpt>
      <trkpt lat="45.63301" lon="6.54933">
        <ele>2338.8</ele>
        <time>2025-02-20T10:06:20Z</time>
      </trkpt>
      <trkpt lat="45.63301" lon="6.54933">
        <ele>2339.2</ele>
        <time>2025-02-20T10:06:21Z</time>
      </trkpt>
      <trkpt lat="45.63301" lon="6.54933">
        <ele>2339.2</ele>
        <time>2025-02-20T10:06:22Z</time>
      </trkpt>
      <trkpt lat="45.63301" lon="6.54933">
        <ele>2339.2</ele>
        <time>2025-02-20T10:06:23Z</time>
      </trkpt>
      <trkpt lat="45.63301" lon="6.54933">
        <ele>2339.2</ele>
        <time>2025-02-20T10:06:24Z</time>
      </trkpt>
      <trkpt lat="45.63301" lon="6.54933">
        <ele>2339</ele>
        <time>2025-02-20T10:06:25Z</time>
      </trkpt>
      <trkpt lat="45.63301" lon="6.54933">
        <ele>2339</ele>
        <time>2025-02-20T10:06:26Z</time>
      </trkpt>
      <trkpt lat="45.63301" lon="6.54933">
        <ele>2339</ele>
        <time>2025-02-20T10:06:27Z</time>
      </trkpt>
      <trkpt lat="45.63301" lon="6.54933">
        <ele>2339.4</ele>
        <time>2025-02-20T10:06:28Z</time>
      </trkpt>
      <trkpt lat="45.63301" lon="6.54933">
        <ele>2339.2</ele>
        <time>2025-02-20T10:06:29Z</time>
      </trkpt>
      <trkpt lat="45.63301" lon="6.54933">
        <ele>2339.2</ele>
        <time>2025-02-20T10:06:30Z</time>
      </trkpt>
      <trkpt lat="45.63301" lon="6.54933">
        <ele>2339.2</ele>
        <time>2025-02-20T10:06:31Z</time>
      </trkpt>
      <trkpt lat="45.63301" lon="6.54933">
        <ele>2339.2</ele>
        <time>2025-02-20T10:06:32Z</time>
      </trkpt>
      <trkpt lat="45.63301" lon="6.54933">
        <ele>2339</ele>
        <time>2025-02-20T10:06:33Z</time>
      </trkpt>
      <trkpt lat="45.63301" lon="6.54933">
        <ele>2339</ele>
        <time>2025-02-20T10:06:34Z</time>
      </trkpt>
      <trkpt lat="45.63301" lon="6.54933">
        <ele>2339</ele>
        <time>2025-02-20T10:06:35Z</time>
      </trkpt>
      <trkpt lat="45.63301" lon="6.54933">
        <ele>2339.4</ele>
        <time>2025-02-20T10:06:36Z</time>
      </trkpt>
      <trkpt lat="45.63301" lon="6.54933">
        <ele>2338.8</ele>
        <time>2025-02-20T10:06:37Z</time>
      </trkpt>
      <trkpt lat="45.63301" lon="6.54933">
        <ele>2338.8</ele>
        <time>2025-02-20T10:06:38Z</time>
      </trkpt>
      <trkpt lat="45.63301" lon="6.54933">
        <ele>2338.8</ele>
        <time>2025-02-20T10:06:39Z</time>
      </trkpt>
      <trkpt lat="45.63301" lon="6.54933">
        <ele>2338.8</ele>
        <time>2025-02-20T10:06:40Z</time>
      </trkpt>
      <trkpt lat="45.63301" lon="6.54933">
        <ele>2338.6</ele>
        <time>2025-02-20T10:06:41Z</time>
      </trkpt>
      <trkpt lat="45.63301" lon="6.54933">
        <ele>2338.6</ele>
        <time>2025-02-20T10:06:42Z</time>
      </trkpt>
      <trkpt lat="45.63301" lon="6.54933">
        <ele>2338.6</ele>
        <time>2025-02-20T10:06:43Z</time>
      </trkpt>
      <trkpt lat="45.63301" lon="6.54933">
        <ele>2338.6</ele>
        <time>2025-02-20T10:06:44Z</time>
      </trkpt>
      <trkpt lat="45.63301" lon="6.54933">
        <ele>2339.2</ele>
        <time>2025-02-20T10:06:45Z</time>
      </trkpt>
      <trkpt lat="45.63301" lon="6.54933">
        <ele>2339.2</ele>
        <time>2025-02-20T10:06:46Z</time>
      </trkpt>
      <trkpt lat="45.63301" lon="6.54933">
        <ele>2339.2</ele>
        <time>2025-02-20T10:06:47Z</time>
      </trkpt>
      <trkpt lat="45.63301" lon="6.54933">
        <ele>2339.2</ele>
        <time>2025-02-20T10:06:48Z</time>
      </trkpt>
      <trkpt lat="45.63301" lon="6.54933">
        <ele>2340.8</ele>
        <time>2025-02-20T10:06:49Z</time>
      </trkpt>
      <trkpt lat="45.63301" lon="6.54933">
        <ele>2340.8</ele>
        <time>2025-02-20T10:06:50Z</time>
      </trkpt>
      <trkpt lat="45.63301" lon="6.54933">
        <ele>2340.8</ele>
        <time>2025-02-20T10:06:51Z</time>
      </trkpt>
      <trkpt lat="45.63301" lon="6.54933">
        <ele>2339.8</ele>
        <time>2025-02-20T10:06:52Z</time>
      </trkpt>
      <trkpt lat="45.63301" lon="6.54933">
        <ele>2339.6</ele>
        <time>2025-02-20T10:06:53Z</time>
      </trkpt>
      <trkpt lat="45.63301" lon="6.54933">
        <ele>2339.6</ele>
        <time>2025-02-20T10:06:54Z</time>
      </trkpt>
      <trkpt lat="45.63301" lon="6.54933">
        <ele>2339.6</ele>
        <time>2025-02-20T10:06:55Z</time>
      </trkpt>
      <trkpt lat="45.63301" lon="6.54933">
        <ele>2339.6</ele>
        <time>2025-02-20T10:06:56Z</time>
      </trkpt>
      <trkpt lat="45.63301" lon="6.54933">
        <ele>2338.6</ele>
        <time>2025-02-20T10:06:57Z</time>
      </trkpt>
      <trkpt lat="45.63301" lon="6.54933">
        <ele>2338.6</ele>
        <time>2025-02-20T10:06:58Z</time>
      </trkpt>
      <trkpt lat="45.63301" lon="6.54933">
        <ele>2338.6</ele>
        <time>2025-02-20T10:06:59Z</time>
      </trkpt>
      <trkpt lat="45.63301" lon="6.54933">
        <ele>2338.8</ele>
        <time>2025-02-20T10:07:00Z</time>
      </trkpt>
      <trkpt lat="45.63301" lon="6.54933">
        <ele>2339</ele>
        <time>2025-02-20T10:07:01Z</time>
      </trkpt>
      <trkpt lat="45.63301" lon="6.54933">
        <ele>2339</ele>
        <time>2025-02-20T10:07:02Z</time>
      </trkpt>
      <trkpt lat="45.63301" lon="6.54933">
        <ele>2339</ele>
        <time>2025-02-20T10:07:03Z</time>
      </trkpt>
      <trkpt lat="45.63301" lon="6.54933">
        <ele>2339.6</ele>
        <time>2025-02-20T10:07:04Z</time>
      </trkpt>
      <trkpt lat="45.63301" lon="6.54933">
        <ele>2339</ele>
        <time>2025-02-20T10:07:05Z</time>
      </trkpt>
      <trkpt lat="45.63301" lon="6.54933">
        <ele>2339</ele>
        <time>2025-02-20T10:07:06Z</time>
      </trkpt>
      <trkpt lat="45.63301" lon="6.54933">
        <ele>2339</ele>
        <time>2025-02-20T10:07:07Z</time>
      </trkpt>
      <trkpt lat="45.63301" lon="6.54933">
        <ele>2339</ele>
        <time>2025-02-20T10:07:08Z</time>
      </trkpt>
      <trkpt lat="45.63301" lon="6.54933">
        <ele>2339.2</ele>
        <time>2025-02-20T10:07:09Z</time>
      </trkpt>
      <trkpt lat="45.63301" lon="6.54933">
        <ele>2339.2</ele>
        <time>2025-02-20T10:07:10Z</time>
      </trkpt>
      <trkpt lat="45.63301" lon="6.54933">
        <ele>2339.2</ele>
        <time>2025-02-20T10:07:11Z</time>
      </trkpt>
      <trkpt lat="45.63301" lon="6.54933">
        <ele>2339</ele>
        <time>2025-02-20T10:07:12Z</time>
      </trkpt>
      <trkpt lat="45.63301" lon="6.54933">
        <ele>2339.4</ele>
        <time>2025-02-20T10:07:13Z</time>
      </trkpt>
      <trkpt lat="45.63301" lon="6.54933">
        <ele>2339.4</ele>
        <time>2025-02-20T10:07:14Z</time>
      </trkpt>
      <trkpt lat="45.63301" lon="6.54933">
        <ele>2339.4</ele>
        <time>2025-02-20T10:07:15Z</time>
      </trkpt>
      <trkpt lat="45.63301" lon="6.54933">
        <ele>2339</ele>
        <time>2025-02-20T10:07:16Z</time>
      </trkpt>
      <trkpt lat="45.63301" lon="6.54933">
        <ele>2338.6</ele>
        <time>2025-02-20T10:07:17Z</time>
      </trkpt>
      <trkpt lat="45.63301" lon="6.54933">
        <ele>2338.6</ele>
        <time>2025-02-20T10:07:18Z</time>
      </trkpt>
      <trkpt lat="45.63301" lon="6.54933">
        <ele>2338.6</ele>
        <time>2025-02-20T10:07:19Z</time>
      </trkpt>
      <trkpt lat="45.63301" lon="6.54933">
        <ele>2338.6</ele>
        <time>2025-02-20T10:07:20Z</time>
      </trkpt>
      <trkpt lat="45.63301" lon="6.54933">
        <ele>2338.6</ele>
        <time>2025-02-20T10:07:21Z</time>
      </trkpt>
      <trkpt lat="45.63301" lon="6.54933">
        <ele>2338.6</ele>
        <time>2025-02-20T10:07:22Z</time>
      </trkpt>
      <trkpt lat="45.63301" lon="6.54933">
        <ele>2338.6</ele>
        <time>2025-02-20T10:07:23Z</time>
      </trkpt>
      <trkpt lat="45.63301" lon="6.54933">
        <ele>2339.6</ele>
        <time>2025-02-20T10:07:24Z</time>
      </trkpt>
      <trkpt lat="45.63301" lon="6.54933">
        <ele>2338.6</ele>
        <time>2025-02-20T10:07:25Z</time>
      </trkpt>
      <trkpt lat="45.63301" lon="6.54933">
        <ele>2338.6</ele>
        <time>2025-02-20T10:07:26Z</time>
      </trkpt>
      <trkpt lat="45.63301" lon="6.54933">
        <ele>2338.6</ele>
        <time>2025-02-20T10:07:27Z</time>
      </trkpt>
      <trkpt lat="45.63301" lon="6.54933">
        <ele>2338.6</ele>
        <time>2025-02-20T10:07:28Z</time>
      </trkpt>
      <trkpt lat="45.63301" lon="6.54933">
        <ele>2339.2</ele>
        <time>2025-02-20T10:07:29Z</time>
      </trkpt>
      <trkpt lat="45.63301" lon="6.54933">
        <ele>2339.2</ele>
        <time>2025-02-20T10:07:30Z</time>
      </trkpt>
      <trkpt lat="45.63301" lon="6.54933">
        <ele>2339.2</ele>
        <time>2025-02-20T10:07:31Z</time>
      </trkpt>
      <trkpt lat="45.63301" lon="6.54933">
        <ele>2339.8</ele>
        <time>2025-02-20T10:07:32Z</time>
      </trkpt>
      <trkpt lat="45.63301" lon="6.54933">
        <ele>2339</ele>
        <time>2025-02-20T10:07:33Z</time>
      </trkpt>
      <trkpt lat="45.63301" lon="6.54933">
        <ele>2339</ele>
        <time>2025-02-20T10:07:34Z</time>
      </trkpt>
      <trkpt lat="45.63301" lon="6.54933">
        <ele>2339</ele>
        <time>2025-02-20T10:07:35Z</time>
      </trkpt>
      <trkpt lat="45.63301" lon="6.54933">
        <ele>2339.2</ele>
        <time>2025-02-20T10:07:36Z</time>
      </trkpt>
      <trkpt lat="45.63301" lon="6.54933">
        <ele>2338.8</ele>
        <time>2025-02-20T10:07:37Z</time>
      </trkpt>
      <trkpt lat="45.63301" lon="6.54933">
        <ele>2338.8</ele>
        <time>2025-02-20T10:07:38Z</time>
      </trkpt>
      <trkpt lat="45.63301" lon="6.54933">
        <ele>2338.8</ele>
        <time>2025-02-20T10:07:39Z</time>
      </trkpt>
      <trkpt lat="45.63301" lon="6.54933">
        <ele>2339</ele>
        <time>2025-02-20T10:07:40Z</time>
      </trkpt>
      <trkpt lat="45.63301" lon="6.54933">
        <ele>2339</ele>
        <time>2025-02-20T10:07:41Z</time>
      </trkpt>
      <trkpt lat="45.63301" lon="6.54933">
        <ele>2339</ele>
        <time>2025-02-20T10:07:42Z</time>
      </trkpt>
      <trkpt lat="45.63301" lon="6.54933">
        <ele>2339</ele>
        <time>2025-02-20T10:07:43Z</time>
      </trkpt>
      <trkpt lat="45.63301" lon="6.54933">
        <ele>2339</ele>
        <time>2025-02-20T10:07:44Z</time>
      </trkpt>
      <trkpt lat="45.63301" lon="6.54933">
        <ele>2339</ele>
        <time>2025-02-20T10:07:45Z</time>
      </trkpt>
      <trkpt lat="45.63301" lon="6.54933">
        <ele>2339</ele>
        <time>2025-02-20T10:07:46Z</time>
      </trkpt>
      <trkpt lat="45.63301" lon="6.54933">
        <ele>2339</ele>
        <time>2025-02-20T10:07:47Z</time>
      </trkpt>
      <trkpt lat="45.63301" lon="6.54933">
        <ele>2339</ele>
        <time>2025-02-20T10:07:48Z</time>
      </trkpt>
      <trkpt lat="45.63301" lon="6.54933">
        <ele>2338.8</ele>
        <time>2025-02-20T10:07:49Z</time>
      </trkpt>
      <trkpt lat="45.63301" lon="6.54933">
        <ele>2338.8</ele>
        <time>2025-02-20T10:07:50Z</time>
      </trkpt>
      <trkpt lat="45.63301" lon="6.54933">
        <ele>2338.8</ele>
        <time>2025-02-20T10:07:51Z</time>
      </trkpt>
      <trkpt lat="45.63301" lon="6.54933">
        <ele>2338.8</ele>
        <time>2025-02-20T10:07:52Z</time>
      </trkpt>
      <trkpt lat="45.63301" lon="6.54933">
        <ele>2338.8</ele>
        <time>2025-02-20T10:07:53Z</time>
      </trkpt>
      <trkpt lat="45.63301" lon="6.54933">
        <ele>2338.8</ele>
        <time>2025-02-20T10:07:54Z</time>
      </trkpt>
      <trkpt lat="45.63301" lon="6.54933">
        <ele>2338.8</ele>
        <time>2025-02-20T10:07:55Z</time>
      </trkpt>
      <trkpt lat="45.63301" lon="6.54933">
        <ele>2338.8</ele>
        <time>2025-02-20T10:07:56Z</time>
      </trkpt>
      <trkpt lat="45.63301" lon="6.54933">
        <ele>2339</ele>
        <time>2025-02-20T10:07:57Z</time>
      </trkpt>
      <trkpt lat="45.63301" lon="6.54933">
        <ele>2339</ele>
        <time>2025-02-20T10:07:58Z</time>
      </trkpt>
      <trkpt lat="45.63301" lon="6.54933">
        <ele>2339</ele>
        <time>2025-02-20T10:07:59Z</time>
      </trkpt>
      <trkpt lat="45.63301" lon="6.54933">
        <ele>2338.6</ele>
        <time>2025-02-20T10:08:00Z</time>
      </trkpt>
      <trkpt lat="45.63301" lon="6.54933">
        <ele>2339</ele>
        <time>2025-02-20T10:08:01Z</time>
      </trkpt>
      <trkpt lat="45.63301" lon="6.54933">
        <ele>2339</ele>
        <time>2025-02-20T10:08:02Z</time>
      </trkpt>
      <trkpt lat="45.63301" lon="6.54933">
        <ele>2339</ele>
        <time>2025-02-20T10:08:03Z</time>
      </trkpt>
      <trkpt lat="45.63301" lon="6.54933">
        <ele>2339</ele>
        <time>2025-02-20T10:08:04Z</time>
      </trkpt>
      <trkpt lat="45.63301" lon="6.54933">
        <ele>2339</ele>
        <time>2025-02-20T10:08:05Z</time>
      </trkpt>
      <trkpt lat="45.63301" lon="6.54933">
        <ele>2339</ele>
        <time>2025-02-20T10:08:06Z</time>
      </trkpt>
      <trkpt lat="45.63301" lon="6.54933">
        <ele>2339</ele>
        <time>2025-02-20T10:08:07Z</time>
      </trkpt>
      <trkpt lat="45.63301" lon="6.54933">
        <ele>2339</ele>
        <time>2025-02-20T10:08:08Z</time>
      </trkpt>
      <trkpt lat="45.63301" lon="6.54933">
        <ele>2338.8</ele>
        <time>2025-02-20T10:08:09Z</time>
      </trkpt>
      <trkpt lat="45.63301" lon="6.54933">
        <ele>2338.8</ele>
        <time>2025-02-20T10:08:10Z</time>
      </trkpt>
      <trkpt lat="45.63301" lon="6.54933">
        <ele>2338.8</ele>
        <time>2025-02-20T10:08:11Z</time>
      </trkpt>
      <trkpt lat="45.63301" lon="6.54933">
        <ele>2338.8</ele>
        <time>2025-02-20T10:08:12Z</time>
      </trkpt>
      <trkpt lat="45.63301" lon="6.54933">
        <ele>2338.2</ele>
        <time>2025-02-20T10:08:13Z</time>
      </trkpt>
      <trkpt lat="45.63301" lon="6.54933">
        <ele>2338.2</ele>
        <time>2025-02-20T10:08:14Z</time>
      </trkpt>
      <trkpt lat="45.63301" lon="6.54933">
        <ele>2338.2</ele>
        <time>2025-02-20T10:08:15Z</time>
      </trkpt>
      <trkpt lat="45.63301" lon="6.54933">
        <ele>2338.2</ele>
        <time>2025-02-20T10:08:16Z</time>
      </trkpt>
      <trkpt lat="45.63301" lon="6.54933">
        <ele>2338.8</ele>
        <time>2025-02-20T10:08:17Z</time>
      </trkpt>
      <trkpt lat="45.63301" lon="6.54933">
        <ele>2338.8</ele>
        <time>2025-02-20T10:08:18Z</time>
      </trkpt>
      <trkpt lat="45.63301" lon="6.54933">
        <ele>2338.8</ele>
        <time>2025-02-20T10:08:19Z</time>
      </trkpt>
      <trkpt lat="45.63301" lon="6.54933">
        <ele>2338.8</ele>
        <time>2025-02-20T10:08:20Z</time>
      </trkpt>
      <trkpt lat="45.63301" lon="6.54933">
        <ele>2338.6</ele>
        <time>2025-02-20T10:08:21Z</time>
      </trkpt>
      <trkpt lat="45.63301" lon="6.54933">
        <ele>2338.6</ele>
        <time>2025-02-20T10:08:22Z</time>
      </trkpt>
      <trkpt lat="45.63301" lon="6.54933">
        <ele>2338.6</ele>
        <time>2025-02-20T10:08:23Z</time>
      </trkpt>
      <trkpt lat="45.63301" lon="6.54933">
        <ele>2338.8</ele>
        <time>2025-02-20T10:08:24Z</time>
      </trkpt>
      <trkpt lat="45.63301" lon="6.54933">
        <ele>2338.6</ele>
        <time>2025-02-20T10:08:25Z</time>
      </trkpt>
      <trkpt lat="45.63301" lon="6.54933">
        <ele>2338.6</ele>
        <time>2025-02-20T10:08:26Z</time>
      </trkpt>
      <trkpt lat="45.63301" lon="6.54933">
        <ele>2338.6</ele>
        <time>2025-02-20T10:08:27Z</time>
      </trkpt>
      <trkpt lat="45.63301" lon="6.54933">
        <ele>2339</ele>
        <time>2025-02-20T10:08:28Z</time>
      </trkpt>
      <trkpt lat="45.63301" lon="6.54933">
        <ele>2339</ele>
        <time>2025-02-20T10:08:29Z</time>
      </trkpt>
      <trkpt lat="45.63301" lon="6.54933">
        <ele>2339</ele>
        <time>2025-02-20T10:08:30Z</time>
      </trkpt>
      <trkpt lat="45.63301" lon="6.54933">
        <ele>2339</ele>
        <time>2025-02-20T10:08:31Z</time>
      </trkpt>
      <trkpt lat="45.63301" lon="6.54933">
        <ele>2339</ele>
        <time>2025-02-20T10:08:32Z</time>
      </trkpt>
      <trkpt lat="45.63301" lon="6.54933">
        <ele>2338.8</ele>
        <time>2025-02-20T10:08:33Z</time>
      </trkpt>
      <trkpt lat="45.63301" lon="6.54933">
        <ele>2338.8</ele>
        <time>2025-02-20T10:08:34Z</time>
      </trkpt>
      <trkpt lat="45.63301" lon="6.54933">
        <ele>2338.8</ele>
        <time>2025-02-20T10:08:35Z</time>
      </trkpt>
      <trkpt lat="45.63301" lon="6.54933">
        <ele>2339.2</ele>
        <time>2025-02-20T10:08:36Z</time>
      </trkpt>
      <trkpt lat="45.63301" lon="6.54933">
        <ele>2339.2</ele>
        <time>2025-02-20T10:08:37Z</time>
      </trkpt>
      <trkpt lat="45.63301" lon="6.54933">
        <ele>2339.2</ele>
        <time>2025-02-20T10:08:38Z</time>
      </trkpt>
      <trkpt lat="45.63301" lon="6.54933">
        <ele>2339.2</ele>
        <time>2025-02-20T10:08:39Z</time>
      </trkpt>
      <trkpt lat="45.63301" lon="6.54933">
        <ele>2338.8</ele>
        <time>2025-02-20T10:08:40Z</time>
      </trkpt>
      <trkpt lat="45.63301" lon="6.54933">
        <ele>2338.8</ele>
        <time>2025-02-20T10:08:41Z</time>
      </trkpt>
      <trkpt lat="45.63301" lon="6.54933">
        <ele>2338.8</ele>
        <time>2025-02-20T10:08:42Z</time>
      </trkpt>
      <trkpt lat="45.63301" lon="6.54933">
        <ele>2338.8</ele>
        <time>2025-02-20T10:08:43Z</time>
      </trkpt>
      <trkpt lat="45.63301" lon="6.54933">
        <ele>2338.8</ele>
        <time>2025-02-20T10:08:44Z</time>
      </trkpt>
      <trkpt lat="45.63301" lon="6.54933">
        <ele>2338.8</ele>
        <time>2025-02-20T10:08:45Z</time>
      </trkpt>
      <trkpt lat="45.63301" lon="6.54933">
        <ele>2338.8</ele>
        <time>2025-02-20T10:08:46Z</time>
      </trkpt>
      <trkpt lat="45.63301" lon="6.54933">
        <ele>2338.8</ele>
        <time>2025-02-20T10:08:47Z</time>
      </trkpt>
      <trkpt lat="45.63301" lon="6.54933">
        <ele>2338.8</ele>
        <time>2025-02-20T10:08:48Z</time>
      </trkpt>
      <trkpt lat="45.63301" lon="6.54933">
        <ele>2338.8</ele>
        <time>2025-02-20T10:08:49Z</time>
      </trkpt>
      <trkpt lat="45.63301" lon="6.54933">
        <ele>2338.8</ele>
        <time>2025-02-20T10:08:50Z</time>
      </trkpt>
      <trkpt lat="45.63301" lon="6.54933">
        <ele>2338.8</ele>
        <time>2025-02-20T10:08:51Z</time>
      </trkpt>
      <trkpt lat="45.63301" lon="6.54933">
        <ele>2338.8</ele>
        <time>2025-02-20T10:08:52Z</time>
      </trkpt>
      <trkpt lat="45.63301" lon="6.54933">
        <ele>2338.8</ele>
        <time>2025-02-20T10:08:53Z</time>
      </trkpt>
      <trkpt lat="45.63301" lon="6.54933">
        <ele>2338.8</ele>
        <time>2025-02-20T10:08:54Z</time>
      </trkpt>
      <trkpt lat="45.63301" lon="6.54933">
        <ele>2338.8</ele>
        <time>2025-02-20T10:08:55Z</time>
      </trkpt>
      <trkpt lat="45.63301" lon="6.54933">
        <ele>2338.8</ele>
        <time>2025-02-20T10:08:56Z</time>
      </trkpt>
      <trkpt lat="45.63301" lon="6.54933">
        <ele>2338.8</ele>
        <time>2025-02-20T10:08:57Z</time>
      </trkpt>
      <trkpt lat="45.63301" lon="6.54933">
        <ele>2338.8</ele>
        <time>2025-02-20T10:08:58Z</time>
      </trkpt>
      <trkpt lat="45.63301" lon="6.54933">
        <ele>2338.8</ele>
        <time>2025-02-20T10:08:59Z</time>
      </trkpt>
      <trkpt lat="45.63301" lon="6.54933">
        <ele>2338.8</ele>
        <time>2025-02-20T10:09:00Z</time>
      </trkpt>
      <trkpt lat="45.63301" lon="6.54933">
        <ele>2338.8</ele>
        <time>2025-02-20T10:09:01Z</time>
      </trkpt>
      <trkpt lat="45.63301" lon="6.54933">
        <ele>2338.8</ele>
        <time>2025-02-20T10:09:02Z</time>
      </trkpt>
      <trkpt lat="45.63301" lon="6.54933">
        <ele>2338.8</ele>
        <time>2025-02-20T10:09:03Z</time>
      </trkpt>
      <trkpt lat="45.63301" lon="6.54933">
        <ele>2338.8</ele>
        <time>2025-02-20T10:09:04Z</time>
      </trkpt>
      <trkpt lat="45.63301" lon="6.54933">
        <ele>2339.2</ele>
        <time>2025-02-20T10:09:05Z</time>
      </trkpt>
      <trkpt lat="45.63301" lon="6.54933">
        <ele>2339.2</ele>
        <time>2025-02-20T10:09:06Z</time>
      </trkpt>
      <trkpt lat="45.63301" lon="6.54933">
        <ele>2339.2</ele>
        <time>2025-02-20T10:09:07Z</time>
      </trkpt>
      <trkpt lat="45.63301" lon="6.54933">
        <ele>2339.2</ele>
        <time>2025-02-20T10:09:08Z</time>
      </trkpt>
      <trkpt lat="45.63301" lon="6.54933">
        <ele>2338.8</ele>
        <time>2025-02-20T10:09:09Z</time>
      </trkpt>
      <trkpt lat="45.63301" lon="6.54933">
        <ele>2338.8</ele>
        <time>2025-02-20T10:09:10Z</time>
      </trkpt>
      <trkpt lat="45.63301" lon="6.54933">
        <ele>2338.8</ele>
        <time>2025-02-20T10:09:11Z</time>
      </trkpt>
      <trkpt lat="45.63301" lon="6.54933">
        <ele>2338.8</ele>
        <time>2025-02-20T10:09:12Z</time>
      </trkpt>
      <trkpt lat="45.63301" lon="6.54933">
        <ele>2338.4</ele>
        <time>2025-02-20T10:09:13Z</time>
      </trkpt>
      <trkpt lat="45.63301" lon="6.54933">
        <ele>2338.4</ele>
        <time>2025-02-20T10:09:14Z</time>
      </trkpt>
      <trkpt lat="45.63301" lon="6.54933">
        <ele>2338.4</ele>
        <time>2025-02-20T10:09:15Z</time>
      </trkpt>
      <trkpt lat="45.63301" lon="6.54933">
        <ele>2338.4</ele>
        <time>2025-02-20T10:09:16Z</time>
      </trkpt>
      <trkpt lat="45.63301" lon="6.54933">
        <ele>2338</ele>
        <time>2025-02-20T10:09:17Z</time>
      </trkpt>
      <trkpt lat="45.63301" lon="6.54933">
        <ele>2338</ele>
        <time>2025-02-20T10:09:18Z</time>
      </trkpt>
      <trkpt lat="45.63301" lon="6.54933">
        <ele>2338</ele>
        <time>2025-02-20T10:09:19Z</time>
      </trkpt>
      <trkpt lat="45.63301" lon="6.54933">
        <ele>2338</ele>
        <time>2025-02-20T10:09:20Z</time>
      </trkpt>
      <trkpt lat="45.63301" lon="6.54933">
        <ele>2338</ele>
        <time>2025-02-20T10:09:21Z</time>
      </trkpt>
      <trkpt lat="45.63301" lon="6.54933">
        <ele>2338</ele>
        <time>2025-02-20T10:09:22Z</time>
      </trkpt>
      <trkpt lat="45.63301" lon="6.54933">
        <ele>2338</ele>
        <time>2025-02-20T10:09:23Z</time>
      </trkpt>
      <trkpt lat="45.63301" lon="6.54933">
        <ele>2338</ele>
        <time>2025-02-20T10:09:24Z</time>
      </trkpt>
      <trkpt lat="45.63301" lon="6.54933">
        <ele>2338.6</ele>
        <time>2025-02-20T10:09:25Z</time>
      </trkpt>
      <trkpt lat="45.63301" lon="6.54933">
        <ele>2338.6</ele>
        <time>2025-02-20T10:09:26Z</time>
      </trkpt>
      <trkpt lat="45.63301" lon="6.54933">
        <ele>2338.6</ele>
        <time>2025-02-20T10:09:27Z</time>
      </trkpt>
      <trkpt lat="45.63301" lon="6.54933">
        <ele>2338.6</ele>
        <time>2025-02-20T10:09:28Z</time>
      </trkpt>
      <trkpt lat="45.63301" lon="6.54933">
        <ele>2339.4</ele>
        <time>2025-02-20T10:09:29Z</time>
      </trkpt>
      <trkpt lat="45.63301" lon="6.54933">
        <ele>2339.4</ele>
        <time>2025-02-20T10:09:30Z</time>
      </trkpt>
      <trkpt lat="45.63301" lon="6.54933">
        <ele>2339.4</ele>
        <time>2025-02-20T10:09:31Z</time>
      </trkpt>
      <trkpt lat="45.63301" lon="6.54933">
        <ele>2339.2</ele>
        <time>2025-02-20T10:09:32Z</time>
      </trkpt>
      <trkpt lat="45.63301" lon="6.54933">
        <ele>2339</ele>
        <time>2025-02-20T10:09:33Z</time>
      </trkpt>
      <trkpt lat="45.63301" lon="6.54933">
        <ele>2339</ele>
        <time>2025-02-20T10:09:34Z</time>
      </trkpt>
      <trkpt lat="45.63301" lon="6.54933">
        <ele>2339</ele>
        <time>2025-02-20T10:09:35Z</time>
      </trkpt>
      <trkpt lat="45.63301" lon="6.54933">
        <ele>2338.6</ele>
        <time>2025-02-20T10:09:36Z</time>
      </trkpt>
      <trkpt lat="45.63301" lon="6.54933">
        <ele>2339</ele>
        <time>2025-02-20T10:09:37Z</time>
      </trkpt>
      <trkpt lat="45.63301" lon="6.54933">
        <ele>2339</ele>
        <time>2025-02-20T10:09:38Z</time>
      </trkpt>
      <trkpt lat="45.63301" lon="6.54933">
        <ele>2339</ele>
        <time>2025-02-20T10:09:39Z</time>
      </trkpt>
      <trkpt lat="45.63301" lon="6.54933">
        <ele>2339</ele>
        <time>2025-02-20T10:09:40Z</time>
      </trkpt>
      <trkpt lat="45.63301" lon="6.54933">
        <ele>2339</ele>
        <time>2025-02-20T10:09:41Z</time>
      </trkpt>
      <trkpt lat="45.63301" lon="6.54933">
        <ele>2339</ele>
        <time>2025-02-20T10:09:42Z</time>
      </trkpt>
      <trkpt lat="45.63301" lon="6.54933">
        <ele>2339</ele>
        <time>2025-02-20T10:09:43Z</time>
      </trkpt>
      <trkpt lat="45.63301" lon="6.54933">
        <ele>2339</ele>
        <time>2025-02-20T10:09:44Z</time>
      </trkpt>
      <trkpt lat="45.63301" lon="6.54933">
        <ele>2339.4</ele>
        <time>2025-02-20T10:09:45Z</time>
      </trkpt>
      <trkpt lat="45.63301" lon="6.54933">
        <ele>2339.4</ele>
        <time>2025-02-20T10:09:46Z</time>
      </trkpt>
      <trkpt lat="45.63301" lon="6.54933">
        <ele>2339.4</ele>
        <time>2025-02-20T10:09:47Z</time>
      </trkpt>
      <trkpt lat="45.63301" lon="6.54933">
        <ele>2339.4</ele>
        <time>2025-02-20T10:09:48Z</time>
      </trkpt>
      <trkpt lat="45.63301" lon="6.54933">
        <ele>2338.4</ele>
        <time>2025-02-20T10:09:49Z</time>
      </trkpt>
      <trkpt lat="45.63301" lon="6.54933">
        <ele>2338.4</ele>
        <time>2025-02-20T10:09:50Z</time>
      </trkpt>
      <trkpt lat="45.63301" lon="6.54933">
        <ele>2338.4</ele>
        <time>2025-02-20T10:09:51Z</time>
      </trkpt>
      <trkpt lat="45.63301" lon="6.54933">
        <ele>2339.2</ele>
        <time>2025-02-20T10:09:52Z</time>
      </trkpt>
      <trkpt lat="45.63301" lon="6.54933">
        <ele>2339</ele>
        <time>2025-02-20T10:09:53Z</time>
      </trkpt>
      <trkpt lat="45.63301" lon="6.54933">
        <ele>2339</ele>
        <time>2025-02-20T10:09:54Z</time>
      </trkpt>
      <trkpt lat="45.63301" lon="6.54933">
        <ele>2339</ele>
        <time>2025-02-20T10:09:55Z</time>
      </trkpt>
      <trkpt lat="45.63301" lon="6.54933">
        <ele>2339</ele>
        <time>2025-02-20T10:09:56Z</time>
      </trkpt>
      <trkpt lat="45.63301" lon="6.54933">
        <ele>2339.2</ele>
        <time>2025-02-20T10:09:57Z</time>
      </trkpt>
      <trkpt lat="45.63301" lon="6.54933">
        <ele>2339.2</ele>
        <time>2025-02-20T10:09:58Z</time>
      </trkpt>
      <trkpt lat="45.63301" lon="6.54933">
        <ele>2339.2</ele>
        <time>2025-02-20T10:09:59Z</time>
      </trkpt>
      <trkpt lat="45.63301" lon="6.54933">
        <ele>2339.2</ele>
        <time>2025-02-20T10:10:00Z</time>
      </trkpt>
      <trkpt lat="45.63301" lon="6.54933">
        <ele>2338.6</ele>
        <time>2025-02-20T10:10:01Z</time>
      </trkpt>
      <trkpt lat="45.63301" lon="6.54933">
        <ele>2338.6</ele>
        <time>2025-02-20T10:10:02Z</time>
      </trkpt>
      <trkpt lat="45.63301" lon="6.54933">
        <ele>2338.6</ele>
        <time>2025-02-20T10:10:03Z</time>
      </trkpt>
      <trkpt lat="45.63301" lon="6.54933">
        <ele>2338.6</ele>
        <time>2025-02-20T10:10:04Z</time>
      </trkpt>
      <trkpt lat="45.63301" lon="6.54933">
        <ele>2339</ele>
        <time>2025-02-20T10:10:05Z</time>
      </trkpt>
      <trkpt lat="45.63301" lon="6.54933">
        <ele>2339</ele>
        <time>2025-02-20T10:10:06Z</time>
      </trkpt>
      <trkpt lat="45.63301" lon="6.54933">
        <ele>2339</ele>
        <time>2025-02-20T10:10:07Z</time>
      </trkpt>
      <trkpt lat="45.63301" lon="6.54933">
        <ele>2339</ele>
        <time>2025-02-20T10:10:08Z</time>
      </trkpt>
      <trkpt lat="45.63301" lon="6.54933">
        <ele>2338.6</ele>
        <time>2025-02-20T10:10:09Z</time>
      </trkpt>
      <trkpt lat="45.63301" lon="6.54933">
        <ele>2338.6</ele>
        <time>2025-02-20T10:10:10Z</time>
      </trkpt>
      <trkpt lat="45.63301" lon="6.54933">
        <ele>2338.6</ele>
        <time>2025-02-20T10:10:11Z</time>
      </trkpt>
      <trkpt lat="45.63301" lon="6.54933">
        <ele>2338.6</ele>
        <time>2025-02-20T10:10:12Z</time>
      </trkpt>
      <trkpt lat="45.63301" lon="6.54933">
        <ele>2338.8</ele>
        <time>2025-02-20T10:10:13Z</time>
      </trkpt>
      <trkpt lat="45.63301" lon="6.54933">
        <ele>2338.8</ele>
        <time>2025-02-20T10:10:14Z</time>
      </trkpt>
      <trkpt lat="45.63301" lon="6.54933">
        <ele>2338.8</ele>
        <time>2025-02-20T10:10:15Z</time>
      </trkpt>
      <trkpt lat="45.63301" lon="6.54933">
        <ele>2339</ele>
        <time>2025-02-20T10:10:16Z</time>
      </trkpt>
      <trkpt lat="45.63301" lon="6.54933">
        <ele>2338.8</ele>
        <time>2025-02-20T10:10:17Z</time>
      </trkpt>
      <trkpt lat="45.63301" lon="6.54933">
        <ele>2338.8</ele>
        <time>2025-02-20T10:10:18Z</time>
      </trkpt>
      <trkpt lat="45.63301" lon="6.54933">
        <ele>2338.8</ele>
        <time>2025-02-20T10:10:19Z</time>
      </trkpt>
      <trkpt lat="45.63301" lon="6.54933">
        <ele>2338.8</ele>
        <time>2025-02-20T10:10:20Z</time>
      </trkpt>
      <trkpt lat="45.63301" lon="6.54933">
        <ele>2338.8</ele>
        <time>2025-02-20T10:10:21Z</time>
      </trkpt>
      <trkpt lat="45.63301" lon="6.54933">
        <ele>2338.8</ele>
        <time>2025-02-20T10:10:22Z</time>
      </trkpt>
      <trkpt lat="45.63301" lon="6.54933">
        <ele>2338.8</ele>
        <time>2025-02-20T10:10:23Z</time>
      </trkpt>
      <trkpt lat="45.63301" lon="6.54933">
        <ele>2338.8</ele>
        <time>2025-02-20T10:10:24Z</time>
      </trkpt>
      <trkpt lat="45.63301" lon="6.54933">
        <ele>2339</ele>
        <time>2025-02-20T10:10:25Z</time>
      </trkpt>
      <trkpt lat="45.63301" lon="6.54933">
        <ele>2339</ele>
        <time>2025-02-20T10:10:26Z</time>
      </trkpt>
      <trkpt lat="45.63301" lon="6.54933">
        <ele>2339</ele>
        <time>2025-02-20T10:10:27Z</time>
      </trkpt>
      <trkpt lat="45.63301" lon="6.54933">
        <ele>2338.6</ele>
        <time>2025-02-20T10:10:28Z</time>
      </trkpt>
      <trkpt lat="45.63301" lon="6.54933">
        <ele>2338.6</ele>
        <time>2025-02-20T10:10:29Z</time>
      </trkpt>
      <trkpt lat="45.63301" lon="6.54933">
        <ele>2338.6</ele>
        <time>2025-02-20T10:10:30Z</time>
      </trkpt>
      <trkpt lat="45.63301" lon="6.54933">
        <ele>2338.6</ele>
        <time>2025-02-20T10:10:31Z</time>
      </trkpt>
      <trkpt lat="45.63301" lon="6.54933">
        <ele>2338.6</ele>
        <time>2025-02-20T10:10:32Z</time>
      </trkpt>
      <trkpt lat="45.63301" lon="6.54933">
        <ele>2338.6</ele>
        <time>2025-02-20T10:10:33Z</time>
      </trkpt>
      <trkpt lat="45.63301" lon="6.54933">
        <ele>2338.6</ele>
        <time>2025-02-20T10:10:34Z</time>
      </trkpt>
      <trkpt lat="45.63301" lon="6.54933">
        <ele>2338.6</ele>
        <time>2025-02-20T10:10:35Z</time>
      </trkpt>
      <trkpt lat="45.63301" lon="6.54933">
        <ele>2338.6</ele>
        <time>2025-02-20T10:10:36Z</time>
      </trkpt>
      <trkpt lat="45.63301" lon="6.54933">
        <ele>2339</ele>
        <time>2025-02-20T10:10:37Z</time>
      </trkpt>
      <trkpt lat="45.63301" lon="6.54933">
        <ele>2339</ele>
        <time>2025-02-20T10:10:38Z</time>
      </trkpt>
      <trkpt lat="45.63301" lon="6.54933">
        <ele>2339</ele>
        <time>2025-02-20T10:10:39Z</time>
      </trkpt>
      <trkpt lat="45.63301" lon="6.54933">
        <ele>2338.4</ele>
        <time>2025-02-20T10:10:40Z</time>
      </trkpt>
      <trkpt lat="45.63301" lon="6.54933">
        <ele>2338.8</ele>
        <time>2025-02-20T10:10:41Z</time>
      </trkpt>
      <trkpt lat="45.63301" lon="6.54933">
        <ele>2338.8</ele>
        <time>2025-02-20T10:10:42Z</time>
      </trkpt>
      <trkpt lat="45.63301" lon="6.54933">
        <ele>2338.8</ele>
        <time>2025-02-20T10:10:43Z</time>
      </trkpt>
      <trkpt lat="45.63301" lon="6.54933">
        <ele>2338.8</ele>
        <time>2025-02-20T10:10:44Z</time>
      </trkpt>
      <trkpt lat="45.63301" lon="6.54933">
        <ele>2339</ele>
        <time>2025-02-20T10:10:45Z</time>
      </trkpt>
      <trkpt lat="45.63301" lon="6.54933">
        <ele>2339</ele>
        <time>2025-02-20T10:10:46Z</time>
      </trkpt>
      <trkpt lat="45.63301" lon="6.54933">
        <ele>2339</ele>
        <time>2025-02-20T10:10:47Z</time>
      </trkpt>
      <trkpt lat="45.63301" lon="6.54933">
        <ele>2339</ele>
        <time>2025-02-20T10:10:48Z</time>
      </trkpt>
      <trkpt lat="45.63301" lon="6.54933">
        <ele>2338.2</ele>
        <time>2025-02-20T10:10:49Z</time>
      </trkpt>
      <trkpt lat="45.63301" lon="6.54933">
        <ele>2338.2</ele>
        <time>2025-02-20T10:10:50Z</time>
      </trkpt>
      <trkpt lat="45.63301" lon="6.54933">
        <ele>2338.2</ele>
        <time>2025-02-20T10:10:51Z</time>
      </trkpt>
      <trkpt lat="45.63301" lon="6.54933">
        <ele>2338.8</ele>
        <time>2025-02-20T10:10:52Z</time>
      </trkpt>
      <trkpt lat="45.63301" lon="6.54933">
        <ele>2339</ele>
        <time>2025-02-20T10:10:53Z</time>
      </trkpt>
      <trkpt lat="45.63301" lon="6.54933">
        <ele>2339</ele>
        <time>2025-02-20T10:10:54Z</time>
      </trkpt>
      <trkpt lat="45.63301" lon="6.54933">
        <ele>2339</ele>
        <time>2025-02-20T10:10:55Z</time>
      </trkpt>
      <trkpt lat="45.63301" lon="6.54933">
        <ele>2339</ele>
        <time>2025-02-20T10:10:56Z</time>
      </trkpt>
      <trkpt lat="45.63301" lon="6.54933">
        <ele>2338.8</ele>
        <time>2025-02-20T10:10:57Z</time>
      </trkpt>
      <trkpt lat="45.63301" lon="6.54933">
        <ele>2338.8</ele>
        <time>2025-02-20T10:10:58Z</time>
      </trkpt>
      <trkpt lat="45.63301" lon="6.54933">
        <ele>2338.8</ele>
        <time>2025-02-20T10:10:59Z</time>
      </trkpt>
      <trkpt lat="45.63301" lon="6.54933">
        <ele>2338.8</ele>
        <time>2025-02-20T10:11:00Z</time>
      </trkpt>
      <trkpt lat="45.63301" lon="6.54933">
        <ele>2338.8</ele>
        <time>2025-02-20T10:11:01Z</time>
      </trkpt>
      <trkpt lat="45.63301" lon="6.54933">
        <ele>2338.8</ele>
        <time>2025-02-20T10:11:02Z</time>
      </trkpt>
      <trkpt lat="45.63301" lon="6.54933">
        <ele>2338.8</ele>
        <time>2025-02-20T10:11:03Z</time>
      </trkpt>
      <trkpt lat="45.63301" lon="6.54933">
        <ele>2339</ele>
        <time>2025-02-20T10:11:04Z</time>
      </trkpt>
      <trkpt lat="45.63301" lon="6.54933">
        <ele>2338.8</ele>
        <time>2025-02-20T10:11:05Z</time>
      </trkpt>
      <trkpt lat="45.63301" lon="6.54933">
        <ele>2338.8</ele>
        <time>2025-02-20T10:11:06Z</time>
      </trkpt>
      <trkpt lat="45.63301" lon="6.54933">
        <ele>2338.8</ele>
        <time>2025-02-20T10:11:07Z</time>
      </trkpt>
      <trkpt lat="45.63301" lon="6.54933">
        <ele>2339</ele>
        <time>2025-02-20T10:11:08Z</time>
      </trkpt>
      <trkpt lat="45.63301" lon="6.54933">
        <ele>2339.2</ele>
        <time>2025-02-20T10:11:09Z</time>
      </trkpt>
      <trkpt lat="45.63301" lon="6.54933">
        <ele>2339.2</ele>
        <time>2025-02-20T10:11:10Z</time>
      </trkpt>
      <trkpt lat="45.63301" lon="6.54933">
        <ele>2339.2</ele>
        <time>2025-02-20T10:11:11Z</time>
      </trkpt>
      <trkpt lat="45.63301" lon="6.54933">
        <ele>2339.2</ele>
        <time>2025-02-20T10:11:12Z</time>
      </trkpt>
      <trkpt lat="45.63301" lon="6.54933">
        <ele>2339</ele>
        <time>2025-02-20T10:11:13Z</time>
      </trkpt>
      <trkpt lat="45.63301" lon="6.54933">
        <ele>2339</ele>
        <time>2025-02-20T10:11:14Z</time>
      </trkpt>
      <trkpt lat="45.63301" lon="6.54933">
        <ele>2339</ele>
        <time>2025-02-20T10:11:15Z</time>
      </trkpt>
      <trkpt lat="45.63301" lon="6.54933">
        <ele>2339</ele>
        <time>2025-02-20T10:11:16Z</time>
      </trkpt>
      <trkpt lat="45.63301" lon="6.54933">
        <ele>2338.8</ele>
        <time>2025-02-20T10:11:17Z</time>
      </trkpt>
      <trkpt lat="45.63301" lon="6.54933">
        <ele>2338.8</ele>
        <time>2025-02-20T10:11:18Z</time>
      </trkpt>
      <trkpt lat="45.63301" lon="6.54933">
        <ele>2338.8</ele>
        <time>2025-02-20T10:11:19Z</time>
      </trkpt>
      <trkpt lat="45.63301" lon="6.54933">
        <ele>2338.8</ele>
        <time>2025-02-20T10:11:20Z</time>
      </trkpt>
      <trkpt lat="45.63301" lon="6.54933">
        <ele>2339</ele>
        <time>2025-02-20T10:11:21Z</time>
      </trkpt>
      <trkpt lat="45.63301" lon="6.54933">
        <ele>2339</ele>
        <time>2025-02-20T10:11:22Z</time>
      </trkpt>
      <trkpt lat="45.63301" lon="6.54933">
        <ele>2339</ele>
        <time>2025-02-20T10:11:23Z</time>
      </trkpt>
      <trkpt lat="45.63301" lon="6.54933">
        <ele>2338</ele>
        <time>2025-02-20T10:11:24Z</time>
      </trkpt>
      <trkpt lat="45.63301" lon="6.54933">
        <ele>2338.6</ele>
        <time>2025-02-20T10:11:25Z</time>
      </trkpt>
      <trkpt lat="45.63301" lon="6.54933">
        <ele>2338.6</ele>
        <time>2025-02-20T10:11:26Z</time>
      </trkpt>
      <trkpt lat="45.63301" lon="6.54933">
        <ele>2338.6</ele>
        <time>2025-02-20T10:11:27Z</time>
      </trkpt>
      <trkpt lat="45.63301" lon="6.54933">
        <ele>2339</ele>
        <time>2025-02-20T10:11:28Z</time>
      </trkpt>
      <trkpt lat="45.63301" lon="6.54933">
        <ele>2338.8</ele>
        <time>2025-02-20T10:11:29Z</time>
      </trkpt>
      <trkpt lat="45.63301" lon="6.54933">
        <ele>2338.8</ele>
        <time>2025-02-20T10:11:30Z</time>
      </trkpt>
      <trkpt lat="45.63301" lon="6.54933">
        <ele>2338.8</ele>
        <time>2025-02-20T10:11:31Z</time>
      </trkpt>
      <trkpt lat="45.63301" lon="6.54933">
        <ele>2338.8</ele>
        <time>2025-02-20T10:11:32Z</time>
      </trkpt>
      <trkpt lat="45.63301" lon="6.54933">
        <ele>2339</ele>
        <time>2025-02-20T10:11:33Z</time>
      </trkpt>
      <trkpt lat="45.63301" lon="6.54933">
        <ele>2339</ele>
        <time>2025-02-20T10:11:34Z</time>
      </trkpt>
      <trkpt lat="45.63301" lon="6.54933">
        <ele>2339</ele>
        <time>2025-02-20T10:11:35Z</time>
      </trkpt>
      <trkpt lat="45.63301" lon="6.54933">
        <ele>2339</ele>
        <time>2025-02-20T10:11:36Z</time>
      </trkpt>
      <trkpt lat="45.63301" lon="6.54933">
        <ele>2339</ele>
        <time>2025-02-20T10:11:37Z</time>
      </trkpt>
      <trkpt lat="45.63301" lon="6.54933">
        <ele>2339</ele>
        <time>2025-02-20T10:11:38Z</time>
      </trkpt>
      <trkpt lat="45.63301" lon="6.54933">
        <ele>2339</ele>
        <time>2025-02-20T10:11:39Z</time>
      </trkpt>
      <trkpt lat="45.63301" lon="6.54933">
        <ele>2339</ele>
        <time>2025-02-20T10:11:40Z</time>
      </trkpt>
      <trkpt lat="45.63301" lon="6.54933">
        <ele>2338.8</ele>
        <time>2025-02-20T10:11:41Z</time>
      </trkpt>
      <trkpt lat="45.63301" lon="6.54933">
        <ele>2338.8</ele>
        <time>2025-02-20T10:11:42Z</time>
      </trkpt>
      <trkpt lat="45.63301" lon="6.54933">
        <ele>2338.8</ele>
        <time>2025-02-20T10:11:43Z</time>
      </trkpt>
      <trkpt lat="45.63301" lon="6.54933">
        <ele>2338.8</ele>
        <time>2025-02-20T10:11:44Z</time>
      </trkpt>
      <trkpt lat="45.63301" lon="6.54933">
        <ele>2338.6</ele>
        <time>2025-02-20T10:11:45Z</time>
      </trkpt>
      <trkpt lat="45.63301" lon="6.54933">
        <ele>2338.6</ele>
        <time>2025-02-20T10:11:46Z</time>
      </trkpt>
      <trkpt lat="45.63301" lon="6.54933">
        <ele>2338.6</ele>
        <time>2025-02-20T10:11:47Z</time>
      </trkpt>
      <trkpt lat="45.63301" lon="6.54933">
        <ele>2338.6</ele>
        <time>2025-02-20T10:11:48Z</time>
      </trkpt>
      <trkpt lat="45.63301" lon="6.54933">
        <ele>2338.6</ele>
        <time>2025-02-20T10:11:49Z</time>
      </trkpt>
      <trkpt lat="45.63301" lon="6.54933">
        <ele>2338.6</ele>
        <time>2025-02-20T10:11:50Z</time>
      </trkpt>
      <trkpt lat="45.63301" lon="6.54933">
        <ele>2338.6</ele>
        <time>2025-02-20T10:11:51Z</time>
      </trkpt>
      <trkpt lat="45.63301" lon="6.54933">
        <ele>2338.8</ele>
        <time>2025-02-20T10:11:52Z</time>
      </trkpt>
      <trkpt lat="45.63301" lon="6.54933">
        <ele>2338.6</ele>
        <time>2025-02-20T10:11:53Z</time>
      </trkpt>
      <trkpt lat="45.63301" lon="6.54933">
        <ele>2338.6</ele>
        <time>2025-02-20T10:11:54Z</time>
      </trkpt>
      <trkpt lat="45.63301" lon="6.54933">
        <ele>2338.6</ele>
        <time>2025-02-20T10:11:55Z</time>
      </trkpt>
      <trkpt lat="45.63301" lon="6.54933">
        <ele>2338.8</ele>
        <time>2025-02-20T10:11:56Z</time>
      </trkpt>
      <trkpt lat="45.63301" lon="6.54933">
        <ele>2338.8</ele>
        <time>2025-02-20T10:11:57Z</time>
      </trkpt>
      <trkpt lat="45.63301" lon="6.54933">
        <ele>2338.8</ele>
        <time>2025-02-20T10:11:58Z</time>
      </trkpt>
      <trkpt lat="45.63301" lon="6.54933">
        <ele>2338.8</ele>
        <time>2025-02-20T10:11:59Z</time>
      </trkpt>
      <trkpt lat="45.63301" lon="6.54933">
        <ele>2338.8</ele>
        <time>2025-02-20T10:12:00Z</time>
      </trkpt>
      <trkpt lat="45.63301" lon="6.54933">
        <ele>2338.8</ele>
        <time>2025-02-20T10:12:01Z</time>
      </trkpt>
      <trkpt lat="45.63301" lon="6.54933">
        <ele>2338.8</ele>
        <time>2025-02-20T10:12:02Z</time>
      </trkpt>
      <trkpt lat="45.63301" lon="6.54933">
        <ele>2338.8</ele>
        <time>2025-02-20T10:12:03Z</time>
      </trkpt>
      <trkpt lat="45.63301" lon="6.54933">
        <ele>2338.8</ele>
        <time>2025-02-20T10:12:04Z</time>
      </trkpt>
      <trkpt lat="45.63301" lon="6.54933">
        <ele>2339</ele>
        <time>2025-02-20T10:12:05Z</time>
      </trkpt>
      <trkpt lat="45.63301" lon="6.54933">
        <ele>2339</ele>
        <time>2025-02-20T10:12:06Z</time>
      </trkpt>
      <trkpt lat="45.63301" lon="6.54933">
        <ele>2339</ele>
        <time>2025-02-20T10:12:07Z</time>
      </trkpt>
      <trkpt lat="45.63301" lon="6.54933">
        <ele>2339</ele>
        <time>2025-02-20T10:12:08Z</time>
      </trkpt>
      <trkpt lat="45.63301" lon="6.54933">
        <ele>2338.6</ele>
        <time>2025-02-20T10:12:09Z</time>
      </trkpt>
      <trkpt lat="45.63301" lon="6.54933">
        <ele>2338.6</ele>
        <time>2025-02-20T10:12:10Z</time>
      </trkpt>
      <trkpt lat="45.63301" lon="6.54933">
        <ele>2338.6</ele>
        <time>2025-02-20T10:12:11Z</time>
      </trkpt>
      <trkpt lat="45.63301" lon="6.54933">
        <ele>2338.6</ele>
        <time>2025-02-20T10:12:12Z</time>
      </trkpt>
      <trkpt lat="45.63301" lon="6.54933">
        <ele>2338.8</ele>
        <time>2025-02-20T10:12:13Z</time>
      </trkpt>
      <trkpt lat="45.63301" lon="6.54933">
        <ele>2338.8</ele>
        <time>2025-02-20T10:12:14Z</time>
      </trkpt>
      <trkpt lat="45.63301" lon="6.54933">
        <ele>2338.8</ele>
        <time>2025-02-20T10:12:15Z</time>
      </trkpt>
      <trkpt lat="45.63301" lon="6.54933">
        <ele>2338.8</ele>
        <time>2025-02-20T10:12:16Z</time>
      </trkpt>
      <trkpt lat="45.63301" lon="6.54933">
        <ele>2339</ele>
        <time>2025-02-20T10:12:17Z</time>
      </trkpt>
      <trkpt lat="45.63301" lon="6.54933">
        <ele>2339</ele>
        <time>2025-02-20T10:12:18Z</time>
      </trkpt>
      <trkpt lat="45.63301" lon="6.54933">
        <ele>2339</ele>
        <time>2025-02-20T10:12:19Z</time>
      </trkpt>
      <trkpt lat="45.63301" lon="6.54933">
        <ele>2339</ele>
        <time>2025-02-20T10:12:20Z</time>
      </trkpt>
      <trkpt lat="45.63301" lon="6.54933">
        <ele>2338.2</ele>
        <time>2025-02-20T10:12:21Z</time>
      </trkpt>
      <trkpt lat="45.63301" lon="6.54933">
        <ele>2338.2</ele>
        <time>2025-02-20T10:12:22Z</time>
      </trkpt>
      <trkpt lat="45.63301" lon="6.54933">
        <ele>2338.2</ele>
        <time>2025-02-20T10:12:23Z</time>
      </trkpt>
      <trkpt lat="45.63301" lon="6.54933">
        <ele>2338.8</ele>
        <time>2025-02-20T10:12:24Z</time>
      </trkpt>
      <trkpt lat="45.63301" lon="6.54933">
        <ele>2338.6</ele>
        <time>2025-02-20T10:12:25Z</time>
      </trkpt>
      <trkpt lat="45.63301" lon="6.54933">
        <ele>2338.6</ele>
        <time>2025-02-20T10:12:26Z</time>
      </trkpt>
      <trkpt lat="45.63301" lon="6.54933">
        <ele>2338.6</ele>
        <time>2025-02-20T10:12:27Z</time>
      </trkpt>
      <trkpt lat="45.63301" lon="6.54933">
        <ele>2338.6</ele>
        <time>2025-02-20T10:12:28Z</time>
      </trkpt>
      <trkpt lat="45.63301" lon="6.54933">
        <ele>2338.4</ele>
        <time>2025-02-20T10:12:29Z</time>
      </trkpt>
      <trkpt lat="45.63301" lon="6.54933">
        <ele>2338.4</ele>
        <time>2025-02-20T10:12:30Z</time>
      </trkpt>
      <trkpt lat="45.63301" lon="6.54933">
        <ele>2338.4</ele>
        <time>2025-02-20T10:12:31Z</time>
      </trkpt>
      <trkpt lat="45.63301" lon="6.54933">
        <ele>2338.4</ele>
        <time>2025-02-20T10:12:32Z</time>
      </trkpt>
      <trkpt lat="45.63297" lon="6.5494">
        <ele>2339.2</ele>
        <time>2025-02-20T10:12:33Z</time>
      </trkpt>
      <trkpt lat="45.63296" lon="6.5494">
        <ele>2339.2</ele>
        <time>2025-02-20T10:12:34Z</time>
      </trkpt>
      <trkpt lat="45.63296" lon="6.5494">
        <ele>2339.2</ele>
        <time>2025-02-20T10:12:35Z</time>
      </trkpt>
      <trkpt lat="45.63296" lon="6.5494">
        <ele>2338.6</ele>
        <time>2025-02-20T10:12:36Z</time>
      </trkpt>
      <trkpt lat="45.63296" lon="6.5494">
        <ele>2339</ele>
        <time>2025-02-20T10:12:37Z</time>
      </trkpt>
      <trkpt lat="45.63296" lon="6.5494">
        <ele>2339</ele>
        <time>2025-02-20T10:12:38Z</time>
      </trkpt>
      <trkpt lat="45.63296" lon="6.5494">
        <ele>2339</ele>
        <time>2025-02-20T10:12:39Z</time>
      </trkpt>
      <trkpt lat="45.63296" lon="6.5494">
        <ele>2339</ele>
        <time>2025-02-20T10:12:40Z</time>
      </trkpt>
      <trkpt lat="45.63296" lon="6.5494">
        <ele>2339</ele>
        <time>2025-02-20T10:12:41Z</time>
      </trkpt>
      <trkpt lat="45.63296" lon="6.5494">
        <ele>2339</ele>
        <time>2025-02-20T10:12:42Z</time>
      </trkpt>
      <trkpt lat="45.63294" lon="6.54941">
        <ele>2339</ele>
        <time>2025-02-20T10:12:43Z</time>
      </trkpt>
      <trkpt lat="45.63293" lon="6.54941">
        <ele>2338</ele>
        <time>2025-02-20T10:12:44Z</time>
      </trkpt>
      <trkpt lat="45.63292" lon="6.54941">
        <ele>2339.6</ele>
        <time>2025-02-20T10:12:45Z</time>
      </trkpt>
      <trkpt lat="45.63292" lon="6.54942">
        <ele>2339.6</ele>
        <time>2025-02-20T10:12:46Z</time>
      </trkpt>
      <trkpt lat="45.63291" lon="6.54942">
        <ele>2339.6</ele>
        <time>2025-02-20T10:12:47Z</time>
      </trkpt>
      <trkpt lat="45.63291" lon="6.54942">
        <ele>2339.4</ele>
        <time>2025-02-20T10:12:48Z</time>
      </trkpt>
      <trkpt lat="45.63291" lon="6.54942">
        <ele>2339.4</ele>
        <time>2025-02-20T10:12:49Z</time>
      </trkpt>
      <trkpt lat="45.63291" lon="6.54942">
        <ele>2339.4</ele>
        <time>2025-02-20T10:12:50Z</time>
      </trkpt>
      <trkpt lat="45.63291" lon="6.54942">
        <ele>2339.4</ele>
        <time>2025-02-20T10:12:51Z</time>
      </trkpt>
      <trkpt lat="45.63291" lon="6.54942">
        <ele>2339</ele>
        <time>2025-02-20T10:12:52Z</time>
      </trkpt>
      <trkpt lat="45.63291" lon="6.54942">
        <ele>2339</ele>
        <time>2025-02-20T10:12:53Z</time>
      </trkpt>
      <trkpt lat="45.63291" lon="6.54942">
        <ele>2339</ele>
        <time>2025-02-20T10:12:54Z</time>
      </trkpt>
      <trkpt lat="45.63291" lon="6.54942">
        <ele>2339</ele>
        <time>2025-02-20T10:12:55Z</time>
      </trkpt>
      <trkpt lat="45.63291" lon="6.54942">
        <ele>2338.6</ele>
        <time>2025-02-20T10:12:56Z</time>
      </trkpt>
      <trkpt lat="45.63291" lon="6.54942">
        <ele>2338.4</ele>
        <time>2025-02-20T10:12:57Z</time>
      </trkpt>
      <trkpt lat="45.63291" lon="6.54942">
        <ele>2338.4</ele>
        <time>2025-02-20T10:12:58Z</time>
      </trkpt>
      <trkpt lat="45.63291" lon="6.54942">
        <ele>2338.4</ele>
        <time>2025-02-20T10:12:59Z</time>
      </trkpt>
      <trkpt lat="45.63291" lon="6.54942">
        <ele>2338.6</ele>
        <time>2025-02-20T10:13:00Z</time>
      </trkpt>
      <trkpt lat="45.63291" lon="6.54942">
        <ele>2338.8</ele>
        <time>2025-02-20T10:13:01Z</time>
      </trkpt>
      <trkpt lat="45.63291" lon="6.54942">
        <ele>2338.8</ele>
        <time>2025-02-20T10:13:02Z</time>
      </trkpt>
      <trkpt lat="45.63291" lon="6.54942">
        <ele>2338.8</ele>
        <time>2025-02-20T10:13:03Z</time>
      </trkpt>
      <trkpt lat="45.63291" lon="6.54942">
        <ele>2338.8</ele>
        <time>2025-02-20T10:13:04Z</time>
      </trkpt>
      <trkpt lat="45.63291" lon="6.54942">
        <ele>2339</ele>
        <time>2025-02-20T10:13:05Z</time>
      </trkpt>
      <trkpt lat="45.63291" lon="6.54942">
        <ele>2339</ele>
        <time>2025-02-20T10:13:06Z</time>
      </trkpt>
      <trkpt lat="45.63291" lon="6.54942">
        <ele>2339</ele>
        <time>2025-02-20T10:13:07Z</time>
      </trkpt>
      <trkpt lat="45.63291" lon="6.54942">
        <ele>2339</ele>
        <time>2025-02-20T10:13:08Z</time>
      </trkpt>
      <trkpt lat="45.63291" lon="6.54942">
        <ele>2338.4</ele>
        <time>2025-02-20T10:13:09Z</time>
      </trkpt>
      <trkpt lat="45.63291" lon="6.54942">
        <ele>2338.4</ele>
        <time>2025-02-20T10:13:10Z</time>
      </trkpt>
      <trkpt lat="45.63291" lon="6.54942">
        <ele>2338.4</ele>
        <time>2025-02-20T10:13:11Z</time>
      </trkpt>
      <trkpt lat="45.63291" lon="6.54942">
        <ele>2338.6</ele>
        <time>2025-02-20T10:13:12Z</time>
      </trkpt>
      <trkpt lat="45.63291" lon="6.54942">
        <ele>2338.4</ele>
        <time>2025-02-20T10:13:13Z</time>
      </trkpt>
      <trkpt lat="45.63291" lon="6.54942">
        <ele>2338.4</ele>
        <time>2025-02-20T10:13:14Z</time>
      </trkpt>
      <trkpt lat="45.63289" lon="6.54942">
        <ele>2338.4</ele>
        <time>2025-02-20T10:13:15Z</time>
      </trkpt>
      <trkpt lat="45.63288" lon="6.54943">
        <ele>2338.4</ele>
        <time>2025-02-20T10:13:16Z</time>
      </trkpt>
      <trkpt lat="45.63287" lon="6.54943">
        <ele>2339.6</ele>
        <time>2025-02-20T10:13:17Z</time>
      </trkpt>
      <trkpt lat="45.63286" lon="6.54944">
        <ele>2339.6</ele>
        <time>2025-02-20T10:13:18Z</time>
      </trkpt>
      <trkpt lat="45.63285" lon="6.54944">
        <ele>2339.6</ele>
        <time>2025-02-20T10:13:19Z</time>
      </trkpt>
      <trkpt lat="45.63284" lon="6.54945">
        <ele>2338.6</ele>
        <time>2025-02-20T10:13:20Z</time>
      </trkpt>
      <trkpt lat="45.63282" lon="6.54946">
        <ele>2337.8</ele>
        <time>2025-02-20T10:13:21Z</time>
      </trkpt>
      <trkpt lat="45.6328" lon="6.54947">
        <ele>2337.8</ele>
        <time>2025-02-20T10:13:22Z</time>
      </trkpt>
      <trkpt lat="45.63278" lon="6.54949">
        <ele>2337.8</ele>
        <time>2025-02-20T10:13:23Z</time>
      </trkpt>
      <trkpt lat="45.63274" lon="6.54951">
        <ele>2337.8</ele>
        <time>2025-02-20T10:13:24Z</time>
      </trkpt>
      <trkpt lat="45.63271" lon="6.54954">
        <ele>2336.8</ele>
        <time>2025-02-20T10:13:25Z</time>
      </trkpt>
      <trkpt lat="45.63267" lon="6.54956">
        <ele>2336.8</ele>
        <time>2025-02-20T10:13:26Z</time>
      </trkpt>
      <trkpt lat="45.63262" lon="6.54959">
        <ele>2336.8</ele>
        <time>2025-02-20T10:13:27Z</time>
      </trkpt>
      <trkpt lat="45.63258" lon="6.54961">
        <ele>2335.8</ele>
        <time>2025-02-20T10:13:28Z</time>
      </trkpt>
      <trkpt lat="45.63253" lon="6.54962">
        <ele>2334.4</ele>
        <time>2025-02-20T10:13:29Z</time>
      </trkpt>
      <trkpt lat="45.63248" lon="6.54962">
        <ele>2334.4</ele>
        <time>2025-02-20T10:13:30Z</time>
      </trkpt>
      <trkpt lat="45.63243" lon="6.54962">
        <ele>2334.4</ele>
        <time>2025-02-20T10:13:31Z</time>
      </trkpt>
      <trkpt lat="45.63239" lon="6.54964">
        <ele>2333.4</ele>
        <time>2025-02-20T10:13:32Z</time>
      </trkpt>
      <trkpt lat="45.63236" lon="6.54969">
        <ele>2331.2</ele>
        <time>2025-02-20T10:13:33Z</time>
      </trkpt>
      <trkpt lat="45.63231" lon="6.54976">
        <ele>2331.2</ele>
        <time>2025-02-20T10:13:34Z</time>
      </trkpt>
      <trkpt lat="45.63225" lon="6.54981">
        <ele>2331.2</ele>
        <time>2025-02-20T10:13:35Z</time>
      </trkpt>
      <trkpt lat="45.6322" lon="6.54985">
        <ele>2330.2</ele>
        <time>2025-02-20T10:13:36Z</time>
      </trkpt>
      <trkpt lat="45.63215" lon="6.54988">
        <ele>2326.4</ele>
        <time>2025-02-20T10:13:37Z</time>
      </trkpt>
      <trkpt lat="45.6321" lon="6.54991">
        <ele>2326.4</ele>
        <time>2025-02-20T10:13:38Z</time>
      </trkpt>
      <trkpt lat="45.63206" lon="6.54993">
        <ele>2326.4</ele>
        <time>2025-02-20T10:13:39Z</time>
      </trkpt>
      <trkpt lat="45.63203" lon="6.54996">
        <ele>2325.4</ele>
        <time>2025-02-20T10:13:40Z</time>
      </trkpt>
      <trkpt lat="45.63202" lon="6.55002">
        <ele>2324.2</ele>
        <time>2025-02-20T10:13:41Z</time>
      </trkpt>
      <trkpt lat="45.63202" lon="6.55007">
        <ele>2324.2</ele>
        <time>2025-02-20T10:13:42Z</time>
      </trkpt>
      <trkpt lat="45.632" lon="6.55011">
        <ele>2324.2</ele>
        <time>2025-02-20T10:13:43Z</time>
      </trkpt>
      <trkpt lat="45.63196" lon="6.55015">
        <ele>2324.2</ele>
        <time>2025-02-20T10:13:44Z</time>
      </trkpt>
      <trkpt lat="45.63191" lon="6.55018">
        <ele>2322</ele>
        <time>2025-02-20T10:13:45Z</time>
      </trkpt>
      <trkpt lat="45.63186" lon="6.55021">
        <ele>2322</ele>
        <time>2025-02-20T10:13:46Z</time>
      </trkpt>
      <trkpt lat="45.63183" lon="6.55024">
        <ele>2322</ele>
        <time>2025-02-20T10:13:47Z</time>
      </trkpt>
      <trkpt lat="45.63179" lon="6.55027">
        <ele>2321</ele>
        <time>2025-02-20T10:13:48Z</time>
      </trkpt>
      <trkpt lat="45.63175" lon="6.55029">
        <ele>2318.8</ele>
        <time>2025-02-20T10:13:49Z</time>
      </trkpt>
      <trkpt lat="45.63171" lon="6.55031">
        <ele>2318.8</ele>
        <time>2025-02-20T10:13:50Z</time>
      </trkpt>
      <trkpt lat="45.63168" lon="6.55032">
        <ele>2318.8</ele>
        <time>2025-02-20T10:13:51Z</time>
      </trkpt>
      <trkpt lat="45.63165" lon="6.55033">
        <ele>2317.8</ele>
        <time>2025-02-20T10:13:52Z</time>
      </trkpt>
      <trkpt lat="45.63163" lon="6.55033">
        <ele>2317.2</ele>
        <time>2025-02-20T10:13:53Z</time>
      </trkpt>
      <trkpt lat="45.63163" lon="6.55033">
        <ele>2317.2</ele>
        <time>2025-02-20T10:13:54Z</time>
      </trkpt>
      <trkpt lat="45.63163" lon="6.55033">
        <ele>2317.2</ele>
        <time>2025-02-20T10:13:55Z</time>
      </trkpt>
      <trkpt lat="45.63163" lon="6.55033">
        <ele>2316.4</ele>
        <time>2025-02-20T10:13:56Z</time>
      </trkpt>
      <trkpt lat="45.63163" lon="6.55033">
        <ele>2316.6</ele>
        <time>2025-02-20T10:13:57Z</time>
      </trkpt>
      <trkpt lat="45.63163" lon="6.55033">
        <ele>2316.6</ele>
        <time>2025-02-20T10:13:58Z</time>
      </trkpt>
      <trkpt lat="45.63163" lon="6.55033">
        <ele>2316.6</ele>
        <time>2025-02-20T10:13:59Z</time>
      </trkpt>
      <trkpt lat="45.63163" lon="6.55033">
        <ele>2316.4</ele>
        <time>2025-02-20T10:14:00Z</time>
      </trkpt>
      <trkpt lat="45.63163" lon="6.55033">
        <ele>2316.4</ele>
        <time>2025-02-20T10:14:01Z</time>
      </trkpt>
      <trkpt lat="45.63163" lon="6.55033">
        <ele>2316.4</ele>
        <time>2025-02-20T10:14:02Z</time>
      </trkpt>
      <trkpt lat="45.63163" lon="6.55033">
        <ele>2316.4</ele>
        <time>2025-02-20T10:14:03Z</time>
      </trkpt>
      <trkpt lat="45.63163" lon="6.55033">
        <ele>2316.6</ele>
        <time>2025-02-20T10:14:04Z</time>
      </trkpt>
      <trkpt lat="45.63163" lon="6.55033">
        <ele>2316.4</ele>
        <time>2025-02-20T10:14:05Z</time>
      </trkpt>
      <trkpt lat="45.63163" lon="6.55033">
        <ele>2316.4</ele>
        <time>2025-02-20T10:14:06Z</time>
      </trkpt>
      <trkpt lat="45.63163" lon="6.55033">
        <ele>2316.4</ele>
        <time>2025-02-20T10:14:07Z</time>
      </trkpt>
      <trkpt lat="45.63163" lon="6.55033">
        <ele>2316.4</ele>
        <time>2025-02-20T10:14:08Z</time>
      </trkpt>
      <trkpt lat="45.63163" lon="6.55033">
        <ele>2316.4</ele>
        <time>2025-02-20T10:14:09Z</time>
      </trkpt>
      <trkpt lat="45.63163" lon="6.55033">
        <ele>2316.4</ele>
        <time>2025-02-20T10:14:10Z</time>
      </trkpt>
      <trkpt lat="45.63163" lon="6.55033">
        <ele>2316.4</ele>
        <time>2025-02-20T10:14:11Z</time>
      </trkpt>
      <trkpt lat="45.63163" lon="6.55033">
        <ele>2316.4</ele>
        <time>2025-02-20T10:14:12Z</time>
      </trkpt>
      <trkpt lat="45.63163" lon="6.55033">
        <ele>2316.6</ele>
        <time>2025-02-20T10:14:13Z</time>
      </trkpt>
      <trkpt lat="45.63163" lon="6.55033">
        <ele>2316.6</ele>
        <time>2025-02-20T10:14:14Z</time>
      </trkpt>
      <trkpt lat="45.63163" lon="6.55033">
        <ele>2316.6</ele>
        <time>2025-02-20T10:14:15Z</time>
      </trkpt>
      <trkpt lat="45.63163" lon="6.55033">
        <ele>2316.6</ele>
        <time>2025-02-20T10:14:16Z</time>
      </trkpt>
      <trkpt lat="45.63163" lon="6.55033">
        <ele>2317</ele>
        <time>2025-02-20T10:14:17Z</time>
      </trkpt>
      <trkpt lat="45.63163" lon="6.55033">
        <ele>2317</ele>
        <time>2025-02-20T10:14:18Z</time>
      </trkpt>
      <trkpt lat="45.63163" lon="6.55033">
        <ele>2317</ele>
        <time>2025-02-20T10:14:19Z</time>
      </trkpt>
      <trkpt lat="45.63163" lon="6.55033">
        <ele>2316.8</ele>
        <time>2025-02-20T10:14:20Z</time>
      </trkpt>
      <trkpt lat="45.63163" lon="6.55033">
        <ele>2316.4</ele>
        <time>2025-02-20T10:14:21Z</time>
      </trkpt>
      <trkpt lat="45.63163" lon="6.55033">
        <ele>2316.4</ele>
        <time>2025-02-20T10:14:22Z</time>
      </trkpt>
      <trkpt lat="45.63163" lon="6.55033">
        <ele>2316.4</ele>
        <time>2025-02-20T10:14:23Z</time>
      </trkpt>
      <trkpt lat="45.63163" lon="6.55033">
        <ele>2316.4</ele>
        <time>2025-02-20T10:14:24Z</time>
      </trkpt>
      <trkpt lat="45.63163" lon="6.55033">
        <ele>2316.8</ele>
        <time>2025-02-20T10:14:25Z</time>
      </trkpt>
      <trkpt lat="45.63163" lon="6.55033">
        <ele>2316.8</ele>
        <time>2025-02-20T10:14:26Z</time>
      </trkpt>
      <trkpt lat="45.63163" lon="6.55033">
        <ele>2316.8</ele>
        <time>2025-02-20T10:14:27Z</time>
      </trkpt>
      <trkpt lat="45.63163" lon="6.55033">
        <ele>2316.6</ele>
        <time>2025-02-20T10:14:28Z</time>
      </trkpt>
      <trkpt lat="45.63163" lon="6.55033">
        <ele>2316.8</ele>
        <time>2025-02-20T10:14:29Z</time>
      </trkpt>
      <trkpt lat="45.63163" lon="6.55033">
        <ele>2316.8</ele>
        <time>2025-02-20T10:14:30Z</time>
      </trkpt>
      <trkpt lat="45.63163" lon="6.55033">
        <ele>2316.8</ele>
        <time>2025-02-20T10:14:31Z</time>
      </trkpt>
      <trkpt lat="45.63163" lon="6.55033">
        <ele>2316.2</ele>
        <time>2025-02-20T10:14:32Z</time>
      </trkpt>
      <trkpt lat="45.63163" lon="6.55033">
        <ele>2316.4</ele>
        <time>2025-02-20T10:14:33Z</time>
      </trkpt>
      <trkpt lat="45.63163" lon="6.55033">
        <ele>2316.4</ele>
        <time>2025-02-20T10:14:34Z</time>
      </trkpt>
      <trkpt lat="45.63163" lon="6.55033">
        <ele>2316.4</ele>
        <time>2025-02-20T10:14:35Z</time>
      </trkpt>
      <trkpt lat="45.63163" lon="6.55033">
        <ele>2316.4</ele>
        <time>2025-02-20T10:14:36Z</time>
      </trkpt>
      <trkpt lat="45.63163" lon="6.55033">
        <ele>2316.4</ele>
        <time>2025-02-20T10:14:37Z</time>
      </trkpt>
      <trkpt lat="45.63163" lon="6.55033">
        <ele>2316.4</ele>
        <time>2025-02-20T10:14:38Z</time>
      </trkpt>
      <trkpt lat="45.63163" lon="6.55033">
        <ele>2316.4</ele>
        <time>2025-02-20T10:14:39Z</time>
      </trkpt>
      <trkpt lat="45.63163" lon="6.55033">
        <ele>2316.4</ele>
        <time>2025-02-20T10:14:40Z</time>
      </trkpt>
      <trkpt lat="45.63163" lon="6.55033">
        <ele>2316.2</ele>
        <time>2025-02-20T10:14:41Z</time>
      </trkpt>
      <trkpt lat="45.63163" lon="6.55033">
        <ele>2316.2</ele>
        <time>2025-02-20T10:14:42Z</time>
      </trkpt>
      <trkpt lat="45.63163" lon="6.55033">
        <ele>2316.2</ele>
        <time>2025-02-20T10:14:43Z</time>
      </trkpt>
      <trkpt lat="45.63163" lon="6.55033">
        <ele>2316.2</ele>
        <time>2025-02-20T10:14:44Z</time>
      </trkpt>
      <trkpt lat="45.63163" lon="6.55033">
        <ele>2316.2</ele>
        <time>2025-02-20T10:14:45Z</time>
      </trkpt>
      <trkpt lat="45.63163" lon="6.55033">
        <ele>2316.2</ele>
        <time>2025-02-20T10:14:46Z</time>
      </trkpt>
      <trkpt lat="45.63163" lon="6.55033">
        <ele>2316.2</ele>
        <time>2025-02-20T10:14:47Z</time>
      </trkpt>
      <trkpt lat="45.63163" lon="6.55033">
        <ele>2316.2</ele>
        <time>2025-02-20T10:14:48Z</time>
      </trkpt>
      <trkpt lat="45.63163" lon="6.55033">
        <ele>2316.2</ele>
        <time>2025-02-20T10:14:49Z</time>
      </trkpt>
      <trkpt lat="45.63163" lon="6.55033">
        <ele>2316.2</ele>
        <time>2025-02-20T10:14:50Z</time>
      </trkpt>
      <trkpt lat="45.63163" lon="6.55033">
        <ele>2316.2</ele>
        <time>2025-02-20T10:14:51Z</time>
      </trkpt>
      <trkpt lat="45.63163" lon="6.55033">
        <ele>2316.2</ele>
        <time>2025-02-20T10:14:52Z</time>
      </trkpt>
      <trkpt lat="45.63163" lon="6.55033">
        <ele>2316.2</ele>
        <time>2025-02-20T10:14:53Z</time>
      </trkpt>
      <trkpt lat="45.63163" lon="6.55033">
        <ele>2316.2</ele>
        <time>2025-02-20T10:14:54Z</time>
      </trkpt>
      <trkpt lat="45.63163" lon="6.55033">
        <ele>2316.2</ele>
        <time>2025-02-20T10:14:55Z</time>
      </trkpt>
      <trkpt lat="45.63163" lon="6.55034">
        <ele>2316.2</ele>
        <time>2025-02-20T10:14:56Z</time>
      </trkpt>
      <trkpt lat="45.6316" lon="6.55034">
        <ele>2315.8</ele>
        <time>2025-02-20T10:14:57Z</time>
      </trkpt>
      <trkpt lat="45.63158" lon="6.55034">
        <ele>2315.8</ele>
        <time>2025-02-20T10:14:58Z</time>
      </trkpt>
      <trkpt lat="45.63156" lon="6.55035">
        <ele>2315.8</ele>
        <time>2025-02-20T10:14:59Z</time>
      </trkpt>
      <trkpt lat="45.63153" lon="6.55035">
        <ele>2315.2</ele>
        <time>2025-02-20T10:15:00Z</time>
      </trkpt>
      <trkpt lat="45.63151" lon="6.55035">
        <ele>2315</ele>
        <time>2025-02-20T10:15:01Z</time>
      </trkpt>
      <trkpt lat="45.63148" lon="6.55035">
        <ele>2315</ele>
        <time>2025-02-20T10:15:02Z</time>
      </trkpt>
      <trkpt lat="45.63145" lon="6.55034">
        <ele>2315</ele>
        <time>2025-02-20T10:15:03Z</time>
      </trkpt>
      <trkpt lat="45.63142" lon="6.55033">
        <ele>2314</ele>
        <time>2025-02-20T10:15:04Z</time>
      </trkpt>
      <trkpt lat="45.63139" lon="6.55031">
        <ele>2311.8</ele>
        <time>2025-02-20T10:15:05Z</time>
      </trkpt>
      <trkpt lat="45.63137" lon="6.55029">
        <ele>2311.8</ele>
        <time>2025-02-20T10:15:06Z</time>
      </trkpt>
      <trkpt lat="45.63134" lon="6.55027">
        <ele>2311.8</ele>
        <time>2025-02-20T10:15:07Z</time>
      </trkpt>
      <trkpt lat="45.63131" lon="6.55024">
        <ele>2311.8</ele>
        <time>2025-02-20T10:15:08Z</time>
      </trkpt>
      <trkpt lat="45.63128" lon="6.55022">
        <ele>2310.6</ele>
        <time>2025-02-20T10:15:09Z</time>
      </trkpt>
      <trkpt lat="45.63123" lon="6.5502">
        <ele>2310.6</ele>
        <time>2025-02-20T10:15:10Z</time>
      </trkpt>
      <trkpt lat="45.63118" lon="6.55017">
        <ele>2310.6</ele>
        <time>2025-02-20T10:15:11Z</time>
      </trkpt>
      <trkpt lat="45.63114" lon="6.55014">
        <ele>2310.6</ele>
        <time>2025-02-20T10:15:12Z</time>
      </trkpt>
      <trkpt lat="45.63112" lon="6.55013">
        <ele>2307.4</ele>
        <time>2025-02-20T10:15:13Z</time>
      </trkpt>
      <trkpt lat="45.6311" lon="6.55013">
        <ele>2307.4</ele>
        <time>2025-02-20T10:15:14Z</time>
      </trkpt>
      <trkpt lat="45.63108" lon="6.55017">
        <ele>2307.4</ele>
        <time>2025-02-20T10:15:15Z</time>
      </trkpt>
      <trkpt lat="45.63109" lon="6.55024">
        <ele>2306.4</ele>
        <time>2025-02-20T10:15:16Z</time>
      </trkpt>
      <trkpt lat="45.63105" lon="6.55029">
        <ele>2303.6</ele>
        <time>2025-02-20T10:15:17Z</time>
      </trkpt>
      <trkpt lat="45.63099" lon="6.5503">
        <ele>2303.6</ele>
        <time>2025-02-20T10:15:18Z</time>
      </trkpt>
      <trkpt lat="45.63092" lon="6.55028">
        <ele>2303.6</ele>
        <time>2025-02-20T10:15:19Z</time>
      </trkpt>
      <trkpt lat="45.63086" lon="6.55026">
        <ele>2302.6</ele>
        <time>2025-02-20T10:15:20Z</time>
      </trkpt>
      <trkpt lat="45.63081" lon="6.55025">
        <ele>2298.4</ele>
        <time>2025-02-20T10:15:21Z</time>
      </trkpt>
      <trkpt lat="45.63076" lon="6.55025">
        <ele>2298.4</ele>
        <time>2025-02-20T10:15:22Z</time>
      </trkpt>
      <trkpt lat="45.63071" lon="6.55026">
        <ele>2298.4</ele>
        <time>2025-02-20T10:15:23Z</time>
      </trkpt>
      <trkpt lat="45.63066" lon="6.55026">
        <ele>2298.4</ele>
        <time>2025-02-20T10:15:24Z</time>
      </trkpt>
      <trkpt lat="45.63062" lon="6.55026">
        <ele>2295.4</ele>
        <time>2025-02-20T10:15:25Z</time>
      </trkpt>
      <trkpt lat="45.63059" lon="6.5503">
        <ele>2295.4</ele>
        <time>2025-02-20T10:15:26Z</time>
      </trkpt>
      <trkpt lat="45.6306" lon="6.55035">
        <ele>2295.4</ele>
        <time>2025-02-20T10:15:27Z</time>
      </trkpt>
      <trkpt lat="45.6306" lon="6.55041">
        <ele>2294.4</ele>
        <time>2025-02-20T10:15:28Z</time>
      </trkpt>
      <trkpt lat="45.63055" lon="6.55048">
        <ele>2289.4</ele>
        <time>2025-02-20T10:15:29Z</time>
      </trkpt>
      <trkpt lat="45.63049" lon="6.55052">
        <ele>2289.4</ele>
        <time>2025-02-20T10:15:30Z</time>
      </trkpt>
      <trkpt lat="45.63044" lon="6.55054">
        <ele>2289.4</ele>
        <time>2025-02-20T10:15:31Z</time>
      </trkpt>
      <trkpt lat="45.63039" lon="6.55057">
        <ele>2288.4</ele>
        <time>2025-02-20T10:15:32Z</time>
      </trkpt>
      <trkpt lat="45.63035" lon="6.55058">
        <ele>2281</ele>
        <time>2025-02-20T10:15:33Z</time>
      </trkpt>
      <trkpt lat="45.63031" lon="6.55058">
        <ele>2281</ele>
        <time>2025-02-20T10:15:34Z</time>
      </trkpt>
      <trkpt lat="45.63029" lon="6.55059">
        <ele>2281</ele>
        <time>2025-02-20T10:15:35Z</time>
      </trkpt>
      <trkpt lat="45.63027" lon="6.55059">
        <ele>2280</ele>
        <time>2025-02-20T10:15:36Z</time>
      </trkpt>
      <trkpt lat="45.63026" lon="6.55059">
        <ele>2279.8</ele>
        <time>2025-02-20T10:15:37Z</time>
      </trkpt>
      <trkpt lat="45.63025" lon="6.55059">
        <ele>2279.8</ele>
        <time>2025-02-20T10:15:38Z</time>
      </trkpt>
      <trkpt lat="45.63025" lon="6.55059">
        <ele>2279.8</ele>
        <time>2025-02-20T10:15:39Z</time>
      </trkpt>
      <trkpt lat="45.63025" lon="6.55059">
        <ele>2279.8</ele>
        <time>2025-02-20T10:15:40Z</time>
      </trkpt>
      <trkpt lat="45.63025" lon="6.55059">
        <ele>2279.6</ele>
        <time>2025-02-20T10:15:41Z</time>
      </trkpt>
      <trkpt lat="45.63025" lon="6.55059">
        <ele>2279.6</ele>
        <time>2025-02-20T10:15:42Z</time>
      </trkpt>
      <trkpt lat="45.63025" lon="6.55059">
        <ele>2279.6</ele>
        <time>2025-02-20T10:15:43Z</time>
      </trkpt>
      <trkpt lat="45.63025" lon="6.55059">
        <ele>2279.6</ele>
        <time>2025-02-20T10:15:44Z</time>
      </trkpt>
      <trkpt lat="45.63025" lon="6.55059">
        <ele>2279.4</ele>
        <time>2025-02-20T10:15:45Z</time>
      </trkpt>
      <trkpt lat="45.63025" lon="6.55059">
        <ele>2279.4</ele>
        <time>2025-02-20T10:15:46Z</time>
      </trkpt>
      <trkpt lat="45.63025" lon="6.55059">
        <ele>2279.4</ele>
        <time>2025-02-20T10:15:47Z</time>
      </trkpt>
      <trkpt lat="45.63025" lon="6.55059">
        <ele>2279.2</ele>
        <time>2025-02-20T10:15:48Z</time>
      </trkpt>
      <trkpt lat="45.63025" lon="6.55059">
        <ele>2279.8</ele>
        <time>2025-02-20T10:15:49Z</time>
      </trkpt>
      <trkpt lat="45.63025" lon="6.55059">
        <ele>2279.8</ele>
        <time>2025-02-20T10:15:50Z</time>
      </trkpt>
      <trkpt lat="45.63025" lon="6.55059">
        <ele>2279.8</ele>
        <time>2025-02-20T10:15:51Z</time>
      </trkpt>
      <trkpt lat="45.63025" lon="6.55059">
        <ele>2279.8</ele>
        <time>2025-02-20T10:15:52Z</time>
      </trkpt>
      <trkpt lat="45.63025" lon="6.55059">
        <ele>2280</ele>
        <time>2025-02-20T10:15:53Z</time>
      </trkpt>
      <trkpt lat="45.63025" lon="6.55059">
        <ele>2280</ele>
        <time>2025-02-20T10:15:54Z</time>
      </trkpt>
      <trkpt lat="45.63025" lon="6.55059">
        <ele>2280</ele>
        <time>2025-02-20T10:15:55Z</time>
      </trkpt>
      <trkpt lat="45.63025" lon="6.55059">
        <ele>2279.6</ele>
        <time>2025-02-20T10:15:56Z</time>
      </trkpt>
      <trkpt lat="45.63025" lon="6.55059">
        <ele>2279.6</ele>
        <time>2025-02-20T10:15:57Z</time>
      </trkpt>
      <trkpt lat="45.63025" lon="6.55059">
        <ele>2279.6</ele>
        <time>2025-02-20T10:15:58Z</time>
      </trkpt>
      <trkpt lat="45.63025" lon="6.55059">
        <ele>2279.6</ele>
        <time>2025-02-20T10:15:59Z</time>
      </trkpt>
      <trkpt lat="45.63025" lon="6.55059">
        <ele>2279.6</ele>
        <time>2025-02-20T10:16:00Z</time>
      </trkpt>
      <trkpt lat="45.63025" lon="6.55059">
        <ele>2279.6</ele>
        <time>2025-02-20T10:16:01Z</time>
      </trkpt>
      <trkpt lat="45.63025" lon="6.55059">
        <ele>2279.6</ele>
        <time>2025-02-20T10:16:02Z</time>
      </trkpt>
      <trkpt lat="45.63025" lon="6.55059">
        <ele>2279.6</ele>
        <time>2025-02-20T10:16:03Z</time>
      </trkpt>
      <trkpt lat="45.63025" lon="6.55059">
        <ele>2279.6</ele>
        <time>2025-02-20T10:16:04Z</time>
      </trkpt>
      <trkpt lat="45.63025" lon="6.55059">
        <ele>2279.4</ele>
        <time>2025-02-20T10:16:05Z</time>
      </trkpt>
      <trkpt lat="45.63025" lon="6.55059">
        <ele>2279.4</ele>
        <time>2025-02-20T10:16:06Z</time>
      </trkpt>
      <trkpt lat="45.63025" lon="6.55059">
        <ele>2279.4</ele>
        <time>2025-02-20T10:16:07Z</time>
      </trkpt>
      <trkpt lat="45.63025" lon="6.55059">
        <ele>2279.4</ele>
        <time>2025-02-20T10:16:08Z</time>
      </trkpt>
      <trkpt lat="45.63025" lon="6.55059">
        <ele>2279.2</ele>
        <time>2025-02-20T10:16:09Z</time>
      </trkpt>
      <trkpt lat="45.63025" lon="6.55059">
        <ele>2279.2</ele>
        <time>2025-02-20T10:16:10Z</time>
      </trkpt>
      <trkpt lat="45.63025" lon="6.55059">
        <ele>2279.2</ele>
        <time>2025-02-20T10:16:11Z</time>
      </trkpt>
      <trkpt lat="45.63025" lon="6.55059">
        <ele>2279.2</ele>
        <time>2025-02-20T10:16:12Z</time>
      </trkpt>
      <trkpt lat="45.63025" lon="6.55059">
        <ele>2279.4</ele>
        <time>2025-02-20T10:16:13Z</time>
      </trkpt>
      <trkpt lat="45.63025" lon="6.55059">
        <ele>2279.4</ele>
        <time>2025-02-20T10:16:14Z</time>
      </trkpt>
      <trkpt lat="45.63025" lon="6.55059">
        <ele>2279.4</ele>
        <time>2025-02-20T10:16:15Z</time>
      </trkpt>
      <trkpt lat="45.63025" lon="6.55059">
        <ele>2279.4</ele>
        <time>2025-02-20T10:16:16Z</time>
      </trkpt>
      <trkpt lat="45.63025" lon="6.55059">
        <ele>2279</ele>
        <time>2025-02-20T10:16:17Z</time>
      </trkpt>
      <trkpt lat="45.63025" lon="6.55059">
        <ele>2279</ele>
        <time>2025-02-20T10:16:18Z</time>
      </trkpt>
      <trkpt lat="45.63025" lon="6.55059">
        <ele>2279</ele>
        <time>2025-02-20T10:16:19Z</time>
      </trkpt>
      <trkpt lat="45.63025" lon="6.55059">
        <ele>2279</ele>
        <time>2025-02-20T10:16:20Z</time>
      </trkpt>
      <trkpt lat="45.63025" lon="6.55059">
        <ele>2279.6</ele>
        <time>2025-02-20T10:16:21Z</time>
      </trkpt>
      <trkpt lat="45.63025" lon="6.55059">
        <ele>2279.6</ele>
        <time>2025-02-20T10:16:22Z</time>
      </trkpt>
      <trkpt lat="45.63024" lon="6.55059">
        <ele>2279.6</ele>
        <time>2025-02-20T10:16:23Z</time>
      </trkpt>
      <trkpt lat="45.63022" lon="6.55059">
        <ele>2279</ele>
        <time>2025-02-20T10:16:24Z</time>
      </trkpt>
      <trkpt lat="45.63019" lon="6.5506">
        <ele>2278.2</ele>
        <time>2025-02-20T10:16:25Z</time>
      </trkpt>
      <trkpt lat="45.63015" lon="6.55061">
        <ele>2278.2</ele>
        <time>2025-02-20T10:16:26Z</time>
      </trkpt>
      <trkpt lat="45.63011" lon="6.55061">
        <ele>2278.2</ele>
        <time>2025-02-20T10:16:27Z</time>
      </trkpt>
      <trkpt lat="45.63007" lon="6.55061">
        <ele>2277.2</ele>
        <time>2025-02-20T10:16:28Z</time>
      </trkpt>
      <trkpt lat="45.63003" lon="6.55062">
        <ele>2275</ele>
        <time>2025-02-20T10:16:29Z</time>
      </trkpt>
      <trkpt lat="45.63" lon="6.55062">
        <ele>2275</ele>
        <time>2025-02-20T10:16:30Z</time>
      </trkpt>
      <trkpt lat="45.62997" lon="6.55062">
        <ele>2275</ele>
        <time>2025-02-20T10:16:31Z</time>
      </trkpt>
      <trkpt lat="45.62994" lon="6.55062">
        <ele>2274</ele>
        <time>2025-02-20T10:16:32Z</time>
      </trkpt>
      <trkpt lat="45.6299" lon="6.55062">
        <ele>2272.8</ele>
        <time>2025-02-20T10:16:33Z</time>
      </trkpt>
      <trkpt lat="45.62987" lon="6.55062">
        <ele>2272.8</ele>
        <time>2025-02-20T10:16:34Z</time>
      </trkpt>
      <trkpt lat="45.62985" lon="6.55062">
        <ele>2272.8</ele>
        <time>2025-02-20T10:16:35Z</time>
      </trkpt>
      <trkpt lat="45.62981" lon="6.55062">
        <ele>2271.8</ele>
        <time>2025-02-20T10:16:36Z</time>
      </trkpt>
      <trkpt lat="45.62976" lon="6.55061">
        <ele>2268.8</ele>
        <time>2025-02-20T10:16:37Z</time>
      </trkpt>
      <trkpt lat="45.6297" lon="6.5506">
        <ele>2268.8</ele>
        <time>2025-02-20T10:16:38Z</time>
      </trkpt>
      <trkpt lat="45.62964" lon="6.5506">
        <ele>2268.8</ele>
        <time>2025-02-20T10:16:39Z</time>
      </trkpt>
      <trkpt lat="45.62958" lon="6.55061">
        <ele>2267.8</ele>
        <time>2025-02-20T10:16:40Z</time>
      </trkpt>
      <trkpt lat="45.62953" lon="6.55061">
        <ele>2263.8</ele>
        <time>2025-02-20T10:16:41Z</time>
      </trkpt>
      <trkpt lat="45.62948" lon="6.55061">
        <ele>2263.8</ele>
        <time>2025-02-20T10:16:42Z</time>
      </trkpt>
      <trkpt lat="45.62944" lon="6.55061">
        <ele>2263.8</ele>
        <time>2025-02-20T10:16:43Z</time>
      </trkpt>
      <trkpt lat="45.62941" lon="6.5506">
        <ele>2263.8</ele>
        <time>2025-02-20T10:16:44Z</time>
      </trkpt>
      <trkpt lat="45.62937" lon="6.5506">
        <ele>2262</ele>
        <time>2025-02-20T10:16:45Z</time>
      </trkpt>
      <trkpt lat="45.62934" lon="6.55058">
        <ele>2262</ele>
        <time>2025-02-20T10:16:46Z</time>
      </trkpt>
      <trkpt lat="45.6293" lon="6.55057">
        <ele>2262</ele>
        <time>2025-02-20T10:16:47Z</time>
      </trkpt>
      <trkpt lat="45.62927" lon="6.55055">
        <ele>2261</ele>
        <time>2025-02-20T10:16:48Z</time>
      </trkpt>
      <trkpt lat="45.62924" lon="6.55053">
        <ele>2261.2</ele>
        <time>2025-02-20T10:16:49Z</time>
      </trkpt>
      <trkpt lat="45.62921" lon="6.55051">
        <ele>2261.2</ele>
        <time>2025-02-20T10:16:50Z</time>
      </trkpt>
      <trkpt lat="45.62918" lon="6.55049">
        <ele>2261.2</ele>
        <time>2025-02-20T10:16:51Z</time>
      </trkpt>
      <trkpt lat="45.62915" lon="6.55047">
        <ele>2260.2</ele>
        <time>2025-02-20T10:16:52Z</time>
      </trkpt>
      <trkpt lat="45.62911" lon="6.55045">
        <ele>2258.2</ele>
        <time>2025-02-20T10:16:53Z</time>
      </trkpt>
      <trkpt lat="45.62907" lon="6.55042">
        <ele>2258.2</ele>
        <time>2025-02-20T10:16:54Z</time>
      </trkpt>
      <trkpt lat="45.62902" lon="6.55039">
        <ele>2258.2</ele>
        <time>2025-02-20T10:16:55Z</time>
      </trkpt>
      <trkpt lat="45.62896" lon="6.55037">
        <ele>2257.2</ele>
        <time>2025-02-20T10:16:56Z</time>
      </trkpt>
      <trkpt lat="45.62892" lon="6.55035">
        <ele>2256</ele>
        <time>2025-02-20T10:16:57Z</time>
      </trkpt>
      <trkpt lat="45.62887" lon="6.55033">
        <ele>2256</ele>
        <time>2025-02-20T10:16:58Z</time>
      </trkpt>
      <trkpt lat="45.62883" lon="6.55033">
        <ele>2256</ele>
        <time>2025-02-20T10:16:59Z</time>
      </trkpt>
      <trkpt lat="45.6288" lon="6.55031">
        <ele>2255</ele>
        <time>2025-02-20T10:17:00Z</time>
      </trkpt>
      <trkpt lat="45.62879" lon="6.55031">
        <ele>2254.4</ele>
        <time>2025-02-20T10:17:01Z</time>
      </trkpt>
      <trkpt lat="45.62879" lon="6.55031">
        <ele>2254.4</ele>
        <time>2025-02-20T10:17:02Z</time>
      </trkpt>
      <trkpt lat="45.62879" lon="6.55031">
        <ele>2254.4</ele>
        <time>2025-02-20T10:17:03Z</time>
      </trkpt>
      <trkpt lat="45.62879" lon="6.55031">
        <ele>2254.6</ele>
        <time>2025-02-20T10:17:04Z</time>
      </trkpt>
      <trkpt lat="45.62879" lon="6.55031">
        <ele>2254.6</ele>
        <time>2025-02-20T10:17:05Z</time>
      </trkpt>
      <trkpt lat="45.62879" lon="6.55031">
        <ele>2254.6</ele>
        <time>2025-02-20T10:17:06Z</time>
      </trkpt>
      <trkpt lat="45.62879" lon="6.55031">
        <ele>2254.6</ele>
        <time>2025-02-20T10:17:07Z</time>
      </trkpt>
      <trkpt lat="45.62879" lon="6.55031">
        <ele>2254.6</ele>
        <time>2025-02-20T10:17:08Z</time>
      </trkpt>
      <trkpt lat="45.62879" lon="6.55031">
        <ele>2254.2</ele>
        <time>2025-02-20T10:17:09Z</time>
      </trkpt>
      <trkpt lat="45.62879" lon="6.55031">
        <ele>2254.2</ele>
        <time>2025-02-20T10:17:10Z</time>
      </trkpt>
      <trkpt lat="45.62879" lon="6.55031">
        <ele>2254.2</ele>
        <time>2025-02-20T10:17:11Z</time>
      </trkpt>
      <trkpt lat="45.62879" lon="6.55031">
        <ele>2254.2</ele>
        <time>2025-02-20T10:17:12Z</time>
      </trkpt>
      <trkpt lat="45.62879" lon="6.55031">
        <ele>2254.4</ele>
        <time>2025-02-20T10:17:13Z</time>
      </trkpt>
      <trkpt lat="45.62879" lon="6.55031">
        <ele>2254.4</ele>
        <time>2025-02-20T10:17:14Z</time>
      </trkpt>
      <trkpt lat="45.62879" lon="6.55031">
        <ele>2254.4</ele>
        <time>2025-02-20T10:17:15Z</time>
      </trkpt>
      <trkpt lat="45.62879" lon="6.55031">
        <ele>2254.4</ele>
        <time>2025-02-20T10:17:16Z</time>
      </trkpt>
      <trkpt lat="45.62879" lon="6.55031">
        <ele>2254.4</ele>
        <time>2025-02-20T10:17:17Z</time>
      </trkpt>
      <trkpt lat="45.62879" lon="6.55031">
        <ele>2254.4</ele>
        <time>2025-02-20T10:17:18Z</time>
      </trkpt>
      <trkpt lat="45.62879" lon="6.55031">
        <ele>2254.4</ele>
        <time>2025-02-20T10:17:19Z</time>
      </trkpt>
      <trkpt lat="45.62879" lon="6.55031">
        <ele>2254.4</ele>
        <time>2025-02-20T10:17:20Z</time>
      </trkpt>
      <trkpt lat="45.62879" lon="6.55031">
        <ele>2254.4</ele>
        <time>2025-02-20T10:17:21Z</time>
      </trkpt>
      <trkpt lat="45.62879" lon="6.55031">
        <ele>2254.4</ele>
        <time>2025-02-20T10:17:22Z</time>
      </trkpt>
      <trkpt lat="45.62879" lon="6.55031">
        <ele>2254.4</ele>
        <time>2025-02-20T10:17:23Z</time>
      </trkpt>
      <trkpt lat="45.62879" lon="6.55031">
        <ele>2254.4</ele>
        <time>2025-02-20T10:17:24Z</time>
      </trkpt>
      <trkpt lat="45.62879" lon="6.55031">
        <ele>2253.8</ele>
        <time>2025-02-20T10:17:25Z</time>
      </trkpt>
      <trkpt lat="45.62879" lon="6.55031">
        <ele>2253.8</ele>
        <time>2025-02-20T10:17:26Z</time>
      </trkpt>
      <trkpt lat="45.62879" lon="6.55031">
        <ele>2253.8</ele>
        <time>2025-02-20T10:17:27Z</time>
      </trkpt>
      <trkpt lat="45.62879" lon="6.55031">
        <ele>2254.4</ele>
        <time>2025-02-20T10:17:28Z</time>
      </trkpt>
      <trkpt lat="45.62879" lon="6.55031">
        <ele>2254.6</ele>
        <time>2025-02-20T10:17:29Z</time>
      </trkpt>
      <trkpt lat="45.62879" lon="6.55031">
        <ele>2254.6</ele>
        <time>2025-02-20T10:17:30Z</time>
      </trkpt>
      <trkpt lat="45.62879" lon="6.55031">
        <ele>2254.6</ele>
        <time>2025-02-20T10:17:31Z</time>
      </trkpt>
      <trkpt lat="45.62879" lon="6.55031">
        <ele>2254.6</ele>
        <time>2025-02-20T10:17:32Z</time>
      </trkpt>
      <trkpt lat="45.62879" lon="6.55031">
        <ele>2254.4</ele>
        <time>2025-02-20T10:17:33Z</time>
      </trkpt>
      <trkpt lat="45.62879" lon="6.55031">
        <ele>2254.4</ele>
        <time>2025-02-20T10:17:34Z</time>
      </trkpt>
      <trkpt lat="45.62879" lon="6.55031">
        <ele>2254.4</ele>
        <time>2025-02-20T10:17:35Z</time>
      </trkpt>
      <trkpt lat="45.62879" lon="6.55031">
        <ele>2254.4</ele>
        <time>2025-02-20T10:17:36Z</time>
      </trkpt>
      <trkpt lat="45.62879" lon="6.55031">
        <ele>2253.8</ele>
        <time>2025-02-20T10:17:37Z</time>
      </trkpt>
      <trkpt lat="45.62879" lon="6.55031">
        <ele>2253.8</ele>
        <time>2025-02-20T10:17:38Z</time>
      </trkpt>
      <trkpt lat="45.62879" lon="6.55031">
        <ele>2253.8</ele>
        <time>2025-02-20T10:17:39Z</time>
      </trkpt>
      <trkpt lat="45.62879" lon="6.55031">
        <ele>2253.8</ele>
        <time>2025-02-20T10:17:40Z</time>
      </trkpt>
      <trkpt lat="45.62878" lon="6.55031">
        <ele>2254.2</ele>
        <time>2025-02-20T10:17:41Z</time>
      </trkpt>
      <trkpt lat="45.62877" lon="6.55032">
        <ele>2254.2</ele>
        <time>2025-02-20T10:17:42Z</time>
      </trkpt>
      <trkpt lat="45.62874" lon="6.55033">
        <ele>2254.2</ele>
        <time>2025-02-20T10:17:43Z</time>
      </trkpt>
      <trkpt lat="45.62872" lon="6.55033">
        <ele>2253.2</ele>
        <time>2025-02-20T10:17:44Z</time>
      </trkpt>
      <trkpt lat="45.62869" lon="6.55032">
        <ele>2252.2</ele>
        <time>2025-02-20T10:17:45Z</time>
      </trkpt>
      <trkpt lat="45.62867" lon="6.55033">
        <ele>2252.2</ele>
        <time>2025-02-20T10:17:46Z</time>
      </trkpt>
      <trkpt lat="45.62863" lon="6.55033">
        <ele>2252.2</ele>
        <time>2025-02-20T10:17:47Z</time>
      </trkpt>
      <trkpt lat="45.62859" lon="6.55032">
        <ele>2251.2</ele>
        <time>2025-02-20T10:17:48Z</time>
      </trkpt>
      <trkpt lat="45.62855" lon="6.55031">
        <ele>2249.2</ele>
        <time>2025-02-20T10:17:49Z</time>
      </trkpt>
      <trkpt lat="45.6285" lon="6.5503">
        <ele>2249.2</ele>
        <time>2025-02-20T10:17:50Z</time>
      </trkpt>
      <trkpt lat="45.62845" lon="6.5503">
        <ele>2249.2</ele>
        <time>2025-02-20T10:17:51Z</time>
      </trkpt>
      <trkpt lat="45.62841" lon="6.5503">
        <ele>2248.2</ele>
        <time>2025-02-20T10:17:52Z</time>
      </trkpt>
      <trkpt lat="45.62835" lon="6.5503">
        <ele>2245.4</ele>
        <time>2025-02-20T10:17:53Z</time>
      </trkpt>
      <trkpt lat="45.6283" lon="6.55029">
        <ele>2245.4</ele>
        <time>2025-02-20T10:17:54Z</time>
      </trkpt>
      <trkpt lat="45.62825" lon="6.5503">
        <ele>2245.4</ele>
        <time>2025-02-20T10:17:55Z</time>
      </trkpt>
      <trkpt lat="45.62821" lon="6.5503">
        <ele>2244.4</ele>
        <time>2025-02-20T10:17:56Z</time>
      </trkpt>
      <trkpt lat="45.62817" lon="6.5503">
        <ele>2242</ele>
        <time>2025-02-20T10:17:57Z</time>
      </trkpt>
      <trkpt lat="45.62814" lon="6.55031">
        <ele>2242</ele>
        <time>2025-02-20T10:17:58Z</time>
      </trkpt>
      <trkpt lat="45.62812" lon="6.55033">
        <ele>2242</ele>
        <time>2025-02-20T10:17:59Z</time>
      </trkpt>
      <trkpt lat="45.6281" lon="6.55038">
        <ele>2241</ele>
        <time>2025-02-20T10:18:00Z</time>
      </trkpt>
      <trkpt lat="45.62814" lon="6.55042">
        <ele>2238.2</ele>
        <time>2025-02-20T10:18:01Z</time>
      </trkpt>
      <trkpt lat="45.62818" lon="6.55045">
        <ele>2238.2</ele>
        <time>2025-02-20T10:18:02Z</time>
      </trkpt>
      <trkpt lat="45.6282" lon="6.55051">
        <ele>2238.2</ele>
        <time>2025-02-20T10:18:03Z</time>
      </trkpt>
      <trkpt lat="45.6282" lon="6.55059">
        <ele>2237.2</ele>
        <time>2025-02-20T10:18:04Z</time>
      </trkpt>
      <trkpt lat="45.62816" lon="6.55064">
        <ele>2233.2</ele>
        <time>2025-02-20T10:18:05Z</time>
      </trkpt>
      <trkpt lat="45.62813" lon="6.55065">
        <ele>2233.2</ele>
        <time>2025-02-20T10:18:06Z</time>
      </trkpt>
      <trkpt lat="45.62809" lon="6.55066">
        <ele>2233.2</ele>
        <time>2025-02-20T10:18:07Z</time>
      </trkpt>
      <trkpt lat="45.62805" lon="6.55068">
        <ele>2232.2</ele>
        <time>2025-02-20T10:18:08Z</time>
      </trkpt>
      <trkpt lat="45.62802" lon="6.5507">
        <ele>2230.8</ele>
        <time>2025-02-20T10:18:09Z</time>
      </trkpt>
      <trkpt lat="45.628" lon="6.55076">
        <ele>2230.8</ele>
        <time>2025-02-20T10:18:10Z</time>
      </trkpt>
      <trkpt lat="45.62799" lon="6.55084">
        <ele>2230.8</ele>
        <time>2025-02-20T10:18:11Z</time>
      </trkpt>
      <trkpt lat="45.62794" lon="6.5509">
        <ele>2229.8</ele>
        <time>2025-02-20T10:18:12Z</time>
      </trkpt>
      <trkpt lat="45.62791" lon="6.55098">
        <ele>2224</ele>
        <time>2025-02-20T10:18:13Z</time>
      </trkpt>
      <trkpt lat="45.62791" lon="6.55107">
        <ele>2224</ele>
        <time>2025-02-20T10:18:14Z</time>
      </trkpt>
      <trkpt lat="45.6279" lon="6.55114">
        <ele>2224</ele>
        <time>2025-02-20T10:18:15Z</time>
      </trkpt>
      <trkpt lat="45.62787" lon="6.55118">
        <ele>2223</ele>
        <time>2025-02-20T10:18:16Z</time>
      </trkpt>
      <trkpt lat="45.62785" lon="6.55121">
        <ele>2220</ele>
        <time>2025-02-20T10:18:17Z</time>
      </trkpt>
      <trkpt lat="45.62784" lon="6.55125">
        <ele>2220</ele>
        <time>2025-02-20T10:18:18Z</time>
      </trkpt>
      <trkpt lat="45.62783" lon="6.55128">
        <ele>2220</ele>
        <time>2025-02-20T10:18:19Z</time>
      </trkpt>
      <trkpt lat="45.62781" lon="6.55129">
        <ele>2219</ele>
        <time>2025-02-20T10:18:20Z</time>
      </trkpt>
      <trkpt lat="45.6278" lon="6.55131">
        <ele>2216.6</ele>
        <time>2025-02-20T10:18:21Z</time>
      </trkpt>
      <trkpt lat="45.6278" lon="6.55132">
        <ele>2216.6</ele>
        <time>2025-02-20T10:18:22Z</time>
      </trkpt>
      <trkpt lat="45.62781" lon="6.55133">
        <ele>2216.6</ele>
        <time>2025-02-20T10:18:23Z</time>
      </trkpt>
      <trkpt lat="45.62781" lon="6.55133">
        <ele>2217.6</ele>
        <time>2025-02-20T10:18:24Z</time>
      </trkpt>
      <trkpt lat="45.62781" lon="6.55133">
        <ele>2217.2</ele>
        <time>2025-02-20T10:18:25Z</time>
      </trkpt>
      <trkpt lat="45.62781" lon="6.55133">
        <ele>2217.2</ele>
        <time>2025-02-20T10:18:26Z</time>
      </trkpt>
      <trkpt lat="45.62781" lon="6.55133">
        <ele>2217.2</ele>
        <time>2025-02-20T10:18:27Z</time>
      </trkpt>
      <trkpt lat="45.62781" lon="6.55133">
        <ele>2217.2</ele>
        <time>2025-02-20T10:18:28Z</time>
      </trkpt>
      <trkpt lat="45.62781" lon="6.55133">
        <ele>2217.6</ele>
        <time>2025-02-20T10:18:29Z</time>
      </trkpt>
      <trkpt lat="45.62781" lon="6.55133">
        <ele>2217.6</ele>
        <time>2025-02-20T10:18:30Z</time>
      </trkpt>
      <trkpt lat="45.62781" lon="6.55133">
        <ele>2217.6</ele>
        <time>2025-02-20T10:18:31Z</time>
      </trkpt>
      <trkpt lat="45.62781" lon="6.55133">
        <ele>2217.4</ele>
        <time>2025-02-20T10:18:32Z</time>
      </trkpt>
      <trkpt lat="45.62781" lon="6.55133">
        <ele>2217.4</ele>
        <time>2025-02-20T10:18:33Z</time>
      </trkpt>
      <trkpt lat="45.62781" lon="6.55133">
        <ele>2217.4</ele>
        <time>2025-02-20T10:18:34Z</time>
      </trkpt>
      <trkpt lat="45.62781" lon="6.55133">
        <ele>2217.4</ele>
        <time>2025-02-20T10:18:35Z</time>
      </trkpt>
      <trkpt lat="45.62781" lon="6.55133">
        <ele>2217.4</ele>
        <time>2025-02-20T10:18:36Z</time>
      </trkpt>
      <trkpt lat="45.62781" lon="6.55133">
        <ele>2217.2</ele>
        <time>2025-02-20T10:18:37Z</time>
      </trkpt>
      <trkpt lat="45.62781" lon="6.55133">
        <ele>2217.2</ele>
        <time>2025-02-20T10:18:38Z</time>
      </trkpt>
      <trkpt lat="45.62781" lon="6.55133">
        <ele>2217.2</ele>
        <time>2025-02-20T10:18:39Z</time>
      </trkpt>
      <trkpt lat="45.62781" lon="6.55133">
        <ele>2217.2</ele>
        <time>2025-02-20T10:18:40Z</time>
      </trkpt>
      <trkpt lat="45.62781" lon="6.55133">
        <ele>2217.2</ele>
        <time>2025-02-20T10:18:41Z</time>
      </trkpt>
      <trkpt lat="45.62781" lon="6.55133">
        <ele>2217.2</ele>
        <time>2025-02-20T10:18:42Z</time>
      </trkpt>
      <trkpt lat="45.62781" lon="6.55133">
        <ele>2217.2</ele>
        <time>2025-02-20T10:18:43Z</time>
      </trkpt>
      <trkpt lat="45.62781" lon="6.55133">
        <ele>2217</ele>
        <time>2025-02-20T10:18:44Z</time>
      </trkpt>
      <trkpt lat="45.62781" lon="6.55133">
        <ele>2217</ele>
        <time>2025-02-20T10:18:45Z</time>
      </trkpt>
      <trkpt lat="45.62781" lon="6.55133">
        <ele>2217</ele>
        <time>2025-02-20T10:18:46Z</time>
      </trkpt>
      <trkpt lat="45.62781" lon="6.55133">
        <ele>2217</ele>
        <time>2025-02-20T10:18:47Z</time>
      </trkpt>
      <trkpt lat="45.62781" lon="6.55133">
        <ele>2217</ele>
        <time>2025-02-20T10:18:48Z</time>
      </trkpt>
      <trkpt lat="45.62781" lon="6.55133">
        <ele>2217</ele>
        <time>2025-02-20T10:18:49Z</time>
      </trkpt>
      <trkpt lat="45.62781" lon="6.55133">
        <ele>2217</ele>
        <time>2025-02-20T10:18:50Z</time>
      </trkpt>
      <trkpt lat="45.62781" lon="6.55133">
        <ele>2217</ele>
        <time>2025-02-20T10:18:51Z</time>
      </trkpt>
      <trkpt lat="45.62781" lon="6.55133">
        <ele>2217</ele>
        <time>2025-02-20T10:18:52Z</time>
      </trkpt>
      <trkpt lat="45.62781" lon="6.55133">
        <ele>2217.2</ele>
        <time>2025-02-20T10:18:53Z</time>
      </trkpt>
      <trkpt lat="45.62781" lon="6.55133">
        <ele>2217.2</ele>
        <time>2025-02-20T10:18:54Z</time>
      </trkpt>
      <trkpt lat="45.62781" lon="6.55133">
        <ele>2217.2</ele>
        <time>2025-02-20T10:18:55Z</time>
      </trkpt>
      <trkpt lat="45.62781" lon="6.55133">
        <ele>2217.2</ele>
        <time>2025-02-20T10:18:56Z</time>
      </trkpt>
      <trkpt lat="45.62781" lon="6.55133">
        <ele>2217</ele>
        <time>2025-02-20T10:18:57Z</time>
      </trkpt>
      <trkpt lat="45.62781" lon="6.55133">
        <ele>2217</ele>
        <time>2025-02-20T10:18:58Z</time>
      </trkpt>
      <trkpt lat="45.62781" lon="6.55133">
        <ele>2217</ele>
        <time>2025-02-20T10:18:59Z</time>
      </trkpt>
      <trkpt lat="45.62781" lon="6.55133">
        <ele>2217</ele>
        <time>2025-02-20T10:19:00Z</time>
      </trkpt>
      <trkpt lat="45.62781" lon="6.55133">
        <ele>2218</ele>
        <time>2025-02-20T10:19:01Z</time>
      </trkpt>
      <trkpt lat="45.62781" lon="6.55133">
        <ele>2218</ele>
        <time>2025-02-20T10:19:02Z</time>
      </trkpt>
      <trkpt lat="45.62781" lon="6.55133">
        <ele>2218</ele>
        <time>2025-02-20T10:19:03Z</time>
      </trkpt>
      <trkpt lat="45.62781" lon="6.55133">
        <ele>2217</ele>
        <time>2025-02-20T10:19:04Z</time>
      </trkpt>
      <trkpt lat="45.62781" lon="6.55133">
        <ele>2217.6</ele>
        <time>2025-02-20T10:19:05Z</time>
      </trkpt>
      <trkpt lat="45.62781" lon="6.55133">
        <ele>2217.6</ele>
        <time>2025-02-20T10:19:06Z</time>
      </trkpt>
      <trkpt lat="45.62781" lon="6.55133">
        <ele>2217.6</ele>
        <time>2025-02-20T10:19:07Z</time>
      </trkpt>
      <trkpt lat="45.62781" lon="6.55133">
        <ele>2217.4</ele>
        <time>2025-02-20T10:19:08Z</time>
      </trkpt>
      <trkpt lat="45.62781" lon="6.55133">
        <ele>2217.2</ele>
        <time>2025-02-20T10:19:09Z</time>
      </trkpt>
      <trkpt lat="45.62781" lon="6.55133">
        <ele>2217.2</ele>
        <time>2025-02-20T10:19:10Z</time>
      </trkpt>
      <trkpt lat="45.62781" lon="6.55133">
        <ele>2217.2</ele>
        <time>2025-02-20T10:19:11Z</time>
      </trkpt>
      <trkpt lat="45.62781" lon="6.55133">
        <ele>2217.2</ele>
        <time>2025-02-20T10:19:12Z</time>
      </trkpt>
      <trkpt lat="45.62781" lon="6.55133">
        <ele>2217.4</ele>
        <time>2025-02-20T10:19:13Z</time>
      </trkpt>
      <trkpt lat="45.62781" lon="6.55133">
        <ele>2217.4</ele>
        <time>2025-02-20T10:19:14Z</time>
      </trkpt>
      <trkpt lat="45.62781" lon="6.55133">
        <ele>2217.4</ele>
        <time>2025-02-20T10:19:15Z</time>
      </trkpt>
      <trkpt lat="45.62781" lon="6.55133">
        <ele>2217.2</ele>
        <time>2025-02-20T10:19:16Z</time>
      </trkpt>
      <trkpt lat="45.62781" lon="6.55133">
        <ele>2217.2</ele>
        <time>2025-02-20T10:19:17Z</time>
      </trkpt>
      <trkpt lat="45.62781" lon="6.55133">
        <ele>2217.2</ele>
        <time>2025-02-20T10:19:18Z</time>
      </trkpt>
      <trkpt lat="45.62781" lon="6.55133">
        <ele>2217.2</ele>
        <time>2025-02-20T10:19:19Z</time>
      </trkpt>
      <trkpt lat="45.62781" lon="6.55133">
        <ele>2217</ele>
        <time>2025-02-20T10:19:20Z</time>
      </trkpt>
      <trkpt lat="45.62781" lon="6.55133">
        <ele>2216.6</ele>
        <time>2025-02-20T10:19:21Z</time>
      </trkpt>
      <trkpt lat="45.62781" lon="6.55133">
        <ele>2216.6</ele>
        <time>2025-02-20T10:19:22Z</time>
      </trkpt>
      <trkpt lat="45.62781" lon="6.55133">
        <ele>2216.6</ele>
        <time>2025-02-20T10:19:23Z</time>
      </trkpt>
      <trkpt lat="45.62781" lon="6.55133">
        <ele>2217</ele>
        <time>2025-02-20T10:19:24Z</time>
      </trkpt>
      <trkpt lat="45.62781" lon="6.55133">
        <ele>2217.2</ele>
        <time>2025-02-20T10:19:25Z</time>
      </trkpt>
      <trkpt lat="45.62781" lon="6.55133">
        <ele>2217.2</ele>
        <time>2025-02-20T10:19:26Z</time>
      </trkpt>
      <trkpt lat="45.62781" lon="6.55133">
        <ele>2217.2</ele>
        <time>2025-02-20T10:19:27Z</time>
      </trkpt>
      <trkpt lat="45.62781" lon="6.55133">
        <ele>2216.8</ele>
        <time>2025-02-20T10:19:28Z</time>
      </trkpt>
      <trkpt lat="45.62781" lon="6.55133">
        <ele>2216.8</ele>
        <time>2025-02-20T10:19:29Z</time>
      </trkpt>
      <trkpt lat="45.62781" lon="6.55133">
        <ele>2216.8</ele>
        <time>2025-02-20T10:19:30Z</time>
      </trkpt>
      <trkpt lat="45.62781" lon="6.55133">
        <ele>2216.8</ele>
        <time>2025-02-20T10:19:31Z</time>
      </trkpt>
      <trkpt lat="45.62781" lon="6.55133">
        <ele>2216.8</ele>
        <time>2025-02-20T10:19:32Z</time>
      </trkpt>
      <trkpt lat="45.62781" lon="6.55133">
        <ele>2216.4</ele>
        <time>2025-02-20T10:19:33Z</time>
      </trkpt>
      <trkpt lat="45.62781" lon="6.55133">
        <ele>2216.4</ele>
        <time>2025-02-20T10:19:34Z</time>
      </trkpt>
      <trkpt lat="45.62781" lon="6.55133">
        <ele>2216.4</ele>
        <time>2025-02-20T10:19:35Z</time>
      </trkpt>
      <trkpt lat="45.62781" lon="6.55133">
        <ele>2216.8</ele>
        <time>2025-02-20T10:19:36Z</time>
      </trkpt>
      <trkpt lat="45.62781" lon="6.55133">
        <ele>2216.8</ele>
        <time>2025-02-20T10:19:37Z</time>
      </trkpt>
      <trkpt lat="45.62781" lon="6.55133">
        <ele>2216.8</ele>
        <time>2025-02-20T10:19:38Z</time>
      </trkpt>
      <trkpt lat="45.62781" lon="6.55133">
        <ele>2216.8</ele>
        <time>2025-02-20T10:19:39Z</time>
      </trkpt>
      <trkpt lat="45.62781" lon="6.55133">
        <ele>2217</ele>
        <time>2025-02-20T10:19:40Z</time>
      </trkpt>
      <trkpt lat="45.62781" lon="6.55133">
        <ele>2217</ele>
        <time>2025-02-20T10:19:41Z</time>
      </trkpt>
      <trkpt lat="45.62781" lon="6.55133">
        <ele>2217</ele>
        <time>2025-02-20T10:19:42Z</time>
      </trkpt>
      <trkpt lat="45.62781" lon="6.55133">
        <ele>2217</ele>
        <time>2025-02-20T10:19:43Z</time>
      </trkpt>
      <trkpt lat="45.62781" lon="6.55133">
        <ele>2217</ele>
        <time>2025-02-20T10:19:44Z</time>
      </trkpt>
      <trkpt lat="45.62781" lon="6.55133">
        <ele>2217.2</ele>
        <time>2025-02-20T10:19:45Z</time>
      </trkpt>
      <trkpt lat="45.62781" lon="6.55133">
        <ele>2217.2</ele>
        <time>2025-02-20T10:19:46Z</time>
      </trkpt>
      <trkpt lat="45.62781" lon="6.55133">
        <ele>2217.2</ele>
        <time>2025-02-20T10:19:47Z</time>
      </trkpt>
      <trkpt lat="45.62781" lon="6.55133">
        <ele>2216.8</ele>
        <time>2025-02-20T10:19:48Z</time>
      </trkpt>
      <trkpt lat="45.62781" lon="6.55133">
        <ele>2216.6</ele>
        <time>2025-02-20T10:19:49Z</time>
      </trkpt>
      <trkpt lat="45.62781" lon="6.55133">
        <ele>2216.6</ele>
        <time>2025-02-20T10:19:50Z</time>
      </trkpt>
      <trkpt lat="45.62781" lon="6.55133">
        <ele>2216.6</ele>
        <time>2025-02-20T10:19:51Z</time>
      </trkpt>
      <trkpt lat="45.62781" lon="6.55133">
        <ele>2217</ele>
        <time>2025-02-20T10:19:52Z</time>
      </trkpt>
      <trkpt lat="45.62781" lon="6.55133">
        <ele>2216.6</ele>
        <time>2025-02-20T10:19:53Z</time>
      </trkpt>
      <trkpt lat="45.62781" lon="6.55133">
        <ele>2216.6</ele>
        <time>2025-02-20T10:19:54Z</time>
      </trkpt>
      <trkpt lat="45.62781" lon="6.55133">
        <ele>2216.6</ele>
        <time>2025-02-20T10:19:55Z</time>
      </trkpt>
      <trkpt lat="45.62781" lon="6.55133">
        <ele>2216.6</ele>
        <time>2025-02-20T10:19:56Z</time>
      </trkpt>
      <trkpt lat="45.62781" lon="6.55133">
        <ele>2217</ele>
        <time>2025-02-20T10:19:57Z</time>
      </trkpt>
      <trkpt lat="45.62781" lon="6.55133">
        <ele>2217</ele>
        <time>2025-02-20T10:19:58Z</time>
      </trkpt>
      <trkpt lat="45.62781" lon="6.55133">
        <ele>2217</ele>
        <time>2025-02-20T10:19:59Z</time>
      </trkpt>
      <trkpt lat="45.62781" lon="6.55133">
        <ele>2216.8</ele>
        <time>2025-02-20T10:20:00Z</time>
      </trkpt>
      <trkpt lat="45.62781" lon="6.55133">
        <ele>2216.8</ele>
        <time>2025-02-20T10:20:01Z</time>
      </trkpt>
      <trkpt lat="45.62781" lon="6.55133">
        <ele>2216.8</ele>
        <time>2025-02-20T10:20:02Z</time>
      </trkpt>
      <trkpt lat="45.62781" lon="6.55133">
        <ele>2216.8</ele>
        <time>2025-02-20T10:20:03Z</time>
      </trkpt>
      <trkpt lat="45.62781" lon="6.55133">
        <ele>2216.8</ele>
        <time>2025-02-20T10:20:04Z</time>
      </trkpt>
      <trkpt lat="45.62781" lon="6.55133">
        <ele>2216.4</ele>
        <time>2025-02-20T10:20:05Z</time>
      </trkpt>
      <trkpt lat="45.62781" lon="6.55133">
        <ele>2216.4</ele>
        <time>2025-02-20T10:20:06Z</time>
      </trkpt>
      <trkpt lat="45.62781" lon="6.55133">
        <ele>2216.4</ele>
        <time>2025-02-20T10:20:07Z</time>
      </trkpt>
      <trkpt lat="45.62781" lon="6.55133">
        <ele>2216.8</ele>
        <time>2025-02-20T10:20:08Z</time>
      </trkpt>
      <trkpt lat="45.62781" lon="6.55133">
        <ele>2217</ele>
        <time>2025-02-20T10:20:09Z</time>
      </trkpt>
      <trkpt lat="45.62781" lon="6.55133">
        <ele>2217</ele>
        <time>2025-02-20T10:20:10Z</time>
      </trkpt>
      <trkpt lat="45.62781" lon="6.55133">
        <ele>2217</ele>
        <time>2025-02-20T10:20:11Z</time>
      </trkpt>
      <trkpt lat="45.62781" lon="6.55133">
        <ele>2217</ele>
        <time>2025-02-20T10:20:12Z</time>
      </trkpt>
      <trkpt lat="45.62781" lon="6.55133">
        <ele>2216.8</ele>
        <time>2025-02-20T10:20:13Z</time>
      </trkpt>
      <trkpt lat="45.62781" lon="6.55133">
        <ele>2216.8</ele>
        <time>2025-02-20T10:20:14Z</time>
      </trkpt>
      <trkpt lat="45.62781" lon="6.55133">
        <ele>2216.8</ele>
        <time>2025-02-20T10:20:15Z</time>
      </trkpt>
      <trkpt lat="45.62781" lon="6.55133">
        <ele>2216.6</ele>
        <time>2025-02-20T10:20:16Z</time>
      </trkpt>
      <trkpt lat="45.62781" lon="6.55133">
        <ele>2216.6</ele>
        <time>2025-02-20T10:20:17Z</time>
      </trkpt>
      <trkpt lat="45.62781" lon="6.55133">
        <ele>2216.6</ele>
        <time>2025-02-20T10:20:18Z</time>
      </trkpt>
      <trkpt lat="45.62781" lon="6.55133">
        <ele>2216.6</ele>
        <time>2025-02-20T10:20:19Z</time>
      </trkpt>
      <trkpt lat="45.62781" lon="6.55133">
        <ele>2216.6</ele>
        <time>2025-02-20T10:20:20Z</time>
      </trkpt>
      <trkpt lat="45.62781" lon="6.55133">
        <ele>2216.8</ele>
        <time>2025-02-20T10:20:21Z</time>
      </trkpt>
      <trkpt lat="45.62781" lon="6.55133">
        <ele>2216.8</ele>
        <time>2025-02-20T10:20:22Z</time>
      </trkpt>
      <trkpt lat="45.62781" lon="6.55133">
        <ele>2216.8</ele>
        <time>2025-02-20T10:20:23Z</time>
      </trkpt>
      <trkpt lat="45.62781" lon="6.55133">
        <ele>2216.4</ele>
        <time>2025-02-20T10:20:24Z</time>
      </trkpt>
      <trkpt lat="45.62781" lon="6.55133">
        <ele>2216.6</ele>
        <time>2025-02-20T10:20:25Z</time>
      </trkpt>
      <trkpt lat="45.62781" lon="6.55133">
        <ele>2216.6</ele>
        <time>2025-02-20T10:20:26Z</time>
      </trkpt>
      <trkpt lat="45.62781" lon="6.55133">
        <ele>2216.6</ele>
        <time>2025-02-20T10:20:27Z</time>
      </trkpt>
      <trkpt lat="45.62781" lon="6.55133">
        <ele>2216.6</ele>
        <time>2025-02-20T10:20:28Z</time>
      </trkpt>
      <trkpt lat="45.62781" lon="6.55133">
        <ele>2215.4</ele>
        <time>2025-02-20T10:20:29Z</time>
      </trkpt>
      <trkpt lat="45.62781" lon="6.55133">
        <ele>2215.4</ele>
        <time>2025-02-20T10:20:30Z</time>
      </trkpt>
      <trkpt lat="45.62781" lon="6.55133">
        <ele>2215.4</ele>
        <time>2025-02-20T10:20:31Z</time>
      </trkpt>
      <trkpt lat="45.62781" lon="6.55133">
        <ele>2216.4</ele>
        <time>2025-02-20T10:20:32Z</time>
      </trkpt>
      <trkpt lat="45.62781" lon="6.55133">
        <ele>2216.8</ele>
        <time>2025-02-20T10:20:33Z</time>
      </trkpt>
      <trkpt lat="45.62781" lon="6.55133">
        <ele>2216.8</ele>
        <time>2025-02-20T10:20:34Z</time>
      </trkpt>
      <trkpt lat="45.62781" lon="6.55133">
        <ele>2216.8</ele>
        <time>2025-02-20T10:20:35Z</time>
      </trkpt>
      <trkpt lat="45.62781" lon="6.55133">
        <ele>2216.8</ele>
        <time>2025-02-20T10:20:36Z</time>
      </trkpt>
      <trkpt lat="45.62781" lon="6.55133">
        <ele>2217.2</ele>
        <time>2025-02-20T10:20:37Z</time>
      </trkpt>
      <trkpt lat="45.62781" lon="6.55133">
        <ele>2217.2</ele>
        <time>2025-02-20T10:20:38Z</time>
      </trkpt>
      <trkpt lat="45.62781" lon="6.55133">
        <ele>2217.2</ele>
        <time>2025-02-20T10:20:39Z</time>
      </trkpt>
      <trkpt lat="45.62781" lon="6.55133">
        <ele>2217.2</ele>
        <time>2025-02-20T10:20:40Z</time>
      </trkpt>
      <trkpt lat="45.62781" lon="6.55133">
        <ele>2216.6</ele>
        <time>2025-02-20T10:20:41Z</time>
      </trkpt>
      <trkpt lat="45.62781" lon="6.55133">
        <ele>2216.6</ele>
        <time>2025-02-20T10:20:42Z</time>
      </trkpt>
      <trkpt lat="45.62781" lon="6.55133">
        <ele>2216.6</ele>
        <time>2025-02-20T10:20:43Z</time>
      </trkpt>
      <trkpt lat="45.62781" lon="6.55133">
        <ele>2216.6</ele>
        <time>2025-02-20T10:20:44Z</time>
      </trkpt>
      <trkpt lat="45.62781" lon="6.55133">
        <ele>2216.8</ele>
        <time>2025-02-20T10:20:45Z</time>
      </trkpt>
      <trkpt lat="45.62781" lon="6.55133">
        <ele>2216.8</ele>
        <time>2025-02-20T10:20:46Z</time>
      </trkpt>
      <trkpt lat="45.62781" lon="6.55133">
        <ele>2216.8</ele>
        <time>2025-02-20T10:20:47Z</time>
      </trkpt>
      <trkpt lat="45.62781" lon="6.55133">
        <ele>2216.8</ele>
        <time>2025-02-20T10:20:48Z</time>
      </trkpt>
      <trkpt lat="45.62781" lon="6.55133">
        <ele>2216.6</ele>
        <time>2025-02-20T10:20:49Z</time>
      </trkpt>
      <trkpt lat="45.62781" lon="6.55133">
        <ele>2216.6</ele>
        <time>2025-02-20T10:20:50Z</time>
      </trkpt>
      <trkpt lat="45.62781" lon="6.55133">
        <ele>2216.6</ele>
        <time>2025-02-20T10:20:51Z</time>
      </trkpt>
      <trkpt lat="45.62781" lon="6.55133">
        <ele>2216.8</ele>
        <time>2025-02-20T10:20:52Z</time>
      </trkpt>
      <trkpt lat="45.62781" lon="6.55133">
        <ele>2216.8</ele>
        <time>2025-02-20T10:20:53Z</time>
      </trkpt>
      <trkpt lat="45.62781" lon="6.55133">
        <ele>2216.8</ele>
        <time>2025-02-20T10:20:54Z</time>
      </trkpt>
      <trkpt lat="45.62781" lon="6.55133">
        <ele>2216.8</ele>
        <time>2025-02-20T10:20:55Z</time>
      </trkpt>
      <trkpt lat="45.62781" lon="6.55133">
        <ele>2216.8</ele>
        <time>2025-02-20T10:20:56Z</time>
      </trkpt>
      <trkpt lat="45.62781" lon="6.55133">
        <ele>2216.8</ele>
        <time>2025-02-20T10:20:57Z</time>
      </trkpt>
      <trkpt lat="45.62781" lon="6.55133">
        <ele>2216.8</ele>
        <time>2025-02-20T10:20:58Z</time>
      </trkpt>
      <trkpt lat="45.62781" lon="6.55133">
        <ele>2216.8</ele>
        <time>2025-02-20T10:20:59Z</time>
      </trkpt>
      <trkpt lat="45.62781" lon="6.55133">
        <ele>2216.8</ele>
        <time>2025-02-20T10:21:00Z</time>
      </trkpt>
      <trkpt lat="45.62781" lon="6.55133">
        <ele>2216.8</ele>
        <time>2025-02-20T10:21:01Z</time>
      </trkpt>
      <trkpt lat="45.62781" lon="6.55133">
        <ele>2216.8</ele>
        <time>2025-02-20T10:21:02Z</time>
      </trkpt>
      <trkpt lat="45.62781" lon="6.55133">
        <ele>2216.8</ele>
        <time>2025-02-20T10:21:03Z</time>
      </trkpt>
      <trkpt lat="45.62781" lon="6.55133">
        <ele>2215.8</ele>
        <time>2025-02-20T10:21:04Z</time>
      </trkpt>
      <trkpt lat="45.62781" lon="6.55133">
        <ele>2217.4</ele>
        <time>2025-02-20T10:21:05Z</time>
      </trkpt>
      <trkpt lat="45.62781" lon="6.55133">
        <ele>2217.4</ele>
        <time>2025-02-20T10:21:06Z</time>
      </trkpt>
      <trkpt lat="45.62781" lon="6.55133">
        <ele>2217.4</ele>
        <time>2025-02-20T10:21:07Z</time>
      </trkpt>
      <trkpt lat="45.62781" lon="6.55133">
        <ele>2216.4</ele>
        <time>2025-02-20T10:21:08Z</time>
      </trkpt>
      <trkpt lat="45.62781" lon="6.55133">
        <ele>2217.8</ele>
        <time>2025-02-20T10:21:09Z</time>
      </trkpt>
      <trkpt lat="45.62781" lon="6.55133">
        <ele>2217.8</ele>
        <time>2025-02-20T10:21:10Z</time>
      </trkpt>
      <trkpt lat="45.62781" lon="6.55133">
        <ele>2217.8</ele>
        <time>2025-02-20T10:21:11Z</time>
      </trkpt>
      <trkpt lat="45.62781" lon="6.55133">
        <ele>2216.8</ele>
        <time>2025-02-20T10:21:12Z</time>
      </trkpt>
      <trkpt lat="45.62781" lon="6.55133">
        <ele>2216.4</ele>
        <time>2025-02-20T10:21:13Z</time>
      </trkpt>
      <trkpt lat="45.62781" lon="6.55133">
        <ele>2216.4</ele>
        <time>2025-02-20T10:21:14Z</time>
      </trkpt>
      <trkpt lat="45.62781" lon="6.55133">
        <ele>2216.4</ele>
        <time>2025-02-20T10:21:15Z</time>
      </trkpt>
      <trkpt lat="45.62781" lon="6.55133">
        <ele>2216.2</ele>
        <time>2025-02-20T10:21:16Z</time>
      </trkpt>
      <trkpt lat="45.62781" lon="6.55133">
        <ele>2216.2</ele>
        <time>2025-02-20T10:21:17Z</time>
      </trkpt>
      <trkpt lat="45.62781" lon="6.55133">
        <ele>2216.2</ele>
        <time>2025-02-20T10:21:18Z</time>
      </trkpt>
      <trkpt lat="45.62781" lon="6.55133">
        <ele>2216.2</ele>
        <time>2025-02-20T10:21:19Z</time>
      </trkpt>
      <trkpt lat="45.62781" lon="6.55133">
        <ele>2216.2</ele>
        <time>2025-02-20T10:21:20Z</time>
      </trkpt>
      <trkpt lat="45.62781" lon="6.55133">
        <ele>2216.2</ele>
        <time>2025-02-20T10:21:21Z</time>
      </trkpt>
      <trkpt lat="45.62781" lon="6.55133">
        <ele>2216.2</ele>
        <time>2025-02-20T10:21:22Z</time>
      </trkpt>
      <trkpt lat="45.62781" lon="6.55133">
        <ele>2216.2</ele>
        <time>2025-02-20T10:21:23Z</time>
      </trkpt>
      <trkpt lat="45.62781" lon="6.55133">
        <ele>2216.2</ele>
        <time>2025-02-20T10:21:24Z</time>
      </trkpt>
      <trkpt lat="45.62781" lon="6.55133">
        <ele>2216</ele>
        <time>2025-02-20T10:21:25Z</time>
      </trkpt>
      <trkpt lat="45.62781" lon="6.55133">
        <ele>2216</ele>
        <time>2025-02-20T10:21:26Z</time>
      </trkpt>
      <trkpt lat="45.62781" lon="6.55133">
        <ele>2216</ele>
        <time>2025-02-20T10:21:27Z</time>
      </trkpt>
      <trkpt lat="45.62781" lon="6.55133">
        <ele>2216</ele>
        <time>2025-02-20T10:21:28Z</time>
      </trkpt>
      <trkpt lat="45.62781" lon="6.55133">
        <ele>2216.2</ele>
        <time>2025-02-20T10:21:29Z</time>
      </trkpt>
      <trkpt lat="45.62781" lon="6.55133">
        <ele>2216.2</ele>
        <time>2025-02-20T10:21:30Z</time>
      </trkpt>
      <trkpt lat="45.62781" lon="6.55133">
        <ele>2216.2</ele>
        <time>2025-02-20T10:21:31Z</time>
      </trkpt>
      <trkpt lat="45.62781" lon="6.55133">
        <ele>2216.2</ele>
        <time>2025-02-20T10:21:32Z</time>
      </trkpt>
      <trkpt lat="45.62781" lon="6.55133">
        <ele>2216.8</ele>
        <time>2025-02-20T10:21:33Z</time>
      </trkpt>
      <trkpt lat="45.62781" lon="6.55133">
        <ele>2216.8</ele>
        <time>2025-02-20T10:21:34Z</time>
      </trkpt>
      <trkpt lat="45.62781" lon="6.55133">
        <ele>2216.8</ele>
        <time>2025-02-20T10:21:35Z</time>
      </trkpt>
      <trkpt lat="45.62781" lon="6.55133">
        <ele>2216.2</ele>
        <time>2025-02-20T10:21:36Z</time>
      </trkpt>
      <trkpt lat="45.62781" lon="6.55133">
        <ele>2216.2</ele>
        <time>2025-02-20T10:21:37Z</time>
      </trkpt>
      <trkpt lat="45.62781" lon="6.55133">
        <ele>2216.2</ele>
        <time>2025-02-20T10:21:38Z</time>
      </trkpt>
      <trkpt lat="45.62781" lon="6.55133">
        <ele>2216.2</ele>
        <time>2025-02-20T10:21:39Z</time>
      </trkpt>
      <trkpt lat="45.62787" lon="6.55133">
        <ele>2216.4</ele>
        <time>2025-02-20T10:21:40Z</time>
      </trkpt>
      <trkpt lat="45.62791" lon="6.55135">
        <ele>2214.6</ele>
        <time>2025-02-20T10:21:41Z</time>
      </trkpt>
      <trkpt lat="45.62794" lon="6.55136">
        <ele>2214.6</ele>
        <time>2025-02-20T10:21:42Z</time>
      </trkpt>
      <trkpt lat="45.62797" lon="6.55139">
        <ele>2214.6</ele>
        <time>2025-02-20T10:21:43Z</time>
      </trkpt>
      <trkpt lat="45.62796" lon="6.55144">
        <ele>2214.6</ele>
        <time>2025-02-20T10:21:44Z</time>
      </trkpt>
      <trkpt lat="45.62792" lon="6.55145">
        <ele>2211.2</ele>
        <time>2025-02-20T10:21:45Z</time>
      </trkpt>
      <trkpt lat="45.62791" lon="6.55145">
        <ele>2211.2</ele>
        <time>2025-02-20T10:21:46Z</time>
      </trkpt>
      <trkpt lat="45.62791" lon="6.55145">
        <ele>2211.2</ele>
        <time>2025-02-20T10:21:47Z</time>
      </trkpt>
      <trkpt lat="45.62792" lon="6.55146">
        <ele>2211.2</ele>
        <time>2025-02-20T10:21:48Z</time>
      </trkpt>
      <trkpt lat="45.62791" lon="6.55146">
        <ele>2210.8</ele>
        <time>2025-02-20T10:21:49Z</time>
      </trkpt>
      <trkpt lat="45.62791" lon="6.55146">
        <ele>2210.8</ele>
        <time>2025-02-20T10:21:50Z</time>
      </trkpt>
      <trkpt lat="45.62791" lon="6.55146">
        <ele>2210.8</ele>
        <time>2025-02-20T10:21:51Z</time>
      </trkpt>
      <trkpt lat="45.62791" lon="6.55146">
        <ele>2210.6</ele>
        <time>2025-02-20T10:21:52Z</time>
      </trkpt>
      <trkpt lat="45.62791" lon="6.55146">
        <ele>2210.6</ele>
        <time>2025-02-20T10:21:53Z</time>
      </trkpt>
      <trkpt lat="45.62791" lon="6.55146">
        <ele>2210.6</ele>
        <time>2025-02-20T10:21:54Z</time>
      </trkpt>
      <trkpt lat="45.62791" lon="6.55146">
        <ele>2210.6</ele>
        <time>2025-02-20T10:21:55Z</time>
      </trkpt>
      <trkpt lat="45.62791" lon="6.55148">
        <ele>2210.2</ele>
        <time>2025-02-20T10:21:56Z</time>
      </trkpt>
      <trkpt lat="45.62789" lon="6.55149">
        <ele>2210.2</ele>
        <time>2025-02-20T10:21:57Z</time>
      </trkpt>
      <trkpt lat="45.62788" lon="6.5515">
        <ele>2210.2</ele>
        <time>2025-02-20T10:21:58Z</time>
      </trkpt>
      <trkpt lat="45.62787" lon="6.5515">
        <ele>2210.2</ele>
        <time>2025-02-20T10:21:59Z</time>
      </trkpt>
      <trkpt lat="45.62786" lon="6.55151">
        <ele>2209.2</ele>
        <time>2025-02-20T10:22:00Z</time>
      </trkpt>
      <trkpt lat="45.62785" lon="6.55152">
        <ele>2208.6</ele>
        <time>2025-02-20T10:22:01Z</time>
      </trkpt>
      <trkpt lat="45.62784" lon="6.55151">
        <ele>2208.6</ele>
        <time>2025-02-20T10:22:02Z</time>
      </trkpt>
      <trkpt lat="45.62784" lon="6.55152">
        <ele>2208.6</ele>
        <time>2025-02-20T10:22:03Z</time>
      </trkpt>
      <trkpt lat="45.62784" lon="6.55152">
        <ele>2207.8</ele>
        <time>2025-02-20T10:22:04Z</time>
      </trkpt>
      <trkpt lat="45.62784" lon="6.55152">
        <ele>2208</ele>
        <time>2025-02-20T10:22:05Z</time>
      </trkpt>
      <trkpt lat="45.62784" lon="6.55152">
        <ele>2208</ele>
        <time>2025-02-20T10:22:06Z</time>
      </trkpt>
      <trkpt lat="45.62784" lon="6.55152">
        <ele>2208</ele>
        <time>2025-02-20T10:22:07Z</time>
      </trkpt>
      <trkpt lat="45.62784" lon="6.55152">
        <ele>2207.4</ele>
        <time>2025-02-20T10:22:08Z</time>
      </trkpt>
      <trkpt lat="45.62782" lon="6.55152">
        <ele>2206.6</ele>
        <time>2025-02-20T10:22:09Z</time>
      </trkpt>
      <trkpt lat="45.62781" lon="6.55152">
        <ele>2206.6</ele>
        <time>2025-02-20T10:22:10Z</time>
      </trkpt>
      <trkpt lat="45.6278" lon="6.55152">
        <ele>2206.6</ele>
        <time>2025-02-20T10:22:11Z</time>
      </trkpt>
      <trkpt lat="45.62779" lon="6.55153">
        <ele>2206.2</ele>
        <time>2025-02-20T10:22:12Z</time>
      </trkpt>
      <trkpt lat="45.62778" lon="6.55153">
        <ele>2205.6</ele>
        <time>2025-02-20T10:22:13Z</time>
      </trkpt>
      <trkpt lat="45.62777" lon="6.55153">
        <ele>2205.6</ele>
        <time>2025-02-20T10:22:14Z</time>
      </trkpt>
      <trkpt lat="45.62776" lon="6.55153">
        <ele>2205.6</ele>
        <time>2025-02-20T10:22:15Z</time>
      </trkpt>
      <trkpt lat="45.62775" lon="6.55152">
        <ele>2205.6</ele>
        <time>2025-02-20T10:22:16Z</time>
      </trkpt>
      <trkpt lat="45.62775" lon="6.55152">
        <ele>2203.6</ele>
        <time>2025-02-20T10:22:17Z</time>
      </trkpt>
      <trkpt lat="45.62775" lon="6.55152">
        <ele>2203.6</ele>
        <time>2025-02-20T10:22:18Z</time>
      </trkpt>
      <trkpt lat="45.62775" lon="6.55152">
        <ele>2203.6</ele>
        <time>2025-02-20T10:22:19Z</time>
      </trkpt>
      <trkpt lat="45.62775" lon="6.55152">
        <ele>2204.6</ele>
        <time>2025-02-20T10:22:20Z</time>
      </trkpt>
      <trkpt lat="45.62775" lon="6.55152">
        <ele>2203.8</ele>
        <time>2025-02-20T10:22:21Z</time>
      </trkpt>
      <trkpt lat="45.62775" lon="6.55152">
        <ele>2203.8</ele>
        <time>2025-02-20T10:22:22Z</time>
      </trkpt>
      <trkpt lat="45.62775" lon="6.55152">
        <ele>2203.8</ele>
        <time>2025-02-20T10:22:23Z</time>
      </trkpt>
      <trkpt lat="45.62775" lon="6.55152">
        <ele>2204</ele>
        <time>2025-02-20T10:22:24Z</time>
      </trkpt>
      <trkpt lat="45.62775" lon="6.55152">
        <ele>2203.6</ele>
        <time>2025-02-20T10:22:25Z</time>
      </trkpt>
      <trkpt lat="45.62775" lon="6.55152">
        <ele>2203.6</ele>
        <time>2025-02-20T10:22:26Z</time>
      </trkpt>
      <trkpt lat="45.62775" lon="6.55152">
        <ele>2203.6</ele>
        <time>2025-02-20T10:22:27Z</time>
      </trkpt>
      <trkpt lat="45.62775" lon="6.55152">
        <ele>2204</ele>
        <time>2025-02-20T10:22:28Z</time>
      </trkpt>
      <trkpt lat="45.62775" lon="6.55152">
        <ele>2204</ele>
        <time>2025-02-20T10:22:29Z</time>
      </trkpt>
      <trkpt lat="45.62775" lon="6.55152">
        <ele>2204</ele>
        <time>2025-02-20T10:22:30Z</time>
      </trkpt>
      <trkpt lat="45.62775" lon="6.55152">
        <ele>2204</ele>
        <time>2025-02-20T10:22:31Z</time>
      </trkpt>
      <trkpt lat="45.62775" lon="6.55152">
        <ele>2203.6</ele>
        <time>2025-02-20T10:22:32Z</time>
      </trkpt>
      <trkpt lat="45.62775" lon="6.55152">
        <ele>2203.4</ele>
        <time>2025-02-20T10:22:33Z</time>
      </trkpt>
      <trkpt lat="45.62775" lon="6.55152">
        <ele>2203.4</ele>
        <time>2025-02-20T10:22:34Z</time>
      </trkpt>
      <trkpt lat="45.62775" lon="6.55152">
        <ele>2203.4</ele>
        <time>2025-02-20T10:22:35Z</time>
      </trkpt>
      <trkpt lat="45.62775" lon="6.55152">
        <ele>2204.2</ele>
        <time>2025-02-20T10:22:36Z</time>
      </trkpt>
      <trkpt lat="45.62775" lon="6.55152">
        <ele>2204</ele>
        <time>2025-02-20T10:22:37Z</time>
      </trkpt>
      <trkpt lat="45.62775" lon="6.55152">
        <ele>2204</ele>
        <time>2025-02-20T10:22:38Z</time>
      </trkpt>
      <trkpt lat="45.62775" lon="6.55152">
        <ele>2204</ele>
        <time>2025-02-20T10:22:39Z</time>
      </trkpt>
      <trkpt lat="45.62775" lon="6.55152">
        <ele>2204</ele>
        <time>2025-02-20T10:22:40Z</time>
      </trkpt>
      <trkpt lat="45.62775" lon="6.55152">
        <ele>2203.8</ele>
        <time>2025-02-20T10:22:41Z</time>
      </trkpt>
      <trkpt lat="45.62775" lon="6.55152">
        <ele>2203.8</ele>
        <time>2025-02-20T10:22:42Z</time>
      </trkpt>
      <trkpt lat="45.62775" lon="6.55152">
        <ele>2203.8</ele>
        <time>2025-02-20T10:22:43Z</time>
      </trkpt>
      <trkpt lat="45.62775" lon="6.55152">
        <ele>2203.8</ele>
        <time>2025-02-20T10:22:44Z</time>
      </trkpt>
      <trkpt lat="45.62775" lon="6.55152">
        <ele>2204</ele>
        <time>2025-02-20T10:22:45Z</time>
      </trkpt>
      <trkpt lat="45.62775" lon="6.55152">
        <ele>2204</ele>
        <time>2025-02-20T10:22:46Z</time>
      </trkpt>
      <trkpt lat="45.62775" lon="6.55152">
        <ele>2204</ele>
        <time>2025-02-20T10:22:47Z</time>
      </trkpt>
      <trkpt lat="45.62775" lon="6.55152">
        <ele>2204</ele>
        <time>2025-02-20T10:22:48Z</time>
      </trkpt>
      <trkpt lat="45.62775" lon="6.55152">
        <ele>2204</ele>
        <time>2025-02-20T10:22:49Z</time>
      </trkpt>
      <trkpt lat="45.62775" lon="6.55152">
        <ele>2204</ele>
        <time>2025-02-20T10:22:50Z</time>
      </trkpt>
      <trkpt lat="45.62775" lon="6.55152">
        <ele>2204</ele>
        <time>2025-02-20T10:22:51Z</time>
      </trkpt>
      <trkpt lat="45.62775" lon="6.55152">
        <ele>2204</ele>
        <time>2025-02-20T10:22:52Z</time>
      </trkpt>
      <trkpt lat="45.62775" lon="6.55152">
        <ele>2204.2</ele>
        <time>2025-02-20T10:22:53Z</time>
      </trkpt>
      <trkpt lat="45.62775" lon="6.55152">
        <ele>2204.2</ele>
        <time>2025-02-20T10:22:54Z</time>
      </trkpt>
      <trkpt lat="45.62775" lon="6.55152">
        <ele>2204.2</ele>
        <time>2025-02-20T10:22:55Z</time>
      </trkpt>
      <trkpt lat="45.62775" lon="6.55152">
        <ele>2203.6</ele>
        <time>2025-02-20T10:22:56Z</time>
      </trkpt>
      <trkpt lat="45.62775" lon="6.55152">
        <ele>2202.8</ele>
        <time>2025-02-20T10:22:57Z</time>
      </trkpt>
      <trkpt lat="45.62775" lon="6.55152">
        <ele>2202.8</ele>
        <time>2025-02-20T10:22:58Z</time>
      </trkpt>
      <trkpt lat="45.62775" lon="6.55152">
        <ele>2202.8</ele>
        <time>2025-02-20T10:22:59Z</time>
      </trkpt>
      <trkpt lat="45.62775" lon="6.55152">
        <ele>2203.6</ele>
        <time>2025-02-20T10:23:00Z</time>
      </trkpt>
      <trkpt lat="45.62775" lon="6.55152">
        <ele>2204</ele>
        <time>2025-02-20T10:23:01Z</time>
      </trkpt>
      <trkpt lat="45.62775" lon="6.55152">
        <ele>2204</ele>
        <time>2025-02-20T10:23:02Z</time>
      </trkpt>
      <trkpt lat="45.62775" lon="6.55152">
        <ele>2204</ele>
        <time>2025-02-20T10:23:03Z</time>
      </trkpt>
      <trkpt lat="45.62775" lon="6.55152">
        <ele>2203.4</ele>
        <time>2025-02-20T10:23:04Z</time>
      </trkpt>
      <trkpt lat="45.62775" lon="6.55152">
        <ele>2203.4</ele>
        <time>2025-02-20T10:23:05Z</time>
      </trkpt>
      <trkpt lat="45.62775" lon="6.55152">
        <ele>2203.4</ele>
        <time>2025-02-20T10:23:06Z</time>
      </trkpt>
      <trkpt lat="45.62775" lon="6.55152">
        <ele>2203.4</ele>
        <time>2025-02-20T10:23:07Z</time>
      </trkpt>
      <trkpt lat="45.62775" lon="6.55152">
        <ele>2203.4</ele>
        <time>2025-02-20T10:23:08Z</time>
      </trkpt>
      <trkpt lat="45.62775" lon="6.55152">
        <ele>2203.8</ele>
        <time>2025-02-20T10:23:09Z</time>
      </trkpt>
      <trkpt lat="45.62775" lon="6.55152">
        <ele>2203.8</ele>
        <time>2025-02-20T10:23:10Z</time>
      </trkpt>
      <trkpt lat="45.62775" lon="6.55152">
        <ele>2203.8</ele>
        <time>2025-02-20T10:23:11Z</time>
      </trkpt>
      <trkpt lat="45.62774" lon="6.55152">
        <ele>2203.6</ele>
        <time>2025-02-20T10:23:12Z</time>
      </trkpt>
      <trkpt lat="45.62773" lon="6.55152">
        <ele>2202.8</ele>
        <time>2025-02-20T10:23:13Z</time>
      </trkpt>
      <trkpt lat="45.62771" lon="6.55152">
        <ele>2202.8</ele>
        <time>2025-02-20T10:23:14Z</time>
      </trkpt>
      <trkpt lat="45.62768" lon="6.55151">
        <ele>2202.8</ele>
        <time>2025-02-20T10:23:15Z</time>
      </trkpt>
      <trkpt lat="45.62765" lon="6.5515">
        <ele>2202.8</ele>
        <time>2025-02-20T10:23:16Z</time>
      </trkpt>
      <trkpt lat="45.62762" lon="6.55149">
        <ele>2200.8</ele>
        <time>2025-02-20T10:23:17Z</time>
      </trkpt>
      <trkpt lat="45.62759" lon="6.55147">
        <ele>2200.8</ele>
        <time>2025-02-20T10:23:18Z</time>
      </trkpt>
      <trkpt lat="45.62757" lon="6.55145">
        <ele>2200.8</ele>
        <time>2025-02-20T10:23:19Z</time>
      </trkpt>
      <trkpt lat="45.62755" lon="6.55145">
        <ele>2199.8</ele>
        <time>2025-02-20T10:23:20Z</time>
      </trkpt>
      <trkpt lat="45.62754" lon="6.55145">
        <ele>2198.2</ele>
        <time>2025-02-20T10:23:21Z</time>
      </trkpt>
      <trkpt lat="45.62753" lon="6.55145">
        <ele>2198.2</ele>
        <time>2025-02-20T10:23:22Z</time>
      </trkpt>
      <trkpt lat="45.62752" lon="6.55145">
        <ele>2198.2</ele>
        <time>2025-02-20T10:23:23Z</time>
      </trkpt>
      <trkpt lat="45.6275" lon="6.55147">
        <ele>2197.2</ele>
        <time>2025-02-20T10:23:24Z</time>
      </trkpt>
      <trkpt lat="45.62751" lon="6.5515">
        <ele>2192.8</ele>
        <time>2025-02-20T10:23:25Z</time>
      </trkpt>
      <trkpt lat="45.62752" lon="6.55152">
        <ele>2192.8</ele>
        <time>2025-02-20T10:23:26Z</time>
      </trkpt>
      <trkpt lat="45.62752" lon="6.55152">
        <ele>2192.8</ele>
        <time>2025-02-20T10:23:27Z</time>
      </trkpt>
      <trkpt lat="45.62751" lon="6.55151">
        <ele>2193.4</ele>
        <time>2025-02-20T10:23:28Z</time>
      </trkpt>
      <trkpt lat="45.6275" lon="6.5515">
        <ele>2192.6</ele>
        <time>2025-02-20T10:23:29Z</time>
      </trkpt>
      <trkpt lat="45.6275" lon="6.5515">
        <ele>2192.6</ele>
        <time>2025-02-20T10:23:30Z</time>
      </trkpt>
      <trkpt lat="45.6275" lon="6.5515">
        <ele>2192.6</ele>
        <time>2025-02-20T10:23:31Z</time>
      </trkpt>
      <trkpt lat="45.62749" lon="6.5515">
        <ele>2192.6</ele>
        <time>2025-02-20T10:23:32Z</time>
      </trkpt>
      <trkpt lat="45.62749" lon="6.5515">
        <ele>2192.6</ele>
        <time>2025-02-20T10:23:33Z</time>
      </trkpt>
      <trkpt lat="45.62749" lon="6.5515">
        <ele>2192.6</ele>
        <time>2025-02-20T10:23:34Z</time>
      </trkpt>
      <trkpt lat="45.62749" lon="6.5515">
        <ele>2192.6</ele>
        <time>2025-02-20T10:23:35Z</time>
      </trkpt>
      <trkpt lat="45.62749" lon="6.5515">
        <ele>2191.8</ele>
        <time>2025-02-20T10:23:36Z</time>
      </trkpt>
      <trkpt lat="45.62749" lon="6.5515">
        <ele>2191.8</ele>
        <time>2025-02-20T10:23:37Z</time>
      </trkpt>
      <trkpt lat="45.62749" lon="6.5515">
        <ele>2191.8</ele>
        <time>2025-02-20T10:23:38Z</time>
      </trkpt>
      <trkpt lat="45.62749" lon="6.5515">
        <ele>2191.8</ele>
        <time>2025-02-20T10:23:39Z</time>
      </trkpt>
      <trkpt lat="45.62749" lon="6.5515">
        <ele>2191.8</ele>
        <time>2025-02-20T10:23:40Z</time>
      </trkpt>
      <trkpt lat="45.62749" lon="6.5515">
        <ele>2192</ele>
        <time>2025-02-20T10:23:41Z</time>
      </trkpt>
      <trkpt lat="45.62749" lon="6.55152">
        <ele>2192</ele>
        <time>2025-02-20T10:23:42Z</time>
      </trkpt>
      <trkpt lat="45.6275" lon="6.55154">
        <ele>2192</ele>
        <time>2025-02-20T10:23:43Z</time>
      </trkpt>
      <trkpt lat="45.6275" lon="6.55155">
        <ele>2191.2</ele>
        <time>2025-02-20T10:23:44Z</time>
      </trkpt>
      <trkpt lat="45.6275" lon="6.55154">
        <ele>2190.2</ele>
        <time>2025-02-20T10:23:45Z</time>
      </trkpt>
      <trkpt lat="45.62749" lon="6.55154">
        <ele>2190.2</ele>
        <time>2025-02-20T10:23:46Z</time>
      </trkpt>
      <trkpt lat="45.62749" lon="6.55154">
        <ele>2190.2</ele>
        <time>2025-02-20T10:23:47Z</time>
      </trkpt>
      <trkpt lat="45.62749" lon="6.55155">
        <ele>2190.2</ele>
        <time>2025-02-20T10:23:48Z</time>
      </trkpt>
      <trkpt lat="45.62749" lon="6.55155">
        <ele>2188.4</ele>
        <time>2025-02-20T10:23:49Z</time>
      </trkpt>
      <trkpt lat="45.62748" lon="6.55154">
        <ele>2188.4</ele>
        <time>2025-02-20T10:23:50Z</time>
      </trkpt>
      <trkpt lat="45.62748" lon="6.55155">
        <ele>2188.4</ele>
        <time>2025-02-20T10:23:51Z</time>
      </trkpt>
      <trkpt lat="45.62748" lon="6.55155">
        <ele>2189.4</ele>
        <time>2025-02-20T10:23:52Z</time>
      </trkpt>
      <trkpt lat="45.62748" lon="6.55156">
        <ele>2189.4</ele>
        <time>2025-02-20T10:23:53Z</time>
      </trkpt>
      <trkpt lat="45.62748" lon="6.55158">
        <ele>2189.4</ele>
        <time>2025-02-20T10:23:54Z</time>
      </trkpt>
      <trkpt lat="45.62749" lon="6.5516">
        <ele>2189.4</ele>
        <time>2025-02-20T10:23:55Z</time>
      </trkpt>
      <trkpt lat="45.6275" lon="6.55161">
        <ele>2188.8</ele>
        <time>2025-02-20T10:23:56Z</time>
      </trkpt>
      <trkpt lat="45.6275" lon="6.55163">
        <ele>2185.8</ele>
        <time>2025-02-20T10:23:57Z</time>
      </trkpt>
      <trkpt lat="45.62747" lon="6.55164">
        <ele>2185.8</ele>
        <time>2025-02-20T10:23:58Z</time>
      </trkpt>
      <trkpt lat="45.62742" lon="6.55163">
        <ele>2185.8</ele>
        <time>2025-02-20T10:23:59Z</time>
      </trkpt>
      <trkpt lat="45.62741" lon="6.55162">
        <ele>2184.8</ele>
        <time>2025-02-20T10:24:00Z</time>
      </trkpt>
      <trkpt lat="45.6274" lon="6.55162">
        <ele>2183.6</ele>
        <time>2025-02-20T10:24:01Z</time>
      </trkpt>
      <trkpt lat="45.62741" lon="6.55163">
        <ele>2183.6</ele>
        <time>2025-02-20T10:24:02Z</time>
      </trkpt>
      <trkpt lat="45.62741" lon="6.55163">
        <ele>2183.6</ele>
        <time>2025-02-20T10:24:03Z</time>
      </trkpt>
      <trkpt lat="45.62741" lon="6.55163">
        <ele>2182.6</ele>
        <time>2025-02-20T10:24:04Z</time>
      </trkpt>
      <trkpt lat="45.62741" lon="6.55163">
        <ele>2182.2</ele>
        <time>2025-02-20T10:24:05Z</time>
      </trkpt>
      <trkpt lat="45.62741" lon="6.55163">
        <ele>2182.2</ele>
        <time>2025-02-20T10:24:06Z</time>
      </trkpt>
      <trkpt lat="45.62741" lon="6.55164">
        <ele>2182.2</ele>
        <time>2025-02-20T10:24:07Z</time>
      </trkpt>
      <trkpt lat="45.6274" lon="6.55167">
        <ele>2182.2</ele>
        <time>2025-02-20T10:24:08Z</time>
      </trkpt>
      <trkpt lat="45.62741" lon="6.55174">
        <ele>2179.4</ele>
        <time>2025-02-20T10:24:09Z</time>
      </trkpt>
      <trkpt lat="45.62743" lon="6.55177">
        <ele>2179.4</ele>
        <time>2025-02-20T10:24:10Z</time>
      </trkpt>
      <trkpt lat="45.62744" lon="6.55179">
        <ele>2179.4</ele>
        <time>2025-02-20T10:24:11Z</time>
      </trkpt>
      <trkpt lat="45.62744" lon="6.5518">
        <ele>2179.4</ele>
        <time>2025-02-20T10:24:12Z</time>
      </trkpt>
      <trkpt lat="45.62744" lon="6.55181">
        <ele>2176.8</ele>
        <time>2025-02-20T10:24:13Z</time>
      </trkpt>
      <trkpt lat="45.62741" lon="6.55185">
        <ele>2176.8</ele>
        <time>2025-02-20T10:24:14Z</time>
      </trkpt>
      <trkpt lat="45.62737" lon="6.55184">
        <ele>2176.8</ele>
        <time>2025-02-20T10:24:15Z</time>
      </trkpt>
      <trkpt lat="45.62734" lon="6.55182">
        <ele>2176.8</ele>
        <time>2025-02-20T10:24:16Z</time>
      </trkpt>
      <trkpt lat="45.62733" lon="6.55181">
        <ele>2172.2</ele>
        <time>2025-02-20T10:24:17Z</time>
      </trkpt>
      <trkpt lat="45.62731" lon="6.55183">
        <ele>2172.2</ele>
        <time>2025-02-20T10:24:18Z</time>
      </trkpt>
      <trkpt lat="45.62732" lon="6.55188">
        <ele>2172.2</ele>
        <time>2025-02-20T10:24:19Z</time>
      </trkpt>
      <trkpt lat="45.62733" lon="6.55191">
        <ele>2171.2</ele>
        <time>2025-02-20T10:24:20Z</time>
      </trkpt>
      <trkpt lat="45.62734" lon="6.55192">
        <ele>2168.8</ele>
        <time>2025-02-20T10:24:21Z</time>
      </trkpt>
      <trkpt lat="45.62734" lon="6.55192">
        <ele>2168.8</ele>
        <time>2025-02-20T10:24:22Z</time>
      </trkpt>
      <trkpt lat="45.62734" lon="6.55192">
        <ele>2168.8</ele>
        <time>2025-02-20T10:24:23Z</time>
      </trkpt>
      <trkpt lat="45.62734" lon="6.55192">
        <ele>2167.8</ele>
        <time>2025-02-20T10:24:24Z</time>
      </trkpt>
      <trkpt lat="45.62734" lon="6.55192">
        <ele>2166</ele>
        <time>2025-02-20T10:24:25Z</time>
      </trkpt>
      <trkpt lat="45.62732" lon="6.55195">
        <ele>2166</ele>
        <time>2025-02-20T10:24:26Z</time>
      </trkpt>
      <trkpt lat="45.62728" lon="6.55195">
        <ele>2166</ele>
        <time>2025-02-20T10:24:27Z</time>
      </trkpt>
      <trkpt lat="45.62724" lon="6.55193">
        <ele>2166</ele>
        <time>2025-02-20T10:24:28Z</time>
      </trkpt>
      <trkpt lat="45.62721" lon="6.5519">
        <ele>2163.2</ele>
        <time>2025-02-20T10:24:29Z</time>
      </trkpt>
      <trkpt lat="45.62719" lon="6.55189">
        <ele>2163.2</ele>
        <time>2025-02-20T10:24:30Z</time>
      </trkpt>
      <trkpt lat="45.62718" lon="6.55187">
        <ele>2163.2</ele>
        <time>2025-02-20T10:24:31Z</time>
      </trkpt>
      <trkpt lat="45.62716" lon="6.55186">
        <ele>2162.2</ele>
        <time>2025-02-20T10:24:32Z</time>
      </trkpt>
      <trkpt lat="45.62714" lon="6.55186">
        <ele>2160.2</ele>
        <time>2025-02-20T10:24:33Z</time>
      </trkpt>
      <trkpt lat="45.62712" lon="6.55185">
        <ele>2160.2</ele>
        <time>2025-02-20T10:24:34Z</time>
      </trkpt>
      <trkpt lat="45.62712" lon="6.55191">
        <ele>2160.2</ele>
        <time>2025-02-20T10:24:35Z</time>
      </trkpt>
      <trkpt lat="45.62714" lon="6.55195">
        <ele>2159.2</ele>
        <time>2025-02-20T10:24:36Z</time>
      </trkpt>
      <trkpt lat="45.62715" lon="6.55198">
        <ele>2156.8</ele>
        <time>2025-02-20T10:24:37Z</time>
      </trkpt>
      <trkpt lat="45.62716" lon="6.55201">
        <ele>2156.8</ele>
        <time>2025-02-20T10:24:38Z</time>
      </trkpt>
      <trkpt lat="45.62716" lon="6.55205">
        <ele>2156.8</ele>
        <time>2025-02-20T10:24:39Z</time>
      </trkpt>
      <trkpt lat="45.62713" lon="6.55209">
        <ele>2155.8</ele>
        <time>2025-02-20T10:24:40Z</time>
      </trkpt>
      <trkpt lat="45.62707" lon="6.55207">
        <ele>2151.4</ele>
        <time>2025-02-20T10:24:41Z</time>
      </trkpt>
      <trkpt lat="45.62704" lon="6.55204">
        <ele>2151.4</ele>
        <time>2025-02-20T10:24:42Z</time>
      </trkpt>
      <trkpt lat="45.62701" lon="6.55201">
        <ele>2151.4</ele>
        <time>2025-02-20T10:24:43Z</time>
      </trkpt>
      <trkpt lat="45.62698" lon="6.552">
        <ele>2150.4</ele>
        <time>2025-02-20T10:24:44Z</time>
      </trkpt>
      <trkpt lat="45.62696" lon="6.55203">
        <ele>2146.2</ele>
        <time>2025-02-20T10:24:45Z</time>
      </trkpt>
      <trkpt lat="45.62697" lon="6.55208">
        <ele>2146.2</ele>
        <time>2025-02-20T10:24:46Z</time>
      </trkpt>
      <trkpt lat="45.62699" lon="6.55211">
        <ele>2146.2</ele>
        <time>2025-02-20T10:24:47Z</time>
      </trkpt>
      <trkpt lat="45.62698" lon="6.55217">
        <ele>2145.2</ele>
        <time>2025-02-20T10:24:48Z</time>
      </trkpt>
      <trkpt lat="45.62693" lon="6.5522">
        <ele>2142</ele>
        <time>2025-02-20T10:24:49Z</time>
      </trkpt>
      <trkpt lat="45.62687" lon="6.55219">
        <ele>2142</ele>
        <time>2025-02-20T10:24:50Z</time>
      </trkpt>
      <trkpt lat="45.62682" lon="6.55216">
        <ele>2142</ele>
        <time>2025-02-20T10:24:51Z</time>
      </trkpt>
      <trkpt lat="45.62679" lon="6.55213">
        <ele>2141</ele>
        <time>2025-02-20T10:24:52Z</time>
      </trkpt>
      <trkpt lat="45.62676" lon="6.55212">
        <ele>2136.8</ele>
        <time>2025-02-20T10:24:53Z</time>
      </trkpt>
      <trkpt lat="45.62675" lon="6.55211">
        <ele>2136.8</ele>
        <time>2025-02-20T10:24:54Z</time>
      </trkpt>
      <trkpt lat="45.62673" lon="6.55211">
        <ele>2136.8</ele>
        <time>2025-02-20T10:24:55Z</time>
      </trkpt>
      <trkpt lat="45.6267" lon="6.55212">
        <ele>2136.8</ele>
        <time>2025-02-20T10:24:56Z</time>
      </trkpt>
      <trkpt lat="45.62669" lon="6.55217">
        <ele>2135.4</ele>
        <time>2025-02-20T10:24:57Z</time>
      </trkpt>
      <trkpt lat="45.6267" lon="6.55223">
        <ele>2135.4</ele>
        <time>2025-02-20T10:24:58Z</time>
      </trkpt>
      <trkpt lat="45.62672" lon="6.55225">
        <ele>2135.4</ele>
        <time>2025-02-20T10:24:59Z</time>
      </trkpt>
      <trkpt lat="45.62673" lon="6.55227">
        <ele>2134.4</ele>
        <time>2025-02-20T10:25:00Z</time>
      </trkpt>
      <trkpt lat="45.62674" lon="6.55229">
        <ele>2131.2</ele>
        <time>2025-02-20T10:25:01Z</time>
      </trkpt>
      <trkpt lat="45.62675" lon="6.55232">
        <ele>2131.2</ele>
        <time>2025-02-20T10:25:02Z</time>
      </trkpt>
      <trkpt lat="45.62674" lon="6.55237">
        <ele>2131.2</ele>
        <time>2025-02-20T10:25:03Z</time>
      </trkpt>
      <trkpt lat="45.62669" lon="6.55241">
        <ele>2130.2</ele>
        <time>2025-02-20T10:25:04Z</time>
      </trkpt>
      <trkpt lat="45.62664" lon="6.55241">
        <ele>2126.8</ele>
        <time>2025-02-20T10:25:05Z</time>
      </trkpt>
      <trkpt lat="45.6266" lon="6.55239">
        <ele>2126.8</ele>
        <time>2025-02-20T10:25:06Z</time>
      </trkpt>
      <trkpt lat="45.62658" lon="6.55239">
        <ele>2126.8</ele>
        <time>2025-02-20T10:25:07Z</time>
      </trkpt>
      <trkpt lat="45.62657" lon="6.55239">
        <ele>2125.8</ele>
        <time>2025-02-20T10:25:08Z</time>
      </trkpt>
      <trkpt lat="45.62656" lon="6.55239">
        <ele>2124.6</ele>
        <time>2025-02-20T10:25:09Z</time>
      </trkpt>
      <trkpt lat="45.62656" lon="6.55239">
        <ele>2124.6</ele>
        <time>2025-02-20T10:25:10Z</time>
      </trkpt>
      <trkpt lat="45.62655" lon="6.55239">
        <ele>2124.6</ele>
        <time>2025-02-20T10:25:11Z</time>
      </trkpt>
      <trkpt lat="45.62655" lon="6.55239">
        <ele>2124.6</ele>
        <time>2025-02-20T10:25:12Z</time>
      </trkpt>
      <trkpt lat="45.62655" lon="6.55239">
        <ele>2124.6</ele>
        <time>2025-02-20T10:25:13Z</time>
      </trkpt>
      <trkpt lat="45.62655" lon="6.55239">
        <ele>2124.6</ele>
        <time>2025-02-20T10:25:14Z</time>
      </trkpt>
      <trkpt lat="45.62655" lon="6.55239">
        <ele>2124.6</ele>
        <time>2025-02-20T10:25:15Z</time>
      </trkpt>
      <trkpt lat="45.62655" lon="6.55239">
        <ele>2124.6</ele>
        <time>2025-02-20T10:25:16Z</time>
      </trkpt>
      <trkpt lat="45.62655" lon="6.55239">
        <ele>2124.6</ele>
        <time>2025-02-20T10:25:17Z</time>
      </trkpt>
      <trkpt lat="45.62655" lon="6.55239">
        <ele>2124.6</ele>
        <time>2025-02-20T10:25:18Z</time>
      </trkpt>
      <trkpt lat="45.62655" lon="6.55239">
        <ele>2124.6</ele>
        <time>2025-02-20T10:25:19Z</time>
      </trkpt>
      <trkpt lat="45.62655" lon="6.55239">
        <ele>2124.6</ele>
        <time>2025-02-20T10:25:20Z</time>
      </trkpt>
      <trkpt lat="45.62655" lon="6.55239">
        <ele>2124.6</ele>
        <time>2025-02-20T10:25:21Z</time>
      </trkpt>
      <trkpt lat="45.62655" lon="6.55239">
        <ele>2124.6</ele>
        <time>2025-02-20T10:25:22Z</time>
      </trkpt>
      <trkpt lat="45.62655" lon="6.55239">
        <ele>2124.6</ele>
        <time>2025-02-20T10:25:23Z</time>
      </trkpt>
      <trkpt lat="45.62655" lon="6.55239">
        <ele>2124.6</ele>
        <time>2025-02-20T10:25:24Z</time>
      </trkpt>
      <trkpt lat="45.62655" lon="6.55239">
        <ele>2124.4</ele>
        <time>2025-02-20T10:25:25Z</time>
      </trkpt>
      <trkpt lat="45.62655" lon="6.55239">
        <ele>2124.4</ele>
        <time>2025-02-20T10:25:26Z</time>
      </trkpt>
      <trkpt lat="45.62655" lon="6.55239">
        <ele>2124.4</ele>
        <time>2025-02-20T10:25:27Z</time>
      </trkpt>
      <trkpt lat="45.62655" lon="6.55239">
        <ele>2124.4</ele>
        <time>2025-02-20T10:25:28Z</time>
      </trkpt>
      <trkpt lat="45.62655" lon="6.55239">
        <ele>2124.8</ele>
        <time>2025-02-20T10:25:29Z</time>
      </trkpt>
      <trkpt lat="45.62655" lon="6.55239">
        <ele>2124.8</ele>
        <time>2025-02-20T10:25:30Z</time>
      </trkpt>
      <trkpt lat="45.62655" lon="6.55239">
        <ele>2124.8</ele>
        <time>2025-02-20T10:25:31Z</time>
      </trkpt>
      <trkpt lat="45.62655" lon="6.55239">
        <ele>2124.6</ele>
        <time>2025-02-20T10:25:32Z</time>
      </trkpt>
      <trkpt lat="45.62655" lon="6.55239">
        <ele>2124.4</ele>
        <time>2025-02-20T10:25:33Z</time>
      </trkpt>
      <trkpt lat="45.62655" lon="6.55239">
        <ele>2124.4</ele>
        <time>2025-02-20T10:25:34Z</time>
      </trkpt>
      <trkpt lat="45.62655" lon="6.55239">
        <ele>2124.4</ele>
        <time>2025-02-20T10:25:35Z</time>
      </trkpt>
      <trkpt lat="45.62655" lon="6.55239">
        <ele>2124.8</ele>
        <time>2025-02-20T10:25:36Z</time>
      </trkpt>
      <trkpt lat="45.62655" lon="6.55239">
        <ele>2124.8</ele>
        <time>2025-02-20T10:25:37Z</time>
      </trkpt>
      <trkpt lat="45.62655" lon="6.55239">
        <ele>2124.8</ele>
        <time>2025-02-20T10:25:38Z</time>
      </trkpt>
      <trkpt lat="45.62655" lon="6.55239">
        <ele>2124.8</ele>
        <time>2025-02-20T10:25:39Z</time>
      </trkpt>
      <trkpt lat="45.62655" lon="6.55239">
        <ele>2124.8</ele>
        <time>2025-02-20T10:25:40Z</time>
      </trkpt>
      <trkpt lat="45.62655" lon="6.55239">
        <ele>2123.8</ele>
        <time>2025-02-20T10:25:41Z</time>
      </trkpt>
      <trkpt lat="45.62655" lon="6.55239">
        <ele>2123.8</ele>
        <time>2025-02-20T10:25:42Z</time>
      </trkpt>
      <trkpt lat="45.62655" lon="6.55239">
        <ele>2123.8</ele>
        <time>2025-02-20T10:25:43Z</time>
      </trkpt>
      <trkpt lat="45.62655" lon="6.55239">
        <ele>2123.8</ele>
        <time>2025-02-20T10:25:44Z</time>
      </trkpt>
      <trkpt lat="45.62655" lon="6.55239">
        <ele>2124</ele>
        <time>2025-02-20T10:25:45Z</time>
      </trkpt>
      <trkpt lat="45.62655" lon="6.55239">
        <ele>2124</ele>
        <time>2025-02-20T10:25:46Z</time>
      </trkpt>
      <trkpt lat="45.62655" lon="6.55239">
        <ele>2124</ele>
        <time>2025-02-20T10:25:47Z</time>
      </trkpt>
      <trkpt lat="45.62655" lon="6.55239">
        <ele>2124</ele>
        <time>2025-02-20T10:25:48Z</time>
      </trkpt>
      <trkpt lat="45.62655" lon="6.55239">
        <ele>2124</ele>
        <time>2025-02-20T10:25:49Z</time>
      </trkpt>
      <trkpt lat="45.62655" lon="6.55239">
        <ele>2124</ele>
        <time>2025-02-20T10:25:50Z</time>
      </trkpt>
      <trkpt lat="45.62655" lon="6.55239">
        <ele>2124</ele>
        <time>2025-02-20T10:25:51Z</time>
      </trkpt>
      <trkpt lat="45.62655" lon="6.55239">
        <ele>2124</ele>
        <time>2025-02-20T10:25:52Z</time>
      </trkpt>
      <trkpt lat="45.62655" lon="6.55239">
        <ele>2124.4</ele>
        <time>2025-02-20T10:25:53Z</time>
      </trkpt>
      <trkpt lat="45.62655" lon="6.55239">
        <ele>2124.4</ele>
        <time>2025-02-20T10:25:54Z</time>
      </trkpt>
      <trkpt lat="45.62655" lon="6.55239">
        <ele>2124.4</ele>
        <time>2025-02-20T10:25:55Z</time>
      </trkpt>
      <trkpt lat="45.62655" lon="6.55239">
        <ele>2124</ele>
        <time>2025-02-20T10:25:56Z</time>
      </trkpt>
      <trkpt lat="45.62655" lon="6.55239">
        <ele>2124</ele>
        <time>2025-02-20T10:25:57Z</time>
      </trkpt>
      <trkpt lat="45.62655" lon="6.55239">
        <ele>2124</ele>
        <time>2025-02-20T10:25:58Z</time>
      </trkpt>
      <trkpt lat="45.62655" lon="6.55239">
        <ele>2124</ele>
        <time>2025-02-20T10:25:59Z</time>
      </trkpt>
      <trkpt lat="45.62655" lon="6.55239">
        <ele>2124</ele>
        <time>2025-02-20T10:26:00Z</time>
      </trkpt>
      <trkpt lat="45.62655" lon="6.55239">
        <ele>2124.2</ele>
        <time>2025-02-20T10:26:01Z</time>
      </trkpt>
      <trkpt lat="45.62655" lon="6.55239">
        <ele>2124.2</ele>
        <time>2025-02-20T10:26:02Z</time>
      </trkpt>
      <trkpt lat="45.62655" lon="6.55239">
        <ele>2124.2</ele>
        <time>2025-02-20T10:26:03Z</time>
      </trkpt>
      <trkpt lat="45.62655" lon="6.55239">
        <ele>2124.2</ele>
        <time>2025-02-20T10:26:04Z</time>
      </trkpt>
      <trkpt lat="45.62655" lon="6.55239">
        <ele>2124.2</ele>
        <time>2025-02-20T10:26:05Z</time>
      </trkpt>
      <trkpt lat="45.62655" lon="6.55239">
        <ele>2124.2</ele>
        <time>2025-02-20T10:26:06Z</time>
      </trkpt>
      <trkpt lat="45.62655" lon="6.55239">
        <ele>2124.2</ele>
        <time>2025-02-20T10:26:07Z</time>
      </trkpt>
      <trkpt lat="45.62655" lon="6.55239">
        <ele>2124.2</ele>
        <time>2025-02-20T10:26:08Z</time>
      </trkpt>
      <trkpt lat="45.62655" lon="6.55239">
        <ele>2123.8</ele>
        <time>2025-02-20T10:26:09Z</time>
      </trkpt>
      <trkpt lat="45.62655" lon="6.55239">
        <ele>2123.8</ele>
        <time>2025-02-20T10:26:10Z</time>
      </trkpt>
      <trkpt lat="45.62655" lon="6.55239">
        <ele>2123.8</ele>
        <time>2025-02-20T10:26:11Z</time>
      </trkpt>
      <trkpt lat="45.62655" lon="6.55239">
        <ele>2123.8</ele>
        <time>2025-02-20T10:26:12Z</time>
      </trkpt>
      <trkpt lat="45.62655" lon="6.55239">
        <ele>2124.4</ele>
        <time>2025-02-20T10:26:13Z</time>
      </trkpt>
      <trkpt lat="45.62655" lon="6.55239">
        <ele>2124.4</ele>
        <time>2025-02-20T10:26:14Z</time>
      </trkpt>
      <trkpt lat="45.62655" lon="6.55239">
        <ele>2124.4</ele>
        <time>2025-02-20T10:26:15Z</time>
      </trkpt>
      <trkpt lat="45.62655" lon="6.55239">
        <ele>2124.4</ele>
        <time>2025-02-20T10:26:16Z</time>
      </trkpt>
      <trkpt lat="45.62655" lon="6.55239">
        <ele>2124.8</ele>
        <time>2025-02-20T10:26:17Z</time>
      </trkpt>
      <trkpt lat="45.62655" lon="6.55239">
        <ele>2124.8</ele>
        <time>2025-02-20T10:26:18Z</time>
      </trkpt>
      <trkpt lat="45.62655" lon="6.55239">
        <ele>2124.8</ele>
        <time>2025-02-20T10:26:19Z</time>
      </trkpt>
      <trkpt lat="45.62655" lon="6.55239">
        <ele>2124.8</ele>
        <time>2025-02-20T10:26:20Z</time>
      </trkpt>
      <trkpt lat="45.62655" lon="6.55239">
        <ele>2124.4</ele>
        <time>2025-02-20T10:26:21Z</time>
      </trkpt>
      <trkpt lat="45.62655" lon="6.55239">
        <ele>2124.4</ele>
        <time>2025-02-20T10:26:22Z</time>
      </trkpt>
      <trkpt lat="45.62655" lon="6.55239">
        <ele>2124.4</ele>
        <time>2025-02-20T10:26:23Z</time>
      </trkpt>
      <trkpt lat="45.62655" lon="6.55239">
        <ele>2124.2</ele>
        <time>2025-02-20T10:26:24Z</time>
      </trkpt>
      <trkpt lat="45.62655" lon="6.55239">
        <ele>2124.4</ele>
        <time>2025-02-20T10:26:25Z</time>
      </trkpt>
      <trkpt lat="45.62655" lon="6.55239">
        <ele>2124.4</ele>
        <time>2025-02-20T10:26:26Z</time>
      </trkpt>
      <trkpt lat="45.62655" lon="6.55239">
        <ele>2124.4</ele>
        <time>2025-02-20T10:26:27Z</time>
      </trkpt>
      <trkpt lat="45.62655" lon="6.55239">
        <ele>2124.4</ele>
        <time>2025-02-20T10:26:28Z</time>
      </trkpt>
      <trkpt lat="45.62655" lon="6.55239">
        <ele>2124.6</ele>
        <time>2025-02-20T10:26:29Z</time>
      </trkpt>
      <trkpt lat="45.62655" lon="6.55239">
        <ele>2124.6</ele>
        <time>2025-02-20T10:26:30Z</time>
      </trkpt>
      <trkpt lat="45.62655" lon="6.55239">
        <ele>2124.6</ele>
        <time>2025-02-20T10:26:31Z</time>
      </trkpt>
      <trkpt lat="45.62655" lon="6.55239">
        <ele>2124.2</ele>
        <time>2025-02-20T10:26:32Z</time>
      </trkpt>
      <trkpt lat="45.62655" lon="6.55239">
        <ele>2124.6</ele>
        <time>2025-02-20T10:26:33Z</time>
      </trkpt>
      <trkpt lat="45.62655" lon="6.55239">
        <ele>2124.6</ele>
        <time>2025-02-20T10:26:34Z</time>
      </trkpt>
      <trkpt lat="45.62655" lon="6.55239">
        <ele>2124.6</ele>
        <time>2025-02-20T10:26:35Z</time>
      </trkpt>
      <trkpt lat="45.62655" lon="6.55239">
        <ele>2124.6</ele>
        <time>2025-02-20T10:26:36Z</time>
      </trkpt>
      <trkpt lat="45.62655" lon="6.55239">
        <ele>2124.4</ele>
        <time>2025-02-20T10:26:37Z</time>
      </trkpt>
      <trkpt lat="45.62655" lon="6.55239">
        <ele>2124.4</ele>
        <time>2025-02-20T10:26:38Z</time>
      </trkpt>
      <trkpt lat="45.62655" lon="6.55239">
        <ele>2124.4</ele>
        <time>2025-02-20T10:26:39Z</time>
      </trkpt>
      <trkpt lat="45.62655" lon="6.55239">
        <ele>2124.2</ele>
        <time>2025-02-20T10:26:40Z</time>
      </trkpt>
      <trkpt lat="45.62655" lon="6.55239">
        <ele>2124.2</ele>
        <time>2025-02-20T10:26:41Z</time>
      </trkpt>
      <trkpt lat="45.62655" lon="6.55239">
        <ele>2124.2</ele>
        <time>2025-02-20T10:26:42Z</time>
      </trkpt>
      <trkpt lat="45.62655" lon="6.55239">
        <ele>2124.2</ele>
        <time>2025-02-20T10:26:43Z</time>
      </trkpt>
      <trkpt lat="45.62655" lon="6.55239">
        <ele>2124.8</ele>
        <time>2025-02-20T10:26:44Z</time>
      </trkpt>
      <trkpt lat="45.62655" lon="6.55239">
        <ele>2123.4</ele>
        <time>2025-02-20T10:26:45Z</time>
      </trkpt>
      <trkpt lat="45.62655" lon="6.55239">
        <ele>2123.4</ele>
        <time>2025-02-20T10:26:46Z</time>
      </trkpt>
      <trkpt lat="45.62655" lon="6.55239">
        <ele>2123.4</ele>
        <time>2025-02-20T10:26:47Z</time>
      </trkpt>
      <trkpt lat="45.62655" lon="6.55239">
        <ele>2124</ele>
        <time>2025-02-20T10:26:48Z</time>
      </trkpt>
      <trkpt lat="45.62655" lon="6.55239">
        <ele>2124.2</ele>
        <time>2025-02-20T10:26:49Z</time>
      </trkpt>
      <trkpt lat="45.62655" lon="6.55239">
        <ele>2124.2</ele>
        <time>2025-02-20T10:26:50Z</time>
      </trkpt>
      <trkpt lat="45.62655" lon="6.55239">
        <ele>2124.2</ele>
        <time>2025-02-20T10:26:51Z</time>
      </trkpt>
      <trkpt lat="45.62655" lon="6.55239">
        <ele>2124.2</ele>
        <time>2025-02-20T10:26:52Z</time>
      </trkpt>
      <trkpt lat="45.62655" lon="6.55239">
        <ele>2124</ele>
        <time>2025-02-20T10:26:53Z</time>
      </trkpt>
      <trkpt lat="45.62655" lon="6.55239">
        <ele>2124</ele>
        <time>2025-02-20T10:26:54Z</time>
      </trkpt>
      <trkpt lat="45.62655" lon="6.55239">
        <ele>2124</ele>
        <time>2025-02-20T10:26:55Z</time>
      </trkpt>
      <trkpt lat="45.62655" lon="6.55239">
        <ele>2124.2</ele>
        <time>2025-02-20T10:26:56Z</time>
      </trkpt>
      <trkpt lat="45.62655" lon="6.55239">
        <ele>2124.2</ele>
        <time>2025-02-20T10:26:57Z</time>
      </trkpt>
      <trkpt lat="45.62655" lon="6.55239">
        <ele>2124.2</ele>
        <time>2025-02-20T10:26:58Z</time>
      </trkpt>
      <trkpt lat="45.62655" lon="6.55239">
        <ele>2124.2</ele>
        <time>2025-02-20T10:26:59Z</time>
      </trkpt>
      <trkpt lat="45.62655" lon="6.55239">
        <ele>2124.8</ele>
        <time>2025-02-20T10:27:00Z</time>
      </trkpt>
      <trkpt lat="45.62655" lon="6.55239">
        <ele>2124.8</ele>
        <time>2025-02-20T10:27:01Z</time>
      </trkpt>
      <trkpt lat="45.62655" lon="6.55239">
        <ele>2124.8</ele>
        <time>2025-02-20T10:27:02Z</time>
      </trkpt>
      <trkpt lat="45.62655" lon="6.55239">
        <ele>2124.8</ele>
        <time>2025-02-20T10:27:03Z</time>
      </trkpt>
      <trkpt lat="45.62655" lon="6.55239">
        <ele>2124.4</ele>
        <time>2025-02-20T10:27:04Z</time>
      </trkpt>
      <trkpt lat="45.62655" lon="6.55239">
        <ele>2124.8</ele>
        <time>2025-02-20T10:27:05Z</time>
      </trkpt>
      <trkpt lat="45.62655" lon="6.55239">
        <ele>2124.8</ele>
        <time>2025-02-20T10:27:06Z</time>
      </trkpt>
      <trkpt lat="45.62655" lon="6.55239">
        <ele>2124.8</ele>
        <time>2025-02-20T10:27:07Z</time>
      </trkpt>
      <trkpt lat="45.62655" lon="6.55239">
        <ele>2124.4</ele>
        <time>2025-02-20T10:27:08Z</time>
      </trkpt>
      <trkpt lat="45.62655" lon="6.55239">
        <ele>2124.6</ele>
        <time>2025-02-20T10:27:09Z</time>
      </trkpt>
      <trkpt lat="45.62655" lon="6.55239">
        <ele>2124.6</ele>
        <time>2025-02-20T10:27:10Z</time>
      </trkpt>
      <trkpt lat="45.62655" lon="6.55239">
        <ele>2124.6</ele>
        <time>2025-02-20T10:27:11Z</time>
      </trkpt>
      <trkpt lat="45.62655" lon="6.55239">
        <ele>2124.6</ele>
        <time>2025-02-20T10:27:12Z</time>
      </trkpt>
      <trkpt lat="45.62655" lon="6.55239">
        <ele>2124.6</ele>
        <time>2025-02-20T10:27:13Z</time>
      </trkpt>
      <trkpt lat="45.62655" lon="6.55239">
        <ele>2124.6</ele>
        <time>2025-02-20T10:27:14Z</time>
      </trkpt>
      <trkpt lat="45.62655" lon="6.55239">
        <ele>2124.6</ele>
        <time>2025-02-20T10:27:15Z</time>
      </trkpt>
      <trkpt lat="45.62655" lon="6.55239">
        <ele>2124.6</ele>
        <time>2025-02-20T10:27:16Z</time>
      </trkpt>
      <trkpt lat="45.62655" lon="6.55239">
        <ele>2124.8</ele>
        <time>2025-02-20T10:27:17Z</time>
      </trkpt>
      <trkpt lat="45.62655" lon="6.55239">
        <ele>2124.8</ele>
        <time>2025-02-20T10:27:18Z</time>
      </trkpt>
      <trkpt lat="45.62655" lon="6.55239">
        <ele>2124.8</ele>
        <time>2025-02-20T10:27:19Z</time>
      </trkpt>
      <trkpt lat="45.62655" lon="6.55239">
        <ele>2124.6</ele>
        <time>2025-02-20T10:27:20Z</time>
      </trkpt>
      <trkpt lat="45.62655" lon="6.55239">
        <ele>2124.4</ele>
        <time>2025-02-20T10:27:21Z</time>
      </trkpt>
      <trkpt lat="45.62655" lon="6.55239">
        <ele>2124.4</ele>
        <time>2025-02-20T10:27:22Z</time>
      </trkpt>
      <trkpt lat="45.62655" lon="6.55239">
        <ele>2124.4</ele>
        <time>2025-02-20T10:27:23Z</time>
      </trkpt>
      <trkpt lat="45.62655" lon="6.55239">
        <ele>2124.6</ele>
        <time>2025-02-20T10:27:24Z</time>
      </trkpt>
      <trkpt lat="45.62655" lon="6.55239">
        <ele>2124.6</ele>
        <time>2025-02-20T10:27:25Z</time>
      </trkpt>
      <trkpt lat="45.62655" lon="6.55239">
        <ele>2124.6</ele>
        <time>2025-02-20T10:27:26Z</time>
      </trkpt>
      <trkpt lat="45.62655" lon="6.55239">
        <ele>2124.6</ele>
        <time>2025-02-20T10:27:27Z</time>
      </trkpt>
      <trkpt lat="45.62655" lon="6.55239">
        <ele>2124.6</ele>
        <time>2025-02-20T10:27:28Z</time>
      </trkpt>
      <trkpt lat="45.62655" lon="6.55239">
        <ele>2124.6</ele>
        <time>2025-02-20T10:27:29Z</time>
      </trkpt>
      <trkpt lat="45.62655" lon="6.55239">
        <ele>2124.6</ele>
        <time>2025-02-20T10:27:30Z</time>
      </trkpt>
      <trkpt lat="45.62655" lon="6.55239">
        <ele>2124.6</ele>
        <time>2025-02-20T10:27:31Z</time>
      </trkpt>
      <trkpt lat="45.62655" lon="6.55239">
        <ele>2124.6</ele>
        <time>2025-02-20T10:27:32Z</time>
      </trkpt>
      <trkpt lat="45.62655" lon="6.55239">
        <ele>2123.8</ele>
        <time>2025-02-20T10:27:33Z</time>
      </trkpt>
      <trkpt lat="45.62655" lon="6.55239">
        <ele>2123.8</ele>
        <time>2025-02-20T10:27:34Z</time>
      </trkpt>
      <trkpt lat="45.62655" lon="6.55239">
        <ele>2123.8</ele>
        <time>2025-02-20T10:27:35Z</time>
      </trkpt>
      <trkpt lat="45.62655" lon="6.55239">
        <ele>2124.8</ele>
        <time>2025-02-20T10:27:36Z</time>
      </trkpt>
      <trkpt lat="45.62655" lon="6.55239">
        <ele>2124.6</ele>
        <time>2025-02-20T10:27:37Z</time>
      </trkpt>
      <trkpt lat="45.62652" lon="6.55243">
        <ele>2124.6</ele>
        <time>2025-02-20T10:27:38Z</time>
      </trkpt>
      <trkpt lat="45.62652" lon="6.55246">
        <ele>2124.6</ele>
        <time>2025-02-20T10:27:39Z</time>
      </trkpt>
      <trkpt lat="45.62652" lon="6.55248">
        <ele>2123.6</ele>
        <time>2025-02-20T10:27:40Z</time>
      </trkpt>
      <trkpt lat="45.62653" lon="6.55249">
        <ele>2123.2</ele>
        <time>2025-02-20T10:27:41Z</time>
      </trkpt>
      <trkpt lat="45.62654" lon="6.5525">
        <ele>2123.2</ele>
        <time>2025-02-20T10:27:42Z</time>
      </trkpt>
      <trkpt lat="45.62655" lon="6.55252">
        <ele>2123.2</ele>
        <time>2025-02-20T10:27:43Z</time>
      </trkpt>
      <trkpt lat="45.62653" lon="6.55256">
        <ele>2122.2</ele>
        <time>2025-02-20T10:27:44Z</time>
      </trkpt>
      <trkpt lat="45.62651" lon="6.55257">
        <ele>2120.2</ele>
        <time>2025-02-20T10:27:45Z</time>
      </trkpt>
      <trkpt lat="45.62649" lon="6.55256">
        <ele>2120.2</ele>
        <time>2025-02-20T10:27:46Z</time>
      </trkpt>
      <trkpt lat="45.62649" lon="6.55256">
        <ele>2120.2</ele>
        <time>2025-02-20T10:27:47Z</time>
      </trkpt>
      <trkpt lat="45.62649" lon="6.55256">
        <ele>2119.6</ele>
        <time>2025-02-20T10:27:48Z</time>
      </trkpt>
      <trkpt lat="45.62649" lon="6.55256">
        <ele>2119.8</ele>
        <time>2025-02-20T10:27:49Z</time>
      </trkpt>
      <trkpt lat="45.62649" lon="6.55256">
        <ele>2119.8</ele>
        <time>2025-02-20T10:27:50Z</time>
      </trkpt>
      <trkpt lat="45.62649" lon="6.55256">
        <ele>2119.8</ele>
        <time>2025-02-20T10:27:51Z</time>
      </trkpt>
      <trkpt lat="45.62649" lon="6.55256">
        <ele>2119.2</ele>
        <time>2025-02-20T10:27:52Z</time>
      </trkpt>
      <trkpt lat="45.62649" lon="6.55256">
        <ele>2119.2</ele>
        <time>2025-02-20T10:27:53Z</time>
      </trkpt>
      <trkpt lat="45.62649" lon="6.55256">
        <ele>2119.2</ele>
        <time>2025-02-20T10:27:54Z</time>
      </trkpt>
      <trkpt lat="45.62649" lon="6.55256">
        <ele>2119.2</ele>
        <time>2025-02-20T10:27:55Z</time>
      </trkpt>
      <trkpt lat="45.62649" lon="6.55256">
        <ele>2119.8</ele>
        <time>2025-02-20T10:27:56Z</time>
      </trkpt>
      <trkpt lat="45.62649" lon="6.55256">
        <ele>2119.2</ele>
        <time>2025-02-20T10:27:57Z</time>
      </trkpt>
      <trkpt lat="45.62648" lon="6.55256">
        <ele>2119.2</ele>
        <time>2025-02-20T10:27:58Z</time>
      </trkpt>
      <trkpt lat="45.62646" lon="6.55258">
        <ele>2119.2</ele>
        <time>2025-02-20T10:27:59Z</time>
      </trkpt>
      <trkpt lat="45.62645" lon="6.55261">
        <ele>2118.2</ele>
        <time>2025-02-20T10:28:00Z</time>
      </trkpt>
      <trkpt lat="45.62646" lon="6.55263">
        <ele>2117.8</ele>
        <time>2025-02-20T10:28:01Z</time>
      </trkpt>
      <trkpt lat="45.62647" lon="6.55266">
        <ele>2117.8</ele>
        <time>2025-02-20T10:28:02Z</time>
      </trkpt>
      <trkpt lat="45.62645" lon="6.55269">
        <ele>2117.8</ele>
        <time>2025-02-20T10:28:03Z</time>
      </trkpt>
      <trkpt lat="45.62643" lon="6.5527">
        <ele>2116.8</ele>
        <time>2025-02-20T10:28:04Z</time>
      </trkpt>
      <trkpt lat="45.62641" lon="6.5527">
        <ele>2113.8</ele>
        <time>2025-02-20T10:28:05Z</time>
      </trkpt>
      <trkpt lat="45.6264" lon="6.55274">
        <ele>2113.8</ele>
        <time>2025-02-20T10:28:06Z</time>
      </trkpt>
      <trkpt lat="45.62641" lon="6.55277">
        <ele>2113.8</ele>
        <time>2025-02-20T10:28:07Z</time>
      </trkpt>
      <trkpt lat="45.62643" lon="6.55278">
        <ele>2113.8</ele>
        <time>2025-02-20T10:28:08Z</time>
      </trkpt>
      <trkpt lat="45.62645" lon="6.55279">
        <ele>2111.4</ele>
        <time>2025-02-20T10:28:09Z</time>
      </trkpt>
      <trkpt lat="45.62647" lon="6.55281">
        <ele>2111.4</ele>
        <time>2025-02-20T10:28:10Z</time>
      </trkpt>
      <trkpt lat="45.62649" lon="6.55283">
        <ele>2111.4</ele>
        <time>2025-02-20T10:28:11Z</time>
      </trkpt>
      <trkpt lat="45.6265" lon="6.55284">
        <ele>2110.4</ele>
        <time>2025-02-20T10:28:12Z</time>
      </trkpt>
      <trkpt lat="45.62651" lon="6.55286">
        <ele>2108.8</ele>
        <time>2025-02-20T10:28:13Z</time>
      </trkpt>
      <trkpt lat="45.62653" lon="6.55289">
        <ele>2108.8</ele>
        <time>2025-02-20T10:28:14Z</time>
      </trkpt>
      <trkpt lat="45.62649" lon="6.55293">
        <ele>2108.8</ele>
        <time>2025-02-20T10:28:15Z</time>
      </trkpt>
      <trkpt lat="45.62646" lon="6.55294">
        <ele>2108.8</ele>
        <time>2025-02-20T10:28:16Z</time>
      </trkpt>
      <trkpt lat="45.62643" lon="6.55294">
        <ele>2104.2</ele>
        <time>2025-02-20T10:28:17Z</time>
      </trkpt>
      <trkpt lat="45.6264" lon="6.55294">
        <ele>2104.2</ele>
        <time>2025-02-20T10:28:18Z</time>
      </trkpt>
      <trkpt lat="45.62639" lon="6.55299">
        <ele>2104.2</ele>
        <time>2025-02-20T10:28:19Z</time>
      </trkpt>
      <trkpt lat="45.6264" lon="6.55304">
        <ele>2103.2</ele>
        <time>2025-02-20T10:28:20Z</time>
      </trkpt>
      <trkpt lat="45.62643" lon="6.55306">
        <ele>2099</ele>
        <time>2025-02-20T10:28:21Z</time>
      </trkpt>
      <trkpt lat="45.62644" lon="6.55309">
        <ele>2099</ele>
        <time>2025-02-20T10:28:22Z</time>
      </trkpt>
      <trkpt lat="45.62643" lon="6.55313">
        <ele>2099</ele>
        <time>2025-02-20T10:28:23Z</time>
      </trkpt>
      <trkpt lat="45.62639" lon="6.55315">
        <ele>2098</ele>
        <time>2025-02-20T10:28:24Z</time>
      </trkpt>
      <trkpt lat="45.62635" lon="6.55313">
        <ele>2094.8</ele>
        <time>2025-02-20T10:28:25Z</time>
      </trkpt>
      <trkpt lat="45.62632" lon="6.55312">
        <ele>2094.8</ele>
        <time>2025-02-20T10:28:26Z</time>
      </trkpt>
      <trkpt lat="45.6263" lon="6.55311">
        <ele>2094.8</ele>
        <time>2025-02-20T10:28:27Z</time>
      </trkpt>
      <trkpt lat="45.62628" lon="6.55309">
        <ele>2093.8</ele>
        <time>2025-02-20T10:28:28Z</time>
      </trkpt>
      <trkpt lat="45.62626" lon="6.55308">
        <ele>2091.8</ele>
        <time>2025-02-20T10:28:29Z</time>
      </trkpt>
      <trkpt lat="45.62624" lon="6.55308">
        <ele>2091.8</ele>
        <time>2025-02-20T10:28:30Z</time>
      </trkpt>
      <trkpt lat="45.62621" lon="6.55307">
        <ele>2091.8</ele>
        <time>2025-02-20T10:28:31Z</time>
      </trkpt>
      <trkpt lat="45.62618" lon="6.55306">
        <ele>2090.8</ele>
        <time>2025-02-20T10:28:32Z</time>
      </trkpt>
      <trkpt lat="45.62615" lon="6.55305">
        <ele>2090</ele>
        <time>2025-02-20T10:28:33Z</time>
      </trkpt>
      <trkpt lat="45.62612" lon="6.55304">
        <ele>2090</ele>
        <time>2025-02-20T10:28:34Z</time>
      </trkpt>
      <trkpt lat="45.62609" lon="6.55303">
        <ele>2090</ele>
        <time>2025-02-20T10:28:35Z</time>
      </trkpt>
      <trkpt lat="45.62607" lon="6.55301">
        <ele>2089</ele>
        <time>2025-02-20T10:28:36Z</time>
      </trkpt>
      <trkpt lat="45.62604" lon="6.553">
        <ele>2087.6</ele>
        <time>2025-02-20T10:28:37Z</time>
      </trkpt>
      <trkpt lat="45.62601" lon="6.55299">
        <ele>2087.6</ele>
        <time>2025-02-20T10:28:38Z</time>
      </trkpt>
      <trkpt lat="45.62598" lon="6.55297">
        <ele>2087.6</ele>
        <time>2025-02-20T10:28:39Z</time>
      </trkpt>
      <trkpt lat="45.62595" lon="6.55296">
        <ele>2087.4</ele>
        <time>2025-02-20T10:28:40Z</time>
      </trkpt>
      <trkpt lat="45.62593" lon="6.55294">
        <ele>2085.6</ele>
        <time>2025-02-20T10:28:41Z</time>
      </trkpt>
      <trkpt lat="45.62591" lon="6.55292">
        <ele>2085.6</ele>
        <time>2025-02-20T10:28:42Z</time>
      </trkpt>
      <trkpt lat="45.62589" lon="6.55291">
        <ele>2085.6</ele>
        <time>2025-02-20T10:28:43Z</time>
      </trkpt>
      <trkpt lat="45.62587" lon="6.5529">
        <ele>2085.6</ele>
        <time>2025-02-20T10:28:44Z</time>
      </trkpt>
      <trkpt lat="45.62585" lon="6.55288">
        <ele>2084.8</ele>
        <time>2025-02-20T10:28:45Z</time>
      </trkpt>
      <trkpt lat="45.62583" lon="6.55288">
        <ele>2084.8</ele>
        <time>2025-02-20T10:28:46Z</time>
      </trkpt>
      <trkpt lat="45.6258" lon="6.5529">
        <ele>2084.8</ele>
        <time>2025-02-20T10:28:47Z</time>
      </trkpt>
      <trkpt lat="45.62581" lon="6.55294">
        <ele>2083.8</ele>
        <time>2025-02-20T10:28:48Z</time>
      </trkpt>
      <trkpt lat="45.62581" lon="6.553">
        <ele>2082</ele>
        <time>2025-02-20T10:28:49Z</time>
      </trkpt>
      <trkpt lat="45.62578" lon="6.55302">
        <ele>2082</ele>
        <time>2025-02-20T10:28:50Z</time>
      </trkpt>
      <trkpt lat="45.62574" lon="6.55301">
        <ele>2082</ele>
        <time>2025-02-20T10:28:51Z</time>
      </trkpt>
      <trkpt lat="45.62572" lon="6.55298">
        <ele>2081</ele>
        <time>2025-02-20T10:28:52Z</time>
      </trkpt>
      <trkpt lat="45.62571" lon="6.55296">
        <ele>2076.6</ele>
        <time>2025-02-20T10:28:53Z</time>
      </trkpt>
      <trkpt lat="45.62569" lon="6.55295">
        <ele>2076.6</ele>
        <time>2025-02-20T10:28:54Z</time>
      </trkpt>
      <trkpt lat="45.62567" lon="6.55294">
        <ele>2076.6</ele>
        <time>2025-02-20T10:28:55Z</time>
      </trkpt>
      <trkpt lat="45.62565" lon="6.55291">
        <ele>2076.6</ele>
        <time>2025-02-20T10:28:56Z</time>
      </trkpt>
      <trkpt lat="45.62562" lon="6.55289">
        <ele>2075.2</ele>
        <time>2025-02-20T10:28:57Z</time>
      </trkpt>
      <trkpt lat="45.62559" lon="6.55286">
        <ele>2075.2</ele>
        <time>2025-02-20T10:28:58Z</time>
      </trkpt>
      <trkpt lat="45.62556" lon="6.55283">
        <ele>2075.2</ele>
        <time>2025-02-20T10:28:59Z</time>
      </trkpt>
      <trkpt lat="45.62552" lon="6.55279">
        <ele>2074.2</ele>
        <time>2025-02-20T10:29:00Z</time>
      </trkpt>
      <trkpt lat="45.62548" lon="6.55276">
        <ele>2073.4</ele>
        <time>2025-02-20T10:29:01Z</time>
      </trkpt>
      <trkpt lat="45.62543" lon="6.55274">
        <ele>2073.4</ele>
        <time>2025-02-20T10:29:02Z</time>
      </trkpt>
      <trkpt lat="45.62538" lon="6.55272">
        <ele>2073.4</ele>
        <time>2025-02-20T10:29:03Z</time>
      </trkpt>
      <trkpt lat="45.62533" lon="6.55274">
        <ele>2072.4</ele>
        <time>2025-02-20T10:29:04Z</time>
      </trkpt>
      <trkpt lat="45.62529" lon="6.5528">
        <ele>2069.8</ele>
        <time>2025-02-20T10:29:05Z</time>
      </trkpt>
      <trkpt lat="45.62531" lon="6.55287">
        <ele>2069.8</ele>
        <time>2025-02-20T10:29:06Z</time>
      </trkpt>
      <trkpt lat="45.62533" lon="6.55294">
        <ele>2069.8</ele>
        <time>2025-02-20T10:29:07Z</time>
      </trkpt>
      <trkpt lat="45.62535" lon="6.55303">
        <ele>2068.8</ele>
        <time>2025-02-20T10:29:08Z</time>
      </trkpt>
      <trkpt lat="45.62536" lon="6.55309">
        <ele>2062.8</ele>
        <time>2025-02-20T10:29:09Z</time>
      </trkpt>
      <trkpt lat="45.62532" lon="6.55313">
        <ele>2062.8</ele>
        <time>2025-02-20T10:29:10Z</time>
      </trkpt>
      <trkpt lat="45.62527" lon="6.55314">
        <ele>2062.8</ele>
        <time>2025-02-20T10:29:11Z</time>
      </trkpt>
      <trkpt lat="45.62523" lon="6.5531">
        <ele>2062.8</ele>
        <time>2025-02-20T10:29:12Z</time>
      </trkpt>
      <trkpt lat="45.6252" lon="6.55306">
        <ele>2059.2</ele>
        <time>2025-02-20T10:29:13Z</time>
      </trkpt>
      <trkpt lat="45.62518" lon="6.55303">
        <ele>2059.2</ele>
        <time>2025-02-20T10:29:14Z</time>
      </trkpt>
      <trkpt lat="45.62516" lon="6.55301">
        <ele>2059.2</ele>
        <time>2025-02-20T10:29:15Z</time>
      </trkpt>
      <trkpt lat="45.62514" lon="6.553">
        <ele>2059.2</ele>
        <time>2025-02-20T10:29:16Z</time>
      </trkpt>
      <trkpt lat="45.62513" lon="6.55299">
        <ele>2058.8</ele>
        <time>2025-02-20T10:29:17Z</time>
      </trkpt>
      <trkpt lat="45.62512" lon="6.55298">
        <ele>2058.8</ele>
        <time>2025-02-20T10:29:18Z</time>
      </trkpt>
      <trkpt lat="45.62512" lon="6.55298">
        <ele>2058.8</ele>
        <time>2025-02-20T10:29:19Z</time>
      </trkpt>
      <trkpt lat="45.62512" lon="6.55298">
        <ele>2058.2</ele>
        <time>2025-02-20T10:29:20Z</time>
      </trkpt>
      <trkpt lat="45.62512" lon="6.55298">
        <ele>2058.6</ele>
        <time>2025-02-20T10:29:21Z</time>
      </trkpt>
      <trkpt lat="45.62512" lon="6.55298">
        <ele>2058.6</ele>
        <time>2025-02-20T10:29:22Z</time>
      </trkpt>
      <trkpt lat="45.62512" lon="6.55298">
        <ele>2058.6</ele>
        <time>2025-02-20T10:29:23Z</time>
      </trkpt>
      <trkpt lat="45.62512" lon="6.55298">
        <ele>2058.6</ele>
        <time>2025-02-20T10:29:24Z</time>
      </trkpt>
      <trkpt lat="45.62512" lon="6.55298">
        <ele>2058.6</ele>
        <time>2025-02-20T10:29:25Z</time>
      </trkpt>
      <trkpt lat="45.62512" lon="6.55298">
        <ele>2058.6</ele>
        <time>2025-02-20T10:29:26Z</time>
      </trkpt>
      <trkpt lat="45.62512" lon="6.55298">
        <ele>2058.6</ele>
        <time>2025-02-20T10:29:27Z</time>
      </trkpt>
      <trkpt lat="45.62512" lon="6.55298">
        <ele>2058.6</ele>
        <time>2025-02-20T10:29:28Z</time>
      </trkpt>
      <trkpt lat="45.62512" lon="6.55298">
        <ele>2058</ele>
        <time>2025-02-20T10:29:29Z</time>
      </trkpt>
      <trkpt lat="45.62512" lon="6.55298">
        <ele>2058</ele>
        <time>2025-02-20T10:29:30Z</time>
      </trkpt>
      <trkpt lat="45.62512" lon="6.55298">
        <ele>2058</ele>
        <time>2025-02-20T10:29:31Z</time>
      </trkpt>
      <trkpt lat="45.62512" lon="6.55298">
        <ele>2058.2</ele>
        <time>2025-02-20T10:29:32Z</time>
      </trkpt>
      <trkpt lat="45.62512" lon="6.55298">
        <ele>2058.2</ele>
        <time>2025-02-20T10:29:33Z</time>
      </trkpt>
      <trkpt lat="45.62512" lon="6.55298">
        <ele>2058.2</ele>
        <time>2025-02-20T10:29:34Z</time>
      </trkpt>
      <trkpt lat="45.62512" lon="6.55298">
        <ele>2058.2</ele>
        <time>2025-02-20T10:29:35Z</time>
      </trkpt>
      <trkpt lat="45.62512" lon="6.55298">
        <ele>2058</ele>
        <time>2025-02-20T10:29:36Z</time>
      </trkpt>
      <trkpt lat="45.62512" lon="6.55298">
        <ele>2058.2</ele>
        <time>2025-02-20T10:29:37Z</time>
      </trkpt>
      <trkpt lat="45.62512" lon="6.55298">
        <ele>2058.2</ele>
        <time>2025-02-20T10:29:38Z</time>
      </trkpt>
      <trkpt lat="45.62512" lon="6.55298">
        <ele>2058.2</ele>
        <time>2025-02-20T10:29:39Z</time>
      </trkpt>
      <trkpt lat="45.62512" lon="6.55298">
        <ele>2058.2</ele>
        <time>2025-02-20T10:29:40Z</time>
      </trkpt>
      <trkpt lat="45.62512" lon="6.55298">
        <ele>2058.4</ele>
        <time>2025-02-20T10:29:41Z</time>
      </trkpt>
      <trkpt lat="45.62512" lon="6.55298">
        <ele>2058.4</ele>
        <time>2025-02-20T10:29:42Z</time>
      </trkpt>
      <trkpt lat="45.62512" lon="6.55298">
        <ele>2058.4</ele>
        <time>2025-02-20T10:29:43Z</time>
      </trkpt>
      <trkpt lat="45.62512" lon="6.55298">
        <ele>2058.4</ele>
        <time>2025-02-20T10:29:44Z</time>
      </trkpt>
      <trkpt lat="45.62512" lon="6.55298">
        <ele>2058.6</ele>
        <time>2025-02-20T10:29:45Z</time>
      </trkpt>
      <trkpt lat="45.62512" lon="6.55298">
        <ele>2058.6</ele>
        <time>2025-02-20T10:29:46Z</time>
      </trkpt>
      <trkpt lat="45.62512" lon="6.55298">
        <ele>2058.6</ele>
        <time>2025-02-20T10:29:47Z</time>
      </trkpt>
      <trkpt lat="45.62512" lon="6.55298">
        <ele>2058.4</ele>
        <time>2025-02-20T10:29:48Z</time>
      </trkpt>
      <trkpt lat="45.62512" lon="6.55298">
        <ele>2058.4</ele>
        <time>2025-02-20T10:29:49Z</time>
      </trkpt>
      <trkpt lat="45.62512" lon="6.55298">
        <ele>2058.4</ele>
        <time>2025-02-20T10:29:50Z</time>
      </trkpt>
      <trkpt lat="45.62512" lon="6.55298">
        <ele>2058.4</ele>
        <time>2025-02-20T10:29:51Z</time>
      </trkpt>
      <trkpt lat="45.62512" lon="6.55298">
        <ele>2058.4</ele>
        <time>2025-02-20T10:29:52Z</time>
      </trkpt>
      <trkpt lat="45.62512" lon="6.55298">
        <ele>2058.2</ele>
        <time>2025-02-20T10:29:53Z</time>
      </trkpt>
      <trkpt lat="45.62512" lon="6.55298">
        <ele>2058.2</ele>
        <time>2025-02-20T10:29:54Z</time>
      </trkpt>
      <trkpt lat="45.62512" lon="6.55298">
        <ele>2058.2</ele>
        <time>2025-02-20T10:29:55Z</time>
      </trkpt>
      <trkpt lat="45.62512" lon="6.55298">
        <ele>2058.4</ele>
        <time>2025-02-20T10:29:56Z</time>
      </trkpt>
      <trkpt lat="45.62512" lon="6.55298">
        <ele>2058</ele>
        <time>2025-02-20T10:29:57Z</time>
      </trkpt>
      <trkpt lat="45.62512" lon="6.55298">
        <ele>2058</ele>
        <time>2025-02-20T10:29:58Z</time>
      </trkpt>
      <trkpt lat="45.62512" lon="6.55298">
        <ele>2058</ele>
        <time>2025-02-20T10:29:59Z</time>
      </trkpt>
      <trkpt lat="45.62512" lon="6.55298">
        <ele>2058.2</ele>
        <time>2025-02-20T10:30:00Z</time>
      </trkpt>
      <trkpt lat="45.62512" lon="6.55298">
        <ele>2058.4</ele>
        <time>2025-02-20T10:30:01Z</time>
      </trkpt>
      <trkpt lat="45.62512" lon="6.55298">
        <ele>2058.4</ele>
        <time>2025-02-20T10:30:02Z</time>
      </trkpt>
      <trkpt lat="45.62512" lon="6.55298">
        <ele>2058.4</ele>
        <time>2025-02-20T10:30:03Z</time>
      </trkpt>
      <trkpt lat="45.62512" lon="6.55298">
        <ele>2058.2</ele>
        <time>2025-02-20T10:30:04Z</time>
      </trkpt>
      <trkpt lat="45.62512" lon="6.55298">
        <ele>2058.4</ele>
        <time>2025-02-20T10:30:05Z</time>
      </trkpt>
      <trkpt lat="45.62512" lon="6.55298">
        <ele>2058.4</ele>
        <time>2025-02-20T10:30:06Z</time>
      </trkpt>
      <trkpt lat="45.62512" lon="6.55298">
        <ele>2058.4</ele>
        <time>2025-02-20T10:30:07Z</time>
      </trkpt>
      <trkpt lat="45.62512" lon="6.55298">
        <ele>2058.4</ele>
        <time>2025-02-20T10:30:08Z</time>
      </trkpt>
      <trkpt lat="45.62512" lon="6.55298">
        <ele>2058.4</ele>
        <time>2025-02-20T10:30:09Z</time>
      </trkpt>
      <trkpt lat="45.62512" lon="6.55298">
        <ele>2058.4</ele>
        <time>2025-02-20T10:30:10Z</time>
      </trkpt>
      <trkpt lat="45.62512" lon="6.55298">
        <ele>2058.4</ele>
        <time>2025-02-20T10:30:11Z</time>
      </trkpt>
      <trkpt lat="45.62512" lon="6.55298">
        <ele>2058.4</ele>
        <time>2025-02-20T10:30:12Z</time>
      </trkpt>
      <trkpt lat="45.62512" lon="6.55298">
        <ele>2058.4</ele>
        <time>2025-02-20T10:30:13Z</time>
      </trkpt>
      <trkpt lat="45.62512" lon="6.55298">
        <ele>2058.4</ele>
        <time>2025-02-20T10:30:14Z</time>
      </trkpt>
      <trkpt lat="45.62512" lon="6.55298">
        <ele>2058.4</ele>
        <time>2025-02-20T10:30:15Z</time>
      </trkpt>
      <trkpt lat="45.62512" lon="6.55298">
        <ele>2058.4</ele>
        <time>2025-02-20T10:30:16Z</time>
      </trkpt>
      <trkpt lat="45.62512" lon="6.55298">
        <ele>2058.4</ele>
        <time>2025-02-20T10:30:17Z</time>
      </trkpt>
      <trkpt lat="45.62512" lon="6.55298">
        <ele>2058.4</ele>
        <time>2025-02-20T10:30:18Z</time>
      </trkpt>
      <trkpt lat="45.62512" lon="6.55298">
        <ele>2058.4</ele>
        <time>2025-02-20T10:30:19Z</time>
      </trkpt>
      <trkpt lat="45.62512" lon="6.55298">
        <ele>2058.4</ele>
        <time>2025-02-20T10:30:20Z</time>
      </trkpt>
      <trkpt lat="45.62512" lon="6.55298">
        <ele>2058.8</ele>
        <time>2025-02-20T10:30:21Z</time>
      </trkpt>
      <trkpt lat="45.62512" lon="6.55298">
        <ele>2058.8</ele>
        <time>2025-02-20T10:30:22Z</time>
      </trkpt>
      <trkpt lat="45.62512" lon="6.55298">
        <ele>2058.8</ele>
        <time>2025-02-20T10:30:23Z</time>
      </trkpt>
      <trkpt lat="45.62512" lon="6.55298">
        <ele>2058.2</ele>
        <time>2025-02-20T10:30:24Z</time>
      </trkpt>
      <trkpt lat="45.62512" lon="6.55298">
        <ele>2059.2</ele>
        <time>2025-02-20T10:30:25Z</time>
      </trkpt>
      <trkpt lat="45.62512" lon="6.55298">
        <ele>2059.2</ele>
        <time>2025-02-20T10:30:26Z</time>
      </trkpt>
      <trkpt lat="45.62512" lon="6.55298">
        <ele>2059.2</ele>
        <time>2025-02-20T10:30:27Z</time>
      </trkpt>
      <trkpt lat="45.62512" lon="6.55298">
        <ele>2059</ele>
        <time>2025-02-20T10:30:28Z</time>
      </trkpt>
      <trkpt lat="45.62512" lon="6.55298">
        <ele>2058.6</ele>
        <time>2025-02-20T10:30:29Z</time>
      </trkpt>
      <trkpt lat="45.62512" lon="6.55298">
        <ele>2058.6</ele>
        <time>2025-02-20T10:30:30Z</time>
      </trkpt>
      <trkpt lat="45.62512" lon="6.55298">
        <ele>2058.6</ele>
        <time>2025-02-20T10:30:31Z</time>
      </trkpt>
      <trkpt lat="45.62512" lon="6.55298">
        <ele>2058.8</ele>
        <time>2025-02-20T10:30:32Z</time>
      </trkpt>
      <trkpt lat="45.62512" lon="6.55298">
        <ele>2058.4</ele>
        <time>2025-02-20T10:30:33Z</time>
      </trkpt>
      <trkpt lat="45.62512" lon="6.55298">
        <ele>2058.4</ele>
        <time>2025-02-20T10:30:34Z</time>
      </trkpt>
      <trkpt lat="45.62512" lon="6.55298">
        <ele>2058.4</ele>
        <time>2025-02-20T10:30:35Z</time>
      </trkpt>
      <trkpt lat="45.62512" lon="6.55298">
        <ele>2058.4</ele>
        <time>2025-02-20T10:30:36Z</time>
      </trkpt>
      <trkpt lat="45.62512" lon="6.55298">
        <ele>2058.4</ele>
        <time>2025-02-20T10:30:37Z</time>
      </trkpt>
      <trkpt lat="45.62512" lon="6.55298">
        <ele>2058.4</ele>
        <time>2025-02-20T10:30:38Z</time>
      </trkpt>
      <trkpt lat="45.62512" lon="6.55298">
        <ele>2058.4</ele>
        <time>2025-02-20T10:30:39Z</time>
      </trkpt>
      <trkpt lat="45.62512" lon="6.55298">
        <ele>2058.4</ele>
        <time>2025-02-20T10:30:40Z</time>
      </trkpt>
      <trkpt lat="45.62511" lon="6.55299">
        <ele>2057.8</ele>
        <time>2025-02-20T10:30:41Z</time>
      </trkpt>
      <trkpt lat="45.6251" lon="6.553">
        <ele>2057.8</ele>
        <time>2025-02-20T10:30:42Z</time>
      </trkpt>
      <trkpt lat="45.6251" lon="6.55303">
        <ele>2057.8</ele>
        <time>2025-02-20T10:30:43Z</time>
      </trkpt>
      <trkpt lat="45.62511" lon="6.55305">
        <ele>2057.8</ele>
        <time>2025-02-20T10:30:44Z</time>
      </trkpt>
      <trkpt lat="45.62512" lon="6.55307">
        <ele>2057.6</ele>
        <time>2025-02-20T10:30:45Z</time>
      </trkpt>
      <trkpt lat="45.62512" lon="6.55309">
        <ele>2057.6</ele>
        <time>2025-02-20T10:30:46Z</time>
      </trkpt>
      <trkpt lat="45.62513" lon="6.5531">
        <ele>2057.6</ele>
        <time>2025-02-20T10:30:47Z</time>
      </trkpt>
      <trkpt lat="45.62513" lon="6.55312">
        <ele>2057.6</ele>
        <time>2025-02-20T10:30:48Z</time>
      </trkpt>
      <trkpt lat="45.62513" lon="6.55314">
        <ele>2056.8</ele>
        <time>2025-02-20T10:30:49Z</time>
      </trkpt>
      <trkpt lat="45.62511" lon="6.55315">
        <ele>2056.8</ele>
        <time>2025-02-20T10:30:50Z</time>
      </trkpt>
      <trkpt lat="45.6251" lon="6.55314">
        <ele>2056.8</ele>
        <time>2025-02-20T10:30:51Z</time>
      </trkpt>
      <trkpt lat="45.62509" lon="6.55314">
        <ele>2056.4</ele>
        <time>2025-02-20T10:30:52Z</time>
      </trkpt>
      <trkpt lat="45.62509" lon="6.55314">
        <ele>2056.2</ele>
        <time>2025-02-20T10:30:53Z</time>
      </trkpt>
      <trkpt lat="45.62509" lon="6.55314">
        <ele>2056.2</ele>
        <time>2025-02-20T10:30:54Z</time>
      </trkpt>
      <trkpt lat="45.62509" lon="6.55314">
        <ele>2056.2</ele>
        <time>2025-02-20T10:30:55Z</time>
      </trkpt>
      <trkpt lat="45.62509" lon="6.55314">
        <ele>2055.8</ele>
        <time>2025-02-20T10:30:56Z</time>
      </trkpt>
      <trkpt lat="45.62509" lon="6.55314">
        <ele>2056</ele>
        <time>2025-02-20T10:30:57Z</time>
      </trkpt>
      <trkpt lat="45.62509" lon="6.55314">
        <ele>2056</ele>
        <time>2025-02-20T10:30:58Z</time>
      </trkpt>
      <trkpt lat="45.62509" lon="6.55314">
        <ele>2056</ele>
        <time>2025-02-20T10:30:59Z</time>
      </trkpt>
      <trkpt lat="45.62509" lon="6.55314">
        <ele>2055.4</ele>
        <time>2025-02-20T10:31:00Z</time>
      </trkpt>
      <trkpt lat="45.62509" lon="6.55314">
        <ele>2055.8</ele>
        <time>2025-02-20T10:31:01Z</time>
      </trkpt>
      <trkpt lat="45.62509" lon="6.55314">
        <ele>2055.8</ele>
        <time>2025-02-20T10:31:02Z</time>
      </trkpt>
      <trkpt lat="45.62509" lon="6.55314">
        <ele>2055.8</ele>
        <time>2025-02-20T10:31:03Z</time>
      </trkpt>
      <trkpt lat="45.62509" lon="6.55314">
        <ele>2055.8</ele>
        <time>2025-02-20T10:31:04Z</time>
      </trkpt>
      <trkpt lat="45.62509" lon="6.55314">
        <ele>2055.6</ele>
        <time>2025-02-20T10:31:05Z</time>
      </trkpt>
      <trkpt lat="45.62508" lon="6.55316">
        <ele>2055.6</ele>
        <time>2025-02-20T10:31:06Z</time>
      </trkpt>
      <trkpt lat="45.62507" lon="6.55318">
        <ele>2055.6</ele>
        <time>2025-02-20T10:31:07Z</time>
      </trkpt>
      <trkpt lat="45.62506" lon="6.55321">
        <ele>2054.6</ele>
        <time>2025-02-20T10:31:08Z</time>
      </trkpt>
      <trkpt lat="45.62502" lon="6.55322">
        <ele>2053</ele>
        <time>2025-02-20T10:31:09Z</time>
      </trkpt>
      <trkpt lat="45.62499" lon="6.55319">
        <ele>2053</ele>
        <time>2025-02-20T10:31:10Z</time>
      </trkpt>
      <trkpt lat="45.62497" lon="6.55315">
        <ele>2053</ele>
        <time>2025-02-20T10:31:11Z</time>
      </trkpt>
      <trkpt lat="45.62497" lon="6.55314">
        <ele>2052</ele>
        <time>2025-02-20T10:31:12Z</time>
      </trkpt>
      <trkpt lat="45.62497" lon="6.55313">
        <ele>2049.6</ele>
        <time>2025-02-20T10:31:13Z</time>
      </trkpt>
      <trkpt lat="45.62497" lon="6.55312">
        <ele>2049.6</ele>
        <time>2025-02-20T10:31:14Z</time>
      </trkpt>
      <trkpt lat="45.62496" lon="6.55311">
        <ele>2049.6</ele>
        <time>2025-02-20T10:31:15Z</time>
      </trkpt>
      <trkpt lat="45.62496" lon="6.55309">
        <ele>2049.6</ele>
        <time>2025-02-20T10:31:16Z</time>
      </trkpt>
      <trkpt lat="45.62495" lon="6.55307">
        <ele>2049.2</ele>
        <time>2025-02-20T10:31:17Z</time>
      </trkpt>
      <trkpt lat="45.62494" lon="6.55305">
        <ele>2049.2</ele>
        <time>2025-02-20T10:31:18Z</time>
      </trkpt>
      <trkpt lat="45.62494" lon="6.55302">
        <ele>2049.2</ele>
        <time>2025-02-20T10:31:19Z</time>
      </trkpt>
      <trkpt lat="45.62493" lon="6.553">
        <ele>2049.2</ele>
        <time>2025-02-20T10:31:20Z</time>
      </trkpt>
      <trkpt lat="45.62493" lon="6.55299">
        <ele>2049</ele>
        <time>2025-02-20T10:31:21Z</time>
      </trkpt>
      <trkpt lat="45.62493" lon="6.55299">
        <ele>2049</ele>
        <time>2025-02-20T10:31:22Z</time>
      </trkpt>
      <trkpt lat="45.62493" lon="6.55299">
        <ele>2049</ele>
        <time>2025-02-20T10:31:23Z</time>
      </trkpt>
      <trkpt lat="45.62493" lon="6.55299">
        <ele>2049</ele>
        <time>2025-02-20T10:31:24Z</time>
      </trkpt>
      <trkpt lat="45.62493" lon="6.55299">
        <ele>2048.4</ele>
        <time>2025-02-20T10:31:25Z</time>
      </trkpt>
      <trkpt lat="45.62493" lon="6.55299">
        <ele>2048.4</ele>
        <time>2025-02-20T10:31:26Z</time>
      </trkpt>
      <trkpt lat="45.62493" lon="6.55299">
        <ele>2048.4</ele>
        <time>2025-02-20T10:31:27Z</time>
      </trkpt>
      <trkpt lat="45.62492" lon="6.55298">
        <ele>2048.4</ele>
        <time>2025-02-20T10:31:28Z</time>
      </trkpt>
      <trkpt lat="45.62489" lon="6.55302">
        <ele>2048</ele>
        <time>2025-02-20T10:31:29Z</time>
      </trkpt>
      <trkpt lat="45.62488" lon="6.55305">
        <ele>2048</ele>
        <time>2025-02-20T10:31:30Z</time>
      </trkpt>
      <trkpt lat="45.62486" lon="6.55307">
        <ele>2048</ele>
        <time>2025-02-20T10:31:31Z</time>
      </trkpt>
      <trkpt lat="45.62483" lon="6.55306">
        <ele>2047</ele>
        <time>2025-02-20T10:31:32Z</time>
      </trkpt>
      <trkpt lat="45.62481" lon="6.55302">
        <ele>2042.6</ele>
        <time>2025-02-20T10:31:33Z</time>
      </trkpt>
      <trkpt lat="45.62476" lon="6.55296">
        <ele>2042.6</ele>
        <time>2025-02-20T10:31:34Z</time>
      </trkpt>
      <trkpt lat="45.6247" lon="6.55288">
        <ele>2042.6</ele>
        <time>2025-02-20T10:31:35Z</time>
      </trkpt>
      <trkpt lat="45.62464" lon="6.55279">
        <ele>2041.6</ele>
        <time>2025-02-20T10:31:36Z</time>
      </trkpt>
      <trkpt lat="45.62456" lon="6.55271">
        <ele>2036.8</ele>
        <time>2025-02-20T10:31:37Z</time>
      </trkpt>
      <trkpt lat="45.62448" lon="6.55263">
        <ele>2036.8</ele>
        <time>2025-02-20T10:31:38Z</time>
      </trkpt>
      <trkpt lat="45.62439" lon="6.55256">
        <ele>2036.8</ele>
        <time>2025-02-20T10:31:39Z</time>
      </trkpt>
      <trkpt lat="45.62431" lon="6.55249">
        <ele>2035.8</ele>
        <time>2025-02-20T10:31:40Z</time>
      </trkpt>
      <trkpt lat="45.62422" lon="6.55243">
        <ele>2027.6</ele>
        <time>2025-02-20T10:31:41Z</time>
      </trkpt>
      <trkpt lat="45.62411" lon="6.55239">
        <ele>2027.6</ele>
        <time>2025-02-20T10:31:42Z</time>
      </trkpt>
      <trkpt lat="45.62401" lon="6.55238">
        <ele>2027.6</ele>
        <time>2025-02-20T10:31:43Z</time>
      </trkpt>
      <trkpt lat="45.62395" lon="6.55235">
        <ele>2026.6</ele>
        <time>2025-02-20T10:31:44Z</time>
      </trkpt>
      <trkpt lat="45.62389" lon="6.55233">
        <ele>2020.2</ele>
        <time>2025-02-20T10:31:45Z</time>
      </trkpt>
      <trkpt lat="45.62383" lon="6.5523">
        <ele>2020.2</ele>
        <time>2025-02-20T10:31:46Z</time>
      </trkpt>
      <trkpt lat="45.62377" lon="6.55226">
        <ele>2020.2</ele>
        <time>2025-02-20T10:31:47Z</time>
      </trkpt>
      <trkpt lat="45.6237" lon="6.55223">
        <ele>2019.2</ele>
        <time>2025-02-20T10:31:48Z</time>
      </trkpt>
      <trkpt lat="45.62363" lon="6.55219">
        <ele>2017.6</ele>
        <time>2025-02-20T10:31:49Z</time>
      </trkpt>
      <trkpt lat="45.62355" lon="6.55215">
        <ele>2017.6</ele>
        <time>2025-02-20T10:31:50Z</time>
      </trkpt>
      <trkpt lat="45.62348" lon="6.55211">
        <ele>2017.6</ele>
        <time>2025-02-20T10:31:51Z</time>
      </trkpt>
      <trkpt lat="45.62339" lon="6.55207">
        <ele>2016.6</ele>
        <time>2025-02-20T10:31:52Z</time>
      </trkpt>
      <trkpt lat="45.62331" lon="6.55202">
        <ele>2011.8</ele>
        <time>2025-02-20T10:31:53Z</time>
      </trkpt>
      <trkpt lat="45.62324" lon="6.552">
        <ele>2011.8</ele>
        <time>2025-02-20T10:31:54Z</time>
      </trkpt>
      <trkpt lat="45.62318" lon="6.55196">
        <ele>2011.8</ele>
        <time>2025-02-20T10:31:55Z</time>
      </trkpt>
      <trkpt lat="45.62313" lon="6.55193">
        <ele>2010.8</ele>
        <time>2025-02-20T10:31:56Z</time>
      </trkpt>
      <trkpt lat="45.6231" lon="6.55191">
        <ele>2009.2</ele>
        <time>2025-02-20T10:31:57Z</time>
      </trkpt>
      <trkpt lat="45.62309" lon="6.5519">
        <ele>2009.2</ele>
        <time>2025-02-20T10:31:58Z</time>
      </trkpt>
      <trkpt lat="45.62308" lon="6.55189">
        <ele>2009.2</ele>
        <time>2025-02-20T10:31:59Z</time>
      </trkpt>
      <trkpt lat="45.62308" lon="6.55189">
        <ele>2009.2</ele>
        <time>2025-02-20T10:32:00Z</time>
      </trkpt>
      <trkpt lat="45.62308" lon="6.55189">
        <ele>2008.8</ele>
        <time>2025-02-20T10:32:01Z</time>
      </trkpt>
      <trkpt lat="45.62308" lon="6.55189">
        <ele>2008.8</ele>
        <time>2025-02-20T10:32:02Z</time>
      </trkpt>
      <trkpt lat="45.62306" lon="6.55187">
        <ele>2008.8</ele>
        <time>2025-02-20T10:32:03Z</time>
      </trkpt>
      <trkpt lat="45.62305" lon="6.55186">
        <ele>2009</ele>
        <time>2025-02-20T10:32:04Z</time>
      </trkpt>
      <trkpt lat="45.62305" lon="6.55185">
        <ele>2010</ele>
        <time>2025-02-20T10:32:05Z</time>
      </trkpt>
      <trkpt lat="45.62305" lon="6.55185">
        <ele>2010</ele>
        <time>2025-02-20T10:32:06Z</time>
      </trkpt>
      <trkpt lat="45.62304" lon="6.55185">
        <ele>2010</ele>
        <time>2025-02-20T10:32:07Z</time>
      </trkpt>
      <trkpt lat="45.62304" lon="6.55184">
        <ele>2010</ele>
        <time>2025-02-20T10:32:08Z</time>
      </trkpt>
      <trkpt lat="45.62303" lon="6.55184">
        <ele>2009.4</ele>
        <time>2025-02-20T10:32:09Z</time>
      </trkpt>
      <trkpt lat="45.62302" lon="6.55182">
        <ele>2009.4</ele>
        <time>2025-02-20T10:32:10Z</time>
      </trkpt>
      <trkpt lat="45.62302" lon="6.55182">
        <ele>2009.4</ele>
        <time>2025-02-20T10:32:11Z</time>
      </trkpt>
      <trkpt lat="45.62302" lon="6.55181">
        <ele>2009.4</ele>
        <time>2025-02-20T10:32:12Z</time>
      </trkpt>
      <trkpt lat="45.62301" lon="6.5518">
        <ele>2010</ele>
        <time>2025-02-20T10:32:13Z</time>
      </trkpt>
      <trkpt lat="45.62301" lon="6.55179">
        <ele>2010</ele>
        <time>2025-02-20T10:32:14Z</time>
      </trkpt>
      <trkpt lat="45.623" lon="6.55179">
        <ele>2010</ele>
        <time>2025-02-20T10:32:15Z</time>
      </trkpt>
      <trkpt lat="45.623" lon="6.55177">
        <ele>2010</ele>
        <time>2025-02-20T10:32:16Z</time>
      </trkpt>
      <trkpt lat="45.62299" lon="6.55177">
        <ele>2009.8</ele>
        <time>2025-02-20T10:32:17Z</time>
      </trkpt>
      <trkpt lat="45.62298" lon="6.55175">
        <ele>2009.8</ele>
        <time>2025-02-20T10:32:18Z</time>
      </trkpt>
      <trkpt lat="45.62297" lon="6.55173">
        <ele>2009.8</ele>
        <time>2025-02-20T10:32:19Z</time>
      </trkpt>
      <trkpt lat="45.62296" lon="6.5517">
        <ele>2009.8</ele>
        <time>2025-02-20T10:32:20Z</time>
      </trkpt>
      <trkpt lat="45.62294" lon="6.55167">
        <ele>2009.6</ele>
        <time>2025-02-20T10:32:21Z</time>
      </trkpt>
      <trkpt lat="45.62292" lon="6.55165">
        <ele>2009.6</ele>
        <time>2025-02-20T10:32:22Z</time>
      </trkpt>
      <trkpt lat="45.62289" lon="6.5516">
        <ele>2009.6</ele>
        <time>2025-02-20T10:32:23Z</time>
      </trkpt>
      <trkpt lat="45.62287" lon="6.55156">
        <ele>2009</ele>
        <time>2025-02-20T10:32:24Z</time>
      </trkpt>
      <trkpt lat="45.62284" lon="6.55151">
        <ele>2008.4</ele>
        <time>2025-02-20T10:32:25Z</time>
      </trkpt>
      <trkpt lat="45.62282" lon="6.55145">
        <ele>2008.4</ele>
        <time>2025-02-20T10:32:26Z</time>
      </trkpt>
      <trkpt lat="45.6228" lon="6.55141">
        <ele>2008.4</ele>
        <time>2025-02-20T10:32:27Z</time>
      </trkpt>
      <trkpt lat="45.62278" lon="6.55136">
        <ele>2007.4</ele>
        <time>2025-02-20T10:32:28Z</time>
      </trkpt>
      <trkpt lat="45.62276" lon="6.55132">
        <ele>2006.4</ele>
        <time>2025-02-20T10:32:29Z</time>
      </trkpt>
      <trkpt lat="45.62275" lon="6.55128">
        <ele>2006.4</ele>
        <time>2025-02-20T10:32:30Z</time>
      </trkpt>
      <trkpt lat="45.62273" lon="6.55124">
        <ele>2006.4</ele>
        <time>2025-02-20T10:32:31Z</time>
      </trkpt>
      <trkpt lat="45.62271" lon="6.55119">
        <ele>2005.4</ele>
        <time>2025-02-20T10:32:32Z</time>
      </trkpt>
      <trkpt lat="45.62269" lon="6.55114">
        <ele>2004.6</ele>
        <time>2025-02-20T10:32:33Z</time>
      </trkpt>
      <trkpt lat="45.62268" lon="6.55108">
        <ele>2004.6</ele>
        <time>2025-02-20T10:32:34Z</time>
      </trkpt>
      <trkpt lat="45.62266" lon="6.55103">
        <ele>2004.6</ele>
        <time>2025-02-20T10:32:35Z</time>
      </trkpt>
      <trkpt lat="45.62265" lon="6.55099">
        <ele>2003.6</ele>
        <time>2025-02-20T10:32:36Z</time>
      </trkpt>
      <trkpt lat="45.62264" lon="6.55095">
        <ele>2002.4</ele>
        <time>2025-02-20T10:32:37Z</time>
      </trkpt>
      <trkpt lat="45.62262" lon="6.5509">
        <ele>2002.4</ele>
        <time>2025-02-20T10:32:38Z</time>
      </trkpt>
      <trkpt lat="45.6226" lon="6.55084">
        <ele>2002.4</ele>
        <time>2025-02-20T10:32:39Z</time>
      </trkpt>
      <trkpt lat="45.62258" lon="6.55078">
        <ele>2001.4</ele>
        <time>2025-02-20T10:32:40Z</time>
      </trkpt>
      <trkpt lat="45.62256" lon="6.55072">
        <ele>2000.2</ele>
        <time>2025-02-20T10:32:41Z</time>
      </trkpt>
      <trkpt lat="45.62253" lon="6.55065">
        <ele>2000.2</ele>
        <time>2025-02-20T10:32:42Z</time>
      </trkpt>
      <trkpt lat="45.6225" lon="6.55058">
        <ele>2000.2</ele>
        <time>2025-02-20T10:32:43Z</time>
      </trkpt>
      <trkpt lat="45.62248" lon="6.55051">
        <ele>1999.2</ele>
        <time>2025-02-20T10:32:44Z</time>
      </trkpt>
      <trkpt lat="45.62246" lon="6.55045">
        <ele>1996</ele>
        <time>2025-02-20T10:32:45Z</time>
      </trkpt>
      <trkpt lat="45.62245" lon="6.55038">
        <ele>1996</ele>
        <time>2025-02-20T10:32:46Z</time>
      </trkpt>
      <trkpt lat="45.62243" lon="6.55031">
        <ele>1996</ele>
        <time>2025-02-20T10:32:47Z</time>
      </trkpt>
      <trkpt lat="45.62242" lon="6.55025">
        <ele>1995</ele>
        <time>2025-02-20T10:32:48Z</time>
      </trkpt>
      <trkpt lat="45.62242" lon="6.5502">
        <ele>1993.8</ele>
        <time>2025-02-20T10:32:49Z</time>
      </trkpt>
      <trkpt lat="45.62241" lon="6.55016">
        <ele>1993.8</ele>
        <time>2025-02-20T10:32:50Z</time>
      </trkpt>
      <trkpt lat="45.6224" lon="6.55012">
        <ele>1993.8</ele>
        <time>2025-02-20T10:32:51Z</time>
      </trkpt>
      <trkpt lat="45.6224" lon="6.55009">
        <ele>1992.8</ele>
        <time>2025-02-20T10:32:52Z</time>
      </trkpt>
      <trkpt lat="45.62239" lon="6.55005">
        <ele>1992.4</ele>
        <time>2025-02-20T10:32:53Z</time>
      </trkpt>
      <trkpt lat="45.62239" lon="6.55001">
        <ele>1992.4</ele>
        <time>2025-02-20T10:32:54Z</time>
      </trkpt>
      <trkpt lat="45.62238" lon="6.54997">
        <ele>1992.4</ele>
        <time>2025-02-20T10:32:55Z</time>
      </trkpt>
      <trkpt lat="45.62238" lon="6.54992">
        <ele>1991.4</ele>
        <time>2025-02-20T10:32:56Z</time>
      </trkpt>
      <trkpt lat="45.62237" lon="6.54987">
        <ele>1991</ele>
        <time>2025-02-20T10:32:57Z</time>
      </trkpt>
      <trkpt lat="45.62236" lon="6.54981">
        <ele>1991</ele>
        <time>2025-02-20T10:32:58Z</time>
      </trkpt>
      <trkpt lat="45.62233" lon="6.54974">
        <ele>1991</ele>
        <time>2025-02-20T10:32:59Z</time>
      </trkpt>
      <trkpt lat="45.62228" lon="6.54975">
        <ele>1990</ele>
        <time>2025-02-20T10:33:00Z</time>
      </trkpt>
      <trkpt lat="45.62225" lon="6.54979">
        <ele>1984.6</ele>
        <time>2025-02-20T10:33:01Z</time>
      </trkpt>
      <trkpt lat="45.6222" lon="6.54979">
        <ele>1984.6</ele>
        <time>2025-02-20T10:33:02Z</time>
      </trkpt>
      <trkpt lat="45.62217" lon="6.54973">
        <ele>1984.6</ele>
        <time>2025-02-20T10:33:03Z</time>
      </trkpt>
      <trkpt lat="45.62212" lon="6.54971">
        <ele>1983.6</ele>
        <time>2025-02-20T10:33:04Z</time>
      </trkpt>
      <trkpt lat="45.62208" lon="6.54975">
        <ele>1976</ele>
        <time>2025-02-20T10:33:05Z</time>
      </trkpt>
      <trkpt lat="45.62202" lon="6.54974">
        <ele>1976</ele>
        <time>2025-02-20T10:33:06Z</time>
      </trkpt>
      <trkpt lat="45.62195" lon="6.54971">
        <ele>1976</ele>
        <time>2025-02-20T10:33:07Z</time>
      </trkpt>
      <trkpt lat="45.62187" lon="6.54972">
        <ele>1975</ele>
        <time>2025-02-20T10:33:08Z</time>
      </trkpt>
      <trkpt lat="45.62179" lon="6.54977">
        <ele>1967</ele>
        <time>2025-02-20T10:33:09Z</time>
      </trkpt>
      <trkpt lat="45.62171" lon="6.54981">
        <ele>1967</ele>
        <time>2025-02-20T10:33:10Z</time>
      </trkpt>
      <trkpt lat="45.62163" lon="6.54983">
        <ele>1967</ele>
        <time>2025-02-20T10:33:11Z</time>
      </trkpt>
      <trkpt lat="45.62155" lon="6.54986">
        <ele>1966</ele>
        <time>2025-02-20T10:33:12Z</time>
      </trkpt>
      <trkpt lat="45.62148" lon="6.54985">
        <ele>1960.2</ele>
        <time>2025-02-20T10:33:13Z</time>
      </trkpt>
      <trkpt lat="45.62144" lon="6.54982">
        <ele>1960.2</ele>
        <time>2025-02-20T10:33:14Z</time>
      </trkpt>
      <trkpt lat="45.62142" lon="6.54978">
        <ele>1960.2</ele>
        <time>2025-02-20T10:33:15Z</time>
      </trkpt>
      <trkpt lat="45.62141" lon="6.54974">
        <ele>1960.2</ele>
        <time>2025-02-20T10:33:16Z</time>
      </trkpt>
      <trkpt lat="45.6214" lon="6.54971">
        <ele>1960.8</ele>
        <time>2025-02-20T10:33:17Z</time>
      </trkpt>
      <trkpt lat="45.62139" lon="6.54967">
        <ele>1960.8</ele>
        <time>2025-02-20T10:33:18Z</time>
      </trkpt>
      <trkpt lat="45.62137" lon="6.54962">
        <ele>1960.8</ele>
        <time>2025-02-20T10:33:19Z</time>
      </trkpt>
      <trkpt lat="45.62135" lon="6.54957">
        <ele>1959.8</ele>
        <time>2025-02-20T10:33:20Z</time>
      </trkpt>
      <trkpt lat="45.62134" lon="6.54951">
        <ele>1959.2</ele>
        <time>2025-02-20T10:33:21Z</time>
      </trkpt>
      <trkpt lat="45.62132" lon="6.54943">
        <ele>1959.2</ele>
        <time>2025-02-20T10:33:22Z</time>
      </trkpt>
      <trkpt lat="45.6213" lon="6.54936">
        <ele>1959.2</ele>
        <time>2025-02-20T10:33:23Z</time>
      </trkpt>
      <trkpt lat="45.62128" lon="6.54929">
        <ele>1958.2</ele>
        <time>2025-02-20T10:33:24Z</time>
      </trkpt>
      <trkpt lat="45.62125" lon="6.54921">
        <ele>1957.2</ele>
        <time>2025-02-20T10:33:25Z</time>
      </trkpt>
      <trkpt lat="45.62124" lon="6.54914">
        <ele>1957.2</ele>
        <time>2025-02-20T10:33:26Z</time>
      </trkpt>
      <trkpt lat="45.62122" lon="6.54906">
        <ele>1957.2</ele>
        <time>2025-02-20T10:33:27Z</time>
      </trkpt>
      <trkpt lat="45.62119" lon="6.54899">
        <ele>1956.2</ele>
        <time>2025-02-20T10:33:28Z</time>
      </trkpt>
      <trkpt lat="45.62116" lon="6.54892">
        <ele>1954.2</ele>
        <time>2025-02-20T10:33:29Z</time>
      </trkpt>
      <trkpt lat="45.62113" lon="6.54886">
        <ele>1954.2</ele>
        <time>2025-02-20T10:33:30Z</time>
      </trkpt>
      <trkpt lat="45.6211" lon="6.54879">
        <ele>1954.2</ele>
        <time>2025-02-20T10:33:31Z</time>
      </trkpt>
      <trkpt lat="45.62107" lon="6.54873">
        <ele>1953.2</ele>
        <time>2025-02-20T10:33:32Z</time>
      </trkpt>
      <trkpt lat="45.62105" lon="6.54868">
        <ele>1952.2</ele>
        <time>2025-02-20T10:33:33Z</time>
      </trkpt>
      <trkpt lat="45.62104" lon="6.54865">
        <ele>1952.2</ele>
        <time>2025-02-20T10:33:34Z</time>
      </trkpt>
      <trkpt lat="45.62103" lon="6.54862">
        <ele>1952.2</ele>
        <time>2025-02-20T10:33:35Z</time>
      </trkpt>
      <trkpt lat="45.62102" lon="6.5486">
        <ele>1951.2</ele>
        <time>2025-02-20T10:33:36Z</time>
      </trkpt>
      <trkpt lat="45.62102" lon="6.54859">
        <ele>1950.6</ele>
        <time>2025-02-20T10:33:37Z</time>
      </trkpt>
      <trkpt lat="45.62101" lon="6.54858">
        <ele>1950.6</ele>
        <time>2025-02-20T10:33:38Z</time>
      </trkpt>
      <trkpt lat="45.62101" lon="6.54856">
        <ele>1950.6</ele>
        <time>2025-02-20T10:33:39Z</time>
      </trkpt>
      <trkpt lat="45.621" lon="6.54855">
        <ele>1951</ele>
        <time>2025-02-20T10:33:40Z</time>
      </trkpt>
      <trkpt lat="45.621" lon="6.54853">
        <ele>1950.2</ele>
        <time>2025-02-20T10:33:41Z</time>
      </trkpt>
      <trkpt lat="45.62099" lon="6.54852">
        <ele>1950.2</ele>
        <time>2025-02-20T10:33:42Z</time>
      </trkpt>
      <trkpt lat="45.62099" lon="6.54851">
        <ele>1950.2</ele>
        <time>2025-02-20T10:33:43Z</time>
      </trkpt>
      <trkpt lat="45.62099" lon="6.5485">
        <ele>1950.4</ele>
        <time>2025-02-20T10:33:44Z</time>
      </trkpt>
      <trkpt lat="45.62099" lon="6.5485">
        <ele>1950</ele>
        <time>2025-02-20T10:33:45Z</time>
      </trkpt>
      <trkpt lat="45.62099" lon="6.5485">
        <ele>1950</ele>
        <time>2025-02-20T10:33:46Z</time>
      </trkpt>
      <trkpt lat="45.62099" lon="6.5485">
        <ele>1950</ele>
        <time>2025-02-20T10:33:47Z</time>
      </trkpt>
      <trkpt lat="45.62099" lon="6.5485">
        <ele>1950</ele>
        <time>2025-02-20T10:33:48Z</time>
      </trkpt>
      <trkpt lat="45.62099" lon="6.5485">
        <ele>1951.2</ele>
        <time>2025-02-20T10:33:49Z</time>
      </trkpt>
      <trkpt lat="45.62099" lon="6.54848">
        <ele>1951.2</ele>
        <time>2025-02-20T10:33:50Z</time>
      </trkpt>
      <trkpt lat="45.62098" lon="6.54847">
        <ele>1951.2</ele>
        <time>2025-02-20T10:33:51Z</time>
      </trkpt>
      <trkpt lat="45.62097" lon="6.54845">
        <ele>1951.2</ele>
        <time>2025-02-20T10:33:52Z</time>
      </trkpt>
      <trkpt lat="45.62097" lon="6.54843">
        <ele>1950.2</ele>
        <time>2025-02-20T10:33:53Z</time>
      </trkpt>
      <trkpt lat="45.62096" lon="6.54841">
        <ele>1950.2</ele>
        <time>2025-02-20T10:33:54Z</time>
      </trkpt>
      <trkpt lat="45.62096" lon="6.54839">
        <ele>1950.2</ele>
        <time>2025-02-20T10:33:55Z</time>
      </trkpt>
      <trkpt lat="45.62095" lon="6.54837">
        <ele>1950.2</ele>
        <time>2025-02-20T10:33:56Z</time>
      </trkpt>
      <trkpt lat="45.62094" lon="6.54835">
        <ele>1950</ele>
        <time>2025-02-20T10:33:57Z</time>
      </trkpt>
      <trkpt lat="45.62093" lon="6.54831">
        <ele>1950</ele>
        <time>2025-02-20T10:33:58Z</time>
      </trkpt>
      <trkpt lat="45.62092" lon="6.54828">
        <ele>1950</ele>
        <time>2025-02-20T10:33:59Z</time>
      </trkpt>
      <trkpt lat="45.6209" lon="6.54824">
        <ele>1950</ele>
        <time>2025-02-20T10:34:00Z</time>
      </trkpt>
      <trkpt lat="45.62088" lon="6.54821">
        <ele>1950</ele>
        <time>2025-02-20T10:34:01Z</time>
      </trkpt>
      <trkpt lat="45.62086" lon="6.54818">
        <ele>1950</ele>
        <time>2025-02-20T10:34:02Z</time>
      </trkpt>
      <trkpt lat="45.62085" lon="6.54817">
        <ele>1950</ele>
        <time>2025-02-20T10:34:03Z</time>
      </trkpt>
      <trkpt lat="45.62085" lon="6.54816">
        <ele>1949.8</ele>
        <time>2025-02-20T10:34:04Z</time>
      </trkpt>
      <trkpt lat="45.62084" lon="6.54815">
        <ele>1949.8</ele>
        <time>2025-02-20T10:34:05Z</time>
      </trkpt>
      <trkpt lat="45.62084" lon="6.54814">
        <ele>1949.8</ele>
        <time>2025-02-20T10:34:06Z</time>
      </trkpt>
      <trkpt lat="45.62083" lon="6.54814">
        <ele>1949.8</ele>
        <time>2025-02-20T10:34:07Z</time>
      </trkpt>
      <trkpt lat="45.62083" lon="6.54812">
        <ele>1949.8</ele>
        <time>2025-02-20T10:34:08Z</time>
      </trkpt>
      <trkpt lat="45.62082" lon="6.54811">
        <ele>1949.2</ele>
        <time>2025-02-20T10:34:09Z</time>
      </trkpt>
      <trkpt lat="45.62081" lon="6.5481">
        <ele>1949.2</ele>
        <time>2025-02-20T10:34:10Z</time>
      </trkpt>
      <trkpt lat="45.6208" lon="6.54809">
        <ele>1949.2</ele>
        <time>2025-02-20T10:34:11Z</time>
      </trkpt>
      <trkpt lat="45.62079" lon="6.54808">
        <ele>1949.2</ele>
        <time>2025-02-20T10:34:12Z</time>
      </trkpt>
      <trkpt lat="45.62078" lon="6.54806">
        <ele>1949.2</ele>
        <time>2025-02-20T10:34:13Z</time>
      </trkpt>
      <trkpt lat="45.62077" lon="6.54805">
        <ele>1949.2</ele>
        <time>2025-02-20T10:34:14Z</time>
      </trkpt>
      <trkpt lat="45.62076" lon="6.54804">
        <ele>1949.2</ele>
        <time>2025-02-20T10:34:15Z</time>
      </trkpt>
      <trkpt lat="45.62076" lon="6.54802">
        <ele>1949.2</ele>
        <time>2025-02-20T10:34:16Z</time>
      </trkpt>
      <trkpt lat="45.62075" lon="6.54802">
        <ele>1949</ele>
        <time>2025-02-20T10:34:17Z</time>
      </trkpt>
      <trkpt lat="45.62074" lon="6.548">
        <ele>1949</ele>
        <time>2025-02-20T10:34:18Z</time>
      </trkpt>
      <trkpt lat="45.62073" lon="6.54799">
        <ele>1949</ele>
        <time>2025-02-20T10:34:19Z</time>
      </trkpt>
      <trkpt lat="45.62073" lon="6.54798">
        <ele>1949</ele>
        <time>2025-02-20T10:34:20Z</time>
      </trkpt>
      <trkpt lat="45.62072" lon="6.54797">
        <ele>1949.6</ele>
        <time>2025-02-20T10:34:21Z</time>
      </trkpt>
      <trkpt lat="45.62071" lon="6.54796">
        <ele>1949.6</ele>
        <time>2025-02-20T10:34:22Z</time>
      </trkpt>
      <trkpt lat="45.6207" lon="6.54794">
        <ele>1949.6</ele>
        <time>2025-02-20T10:34:23Z</time>
      </trkpt>
      <trkpt lat="45.6207" lon="6.54793">
        <ele>1949.2</ele>
        <time>2025-02-20T10:34:24Z</time>
      </trkpt>
      <trkpt lat="45.62069" lon="6.54791">
        <ele>1948.8</ele>
        <time>2025-02-20T10:34:25Z</time>
      </trkpt>
      <trkpt lat="45.62069" lon="6.5479">
        <ele>1948.8</ele>
        <time>2025-02-20T10:34:26Z</time>
      </trkpt>
      <trkpt lat="45.62068" lon="6.54789">
        <ele>1948.8</ele>
        <time>2025-02-20T10:34:27Z</time>
      </trkpt>
      <trkpt lat="45.62068" lon="6.54788">
        <ele>1948.8</ele>
        <time>2025-02-20T10:34:28Z</time>
      </trkpt>
      <trkpt lat="45.62068" lon="6.54788">
        <ele>1949</ele>
        <time>2025-02-20T10:34:29Z</time>
      </trkpt>
      <trkpt lat="45.62068" lon="6.54788">
        <ele>1949</ele>
        <time>2025-02-20T10:34:30Z</time>
      </trkpt>
      <trkpt lat="45.62068" lon="6.54788">
        <ele>1949</ele>
        <time>2025-02-20T10:34:31Z</time>
      </trkpt>
      <trkpt lat="45.62068" lon="6.54788">
        <ele>1949</ele>
        <time>2025-02-20T10:34:32Z</time>
      </trkpt>
      <trkpt lat="45.62068" lon="6.54788">
        <ele>1949.4</ele>
        <time>2025-02-20T10:34:33Z</time>
      </trkpt>
      <trkpt lat="45.62068" lon="6.54788">
        <ele>1949.4</ele>
        <time>2025-02-20T10:34:34Z</time>
      </trkpt>
      <trkpt lat="45.62068" lon="6.54788">
        <ele>1949.4</ele>
        <time>2025-02-20T10:34:35Z</time>
      </trkpt>
      <trkpt lat="45.62068" lon="6.54788">
        <ele>1949</ele>
        <time>2025-02-20T10:34:36Z</time>
      </trkpt>
      <trkpt lat="45.62068" lon="6.54788">
        <ele>1948.4</ele>
        <time>2025-02-20T10:34:37Z</time>
      </trkpt>
      <trkpt lat="45.62068" lon="6.54788">
        <ele>1948.4</ele>
        <time>2025-02-20T10:34:38Z</time>
      </trkpt>
      <trkpt lat="45.62068" lon="6.54788">
        <ele>1948.4</ele>
        <time>2025-02-20T10:34:39Z</time>
      </trkpt>
      <trkpt lat="45.62068" lon="6.54788">
        <ele>1948.8</ele>
        <time>2025-02-20T10:34:40Z</time>
      </trkpt>
      <trkpt lat="45.62068" lon="6.54788">
        <ele>1948.6</ele>
        <time>2025-02-20T10:34:41Z</time>
      </trkpt>
      <trkpt lat="45.62068" lon="6.54788">
        <ele>1948.6</ele>
        <time>2025-02-20T10:34:42Z</time>
      </trkpt>
      <trkpt lat="45.62068" lon="6.54788">
        <ele>1948.6</ele>
        <time>2025-02-20T10:34:43Z</time>
      </trkpt>
      <trkpt lat="45.62068" lon="6.54788">
        <ele>1948.6</ele>
        <time>2025-02-20T10:34:44Z</time>
      </trkpt>
      <trkpt lat="45.62068" lon="6.54788">
        <ele>1948.6</ele>
        <time>2025-02-20T10:34:45Z</time>
      </trkpt>
      <trkpt lat="45.62068" lon="6.54788">
        <ele>1948.6</ele>
        <time>2025-02-20T10:34:46Z</time>
      </trkpt>
      <trkpt lat="45.62068" lon="6.54788">
        <ele>1948.6</ele>
        <time>2025-02-20T10:34:47Z</time>
      </trkpt>
      <trkpt lat="45.62068" lon="6.54788">
        <ele>1948.6</ele>
        <time>2025-02-20T10:34:48Z</time>
      </trkpt>
      <trkpt lat="45.62068" lon="6.54788">
        <ele>1948.2</ele>
        <time>2025-02-20T10:34:49Z</time>
      </trkpt>
      <trkpt lat="45.62068" lon="6.54788">
        <ele>1948.2</ele>
        <time>2025-02-20T10:34:50Z</time>
      </trkpt>
      <trkpt lat="45.62068" lon="6.54788">
        <ele>1948.2</ele>
        <time>2025-02-20T10:34:51Z</time>
      </trkpt>
      <trkpt lat="45.62068" lon="6.54788">
        <ele>1948.8</ele>
        <time>2025-02-20T10:34:52Z</time>
      </trkpt>
      <trkpt lat="45.62068" lon="6.54788">
        <ele>1948.8</ele>
        <time>2025-02-20T10:34:53Z</time>
      </trkpt>
      <trkpt lat="45.62068" lon="6.54788">
        <ele>1948.8</ele>
        <time>2025-02-20T10:34:54Z</time>
      </trkpt>
      <trkpt lat="45.62068" lon="6.54788">
        <ele>1948.8</ele>
        <time>2025-02-20T10:34:55Z</time>
      </trkpt>
      <trkpt lat="45.62068" lon="6.54788">
        <ele>1948.8</ele>
        <time>2025-02-20T10:34:56Z</time>
      </trkpt>
      <trkpt lat="45.62068" lon="6.54788">
        <ele>1949</ele>
        <time>2025-02-20T10:34:57Z</time>
      </trkpt>
      <trkpt lat="45.62068" lon="6.54788">
        <ele>1949</ele>
        <time>2025-02-20T10:34:58Z</time>
      </trkpt>
      <trkpt lat="45.62068" lon="6.54788">
        <ele>1949</ele>
        <time>2025-02-20T10:34:59Z</time>
      </trkpt>
      <trkpt lat="45.62068" lon="6.54788">
        <ele>1948.6</ele>
        <time>2025-02-20T10:35:00Z</time>
      </trkpt>
      <trkpt lat="45.62068" lon="6.54788">
        <ele>1949</ele>
        <time>2025-02-20T10:35:01Z</time>
      </trkpt>
      <trkpt lat="45.62068" lon="6.54788">
        <ele>1949</ele>
        <time>2025-02-20T10:35:02Z</time>
      </trkpt>
      <trkpt lat="45.62068" lon="6.54788">
        <ele>1949</ele>
        <time>2025-02-20T10:35:03Z</time>
      </trkpt>
      <trkpt lat="45.62068" lon="6.54788">
        <ele>1949</ele>
        <time>2025-02-20T10:35:04Z</time>
      </trkpt>
      <trkpt lat="45.62068" lon="6.54788">
        <ele>1949</ele>
        <time>2025-02-20T10:35:05Z</time>
      </trkpt>
      <trkpt lat="45.62068" lon="6.54788">
        <ele>1949</ele>
        <time>2025-02-20T10:35:06Z</time>
      </trkpt>
      <trkpt lat="45.62068" lon="6.54788">
        <ele>1949</ele>
        <time>2025-02-20T10:35:07Z</time>
      </trkpt>
      <trkpt lat="45.62068" lon="6.54788">
        <ele>1948.4</ele>
        <time>2025-02-20T10:35:08Z</time>
      </trkpt>
      <trkpt lat="45.62068" lon="6.54788">
        <ele>1948.8</ele>
        <time>2025-02-20T10:35:09Z</time>
      </trkpt>
      <trkpt lat="45.62068" lon="6.54788">
        <ele>1948.8</ele>
        <time>2025-02-20T10:35:10Z</time>
      </trkpt>
      <trkpt lat="45.62068" lon="6.54788">
        <ele>1948.8</ele>
        <time>2025-02-20T10:35:11Z</time>
      </trkpt>
      <trkpt lat="45.62068" lon="6.54788">
        <ele>1948.8</ele>
        <time>2025-02-20T10:35:12Z</time>
      </trkpt>
      <trkpt lat="45.62068" lon="6.54788">
        <ele>1949</ele>
        <time>2025-02-20T10:35:13Z</time>
      </trkpt>
      <trkpt lat="45.62068" lon="6.54788">
        <ele>1949</ele>
        <time>2025-02-20T10:35:14Z</time>
      </trkpt>
      <trkpt lat="45.62068" lon="6.54788">
        <ele>1949</ele>
        <time>2025-02-20T10:35:15Z</time>
      </trkpt>
      <trkpt lat="45.62068" lon="6.54788">
        <ele>1949</ele>
        <time>2025-02-20T10:35:16Z</time>
      </trkpt>
      <trkpt lat="45.62068" lon="6.54788">
        <ele>1949</ele>
        <time>2025-02-20T10:35:17Z</time>
      </trkpt>
      <trkpt lat="45.62068" lon="6.54788">
        <ele>1949</ele>
        <time>2025-02-20T10:35:18Z</time>
      </trkpt>
      <trkpt lat="45.62068" lon="6.54788">
        <ele>1949</ele>
        <time>2025-02-20T10:35:19Z</time>
      </trkpt>
      <trkpt lat="45.62068" lon="6.54788">
        <ele>1949</ele>
        <time>2025-02-20T10:35:20Z</time>
      </trkpt>
      <trkpt lat="45.62068" lon="6.54788">
        <ele>1948.8</ele>
        <time>2025-02-20T10:35:21Z</time>
      </trkpt>
      <trkpt lat="45.62068" lon="6.54788">
        <ele>1948.8</ele>
        <time>2025-02-20T10:35:22Z</time>
      </trkpt>
      <trkpt lat="45.62068" lon="6.54788">
        <ele>1948.8</ele>
        <time>2025-02-20T10:35:23Z</time>
      </trkpt>
      <trkpt lat="45.62068" lon="6.54788">
        <ele>1948.8</ele>
        <time>2025-02-20T10:35:24Z</time>
      </trkpt>
      <trkpt lat="45.62068" lon="6.54788">
        <ele>1948.6</ele>
        <time>2025-02-20T10:35:25Z</time>
      </trkpt>
      <trkpt lat="45.62068" lon="6.54788">
        <ele>1948.6</ele>
        <time>2025-02-20T10:35:26Z</time>
      </trkpt>
      <trkpt lat="45.62068" lon="6.54788">
        <ele>1948.6</ele>
        <time>2025-02-20T10:35:27Z</time>
      </trkpt>
      <trkpt lat="45.62068" lon="6.54788">
        <ele>1948.6</ele>
        <time>2025-02-20T10:35:28Z</time>
      </trkpt>
      <trkpt lat="45.62068" lon="6.54788">
        <ele>1948.6</ele>
        <time>2025-02-20T10:35:29Z</time>
      </trkpt>
      <trkpt lat="45.62068" lon="6.54788">
        <ele>1948.6</ele>
        <time>2025-02-20T10:35:30Z</time>
      </trkpt>
      <trkpt lat="45.62068" lon="6.54788">
        <ele>1948.6</ele>
        <time>2025-02-20T10:35:31Z</time>
      </trkpt>
      <trkpt lat="45.62068" lon="6.54788">
        <ele>1948.6</ele>
        <time>2025-02-20T10:35:32Z</time>
      </trkpt>
      <trkpt lat="45.62068" lon="6.54788">
        <ele>1948.6</ele>
        <time>2025-02-20T10:35:33Z</time>
      </trkpt>
      <trkpt lat="45.62068" lon="6.54788">
        <ele>1948.6</ele>
        <time>2025-02-20T10:35:34Z</time>
      </trkpt>
      <trkpt lat="45.62068" lon="6.54788">
        <ele>1948.6</ele>
        <time>2025-02-20T10:35:35Z</time>
      </trkpt>
      <trkpt lat="45.62068" lon="6.54788">
        <ele>1948.6</ele>
        <time>2025-02-20T10:35:36Z</time>
      </trkpt>
      <trkpt lat="45.62068" lon="6.54788">
        <ele>1949</ele>
        <time>2025-02-20T10:35:37Z</time>
      </trkpt>
      <trkpt lat="45.62068" lon="6.54788">
        <ele>1949</ele>
        <time>2025-02-20T10:35:38Z</time>
      </trkpt>
      <trkpt lat="45.62068" lon="6.54788">
        <ele>1949</ele>
        <time>2025-02-20T10:35:39Z</time>
      </trkpt>
      <trkpt lat="45.62068" lon="6.54788">
        <ele>1949</ele>
        <time>2025-02-20T10:35:40Z</time>
      </trkpt>
      <trkpt lat="45.62068" lon="6.54788">
        <ele>1948.6</ele>
        <time>2025-02-20T10:35:41Z</time>
      </trkpt>
      <trkpt lat="45.62068" lon="6.54788">
        <ele>1948.6</ele>
        <time>2025-02-20T10:35:42Z</time>
      </trkpt>
      <trkpt lat="45.62068" lon="6.54788">
        <ele>1948.6</ele>
        <time>2025-02-20T10:35:43Z</time>
      </trkpt>
      <trkpt lat="45.62068" lon="6.54788">
        <ele>1948.8</ele>
        <time>2025-02-20T10:35:44Z</time>
      </trkpt>
      <trkpt lat="45.62068" lon="6.54788">
        <ele>1948.8</ele>
        <time>2025-02-20T10:35:45Z</time>
      </trkpt>
      <trkpt lat="45.62068" lon="6.54788">
        <ele>1948.8</ele>
        <time>2025-02-20T10:35:46Z</time>
      </trkpt>
      <trkpt lat="45.62068" lon="6.54788">
        <ele>1948.8</ele>
        <time>2025-02-20T10:35:47Z</time>
      </trkpt>
      <trkpt lat="45.62068" lon="6.54788">
        <ele>1948.8</ele>
        <time>2025-02-20T10:35:48Z</time>
      </trkpt>
      <trkpt lat="45.62068" lon="6.54788">
        <ele>1949</ele>
        <time>2025-02-20T10:35:49Z</time>
      </trkpt>
      <trkpt lat="45.62068" lon="6.54788">
        <ele>1949</ele>
        <time>2025-02-20T10:35:50Z</time>
      </trkpt>
      <trkpt lat="45.62068" lon="6.54788">
        <ele>1949</ele>
        <time>2025-02-20T10:35:51Z</time>
      </trkpt>
      <trkpt lat="45.62068" lon="6.54788">
        <ele>1949</ele>
        <time>2025-02-20T10:35:52Z</time>
      </trkpt>
      <trkpt lat="45.62068" lon="6.54788">
        <ele>1949</ele>
        <time>2025-02-20T10:35:53Z</time>
      </trkpt>
      <trkpt lat="45.62068" lon="6.54788">
        <ele>1949</ele>
        <time>2025-02-20T10:35:54Z</time>
      </trkpt>
      <trkpt lat="45.62068" lon="6.54788">
        <ele>1949</ele>
        <time>2025-02-20T10:35:55Z</time>
      </trkpt>
      <trkpt lat="45.62068" lon="6.54788">
        <ele>1948</ele>
        <time>2025-02-20T10:35:56Z</time>
      </trkpt>
      <trkpt lat="45.62068" lon="6.54788">
        <ele>1949.4</ele>
        <time>2025-02-20T10:35:57Z</time>
      </trkpt>
      <trkpt lat="45.62068" lon="6.54788">
        <ele>1949.4</ele>
        <time>2025-02-20T10:35:58Z</time>
      </trkpt>
      <trkpt lat="45.62068" lon="6.54788">
        <ele>1949.4</ele>
        <time>2025-02-20T10:35:59Z</time>
      </trkpt>
      <trkpt lat="45.62068" lon="6.54788">
        <ele>1948.8</ele>
        <time>2025-02-20T10:36:00Z</time>
      </trkpt>
      <trkpt lat="45.62068" lon="6.54788">
        <ele>1948.8</ele>
        <time>2025-02-20T10:36:01Z</time>
      </trkpt>
      <trkpt lat="45.62068" lon="6.54788">
        <ele>1948.8</ele>
        <time>2025-02-20T10:36:02Z</time>
      </trkpt>
      <trkpt lat="45.62068" lon="6.54788">
        <ele>1948.8</ele>
        <time>2025-02-20T10:36:03Z</time>
      </trkpt>
      <trkpt lat="45.62068" lon="6.54788">
        <ele>1948.8</ele>
        <time>2025-02-20T10:36:04Z</time>
      </trkpt>
      <trkpt lat="45.62068" lon="6.54788">
        <ele>1949</ele>
        <time>2025-02-20T10:36:05Z</time>
      </trkpt>
      <trkpt lat="45.62068" lon="6.54788">
        <ele>1949</ele>
        <time>2025-02-20T10:36:06Z</time>
      </trkpt>
      <trkpt lat="45.62068" lon="6.54788">
        <ele>1949</ele>
        <time>2025-02-20T10:36:07Z</time>
      </trkpt>
      <trkpt lat="45.62068" lon="6.54788">
        <ele>1949</ele>
        <time>2025-02-20T10:36:08Z</time>
      </trkpt>
      <trkpt lat="45.62068" lon="6.54788">
        <ele>1948.6</ele>
        <time>2025-02-20T10:36:09Z</time>
      </trkpt>
      <trkpt lat="45.62068" lon="6.54788">
        <ele>1948.6</ele>
        <time>2025-02-20T10:36:10Z</time>
      </trkpt>
      <trkpt lat="45.62068" lon="6.54788">
        <ele>1948.6</ele>
        <time>2025-02-20T10:36:11Z</time>
      </trkpt>
      <trkpt lat="45.62068" lon="6.54788">
        <ele>1949.2</ele>
        <time>2025-02-20T10:36:12Z</time>
      </trkpt>
      <trkpt lat="45.62068" lon="6.54788">
        <ele>1948.2</ele>
        <time>2025-02-20T10:36:13Z</time>
      </trkpt>
      <trkpt lat="45.62068" lon="6.54788">
        <ele>1948.2</ele>
        <time>2025-02-20T10:36:14Z</time>
      </trkpt>
      <trkpt lat="45.62068" lon="6.54788">
        <ele>1948.2</ele>
        <time>2025-02-20T10:36:15Z</time>
      </trkpt>
      <trkpt lat="45.62068" lon="6.54788">
        <ele>1948.8</ele>
        <time>2025-02-20T10:36:16Z</time>
      </trkpt>
      <trkpt lat="45.62068" lon="6.54788">
        <ele>1948.8</ele>
        <time>2025-02-20T10:36:17Z</time>
      </trkpt>
      <trkpt lat="45.62068" lon="6.54788">
        <ele>1948.8</ele>
        <time>2025-02-20T10:36:18Z</time>
      </trkpt>
      <trkpt lat="45.62068" lon="6.54788">
        <ele>1948.8</ele>
        <time>2025-02-20T10:36:19Z</time>
      </trkpt>
      <trkpt lat="45.62068" lon="6.54788">
        <ele>1949.2</ele>
        <time>2025-02-20T10:36:20Z</time>
      </trkpt>
      <trkpt lat="45.62068" lon="6.54788">
        <ele>1948.6</ele>
        <time>2025-02-20T10:36:21Z</time>
      </trkpt>
      <trkpt lat="45.62068" lon="6.54788">
        <ele>1948.6</ele>
        <time>2025-02-20T10:36:22Z</time>
      </trkpt>
      <trkpt lat="45.62068" lon="6.54788">
        <ele>1948.6</ele>
        <time>2025-02-20T10:36:23Z</time>
      </trkpt>
      <trkpt lat="45.62068" lon="6.54788">
        <ele>1948.6</ele>
        <time>2025-02-20T10:36:24Z</time>
      </trkpt>
      <trkpt lat="45.62068" lon="6.54788">
        <ele>1949.2</ele>
        <time>2025-02-20T10:36:25Z</time>
      </trkpt>
      <trkpt lat="45.62068" lon="6.54788">
        <ele>1949.2</ele>
        <time>2025-02-20T10:36:26Z</time>
      </trkpt>
      <trkpt lat="45.62068" lon="6.54788">
        <ele>1949.2</ele>
        <time>2025-02-20T10:36:27Z</time>
      </trkpt>
      <trkpt lat="45.62068" lon="6.54788">
        <ele>1948.6</ele>
        <time>2025-02-20T10:36:28Z</time>
      </trkpt>
      <trkpt lat="45.62068" lon="6.54788">
        <ele>1948.8</ele>
        <time>2025-02-20T10:36:29Z</time>
      </trkpt>
      <trkpt lat="45.62068" lon="6.54788">
        <ele>1948.8</ele>
        <time>2025-02-20T10:36:30Z</time>
      </trkpt>
      <trkpt lat="45.62068" lon="6.54788">
        <ele>1948.8</ele>
        <time>2025-02-20T10:36:31Z</time>
      </trkpt>
      <trkpt lat="45.62068" lon="6.54788">
        <ele>1948.8</ele>
        <time>2025-02-20T10:36:32Z</time>
      </trkpt>
      <trkpt lat="45.62068" lon="6.54788">
        <ele>1948.8</ele>
        <time>2025-02-20T10:36:33Z</time>
      </trkpt>
      <trkpt lat="45.62068" lon="6.54788">
        <ele>1948.8</ele>
        <time>2025-02-20T10:36:34Z</time>
      </trkpt>
      <trkpt lat="45.62068" lon="6.54788">
        <ele>1948.8</ele>
        <time>2025-02-20T10:36:35Z</time>
      </trkpt>
      <trkpt lat="45.62068" lon="6.54788">
        <ele>1948.8</ele>
        <time>2025-02-20T10:36:36Z</time>
      </trkpt>
      <trkpt lat="45.62068" lon="6.54788">
        <ele>1948.4</ele>
        <time>2025-02-20T10:36:37Z</time>
      </trkpt>
      <trkpt lat="45.62068" lon="6.54788">
        <ele>1948.4</ele>
        <time>2025-02-20T10:36:38Z</time>
      </trkpt>
      <trkpt lat="45.62068" lon="6.54788">
        <ele>1948.4</ele>
        <time>2025-02-20T10:36:39Z</time>
      </trkpt>
      <trkpt lat="45.62068" lon="6.54788">
        <ele>1948.8</ele>
        <time>2025-02-20T10:36:40Z</time>
      </trkpt>
      <trkpt lat="45.62068" lon="6.54788">
        <ele>1948.8</ele>
        <time>2025-02-20T10:36:41Z</time>
      </trkpt>
      <trkpt lat="45.62068" lon="6.54788">
        <ele>1948.8</ele>
        <time>2025-02-20T10:36:42Z</time>
      </trkpt>
      <trkpt lat="45.62068" lon="6.54788">
        <ele>1948.8</ele>
        <time>2025-02-20T10:36:43Z</time>
      </trkpt>
      <trkpt lat="45.62068" lon="6.54788">
        <ele>1948.8</ele>
        <time>2025-02-20T10:36:44Z</time>
      </trkpt>
      <trkpt lat="45.62068" lon="6.54788">
        <ele>1948.8</ele>
        <time>2025-02-20T10:36:45Z</time>
      </trkpt>
      <trkpt lat="45.62068" lon="6.54788">
        <ele>1948.8</ele>
        <time>2025-02-20T10:36:46Z</time>
      </trkpt>
      <trkpt lat="45.62068" lon="6.54788">
        <ele>1948.8</ele>
        <time>2025-02-20T10:36:47Z</time>
      </trkpt>
      <trkpt lat="45.62068" lon="6.54788">
        <ele>1948.8</ele>
        <time>2025-02-20T10:36:48Z</time>
      </trkpt>
      <trkpt lat="45.62068" lon="6.54788">
        <ele>1948.6</ele>
        <time>2025-02-20T10:36:49Z</time>
      </trkpt>
      <trkpt lat="45.62068" lon="6.54788">
        <ele>1948.6</ele>
        <time>2025-02-20T10:36:50Z</time>
      </trkpt>
      <trkpt lat="45.62068" lon="6.54788">
        <ele>1948.6</ele>
        <time>2025-02-20T10:36:51Z</time>
      </trkpt>
      <trkpt lat="45.62068" lon="6.54788">
        <ele>1949</ele>
        <time>2025-02-20T10:36:52Z</time>
      </trkpt>
      <trkpt lat="45.62068" lon="6.54788">
        <ele>1949</ele>
        <time>2025-02-20T10:36:53Z</time>
      </trkpt>
      <trkpt lat="45.62068" lon="6.54788">
        <ele>1949</ele>
        <time>2025-02-20T10:36:54Z</time>
      </trkpt>
      <trkpt lat="45.62068" lon="6.54788">
        <ele>1949</ele>
        <time>2025-02-20T10:36:55Z</time>
      </trkpt>
      <trkpt lat="45.62068" lon="6.54788">
        <ele>1949</ele>
        <time>2025-02-20T10:36:56Z</time>
      </trkpt>
      <trkpt lat="45.62068" lon="6.54788">
        <ele>1949</ele>
        <time>2025-02-20T10:36:57Z</time>
      </trkpt>
      <trkpt lat="45.62068" lon="6.54788">
        <ele>1949</ele>
        <time>2025-02-20T10:36:58Z</time>
      </trkpt>
      <trkpt lat="45.62068" lon="6.54788">
        <ele>1949</ele>
        <time>2025-02-20T10:36:59Z</time>
      </trkpt>
      <trkpt lat="45.62068" lon="6.54788">
        <ele>1949</ele>
        <time>2025-02-20T10:37:00Z</time>
      </trkpt>
      <trkpt lat="45.62068" lon="6.54788">
        <ele>1949</ele>
        <time>2025-02-20T10:37:01Z</time>
      </trkpt>
      <trkpt lat="45.62068" lon="6.54788">
        <ele>1949</ele>
        <time>2025-02-20T10:37:02Z</time>
      </trkpt>
      <trkpt lat="45.62068" lon="6.54788">
        <ele>1949</ele>
        <time>2025-02-20T10:37:03Z</time>
      </trkpt>
      <trkpt lat="45.62068" lon="6.54788">
        <ele>1949</ele>
        <time>2025-02-20T10:37:04Z</time>
      </trkpt>
      <trkpt lat="45.62068" lon="6.54788">
        <ele>1949.2</ele>
        <time>2025-02-20T10:37:05Z</time>
      </trkpt>
      <trkpt lat="45.62068" lon="6.54788">
        <ele>1949.2</ele>
        <time>2025-02-20T10:37:06Z</time>
      </trkpt>
      <trkpt lat="45.62068" lon="6.54788">
        <ele>1949.2</ele>
        <time>2025-02-20T10:37:07Z</time>
      </trkpt>
      <trkpt lat="45.62068" lon="6.54788">
        <ele>1949.2</ele>
        <time>2025-02-20T10:37:08Z</time>
      </trkpt>
      <trkpt lat="45.62068" lon="6.54788">
        <ele>1948.8</ele>
        <time>2025-02-20T10:37:09Z</time>
      </trkpt>
      <trkpt lat="45.62068" lon="6.54788">
        <ele>1948.8</ele>
        <time>2025-02-20T10:37:10Z</time>
      </trkpt>
      <trkpt lat="45.62068" lon="6.54788">
        <ele>1948.8</ele>
        <time>2025-02-20T10:37:11Z</time>
      </trkpt>
      <trkpt lat="45.62068" lon="6.54788">
        <ele>1948.8</ele>
        <time>2025-02-20T10:37:12Z</time>
      </trkpt>
      <trkpt lat="45.62068" lon="6.54788">
        <ele>1948.8</ele>
        <time>2025-02-20T10:37:13Z</time>
      </trkpt>
      <trkpt lat="45.62068" lon="6.54788">
        <ele>1948.8</ele>
        <time>2025-02-20T10:37:14Z</time>
      </trkpt>
      <trkpt lat="45.62068" lon="6.54788">
        <ele>1948.8</ele>
        <time>2025-02-20T10:37:15Z</time>
      </trkpt>
      <trkpt lat="45.62068" lon="6.54788">
        <ele>1948.8</ele>
        <time>2025-02-20T10:37:16Z</time>
      </trkpt>
      <trkpt lat="45.62068" lon="6.54788">
        <ele>1949.4</ele>
        <time>2025-02-20T10:37:17Z</time>
      </trkpt>
      <trkpt lat="45.62068" lon="6.54788">
        <ele>1949.4</ele>
        <time>2025-02-20T10:37:18Z</time>
      </trkpt>
      <trkpt lat="45.62068" lon="6.54788">
        <ele>1949.4</ele>
        <time>2025-02-20T10:37:19Z</time>
      </trkpt>
      <trkpt lat="45.62068" lon="6.54788">
        <ele>1948.6</ele>
        <time>2025-02-20T10:37:20Z</time>
      </trkpt>
      <trkpt lat="45.62068" lon="6.54788">
        <ele>1948.6</ele>
        <time>2025-02-20T10:37:21Z</time>
      </trkpt>
      <trkpt lat="45.62068" lon="6.54788">
        <ele>1948.6</ele>
        <time>2025-02-20T10:37:22Z</time>
      </trkpt>
      <trkpt lat="45.62068" lon="6.54788">
        <ele>1948.6</ele>
        <time>2025-02-20T10:37:23Z</time>
      </trkpt>
      <trkpt lat="45.62068" lon="6.54788">
        <ele>1948.8</ele>
        <time>2025-02-20T10:37:24Z</time>
      </trkpt>
      <trkpt lat="45.62068" lon="6.54788">
        <ele>1949.2</ele>
        <time>2025-02-20T10:37:25Z</time>
      </trkpt>
      <trkpt lat="45.62068" lon="6.54788">
        <ele>1949.2</ele>
        <time>2025-02-20T10:37:26Z</time>
      </trkpt>
      <trkpt lat="45.62068" lon="6.54788">
        <ele>1949.2</ele>
        <time>2025-02-20T10:37:27Z</time>
      </trkpt>
      <trkpt lat="45.62068" lon="6.54788">
        <ele>1948.6</ele>
        <time>2025-02-20T10:37:28Z</time>
      </trkpt>
      <trkpt lat="45.62068" lon="6.54788">
        <ele>1948.8</ele>
        <time>2025-02-20T10:37:29Z</time>
      </trkpt>
      <trkpt lat="45.62068" lon="6.54788">
        <ele>1948.8</ele>
        <time>2025-02-20T10:37:30Z</time>
      </trkpt>
      <trkpt lat="45.62068" lon="6.54788">
        <ele>1948.8</ele>
        <time>2025-02-20T10:37:31Z</time>
      </trkpt>
      <trkpt lat="45.62068" lon="6.54788">
        <ele>1948.8</ele>
        <time>2025-02-20T10:37:32Z</time>
      </trkpt>
      <trkpt lat="45.62068" lon="6.54788">
        <ele>1949</ele>
        <time>2025-02-20T10:37:33Z</time>
      </trkpt>
      <trkpt lat="45.62068" lon="6.54788">
        <ele>1949</ele>
        <time>2025-02-20T10:37:34Z</time>
      </trkpt>
      <trkpt lat="45.62068" lon="6.54788">
        <ele>1949</ele>
        <time>2025-02-20T10:37:35Z</time>
      </trkpt>
      <trkpt lat="45.62068" lon="6.54788">
        <ele>1949</ele>
        <time>2025-02-20T10:37:36Z</time>
      </trkpt>
      <trkpt lat="45.62068" lon="6.54788">
        <ele>1949</ele>
        <time>2025-02-20T10:37:37Z</time>
      </trkpt>
      <trkpt lat="45.62068" lon="6.54788">
        <ele>1949</ele>
        <time>2025-02-20T10:37:38Z</time>
      </trkpt>
      <trkpt lat="45.62068" lon="6.54788">
        <ele>1949</ele>
        <time>2025-02-20T10:37:39Z</time>
      </trkpt>
      <trkpt lat="45.62068" lon="6.54788">
        <ele>1949</ele>
        <time>2025-02-20T10:37:40Z</time>
      </trkpt>
      <trkpt lat="45.62068" lon="6.54788">
        <ele>1949</ele>
        <time>2025-02-20T10:37:41Z</time>
      </trkpt>
      <trkpt lat="45.62068" lon="6.54788">
        <ele>1949</ele>
        <time>2025-02-20T10:37:42Z</time>
      </trkpt>
      <trkpt lat="45.62068" lon="6.54788">
        <ele>1949</ele>
        <time>2025-02-20T10:37:43Z</time>
      </trkpt>
      <trkpt lat="45.62068" lon="6.54788">
        <ele>1949</ele>
        <time>2025-02-20T10:37:44Z</time>
      </trkpt>
      <trkpt lat="45.62068" lon="6.54788">
        <ele>1949.2</ele>
        <time>2025-02-20T10:37:45Z</time>
      </trkpt>
      <trkpt lat="45.62068" lon="6.54788">
        <ele>1949.2</ele>
        <time>2025-02-20T10:37:46Z</time>
      </trkpt>
      <trkpt lat="45.62068" lon="6.54788">
        <ele>1949.2</ele>
        <time>2025-02-20T10:37:47Z</time>
      </trkpt>
      <trkpt lat="45.62068" lon="6.54788">
        <ele>1948.8</ele>
        <time>2025-02-20T10:37:48Z</time>
      </trkpt>
      <trkpt lat="45.62068" lon="6.54788">
        <ele>1948.6</ele>
        <time>2025-02-20T10:37:49Z</time>
      </trkpt>
      <trkpt lat="45.62068" lon="6.54788">
        <ele>1948.6</ele>
        <time>2025-02-20T10:37:50Z</time>
      </trkpt>
      <trkpt lat="45.62068" lon="6.54788">
        <ele>1948.6</ele>
        <time>2025-02-20T10:37:51Z</time>
      </trkpt>
      <trkpt lat="45.62068" lon="6.54788">
        <ele>1948.6</ele>
        <time>2025-02-20T10:37:52Z</time>
      </trkpt>
      <trkpt lat="45.62068" lon="6.54788">
        <ele>1948.8</ele>
        <time>2025-02-20T10:37:53Z</time>
      </trkpt>
      <trkpt lat="45.62068" lon="6.54788">
        <ele>1948.8</ele>
        <time>2025-02-20T10:37:54Z</time>
      </trkpt>
      <trkpt lat="45.62068" lon="6.54788">
        <ele>1948.8</ele>
        <time>2025-02-20T10:37:55Z</time>
      </trkpt>
      <trkpt lat="45.62068" lon="6.54788">
        <ele>1948.8</ele>
        <time>2025-02-20T10:37:56Z</time>
      </trkpt>
      <trkpt lat="45.62068" lon="6.54788">
        <ele>1948.8</ele>
        <time>2025-02-20T10:37:57Z</time>
      </trkpt>
      <trkpt lat="45.62068" lon="6.54788">
        <ele>1948.8</ele>
        <time>2025-02-20T10:37:58Z</time>
      </trkpt>
      <trkpt lat="45.62068" lon="6.54788">
        <ele>1948.8</ele>
        <time>2025-02-20T10:37:59Z</time>
      </trkpt>
      <trkpt lat="45.62068" lon="6.54788">
        <ele>1948.8</ele>
        <time>2025-02-20T10:38:00Z</time>
      </trkpt>
      <trkpt lat="45.62068" lon="6.54788">
        <ele>1948.6</ele>
        <time>2025-02-20T10:38:01Z</time>
      </trkpt>
      <trkpt lat="45.62068" lon="6.54788">
        <ele>1948.6</ele>
        <time>2025-02-20T10:38:02Z</time>
      </trkpt>
      <trkpt lat="45.62068" lon="6.54788">
        <ele>1948.6</ele>
        <time>2025-02-20T10:38:03Z</time>
      </trkpt>
      <trkpt lat="45.62068" lon="6.54788">
        <ele>1948.4</ele>
        <time>2025-02-20T10:38:04Z</time>
      </trkpt>
      <trkpt lat="45.62068" lon="6.54788">
        <ele>1948.4</ele>
        <time>2025-02-20T10:38:05Z</time>
      </trkpt>
      <trkpt lat="45.62068" lon="6.54788">
        <ele>1948.4</ele>
        <time>2025-02-20T10:38:06Z</time>
      </trkpt>
      <trkpt lat="45.62068" lon="6.54788">
        <ele>1948.4</ele>
        <time>2025-02-20T10:38:07Z</time>
      </trkpt>
      <trkpt lat="45.62068" lon="6.54788">
        <ele>1948.4</ele>
        <time>2025-02-20T10:38:08Z</time>
      </trkpt>
      <trkpt lat="45.62068" lon="6.54788">
        <ele>1948.4</ele>
        <time>2025-02-20T10:38:09Z</time>
      </trkpt>
      <trkpt lat="45.62068" lon="6.54788">
        <ele>1948.4</ele>
        <time>2025-02-20T10:38:10Z</time>
      </trkpt>
      <trkpt lat="45.62068" lon="6.54788">
        <ele>1948.4</ele>
        <time>2025-02-20T10:38:11Z</time>
      </trkpt>
      <trkpt lat="45.62068" lon="6.54788">
        <ele>1948.4</ele>
        <time>2025-02-20T10:38:12Z</time>
      </trkpt>
      <trkpt lat="45.62068" lon="6.54788">
        <ele>1948.4</ele>
        <time>2025-02-20T10:38:13Z</time>
      </trkpt>
      <trkpt lat="45.62068" lon="6.54788">
        <ele>1948.4</ele>
        <time>2025-02-20T10:38:14Z</time>
      </trkpt>
      <trkpt lat="45.62068" lon="6.54788">
        <ele>1948.4</ele>
        <time>2025-02-20T10:38:15Z</time>
      </trkpt>
      <trkpt lat="45.62068" lon="6.54788">
        <ele>1948.4</ele>
        <time>2025-02-20T10:38:16Z</time>
      </trkpt>
      <trkpt lat="45.62068" lon="6.54788">
        <ele>1948.4</ele>
        <time>2025-02-20T10:38:17Z</time>
      </trkpt>
      <trkpt lat="45.62068" lon="6.54788">
        <ele>1948.4</ele>
        <time>2025-02-20T10:38:18Z</time>
      </trkpt>
      <trkpt lat="45.62068" lon="6.54788">
        <ele>1948.4</ele>
        <time>2025-02-20T10:38:19Z</time>
      </trkpt>
      <trkpt lat="45.62068" lon="6.54788">
        <ele>1948.4</ele>
        <time>2025-02-20T10:38:20Z</time>
      </trkpt>
      <trkpt lat="45.62068" lon="6.54788">
        <ele>1949</ele>
        <time>2025-02-20T10:38:21Z</time>
      </trkpt>
      <trkpt lat="45.62068" lon="6.54788">
        <ele>1949</ele>
        <time>2025-02-20T10:38:22Z</time>
      </trkpt>
      <trkpt lat="45.62068" lon="6.54788">
        <ele>1949</ele>
        <time>2025-02-20T10:38:23Z</time>
      </trkpt>
      <trkpt lat="45.62068" lon="6.54788">
        <ele>1949</ele>
        <time>2025-02-20T10:38:24Z</time>
      </trkpt>
      <trkpt lat="45.62068" lon="6.54788">
        <ele>1949.4</ele>
        <time>2025-02-20T10:38:25Z</time>
      </trkpt>
      <trkpt lat="45.62068" lon="6.54788">
        <ele>1949.4</ele>
        <time>2025-02-20T10:38:26Z</time>
      </trkpt>
      <trkpt lat="45.62068" lon="6.54788">
        <ele>1949.4</ele>
        <time>2025-02-20T10:38:27Z</time>
      </trkpt>
      <trkpt lat="45.62068" lon="6.54788">
        <ele>1949.4</ele>
        <time>2025-02-20T10:38:28Z</time>
      </trkpt>
      <trkpt lat="45.62068" lon="6.54788">
        <ele>1949.6</ele>
        <time>2025-02-20T10:38:29Z</time>
      </trkpt>
      <trkpt lat="45.62068" lon="6.54788">
        <ele>1949.6</ele>
        <time>2025-02-20T10:38:30Z</time>
      </trkpt>
      <trkpt lat="45.62068" lon="6.54788">
        <ele>1949.6</ele>
        <time>2025-02-20T10:38:31Z</time>
      </trkpt>
      <trkpt lat="45.62068" lon="6.54788">
        <ele>1949.2</ele>
        <time>2025-02-20T10:38:32Z</time>
      </trkpt>
      <trkpt lat="45.62068" lon="6.54788">
        <ele>1949</ele>
        <time>2025-02-20T10:38:33Z</time>
      </trkpt>
      <trkpt lat="45.62068" lon="6.54788">
        <ele>1949</ele>
        <time>2025-02-20T10:38:34Z</time>
      </trkpt>
      <trkpt lat="45.62068" lon="6.54788">
        <ele>1949</ele>
        <time>2025-02-20T10:38:35Z</time>
      </trkpt>
      <trkpt lat="45.62068" lon="6.54788">
        <ele>1949</ele>
        <time>2025-02-20T10:38:36Z</time>
      </trkpt>
      <trkpt lat="45.62068" lon="6.54788">
        <ele>1949</ele>
        <time>2025-02-20T10:38:37Z</time>
      </trkpt>
      <trkpt lat="45.62068" lon="6.54788">
        <ele>1949</ele>
        <time>2025-02-20T10:38:38Z</time>
      </trkpt>
      <trkpt lat="45.62068" lon="6.54788">
        <ele>1949</ele>
        <time>2025-02-20T10:38:39Z</time>
      </trkpt>
      <trkpt lat="45.62068" lon="6.54788">
        <ele>1949.2</ele>
        <time>2025-02-20T10:38:40Z</time>
      </trkpt>
      <trkpt lat="45.62068" lon="6.54788">
        <ele>1949.2</ele>
        <time>2025-02-20T10:38:41Z</time>
      </trkpt>
      <trkpt lat="45.62068" lon="6.54788">
        <ele>1949.2</ele>
        <time>2025-02-20T10:38:42Z</time>
      </trkpt>
      <trkpt lat="45.62068" lon="6.54788">
        <ele>1949.2</ele>
        <time>2025-02-20T10:38:43Z</time>
      </trkpt>
      <trkpt lat="45.62068" lon="6.54788">
        <ele>1949.2</ele>
        <time>2025-02-20T10:38:44Z</time>
      </trkpt>
      <trkpt lat="45.62068" lon="6.54788">
        <ele>1948.8</ele>
        <time>2025-02-20T10:38:45Z</time>
      </trkpt>
      <trkpt lat="45.62068" lon="6.54788">
        <ele>1948.8</ele>
        <time>2025-02-20T10:38:46Z</time>
      </trkpt>
      <trkpt lat="45.62068" lon="6.54788">
        <ele>1948.8</ele>
        <time>2025-02-20T10:38:47Z</time>
      </trkpt>
      <trkpt lat="45.62068" lon="6.54788">
        <ele>1948.8</ele>
        <time>2025-02-20T10:38:48Z</time>
      </trkpt>
      <trkpt lat="45.62068" lon="6.54788">
        <ele>1948.4</ele>
        <time>2025-02-20T10:38:49Z</time>
      </trkpt>
      <trkpt lat="45.62068" lon="6.54788">
        <ele>1948.4</ele>
        <time>2025-02-20T10:38:50Z</time>
      </trkpt>
      <trkpt lat="45.62068" lon="6.54788">
        <ele>1948.4</ele>
        <time>2025-02-20T10:38:51Z</time>
      </trkpt>
      <trkpt lat="45.62068" lon="6.54788">
        <ele>1948.8</ele>
        <time>2025-02-20T10:38:52Z</time>
      </trkpt>
      <trkpt lat="45.62068" lon="6.54788">
        <ele>1949.6</ele>
        <time>2025-02-20T10:38:53Z</time>
      </trkpt>
      <trkpt lat="45.62068" lon="6.54788">
        <ele>1949.6</ele>
        <time>2025-02-20T10:38:54Z</time>
      </trkpt>
      <trkpt lat="45.62068" lon="6.54788">
        <ele>1949.6</ele>
        <time>2025-02-20T10:38:55Z</time>
      </trkpt>
      <trkpt lat="45.62068" lon="6.54788">
        <ele>1949.2</ele>
        <time>2025-02-20T10:38:56Z</time>
      </trkpt>
      <trkpt lat="45.62068" lon="6.54788">
        <ele>1948.8</ele>
        <time>2025-02-20T10:38:57Z</time>
      </trkpt>
      <trkpt lat="45.62068" lon="6.54788">
        <ele>1948.8</ele>
        <time>2025-02-20T10:38:58Z</time>
      </trkpt>
      <trkpt lat="45.62068" lon="6.54788">
        <ele>1948.8</ele>
        <time>2025-02-20T10:38:59Z</time>
      </trkpt>
      <trkpt lat="45.62068" lon="6.54788">
        <ele>1948.8</ele>
        <time>2025-02-20T10:39:00Z</time>
      </trkpt>
      <trkpt lat="45.62068" lon="6.54788">
        <ele>1949.2</ele>
        <time>2025-02-20T10:39:01Z</time>
      </trkpt>
      <trkpt lat="45.62068" lon="6.54788">
        <ele>1949.2</ele>
        <time>2025-02-20T10:39:02Z</time>
      </trkpt>
      <trkpt lat="45.62068" lon="6.54788">
        <ele>1949.2</ele>
        <time>2025-02-20T10:39:03Z</time>
      </trkpt>
      <trkpt lat="45.62068" lon="6.54788">
        <ele>1949.2</ele>
        <time>2025-02-20T10:39:04Z</time>
      </trkpt>
      <trkpt lat="45.62068" lon="6.54788">
        <ele>1948.6</ele>
        <time>2025-02-20T10:39:05Z</time>
      </trkpt>
      <trkpt lat="45.62068" lon="6.54788">
        <ele>1948.6</ele>
        <time>2025-02-20T10:39:06Z</time>
      </trkpt>
      <trkpt lat="45.62068" lon="6.54788">
        <ele>1948.6</ele>
        <time>2025-02-20T10:39:07Z</time>
      </trkpt>
      <trkpt lat="45.62068" lon="6.54788">
        <ele>1948.6</ele>
        <time>2025-02-20T10:39:08Z</time>
      </trkpt>
      <trkpt lat="45.62068" lon="6.54788">
        <ele>1949</ele>
        <time>2025-02-20T10:39:09Z</time>
      </trkpt>
      <trkpt lat="45.62068" lon="6.54788">
        <ele>1949</ele>
        <time>2025-02-20T10:39:10Z</time>
      </trkpt>
      <trkpt lat="45.62068" lon="6.54788">
        <ele>1949</ele>
        <time>2025-02-20T10:39:11Z</time>
      </trkpt>
      <trkpt lat="45.62068" lon="6.54788">
        <ele>1949</ele>
        <time>2025-02-20T10:39:12Z</time>
      </trkpt>
      <trkpt lat="45.62068" lon="6.54788">
        <ele>1949.2</ele>
        <time>2025-02-20T10:39:13Z</time>
      </trkpt>
      <trkpt lat="45.62068" lon="6.54788">
        <ele>1949.2</ele>
        <time>2025-02-20T10:39:14Z</time>
      </trkpt>
      <trkpt lat="45.62068" lon="6.54788">
        <ele>1949.2</ele>
        <time>2025-02-20T10:39:15Z</time>
      </trkpt>
      <trkpt lat="45.62068" lon="6.54788">
        <ele>1949.2</ele>
        <time>2025-02-20T10:39:16Z</time>
      </trkpt>
      <trkpt lat="45.62068" lon="6.54788">
        <ele>1949</ele>
        <time>2025-02-20T10:39:17Z</time>
      </trkpt>
      <trkpt lat="45.62068" lon="6.54788">
        <ele>1949</ele>
        <time>2025-02-20T10:39:18Z</time>
      </trkpt>
      <trkpt lat="45.62068" lon="6.54788">
        <ele>1949</ele>
        <time>2025-02-20T10:39:19Z</time>
      </trkpt>
      <trkpt lat="45.62068" lon="6.54788">
        <ele>1949</ele>
        <time>2025-02-20T10:39:20Z</time>
      </trkpt>
      <trkpt lat="45.62068" lon="6.54788">
        <ele>1948.4</ele>
        <time>2025-02-20T10:39:21Z</time>
      </trkpt>
      <trkpt lat="45.62068" lon="6.54788">
        <ele>1948.4</ele>
        <time>2025-02-20T10:39:22Z</time>
      </trkpt>
      <trkpt lat="45.62068" lon="6.54788">
        <ele>1948.4</ele>
        <time>2025-02-20T10:39:23Z</time>
      </trkpt>
      <trkpt lat="45.62068" lon="6.54788">
        <ele>1948.4</ele>
        <time>2025-02-20T10:39:24Z</time>
      </trkpt>
      <trkpt lat="45.62068" lon="6.54788">
        <ele>1949</ele>
        <time>2025-02-20T10:39:25Z</time>
      </trkpt>
      <trkpt lat="45.62068" lon="6.54788">
        <ele>1949</ele>
        <time>2025-02-20T10:39:26Z</time>
      </trkpt>
      <trkpt lat="45.62068" lon="6.54788">
        <ele>1949</ele>
        <time>2025-02-20T10:39:27Z</time>
      </trkpt>
      <trkpt lat="45.62068" lon="6.54788">
        <ele>1948.6</ele>
        <time>2025-02-20T10:39:28Z</time>
      </trkpt>
      <trkpt lat="45.62068" lon="6.54788">
        <ele>1948.4</ele>
        <time>2025-02-20T10:39:29Z</time>
      </trkpt>
      <trkpt lat="45.62068" lon="6.54788">
        <ele>1948.4</ele>
        <time>2025-02-20T10:39:30Z</time>
      </trkpt>
      <trkpt lat="45.62068" lon="6.54788">
        <ele>1948.4</ele>
        <time>2025-02-20T10:39:31Z</time>
      </trkpt>
      <trkpt lat="45.62068" lon="6.54788">
        <ele>1949</ele>
        <time>2025-02-20T10:39:32Z</time>
      </trkpt>
      <trkpt lat="45.62068" lon="6.54788">
        <ele>1948.8</ele>
        <time>2025-02-20T10:39:33Z</time>
      </trkpt>
      <trkpt lat="45.62068" lon="6.54788">
        <ele>1948.8</ele>
        <time>2025-02-20T10:39:34Z</time>
      </trkpt>
      <trkpt lat="45.62068" lon="6.54788">
        <ele>1948.8</ele>
        <time>2025-02-20T10:39:35Z</time>
      </trkpt>
      <trkpt lat="45.62068" lon="6.54788">
        <ele>1949</ele>
        <time>2025-02-20T10:39:36Z</time>
      </trkpt>
      <trkpt lat="45.62068" lon="6.54788">
        <ele>1949.2</ele>
        <time>2025-02-20T10:39:37Z</time>
      </trkpt>
      <trkpt lat="45.62068" lon="6.54788">
        <ele>1949.2</ele>
        <time>2025-02-20T10:39:38Z</time>
      </trkpt>
      <trkpt lat="45.62068" lon="6.54788">
        <ele>1949.2</ele>
        <time>2025-02-20T10:39:39Z</time>
      </trkpt>
      <trkpt lat="45.62068" lon="6.54788">
        <ele>1949.2</ele>
        <time>2025-02-20T10:39:40Z</time>
      </trkpt>
      <trkpt lat="45.62068" lon="6.54788">
        <ele>1949.4</ele>
        <time>2025-02-20T10:39:41Z</time>
      </trkpt>
      <trkpt lat="45.62068" lon="6.54788">
        <ele>1949.4</ele>
        <time>2025-02-20T10:39:42Z</time>
      </trkpt>
      <trkpt lat="45.62068" lon="6.54788">
        <ele>1949.4</ele>
        <time>2025-02-20T10:39:43Z</time>
      </trkpt>
      <trkpt lat="45.62068" lon="6.54788">
        <ele>1949.4</ele>
        <time>2025-02-20T10:39:44Z</time>
      </trkpt>
      <trkpt lat="45.62068" lon="6.54788">
        <ele>1949</ele>
        <time>2025-02-20T10:39:45Z</time>
      </trkpt>
      <trkpt lat="45.62068" lon="6.54788">
        <ele>1949</ele>
        <time>2025-02-20T10:39:46Z</time>
      </trkpt>
      <trkpt lat="45.62068" lon="6.54788">
        <ele>1949</ele>
        <time>2025-02-20T10:39:47Z</time>
      </trkpt>
      <trkpt lat="45.62068" lon="6.54788">
        <ele>1949</ele>
        <time>2025-02-20T10:39:48Z</time>
      </trkpt>
      <trkpt lat="45.62068" lon="6.54788">
        <ele>1949</ele>
        <time>2025-02-20T10:39:49Z</time>
      </trkpt>
      <trkpt lat="45.62068" lon="6.54788">
        <ele>1949</ele>
        <time>2025-02-20T10:39:50Z</time>
      </trkpt>
      <trkpt lat="45.62068" lon="6.54788">
        <ele>1949</ele>
        <time>2025-02-20T10:39:51Z</time>
      </trkpt>
      <trkpt lat="45.62068" lon="6.54788">
        <ele>1948.6</ele>
        <time>2025-02-20T10:39:52Z</time>
      </trkpt>
      <trkpt lat="45.62068" lon="6.54788">
        <ele>1949</ele>
        <time>2025-02-20T10:39:53Z</time>
      </trkpt>
      <trkpt lat="45.62068" lon="6.54788">
        <ele>1949</ele>
        <time>2025-02-20T10:39:54Z</time>
      </trkpt>
      <trkpt lat="45.62068" lon="6.54788">
        <ele>1949</ele>
        <time>2025-02-20T10:39:55Z</time>
      </trkpt>
      <trkpt lat="45.62068" lon="6.54788">
        <ele>1948.8</ele>
        <time>2025-02-20T10:39:56Z</time>
      </trkpt>
      <trkpt lat="45.62068" lon="6.54788">
        <ele>1949</ele>
        <time>2025-02-20T10:39:57Z</time>
      </trkpt>
      <trkpt lat="45.62068" lon="6.54788">
        <ele>1949</ele>
        <time>2025-02-20T10:39:58Z</time>
      </trkpt>
      <trkpt lat="45.62068" lon="6.54788">
        <ele>1949</ele>
        <time>2025-02-20T10:39:59Z</time>
      </trkpt>
      <trkpt lat="45.62068" lon="6.54788">
        <ele>1949</ele>
        <time>2025-02-20T10:40:00Z</time>
      </trkpt>
      <trkpt lat="45.62068" lon="6.54788">
        <ele>1949</ele>
        <time>2025-02-20T10:40:01Z</time>
      </trkpt>
      <trkpt lat="45.62068" lon="6.54788">
        <ele>1949</ele>
        <time>2025-02-20T10:40:02Z</time>
      </trkpt>
      <trkpt lat="45.62068" lon="6.54788">
        <ele>1949</ele>
        <time>2025-02-20T10:40:03Z</time>
      </trkpt>
      <trkpt lat="45.62068" lon="6.54788">
        <ele>1949</ele>
        <time>2025-02-20T10:40:04Z</time>
      </trkpt>
      <trkpt lat="45.62068" lon="6.54788">
        <ele>1948.6</ele>
        <time>2025-02-20T10:40:05Z</time>
      </trkpt>
      <trkpt lat="45.62068" lon="6.54788">
        <ele>1948.6</ele>
        <time>2025-02-20T10:40:06Z</time>
      </trkpt>
      <trkpt lat="45.62068" lon="6.54788">
        <ele>1948.6</ele>
        <time>2025-02-20T10:40:07Z</time>
      </trkpt>
      <trkpt lat="45.62068" lon="6.54788">
        <ele>1948.6</ele>
        <time>2025-02-20T10:40:08Z</time>
      </trkpt>
      <trkpt lat="45.62068" lon="6.54788">
        <ele>1948.8</ele>
        <time>2025-02-20T10:40:09Z</time>
      </trkpt>
      <trkpt lat="45.62068" lon="6.54788">
        <ele>1948.8</ele>
        <time>2025-02-20T10:40:10Z</time>
      </trkpt>
      <trkpt lat="45.62068" lon="6.54788">
        <ele>1948.8</ele>
        <time>2025-02-20T10:40:11Z</time>
      </trkpt>
      <trkpt lat="45.62068" lon="6.54788">
        <ele>1948.8</ele>
        <time>2025-02-20T10:40:12Z</time>
      </trkpt>
      <trkpt lat="45.62068" lon="6.54788">
        <ele>1948.8</ele>
        <time>2025-02-20T10:40:13Z</time>
      </trkpt>
      <trkpt lat="45.62068" lon="6.54788">
        <ele>1948.8</ele>
        <time>2025-02-20T10:40:14Z</time>
      </trkpt>
      <trkpt lat="45.62068" lon="6.54788">
        <ele>1948.8</ele>
        <time>2025-02-20T10:40:15Z</time>
      </trkpt>
      <trkpt lat="45.62068" lon="6.54788">
        <ele>1948.8</ele>
        <time>2025-02-20T10:40:16Z</time>
      </trkpt>
      <trkpt lat="45.62068" lon="6.54788">
        <ele>1948.8</ele>
        <time>2025-02-20T10:40:17Z</time>
      </trkpt>
      <trkpt lat="45.62068" lon="6.54788">
        <ele>1948.8</ele>
        <time>2025-02-20T10:40:18Z</time>
      </trkpt>
      <trkpt lat="45.62068" lon="6.54788">
        <ele>1948.8</ele>
        <time>2025-02-20T10:40:19Z</time>
      </trkpt>
      <trkpt lat="45.62068" lon="6.54788">
        <ele>1948.8</ele>
        <time>2025-02-20T10:40:20Z</time>
      </trkpt>
      <trkpt lat="45.62068" lon="6.54788">
        <ele>1949</ele>
        <time>2025-02-20T10:40:21Z</time>
      </trkpt>
      <trkpt lat="45.62068" lon="6.54788">
        <ele>1949</ele>
        <time>2025-02-20T10:40:22Z</time>
      </trkpt>
      <trkpt lat="45.62068" lon="6.54788">
        <ele>1949</ele>
        <time>2025-02-20T10:40:23Z</time>
      </trkpt>
      <trkpt lat="45.62068" lon="6.54788">
        <ele>1949</ele>
        <time>2025-02-20T10:40:24Z</time>
      </trkpt>
      <trkpt lat="45.62068" lon="6.54788">
        <ele>1948.8</ele>
        <time>2025-02-20T10:40:25Z</time>
      </trkpt>
      <trkpt lat="45.62068" lon="6.54788">
        <ele>1948.8</ele>
        <time>2025-02-20T10:40:26Z</time>
      </trkpt>
      <trkpt lat="45.62068" lon="6.54788">
        <ele>1948.8</ele>
        <time>2025-02-20T10:40:27Z</time>
      </trkpt>
      <trkpt lat="45.62068" lon="6.54788">
        <ele>1949.2</ele>
        <time>2025-02-20T10:40:28Z</time>
      </trkpt>
      <trkpt lat="45.62068" lon="6.54788">
        <ele>1948.8</ele>
        <time>2025-02-20T10:40:29Z</time>
      </trkpt>
      <trkpt lat="45.62068" lon="6.54788">
        <ele>1948.8</ele>
        <time>2025-02-20T10:40:30Z</time>
      </trkpt>
      <trkpt lat="45.62068" lon="6.54788">
        <ele>1948.8</ele>
        <time>2025-02-20T10:40:31Z</time>
      </trkpt>
      <trkpt lat="45.62068" lon="6.54788">
        <ele>1949.4</ele>
        <time>2025-02-20T10:40:32Z</time>
      </trkpt>
      <trkpt lat="45.62068" lon="6.54788">
        <ele>1949.8</ele>
        <time>2025-02-20T10:40:33Z</time>
      </trkpt>
      <trkpt lat="45.62068" lon="6.54788">
        <ele>1949.8</ele>
        <time>2025-02-20T10:40:34Z</time>
      </trkpt>
      <trkpt lat="45.62068" lon="6.54788">
        <ele>1949.8</ele>
        <time>2025-02-20T10:40:35Z</time>
      </trkpt>
      <trkpt lat="45.62068" lon="6.54788">
        <ele>1949.2</ele>
        <time>2025-02-20T10:40:36Z</time>
      </trkpt>
      <trkpt lat="45.62068" lon="6.54788">
        <ele>1948.8</ele>
        <time>2025-02-20T10:40:37Z</time>
      </trkpt>
      <trkpt lat="45.62068" lon="6.54788">
        <ele>1948.8</ele>
        <time>2025-02-20T10:40:38Z</time>
      </trkpt>
      <trkpt lat="45.62068" lon="6.54788">
        <ele>1948.8</ele>
        <time>2025-02-20T10:40:39Z</time>
      </trkpt>
      <trkpt lat="45.62068" lon="6.54788">
        <ele>1948.8</ele>
        <time>2025-02-20T10:40:40Z</time>
      </trkpt>
      <trkpt lat="45.62068" lon="6.54788">
        <ele>1949</ele>
        <time>2025-02-20T10:40:41Z</time>
      </trkpt>
      <trkpt lat="45.62068" lon="6.54788">
        <ele>1949</ele>
        <time>2025-02-20T10:40:42Z</time>
      </trkpt>
      <trkpt lat="45.62068" lon="6.54788">
        <ele>1949</ele>
        <time>2025-02-20T10:40:43Z</time>
      </trkpt>
      <trkpt lat="45.62068" lon="6.54788">
        <ele>1949.4</ele>
        <time>2025-02-20T10:40:44Z</time>
      </trkpt>
      <trkpt lat="45.62068" lon="6.54788">
        <ele>1948.8</ele>
        <time>2025-02-20T10:40:45Z</time>
      </trkpt>
      <trkpt lat="45.62068" lon="6.54788">
        <ele>1948.8</ele>
        <time>2025-02-20T10:40:46Z</time>
      </trkpt>
      <trkpt lat="45.62068" lon="6.54788">
        <ele>1948.8</ele>
        <time>2025-02-20T10:40:47Z</time>
      </trkpt>
      <trkpt lat="45.62068" lon="6.54788">
        <ele>1948.8</ele>
        <time>2025-02-20T10:40:48Z</time>
      </trkpt>
      <trkpt lat="45.62068" lon="6.54788">
        <ele>1949.2</ele>
        <time>2025-02-20T10:40:49Z</time>
      </trkpt>
      <trkpt lat="45.62068" lon="6.54788">
        <ele>1949.2</ele>
        <time>2025-02-20T10:40:50Z</time>
      </trkpt>
      <trkpt lat="45.62068" lon="6.54788">
        <ele>1949.2</ele>
        <time>2025-02-20T10:40:51Z</time>
      </trkpt>
      <trkpt lat="45.62068" lon="6.54788">
        <ele>1949.2</ele>
        <time>2025-02-20T10:40:52Z</time>
      </trkpt>
      <trkpt lat="45.62068" lon="6.54788">
        <ele>1949</ele>
        <time>2025-02-20T10:40:53Z</time>
      </trkpt>
      <trkpt lat="45.62068" lon="6.54788">
        <ele>1949</ele>
        <time>2025-02-20T10:40:54Z</time>
      </trkpt>
      <trkpt lat="45.62068" lon="6.54788">
        <ele>1949</ele>
        <time>2025-02-20T10:40:55Z</time>
      </trkpt>
      <trkpt lat="45.62068" lon="6.54788">
        <ele>1949.4</ele>
        <time>2025-02-20T10:40:56Z</time>
      </trkpt>
      <trkpt lat="45.62068" lon="6.54788">
        <ele>1949.4</ele>
        <time>2025-02-20T10:40:57Z</time>
      </trkpt>
      <trkpt lat="45.62068" lon="6.54788">
        <ele>1949.4</ele>
        <time>2025-02-20T10:40:58Z</time>
      </trkpt>
      <trkpt lat="45.62068" lon="6.54788">
        <ele>1949.4</ele>
        <time>2025-02-20T10:40:59Z</time>
      </trkpt>
      <trkpt lat="45.62068" lon="6.54788">
        <ele>1949.4</ele>
        <time>2025-02-20T10:41:00Z</time>
      </trkpt>
      <trkpt lat="45.62068" lon="6.54788">
        <ele>1948.8</ele>
        <time>2025-02-20T10:41:01Z</time>
      </trkpt>
      <trkpt lat="45.62068" lon="6.54788">
        <ele>1948.8</ele>
        <time>2025-02-20T10:41:02Z</time>
      </trkpt>
      <trkpt lat="45.62068" lon="6.54788">
        <ele>1948.8</ele>
        <time>2025-02-20T10:41:03Z</time>
      </trkpt>
      <trkpt lat="45.62068" lon="6.54788">
        <ele>1948.8</ele>
        <time>2025-02-20T10:41:04Z</time>
      </trkpt>
      <trkpt lat="45.62068" lon="6.54788">
        <ele>1949.4</ele>
        <time>2025-02-20T10:41:05Z</time>
      </trkpt>
      <trkpt lat="45.62068" lon="6.54788">
        <ele>1949.4</ele>
        <time>2025-02-20T10:41:06Z</time>
      </trkpt>
      <trkpt lat="45.62068" lon="6.54788">
        <ele>1949.4</ele>
        <time>2025-02-20T10:41:07Z</time>
      </trkpt>
      <trkpt lat="45.62068" lon="6.54788">
        <ele>1949.4</ele>
        <time>2025-02-20T10:41:08Z</time>
      </trkpt>
      <trkpt lat="45.62068" lon="6.54788">
        <ele>1949.4</ele>
        <time>2025-02-20T10:41:09Z</time>
      </trkpt>
      <trkpt lat="45.62068" lon="6.54788">
        <ele>1949.4</ele>
        <time>2025-02-20T10:41:10Z</time>
      </trkpt>
      <trkpt lat="45.62068" lon="6.54788">
        <ele>1949.4</ele>
        <time>2025-02-20T10:41:11Z</time>
      </trkpt>
      <trkpt lat="45.62068" lon="6.54788">
        <ele>1949.4</ele>
        <time>2025-02-20T10:41:12Z</time>
      </trkpt>
      <trkpt lat="45.62068" lon="6.54788">
        <ele>1949.8</ele>
        <time>2025-02-20T10:41:13Z</time>
      </trkpt>
      <trkpt lat="45.62068" lon="6.54788">
        <ele>1949.8</ele>
        <time>2025-02-20T10:41:14Z</time>
      </trkpt>
      <trkpt lat="45.62068" lon="6.54788">
        <ele>1949.8</ele>
        <time>2025-02-20T10:41:15Z</time>
      </trkpt>
      <trkpt lat="45.62068" lon="6.54788">
        <ele>1949.6</ele>
        <time>2025-02-20T10:41:16Z</time>
      </trkpt>
      <trkpt lat="45.62068" lon="6.54788">
        <ele>1948.6</ele>
        <time>2025-02-20T10:41:17Z</time>
      </trkpt>
      <trkpt lat="45.62068" lon="6.54788">
        <ele>1948.6</ele>
        <time>2025-02-20T10:41:18Z</time>
      </trkpt>
      <trkpt lat="45.62068" lon="6.54788">
        <ele>1948.6</ele>
        <time>2025-02-20T10:41:19Z</time>
      </trkpt>
      <trkpt lat="45.62068" lon="6.54788">
        <ele>1949.4</ele>
        <time>2025-02-20T10:41:20Z</time>
      </trkpt>
      <trkpt lat="45.62068" lon="6.54788">
        <ele>1949.2</ele>
        <time>2025-02-20T10:41:21Z</time>
      </trkpt>
      <trkpt lat="45.62068" lon="6.54788">
        <ele>1949.2</ele>
        <time>2025-02-20T10:41:22Z</time>
      </trkpt>
      <trkpt lat="45.62068" lon="6.54788">
        <ele>1949.2</ele>
        <time>2025-02-20T10:41:23Z</time>
      </trkpt>
      <trkpt lat="45.62068" lon="6.54788">
        <ele>1949.2</ele>
        <time>2025-02-20T10:41:24Z</time>
      </trkpt>
      <trkpt lat="45.62068" lon="6.54788">
        <ele>1950</ele>
        <time>2025-02-20T10:41:25Z</time>
      </trkpt>
      <trkpt lat="45.62068" lon="6.54788">
        <ele>1950</ele>
        <time>2025-02-20T10:41:26Z</time>
      </trkpt>
      <trkpt lat="45.62068" lon="6.54788">
        <ele>1950</ele>
        <time>2025-02-20T10:41:27Z</time>
      </trkpt>
      <trkpt lat="45.62068" lon="6.54788">
        <ele>1949.4</ele>
        <time>2025-02-20T10:41:28Z</time>
      </trkpt>
      <trkpt lat="45.62068" lon="6.54788">
        <ele>1949.6</ele>
        <time>2025-02-20T10:41:29Z</time>
      </trkpt>
      <trkpt lat="45.62068" lon="6.54788">
        <ele>1949.6</ele>
        <time>2025-02-20T10:41:30Z</time>
      </trkpt>
      <trkpt lat="45.62068" lon="6.54788">
        <ele>1949.6</ele>
        <time>2025-02-20T10:41:31Z</time>
      </trkpt>
      <trkpt lat="45.62068" lon="6.54788">
        <ele>1949</ele>
        <time>2025-02-20T10:41:32Z</time>
      </trkpt>
      <trkpt lat="45.62068" lon="6.54788">
        <ele>1949.2</ele>
        <time>2025-02-20T10:41:33Z</time>
      </trkpt>
      <trkpt lat="45.62068" lon="6.54788">
        <ele>1949.2</ele>
        <time>2025-02-20T10:41:34Z</time>
      </trkpt>
      <trkpt lat="45.62068" lon="6.54788">
        <ele>1949.2</ele>
        <time>2025-02-20T10:41:35Z</time>
      </trkpt>
      <trkpt lat="45.62068" lon="6.54788">
        <ele>1949.2</ele>
        <time>2025-02-20T10:41:36Z</time>
      </trkpt>
      <trkpt lat="45.62068" lon="6.54788">
        <ele>1949.4</ele>
        <time>2025-02-20T10:41:37Z</time>
      </trkpt>
      <trkpt lat="45.62068" lon="6.54788">
        <ele>1949.4</ele>
        <time>2025-02-20T10:41:38Z</time>
      </trkpt>
      <trkpt lat="45.62068" lon="6.54788">
        <ele>1949.4</ele>
        <time>2025-02-20T10:41:39Z</time>
      </trkpt>
      <trkpt lat="45.62068" lon="6.54788">
        <ele>1949.4</ele>
        <time>2025-02-20T10:41:40Z</time>
      </trkpt>
      <trkpt lat="45.62068" lon="6.54788">
        <ele>1949.4</ele>
        <time>2025-02-20T10:41:41Z</time>
      </trkpt>
      <trkpt lat="45.62068" lon="6.54788">
        <ele>1949.4</ele>
        <time>2025-02-20T10:41:42Z</time>
      </trkpt>
      <trkpt lat="45.62068" lon="6.54788">
        <ele>1949.4</ele>
        <time>2025-02-20T10:41:43Z</time>
      </trkpt>
      <trkpt lat="45.62068" lon="6.54788">
        <ele>1949.4</ele>
        <time>2025-02-20T10:41:44Z</time>
      </trkpt>
      <trkpt lat="45.62068" lon="6.54788">
        <ele>1949.6</ele>
        <time>2025-02-20T10:41:45Z</time>
      </trkpt>
      <trkpt lat="45.62068" lon="6.54788">
        <ele>1949.6</ele>
        <time>2025-02-20T10:41:46Z</time>
      </trkpt>
      <trkpt lat="45.62068" lon="6.54788">
        <ele>1949.6</ele>
        <time>2025-02-20T10:41:47Z</time>
      </trkpt>
      <trkpt lat="45.62068" lon="6.54788">
        <ele>1949.6</ele>
        <time>2025-02-20T10:41:48Z</time>
      </trkpt>
      <trkpt lat="45.62068" lon="6.54788">
        <ele>1950</ele>
        <time>2025-02-20T10:41:49Z</time>
      </trkpt>
      <trkpt lat="45.62068" lon="6.54788">
        <ele>1950</ele>
        <time>2025-02-20T10:41:50Z</time>
      </trkpt>
      <trkpt lat="45.62068" lon="6.54788">
        <ele>1950</ele>
        <time>2025-02-20T10:41:51Z</time>
      </trkpt>
      <trkpt lat="45.62068" lon="6.54788">
        <ele>1949.4</ele>
        <time>2025-02-20T10:41:52Z</time>
      </trkpt>
      <trkpt lat="45.62068" lon="6.54788">
        <ele>1949.4</ele>
        <time>2025-02-20T10:41:53Z</time>
      </trkpt>
      <trkpt lat="45.62068" lon="6.54788">
        <ele>1949.4</ele>
        <time>2025-02-20T10:41:54Z</time>
      </trkpt>
      <trkpt lat="45.62068" lon="6.54788">
        <ele>1949.4</ele>
        <time>2025-02-20T10:41:55Z</time>
      </trkpt>
      <trkpt lat="45.62068" lon="6.54788">
        <ele>1949.6</ele>
        <time>2025-02-20T10:41:56Z</time>
      </trkpt>
      <trkpt lat="45.62068" lon="6.54788">
        <ele>1949.2</ele>
        <time>2025-02-20T10:41:57Z</time>
      </trkpt>
      <trkpt lat="45.62068" lon="6.54788">
        <ele>1949.2</ele>
        <time>2025-02-20T10:41:58Z</time>
      </trkpt>
      <trkpt lat="45.62068" lon="6.54788">
        <ele>1949.2</ele>
        <time>2025-02-20T10:41:59Z</time>
      </trkpt>
      <trkpt lat="45.62068" lon="6.54788">
        <ele>1949.6</ele>
        <time>2025-02-20T10:42:00Z</time>
      </trkpt>
      <trkpt lat="45.62068" lon="6.54788">
        <ele>1949.8</ele>
        <time>2025-02-20T10:42:01Z</time>
      </trkpt>
      <trkpt lat="45.62068" lon="6.54788">
        <ele>1949.8</ele>
        <time>2025-02-20T10:42:02Z</time>
      </trkpt>
      <trkpt lat="45.62068" lon="6.54788">
        <ele>1949.8</ele>
        <time>2025-02-20T10:42:03Z</time>
      </trkpt>
      <trkpt lat="45.62068" lon="6.54788">
        <ele>1949.8</ele>
        <time>2025-02-20T10:42:04Z</time>
      </trkpt>
      <trkpt lat="45.62068" lon="6.54788">
        <ele>1949.8</ele>
        <time>2025-02-20T10:42:05Z</time>
      </trkpt>
      <trkpt lat="45.62068" lon="6.54788">
        <ele>1949.8</ele>
        <time>2025-02-20T10:42:06Z</time>
      </trkpt>
      <trkpt lat="45.62068" lon="6.54788">
        <ele>1949.8</ele>
        <time>2025-02-20T10:42:07Z</time>
      </trkpt>
      <trkpt lat="45.62068" lon="6.54788">
        <ele>1949.8</ele>
        <time>2025-02-20T10:42:08Z</time>
      </trkpt>
      <trkpt lat="45.62068" lon="6.54788">
        <ele>1949.6</ele>
        <time>2025-02-20T10:42:09Z</time>
      </trkpt>
      <trkpt lat="45.62068" lon="6.54788">
        <ele>1949.6</ele>
        <time>2025-02-20T10:42:10Z</time>
      </trkpt>
      <trkpt lat="45.62068" lon="6.54788">
        <ele>1949.6</ele>
        <time>2025-02-20T10:42:11Z</time>
      </trkpt>
      <trkpt lat="45.62068" lon="6.54788">
        <ele>1949.6</ele>
        <time>2025-02-20T10:42:12Z</time>
      </trkpt>
      <trkpt lat="45.62068" lon="6.54788">
        <ele>1950</ele>
        <time>2025-02-20T10:42:13Z</time>
      </trkpt>
      <trkpt lat="45.62068" lon="6.54788">
        <ele>1950</ele>
        <time>2025-02-20T10:42:14Z</time>
      </trkpt>
      <trkpt lat="45.62068" lon="6.54788">
        <ele>1950</ele>
        <time>2025-02-20T10:42:15Z</time>
      </trkpt>
      <trkpt lat="45.62068" lon="6.54788">
        <ele>1950</ele>
        <time>2025-02-20T10:42:16Z</time>
      </trkpt>
      <trkpt lat="45.62068" lon="6.54788">
        <ele>1950</ele>
        <time>2025-02-20T10:42:17Z</time>
      </trkpt>
      <trkpt lat="45.62068" lon="6.54788">
        <ele>1950</ele>
        <time>2025-02-20T10:42:18Z</time>
      </trkpt>
      <trkpt lat="45.62068" lon="6.54788">
        <ele>1950</ele>
        <time>2025-02-20T10:42:19Z</time>
      </trkpt>
      <trkpt lat="45.62068" lon="6.54788">
        <ele>1949.8</ele>
        <time>2025-02-20T10:42:20Z</time>
      </trkpt>
      <trkpt lat="45.62068" lon="6.54788">
        <ele>1949.8</ele>
        <time>2025-02-20T10:42:21Z</time>
      </trkpt>
      <trkpt lat="45.62068" lon="6.54788">
        <ele>1949.8</ele>
        <time>2025-02-20T10:42:22Z</time>
      </trkpt>
      <trkpt lat="45.62068" lon="6.54788">
        <ele>1949.8</ele>
        <time>2025-02-20T10:42:23Z</time>
      </trkpt>
      <trkpt lat="45.62068" lon="6.54788">
        <ele>1949.6</ele>
        <time>2025-02-20T10:42:24Z</time>
      </trkpt>
      <trkpt lat="45.62068" lon="6.54788">
        <ele>1949.8</ele>
        <time>2025-02-20T10:42:25Z</time>
      </trkpt>
      <trkpt lat="45.62068" lon="6.54788">
        <ele>1949.8</ele>
        <time>2025-02-20T10:42:26Z</time>
      </trkpt>
      <trkpt lat="45.62068" lon="6.54788">
        <ele>1949.8</ele>
        <time>2025-02-20T10:42:27Z</time>
      </trkpt>
      <trkpt lat="45.62068" lon="6.54788">
        <ele>1949.8</ele>
        <time>2025-02-20T10:42:28Z</time>
      </trkpt>
      <trkpt lat="45.62068" lon="6.54788">
        <ele>1949.6</ele>
        <time>2025-02-20T10:42:29Z</time>
      </trkpt>
      <trkpt lat="45.62068" lon="6.54788">
        <ele>1949.6</ele>
        <time>2025-02-20T10:42:30Z</time>
      </trkpt>
      <trkpt lat="45.62068" lon="6.54788">
        <ele>1949.6</ele>
        <time>2025-02-20T10:42:31Z</time>
      </trkpt>
      <trkpt lat="45.62068" lon="6.54788">
        <ele>1949.2</ele>
        <time>2025-02-20T10:42:32Z</time>
      </trkpt>
      <trkpt lat="45.62068" lon="6.54788">
        <ele>1949.8</ele>
        <time>2025-02-20T10:42:33Z</time>
      </trkpt>
      <trkpt lat="45.62068" lon="6.54788">
        <ele>1949.8</ele>
        <time>2025-02-20T10:42:34Z</time>
      </trkpt>
      <trkpt lat="45.62068" lon="6.54788">
        <ele>1949.8</ele>
        <time>2025-02-20T10:42:35Z</time>
      </trkpt>
      <trkpt lat="45.62068" lon="6.54788">
        <ele>1949.6</ele>
        <time>2025-02-20T10:42:36Z</time>
      </trkpt>
      <trkpt lat="45.62068" lon="6.54788">
        <ele>1949.4</ele>
        <time>2025-02-20T10:42:37Z</time>
      </trkpt>
      <trkpt lat="45.62068" lon="6.54788">
        <ele>1949.4</ele>
        <time>2025-02-20T10:42:38Z</time>
      </trkpt>
      <trkpt lat="45.62068" lon="6.54788">
        <ele>1949.4</ele>
        <time>2025-02-20T10:42:39Z</time>
      </trkpt>
      <trkpt lat="45.62068" lon="6.54788">
        <ele>1949</ele>
        <time>2025-02-20T10:42:40Z</time>
      </trkpt>
      <trkpt lat="45.62068" lon="6.54788">
        <ele>1949.2</ele>
        <time>2025-02-20T10:42:41Z</time>
      </trkpt>
      <trkpt lat="45.62068" lon="6.54788">
        <ele>1949.2</ele>
        <time>2025-02-20T10:42:42Z</time>
      </trkpt>
      <trkpt lat="45.62068" lon="6.54788">
        <ele>1949.2</ele>
        <time>2025-02-20T10:42:43Z</time>
      </trkpt>
      <trkpt lat="45.62068" lon="6.54788">
        <ele>1949.2</ele>
        <time>2025-02-20T10:42:44Z</time>
      </trkpt>
      <trkpt lat="45.62068" lon="6.54788">
        <ele>1949.8</ele>
        <time>2025-02-20T10:42:45Z</time>
      </trkpt>
      <trkpt lat="45.62068" lon="6.54788">
        <ele>1949.8</ele>
        <time>2025-02-20T10:42:46Z</time>
      </trkpt>
      <trkpt lat="45.62068" lon="6.54788">
        <ele>1949.8</ele>
        <time>2025-02-20T10:42:47Z</time>
      </trkpt>
      <trkpt lat="45.62068" lon="6.54788">
        <ele>1949.4</ele>
        <time>2025-02-20T10:42:48Z</time>
      </trkpt>
      <trkpt lat="45.62068" lon="6.54788">
        <ele>1949.4</ele>
        <time>2025-02-20T10:42:49Z</time>
      </trkpt>
      <trkpt lat="45.62068" lon="6.54788">
        <ele>1949.4</ele>
        <time>2025-02-20T10:42:50Z</time>
      </trkpt>
      <trkpt lat="45.62068" lon="6.54788">
        <ele>1949.4</ele>
        <time>2025-02-20T10:42:51Z</time>
      </trkpt>
      <trkpt lat="45.62068" lon="6.54788">
        <ele>1949.4</ele>
        <time>2025-02-20T10:42:52Z</time>
      </trkpt>
      <trkpt lat="45.62068" lon="6.54788">
        <ele>1949.2</ele>
        <time>2025-02-20T10:42:53Z</time>
      </trkpt>
      <trkpt lat="45.62068" lon="6.54788">
        <ele>1949.2</ele>
        <time>2025-02-20T10:42:54Z</time>
      </trkpt>
      <trkpt lat="45.62068" lon="6.54788">
        <ele>1949.2</ele>
        <time>2025-02-20T10:42:55Z</time>
      </trkpt>
      <trkpt lat="45.62068" lon="6.54788">
        <ele>1949.4</ele>
        <time>2025-02-20T10:42:56Z</time>
      </trkpt>
      <trkpt lat="45.62068" lon="6.54788">
        <ele>1949.2</ele>
        <time>2025-02-20T10:42:57Z</time>
      </trkpt>
      <trkpt lat="45.62068" lon="6.54788">
        <ele>1949.2</ele>
        <time>2025-02-20T10:42:58Z</time>
      </trkpt>
      <trkpt lat="45.62068" lon="6.54788">
        <ele>1949.2</ele>
        <time>2025-02-20T10:42:59Z</time>
      </trkpt>
      <trkpt lat="45.62068" lon="6.54788">
        <ele>1949.8</ele>
        <time>2025-02-20T10:43:00Z</time>
      </trkpt>
      <trkpt lat="45.62068" lon="6.54788">
        <ele>1949.8</ele>
        <time>2025-02-20T10:43:01Z</time>
      </trkpt>
      <trkpt lat="45.62068" lon="6.54788">
        <ele>1949.8</ele>
        <time>2025-02-20T10:43:02Z</time>
      </trkpt>
      <trkpt lat="45.62068" lon="6.54788">
        <ele>1949.8</ele>
        <time>2025-02-20T10:43:03Z</time>
      </trkpt>
      <trkpt lat="45.62068" lon="6.54788">
        <ele>1949.6</ele>
        <time>2025-02-20T10:43:04Z</time>
      </trkpt>
      <trkpt lat="45.62068" lon="6.54788">
        <ele>1949.2</ele>
        <time>2025-02-20T10:43:05Z</time>
      </trkpt>
      <trkpt lat="45.62068" lon="6.54788">
        <ele>1949.2</ele>
        <time>2025-02-20T10:43:06Z</time>
      </trkpt>
      <trkpt lat="45.62068" lon="6.54788">
        <ele>1949.2</ele>
        <time>2025-02-20T10:43:07Z</time>
      </trkpt>
      <trkpt lat="45.62068" lon="6.54788">
        <ele>1949.2</ele>
        <time>2025-02-20T10:43:08Z</time>
      </trkpt>
      <trkpt lat="45.62068" lon="6.54788">
        <ele>1949</ele>
        <time>2025-02-20T10:43:09Z</time>
      </trkpt>
      <trkpt lat="45.62068" lon="6.54788">
        <ele>1949</ele>
        <time>2025-02-20T10:43:10Z</time>
      </trkpt>
      <trkpt lat="45.62068" lon="6.54788">
        <ele>1949</ele>
        <time>2025-02-20T10:43:11Z</time>
      </trkpt>
      <trkpt lat="45.62068" lon="6.54788">
        <ele>1949.4</ele>
        <time>2025-02-20T10:43:12Z</time>
      </trkpt>
      <trkpt lat="45.62068" lon="6.54788">
        <ele>1949.2</ele>
        <time>2025-02-20T10:43:13Z</time>
      </trkpt>
      <trkpt lat="45.62068" lon="6.54788">
        <ele>1949.2</ele>
        <time>2025-02-20T10:43:14Z</time>
      </trkpt>
      <trkpt lat="45.62068" lon="6.54788">
        <ele>1949.2</ele>
        <time>2025-02-20T10:43:15Z</time>
      </trkpt>
      <trkpt lat="45.62068" lon="6.54788">
        <ele>1949.2</ele>
        <time>2025-02-20T10:43:16Z</time>
      </trkpt>
      <trkpt lat="45.62068" lon="6.54788">
        <ele>1949.2</ele>
        <time>2025-02-20T10:43:17Z</time>
      </trkpt>
      <trkpt lat="45.62068" lon="6.54788">
        <ele>1949.2</ele>
        <time>2025-02-20T10:43:18Z</time>
      </trkpt>
      <trkpt lat="45.62068" lon="6.54788">
        <ele>1949.2</ele>
        <time>2025-02-20T10:43:19Z</time>
      </trkpt>
      <trkpt lat="45.62068" lon="6.54788">
        <ele>1949.8</ele>
        <time>2025-02-20T10:43:20Z</time>
      </trkpt>
      <trkpt lat="45.62068" lon="6.54788">
        <ele>1950</ele>
        <time>2025-02-20T10:43:21Z</time>
      </trkpt>
      <trkpt lat="45.62068" lon="6.54788">
        <ele>1950</ele>
        <time>2025-02-20T10:43:22Z</time>
      </trkpt>
      <trkpt lat="45.62068" lon="6.54788">
        <ele>1950</ele>
        <time>2025-02-20T10:43:23Z</time>
      </trkpt>
      <trkpt lat="45.62068" lon="6.54788">
        <ele>1949.2</ele>
        <time>2025-02-20T10:43:24Z</time>
      </trkpt>
      <trkpt lat="45.62068" lon="6.54788">
        <ele>1949.2</ele>
        <time>2025-02-20T10:43:25Z</time>
      </trkpt>
      <trkpt lat="45.62068" lon="6.54788">
        <ele>1949.2</ele>
        <time>2025-02-20T10:43:26Z</time>
      </trkpt>
      <trkpt lat="45.62068" lon="6.54788">
        <ele>1949.2</ele>
        <time>2025-02-20T10:43:27Z</time>
      </trkpt>
      <trkpt lat="45.62068" lon="6.54788">
        <ele>1949.2</ele>
        <time>2025-02-20T10:43:28Z</time>
      </trkpt>
      <trkpt lat="45.62068" lon="6.54788">
        <ele>1949.2</ele>
        <time>2025-02-20T10:43:29Z</time>
      </trkpt>
      <trkpt lat="45.62068" lon="6.54788">
        <ele>1949.2</ele>
        <time>2025-02-20T10:43:30Z</time>
      </trkpt>
      <trkpt lat="45.62068" lon="6.54788">
        <ele>1949.2</ele>
        <time>2025-02-20T10:43:31Z</time>
      </trkpt>
      <trkpt lat="45.62068" lon="6.54788">
        <ele>1949.4</ele>
        <time>2025-02-20T10:43:32Z</time>
      </trkpt>
      <trkpt lat="45.62068" lon="6.54788">
        <ele>1949.8</ele>
        <time>2025-02-20T10:43:33Z</time>
      </trkpt>
      <trkpt lat="45.62068" lon="6.54788">
        <ele>1949.8</ele>
        <time>2025-02-20T10:43:34Z</time>
      </trkpt>
      <trkpt lat="45.62068" lon="6.54788">
        <ele>1949.8</ele>
        <time>2025-02-20T10:43:35Z</time>
      </trkpt>
      <trkpt lat="45.62068" lon="6.54788">
        <ele>1949</ele>
        <time>2025-02-20T10:43:36Z</time>
      </trkpt>
      <trkpt lat="45.62068" lon="6.54788">
        <ele>1949.4</ele>
        <time>2025-02-20T10:43:37Z</time>
      </trkpt>
      <trkpt lat="45.62068" lon="6.54788">
        <ele>1949.4</ele>
        <time>2025-02-20T10:43:38Z</time>
      </trkpt>
      <trkpt lat="45.62068" lon="6.54788">
        <ele>1949.4</ele>
        <time>2025-02-20T10:43:39Z</time>
      </trkpt>
      <trkpt lat="45.62068" lon="6.54788">
        <ele>1949.4</ele>
        <time>2025-02-20T10:43:40Z</time>
      </trkpt>
      <trkpt lat="45.62068" lon="6.54788">
        <ele>1949.4</ele>
        <time>2025-02-20T10:43:41Z</time>
      </trkpt>
      <trkpt lat="45.62068" lon="6.54788">
        <ele>1949.4</ele>
        <time>2025-02-20T10:43:42Z</time>
      </trkpt>
      <trkpt lat="45.62068" lon="6.54788">
        <ele>1949.4</ele>
        <time>2025-02-20T10:43:43Z</time>
      </trkpt>
      <trkpt lat="45.62068" lon="6.54788">
        <ele>1949.4</ele>
        <time>2025-02-20T10:43:44Z</time>
      </trkpt>
      <trkpt lat="45.62068" lon="6.54788">
        <ele>1949.4</ele>
        <time>2025-02-20T10:43:45Z</time>
      </trkpt>
      <trkpt lat="45.62068" lon="6.54788">
        <ele>1949.4</ele>
        <time>2025-02-20T10:43:46Z</time>
      </trkpt>
      <trkpt lat="45.62068" lon="6.54788">
        <ele>1949.4</ele>
        <time>2025-02-20T10:43:47Z</time>
      </trkpt>
      <trkpt lat="45.62068" lon="6.54788">
        <ele>1949.4</ele>
        <time>2025-02-20T10:43:48Z</time>
      </trkpt>
      <trkpt lat="45.62068" lon="6.54788">
        <ele>1949.2</ele>
        <time>2025-02-20T10:43:49Z</time>
      </trkpt>
      <trkpt lat="45.62068" lon="6.54788">
        <ele>1949.2</ele>
        <time>2025-02-20T10:43:50Z</time>
      </trkpt>
      <trkpt lat="45.62068" lon="6.54788">
        <ele>1949.2</ele>
        <time>2025-02-20T10:43:51Z</time>
      </trkpt>
      <trkpt lat="45.62068" lon="6.54788">
        <ele>1949.2</ele>
        <time>2025-02-20T10:43:52Z</time>
      </trkpt>
      <trkpt lat="45.62068" lon="6.54788">
        <ele>1949.8</ele>
        <time>2025-02-20T10:43:53Z</time>
      </trkpt>
      <trkpt lat="45.62068" lon="6.54788">
        <ele>1949.8</ele>
        <time>2025-02-20T10:43:54Z</time>
      </trkpt>
      <trkpt lat="45.62068" lon="6.54788">
        <ele>1949.8</ele>
        <time>2025-02-20T10:43:55Z</time>
      </trkpt>
      <trkpt lat="45.62068" lon="6.54788">
        <ele>1949.8</ele>
        <time>2025-02-20T10:43:56Z</time>
      </trkpt>
      <trkpt lat="45.62068" lon="6.54788">
        <ele>1949.2</ele>
        <time>2025-02-20T10:43:57Z</time>
      </trkpt>
      <trkpt lat="45.62068" lon="6.54788">
        <ele>1949.2</ele>
        <time>2025-02-20T10:43:58Z</time>
      </trkpt>
      <trkpt lat="45.62068" lon="6.54788">
        <ele>1949.2</ele>
        <time>2025-02-20T10:43:59Z</time>
      </trkpt>
      <trkpt lat="45.62068" lon="6.54788">
        <ele>1949.2</ele>
        <time>2025-02-20T10:44:00Z</time>
      </trkpt>
      <trkpt lat="45.62068" lon="6.54788">
        <ele>1949.6</ele>
        <time>2025-02-20T10:44:01Z</time>
      </trkpt>
      <trkpt lat="45.62068" lon="6.54788">
        <ele>1949.6</ele>
        <time>2025-02-20T10:44:02Z</time>
      </trkpt>
      <trkpt lat="45.62068" lon="6.54788">
        <ele>1949.6</ele>
        <time>2025-02-20T10:44:03Z</time>
      </trkpt>
      <trkpt lat="45.62068" lon="6.54788">
        <ele>1949.6</ele>
        <time>2025-02-20T10:44:04Z</time>
      </trkpt>
      <trkpt lat="45.62068" lon="6.54788">
        <ele>1949.2</ele>
        <time>2025-02-20T10:44:05Z</time>
      </trkpt>
      <trkpt lat="45.62068" lon="6.54788">
        <ele>1949.2</ele>
        <time>2025-02-20T10:44:06Z</time>
      </trkpt>
      <trkpt lat="45.62068" lon="6.54788">
        <ele>1949.2</ele>
        <time>2025-02-20T10:44:07Z</time>
      </trkpt>
      <trkpt lat="45.62068" lon="6.54788">
        <ele>1949.2</ele>
        <time>2025-02-20T10:44:08Z</time>
      </trkpt>
      <trkpt lat="45.62068" lon="6.54788">
        <ele>1949.4</ele>
        <time>2025-02-20T10:44:09Z</time>
      </trkpt>
      <trkpt lat="45.62068" lon="6.54788">
        <ele>1949.4</ele>
        <time>2025-02-20T10:44:10Z</time>
      </trkpt>
      <trkpt lat="45.62068" lon="6.54788">
        <ele>1949.4</ele>
        <time>2025-02-20T10:44:11Z</time>
      </trkpt>
      <trkpt lat="45.62068" lon="6.54788">
        <ele>1949.4</ele>
        <time>2025-02-20T10:44:12Z</time>
      </trkpt>
      <trkpt lat="45.62068" lon="6.54788">
        <ele>1949.2</ele>
        <time>2025-02-20T10:44:13Z</time>
      </trkpt>
      <trkpt lat="45.62068" lon="6.54788">
        <ele>1949.2</ele>
        <time>2025-02-20T10:44:14Z</time>
      </trkpt>
      <trkpt lat="45.62068" lon="6.54788">
        <ele>1949.2</ele>
        <time>2025-02-20T10:44:15Z</time>
      </trkpt>
      <trkpt lat="45.62068" lon="6.54788">
        <ele>1949.4</ele>
        <time>2025-02-20T10:44:16Z</time>
      </trkpt>
      <trkpt lat="45.62068" lon="6.54788">
        <ele>1949.4</ele>
        <time>2025-02-20T10:44:17Z</time>
      </trkpt>
      <trkpt lat="45.62068" lon="6.54788">
        <ele>1949.4</ele>
        <time>2025-02-20T10:44:18Z</time>
      </trkpt>
      <trkpt lat="45.62068" lon="6.54788">
        <ele>1949.4</ele>
        <time>2025-02-20T10:44:19Z</time>
      </trkpt>
      <trkpt lat="45.62068" lon="6.54788">
        <ele>1949.4</ele>
        <time>2025-02-20T10:44:20Z</time>
      </trkpt>
      <trkpt lat="45.62068" lon="6.54788">
        <ele>1949.6</ele>
        <time>2025-02-20T10:44:21Z</time>
      </trkpt>
      <trkpt lat="45.62068" lon="6.54788">
        <ele>1949.6</ele>
        <time>2025-02-20T10:44:22Z</time>
      </trkpt>
      <trkpt lat="45.62068" lon="6.54788">
        <ele>1949.6</ele>
        <time>2025-02-20T10:44:23Z</time>
      </trkpt>
      <trkpt lat="45.62068" lon="6.54788">
        <ele>1949.6</ele>
        <time>2025-02-20T10:44:24Z</time>
      </trkpt>
      <trkpt lat="45.62068" lon="6.54788">
        <ele>1949.8</ele>
        <time>2025-02-20T10:44:25Z</time>
      </trkpt>
      <trkpt lat="45.62068" lon="6.54788">
        <ele>1949.8</ele>
        <time>2025-02-20T10:44:26Z</time>
      </trkpt>
      <trkpt lat="45.62068" lon="6.54788">
        <ele>1949.8</ele>
        <time>2025-02-20T10:44:27Z</time>
      </trkpt>
      <trkpt lat="45.62068" lon="6.54788">
        <ele>1949.8</ele>
        <time>2025-02-20T10:44:28Z</time>
      </trkpt>
      <trkpt lat="45.62068" lon="6.54788">
        <ele>1949</ele>
        <time>2025-02-20T10:44:29Z</time>
      </trkpt>
      <trkpt lat="45.62068" lon="6.54788">
        <ele>1949</ele>
        <time>2025-02-20T10:44:30Z</time>
      </trkpt>
      <trkpt lat="45.62068" lon="6.54788">
        <ele>1949</ele>
        <time>2025-02-20T10:44:31Z</time>
      </trkpt>
      <trkpt lat="45.62068" lon="6.54788">
        <ele>1949</ele>
        <time>2025-02-20T10:44:32Z</time>
      </trkpt>
      <trkpt lat="45.62068" lon="6.54788">
        <ele>1948.8</ele>
        <time>2025-02-20T10:44:33Z</time>
      </trkpt>
      <trkpt lat="45.62068" lon="6.54788">
        <ele>1948.8</ele>
        <time>2025-02-20T10:44:34Z</time>
      </trkpt>
      <trkpt lat="45.62068" lon="6.54788">
        <ele>1948.8</ele>
        <time>2025-02-20T10:44:35Z</time>
      </trkpt>
      <trkpt lat="45.62068" lon="6.54788">
        <ele>1949</ele>
        <time>2025-02-20T10:44:36Z</time>
      </trkpt>
      <trkpt lat="45.62068" lon="6.54788">
        <ele>1949</ele>
        <time>2025-02-20T10:44:37Z</time>
      </trkpt>
      <trkpt lat="45.62068" lon="6.54788">
        <ele>1949</ele>
        <time>2025-02-20T10:44:38Z</time>
      </trkpt>
      <trkpt lat="45.62068" lon="6.54788">
        <ele>1949</ele>
        <time>2025-02-20T10:44:39Z</time>
      </trkpt>
      <trkpt lat="45.62068" lon="6.54788">
        <ele>1949</ele>
        <time>2025-02-20T10:44:40Z</time>
      </trkpt>
      <trkpt lat="45.62068" lon="6.54788">
        <ele>1949.2</ele>
        <time>2025-02-20T10:44:41Z</time>
      </trkpt>
      <trkpt lat="45.62068" lon="6.54788">
        <ele>1949.2</ele>
        <time>2025-02-20T10:44:42Z</time>
      </trkpt>
      <trkpt lat="45.62068" lon="6.54788">
        <ele>1949.2</ele>
        <time>2025-02-20T10:44:43Z</time>
      </trkpt>
      <trkpt lat="45.62068" lon="6.54788">
        <ele>1949.2</ele>
        <time>2025-02-20T10:44:44Z</time>
      </trkpt>
      <trkpt lat="45.62068" lon="6.54788">
        <ele>1949.2</ele>
        <time>2025-02-20T10:44:45Z</time>
      </trkpt>
      <trkpt lat="45.62068" lon="6.54788">
        <ele>1949.2</ele>
        <time>2025-02-20T10:44:46Z</time>
      </trkpt>
      <trkpt lat="45.62068" lon="6.54788">
        <ele>1949.2</ele>
        <time>2025-02-20T10:44:47Z</time>
      </trkpt>
      <trkpt lat="45.62068" lon="6.54788">
        <ele>1949.2</ele>
        <time>2025-02-20T10:44:48Z</time>
      </trkpt>
      <trkpt lat="45.62068" lon="6.54788">
        <ele>1949.2</ele>
        <time>2025-02-20T10:44:49Z</time>
      </trkpt>
      <trkpt lat="45.62068" lon="6.54788">
        <ele>1949.2</ele>
        <time>2025-02-20T10:44:50Z</time>
      </trkpt>
      <trkpt lat="45.62068" lon="6.54788">
        <ele>1949.2</ele>
        <time>2025-02-20T10:44:51Z</time>
      </trkpt>
      <trkpt lat="45.62068" lon="6.54788">
        <ele>1949.2</ele>
        <time>2025-02-20T10:44:52Z</time>
      </trkpt>
      <trkpt lat="45.62068" lon="6.54788">
        <ele>1948.8</ele>
        <time>2025-02-20T10:44:53Z</time>
      </trkpt>
      <trkpt lat="45.62068" lon="6.54788">
        <ele>1948.8</ele>
        <time>2025-02-20T10:44:54Z</time>
      </trkpt>
      <trkpt lat="45.62068" lon="6.54788">
        <ele>1948.8</ele>
        <time>2025-02-20T10:44:55Z</time>
      </trkpt>
      <trkpt lat="45.62068" lon="6.54788">
        <ele>1948.8</ele>
        <time>2025-02-20T10:44:56Z</time>
      </trkpt>
      <trkpt lat="45.62068" lon="6.54788">
        <ele>1949</ele>
        <time>2025-02-20T10:44:57Z</time>
      </trkpt>
      <trkpt lat="45.62068" lon="6.54788">
        <ele>1949</ele>
        <time>2025-02-20T10:44:58Z</time>
      </trkpt>
      <trkpt lat="45.62068" lon="6.54788">
        <ele>1949</ele>
        <time>2025-02-20T10:44:59Z</time>
      </trkpt>
      <trkpt lat="45.62068" lon="6.54788">
        <ele>1949</ele>
        <time>2025-02-20T10:45:00Z</time>
      </trkpt>
      <trkpt lat="45.62068" lon="6.54788">
        <ele>1949.2</ele>
        <time>2025-02-20T10:45:01Z</time>
      </trkpt>
      <trkpt lat="45.62068" lon="6.54788">
        <ele>1949.2</ele>
        <time>2025-02-20T10:45:02Z</time>
      </trkpt>
      <trkpt lat="45.62068" lon="6.54788">
        <ele>1949.2</ele>
        <time>2025-02-20T10:45:03Z</time>
      </trkpt>
      <trkpt lat="45.62068" lon="6.54788">
        <ele>1949.2</ele>
        <time>2025-02-20T10:45:04Z</time>
      </trkpt>
      <trkpt lat="45.62068" lon="6.54788">
        <ele>1949.2</ele>
        <time>2025-02-20T10:45:05Z</time>
      </trkpt>
      <trkpt lat="45.62068" lon="6.54788">
        <ele>1949.2</ele>
        <time>2025-02-20T10:45:06Z</time>
      </trkpt>
      <trkpt lat="45.62068" lon="6.54788">
        <ele>1949.2</ele>
        <time>2025-02-20T10:45:07Z</time>
      </trkpt>
      <trkpt lat="45.62068" lon="6.54788">
        <ele>1949.4</ele>
        <time>2025-02-20T10:45:08Z</time>
      </trkpt>
      <trkpt lat="45.62068" lon="6.54788">
        <ele>1949</ele>
        <time>2025-02-20T10:45:09Z</time>
      </trkpt>
      <trkpt lat="45.62068" lon="6.54788">
        <ele>1949</ele>
        <time>2025-02-20T10:45:10Z</time>
      </trkpt>
      <trkpt lat="45.62068" lon="6.54788">
        <ele>1949</ele>
        <time>2025-02-20T10:45:11Z</time>
      </trkpt>
      <trkpt lat="45.62068" lon="6.54788">
        <ele>1949</ele>
        <time>2025-02-20T10:45:12Z</time>
      </trkpt>
      <trkpt lat="45.62068" lon="6.54788">
        <ele>1949.2</ele>
        <time>2025-02-20T10:45:13Z</time>
      </trkpt>
      <trkpt lat="45.62068" lon="6.54788">
        <ele>1949.2</ele>
        <time>2025-02-20T10:45:14Z</time>
      </trkpt>
      <trkpt lat="45.62068" lon="6.54788">
        <ele>1949.2</ele>
        <time>2025-02-20T10:45:15Z</time>
      </trkpt>
      <trkpt lat="45.62068" lon="6.54788">
        <ele>1949</ele>
        <time>2025-02-20T10:45:16Z</time>
      </trkpt>
      <trkpt lat="45.62068" lon="6.54788">
        <ele>1948.8</ele>
        <time>2025-02-20T10:45:17Z</time>
      </trkpt>
      <trkpt lat="45.62068" lon="6.54788">
        <ele>1948.8</ele>
        <time>2025-02-20T10:45:18Z</time>
      </trkpt>
      <trkpt lat="45.62068" lon="6.54788">
        <ele>1948.8</ele>
        <time>2025-02-20T10:45:19Z</time>
      </trkpt>
      <trkpt lat="45.62068" lon="6.54788">
        <ele>1949</ele>
        <time>2025-02-20T10:45:20Z</time>
      </trkpt>
      <trkpt lat="45.62068" lon="6.54788">
        <ele>1948.8</ele>
        <time>2025-02-20T10:45:21Z</time>
      </trkpt>
      <trkpt lat="45.62068" lon="6.54788">
        <ele>1948.8</ele>
        <time>2025-02-20T10:45:22Z</time>
      </trkpt>
      <trkpt lat="45.62068" lon="6.54788">
        <ele>1948.8</ele>
        <time>2025-02-20T10:45:23Z</time>
      </trkpt>
      <trkpt lat="45.62068" lon="6.54788">
        <ele>1949.4</ele>
        <time>2025-02-20T10:45:24Z</time>
      </trkpt>
      <trkpt lat="45.62068" lon="6.54788">
        <ele>1949.2</ele>
        <time>2025-02-20T10:45:25Z</time>
      </trkpt>
      <trkpt lat="45.62068" lon="6.54788">
        <ele>1949.2</ele>
        <time>2025-02-20T10:45:26Z</time>
      </trkpt>
      <trkpt lat="45.62068" lon="6.54788">
        <ele>1949.2</ele>
        <time>2025-02-20T10:45:27Z</time>
      </trkpt>
      <trkpt lat="45.62068" lon="6.54788">
        <ele>1949.2</ele>
        <time>2025-02-20T10:45:28Z</time>
      </trkpt>
      <trkpt lat="45.62068" lon="6.54788">
        <ele>1949</ele>
        <time>2025-02-20T10:45:29Z</time>
      </trkpt>
      <trkpt lat="45.62068" lon="6.54788">
        <ele>1949</ele>
        <time>2025-02-20T10:45:30Z</time>
      </trkpt>
      <trkpt lat="45.62068" lon="6.54788">
        <ele>1949</ele>
        <time>2025-02-20T10:45:31Z</time>
      </trkpt>
      <trkpt lat="45.62068" lon="6.54788">
        <ele>1949</ele>
        <time>2025-02-20T10:45:32Z</time>
      </trkpt>
      <trkpt lat="45.62068" lon="6.54788">
        <ele>1949.2</ele>
        <time>2025-02-20T10:45:33Z</time>
      </trkpt>
      <trkpt lat="45.62068" lon="6.54788">
        <ele>1949.2</ele>
        <time>2025-02-20T10:45:34Z</time>
      </trkpt>
      <trkpt lat="45.62068" lon="6.54788">
        <ele>1949.2</ele>
        <time>2025-02-20T10:45:35Z</time>
      </trkpt>
      <trkpt lat="45.62068" lon="6.54788">
        <ele>1949.2</ele>
        <time>2025-02-20T10:45:36Z</time>
      </trkpt>
      <trkpt lat="45.62068" lon="6.54788">
        <ele>1950</ele>
        <time>2025-02-20T10:45:37Z</time>
      </trkpt>
      <trkpt lat="45.62068" lon="6.54788">
        <ele>1950</ele>
        <time>2025-02-20T10:45:38Z</time>
      </trkpt>
      <trkpt lat="45.62068" lon="6.54788">
        <ele>1950</ele>
        <time>2025-02-20T10:45:39Z</time>
      </trkpt>
      <trkpt lat="45.62068" lon="6.54788">
        <ele>1949.2</ele>
        <time>2025-02-20T10:45:40Z</time>
      </trkpt>
      <trkpt lat="45.62068" lon="6.54788">
        <ele>1950</ele>
        <time>2025-02-20T10:45:41Z</time>
      </trkpt>
      <trkpt lat="45.62068" lon="6.54788">
        <ele>1950</ele>
        <time>2025-02-20T10:45:42Z</time>
      </trkpt>
      <trkpt lat="45.62068" lon="6.54788">
        <ele>1950</ele>
        <time>2025-02-20T10:45:43Z</time>
      </trkpt>
      <trkpt lat="45.62068" lon="6.54788">
        <ele>1949.8</ele>
        <time>2025-02-20T10:45:44Z</time>
      </trkpt>
      <trkpt lat="45.62068" lon="6.54788">
        <ele>1949.6</ele>
        <time>2025-02-20T10:45:45Z</time>
      </trkpt>
      <trkpt lat="45.62068" lon="6.54788">
        <ele>1949.6</ele>
        <time>2025-02-20T10:45:46Z</time>
      </trkpt>
      <trkpt lat="45.62068" lon="6.54788">
        <ele>1949.6</ele>
        <time>2025-02-20T10:45:47Z</time>
      </trkpt>
      <trkpt lat="45.62068" lon="6.54788">
        <ele>1949.6</ele>
        <time>2025-02-20T10:45:48Z</time>
      </trkpt>
      <trkpt lat="45.62068" lon="6.54788">
        <ele>1949.6</ele>
        <time>2025-02-20T10:45:49Z</time>
      </trkpt>
      <trkpt lat="45.62068" lon="6.54788">
        <ele>1949.6</ele>
        <time>2025-02-20T10:45:50Z</time>
      </trkpt>
      <trkpt lat="45.62068" lon="6.54788">
        <ele>1949.6</ele>
        <time>2025-02-20T10:45:51Z</time>
      </trkpt>
      <trkpt lat="45.62068" lon="6.54788">
        <ele>1949.6</ele>
        <time>2025-02-20T10:45:52Z</time>
      </trkpt>
      <trkpt lat="45.62068" lon="6.54788">
        <ele>1949.6</ele>
        <time>2025-02-20T10:45:53Z</time>
      </trkpt>
      <trkpt lat="45.62068" lon="6.54788">
        <ele>1949.6</ele>
        <time>2025-02-20T10:45:54Z</time>
      </trkpt>
      <trkpt lat="45.62068" lon="6.54788">
        <ele>1949.6</ele>
        <time>2025-02-20T10:45:55Z</time>
      </trkpt>
      <trkpt lat="45.62068" lon="6.54788">
        <ele>1949.6</ele>
        <time>2025-02-20T10:45:56Z</time>
      </trkpt>
      <trkpt lat="45.62068" lon="6.54788">
        <ele>1949.4</ele>
        <time>2025-02-20T10:45:57Z</time>
      </trkpt>
      <trkpt lat="45.62068" lon="6.54788">
        <ele>1949.4</ele>
        <time>2025-02-20T10:45:58Z</time>
      </trkpt>
      <trkpt lat="45.62068" lon="6.54788">
        <ele>1949.4</ele>
        <time>2025-02-20T10:45:59Z</time>
      </trkpt>
      <trkpt lat="45.62068" lon="6.54788">
        <ele>1949.4</ele>
        <time>2025-02-20T10:46:00Z</time>
      </trkpt>
      <trkpt lat="45.62068" lon="6.54788">
        <ele>1949.2</ele>
        <time>2025-02-20T10:46:01Z</time>
      </trkpt>
      <trkpt lat="45.62068" lon="6.54788">
        <ele>1949.2</ele>
        <time>2025-02-20T10:46:02Z</time>
      </trkpt>
      <trkpt lat="45.62068" lon="6.54788">
        <ele>1949.2</ele>
        <time>2025-02-20T10:46:03Z</time>
      </trkpt>
      <trkpt lat="45.62068" lon="6.54788">
        <ele>1949.6</ele>
        <time>2025-02-20T10:46:04Z</time>
      </trkpt>
      <trkpt lat="45.62068" lon="6.54788">
        <ele>1950</ele>
        <time>2025-02-20T10:46:05Z</time>
      </trkpt>
      <trkpt lat="45.62068" lon="6.54788">
        <ele>1950</ele>
        <time>2025-02-20T10:46:06Z</time>
      </trkpt>
      <trkpt lat="45.62068" lon="6.54788">
        <ele>1950</ele>
        <time>2025-02-20T10:46:07Z</time>
      </trkpt>
      <trkpt lat="45.62068" lon="6.54788">
        <ele>1949.2</ele>
        <time>2025-02-20T10:46:08Z</time>
      </trkpt>
      <trkpt lat="45.62068" lon="6.54788">
        <ele>1949.8</ele>
        <time>2025-02-20T10:46:09Z</time>
      </trkpt>
      <trkpt lat="45.62068" lon="6.54788">
        <ele>1949.8</ele>
        <time>2025-02-20T10:46:10Z</time>
      </trkpt>
      <trkpt lat="45.62068" lon="6.54788">
        <ele>1949.8</ele>
        <time>2025-02-20T10:46:11Z</time>
      </trkpt>
      <trkpt lat="45.62068" lon="6.54788">
        <ele>1949.8</ele>
        <time>2025-02-20T10:46:12Z</time>
      </trkpt>
      <trkpt lat="45.62068" lon="6.54788">
        <ele>1948.8</ele>
        <time>2025-02-20T10:46:13Z</time>
      </trkpt>
      <trkpt lat="45.62068" lon="6.54788">
        <ele>1948.8</ele>
        <time>2025-02-20T10:46:14Z</time>
      </trkpt>
      <trkpt lat="45.62068" lon="6.54788">
        <ele>1948.8</ele>
        <time>2025-02-20T10:46:15Z</time>
      </trkpt>
      <trkpt lat="45.62068" lon="6.54788">
        <ele>1949.4</ele>
        <time>2025-02-20T10:46:16Z</time>
      </trkpt>
      <trkpt lat="45.62068" lon="6.54788">
        <ele>1949.4</ele>
        <time>2025-02-20T10:46:17Z</time>
      </trkpt>
      <trkpt lat="45.62068" lon="6.54788">
        <ele>1949.4</ele>
        <time>2025-02-20T10:46:18Z</time>
      </trkpt>
      <trkpt lat="45.62068" lon="6.54788">
        <ele>1949.4</ele>
        <time>2025-02-20T10:46:19Z</time>
      </trkpt>
      <trkpt lat="45.62068" lon="6.54788">
        <ele>1949.4</ele>
        <time>2025-02-20T10:46:20Z</time>
      </trkpt>
      <trkpt lat="45.62068" lon="6.54788">
        <ele>1949.6</ele>
        <time>2025-02-20T10:46:21Z</time>
      </trkpt>
      <trkpt lat="45.62068" lon="6.54788">
        <ele>1949.6</ele>
        <time>2025-02-20T10:46:22Z</time>
      </trkpt>
      <trkpt lat="45.62068" lon="6.54788">
        <ele>1949.6</ele>
        <time>2025-02-20T10:46:23Z</time>
      </trkpt>
      <trkpt lat="45.62068" lon="6.54788">
        <ele>1949.4</ele>
        <time>2025-02-20T10:46:24Z</time>
      </trkpt>
      <trkpt lat="45.62068" lon="6.54788">
        <ele>1949.2</ele>
        <time>2025-02-20T10:46:25Z</time>
      </trkpt>
      <trkpt lat="45.62068" lon="6.54788">
        <ele>1949.2</ele>
        <time>2025-02-20T10:46:26Z</time>
      </trkpt>
      <trkpt lat="45.62068" lon="6.54788">
        <ele>1949.2</ele>
        <time>2025-02-20T10:46:27Z</time>
      </trkpt>
      <trkpt lat="45.62068" lon="6.54788">
        <ele>1950</ele>
        <time>2025-02-20T10:46:28Z</time>
      </trkpt>
      <trkpt lat="45.62068" lon="6.54788">
        <ele>1949.6</ele>
        <time>2025-02-20T10:46:29Z</time>
      </trkpt>
      <trkpt lat="45.62068" lon="6.54788">
        <ele>1949.6</ele>
        <time>2025-02-20T10:46:30Z</time>
      </trkpt>
      <trkpt lat="45.62068" lon="6.54788">
        <ele>1949.6</ele>
        <time>2025-02-20T10:46:31Z</time>
      </trkpt>
      <trkpt lat="45.62068" lon="6.54788">
        <ele>1949.6</ele>
        <time>2025-02-20T10:46:32Z</time>
      </trkpt>
      <trkpt lat="45.62068" lon="6.54788">
        <ele>1949.6</ele>
        <time>2025-02-20T10:46:33Z</time>
      </trkpt>
      <trkpt lat="45.62068" lon="6.54788">
        <ele>1949.6</ele>
        <time>2025-02-20T10:46:34Z</time>
      </trkpt>
      <trkpt lat="45.62068" lon="6.54788">
        <ele>1949.6</ele>
        <time>2025-02-20T10:46:35Z</time>
      </trkpt>
      <trkpt lat="45.62068" lon="6.54788">
        <ele>1949.6</ele>
        <time>2025-02-20T10:46:36Z</time>
      </trkpt>
      <trkpt lat="45.62068" lon="6.54788">
        <ele>1949.6</ele>
        <time>2025-02-20T10:46:37Z</time>
      </trkpt>
      <trkpt lat="45.62068" lon="6.54788">
        <ele>1949.6</ele>
        <time>2025-02-20T10:46:38Z</time>
      </trkpt>
      <trkpt lat="45.62068" lon="6.54788">
        <ele>1949.6</ele>
        <time>2025-02-20T10:46:39Z</time>
      </trkpt>
      <trkpt lat="45.62068" lon="6.54788">
        <ele>1949.6</ele>
        <time>2025-02-20T10:46:40Z</time>
      </trkpt>
      <trkpt lat="45.62068" lon="6.54788">
        <ele>1949.8</ele>
        <time>2025-02-20T10:46:41Z</time>
      </trkpt>
      <trkpt lat="45.62068" lon="6.54788">
        <ele>1949.8</ele>
        <time>2025-02-20T10:46:42Z</time>
      </trkpt>
      <trkpt lat="45.62068" lon="6.54788">
        <ele>1949.8</ele>
        <time>2025-02-20T10:46:43Z</time>
      </trkpt>
      <trkpt lat="45.62068" lon="6.54788">
        <ele>1949.8</ele>
        <time>2025-02-20T10:46:44Z</time>
      </trkpt>
      <trkpt lat="45.62068" lon="6.54788">
        <ele>1949.2</ele>
        <time>2025-02-20T10:46:45Z</time>
      </trkpt>
      <trkpt lat="45.62068" lon="6.54788">
        <ele>1949.2</ele>
        <time>2025-02-20T10:46:46Z</time>
      </trkpt>
      <trkpt lat="45.62068" lon="6.54788">
        <ele>1949.2</ele>
        <time>2025-02-20T10:46:47Z</time>
      </trkpt>
      <trkpt lat="45.62068" lon="6.54788">
        <ele>1950</ele>
        <time>2025-02-20T10:46:48Z</time>
      </trkpt>
      <trkpt lat="45.62068" lon="6.54788">
        <ele>1949.4</ele>
        <time>2025-02-20T10:46:49Z</time>
      </trkpt>
      <trkpt lat="45.62068" lon="6.54788">
        <ele>1949.4</ele>
        <time>2025-02-20T10:46:50Z</time>
      </trkpt>
      <trkpt lat="45.62068" lon="6.54788">
        <ele>1949.4</ele>
        <time>2025-02-20T10:46:51Z</time>
      </trkpt>
      <trkpt lat="45.62068" lon="6.54788">
        <ele>1949.4</ele>
        <time>2025-02-20T10:46:52Z</time>
      </trkpt>
      <trkpt lat="45.62068" lon="6.54788">
        <ele>1950</ele>
        <time>2025-02-20T10:46:53Z</time>
      </trkpt>
      <trkpt lat="45.62068" lon="6.54788">
        <ele>1950</ele>
        <time>2025-02-20T10:46:54Z</time>
      </trkpt>
      <trkpt lat="45.62068" lon="6.54788">
        <ele>1950</ele>
        <time>2025-02-20T10:46:55Z</time>
      </trkpt>
      <trkpt lat="45.62068" lon="6.54788">
        <ele>1950</ele>
        <time>2025-02-20T10:46:56Z</time>
      </trkpt>
      <trkpt lat="45.62068" lon="6.54788">
        <ele>1950.2</ele>
        <time>2025-02-20T10:46:57Z</time>
      </trkpt>
      <trkpt lat="45.62068" lon="6.54788">
        <ele>1950.2</ele>
        <time>2025-02-20T10:46:58Z</time>
      </trkpt>
      <trkpt lat="45.62068" lon="6.54788">
        <ele>1950.2</ele>
        <time>2025-02-20T10:46:59Z</time>
      </trkpt>
      <trkpt lat="45.62068" lon="6.54788">
        <ele>1950.2</ele>
        <time>2025-02-20T10:47:00Z</time>
      </trkpt>
      <trkpt lat="45.62068" lon="6.54788">
        <ele>1949.8</ele>
        <time>2025-02-20T10:47:01Z</time>
      </trkpt>
      <trkpt lat="45.62068" lon="6.54788">
        <ele>1949.8</ele>
        <time>2025-02-20T10:47:02Z</time>
      </trkpt>
      <trkpt lat="45.62068" lon="6.54788">
        <ele>1949.8</ele>
        <time>2025-02-20T10:47:03Z</time>
      </trkpt>
      <trkpt lat="45.62068" lon="6.54788">
        <ele>1949.8</ele>
        <time>2025-02-20T10:47:04Z</time>
      </trkpt>
      <trkpt lat="45.62068" lon="6.54788">
        <ele>1950.2</ele>
        <time>2025-02-20T10:47:05Z</time>
      </trkpt>
      <trkpt lat="45.62068" lon="6.54788">
        <ele>1950.2</ele>
        <time>2025-02-20T10:47:06Z</time>
      </trkpt>
      <trkpt lat="45.62068" lon="6.54788">
        <ele>1950.2</ele>
        <time>2025-02-20T10:47:07Z</time>
      </trkpt>
      <trkpt lat="45.62068" lon="6.54788">
        <ele>1950.2</ele>
        <time>2025-02-20T10:47:08Z</time>
      </trkpt>
      <trkpt lat="45.62068" lon="6.54788">
        <ele>1950</ele>
        <time>2025-02-20T10:47:09Z</time>
      </trkpt>
      <trkpt lat="45.62068" lon="6.54788">
        <ele>1950</ele>
        <time>2025-02-20T10:47:10Z</time>
      </trkpt>
      <trkpt lat="45.62068" lon="6.54788">
        <ele>1950</ele>
        <time>2025-02-20T10:47:11Z</time>
      </trkpt>
      <trkpt lat="45.62068" lon="6.54788">
        <ele>1950</ele>
        <time>2025-02-20T10:47:12Z</time>
      </trkpt>
      <trkpt lat="45.62068" lon="6.54788">
        <ele>1949.4</ele>
        <time>2025-02-20T10:47:13Z</time>
      </trkpt>
      <trkpt lat="45.62068" lon="6.54788">
        <ele>1949.4</ele>
        <time>2025-02-20T10:47:14Z</time>
      </trkpt>
      <trkpt lat="45.62068" lon="6.54788">
        <ele>1949.4</ele>
        <time>2025-02-20T10:47:15Z</time>
      </trkpt>
      <trkpt lat="45.62068" lon="6.54788">
        <ele>1949.4</ele>
        <time>2025-02-20T10:47:16Z</time>
      </trkpt>
      <trkpt lat="45.62068" lon="6.54788">
        <ele>1950.2</ele>
        <time>2025-02-20T10:47:17Z</time>
      </trkpt>
      <trkpt lat="45.62068" lon="6.54788">
        <ele>1950.2</ele>
        <time>2025-02-20T10:47:18Z</time>
      </trkpt>
      <trkpt lat="45.62068" lon="6.54788">
        <ele>1950.2</ele>
        <time>2025-02-20T10:47:19Z</time>
      </trkpt>
      <trkpt lat="45.62068" lon="6.54788">
        <ele>1949.6</ele>
        <time>2025-02-20T10:47:20Z</time>
      </trkpt>
      <trkpt lat="45.62068" lon="6.54788">
        <ele>1950</ele>
        <time>2025-02-20T10:47:21Z</time>
      </trkpt>
      <trkpt lat="45.62068" lon="6.54788">
        <ele>1950</ele>
        <time>2025-02-20T10:47:22Z</time>
      </trkpt>
      <trkpt lat="45.62068" lon="6.54788">
        <ele>1950</ele>
        <time>2025-02-20T10:47:23Z</time>
      </trkpt>
      <trkpt lat="45.62068" lon="6.54788">
        <ele>1950</ele>
        <time>2025-02-20T10:47:24Z</time>
      </trkpt>
      <trkpt lat="45.62068" lon="6.54788">
        <ele>1950.2</ele>
        <time>2025-02-20T10:47:25Z</time>
      </trkpt>
      <trkpt lat="45.62068" lon="6.54788">
        <ele>1950.2</ele>
        <time>2025-02-20T10:47:26Z</time>
      </trkpt>
      <trkpt lat="45.62068" lon="6.54788">
        <ele>1950.2</ele>
        <time>2025-02-20T10:47:27Z</time>
      </trkpt>
      <trkpt lat="45.62068" lon="6.54788">
        <ele>1950.2</ele>
        <time>2025-02-20T10:47:28Z</time>
      </trkpt>
      <trkpt lat="45.62068" lon="6.54788">
        <ele>1949.6</ele>
        <time>2025-02-20T10:47:29Z</time>
      </trkpt>
      <trkpt lat="45.62068" lon="6.54788">
        <ele>1949.6</ele>
        <time>2025-02-20T10:47:30Z</time>
      </trkpt>
      <trkpt lat="45.62068" lon="6.54788">
        <ele>1949.6</ele>
        <time>2025-02-20T10:47:31Z</time>
      </trkpt>
      <trkpt lat="45.62068" lon="6.54788">
        <ele>1949.8</ele>
        <time>2025-02-20T10:47:32Z</time>
      </trkpt>
      <trkpt lat="45.62068" lon="6.54788">
        <ele>1949.2</ele>
        <time>2025-02-20T10:47:33Z</time>
      </trkpt>
      <trkpt lat="45.62068" lon="6.54788">
        <ele>1949.2</ele>
        <time>2025-02-20T10:47:34Z</time>
      </trkpt>
      <trkpt lat="45.62068" lon="6.54788">
        <ele>1949.2</ele>
        <time>2025-02-20T10:47:35Z</time>
      </trkpt>
      <trkpt lat="45.62068" lon="6.54788">
        <ele>1950</ele>
        <time>2025-02-20T10:47:36Z</time>
      </trkpt>
      <trkpt lat="45.62068" lon="6.54788">
        <ele>1950</ele>
        <time>2025-02-20T10:47:37Z</time>
      </trkpt>
      <trkpt lat="45.62068" lon="6.54788">
        <ele>1950</ele>
        <time>2025-02-20T10:47:38Z</time>
      </trkpt>
      <trkpt lat="45.62068" lon="6.54788">
        <ele>1950</ele>
        <time>2025-02-20T10:47:39Z</time>
      </trkpt>
      <trkpt lat="45.62068" lon="6.54788">
        <ele>1950</ele>
        <time>2025-02-20T10:47:40Z</time>
      </trkpt>
      <trkpt lat="45.62068" lon="6.54788">
        <ele>1950</ele>
        <time>2025-02-20T10:47:41Z</time>
      </trkpt>
      <trkpt lat="45.62068" lon="6.54788">
        <ele>1950</ele>
        <time>2025-02-20T10:47:42Z</time>
      </trkpt>
      <trkpt lat="45.62068" lon="6.54788">
        <ele>1950</ele>
        <time>2025-02-20T10:47:43Z</time>
      </trkpt>
      <trkpt lat="45.62068" lon="6.54788">
        <ele>1950</ele>
        <time>2025-02-20T10:47:44Z</time>
      </trkpt>
      <trkpt lat="45.62068" lon="6.54788">
        <ele>1949.6</ele>
        <time>2025-02-20T10:47:45Z</time>
      </trkpt>
      <trkpt lat="45.62068" lon="6.54788">
        <ele>1949.6</ele>
        <time>2025-02-20T10:47:46Z</time>
      </trkpt>
      <trkpt lat="45.62068" lon="6.54788">
        <ele>1949.6</ele>
        <time>2025-02-20T10:47:47Z</time>
      </trkpt>
      <trkpt lat="45.62068" lon="6.54788">
        <ele>1949.6</ele>
        <time>2025-02-20T10:47:48Z</time>
      </trkpt>
      <trkpt lat="45.62068" lon="6.54788">
        <ele>1949.8</ele>
        <time>2025-02-20T10:47:49Z</time>
      </trkpt>
      <trkpt lat="45.62068" lon="6.54788">
        <ele>1949.8</ele>
        <time>2025-02-20T10:47:50Z</time>
      </trkpt>
      <trkpt lat="45.62068" lon="6.54788">
        <ele>1949.8</ele>
        <time>2025-02-20T10:47:51Z</time>
      </trkpt>
      <trkpt lat="45.62068" lon="6.54788">
        <ele>1949.8</ele>
        <time>2025-02-20T10:47:52Z</time>
      </trkpt>
      <trkpt lat="45.62068" lon="6.54788">
        <ele>1949.4</ele>
        <time>2025-02-20T10:47:53Z</time>
      </trkpt>
      <trkpt lat="45.62068" lon="6.54788">
        <ele>1949.4</ele>
        <time>2025-02-20T10:47:54Z</time>
      </trkpt>
      <trkpt lat="45.62068" lon="6.54788">
        <ele>1949.4</ele>
        <time>2025-02-20T10:47:55Z</time>
      </trkpt>
      <trkpt lat="45.62068" lon="6.54788">
        <ele>1949.4</ele>
        <time>2025-02-20T10:47:56Z</time>
      </trkpt>
      <trkpt lat="45.62068" lon="6.54788">
        <ele>1949.6</ele>
        <time>2025-02-20T10:47:57Z</time>
      </trkpt>
      <trkpt lat="45.62068" lon="6.54788">
        <ele>1949.6</ele>
        <time>2025-02-20T10:47:58Z</time>
      </trkpt>
      <trkpt lat="45.62068" lon="6.54788">
        <ele>1949.6</ele>
        <time>2025-02-20T10:47:59Z</time>
      </trkpt>
      <trkpt lat="45.62068" lon="6.54788">
        <ele>1949.8</ele>
        <time>2025-02-20T10:48:00Z</time>
      </trkpt>
      <trkpt lat="45.62068" lon="6.54788">
        <ele>1949.4</ele>
        <time>2025-02-20T10:48:01Z</time>
      </trkpt>
      <trkpt lat="45.62068" lon="6.54788">
        <ele>1949.4</ele>
        <time>2025-02-20T10:48:02Z</time>
      </trkpt>
      <trkpt lat="45.62068" lon="6.54788">
        <ele>1949.4</ele>
        <time>2025-02-20T10:48:03Z</time>
      </trkpt>
      <trkpt lat="45.62068" lon="6.54788">
        <ele>1950.2</ele>
        <time>2025-02-20T10:48:04Z</time>
      </trkpt>
      <trkpt lat="45.62068" lon="6.54788">
        <ele>1949.8</ele>
        <time>2025-02-20T10:48:05Z</time>
      </trkpt>
      <trkpt lat="45.62068" lon="6.54788">
        <ele>1949.8</ele>
        <time>2025-02-20T10:48:06Z</time>
      </trkpt>
      <trkpt lat="45.62068" lon="6.54788">
        <ele>1949.8</ele>
        <time>2025-02-20T10:48:07Z</time>
      </trkpt>
      <trkpt lat="45.62068" lon="6.54788">
        <ele>1950.2</ele>
        <time>2025-02-20T10:48:08Z</time>
      </trkpt>
      <trkpt lat="45.62068" lon="6.54788">
        <ele>1950</ele>
        <time>2025-02-20T10:48:09Z</time>
      </trkpt>
      <trkpt lat="45.62068" lon="6.54788">
        <ele>1950</ele>
        <time>2025-02-20T10:48:10Z</time>
      </trkpt>
      <trkpt lat="45.62068" lon="6.54788">
        <ele>1950</ele>
        <time>2025-02-20T10:48:11Z</time>
      </trkpt>
      <trkpt lat="45.62068" lon="6.54788">
        <ele>1949.6</ele>
        <time>2025-02-20T10:48:12Z</time>
      </trkpt>
      <trkpt lat="45.62068" lon="6.54788">
        <ele>1949.6</ele>
        <time>2025-02-20T10:48:13Z</time>
      </trkpt>
      <trkpt lat="45.62068" lon="6.54788">
        <ele>1949.6</ele>
        <time>2025-02-20T10:48:14Z</time>
      </trkpt>
      <trkpt lat="45.62068" lon="6.54788">
        <ele>1949.6</ele>
        <time>2025-02-20T10:48:15Z</time>
      </trkpt>
      <trkpt lat="45.62068" lon="6.54788">
        <ele>1949.6</ele>
        <time>2025-02-20T10:48:16Z</time>
      </trkpt>
      <trkpt lat="45.62068" lon="6.54788">
        <ele>1949.6</ele>
        <time>2025-02-20T10:48:17Z</time>
      </trkpt>
      <trkpt lat="45.62068" lon="6.54788">
        <ele>1949.6</ele>
        <time>2025-02-20T10:48:18Z</time>
      </trkpt>
      <trkpt lat="45.62068" lon="6.54788">
        <ele>1949.6</ele>
        <time>2025-02-20T10:48:19Z</time>
      </trkpt>
      <trkpt lat="45.62068" lon="6.54788">
        <ele>1950</ele>
        <time>2025-02-20T10:48:20Z</time>
      </trkpt>
      <trkpt lat="45.62068" lon="6.54788">
        <ele>1949.8</ele>
        <time>2025-02-20T10:48:21Z</time>
      </trkpt>
      <trkpt lat="45.62068" lon="6.54788">
        <ele>1949.8</ele>
        <time>2025-02-20T10:48:22Z</time>
      </trkpt>
      <trkpt lat="45.62068" lon="6.54788">
        <ele>1949.8</ele>
        <time>2025-02-20T10:48:23Z</time>
      </trkpt>
      <trkpt lat="45.62068" lon="6.54788">
        <ele>1949.8</ele>
        <time>2025-02-20T10:48:24Z</time>
      </trkpt>
      <trkpt lat="45.62068" lon="6.54788">
        <ele>1950</ele>
        <time>2025-02-20T10:48:25Z</time>
      </trkpt>
      <trkpt lat="45.62068" lon="6.54788">
        <ele>1950</ele>
        <time>2025-02-20T10:48:26Z</time>
      </trkpt>
      <trkpt lat="45.62068" lon="6.54788">
        <ele>1950</ele>
        <time>2025-02-20T10:48:27Z</time>
      </trkpt>
      <trkpt lat="45.62068" lon="6.54788">
        <ele>1949.4</ele>
        <time>2025-02-20T10:48:28Z</time>
      </trkpt>
      <trkpt lat="45.62068" lon="6.54788">
        <ele>1949.6</ele>
        <time>2025-02-20T10:48:29Z</time>
      </trkpt>
      <trkpt lat="45.62068" lon="6.54788">
        <ele>1949.6</ele>
        <time>2025-02-20T10:48:30Z</time>
      </trkpt>
      <trkpt lat="45.62068" lon="6.54788">
        <ele>1949.6</ele>
        <time>2025-02-20T10:48:31Z</time>
      </trkpt>
      <trkpt lat="45.62068" lon="6.54788">
        <ele>1949.6</ele>
        <time>2025-02-20T10:48:32Z</time>
      </trkpt>
      <trkpt lat="45.62068" lon="6.54788">
        <ele>1949.2</ele>
        <time>2025-02-20T10:48:33Z</time>
      </trkpt>
      <trkpt lat="45.62068" lon="6.54788">
        <ele>1949.2</ele>
        <time>2025-02-20T10:48:34Z</time>
      </trkpt>
      <trkpt lat="45.62068" lon="6.54788">
        <ele>1949.2</ele>
        <time>2025-02-20T10:48:35Z</time>
      </trkpt>
      <trkpt lat="45.62068" lon="6.54788">
        <ele>1949.4</ele>
        <time>2025-02-20T10:48:36Z</time>
      </trkpt>
      <trkpt lat="45.62068" lon="6.54788">
        <ele>1949.6</ele>
        <time>2025-02-20T10:48:37Z</time>
      </trkpt>
      <trkpt lat="45.62068" lon="6.54788">
        <ele>1949.6</ele>
        <time>2025-02-20T10:48:38Z</time>
      </trkpt>
      <trkpt lat="45.62068" lon="6.54788">
        <ele>1949.6</ele>
        <time>2025-02-20T10:48:39Z</time>
      </trkpt>
      <trkpt lat="45.62068" lon="6.54788">
        <ele>1949.6</ele>
        <time>2025-02-20T10:48:40Z</time>
      </trkpt>
      <trkpt lat="45.62068" lon="6.54788">
        <ele>1949.4</ele>
        <time>2025-02-20T10:48:41Z</time>
      </trkpt>
      <trkpt lat="45.62068" lon="6.54788">
        <ele>1949.4</ele>
        <time>2025-02-20T10:48:42Z</time>
      </trkpt>
      <trkpt lat="45.62068" lon="6.54788">
        <ele>1949.4</ele>
        <time>2025-02-20T10:48:43Z</time>
      </trkpt>
      <trkpt lat="45.62068" lon="6.54788">
        <ele>1949.4</ele>
        <time>2025-02-20T10:48:44Z</time>
      </trkpt>
      <trkpt lat="45.62068" lon="6.54788">
        <ele>1949.2</ele>
        <time>2025-02-20T10:48:45Z</time>
      </trkpt>
      <trkpt lat="45.62068" lon="6.54788">
        <ele>1949.2</ele>
        <time>2025-02-20T10:48:46Z</time>
      </trkpt>
      <trkpt lat="45.62068" lon="6.54788">
        <ele>1949.2</ele>
        <time>2025-02-20T10:48:47Z</time>
      </trkpt>
      <trkpt lat="45.62068" lon="6.54788">
        <ele>1949.2</ele>
        <time>2025-02-20T10:48:48Z</time>
      </trkpt>
      <trkpt lat="45.62068" lon="6.54788">
        <ele>1949.4</ele>
        <time>2025-02-20T10:48:49Z</time>
      </trkpt>
      <trkpt lat="45.62068" lon="6.54788">
        <ele>1949.4</ele>
        <time>2025-02-20T10:48:50Z</time>
      </trkpt>
      <trkpt lat="45.62068" lon="6.54788">
        <ele>1949.4</ele>
        <time>2025-02-20T10:48:51Z</time>
      </trkpt>
      <trkpt lat="45.62068" lon="6.54788">
        <ele>1949.4</ele>
        <time>2025-02-20T10:48:52Z</time>
      </trkpt>
      <trkpt lat="45.62068" lon="6.54788">
        <ele>1949.2</ele>
        <time>2025-02-20T10:48:53Z</time>
      </trkpt>
      <trkpt lat="45.62068" lon="6.54788">
        <ele>1949.2</ele>
        <time>2025-02-20T10:48:54Z</time>
      </trkpt>
      <trkpt lat="45.62068" lon="6.54788">
        <ele>1949.2</ele>
        <time>2025-02-20T10:48:55Z</time>
      </trkpt>
      <trkpt lat="45.62068" lon="6.54788">
        <ele>1949.2</ele>
        <time>2025-02-20T10:48:56Z</time>
      </trkpt>
      <trkpt lat="45.62068" lon="6.54788">
        <ele>1949.2</ele>
        <time>2025-02-20T10:48:57Z</time>
      </trkpt>
      <trkpt lat="45.62068" lon="6.54788">
        <ele>1949.2</ele>
        <time>2025-02-20T10:48:58Z</time>
      </trkpt>
      <trkpt lat="45.62068" lon="6.54788">
        <ele>1949.2</ele>
        <time>2025-02-20T10:48:59Z</time>
      </trkpt>
      <trkpt lat="45.62068" lon="6.54788">
        <ele>1949.2</ele>
        <time>2025-02-20T10:49:00Z</time>
      </trkpt>
      <trkpt lat="45.62068" lon="6.54788">
        <ele>1949.4</ele>
        <time>2025-02-20T10:49:01Z</time>
      </trkpt>
      <trkpt lat="45.62068" lon="6.54788">
        <ele>1949.4</ele>
        <time>2025-02-20T10:49:02Z</time>
      </trkpt>
      <trkpt lat="45.62068" lon="6.54788">
        <ele>1949.4</ele>
        <time>2025-02-20T10:49:03Z</time>
      </trkpt>
      <trkpt lat="45.62068" lon="6.54788">
        <ele>1949.4</ele>
        <time>2025-02-20T10:49:04Z</time>
      </trkpt>
      <trkpt lat="45.62068" lon="6.54788">
        <ele>1949.4</ele>
        <time>2025-02-20T10:49:05Z</time>
      </trkpt>
      <trkpt lat="45.62068" lon="6.54788">
        <ele>1949.4</ele>
        <time>2025-02-20T10:49:06Z</time>
      </trkpt>
      <trkpt lat="45.62068" lon="6.54788">
        <ele>1949.4</ele>
        <time>2025-02-20T10:49:07Z</time>
      </trkpt>
      <trkpt lat="45.62068" lon="6.54788">
        <ele>1949.2</ele>
        <time>2025-02-20T10:49:08Z</time>
      </trkpt>
      <trkpt lat="45.62068" lon="6.54788">
        <ele>1950</ele>
        <time>2025-02-20T10:49:09Z</time>
      </trkpt>
      <trkpt lat="45.62068" lon="6.54788">
        <ele>1950</ele>
        <time>2025-02-20T10:49:10Z</time>
      </trkpt>
      <trkpt lat="45.62068" lon="6.54788">
        <ele>1950</ele>
        <time>2025-02-20T10:49:11Z</time>
      </trkpt>
      <trkpt lat="45.62068" lon="6.54788">
        <ele>1949</ele>
        <time>2025-02-20T10:49:12Z</time>
      </trkpt>
      <trkpt lat="45.62068" lon="6.54788">
        <ele>1949.6</ele>
        <time>2025-02-20T10:49:13Z</time>
      </trkpt>
      <trkpt lat="45.62068" lon="6.54788">
        <ele>1949.6</ele>
        <time>2025-02-20T10:49:14Z</time>
      </trkpt>
      <trkpt lat="45.62065" lon="6.54784">
        <ele>1949.6</ele>
        <time>2025-02-20T10:49:15Z</time>
      </trkpt>
      <trkpt lat="45.62065" lon="6.54784">
        <ele>1949.6</ele>
        <time>2025-02-20T10:49:16Z</time>
      </trkpt>
      <trkpt lat="45.62065" lon="6.54782">
        <ele>1948.8</ele>
        <time>2025-02-20T10:49:17Z</time>
      </trkpt>
      <trkpt lat="45.62065" lon="6.54782">
        <ele>1948.8</ele>
        <time>2025-02-20T10:49:18Z</time>
      </trkpt>
      <trkpt lat="45.62064" lon="6.5478">
        <ele>1948.8</ele>
        <time>2025-02-20T10:49:19Z</time>
      </trkpt>
      <trkpt lat="45.62064" lon="6.54779">
        <ele>1949.8</ele>
        <time>2025-02-20T10:49:20Z</time>
      </trkpt>
      <trkpt lat="45.62064" lon="6.54778">
        <ele>1949.2</ele>
        <time>2025-02-20T10:49:21Z</time>
      </trkpt>
      <trkpt lat="45.62064" lon="6.54777">
        <ele>1949.2</ele>
        <time>2025-02-20T10:49:22Z</time>
      </trkpt>
      <trkpt lat="45.62064" lon="6.54777">
        <ele>1949.2</ele>
        <time>2025-02-20T10:49:23Z</time>
      </trkpt>
      <trkpt lat="45.62064" lon="6.54777">
        <ele>1950</ele>
        <time>2025-02-20T10:49:24Z</time>
      </trkpt>
      <trkpt lat="45.62063" lon="6.54775">
        <ele>1950.6</ele>
        <time>2025-02-20T10:49:25Z</time>
      </trkpt>
      <trkpt lat="45.62063" lon="6.54774">
        <ele>1950.6</ele>
        <time>2025-02-20T10:49:26Z</time>
      </trkpt>
      <trkpt lat="45.62063" lon="6.54773">
        <ele>1950.6</ele>
        <time>2025-02-20T10:49:27Z</time>
      </trkpt>
      <trkpt lat="45.62063" lon="6.54772">
        <ele>1949.6</ele>
        <time>2025-02-20T10:49:28Z</time>
      </trkpt>
      <trkpt lat="45.62062" lon="6.54771">
        <ele>1950</ele>
        <time>2025-02-20T10:49:29Z</time>
      </trkpt>
      <trkpt lat="45.62062" lon="6.5477">
        <ele>1950</ele>
        <time>2025-02-20T10:49:30Z</time>
      </trkpt>
      <trkpt lat="45.62062" lon="6.54769">
        <ele>1950</ele>
        <time>2025-02-20T10:49:31Z</time>
      </trkpt>
      <trkpt lat="45.62062" lon="6.54768">
        <ele>1950.6</ele>
        <time>2025-02-20T10:49:32Z</time>
      </trkpt>
      <trkpt lat="45.62061" lon="6.54768">
        <ele>1949.2</ele>
        <time>2025-02-20T10:49:33Z</time>
      </trkpt>
      <trkpt lat="45.62061" lon="6.54766">
        <ele>1949.2</ele>
        <time>2025-02-20T10:49:34Z</time>
      </trkpt>
      <trkpt lat="45.62061" lon="6.54765">
        <ele>1949.2</ele>
        <time>2025-02-20T10:49:35Z</time>
      </trkpt>
      <trkpt lat="45.62061" lon="6.54764">
        <ele>1950.2</ele>
        <time>2025-02-20T10:49:36Z</time>
      </trkpt>
      <trkpt lat="45.62061" lon="6.54763">
        <ele>1951.8</ele>
        <time>2025-02-20T10:49:37Z</time>
      </trkpt>
      <trkpt lat="45.6206" lon="6.54762">
        <ele>1951.8</ele>
        <time>2025-02-20T10:49:38Z</time>
      </trkpt>
      <trkpt lat="45.6206" lon="6.54761">
        <ele>1951.8</ele>
        <time>2025-02-20T10:49:39Z</time>
      </trkpt>
      <trkpt lat="45.6206" lon="6.5476">
        <ele>1950.8</ele>
        <time>2025-02-20T10:49:40Z</time>
      </trkpt>
      <trkpt lat="45.62059" lon="6.54759">
        <ele>1949.6</ele>
        <time>2025-02-20T10:49:41Z</time>
      </trkpt>
      <trkpt lat="45.62059" lon="6.54758">
        <ele>1949.6</ele>
        <time>2025-02-20T10:49:42Z</time>
      </trkpt>
      <trkpt lat="45.62059" lon="6.54757">
        <ele>1949.6</ele>
        <time>2025-02-20T10:49:43Z</time>
      </trkpt>
      <trkpt lat="45.62058" lon="6.54756">
        <ele>1950.6</ele>
        <time>2025-02-20T10:49:44Z</time>
      </trkpt>
      <trkpt lat="45.62058" lon="6.54755">
        <ele>1950.8</ele>
        <time>2025-02-20T10:49:45Z</time>
      </trkpt>
      <trkpt lat="45.62058" lon="6.54754">
        <ele>1950.8</ele>
        <time>2025-02-20T10:49:46Z</time>
      </trkpt>
      <trkpt lat="45.62058" lon="6.54753">
        <ele>1950.8</ele>
        <time>2025-02-20T10:49:47Z</time>
      </trkpt>
      <trkpt lat="45.62057" lon="6.54752">
        <ele>1950.8</ele>
        <time>2025-02-20T10:49:48Z</time>
      </trkpt>
      <trkpt lat="45.62057" lon="6.54751">
        <ele>1952</ele>
        <time>2025-02-20T10:49:49Z</time>
      </trkpt>
      <trkpt lat="45.62057" lon="6.5475">
        <ele>1952</ele>
        <time>2025-02-20T10:49:50Z</time>
      </trkpt>
      <trkpt lat="45.62056" lon="6.54749">
        <ele>1952</ele>
        <time>2025-02-20T10:49:51Z</time>
      </trkpt>
      <trkpt lat="45.62056" lon="6.54749">
        <ele>1951</ele>
        <time>2025-02-20T10:49:52Z</time>
      </trkpt>
      <trkpt lat="45.62056" lon="6.54747">
        <ele>1951.6</ele>
        <time>2025-02-20T10:49:53Z</time>
      </trkpt>
      <trkpt lat="45.62056" lon="6.54747">
        <ele>1951.6</ele>
        <time>2025-02-20T10:49:54Z</time>
      </trkpt>
      <trkpt lat="45.62055" lon="6.54746">
        <ele>1951.6</ele>
        <time>2025-02-20T10:49:55Z</time>
      </trkpt>
      <trkpt lat="45.62055" lon="6.54745">
        <ele>1951.6</ele>
        <time>2025-02-20T10:49:56Z</time>
      </trkpt>
      <trkpt lat="45.62055" lon="6.54744">
        <ele>1952.8</ele>
        <time>2025-02-20T10:49:57Z</time>
      </trkpt>
      <trkpt lat="45.62054" lon="6.54742">
        <ele>1952.8</ele>
        <time>2025-02-20T10:49:58Z</time>
      </trkpt>
      <trkpt lat="45.62054" lon="6.54742">
        <ele>1952.8</ele>
        <time>2025-02-20T10:49:59Z</time>
      </trkpt>
      <trkpt lat="45.62054" lon="6.54741">
        <ele>1952.2</ele>
        <time>2025-02-20T10:50:00Z</time>
      </trkpt>
      <trkpt lat="45.62053" lon="6.5474">
        <ele>1952</ele>
        <time>2025-02-20T10:50:01Z</time>
      </trkpt>
      <trkpt lat="45.62053" lon="6.54739">
        <ele>1952</ele>
        <time>2025-02-20T10:50:02Z</time>
      </trkpt>
      <trkpt lat="45.62053" lon="6.54738">
        <ele>1952</ele>
        <time>2025-02-20T10:50:03Z</time>
      </trkpt>
      <trkpt lat="45.62052" lon="6.54737">
        <ele>1952</ele>
        <time>2025-02-20T10:50:04Z</time>
      </trkpt>
      <trkpt lat="45.62052" lon="6.54737">
        <ele>1953.6</ele>
        <time>2025-02-20T10:50:05Z</time>
      </trkpt>
      <trkpt lat="45.62052" lon="6.54736">
        <ele>1953.6</ele>
        <time>2025-02-20T10:50:06Z</time>
      </trkpt>
      <trkpt lat="45.62051" lon="6.54735">
        <ele>1953.6</ele>
        <time>2025-02-20T10:50:07Z</time>
      </trkpt>
      <trkpt lat="45.62051" lon="6.54734">
        <ele>1952.6</ele>
        <time>2025-02-20T10:50:08Z</time>
      </trkpt>
      <trkpt lat="45.62051" lon="6.54733">
        <ele>1952.2</ele>
        <time>2025-02-20T10:50:09Z</time>
      </trkpt>
      <trkpt lat="45.62051" lon="6.54732">
        <ele>1952.2</ele>
        <time>2025-02-20T10:50:10Z</time>
      </trkpt>
      <trkpt lat="45.6205" lon="6.54731">
        <ele>1952.2</ele>
        <time>2025-02-20T10:50:11Z</time>
      </trkpt>
      <trkpt lat="45.6205" lon="6.54731">
        <ele>1953.2</ele>
        <time>2025-02-20T10:50:12Z</time>
      </trkpt>
      <trkpt lat="45.62049" lon="6.54731">
        <ele>1954</ele>
        <time>2025-02-20T10:50:13Z</time>
      </trkpt>
      <trkpt lat="45.62049" lon="6.5473">
        <ele>1954</ele>
        <time>2025-02-20T10:50:14Z</time>
      </trkpt>
      <trkpt lat="45.62049" lon="6.5473">
        <ele>1954</ele>
        <time>2025-02-20T10:50:15Z</time>
      </trkpt>
      <trkpt lat="45.62048" lon="6.54729">
        <ele>1954</ele>
        <time>2025-02-20T10:50:16Z</time>
      </trkpt>
      <trkpt lat="45.62048" lon="6.54728">
        <ele>1952.6</ele>
        <time>2025-02-20T10:50:17Z</time>
      </trkpt>
      <trkpt lat="45.62048" lon="6.54727">
        <ele>1952.6</ele>
        <time>2025-02-20T10:50:18Z</time>
      </trkpt>
      <trkpt lat="45.62047" lon="6.54727">
        <ele>1952.6</ele>
        <time>2025-02-20T10:50:19Z</time>
      </trkpt>
      <trkpt lat="45.62047" lon="6.54726">
        <ele>1953.4</ele>
        <time>2025-02-20T10:50:20Z</time>
      </trkpt>
      <trkpt lat="45.62047" lon="6.54726">
        <ele>1954.8</ele>
        <time>2025-02-20T10:50:21Z</time>
      </trkpt>
      <trkpt lat="45.62047" lon="6.54726">
        <ele>1954.8</ele>
        <time>2025-02-20T10:50:22Z</time>
      </trkpt>
      <trkpt lat="45.62047" lon="6.54726">
        <ele>1954.8</ele>
        <time>2025-02-20T10:50:23Z</time>
      </trkpt>
      <trkpt lat="45.62046" lon="6.54724">
        <ele>1954.8</ele>
        <time>2025-02-20T10:50:24Z</time>
      </trkpt>
      <trkpt lat="45.62046" lon="6.54723">
        <ele>1955.8</ele>
        <time>2025-02-20T10:50:25Z</time>
      </trkpt>
      <trkpt lat="45.62046" lon="6.54722">
        <ele>1955.8</ele>
        <time>2025-02-20T10:50:26Z</time>
      </trkpt>
      <trkpt lat="45.62045" lon="6.54721">
        <ele>1955.8</ele>
        <time>2025-02-20T10:50:27Z</time>
      </trkpt>
      <trkpt lat="45.62045" lon="6.5472">
        <ele>1955.6</ele>
        <time>2025-02-20T10:50:28Z</time>
      </trkpt>
      <trkpt lat="45.62045" lon="6.54719">
        <ele>1956</ele>
        <time>2025-02-20T10:50:29Z</time>
      </trkpt>
      <trkpt lat="45.62045" lon="6.54719">
        <ele>1956</ele>
        <time>2025-02-20T10:50:30Z</time>
      </trkpt>
      <trkpt lat="45.62044" lon="6.54718">
        <ele>1956</ele>
        <time>2025-02-20T10:50:31Z</time>
      </trkpt>
      <trkpt lat="45.62044" lon="6.54717">
        <ele>1955.4</ele>
        <time>2025-02-20T10:50:32Z</time>
      </trkpt>
      <trkpt lat="45.62044" lon="6.54716">
        <ele>1956.2</ele>
        <time>2025-02-20T10:50:33Z</time>
      </trkpt>
      <trkpt lat="45.62044" lon="6.54715">
        <ele>1956.2</ele>
        <time>2025-02-20T10:50:34Z</time>
      </trkpt>
      <trkpt lat="45.62044" lon="6.54714">
        <ele>1956.2</ele>
        <time>2025-02-20T10:50:35Z</time>
      </trkpt>
      <trkpt lat="45.62044" lon="6.54714">
        <ele>1955.2</ele>
        <time>2025-02-20T10:50:36Z</time>
      </trkpt>
      <trkpt lat="45.62044" lon="6.54713">
        <ele>1955</ele>
        <time>2025-02-20T10:50:37Z</time>
      </trkpt>
      <trkpt lat="45.62044" lon="6.54712">
        <ele>1955</ele>
        <time>2025-02-20T10:50:38Z</time>
      </trkpt>
      <trkpt lat="45.62044" lon="6.54711">
        <ele>1955</ele>
        <time>2025-02-20T10:50:39Z</time>
      </trkpt>
      <trkpt lat="45.62044" lon="6.54711">
        <ele>1956</ele>
        <time>2025-02-20T10:50:40Z</time>
      </trkpt>
      <trkpt lat="45.62044" lon="6.5471">
        <ele>1955.8</ele>
        <time>2025-02-20T10:50:41Z</time>
      </trkpt>
      <trkpt lat="45.62044" lon="6.5471">
        <ele>1955.8</ele>
        <time>2025-02-20T10:50:42Z</time>
      </trkpt>
      <trkpt lat="45.62044" lon="6.54709">
        <ele>1955.8</ele>
        <time>2025-02-20T10:50:43Z</time>
      </trkpt>
      <trkpt lat="45.62044" lon="6.54709">
        <ele>1956.8</ele>
        <time>2025-02-20T10:50:44Z</time>
      </trkpt>
      <trkpt lat="45.62045" lon="6.54708">
        <ele>1956</ele>
        <time>2025-02-20T10:50:45Z</time>
      </trkpt>
      <trkpt lat="45.62045" lon="6.54707">
        <ele>1956</ele>
        <time>2025-02-20T10:50:46Z</time>
      </trkpt>
      <trkpt lat="45.62045" lon="6.54707">
        <ele>1956</ele>
        <time>2025-02-20T10:50:47Z</time>
      </trkpt>
      <trkpt lat="45.62045" lon="6.54706">
        <ele>1957</ele>
        <time>2025-02-20T10:50:48Z</time>
      </trkpt>
      <trkpt lat="45.62045" lon="6.54705">
        <ele>1958.2</ele>
        <time>2025-02-20T10:50:49Z</time>
      </trkpt>
      <trkpt lat="45.62045" lon="6.54704">
        <ele>1958.2</ele>
        <time>2025-02-20T10:50:50Z</time>
      </trkpt>
      <trkpt lat="45.62045" lon="6.54704">
        <ele>1958.2</ele>
        <time>2025-02-20T10:50:51Z</time>
      </trkpt>
      <trkpt lat="45.62046" lon="6.54703">
        <ele>1958.2</ele>
        <time>2025-02-20T10:50:52Z</time>
      </trkpt>
      <trkpt lat="45.62046" lon="6.54702">
        <ele>1958.4</ele>
        <time>2025-02-20T10:50:53Z</time>
      </trkpt>
      <trkpt lat="45.62046" lon="6.54701">
        <ele>1958.4</ele>
        <time>2025-02-20T10:50:54Z</time>
      </trkpt>
      <trkpt lat="45.62046" lon="6.54701">
        <ele>1958.4</ele>
        <time>2025-02-20T10:50:55Z</time>
      </trkpt>
      <trkpt lat="45.62045" lon="6.547">
        <ele>1959</ele>
        <time>2025-02-20T10:50:56Z</time>
      </trkpt>
      <trkpt lat="45.62045" lon="6.54699">
        <ele>1958.4</ele>
        <time>2025-02-20T10:50:57Z</time>
      </trkpt>
      <trkpt lat="45.62045" lon="6.54698">
        <ele>1958.4</ele>
        <time>2025-02-20T10:50:58Z</time>
      </trkpt>
      <trkpt lat="45.62045" lon="6.54698">
        <ele>1958.4</ele>
        <time>2025-02-20T10:50:59Z</time>
      </trkpt>
      <trkpt lat="45.62044" lon="6.54698">
        <ele>1958.4</ele>
        <time>2025-02-20T10:51:00Z</time>
      </trkpt>
      <trkpt lat="45.62044" lon="6.54697">
        <ele>1957.4</ele>
        <time>2025-02-20T10:51:01Z</time>
      </trkpt>
      <trkpt lat="45.62043" lon="6.54696">
        <ele>1957.4</ele>
        <time>2025-02-20T10:51:02Z</time>
      </trkpt>
      <trkpt lat="45.62043" lon="6.54696">
        <ele>1957.4</ele>
        <time>2025-02-20T10:51:03Z</time>
      </trkpt>
      <trkpt lat="45.62043" lon="6.54695">
        <ele>1958</ele>
        <time>2025-02-20T10:51:04Z</time>
      </trkpt>
      <trkpt lat="45.62043" lon="6.54694">
        <ele>1958.8</ele>
        <time>2025-02-20T10:51:05Z</time>
      </trkpt>
      <trkpt lat="45.62043" lon="6.54693">
        <ele>1958.8</ele>
        <time>2025-02-20T10:51:06Z</time>
      </trkpt>
      <trkpt lat="45.62043" lon="6.54692">
        <ele>1958.8</ele>
        <time>2025-02-20T10:51:07Z</time>
      </trkpt>
      <trkpt lat="45.62042" lon="6.54691">
        <ele>1959.8</ele>
        <time>2025-02-20T10:51:08Z</time>
      </trkpt>
      <trkpt lat="45.62042" lon="6.5469">
        <ele>1960.4</ele>
        <time>2025-02-20T10:51:09Z</time>
      </trkpt>
      <trkpt lat="45.62042" lon="6.54689">
        <ele>1960.4</ele>
        <time>2025-02-20T10:51:10Z</time>
      </trkpt>
      <trkpt lat="45.62042" lon="6.54688">
        <ele>1960.4</ele>
        <time>2025-02-20T10:51:11Z</time>
      </trkpt>
      <trkpt lat="45.62042" lon="6.54687">
        <ele>1959.4</ele>
        <time>2025-02-20T10:51:12Z</time>
      </trkpt>
      <trkpt lat="45.62042" lon="6.54686">
        <ele>1959.2</ele>
        <time>2025-02-20T10:51:13Z</time>
      </trkpt>
      <trkpt lat="45.62042" lon="6.54685">
        <ele>1959.2</ele>
        <time>2025-02-20T10:51:14Z</time>
      </trkpt>
      <trkpt lat="45.62042" lon="6.54685">
        <ele>1959.2</ele>
        <time>2025-02-20T10:51:15Z</time>
      </trkpt>
      <trkpt lat="45.62042" lon="6.54684">
        <ele>1960.2</ele>
        <time>2025-02-20T10:51:16Z</time>
      </trkpt>
      <trkpt lat="45.62042" lon="6.54683">
        <ele>1961</ele>
        <time>2025-02-20T10:51:17Z</time>
      </trkpt>
      <trkpt lat="45.62041" lon="6.54682">
        <ele>1961</ele>
        <time>2025-02-20T10:51:18Z</time>
      </trkpt>
      <trkpt lat="45.62041" lon="6.54681">
        <ele>1961</ele>
        <time>2025-02-20T10:51:19Z</time>
      </trkpt>
      <trkpt lat="45.62041" lon="6.5468">
        <ele>1961</ele>
        <time>2025-02-20T10:51:20Z</time>
      </trkpt>
      <trkpt lat="45.62041" lon="6.5468">
        <ele>1960.6</ele>
        <time>2025-02-20T10:51:21Z</time>
      </trkpt>
      <trkpt lat="45.62041" lon="6.54678">
        <ele>1960.6</ele>
        <time>2025-02-20T10:51:22Z</time>
      </trkpt>
      <trkpt lat="45.62041" lon="6.54677">
        <ele>1960.6</ele>
        <time>2025-02-20T10:51:23Z</time>
      </trkpt>
      <trkpt lat="45.6204" lon="6.54676">
        <ele>1960.6</ele>
        <time>2025-02-20T10:51:24Z</time>
      </trkpt>
      <trkpt lat="45.6204" lon="6.54675">
        <ele>1960.2</ele>
        <time>2025-02-20T10:51:25Z</time>
      </trkpt>
      <trkpt lat="45.6204" lon="6.54674">
        <ele>1960.2</ele>
        <time>2025-02-20T10:51:26Z</time>
      </trkpt>
      <trkpt lat="45.6204" lon="6.54673">
        <ele>1960.2</ele>
        <time>2025-02-20T10:51:27Z</time>
      </trkpt>
      <trkpt lat="45.6204" lon="6.54672">
        <ele>1961.2</ele>
        <time>2025-02-20T10:51:28Z</time>
      </trkpt>
      <trkpt lat="45.6204" lon="6.54672">
        <ele>1960.6</ele>
        <time>2025-02-20T10:51:29Z</time>
      </trkpt>
      <trkpt lat="45.6204" lon="6.5467">
        <ele>1960.6</ele>
        <time>2025-02-20T10:51:30Z</time>
      </trkpt>
      <trkpt lat="45.62039" lon="6.5467">
        <ele>1960.6</ele>
        <time>2025-02-20T10:51:31Z</time>
      </trkpt>
      <trkpt lat="45.62039" lon="6.54669">
        <ele>1960.6</ele>
        <time>2025-02-20T10:51:32Z</time>
      </trkpt>
      <trkpt lat="45.62039" lon="6.54668">
        <ele>1961.8</ele>
        <time>2025-02-20T10:51:33Z</time>
      </trkpt>
      <trkpt lat="45.62039" lon="6.54667">
        <ele>1961.8</ele>
        <time>2025-02-20T10:51:34Z</time>
      </trkpt>
      <trkpt lat="45.62039" lon="6.54665">
        <ele>1961.8</ele>
        <time>2025-02-20T10:51:35Z</time>
      </trkpt>
      <trkpt lat="45.62038" lon="6.54664">
        <ele>1961.8</ele>
        <time>2025-02-20T10:51:36Z</time>
      </trkpt>
      <trkpt lat="45.62038" lon="6.54663">
        <ele>1962.2</ele>
        <time>2025-02-20T10:51:37Z</time>
      </trkpt>
      <trkpt lat="45.62038" lon="6.54662">
        <ele>1962.2</ele>
        <time>2025-02-20T10:51:38Z</time>
      </trkpt>
      <trkpt lat="45.62038" lon="6.54661">
        <ele>1962.2</ele>
        <time>2025-02-20T10:51:39Z</time>
      </trkpt>
      <trkpt lat="45.62038" lon="6.54659">
        <ele>1962.2</ele>
        <time>2025-02-20T10:51:40Z</time>
      </trkpt>
      <trkpt lat="45.62038" lon="6.54658">
        <ele>1962.8</ele>
        <time>2025-02-20T10:51:41Z</time>
      </trkpt>
      <trkpt lat="45.62037" lon="6.54657">
        <ele>1962.8</ele>
        <time>2025-02-20T10:51:42Z</time>
      </trkpt>
      <trkpt lat="45.62037" lon="6.54656">
        <ele>1962.8</ele>
        <time>2025-02-20T10:51:43Z</time>
      </trkpt>
      <trkpt lat="45.62037" lon="6.54655">
        <ele>1962.8</ele>
        <time>2025-02-20T10:51:44Z</time>
      </trkpt>
      <trkpt lat="45.62037" lon="6.54653">
        <ele>1961.4</ele>
        <time>2025-02-20T10:51:45Z</time>
      </trkpt>
      <trkpt lat="45.62036" lon="6.54652">
        <ele>1961.4</ele>
        <time>2025-02-20T10:51:46Z</time>
      </trkpt>
      <trkpt lat="45.62036" lon="6.54651">
        <ele>1961.4</ele>
        <time>2025-02-20T10:51:47Z</time>
      </trkpt>
      <trkpt lat="45.62036" lon="6.54649">
        <ele>1961.4</ele>
        <time>2025-02-20T10:51:48Z</time>
      </trkpt>
      <trkpt lat="45.62036" lon="6.54648">
        <ele>1962</ele>
        <time>2025-02-20T10:51:49Z</time>
      </trkpt>
      <trkpt lat="45.62036" lon="6.54647">
        <ele>1962</ele>
        <time>2025-02-20T10:51:50Z</time>
      </trkpt>
      <trkpt lat="45.62035" lon="6.54645">
        <ele>1962</ele>
        <time>2025-02-20T10:51:51Z</time>
      </trkpt>
      <trkpt lat="45.62036" lon="6.54644">
        <ele>1962</ele>
        <time>2025-02-20T10:51:52Z</time>
      </trkpt>
      <trkpt lat="45.62035" lon="6.54643">
        <ele>1961.4</ele>
        <time>2025-02-20T10:51:53Z</time>
      </trkpt>
      <trkpt lat="45.62035" lon="6.54642">
        <ele>1961.4</ele>
        <time>2025-02-20T10:51:54Z</time>
      </trkpt>
      <trkpt lat="45.62035" lon="6.54641">
        <ele>1961.4</ele>
        <time>2025-02-20T10:51:55Z</time>
      </trkpt>
      <trkpt lat="45.62035" lon="6.54639">
        <ele>1962.4</ele>
        <time>2025-02-20T10:51:56Z</time>
      </trkpt>
      <trkpt lat="45.62035" lon="6.54638">
        <ele>1962</ele>
        <time>2025-02-20T10:51:57Z</time>
      </trkpt>
      <trkpt lat="45.62035" lon="6.54637">
        <ele>1962</ele>
        <time>2025-02-20T10:51:58Z</time>
      </trkpt>
      <trkpt lat="45.62035" lon="6.54636">
        <ele>1962</ele>
        <time>2025-02-20T10:51:59Z</time>
      </trkpt>
      <trkpt lat="45.62034" lon="6.54635">
        <ele>1962</ele>
        <time>2025-02-20T10:52:00Z</time>
      </trkpt>
      <trkpt lat="45.62034" lon="6.54633">
        <ele>1961.8</ele>
        <time>2025-02-20T10:52:01Z</time>
      </trkpt>
      <trkpt lat="45.62034" lon="6.54632">
        <ele>1961.8</ele>
        <time>2025-02-20T10:52:02Z</time>
      </trkpt>
      <trkpt lat="45.62034" lon="6.54631">
        <ele>1961.8</ele>
        <time>2025-02-20T10:52:03Z</time>
      </trkpt>
      <trkpt lat="45.62033" lon="6.5463">
        <ele>1962</ele>
        <time>2025-02-20T10:52:04Z</time>
      </trkpt>
      <trkpt lat="45.62033" lon="6.54628">
        <ele>1963</ele>
        <time>2025-02-20T10:52:05Z</time>
      </trkpt>
      <trkpt lat="45.62033" lon="6.54627">
        <ele>1963</ele>
        <time>2025-02-20T10:52:06Z</time>
      </trkpt>
      <trkpt lat="45.62032" lon="6.54626">
        <ele>1963</ele>
        <time>2025-02-20T10:52:07Z</time>
      </trkpt>
      <trkpt lat="45.62032" lon="6.54625">
        <ele>1962.6</ele>
        <time>2025-02-20T10:52:08Z</time>
      </trkpt>
      <trkpt lat="45.62031" lon="6.54623">
        <ele>1961.4</ele>
        <time>2025-02-20T10:52:09Z</time>
      </trkpt>
      <trkpt lat="45.62031" lon="6.54621">
        <ele>1961.4</ele>
        <time>2025-02-20T10:52:10Z</time>
      </trkpt>
      <trkpt lat="45.6203" lon="6.5462">
        <ele>1961.4</ele>
        <time>2025-02-20T10:52:11Z</time>
      </trkpt>
      <trkpt lat="45.6203" lon="6.54619">
        <ele>1962.4</ele>
        <time>2025-02-20T10:52:12Z</time>
      </trkpt>
      <trkpt lat="45.6203" lon="6.54618">
        <ele>1962.2</ele>
        <time>2025-02-20T10:52:13Z</time>
      </trkpt>
      <trkpt lat="45.6203" lon="6.54616">
        <ele>1962.2</ele>
        <time>2025-02-20T10:52:14Z</time>
      </trkpt>
      <trkpt lat="45.62029" lon="6.54615">
        <ele>1962.2</ele>
        <time>2025-02-20T10:52:15Z</time>
      </trkpt>
      <trkpt lat="45.62029" lon="6.54614">
        <ele>1962.2</ele>
        <time>2025-02-20T10:52:16Z</time>
      </trkpt>
      <trkpt lat="45.62029" lon="6.54613">
        <ele>1962.4</ele>
        <time>2025-02-20T10:52:17Z</time>
      </trkpt>
      <trkpt lat="45.62029" lon="6.54613">
        <ele>1962.4</ele>
        <time>2025-02-20T10:52:18Z</time>
      </trkpt>
      <trkpt lat="45.62029" lon="6.54613">
        <ele>1962.4</ele>
        <time>2025-02-20T10:52:19Z</time>
      </trkpt>
      <trkpt lat="45.62029" lon="6.54613">
        <ele>1962.2</ele>
        <time>2025-02-20T10:52:20Z</time>
      </trkpt>
      <trkpt lat="45.62029" lon="6.54613">
        <ele>1962</ele>
        <time>2025-02-20T10:52:21Z</time>
      </trkpt>
      <trkpt lat="45.62029" lon="6.54613">
        <ele>1962</ele>
        <time>2025-02-20T10:52:22Z</time>
      </trkpt>
      <trkpt lat="45.62029" lon="6.54613">
        <ele>1962</ele>
        <time>2025-02-20T10:52:23Z</time>
      </trkpt>
      <trkpt lat="45.62029" lon="6.54613">
        <ele>1961.8</ele>
        <time>2025-02-20T10:52:24Z</time>
      </trkpt>
      <trkpt lat="45.62029" lon="6.54613">
        <ele>1962.2</ele>
        <time>2025-02-20T10:52:25Z</time>
      </trkpt>
      <trkpt lat="45.62029" lon="6.54613">
        <ele>1962.2</ele>
        <time>2025-02-20T10:52:26Z</time>
      </trkpt>
      <trkpt lat="45.62028" lon="6.54612">
        <ele>1962.2</ele>
        <time>2025-02-20T10:52:27Z</time>
      </trkpt>
      <trkpt lat="45.62028" lon="6.54611">
        <ele>1962.2</ele>
        <time>2025-02-20T10:52:28Z</time>
      </trkpt>
      <trkpt lat="45.62028" lon="6.54609">
        <ele>1962.8</ele>
        <time>2025-02-20T10:52:29Z</time>
      </trkpt>
      <trkpt lat="45.62027" lon="6.54608">
        <ele>1962.8</ele>
        <time>2025-02-20T10:52:30Z</time>
      </trkpt>
      <trkpt lat="45.62027" lon="6.54607">
        <ele>1962.8</ele>
        <time>2025-02-20T10:52:31Z</time>
      </trkpt>
      <trkpt lat="45.62026" lon="6.54606">
        <ele>1962.8</ele>
        <time>2025-02-20T10:52:32Z</time>
      </trkpt>
      <trkpt lat="45.62026" lon="6.54605">
        <ele>1963</ele>
        <time>2025-02-20T10:52:33Z</time>
      </trkpt>
      <trkpt lat="45.62026" lon="6.54603">
        <ele>1963</ele>
        <time>2025-02-20T10:52:34Z</time>
      </trkpt>
      <trkpt lat="45.62026" lon="6.54602">
        <ele>1963</ele>
        <time>2025-02-20T10:52:35Z</time>
      </trkpt>
      <trkpt lat="45.62026" lon="6.54601">
        <ele>1962.8</ele>
        <time>2025-02-20T10:52:36Z</time>
      </trkpt>
      <trkpt lat="45.62025" lon="6.54599">
        <ele>1963.4</ele>
        <time>2025-02-20T10:52:37Z</time>
      </trkpt>
      <trkpt lat="45.62025" lon="6.54598">
        <ele>1963.4</ele>
        <time>2025-02-20T10:52:38Z</time>
      </trkpt>
      <trkpt lat="45.62025" lon="6.54598">
        <ele>1963.4</ele>
        <time>2025-02-20T10:52:39Z</time>
      </trkpt>
      <trkpt lat="45.62024" lon="6.54596">
        <ele>1963.4</ele>
        <time>2025-02-20T10:52:40Z</time>
      </trkpt>
      <trkpt lat="45.62024" lon="6.54595">
        <ele>1962</ele>
        <time>2025-02-20T10:52:41Z</time>
      </trkpt>
      <trkpt lat="45.62024" lon="6.54594">
        <ele>1962</ele>
        <time>2025-02-20T10:52:42Z</time>
      </trkpt>
      <trkpt lat="45.62024" lon="6.54593">
        <ele>1962</ele>
        <time>2025-02-20T10:52:43Z</time>
      </trkpt>
      <trkpt lat="45.62024" lon="6.54593">
        <ele>1962.6</ele>
        <time>2025-02-20T10:52:44Z</time>
      </trkpt>
      <trkpt lat="45.62024" lon="6.54591">
        <ele>1962.4</ele>
        <time>2025-02-20T10:52:45Z</time>
      </trkpt>
      <trkpt lat="45.62025" lon="6.5459">
        <ele>1962.4</ele>
        <time>2025-02-20T10:52:46Z</time>
      </trkpt>
      <trkpt lat="45.62025" lon="6.54589">
        <ele>1962.4</ele>
        <time>2025-02-20T10:52:47Z</time>
      </trkpt>
      <trkpt lat="45.62026" lon="6.54588">
        <ele>1963.4</ele>
        <time>2025-02-20T10:52:48Z</time>
      </trkpt>
      <trkpt lat="45.62026" lon="6.54588">
        <ele>1962.4</ele>
        <time>2025-02-20T10:52:49Z</time>
      </trkpt>
      <trkpt lat="45.62027" lon="6.54587">
        <ele>1962.4</ele>
        <time>2025-02-20T10:52:50Z</time>
      </trkpt>
      <trkpt lat="45.62027" lon="6.54586">
        <ele>1962.4</ele>
        <time>2025-02-20T10:52:51Z</time>
      </trkpt>
      <trkpt lat="45.62027" lon="6.54585">
        <ele>1963.4</ele>
        <time>2025-02-20T10:52:52Z</time>
      </trkpt>
      <trkpt lat="45.62028" lon="6.54584">
        <ele>1964.8</ele>
        <time>2025-02-20T10:52:53Z</time>
      </trkpt>
      <trkpt lat="45.62028" lon="6.54583">
        <ele>1964.8</ele>
        <time>2025-02-20T10:52:54Z</time>
      </trkpt>
      <trkpt lat="45.62028" lon="6.54582">
        <ele>1964.8</ele>
        <time>2025-02-20T10:52:55Z</time>
      </trkpt>
      <trkpt lat="45.62028" lon="6.54581">
        <ele>1963.8</ele>
        <time>2025-02-20T10:52:56Z</time>
      </trkpt>
      <trkpt lat="45.62029" lon="6.5458">
        <ele>1964.4</ele>
        <time>2025-02-20T10:52:57Z</time>
      </trkpt>
      <trkpt lat="45.62029" lon="6.5458">
        <ele>1964.4</ele>
        <time>2025-02-20T10:52:58Z</time>
      </trkpt>
      <trkpt lat="45.62029" lon="6.54579">
        <ele>1964.4</ele>
        <time>2025-02-20T10:52:59Z</time>
      </trkpt>
      <trkpt lat="45.6203" lon="6.54578">
        <ele>1965.4</ele>
        <time>2025-02-20T10:53:00Z</time>
      </trkpt>
      <trkpt lat="45.6203" lon="6.54577">
        <ele>1965.4</ele>
        <time>2025-02-20T10:53:01Z</time>
      </trkpt>
      <trkpt lat="45.6203" lon="6.54576">
        <ele>1965.4</ele>
        <time>2025-02-20T10:53:02Z</time>
      </trkpt>
      <trkpt lat="45.62031" lon="6.54576">
        <ele>1965.4</ele>
        <time>2025-02-20T10:53:03Z</time>
      </trkpt>
      <trkpt lat="45.62031" lon="6.54576">
        <ele>1965.4</ele>
        <time>2025-02-20T10:53:04Z</time>
      </trkpt>
      <trkpt lat="45.62031" lon="6.54575">
        <ele>1964.8</ele>
        <time>2025-02-20T10:53:05Z</time>
      </trkpt>
      <trkpt lat="45.62032" lon="6.54574">
        <ele>1964.8</ele>
        <time>2025-02-20T10:53:06Z</time>
      </trkpt>
      <trkpt lat="45.62032" lon="6.54574">
        <ele>1964.8</ele>
        <time>2025-02-20T10:53:07Z</time>
      </trkpt>
      <trkpt lat="45.62032" lon="6.54572">
        <ele>1964.8</ele>
        <time>2025-02-20T10:53:08Z</time>
      </trkpt>
      <trkpt lat="45.62031" lon="6.54572">
        <ele>1966</ele>
        <time>2025-02-20T10:53:09Z</time>
      </trkpt>
      <trkpt lat="45.62031" lon="6.54571">
        <ele>1966</ele>
        <time>2025-02-20T10:53:10Z</time>
      </trkpt>
      <trkpt lat="45.62031" lon="6.5457">
        <ele>1966</ele>
        <time>2025-02-20T10:53:11Z</time>
      </trkpt>
      <trkpt lat="45.6203" lon="6.5457">
        <ele>1965</ele>
        <time>2025-02-20T10:53:12Z</time>
      </trkpt>
      <trkpt lat="45.6203" lon="6.54569">
        <ele>1966.4</ele>
        <time>2025-02-20T10:53:13Z</time>
      </trkpt>
      <trkpt lat="45.6203" lon="6.54568">
        <ele>1966.4</ele>
        <time>2025-02-20T10:53:14Z</time>
      </trkpt>
      <trkpt lat="45.62029" lon="6.54568">
        <ele>1966.4</ele>
        <time>2025-02-20T10:53:15Z</time>
      </trkpt>
      <trkpt lat="45.62029" lon="6.54567">
        <ele>1966.4</ele>
        <time>2025-02-20T10:53:16Z</time>
      </trkpt>
      <trkpt lat="45.62029" lon="6.54567">
        <ele>1965.8</ele>
        <time>2025-02-20T10:53:17Z</time>
      </trkpt>
      <trkpt lat="45.62029" lon="6.54566">
        <ele>1965.8</ele>
        <time>2025-02-20T10:53:18Z</time>
      </trkpt>
      <trkpt lat="45.62029" lon="6.54565">
        <ele>1965.8</ele>
        <time>2025-02-20T10:53:19Z</time>
      </trkpt>
      <trkpt lat="45.62028" lon="6.54564">
        <ele>1966.8</ele>
        <time>2025-02-20T10:53:20Z</time>
      </trkpt>
      <trkpt lat="45.62028" lon="6.54564">
        <ele>1967.8</ele>
        <time>2025-02-20T10:53:21Z</time>
      </trkpt>
      <trkpt lat="45.62028" lon="6.54563">
        <ele>1967.8</ele>
        <time>2025-02-20T10:53:22Z</time>
      </trkpt>
      <trkpt lat="45.62028" lon="6.54562">
        <ele>1967.8</ele>
        <time>2025-02-20T10:53:23Z</time>
      </trkpt>
      <trkpt lat="45.62028" lon="6.54561">
        <ele>1967.8</ele>
        <time>2025-02-20T10:53:24Z</time>
      </trkpt>
      <trkpt lat="45.62028" lon="6.54561">
        <ele>1967.2</ele>
        <time>2025-02-20T10:53:25Z</time>
      </trkpt>
      <trkpt lat="45.62029" lon="6.54559">
        <ele>1967.2</ele>
        <time>2025-02-20T10:53:26Z</time>
      </trkpt>
      <trkpt lat="45.62029" lon="6.54559">
        <ele>1967.2</ele>
        <time>2025-02-20T10:53:27Z</time>
      </trkpt>
      <trkpt lat="45.62029" lon="6.54558">
        <ele>1967.8</ele>
        <time>2025-02-20T10:53:28Z</time>
      </trkpt>
      <trkpt lat="45.62029" lon="6.54557">
        <ele>1969</ele>
        <time>2025-02-20T10:53:29Z</time>
      </trkpt>
      <trkpt lat="45.6203" lon="6.54556">
        <ele>1969</ele>
        <time>2025-02-20T10:53:30Z</time>
      </trkpt>
      <trkpt lat="45.6203" lon="6.54556">
        <ele>1969</ele>
        <time>2025-02-20T10:53:31Z</time>
      </trkpt>
      <trkpt lat="45.62031" lon="6.54555">
        <ele>1968.2</ele>
        <time>2025-02-20T10:53:32Z</time>
      </trkpt>
      <trkpt lat="45.62031" lon="6.54554">
        <ele>1968.6</ele>
        <time>2025-02-20T10:53:33Z</time>
      </trkpt>
      <trkpt lat="45.62031" lon="6.54553">
        <ele>1968.6</ele>
        <time>2025-02-20T10:53:34Z</time>
      </trkpt>
      <trkpt lat="45.62031" lon="6.54552">
        <ele>1968.6</ele>
        <time>2025-02-20T10:53:35Z</time>
      </trkpt>
      <trkpt lat="45.62031" lon="6.54551">
        <ele>1968.6</ele>
        <time>2025-02-20T10:53:36Z</time>
      </trkpt>
      <trkpt lat="45.62031" lon="6.5455">
        <ele>1969.2</ele>
        <time>2025-02-20T10:53:37Z</time>
      </trkpt>
      <trkpt lat="45.62032" lon="6.54549">
        <ele>1969.2</ele>
        <time>2025-02-20T10:53:38Z</time>
      </trkpt>
      <trkpt lat="45.62032" lon="6.54548">
        <ele>1969.2</ele>
        <time>2025-02-20T10:53:39Z</time>
      </trkpt>
      <trkpt lat="45.62032" lon="6.54547">
        <ele>1969.4</ele>
        <time>2025-02-20T10:53:40Z</time>
      </trkpt>
      <trkpt lat="45.62032" lon="6.54546">
        <ele>1969.6</ele>
        <time>2025-02-20T10:53:41Z</time>
      </trkpt>
      <trkpt lat="45.62032" lon="6.54545">
        <ele>1969.6</ele>
        <time>2025-02-20T10:53:42Z</time>
      </trkpt>
      <trkpt lat="45.62032" lon="6.54545">
        <ele>1969.6</ele>
        <time>2025-02-20T10:53:43Z</time>
      </trkpt>
      <trkpt lat="45.62032" lon="6.54544">
        <ele>1969.6</ele>
        <time>2025-02-20T10:53:44Z</time>
      </trkpt>
      <trkpt lat="45.62032" lon="6.54543">
        <ele>1970.8</ele>
        <time>2025-02-20T10:53:45Z</time>
      </trkpt>
      <trkpt lat="45.62033" lon="6.54542">
        <ele>1970.8</ele>
        <time>2025-02-20T10:53:46Z</time>
      </trkpt>
      <trkpt lat="45.62033" lon="6.54541">
        <ele>1970.8</ele>
        <time>2025-02-20T10:53:47Z</time>
      </trkpt>
      <trkpt lat="45.62033" lon="6.54541">
        <ele>1970.6</ele>
        <time>2025-02-20T10:53:48Z</time>
      </trkpt>
      <trkpt lat="45.62033" lon="6.5454">
        <ele>1971.2</ele>
        <time>2025-02-20T10:53:49Z</time>
      </trkpt>
      <trkpt lat="45.62033" lon="6.54539">
        <ele>1971.2</ele>
        <time>2025-02-20T10:53:50Z</time>
      </trkpt>
      <trkpt lat="45.62033" lon="6.54538">
        <ele>1971.2</ele>
        <time>2025-02-20T10:53:51Z</time>
      </trkpt>
      <trkpt lat="45.62033" lon="6.54537">
        <ele>1971.2</ele>
        <time>2025-02-20T10:53:52Z</time>
      </trkpt>
      <trkpt lat="45.62033" lon="6.54537">
        <ele>1971.4</ele>
        <time>2025-02-20T10:53:53Z</time>
      </trkpt>
      <trkpt lat="45.62033" lon="6.54536">
        <ele>1971.4</ele>
        <time>2025-02-20T10:53:54Z</time>
      </trkpt>
      <trkpt lat="45.62033" lon="6.54535">
        <ele>1971.4</ele>
        <time>2025-02-20T10:53:55Z</time>
      </trkpt>
      <trkpt lat="45.62032" lon="6.54535">
        <ele>1972.4</ele>
        <time>2025-02-20T10:53:56Z</time>
      </trkpt>
      <trkpt lat="45.62032" lon="6.54534">
        <ele>1971.6</ele>
        <time>2025-02-20T10:53:57Z</time>
      </trkpt>
      <trkpt lat="45.62032" lon="6.54533">
        <ele>1971.6</ele>
        <time>2025-02-20T10:53:58Z</time>
      </trkpt>
      <trkpt lat="45.62031" lon="6.54533">
        <ele>1971.6</ele>
        <time>2025-02-20T10:53:59Z</time>
      </trkpt>
      <trkpt lat="45.62031" lon="6.54532">
        <ele>1971.6</ele>
        <time>2025-02-20T10:54:00Z</time>
      </trkpt>
      <trkpt lat="45.62031" lon="6.54532">
        <ele>1971.8</ele>
        <time>2025-02-20T10:54:01Z</time>
      </trkpt>
      <trkpt lat="45.62031" lon="6.54532">
        <ele>1971.8</ele>
        <time>2025-02-20T10:54:02Z</time>
      </trkpt>
      <trkpt lat="45.6203" lon="6.54531">
        <ele>1971.8</ele>
        <time>2025-02-20T10:54:03Z</time>
      </trkpt>
      <trkpt lat="45.6203" lon="6.5453">
        <ele>1971.8</ele>
        <time>2025-02-20T10:54:04Z</time>
      </trkpt>
      <trkpt lat="45.62029" lon="6.54529">
        <ele>1972.2</ele>
        <time>2025-02-20T10:54:05Z</time>
      </trkpt>
      <trkpt lat="45.62029" lon="6.54529">
        <ele>1972.2</ele>
        <time>2025-02-20T10:54:06Z</time>
      </trkpt>
      <trkpt lat="45.62028" lon="6.54528">
        <ele>1972.2</ele>
        <time>2025-02-20T10:54:07Z</time>
      </trkpt>
      <trkpt lat="45.62028" lon="6.54528">
        <ele>1972.2</ele>
        <time>2025-02-20T10:54:08Z</time>
      </trkpt>
      <trkpt lat="45.62028" lon="6.54527">
        <ele>1973</ele>
        <time>2025-02-20T10:54:09Z</time>
      </trkpt>
      <trkpt lat="45.62028" lon="6.54527">
        <ele>1973</ele>
        <time>2025-02-20T10:54:10Z</time>
      </trkpt>
      <trkpt lat="45.62027" lon="6.54526">
        <ele>1973</ele>
        <time>2025-02-20T10:54:11Z</time>
      </trkpt>
      <trkpt lat="45.62027" lon="6.54526">
        <ele>1973</ele>
        <time>2025-02-20T10:54:12Z</time>
      </trkpt>
      <trkpt lat="45.62026" lon="6.54525">
        <ele>1974.2</ele>
        <time>2025-02-20T10:54:13Z</time>
      </trkpt>
      <trkpt lat="45.62026" lon="6.54524">
        <ele>1974.2</ele>
        <time>2025-02-20T10:54:14Z</time>
      </trkpt>
      <trkpt lat="45.62025" lon="6.54524">
        <ele>1974.2</ele>
        <time>2025-02-20T10:54:15Z</time>
      </trkpt>
      <trkpt lat="45.62025" lon="6.54524">
        <ele>1974.2</ele>
        <time>2025-02-20T10:54:16Z</time>
      </trkpt>
      <trkpt lat="45.62025" lon="6.54524">
        <ele>1972.8</ele>
        <time>2025-02-20T10:54:17Z</time>
      </trkpt>
      <trkpt lat="45.62024" lon="6.54523">
        <ele>1972.8</ele>
        <time>2025-02-20T10:54:18Z</time>
      </trkpt>
      <trkpt lat="45.62024" lon="6.54523">
        <ele>1972.8</ele>
        <time>2025-02-20T10:54:19Z</time>
      </trkpt>
      <trkpt lat="45.62023" lon="6.54523">
        <ele>1972.8</ele>
        <time>2025-02-20T10:54:20Z</time>
      </trkpt>
      <trkpt lat="45.62023" lon="6.54522">
        <ele>1972.8</ele>
        <time>2025-02-20T10:54:21Z</time>
      </trkpt>
      <trkpt lat="45.62022" lon="6.54522">
        <ele>1972.8</ele>
        <time>2025-02-20T10:54:22Z</time>
      </trkpt>
      <trkpt lat="45.62022" lon="6.54522">
        <ele>1972.8</ele>
        <time>2025-02-20T10:54:23Z</time>
      </trkpt>
      <trkpt lat="45.62021" lon="6.54522">
        <ele>1973.8</ele>
        <time>2025-02-20T10:54:24Z</time>
      </trkpt>
      <trkpt lat="45.62021" lon="6.54522">
        <ele>1974.2</ele>
        <time>2025-02-20T10:54:25Z</time>
      </trkpt>
      <trkpt lat="45.62021" lon="6.54522">
        <ele>1974.2</ele>
        <time>2025-02-20T10:54:26Z</time>
      </trkpt>
      <trkpt lat="45.62021" lon="6.54522">
        <ele>1974.2</ele>
        <time>2025-02-20T10:54:27Z</time>
      </trkpt>
      <trkpt lat="45.62021" lon="6.54522">
        <ele>1975.2</ele>
        <time>2025-02-20T10:54:28Z</time>
      </trkpt>
      <trkpt lat="45.62021" lon="6.54522">
        <ele>1974.8</ele>
        <time>2025-02-20T10:54:29Z</time>
      </trkpt>
      <trkpt lat="45.62021" lon="6.54522">
        <ele>1974.8</ele>
        <time>2025-02-20T10:54:30Z</time>
      </trkpt>
      <trkpt lat="45.6202" lon="6.54521">
        <ele>1974.8</ele>
        <time>2025-02-20T10:54:31Z</time>
      </trkpt>
      <trkpt lat="45.62019" lon="6.5452">
        <ele>1974.8</ele>
        <time>2025-02-20T10:54:32Z</time>
      </trkpt>
      <trkpt lat="45.62019" lon="6.5452">
        <ele>1974.6</ele>
        <time>2025-02-20T10:54:33Z</time>
      </trkpt>
      <trkpt lat="45.62019" lon="6.5452">
        <ele>1974.6</ele>
        <time>2025-02-20T10:54:34Z</time>
      </trkpt>
      <trkpt lat="45.62017" lon="6.5452">
        <ele>1974.6</ele>
        <time>2025-02-20T10:54:35Z</time>
      </trkpt>
      <trkpt lat="45.62017" lon="6.54519">
        <ele>1975.6</ele>
        <time>2025-02-20T10:54:36Z</time>
      </trkpt>
      <trkpt lat="45.62016" lon="6.54519">
        <ele>1976.2</ele>
        <time>2025-02-20T10:54:37Z</time>
      </trkpt>
      <trkpt lat="45.62015" lon="6.54519">
        <ele>1976.2</ele>
        <time>2025-02-20T10:54:38Z</time>
      </trkpt>
      <trkpt lat="45.62015" lon="6.54519">
        <ele>1976.2</ele>
        <time>2025-02-20T10:54:39Z</time>
      </trkpt>
      <trkpt lat="45.62014" lon="6.54519">
        <ele>1976.2</ele>
        <time>2025-02-20T10:54:40Z</time>
      </trkpt>
      <trkpt lat="45.62014" lon="6.54519">
        <ele>1976.2</ele>
        <time>2025-02-20T10:54:41Z</time>
      </trkpt>
      <trkpt lat="45.62013" lon="6.54518">
        <ele>1976.2</ele>
        <time>2025-02-20T10:54:42Z</time>
      </trkpt>
      <trkpt lat="45.62013" lon="6.54518">
        <ele>1976.2</ele>
        <time>2025-02-20T10:54:43Z</time>
      </trkpt>
      <trkpt lat="45.62012" lon="6.54518">
        <ele>1976.2</ele>
        <time>2025-02-20T10:54:44Z</time>
      </trkpt>
      <trkpt lat="45.62012" lon="6.54518">
        <ele>1976.8</ele>
        <time>2025-02-20T10:54:45Z</time>
      </trkpt>
      <trkpt lat="45.62012" lon="6.54518">
        <ele>1976.8</ele>
        <time>2025-02-20T10:54:46Z</time>
      </trkpt>
      <trkpt lat="45.62011" lon="6.54518">
        <ele>1976.8</ele>
        <time>2025-02-20T10:54:47Z</time>
      </trkpt>
      <trkpt lat="45.6201" lon="6.54518">
        <ele>1977.8</ele>
        <time>2025-02-20T10:54:48Z</time>
      </trkpt>
      <trkpt lat="45.6201" lon="6.54518">
        <ele>1977.4</ele>
        <time>2025-02-20T10:54:49Z</time>
      </trkpt>
      <trkpt lat="45.6201" lon="6.54517">
        <ele>1977.4</ele>
        <time>2025-02-20T10:54:50Z</time>
      </trkpt>
      <trkpt lat="45.6201" lon="6.54516">
        <ele>1977.4</ele>
        <time>2025-02-20T10:54:51Z</time>
      </trkpt>
      <trkpt lat="45.6201" lon="6.54516">
        <ele>1977.4</ele>
        <time>2025-02-20T10:54:52Z</time>
      </trkpt>
      <trkpt lat="45.6201" lon="6.54515">
        <ele>1978</ele>
        <time>2025-02-20T10:54:53Z</time>
      </trkpt>
      <trkpt lat="45.6201" lon="6.54514">
        <ele>1978</ele>
        <time>2025-02-20T10:54:54Z</time>
      </trkpt>
      <trkpt lat="45.6201" lon="6.54513">
        <ele>1978</ele>
        <time>2025-02-20T10:54:55Z</time>
      </trkpt>
      <trkpt lat="45.62011" lon="6.54513">
        <ele>1978</ele>
        <time>2025-02-20T10:54:56Z</time>
      </trkpt>
      <trkpt lat="45.62011" lon="6.54513">
        <ele>1979.6</ele>
        <time>2025-02-20T10:54:57Z</time>
      </trkpt>
      <trkpt lat="45.62011" lon="6.54512">
        <ele>1979.6</ele>
        <time>2025-02-20T10:54:58Z</time>
      </trkpt>
      <trkpt lat="45.62012" lon="6.54511">
        <ele>1979.6</ele>
        <time>2025-02-20T10:54:59Z</time>
      </trkpt>
      <trkpt lat="45.62012" lon="6.5451">
        <ele>1979.6</ele>
        <time>2025-02-20T10:55:00Z</time>
      </trkpt>
      <trkpt lat="45.62012" lon="6.5451">
        <ele>1979.6</ele>
        <time>2025-02-20T10:55:01Z</time>
      </trkpt>
      <trkpt lat="45.62012" lon="6.5451">
        <ele>1979.6</ele>
        <time>2025-02-20T10:55:02Z</time>
      </trkpt>
      <trkpt lat="45.62012" lon="6.54509">
        <ele>1979.6</ele>
        <time>2025-02-20T10:55:03Z</time>
      </trkpt>
      <trkpt lat="45.62013" lon="6.54509">
        <ele>1978.8</ele>
        <time>2025-02-20T10:55:04Z</time>
      </trkpt>
      <trkpt lat="45.62014" lon="6.54508">
        <ele>1978.8</ele>
        <time>2025-02-20T10:55:05Z</time>
      </trkpt>
      <trkpt lat="45.62014" lon="6.54508">
        <ele>1978.8</ele>
        <time>2025-02-20T10:55:06Z</time>
      </trkpt>
      <trkpt lat="45.62015" lon="6.54507">
        <ele>1978.8</ele>
        <time>2025-02-20T10:55:07Z</time>
      </trkpt>
      <trkpt lat="45.62015" lon="6.54507">
        <ele>1978.8</ele>
        <time>2025-02-20T10:55:08Z</time>
      </trkpt>
      <trkpt lat="45.62015" lon="6.54506">
        <ele>1979.6</ele>
        <time>2025-02-20T10:55:09Z</time>
      </trkpt>
      <trkpt lat="45.62015" lon="6.54506">
        <ele>1979.6</ele>
        <time>2025-02-20T10:55:10Z</time>
      </trkpt>
      <trkpt lat="45.62016" lon="6.54505">
        <ele>1979.6</ele>
        <time>2025-02-20T10:55:11Z</time>
      </trkpt>
      <trkpt lat="45.62017" lon="6.54505">
        <ele>1980.6</ele>
        <time>2025-02-20T10:55:12Z</time>
      </trkpt>
      <trkpt lat="45.62017" lon="6.54504">
        <ele>1980.2</ele>
        <time>2025-02-20T10:55:13Z</time>
      </trkpt>
      <trkpt lat="45.62018" lon="6.54504">
        <ele>1980.2</ele>
        <time>2025-02-20T10:55:14Z</time>
      </trkpt>
      <trkpt lat="45.62018" lon="6.54504">
        <ele>1980.2</ele>
        <time>2025-02-20T10:55:15Z</time>
      </trkpt>
      <trkpt lat="45.62019" lon="6.54503">
        <ele>1981</ele>
        <time>2025-02-20T10:55:16Z</time>
      </trkpt>
      <trkpt lat="45.62019" lon="6.54503">
        <ele>1980.6</ele>
        <time>2025-02-20T10:55:17Z</time>
      </trkpt>
      <trkpt lat="45.62019" lon="6.54503">
        <ele>1980.6</ele>
        <time>2025-02-20T10:55:18Z</time>
      </trkpt>
      <trkpt lat="45.6202" lon="6.54502">
        <ele>1980.6</ele>
        <time>2025-02-20T10:55:19Z</time>
      </trkpt>
      <trkpt lat="45.62021" lon="6.54502">
        <ele>1980.6</ele>
        <time>2025-02-20T10:55:20Z</time>
      </trkpt>
      <trkpt lat="45.62021" lon="6.54501">
        <ele>1980.4</ele>
        <time>2025-02-20T10:55:21Z</time>
      </trkpt>
      <trkpt lat="45.62022" lon="6.54501">
        <ele>1980.4</ele>
        <time>2025-02-20T10:55:22Z</time>
      </trkpt>
      <trkpt lat="45.62022" lon="6.545">
        <ele>1980.4</ele>
        <time>2025-02-20T10:55:23Z</time>
      </trkpt>
      <trkpt lat="45.62023" lon="6.545">
        <ele>1980.4</ele>
        <time>2025-02-20T10:55:24Z</time>
      </trkpt>
      <trkpt lat="45.62024" lon="6.54499">
        <ele>1980.6</ele>
        <time>2025-02-20T10:55:25Z</time>
      </trkpt>
      <trkpt lat="45.62024" lon="6.54499">
        <ele>1980.6</ele>
        <time>2025-02-20T10:55:26Z</time>
      </trkpt>
      <trkpt lat="45.62025" lon="6.54499">
        <ele>1980.6</ele>
        <time>2025-02-20T10:55:27Z</time>
      </trkpt>
      <trkpt lat="45.62026" lon="6.54498">
        <ele>1981.6</ele>
        <time>2025-02-20T10:55:28Z</time>
      </trkpt>
      <trkpt lat="45.62026" lon="6.54498">
        <ele>1981.2</ele>
        <time>2025-02-20T10:55:29Z</time>
      </trkpt>
      <trkpt lat="45.62026" lon="6.54498">
        <ele>1981.2</ele>
        <time>2025-02-20T10:55:30Z</time>
      </trkpt>
      <trkpt lat="45.62027" lon="6.54498">
        <ele>1981.2</ele>
        <time>2025-02-20T10:55:31Z</time>
      </trkpt>
      <trkpt lat="45.62028" lon="6.54498">
        <ele>1982.2</ele>
        <time>2025-02-20T10:55:32Z</time>
      </trkpt>
      <trkpt lat="45.62028" lon="6.54498">
        <ele>1983.2</ele>
        <time>2025-02-20T10:55:33Z</time>
      </trkpt>
      <trkpt lat="45.62029" lon="6.54497">
        <ele>1983.2</ele>
        <time>2025-02-20T10:55:34Z</time>
      </trkpt>
      <trkpt lat="45.62029" lon="6.54497">
        <ele>1983.2</ele>
        <time>2025-02-20T10:55:35Z</time>
      </trkpt>
      <trkpt lat="45.62029" lon="6.54497">
        <ele>1983.8</ele>
        <time>2025-02-20T10:55:36Z</time>
      </trkpt>
      <trkpt lat="45.62031" lon="6.54496">
        <ele>1983.8</ele>
        <time>2025-02-20T10:55:37Z</time>
      </trkpt>
      <trkpt lat="45.62031" lon="6.54496">
        <ele>1983.8</ele>
        <time>2025-02-20T10:55:38Z</time>
      </trkpt>
      <trkpt lat="45.62032" lon="6.54495">
        <ele>1983.8</ele>
        <time>2025-02-20T10:55:39Z</time>
      </trkpt>
      <trkpt lat="45.62032" lon="6.54495">
        <ele>1983.8</ele>
        <time>2025-02-20T10:55:40Z</time>
      </trkpt>
      <trkpt lat="45.62033" lon="6.54494">
        <ele>1982.4</ele>
        <time>2025-02-20T10:55:41Z</time>
      </trkpt>
      <trkpt lat="45.62033" lon="6.54494">
        <ele>1982.4</ele>
        <time>2025-02-20T10:55:42Z</time>
      </trkpt>
      <trkpt lat="45.62033" lon="6.54493">
        <ele>1982.4</ele>
        <time>2025-02-20T10:55:43Z</time>
      </trkpt>
      <trkpt lat="45.62033" lon="6.54493">
        <ele>1982.4</ele>
        <time>2025-02-20T10:55:44Z</time>
      </trkpt>
      <trkpt lat="45.62033" lon="6.54492">
        <ele>1984.6</ele>
        <time>2025-02-20T10:55:45Z</time>
      </trkpt>
      <trkpt lat="45.62033" lon="6.54492">
        <ele>1984.6</ele>
        <time>2025-02-20T10:55:46Z</time>
      </trkpt>
      <trkpt lat="45.62033" lon="6.54492">
        <ele>1984.6</ele>
        <time>2025-02-20T10:55:47Z</time>
      </trkpt>
      <trkpt lat="45.62033" lon="6.54492">
        <ele>1985.6</ele>
        <time>2025-02-20T10:55:48Z</time>
      </trkpt>
      <trkpt lat="45.62033" lon="6.54492">
        <ele>1986.2</ele>
        <time>2025-02-20T10:55:49Z</time>
      </trkpt>
      <trkpt lat="45.62034" lon="6.54489">
        <ele>1986.2</ele>
        <time>2025-02-20T10:55:50Z</time>
      </trkpt>
      <trkpt lat="45.62034" lon="6.54489">
        <ele>1986.2</ele>
        <time>2025-02-20T10:55:51Z</time>
      </trkpt>
      <trkpt lat="45.62034" lon="6.54488">
        <ele>1985.4</ele>
        <time>2025-02-20T10:55:52Z</time>
      </trkpt>
      <trkpt lat="45.62034" lon="6.54487">
        <ele>1986.2</ele>
        <time>2025-02-20T10:55:53Z</time>
      </trkpt>
      <trkpt lat="45.62035" lon="6.54486">
        <ele>1986.2</ele>
        <time>2025-02-20T10:55:54Z</time>
      </trkpt>
      <trkpt lat="45.62035" lon="6.54486">
        <ele>1986.2</ele>
        <time>2025-02-20T10:55:55Z</time>
      </trkpt>
      <trkpt lat="45.62035" lon="6.54485">
        <ele>1986.2</ele>
        <time>2025-02-20T10:55:56Z</time>
      </trkpt>
      <trkpt lat="45.62035" lon="6.54485">
        <ele>1984.8</ele>
        <time>2025-02-20T10:55:57Z</time>
      </trkpt>
      <trkpt lat="45.62035" lon="6.54484">
        <ele>1984.8</ele>
        <time>2025-02-20T10:55:58Z</time>
      </trkpt>
      <trkpt lat="45.62036" lon="6.54483">
        <ele>1984.8</ele>
        <time>2025-02-20T10:55:59Z</time>
      </trkpt>
      <trkpt lat="45.62036" lon="6.54482">
        <ele>1985.8</ele>
        <time>2025-02-20T10:56:00Z</time>
      </trkpt>
      <trkpt lat="45.62036" lon="6.54482">
        <ele>1986.6</ele>
        <time>2025-02-20T10:56:01Z</time>
      </trkpt>
      <trkpt lat="45.62036" lon="6.54482">
        <ele>1986.6</ele>
        <time>2025-02-20T10:56:02Z</time>
      </trkpt>
      <trkpt lat="45.62036" lon="6.54482">
        <ele>1986.6</ele>
        <time>2025-02-20T10:56:03Z</time>
      </trkpt>
      <trkpt lat="45.62036" lon="6.54482">
        <ele>1986.6</ele>
        <time>2025-02-20T10:56:04Z</time>
      </trkpt>
      <trkpt lat="45.62036" lon="6.54482">
        <ele>1987.2</ele>
        <time>2025-02-20T10:56:05Z</time>
      </trkpt>
      <trkpt lat="45.62036" lon="6.54482">
        <ele>1987.2</ele>
        <time>2025-02-20T10:56:06Z</time>
      </trkpt>
      <trkpt lat="45.62036" lon="6.54482">
        <ele>1987.2</ele>
        <time>2025-02-20T10:56:07Z</time>
      </trkpt>
      <trkpt lat="45.62036" lon="6.54482">
        <ele>1987.2</ele>
        <time>2025-02-20T10:56:08Z</time>
      </trkpt>
      <trkpt lat="45.62036" lon="6.54482">
        <ele>1986</ele>
        <time>2025-02-20T10:56:09Z</time>
      </trkpt>
      <trkpt lat="45.62036" lon="6.54482">
        <ele>1986</ele>
        <time>2025-02-20T10:56:10Z</time>
      </trkpt>
      <trkpt lat="45.62034" lon="6.54479">
        <ele>1986</ele>
        <time>2025-02-20T10:56:11Z</time>
      </trkpt>
      <trkpt lat="45.62034" lon="6.54479">
        <ele>1986</ele>
        <time>2025-02-20T10:56:12Z</time>
      </trkpt>
      <trkpt lat="45.62034" lon="6.54479">
        <ele>1986.8</ele>
        <time>2025-02-20T10:56:13Z</time>
      </trkpt>
      <trkpt lat="45.62034" lon="6.54479">
        <ele>1986.8</ele>
        <time>2025-02-20T10:56:14Z</time>
      </trkpt>
      <trkpt lat="45.62032" lon="6.54476">
        <ele>1986.8</ele>
        <time>2025-02-20T10:56:15Z</time>
      </trkpt>
      <trkpt lat="45.62032" lon="6.54475">
        <ele>1986.8</ele>
        <time>2025-02-20T10:56:16Z</time>
      </trkpt>
      <trkpt lat="45.62031" lon="6.54474">
        <ele>1987.6</ele>
        <time>2025-02-20T10:56:17Z</time>
      </trkpt>
      <trkpt lat="45.62031" lon="6.54473">
        <ele>1987.6</ele>
        <time>2025-02-20T10:56:18Z</time>
      </trkpt>
      <trkpt lat="45.62031" lon="6.54472">
        <ele>1987.6</ele>
        <time>2025-02-20T10:56:19Z</time>
      </trkpt>
      <trkpt lat="45.62031" lon="6.54472">
        <ele>1987.6</ele>
        <time>2025-02-20T10:56:20Z</time>
      </trkpt>
      <trkpt lat="45.62031" lon="6.54472">
        <ele>1989.4</ele>
        <time>2025-02-20T10:56:21Z</time>
      </trkpt>
      <trkpt lat="45.62032" lon="6.5447">
        <ele>1989.4</ele>
        <time>2025-02-20T10:56:22Z</time>
      </trkpt>
      <trkpt lat="45.62032" lon="6.5447">
        <ele>1989.4</ele>
        <time>2025-02-20T10:56:23Z</time>
      </trkpt>
      <trkpt lat="45.62033" lon="6.54469">
        <ele>1989.4</ele>
        <time>2025-02-20T10:56:24Z</time>
      </trkpt>
      <trkpt lat="45.62033" lon="6.54469">
        <ele>1988.2</ele>
        <time>2025-02-20T10:56:25Z</time>
      </trkpt>
      <trkpt lat="45.62034" lon="6.54468">
        <ele>1988.2</ele>
        <time>2025-02-20T10:56:26Z</time>
      </trkpt>
      <trkpt lat="45.62034" lon="6.54468">
        <ele>1988.2</ele>
        <time>2025-02-20T10:56:27Z</time>
      </trkpt>
      <trkpt lat="45.62035" lon="6.54468">
        <ele>1988.2</ele>
        <time>2025-02-20T10:56:28Z</time>
      </trkpt>
      <trkpt lat="45.62035" lon="6.54468">
        <ele>1988.2</ele>
        <time>2025-02-20T10:56:29Z</time>
      </trkpt>
      <trkpt lat="45.62036" lon="6.54467">
        <ele>1988.2</ele>
        <time>2025-02-20T10:56:30Z</time>
      </trkpt>
      <trkpt lat="45.62036" lon="6.54467">
        <ele>1988.2</ele>
        <time>2025-02-20T10:56:31Z</time>
      </trkpt>
      <trkpt lat="45.62037" lon="6.54467">
        <ele>1989.2</ele>
        <time>2025-02-20T10:56:32Z</time>
      </trkpt>
      <trkpt lat="45.62038" lon="6.54467">
        <ele>1989.8</ele>
        <time>2025-02-20T10:56:33Z</time>
      </trkpt>
      <trkpt lat="45.62038" lon="6.54466">
        <ele>1989.8</ele>
        <time>2025-02-20T10:56:34Z</time>
      </trkpt>
      <trkpt lat="45.62039" lon="6.54466">
        <ele>1989.8</ele>
        <time>2025-02-20T10:56:35Z</time>
      </trkpt>
      <trkpt lat="45.62039" lon="6.54466">
        <ele>1990.2</ele>
        <time>2025-02-20T10:56:36Z</time>
      </trkpt>
      <trkpt lat="45.6204" lon="6.54466">
        <ele>1990.2</ele>
        <time>2025-02-20T10:56:37Z</time>
      </trkpt>
      <trkpt lat="45.6204" lon="6.54466">
        <ele>1990.2</ele>
        <time>2025-02-20T10:56:38Z</time>
      </trkpt>
      <trkpt lat="45.62041" lon="6.54465">
        <ele>1990.2</ele>
        <time>2025-02-20T10:56:39Z</time>
      </trkpt>
      <trkpt lat="45.62041" lon="6.54465">
        <ele>1990.2</ele>
        <time>2025-02-20T10:56:40Z</time>
      </trkpt>
      <trkpt lat="45.62042" lon="6.54465">
        <ele>1990</ele>
        <time>2025-02-20T10:56:41Z</time>
      </trkpt>
      <trkpt lat="45.62042" lon="6.54465">
        <ele>1990</ele>
        <time>2025-02-20T10:56:42Z</time>
      </trkpt>
      <trkpt lat="45.62043" lon="6.54464">
        <ele>1990</ele>
        <time>2025-02-20T10:56:43Z</time>
      </trkpt>
      <trkpt lat="45.62043" lon="6.54465">
        <ele>1990.2</ele>
        <time>2025-02-20T10:56:44Z</time>
      </trkpt>
      <trkpt lat="45.62044" lon="6.54465">
        <ele>1990.8</ele>
        <time>2025-02-20T10:56:45Z</time>
      </trkpt>
      <trkpt lat="45.62044" lon="6.54464">
        <ele>1990.8</ele>
        <time>2025-02-20T10:56:46Z</time>
      </trkpt>
      <trkpt lat="45.62045" lon="6.54464">
        <ele>1990.8</ele>
        <time>2025-02-20T10:56:47Z</time>
      </trkpt>
      <trkpt lat="45.62045" lon="6.54464">
        <ele>1991.2</ele>
        <time>2025-02-20T10:56:48Z</time>
      </trkpt>
      <trkpt lat="45.62046" lon="6.54464">
        <ele>1992.2</ele>
        <time>2025-02-20T10:56:49Z</time>
      </trkpt>
      <trkpt lat="45.62047" lon="6.54464">
        <ele>1992.2</ele>
        <time>2025-02-20T10:56:50Z</time>
      </trkpt>
      <trkpt lat="45.62047" lon="6.54464">
        <ele>1992.2</ele>
        <time>2025-02-20T10:56:51Z</time>
      </trkpt>
      <trkpt lat="45.62048" lon="6.54464">
        <ele>1992.2</ele>
        <time>2025-02-20T10:56:52Z</time>
      </trkpt>
      <trkpt lat="45.62048" lon="6.54464">
        <ele>1991.8</ele>
        <time>2025-02-20T10:56:53Z</time>
      </trkpt>
      <trkpt lat="45.62048" lon="6.54465">
        <ele>1991.8</ele>
        <time>2025-02-20T10:56:54Z</time>
      </trkpt>
      <trkpt lat="45.62048" lon="6.54465">
        <ele>1991.8</ele>
        <time>2025-02-20T10:56:55Z</time>
      </trkpt>
      <trkpt lat="45.62049" lon="6.54465">
        <ele>1991.6</ele>
        <time>2025-02-20T10:56:56Z</time>
      </trkpt>
      <trkpt lat="45.6205" lon="6.54464">
        <ele>1991</ele>
        <time>2025-02-20T10:56:57Z</time>
      </trkpt>
      <trkpt lat="45.6205" lon="6.54464">
        <ele>1991</ele>
        <time>2025-02-20T10:56:58Z</time>
      </trkpt>
      <trkpt lat="45.62051" lon="6.54464">
        <ele>1991</ele>
        <time>2025-02-20T10:56:59Z</time>
      </trkpt>
      <trkpt lat="45.62051" lon="6.54464">
        <ele>1992</ele>
        <time>2025-02-20T10:57:00Z</time>
      </trkpt>
      <trkpt lat="45.62052" lon="6.54464">
        <ele>1993</ele>
        <time>2025-02-20T10:57:01Z</time>
      </trkpt>
      <trkpt lat="45.62052" lon="6.54464">
        <ele>1993</ele>
        <time>2025-02-20T10:57:02Z</time>
      </trkpt>
      <trkpt lat="45.62053" lon="6.54464">
        <ele>1993</ele>
        <time>2025-02-20T10:57:03Z</time>
      </trkpt>
      <trkpt lat="45.62053" lon="6.54463">
        <ele>1993.4</ele>
        <time>2025-02-20T10:57:04Z</time>
      </trkpt>
      <trkpt lat="45.62054" lon="6.54463">
        <ele>1992.8</ele>
        <time>2025-02-20T10:57:05Z</time>
      </trkpt>
      <trkpt lat="45.62054" lon="6.54463">
        <ele>1992.8</ele>
        <time>2025-02-20T10:57:06Z</time>
      </trkpt>
      <trkpt lat="45.62055" lon="6.54463">
        <ele>1992.8</ele>
        <time>2025-02-20T10:57:07Z</time>
      </trkpt>
      <trkpt lat="45.62055" lon="6.54463">
        <ele>1992.8</ele>
        <time>2025-02-20T10:57:08Z</time>
      </trkpt>
      <trkpt lat="45.62056" lon="6.54463">
        <ele>1993.2</ele>
        <time>2025-02-20T10:57:09Z</time>
      </trkpt>
      <trkpt lat="45.62056" lon="6.54463">
        <ele>1993.2</ele>
        <time>2025-02-20T10:57:10Z</time>
      </trkpt>
      <trkpt lat="45.62056" lon="6.54463">
        <ele>1993.2</ele>
        <time>2025-02-20T10:57:11Z</time>
      </trkpt>
      <trkpt lat="45.62056" lon="6.54463">
        <ele>1992.8</ele>
        <time>2025-02-20T10:57:12Z</time>
      </trkpt>
      <trkpt lat="45.62057" lon="6.54463">
        <ele>1993.8</ele>
        <time>2025-02-20T10:57:13Z</time>
      </trkpt>
      <trkpt lat="45.62057" lon="6.54463">
        <ele>1993.8</ele>
        <time>2025-02-20T10:57:14Z</time>
      </trkpt>
      <trkpt lat="45.62057" lon="6.54463">
        <ele>1993.8</ele>
        <time>2025-02-20T10:57:15Z</time>
      </trkpt>
      <trkpt lat="45.62057" lon="6.54463">
        <ele>1993.8</ele>
        <time>2025-02-20T10:57:16Z</time>
      </trkpt>
      <trkpt lat="45.62057" lon="6.54463">
        <ele>1995.2</ele>
        <time>2025-02-20T10:57:17Z</time>
      </trkpt>
      <trkpt lat="45.62057" lon="6.54463">
        <ele>1995.2</ele>
        <time>2025-02-20T10:57:18Z</time>
      </trkpt>
      <trkpt lat="45.62057" lon="6.54463">
        <ele>1995.2</ele>
        <time>2025-02-20T10:57:19Z</time>
      </trkpt>
      <trkpt lat="45.6206" lon="6.54463">
        <ele>1995.2</ele>
        <time>2025-02-20T10:57:20Z</time>
      </trkpt>
      <trkpt lat="45.6206" lon="6.54463">
        <ele>1994.4</ele>
        <time>2025-02-20T10:57:21Z</time>
      </trkpt>
      <trkpt lat="45.62061" lon="6.54463">
        <ele>1994.4</ele>
        <time>2025-02-20T10:57:22Z</time>
      </trkpt>
      <trkpt lat="45.62061" lon="6.54463">
        <ele>1994.4</ele>
        <time>2025-02-20T10:57:23Z</time>
      </trkpt>
      <trkpt lat="45.62061" lon="6.54463">
        <ele>1994.2</ele>
        <time>2025-02-20T10:57:24Z</time>
      </trkpt>
      <trkpt lat="45.62061" lon="6.54463">
        <ele>1994.2</ele>
        <time>2025-02-20T10:57:25Z</time>
      </trkpt>
      <trkpt lat="45.62061" lon="6.54463">
        <ele>1994.2</ele>
        <time>2025-02-20T10:57:26Z</time>
      </trkpt>
      <trkpt lat="45.62061" lon="6.54463">
        <ele>1994.2</ele>
        <time>2025-02-20T10:57:27Z</time>
      </trkpt>
      <trkpt lat="45.62061" lon="6.54461">
        <ele>1994.2</ele>
        <time>2025-02-20T10:57:28Z</time>
      </trkpt>
      <trkpt lat="45.62061" lon="6.54461">
        <ele>1996.2</ele>
        <time>2025-02-20T10:57:29Z</time>
      </trkpt>
      <trkpt lat="45.62061" lon="6.54461">
        <ele>1996.2</ele>
        <time>2025-02-20T10:57:30Z</time>
      </trkpt>
      <trkpt lat="45.62061" lon="6.54461">
        <ele>1996.2</ele>
        <time>2025-02-20T10:57:31Z</time>
      </trkpt>
      <trkpt lat="45.62061" lon="6.54461">
        <ele>1996.2</ele>
        <time>2025-02-20T10:57:32Z</time>
      </trkpt>
      <trkpt lat="45.62061" lon="6.54461">
        <ele>1996.8</ele>
        <time>2025-02-20T10:57:33Z</time>
      </trkpt>
      <trkpt lat="45.6206" lon="6.54458">
        <ele>1996.8</ele>
        <time>2025-02-20T10:57:34Z</time>
      </trkpt>
      <trkpt lat="45.62059" lon="6.54458">
        <ele>1996.8</ele>
        <time>2025-02-20T10:57:35Z</time>
      </trkpt>
      <trkpt lat="45.62059" lon="6.54458">
        <ele>1996.8</ele>
        <time>2025-02-20T10:57:36Z</time>
      </trkpt>
      <trkpt lat="45.62058" lon="6.54457">
        <ele>1997.2</ele>
        <time>2025-02-20T10:57:37Z</time>
      </trkpt>
      <trkpt lat="45.62058" lon="6.54456">
        <ele>1997.2</ele>
        <time>2025-02-20T10:57:38Z</time>
      </trkpt>
      <trkpt lat="45.62058" lon="6.54456">
        <ele>1997.2</ele>
        <time>2025-02-20T10:57:39Z</time>
      </trkpt>
      <trkpt lat="45.62057" lon="6.54455">
        <ele>1997.6</ele>
        <time>2025-02-20T10:57:40Z</time>
      </trkpt>
      <trkpt lat="45.62057" lon="6.54455">
        <ele>1997</ele>
        <time>2025-02-20T10:57:41Z</time>
      </trkpt>
      <trkpt lat="45.62057" lon="6.54455">
        <ele>1997</ele>
        <time>2025-02-20T10:57:42Z</time>
      </trkpt>
      <trkpt lat="45.62057" lon="6.54455">
        <ele>1997</ele>
        <time>2025-02-20T10:57:43Z</time>
      </trkpt>
      <trkpt lat="45.62057" lon="6.54455">
        <ele>1997</ele>
        <time>2025-02-20T10:57:44Z</time>
      </trkpt>
      <trkpt lat="45.62057" lon="6.54455">
        <ele>1995.8</ele>
        <time>2025-02-20T10:57:45Z</time>
      </trkpt>
      <trkpt lat="45.62057" lon="6.54455">
        <ele>1995.8</ele>
        <time>2025-02-20T10:57:46Z</time>
      </trkpt>
      <trkpt lat="45.62057" lon="6.54455">
        <ele>1995.8</ele>
        <time>2025-02-20T10:57:47Z</time>
      </trkpt>
      <trkpt lat="45.62057" lon="6.54455">
        <ele>1996.8</ele>
        <time>2025-02-20T10:57:48Z</time>
      </trkpt>
      <trkpt lat="45.62057" lon="6.54455">
        <ele>1996.6</ele>
        <time>2025-02-20T10:57:49Z</time>
      </trkpt>
      <trkpt lat="45.62057" lon="6.54455">
        <ele>1996.6</ele>
        <time>2025-02-20T10:57:50Z</time>
      </trkpt>
      <trkpt lat="45.62057" lon="6.54455">
        <ele>1996.6</ele>
        <time>2025-02-20T10:57:51Z</time>
      </trkpt>
      <trkpt lat="45.62057" lon="6.54455">
        <ele>1997.6</ele>
        <time>2025-02-20T10:57:52Z</time>
      </trkpt>
      <trkpt lat="45.62057" lon="6.54453">
        <ele>1997</ele>
        <time>2025-02-20T10:57:53Z</time>
      </trkpt>
      <trkpt lat="45.62058" lon="6.54453">
        <ele>1997</ele>
        <time>2025-02-20T10:57:54Z</time>
      </trkpt>
      <trkpt lat="45.62058" lon="6.54453">
        <ele>1997</ele>
        <time>2025-02-20T10:57:55Z</time>
      </trkpt>
      <trkpt lat="45.62058" lon="6.54453">
        <ele>1997.4</ele>
        <time>2025-02-20T10:57:56Z</time>
      </trkpt>
      <trkpt lat="45.6206" lon="6.54452">
        <ele>1999</ele>
        <time>2025-02-20T10:57:57Z</time>
      </trkpt>
      <trkpt lat="45.6206" lon="6.54452">
        <ele>1999</ele>
        <time>2025-02-20T10:57:58Z</time>
      </trkpt>
      <trkpt lat="45.6206" lon="6.54452">
        <ele>1999</ele>
        <time>2025-02-20T10:57:59Z</time>
      </trkpt>
      <trkpt lat="45.6206" lon="6.54452">
        <ele>1999</ele>
        <time>2025-02-20T10:58:00Z</time>
      </trkpt>
      <trkpt lat="45.6206" lon="6.54452">
        <ele>1999.6</ele>
        <time>2025-02-20T10:58:01Z</time>
      </trkpt>
      <trkpt lat="45.6206" lon="6.54452">
        <ele>1999.6</ele>
        <time>2025-02-20T10:58:02Z</time>
      </trkpt>
      <trkpt lat="45.62061" lon="6.54448">
        <ele>1999.6</ele>
        <time>2025-02-20T10:58:03Z</time>
      </trkpt>
      <trkpt lat="45.6206" lon="6.54448">
        <ele>2000</ele>
        <time>2025-02-20T10:58:04Z</time>
      </trkpt>
      <trkpt lat="45.62061" lon="6.54448">
        <ele>2000.4</ele>
        <time>2025-02-20T10:58:05Z</time>
      </trkpt>
      <trkpt lat="45.6206" lon="6.54447">
        <ele>2000.4</ele>
        <time>2025-02-20T10:58:06Z</time>
      </trkpt>
      <trkpt lat="45.6206" lon="6.54447">
        <ele>2000.4</ele>
        <time>2025-02-20T10:58:07Z</time>
      </trkpt>
      <trkpt lat="45.6206" lon="6.54447">
        <ele>2000.8</ele>
        <time>2025-02-20T10:58:08Z</time>
      </trkpt>
      <trkpt lat="45.62059" lon="6.54446">
        <ele>2001.2</ele>
        <time>2025-02-20T10:58:09Z</time>
      </trkpt>
      <trkpt lat="45.62059" lon="6.54446">
        <ele>2001.2</ele>
        <time>2025-02-20T10:58:10Z</time>
      </trkpt>
      <trkpt lat="45.62058" lon="6.54445">
        <ele>2001.2</ele>
        <time>2025-02-20T10:58:11Z</time>
      </trkpt>
      <trkpt lat="45.62058" lon="6.54445">
        <ele>2001.2</ele>
        <time>2025-02-20T10:58:12Z</time>
      </trkpt>
      <trkpt lat="45.62057" lon="6.54445">
        <ele>2001.2</ele>
        <time>2025-02-20T10:58:13Z</time>
      </trkpt>
      <trkpt lat="45.62057" lon="6.54445">
        <ele>2001.2</ele>
        <time>2025-02-20T10:58:14Z</time>
      </trkpt>
      <trkpt lat="45.62057" lon="6.54445">
        <ele>2001.2</ele>
        <time>2025-02-20T10:58:15Z</time>
      </trkpt>
      <trkpt lat="45.62056" lon="6.54443">
        <ele>2001.2</ele>
        <time>2025-02-20T10:58:16Z</time>
      </trkpt>
      <trkpt lat="45.62055" lon="6.54443">
        <ele>2001.4</ele>
        <time>2025-02-20T10:58:17Z</time>
      </trkpt>
      <trkpt lat="45.62055" lon="6.54443">
        <ele>2001.4</ele>
        <time>2025-02-20T10:58:18Z</time>
      </trkpt>
      <trkpt lat="45.62054" lon="6.54443">
        <ele>2001.4</ele>
        <time>2025-02-20T10:58:19Z</time>
      </trkpt>
      <trkpt lat="45.62054" lon="6.54442">
        <ele>2000.4</ele>
        <time>2025-02-20T10:58:20Z</time>
      </trkpt>
      <trkpt lat="45.62054" lon="6.54442">
        <ele>2000.8</ele>
        <time>2025-02-20T10:58:21Z</time>
      </trkpt>
      <trkpt lat="45.62053" lon="6.54442">
        <ele>2000.8</ele>
        <time>2025-02-20T10:58:22Z</time>
      </trkpt>
      <trkpt lat="45.62053" lon="6.54441">
        <ele>2000.8</ele>
        <time>2025-02-20T10:58:23Z</time>
      </trkpt>
      <trkpt lat="45.62053" lon="6.54441">
        <ele>2001.8</ele>
        <time>2025-02-20T10:58:24Z</time>
      </trkpt>
      <trkpt lat="45.62053" lon="6.54441">
        <ele>2002.4</ele>
        <time>2025-02-20T10:58:25Z</time>
      </trkpt>
      <trkpt lat="45.62052" lon="6.5444">
        <ele>2002.4</ele>
        <time>2025-02-20T10:58:26Z</time>
      </trkpt>
      <trkpt lat="45.62051" lon="6.5444">
        <ele>2002.4</ele>
        <time>2025-02-20T10:58:27Z</time>
      </trkpt>
      <trkpt lat="45.62051" lon="6.54439">
        <ele>2002.6</ele>
        <time>2025-02-20T10:58:28Z</time>
      </trkpt>
      <trkpt lat="45.6205" lon="6.54439">
        <ele>2003</ele>
        <time>2025-02-20T10:58:29Z</time>
      </trkpt>
      <trkpt lat="45.6205" lon="6.54439">
        <ele>2003</ele>
        <time>2025-02-20T10:58:30Z</time>
      </trkpt>
      <trkpt lat="45.62049" lon="6.54439">
        <ele>2003</ele>
        <time>2025-02-20T10:58:31Z</time>
      </trkpt>
      <trkpt lat="45.62048" lon="6.54439">
        <ele>2003</ele>
        <time>2025-02-20T10:58:32Z</time>
      </trkpt>
      <trkpt lat="45.62048" lon="6.54438">
        <ele>2002</ele>
        <time>2025-02-20T10:58:33Z</time>
      </trkpt>
      <trkpt lat="45.62048" lon="6.54438">
        <ele>2002</ele>
        <time>2025-02-20T10:58:34Z</time>
      </trkpt>
      <trkpt lat="45.62048" lon="6.54437">
        <ele>2002</ele>
        <time>2025-02-20T10:58:35Z</time>
      </trkpt>
      <trkpt lat="45.62048" lon="6.54437">
        <ele>2002.6</ele>
        <time>2025-02-20T10:58:36Z</time>
      </trkpt>
      <trkpt lat="45.62048" lon="6.54436">
        <ele>2003.2</ele>
        <time>2025-02-20T10:58:37Z</time>
      </trkpt>
      <trkpt lat="45.62048" lon="6.54436">
        <ele>2003.2</ele>
        <time>2025-02-20T10:58:38Z</time>
      </trkpt>
      <trkpt lat="45.62049" lon="6.54435">
        <ele>2003.2</ele>
        <time>2025-02-20T10:58:39Z</time>
      </trkpt>
      <trkpt lat="45.62048" lon="6.54434">
        <ele>2003.2</ele>
        <time>2025-02-20T10:58:40Z</time>
      </trkpt>
      <trkpt lat="45.62049" lon="6.54433">
        <ele>2004.6</ele>
        <time>2025-02-20T10:58:41Z</time>
      </trkpt>
      <trkpt lat="45.62049" lon="6.54433">
        <ele>2004.6</ele>
        <time>2025-02-20T10:58:42Z</time>
      </trkpt>
      <trkpt lat="45.62049" lon="6.54432">
        <ele>2004.6</ele>
        <time>2025-02-20T10:58:43Z</time>
      </trkpt>
      <trkpt lat="45.6205" lon="6.54432">
        <ele>2004.6</ele>
        <time>2025-02-20T10:58:44Z</time>
      </trkpt>
      <trkpt lat="45.6205" lon="6.54431">
        <ele>2004.6</ele>
        <time>2025-02-20T10:58:45Z</time>
      </trkpt>
      <trkpt lat="45.6205" lon="6.54431">
        <ele>2004.6</ele>
        <time>2025-02-20T10:58:46Z</time>
      </trkpt>
      <trkpt lat="45.6205" lon="6.54431">
        <ele>2004.6</ele>
        <time>2025-02-20T10:58:47Z</time>
      </trkpt>
      <trkpt lat="45.6205" lon="6.5443">
        <ele>2004.6</ele>
        <time>2025-02-20T10:58:48Z</time>
      </trkpt>
      <trkpt lat="45.6205" lon="6.5443">
        <ele>2005</ele>
        <time>2025-02-20T10:58:49Z</time>
      </trkpt>
      <trkpt lat="45.6205" lon="6.5443">
        <ele>2005</ele>
        <time>2025-02-20T10:58:50Z</time>
      </trkpt>
      <trkpt lat="45.6205" lon="6.5443">
        <ele>2005</ele>
        <time>2025-02-20T10:58:51Z</time>
      </trkpt>
      <trkpt lat="45.62049" lon="6.54429">
        <ele>2004.2</ele>
        <time>2025-02-20T10:58:52Z</time>
      </trkpt>
      <trkpt lat="45.62049" lon="6.54428">
        <ele>2005.2</ele>
        <time>2025-02-20T10:58:53Z</time>
      </trkpt>
      <trkpt lat="45.62048" lon="6.54428">
        <ele>2005.2</ele>
        <time>2025-02-20T10:58:54Z</time>
      </trkpt>
      <trkpt lat="45.62048" lon="6.54428">
        <ele>2005.2</ele>
        <time>2025-02-20T10:58:55Z</time>
      </trkpt>
      <trkpt lat="45.62048" lon="6.54428">
        <ele>2005.2</ele>
        <time>2025-02-20T10:58:56Z</time>
      </trkpt>
      <trkpt lat="45.62048" lon="6.54428">
        <ele>2006.4</ele>
        <time>2025-02-20T10:58:57Z</time>
      </trkpt>
      <trkpt lat="45.62047" lon="6.54427">
        <ele>2006.4</ele>
        <time>2025-02-20T10:58:58Z</time>
      </trkpt>
      <trkpt lat="45.62047" lon="6.54426">
        <ele>2006.4</ele>
        <time>2025-02-20T10:58:59Z</time>
      </trkpt>
      <trkpt lat="45.62047" lon="6.54426">
        <ele>2006.4</ele>
        <time>2025-02-20T10:59:00Z</time>
      </trkpt>
      <trkpt lat="45.62047" lon="6.54426">
        <ele>2007.2</ele>
        <time>2025-02-20T10:59:01Z</time>
      </trkpt>
      <trkpt lat="45.62047" lon="6.54426">
        <ele>2007.2</ele>
        <time>2025-02-20T10:59:02Z</time>
      </trkpt>
      <trkpt lat="45.62047" lon="6.54426">
        <ele>2007.2</ele>
        <time>2025-02-20T10:59:03Z</time>
      </trkpt>
      <trkpt lat="45.62047" lon="6.54426">
        <ele>2007.2</ele>
        <time>2025-02-20T10:59:04Z</time>
      </trkpt>
      <trkpt lat="45.62046" lon="6.54427">
        <ele>2007.4</ele>
        <time>2025-02-20T10:59:05Z</time>
      </trkpt>
      <trkpt lat="45.62045" lon="6.54426">
        <ele>2007.4</ele>
        <time>2025-02-20T10:59:06Z</time>
      </trkpt>
      <trkpt lat="45.62044" lon="6.54427">
        <ele>2007.4</ele>
        <time>2025-02-20T10:59:07Z</time>
      </trkpt>
      <trkpt lat="45.62044" lon="6.54427">
        <ele>2007.4</ele>
        <time>2025-02-20T10:59:08Z</time>
      </trkpt>
      <trkpt lat="45.62043" lon="6.54426">
        <ele>2005.6</ele>
        <time>2025-02-20T10:59:09Z</time>
      </trkpt>
      <trkpt lat="45.62043" lon="6.54426">
        <ele>2005.6</ele>
        <time>2025-02-20T10:59:10Z</time>
      </trkpt>
      <trkpt lat="45.62042" lon="6.54426">
        <ele>2005.6</ele>
        <time>2025-02-20T10:59:11Z</time>
      </trkpt>
      <trkpt lat="45.62041" lon="6.54426">
        <ele>2006.6</ele>
        <time>2025-02-20T10:59:12Z</time>
      </trkpt>
      <trkpt lat="45.62041" lon="6.54426">
        <ele>2006.2</ele>
        <time>2025-02-20T10:59:13Z</time>
      </trkpt>
      <trkpt lat="45.6204" lon="6.54427">
        <ele>2006.2</ele>
        <time>2025-02-20T10:59:14Z</time>
      </trkpt>
      <trkpt lat="45.6204" lon="6.54426">
        <ele>2006.2</ele>
        <time>2025-02-20T10:59:15Z</time>
      </trkpt>
      <trkpt lat="45.62039" lon="6.54426">
        <ele>2007.2</ele>
        <time>2025-02-20T10:59:16Z</time>
      </trkpt>
      <trkpt lat="45.62038" lon="6.54427">
        <ele>2007</ele>
        <time>2025-02-20T10:59:17Z</time>
      </trkpt>
      <trkpt lat="45.62038" lon="6.54426">
        <ele>2007</ele>
        <time>2025-02-20T10:59:18Z</time>
      </trkpt>
      <trkpt lat="45.62037" lon="6.54426">
        <ele>2007</ele>
        <time>2025-02-20T10:59:19Z</time>
      </trkpt>
      <trkpt lat="45.62037" lon="6.54426">
        <ele>2007.4</ele>
        <time>2025-02-20T10:59:20Z</time>
      </trkpt>
      <trkpt lat="45.62036" lon="6.54426">
        <ele>2007.6</ele>
        <time>2025-02-20T10:59:21Z</time>
      </trkpt>
      <trkpt lat="45.62035" lon="6.54426">
        <ele>2007.6</ele>
        <time>2025-02-20T10:59:22Z</time>
      </trkpt>
      <trkpt lat="45.62035" lon="6.54425">
        <ele>2007.6</ele>
        <time>2025-02-20T10:59:23Z</time>
      </trkpt>
      <trkpt lat="45.62034" lon="6.54425">
        <ele>2007.6</ele>
        <time>2025-02-20T10:59:24Z</time>
      </trkpt>
      <trkpt lat="45.62033" lon="6.54424">
        <ele>2008.4</ele>
        <time>2025-02-20T10:59:25Z</time>
      </trkpt>
      <trkpt lat="45.62033" lon="6.54424">
        <ele>2008.4</ele>
        <time>2025-02-20T10:59:26Z</time>
      </trkpt>
      <trkpt lat="45.62033" lon="6.54424">
        <ele>2008.4</ele>
        <time>2025-02-20T10:59:27Z</time>
      </trkpt>
      <trkpt lat="45.62032" lon="6.54424">
        <ele>2008.4</ele>
        <time>2025-02-20T10:59:28Z</time>
      </trkpt>
      <trkpt lat="45.62032" lon="6.54424">
        <ele>2008.6</ele>
        <time>2025-02-20T10:59:29Z</time>
      </trkpt>
      <trkpt lat="45.62031" lon="6.54423">
        <ele>2008.6</ele>
        <time>2025-02-20T10:59:30Z</time>
      </trkpt>
      <trkpt lat="45.6203" lon="6.54423">
        <ele>2008.6</ele>
        <time>2025-02-20T10:59:31Z</time>
      </trkpt>
      <trkpt lat="45.6203" lon="6.54423">
        <ele>2009.6</ele>
        <time>2025-02-20T10:59:32Z</time>
      </trkpt>
      <trkpt lat="45.62029" lon="6.54422">
        <ele>2009</ele>
        <time>2025-02-20T10:59:33Z</time>
      </trkpt>
      <trkpt lat="45.62029" lon="6.54421">
        <ele>2009</ele>
        <time>2025-02-20T10:59:34Z</time>
      </trkpt>
      <trkpt lat="45.62028" lon="6.54421">
        <ele>2009</ele>
        <time>2025-02-20T10:59:35Z</time>
      </trkpt>
      <trkpt lat="45.62027" lon="6.5442">
        <ele>2010</ele>
        <time>2025-02-20T10:59:36Z</time>
      </trkpt>
      <trkpt lat="45.62027" lon="6.54419">
        <ele>2009.2</ele>
        <time>2025-02-20T10:59:37Z</time>
      </trkpt>
      <trkpt lat="45.62026" lon="6.54418">
        <ele>2009.2</ele>
        <time>2025-02-20T10:59:38Z</time>
      </trkpt>
      <trkpt lat="45.62026" lon="6.54418">
        <ele>2009.2</ele>
        <time>2025-02-20T10:59:39Z</time>
      </trkpt>
      <trkpt lat="45.62026" lon="6.54418">
        <ele>2009.8</ele>
        <time>2025-02-20T10:59:40Z</time>
      </trkpt>
      <trkpt lat="45.62025" lon="6.54417">
        <ele>2010.4</ele>
        <time>2025-02-20T10:59:41Z</time>
      </trkpt>
      <trkpt lat="45.62025" lon="6.54417">
        <ele>2010.4</ele>
        <time>2025-02-20T10:59:42Z</time>
      </trkpt>
      <trkpt lat="45.62024" lon="6.54417">
        <ele>2010.4</ele>
        <time>2025-02-20T10:59:43Z</time>
      </trkpt>
      <trkpt lat="45.62024" lon="6.54416">
        <ele>2010.4</ele>
        <time>2025-02-20T10:59:44Z</time>
      </trkpt>
      <trkpt lat="45.62024" lon="6.54416">
        <ele>2011.6</ele>
        <time>2025-02-20T10:59:45Z</time>
      </trkpt>
      <trkpt lat="45.62023" lon="6.54415">
        <ele>2011.6</ele>
        <time>2025-02-20T10:59:46Z</time>
      </trkpt>
      <trkpt lat="45.62023" lon="6.54415">
        <ele>2011.6</ele>
        <time>2025-02-20T10:59:47Z</time>
      </trkpt>
      <trkpt lat="45.62022" lon="6.54414">
        <ele>2012.6</ele>
        <time>2025-02-20T10:59:48Z</time>
      </trkpt>
      <trkpt lat="45.62022" lon="6.54414">
        <ele>2012.8</ele>
        <time>2025-02-20T10:59:49Z</time>
      </trkpt>
      <trkpt lat="45.62021" lon="6.54413">
        <ele>2012.8</ele>
        <time>2025-02-20T10:59:50Z</time>
      </trkpt>
      <trkpt lat="45.62021" lon="6.54413">
        <ele>2012.8</ele>
        <time>2025-02-20T10:59:51Z</time>
      </trkpt>
      <trkpt lat="45.62021" lon="6.54412">
        <ele>2012.8</ele>
        <time>2025-02-20T10:59:52Z</time>
      </trkpt>
      <trkpt lat="45.6202" lon="6.54412">
        <ele>2012.8</ele>
        <time>2025-02-20T10:59:53Z</time>
      </trkpt>
      <trkpt lat="45.6202" lon="6.54411">
        <ele>2012.8</ele>
        <time>2025-02-20T10:59:54Z</time>
      </trkpt>
      <trkpt lat="45.6202" lon="6.54411">
        <ele>2012.8</ele>
        <time>2025-02-20T10:59:55Z</time>
      </trkpt>
      <trkpt lat="45.62021" lon="6.5441">
        <ele>2011.8</ele>
        <time>2025-02-20T10:59:56Z</time>
      </trkpt>
      <trkpt lat="45.62021" lon="6.5441">
        <ele>2011.4</ele>
        <time>2025-02-20T10:59:57Z</time>
      </trkpt>
      <trkpt lat="45.62021" lon="6.54409">
        <ele>2011.4</ele>
        <time>2025-02-20T10:59:58Z</time>
      </trkpt>
      <trkpt lat="45.62021" lon="6.54409">
        <ele>2011.4</ele>
        <time>2025-02-20T10:59:59Z</time>
      </trkpt>
      <trkpt lat="45.62022" lon="6.54408">
        <ele>2012.4</ele>
        <time>2025-02-20T11:00:00Z</time>
      </trkpt>
      <trkpt lat="45.62022" lon="6.54408">
        <ele>2013.2</ele>
        <time>2025-02-20T11:00:01Z</time>
      </trkpt>
      <trkpt lat="45.62022" lon="6.54407">
        <ele>2013.2</ele>
        <time>2025-02-20T11:00:02Z</time>
      </trkpt>
      <trkpt lat="45.62023" lon="6.54407">
        <ele>2013.2</ele>
        <time>2025-02-20T11:00:03Z</time>
      </trkpt>
      <trkpt lat="45.62023" lon="6.54406">
        <ele>2014.2</ele>
        <time>2025-02-20T11:00:04Z</time>
      </trkpt>
      <trkpt lat="45.62024" lon="6.54406">
        <ele>2014.6</ele>
        <time>2025-02-20T11:00:05Z</time>
      </trkpt>
      <trkpt lat="45.62024" lon="6.54406">
        <ele>2014.6</ele>
        <time>2025-02-20T11:00:06Z</time>
      </trkpt>
      <trkpt lat="45.62024" lon="6.54406">
        <ele>2014.6</ele>
        <time>2025-02-20T11:00:07Z</time>
      </trkpt>
      <trkpt lat="45.62024" lon="6.54406">
        <ele>2015</ele>
        <time>2025-02-20T11:00:08Z</time>
      </trkpt>
      <trkpt lat="45.62024" lon="6.54404">
        <ele>2014.2</ele>
        <time>2025-02-20T11:00:09Z</time>
      </trkpt>
      <trkpt lat="45.62025" lon="6.54404">
        <ele>2014.2</ele>
        <time>2025-02-20T11:00:10Z</time>
      </trkpt>
      <trkpt lat="45.62025" lon="6.54404">
        <ele>2014.2</ele>
        <time>2025-02-20T11:00:11Z</time>
      </trkpt>
      <trkpt lat="45.62025" lon="6.54404">
        <ele>2014.2</ele>
        <time>2025-02-20T11:00:12Z</time>
      </trkpt>
      <trkpt lat="45.62025" lon="6.54402">
        <ele>2014.6</ele>
        <time>2025-02-20T11:00:13Z</time>
      </trkpt>
      <trkpt lat="45.62025" lon="6.54401">
        <ele>2014.6</ele>
        <time>2025-02-20T11:00:14Z</time>
      </trkpt>
      <trkpt lat="45.62026" lon="6.54401">
        <ele>2014.6</ele>
        <time>2025-02-20T11:00:15Z</time>
      </trkpt>
      <trkpt lat="45.62026" lon="6.544">
        <ele>2014.6</ele>
        <time>2025-02-20T11:00:16Z</time>
      </trkpt>
      <trkpt lat="45.62027" lon="6.544">
        <ele>2016.4</ele>
        <time>2025-02-20T11:00:17Z</time>
      </trkpt>
      <trkpt lat="45.62027" lon="6.54399">
        <ele>2016.4</ele>
        <time>2025-02-20T11:00:18Z</time>
      </trkpt>
      <trkpt lat="45.62027" lon="6.54399">
        <ele>2016.4</ele>
        <time>2025-02-20T11:00:19Z</time>
      </trkpt>
      <trkpt lat="45.62028" lon="6.54398">
        <ele>2016.4</ele>
        <time>2025-02-20T11:00:20Z</time>
      </trkpt>
      <trkpt lat="45.62028" lon="6.54398">
        <ele>2016.8</ele>
        <time>2025-02-20T11:00:21Z</time>
      </trkpt>
      <trkpt lat="45.62028" lon="6.54398">
        <ele>2016.8</ele>
        <time>2025-02-20T11:00:22Z</time>
      </trkpt>
      <trkpt lat="45.62028" lon="6.54398">
        <ele>2016.8</ele>
        <time>2025-02-20T11:00:23Z</time>
      </trkpt>
      <trkpt lat="45.62029" lon="6.54396">
        <ele>2016.8</ele>
        <time>2025-02-20T11:00:24Z</time>
      </trkpt>
      <trkpt lat="45.62029" lon="6.54396">
        <ele>2017</ele>
        <time>2025-02-20T11:00:25Z</time>
      </trkpt>
      <trkpt lat="45.6203" lon="6.54395">
        <ele>2017</ele>
        <time>2025-02-20T11:00:26Z</time>
      </trkpt>
      <trkpt lat="45.6203" lon="6.54394">
        <ele>2017</ele>
        <time>2025-02-20T11:00:27Z</time>
      </trkpt>
      <trkpt lat="45.6203" lon="6.54393">
        <ele>2017</ele>
        <time>2025-02-20T11:00:28Z</time>
      </trkpt>
      <trkpt lat="45.62031" lon="6.54393">
        <ele>2016.8</ele>
        <time>2025-02-20T11:00:29Z</time>
      </trkpt>
      <trkpt lat="45.62031" lon="6.54392">
        <ele>2016.8</ele>
        <time>2025-02-20T11:00:30Z</time>
      </trkpt>
      <trkpt lat="45.62032" lon="6.54392">
        <ele>2016.8</ele>
        <time>2025-02-20T11:00:31Z</time>
      </trkpt>
      <trkpt lat="45.62032" lon="6.54391">
        <ele>2016.8</ele>
        <time>2025-02-20T11:00:32Z</time>
      </trkpt>
      <trkpt lat="45.62032" lon="6.54391">
        <ele>2017.6</ele>
        <time>2025-02-20T11:00:33Z</time>
      </trkpt>
      <trkpt lat="45.62033" lon="6.5439">
        <ele>2017.6</ele>
        <time>2025-02-20T11:00:34Z</time>
      </trkpt>
      <trkpt lat="45.62033" lon="6.5439">
        <ele>2017.6</ele>
        <time>2025-02-20T11:00:35Z</time>
      </trkpt>
      <trkpt lat="45.62033" lon="6.5439">
        <ele>2017.6</ele>
        <time>2025-02-20T11:00:36Z</time>
      </trkpt>
      <trkpt lat="45.62034" lon="6.54388">
        <ele>2018</ele>
        <time>2025-02-20T11:00:37Z</time>
      </trkpt>
      <trkpt lat="45.62034" lon="6.54388">
        <ele>2018</ele>
        <time>2025-02-20T11:00:38Z</time>
      </trkpt>
      <trkpt lat="45.62035" lon="6.54388">
        <ele>2018</ele>
        <time>2025-02-20T11:00:39Z</time>
      </trkpt>
      <trkpt lat="45.62035" lon="6.54388">
        <ele>2018</ele>
        <time>2025-02-20T11:00:40Z</time>
      </trkpt>
      <trkpt lat="45.62035" lon="6.54388">
        <ele>2018.6</ele>
        <time>2025-02-20T11:00:41Z</time>
      </trkpt>
      <trkpt lat="45.62035" lon="6.54388">
        <ele>2018.6</ele>
        <time>2025-02-20T11:00:42Z</time>
      </trkpt>
      <trkpt lat="45.62035" lon="6.54388">
        <ele>2018.6</ele>
        <time>2025-02-20T11:00:43Z</time>
      </trkpt>
      <trkpt lat="45.62035" lon="6.54388">
        <ele>2018.6</ele>
        <time>2025-02-20T11:00:44Z</time>
      </trkpt>
      <trkpt lat="45.62035" lon="6.54388">
        <ele>2017.4</ele>
        <time>2025-02-20T11:00:45Z</time>
      </trkpt>
      <trkpt lat="45.62035" lon="6.54388">
        <ele>2017.4</ele>
        <time>2025-02-20T11:00:46Z</time>
      </trkpt>
      <trkpt lat="45.62035" lon="6.54388">
        <ele>2017.4</ele>
        <time>2025-02-20T11:00:47Z</time>
      </trkpt>
      <trkpt lat="45.62035" lon="6.54388">
        <ele>2017.4</ele>
        <time>2025-02-20T11:00:48Z</time>
      </trkpt>
      <trkpt lat="45.62035" lon="6.54388">
        <ele>2017.2</ele>
        <time>2025-02-20T11:00:49Z</time>
      </trkpt>
      <trkpt lat="45.62035" lon="6.54388">
        <ele>2017.2</ele>
        <time>2025-02-20T11:00:50Z</time>
      </trkpt>
      <trkpt lat="45.62035" lon="6.54388">
        <ele>2017.2</ele>
        <time>2025-02-20T11:00:51Z</time>
      </trkpt>
      <trkpt lat="45.62033" lon="6.54387">
        <ele>2018</ele>
        <time>2025-02-20T11:00:52Z</time>
      </trkpt>
      <trkpt lat="45.62032" lon="6.54386">
        <ele>2019</ele>
        <time>2025-02-20T11:00:53Z</time>
      </trkpt>
      <trkpt lat="45.62032" lon="6.54386">
        <ele>2019</ele>
        <time>2025-02-20T11:00:54Z</time>
      </trkpt>
      <trkpt lat="45.62032" lon="6.54386">
        <ele>2019</ele>
        <time>2025-02-20T11:00:55Z</time>
      </trkpt>
      <trkpt lat="45.62031" lon="6.54385">
        <ele>2019</ele>
        <time>2025-02-20T11:00:56Z</time>
      </trkpt>
      <trkpt lat="45.6203" lon="6.54385">
        <ele>2020.2</ele>
        <time>2025-02-20T11:00:57Z</time>
      </trkpt>
      <trkpt lat="45.6203" lon="6.54385">
        <ele>2020.2</ele>
        <time>2025-02-20T11:00:58Z</time>
      </trkpt>
      <trkpt lat="45.62029" lon="6.54384">
        <ele>2020.2</ele>
        <time>2025-02-20T11:00:59Z</time>
      </trkpt>
      <trkpt lat="45.62029" lon="6.54384">
        <ele>2020.6</ele>
        <time>2025-02-20T11:01:00Z</time>
      </trkpt>
      <trkpt lat="45.62028" lon="6.54384">
        <ele>2021.2</ele>
        <time>2025-02-20T11:01:01Z</time>
      </trkpt>
      <trkpt lat="45.62028" lon="6.54383">
        <ele>2021.2</ele>
        <time>2025-02-20T11:01:02Z</time>
      </trkpt>
      <trkpt lat="45.62027" lon="6.54383">
        <ele>2021.2</ele>
        <time>2025-02-20T11:01:03Z</time>
      </trkpt>
      <trkpt lat="45.62027" lon="6.54383">
        <ele>2020.6</ele>
        <time>2025-02-20T11:01:04Z</time>
      </trkpt>
      <trkpt lat="45.62026" lon="6.54384">
        <ele>2019</ele>
        <time>2025-02-20T11:01:05Z</time>
      </trkpt>
      <trkpt lat="45.62026" lon="6.54383">
        <ele>2019</ele>
        <time>2025-02-20T11:01:06Z</time>
      </trkpt>
      <trkpt lat="45.62025" lon="6.54384">
        <ele>2019</ele>
        <time>2025-02-20T11:01:07Z</time>
      </trkpt>
      <trkpt lat="45.62025" lon="6.54384">
        <ele>2020</ele>
        <time>2025-02-20T11:01:08Z</time>
      </trkpt>
      <trkpt lat="45.62024" lon="6.54385">
        <ele>2021.4</ele>
        <time>2025-02-20T11:01:09Z</time>
      </trkpt>
      <trkpt lat="45.62024" lon="6.54384">
        <ele>2021.4</ele>
        <time>2025-02-20T11:01:10Z</time>
      </trkpt>
      <trkpt lat="45.62023" lon="6.54384">
        <ele>2021.4</ele>
        <time>2025-02-20T11:01:11Z</time>
      </trkpt>
      <trkpt lat="45.62023" lon="6.54384">
        <ele>2021.4</ele>
        <time>2025-02-20T11:01:12Z</time>
      </trkpt>
      <trkpt lat="45.62023" lon="6.54384">
        <ele>2021.2</ele>
        <time>2025-02-20T11:01:13Z</time>
      </trkpt>
      <trkpt lat="45.62022" lon="6.54384">
        <ele>2021.2</ele>
        <time>2025-02-20T11:01:14Z</time>
      </trkpt>
      <trkpt lat="45.62021" lon="6.54384">
        <ele>2021.2</ele>
        <time>2025-02-20T11:01:15Z</time>
      </trkpt>
      <trkpt lat="45.62021" lon="6.54384">
        <ele>2021.2</ele>
        <time>2025-02-20T11:01:16Z</time>
      </trkpt>
      <trkpt lat="45.6202" lon="6.54384">
        <ele>2020.6</ele>
        <time>2025-02-20T11:01:17Z</time>
      </trkpt>
      <trkpt lat="45.6202" lon="6.54385">
        <ele>2020.6</ele>
        <time>2025-02-20T11:01:18Z</time>
      </trkpt>
      <trkpt lat="45.62019" lon="6.54385">
        <ele>2020.6</ele>
        <time>2025-02-20T11:01:19Z</time>
      </trkpt>
      <trkpt lat="45.62019" lon="6.54385">
        <ele>2020.6</ele>
        <time>2025-02-20T11:01:20Z</time>
      </trkpt>
      <trkpt lat="45.62018" lon="6.54385">
        <ele>2021</ele>
        <time>2025-02-20T11:01:21Z</time>
      </trkpt>
      <trkpt lat="45.62018" lon="6.54384">
        <ele>2021</ele>
        <time>2025-02-20T11:01:22Z</time>
      </trkpt>
      <trkpt lat="45.62017" lon="6.54384">
        <ele>2021</ele>
        <time>2025-02-20T11:01:23Z</time>
      </trkpt>
      <trkpt lat="45.62017" lon="6.54384">
        <ele>2022</ele>
        <time>2025-02-20T11:01:24Z</time>
      </trkpt>
      <trkpt lat="45.62016" lon="6.54384">
        <ele>2023.4</ele>
        <time>2025-02-20T11:01:25Z</time>
      </trkpt>
      <trkpt lat="45.62016" lon="6.54384">
        <ele>2023.4</ele>
        <time>2025-02-20T11:01:26Z</time>
      </trkpt>
      <trkpt lat="45.62017" lon="6.54383">
        <ele>2023.4</ele>
        <time>2025-02-20T11:01:27Z</time>
      </trkpt>
      <trkpt lat="45.62017" lon="6.54383">
        <ele>2023.4</ele>
        <time>2025-02-20T11:01:28Z</time>
      </trkpt>
      <trkpt lat="45.62017" lon="6.54382">
        <ele>2022.2</ele>
        <time>2025-02-20T11:01:29Z</time>
      </trkpt>
      <trkpt lat="45.62017" lon="6.54382">
        <ele>2022.2</ele>
        <time>2025-02-20T11:01:30Z</time>
      </trkpt>
      <trkpt lat="45.62018" lon="6.54381">
        <ele>2022.2</ele>
        <time>2025-02-20T11:01:31Z</time>
      </trkpt>
      <trkpt lat="45.62018" lon="6.54381">
        <ele>2022.2</ele>
        <time>2025-02-20T11:01:32Z</time>
      </trkpt>
      <trkpt lat="45.62018" lon="6.5438">
        <ele>2023.6</ele>
        <time>2025-02-20T11:01:33Z</time>
      </trkpt>
      <trkpt lat="45.62019" lon="6.5438">
        <ele>2023.6</ele>
        <time>2025-02-20T11:01:34Z</time>
      </trkpt>
      <trkpt lat="45.62019" lon="6.5438">
        <ele>2023.6</ele>
        <time>2025-02-20T11:01:35Z</time>
      </trkpt>
      <trkpt lat="45.6202" lon="6.54379">
        <ele>2023.6</ele>
        <time>2025-02-20T11:01:36Z</time>
      </trkpt>
      <trkpt lat="45.6202" lon="6.54379">
        <ele>2024.2</ele>
        <time>2025-02-20T11:01:37Z</time>
      </trkpt>
      <trkpt lat="45.6202" lon="6.54378">
        <ele>2024.2</ele>
        <time>2025-02-20T11:01:38Z</time>
      </trkpt>
      <trkpt lat="45.62021" lon="6.54377">
        <ele>2024.2</ele>
        <time>2025-02-20T11:01:39Z</time>
      </trkpt>
      <trkpt lat="45.62021" lon="6.54377">
        <ele>2024.2</ele>
        <time>2025-02-20T11:01:40Z</time>
      </trkpt>
      <trkpt lat="45.62022" lon="6.54377">
        <ele>2023.2</ele>
        <time>2025-02-20T11:01:41Z</time>
      </trkpt>
      <trkpt lat="45.62022" lon="6.54376">
        <ele>2023.2</ele>
        <time>2025-02-20T11:01:42Z</time>
      </trkpt>
      <trkpt lat="45.62023" lon="6.54376">
        <ele>2023.2</ele>
        <time>2025-02-20T11:01:43Z</time>
      </trkpt>
      <trkpt lat="45.62024" lon="6.54375">
        <ele>2024.2</ele>
        <time>2025-02-20T11:01:44Z</time>
      </trkpt>
      <trkpt lat="45.62024" lon="6.54375">
        <ele>2024.8</ele>
        <time>2025-02-20T11:01:45Z</time>
      </trkpt>
      <trkpt lat="45.62024" lon="6.54374">
        <ele>2024.8</ele>
        <time>2025-02-20T11:01:46Z</time>
      </trkpt>
      <trkpt lat="45.62025" lon="6.54374">
        <ele>2024.8</ele>
        <time>2025-02-20T11:01:47Z</time>
      </trkpt>
      <trkpt lat="45.62025" lon="6.54373">
        <ele>2024.8</ele>
        <time>2025-02-20T11:01:48Z</time>
      </trkpt>
      <trkpt lat="45.62026" lon="6.54373">
        <ele>2024</ele>
        <time>2025-02-20T11:01:49Z</time>
      </trkpt>
      <trkpt lat="45.62026" lon="6.54372">
        <ele>2024</ele>
        <time>2025-02-20T11:01:50Z</time>
      </trkpt>
      <trkpt lat="45.62027" lon="6.54372">
        <ele>2024</ele>
        <time>2025-02-20T11:01:51Z</time>
      </trkpt>
      <trkpt lat="45.62027" lon="6.54371">
        <ele>2024.8</ele>
        <time>2025-02-20T11:01:52Z</time>
      </trkpt>
      <trkpt lat="45.62028" lon="6.54371">
        <ele>2025.2</ele>
        <time>2025-02-20T11:01:53Z</time>
      </trkpt>
      <trkpt lat="45.62028" lon="6.5437">
        <ele>2025.2</ele>
        <time>2025-02-20T11:01:54Z</time>
      </trkpt>
      <trkpt lat="45.62029" lon="6.5437">
        <ele>2025.2</ele>
        <time>2025-02-20T11:01:55Z</time>
      </trkpt>
      <trkpt lat="45.6203" lon="6.54369">
        <ele>2025.2</ele>
        <time>2025-02-20T11:01:56Z</time>
      </trkpt>
      <trkpt lat="45.6203" lon="6.54369">
        <ele>2026</ele>
        <time>2025-02-20T11:01:57Z</time>
      </trkpt>
      <trkpt lat="45.62031" lon="6.54369">
        <ele>2026</ele>
        <time>2025-02-20T11:01:58Z</time>
      </trkpt>
      <trkpt lat="45.62032" lon="6.54368">
        <ele>2026</ele>
        <time>2025-02-20T11:01:59Z</time>
      </trkpt>
      <trkpt lat="45.62032" lon="6.54368">
        <ele>2026</ele>
        <time>2025-02-20T11:02:00Z</time>
      </trkpt>
      <trkpt lat="45.62033" lon="6.54368">
        <ele>2026.6</ele>
        <time>2025-02-20T11:02:01Z</time>
      </trkpt>
      <trkpt lat="45.62034" lon="6.54368">
        <ele>2026.6</ele>
        <time>2025-02-20T11:02:02Z</time>
      </trkpt>
      <trkpt lat="45.62035" lon="6.54368">
        <ele>2026.6</ele>
        <time>2025-02-20T11:02:03Z</time>
      </trkpt>
      <trkpt lat="45.62035" lon="6.54368">
        <ele>2026.6</ele>
        <time>2025-02-20T11:02:04Z</time>
      </trkpt>
      <trkpt lat="45.62036" lon="6.54369">
        <ele>2026.4</ele>
        <time>2025-02-20T11:02:05Z</time>
      </trkpt>
      <trkpt lat="45.62036" lon="6.54369">
        <ele>2026.4</ele>
        <time>2025-02-20T11:02:06Z</time>
      </trkpt>
      <trkpt lat="45.62037" lon="6.54369">
        <ele>2026.4</ele>
        <time>2025-02-20T11:02:07Z</time>
      </trkpt>
      <trkpt lat="45.62037" lon="6.54369">
        <ele>2026.4</ele>
        <time>2025-02-20T11:02:08Z</time>
      </trkpt>
      <trkpt lat="45.62038" lon="6.5437">
        <ele>2025.4</ele>
        <time>2025-02-20T11:02:09Z</time>
      </trkpt>
      <trkpt lat="45.62038" lon="6.5437">
        <ele>2025.4</ele>
        <time>2025-02-20T11:02:10Z</time>
      </trkpt>
      <trkpt lat="45.62039" lon="6.5437">
        <ele>2025.4</ele>
        <time>2025-02-20T11:02:11Z</time>
      </trkpt>
      <trkpt lat="45.62039" lon="6.5437">
        <ele>2026.4</ele>
        <time>2025-02-20T11:02:12Z</time>
      </trkpt>
      <trkpt lat="45.6204" lon="6.54371">
        <ele>2025.6</ele>
        <time>2025-02-20T11:02:13Z</time>
      </trkpt>
      <trkpt lat="45.6204" lon="6.5437">
        <ele>2025.6</ele>
        <time>2025-02-20T11:02:14Z</time>
      </trkpt>
      <trkpt lat="45.62041" lon="6.5437">
        <ele>2025.6</ele>
        <time>2025-02-20T11:02:15Z</time>
      </trkpt>
      <trkpt lat="45.62041" lon="6.5437">
        <ele>2026.6</ele>
        <time>2025-02-20T11:02:16Z</time>
      </trkpt>
      <trkpt lat="45.62042" lon="6.5437">
        <ele>2026.8</ele>
        <time>2025-02-20T11:02:17Z</time>
      </trkpt>
      <trkpt lat="45.62043" lon="6.5437">
        <ele>2026.8</ele>
        <time>2025-02-20T11:02:18Z</time>
      </trkpt>
      <trkpt lat="45.62043" lon="6.54369">
        <ele>2026.8</ele>
        <time>2025-02-20T11:02:19Z</time>
      </trkpt>
      <trkpt lat="45.62044" lon="6.54369">
        <ele>2027.8</ele>
        <time>2025-02-20T11:02:20Z</time>
      </trkpt>
      <trkpt lat="45.62044" lon="6.54368">
        <ele>2028</ele>
        <time>2025-02-20T11:02:21Z</time>
      </trkpt>
      <trkpt lat="45.62044" lon="6.54367">
        <ele>2028</ele>
        <time>2025-02-20T11:02:22Z</time>
      </trkpt>
      <trkpt lat="45.62044" lon="6.54366">
        <ele>2028</ele>
        <time>2025-02-20T11:02:23Z</time>
      </trkpt>
      <trkpt lat="45.62044" lon="6.54365">
        <ele>2028</ele>
        <time>2025-02-20T11:02:24Z</time>
      </trkpt>
      <trkpt lat="45.62044" lon="6.54364">
        <ele>2028.6</ele>
        <time>2025-02-20T11:02:25Z</time>
      </trkpt>
      <trkpt lat="45.62044" lon="6.54364">
        <ele>2028.6</ele>
        <time>2025-02-20T11:02:26Z</time>
      </trkpt>
      <trkpt lat="45.62045" lon="6.54364">
        <ele>2028.6</ele>
        <time>2025-02-20T11:02:27Z</time>
      </trkpt>
      <trkpt lat="45.62045" lon="6.54363">
        <ele>2029.6</ele>
        <time>2025-02-20T11:02:28Z</time>
      </trkpt>
      <trkpt lat="45.62045" lon="6.54362">
        <ele>2028.6</ele>
        <time>2025-02-20T11:02:29Z</time>
      </trkpt>
      <trkpt lat="45.62045" lon="6.54361">
        <ele>2028.6</ele>
        <time>2025-02-20T11:02:30Z</time>
      </trkpt>
      <trkpt lat="45.62045" lon="6.5436">
        <ele>2028.6</ele>
        <time>2025-02-20T11:02:31Z</time>
      </trkpt>
      <trkpt lat="45.62045" lon="6.54359">
        <ele>2029.6</ele>
        <time>2025-02-20T11:02:32Z</time>
      </trkpt>
      <trkpt lat="45.62046" lon="6.54358">
        <ele>2031.6</ele>
        <time>2025-02-20T11:02:33Z</time>
      </trkpt>
      <trkpt lat="45.62046" lon="6.54357">
        <ele>2031.6</ele>
        <time>2025-02-20T11:02:34Z</time>
      </trkpt>
      <trkpt lat="45.62046" lon="6.54357">
        <ele>2031.6</ele>
        <time>2025-02-20T11:02:35Z</time>
      </trkpt>
      <trkpt lat="45.62047" lon="6.54356">
        <ele>2030.6</ele>
        <time>2025-02-20T11:02:36Z</time>
      </trkpt>
      <trkpt lat="45.62047" lon="6.54355">
        <ele>2031</ele>
        <time>2025-02-20T11:02:37Z</time>
      </trkpt>
      <trkpt lat="45.62048" lon="6.54354">
        <ele>2031</ele>
        <time>2025-02-20T11:02:38Z</time>
      </trkpt>
      <trkpt lat="45.62048" lon="6.54353">
        <ele>2031</ele>
        <time>2025-02-20T11:02:39Z</time>
      </trkpt>
      <trkpt lat="45.62048" lon="6.54353">
        <ele>2031</ele>
        <time>2025-02-20T11:02:40Z</time>
      </trkpt>
      <trkpt lat="45.62049" lon="6.54352">
        <ele>2031</ele>
        <time>2025-02-20T11:02:41Z</time>
      </trkpt>
      <trkpt lat="45.62049" lon="6.54351">
        <ele>2031</ele>
        <time>2025-02-20T11:02:42Z</time>
      </trkpt>
      <trkpt lat="45.62049" lon="6.5435">
        <ele>2031</ele>
        <time>2025-02-20T11:02:43Z</time>
      </trkpt>
      <trkpt lat="45.6205" lon="6.54349">
        <ele>2032</ele>
        <time>2025-02-20T11:02:44Z</time>
      </trkpt>
      <trkpt lat="45.6205" lon="6.54349">
        <ele>2032.8</ele>
        <time>2025-02-20T11:02:45Z</time>
      </trkpt>
      <trkpt lat="45.62051" lon="6.54348">
        <ele>2032.8</ele>
        <time>2025-02-20T11:02:46Z</time>
      </trkpt>
      <trkpt lat="45.62051" lon="6.54347">
        <ele>2032.8</ele>
        <time>2025-02-20T11:02:47Z</time>
      </trkpt>
      <trkpt lat="45.62051" lon="6.54346">
        <ele>2032.4</ele>
        <time>2025-02-20T11:02:48Z</time>
      </trkpt>
      <trkpt lat="45.62051" lon="6.54346">
        <ele>2032.2</ele>
        <time>2025-02-20T11:02:49Z</time>
      </trkpt>
      <trkpt lat="45.62051" lon="6.54346">
        <ele>2032.2</ele>
        <time>2025-02-20T11:02:50Z</time>
      </trkpt>
      <trkpt lat="45.62051" lon="6.54346">
        <ele>2032.2</ele>
        <time>2025-02-20T11:02:51Z</time>
      </trkpt>
      <trkpt lat="45.62051" lon="6.54346">
        <ele>2032.2</ele>
        <time>2025-02-20T11:02:52Z</time>
      </trkpt>
      <trkpt lat="45.62051" lon="6.54346">
        <ele>2032.2</ele>
        <time>2025-02-20T11:02:53Z</time>
      </trkpt>
      <trkpt lat="45.62051" lon="6.54346">
        <ele>2032.2</ele>
        <time>2025-02-20T11:02:54Z</time>
      </trkpt>
      <trkpt lat="45.62051" lon="6.54346">
        <ele>2032.2</ele>
        <time>2025-02-20T11:02:55Z</time>
      </trkpt>
      <trkpt lat="45.62052" lon="6.54347">
        <ele>2032.2</ele>
        <time>2025-02-20T11:02:56Z</time>
      </trkpt>
      <trkpt lat="45.62053" lon="6.54346">
        <ele>2032.4</ele>
        <time>2025-02-20T11:02:57Z</time>
      </trkpt>
      <trkpt lat="45.62053" lon="6.54345">
        <ele>2032.4</ele>
        <time>2025-02-20T11:02:58Z</time>
      </trkpt>
      <trkpt lat="45.62054" lon="6.54344">
        <ele>2032.4</ele>
        <time>2025-02-20T11:02:59Z</time>
      </trkpt>
      <trkpt lat="45.62055" lon="6.54343">
        <ele>2032.4</ele>
        <time>2025-02-20T11:03:00Z</time>
      </trkpt>
      <trkpt lat="45.62055" lon="6.54343">
        <ele>2032.4</ele>
        <time>2025-02-20T11:03:01Z</time>
      </trkpt>
      <trkpt lat="45.62055" lon="6.54342">
        <ele>2032.4</ele>
        <time>2025-02-20T11:03:02Z</time>
      </trkpt>
      <trkpt lat="45.62056" lon="6.54341">
        <ele>2032.4</ele>
        <time>2025-02-20T11:03:03Z</time>
      </trkpt>
      <trkpt lat="45.62056" lon="6.5434">
        <ele>2032.4</ele>
        <time>2025-02-20T11:03:04Z</time>
      </trkpt>
      <trkpt lat="45.62057" lon="6.54339">
        <ele>2033.2</ele>
        <time>2025-02-20T11:03:05Z</time>
      </trkpt>
      <trkpt lat="45.62057" lon="6.54338">
        <ele>2033.2</ele>
        <time>2025-02-20T11:03:06Z</time>
      </trkpt>
      <trkpt lat="45.62058" lon="6.54337">
        <ele>2033.2</ele>
        <time>2025-02-20T11:03:07Z</time>
      </trkpt>
      <trkpt lat="45.62058" lon="6.54336">
        <ele>2033.2</ele>
        <time>2025-02-20T11:03:08Z</time>
      </trkpt>
      <trkpt lat="45.62059" lon="6.54335">
        <ele>2033.4</ele>
        <time>2025-02-20T11:03:09Z</time>
      </trkpt>
      <trkpt lat="45.62059" lon="6.54334">
        <ele>2033.4</ele>
        <time>2025-02-20T11:03:10Z</time>
      </trkpt>
      <trkpt lat="45.6206" lon="6.54333">
        <ele>2033.4</ele>
        <time>2025-02-20T11:03:11Z</time>
      </trkpt>
      <trkpt lat="45.6206" lon="6.54332">
        <ele>2032.4</ele>
        <time>2025-02-20T11:03:12Z</time>
      </trkpt>
      <trkpt lat="45.62061" lon="6.54331">
        <ele>2033.2</ele>
        <time>2025-02-20T11:03:13Z</time>
      </trkpt>
      <trkpt lat="45.62061" lon="6.5433">
        <ele>2033.2</ele>
        <time>2025-02-20T11:03:14Z</time>
      </trkpt>
      <trkpt lat="45.62062" lon="6.54329">
        <ele>2033.2</ele>
        <time>2025-02-20T11:03:15Z</time>
      </trkpt>
      <trkpt lat="45.62062" lon="6.54328">
        <ele>2033.2</ele>
        <time>2025-02-20T11:03:16Z</time>
      </trkpt>
      <trkpt lat="45.62063" lon="6.54327">
        <ele>2032.4</ele>
        <time>2025-02-20T11:03:17Z</time>
      </trkpt>
      <trkpt lat="45.62063" lon="6.54326">
        <ele>2032.4</ele>
        <time>2025-02-20T11:03:18Z</time>
      </trkpt>
      <trkpt lat="45.62064" lon="6.54326">
        <ele>2032.4</ele>
        <time>2025-02-20T11:03:19Z</time>
      </trkpt>
      <trkpt lat="45.62064" lon="6.54325">
        <ele>2032.4</ele>
        <time>2025-02-20T11:03:20Z</time>
      </trkpt>
      <trkpt lat="45.62065" lon="6.54324">
        <ele>2033</ele>
        <time>2025-02-20T11:03:21Z</time>
      </trkpt>
      <trkpt lat="45.62065" lon="6.54323">
        <ele>2033</ele>
        <time>2025-02-20T11:03:22Z</time>
      </trkpt>
      <trkpt lat="45.62066" lon="6.54322">
        <ele>2033</ele>
        <time>2025-02-20T11:03:23Z</time>
      </trkpt>
      <trkpt lat="45.62067" lon="6.54322">
        <ele>2033.4</ele>
        <time>2025-02-20T11:03:24Z</time>
      </trkpt>
      <trkpt lat="45.62067" lon="6.54321">
        <ele>2033</ele>
        <time>2025-02-20T11:03:25Z</time>
      </trkpt>
      <trkpt lat="45.62068" lon="6.5432">
        <ele>2033</ele>
        <time>2025-02-20T11:03:26Z</time>
      </trkpt>
      <trkpt lat="45.62069" lon="6.54319">
        <ele>2033</ele>
        <time>2025-02-20T11:03:27Z</time>
      </trkpt>
      <trkpt lat="45.6207" lon="6.54318">
        <ele>2033</ele>
        <time>2025-02-20T11:03:28Z</time>
      </trkpt>
      <trkpt lat="45.6207" lon="6.54317">
        <ele>2033</ele>
        <time>2025-02-20T11:03:29Z</time>
      </trkpt>
      <trkpt lat="45.62071" lon="6.54316">
        <ele>2033</ele>
        <time>2025-02-20T11:03:30Z</time>
      </trkpt>
      <trkpt lat="45.62072" lon="6.54315">
        <ele>2033</ele>
        <time>2025-02-20T11:03:31Z</time>
      </trkpt>
      <trkpt lat="45.62073" lon="6.54314">
        <ele>2032.8</ele>
        <time>2025-02-20T11:03:32Z</time>
      </trkpt>
      <trkpt lat="45.62073" lon="6.54313">
        <ele>2031.8</ele>
        <time>2025-02-20T11:03:33Z</time>
      </trkpt>
      <trkpt lat="45.62073" lon="6.54313">
        <ele>2031.8</ele>
        <time>2025-02-20T11:03:34Z</time>
      </trkpt>
      <trkpt lat="45.62073" lon="6.54313">
        <ele>2031.8</ele>
        <time>2025-02-20T11:03:35Z</time>
      </trkpt>
      <trkpt lat="45.62074" lon="6.54313">
        <ele>2031.8</ele>
        <time>2025-02-20T11:03:36Z</time>
      </trkpt>
      <trkpt lat="45.62074" lon="6.54312">
        <ele>2033</ele>
        <time>2025-02-20T11:03:37Z</time>
      </trkpt>
      <trkpt lat="45.62075" lon="6.5431">
        <ele>2033</ele>
        <time>2025-02-20T11:03:38Z</time>
      </trkpt>
      <trkpt lat="45.62076" lon="6.54309">
        <ele>2033</ele>
        <time>2025-02-20T11:03:39Z</time>
      </trkpt>
      <trkpt lat="45.62077" lon="6.54308">
        <ele>2032.2</ele>
        <time>2025-02-20T11:03:40Z</time>
      </trkpt>
      <trkpt lat="45.62078" lon="6.54307">
        <ele>2032</ele>
        <time>2025-02-20T11:03:41Z</time>
      </trkpt>
      <trkpt lat="45.62078" lon="6.54305">
        <ele>2032</ele>
        <time>2025-02-20T11:03:42Z</time>
      </trkpt>
      <trkpt lat="45.6208" lon="6.54303">
        <ele>2032</ele>
        <time>2025-02-20T11:03:43Z</time>
      </trkpt>
      <trkpt lat="45.62081" lon="6.54301">
        <ele>2031.6</ele>
        <time>2025-02-20T11:03:44Z</time>
      </trkpt>
      <trkpt lat="45.62082" lon="6.54299">
        <ele>2031</ele>
        <time>2025-02-20T11:03:45Z</time>
      </trkpt>
      <trkpt lat="45.62084" lon="6.54297">
        <ele>2031</ele>
        <time>2025-02-20T11:03:46Z</time>
      </trkpt>
      <trkpt lat="45.62086" lon="6.54294">
        <ele>2031</ele>
        <time>2025-02-20T11:03:47Z</time>
      </trkpt>
      <trkpt lat="45.62088" lon="6.54291">
        <ele>2030</ele>
        <time>2025-02-20T11:03:48Z</time>
      </trkpt>
      <trkpt lat="45.62092" lon="6.54288">
        <ele>2029</ele>
        <time>2025-02-20T11:03:49Z</time>
      </trkpt>
      <trkpt lat="45.62095" lon="6.54285">
        <ele>2029</ele>
        <time>2025-02-20T11:03:50Z</time>
      </trkpt>
      <trkpt lat="45.62098" lon="6.54282">
        <ele>2029</ele>
        <time>2025-02-20T11:03:51Z</time>
      </trkpt>
      <trkpt lat="45.621" lon="6.54278">
        <ele>2028</ele>
        <time>2025-02-20T11:03:52Z</time>
      </trkpt>
      <trkpt lat="45.62101" lon="6.54275">
        <ele>2026.2</ele>
        <time>2025-02-20T11:03:53Z</time>
      </trkpt>
      <trkpt lat="45.62102" lon="6.54272">
        <ele>2026.2</ele>
        <time>2025-02-20T11:03:54Z</time>
      </trkpt>
      <trkpt lat="45.62103" lon="6.54269">
        <ele>2026.2</ele>
        <time>2025-02-20T11:03:55Z</time>
      </trkpt>
      <trkpt lat="45.62104" lon="6.54268">
        <ele>2025.2</ele>
        <time>2025-02-20T11:03:56Z</time>
      </trkpt>
      <trkpt lat="45.62104" lon="6.54267">
        <ele>2024.8</ele>
        <time>2025-02-20T11:03:57Z</time>
      </trkpt>
      <trkpt lat="45.62104" lon="6.54266">
        <ele>2024.8</ele>
        <time>2025-02-20T11:03:58Z</time>
      </trkpt>
      <trkpt lat="45.62104" lon="6.54265">
        <ele>2024.8</ele>
        <time>2025-02-20T11:03:59Z</time>
      </trkpt>
      <trkpt lat="45.62105" lon="6.54264">
        <ele>2024.8</ele>
        <time>2025-02-20T11:04:00Z</time>
      </trkpt>
      <trkpt lat="45.62105" lon="6.54263">
        <ele>2025</ele>
        <time>2025-02-20T11:04:01Z</time>
      </trkpt>
      <trkpt lat="45.62105" lon="6.54261">
        <ele>2025</ele>
        <time>2025-02-20T11:04:02Z</time>
      </trkpt>
      <trkpt lat="45.62106" lon="6.5426">
        <ele>2025</ele>
        <time>2025-02-20T11:04:03Z</time>
      </trkpt>
      <trkpt lat="45.62106" lon="6.54259">
        <ele>2025</ele>
        <time>2025-02-20T11:04:04Z</time>
      </trkpt>
      <trkpt lat="45.62106" lon="6.54257">
        <ele>2024.6</ele>
        <time>2025-02-20T11:04:05Z</time>
      </trkpt>
      <trkpt lat="45.62106" lon="6.54256">
        <ele>2024.6</ele>
        <time>2025-02-20T11:04:06Z</time>
      </trkpt>
      <trkpt lat="45.62107" lon="6.54255">
        <ele>2024.6</ele>
        <time>2025-02-20T11:04:07Z</time>
      </trkpt>
      <trkpt lat="45.62107" lon="6.54254">
        <ele>2025</ele>
        <time>2025-02-20T11:04:08Z</time>
      </trkpt>
      <trkpt lat="45.62107" lon="6.54253">
        <ele>2025.6</ele>
        <time>2025-02-20T11:04:09Z</time>
      </trkpt>
      <trkpt lat="45.62107" lon="6.54252">
        <ele>2025.6</ele>
        <time>2025-02-20T11:04:10Z</time>
      </trkpt>
      <trkpt lat="45.62107" lon="6.54251">
        <ele>2025.6</ele>
        <time>2025-02-20T11:04:11Z</time>
      </trkpt>
      <trkpt lat="45.62107" lon="6.54251">
        <ele>2025.6</ele>
        <time>2025-02-20T11:04:12Z</time>
      </trkpt>
      <trkpt lat="45.62107" lon="6.54251">
        <ele>2025.2</ele>
        <time>2025-02-20T11:04:13Z</time>
      </trkpt>
      <trkpt lat="45.62107" lon="6.54251">
        <ele>2025.2</ele>
        <time>2025-02-20T11:04:14Z</time>
      </trkpt>
      <trkpt lat="45.62107" lon="6.54251">
        <ele>2025.2</ele>
        <time>2025-02-20T11:04:15Z</time>
      </trkpt>
      <trkpt lat="45.62107" lon="6.54251">
        <ele>2025.2</ele>
        <time>2025-02-20T11:04:16Z</time>
      </trkpt>
      <trkpt lat="45.62107" lon="6.54251">
        <ele>2025.4</ele>
        <time>2025-02-20T11:04:17Z</time>
      </trkpt>
      <trkpt lat="45.62107" lon="6.5425">
        <ele>2025.4</ele>
        <time>2025-02-20T11:04:18Z</time>
      </trkpt>
      <trkpt lat="45.62107" lon="6.54248">
        <ele>2025.4</ele>
        <time>2025-02-20T11:04:19Z</time>
      </trkpt>
      <trkpt lat="45.62107" lon="6.54246">
        <ele>2025.4</ele>
        <time>2025-02-20T11:04:20Z</time>
      </trkpt>
      <trkpt lat="45.62107" lon="6.54244">
        <ele>2024.6</ele>
        <time>2025-02-20T11:04:21Z</time>
      </trkpt>
      <trkpt lat="45.62108" lon="6.54242">
        <ele>2024.6</ele>
        <time>2025-02-20T11:04:22Z</time>
      </trkpt>
      <trkpt lat="45.62108" lon="6.54241">
        <ele>2024.6</ele>
        <time>2025-02-20T11:04:23Z</time>
      </trkpt>
      <trkpt lat="45.62109" lon="6.54239">
        <ele>2024.8</ele>
        <time>2025-02-20T11:04:24Z</time>
      </trkpt>
      <trkpt lat="45.62109" lon="6.54238">
        <ele>2024.6</ele>
        <time>2025-02-20T11:04:25Z</time>
      </trkpt>
      <trkpt lat="45.62109" lon="6.54236">
        <ele>2024.6</ele>
        <time>2025-02-20T11:04:26Z</time>
      </trkpt>
      <trkpt lat="45.6211" lon="6.54235">
        <ele>2024.6</ele>
        <time>2025-02-20T11:04:27Z</time>
      </trkpt>
      <trkpt lat="45.6211" lon="6.54233">
        <ele>2024.6</ele>
        <time>2025-02-20T11:04:28Z</time>
      </trkpt>
      <trkpt lat="45.62111" lon="6.54231">
        <ele>2024.2</ele>
        <time>2025-02-20T11:04:29Z</time>
      </trkpt>
      <trkpt lat="45.62111" lon="6.5423">
        <ele>2024.2</ele>
        <time>2025-02-20T11:04:30Z</time>
      </trkpt>
      <trkpt lat="45.62111" lon="6.54229">
        <ele>2024.2</ele>
        <time>2025-02-20T11:04:31Z</time>
      </trkpt>
      <trkpt lat="45.62112" lon="6.54227">
        <ele>2025.2</ele>
        <time>2025-02-20T11:04:32Z</time>
      </trkpt>
      <trkpt lat="45.62112" lon="6.54226">
        <ele>2025.2</ele>
        <time>2025-02-20T11:04:33Z</time>
      </trkpt>
      <trkpt lat="45.62112" lon="6.54224">
        <ele>2025.2</ele>
        <time>2025-02-20T11:04:34Z</time>
      </trkpt>
      <trkpt lat="45.62112" lon="6.54223">
        <ele>2025.2</ele>
        <time>2025-02-20T11:04:35Z</time>
      </trkpt>
      <trkpt lat="45.62112" lon="6.54222">
        <ele>2025.2</ele>
        <time>2025-02-20T11:04:36Z</time>
      </trkpt>
      <trkpt lat="45.62113" lon="6.5422">
        <ele>2024.6</ele>
        <time>2025-02-20T11:04:37Z</time>
      </trkpt>
      <trkpt lat="45.62113" lon="6.54219">
        <ele>2024.6</ele>
        <time>2025-02-20T11:04:38Z</time>
      </trkpt>
      <trkpt lat="45.62113" lon="6.54217">
        <ele>2024.6</ele>
        <time>2025-02-20T11:04:39Z</time>
      </trkpt>
      <trkpt lat="45.62113" lon="6.54216">
        <ele>2025.4</ele>
        <time>2025-02-20T11:04:40Z</time>
      </trkpt>
      <trkpt lat="45.62113" lon="6.54215">
        <ele>2025.2</ele>
        <time>2025-02-20T11:04:41Z</time>
      </trkpt>
      <trkpt lat="45.62114" lon="6.54213">
        <ele>2025.2</ele>
        <time>2025-02-20T11:04:42Z</time>
      </trkpt>
      <trkpt lat="45.62114" lon="6.54211">
        <ele>2025.2</ele>
        <time>2025-02-20T11:04:43Z</time>
      </trkpt>
      <trkpt lat="45.62114" lon="6.5421">
        <ele>2025.2</ele>
        <time>2025-02-20T11:04:44Z</time>
      </trkpt>
      <trkpt lat="45.62114" lon="6.54208">
        <ele>2025.2</ele>
        <time>2025-02-20T11:04:45Z</time>
      </trkpt>
      <trkpt lat="45.62115" lon="6.54207">
        <ele>2025.2</ele>
        <time>2025-02-20T11:04:46Z</time>
      </trkpt>
      <trkpt lat="45.62115" lon="6.54206">
        <ele>2025.2</ele>
        <time>2025-02-20T11:04:47Z</time>
      </trkpt>
      <trkpt lat="45.62115" lon="6.54206">
        <ele>2025.2</ele>
        <time>2025-02-20T11:04:48Z</time>
      </trkpt>
      <trkpt lat="45.62115" lon="6.54206">
        <ele>2024.4</ele>
        <time>2025-02-20T11:04:49Z</time>
      </trkpt>
      <trkpt lat="45.62115" lon="6.54206">
        <ele>2024.4</ele>
        <time>2025-02-20T11:04:50Z</time>
      </trkpt>
      <trkpt lat="45.62115" lon="6.54206">
        <ele>2024.4</ele>
        <time>2025-02-20T11:04:51Z</time>
      </trkpt>
      <trkpt lat="45.62115" lon="6.54206">
        <ele>2025</ele>
        <time>2025-02-20T11:04:52Z</time>
      </trkpt>
      <trkpt lat="45.62115" lon="6.54206">
        <ele>2024.6</ele>
        <time>2025-02-20T11:04:53Z</time>
      </trkpt>
      <trkpt lat="45.62115" lon="6.54206">
        <ele>2024.6</ele>
        <time>2025-02-20T11:04:54Z</time>
      </trkpt>
      <trkpt lat="45.62115" lon="6.54206">
        <ele>2024.6</ele>
        <time>2025-02-20T11:04:55Z</time>
      </trkpt>
      <trkpt lat="45.62115" lon="6.54206">
        <ele>2025.6</ele>
        <time>2025-02-20T11:04:56Z</time>
      </trkpt>
      <trkpt lat="45.62115" lon="6.54206">
        <ele>2025.2</ele>
        <time>2025-02-20T11:04:57Z</time>
      </trkpt>
      <trkpt lat="45.62115" lon="6.54204">
        <ele>2025.2</ele>
        <time>2025-02-20T11:04:58Z</time>
      </trkpt>
      <trkpt lat="45.62115" lon="6.54202">
        <ele>2025.2</ele>
        <time>2025-02-20T11:04:59Z</time>
      </trkpt>
      <trkpt lat="45.62115" lon="6.54201">
        <ele>2025.2</ele>
        <time>2025-02-20T11:05:00Z</time>
      </trkpt>
      <trkpt lat="45.62115" lon="6.54199">
        <ele>2025.8</ele>
        <time>2025-02-20T11:05:01Z</time>
      </trkpt>
      <trkpt lat="45.62115" lon="6.54198">
        <ele>2025.8</ele>
        <time>2025-02-20T11:05:02Z</time>
      </trkpt>
      <trkpt lat="45.62115" lon="6.54196">
        <ele>2025.8</ele>
        <time>2025-02-20T11:05:03Z</time>
      </trkpt>
      <trkpt lat="45.62115" lon="6.54194">
        <ele>2024.8</ele>
        <time>2025-02-20T11:05:04Z</time>
      </trkpt>
      <trkpt lat="45.62115" lon="6.54193">
        <ele>2025.8</ele>
        <time>2025-02-20T11:05:05Z</time>
      </trkpt>
      <trkpt lat="45.62115" lon="6.54191">
        <ele>2025.8</ele>
        <time>2025-02-20T11:05:06Z</time>
      </trkpt>
      <trkpt lat="45.62115" lon="6.5419">
        <ele>2025.8</ele>
        <time>2025-02-20T11:05:07Z</time>
      </trkpt>
      <trkpt lat="45.62115" lon="6.54188">
        <ele>2025.8</ele>
        <time>2025-02-20T11:05:08Z</time>
      </trkpt>
      <trkpt lat="45.62115" lon="6.54186">
        <ele>2026</ele>
        <time>2025-02-20T11:05:09Z</time>
      </trkpt>
      <trkpt lat="45.62115" lon="6.54184">
        <ele>2026</ele>
        <time>2025-02-20T11:05:10Z</time>
      </trkpt>
      <trkpt lat="45.62115" lon="6.54183">
        <ele>2026</ele>
        <time>2025-02-20T11:05:11Z</time>
      </trkpt>
      <trkpt lat="45.62115" lon="6.54182">
        <ele>2025.6</ele>
        <time>2025-02-20T11:05:12Z</time>
      </trkpt>
      <trkpt lat="45.62116" lon="6.5418">
        <ele>2026.4</ele>
        <time>2025-02-20T11:05:13Z</time>
      </trkpt>
      <trkpt lat="45.62116" lon="6.54179">
        <ele>2026.4</ele>
        <time>2025-02-20T11:05:14Z</time>
      </trkpt>
      <trkpt lat="45.62116" lon="6.54178">
        <ele>2026.4</ele>
        <time>2025-02-20T11:05:15Z</time>
      </trkpt>
      <trkpt lat="45.62116" lon="6.54176">
        <ele>2026.4</ele>
        <time>2025-02-20T11:05:16Z</time>
      </trkpt>
      <trkpt lat="45.62117" lon="6.54175">
        <ele>2026</ele>
        <time>2025-02-20T11:05:17Z</time>
      </trkpt>
      <trkpt lat="45.62117" lon="6.54174">
        <ele>2026</ele>
        <time>2025-02-20T11:05:18Z</time>
      </trkpt>
      <trkpt lat="45.62117" lon="6.54172">
        <ele>2026</ele>
        <time>2025-02-20T11:05:19Z</time>
      </trkpt>
      <trkpt lat="45.62118" lon="6.54171">
        <ele>2025.2</ele>
        <time>2025-02-20T11:05:20Z</time>
      </trkpt>
      <trkpt lat="45.62118" lon="6.54169">
        <ele>2026.2</ele>
        <time>2025-02-20T11:05:21Z</time>
      </trkpt>
      <trkpt lat="45.62118" lon="6.54168">
        <ele>2026.2</ele>
        <time>2025-02-20T11:05:22Z</time>
      </trkpt>
      <trkpt lat="45.62118" lon="6.54167">
        <ele>2026.2</ele>
        <time>2025-02-20T11:05:23Z</time>
      </trkpt>
      <trkpt lat="45.62119" lon="6.54166">
        <ele>2025.4</ele>
        <time>2025-02-20T11:05:24Z</time>
      </trkpt>
      <trkpt lat="45.62119" lon="6.54164">
        <ele>2026</ele>
        <time>2025-02-20T11:05:25Z</time>
      </trkpt>
      <trkpt lat="45.6212" lon="6.54163">
        <ele>2026</ele>
        <time>2025-02-20T11:05:26Z</time>
      </trkpt>
      <trkpt lat="45.62119" lon="6.54162">
        <ele>2026</ele>
        <time>2025-02-20T11:05:27Z</time>
      </trkpt>
      <trkpt lat="45.6212" lon="6.5416">
        <ele>2026</ele>
        <time>2025-02-20T11:05:28Z</time>
      </trkpt>
      <trkpt lat="45.6212" lon="6.54159">
        <ele>2025.6</ele>
        <time>2025-02-20T11:05:29Z</time>
      </trkpt>
      <trkpt lat="45.6212" lon="6.54158">
        <ele>2025.6</ele>
        <time>2025-02-20T11:05:30Z</time>
      </trkpt>
      <trkpt lat="45.6212" lon="6.54156">
        <ele>2025.6</ele>
        <time>2025-02-20T11:05:31Z</time>
      </trkpt>
      <trkpt lat="45.6212" lon="6.54155">
        <ele>2025.6</ele>
        <time>2025-02-20T11:05:32Z</time>
      </trkpt>
      <trkpt lat="45.62121" lon="6.54153">
        <ele>2024.6</ele>
        <time>2025-02-20T11:05:33Z</time>
      </trkpt>
      <trkpt lat="45.62121" lon="6.54152">
        <ele>2024.6</ele>
        <time>2025-02-20T11:05:34Z</time>
      </trkpt>
      <trkpt lat="45.62121" lon="6.54151">
        <ele>2024.6</ele>
        <time>2025-02-20T11:05:35Z</time>
      </trkpt>
      <trkpt lat="45.62122" lon="6.54149">
        <ele>2025.2</ele>
        <time>2025-02-20T11:05:36Z</time>
      </trkpt>
      <trkpt lat="45.62122" lon="6.54148">
        <ele>2025.6</ele>
        <time>2025-02-20T11:05:37Z</time>
      </trkpt>
      <trkpt lat="45.62122" lon="6.54147">
        <ele>2025.6</ele>
        <time>2025-02-20T11:05:38Z</time>
      </trkpt>
      <trkpt lat="45.62123" lon="6.54145">
        <ele>2025.6</ele>
        <time>2025-02-20T11:05:39Z</time>
      </trkpt>
      <trkpt lat="45.62123" lon="6.54144">
        <ele>2025.6</ele>
        <time>2025-02-20T11:05:40Z</time>
      </trkpt>
      <trkpt lat="45.62123" lon="6.54142">
        <ele>2024.8</ele>
        <time>2025-02-20T11:05:41Z</time>
      </trkpt>
      <trkpt lat="45.62124" lon="6.54141">
        <ele>2024.8</ele>
        <time>2025-02-20T11:05:42Z</time>
      </trkpt>
      <trkpt lat="45.62124" lon="6.5414">
        <ele>2024.8</ele>
        <time>2025-02-20T11:05:43Z</time>
      </trkpt>
      <trkpt lat="45.62124" lon="6.54138">
        <ele>2025.8</ele>
        <time>2025-02-20T11:05:44Z</time>
      </trkpt>
      <trkpt lat="45.62124" lon="6.54137">
        <ele>2025.8</ele>
        <time>2025-02-20T11:05:45Z</time>
      </trkpt>
      <trkpt lat="45.62125" lon="6.54136">
        <ele>2025.8</ele>
        <time>2025-02-20T11:05:46Z</time>
      </trkpt>
      <trkpt lat="45.62125" lon="6.54134">
        <ele>2025.8</ele>
        <time>2025-02-20T11:05:47Z</time>
      </trkpt>
      <trkpt lat="45.62125" lon="6.54133">
        <ele>2025.8</ele>
        <time>2025-02-20T11:05:48Z</time>
      </trkpt>
      <trkpt lat="45.62126" lon="6.54131">
        <ele>2024.6</ele>
        <time>2025-02-20T11:05:49Z</time>
      </trkpt>
      <trkpt lat="45.62126" lon="6.5413">
        <ele>2024.6</ele>
        <time>2025-02-20T11:05:50Z</time>
      </trkpt>
      <trkpt lat="45.62126" lon="6.54128">
        <ele>2024.6</ele>
        <time>2025-02-20T11:05:51Z</time>
      </trkpt>
      <trkpt lat="45.62127" lon="6.54127">
        <ele>2025.6</ele>
        <time>2025-02-20T11:05:52Z</time>
      </trkpt>
      <trkpt lat="45.62127" lon="6.54126">
        <ele>2025.2</ele>
        <time>2025-02-20T11:05:53Z</time>
      </trkpt>
      <trkpt lat="45.62128" lon="6.54124">
        <ele>2025.2</ele>
        <time>2025-02-20T11:05:54Z</time>
      </trkpt>
      <trkpt lat="45.62128" lon="6.54123">
        <ele>2025.2</ele>
        <time>2025-02-20T11:05:55Z</time>
      </trkpt>
      <trkpt lat="45.62128" lon="6.54122">
        <ele>2025.2</ele>
        <time>2025-02-20T11:05:56Z</time>
      </trkpt>
      <trkpt lat="45.62129" lon="6.54121">
        <ele>2025</ele>
        <time>2025-02-20T11:05:57Z</time>
      </trkpt>
      <trkpt lat="45.62129" lon="6.54119">
        <ele>2025</ele>
        <time>2025-02-20T11:05:58Z</time>
      </trkpt>
      <trkpt lat="45.62129" lon="6.54118">
        <ele>2025</ele>
        <time>2025-02-20T11:05:59Z</time>
      </trkpt>
      <trkpt lat="45.6213" lon="6.54117">
        <ele>2026</ele>
        <time>2025-02-20T11:06:00Z</time>
      </trkpt>
      <trkpt lat="45.6213" lon="6.54115">
        <ele>2024.4</ele>
        <time>2025-02-20T11:06:01Z</time>
      </trkpt>
      <trkpt lat="45.6213" lon="6.54114">
        <ele>2024.4</ele>
        <time>2025-02-20T11:06:02Z</time>
      </trkpt>
      <trkpt lat="45.62131" lon="6.54113">
        <ele>2024.4</ele>
        <time>2025-02-20T11:06:03Z</time>
      </trkpt>
      <trkpt lat="45.62131" lon="6.54112">
        <ele>2024.4</ele>
        <time>2025-02-20T11:06:04Z</time>
      </trkpt>
      <trkpt lat="45.62131" lon="6.5411">
        <ele>2025</ele>
        <time>2025-02-20T11:06:05Z</time>
      </trkpt>
      <trkpt lat="45.62132" lon="6.54109">
        <ele>2025</ele>
        <time>2025-02-20T11:06:06Z</time>
      </trkpt>
      <trkpt lat="45.62132" lon="6.54108">
        <ele>2025</ele>
        <time>2025-02-20T11:06:07Z</time>
      </trkpt>
      <trkpt lat="45.62132" lon="6.54106">
        <ele>2026</ele>
        <time>2025-02-20T11:06:08Z</time>
      </trkpt>
      <trkpt lat="45.62133" lon="6.54105">
        <ele>2026</ele>
        <time>2025-02-20T11:06:09Z</time>
      </trkpt>
      <trkpt lat="45.62133" lon="6.54104">
        <ele>2026</ele>
        <time>2025-02-20T11:06:10Z</time>
      </trkpt>
      <trkpt lat="45.62133" lon="6.54102">
        <ele>2026</ele>
        <time>2025-02-20T11:06:11Z</time>
      </trkpt>
      <trkpt lat="45.62134" lon="6.54101">
        <ele>2025.2</ele>
        <time>2025-02-20T11:06:12Z</time>
      </trkpt>
      <trkpt lat="45.62134" lon="6.541">
        <ele>2026</ele>
        <time>2025-02-20T11:06:13Z</time>
      </trkpt>
      <trkpt lat="45.62134" lon="6.54098">
        <ele>2026</ele>
        <time>2025-02-20T11:06:14Z</time>
      </trkpt>
      <trkpt lat="45.62134" lon="6.54097">
        <ele>2026</ele>
        <time>2025-02-20T11:06:15Z</time>
      </trkpt>
      <trkpt lat="45.62135" lon="6.54096">
        <ele>2025.4</ele>
        <time>2025-02-20T11:06:16Z</time>
      </trkpt>
      <trkpt lat="45.62135" lon="6.54094">
        <ele>2024.6</ele>
        <time>2025-02-20T11:06:17Z</time>
      </trkpt>
      <trkpt lat="45.62135" lon="6.54093">
        <ele>2024.6</ele>
        <time>2025-02-20T11:06:18Z</time>
      </trkpt>
      <trkpt lat="45.62135" lon="6.54091">
        <ele>2024.6</ele>
        <time>2025-02-20T11:06:19Z</time>
      </trkpt>
      <trkpt lat="45.62136" lon="6.5409">
        <ele>2024.8</ele>
        <time>2025-02-20T11:06:20Z</time>
      </trkpt>
      <trkpt lat="45.62136" lon="6.54089">
        <ele>2024</ele>
        <time>2025-02-20T11:06:21Z</time>
      </trkpt>
      <trkpt lat="45.62136" lon="6.54088">
        <ele>2024</ele>
        <time>2025-02-20T11:06:22Z</time>
      </trkpt>
      <trkpt lat="45.62136" lon="6.54086">
        <ele>2024</ele>
        <time>2025-02-20T11:06:23Z</time>
      </trkpt>
      <trkpt lat="45.62136" lon="6.54086">
        <ele>2024</ele>
        <time>2025-02-20T11:06:24Z</time>
      </trkpt>
      <trkpt lat="45.62136" lon="6.54084">
        <ele>2025</ele>
        <time>2025-02-20T11:06:25Z</time>
      </trkpt>
      <trkpt lat="45.62136" lon="6.54084">
        <ele>2025</ele>
        <time>2025-02-20T11:06:26Z</time>
      </trkpt>
      <trkpt lat="45.62137" lon="6.54083">
        <ele>2025</ele>
        <time>2025-02-20T11:06:27Z</time>
      </trkpt>
      <trkpt lat="45.62137" lon="6.54082">
        <ele>2025.8</ele>
        <time>2025-02-20T11:06:28Z</time>
      </trkpt>
      <trkpt lat="45.62136" lon="6.54081">
        <ele>2025.8</ele>
        <time>2025-02-20T11:06:29Z</time>
      </trkpt>
      <trkpt lat="45.62136" lon="6.5408">
        <ele>2025.8</ele>
        <time>2025-02-20T11:06:30Z</time>
      </trkpt>
      <trkpt lat="45.62137" lon="6.5408">
        <ele>2025.8</ele>
        <time>2025-02-20T11:06:31Z</time>
      </trkpt>
      <trkpt lat="45.62137" lon="6.54079">
        <ele>2025.8</ele>
        <time>2025-02-20T11:06:32Z</time>
      </trkpt>
      <trkpt lat="45.62137" lon="6.54078">
        <ele>2026.4</ele>
        <time>2025-02-20T11:06:33Z</time>
      </trkpt>
      <trkpt lat="45.62137" lon="6.54077">
        <ele>2026.4</ele>
        <time>2025-02-20T11:06:34Z</time>
      </trkpt>
      <trkpt lat="45.62137" lon="6.54077">
        <ele>2026.4</ele>
        <time>2025-02-20T11:06:35Z</time>
      </trkpt>
      <trkpt lat="45.62137" lon="6.54077">
        <ele>2026.4</ele>
        <time>2025-02-20T11:06:36Z</time>
      </trkpt>
      <trkpt lat="45.62137" lon="6.54077">
        <ele>2026.6</ele>
        <time>2025-02-20T11:06:37Z</time>
      </trkpt>
      <trkpt lat="45.62137" lon="6.54077">
        <ele>2026.6</ele>
        <time>2025-02-20T11:06:38Z</time>
      </trkpt>
      <trkpt lat="45.62137" lon="6.54077">
        <ele>2026.6</ele>
        <time>2025-02-20T11:06:39Z</time>
      </trkpt>
      <trkpt lat="45.62137" lon="6.54077">
        <ele>2026.8</ele>
        <time>2025-02-20T11:06:40Z</time>
      </trkpt>
      <trkpt lat="45.62137" lon="6.54077">
        <ele>2027.4</ele>
        <time>2025-02-20T11:06:41Z</time>
      </trkpt>
      <trkpt lat="45.62137" lon="6.54077">
        <ele>2027.4</ele>
        <time>2025-02-20T11:06:42Z</time>
      </trkpt>
      <trkpt lat="45.62137" lon="6.54077">
        <ele>2027.4</ele>
        <time>2025-02-20T11:06:43Z</time>
      </trkpt>
      <trkpt lat="45.62137" lon="6.54077">
        <ele>2027.2</ele>
        <time>2025-02-20T11:06:44Z</time>
      </trkpt>
      <trkpt lat="45.62137" lon="6.54077">
        <ele>2026.6</ele>
        <time>2025-02-20T11:06:45Z</time>
      </trkpt>
      <trkpt lat="45.62137" lon="6.54077">
        <ele>2026.6</ele>
        <time>2025-02-20T11:06:46Z</time>
      </trkpt>
      <trkpt lat="45.62137" lon="6.54077">
        <ele>2026.6</ele>
        <time>2025-02-20T11:06:47Z</time>
      </trkpt>
      <trkpt lat="45.62137" lon="6.54077">
        <ele>2026.8</ele>
        <time>2025-02-20T11:06:48Z</time>
      </trkpt>
      <trkpt lat="45.62137" lon="6.54077">
        <ele>2026.8</ele>
        <time>2025-02-20T11:06:49Z</time>
      </trkpt>
      <trkpt lat="45.62137" lon="6.54077">
        <ele>2026.8</ele>
        <time>2025-02-20T11:06:50Z</time>
      </trkpt>
      <trkpt lat="45.62137" lon="6.54077">
        <ele>2026.8</ele>
        <time>2025-02-20T11:06:51Z</time>
      </trkpt>
      <trkpt lat="45.62138" lon="6.54077">
        <ele>2026.8</ele>
        <time>2025-02-20T11:06:52Z</time>
      </trkpt>
      <trkpt lat="45.62138" lon="6.54076">
        <ele>2028</ele>
        <time>2025-02-20T11:06:53Z</time>
      </trkpt>
      <trkpt lat="45.62137" lon="6.54075">
        <ele>2028</ele>
        <time>2025-02-20T11:06:54Z</time>
      </trkpt>
      <trkpt lat="45.62138" lon="6.54073">
        <ele>2028</ele>
        <time>2025-02-20T11:06:55Z</time>
      </trkpt>
      <trkpt lat="45.62138" lon="6.54072">
        <ele>2027</ele>
        <time>2025-02-20T11:06:56Z</time>
      </trkpt>
      <trkpt lat="45.62138" lon="6.5407">
        <ele>2025.8</ele>
        <time>2025-02-20T11:06:57Z</time>
      </trkpt>
      <trkpt lat="45.62138" lon="6.5407">
        <ele>2025.8</ele>
        <time>2025-02-20T11:06:58Z</time>
      </trkpt>
      <trkpt lat="45.62138" lon="6.5407">
        <ele>2025.8</ele>
        <time>2025-02-20T11:06:59Z</time>
      </trkpt>
      <trkpt lat="45.62138" lon="6.5407">
        <ele>2026.8</ele>
        <time>2025-02-20T11:07:00Z</time>
      </trkpt>
      <trkpt lat="45.62138" lon="6.5407">
        <ele>2027.2</ele>
        <time>2025-02-20T11:07:01Z</time>
      </trkpt>
      <trkpt lat="45.62138" lon="6.5407">
        <ele>2027.2</ele>
        <time>2025-02-20T11:07:02Z</time>
      </trkpt>
      <trkpt lat="45.62138" lon="6.5407">
        <ele>2027.2</ele>
        <time>2025-02-20T11:07:03Z</time>
      </trkpt>
      <trkpt lat="45.62138" lon="6.5407">
        <ele>2027.2</ele>
        <time>2025-02-20T11:07:04Z</time>
      </trkpt>
      <trkpt lat="45.62138" lon="6.5407">
        <ele>2027.4</ele>
        <time>2025-02-20T11:07:05Z</time>
      </trkpt>
      <trkpt lat="45.62138" lon="6.5407">
        <ele>2027.4</ele>
        <time>2025-02-20T11:07:06Z</time>
      </trkpt>
      <trkpt lat="45.62138" lon="6.5407">
        <ele>2027.4</ele>
        <time>2025-02-20T11:07:07Z</time>
      </trkpt>
      <trkpt lat="45.62138" lon="6.5407">
        <ele>2027.4</ele>
        <time>2025-02-20T11:07:08Z</time>
      </trkpt>
      <trkpt lat="45.62138" lon="6.5407">
        <ele>2027</ele>
        <time>2025-02-20T11:07:09Z</time>
      </trkpt>
      <trkpt lat="45.62138" lon="6.5407">
        <ele>2027</ele>
        <time>2025-02-20T11:07:10Z</time>
      </trkpt>
      <trkpt lat="45.62138" lon="6.5407">
        <ele>2027</ele>
        <time>2025-02-20T11:07:11Z</time>
      </trkpt>
      <trkpt lat="45.62138" lon="6.5407">
        <ele>2027.6</ele>
        <time>2025-02-20T11:07:12Z</time>
      </trkpt>
      <trkpt lat="45.62138" lon="6.5407">
        <ele>2027.6</ele>
        <time>2025-02-20T11:07:13Z</time>
      </trkpt>
      <trkpt lat="45.62138" lon="6.5407">
        <ele>2027.6</ele>
        <time>2025-02-20T11:07:14Z</time>
      </trkpt>
      <trkpt lat="45.62138" lon="6.5407">
        <ele>2027.6</ele>
        <time>2025-02-20T11:07:15Z</time>
      </trkpt>
      <trkpt lat="45.62138" lon="6.5407">
        <ele>2027.6</ele>
        <time>2025-02-20T11:07:16Z</time>
      </trkpt>
      <trkpt lat="45.62138" lon="6.5407">
        <ele>2027.6</ele>
        <time>2025-02-20T11:07:17Z</time>
      </trkpt>
      <trkpt lat="45.62138" lon="6.5407">
        <ele>2027.6</ele>
        <time>2025-02-20T11:07:18Z</time>
      </trkpt>
      <trkpt lat="45.62138" lon="6.5407">
        <ele>2027.6</ele>
        <time>2025-02-20T11:07:19Z</time>
      </trkpt>
      <trkpt lat="45.62138" lon="6.5407">
        <ele>2027.2</ele>
        <time>2025-02-20T11:07:20Z</time>
      </trkpt>
      <trkpt lat="45.62138" lon="6.5407">
        <ele>2027.6</ele>
        <time>2025-02-20T11:07:21Z</time>
      </trkpt>
      <trkpt lat="45.62138" lon="6.5407">
        <ele>2027.6</ele>
        <time>2025-02-20T11:07:22Z</time>
      </trkpt>
      <trkpt lat="45.62138" lon="6.5407">
        <ele>2027.6</ele>
        <time>2025-02-20T11:07:23Z</time>
      </trkpt>
      <trkpt lat="45.62138" lon="6.5407">
        <ele>2027.6</ele>
        <time>2025-02-20T11:07:24Z</time>
      </trkpt>
      <trkpt lat="45.62138" lon="6.5407">
        <ele>2027.6</ele>
        <time>2025-02-20T11:07:25Z</time>
      </trkpt>
      <trkpt lat="45.62138" lon="6.5407">
        <ele>2027.6</ele>
        <time>2025-02-20T11:07:26Z</time>
      </trkpt>
      <trkpt lat="45.62138" lon="6.5407">
        <ele>2027.6</ele>
        <time>2025-02-20T11:07:27Z</time>
      </trkpt>
      <trkpt lat="45.62138" lon="6.5407">
        <ele>2027.4</ele>
        <time>2025-02-20T11:07:28Z</time>
      </trkpt>
      <trkpt lat="45.62138" lon="6.5407">
        <ele>2027</ele>
        <time>2025-02-20T11:07:29Z</time>
      </trkpt>
      <trkpt lat="45.62138" lon="6.5407">
        <ele>2027</ele>
        <time>2025-02-20T11:07:30Z</time>
      </trkpt>
      <trkpt lat="45.62138" lon="6.5407">
        <ele>2027</ele>
        <time>2025-02-20T11:07:31Z</time>
      </trkpt>
      <trkpt lat="45.62138" lon="6.5407">
        <ele>2027.2</ele>
        <time>2025-02-20T11:07:32Z</time>
      </trkpt>
      <trkpt lat="45.62138" lon="6.5407">
        <ele>2027.6</ele>
        <time>2025-02-20T11:07:33Z</time>
      </trkpt>
      <trkpt lat="45.62138" lon="6.5407">
        <ele>2027.6</ele>
        <time>2025-02-20T11:07:34Z</time>
      </trkpt>
      <trkpt lat="45.62138" lon="6.5407">
        <ele>2027.6</ele>
        <time>2025-02-20T11:07:35Z</time>
      </trkpt>
      <trkpt lat="45.62138" lon="6.5407">
        <ele>2027</ele>
        <time>2025-02-20T11:07:36Z</time>
      </trkpt>
      <trkpt lat="45.62138" lon="6.5407">
        <ele>2027.2</ele>
        <time>2025-02-20T11:07:37Z</time>
      </trkpt>
      <trkpt lat="45.62138" lon="6.5407">
        <ele>2027.2</ele>
        <time>2025-02-20T11:07:38Z</time>
      </trkpt>
      <trkpt lat="45.62138" lon="6.5407">
        <ele>2027.2</ele>
        <time>2025-02-20T11:07:39Z</time>
      </trkpt>
      <trkpt lat="45.62138" lon="6.5407">
        <ele>2027.2</ele>
        <time>2025-02-20T11:07:40Z</time>
      </trkpt>
      <trkpt lat="45.62138" lon="6.5407">
        <ele>2027.2</ele>
        <time>2025-02-20T11:07:41Z</time>
      </trkpt>
      <trkpt lat="45.62138" lon="6.5407">
        <ele>2027.2</ele>
        <time>2025-02-20T11:07:42Z</time>
      </trkpt>
      <trkpt lat="45.62138" lon="6.5407">
        <ele>2027.2</ele>
        <time>2025-02-20T11:07:43Z</time>
      </trkpt>
      <trkpt lat="45.62138" lon="6.5407">
        <ele>2027.2</ele>
        <time>2025-02-20T11:07:44Z</time>
      </trkpt>
      <trkpt lat="45.62138" lon="6.5407">
        <ele>2027.4</ele>
        <time>2025-02-20T11:07:45Z</time>
      </trkpt>
      <trkpt lat="45.62138" lon="6.5407">
        <ele>2027.4</ele>
        <time>2025-02-20T11:07:46Z</time>
      </trkpt>
      <trkpt lat="45.62138" lon="6.5407">
        <ele>2027.4</ele>
        <time>2025-02-20T11:07:47Z</time>
      </trkpt>
      <trkpt lat="45.62138" lon="6.5407">
        <ele>2027.4</ele>
        <time>2025-02-20T11:07:48Z</time>
      </trkpt>
      <trkpt lat="45.62138" lon="6.5407">
        <ele>2027.6</ele>
        <time>2025-02-20T11:07:49Z</time>
      </trkpt>
      <trkpt lat="45.62138" lon="6.5407">
        <ele>2027.6</ele>
        <time>2025-02-20T11:07:50Z</time>
      </trkpt>
      <trkpt lat="45.62138" lon="6.5407">
        <ele>2027.6</ele>
        <time>2025-02-20T11:07:51Z</time>
      </trkpt>
      <trkpt lat="45.62138" lon="6.5407">
        <ele>2027.6</ele>
        <time>2025-02-20T11:07:52Z</time>
      </trkpt>
      <trkpt lat="45.62138" lon="6.5407">
        <ele>2027.6</ele>
        <time>2025-02-20T11:07:53Z</time>
      </trkpt>
      <trkpt lat="45.62138" lon="6.5407">
        <ele>2027.6</ele>
        <time>2025-02-20T11:07:54Z</time>
      </trkpt>
      <trkpt lat="45.62138" lon="6.5407">
        <ele>2027.6</ele>
        <time>2025-02-20T11:07:55Z</time>
      </trkpt>
      <trkpt lat="45.62138" lon="6.5407">
        <ele>2027.6</ele>
        <time>2025-02-20T11:07:56Z</time>
      </trkpt>
      <trkpt lat="45.62138" lon="6.5407">
        <ele>2027.2</ele>
        <time>2025-02-20T11:07:57Z</time>
      </trkpt>
      <trkpt lat="45.62138" lon="6.54067">
        <ele>2027.2</ele>
        <time>2025-02-20T11:07:58Z</time>
      </trkpt>
      <trkpt lat="45.62138" lon="6.54067">
        <ele>2027.2</ele>
        <time>2025-02-20T11:07:59Z</time>
      </trkpt>
      <trkpt lat="45.62138" lon="6.54067">
        <ele>2027.2</ele>
        <time>2025-02-20T11:08:00Z</time>
      </trkpt>
      <trkpt lat="45.62138" lon="6.54067">
        <ele>2027.2</ele>
        <time>2025-02-20T11:08:01Z</time>
      </trkpt>
      <trkpt lat="45.62138" lon="6.54067">
        <ele>2027.2</ele>
        <time>2025-02-20T11:08:02Z</time>
      </trkpt>
      <trkpt lat="45.62138" lon="6.54067">
        <ele>2027.2</ele>
        <time>2025-02-20T11:08:03Z</time>
      </trkpt>
      <trkpt lat="45.62138" lon="6.54067">
        <ele>2027.2</ele>
        <time>2025-02-20T11:08:04Z</time>
      </trkpt>
      <trkpt lat="45.62138" lon="6.54067">
        <ele>2027.4</ele>
        <time>2025-02-20T11:08:05Z</time>
      </trkpt>
      <trkpt lat="45.62138" lon="6.54067">
        <ele>2027.4</ele>
        <time>2025-02-20T11:08:06Z</time>
      </trkpt>
      <trkpt lat="45.62138" lon="6.54067">
        <ele>2027.4</ele>
        <time>2025-02-20T11:08:07Z</time>
      </trkpt>
      <trkpt lat="45.62138" lon="6.54067">
        <ele>2026.8</ele>
        <time>2025-02-20T11:08:08Z</time>
      </trkpt>
      <trkpt lat="45.62138" lon="6.54067">
        <ele>2027.2</ele>
        <time>2025-02-20T11:08:09Z</time>
      </trkpt>
      <trkpt lat="45.62138" lon="6.54067">
        <ele>2027.2</ele>
        <time>2025-02-20T11:08:10Z</time>
      </trkpt>
      <trkpt lat="45.62138" lon="6.54067">
        <ele>2027.2</ele>
        <time>2025-02-20T11:08:11Z</time>
      </trkpt>
      <trkpt lat="45.62138" lon="6.54067">
        <ele>2027.2</ele>
        <time>2025-02-20T11:08:12Z</time>
      </trkpt>
      <trkpt lat="45.62138" lon="6.54067">
        <ele>2027</ele>
        <time>2025-02-20T11:08:13Z</time>
      </trkpt>
      <trkpt lat="45.62139" lon="6.54064">
        <ele>2027</ele>
        <time>2025-02-20T11:08:14Z</time>
      </trkpt>
      <trkpt lat="45.62139" lon="6.54062">
        <ele>2027</ele>
        <time>2025-02-20T11:08:15Z</time>
      </trkpt>
      <trkpt lat="45.62139" lon="6.54061">
        <ele>2027</ele>
        <time>2025-02-20T11:08:16Z</time>
      </trkpt>
      <trkpt lat="45.62139" lon="6.54059">
        <ele>2027.4</ele>
        <time>2025-02-20T11:08:17Z</time>
      </trkpt>
      <trkpt lat="45.62139" lon="6.54058">
        <ele>2027.4</ele>
        <time>2025-02-20T11:08:18Z</time>
      </trkpt>
      <trkpt lat="45.6214" lon="6.54057">
        <ele>2027.4</ele>
        <time>2025-02-20T11:08:19Z</time>
      </trkpt>
      <trkpt lat="45.6214" lon="6.54055">
        <ele>2027.4</ele>
        <time>2025-02-20T11:08:20Z</time>
      </trkpt>
      <trkpt lat="45.6214" lon="6.54055">
        <ele>2027.6</ele>
        <time>2025-02-20T11:08:21Z</time>
      </trkpt>
      <trkpt lat="45.6214" lon="6.54055">
        <ele>2027.6</ele>
        <time>2025-02-20T11:08:22Z</time>
      </trkpt>
      <trkpt lat="45.6214" lon="6.54055">
        <ele>2027.6</ele>
        <time>2025-02-20T11:08:23Z</time>
      </trkpt>
      <trkpt lat="45.6214" lon="6.54052">
        <ele>2026.6</ele>
        <time>2025-02-20T11:08:24Z</time>
      </trkpt>
      <trkpt lat="45.62141" lon="6.54051">
        <ele>2027.4</ele>
        <time>2025-02-20T11:08:25Z</time>
      </trkpt>
      <trkpt lat="45.62141" lon="6.5405">
        <ele>2027.4</ele>
        <time>2025-02-20T11:08:26Z</time>
      </trkpt>
      <trkpt lat="45.62141" lon="6.54049">
        <ele>2027.4</ele>
        <time>2025-02-20T11:08:27Z</time>
      </trkpt>
      <trkpt lat="45.62141" lon="6.54047">
        <ele>2027.4</ele>
        <time>2025-02-20T11:08:28Z</time>
      </trkpt>
      <trkpt lat="45.62142" lon="6.54046">
        <ele>2027.2</ele>
        <time>2025-02-20T11:08:29Z</time>
      </trkpt>
      <trkpt lat="45.62142" lon="6.54045">
        <ele>2027.2</ele>
        <time>2025-02-20T11:08:30Z</time>
      </trkpt>
      <trkpt lat="45.62143" lon="6.54043">
        <ele>2027.2</ele>
        <time>2025-02-20T11:08:31Z</time>
      </trkpt>
      <trkpt lat="45.62143" lon="6.54042">
        <ele>2026.2</ele>
        <time>2025-02-20T11:08:32Z</time>
      </trkpt>
      <trkpt lat="45.62144" lon="6.5404">
        <ele>2026</ele>
        <time>2025-02-20T11:08:33Z</time>
      </trkpt>
      <trkpt lat="45.62144" lon="6.54039">
        <ele>2026</ele>
        <time>2025-02-20T11:08:34Z</time>
      </trkpt>
      <trkpt lat="45.62145" lon="6.54038">
        <ele>2026</ele>
        <time>2025-02-20T11:08:35Z</time>
      </trkpt>
      <trkpt lat="45.62145" lon="6.54037">
        <ele>2026.4</ele>
        <time>2025-02-20T11:08:36Z</time>
      </trkpt>
      <trkpt lat="45.62146" lon="6.54035">
        <ele>2026.2</ele>
        <time>2025-02-20T11:08:37Z</time>
      </trkpt>
      <trkpt lat="45.62146" lon="6.54034">
        <ele>2026.2</ele>
        <time>2025-02-20T11:08:38Z</time>
      </trkpt>
      <trkpt lat="45.62146" lon="6.54033">
        <ele>2026.2</ele>
        <time>2025-02-20T11:08:39Z</time>
      </trkpt>
      <trkpt lat="45.62147" lon="6.54033">
        <ele>2026.2</ele>
        <time>2025-02-20T11:08:40Z</time>
      </trkpt>
      <trkpt lat="45.62147" lon="6.54031">
        <ele>2024</ele>
        <time>2025-02-20T11:08:41Z</time>
      </trkpt>
      <trkpt lat="45.62148" lon="6.54031">
        <ele>2024</ele>
        <time>2025-02-20T11:08:42Z</time>
      </trkpt>
      <trkpt lat="45.62148" lon="6.54029">
        <ele>2024</ele>
        <time>2025-02-20T11:08:43Z</time>
      </trkpt>
      <trkpt lat="45.62148" lon="6.54029">
        <ele>2025</ele>
        <time>2025-02-20T11:08:44Z</time>
      </trkpt>
      <trkpt lat="45.62149" lon="6.54028">
        <ele>2024.8</ele>
        <time>2025-02-20T11:08:45Z</time>
      </trkpt>
      <trkpt lat="45.62149" lon="6.54027">
        <ele>2024.8</ele>
        <time>2025-02-20T11:08:46Z</time>
      </trkpt>
      <trkpt lat="45.62149" lon="6.54027">
        <ele>2024.8</ele>
        <time>2025-02-20T11:08:47Z</time>
      </trkpt>
      <trkpt lat="45.62149" lon="6.54027">
        <ele>2025.8</ele>
        <time>2025-02-20T11:08:48Z</time>
      </trkpt>
      <trkpt lat="45.62149" lon="6.54027">
        <ele>2025.8</ele>
        <time>2025-02-20T11:08:49Z</time>
      </trkpt>
      <trkpt lat="45.62149" lon="6.54027">
        <ele>2025.8</ele>
        <time>2025-02-20T11:08:50Z</time>
      </trkpt>
      <trkpt lat="45.62149" lon="6.54027">
        <ele>2025.8</ele>
        <time>2025-02-20T11:08:51Z</time>
      </trkpt>
      <trkpt lat="45.62149" lon="6.54027">
        <ele>2025.8</ele>
        <time>2025-02-20T11:08:52Z</time>
      </trkpt>
      <trkpt lat="45.62149" lon="6.54027">
        <ele>2026</ele>
        <time>2025-02-20T11:08:53Z</time>
      </trkpt>
      <trkpt lat="45.62149" lon="6.54027">
        <ele>2026</ele>
        <time>2025-02-20T11:08:54Z</time>
      </trkpt>
      <trkpt lat="45.62149" lon="6.54027">
        <ele>2026</ele>
        <time>2025-02-20T11:08:55Z</time>
      </trkpt>
      <trkpt lat="45.62149" lon="6.54027">
        <ele>2026</ele>
        <time>2025-02-20T11:08:56Z</time>
      </trkpt>
      <trkpt lat="45.62149" lon="6.54027">
        <ele>2025.6</ele>
        <time>2025-02-20T11:08:57Z</time>
      </trkpt>
      <trkpt lat="45.62149" lon="6.54027">
        <ele>2025.6</ele>
        <time>2025-02-20T11:08:58Z</time>
      </trkpt>
      <trkpt lat="45.62149" lon="6.54027">
        <ele>2025.6</ele>
        <time>2025-02-20T11:08:59Z</time>
      </trkpt>
      <trkpt lat="45.62149" lon="6.54027">
        <ele>2025.6</ele>
        <time>2025-02-20T11:09:00Z</time>
      </trkpt>
      <trkpt lat="45.62149" lon="6.54027">
        <ele>2026</ele>
        <time>2025-02-20T11:09:01Z</time>
      </trkpt>
      <trkpt lat="45.62149" lon="6.54023">
        <ele>2026</ele>
        <time>2025-02-20T11:09:02Z</time>
      </trkpt>
      <trkpt lat="45.62149" lon="6.54021">
        <ele>2026</ele>
        <time>2025-02-20T11:09:03Z</time>
      </trkpt>
      <trkpt lat="45.62149" lon="6.5402">
        <ele>2025.4</ele>
        <time>2025-02-20T11:09:04Z</time>
      </trkpt>
      <trkpt lat="45.62149" lon="6.54019">
        <ele>2024.8</ele>
        <time>2025-02-20T11:09:05Z</time>
      </trkpt>
      <trkpt lat="45.62149" lon="6.54018">
        <ele>2024.8</ele>
        <time>2025-02-20T11:09:06Z</time>
      </trkpt>
      <trkpt lat="45.62148" lon="6.54018">
        <ele>2024.8</ele>
        <time>2025-02-20T11:09:07Z</time>
      </trkpt>
      <trkpt lat="45.62148" lon="6.54018">
        <ele>2025</ele>
        <time>2025-02-20T11:09:08Z</time>
      </trkpt>
      <trkpt lat="45.62148" lon="6.54018">
        <ele>2025.2</ele>
        <time>2025-02-20T11:09:09Z</time>
      </trkpt>
      <trkpt lat="45.62148" lon="6.54018">
        <ele>2025.2</ele>
        <time>2025-02-20T11:09:10Z</time>
      </trkpt>
      <trkpt lat="45.62148" lon="6.54018">
        <ele>2025.2</ele>
        <time>2025-02-20T11:09:11Z</time>
      </trkpt>
      <trkpt lat="45.62148" lon="6.54018">
        <ele>2025.2</ele>
        <time>2025-02-20T11:09:12Z</time>
      </trkpt>
      <trkpt lat="45.62148" lon="6.54018">
        <ele>2025</ele>
        <time>2025-02-20T11:09:13Z</time>
      </trkpt>
      <trkpt lat="45.62148" lon="6.54018">
        <ele>2025</ele>
        <time>2025-02-20T11:09:14Z</time>
      </trkpt>
      <trkpt lat="45.62148" lon="6.54018">
        <ele>2025</ele>
        <time>2025-02-20T11:09:15Z</time>
      </trkpt>
      <trkpt lat="45.62148" lon="6.54018">
        <ele>2025</ele>
        <time>2025-02-20T11:09:16Z</time>
      </trkpt>
      <trkpt lat="45.62148" lon="6.54018">
        <ele>2025</ele>
        <time>2025-02-20T11:09:17Z</time>
      </trkpt>
      <trkpt lat="45.62148" lon="6.54018">
        <ele>2025</ele>
        <time>2025-02-20T11:09:18Z</time>
      </trkpt>
      <trkpt lat="45.62148" lon="6.54018">
        <ele>2025</ele>
        <time>2025-02-20T11:09:19Z</time>
      </trkpt>
      <trkpt lat="45.62148" lon="6.54018">
        <ele>2025</ele>
        <time>2025-02-20T11:09:20Z</time>
      </trkpt>
      <trkpt lat="45.62148" lon="6.54018">
        <ele>2025.2</ele>
        <time>2025-02-20T11:09:21Z</time>
      </trkpt>
      <trkpt lat="45.62148" lon="6.54018">
        <ele>2025.2</ele>
        <time>2025-02-20T11:09:22Z</time>
      </trkpt>
      <trkpt lat="45.62148" lon="6.54018">
        <ele>2025.2</ele>
        <time>2025-02-20T11:09:23Z</time>
      </trkpt>
      <trkpt lat="45.62148" lon="6.54018">
        <ele>2025.2</ele>
        <time>2025-02-20T11:09:24Z</time>
      </trkpt>
      <trkpt lat="45.62148" lon="6.54018">
        <ele>2024.8</ele>
        <time>2025-02-20T11:09:25Z</time>
      </trkpt>
      <trkpt lat="45.62148" lon="6.54018">
        <ele>2024.8</ele>
        <time>2025-02-20T11:09:26Z</time>
      </trkpt>
      <trkpt lat="45.62148" lon="6.54018">
        <ele>2024.8</ele>
        <time>2025-02-20T11:09:27Z</time>
      </trkpt>
      <trkpt lat="45.62148" lon="6.54018">
        <ele>2024.8</ele>
        <time>2025-02-20T11:09:28Z</time>
      </trkpt>
      <trkpt lat="45.62148" lon="6.54018">
        <ele>2025.2</ele>
        <time>2025-02-20T11:09:29Z</time>
      </trkpt>
      <trkpt lat="45.62148" lon="6.54018">
        <ele>2025.2</ele>
        <time>2025-02-20T11:09:30Z</time>
      </trkpt>
      <trkpt lat="45.62148" lon="6.54018">
        <ele>2025.2</ele>
        <time>2025-02-20T11:09:31Z</time>
      </trkpt>
      <trkpt lat="45.62148" lon="6.54018">
        <ele>2024.8</ele>
        <time>2025-02-20T11:09:32Z</time>
      </trkpt>
      <trkpt lat="45.62148" lon="6.54018">
        <ele>2024.6</ele>
        <time>2025-02-20T11:09:33Z</time>
      </trkpt>
      <trkpt lat="45.62148" lon="6.54018">
        <ele>2024.6</ele>
        <time>2025-02-20T11:09:34Z</time>
      </trkpt>
      <trkpt lat="45.62148" lon="6.54018">
        <ele>2024.6</ele>
        <time>2025-02-20T11:09:35Z</time>
      </trkpt>
      <trkpt lat="45.62148" lon="6.54018">
        <ele>2024.6</ele>
        <time>2025-02-20T11:09:36Z</time>
      </trkpt>
      <trkpt lat="45.62148" lon="6.54018">
        <ele>2025.2</ele>
        <time>2025-02-20T11:09:37Z</time>
      </trkpt>
      <trkpt lat="45.62148" lon="6.54018">
        <ele>2025.2</ele>
        <time>2025-02-20T11:09:38Z</time>
      </trkpt>
      <trkpt lat="45.62146" lon="6.5401">
        <ele>2025.2</ele>
        <time>2025-02-20T11:09:39Z</time>
      </trkpt>
      <trkpt lat="45.62145" lon="6.54008">
        <ele>2025.2</ele>
        <time>2025-02-20T11:09:40Z</time>
      </trkpt>
      <trkpt lat="45.62145" lon="6.54007">
        <ele>2025</ele>
        <time>2025-02-20T11:09:41Z</time>
      </trkpt>
      <trkpt lat="45.62144" lon="6.54005">
        <ele>2025</ele>
        <time>2025-02-20T11:09:42Z</time>
      </trkpt>
      <trkpt lat="45.62143" lon="6.54005">
        <ele>2025</ele>
        <time>2025-02-20T11:09:43Z</time>
      </trkpt>
      <trkpt lat="45.62143" lon="6.54004">
        <ele>2024.4</ele>
        <time>2025-02-20T11:09:44Z</time>
      </trkpt>
      <trkpt lat="45.62141" lon="6.54004">
        <ele>2023.2</ele>
        <time>2025-02-20T11:09:45Z</time>
      </trkpt>
      <trkpt lat="45.62141" lon="6.54003">
        <ele>2023.2</ele>
        <time>2025-02-20T11:09:46Z</time>
      </trkpt>
      <trkpt lat="45.6214" lon="6.54003">
        <ele>2023.2</ele>
        <time>2025-02-20T11:09:47Z</time>
      </trkpt>
      <trkpt lat="45.62139" lon="6.54003">
        <ele>2024.2</ele>
        <time>2025-02-20T11:09:48Z</time>
      </trkpt>
      <trkpt lat="45.62138" lon="6.54003">
        <ele>2024.2</ele>
        <time>2025-02-20T11:09:49Z</time>
      </trkpt>
      <trkpt lat="45.62137" lon="6.54003">
        <ele>2024.2</ele>
        <time>2025-02-20T11:09:50Z</time>
      </trkpt>
      <trkpt lat="45.62136" lon="6.54003">
        <ele>2024.2</ele>
        <time>2025-02-20T11:09:51Z</time>
      </trkpt>
      <trkpt lat="45.62135" lon="6.54003">
        <ele>2024.2</ele>
        <time>2025-02-20T11:09:52Z</time>
      </trkpt>
      <trkpt lat="45.62135" lon="6.54002">
        <ele>2023.4</ele>
        <time>2025-02-20T11:09:53Z</time>
      </trkpt>
      <trkpt lat="45.62134" lon="6.54001">
        <ele>2023.4</ele>
        <time>2025-02-20T11:09:54Z</time>
      </trkpt>
      <trkpt lat="45.62133" lon="6.54001">
        <ele>2023.4</ele>
        <time>2025-02-20T11:09:55Z</time>
      </trkpt>
      <trkpt lat="45.62132" lon="6.54">
        <ele>2022.8</ele>
        <time>2025-02-20T11:09:56Z</time>
      </trkpt>
      <trkpt lat="45.62132" lon="6.53999">
        <ele>2022.4</ele>
        <time>2025-02-20T11:09:57Z</time>
      </trkpt>
      <trkpt lat="45.62132" lon="6.53998">
        <ele>2022.4</ele>
        <time>2025-02-20T11:09:58Z</time>
      </trkpt>
      <trkpt lat="45.62132" lon="6.53997">
        <ele>2022.4</ele>
        <time>2025-02-20T11:09:59Z</time>
      </trkpt>
      <trkpt lat="45.62131" lon="6.53997">
        <ele>2022.4</ele>
        <time>2025-02-20T11:10:00Z</time>
      </trkpt>
      <trkpt lat="45.62131" lon="6.53996">
        <ele>2022.2</ele>
        <time>2025-02-20T11:10:01Z</time>
      </trkpt>
      <trkpt lat="45.62131" lon="6.53996">
        <ele>2022.2</ele>
        <time>2025-02-20T11:10:02Z</time>
      </trkpt>
      <trkpt lat="45.62131" lon="6.53996">
        <ele>2022.2</ele>
        <time>2025-02-20T11:10:03Z</time>
      </trkpt>
      <trkpt lat="45.62131" lon="6.53996">
        <ele>2022.2</ele>
        <time>2025-02-20T11:10:04Z</time>
      </trkpt>
      <trkpt lat="45.62131" lon="6.53996">
        <ele>2022.2</ele>
        <time>2025-02-20T11:10:05Z</time>
      </trkpt>
      <trkpt lat="45.62131" lon="6.53996">
        <ele>2022.2</ele>
        <time>2025-02-20T11:10:06Z</time>
      </trkpt>
      <trkpt lat="45.62131" lon="6.53996">
        <ele>2022.2</ele>
        <time>2025-02-20T11:10:07Z</time>
      </trkpt>
      <trkpt lat="45.62131" lon="6.53996">
        <ele>2022.4</ele>
        <time>2025-02-20T11:10:08Z</time>
      </trkpt>
      <trkpt lat="45.62131" lon="6.53996">
        <ele>2022.6</ele>
        <time>2025-02-20T11:10:09Z</time>
      </trkpt>
      <trkpt lat="45.62131" lon="6.53996">
        <ele>2022.6</ele>
        <time>2025-02-20T11:10:10Z</time>
      </trkpt>
      <trkpt lat="45.62131" lon="6.53996">
        <ele>2022.6</ele>
        <time>2025-02-20T11:10:11Z</time>
      </trkpt>
      <trkpt lat="45.62131" lon="6.53996">
        <ele>2022.4</ele>
        <time>2025-02-20T11:10:12Z</time>
      </trkpt>
      <trkpt lat="45.62131" lon="6.53996">
        <ele>2022.4</ele>
        <time>2025-02-20T11:10:13Z</time>
      </trkpt>
      <trkpt lat="45.62131" lon="6.53996">
        <ele>2022.4</ele>
        <time>2025-02-20T11:10:14Z</time>
      </trkpt>
      <trkpt lat="45.62131" lon="6.53996">
        <ele>2022.4</ele>
        <time>2025-02-20T11:10:15Z</time>
      </trkpt>
      <trkpt lat="45.62131" lon="6.53996">
        <ele>2022.4</ele>
        <time>2025-02-20T11:10:16Z</time>
      </trkpt>
      <trkpt lat="45.62131" lon="6.53996">
        <ele>2022.4</ele>
        <time>2025-02-20T11:10:17Z</time>
      </trkpt>
      <trkpt lat="45.62131" lon="6.53996">
        <ele>2022.4</ele>
        <time>2025-02-20T11:10:18Z</time>
      </trkpt>
      <trkpt lat="45.62131" lon="6.53996">
        <ele>2022.4</ele>
        <time>2025-02-20T11:10:19Z</time>
      </trkpt>
      <trkpt lat="45.62131" lon="6.53996">
        <ele>2022.4</ele>
        <time>2025-02-20T11:10:20Z</time>
      </trkpt>
      <trkpt lat="45.62131" lon="6.53996">
        <ele>2022</ele>
        <time>2025-02-20T11:10:21Z</time>
      </trkpt>
      <trkpt lat="45.62131" lon="6.53996">
        <ele>2022</ele>
        <time>2025-02-20T11:10:22Z</time>
      </trkpt>
      <trkpt lat="45.62131" lon="6.53996">
        <ele>2022</ele>
        <time>2025-02-20T11:10:23Z</time>
      </trkpt>
      <trkpt lat="45.62131" lon="6.53996">
        <ele>2022</ele>
        <time>2025-02-20T11:10:24Z</time>
      </trkpt>
      <trkpt lat="45.62131" lon="6.53996">
        <ele>2022</ele>
        <time>2025-02-20T11:10:25Z</time>
      </trkpt>
      <trkpt lat="45.62131" lon="6.53996">
        <ele>2022</ele>
        <time>2025-02-20T11:10:26Z</time>
      </trkpt>
      <trkpt lat="45.62131" lon="6.53996">
        <ele>2022</ele>
        <time>2025-02-20T11:10:27Z</time>
      </trkpt>
      <trkpt lat="45.62131" lon="6.53996">
        <ele>2022</ele>
        <time>2025-02-20T11:10:28Z</time>
      </trkpt>
      <trkpt lat="45.62131" lon="6.53996">
        <ele>2021.8</ele>
        <time>2025-02-20T11:10:29Z</time>
      </trkpt>
      <trkpt lat="45.62131" lon="6.53996">
        <ele>2021.8</ele>
        <time>2025-02-20T11:10:30Z</time>
      </trkpt>
      <trkpt lat="45.62131" lon="6.53996">
        <ele>2021.8</ele>
        <time>2025-02-20T11:10:31Z</time>
      </trkpt>
      <trkpt lat="45.62131" lon="6.53996">
        <ele>2021.8</ele>
        <time>2025-02-20T11:10:32Z</time>
      </trkpt>
      <trkpt lat="45.62131" lon="6.53996">
        <ele>2021.8</ele>
        <time>2025-02-20T11:10:33Z</time>
      </trkpt>
      <trkpt lat="45.62131" lon="6.53996">
        <ele>2021.8</ele>
        <time>2025-02-20T11:10:34Z</time>
      </trkpt>
      <trkpt lat="45.62131" lon="6.53996">
        <ele>2021.8</ele>
        <time>2025-02-20T11:10:35Z</time>
      </trkpt>
      <trkpt lat="45.62131" lon="6.53996">
        <ele>2022.4</ele>
        <time>2025-02-20T11:10:36Z</time>
      </trkpt>
      <trkpt lat="45.62131" lon="6.53996">
        <ele>2021.8</ele>
        <time>2025-02-20T11:10:37Z</time>
      </trkpt>
      <trkpt lat="45.62131" lon="6.53996">
        <ele>2021.8</ele>
        <time>2025-02-20T11:10:38Z</time>
      </trkpt>
      <trkpt lat="45.62131" lon="6.53996">
        <ele>2021.8</ele>
        <time>2025-02-20T11:10:39Z</time>
      </trkpt>
      <trkpt lat="45.62131" lon="6.53996">
        <ele>2022.6</ele>
        <time>2025-02-20T11:10:40Z</time>
      </trkpt>
      <trkpt lat="45.62131" lon="6.53996">
        <ele>2022.4</ele>
        <time>2025-02-20T11:10:41Z</time>
      </trkpt>
      <trkpt lat="45.62131" lon="6.53996">
        <ele>2022.4</ele>
        <time>2025-02-20T11:10:42Z</time>
      </trkpt>
      <trkpt lat="45.62131" lon="6.53996">
        <ele>2022.4</ele>
        <time>2025-02-20T11:10:43Z</time>
      </trkpt>
      <trkpt lat="45.62131" lon="6.53996">
        <ele>2022.4</ele>
        <time>2025-02-20T11:10:44Z</time>
      </trkpt>
      <trkpt lat="45.62131" lon="6.53996">
        <ele>2022.2</ele>
        <time>2025-02-20T11:10:45Z</time>
      </trkpt>
      <trkpt lat="45.62131" lon="6.53996">
        <ele>2022.2</ele>
        <time>2025-02-20T11:10:46Z</time>
      </trkpt>
      <trkpt lat="45.62131" lon="6.53996">
        <ele>2022.2</ele>
        <time>2025-02-20T11:10:47Z</time>
      </trkpt>
      <trkpt lat="45.62131" lon="6.53996">
        <ele>2022.2</ele>
        <time>2025-02-20T11:10:48Z</time>
      </trkpt>
      <trkpt lat="45.62131" lon="6.53996">
        <ele>2022</ele>
        <time>2025-02-20T11:10:49Z</time>
      </trkpt>
      <trkpt lat="45.62131" lon="6.53996">
        <ele>2022</ele>
        <time>2025-02-20T11:10:50Z</time>
      </trkpt>
      <trkpt lat="45.62131" lon="6.53996">
        <ele>2022</ele>
        <time>2025-02-20T11:10:51Z</time>
      </trkpt>
      <trkpt lat="45.62131" lon="6.53996">
        <ele>2022</ele>
        <time>2025-02-20T11:10:52Z</time>
      </trkpt>
      <trkpt lat="45.62131" lon="6.53996">
        <ele>2021.6</ele>
        <time>2025-02-20T11:10:53Z</time>
      </trkpt>
      <trkpt lat="45.62131" lon="6.53996">
        <ele>2021.6</ele>
        <time>2025-02-20T11:10:54Z</time>
      </trkpt>
      <trkpt lat="45.62131" lon="6.53996">
        <ele>2021.6</ele>
        <time>2025-02-20T11:10:55Z</time>
      </trkpt>
      <trkpt lat="45.62131" lon="6.53996">
        <ele>2022</ele>
        <time>2025-02-20T11:10:56Z</time>
      </trkpt>
      <trkpt lat="45.62131" lon="6.53996">
        <ele>2022.6</ele>
        <time>2025-02-20T11:10:57Z</time>
      </trkpt>
      <trkpt lat="45.62131" lon="6.53996">
        <ele>2022.6</ele>
        <time>2025-02-20T11:10:58Z</time>
      </trkpt>
      <trkpt lat="45.62131" lon="6.53996">
        <ele>2022.6</ele>
        <time>2025-02-20T11:10:59Z</time>
      </trkpt>
      <trkpt lat="45.62131" lon="6.53996">
        <ele>2021.6</ele>
        <time>2025-02-20T11:11:00Z</time>
      </trkpt>
      <trkpt lat="45.62131" lon="6.53996">
        <ele>2021.4</ele>
        <time>2025-02-20T11:11:01Z</time>
      </trkpt>
      <trkpt lat="45.62131" lon="6.53996">
        <ele>2021.4</ele>
        <time>2025-02-20T11:11:02Z</time>
      </trkpt>
      <trkpt lat="45.62131" lon="6.53985">
        <ele>2021.4</ele>
        <time>2025-02-20T11:11:03Z</time>
      </trkpt>
      <trkpt lat="45.62131" lon="6.53984">
        <ele>2020.6</ele>
        <time>2025-02-20T11:11:04Z</time>
      </trkpt>
      <trkpt lat="45.62131" lon="6.53983">
        <ele>2020.2</ele>
        <time>2025-02-20T11:11:05Z</time>
      </trkpt>
      <trkpt lat="45.62131" lon="6.53983">
        <ele>2020.2</ele>
        <time>2025-02-20T11:11:06Z</time>
      </trkpt>
      <trkpt lat="45.62131" lon="6.53983">
        <ele>2020.2</ele>
        <time>2025-02-20T11:11:07Z</time>
      </trkpt>
      <trkpt lat="45.62131" lon="6.53983">
        <ele>2020.2</ele>
        <time>2025-02-20T11:11:08Z</time>
      </trkpt>
      <trkpt lat="45.62131" lon="6.53983">
        <ele>2020.2</ele>
        <time>2025-02-20T11:11:09Z</time>
      </trkpt>
      <trkpt lat="45.62131" lon="6.53983">
        <ele>2020.2</ele>
        <time>2025-02-20T11:11:10Z</time>
      </trkpt>
      <trkpt lat="45.62132" lon="6.53983">
        <ele>2020.2</ele>
        <time>2025-02-20T11:11:11Z</time>
      </trkpt>
      <trkpt lat="45.62135" lon="6.53984">
        <ele>2020.2</ele>
        <time>2025-02-20T11:11:12Z</time>
      </trkpt>
      <trkpt lat="45.62139" lon="6.53983">
        <ele>2018.2</ele>
        <time>2025-02-20T11:11:13Z</time>
      </trkpt>
      <trkpt lat="45.62144" lon="6.53982">
        <ele>2018.2</ele>
        <time>2025-02-20T11:11:14Z</time>
      </trkpt>
      <trkpt lat="45.62149" lon="6.5398">
        <ele>2018.2</ele>
        <time>2025-02-20T11:11:15Z</time>
      </trkpt>
      <trkpt lat="45.62153" lon="6.53979">
        <ele>2017.2</ele>
        <time>2025-02-20T11:11:16Z</time>
      </trkpt>
      <trkpt lat="45.62156" lon="6.53978">
        <ele>2014</ele>
        <time>2025-02-20T11:11:17Z</time>
      </trkpt>
      <trkpt lat="45.62158" lon="6.53976">
        <ele>2014</ele>
        <time>2025-02-20T11:11:18Z</time>
      </trkpt>
      <trkpt lat="45.6216" lon="6.53974">
        <ele>2014</ele>
        <time>2025-02-20T11:11:19Z</time>
      </trkpt>
      <trkpt lat="45.62162" lon="6.53973">
        <ele>2013</ele>
        <time>2025-02-20T11:11:20Z</time>
      </trkpt>
      <trkpt lat="45.62164" lon="6.53971">
        <ele>2012.2</ele>
        <time>2025-02-20T11:11:21Z</time>
      </trkpt>
      <trkpt lat="45.62166" lon="6.5397">
        <ele>2012.2</ele>
        <time>2025-02-20T11:11:22Z</time>
      </trkpt>
      <trkpt lat="45.62167" lon="6.53969">
        <ele>2012.2</ele>
        <time>2025-02-20T11:11:23Z</time>
      </trkpt>
      <trkpt lat="45.62168" lon="6.53968">
        <ele>2011.8</ele>
        <time>2025-02-20T11:11:24Z</time>
      </trkpt>
      <trkpt lat="45.62169" lon="6.53968">
        <ele>2010.4</ele>
        <time>2025-02-20T11:11:25Z</time>
      </trkpt>
      <trkpt lat="45.6217" lon="6.53967">
        <ele>2010.4</ele>
        <time>2025-02-20T11:11:26Z</time>
      </trkpt>
      <trkpt lat="45.62171" lon="6.53966">
        <ele>2010.4</ele>
        <time>2025-02-20T11:11:27Z</time>
      </trkpt>
      <trkpt lat="45.62173" lon="6.53965">
        <ele>2011.4</ele>
        <time>2025-02-20T11:11:28Z</time>
      </trkpt>
      <trkpt lat="45.62174" lon="6.53964">
        <ele>2011.4</ele>
        <time>2025-02-20T11:11:29Z</time>
      </trkpt>
      <trkpt lat="45.62174" lon="6.53962">
        <ele>2011.4</ele>
        <time>2025-02-20T11:11:30Z</time>
      </trkpt>
      <trkpt lat="45.62175" lon="6.53961">
        <ele>2011.4</ele>
        <time>2025-02-20T11:11:31Z</time>
      </trkpt>
      <trkpt lat="45.62177" lon="6.5396">
        <ele>2010.4</ele>
        <time>2025-02-20T11:11:32Z</time>
      </trkpt>
      <trkpt lat="45.62177" lon="6.53959">
        <ele>2010.8</ele>
        <time>2025-02-20T11:11:33Z</time>
      </trkpt>
      <trkpt lat="45.62178" lon="6.53958">
        <ele>2010.8</ele>
        <time>2025-02-20T11:11:34Z</time>
      </trkpt>
      <trkpt lat="45.62179" lon="6.53956">
        <ele>2010.8</ele>
        <time>2025-02-20T11:11:35Z</time>
      </trkpt>
      <trkpt lat="45.6218" lon="6.53955">
        <ele>2010.8</ele>
        <time>2025-02-20T11:11:36Z</time>
      </trkpt>
      <trkpt lat="45.62181" lon="6.53954">
        <ele>2009</ele>
        <time>2025-02-20T11:11:37Z</time>
      </trkpt>
      <trkpt lat="45.62181" lon="6.53952">
        <ele>2009</ele>
        <time>2025-02-20T11:11:38Z</time>
      </trkpt>
      <trkpt lat="45.62182" lon="6.53951">
        <ele>2009</ele>
        <time>2025-02-20T11:11:39Z</time>
      </trkpt>
      <trkpt lat="45.62183" lon="6.5395">
        <ele>2010</ele>
        <time>2025-02-20T11:11:40Z</time>
      </trkpt>
      <trkpt lat="45.62184" lon="6.53949">
        <ele>2010.2</ele>
        <time>2025-02-20T11:11:41Z</time>
      </trkpt>
      <trkpt lat="45.62185" lon="6.53948">
        <ele>2010.2</ele>
        <time>2025-02-20T11:11:42Z</time>
      </trkpt>
      <trkpt lat="45.62186" lon="6.53947">
        <ele>2010.2</ele>
        <time>2025-02-20T11:11:43Z</time>
      </trkpt>
      <trkpt lat="45.62187" lon="6.53946">
        <ele>2009.2</ele>
        <time>2025-02-20T11:11:44Z</time>
      </trkpt>
      <trkpt lat="45.62188" lon="6.53945">
        <ele>2009.8</ele>
        <time>2025-02-20T11:11:45Z</time>
      </trkpt>
      <trkpt lat="45.62189" lon="6.53944">
        <ele>2009.8</ele>
        <time>2025-02-20T11:11:46Z</time>
      </trkpt>
      <trkpt lat="45.62189" lon="6.53943">
        <ele>2009.8</ele>
        <time>2025-02-20T11:11:47Z</time>
      </trkpt>
      <trkpt lat="45.6219" lon="6.53943">
        <ele>2009.8</ele>
        <time>2025-02-20T11:11:48Z</time>
      </trkpt>
      <trkpt lat="45.62191" lon="6.53941">
        <ele>2007.6</ele>
        <time>2025-02-20T11:11:49Z</time>
      </trkpt>
      <trkpt lat="45.62192" lon="6.53941">
        <ele>2007.6</ele>
        <time>2025-02-20T11:11:50Z</time>
      </trkpt>
      <trkpt lat="45.62193" lon="6.5394">
        <ele>2007.6</ele>
        <time>2025-02-20T11:11:51Z</time>
      </trkpt>
      <trkpt lat="45.62194" lon="6.53939">
        <ele>2008.6</ele>
        <time>2025-02-20T11:11:52Z</time>
      </trkpt>
      <trkpt lat="45.62195" lon="6.53938">
        <ele>2007.2</ele>
        <time>2025-02-20T11:11:53Z</time>
      </trkpt>
      <trkpt lat="45.62196" lon="6.53937">
        <ele>2007.2</ele>
        <time>2025-02-20T11:11:54Z</time>
      </trkpt>
      <trkpt lat="45.62197" lon="6.53936">
        <ele>2007.2</ele>
        <time>2025-02-20T11:11:55Z</time>
      </trkpt>
      <trkpt lat="45.62198" lon="6.53936">
        <ele>2008.2</ele>
        <time>2025-02-20T11:11:56Z</time>
      </trkpt>
      <trkpt lat="45.62199" lon="6.53935">
        <ele>2008</ele>
        <time>2025-02-20T11:11:57Z</time>
      </trkpt>
      <trkpt lat="45.62199" lon="6.53934">
        <ele>2008</ele>
        <time>2025-02-20T11:11:58Z</time>
      </trkpt>
      <trkpt lat="45.62201" lon="6.53932">
        <ele>2008</ele>
        <time>2025-02-20T11:11:59Z</time>
      </trkpt>
      <trkpt lat="45.62202" lon="6.53931">
        <ele>2008</ele>
        <time>2025-02-20T11:12:00Z</time>
      </trkpt>
      <trkpt lat="45.62203" lon="6.53929">
        <ele>2007</ele>
        <time>2025-02-20T11:12:01Z</time>
      </trkpt>
      <trkpt lat="45.62204" lon="6.53928">
        <ele>2007</ele>
        <time>2025-02-20T11:12:02Z</time>
      </trkpt>
      <trkpt lat="45.62205" lon="6.53927">
        <ele>2007</ele>
        <time>2025-02-20T11:12:03Z</time>
      </trkpt>
      <trkpt lat="45.62206" lon="6.53926">
        <ele>2007.4</ele>
        <time>2025-02-20T11:12:04Z</time>
      </trkpt>
      <trkpt lat="45.62208" lon="6.53925">
        <ele>2007.8</ele>
        <time>2025-02-20T11:12:05Z</time>
      </trkpt>
      <trkpt lat="45.62209" lon="6.53924">
        <ele>2007.8</ele>
        <time>2025-02-20T11:12:06Z</time>
      </trkpt>
      <trkpt lat="45.6221" lon="6.53923">
        <ele>2007.8</ele>
        <time>2025-02-20T11:12:07Z</time>
      </trkpt>
      <trkpt lat="45.62211" lon="6.53922">
        <ele>2006.8</ele>
        <time>2025-02-20T11:12:08Z</time>
      </trkpt>
      <trkpt lat="45.62213" lon="6.5392">
        <ele>2006.2</ele>
        <time>2025-02-20T11:12:09Z</time>
      </trkpt>
      <trkpt lat="45.62215" lon="6.53917">
        <ele>2006.2</ele>
        <time>2025-02-20T11:12:10Z</time>
      </trkpt>
      <trkpt lat="45.62218" lon="6.53914">
        <ele>2006.2</ele>
        <time>2025-02-20T11:12:11Z</time>
      </trkpt>
      <trkpt lat="45.6222" lon="6.53911">
        <ele>2005.2</ele>
        <time>2025-02-20T11:12:12Z</time>
      </trkpt>
      <trkpt lat="45.62221" lon="6.53909">
        <ele>2004</ele>
        <time>2025-02-20T11:12:13Z</time>
      </trkpt>
      <trkpt lat="45.62222" lon="6.53908">
        <ele>2004</ele>
        <time>2025-02-20T11:12:14Z</time>
      </trkpt>
      <trkpt lat="45.62223" lon="6.53908">
        <ele>2004</ele>
        <time>2025-02-20T11:12:15Z</time>
      </trkpt>
      <trkpt lat="45.62223" lon="6.53907">
        <ele>2004</ele>
        <time>2025-02-20T11:12:16Z</time>
      </trkpt>
      <trkpt lat="45.62224" lon="6.53907">
        <ele>2004</ele>
        <time>2025-02-20T11:12:17Z</time>
      </trkpt>
      <trkpt lat="45.62225" lon="6.53906">
        <ele>2004</ele>
        <time>2025-02-20T11:12:18Z</time>
      </trkpt>
      <trkpt lat="45.62225" lon="6.53905">
        <ele>2004</ele>
        <time>2025-02-20T11:12:19Z</time>
      </trkpt>
      <trkpt lat="45.62226" lon="6.53904">
        <ele>2003</ele>
        <time>2025-02-20T11:12:20Z</time>
      </trkpt>
      <trkpt lat="45.62226" lon="6.53903">
        <ele>2004.4</ele>
        <time>2025-02-20T11:12:21Z</time>
      </trkpt>
      <trkpt lat="45.62227" lon="6.53902">
        <ele>2004.4</ele>
        <time>2025-02-20T11:12:22Z</time>
      </trkpt>
      <trkpt lat="45.62228" lon="6.53902">
        <ele>2004.4</ele>
        <time>2025-02-20T11:12:23Z</time>
      </trkpt>
      <trkpt lat="45.62229" lon="6.53901">
        <ele>2003.4</ele>
        <time>2025-02-20T11:12:24Z</time>
      </trkpt>
      <trkpt lat="45.6223" lon="6.539">
        <ele>2004</ele>
        <time>2025-02-20T11:12:25Z</time>
      </trkpt>
      <trkpt lat="45.62231" lon="6.539">
        <ele>2004</ele>
        <time>2025-02-20T11:12:26Z</time>
      </trkpt>
      <trkpt lat="45.62232" lon="6.539">
        <ele>2004</ele>
        <time>2025-02-20T11:12:27Z</time>
      </trkpt>
      <trkpt lat="45.62233" lon="6.539">
        <ele>2004</ele>
        <time>2025-02-20T11:12:28Z</time>
      </trkpt>
      <trkpt lat="45.62234" lon="6.53899">
        <ele>2003.8</ele>
        <time>2025-02-20T11:12:29Z</time>
      </trkpt>
      <trkpt lat="45.62235" lon="6.53899">
        <ele>2003.8</ele>
        <time>2025-02-20T11:12:30Z</time>
      </trkpt>
      <trkpt lat="45.62236" lon="6.53899">
        <ele>2003.8</ele>
        <time>2025-02-20T11:12:31Z</time>
      </trkpt>
      <trkpt lat="45.62237" lon="6.53899">
        <ele>2003.8</ele>
        <time>2025-02-20T11:12:32Z</time>
      </trkpt>
      <trkpt lat="45.62239" lon="6.53898">
        <ele>2003.2</ele>
        <time>2025-02-20T11:12:33Z</time>
      </trkpt>
      <trkpt lat="45.62241" lon="6.53897">
        <ele>2003.2</ele>
        <time>2025-02-20T11:12:34Z</time>
      </trkpt>
      <trkpt lat="45.62244" lon="6.53896">
        <ele>2003.2</ele>
        <time>2025-02-20T11:12:35Z</time>
      </trkpt>
      <trkpt lat="45.62248" lon="6.53894">
        <ele>2003.2</ele>
        <time>2025-02-20T11:12:36Z</time>
      </trkpt>
      <trkpt lat="45.62252" lon="6.53892">
        <ele>2001.4</ele>
        <time>2025-02-20T11:12:37Z</time>
      </trkpt>
      <trkpt lat="45.62255" lon="6.53889">
        <ele>2001.4</ele>
        <time>2025-02-20T11:12:38Z</time>
      </trkpt>
      <trkpt lat="45.62256" lon="6.53888">
        <ele>2001.4</ele>
        <time>2025-02-20T11:12:39Z</time>
      </trkpt>
      <trkpt lat="45.62256" lon="6.53887">
        <ele>2000.4</ele>
        <time>2025-02-20T11:12:40Z</time>
      </trkpt>
      <trkpt lat="45.62257" lon="6.53886">
        <ele>1999.2</ele>
        <time>2025-02-20T11:12:41Z</time>
      </trkpt>
      <trkpt lat="45.62257" lon="6.53884">
        <ele>1999.2</ele>
        <time>2025-02-20T11:12:42Z</time>
      </trkpt>
      <trkpt lat="45.62258" lon="6.53883">
        <ele>1999.2</ele>
        <time>2025-02-20T11:12:43Z</time>
      </trkpt>
      <trkpt lat="45.62258" lon="6.53881">
        <ele>1999.2</ele>
        <time>2025-02-20T11:12:44Z</time>
      </trkpt>
      <trkpt lat="45.62259" lon="6.5388">
        <ele>1999.4</ele>
        <time>2025-02-20T11:12:45Z</time>
      </trkpt>
      <trkpt lat="45.6226" lon="6.53878">
        <ele>1999.4</ele>
        <time>2025-02-20T11:12:46Z</time>
      </trkpt>
      <trkpt lat="45.62261" lon="6.53877">
        <ele>1999.4</ele>
        <time>2025-02-20T11:12:47Z</time>
      </trkpt>
      <trkpt lat="45.62261" lon="6.53875">
        <ele>1998.4</ele>
        <time>2025-02-20T11:12:48Z</time>
      </trkpt>
      <trkpt lat="45.62262" lon="6.53874">
        <ele>1998.6</ele>
        <time>2025-02-20T11:12:49Z</time>
      </trkpt>
      <trkpt lat="45.62262" lon="6.53873">
        <ele>1998.6</ele>
        <time>2025-02-20T11:12:50Z</time>
      </trkpt>
      <trkpt lat="45.62263" lon="6.53871">
        <ele>1998.6</ele>
        <time>2025-02-20T11:12:51Z</time>
      </trkpt>
      <trkpt lat="45.62264" lon="6.5387">
        <ele>1998.2</ele>
        <time>2025-02-20T11:12:52Z</time>
      </trkpt>
      <trkpt lat="45.62264" lon="6.53869">
        <ele>1997.8</ele>
        <time>2025-02-20T11:12:53Z</time>
      </trkpt>
      <trkpt lat="45.62265" lon="6.53868">
        <ele>1997.8</ele>
        <time>2025-02-20T11:12:54Z</time>
      </trkpt>
      <trkpt lat="45.62266" lon="6.53866">
        <ele>1997.8</ele>
        <time>2025-02-20T11:12:55Z</time>
      </trkpt>
      <trkpt lat="45.62266" lon="6.53865">
        <ele>1997.8</ele>
        <time>2025-02-20T11:12:56Z</time>
      </trkpt>
      <trkpt lat="45.62266" lon="6.53863">
        <ele>1997.2</ele>
        <time>2025-02-20T11:12:57Z</time>
      </trkpt>
      <trkpt lat="45.62267" lon="6.53862">
        <ele>1997.2</ele>
        <time>2025-02-20T11:12:58Z</time>
      </trkpt>
      <trkpt lat="45.62267" lon="6.53861">
        <ele>1997.2</ele>
        <time>2025-02-20T11:12:59Z</time>
      </trkpt>
      <trkpt lat="45.62267" lon="6.53861">
        <ele>1997</ele>
        <time>2025-02-20T11:13:00Z</time>
      </trkpt>
      <trkpt lat="45.62267" lon="6.53861">
        <ele>1996.8</ele>
        <time>2025-02-20T11:13:01Z</time>
      </trkpt>
      <trkpt lat="45.62267" lon="6.53861">
        <ele>1996.8</ele>
        <time>2025-02-20T11:13:02Z</time>
      </trkpt>
      <trkpt lat="45.62267" lon="6.53861">
        <ele>1996.8</ele>
        <time>2025-02-20T11:13:03Z</time>
      </trkpt>
      <trkpt lat="45.62267" lon="6.53861">
        <ele>1996.8</ele>
        <time>2025-02-20T11:13:04Z</time>
      </trkpt>
      <trkpt lat="45.62267" lon="6.53861">
        <ele>1996.6</ele>
        <time>2025-02-20T11:13:05Z</time>
      </trkpt>
      <trkpt lat="45.62267" lon="6.53861">
        <ele>1996.6</ele>
        <time>2025-02-20T11:13:06Z</time>
      </trkpt>
      <trkpt lat="45.62267" lon="6.53861">
        <ele>1996.6</ele>
        <time>2025-02-20T11:13:07Z</time>
      </trkpt>
      <trkpt lat="45.62267" lon="6.53861">
        <ele>1997</ele>
        <time>2025-02-20T11:13:08Z</time>
      </trkpt>
      <trkpt lat="45.62267" lon="6.53861">
        <ele>1996.4</ele>
        <time>2025-02-20T11:13:09Z</time>
      </trkpt>
      <trkpt lat="45.62267" lon="6.53861">
        <ele>1996.4</ele>
        <time>2025-02-20T11:13:10Z</time>
      </trkpt>
      <trkpt lat="45.62267" lon="6.53861">
        <ele>1996.4</ele>
        <time>2025-02-20T11:13:11Z</time>
      </trkpt>
      <trkpt lat="45.62267" lon="6.53861">
        <ele>1997.2</ele>
        <time>2025-02-20T11:13:12Z</time>
      </trkpt>
      <trkpt lat="45.62267" lon="6.5386">
        <ele>1996.8</ele>
        <time>2025-02-20T11:13:13Z</time>
      </trkpt>
      <trkpt lat="45.62266" lon="6.53859">
        <ele>1996.8</ele>
        <time>2025-02-20T11:13:14Z</time>
      </trkpt>
      <trkpt lat="45.62267" lon="6.53858">
        <ele>1996.8</ele>
        <time>2025-02-20T11:13:15Z</time>
      </trkpt>
      <trkpt lat="45.62267" lon="6.53856">
        <ele>1996.8</ele>
        <time>2025-02-20T11:13:16Z</time>
      </trkpt>
      <trkpt lat="45.62267" lon="6.53854">
        <ele>1995.8</ele>
        <time>2025-02-20T11:13:17Z</time>
      </trkpt>
      <trkpt lat="45.62268" lon="6.53852">
        <ele>1995.8</ele>
        <time>2025-02-20T11:13:18Z</time>
      </trkpt>
      <trkpt lat="45.62268" lon="6.53849">
        <ele>1995.8</ele>
        <time>2025-02-20T11:13:19Z</time>
      </trkpt>
      <trkpt lat="45.62268" lon="6.53847">
        <ele>1995.8</ele>
        <time>2025-02-20T11:13:20Z</time>
      </trkpt>
      <trkpt lat="45.62269" lon="6.53845">
        <ele>1994.6</ele>
        <time>2025-02-20T11:13:21Z</time>
      </trkpt>
      <trkpt lat="45.62269" lon="6.53843">
        <ele>1994.6</ele>
        <time>2025-02-20T11:13:22Z</time>
      </trkpt>
      <trkpt lat="45.62269" lon="6.53841">
        <ele>1994.6</ele>
        <time>2025-02-20T11:13:23Z</time>
      </trkpt>
      <trkpt lat="45.6227" lon="6.53839">
        <ele>1994.6</ele>
        <time>2025-02-20T11:13:24Z</time>
      </trkpt>
      <trkpt lat="45.6227" lon="6.53837">
        <ele>1993.8</ele>
        <time>2025-02-20T11:13:25Z</time>
      </trkpt>
      <trkpt lat="45.62271" lon="6.53835">
        <ele>1993.8</ele>
        <time>2025-02-20T11:13:26Z</time>
      </trkpt>
      <trkpt lat="45.62271" lon="6.53833">
        <ele>1993.8</ele>
        <time>2025-02-20T11:13:27Z</time>
      </trkpt>
      <trkpt lat="45.62271" lon="6.53831">
        <ele>1993.8</ele>
        <time>2025-02-20T11:13:28Z</time>
      </trkpt>
      <trkpt lat="45.62271" lon="6.5383">
        <ele>1995.2</ele>
        <time>2025-02-20T11:13:29Z</time>
      </trkpt>
      <trkpt lat="45.62271" lon="6.53828">
        <ele>1995.2</ele>
        <time>2025-02-20T11:13:30Z</time>
      </trkpt>
      <trkpt lat="45.62271" lon="6.53826">
        <ele>1995.2</ele>
        <time>2025-02-20T11:13:31Z</time>
      </trkpt>
      <trkpt lat="45.62272" lon="6.53824">
        <ele>1994.4</ele>
        <time>2025-02-20T11:13:32Z</time>
      </trkpt>
      <trkpt lat="45.62272" lon="6.53823">
        <ele>1994.6</ele>
        <time>2025-02-20T11:13:33Z</time>
      </trkpt>
      <trkpt lat="45.62272" lon="6.53821">
        <ele>1994.6</ele>
        <time>2025-02-20T11:13:34Z</time>
      </trkpt>
      <trkpt lat="45.62272" lon="6.53819">
        <ele>1994.6</ele>
        <time>2025-02-20T11:13:35Z</time>
      </trkpt>
      <trkpt lat="45.62272" lon="6.53817">
        <ele>1994.6</ele>
        <time>2025-02-20T11:13:36Z</time>
      </trkpt>
      <trkpt lat="45.62272" lon="6.53814">
        <ele>1994.4</ele>
        <time>2025-02-20T11:13:37Z</time>
      </trkpt>
      <trkpt lat="45.62272" lon="6.53813">
        <ele>1994.4</ele>
        <time>2025-02-20T11:13:38Z</time>
      </trkpt>
      <trkpt lat="45.62272" lon="6.53811">
        <ele>1994.4</ele>
        <time>2025-02-20T11:13:39Z</time>
      </trkpt>
      <trkpt lat="45.62272" lon="6.53809">
        <ele>1993.8</ele>
        <time>2025-02-20T11:13:40Z</time>
      </trkpt>
      <trkpt lat="45.62272" lon="6.53806">
        <ele>1993.8</ele>
        <time>2025-02-20T11:13:41Z</time>
      </trkpt>
      <trkpt lat="45.62272" lon="6.53804">
        <ele>1993.8</ele>
        <time>2025-02-20T11:13:42Z</time>
      </trkpt>
      <trkpt lat="45.62272" lon="6.53802">
        <ele>1993.8</ele>
        <time>2025-02-20T11:13:43Z</time>
      </trkpt>
      <trkpt lat="45.62272" lon="6.538">
        <ele>1993.8</ele>
        <time>2025-02-20T11:13:44Z</time>
      </trkpt>
      <trkpt lat="45.62272" lon="6.53799">
        <ele>1992.8</ele>
        <time>2025-02-20T11:13:45Z</time>
      </trkpt>
      <trkpt lat="45.62272" lon="6.53796">
        <ele>1992.8</ele>
        <time>2025-02-20T11:13:46Z</time>
      </trkpt>
      <trkpt lat="45.62272" lon="6.53795">
        <ele>1992.8</ele>
        <time>2025-02-20T11:13:47Z</time>
      </trkpt>
      <trkpt lat="45.62272" lon="6.53793">
        <ele>1992.8</ele>
        <time>2025-02-20T11:13:48Z</time>
      </trkpt>
      <trkpt lat="45.62272" lon="6.53791">
        <ele>1992.6</ele>
        <time>2025-02-20T11:13:49Z</time>
      </trkpt>
      <trkpt lat="45.62272" lon="6.5379">
        <ele>1992.6</ele>
        <time>2025-02-20T11:13:50Z</time>
      </trkpt>
      <trkpt lat="45.62272" lon="6.53788">
        <ele>1992.6</ele>
        <time>2025-02-20T11:13:51Z</time>
      </trkpt>
      <trkpt lat="45.62272" lon="6.53786">
        <ele>1992.6</ele>
        <time>2025-02-20T11:13:52Z</time>
      </trkpt>
      <trkpt lat="45.62273" lon="6.53785">
        <ele>1992.8</ele>
        <time>2025-02-20T11:13:53Z</time>
      </trkpt>
      <trkpt lat="45.62273" lon="6.53783">
        <ele>1992.8</ele>
        <time>2025-02-20T11:13:54Z</time>
      </trkpt>
      <trkpt lat="45.62273" lon="6.53782">
        <ele>1992.8</ele>
        <time>2025-02-20T11:13:55Z</time>
      </trkpt>
      <trkpt lat="45.62272" lon="6.5378">
        <ele>1992.4</ele>
        <time>2025-02-20T11:13:56Z</time>
      </trkpt>
      <trkpt lat="45.62272" lon="6.53778">
        <ele>1992.6</ele>
        <time>2025-02-20T11:13:57Z</time>
      </trkpt>
      <trkpt lat="45.62272" lon="6.53777">
        <ele>1992.6</ele>
        <time>2025-02-20T11:13:58Z</time>
      </trkpt>
      <trkpt lat="45.62272" lon="6.53775">
        <ele>1992.6</ele>
        <time>2025-02-20T11:13:59Z</time>
      </trkpt>
      <trkpt lat="45.62272" lon="6.53774">
        <ele>1992.4</ele>
        <time>2025-02-20T11:14:00Z</time>
      </trkpt>
      <trkpt lat="45.62272" lon="6.53773">
        <ele>1992.8</ele>
        <time>2025-02-20T11:14:01Z</time>
      </trkpt>
      <trkpt lat="45.62272" lon="6.53771">
        <ele>1992.8</ele>
        <time>2025-02-20T11:14:02Z</time>
      </trkpt>
      <trkpt lat="45.62272" lon="6.53768">
        <ele>1992.8</ele>
        <time>2025-02-20T11:14:03Z</time>
      </trkpt>
      <trkpt lat="45.62272" lon="6.53767">
        <ele>1992</ele>
        <time>2025-02-20T11:14:04Z</time>
      </trkpt>
      <trkpt lat="45.62272" lon="6.53764">
        <ele>1990</ele>
        <time>2025-02-20T11:14:05Z</time>
      </trkpt>
      <trkpt lat="45.62272" lon="6.53763">
        <ele>1990</ele>
        <time>2025-02-20T11:14:06Z</time>
      </trkpt>
      <trkpt lat="45.62273" lon="6.53762">
        <ele>1990</ele>
        <time>2025-02-20T11:14:07Z</time>
      </trkpt>
      <trkpt lat="45.62273" lon="6.53761">
        <ele>1991</ele>
        <time>2025-02-20T11:14:08Z</time>
      </trkpt>
      <trkpt lat="45.62273" lon="6.53759">
        <ele>1990.4</ele>
        <time>2025-02-20T11:14:09Z</time>
      </trkpt>
      <trkpt lat="45.62273" lon="6.53758">
        <ele>1990.4</ele>
        <time>2025-02-20T11:14:10Z</time>
      </trkpt>
      <trkpt lat="45.62273" lon="6.53757">
        <ele>1990.4</ele>
        <time>2025-02-20T11:14:11Z</time>
      </trkpt>
      <trkpt lat="45.62273" lon="6.53755">
        <ele>1991.4</ele>
        <time>2025-02-20T11:14:12Z</time>
      </trkpt>
      <trkpt lat="45.62272" lon="6.53754">
        <ele>1990.2</ele>
        <time>2025-02-20T11:14:13Z</time>
      </trkpt>
      <trkpt lat="45.62272" lon="6.53753">
        <ele>1990.2</ele>
        <time>2025-02-20T11:14:14Z</time>
      </trkpt>
      <trkpt lat="45.62272" lon="6.53751">
        <ele>1990.2</ele>
        <time>2025-02-20T11:14:15Z</time>
      </trkpt>
      <trkpt lat="45.62272" lon="6.53751">
        <ele>1991.2</ele>
        <time>2025-02-20T11:14:16Z</time>
      </trkpt>
      <trkpt lat="45.62272" lon="6.53749">
        <ele>1992</ele>
        <time>2025-02-20T11:14:17Z</time>
      </trkpt>
      <trkpt lat="45.62271" lon="6.53748">
        <ele>1992</ele>
        <time>2025-02-20T11:14:18Z</time>
      </trkpt>
      <trkpt lat="45.62271" lon="6.53747">
        <ele>1992</ele>
        <time>2025-02-20T11:14:19Z</time>
      </trkpt>
      <trkpt lat="45.62271" lon="6.53745">
        <ele>1992</ele>
        <time>2025-02-20T11:14:20Z</time>
      </trkpt>
      <trkpt lat="45.62271" lon="6.53745">
        <ele>1990.2</ele>
        <time>2025-02-20T11:14:21Z</time>
      </trkpt>
      <trkpt lat="45.6227" lon="6.53744">
        <ele>1990.2</ele>
        <time>2025-02-20T11:14:22Z</time>
      </trkpt>
      <trkpt lat="45.6227" lon="6.53743">
        <ele>1990.2</ele>
        <time>2025-02-20T11:14:23Z</time>
      </trkpt>
      <trkpt lat="45.6227" lon="6.53742">
        <ele>1991.2</ele>
        <time>2025-02-20T11:14:24Z</time>
      </trkpt>
      <trkpt lat="45.62269" lon="6.5374">
        <ele>1992.6</ele>
        <time>2025-02-20T11:14:25Z</time>
      </trkpt>
      <trkpt lat="45.62269" lon="6.53739">
        <ele>1992.6</ele>
        <time>2025-02-20T11:14:26Z</time>
      </trkpt>
      <trkpt lat="45.62269" lon="6.53737">
        <ele>1992.6</ele>
        <time>2025-02-20T11:14:27Z</time>
      </trkpt>
      <trkpt lat="45.62268" lon="6.53736">
        <ele>1991.6</ele>
        <time>2025-02-20T11:14:28Z</time>
      </trkpt>
      <trkpt lat="45.62268" lon="6.53734">
        <ele>1991.6</ele>
        <time>2025-02-20T11:14:29Z</time>
      </trkpt>
      <trkpt lat="45.62267" lon="6.53733">
        <ele>1991.6</ele>
        <time>2025-02-20T11:14:30Z</time>
      </trkpt>
      <trkpt lat="45.62267" lon="6.53732">
        <ele>1991.6</ele>
        <time>2025-02-20T11:14:31Z</time>
      </trkpt>
      <trkpt lat="45.62267" lon="6.5373">
        <ele>1991.6</ele>
        <time>2025-02-20T11:14:32Z</time>
      </trkpt>
      <trkpt lat="45.62267" lon="6.53729">
        <ele>1990.8</ele>
        <time>2025-02-20T11:14:33Z</time>
      </trkpt>
      <trkpt lat="45.62266" lon="6.53727">
        <ele>1990.8</ele>
        <time>2025-02-20T11:14:34Z</time>
      </trkpt>
      <trkpt lat="45.62266" lon="6.53726">
        <ele>1990.8</ele>
        <time>2025-02-20T11:14:35Z</time>
      </trkpt>
      <trkpt lat="45.62266" lon="6.53724">
        <ele>1990.8</ele>
        <time>2025-02-20T11:14:36Z</time>
      </trkpt>
      <trkpt lat="45.62266" lon="6.53723">
        <ele>1991.4</ele>
        <time>2025-02-20T11:14:37Z</time>
      </trkpt>
      <trkpt lat="45.62266" lon="6.53721">
        <ele>1991.4</ele>
        <time>2025-02-20T11:14:38Z</time>
      </trkpt>
      <trkpt lat="45.62266" lon="6.5372">
        <ele>1991.4</ele>
        <time>2025-02-20T11:14:39Z</time>
      </trkpt>
      <trkpt lat="45.62266" lon="6.53719">
        <ele>1991.4</ele>
        <time>2025-02-20T11:14:40Z</time>
      </trkpt>
      <trkpt lat="45.62266" lon="6.53718">
        <ele>1990.6</ele>
        <time>2025-02-20T11:14:41Z</time>
      </trkpt>
      <trkpt lat="45.62266" lon="6.53716">
        <ele>1990.6</ele>
        <time>2025-02-20T11:14:42Z</time>
      </trkpt>
      <trkpt lat="45.62266" lon="6.53714">
        <ele>1990.6</ele>
        <time>2025-02-20T11:14:43Z</time>
      </trkpt>
      <trkpt lat="45.62266" lon="6.53713">
        <ele>1990.6</ele>
        <time>2025-02-20T11:14:44Z</time>
      </trkpt>
      <trkpt lat="45.62265" lon="6.53712">
        <ele>1991.2</ele>
        <time>2025-02-20T11:14:45Z</time>
      </trkpt>
      <trkpt lat="45.62266" lon="6.53711">
        <ele>1991.2</ele>
        <time>2025-02-20T11:14:46Z</time>
      </trkpt>
      <trkpt lat="45.62266" lon="6.5371">
        <ele>1991.2</ele>
        <time>2025-02-20T11:14:47Z</time>
      </trkpt>
      <trkpt lat="45.62265" lon="6.53709">
        <ele>1990.6</ele>
        <time>2025-02-20T11:14:48Z</time>
      </trkpt>
      <trkpt lat="45.62265" lon="6.53707">
        <ele>1988.6</ele>
        <time>2025-02-20T11:14:49Z</time>
      </trkpt>
      <trkpt lat="45.62265" lon="6.53706">
        <ele>1988.6</ele>
        <time>2025-02-20T11:14:50Z</time>
      </trkpt>
      <trkpt lat="45.62265" lon="6.53705">
        <ele>1988.6</ele>
        <time>2025-02-20T11:14:51Z</time>
      </trkpt>
      <trkpt lat="45.62265" lon="6.53704">
        <ele>1989.6</ele>
        <time>2025-02-20T11:14:52Z</time>
      </trkpt>
      <trkpt lat="45.62265" lon="6.53703">
        <ele>1990.4</ele>
        <time>2025-02-20T11:14:53Z</time>
      </trkpt>
      <trkpt lat="45.62265" lon="6.53701">
        <ele>1990.4</ele>
        <time>2025-02-20T11:14:54Z</time>
      </trkpt>
      <trkpt lat="45.62265" lon="6.537">
        <ele>1990.4</ele>
        <time>2025-02-20T11:14:55Z</time>
      </trkpt>
      <trkpt lat="45.62264" lon="6.53698">
        <ele>1990.4</ele>
        <time>2025-02-20T11:14:56Z</time>
      </trkpt>
      <trkpt lat="45.62264" lon="6.53697">
        <ele>1991.2</ele>
        <time>2025-02-20T11:14:57Z</time>
      </trkpt>
      <trkpt lat="45.62264" lon="6.53696">
        <ele>1991.2</ele>
        <time>2025-02-20T11:14:58Z</time>
      </trkpt>
      <trkpt lat="45.62264" lon="6.53695">
        <ele>1991.2</ele>
        <time>2025-02-20T11:14:59Z</time>
      </trkpt>
      <trkpt lat="45.62264" lon="6.53694">
        <ele>1990.6</ele>
        <time>2025-02-20T11:15:00Z</time>
      </trkpt>
      <trkpt lat="45.62264" lon="6.53693">
        <ele>1989.6</ele>
        <time>2025-02-20T11:15:01Z</time>
      </trkpt>
      <trkpt lat="45.62264" lon="6.53692">
        <ele>1989.6</ele>
        <time>2025-02-20T11:15:02Z</time>
      </trkpt>
      <trkpt lat="45.62263" lon="6.53691">
        <ele>1989.6</ele>
        <time>2025-02-20T11:15:03Z</time>
      </trkpt>
      <trkpt lat="45.62263" lon="6.5369">
        <ele>1990.6</ele>
        <time>2025-02-20T11:15:04Z</time>
      </trkpt>
      <trkpt lat="45.62263" lon="6.53689">
        <ele>1991.2</ele>
        <time>2025-02-20T11:15:05Z</time>
      </trkpt>
      <trkpt lat="45.62263" lon="6.53687">
        <ele>1991.2</ele>
        <time>2025-02-20T11:15:06Z</time>
      </trkpt>
      <trkpt lat="45.62263" lon="6.53686">
        <ele>1991.2</ele>
        <time>2025-02-20T11:15:07Z</time>
      </trkpt>
      <trkpt lat="45.62262" lon="6.53685">
        <ele>1990.2</ele>
        <time>2025-02-20T11:15:08Z</time>
      </trkpt>
      <trkpt lat="45.62262" lon="6.53684">
        <ele>1991</ele>
        <time>2025-02-20T11:15:09Z</time>
      </trkpt>
      <trkpt lat="45.62262" lon="6.53683">
        <ele>1991</ele>
        <time>2025-02-20T11:15:10Z</time>
      </trkpt>
      <trkpt lat="45.62263" lon="6.53682">
        <ele>1991</ele>
        <time>2025-02-20T11:15:11Z</time>
      </trkpt>
      <trkpt lat="45.62263" lon="6.53681">
        <ele>1991.2</ele>
        <time>2025-02-20T11:15:12Z</time>
      </trkpt>
      <trkpt lat="45.62263" lon="6.5368">
        <ele>1991.4</ele>
        <time>2025-02-20T11:15:13Z</time>
      </trkpt>
      <trkpt lat="45.62262" lon="6.53679">
        <ele>1991.4</ele>
        <time>2025-02-20T11:15:14Z</time>
      </trkpt>
      <trkpt lat="45.62262" lon="6.53678">
        <ele>1991.4</ele>
        <time>2025-02-20T11:15:15Z</time>
      </trkpt>
      <trkpt lat="45.62263" lon="6.53677">
        <ele>1991.4</ele>
        <time>2025-02-20T11:15:16Z</time>
      </trkpt>
      <trkpt lat="45.62263" lon="6.53676">
        <ele>1991.6</ele>
        <time>2025-02-20T11:15:17Z</time>
      </trkpt>
      <trkpt lat="45.62263" lon="6.53675">
        <ele>1991.6</ele>
        <time>2025-02-20T11:15:18Z</time>
      </trkpt>
      <trkpt lat="45.62263" lon="6.53674">
        <ele>1991.6</ele>
        <time>2025-02-20T11:15:19Z</time>
      </trkpt>
      <trkpt lat="45.62263" lon="6.53673">
        <ele>1991.6</ele>
        <time>2025-02-20T11:15:20Z</time>
      </trkpt>
      <trkpt lat="45.62263" lon="6.53671">
        <ele>1992</ele>
        <time>2025-02-20T11:15:21Z</time>
      </trkpt>
      <trkpt lat="45.62263" lon="6.5367">
        <ele>1992</ele>
        <time>2025-02-20T11:15:22Z</time>
      </trkpt>
      <trkpt lat="45.62262" lon="6.53668">
        <ele>1992</ele>
        <time>2025-02-20T11:15:23Z</time>
      </trkpt>
      <trkpt lat="45.62262" lon="6.53667">
        <ele>1992</ele>
        <time>2025-02-20T11:15:24Z</time>
      </trkpt>
      <trkpt lat="45.62262" lon="6.53666">
        <ele>1990.4</ele>
        <time>2025-02-20T11:15:25Z</time>
      </trkpt>
      <trkpt lat="45.62262" lon="6.53666">
        <ele>1990.4</ele>
        <time>2025-02-20T11:15:26Z</time>
      </trkpt>
      <trkpt lat="45.62262" lon="6.53666">
        <ele>1990.4</ele>
        <time>2025-02-20T11:15:27Z</time>
      </trkpt>
      <trkpt lat="45.62262" lon="6.53666">
        <ele>1991.4</ele>
        <time>2025-02-20T11:15:28Z</time>
      </trkpt>
      <trkpt lat="45.62262" lon="6.53666">
        <ele>1990.8</ele>
        <time>2025-02-20T11:15:29Z</time>
      </trkpt>
      <trkpt lat="45.62262" lon="6.53666">
        <ele>1990.8</ele>
        <time>2025-02-20T11:15:30Z</time>
      </trkpt>
      <trkpt lat="45.62262" lon="6.53666">
        <ele>1990.8</ele>
        <time>2025-02-20T11:15:31Z</time>
      </trkpt>
      <trkpt lat="45.62262" lon="6.53666">
        <ele>1990.8</ele>
        <time>2025-02-20T11:15:32Z</time>
      </trkpt>
      <trkpt lat="45.62262" lon="6.53666">
        <ele>1991.6</ele>
        <time>2025-02-20T11:15:33Z</time>
      </trkpt>
      <trkpt lat="45.62262" lon="6.53666">
        <ele>1991.6</ele>
        <time>2025-02-20T11:15:34Z</time>
      </trkpt>
      <trkpt lat="45.62262" lon="6.53666">
        <ele>1991.6</ele>
        <time>2025-02-20T11:15:35Z</time>
      </trkpt>
      <trkpt lat="45.62262" lon="6.53666">
        <ele>1991.6</ele>
        <time>2025-02-20T11:15:36Z</time>
      </trkpt>
      <trkpt lat="45.62262" lon="6.53666">
        <ele>1991.8</ele>
        <time>2025-02-20T11:15:37Z</time>
      </trkpt>
      <trkpt lat="45.62262" lon="6.53666">
        <ele>1991.8</ele>
        <time>2025-02-20T11:15:38Z</time>
      </trkpt>
      <trkpt lat="45.62262" lon="6.53666">
        <ele>1991.8</ele>
        <time>2025-02-20T11:15:39Z</time>
      </trkpt>
      <trkpt lat="45.62262" lon="6.53666">
        <ele>1991.2</ele>
        <time>2025-02-20T11:15:40Z</time>
      </trkpt>
      <trkpt lat="45.62262" lon="6.53666">
        <ele>1992.4</ele>
        <time>2025-02-20T11:15:41Z</time>
      </trkpt>
      <trkpt lat="45.62262" lon="6.53666">
        <ele>1992.4</ele>
        <time>2025-02-20T11:15:42Z</time>
      </trkpt>
      <trkpt lat="45.62262" lon="6.53666">
        <ele>1992.4</ele>
        <time>2025-02-20T11:15:43Z</time>
      </trkpt>
      <trkpt lat="45.62262" lon="6.53666">
        <ele>1992.2</ele>
        <time>2025-02-20T11:15:44Z</time>
      </trkpt>
      <trkpt lat="45.62262" lon="6.53666">
        <ele>1991.4</ele>
        <time>2025-02-20T11:15:45Z</time>
      </trkpt>
      <trkpt lat="45.62262" lon="6.53666">
        <ele>1991.4</ele>
        <time>2025-02-20T11:15:46Z</time>
      </trkpt>
      <trkpt lat="45.62262" lon="6.53666">
        <ele>1991.4</ele>
        <time>2025-02-20T11:15:47Z</time>
      </trkpt>
      <trkpt lat="45.62262" lon="6.53666">
        <ele>1991.4</ele>
        <time>2025-02-20T11:15:48Z</time>
      </trkpt>
      <trkpt lat="45.62262" lon="6.53666">
        <ele>1992.6</ele>
        <time>2025-02-20T11:15:49Z</time>
      </trkpt>
      <trkpt lat="45.62262" lon="6.53666">
        <ele>1992.6</ele>
        <time>2025-02-20T11:15:50Z</time>
      </trkpt>
      <trkpt lat="45.62262" lon="6.53664">
        <ele>1992.6</ele>
        <time>2025-02-20T11:15:51Z</time>
      </trkpt>
      <trkpt lat="45.62262" lon="6.53664">
        <ele>1992.4</ele>
        <time>2025-02-20T11:15:52Z</time>
      </trkpt>
      <trkpt lat="45.62262" lon="6.53662">
        <ele>1991</ele>
        <time>2025-02-20T11:15:53Z</time>
      </trkpt>
      <trkpt lat="45.62262" lon="6.53661">
        <ele>1991</ele>
        <time>2025-02-20T11:15:54Z</time>
      </trkpt>
      <trkpt lat="45.62262" lon="6.5366">
        <ele>1991</ele>
        <time>2025-02-20T11:15:55Z</time>
      </trkpt>
      <trkpt lat="45.62261" lon="6.53659">
        <ele>1992</ele>
        <time>2025-02-20T11:15:56Z</time>
      </trkpt>
      <trkpt lat="45.62261" lon="6.53658">
        <ele>1992.8</ele>
        <time>2025-02-20T11:15:57Z</time>
      </trkpt>
      <trkpt lat="45.62261" lon="6.53657">
        <ele>1992.8</ele>
        <time>2025-02-20T11:15:58Z</time>
      </trkpt>
      <trkpt lat="45.6226" lon="6.53656">
        <ele>1992.8</ele>
        <time>2025-02-20T11:15:59Z</time>
      </trkpt>
      <trkpt lat="45.6226" lon="6.53655">
        <ele>1992.8</ele>
        <time>2025-02-20T11:16:00Z</time>
      </trkpt>
      <trkpt lat="45.6226" lon="6.53653">
        <ele>1992.6</ele>
        <time>2025-02-20T11:16:01Z</time>
      </trkpt>
      <trkpt lat="45.6226" lon="6.53652">
        <ele>1992.6</ele>
        <time>2025-02-20T11:16:02Z</time>
      </trkpt>
      <trkpt lat="45.62259" lon="6.5365">
        <ele>1992.6</ele>
        <time>2025-02-20T11:16:03Z</time>
      </trkpt>
      <trkpt lat="45.62259" lon="6.53649">
        <ele>1993</ele>
        <time>2025-02-20T11:16:04Z</time>
      </trkpt>
      <trkpt lat="45.62259" lon="6.53649">
        <ele>1992.6</ele>
        <time>2025-02-20T11:16:05Z</time>
      </trkpt>
      <trkpt lat="45.62259" lon="6.53648">
        <ele>1992.6</ele>
        <time>2025-02-20T11:16:06Z</time>
      </trkpt>
      <trkpt lat="45.62258" lon="6.53647">
        <ele>1992.6</ele>
        <time>2025-02-20T11:16:07Z</time>
      </trkpt>
      <trkpt lat="45.62258" lon="6.53646">
        <ele>1992.6</ele>
        <time>2025-02-20T11:16:08Z</time>
      </trkpt>
      <trkpt lat="45.62258" lon="6.53645">
        <ele>1994.4</ele>
        <time>2025-02-20T11:16:09Z</time>
      </trkpt>
      <trkpt lat="45.62257" lon="6.53643">
        <ele>1994.4</ele>
        <time>2025-02-20T11:16:10Z</time>
      </trkpt>
      <trkpt lat="45.62257" lon="6.53642">
        <ele>1994.4</ele>
        <time>2025-02-20T11:16:11Z</time>
      </trkpt>
      <trkpt lat="45.62256" lon="6.53641">
        <ele>1994.4</ele>
        <time>2025-02-20T11:16:12Z</time>
      </trkpt>
      <trkpt lat="45.62256" lon="6.53639">
        <ele>1994.6</ele>
        <time>2025-02-20T11:16:13Z</time>
      </trkpt>
      <trkpt lat="45.62256" lon="6.53638">
        <ele>1994.6</ele>
        <time>2025-02-20T11:16:14Z</time>
      </trkpt>
      <trkpt lat="45.62255" lon="6.53637">
        <ele>1994.6</ele>
        <time>2025-02-20T11:16:15Z</time>
      </trkpt>
      <trkpt lat="45.62255" lon="6.53637">
        <ele>1994.6</ele>
        <time>2025-02-20T11:16:16Z</time>
      </trkpt>
      <trkpt lat="45.62255" lon="6.53635">
        <ele>1993.6</ele>
        <time>2025-02-20T11:16:17Z</time>
      </trkpt>
      <trkpt lat="45.62255" lon="6.53635">
        <ele>1993.6</ele>
        <time>2025-02-20T11:16:18Z</time>
      </trkpt>
      <trkpt lat="45.62254" lon="6.53634">
        <ele>1993.6</ele>
        <time>2025-02-20T11:16:19Z</time>
      </trkpt>
      <trkpt lat="45.62254" lon="6.53633">
        <ele>1994.6</ele>
        <time>2025-02-20T11:16:20Z</time>
      </trkpt>
      <trkpt lat="45.62254" lon="6.53632">
        <ele>1993.8</ele>
        <time>2025-02-20T11:16:21Z</time>
      </trkpt>
      <trkpt lat="45.62254" lon="6.5363">
        <ele>1993.8</ele>
        <time>2025-02-20T11:16:22Z</time>
      </trkpt>
      <trkpt lat="45.62254" lon="6.53629">
        <ele>1993.8</ele>
        <time>2025-02-20T11:16:23Z</time>
      </trkpt>
      <trkpt lat="45.62253" lon="6.5363">
        <ele>1993.8</ele>
        <time>2025-02-20T11:16:24Z</time>
      </trkpt>
      <trkpt lat="45.62253" lon="6.53629">
        <ele>1994.8</ele>
        <time>2025-02-20T11:16:25Z</time>
      </trkpt>
      <trkpt lat="45.62253" lon="6.53628">
        <ele>1994.8</ele>
        <time>2025-02-20T11:16:26Z</time>
      </trkpt>
      <trkpt lat="45.62253" lon="6.53626">
        <ele>1994.8</ele>
        <time>2025-02-20T11:16:27Z</time>
      </trkpt>
      <trkpt lat="45.62253" lon="6.53625">
        <ele>1994.8</ele>
        <time>2025-02-20T11:16:28Z</time>
      </trkpt>
      <trkpt lat="45.62253" lon="6.53624">
        <ele>1995.4</ele>
        <time>2025-02-20T11:16:29Z</time>
      </trkpt>
      <trkpt lat="45.62253" lon="6.53623">
        <ele>1995.4</ele>
        <time>2025-02-20T11:16:30Z</time>
      </trkpt>
      <trkpt lat="45.62253" lon="6.53622">
        <ele>1995.4</ele>
        <time>2025-02-20T11:16:31Z</time>
      </trkpt>
      <trkpt lat="45.62252" lon="6.53621">
        <ele>1995.4</ele>
        <time>2025-02-20T11:16:32Z</time>
      </trkpt>
      <trkpt lat="45.62252" lon="6.5362">
        <ele>1995.8</ele>
        <time>2025-02-20T11:16:33Z</time>
      </trkpt>
      <trkpt lat="45.62252" lon="6.53619">
        <ele>1995.8</ele>
        <time>2025-02-20T11:16:34Z</time>
      </trkpt>
      <trkpt lat="45.62252" lon="6.53618">
        <ele>1995.8</ele>
        <time>2025-02-20T11:16:35Z</time>
      </trkpt>
      <trkpt lat="45.62252" lon="6.53618">
        <ele>1995.8</ele>
        <time>2025-02-20T11:16:36Z</time>
      </trkpt>
      <trkpt lat="45.62251" lon="6.53617">
        <ele>1994.2</ele>
        <time>2025-02-20T11:16:37Z</time>
      </trkpt>
      <trkpt lat="45.62251" lon="6.53616">
        <ele>1994.2</ele>
        <time>2025-02-20T11:16:38Z</time>
      </trkpt>
      <trkpt lat="45.62251" lon="6.53616">
        <ele>1994.2</ele>
        <time>2025-02-20T11:16:39Z</time>
      </trkpt>
      <trkpt lat="45.62251" lon="6.53614">
        <ele>1995.2</ele>
        <time>2025-02-20T11:16:40Z</time>
      </trkpt>
      <trkpt lat="45.62251" lon="6.53613">
        <ele>1995.6</ele>
        <time>2025-02-20T11:16:41Z</time>
      </trkpt>
      <trkpt lat="45.62251" lon="6.53611">
        <ele>1995.6</ele>
        <time>2025-02-20T11:16:42Z</time>
      </trkpt>
      <trkpt lat="45.62251" lon="6.53611">
        <ele>1995.6</ele>
        <time>2025-02-20T11:16:43Z</time>
      </trkpt>
      <trkpt lat="45.62251" lon="6.5361">
        <ele>1995</ele>
        <time>2025-02-20T11:16:44Z</time>
      </trkpt>
      <trkpt lat="45.62252" lon="6.53609">
        <ele>1995.8</ele>
        <time>2025-02-20T11:16:45Z</time>
      </trkpt>
      <trkpt lat="45.62251" lon="6.53608">
        <ele>1995.8</ele>
        <time>2025-02-20T11:16:46Z</time>
      </trkpt>
      <trkpt lat="45.62251" lon="6.53607">
        <ele>1995.8</ele>
        <time>2025-02-20T11:16:47Z</time>
      </trkpt>
      <trkpt lat="45.62251" lon="6.53606">
        <ele>1995.8</ele>
        <time>2025-02-20T11:16:48Z</time>
      </trkpt>
      <trkpt lat="45.6225" lon="6.53606">
        <ele>1997.4</ele>
        <time>2025-02-20T11:16:49Z</time>
      </trkpt>
      <trkpt lat="45.6225" lon="6.53604">
        <ele>1997.4</ele>
        <time>2025-02-20T11:16:50Z</time>
      </trkpt>
      <trkpt lat="45.6225" lon="6.53603">
        <ele>1997.4</ele>
        <time>2025-02-20T11:16:51Z</time>
      </trkpt>
      <trkpt lat="45.6225" lon="6.53602">
        <ele>1997.4</ele>
        <time>2025-02-20T11:16:52Z</time>
      </trkpt>
      <trkpt lat="45.62249" lon="6.53601">
        <ele>1997.2</ele>
        <time>2025-02-20T11:16:53Z</time>
      </trkpt>
      <trkpt lat="45.62249" lon="6.53601">
        <ele>1997.2</ele>
        <time>2025-02-20T11:16:54Z</time>
      </trkpt>
      <trkpt lat="45.6225" lon="6.53599">
        <ele>1997.2</ele>
        <time>2025-02-20T11:16:55Z</time>
      </trkpt>
      <trkpt lat="45.6225" lon="6.53599">
        <ele>1997.2</ele>
        <time>2025-02-20T11:16:56Z</time>
      </trkpt>
      <trkpt lat="45.62249" lon="6.53598">
        <ele>1996.6</ele>
        <time>2025-02-20T11:16:57Z</time>
      </trkpt>
      <trkpt lat="45.62249" lon="6.53597">
        <ele>1996.6</ele>
        <time>2025-02-20T11:16:58Z</time>
      </trkpt>
      <trkpt lat="45.62249" lon="6.53596">
        <ele>1996.6</ele>
        <time>2025-02-20T11:16:59Z</time>
      </trkpt>
      <trkpt lat="45.62249" lon="6.53596">
        <ele>1997.6</ele>
        <time>2025-02-20T11:17:00Z</time>
      </trkpt>
      <trkpt lat="45.6225" lon="6.53595">
        <ele>1999</ele>
        <time>2025-02-20T11:17:01Z</time>
      </trkpt>
      <trkpt lat="45.6225" lon="6.53594">
        <ele>1999</ele>
        <time>2025-02-20T11:17:02Z</time>
      </trkpt>
      <trkpt lat="45.6225" lon="6.53593">
        <ele>1999</ele>
        <time>2025-02-20T11:17:03Z</time>
      </trkpt>
      <trkpt lat="45.6225" lon="6.53593">
        <ele>1999.4</ele>
        <time>2025-02-20T11:17:04Z</time>
      </trkpt>
      <trkpt lat="45.6225" lon="6.53592">
        <ele>1999.4</ele>
        <time>2025-02-20T11:17:05Z</time>
      </trkpt>
      <trkpt lat="45.6225" lon="6.53592">
        <ele>1999.4</ele>
        <time>2025-02-20T11:17:06Z</time>
      </trkpt>
      <trkpt lat="45.62251" lon="6.53591">
        <ele>1999.4</ele>
        <time>2025-02-20T11:17:07Z</time>
      </trkpt>
      <trkpt lat="45.62251" lon="6.53591">
        <ele>1999.4</ele>
        <time>2025-02-20T11:17:08Z</time>
      </trkpt>
      <trkpt lat="45.62252" lon="6.5359">
        <ele>1997.6</ele>
        <time>2025-02-20T11:17:09Z</time>
      </trkpt>
      <trkpt lat="45.62252" lon="6.53589">
        <ele>1997.6</ele>
        <time>2025-02-20T11:17:10Z</time>
      </trkpt>
      <trkpt lat="45.62252" lon="6.53588">
        <ele>1997.6</ele>
        <time>2025-02-20T11:17:11Z</time>
      </trkpt>
      <trkpt lat="45.62252" lon="6.53588">
        <ele>1998.6</ele>
        <time>2025-02-20T11:17:12Z</time>
      </trkpt>
      <trkpt lat="45.62253" lon="6.53587">
        <ele>1999.2</ele>
        <time>2025-02-20T11:17:13Z</time>
      </trkpt>
      <trkpt lat="45.62253" lon="6.53587">
        <ele>1999.2</ele>
        <time>2025-02-20T11:17:14Z</time>
      </trkpt>
      <trkpt lat="45.62253" lon="6.53586">
        <ele>1999.2</ele>
        <time>2025-02-20T11:17:15Z</time>
      </trkpt>
      <trkpt lat="45.62253" lon="6.53586">
        <ele>2000.2</ele>
        <time>2025-02-20T11:17:16Z</time>
      </trkpt>
      <trkpt lat="45.62254" lon="6.53585">
        <ele>2001</ele>
        <time>2025-02-20T11:17:17Z</time>
      </trkpt>
      <trkpt lat="45.62254" lon="6.53584">
        <ele>2001</ele>
        <time>2025-02-20T11:17:18Z</time>
      </trkpt>
      <trkpt lat="45.62254" lon="6.53584">
        <ele>2001</ele>
        <time>2025-02-20T11:17:19Z</time>
      </trkpt>
      <trkpt lat="45.62255" lon="6.53583">
        <ele>2000.2</ele>
        <time>2025-02-20T11:17:20Z</time>
      </trkpt>
      <trkpt lat="45.62255" lon="6.53582">
        <ele>2001.6</ele>
        <time>2025-02-20T11:17:21Z</time>
      </trkpt>
      <trkpt lat="45.62255" lon="6.53581">
        <ele>2001.6</ele>
        <time>2025-02-20T11:17:22Z</time>
      </trkpt>
      <trkpt lat="45.62256" lon="6.5358">
        <ele>2001.6</ele>
        <time>2025-02-20T11:17:23Z</time>
      </trkpt>
      <trkpt lat="45.62256" lon="6.5358">
        <ele>2001.2</ele>
        <time>2025-02-20T11:17:24Z</time>
      </trkpt>
      <trkpt lat="45.62256" lon="6.53579">
        <ele>2001.4</ele>
        <time>2025-02-20T11:17:25Z</time>
      </trkpt>
      <trkpt lat="45.62256" lon="6.53579">
        <ele>2001.4</ele>
        <time>2025-02-20T11:17:26Z</time>
      </trkpt>
      <trkpt lat="45.62257" lon="6.53578">
        <ele>2001.4</ele>
        <time>2025-02-20T11:17:27Z</time>
      </trkpt>
      <trkpt lat="45.62257" lon="6.53578">
        <ele>2001.4</ele>
        <time>2025-02-20T11:17:28Z</time>
      </trkpt>
      <trkpt lat="45.62257" lon="6.53577">
        <ele>2001.8</ele>
        <time>2025-02-20T11:17:29Z</time>
      </trkpt>
      <trkpt lat="45.62257" lon="6.53576">
        <ele>2001.8</ele>
        <time>2025-02-20T11:17:30Z</time>
      </trkpt>
      <trkpt lat="45.62258" lon="6.53575">
        <ele>2001.8</ele>
        <time>2025-02-20T11:17:31Z</time>
      </trkpt>
      <trkpt lat="45.62258" lon="6.53575">
        <ele>2001.6</ele>
        <time>2025-02-20T11:17:32Z</time>
      </trkpt>
      <trkpt lat="45.62258" lon="6.53573">
        <ele>2000</ele>
        <time>2025-02-20T11:17:33Z</time>
      </trkpt>
      <trkpt lat="45.62258" lon="6.53573">
        <ele>2000</ele>
        <time>2025-02-20T11:17:34Z</time>
      </trkpt>
      <trkpt lat="45.62258" lon="6.53572">
        <ele>2000</ele>
        <time>2025-02-20T11:17:35Z</time>
      </trkpt>
      <trkpt lat="45.62258" lon="6.53572">
        <ele>2001</ele>
        <time>2025-02-20T11:17:36Z</time>
      </trkpt>
      <trkpt lat="45.62258" lon="6.53571">
        <ele>2003.2</ele>
        <time>2025-02-20T11:17:37Z</time>
      </trkpt>
      <trkpt lat="45.62258" lon="6.5357">
        <ele>2003.2</ele>
        <time>2025-02-20T11:17:38Z</time>
      </trkpt>
      <trkpt lat="45.62258" lon="6.53569">
        <ele>2003.2</ele>
        <time>2025-02-20T11:17:39Z</time>
      </trkpt>
      <trkpt lat="45.62258" lon="6.53568">
        <ele>2003.2</ele>
        <time>2025-02-20T11:17:40Z</time>
      </trkpt>
      <trkpt lat="45.62258" lon="6.53567">
        <ele>2002.8</ele>
        <time>2025-02-20T11:17:41Z</time>
      </trkpt>
      <trkpt lat="45.62257" lon="6.53566">
        <ele>2002.8</ele>
        <time>2025-02-20T11:17:42Z</time>
      </trkpt>
      <trkpt lat="45.62257" lon="6.53565">
        <ele>2002.8</ele>
        <time>2025-02-20T11:17:43Z</time>
      </trkpt>
      <trkpt lat="45.62257" lon="6.53564">
        <ele>2001.8</ele>
        <time>2025-02-20T11:17:44Z</time>
      </trkpt>
      <trkpt lat="45.62257" lon="6.53564">
        <ele>2004</ele>
        <time>2025-02-20T11:17:45Z</time>
      </trkpt>
      <trkpt lat="45.62257" lon="6.53563">
        <ele>2004</ele>
        <time>2025-02-20T11:17:46Z</time>
      </trkpt>
      <trkpt lat="45.62257" lon="6.53562">
        <ele>2004</ele>
        <time>2025-02-20T11:17:47Z</time>
      </trkpt>
      <trkpt lat="45.62257" lon="6.53561">
        <ele>2003.8</ele>
        <time>2025-02-20T11:17:48Z</time>
      </trkpt>
      <trkpt lat="45.62257" lon="6.5356">
        <ele>2003.2</ele>
        <time>2025-02-20T11:17:49Z</time>
      </trkpt>
      <trkpt lat="45.62257" lon="6.5356">
        <ele>2003.2</ele>
        <time>2025-02-20T11:17:50Z</time>
      </trkpt>
      <trkpt lat="45.62257" lon="6.53559">
        <ele>2003.2</ele>
        <time>2025-02-20T11:17:51Z</time>
      </trkpt>
      <trkpt lat="45.62257" lon="6.53558">
        <ele>2003.2</ele>
        <time>2025-02-20T11:17:52Z</time>
      </trkpt>
      <trkpt lat="45.62257" lon="6.53557">
        <ele>2004.2</ele>
        <time>2025-02-20T11:17:53Z</time>
      </trkpt>
      <trkpt lat="45.62257" lon="6.53556">
        <ele>2004.2</ele>
        <time>2025-02-20T11:17:54Z</time>
      </trkpt>
      <trkpt lat="45.62257" lon="6.53555">
        <ele>2004.2</ele>
        <time>2025-02-20T11:17:55Z</time>
      </trkpt>
      <trkpt lat="45.62257" lon="6.53554">
        <ele>2004.2</ele>
        <time>2025-02-20T11:17:56Z</time>
      </trkpt>
      <trkpt lat="45.62256" lon="6.53553">
        <ele>2004.6</ele>
        <time>2025-02-20T11:17:57Z</time>
      </trkpt>
      <trkpt lat="45.62256" lon="6.53552">
        <ele>2004.6</ele>
        <time>2025-02-20T11:17:58Z</time>
      </trkpt>
      <trkpt lat="45.62256" lon="6.53551">
        <ele>2004.6</ele>
        <time>2025-02-20T11:17:59Z</time>
      </trkpt>
      <trkpt lat="45.62256" lon="6.5355">
        <ele>2004.6</ele>
        <time>2025-02-20T11:18:00Z</time>
      </trkpt>
      <trkpt lat="45.62256" lon="6.53549">
        <ele>2004.8</ele>
        <time>2025-02-20T11:18:01Z</time>
      </trkpt>
      <trkpt lat="45.62256" lon="6.53549">
        <ele>2004.8</ele>
        <time>2025-02-20T11:18:02Z</time>
      </trkpt>
      <trkpt lat="45.62256" lon="6.53547">
        <ele>2004.8</ele>
        <time>2025-02-20T11:18:03Z</time>
      </trkpt>
      <trkpt lat="45.62257" lon="6.53547">
        <ele>2004.8</ele>
        <time>2025-02-20T11:18:04Z</time>
      </trkpt>
      <trkpt lat="45.62256" lon="6.53546">
        <ele>2004.2</ele>
        <time>2025-02-20T11:18:05Z</time>
      </trkpt>
      <trkpt lat="45.62256" lon="6.53545">
        <ele>2004.2</ele>
        <time>2025-02-20T11:18:06Z</time>
      </trkpt>
      <trkpt lat="45.62256" lon="6.53544">
        <ele>2004.2</ele>
        <time>2025-02-20T11:18:07Z</time>
      </trkpt>
      <trkpt lat="45.62256" lon="6.53542">
        <ele>2005.2</ele>
        <time>2025-02-20T11:18:08Z</time>
      </trkpt>
      <trkpt lat="45.62256" lon="6.53541">
        <ele>2005</ele>
        <time>2025-02-20T11:18:09Z</time>
      </trkpt>
      <trkpt lat="45.62256" lon="6.5354">
        <ele>2005</ele>
        <time>2025-02-20T11:18:10Z</time>
      </trkpt>
      <trkpt lat="45.62256" lon="6.53538">
        <ele>2005</ele>
        <time>2025-02-20T11:18:11Z</time>
      </trkpt>
      <trkpt lat="45.62256" lon="6.53537">
        <ele>2005</ele>
        <time>2025-02-20T11:18:12Z</time>
      </trkpt>
      <trkpt lat="45.62256" lon="6.53536">
        <ele>2005.4</ele>
        <time>2025-02-20T11:18:13Z</time>
      </trkpt>
      <trkpt lat="45.62256" lon="6.53536">
        <ele>2005.4</ele>
        <time>2025-02-20T11:18:14Z</time>
      </trkpt>
      <trkpt lat="45.62256" lon="6.53534">
        <ele>2005.4</ele>
        <time>2025-02-20T11:18:15Z</time>
      </trkpt>
      <trkpt lat="45.62256" lon="6.53534">
        <ele>2005</ele>
        <time>2025-02-20T11:18:16Z</time>
      </trkpt>
      <trkpt lat="45.62256" lon="6.53533">
        <ele>2006</ele>
        <time>2025-02-20T11:18:17Z</time>
      </trkpt>
      <trkpt lat="45.62256" lon="6.53532">
        <ele>2006</ele>
        <time>2025-02-20T11:18:18Z</time>
      </trkpt>
      <trkpt lat="45.62256" lon="6.53531">
        <ele>2006</ele>
        <time>2025-02-20T11:18:19Z</time>
      </trkpt>
      <trkpt lat="45.62256" lon="6.5353">
        <ele>2006</ele>
        <time>2025-02-20T11:18:20Z</time>
      </trkpt>
      <trkpt lat="45.62256" lon="6.53529">
        <ele>2005.8</ele>
        <time>2025-02-20T11:18:21Z</time>
      </trkpt>
      <trkpt lat="45.62256" lon="6.53528">
        <ele>2005.8</ele>
        <time>2025-02-20T11:18:22Z</time>
      </trkpt>
      <trkpt lat="45.62256" lon="6.53527">
        <ele>2005.8</ele>
        <time>2025-02-20T11:18:23Z</time>
      </trkpt>
      <trkpt lat="45.62256" lon="6.53526">
        <ele>2005.8</ele>
        <time>2025-02-20T11:18:24Z</time>
      </trkpt>
      <trkpt lat="45.62256" lon="6.53524">
        <ele>2004.2</ele>
        <time>2025-02-20T11:18:25Z</time>
      </trkpt>
      <trkpt lat="45.62256" lon="6.53524">
        <ele>2004.2</ele>
        <time>2025-02-20T11:18:26Z</time>
      </trkpt>
      <trkpt lat="45.62256" lon="6.53523">
        <ele>2004.2</ele>
        <time>2025-02-20T11:18:27Z</time>
      </trkpt>
      <trkpt lat="45.62256" lon="6.53521">
        <ele>2005.2</ele>
        <time>2025-02-20T11:18:28Z</time>
      </trkpt>
      <trkpt lat="45.62256" lon="6.53521">
        <ele>2005.8</ele>
        <time>2025-02-20T11:18:29Z</time>
      </trkpt>
      <trkpt lat="45.62256" lon="6.5352">
        <ele>2005.8</ele>
        <time>2025-02-20T11:18:30Z</time>
      </trkpt>
      <trkpt lat="45.62256" lon="6.53519">
        <ele>2005.8</ele>
        <time>2025-02-20T11:18:31Z</time>
      </trkpt>
      <trkpt lat="45.62256" lon="6.53518">
        <ele>2005.8</ele>
        <time>2025-02-20T11:18:32Z</time>
      </trkpt>
      <trkpt lat="45.62256" lon="6.53517">
        <ele>2007.8</ele>
        <time>2025-02-20T11:18:33Z</time>
      </trkpt>
      <trkpt lat="45.62256" lon="6.53516">
        <ele>2007.8</ele>
        <time>2025-02-20T11:18:34Z</time>
      </trkpt>
      <trkpt lat="45.62257" lon="6.53514">
        <ele>2007.8</ele>
        <time>2025-02-20T11:18:35Z</time>
      </trkpt>
      <trkpt lat="45.62257" lon="6.53514">
        <ele>2007.4</ele>
        <time>2025-02-20T11:18:36Z</time>
      </trkpt>
      <trkpt lat="45.62257" lon="6.53512">
        <ele>2005.4</ele>
        <time>2025-02-20T11:18:37Z</time>
      </trkpt>
      <trkpt lat="45.62257" lon="6.5351">
        <ele>2005.4</ele>
        <time>2025-02-20T11:18:38Z</time>
      </trkpt>
      <trkpt lat="45.62257" lon="6.53509">
        <ele>2005.4</ele>
        <time>2025-02-20T11:18:39Z</time>
      </trkpt>
      <trkpt lat="45.62257" lon="6.53507">
        <ele>2006.4</ele>
        <time>2025-02-20T11:18:40Z</time>
      </trkpt>
      <trkpt lat="45.62257" lon="6.53506">
        <ele>2007.4</ele>
        <time>2025-02-20T11:18:41Z</time>
      </trkpt>
      <trkpt lat="45.62257" lon="6.53504">
        <ele>2007.4</ele>
        <time>2025-02-20T11:18:42Z</time>
      </trkpt>
      <trkpt lat="45.62257" lon="6.53502">
        <ele>2007.4</ele>
        <time>2025-02-20T11:18:43Z</time>
      </trkpt>
      <trkpt lat="45.62257" lon="6.53501">
        <ele>2006.4</ele>
        <time>2025-02-20T11:18:44Z</time>
      </trkpt>
      <trkpt lat="45.62258" lon="6.535">
        <ele>2005.4</ele>
        <time>2025-02-20T11:18:45Z</time>
      </trkpt>
      <trkpt lat="45.62258" lon="6.53498">
        <ele>2005.4</ele>
        <time>2025-02-20T11:18:46Z</time>
      </trkpt>
      <trkpt lat="45.62258" lon="6.53496">
        <ele>2005.4</ele>
        <time>2025-02-20T11:18:47Z</time>
      </trkpt>
      <trkpt lat="45.62258" lon="6.53494">
        <ele>2005.4</ele>
        <time>2025-02-20T11:18:48Z</time>
      </trkpt>
      <trkpt lat="45.62259" lon="6.53492">
        <ele>2004.2</ele>
        <time>2025-02-20T11:18:49Z</time>
      </trkpt>
      <trkpt lat="45.62259" lon="6.53491">
        <ele>2004.2</ele>
        <time>2025-02-20T11:18:50Z</time>
      </trkpt>
      <trkpt lat="45.6226" lon="6.5349">
        <ele>2004.2</ele>
        <time>2025-02-20T11:18:51Z</time>
      </trkpt>
      <trkpt lat="45.6226" lon="6.53488">
        <ele>2004.2</ele>
        <time>2025-02-20T11:18:52Z</time>
      </trkpt>
      <trkpt lat="45.62261" lon="6.53487">
        <ele>2004</ele>
        <time>2025-02-20T11:18:53Z</time>
      </trkpt>
      <trkpt lat="45.62261" lon="6.53484">
        <ele>2004</ele>
        <time>2025-02-20T11:18:54Z</time>
      </trkpt>
      <trkpt lat="45.62262" lon="6.53483">
        <ele>2004</ele>
        <time>2025-02-20T11:18:55Z</time>
      </trkpt>
      <trkpt lat="45.62263" lon="6.53482">
        <ele>2003.2</ele>
        <time>2025-02-20T11:18:56Z</time>
      </trkpt>
      <trkpt lat="45.62263" lon="6.53482">
        <ele>2003.2</ele>
        <time>2025-02-20T11:18:57Z</time>
      </trkpt>
      <trkpt lat="45.62263" lon="6.53482">
        <ele>2003.2</ele>
        <time>2025-02-20T11:18:58Z</time>
      </trkpt>
      <trkpt lat="45.62263" lon="6.53481">
        <ele>2003.2</ele>
        <time>2025-02-20T11:18:59Z</time>
      </trkpt>
      <trkpt lat="45.62263" lon="6.5348">
        <ele>2003.2</ele>
        <time>2025-02-20T11:19:00Z</time>
      </trkpt>
      <trkpt lat="45.62264" lon="6.53479">
        <ele>2003.2</ele>
        <time>2025-02-20T11:19:01Z</time>
      </trkpt>
      <trkpt lat="45.62264" lon="6.53477">
        <ele>2003.2</ele>
        <time>2025-02-20T11:19:02Z</time>
      </trkpt>
      <trkpt lat="45.62265" lon="6.53476">
        <ele>2003.2</ele>
        <time>2025-02-20T11:19:03Z</time>
      </trkpt>
      <trkpt lat="45.62265" lon="6.53474">
        <ele>2003.2</ele>
        <time>2025-02-20T11:19:04Z</time>
      </trkpt>
      <trkpt lat="45.62266" lon="6.53473">
        <ele>2003</ele>
        <time>2025-02-20T11:19:05Z</time>
      </trkpt>
      <trkpt lat="45.62266" lon="6.53472">
        <ele>2003</ele>
        <time>2025-02-20T11:19:06Z</time>
      </trkpt>
      <trkpt lat="45.62267" lon="6.5347">
        <ele>2003</ele>
        <time>2025-02-20T11:19:07Z</time>
      </trkpt>
      <trkpt lat="45.62267" lon="6.53468">
        <ele>2002.6</ele>
        <time>2025-02-20T11:19:08Z</time>
      </trkpt>
      <trkpt lat="45.62268" lon="6.53465">
        <ele>2002</ele>
        <time>2025-02-20T11:19:09Z</time>
      </trkpt>
      <trkpt lat="45.62268" lon="6.53464">
        <ele>2002</ele>
        <time>2025-02-20T11:19:10Z</time>
      </trkpt>
      <trkpt lat="45.62269" lon="6.53463">
        <ele>2002</ele>
        <time>2025-02-20T11:19:11Z</time>
      </trkpt>
      <trkpt lat="45.62269" lon="6.53461">
        <ele>2001</ele>
        <time>2025-02-20T11:19:12Z</time>
      </trkpt>
      <trkpt lat="45.62269" lon="6.5346">
        <ele>2002</ele>
        <time>2025-02-20T11:19:13Z</time>
      </trkpt>
      <trkpt lat="45.62269" lon="6.53459">
        <ele>2002</ele>
        <time>2025-02-20T11:19:14Z</time>
      </trkpt>
      <trkpt lat="45.6227" lon="6.53458">
        <ele>2002</ele>
        <time>2025-02-20T11:19:15Z</time>
      </trkpt>
      <trkpt lat="45.6227" lon="6.53457">
        <ele>2002</ele>
        <time>2025-02-20T11:19:16Z</time>
      </trkpt>
      <trkpt lat="45.6227" lon="6.53457">
        <ele>2001.6</ele>
        <time>2025-02-20T11:19:17Z</time>
      </trkpt>
      <trkpt lat="45.6227" lon="6.53457">
        <ele>2001.6</ele>
        <time>2025-02-20T11:19:18Z</time>
      </trkpt>
      <trkpt lat="45.6227" lon="6.53457">
        <ele>2001.6</ele>
        <time>2025-02-20T11:19:19Z</time>
      </trkpt>
      <trkpt lat="45.6227" lon="6.53457">
        <ele>2002</ele>
        <time>2025-02-20T11:19:20Z</time>
      </trkpt>
      <trkpt lat="45.6227" lon="6.53457">
        <ele>2002</ele>
        <time>2025-02-20T11:19:21Z</time>
      </trkpt>
      <trkpt lat="45.6227" lon="6.53457">
        <ele>2002</ele>
        <time>2025-02-20T11:19:22Z</time>
      </trkpt>
      <trkpt lat="45.6227" lon="6.53457">
        <ele>2002</ele>
        <time>2025-02-20T11:19:23Z</time>
      </trkpt>
      <trkpt lat="45.6227" lon="6.53457">
        <ele>2002</ele>
        <time>2025-02-20T11:19:24Z</time>
      </trkpt>
      <trkpt lat="45.6227" lon="6.53457">
        <ele>2002</ele>
        <time>2025-02-20T11:19:25Z</time>
      </trkpt>
      <trkpt lat="45.6227" lon="6.53457">
        <ele>2002</ele>
        <time>2025-02-20T11:19:26Z</time>
      </trkpt>
      <trkpt lat="45.6227" lon="6.53457">
        <ele>2002</ele>
        <time>2025-02-20T11:19:27Z</time>
      </trkpt>
      <trkpt lat="45.6227" lon="6.53457">
        <ele>2001</ele>
        <time>2025-02-20T11:19:28Z</time>
      </trkpt>
      <trkpt lat="45.6227" lon="6.53457">
        <ele>2001.2</ele>
        <time>2025-02-20T11:19:29Z</time>
      </trkpt>
      <trkpt lat="45.6227" lon="6.53457">
        <ele>2001.2</ele>
        <time>2025-02-20T11:19:30Z</time>
      </trkpt>
      <trkpt lat="45.6227" lon="6.53457">
        <ele>2001.2</ele>
        <time>2025-02-20T11:19:31Z</time>
      </trkpt>
      <trkpt lat="45.6227" lon="6.53457">
        <ele>2001.6</ele>
        <time>2025-02-20T11:19:32Z</time>
      </trkpt>
      <trkpt lat="45.6227" lon="6.53457">
        <ele>2001.4</ele>
        <time>2025-02-20T11:19:33Z</time>
      </trkpt>
      <trkpt lat="45.6227" lon="6.53457">
        <ele>2001.4</ele>
        <time>2025-02-20T11:19:34Z</time>
      </trkpt>
      <trkpt lat="45.6227" lon="6.53457">
        <ele>2001.4</ele>
        <time>2025-02-20T11:19:35Z</time>
      </trkpt>
      <trkpt lat="45.6227" lon="6.53457">
        <ele>2001.4</ele>
        <time>2025-02-20T11:19:36Z</time>
      </trkpt>
      <trkpt lat="45.6227" lon="6.53457">
        <ele>2002</ele>
        <time>2025-02-20T11:19:37Z</time>
      </trkpt>
      <trkpt lat="45.6227" lon="6.53457">
        <ele>2002</ele>
        <time>2025-02-20T11:19:38Z</time>
      </trkpt>
      <trkpt lat="45.6227" lon="6.53457">
        <ele>2002</ele>
        <time>2025-02-20T11:19:39Z</time>
      </trkpt>
      <trkpt lat="45.6227" lon="6.53457">
        <ele>2001.6</ele>
        <time>2025-02-20T11:19:40Z</time>
      </trkpt>
      <trkpt lat="45.6227" lon="6.53457">
        <ele>2001.8</ele>
        <time>2025-02-20T11:19:41Z</time>
      </trkpt>
      <trkpt lat="45.6227" lon="6.53457">
        <ele>2001.8</ele>
        <time>2025-02-20T11:19:42Z</time>
      </trkpt>
      <trkpt lat="45.6227" lon="6.53457">
        <ele>2001.8</ele>
        <time>2025-02-20T11:19:43Z</time>
      </trkpt>
      <trkpt lat="45.6227" lon="6.53457">
        <ele>2001.8</ele>
        <time>2025-02-20T11:19:44Z</time>
      </trkpt>
      <trkpt lat="45.6227" lon="6.53457">
        <ele>2001.8</ele>
        <time>2025-02-20T11:19:45Z</time>
      </trkpt>
      <trkpt lat="45.6227" lon="6.53457">
        <ele>2001.8</ele>
        <time>2025-02-20T11:19:46Z</time>
      </trkpt>
      <trkpt lat="45.6227" lon="6.53457">
        <ele>2001.8</ele>
        <time>2025-02-20T11:19:47Z</time>
      </trkpt>
      <trkpt lat="45.6227" lon="6.53457">
        <ele>2001.8</ele>
        <time>2025-02-20T11:19:48Z</time>
      </trkpt>
      <trkpt lat="45.6227" lon="6.53457">
        <ele>2001.2</ele>
        <time>2025-02-20T11:19:49Z</time>
      </trkpt>
      <trkpt lat="45.6227" lon="6.53457">
        <ele>2001.2</ele>
        <time>2025-02-20T11:19:50Z</time>
      </trkpt>
      <trkpt lat="45.6227" lon="6.53457">
        <ele>2001.2</ele>
        <time>2025-02-20T11:19:51Z</time>
      </trkpt>
      <trkpt lat="45.6227" lon="6.53457">
        <ele>2002</ele>
        <time>2025-02-20T11:19:52Z</time>
      </trkpt>
      <trkpt lat="45.6227" lon="6.53457">
        <ele>2001</ele>
        <time>2025-02-20T11:19:53Z</time>
      </trkpt>
      <trkpt lat="45.6227" lon="6.53457">
        <ele>2001</ele>
        <time>2025-02-20T11:19:54Z</time>
      </trkpt>
      <trkpt lat="45.6227" lon="6.53457">
        <ele>2001</ele>
        <time>2025-02-20T11:19:55Z</time>
      </trkpt>
      <trkpt lat="45.6227" lon="6.53457">
        <ele>2001.6</ele>
        <time>2025-02-20T11:19:56Z</time>
      </trkpt>
      <trkpt lat="45.6227" lon="6.53457">
        <ele>2001.8</ele>
        <time>2025-02-20T11:19:57Z</time>
      </trkpt>
      <trkpt lat="45.6227" lon="6.53457">
        <ele>2001.8</ele>
        <time>2025-02-20T11:19:58Z</time>
      </trkpt>
      <trkpt lat="45.6227" lon="6.53457">
        <ele>2001.8</ele>
        <time>2025-02-20T11:19:59Z</time>
      </trkpt>
      <trkpt lat="45.6227" lon="6.53457">
        <ele>2001.8</ele>
        <time>2025-02-20T11:20:00Z</time>
      </trkpt>
      <trkpt lat="45.6227" lon="6.53457">
        <ele>2001.4</ele>
        <time>2025-02-20T11:20:01Z</time>
      </trkpt>
      <trkpt lat="45.6227" lon="6.53457">
        <ele>2001.4</ele>
        <time>2025-02-20T11:20:02Z</time>
      </trkpt>
      <trkpt lat="45.6227" lon="6.53457">
        <ele>2001.4</ele>
        <time>2025-02-20T11:20:03Z</time>
      </trkpt>
      <trkpt lat="45.6227" lon="6.53457">
        <ele>2001.4</ele>
        <time>2025-02-20T11:20:04Z</time>
      </trkpt>
      <trkpt lat="45.6227" lon="6.53457">
        <ele>2001.4</ele>
        <time>2025-02-20T11:20:05Z</time>
      </trkpt>
      <trkpt lat="45.6227" lon="6.53457">
        <ele>2001.4</ele>
        <time>2025-02-20T11:20:06Z</time>
      </trkpt>
      <trkpt lat="45.6227" lon="6.53457">
        <ele>2001.4</ele>
        <time>2025-02-20T11:20:07Z</time>
      </trkpt>
      <trkpt lat="45.6227" lon="6.53457">
        <ele>2001.4</ele>
        <time>2025-02-20T11:20:08Z</time>
      </trkpt>
      <trkpt lat="45.6227" lon="6.53457">
        <ele>2001.4</ele>
        <time>2025-02-20T11:20:09Z</time>
      </trkpt>
      <trkpt lat="45.6227" lon="6.53457">
        <ele>2001.4</ele>
        <time>2025-02-20T11:20:10Z</time>
      </trkpt>
      <trkpt lat="45.6227" lon="6.53457">
        <ele>2001.4</ele>
        <time>2025-02-20T11:20:11Z</time>
      </trkpt>
      <trkpt lat="45.6227" lon="6.53457">
        <ele>2001.4</ele>
        <time>2025-02-20T11:20:12Z</time>
      </trkpt>
      <trkpt lat="45.6227" lon="6.53457">
        <ele>2001.4</ele>
        <time>2025-02-20T11:20:13Z</time>
      </trkpt>
      <trkpt lat="45.6227" lon="6.53457">
        <ele>2001.4</ele>
        <time>2025-02-20T11:20:14Z</time>
      </trkpt>
      <trkpt lat="45.6227" lon="6.53457">
        <ele>2001.4</ele>
        <time>2025-02-20T11:20:15Z</time>
      </trkpt>
      <trkpt lat="45.6227" lon="6.53457">
        <ele>2001.4</ele>
        <time>2025-02-20T11:20:16Z</time>
      </trkpt>
      <trkpt lat="45.6227" lon="6.53457">
        <ele>2001.4</ele>
        <time>2025-02-20T11:20:17Z</time>
      </trkpt>
      <trkpt lat="45.6227" lon="6.53457">
        <ele>2001.4</ele>
        <time>2025-02-20T11:20:18Z</time>
      </trkpt>
      <trkpt lat="45.6227" lon="6.53457">
        <ele>2001.4</ele>
        <time>2025-02-20T11:20:19Z</time>
      </trkpt>
      <trkpt lat="45.6227" lon="6.53457">
        <ele>2001.4</ele>
        <time>2025-02-20T11:20:20Z</time>
      </trkpt>
      <trkpt lat="45.6227" lon="6.53457">
        <ele>2001.6</ele>
        <time>2025-02-20T11:20:21Z</time>
      </trkpt>
      <trkpt lat="45.6227" lon="6.53457">
        <ele>2001.6</ele>
        <time>2025-02-20T11:20:22Z</time>
      </trkpt>
      <trkpt lat="45.6227" lon="6.53457">
        <ele>2001.6</ele>
        <time>2025-02-20T11:20:23Z</time>
      </trkpt>
      <trkpt lat="45.6227" lon="6.53457">
        <ele>2001.6</ele>
        <time>2025-02-20T11:20:24Z</time>
      </trkpt>
      <trkpt lat="45.6227" lon="6.53457">
        <ele>2001.4</ele>
        <time>2025-02-20T11:20:25Z</time>
      </trkpt>
      <trkpt lat="45.6227" lon="6.53457">
        <ele>2001.4</ele>
        <time>2025-02-20T11:20:26Z</time>
      </trkpt>
      <trkpt lat="45.6227" lon="6.53457">
        <ele>2001.4</ele>
        <time>2025-02-20T11:20:27Z</time>
      </trkpt>
      <trkpt lat="45.6227" lon="6.53457">
        <ele>2001.4</ele>
        <time>2025-02-20T11:20:28Z</time>
      </trkpt>
      <trkpt lat="45.6227" lon="6.53457">
        <ele>2001.6</ele>
        <time>2025-02-20T11:20:29Z</time>
      </trkpt>
      <trkpt lat="45.6227" lon="6.53457">
        <ele>2001.6</ele>
        <time>2025-02-20T11:20:30Z</time>
      </trkpt>
      <trkpt lat="45.6227" lon="6.53457">
        <ele>2001.6</ele>
        <time>2025-02-20T11:20:31Z</time>
      </trkpt>
      <trkpt lat="45.6227" lon="6.53457">
        <ele>2001.6</ele>
        <time>2025-02-20T11:20:32Z</time>
      </trkpt>
      <trkpt lat="45.6227" lon="6.53457">
        <ele>2001</ele>
        <time>2025-02-20T11:20:33Z</time>
      </trkpt>
      <trkpt lat="45.6227" lon="6.53457">
        <ele>2001</ele>
        <time>2025-02-20T11:20:34Z</time>
      </trkpt>
      <trkpt lat="45.6227" lon="6.53457">
        <ele>2001</ele>
        <time>2025-02-20T11:20:35Z</time>
      </trkpt>
      <trkpt lat="45.6227" lon="6.53457">
        <ele>2002</ele>
        <time>2025-02-20T11:20:36Z</time>
      </trkpt>
      <trkpt lat="45.6227" lon="6.53457">
        <ele>2001.6</ele>
        <time>2025-02-20T11:20:37Z</time>
      </trkpt>
      <trkpt lat="45.6227" lon="6.53457">
        <ele>2001.6</ele>
        <time>2025-02-20T11:20:38Z</time>
      </trkpt>
      <trkpt lat="45.6227" lon="6.53457">
        <ele>2001.6</ele>
        <time>2025-02-20T11:20:39Z</time>
      </trkpt>
      <trkpt lat="45.6227" lon="6.53457">
        <ele>2001.6</ele>
        <time>2025-02-20T11:20:40Z</time>
      </trkpt>
      <trkpt lat="45.6227" lon="6.53457">
        <ele>2002.2</ele>
        <time>2025-02-20T11:20:41Z</time>
      </trkpt>
      <trkpt lat="45.6227" lon="6.53457">
        <ele>2002.2</ele>
        <time>2025-02-20T11:20:42Z</time>
      </trkpt>
      <trkpt lat="45.6227" lon="6.53457">
        <ele>2002.2</ele>
        <time>2025-02-20T11:20:43Z</time>
      </trkpt>
      <trkpt lat="45.6227" lon="6.53457">
        <ele>2002</ele>
        <time>2025-02-20T11:20:44Z</time>
      </trkpt>
      <trkpt lat="45.6227" lon="6.53457">
        <ele>2001.8</ele>
        <time>2025-02-20T11:20:45Z</time>
      </trkpt>
      <trkpt lat="45.6227" lon="6.53457">
        <ele>2001.8</ele>
        <time>2025-02-20T11:20:46Z</time>
      </trkpt>
      <trkpt lat="45.6227" lon="6.53457">
        <ele>2001.8</ele>
        <time>2025-02-20T11:20:47Z</time>
      </trkpt>
      <trkpt lat="45.6227" lon="6.53457">
        <ele>2001.8</ele>
        <time>2025-02-20T11:20:48Z</time>
      </trkpt>
      <trkpt lat="45.6227" lon="6.53457">
        <ele>2001.6</ele>
        <time>2025-02-20T11:20:49Z</time>
      </trkpt>
      <trkpt lat="45.6227" lon="6.53457">
        <ele>2001.6</ele>
        <time>2025-02-20T11:20:50Z</time>
      </trkpt>
      <trkpt lat="45.6227" lon="6.53457">
        <ele>2001.6</ele>
        <time>2025-02-20T11:20:51Z</time>
      </trkpt>
      <trkpt lat="45.6227" lon="6.53457">
        <ele>2001.6</ele>
        <time>2025-02-20T11:20:52Z</time>
      </trkpt>
      <trkpt lat="45.6227" lon="6.53457">
        <ele>2001.4</ele>
        <time>2025-02-20T11:20:53Z</time>
      </trkpt>
      <trkpt lat="45.6227" lon="6.53457">
        <ele>2001.4</ele>
        <time>2025-02-20T11:20:54Z</time>
      </trkpt>
      <trkpt lat="45.6227" lon="6.53457">
        <ele>2001.4</ele>
        <time>2025-02-20T11:20:55Z</time>
      </trkpt>
      <trkpt lat="45.6227" lon="6.53457">
        <ele>2001.4</ele>
        <time>2025-02-20T11:20:56Z</time>
      </trkpt>
      <trkpt lat="45.6227" lon="6.53457">
        <ele>2002.4</ele>
        <time>2025-02-20T11:20:57Z</time>
      </trkpt>
      <trkpt lat="45.6227" lon="6.53457">
        <ele>2002.4</ele>
        <time>2025-02-20T11:20:58Z</time>
      </trkpt>
      <trkpt lat="45.6227" lon="6.53457">
        <ele>2002.4</ele>
        <time>2025-02-20T11:20:59Z</time>
      </trkpt>
      <trkpt lat="45.6227" lon="6.53457">
        <ele>2001.6</ele>
        <time>2025-02-20T11:21:00Z</time>
      </trkpt>
      <trkpt lat="45.6227" lon="6.53457">
        <ele>2001.8</ele>
        <time>2025-02-20T11:21:01Z</time>
      </trkpt>
      <trkpt lat="45.6227" lon="6.53457">
        <ele>2001.8</ele>
        <time>2025-02-20T11:21:02Z</time>
      </trkpt>
      <trkpt lat="45.6227" lon="6.53457">
        <ele>2001.8</ele>
        <time>2025-02-20T11:21:03Z</time>
      </trkpt>
      <trkpt lat="45.6227" lon="6.53457">
        <ele>2001.6</ele>
        <time>2025-02-20T11:21:04Z</time>
      </trkpt>
      <trkpt lat="45.6227" lon="6.53457">
        <ele>2001.2</ele>
        <time>2025-02-20T11:21:05Z</time>
      </trkpt>
      <trkpt lat="45.6227" lon="6.53457">
        <ele>2001.2</ele>
        <time>2025-02-20T11:21:06Z</time>
      </trkpt>
      <trkpt lat="45.6227" lon="6.53457">
        <ele>2001.2</ele>
        <time>2025-02-20T11:21:07Z</time>
      </trkpt>
      <trkpt lat="45.6227" lon="6.53457">
        <ele>2001.8</ele>
        <time>2025-02-20T11:21:08Z</time>
      </trkpt>
      <trkpt lat="45.6227" lon="6.53457">
        <ele>2001.6</ele>
        <time>2025-02-20T11:21:09Z</time>
      </trkpt>
      <trkpt lat="45.6227" lon="6.53456">
        <ele>2001.6</ele>
        <time>2025-02-20T11:21:10Z</time>
      </trkpt>
      <trkpt lat="45.6227" lon="6.53455">
        <ele>2001.6</ele>
        <time>2025-02-20T11:21:11Z</time>
      </trkpt>
      <trkpt lat="45.6227" lon="6.53454">
        <ele>2001.6</ele>
        <time>2025-02-20T11:21:12Z</time>
      </trkpt>
      <trkpt lat="45.6227" lon="6.53452">
        <ele>2001</ele>
        <time>2025-02-20T11:21:13Z</time>
      </trkpt>
      <trkpt lat="45.6227" lon="6.53451">
        <ele>2001</ele>
        <time>2025-02-20T11:21:14Z</time>
      </trkpt>
      <trkpt lat="45.6227" lon="6.5345">
        <ele>2001</ele>
        <time>2025-02-20T11:21:15Z</time>
      </trkpt>
      <trkpt lat="45.6227" lon="6.53449">
        <ele>2001.2</ele>
        <time>2025-02-20T11:21:16Z</time>
      </trkpt>
      <trkpt lat="45.6227" lon="6.53447">
        <ele>2000.4</ele>
        <time>2025-02-20T11:21:17Z</time>
      </trkpt>
      <trkpt lat="45.6227" lon="6.53445">
        <ele>2000.4</ele>
        <time>2025-02-20T11:21:18Z</time>
      </trkpt>
      <trkpt lat="45.6227" lon="6.53442">
        <ele>2000.4</ele>
        <time>2025-02-20T11:21:19Z</time>
      </trkpt>
      <trkpt lat="45.6227" lon="6.5344">
        <ele>2000.4</ele>
        <time>2025-02-20T11:21:20Z</time>
      </trkpt>
      <trkpt lat="45.6227" lon="6.53437">
        <ele>2000</ele>
        <time>2025-02-20T11:21:21Z</time>
      </trkpt>
      <trkpt lat="45.62269" lon="6.53434">
        <ele>2000</ele>
        <time>2025-02-20T11:21:22Z</time>
      </trkpt>
      <trkpt lat="45.62269" lon="6.53432">
        <ele>2000</ele>
        <time>2025-02-20T11:21:23Z</time>
      </trkpt>
      <trkpt lat="45.62269" lon="6.53431">
        <ele>1999</ele>
        <time>2025-02-20T11:21:24Z</time>
      </trkpt>
      <trkpt lat="45.62269" lon="6.5343">
        <ele>1998.8</ele>
        <time>2025-02-20T11:21:25Z</time>
      </trkpt>
      <trkpt lat="45.62269" lon="6.53429">
        <ele>1998.8</ele>
        <time>2025-02-20T11:21:26Z</time>
      </trkpt>
      <trkpt lat="45.62269" lon="6.53428">
        <ele>1998.8</ele>
        <time>2025-02-20T11:21:27Z</time>
      </trkpt>
      <trkpt lat="45.62269" lon="6.53426">
        <ele>1998.4</ele>
        <time>2025-02-20T11:21:28Z</time>
      </trkpt>
      <trkpt lat="45.62269" lon="6.53424">
        <ele>1998.4</ele>
        <time>2025-02-20T11:21:29Z</time>
      </trkpt>
      <trkpt lat="45.62269" lon="6.53423">
        <ele>1998.4</ele>
        <time>2025-02-20T11:21:30Z</time>
      </trkpt>
      <trkpt lat="45.62269" lon="6.53422">
        <ele>1998.4</ele>
        <time>2025-02-20T11:21:31Z</time>
      </trkpt>
      <trkpt lat="45.6227" lon="6.5342">
        <ele>1998.4</ele>
        <time>2025-02-20T11:21:32Z</time>
      </trkpt>
      <trkpt lat="45.6227" lon="6.53419">
        <ele>1998.2</ele>
        <time>2025-02-20T11:21:33Z</time>
      </trkpt>
      <trkpt lat="45.6227" lon="6.53418">
        <ele>1998.2</ele>
        <time>2025-02-20T11:21:34Z</time>
      </trkpt>
      <trkpt lat="45.6227" lon="6.53417">
        <ele>1998.2</ele>
        <time>2025-02-20T11:21:35Z</time>
      </trkpt>
      <trkpt lat="45.6227" lon="6.53416">
        <ele>1997.6</ele>
        <time>2025-02-20T11:21:36Z</time>
      </trkpt>
      <trkpt lat="45.6227" lon="6.53414">
        <ele>1997.4</ele>
        <time>2025-02-20T11:21:37Z</time>
      </trkpt>
      <trkpt lat="45.6227" lon="6.53413">
        <ele>1997.4</ele>
        <time>2025-02-20T11:21:38Z</time>
      </trkpt>
      <trkpt lat="45.6227" lon="6.53412">
        <ele>1997.4</ele>
        <time>2025-02-20T11:21:39Z</time>
      </trkpt>
      <trkpt lat="45.6227" lon="6.5341">
        <ele>1997.4</ele>
        <time>2025-02-20T11:21:40Z</time>
      </trkpt>
      <trkpt lat="45.6227" lon="6.53409">
        <ele>1996.8</ele>
        <time>2025-02-20T11:21:41Z</time>
      </trkpt>
      <trkpt lat="45.6227" lon="6.53408">
        <ele>1996.8</ele>
        <time>2025-02-20T11:21:42Z</time>
      </trkpt>
      <trkpt lat="45.6227" lon="6.53407">
        <ele>1996.8</ele>
        <time>2025-02-20T11:21:43Z</time>
      </trkpt>
      <trkpt lat="45.6227" lon="6.53406">
        <ele>1996.8</ele>
        <time>2025-02-20T11:21:44Z</time>
      </trkpt>
      <trkpt lat="45.6227" lon="6.53404">
        <ele>1997</ele>
        <time>2025-02-20T11:21:45Z</time>
      </trkpt>
      <trkpt lat="45.6227" lon="6.53403">
        <ele>1997</ele>
        <time>2025-02-20T11:21:46Z</time>
      </trkpt>
      <trkpt lat="45.62269" lon="6.53401">
        <ele>1997</ele>
        <time>2025-02-20T11:21:47Z</time>
      </trkpt>
      <trkpt lat="45.62269" lon="6.53401">
        <ele>1996</ele>
        <time>2025-02-20T11:21:48Z</time>
      </trkpt>
      <trkpt lat="45.62269" lon="6.53399">
        <ele>1995.6</ele>
        <time>2025-02-20T11:21:49Z</time>
      </trkpt>
      <trkpt lat="45.62269" lon="6.53398">
        <ele>1995.6</ele>
        <time>2025-02-20T11:21:50Z</time>
      </trkpt>
      <trkpt lat="45.62269" lon="6.53397">
        <ele>1995.6</ele>
        <time>2025-02-20T11:21:51Z</time>
      </trkpt>
      <trkpt lat="45.62269" lon="6.53397">
        <ele>1995.6</ele>
        <time>2025-02-20T11:21:52Z</time>
      </trkpt>
      <trkpt lat="45.62269" lon="6.53397">
        <ele>1995</ele>
        <time>2025-02-20T11:21:53Z</time>
      </trkpt>
      <trkpt lat="45.62269" lon="6.53397">
        <ele>1995</ele>
        <time>2025-02-20T11:21:54Z</time>
      </trkpt>
      <trkpt lat="45.62269" lon="6.53395">
        <ele>1995</ele>
        <time>2025-02-20T11:21:55Z</time>
      </trkpt>
      <trkpt lat="45.62268" lon="6.53393">
        <ele>1995</ele>
        <time>2025-02-20T11:21:56Z</time>
      </trkpt>
      <trkpt lat="45.62268" lon="6.53391">
        <ele>1995</ele>
        <time>2025-02-20T11:21:57Z</time>
      </trkpt>
      <trkpt lat="45.62268" lon="6.53389">
        <ele>1995</ele>
        <time>2025-02-20T11:21:58Z</time>
      </trkpt>
      <trkpt lat="45.62268" lon="6.53388">
        <ele>1995</ele>
        <time>2025-02-20T11:21:59Z</time>
      </trkpt>
      <trkpt lat="45.62268" lon="6.53386">
        <ele>1994.2</ele>
        <time>2025-02-20T11:22:00Z</time>
      </trkpt>
      <trkpt lat="45.62268" lon="6.53384">
        <ele>1993.8</ele>
        <time>2025-02-20T11:22:01Z</time>
      </trkpt>
      <trkpt lat="45.62268" lon="6.53382">
        <ele>1993.8</ele>
        <time>2025-02-20T11:22:02Z</time>
      </trkpt>
      <trkpt lat="45.62268" lon="6.5338">
        <ele>1993.8</ele>
        <time>2025-02-20T11:22:03Z</time>
      </trkpt>
      <trkpt lat="45.62268" lon="6.53378">
        <ele>1992.8</ele>
        <time>2025-02-20T11:22:04Z</time>
      </trkpt>
      <trkpt lat="45.62268" lon="6.53377">
        <ele>1992.2</ele>
        <time>2025-02-20T11:22:05Z</time>
      </trkpt>
      <trkpt lat="45.62267" lon="6.53375">
        <ele>1992.2</ele>
        <time>2025-02-20T11:22:06Z</time>
      </trkpt>
      <trkpt lat="45.62267" lon="6.53375">
        <ele>1992.2</ele>
        <time>2025-02-20T11:22:07Z</time>
      </trkpt>
      <trkpt lat="45.62267" lon="6.53373">
        <ele>1992.2</ele>
        <time>2025-02-20T11:22:08Z</time>
      </trkpt>
      <trkpt lat="45.62267" lon="6.53371">
        <ele>1991.2</ele>
        <time>2025-02-20T11:22:09Z</time>
      </trkpt>
      <trkpt lat="45.62267" lon="6.53369">
        <ele>1991.2</ele>
        <time>2025-02-20T11:22:10Z</time>
      </trkpt>
      <trkpt lat="45.62267" lon="6.53368">
        <ele>1991.2</ele>
        <time>2025-02-20T11:22:11Z</time>
      </trkpt>
      <trkpt lat="45.62267" lon="6.53366">
        <ele>1991.2</ele>
        <time>2025-02-20T11:22:12Z</time>
      </trkpt>
      <trkpt lat="45.62267" lon="6.53365">
        <ele>1990</ele>
        <time>2025-02-20T11:22:13Z</time>
      </trkpt>
      <trkpt lat="45.62267" lon="6.53364">
        <ele>1990</ele>
        <time>2025-02-20T11:22:14Z</time>
      </trkpt>
      <trkpt lat="45.62267" lon="6.53363">
        <ele>1990</ele>
        <time>2025-02-20T11:22:15Z</time>
      </trkpt>
      <trkpt lat="45.62267" lon="6.53362">
        <ele>1990</ele>
        <time>2025-02-20T11:22:16Z</time>
      </trkpt>
      <trkpt lat="45.62267" lon="6.53361">
        <ele>1989.6</ele>
        <time>2025-02-20T11:22:17Z</time>
      </trkpt>
      <trkpt lat="45.62267" lon="6.5336">
        <ele>1989.6</ele>
        <time>2025-02-20T11:22:18Z</time>
      </trkpt>
      <trkpt lat="45.62267" lon="6.53359">
        <ele>1989.6</ele>
        <time>2025-02-20T11:22:19Z</time>
      </trkpt>
      <trkpt lat="45.62267" lon="6.53357">
        <ele>1989.4</ele>
        <time>2025-02-20T11:22:20Z</time>
      </trkpt>
      <trkpt lat="45.62267" lon="6.53356">
        <ele>1989</ele>
        <time>2025-02-20T11:22:21Z</time>
      </trkpt>
      <trkpt lat="45.62267" lon="6.53355">
        <ele>1989</ele>
        <time>2025-02-20T11:22:22Z</time>
      </trkpt>
      <trkpt lat="45.62267" lon="6.53354">
        <ele>1989</ele>
        <time>2025-02-20T11:22:23Z</time>
      </trkpt>
      <trkpt lat="45.62266" lon="6.53353">
        <ele>1989</ele>
        <time>2025-02-20T11:22:24Z</time>
      </trkpt>
      <trkpt lat="45.62266" lon="6.53352">
        <ele>1989.2</ele>
        <time>2025-02-20T11:22:25Z</time>
      </trkpt>
      <trkpt lat="45.62266" lon="6.53351">
        <ele>1989.2</ele>
        <time>2025-02-20T11:22:26Z</time>
      </trkpt>
      <trkpt lat="45.62266" lon="6.5335">
        <ele>1989.2</ele>
        <time>2025-02-20T11:22:27Z</time>
      </trkpt>
      <trkpt lat="45.62266" lon="6.53348">
        <ele>1989.2</ele>
        <time>2025-02-20T11:22:28Z</time>
      </trkpt>
      <trkpt lat="45.62266" lon="6.53347">
        <ele>1989.4</ele>
        <time>2025-02-20T11:22:29Z</time>
      </trkpt>
      <trkpt lat="45.62266" lon="6.53346">
        <ele>1989.4</ele>
        <time>2025-02-20T11:22:30Z</time>
      </trkpt>
      <trkpt lat="45.62265" lon="6.53345">
        <ele>1989.4</ele>
        <time>2025-02-20T11:22:31Z</time>
      </trkpt>
      <trkpt lat="45.62265" lon="6.53343">
        <ele>1988.6</ele>
        <time>2025-02-20T11:22:32Z</time>
      </trkpt>
      <trkpt lat="45.62265" lon="6.53342">
        <ele>1988.8</ele>
        <time>2025-02-20T11:22:33Z</time>
      </trkpt>
      <trkpt lat="45.62265" lon="6.5334">
        <ele>1988.8</ele>
        <time>2025-02-20T11:22:34Z</time>
      </trkpt>
      <trkpt lat="45.62265" lon="6.53338">
        <ele>1988.8</ele>
        <time>2025-02-20T11:22:35Z</time>
      </trkpt>
      <trkpt lat="45.62265" lon="6.53336">
        <ele>1987.8</ele>
        <time>2025-02-20T11:22:36Z</time>
      </trkpt>
      <trkpt lat="45.62265" lon="6.53334">
        <ele>1987.4</ele>
        <time>2025-02-20T11:22:37Z</time>
      </trkpt>
      <trkpt lat="45.62265" lon="6.53332">
        <ele>1987.4</ele>
        <time>2025-02-20T11:22:38Z</time>
      </trkpt>
      <trkpt lat="45.62265" lon="6.5333">
        <ele>1987.4</ele>
        <time>2025-02-20T11:22:39Z</time>
      </trkpt>
      <trkpt lat="45.62265" lon="6.53329">
        <ele>1987</ele>
        <time>2025-02-20T11:22:40Z</time>
      </trkpt>
      <trkpt lat="45.62265" lon="6.53326">
        <ele>1986.8</ele>
        <time>2025-02-20T11:22:41Z</time>
      </trkpt>
      <trkpt lat="45.62265" lon="6.53325">
        <ele>1986.8</ele>
        <time>2025-02-20T11:22:42Z</time>
      </trkpt>
      <trkpt lat="45.62265" lon="6.53323">
        <ele>1986.8</ele>
        <time>2025-02-20T11:22:43Z</time>
      </trkpt>
      <trkpt lat="45.62265" lon="6.53322">
        <ele>1986.2</ele>
        <time>2025-02-20T11:22:44Z</time>
      </trkpt>
      <trkpt lat="45.62265" lon="6.53321">
        <ele>1986.2</ele>
        <time>2025-02-20T11:22:45Z</time>
      </trkpt>
      <trkpt lat="45.62264" lon="6.53319">
        <ele>1986.2</ele>
        <time>2025-02-20T11:22:46Z</time>
      </trkpt>
      <trkpt lat="45.62264" lon="6.53318">
        <ele>1986.2</ele>
        <time>2025-02-20T11:22:47Z</time>
      </trkpt>
      <trkpt lat="45.62264" lon="6.53316">
        <ele>1986.2</ele>
        <time>2025-02-20T11:22:48Z</time>
      </trkpt>
      <trkpt lat="45.62264" lon="6.53315">
        <ele>1986.2</ele>
        <time>2025-02-20T11:22:49Z</time>
      </trkpt>
      <trkpt lat="45.62264" lon="6.53314">
        <ele>1986.2</ele>
        <time>2025-02-20T11:22:50Z</time>
      </trkpt>
      <trkpt lat="45.62264" lon="6.53312">
        <ele>1986.2</ele>
        <time>2025-02-20T11:22:51Z</time>
      </trkpt>
      <trkpt lat="45.62264" lon="6.53311">
        <ele>1986.2</ele>
        <time>2025-02-20T11:22:52Z</time>
      </trkpt>
      <trkpt lat="45.62264" lon="6.5331">
        <ele>1985.6</ele>
        <time>2025-02-20T11:22:53Z</time>
      </trkpt>
      <trkpt lat="45.62264" lon="6.53309">
        <ele>1985.6</ele>
        <time>2025-02-20T11:22:54Z</time>
      </trkpt>
      <trkpt lat="45.62264" lon="6.53307">
        <ele>1985.6</ele>
        <time>2025-02-20T11:22:55Z</time>
      </trkpt>
      <trkpt lat="45.62264" lon="6.53305">
        <ele>1985.2</ele>
        <time>2025-02-20T11:22:56Z</time>
      </trkpt>
      <trkpt lat="45.62264" lon="6.53304">
        <ele>1985</ele>
        <time>2025-02-20T11:22:57Z</time>
      </trkpt>
      <trkpt lat="45.62264" lon="6.53303">
        <ele>1985</ele>
        <time>2025-02-20T11:22:58Z</time>
      </trkpt>
      <trkpt lat="45.62264" lon="6.53301">
        <ele>1985</ele>
        <time>2025-02-20T11:22:59Z</time>
      </trkpt>
      <trkpt lat="45.62264" lon="6.533">
        <ele>1985</ele>
        <time>2025-02-20T11:23:00Z</time>
      </trkpt>
      <trkpt lat="45.62264" lon="6.53298">
        <ele>1985</ele>
        <time>2025-02-20T11:23:01Z</time>
      </trkpt>
      <trkpt lat="45.62264" lon="6.53297">
        <ele>1985</ele>
        <time>2025-02-20T11:23:02Z</time>
      </trkpt>
      <trkpt lat="45.62264" lon="6.53295">
        <ele>1985</ele>
        <time>2025-02-20T11:23:03Z</time>
      </trkpt>
      <trkpt lat="45.62265" lon="6.53293">
        <ele>1984</ele>
        <time>2025-02-20T11:23:04Z</time>
      </trkpt>
      <trkpt lat="45.62265" lon="6.53292">
        <ele>1983.8</ele>
        <time>2025-02-20T11:23:05Z</time>
      </trkpt>
      <trkpt lat="45.62265" lon="6.53291">
        <ele>1983.8</ele>
        <time>2025-02-20T11:23:06Z</time>
      </trkpt>
      <trkpt lat="45.62265" lon="6.53289">
        <ele>1983.8</ele>
        <time>2025-02-20T11:23:07Z</time>
      </trkpt>
      <trkpt lat="45.62265" lon="6.53288">
        <ele>1983.8</ele>
        <time>2025-02-20T11:23:08Z</time>
      </trkpt>
      <trkpt lat="45.62265" lon="6.53286">
        <ele>1984</ele>
        <time>2025-02-20T11:23:09Z</time>
      </trkpt>
      <trkpt lat="45.62265" lon="6.53285">
        <ele>1984</ele>
        <time>2025-02-20T11:23:10Z</time>
      </trkpt>
      <trkpt lat="45.62266" lon="6.53284">
        <ele>1984</ele>
        <time>2025-02-20T11:23:11Z</time>
      </trkpt>
      <trkpt lat="45.62266" lon="6.53282">
        <ele>1984</ele>
        <time>2025-02-20T11:23:12Z</time>
      </trkpt>
      <trkpt lat="45.62266" lon="6.53281">
        <ele>1983.4</ele>
        <time>2025-02-20T11:23:13Z</time>
      </trkpt>
      <trkpt lat="45.62266" lon="6.5328">
        <ele>1983.4</ele>
        <time>2025-02-20T11:23:14Z</time>
      </trkpt>
      <trkpt lat="45.62266" lon="6.53278">
        <ele>1983.4</ele>
        <time>2025-02-20T11:23:15Z</time>
      </trkpt>
      <trkpt lat="45.62266" lon="6.53277">
        <ele>1983.4</ele>
        <time>2025-02-20T11:23:16Z</time>
      </trkpt>
      <trkpt lat="45.62267" lon="6.53275">
        <ele>1983.2</ele>
        <time>2025-02-20T11:23:17Z</time>
      </trkpt>
      <trkpt lat="45.62267" lon="6.53273">
        <ele>1983.2</ele>
        <time>2025-02-20T11:23:18Z</time>
      </trkpt>
      <trkpt lat="45.62267" lon="6.53271">
        <ele>1983.2</ele>
        <time>2025-02-20T11:23:19Z</time>
      </trkpt>
      <trkpt lat="45.62267" lon="6.5327">
        <ele>1983.2</ele>
        <time>2025-02-20T11:23:20Z</time>
      </trkpt>
      <trkpt lat="45.62267" lon="6.53268">
        <ele>1983.4</ele>
        <time>2025-02-20T11:23:21Z</time>
      </trkpt>
      <trkpt lat="45.62267" lon="6.53266">
        <ele>1983.4</ele>
        <time>2025-02-20T11:23:22Z</time>
      </trkpt>
      <trkpt lat="45.62267" lon="6.53265">
        <ele>1983.4</ele>
        <time>2025-02-20T11:23:23Z</time>
      </trkpt>
      <trkpt lat="45.62267" lon="6.53264">
        <ele>1982.4</ele>
        <time>2025-02-20T11:23:24Z</time>
      </trkpt>
      <trkpt lat="45.62268" lon="6.53262">
        <ele>1982</ele>
        <time>2025-02-20T11:23:25Z</time>
      </trkpt>
      <trkpt lat="45.62268" lon="6.53261">
        <ele>1982</ele>
        <time>2025-02-20T11:23:26Z</time>
      </trkpt>
      <trkpt lat="45.62268" lon="6.5326">
        <ele>1982</ele>
        <time>2025-02-20T11:23:27Z</time>
      </trkpt>
      <trkpt lat="45.62268" lon="6.53258">
        <ele>1982.8</ele>
        <time>2025-02-20T11:23:28Z</time>
      </trkpt>
      <trkpt lat="45.62268" lon="6.53256">
        <ele>1982.4</ele>
        <time>2025-02-20T11:23:29Z</time>
      </trkpt>
      <trkpt lat="45.62268" lon="6.53255">
        <ele>1982.4</ele>
        <time>2025-02-20T11:23:30Z</time>
      </trkpt>
      <trkpt lat="45.62268" lon="6.53253">
        <ele>1982.4</ele>
        <time>2025-02-20T11:23:31Z</time>
      </trkpt>
      <trkpt lat="45.62268" lon="6.53251">
        <ele>1982.4</ele>
        <time>2025-02-20T11:23:32Z</time>
      </trkpt>
      <trkpt lat="45.62269" lon="6.53249">
        <ele>1981.6</ele>
        <time>2025-02-20T11:23:33Z</time>
      </trkpt>
      <trkpt lat="45.62268" lon="6.53247">
        <ele>1981.6</ele>
        <time>2025-02-20T11:23:34Z</time>
      </trkpt>
      <trkpt lat="45.62268" lon="6.53244">
        <ele>1981.6</ele>
        <time>2025-02-20T11:23:35Z</time>
      </trkpt>
      <trkpt lat="45.62268" lon="6.53241">
        <ele>1980.6</ele>
        <time>2025-02-20T11:23:36Z</time>
      </trkpt>
      <trkpt lat="45.62268" lon="6.53237">
        <ele>1979.8</ele>
        <time>2025-02-20T11:23:37Z</time>
      </trkpt>
      <trkpt lat="45.62268" lon="6.53234">
        <ele>1979.8</ele>
        <time>2025-02-20T11:23:38Z</time>
      </trkpt>
      <trkpt lat="45.62268" lon="6.5323">
        <ele>1979.8</ele>
        <time>2025-02-20T11:23:39Z</time>
      </trkpt>
      <trkpt lat="45.62267" lon="6.53226">
        <ele>1979</ele>
        <time>2025-02-20T11:23:40Z</time>
      </trkpt>
      <trkpt lat="45.62267" lon="6.53223">
        <ele>1978.8</ele>
        <time>2025-02-20T11:23:41Z</time>
      </trkpt>
      <trkpt lat="45.62266" lon="6.53221">
        <ele>1978.8</ele>
        <time>2025-02-20T11:23:42Z</time>
      </trkpt>
      <trkpt lat="45.62266" lon="6.53221">
        <ele>1978.8</ele>
        <time>2025-02-20T11:23:43Z</time>
      </trkpt>
      <trkpt lat="45.62266" lon="6.53219">
        <ele>1978.8</ele>
        <time>2025-02-20T11:23:44Z</time>
      </trkpt>
      <trkpt lat="45.62266" lon="6.53218">
        <ele>1979</ele>
        <time>2025-02-20T11:23:45Z</time>
      </trkpt>
      <trkpt lat="45.62266" lon="6.53217">
        <ele>1979</ele>
        <time>2025-02-20T11:23:46Z</time>
      </trkpt>
      <trkpt lat="45.62265" lon="6.53215">
        <ele>1979</ele>
        <time>2025-02-20T11:23:47Z</time>
      </trkpt>
      <trkpt lat="45.62265" lon="6.53214">
        <ele>1978.8</ele>
        <time>2025-02-20T11:23:48Z</time>
      </trkpt>
      <trkpt lat="45.62264" lon="6.53212">
        <ele>1978.2</ele>
        <time>2025-02-20T11:23:49Z</time>
      </trkpt>
      <trkpt lat="45.62264" lon="6.5321">
        <ele>1978.2</ele>
        <time>2025-02-20T11:23:50Z</time>
      </trkpt>
      <trkpt lat="45.62264" lon="6.53209">
        <ele>1978.2</ele>
        <time>2025-02-20T11:23:51Z</time>
      </trkpt>
      <trkpt lat="45.62264" lon="6.53207">
        <ele>1978.2</ele>
        <time>2025-02-20T11:23:52Z</time>
      </trkpt>
      <trkpt lat="45.62264" lon="6.53206">
        <ele>1976.8</ele>
        <time>2025-02-20T11:23:53Z</time>
      </trkpt>
      <trkpt lat="45.62264" lon="6.53204">
        <ele>1976.8</ele>
        <time>2025-02-20T11:23:54Z</time>
      </trkpt>
      <trkpt lat="45.62263" lon="6.53202">
        <ele>1976.8</ele>
        <time>2025-02-20T11:23:55Z</time>
      </trkpt>
      <trkpt lat="45.62263" lon="6.532">
        <ele>1976.4</ele>
        <time>2025-02-20T11:23:56Z</time>
      </trkpt>
      <trkpt lat="45.62263" lon="6.53199">
        <ele>1976.6</ele>
        <time>2025-02-20T11:23:57Z</time>
      </trkpt>
      <trkpt lat="45.62263" lon="6.53198">
        <ele>1976.6</ele>
        <time>2025-02-20T11:23:58Z</time>
      </trkpt>
      <trkpt lat="45.62263" lon="6.53197">
        <ele>1976.6</ele>
        <time>2025-02-20T11:23:59Z</time>
      </trkpt>
      <trkpt lat="45.62264" lon="6.53196">
        <ele>1976.6</ele>
        <time>2025-02-20T11:24:00Z</time>
      </trkpt>
      <trkpt lat="45.62264" lon="6.53195">
        <ele>1975.8</ele>
        <time>2025-02-20T11:24:01Z</time>
      </trkpt>
      <trkpt lat="45.62264" lon="6.53193">
        <ele>1975.8</ele>
        <time>2025-02-20T11:24:02Z</time>
      </trkpt>
      <trkpt lat="45.62264" lon="6.53192">
        <ele>1975.8</ele>
        <time>2025-02-20T11:24:03Z</time>
      </trkpt>
      <trkpt lat="45.62265" lon="6.53191">
        <ele>1975.8</ele>
        <time>2025-02-20T11:24:04Z</time>
      </trkpt>
      <trkpt lat="45.62265" lon="6.53189">
        <ele>1976.2</ele>
        <time>2025-02-20T11:24:05Z</time>
      </trkpt>
      <trkpt lat="45.62265" lon="6.53187">
        <ele>1976.2</ele>
        <time>2025-02-20T11:24:06Z</time>
      </trkpt>
      <trkpt lat="45.62265" lon="6.53185">
        <ele>1976.2</ele>
        <time>2025-02-20T11:24:07Z</time>
      </trkpt>
      <trkpt lat="45.62265" lon="6.53183">
        <ele>1975.2</ele>
        <time>2025-02-20T11:24:08Z</time>
      </trkpt>
      <trkpt lat="45.62265" lon="6.53182">
        <ele>1974.8</ele>
        <time>2025-02-20T11:24:09Z</time>
      </trkpt>
      <trkpt lat="45.62265" lon="6.53181">
        <ele>1974.8</ele>
        <time>2025-02-20T11:24:10Z</time>
      </trkpt>
      <trkpt lat="45.62265" lon="6.53179">
        <ele>1974.8</ele>
        <time>2025-02-20T11:24:11Z</time>
      </trkpt>
      <trkpt lat="45.62265" lon="6.53177">
        <ele>1974.8</ele>
        <time>2025-02-20T11:24:12Z</time>
      </trkpt>
      <trkpt lat="45.62265" lon="6.53176">
        <ele>1974.8</ele>
        <time>2025-02-20T11:24:13Z</time>
      </trkpt>
      <trkpt lat="45.62265" lon="6.53175">
        <ele>1974.8</ele>
        <time>2025-02-20T11:24:14Z</time>
      </trkpt>
      <trkpt lat="45.62265" lon="6.53173">
        <ele>1974.8</ele>
        <time>2025-02-20T11:24:15Z</time>
      </trkpt>
      <trkpt lat="45.62265" lon="6.53172">
        <ele>1974</ele>
        <time>2025-02-20T11:24:16Z</time>
      </trkpt>
      <trkpt lat="45.62266" lon="6.53171">
        <ele>1974</ele>
        <time>2025-02-20T11:24:17Z</time>
      </trkpt>
      <trkpt lat="45.62266" lon="6.53171">
        <ele>1974</ele>
        <time>2025-02-20T11:24:18Z</time>
      </trkpt>
      <trkpt lat="45.62266" lon="6.53171">
        <ele>1974</ele>
        <time>2025-02-20T11:24:19Z</time>
      </trkpt>
      <trkpt lat="45.62266" lon="6.53171">
        <ele>1974</ele>
        <time>2025-02-20T11:24:20Z</time>
      </trkpt>
      <trkpt lat="45.62266" lon="6.53171">
        <ele>1973.8</ele>
        <time>2025-02-20T11:24:21Z</time>
      </trkpt>
      <trkpt lat="45.62266" lon="6.53171">
        <ele>1973.8</ele>
        <time>2025-02-20T11:24:22Z</time>
      </trkpt>
      <trkpt lat="45.62266" lon="6.53171">
        <ele>1973.8</ele>
        <time>2025-02-20T11:24:23Z</time>
      </trkpt>
      <trkpt lat="45.62266" lon="6.53171">
        <ele>1973.8</ele>
        <time>2025-02-20T11:24:24Z</time>
      </trkpt>
      <trkpt lat="45.62266" lon="6.53171">
        <ele>1974</ele>
        <time>2025-02-20T11:24:25Z</time>
      </trkpt>
      <trkpt lat="45.62266" lon="6.53171">
        <ele>1974</ele>
        <time>2025-02-20T11:24:26Z</time>
      </trkpt>
      <trkpt lat="45.62266" lon="6.53171">
        <ele>1974</ele>
        <time>2025-02-20T11:24:27Z</time>
      </trkpt>
      <trkpt lat="45.62266" lon="6.53171">
        <ele>1974</ele>
        <time>2025-02-20T11:24:28Z</time>
      </trkpt>
      <trkpt lat="45.62266" lon="6.53171">
        <ele>1973.6</ele>
        <time>2025-02-20T11:24:29Z</time>
      </trkpt>
      <trkpt lat="45.62266" lon="6.53171">
        <ele>1973.6</ele>
        <time>2025-02-20T11:24:30Z</time>
      </trkpt>
      <trkpt lat="45.62265" lon="6.5317">
        <ele>1973.6</ele>
        <time>2025-02-20T11:24:31Z</time>
      </trkpt>
      <trkpt lat="45.62265" lon="6.5317">
        <ele>1973.6</ele>
        <time>2025-02-20T11:24:32Z</time>
      </trkpt>
      <trkpt lat="45.62265" lon="6.5317">
        <ele>1973.8</ele>
        <time>2025-02-20T11:24:33Z</time>
      </trkpt>
      <trkpt lat="45.62265" lon="6.5317">
        <ele>1973.8</ele>
        <time>2025-02-20T11:24:34Z</time>
      </trkpt>
      <trkpt lat="45.62265" lon="6.5317">
        <ele>1973.8</ele>
        <time>2025-02-20T11:24:35Z</time>
      </trkpt>
      <trkpt lat="45.62265" lon="6.5317">
        <ele>1974</ele>
        <time>2025-02-20T11:24:36Z</time>
      </trkpt>
      <trkpt lat="45.62265" lon="6.5317">
        <ele>1974</ele>
        <time>2025-02-20T11:24:37Z</time>
      </trkpt>
      <trkpt lat="45.62265" lon="6.5317">
        <ele>1974</ele>
        <time>2025-02-20T11:24:38Z</time>
      </trkpt>
      <trkpt lat="45.62265" lon="6.5317">
        <ele>1974</ele>
        <time>2025-02-20T11:24:39Z</time>
      </trkpt>
      <trkpt lat="45.62265" lon="6.5317">
        <ele>1974</ele>
        <time>2025-02-20T11:24:40Z</time>
      </trkpt>
      <trkpt lat="45.62265" lon="6.5317">
        <ele>1974.2</ele>
        <time>2025-02-20T11:24:41Z</time>
      </trkpt>
      <trkpt lat="45.62265" lon="6.5317">
        <ele>1974.2</ele>
        <time>2025-02-20T11:24:42Z</time>
      </trkpt>
      <trkpt lat="45.62265" lon="6.5317">
        <ele>1974.2</ele>
        <time>2025-02-20T11:24:43Z</time>
      </trkpt>
      <trkpt lat="45.62265" lon="6.5317">
        <ele>1974</ele>
        <time>2025-02-20T11:24:44Z</time>
      </trkpt>
      <trkpt lat="45.62265" lon="6.5317">
        <ele>1974</ele>
        <time>2025-02-20T11:24:45Z</time>
      </trkpt>
      <trkpt lat="45.62265" lon="6.5317">
        <ele>1974</ele>
        <time>2025-02-20T11:24:46Z</time>
      </trkpt>
      <trkpt lat="45.62265" lon="6.5317">
        <ele>1974</ele>
        <time>2025-02-20T11:24:47Z</time>
      </trkpt>
      <trkpt lat="45.62265" lon="6.5317">
        <ele>1974</ele>
        <time>2025-02-20T11:24:48Z</time>
      </trkpt>
      <trkpt lat="45.62265" lon="6.5317">
        <ele>1973.6</ele>
        <time>2025-02-20T11:24:49Z</time>
      </trkpt>
      <trkpt lat="45.62265" lon="6.5317">
        <ele>1973.6</ele>
        <time>2025-02-20T11:24:50Z</time>
      </trkpt>
      <trkpt lat="45.62265" lon="6.5317">
        <ele>1973.6</ele>
        <time>2025-02-20T11:24:51Z</time>
      </trkpt>
      <trkpt lat="45.62265" lon="6.5317">
        <ele>1973.6</ele>
        <time>2025-02-20T11:24:52Z</time>
      </trkpt>
      <trkpt lat="45.62265" lon="6.5317">
        <ele>1974.2</ele>
        <time>2025-02-20T11:24:53Z</time>
      </trkpt>
      <trkpt lat="45.62265" lon="6.5317">
        <ele>1974.2</ele>
        <time>2025-02-20T11:24:54Z</time>
      </trkpt>
      <trkpt lat="45.62265" lon="6.5317">
        <ele>1974.2</ele>
        <time>2025-02-20T11:24:55Z</time>
      </trkpt>
      <trkpt lat="45.62265" lon="6.5317">
        <ele>1974.2</ele>
        <time>2025-02-20T11:24:56Z</time>
      </trkpt>
      <trkpt lat="45.62265" lon="6.5317">
        <ele>1974</ele>
        <time>2025-02-20T11:24:57Z</time>
      </trkpt>
      <trkpt lat="45.62265" lon="6.5317">
        <ele>1974</ele>
        <time>2025-02-20T11:24:58Z</time>
      </trkpt>
      <trkpt lat="45.62265" lon="6.5317">
        <ele>1974</ele>
        <time>2025-02-20T11:24:59Z</time>
      </trkpt>
      <trkpt lat="45.62265" lon="6.5317">
        <ele>1974</ele>
        <time>2025-02-20T11:25:00Z</time>
      </trkpt>
      <trkpt lat="45.62265" lon="6.5317">
        <ele>1973.6</ele>
        <time>2025-02-20T11:25:01Z</time>
      </trkpt>
      <trkpt lat="45.62265" lon="6.5317">
        <ele>1973.6</ele>
        <time>2025-02-20T11:25:02Z</time>
      </trkpt>
      <trkpt lat="45.62265" lon="6.5317">
        <ele>1973.6</ele>
        <time>2025-02-20T11:25:03Z</time>
      </trkpt>
      <trkpt lat="45.62265" lon="6.5317">
        <ele>1973.6</ele>
        <time>2025-02-20T11:25:04Z</time>
      </trkpt>
      <trkpt lat="45.62265" lon="6.5317">
        <ele>1974</ele>
        <time>2025-02-20T11:25:05Z</time>
      </trkpt>
      <trkpt lat="45.62265" lon="6.5317">
        <ele>1974</ele>
        <time>2025-02-20T11:25:06Z</time>
      </trkpt>
      <trkpt lat="45.62265" lon="6.5317">
        <ele>1974</ele>
        <time>2025-02-20T11:25:07Z</time>
      </trkpt>
      <trkpt lat="45.62265" lon="6.5317">
        <ele>1974</ele>
        <time>2025-02-20T11:25:08Z</time>
      </trkpt>
      <trkpt lat="45.62265" lon="6.5317">
        <ele>1973.2</ele>
        <time>2025-02-20T11:25:09Z</time>
      </trkpt>
      <trkpt lat="45.62265" lon="6.5317">
        <ele>1973.2</ele>
        <time>2025-02-20T11:25:10Z</time>
      </trkpt>
      <trkpt lat="45.62265" lon="6.5317">
        <ele>1973.2</ele>
        <time>2025-02-20T11:25:11Z</time>
      </trkpt>
      <trkpt lat="45.62265" lon="6.5317">
        <ele>1973.2</ele>
        <time>2025-02-20T11:25:12Z</time>
      </trkpt>
      <trkpt lat="45.62265" lon="6.5317">
        <ele>1974</ele>
        <time>2025-02-20T11:25:13Z</time>
      </trkpt>
      <trkpt lat="45.62265" lon="6.5317">
        <ele>1974</ele>
        <time>2025-02-20T11:25:14Z</time>
      </trkpt>
      <trkpt lat="45.62265" lon="6.5317">
        <ele>1974</ele>
        <time>2025-02-20T11:25:15Z</time>
      </trkpt>
      <trkpt lat="45.62265" lon="6.5317">
        <ele>1974</ele>
        <time>2025-02-20T11:25:16Z</time>
      </trkpt>
      <trkpt lat="45.62265" lon="6.5317">
        <ele>1973.8</ele>
        <time>2025-02-20T11:25:17Z</time>
      </trkpt>
      <trkpt lat="45.62265" lon="6.5317">
        <ele>1973.8</ele>
        <time>2025-02-20T11:25:18Z</time>
      </trkpt>
      <trkpt lat="45.62265" lon="6.5317">
        <ele>1973.8</ele>
        <time>2025-02-20T11:25:19Z</time>
      </trkpt>
      <trkpt lat="45.62265" lon="6.5317">
        <ele>1973.8</ele>
        <time>2025-02-20T11:25:20Z</time>
      </trkpt>
      <trkpt lat="45.62265" lon="6.5317">
        <ele>1973.8</ele>
        <time>2025-02-20T11:25:21Z</time>
      </trkpt>
      <trkpt lat="45.62265" lon="6.5317">
        <ele>1973.8</ele>
        <time>2025-02-20T11:25:22Z</time>
      </trkpt>
      <trkpt lat="45.62265" lon="6.5317">
        <ele>1973.8</ele>
        <time>2025-02-20T11:25:23Z</time>
      </trkpt>
      <trkpt lat="45.62265" lon="6.5317">
        <ele>1973.8</ele>
        <time>2025-02-20T11:25:24Z</time>
      </trkpt>
      <trkpt lat="45.62265" lon="6.5317">
        <ele>1973.6</ele>
        <time>2025-02-20T11:25:25Z</time>
      </trkpt>
      <trkpt lat="45.62265" lon="6.5317">
        <ele>1973.6</ele>
        <time>2025-02-20T11:25:26Z</time>
      </trkpt>
      <trkpt lat="45.62265" lon="6.5317">
        <ele>1973.6</ele>
        <time>2025-02-20T11:25:27Z</time>
      </trkpt>
      <trkpt lat="45.62265" lon="6.5317">
        <ele>1973.6</ele>
        <time>2025-02-20T11:25:28Z</time>
      </trkpt>
      <trkpt lat="45.62265" lon="6.5317">
        <ele>1973.8</ele>
        <time>2025-02-20T11:25:29Z</time>
      </trkpt>
      <trkpt lat="45.62265" lon="6.5317">
        <ele>1973.8</ele>
        <time>2025-02-20T11:25:30Z</time>
      </trkpt>
      <trkpt lat="45.62265" lon="6.5317">
        <ele>1973.8</ele>
        <time>2025-02-20T11:25:31Z</time>
      </trkpt>
      <trkpt lat="45.62265" lon="6.5317">
        <ele>1973.4</ele>
        <time>2025-02-20T11:25:32Z</time>
      </trkpt>
      <trkpt lat="45.62265" lon="6.5317">
        <ele>1973.6</ele>
        <time>2025-02-20T11:25:33Z</time>
      </trkpt>
      <trkpt lat="45.62265" lon="6.5317">
        <ele>1973.6</ele>
        <time>2025-02-20T11:25:34Z</time>
      </trkpt>
      <trkpt lat="45.62265" lon="6.5317">
        <ele>1973.6</ele>
        <time>2025-02-20T11:25:35Z</time>
      </trkpt>
      <trkpt lat="45.62265" lon="6.5317">
        <ele>1973.6</ele>
        <time>2025-02-20T11:25:36Z</time>
      </trkpt>
      <trkpt lat="45.62265" lon="6.5317">
        <ele>1973.6</ele>
        <time>2025-02-20T11:25:37Z</time>
      </trkpt>
      <trkpt lat="45.62265" lon="6.5317">
        <ele>1973.6</ele>
        <time>2025-02-20T11:25:38Z</time>
      </trkpt>
      <trkpt lat="45.62265" lon="6.5317">
        <ele>1973.6</ele>
        <time>2025-02-20T11:25:39Z</time>
      </trkpt>
      <trkpt lat="45.62265" lon="6.5317">
        <ele>1973.6</ele>
        <time>2025-02-20T11:25:40Z</time>
      </trkpt>
      <trkpt lat="45.62265" lon="6.5317">
        <ele>1973.6</ele>
        <time>2025-02-20T11:25:41Z</time>
      </trkpt>
      <trkpt lat="45.62265" lon="6.5317">
        <ele>1973.6</ele>
        <time>2025-02-20T11:25:42Z</time>
      </trkpt>
      <trkpt lat="45.62265" lon="6.5317">
        <ele>1973.6</ele>
        <time>2025-02-20T11:25:43Z</time>
      </trkpt>
      <trkpt lat="45.62265" lon="6.5317">
        <ele>1973.6</ele>
        <time>2025-02-20T11:25:44Z</time>
      </trkpt>
      <trkpt lat="45.62265" lon="6.5317">
        <ele>1973.6</ele>
        <time>2025-02-20T11:25:45Z</time>
      </trkpt>
      <trkpt lat="45.62265" lon="6.5317">
        <ele>1973.6</ele>
        <time>2025-02-20T11:25:46Z</time>
      </trkpt>
      <trkpt lat="45.62265" lon="6.5317">
        <ele>1973.6</ele>
        <time>2025-02-20T11:25:47Z</time>
      </trkpt>
      <trkpt lat="45.62265" lon="6.5317">
        <ele>1973.4</ele>
        <time>2025-02-20T11:25:48Z</time>
      </trkpt>
      <trkpt lat="45.62265" lon="6.5317">
        <ele>1972.8</ele>
        <time>2025-02-20T11:25:49Z</time>
      </trkpt>
      <trkpt lat="45.62265" lon="6.5317">
        <ele>1972.8</ele>
        <time>2025-02-20T11:25:50Z</time>
      </trkpt>
      <trkpt lat="45.62265" lon="6.5317">
        <ele>1972.8</ele>
        <time>2025-02-20T11:25:51Z</time>
      </trkpt>
      <trkpt lat="45.62265" lon="6.5317">
        <ele>1973.4</ele>
        <time>2025-02-20T11:25:52Z</time>
      </trkpt>
      <trkpt lat="45.62265" lon="6.5317">
        <ele>1973.4</ele>
        <time>2025-02-20T11:25:53Z</time>
      </trkpt>
      <trkpt lat="45.62265" lon="6.5317">
        <ele>1973.4</ele>
        <time>2025-02-20T11:25:54Z</time>
      </trkpt>
      <trkpt lat="45.62265" lon="6.5317">
        <ele>1973.4</ele>
        <time>2025-02-20T11:25:55Z</time>
      </trkpt>
      <trkpt lat="45.62265" lon="6.5317">
        <ele>1973.4</ele>
        <time>2025-02-20T11:25:56Z</time>
      </trkpt>
      <trkpt lat="45.62265" lon="6.5317">
        <ele>1973.2</ele>
        <time>2025-02-20T11:25:57Z</time>
      </trkpt>
      <trkpt lat="45.62265" lon="6.5317">
        <ele>1973.2</ele>
        <time>2025-02-20T11:25:58Z</time>
      </trkpt>
      <trkpt lat="45.62265" lon="6.5317">
        <ele>1973.2</ele>
        <time>2025-02-20T11:25:59Z</time>
      </trkpt>
      <trkpt lat="45.62265" lon="6.5317">
        <ele>1973.2</ele>
        <time>2025-02-20T11:26:00Z</time>
      </trkpt>
      <trkpt lat="45.62265" lon="6.5317">
        <ele>1973.2</ele>
        <time>2025-02-20T11:26:01Z</time>
      </trkpt>
      <trkpt lat="45.62265" lon="6.5317">
        <ele>1973.2</ele>
        <time>2025-02-20T11:26:02Z</time>
      </trkpt>
      <trkpt lat="45.62265" lon="6.5317">
        <ele>1973.2</ele>
        <time>2025-02-20T11:26:03Z</time>
      </trkpt>
      <trkpt lat="45.62265" lon="6.5317">
        <ele>1973.2</ele>
        <time>2025-02-20T11:26:04Z</time>
      </trkpt>
      <trkpt lat="45.62265" lon="6.5317">
        <ele>1973.4</ele>
        <time>2025-02-20T11:26:05Z</time>
      </trkpt>
      <trkpt lat="45.62265" lon="6.5317">
        <ele>1973.4</ele>
        <time>2025-02-20T11:26:06Z</time>
      </trkpt>
      <trkpt lat="45.62265" lon="6.5317">
        <ele>1973.4</ele>
        <time>2025-02-20T11:26:07Z</time>
      </trkpt>
      <trkpt lat="45.62265" lon="6.5317">
        <ele>1973.6</ele>
        <time>2025-02-20T11:26:08Z</time>
      </trkpt>
      <trkpt lat="45.62265" lon="6.5317">
        <ele>1973.8</ele>
        <time>2025-02-20T11:26:09Z</time>
      </trkpt>
      <trkpt lat="45.62265" lon="6.5317">
        <ele>1973.8</ele>
        <time>2025-02-20T11:26:10Z</time>
      </trkpt>
      <trkpt lat="45.62265" lon="6.5317">
        <ele>1973.8</ele>
        <time>2025-02-20T11:26:11Z</time>
      </trkpt>
      <trkpt lat="45.62265" lon="6.5317">
        <ele>1973.4</ele>
        <time>2025-02-20T11:26:12Z</time>
      </trkpt>
      <trkpt lat="45.62265" lon="6.5317">
        <ele>1973.6</ele>
        <time>2025-02-20T11:26:13Z</time>
      </trkpt>
      <trkpt lat="45.62265" lon="6.5317">
        <ele>1973.6</ele>
        <time>2025-02-20T11:26:14Z</time>
      </trkpt>
      <trkpt lat="45.62265" lon="6.5317">
        <ele>1973.6</ele>
        <time>2025-02-20T11:26:15Z</time>
      </trkpt>
      <trkpt lat="45.62265" lon="6.5317">
        <ele>1973.6</ele>
        <time>2025-02-20T11:26:16Z</time>
      </trkpt>
      <trkpt lat="45.62265" lon="6.5317">
        <ele>1973.6</ele>
        <time>2025-02-20T11:26:17Z</time>
      </trkpt>
      <trkpt lat="45.62265" lon="6.5317">
        <ele>1973.6</ele>
        <time>2025-02-20T11:26:18Z</time>
      </trkpt>
      <trkpt lat="45.62265" lon="6.5317">
        <ele>1973.6</ele>
        <time>2025-02-20T11:26:19Z</time>
      </trkpt>
      <trkpt lat="45.62265" lon="6.5317">
        <ele>1973.6</ele>
        <time>2025-02-20T11:26:20Z</time>
      </trkpt>
      <trkpt lat="45.62265" lon="6.5317">
        <ele>1973.8</ele>
        <time>2025-02-20T11:26:21Z</time>
      </trkpt>
      <trkpt lat="45.62265" lon="6.5317">
        <ele>1973.8</ele>
        <time>2025-02-20T11:26:22Z</time>
      </trkpt>
      <trkpt lat="45.62265" lon="6.5317">
        <ele>1973.8</ele>
        <time>2025-02-20T11:26:23Z</time>
      </trkpt>
      <trkpt lat="45.62265" lon="6.5317">
        <ele>1973.8</ele>
        <time>2025-02-20T11:26:24Z</time>
      </trkpt>
      <trkpt lat="45.62265" lon="6.5317">
        <ele>1973.8</ele>
        <time>2025-02-20T11:26:25Z</time>
      </trkpt>
      <trkpt lat="45.62265" lon="6.5317">
        <ele>1973.8</ele>
        <time>2025-02-20T11:26:26Z</time>
      </trkpt>
      <trkpt lat="45.62265" lon="6.5317">
        <ele>1973.8</ele>
        <time>2025-02-20T11:26:27Z</time>
      </trkpt>
      <trkpt lat="45.62265" lon="6.5317">
        <ele>1973.8</ele>
        <time>2025-02-20T11:26:28Z</time>
      </trkpt>
      <trkpt lat="45.62265" lon="6.5317">
        <ele>1975</ele>
        <time>2025-02-20T11:26:29Z</time>
      </trkpt>
      <trkpt lat="45.62265" lon="6.5317">
        <ele>1975</ele>
        <time>2025-02-20T11:26:30Z</time>
      </trkpt>
      <trkpt lat="45.62265" lon="6.5317">
        <ele>1975</ele>
        <time>2025-02-20T11:26:31Z</time>
      </trkpt>
      <trkpt lat="45.62265" lon="6.5317">
        <ele>1974</ele>
        <time>2025-02-20T11:26:32Z</time>
      </trkpt>
      <trkpt lat="45.62265" lon="6.5317">
        <ele>1973.6</ele>
        <time>2025-02-20T11:26:33Z</time>
      </trkpt>
      <trkpt lat="45.62265" lon="6.5317">
        <ele>1973.6</ele>
        <time>2025-02-20T11:26:34Z</time>
      </trkpt>
      <trkpt lat="45.62265" lon="6.5317">
        <ele>1973.6</ele>
        <time>2025-02-20T11:26:35Z</time>
      </trkpt>
      <trkpt lat="45.62265" lon="6.5317">
        <ele>1973.6</ele>
        <time>2025-02-20T11:26:36Z</time>
      </trkpt>
      <trkpt lat="45.62265" lon="6.5317">
        <ele>1974.2</ele>
        <time>2025-02-20T11:26:37Z</time>
      </trkpt>
      <trkpt lat="45.62265" lon="6.5317">
        <ele>1974.2</ele>
        <time>2025-02-20T11:26:38Z</time>
      </trkpt>
      <trkpt lat="45.62265" lon="6.5317">
        <ele>1974.2</ele>
        <time>2025-02-20T11:26:39Z</time>
      </trkpt>
      <trkpt lat="45.62265" lon="6.5317">
        <ele>1974.2</ele>
        <time>2025-02-20T11:26:40Z</time>
      </trkpt>
      <trkpt lat="45.62265" lon="6.5317">
        <ele>1974</ele>
        <time>2025-02-20T11:26:41Z</time>
      </trkpt>
      <trkpt lat="45.62265" lon="6.5317">
        <ele>1974</ele>
        <time>2025-02-20T11:26:42Z</time>
      </trkpt>
      <trkpt lat="45.62265" lon="6.5317">
        <ele>1974</ele>
        <time>2025-02-20T11:26:43Z</time>
      </trkpt>
      <trkpt lat="45.62265" lon="6.5317">
        <ele>1974</ele>
        <time>2025-02-20T11:26:44Z</time>
      </trkpt>
      <trkpt lat="45.62265" lon="6.5317">
        <ele>1973.8</ele>
        <time>2025-02-20T11:26:45Z</time>
      </trkpt>
      <trkpt lat="45.62265" lon="6.5317">
        <ele>1973.8</ele>
        <time>2025-02-20T11:26:46Z</time>
      </trkpt>
      <trkpt lat="45.62265" lon="6.5317">
        <ele>1973.8</ele>
        <time>2025-02-20T11:26:47Z</time>
      </trkpt>
      <trkpt lat="45.62265" lon="6.5317">
        <ele>1973</ele>
        <time>2025-02-20T11:26:48Z</time>
      </trkpt>
      <trkpt lat="45.62265" lon="6.5317">
        <ele>1974</ele>
        <time>2025-02-20T11:26:49Z</time>
      </trkpt>
      <trkpt lat="45.62265" lon="6.5317">
        <ele>1974</ele>
        <time>2025-02-20T11:26:50Z</time>
      </trkpt>
      <trkpt lat="45.62265" lon="6.5317">
        <ele>1974</ele>
        <time>2025-02-20T11:26:51Z</time>
      </trkpt>
      <trkpt lat="45.62265" lon="6.5317">
        <ele>1973.4</ele>
        <time>2025-02-20T11:26:52Z</time>
      </trkpt>
      <trkpt lat="45.62265" lon="6.5317">
        <ele>1973.4</ele>
        <time>2025-02-20T11:26:53Z</time>
      </trkpt>
      <trkpt lat="45.62265" lon="6.5317">
        <ele>1973.4</ele>
        <time>2025-02-20T11:26:54Z</time>
      </trkpt>
      <trkpt lat="45.62265" lon="6.5317">
        <ele>1973.4</ele>
        <time>2025-02-20T11:26:55Z</time>
      </trkpt>
      <trkpt lat="45.62265" lon="6.5317">
        <ele>1973.4</ele>
        <time>2025-02-20T11:26:56Z</time>
      </trkpt>
      <trkpt lat="45.62265" lon="6.5317">
        <ele>1974.2</ele>
        <time>2025-02-20T11:26:57Z</time>
      </trkpt>
      <trkpt lat="45.62265" lon="6.5317">
        <ele>1974.2</ele>
        <time>2025-02-20T11:26:58Z</time>
      </trkpt>
      <trkpt lat="45.62265" lon="6.5317">
        <ele>1974.2</ele>
        <time>2025-02-20T11:26:59Z</time>
      </trkpt>
      <trkpt lat="45.62265" lon="6.5317">
        <ele>1974.2</ele>
        <time>2025-02-20T11:27:00Z</time>
      </trkpt>
      <trkpt lat="45.62265" lon="6.5317">
        <ele>1973.2</ele>
        <time>2025-02-20T11:27:01Z</time>
      </trkpt>
      <trkpt lat="45.62265" lon="6.5317">
        <ele>1973.2</ele>
        <time>2025-02-20T11:27:02Z</time>
      </trkpt>
      <trkpt lat="45.62265" lon="6.5317">
        <ele>1973.2</ele>
        <time>2025-02-20T11:27:03Z</time>
      </trkpt>
      <trkpt lat="45.62265" lon="6.5317">
        <ele>1973.6</ele>
        <time>2025-02-20T11:27:04Z</time>
      </trkpt>
      <trkpt lat="45.62265" lon="6.5317">
        <ele>1974.2</ele>
        <time>2025-02-20T11:27:05Z</time>
      </trkpt>
      <trkpt lat="45.62265" lon="6.5317">
        <ele>1974.2</ele>
        <time>2025-02-20T11:27:06Z</time>
      </trkpt>
      <trkpt lat="45.62265" lon="6.5317">
        <ele>1974.2</ele>
        <time>2025-02-20T11:27:07Z</time>
      </trkpt>
      <trkpt lat="45.62265" lon="6.5317">
        <ele>1974.2</ele>
        <time>2025-02-20T11:27:08Z</time>
      </trkpt>
      <trkpt lat="45.62265" lon="6.5317">
        <ele>1973.8</ele>
        <time>2025-02-20T11:27:09Z</time>
      </trkpt>
      <trkpt lat="45.62265" lon="6.5317">
        <ele>1973.8</ele>
        <time>2025-02-20T11:27:10Z</time>
      </trkpt>
      <trkpt lat="45.62265" lon="6.5317">
        <ele>1973.8</ele>
        <time>2025-02-20T11:27:11Z</time>
      </trkpt>
      <trkpt lat="45.62265" lon="6.5317">
        <ele>1973.8</ele>
        <time>2025-02-20T11:27:12Z</time>
      </trkpt>
      <trkpt lat="45.62265" lon="6.5317">
        <ele>1973.4</ele>
        <time>2025-02-20T11:27:13Z</time>
      </trkpt>
      <trkpt lat="45.62265" lon="6.5317">
        <ele>1973.4</ele>
        <time>2025-02-20T11:27:14Z</time>
      </trkpt>
      <trkpt lat="45.62265" lon="6.5317">
        <ele>1973.4</ele>
        <time>2025-02-20T11:27:15Z</time>
      </trkpt>
      <trkpt lat="45.62265" lon="6.5317">
        <ele>1974.4</ele>
        <time>2025-02-20T11:27:16Z</time>
      </trkpt>
      <trkpt lat="45.62265" lon="6.5317">
        <ele>1973.8</ele>
        <time>2025-02-20T11:27:17Z</time>
      </trkpt>
      <trkpt lat="45.62265" lon="6.5317">
        <ele>1973.8</ele>
        <time>2025-02-20T11:27:18Z</time>
      </trkpt>
      <trkpt lat="45.62265" lon="6.5317">
        <ele>1973.8</ele>
        <time>2025-02-20T11:27:19Z</time>
      </trkpt>
      <trkpt lat="45.62265" lon="6.5317">
        <ele>1973.8</ele>
        <time>2025-02-20T11:27:20Z</time>
      </trkpt>
      <trkpt lat="45.62265" lon="6.5317">
        <ele>1973.8</ele>
        <time>2025-02-20T11:27:21Z</time>
      </trkpt>
      <trkpt lat="45.62265" lon="6.5317">
        <ele>1973.8</ele>
        <time>2025-02-20T11:27:22Z</time>
      </trkpt>
      <trkpt lat="45.62265" lon="6.5317">
        <ele>1973.8</ele>
        <time>2025-02-20T11:27:23Z</time>
      </trkpt>
      <trkpt lat="45.62265" lon="6.5317">
        <ele>1973.8</ele>
        <time>2025-02-20T11:27:24Z</time>
      </trkpt>
      <trkpt lat="45.62265" lon="6.5317">
        <ele>1973.2</ele>
        <time>2025-02-20T11:27:25Z</time>
      </trkpt>
      <trkpt lat="45.62265" lon="6.5317">
        <ele>1973.2</ele>
        <time>2025-02-20T11:27:26Z</time>
      </trkpt>
      <trkpt lat="45.62265" lon="6.5317">
        <ele>1973.2</ele>
        <time>2025-02-20T11:27:27Z</time>
      </trkpt>
      <trkpt lat="45.62265" lon="6.5317">
        <ele>1973.8</ele>
        <time>2025-02-20T11:27:28Z</time>
      </trkpt>
      <trkpt lat="45.62265" lon="6.5317">
        <ele>1974</ele>
        <time>2025-02-20T11:27:29Z</time>
      </trkpt>
      <trkpt lat="45.62265" lon="6.5317">
        <ele>1974</ele>
        <time>2025-02-20T11:27:30Z</time>
      </trkpt>
      <trkpt lat="45.62265" lon="6.5317">
        <ele>1974</ele>
        <time>2025-02-20T11:27:31Z</time>
      </trkpt>
      <trkpt lat="45.62265" lon="6.5317">
        <ele>1973.2</ele>
        <time>2025-02-20T11:27:32Z</time>
      </trkpt>
      <trkpt lat="45.62265" lon="6.5317">
        <ele>1973.6</ele>
        <time>2025-02-20T11:27:33Z</time>
      </trkpt>
      <trkpt lat="45.62265" lon="6.5317">
        <ele>1973.6</ele>
        <time>2025-02-20T11:27:34Z</time>
      </trkpt>
      <trkpt lat="45.62265" lon="6.5317">
        <ele>1973.6</ele>
        <time>2025-02-20T11:27:35Z</time>
      </trkpt>
      <trkpt lat="45.62265" lon="6.5317">
        <ele>1973.6</ele>
        <time>2025-02-20T11:27:36Z</time>
      </trkpt>
      <trkpt lat="45.62265" lon="6.5317">
        <ele>1974.2</ele>
        <time>2025-02-20T11:27:37Z</time>
      </trkpt>
      <trkpt lat="45.62265" lon="6.5317">
        <ele>1974.2</ele>
        <time>2025-02-20T11:27:38Z</time>
      </trkpt>
      <trkpt lat="45.62265" lon="6.5317">
        <ele>1974.2</ele>
        <time>2025-02-20T11:27:39Z</time>
      </trkpt>
      <trkpt lat="45.62265" lon="6.5317">
        <ele>1973.8</ele>
        <time>2025-02-20T11:27:40Z</time>
      </trkpt>
      <trkpt lat="45.62265" lon="6.5317">
        <ele>1973.8</ele>
        <time>2025-02-20T11:27:41Z</time>
      </trkpt>
      <trkpt lat="45.62265" lon="6.5317">
        <ele>1973.8</ele>
        <time>2025-02-20T11:27:42Z</time>
      </trkpt>
      <trkpt lat="45.62265" lon="6.5317">
        <ele>1973.8</ele>
        <time>2025-02-20T11:27:43Z</time>
      </trkpt>
      <trkpt lat="45.62265" lon="6.5317">
        <ele>1973.8</ele>
        <time>2025-02-20T11:27:44Z</time>
      </trkpt>
      <trkpt lat="45.62265" lon="6.5317">
        <ele>1974</ele>
        <time>2025-02-20T11:27:45Z</time>
      </trkpt>
      <trkpt lat="45.62265" lon="6.5317">
        <ele>1974</ele>
        <time>2025-02-20T11:27:46Z</time>
      </trkpt>
      <trkpt lat="45.62265" lon="6.5317">
        <ele>1974</ele>
        <time>2025-02-20T11:27:47Z</time>
      </trkpt>
      <trkpt lat="45.62265" lon="6.5317">
        <ele>1974</ele>
        <time>2025-02-20T11:27:48Z</time>
      </trkpt>
      <trkpt lat="45.62265" lon="6.5317">
        <ele>1973.2</ele>
        <time>2025-02-20T11:27:49Z</time>
      </trkpt>
      <trkpt lat="45.62265" lon="6.5317">
        <ele>1973.2</ele>
        <time>2025-02-20T11:27:50Z</time>
      </trkpt>
      <trkpt lat="45.62265" lon="6.5317">
        <ele>1973.2</ele>
        <time>2025-02-20T11:27:51Z</time>
      </trkpt>
      <trkpt lat="45.62265" lon="6.5317">
        <ele>1973.8</ele>
        <time>2025-02-20T11:27:52Z</time>
      </trkpt>
      <trkpt lat="45.62265" lon="6.5317">
        <ele>1974</ele>
        <time>2025-02-20T11:27:53Z</time>
      </trkpt>
      <trkpt lat="45.62265" lon="6.5317">
        <ele>1974</ele>
        <time>2025-02-20T11:27:54Z</time>
      </trkpt>
      <trkpt lat="45.62265" lon="6.5317">
        <ele>1974</ele>
        <time>2025-02-20T11:27:55Z</time>
      </trkpt>
      <trkpt lat="45.62265" lon="6.5317">
        <ele>1974</ele>
        <time>2025-02-20T11:27:56Z</time>
      </trkpt>
      <trkpt lat="45.62265" lon="6.5317">
        <ele>1973.6</ele>
        <time>2025-02-20T11:27:57Z</time>
      </trkpt>
      <trkpt lat="45.62265" lon="6.5317">
        <ele>1973.6</ele>
        <time>2025-02-20T11:27:58Z</time>
      </trkpt>
      <trkpt lat="45.62265" lon="6.5317">
        <ele>1973.6</ele>
        <time>2025-02-20T11:27:59Z</time>
      </trkpt>
      <trkpt lat="45.62265" lon="6.5317">
        <ele>1973.6</ele>
        <time>2025-02-20T11:28:00Z</time>
      </trkpt>
      <trkpt lat="45.62265" lon="6.5317">
        <ele>1973.4</ele>
        <time>2025-02-20T11:28:01Z</time>
      </trkpt>
      <trkpt lat="45.62265" lon="6.5317">
        <ele>1973.4</ele>
        <time>2025-02-20T11:28:02Z</time>
      </trkpt>
      <trkpt lat="45.62265" lon="6.5317">
        <ele>1973.4</ele>
        <time>2025-02-20T11:28:03Z</time>
      </trkpt>
      <trkpt lat="45.62265" lon="6.5317">
        <ele>1973.4</ele>
        <time>2025-02-20T11:28:04Z</time>
      </trkpt>
      <trkpt lat="45.62265" lon="6.5317">
        <ele>1974</ele>
        <time>2025-02-20T11:28:05Z</time>
      </trkpt>
      <trkpt lat="45.62265" lon="6.5317">
        <ele>1974</ele>
        <time>2025-02-20T11:28:06Z</time>
      </trkpt>
      <trkpt lat="45.62265" lon="6.5317">
        <ele>1974</ele>
        <time>2025-02-20T11:28:07Z</time>
      </trkpt>
      <trkpt lat="45.62265" lon="6.5317">
        <ele>1973.4</ele>
        <time>2025-02-20T11:28:08Z</time>
      </trkpt>
      <trkpt lat="45.62265" lon="6.5317">
        <ele>1973.6</ele>
        <time>2025-02-20T11:28:09Z</time>
      </trkpt>
      <trkpt lat="45.62265" lon="6.5317">
        <ele>1973.6</ele>
        <time>2025-02-20T11:28:10Z</time>
      </trkpt>
      <trkpt lat="45.62265" lon="6.5317">
        <ele>1973.6</ele>
        <time>2025-02-20T11:28:11Z</time>
      </trkpt>
      <trkpt lat="45.62265" lon="6.5317">
        <ele>1973.6</ele>
        <time>2025-02-20T11:28:12Z</time>
      </trkpt>
      <trkpt lat="45.62265" lon="6.5317">
        <ele>1974</ele>
        <time>2025-02-20T11:28:13Z</time>
      </trkpt>
      <trkpt lat="45.62265" lon="6.5317">
        <ele>1974</ele>
        <time>2025-02-20T11:28:14Z</time>
      </trkpt>
      <trkpt lat="45.62265" lon="6.5317">
        <ele>1974</ele>
        <time>2025-02-20T11:28:15Z</time>
      </trkpt>
      <trkpt lat="45.62265" lon="6.5317">
        <ele>1974</ele>
        <time>2025-02-20T11:28:16Z</time>
      </trkpt>
      <trkpt lat="45.62265" lon="6.5317">
        <ele>1973.6</ele>
        <time>2025-02-20T11:28:17Z</time>
      </trkpt>
      <trkpt lat="45.62265" lon="6.5317">
        <ele>1973.6</ele>
        <time>2025-02-20T11:28:18Z</time>
      </trkpt>
      <trkpt lat="45.62265" lon="6.5317">
        <ele>1973.6</ele>
        <time>2025-02-20T11:28:19Z</time>
      </trkpt>
      <trkpt lat="45.62265" lon="6.5317">
        <ele>1973.6</ele>
        <time>2025-02-20T11:28:20Z</time>
      </trkpt>
      <trkpt lat="45.62265" lon="6.5317">
        <ele>1973.8</ele>
        <time>2025-02-20T11:28:21Z</time>
      </trkpt>
      <trkpt lat="45.62265" lon="6.5317">
        <ele>1973.8</ele>
        <time>2025-02-20T11:28:22Z</time>
      </trkpt>
      <trkpt lat="45.62265" lon="6.5317">
        <ele>1973.8</ele>
        <time>2025-02-20T11:28:23Z</time>
      </trkpt>
      <trkpt lat="45.62265" lon="6.5317">
        <ele>1973.8</ele>
        <time>2025-02-20T11:28:24Z</time>
      </trkpt>
      <trkpt lat="45.62265" lon="6.5317">
        <ele>1974</ele>
        <time>2025-02-20T11:28:25Z</time>
      </trkpt>
      <trkpt lat="45.62265" lon="6.5317">
        <ele>1974</ele>
        <time>2025-02-20T11:28:26Z</time>
      </trkpt>
      <trkpt lat="45.62265" lon="6.5317">
        <ele>1974</ele>
        <time>2025-02-20T11:28:27Z</time>
      </trkpt>
      <trkpt lat="45.62265" lon="6.5317">
        <ele>1974</ele>
        <time>2025-02-20T11:28:28Z</time>
      </trkpt>
      <trkpt lat="45.62265" lon="6.5317">
        <ele>1973.8</ele>
        <time>2025-02-20T11:28:29Z</time>
      </trkpt>
      <trkpt lat="45.62265" lon="6.5317">
        <ele>1973.8</ele>
        <time>2025-02-20T11:28:30Z</time>
      </trkpt>
      <trkpt lat="45.62265" lon="6.5317">
        <ele>1973.8</ele>
        <time>2025-02-20T11:28:31Z</time>
      </trkpt>
      <trkpt lat="45.62265" lon="6.5317">
        <ele>1973.8</ele>
        <time>2025-02-20T11:28:32Z</time>
      </trkpt>
      <trkpt lat="45.62265" lon="6.5317">
        <ele>1973.6</ele>
        <time>2025-02-20T11:28:33Z</time>
      </trkpt>
      <trkpt lat="45.62265" lon="6.5317">
        <ele>1973.6</ele>
        <time>2025-02-20T11:28:34Z</time>
      </trkpt>
      <trkpt lat="45.62265" lon="6.5317">
        <ele>1973.6</ele>
        <time>2025-02-20T11:28:35Z</time>
      </trkpt>
      <trkpt lat="45.62265" lon="6.5317">
        <ele>1973.6</ele>
        <time>2025-02-20T11:28:36Z</time>
      </trkpt>
      <trkpt lat="45.62265" lon="6.5317">
        <ele>1973.8</ele>
        <time>2025-02-20T11:28:37Z</time>
      </trkpt>
      <trkpt lat="45.62265" lon="6.5317">
        <ele>1973.8</ele>
        <time>2025-02-20T11:28:38Z</time>
      </trkpt>
      <trkpt lat="45.62265" lon="6.5317">
        <ele>1973.8</ele>
        <time>2025-02-20T11:28:39Z</time>
      </trkpt>
      <trkpt lat="45.62265" lon="6.5317">
        <ele>1973.8</ele>
        <time>2025-02-20T11:28:40Z</time>
      </trkpt>
      <trkpt lat="45.62265" lon="6.5317">
        <ele>1973.8</ele>
        <time>2025-02-20T11:28:41Z</time>
      </trkpt>
      <trkpt lat="45.62265" lon="6.5317">
        <ele>1973.8</ele>
        <time>2025-02-20T11:28:42Z</time>
      </trkpt>
      <trkpt lat="45.62265" lon="6.5317">
        <ele>1973.8</ele>
        <time>2025-02-20T11:28:43Z</time>
      </trkpt>
      <trkpt lat="45.62265" lon="6.5317">
        <ele>1973.8</ele>
        <time>2025-02-20T11:28:44Z</time>
      </trkpt>
      <trkpt lat="45.62265" lon="6.5317">
        <ele>1974.2</ele>
        <time>2025-02-20T11:28:45Z</time>
      </trkpt>
      <trkpt lat="45.62265" lon="6.5317">
        <ele>1974.2</ele>
        <time>2025-02-20T11:28:46Z</time>
      </trkpt>
      <trkpt lat="45.62265" lon="6.5317">
        <ele>1974.2</ele>
        <time>2025-02-20T11:28:47Z</time>
      </trkpt>
      <trkpt lat="45.62265" lon="6.5317">
        <ele>1973.8</ele>
        <time>2025-02-20T11:28:48Z</time>
      </trkpt>
      <trkpt lat="45.62265" lon="6.5317">
        <ele>1973.4</ele>
        <time>2025-02-20T11:28:49Z</time>
      </trkpt>
      <trkpt lat="45.62265" lon="6.5317">
        <ele>1973.4</ele>
        <time>2025-02-20T11:28:50Z</time>
      </trkpt>
      <trkpt lat="45.62265" lon="6.5317">
        <ele>1973.4</ele>
        <time>2025-02-20T11:28:51Z</time>
      </trkpt>
      <trkpt lat="45.62265" lon="6.5317">
        <ele>1973.8</ele>
        <time>2025-02-20T11:28:52Z</time>
      </trkpt>
      <trkpt lat="45.62265" lon="6.5317">
        <ele>1973.8</ele>
        <time>2025-02-20T11:28:53Z</time>
      </trkpt>
      <trkpt lat="45.62265" lon="6.5317">
        <ele>1973.8</ele>
        <time>2025-02-20T11:28:54Z</time>
      </trkpt>
      <trkpt lat="45.62265" lon="6.5317">
        <ele>1973.8</ele>
        <time>2025-02-20T11:28:55Z</time>
      </trkpt>
      <trkpt lat="45.62265" lon="6.5317">
        <ele>1973.8</ele>
        <time>2025-02-20T11:28:56Z</time>
      </trkpt>
      <trkpt lat="45.62265" lon="6.5317">
        <ele>1973.8</ele>
        <time>2025-02-20T11:28:57Z</time>
      </trkpt>
      <trkpt lat="45.62265" lon="6.5317">
        <ele>1973.8</ele>
        <time>2025-02-20T11:28:58Z</time>
      </trkpt>
      <trkpt lat="45.62265" lon="6.5317">
        <ele>1973.8</ele>
        <time>2025-02-20T11:28:59Z</time>
      </trkpt>
      <trkpt lat="45.62265" lon="6.5317">
        <ele>1973.8</ele>
        <time>2025-02-20T11:29:00Z</time>
      </trkpt>
      <trkpt lat="45.62265" lon="6.5317">
        <ele>1973.8</ele>
        <time>2025-02-20T11:29:01Z</time>
      </trkpt>
      <trkpt lat="45.62265" lon="6.5317">
        <ele>1973.8</ele>
        <time>2025-02-20T11:29:02Z</time>
      </trkpt>
      <trkpt lat="45.62265" lon="6.5317">
        <ele>1973.8</ele>
        <time>2025-02-20T11:29:03Z</time>
      </trkpt>
      <trkpt lat="45.62265" lon="6.5317">
        <ele>1973.8</ele>
        <time>2025-02-20T11:29:04Z</time>
      </trkpt>
      <trkpt lat="45.62265" lon="6.5317">
        <ele>1974</ele>
        <time>2025-02-20T11:29:05Z</time>
      </trkpt>
      <trkpt lat="45.62265" lon="6.5317">
        <ele>1974</ele>
        <time>2025-02-20T11:29:06Z</time>
      </trkpt>
      <trkpt lat="45.62265" lon="6.5317">
        <ele>1974</ele>
        <time>2025-02-20T11:29:07Z</time>
      </trkpt>
      <trkpt lat="45.62265" lon="6.5317">
        <ele>1973.4</ele>
        <time>2025-02-20T11:29:08Z</time>
      </trkpt>
      <trkpt lat="45.62265" lon="6.5317">
        <ele>1974</ele>
        <time>2025-02-20T11:29:09Z</time>
      </trkpt>
      <trkpt lat="45.62265" lon="6.5317">
        <ele>1974</ele>
        <time>2025-02-20T11:29:10Z</time>
      </trkpt>
      <trkpt lat="45.62265" lon="6.5317">
        <ele>1974</ele>
        <time>2025-02-20T11:29:11Z</time>
      </trkpt>
      <trkpt lat="45.62265" lon="6.5317">
        <ele>1973.4</ele>
        <time>2025-02-20T11:29:12Z</time>
      </trkpt>
      <trkpt lat="45.62265" lon="6.5317">
        <ele>1973.4</ele>
        <time>2025-02-20T11:29:13Z</time>
      </trkpt>
      <trkpt lat="45.62265" lon="6.5317">
        <ele>1973.4</ele>
        <time>2025-02-20T11:29:14Z</time>
      </trkpt>
      <trkpt lat="45.62265" lon="6.5317">
        <ele>1973.4</ele>
        <time>2025-02-20T11:29:15Z</time>
      </trkpt>
      <trkpt lat="45.62265" lon="6.5317">
        <ele>1973.2</ele>
        <time>2025-02-20T11:29:16Z</time>
      </trkpt>
      <trkpt lat="45.62265" lon="6.5317">
        <ele>1973.6</ele>
        <time>2025-02-20T11:29:17Z</time>
      </trkpt>
      <trkpt lat="45.62265" lon="6.5317">
        <ele>1973.6</ele>
        <time>2025-02-20T11:29:18Z</time>
      </trkpt>
      <trkpt lat="45.62265" lon="6.5317">
        <ele>1973.6</ele>
        <time>2025-02-20T11:29:19Z</time>
      </trkpt>
      <trkpt lat="45.62265" lon="6.5317">
        <ele>1973.2</ele>
        <time>2025-02-20T11:29:20Z</time>
      </trkpt>
      <trkpt lat="45.62265" lon="6.5317">
        <ele>1973.2</ele>
        <time>2025-02-20T11:29:21Z</time>
      </trkpt>
      <trkpt lat="45.62265" lon="6.5317">
        <ele>1973.2</ele>
        <time>2025-02-20T11:29:22Z</time>
      </trkpt>
      <trkpt lat="45.62265" lon="6.5317">
        <ele>1973.2</ele>
        <time>2025-02-20T11:29:23Z</time>
      </trkpt>
      <trkpt lat="45.62265" lon="6.5317">
        <ele>1973.2</ele>
        <time>2025-02-20T11:29:24Z</time>
      </trkpt>
      <trkpt lat="45.62265" lon="6.5317">
        <ele>1973.2</ele>
        <time>2025-02-20T11:29:25Z</time>
      </trkpt>
      <trkpt lat="45.62265" lon="6.5317">
        <ele>1973.2</ele>
        <time>2025-02-20T11:29:26Z</time>
      </trkpt>
      <trkpt lat="45.62265" lon="6.5317">
        <ele>1973.2</ele>
        <time>2025-02-20T11:29:27Z</time>
      </trkpt>
      <trkpt lat="45.62265" lon="6.5317">
        <ele>1973.2</ele>
        <time>2025-02-20T11:29:28Z</time>
      </trkpt>
      <trkpt lat="45.62265" lon="6.5317">
        <ele>1973.4</ele>
        <time>2025-02-20T11:29:29Z</time>
      </trkpt>
      <trkpt lat="45.62265" lon="6.5317">
        <ele>1973.4</ele>
        <time>2025-02-20T11:29:30Z</time>
      </trkpt>
      <trkpt lat="45.62265" lon="6.5317">
        <ele>1973.4</ele>
        <time>2025-02-20T11:29:31Z</time>
      </trkpt>
      <trkpt lat="45.62265" lon="6.5317">
        <ele>1973.4</ele>
        <time>2025-02-20T11:29:32Z</time>
      </trkpt>
      <trkpt lat="45.62265" lon="6.5317">
        <ele>1973.4</ele>
        <time>2025-02-20T11:29:33Z</time>
      </trkpt>
      <trkpt lat="45.62265" lon="6.5317">
        <ele>1973.4</ele>
        <time>2025-02-20T11:29:34Z</time>
      </trkpt>
      <trkpt lat="45.62265" lon="6.5317">
        <ele>1973.4</ele>
        <time>2025-02-20T11:29:35Z</time>
      </trkpt>
      <trkpt lat="45.62265" lon="6.5317">
        <ele>1973.4</ele>
        <time>2025-02-20T11:29:36Z</time>
      </trkpt>
      <trkpt lat="45.62265" lon="6.5317">
        <ele>1973.4</ele>
        <time>2025-02-20T11:29:37Z</time>
      </trkpt>
      <trkpt lat="45.62265" lon="6.5317">
        <ele>1973.4</ele>
        <time>2025-02-20T11:29:38Z</time>
      </trkpt>
      <trkpt lat="45.62265" lon="6.5317">
        <ele>1973.4</ele>
        <time>2025-02-20T11:29:39Z</time>
      </trkpt>
      <trkpt lat="45.62265" lon="6.5317">
        <ele>1973.4</ele>
        <time>2025-02-20T11:29:40Z</time>
      </trkpt>
      <trkpt lat="45.62265" lon="6.5317">
        <ele>1973.4</ele>
        <time>2025-02-20T11:29:41Z</time>
      </trkpt>
      <trkpt lat="45.62265" lon="6.5317">
        <ele>1973.4</ele>
        <time>2025-02-20T11:29:42Z</time>
      </trkpt>
      <trkpt lat="45.62265" lon="6.5317">
        <ele>1973.4</ele>
        <time>2025-02-20T11:29:43Z</time>
      </trkpt>
      <trkpt lat="45.62265" lon="6.5317">
        <ele>1973.8</ele>
        <time>2025-02-20T11:29:44Z</time>
      </trkpt>
      <trkpt lat="45.62265" lon="6.5317">
        <ele>1973.8</ele>
        <time>2025-02-20T11:29:45Z</time>
      </trkpt>
      <trkpt lat="45.62265" lon="6.5317">
        <ele>1973.8</ele>
        <time>2025-02-20T11:29:46Z</time>
      </trkpt>
      <trkpt lat="45.62265" lon="6.5317">
        <ele>1973.8</ele>
        <time>2025-02-20T11:29:47Z</time>
      </trkpt>
      <trkpt lat="45.62265" lon="6.5317">
        <ele>1973.6</ele>
        <time>2025-02-20T11:29:48Z</time>
      </trkpt>
      <trkpt lat="45.62265" lon="6.5317">
        <ele>1973.6</ele>
        <time>2025-02-20T11:29:49Z</time>
      </trkpt>
      <trkpt lat="45.62265" lon="6.5317">
        <ele>1973.6</ele>
        <time>2025-02-20T11:29:50Z</time>
      </trkpt>
      <trkpt lat="45.62265" lon="6.5317">
        <ele>1973.6</ele>
        <time>2025-02-20T11:29:51Z</time>
      </trkpt>
      <trkpt lat="45.62265" lon="6.5317">
        <ele>1973.6</ele>
        <time>2025-02-20T11:29:52Z</time>
      </trkpt>
      <trkpt lat="45.62265" lon="6.5317">
        <ele>1973.8</ele>
        <time>2025-02-20T11:29:53Z</time>
      </trkpt>
      <trkpt lat="45.62265" lon="6.5317">
        <ele>1973.8</ele>
        <time>2025-02-20T11:29:54Z</time>
      </trkpt>
      <trkpt lat="45.62265" lon="6.5317">
        <ele>1973.8</ele>
        <time>2025-02-20T11:29:55Z</time>
      </trkpt>
      <trkpt lat="45.62265" lon="6.5317">
        <ele>1974</ele>
        <time>2025-02-20T11:29:56Z</time>
      </trkpt>
      <trkpt lat="45.62265" lon="6.5317">
        <ele>1973</ele>
        <time>2025-02-20T11:29:57Z</time>
      </trkpt>
      <trkpt lat="45.62265" lon="6.5317">
        <ele>1973</ele>
        <time>2025-02-20T11:29:58Z</time>
      </trkpt>
      <trkpt lat="45.62265" lon="6.5317">
        <ele>1973</ele>
        <time>2025-02-20T11:29:59Z</time>
      </trkpt>
      <trkpt lat="45.62265" lon="6.5317">
        <ele>1974</ele>
        <time>2025-02-20T11:30:00Z</time>
      </trkpt>
      <trkpt lat="45.62265" lon="6.5317">
        <ele>1974</ele>
        <time>2025-02-20T11:30:01Z</time>
      </trkpt>
      <trkpt lat="45.62265" lon="6.5317">
        <ele>1974</ele>
        <time>2025-02-20T11:30:02Z</time>
      </trkpt>
      <trkpt lat="45.62265" lon="6.5317">
        <ele>1974</ele>
        <time>2025-02-20T11:30:03Z</time>
      </trkpt>
      <trkpt lat="45.62265" lon="6.5317">
        <ele>1974</ele>
        <time>2025-02-20T11:30:04Z</time>
      </trkpt>
      <trkpt lat="45.62265" lon="6.5317">
        <ele>1973.4</ele>
        <time>2025-02-20T11:30:05Z</time>
      </trkpt>
      <trkpt lat="45.62265" lon="6.5317">
        <ele>1973.4</ele>
        <time>2025-02-20T11:30:06Z</time>
      </trkpt>
      <trkpt lat="45.62265" lon="6.5317">
        <ele>1973.4</ele>
        <time>2025-02-20T11:30:07Z</time>
      </trkpt>
      <trkpt lat="45.62265" lon="6.5317">
        <ele>1974</ele>
        <time>2025-02-20T11:30:08Z</time>
      </trkpt>
      <trkpt lat="45.62265" lon="6.5317">
        <ele>1973.8</ele>
        <time>2025-02-20T11:30:09Z</time>
      </trkpt>
      <trkpt lat="45.62265" lon="6.5317">
        <ele>1973.8</ele>
        <time>2025-02-20T11:30:10Z</time>
      </trkpt>
      <trkpt lat="45.62265" lon="6.5317">
        <ele>1973.8</ele>
        <time>2025-02-20T11:30:11Z</time>
      </trkpt>
      <trkpt lat="45.62265" lon="6.5317">
        <ele>1973.8</ele>
        <time>2025-02-20T11:30:12Z</time>
      </trkpt>
      <trkpt lat="45.62265" lon="6.5317">
        <ele>1973.8</ele>
        <time>2025-02-20T11:30:13Z</time>
      </trkpt>
      <trkpt lat="45.62265" lon="6.5317">
        <ele>1973.8</ele>
        <time>2025-02-20T11:30:14Z</time>
      </trkpt>
      <trkpt lat="45.62265" lon="6.5317">
        <ele>1973.8</ele>
        <time>2025-02-20T11:30:15Z</time>
      </trkpt>
      <trkpt lat="45.62265" lon="6.5317">
        <ele>1973.8</ele>
        <time>2025-02-20T11:30:16Z</time>
      </trkpt>
      <trkpt lat="45.62265" lon="6.5317">
        <ele>1974.2</ele>
        <time>2025-02-20T11:30:17Z</time>
      </trkpt>
      <trkpt lat="45.62265" lon="6.5317">
        <ele>1974.2</ele>
        <time>2025-02-20T11:30:18Z</time>
      </trkpt>
      <trkpt lat="45.62265" lon="6.5317">
        <ele>1974.2</ele>
        <time>2025-02-20T11:30:19Z</time>
      </trkpt>
      <trkpt lat="45.62265" lon="6.5317">
        <ele>1974.2</ele>
        <time>2025-02-20T11:30:20Z</time>
      </trkpt>
      <trkpt lat="45.62265" lon="6.5317">
        <ele>1974.2</ele>
        <time>2025-02-20T11:30:21Z</time>
      </trkpt>
      <trkpt lat="45.62265" lon="6.5317">
        <ele>1974.2</ele>
        <time>2025-02-20T11:30:22Z</time>
      </trkpt>
      <trkpt lat="45.62265" lon="6.5317">
        <ele>1974.2</ele>
        <time>2025-02-20T11:30:23Z</time>
      </trkpt>
      <trkpt lat="45.62265" lon="6.5317">
        <ele>1973.6</ele>
        <time>2025-02-20T11:30:24Z</time>
      </trkpt>
      <trkpt lat="45.62265" lon="6.5317">
        <ele>1974</ele>
        <time>2025-02-20T11:30:25Z</time>
      </trkpt>
      <trkpt lat="45.62265" lon="6.5317">
        <ele>1974</ele>
        <time>2025-02-20T11:30:26Z</time>
      </trkpt>
      <trkpt lat="45.62265" lon="6.5317">
        <ele>1974</ele>
        <time>2025-02-20T11:30:27Z</time>
      </trkpt>
      <trkpt lat="45.62265" lon="6.5317">
        <ele>1973.6</ele>
        <time>2025-02-20T11:30:28Z</time>
      </trkpt>
      <trkpt lat="45.62265" lon="6.5317">
        <ele>1973.8</ele>
        <time>2025-02-20T11:30:29Z</time>
      </trkpt>
      <trkpt lat="45.62265" lon="6.5317">
        <ele>1973.8</ele>
        <time>2025-02-20T11:30:30Z</time>
      </trkpt>
      <trkpt lat="45.62265" lon="6.5317">
        <ele>1973.8</ele>
        <time>2025-02-20T11:30:31Z</time>
      </trkpt>
      <trkpt lat="45.62265" lon="6.5317">
        <ele>1973.4</ele>
        <time>2025-02-20T11:30:32Z</time>
      </trkpt>
      <trkpt lat="45.62265" lon="6.5317">
        <ele>1973.4</ele>
        <time>2025-02-20T11:30:33Z</time>
      </trkpt>
      <trkpt lat="45.62265" lon="6.5317">
        <ele>1973.4</ele>
        <time>2025-02-20T11:30:34Z</time>
      </trkpt>
      <trkpt lat="45.62265" lon="6.5317">
        <ele>1973.4</ele>
        <time>2025-02-20T11:30:35Z</time>
      </trkpt>
      <trkpt lat="45.62265" lon="6.5317">
        <ele>1973.4</ele>
        <time>2025-02-20T11:30:36Z</time>
      </trkpt>
      <trkpt lat="45.62265" lon="6.5317">
        <ele>1973.8</ele>
        <time>2025-02-20T11:30:37Z</time>
      </trkpt>
      <trkpt lat="45.62265" lon="6.5317">
        <ele>1973.8</ele>
        <time>2025-02-20T11:30:38Z</time>
      </trkpt>
      <trkpt lat="45.62265" lon="6.5317">
        <ele>1973.8</ele>
        <time>2025-02-20T11:30:39Z</time>
      </trkpt>
      <trkpt lat="45.62265" lon="6.5317">
        <ele>1973.8</ele>
        <time>2025-02-20T11:30:40Z</time>
      </trkpt>
      <trkpt lat="45.62265" lon="6.5317">
        <ele>1973.8</ele>
        <time>2025-02-20T11:30:41Z</time>
      </trkpt>
      <trkpt lat="45.62265" lon="6.5317">
        <ele>1973.8</ele>
        <time>2025-02-20T11:30:42Z</time>
      </trkpt>
      <trkpt lat="45.62265" lon="6.5317">
        <ele>1973.8</ele>
        <time>2025-02-20T11:30:43Z</time>
      </trkpt>
      <trkpt lat="45.62265" lon="6.5317">
        <ele>1973.8</ele>
        <time>2025-02-20T11:30:44Z</time>
      </trkpt>
      <trkpt lat="45.62265" lon="6.5317">
        <ele>1974</ele>
        <time>2025-02-20T11:30:45Z</time>
      </trkpt>
      <trkpt lat="45.62265" lon="6.5317">
        <ele>1974</ele>
        <time>2025-02-20T11:30:46Z</time>
      </trkpt>
      <trkpt lat="45.62265" lon="6.5317">
        <ele>1974</ele>
        <time>2025-02-20T11:30:47Z</time>
      </trkpt>
      <trkpt lat="45.62265" lon="6.5317">
        <ele>1974</ele>
        <time>2025-02-20T11:30:48Z</time>
      </trkpt>
      <trkpt lat="45.62265" lon="6.5317">
        <ele>1973.8</ele>
        <time>2025-02-20T11:30:49Z</time>
      </trkpt>
      <trkpt lat="45.62265" lon="6.5317">
        <ele>1973.8</ele>
        <time>2025-02-20T11:30:50Z</time>
      </trkpt>
      <trkpt lat="45.62265" lon="6.5317">
        <ele>1973.8</ele>
        <time>2025-02-20T11:30:51Z</time>
      </trkpt>
      <trkpt lat="45.62265" lon="6.5317">
        <ele>1973.8</ele>
        <time>2025-02-20T11:30:52Z</time>
      </trkpt>
      <trkpt lat="45.62265" lon="6.5317">
        <ele>1973.8</ele>
        <time>2025-02-20T11:30:53Z</time>
      </trkpt>
      <trkpt lat="45.62265" lon="6.5317">
        <ele>1973.8</ele>
        <time>2025-02-20T11:30:54Z</time>
      </trkpt>
      <trkpt lat="45.62265" lon="6.5317">
        <ele>1973.8</ele>
        <time>2025-02-20T11:30:55Z</time>
      </trkpt>
      <trkpt lat="45.62265" lon="6.5317">
        <ele>1973.8</ele>
        <time>2025-02-20T11:30:56Z</time>
      </trkpt>
      <trkpt lat="45.62265" lon="6.5317">
        <ele>1974</ele>
        <time>2025-02-20T11:30:57Z</time>
      </trkpt>
      <trkpt lat="45.62265" lon="6.5317">
        <ele>1974</ele>
        <time>2025-02-20T11:30:58Z</time>
      </trkpt>
      <trkpt lat="45.62265" lon="6.5317">
        <ele>1974</ele>
        <time>2025-02-20T11:30:59Z</time>
      </trkpt>
      <trkpt lat="45.62265" lon="6.5317">
        <ele>1974</ele>
        <time>2025-02-20T11:31:00Z</time>
      </trkpt>
      <trkpt lat="45.62265" lon="6.5317">
        <ele>1974.4</ele>
        <time>2025-02-20T11:31:01Z</time>
      </trkpt>
      <trkpt lat="45.62265" lon="6.5317">
        <ele>1974.4</ele>
        <time>2025-02-20T11:31:02Z</time>
      </trkpt>
      <trkpt lat="45.62265" lon="6.5317">
        <ele>1974.4</ele>
        <time>2025-02-20T11:31:03Z</time>
      </trkpt>
      <trkpt lat="45.62265" lon="6.5317">
        <ele>1974.2</ele>
        <time>2025-02-20T11:31:04Z</time>
      </trkpt>
      <trkpt lat="45.62265" lon="6.5317">
        <ele>1973.8</ele>
        <time>2025-02-20T11:31:05Z</time>
      </trkpt>
      <trkpt lat="45.62265" lon="6.5317">
        <ele>1973.8</ele>
        <time>2025-02-20T11:31:06Z</time>
      </trkpt>
      <trkpt lat="45.62265" lon="6.5317">
        <ele>1973.8</ele>
        <time>2025-02-20T11:31:07Z</time>
      </trkpt>
      <trkpt lat="45.62265" lon="6.5317">
        <ele>1974</ele>
        <time>2025-02-20T11:31:08Z</time>
      </trkpt>
      <trkpt lat="45.62265" lon="6.5317">
        <ele>1974</ele>
        <time>2025-02-20T11:31:09Z</time>
      </trkpt>
      <trkpt lat="45.62265" lon="6.5317">
        <ele>1974</ele>
        <time>2025-02-20T11:31:10Z</time>
      </trkpt>
      <trkpt lat="45.62265" lon="6.5317">
        <ele>1974</ele>
        <time>2025-02-20T11:31:11Z</time>
      </trkpt>
      <trkpt lat="45.62265" lon="6.5317">
        <ele>1974</ele>
        <time>2025-02-20T11:31:12Z</time>
      </trkpt>
      <trkpt lat="45.62265" lon="6.5317">
        <ele>1973.8</ele>
        <time>2025-02-20T11:31:13Z</time>
      </trkpt>
      <trkpt lat="45.62265" lon="6.5317">
        <ele>1973.8</ele>
        <time>2025-02-20T11:31:14Z</time>
      </trkpt>
      <trkpt lat="45.62265" lon="6.5317">
        <ele>1973.8</ele>
        <time>2025-02-20T11:31:15Z</time>
      </trkpt>
      <trkpt lat="45.62265" lon="6.5317">
        <ele>1973.8</ele>
        <time>2025-02-20T11:31:16Z</time>
      </trkpt>
      <trkpt lat="45.62265" lon="6.5317">
        <ele>1973.8</ele>
        <time>2025-02-20T11:31:17Z</time>
      </trkpt>
      <trkpt lat="45.62265" lon="6.5317">
        <ele>1973.8</ele>
        <time>2025-02-20T11:31:18Z</time>
      </trkpt>
      <trkpt lat="45.62265" lon="6.5317">
        <ele>1973.8</ele>
        <time>2025-02-20T11:31:19Z</time>
      </trkpt>
      <trkpt lat="45.62265" lon="6.5317">
        <ele>1973.8</ele>
        <time>2025-02-20T11:31:20Z</time>
      </trkpt>
      <trkpt lat="45.62265" lon="6.5317">
        <ele>1973.8</ele>
        <time>2025-02-20T11:31:21Z</time>
      </trkpt>
      <trkpt lat="45.62265" lon="6.5317">
        <ele>1973.8</ele>
        <time>2025-02-20T11:31:22Z</time>
      </trkpt>
      <trkpt lat="45.62265" lon="6.5317">
        <ele>1973.8</ele>
        <time>2025-02-20T11:31:23Z</time>
      </trkpt>
      <trkpt lat="45.62265" lon="6.5317">
        <ele>1973.8</ele>
        <time>2025-02-20T11:31:24Z</time>
      </trkpt>
      <trkpt lat="45.62265" lon="6.5317">
        <ele>1973.8</ele>
        <time>2025-02-20T11:31:25Z</time>
      </trkpt>
      <trkpt lat="45.62265" lon="6.5317">
        <ele>1973.8</ele>
        <time>2025-02-20T11:31:26Z</time>
      </trkpt>
      <trkpt lat="45.62265" lon="6.5317">
        <ele>1973.8</ele>
        <time>2025-02-20T11:31:27Z</time>
      </trkpt>
      <trkpt lat="45.62265" lon="6.5317">
        <ele>1973.8</ele>
        <time>2025-02-20T11:31:28Z</time>
      </trkpt>
      <trkpt lat="45.62265" lon="6.5317">
        <ele>1973.8</ele>
        <time>2025-02-20T11:31:29Z</time>
      </trkpt>
      <trkpt lat="45.62265" lon="6.5317">
        <ele>1973.8</ele>
        <time>2025-02-20T11:31:30Z</time>
      </trkpt>
      <trkpt lat="45.62265" lon="6.5317">
        <ele>1973.8</ele>
        <time>2025-02-20T11:31:31Z</time>
      </trkpt>
      <trkpt lat="45.62265" lon="6.5317">
        <ele>1973.8</ele>
        <time>2025-02-20T11:31:32Z</time>
      </trkpt>
      <trkpt lat="45.62265" lon="6.5317">
        <ele>1973.8</ele>
        <time>2025-02-20T11:31:33Z</time>
      </trkpt>
      <trkpt lat="45.62265" lon="6.5317">
        <ele>1973.8</ele>
        <time>2025-02-20T11:31:34Z</time>
      </trkpt>
      <trkpt lat="45.62265" lon="6.5317">
        <ele>1973.8</ele>
        <time>2025-02-20T11:31:35Z</time>
      </trkpt>
      <trkpt lat="45.62265" lon="6.5317">
        <ele>1973.8</ele>
        <time>2025-02-20T11:31:36Z</time>
      </trkpt>
      <trkpt lat="45.62265" lon="6.5317">
        <ele>1973.8</ele>
        <time>2025-02-20T11:31:37Z</time>
      </trkpt>
      <trkpt lat="45.62265" lon="6.5317">
        <ele>1973.8</ele>
        <time>2025-02-20T11:31:38Z</time>
      </trkpt>
      <trkpt lat="45.62265" lon="6.5317">
        <ele>1973.8</ele>
        <time>2025-02-20T11:31:39Z</time>
      </trkpt>
      <trkpt lat="45.62265" lon="6.5317">
        <ele>1973.8</ele>
        <time>2025-02-20T11:31:40Z</time>
      </trkpt>
      <trkpt lat="45.62265" lon="6.5317">
        <ele>1973.8</ele>
        <time>2025-02-20T11:31:41Z</time>
      </trkpt>
      <trkpt lat="45.62265" lon="6.5317">
        <ele>1973.8</ele>
        <time>2025-02-20T11:31:42Z</time>
      </trkpt>
      <trkpt lat="45.62265" lon="6.5317">
        <ele>1973.8</ele>
        <time>2025-02-20T11:31:43Z</time>
      </trkpt>
      <trkpt lat="45.62265" lon="6.5317">
        <ele>1973.8</ele>
        <time>2025-02-20T11:31:44Z</time>
      </trkpt>
      <trkpt lat="45.62265" lon="6.5317">
        <ele>1973.8</ele>
        <time>2025-02-20T11:31:45Z</time>
      </trkpt>
      <trkpt lat="45.62265" lon="6.5317">
        <ele>1973.8</ele>
        <time>2025-02-20T11:31:46Z</time>
      </trkpt>
      <trkpt lat="45.62265" lon="6.5317">
        <ele>1973.8</ele>
        <time>2025-02-20T11:31:47Z</time>
      </trkpt>
      <trkpt lat="45.62265" lon="6.5317">
        <ele>1973.8</ele>
        <time>2025-02-20T11:31:48Z</time>
      </trkpt>
      <trkpt lat="45.62265" lon="6.5317">
        <ele>1973.6</ele>
        <time>2025-02-20T11:31:49Z</time>
      </trkpt>
      <trkpt lat="45.62265" lon="6.5317">
        <ele>1973.6</ele>
        <time>2025-02-20T11:31:50Z</time>
      </trkpt>
      <trkpt lat="45.62265" lon="6.5317">
        <ele>1973.6</ele>
        <time>2025-02-20T11:31:51Z</time>
      </trkpt>
      <trkpt lat="45.62265" lon="6.5317">
        <ele>1973.6</ele>
        <time>2025-02-20T11:31:52Z</time>
      </trkpt>
      <trkpt lat="45.62265" lon="6.5317">
        <ele>1973.6</ele>
        <time>2025-02-20T11:31:53Z</time>
      </trkpt>
      <trkpt lat="45.62265" lon="6.5317">
        <ele>1973.6</ele>
        <time>2025-02-20T11:31:54Z</time>
      </trkpt>
      <trkpt lat="45.62265" lon="6.5317">
        <ele>1973.6</ele>
        <time>2025-02-20T11:31:55Z</time>
      </trkpt>
      <trkpt lat="45.62265" lon="6.5317">
        <ele>1973.6</ele>
        <time>2025-02-20T11:31:56Z</time>
      </trkpt>
      <trkpt lat="45.62265" lon="6.5317">
        <ele>1973.6</ele>
        <time>2025-02-20T11:31:57Z</time>
      </trkpt>
      <trkpt lat="45.62265" lon="6.5317">
        <ele>1973.6</ele>
        <time>2025-02-20T11:31:58Z</time>
      </trkpt>
      <trkpt lat="45.62265" lon="6.5317">
        <ele>1973.6</ele>
        <time>2025-02-20T11:31:59Z</time>
      </trkpt>
      <trkpt lat="45.62265" lon="6.5317">
        <ele>1973.6</ele>
        <time>2025-02-20T11:32:00Z</time>
      </trkpt>
      <trkpt lat="45.62265" lon="6.5317">
        <ele>1974</ele>
        <time>2025-02-20T11:32:01Z</time>
      </trkpt>
      <trkpt lat="45.62265" lon="6.5317">
        <ele>1974</ele>
        <time>2025-02-20T11:32:02Z</time>
      </trkpt>
      <trkpt lat="45.62265" lon="6.5317">
        <ele>1974</ele>
        <time>2025-02-20T11:32:03Z</time>
      </trkpt>
      <trkpt lat="45.62265" lon="6.5317">
        <ele>1974</ele>
        <time>2025-02-20T11:32:04Z</time>
      </trkpt>
      <trkpt lat="45.62265" lon="6.5317">
        <ele>1974</ele>
        <time>2025-02-20T11:32:05Z</time>
      </trkpt>
      <trkpt lat="45.62265" lon="6.5317">
        <ele>1974</ele>
        <time>2025-02-20T11:32:06Z</time>
      </trkpt>
      <trkpt lat="45.62265" lon="6.5317">
        <ele>1974</ele>
        <time>2025-02-20T11:32:07Z</time>
      </trkpt>
      <trkpt lat="45.62265" lon="6.5317">
        <ele>1974</ele>
        <time>2025-02-20T11:32:08Z</time>
      </trkpt>
      <trkpt lat="45.62265" lon="6.5317">
        <ele>1974.2</ele>
        <time>2025-02-20T11:32:09Z</time>
      </trkpt>
      <trkpt lat="45.62265" lon="6.5317">
        <ele>1974.2</ele>
        <time>2025-02-20T11:32:10Z</time>
      </trkpt>
      <trkpt lat="45.62265" lon="6.5317">
        <ele>1974.2</ele>
        <time>2025-02-20T11:32:11Z</time>
      </trkpt>
      <trkpt lat="45.62265" lon="6.5317">
        <ele>1973.8</ele>
        <time>2025-02-20T11:32:12Z</time>
      </trkpt>
      <trkpt lat="45.62265" lon="6.5317">
        <ele>1974</ele>
        <time>2025-02-20T11:32:13Z</time>
      </trkpt>
      <trkpt lat="45.62265" lon="6.5317">
        <ele>1974</ele>
        <time>2025-02-20T11:32:14Z</time>
      </trkpt>
      <trkpt lat="45.62265" lon="6.5317">
        <ele>1974</ele>
        <time>2025-02-20T11:32:15Z</time>
      </trkpt>
      <trkpt lat="45.62265" lon="6.5317">
        <ele>1973.8</ele>
        <time>2025-02-20T11:32:16Z</time>
      </trkpt>
      <trkpt lat="45.62265" lon="6.5317">
        <ele>1973.8</ele>
        <time>2025-02-20T11:32:17Z</time>
      </trkpt>
      <trkpt lat="45.62265" lon="6.5317">
        <ele>1973.8</ele>
        <time>2025-02-20T11:32:18Z</time>
      </trkpt>
      <trkpt lat="45.62265" lon="6.5317">
        <ele>1973.8</ele>
        <time>2025-02-20T11:32:19Z</time>
      </trkpt>
      <trkpt lat="45.62265" lon="6.5317">
        <ele>1973.4</ele>
        <time>2025-02-20T11:32:20Z</time>
      </trkpt>
      <trkpt lat="45.62265" lon="6.5317">
        <ele>1973.6</ele>
        <time>2025-02-20T11:32:21Z</time>
      </trkpt>
      <trkpt lat="45.62265" lon="6.5317">
        <ele>1973.6</ele>
        <time>2025-02-20T11:32:22Z</time>
      </trkpt>
      <trkpt lat="45.62265" lon="6.5317">
        <ele>1973.6</ele>
        <time>2025-02-20T11:32:23Z</time>
      </trkpt>
      <trkpt lat="45.62265" lon="6.5317">
        <ele>1973.6</ele>
        <time>2025-02-20T11:32:24Z</time>
      </trkpt>
      <trkpt lat="45.62265" lon="6.5317">
        <ele>1974</ele>
        <time>2025-02-20T11:32:25Z</time>
      </trkpt>
      <trkpt lat="45.62265" lon="6.5317">
        <ele>1974</ele>
        <time>2025-02-20T11:32:26Z</time>
      </trkpt>
      <trkpt lat="45.62265" lon="6.5317">
        <ele>1974</ele>
        <time>2025-02-20T11:32:27Z</time>
      </trkpt>
      <trkpt lat="45.62265" lon="6.5317">
        <ele>1973.4</ele>
        <time>2025-02-20T11:32:28Z</time>
      </trkpt>
      <trkpt lat="45.62265" lon="6.5317">
        <ele>1973.8</ele>
        <time>2025-02-20T11:32:29Z</time>
      </trkpt>
      <trkpt lat="45.62265" lon="6.5317">
        <ele>1973.8</ele>
        <time>2025-02-20T11:32:30Z</time>
      </trkpt>
      <trkpt lat="45.62265" lon="6.5317">
        <ele>1973.8</ele>
        <time>2025-02-20T11:32:31Z</time>
      </trkpt>
      <trkpt lat="45.62265" lon="6.5317">
        <ele>1973.8</ele>
        <time>2025-02-20T11:32:32Z</time>
      </trkpt>
      <trkpt lat="45.62265" lon="6.5317">
        <ele>1973.4</ele>
        <time>2025-02-20T11:32:33Z</time>
      </trkpt>
      <trkpt lat="45.62265" lon="6.5317">
        <ele>1973.4</ele>
        <time>2025-02-20T11:32:34Z</time>
      </trkpt>
      <trkpt lat="45.62265" lon="6.5317">
        <ele>1973.4</ele>
        <time>2025-02-20T11:32:35Z</time>
      </trkpt>
      <trkpt lat="45.62265" lon="6.5317">
        <ele>1973.4</ele>
        <time>2025-02-20T11:32:36Z</time>
      </trkpt>
      <trkpt lat="45.62265" lon="6.5317">
        <ele>1973.8</ele>
        <time>2025-02-20T11:32:37Z</time>
      </trkpt>
      <trkpt lat="45.62265" lon="6.5317">
        <ele>1973.8</ele>
        <time>2025-02-20T11:32:38Z</time>
      </trkpt>
      <trkpt lat="45.62265" lon="6.5317">
        <ele>1973.8</ele>
        <time>2025-02-20T11:32:39Z</time>
      </trkpt>
      <trkpt lat="45.62265" lon="6.5317">
        <ele>1973.8</ele>
        <time>2025-02-20T11:32:40Z</time>
      </trkpt>
      <trkpt lat="45.62265" lon="6.5317">
        <ele>1974</ele>
        <time>2025-02-20T11:32:41Z</time>
      </trkpt>
      <trkpt lat="45.62265" lon="6.5317">
        <ele>1974</ele>
        <time>2025-02-20T11:32:42Z</time>
      </trkpt>
      <trkpt lat="45.62265" lon="6.5317">
        <ele>1974</ele>
        <time>2025-02-20T11:32:43Z</time>
      </trkpt>
      <trkpt lat="45.62265" lon="6.5317">
        <ele>1973.6</ele>
        <time>2025-02-20T11:32:44Z</time>
      </trkpt>
      <trkpt lat="45.62265" lon="6.5317">
        <ele>1973.8</ele>
        <time>2025-02-20T11:32:45Z</time>
      </trkpt>
      <trkpt lat="45.62265" lon="6.5317">
        <ele>1973.8</ele>
        <time>2025-02-20T11:32:46Z</time>
      </trkpt>
      <trkpt lat="45.62265" lon="6.5317">
        <ele>1973.8</ele>
        <time>2025-02-20T11:32:47Z</time>
      </trkpt>
      <trkpt lat="45.62265" lon="6.5317">
        <ele>1973.8</ele>
        <time>2025-02-20T11:32:48Z</time>
      </trkpt>
      <trkpt lat="45.62265" lon="6.5317">
        <ele>1973</ele>
        <time>2025-02-20T11:32:49Z</time>
      </trkpt>
      <trkpt lat="45.62265" lon="6.5317">
        <ele>1973</ele>
        <time>2025-02-20T11:32:50Z</time>
      </trkpt>
      <trkpt lat="45.62265" lon="6.5317">
        <ele>1973</ele>
        <time>2025-02-20T11:32:51Z</time>
      </trkpt>
      <trkpt lat="45.62265" lon="6.5317">
        <ele>1973.4</ele>
        <time>2025-02-20T11:32:52Z</time>
      </trkpt>
      <trkpt lat="45.62265" lon="6.5317">
        <ele>1974</ele>
        <time>2025-02-20T11:32:53Z</time>
      </trkpt>
      <trkpt lat="45.62265" lon="6.5317">
        <ele>1974</ele>
        <time>2025-02-20T11:32:54Z</time>
      </trkpt>
      <trkpt lat="45.62265" lon="6.5317">
        <ele>1974</ele>
        <time>2025-02-20T11:32:55Z</time>
      </trkpt>
      <trkpt lat="45.62265" lon="6.5317">
        <ele>1973.8</ele>
        <time>2025-02-20T11:32:56Z</time>
      </trkpt>
      <trkpt lat="45.62265" lon="6.5317">
        <ele>1973.8</ele>
        <time>2025-02-20T11:32:57Z</time>
      </trkpt>
      <trkpt lat="45.62265" lon="6.5317">
        <ele>1973.8</ele>
        <time>2025-02-20T11:32:58Z</time>
      </trkpt>
      <trkpt lat="45.62265" lon="6.5317">
        <ele>1973.8</ele>
        <time>2025-02-20T11:32:59Z</time>
      </trkpt>
      <trkpt lat="45.62265" lon="6.5317">
        <ele>1973.8</ele>
        <time>2025-02-20T11:33:00Z</time>
      </trkpt>
      <trkpt lat="45.62265" lon="6.5317">
        <ele>1974</ele>
        <time>2025-02-20T11:33:01Z</time>
      </trkpt>
      <trkpt lat="45.62265" lon="6.5317">
        <ele>1974</ele>
        <time>2025-02-20T11:33:02Z</time>
      </trkpt>
      <trkpt lat="45.62265" lon="6.5317">
        <ele>1974</ele>
        <time>2025-02-20T11:33:03Z</time>
      </trkpt>
      <trkpt lat="45.62265" lon="6.5317">
        <ele>1974</ele>
        <time>2025-02-20T11:33:04Z</time>
      </trkpt>
      <trkpt lat="45.62265" lon="6.5317">
        <ele>1974</ele>
        <time>2025-02-20T11:33:05Z</time>
      </trkpt>
      <trkpt lat="45.62265" lon="6.5317">
        <ele>1974</ele>
        <time>2025-02-20T11:33:06Z</time>
      </trkpt>
      <trkpt lat="45.62265" lon="6.5317">
        <ele>1974</ele>
        <time>2025-02-20T11:33:07Z</time>
      </trkpt>
      <trkpt lat="45.62265" lon="6.5317">
        <ele>1973.8</ele>
        <time>2025-02-20T11:33:08Z</time>
      </trkpt>
      <trkpt lat="45.62265" lon="6.5317">
        <ele>1974</ele>
        <time>2025-02-20T11:33:09Z</time>
      </trkpt>
      <trkpt lat="45.62265" lon="6.5317">
        <ele>1974</ele>
        <time>2025-02-20T11:33:10Z</time>
      </trkpt>
      <trkpt lat="45.62265" lon="6.5317">
        <ele>1974</ele>
        <time>2025-02-20T11:33:11Z</time>
      </trkpt>
      <trkpt lat="45.62265" lon="6.5317">
        <ele>1973.2</ele>
        <time>2025-02-20T11:33:12Z</time>
      </trkpt>
      <trkpt lat="45.62265" lon="6.5317">
        <ele>1974.6</ele>
        <time>2025-02-20T11:33:13Z</time>
      </trkpt>
      <trkpt lat="45.62265" lon="6.5317">
        <ele>1974.6</ele>
        <time>2025-02-20T11:33:14Z</time>
      </trkpt>
      <trkpt lat="45.62265" lon="6.5317">
        <ele>1974.6</ele>
        <time>2025-02-20T11:33:15Z</time>
      </trkpt>
      <trkpt lat="45.62265" lon="6.5317">
        <ele>1973.6</ele>
        <time>2025-02-20T11:33:16Z</time>
      </trkpt>
      <trkpt lat="45.62265" lon="6.5317">
        <ele>1973.6</ele>
        <time>2025-02-20T11:33:17Z</time>
      </trkpt>
      <trkpt lat="45.62265" lon="6.5317">
        <ele>1973.6</ele>
        <time>2025-02-20T11:33:18Z</time>
      </trkpt>
      <trkpt lat="45.62265" lon="6.5317">
        <ele>1973.6</ele>
        <time>2025-02-20T11:33:19Z</time>
      </trkpt>
      <trkpt lat="45.62265" lon="6.5317">
        <ele>1973.6</ele>
        <time>2025-02-20T11:33:20Z</time>
      </trkpt>
      <trkpt lat="45.62265" lon="6.5317">
        <ele>1973.4</ele>
        <time>2025-02-20T11:33:21Z</time>
      </trkpt>
      <trkpt lat="45.62265" lon="6.5317">
        <ele>1973.4</ele>
        <time>2025-02-20T11:33:22Z</time>
      </trkpt>
      <trkpt lat="45.62265" lon="6.5317">
        <ele>1973.4</ele>
        <time>2025-02-20T11:33:23Z</time>
      </trkpt>
      <trkpt lat="45.62265" lon="6.5317">
        <ele>1973.4</ele>
        <time>2025-02-20T11:33:24Z</time>
      </trkpt>
      <trkpt lat="45.62265" lon="6.5317">
        <ele>1973.4</ele>
        <time>2025-02-20T11:33:25Z</time>
      </trkpt>
      <trkpt lat="45.62265" lon="6.5317">
        <ele>1973.4</ele>
        <time>2025-02-20T11:33:26Z</time>
      </trkpt>
      <trkpt lat="45.62265" lon="6.5317">
        <ele>1973.4</ele>
        <time>2025-02-20T11:33:27Z</time>
      </trkpt>
      <trkpt lat="45.62265" lon="6.5317">
        <ele>1974</ele>
        <time>2025-02-20T11:33:28Z</time>
      </trkpt>
      <trkpt lat="45.62265" lon="6.5317">
        <ele>1973.8</ele>
        <time>2025-02-20T11:33:29Z</time>
      </trkpt>
      <trkpt lat="45.62265" lon="6.5317">
        <ele>1973.8</ele>
        <time>2025-02-20T11:33:30Z</time>
      </trkpt>
      <trkpt lat="45.62265" lon="6.5317">
        <ele>1973.8</ele>
        <time>2025-02-20T11:33:31Z</time>
      </trkpt>
      <trkpt lat="45.62265" lon="6.5317">
        <ele>1973.8</ele>
        <time>2025-02-20T11:33:32Z</time>
      </trkpt>
      <trkpt lat="45.62265" lon="6.5317">
        <ele>1973.8</ele>
        <time>2025-02-20T11:33:33Z</time>
      </trkpt>
      <trkpt lat="45.62265" lon="6.5317">
        <ele>1973.8</ele>
        <time>2025-02-20T11:33:34Z</time>
      </trkpt>
      <trkpt lat="45.62265" lon="6.5317">
        <ele>1973.8</ele>
        <time>2025-02-20T11:33:35Z</time>
      </trkpt>
      <trkpt lat="45.62265" lon="6.5317">
        <ele>1973.8</ele>
        <time>2025-02-20T11:33:36Z</time>
      </trkpt>
      <trkpt lat="45.62265" lon="6.5317">
        <ele>1973.6</ele>
        <time>2025-02-20T11:33:37Z</time>
      </trkpt>
      <trkpt lat="45.62265" lon="6.5317">
        <ele>1973.6</ele>
        <time>2025-02-20T11:33:38Z</time>
      </trkpt>
      <trkpt lat="45.62265" lon="6.5317">
        <ele>1973.6</ele>
        <time>2025-02-20T11:33:39Z</time>
      </trkpt>
      <trkpt lat="45.62265" lon="6.5317">
        <ele>1973.6</ele>
        <time>2025-02-20T11:33:40Z</time>
      </trkpt>
      <trkpt lat="45.62265" lon="6.5317">
        <ele>1974</ele>
        <time>2025-02-20T11:33:41Z</time>
      </trkpt>
      <trkpt lat="45.62265" lon="6.5317">
        <ele>1974</ele>
        <time>2025-02-20T11:33:42Z</time>
      </trkpt>
      <trkpt lat="45.62265" lon="6.5317">
        <ele>1974</ele>
        <time>2025-02-20T11:33:43Z</time>
      </trkpt>
      <trkpt lat="45.62265" lon="6.5317">
        <ele>1973.8</ele>
        <time>2025-02-20T11:33:44Z</time>
      </trkpt>
      <trkpt lat="45.62265" lon="6.5317">
        <ele>1973.6</ele>
        <time>2025-02-20T11:33:45Z</time>
      </trkpt>
      <trkpt lat="45.62265" lon="6.5317">
        <ele>1973.6</ele>
        <time>2025-02-20T11:33:46Z</time>
      </trkpt>
      <trkpt lat="45.62265" lon="6.5317">
        <ele>1973.6</ele>
        <time>2025-02-20T11:33:47Z</time>
      </trkpt>
      <trkpt lat="45.62265" lon="6.5317">
        <ele>1973.6</ele>
        <time>2025-02-20T11:33:48Z</time>
      </trkpt>
      <trkpt lat="45.62265" lon="6.5317">
        <ele>1973.8</ele>
        <time>2025-02-20T11:33:49Z</time>
      </trkpt>
      <trkpt lat="45.62265" lon="6.5317">
        <ele>1973.8</ele>
        <time>2025-02-20T11:33:50Z</time>
      </trkpt>
      <trkpt lat="45.62265" lon="6.5317">
        <ele>1973.8</ele>
        <time>2025-02-20T11:33:51Z</time>
      </trkpt>
      <trkpt lat="45.62265" lon="6.5317">
        <ele>1973.8</ele>
        <time>2025-02-20T11:33:52Z</time>
      </trkpt>
      <trkpt lat="45.62265" lon="6.5317">
        <ele>1973.4</ele>
        <time>2025-02-20T11:33:53Z</time>
      </trkpt>
      <trkpt lat="45.62265" lon="6.5317">
        <ele>1973.4</ele>
        <time>2025-02-20T11:33:54Z</time>
      </trkpt>
      <trkpt lat="45.62265" lon="6.5317">
        <ele>1973.4</ele>
        <time>2025-02-20T11:33:55Z</time>
      </trkpt>
      <trkpt lat="45.6227" lon="6.53164">
        <ele>1973.4</ele>
        <time>2025-02-20T11:33:56Z</time>
      </trkpt>
      <trkpt lat="45.6227" lon="6.53164">
        <ele>1973.4</ele>
        <time>2025-02-20T11:33:57Z</time>
      </trkpt>
      <trkpt lat="45.6227" lon="6.53164">
        <ele>1973.4</ele>
        <time>2025-02-20T11:33:58Z</time>
      </trkpt>
      <trkpt lat="45.6227" lon="6.53164">
        <ele>1973.4</ele>
        <time>2025-02-20T11:33:59Z</time>
      </trkpt>
      <trkpt lat="45.6227" lon="6.5316">
        <ele>1973.4</ele>
        <time>2025-02-20T11:34:00Z</time>
      </trkpt>
      <trkpt lat="45.6227" lon="6.5316">
        <ele>1973.4</ele>
        <time>2025-02-20T11:34:01Z</time>
      </trkpt>
      <trkpt lat="45.6227" lon="6.53159">
        <ele>1973.4</ele>
        <time>2025-02-20T11:34:02Z</time>
      </trkpt>
      <trkpt lat="45.6227" lon="6.53158">
        <ele>1973.4</ele>
        <time>2025-02-20T11:34:03Z</time>
      </trkpt>
      <trkpt lat="45.6227" lon="6.53157">
        <ele>1973.4</ele>
        <time>2025-02-20T11:34:04Z</time>
      </trkpt>
      <trkpt lat="45.6227" lon="6.53156">
        <ele>1973.4</ele>
        <time>2025-02-20T11:34:05Z</time>
      </trkpt>
      <trkpt lat="45.62271" lon="6.53155">
        <ele>1973.4</ele>
        <time>2025-02-20T11:34:06Z</time>
      </trkpt>
      <trkpt lat="45.62271" lon="6.53155">
        <ele>1973.4</ele>
        <time>2025-02-20T11:34:07Z</time>
      </trkpt>
      <trkpt lat="45.62271" lon="6.53155">
        <ele>1973.4</ele>
        <time>2025-02-20T11:34:08Z</time>
      </trkpt>
      <trkpt lat="45.62271" lon="6.53155">
        <ele>1973.2</ele>
        <time>2025-02-20T11:34:09Z</time>
      </trkpt>
      <trkpt lat="45.62271" lon="6.53155">
        <ele>1973.2</ele>
        <time>2025-02-20T11:34:10Z</time>
      </trkpt>
      <trkpt lat="45.62271" lon="6.53155">
        <ele>1973.2</ele>
        <time>2025-02-20T11:34:11Z</time>
      </trkpt>
      <trkpt lat="45.62271" lon="6.53155">
        <ele>1973.2</ele>
        <time>2025-02-20T11:34:12Z</time>
      </trkpt>
      <trkpt lat="45.62271" lon="6.53155">
        <ele>1973</ele>
        <time>2025-02-20T11:34:13Z</time>
      </trkpt>
      <trkpt lat="45.62271" lon="6.53155">
        <ele>1973</ele>
        <time>2025-02-20T11:34:14Z</time>
      </trkpt>
      <trkpt lat="45.62271" lon="6.53155">
        <ele>1973</ele>
        <time>2025-02-20T11:34:15Z</time>
      </trkpt>
      <trkpt lat="45.62271" lon="6.53155">
        <ele>1973.6</ele>
        <time>2025-02-20T11:34:16Z</time>
      </trkpt>
      <trkpt lat="45.62271" lon="6.53155">
        <ele>1973.4</ele>
        <time>2025-02-20T11:34:17Z</time>
      </trkpt>
      <trkpt lat="45.62271" lon="6.53155">
        <ele>1973.4</ele>
        <time>2025-02-20T11:34:18Z</time>
      </trkpt>
      <trkpt lat="45.62271" lon="6.53155">
        <ele>1973.4</ele>
        <time>2025-02-20T11:34:19Z</time>
      </trkpt>
      <trkpt lat="45.62271" lon="6.53155">
        <ele>1973.4</ele>
        <time>2025-02-20T11:34:20Z</time>
      </trkpt>
      <trkpt lat="45.62271" lon="6.53155">
        <ele>1973.6</ele>
        <time>2025-02-20T11:34:21Z</time>
      </trkpt>
      <trkpt lat="45.62271" lon="6.53155">
        <ele>1973.6</ele>
        <time>2025-02-20T11:34:22Z</time>
      </trkpt>
      <trkpt lat="45.62271" lon="6.53155">
        <ele>1973.6</ele>
        <time>2025-02-20T11:34:23Z</time>
      </trkpt>
      <trkpt lat="45.62271" lon="6.53155">
        <ele>1973.6</ele>
        <time>2025-02-20T11:34:24Z</time>
      </trkpt>
      <trkpt lat="45.62271" lon="6.53155">
        <ele>1973.6</ele>
        <time>2025-02-20T11:34:25Z</time>
      </trkpt>
      <trkpt lat="45.62271" lon="6.53155">
        <ele>1973.6</ele>
        <time>2025-02-20T11:34:26Z</time>
      </trkpt>
      <trkpt lat="45.62271" lon="6.53155">
        <ele>1973.6</ele>
        <time>2025-02-20T11:34:27Z</time>
      </trkpt>
      <trkpt lat="45.62271" lon="6.53155">
        <ele>1973.6</ele>
        <time>2025-02-20T11:34:28Z</time>
      </trkpt>
      <trkpt lat="45.62271" lon="6.53155">
        <ele>1973.2</ele>
        <time>2025-02-20T11:34:29Z</time>
      </trkpt>
      <trkpt lat="45.62271" lon="6.53155">
        <ele>1973.2</ele>
        <time>2025-02-20T11:34:30Z</time>
      </trkpt>
      <trkpt lat="45.62271" lon="6.53155">
        <ele>1973.2</ele>
        <time>2025-02-20T11:34:31Z</time>
      </trkpt>
      <trkpt lat="45.62271" lon="6.53155">
        <ele>1973.6</ele>
        <time>2025-02-20T11:34:32Z</time>
      </trkpt>
      <trkpt lat="45.62271" lon="6.53155">
        <ele>1973</ele>
        <time>2025-02-20T11:34:33Z</time>
      </trkpt>
      <trkpt lat="45.62271" lon="6.53155">
        <ele>1973</ele>
        <time>2025-02-20T11:34:34Z</time>
      </trkpt>
      <trkpt lat="45.62271" lon="6.53155">
        <ele>1973</ele>
        <time>2025-02-20T11:34:35Z</time>
      </trkpt>
      <trkpt lat="45.62271" lon="6.53155">
        <ele>1973</ele>
        <time>2025-02-20T11:34:36Z</time>
      </trkpt>
      <trkpt lat="45.62271" lon="6.53155">
        <ele>1973.6</ele>
        <time>2025-02-20T11:34:37Z</time>
      </trkpt>
      <trkpt lat="45.62271" lon="6.53155">
        <ele>1973.6</ele>
        <time>2025-02-20T11:34:38Z</time>
      </trkpt>
      <trkpt lat="45.62271" lon="6.53155">
        <ele>1973.6</ele>
        <time>2025-02-20T11:34:39Z</time>
      </trkpt>
      <trkpt lat="45.62271" lon="6.53155">
        <ele>1973.2</ele>
        <time>2025-02-20T11:34:40Z</time>
      </trkpt>
      <trkpt lat="45.62271" lon="6.53155">
        <ele>1972.8</ele>
        <time>2025-02-20T11:34:41Z</time>
      </trkpt>
      <trkpt lat="45.62271" lon="6.53155">
        <ele>1972.8</ele>
        <time>2025-02-20T11:34:42Z</time>
      </trkpt>
      <trkpt lat="45.62271" lon="6.53155">
        <ele>1972.8</ele>
        <time>2025-02-20T11:34:43Z</time>
      </trkpt>
      <trkpt lat="45.62271" lon="6.53155">
        <ele>1972.8</ele>
        <time>2025-02-20T11:34:44Z</time>
      </trkpt>
      <trkpt lat="45.62271" lon="6.53155">
        <ele>1973</ele>
        <time>2025-02-20T11:34:45Z</time>
      </trkpt>
      <trkpt lat="45.62271" lon="6.53155">
        <ele>1973</ele>
        <time>2025-02-20T11:34:46Z</time>
      </trkpt>
      <trkpt lat="45.62271" lon="6.53155">
        <ele>1973</ele>
        <time>2025-02-20T11:34:47Z</time>
      </trkpt>
      <trkpt lat="45.62271" lon="6.53155">
        <ele>1973.4</ele>
        <time>2025-02-20T11:34:48Z</time>
      </trkpt>
      <trkpt lat="45.62271" lon="6.53155">
        <ele>1973.2</ele>
        <time>2025-02-20T11:34:49Z</time>
      </trkpt>
      <trkpt lat="45.62271" lon="6.53155">
        <ele>1973.2</ele>
        <time>2025-02-20T11:34:50Z</time>
      </trkpt>
      <trkpt lat="45.62271" lon="6.53155">
        <ele>1973.2</ele>
        <time>2025-02-20T11:34:51Z</time>
      </trkpt>
      <trkpt lat="45.62271" lon="6.53155">
        <ele>1973.2</ele>
        <time>2025-02-20T11:34:52Z</time>
      </trkpt>
      <trkpt lat="45.62271" lon="6.53155">
        <ele>1973.2</ele>
        <time>2025-02-20T11:34:53Z</time>
      </trkpt>
      <trkpt lat="45.62271" lon="6.53155">
        <ele>1973.2</ele>
        <time>2025-02-20T11:34:54Z</time>
      </trkpt>
      <trkpt lat="45.62271" lon="6.53155">
        <ele>1973.2</ele>
        <time>2025-02-20T11:34:55Z</time>
      </trkpt>
      <trkpt lat="45.62271" lon="6.53155">
        <ele>1973.2</ele>
        <time>2025-02-20T11:34:56Z</time>
      </trkpt>
      <trkpt lat="45.62271" lon="6.53155">
        <ele>1973.4</ele>
        <time>2025-02-20T11:34:57Z</time>
      </trkpt>
      <trkpt lat="45.62271" lon="6.53155">
        <ele>1973.4</ele>
        <time>2025-02-20T11:34:58Z</time>
      </trkpt>
      <trkpt lat="45.62271" lon="6.53155">
        <ele>1973.4</ele>
        <time>2025-02-20T11:34:59Z</time>
      </trkpt>
      <trkpt lat="45.62271" lon="6.53155">
        <ele>1973.4</ele>
        <time>2025-02-20T11:35:00Z</time>
      </trkpt>
      <trkpt lat="45.62271" lon="6.53155">
        <ele>1973</ele>
        <time>2025-02-20T11:35:01Z</time>
      </trkpt>
      <trkpt lat="45.62271" lon="6.53155">
        <ele>1973</ele>
        <time>2025-02-20T11:35:02Z</time>
      </trkpt>
      <trkpt lat="45.62271" lon="6.53155">
        <ele>1973</ele>
        <time>2025-02-20T11:35:03Z</time>
      </trkpt>
      <trkpt lat="45.62271" lon="6.53155">
        <ele>1973</ele>
        <time>2025-02-20T11:35:04Z</time>
      </trkpt>
      <trkpt lat="45.62271" lon="6.53155">
        <ele>1973</ele>
        <time>2025-02-20T11:35:05Z</time>
      </trkpt>
      <trkpt lat="45.62271" lon="6.53155">
        <ele>1973</ele>
        <time>2025-02-20T11:35:06Z</time>
      </trkpt>
      <trkpt lat="45.62271" lon="6.53155">
        <ele>1973</ele>
        <time>2025-02-20T11:35:07Z</time>
      </trkpt>
      <trkpt lat="45.62271" lon="6.53155">
        <ele>1973</ele>
        <time>2025-02-20T11:35:08Z</time>
      </trkpt>
      <trkpt lat="45.62271" lon="6.53155">
        <ele>1973.2</ele>
        <time>2025-02-20T11:35:09Z</time>
      </trkpt>
      <trkpt lat="45.62271" lon="6.53155">
        <ele>1973.2</ele>
        <time>2025-02-20T11:35:10Z</time>
      </trkpt>
      <trkpt lat="45.62271" lon="6.53155">
        <ele>1973.2</ele>
        <time>2025-02-20T11:35:11Z</time>
      </trkpt>
      <trkpt lat="45.62271" lon="6.53155">
        <ele>1973.2</ele>
        <time>2025-02-20T11:35:12Z</time>
      </trkpt>
      <trkpt lat="45.62271" lon="6.53155">
        <ele>1973.6</ele>
        <time>2025-02-20T11:35:13Z</time>
      </trkpt>
      <trkpt lat="45.62271" lon="6.53155">
        <ele>1973.6</ele>
        <time>2025-02-20T11:35:14Z</time>
      </trkpt>
      <trkpt lat="45.62271" lon="6.53155">
        <ele>1973.6</ele>
        <time>2025-02-20T11:35:15Z</time>
      </trkpt>
      <trkpt lat="45.62271" lon="6.53155">
        <ele>1973.2</ele>
        <time>2025-02-20T11:35:16Z</time>
      </trkpt>
      <trkpt lat="45.62271" lon="6.53155">
        <ele>1973.4</ele>
        <time>2025-02-20T11:35:17Z</time>
      </trkpt>
      <trkpt lat="45.62271" lon="6.53155">
        <ele>1973.4</ele>
        <time>2025-02-20T11:35:18Z</time>
      </trkpt>
      <trkpt lat="45.62271" lon="6.53155">
        <ele>1973.4</ele>
        <time>2025-02-20T11:35:19Z</time>
      </trkpt>
      <trkpt lat="45.62271" lon="6.53155">
        <ele>1973</ele>
        <time>2025-02-20T11:35:20Z</time>
      </trkpt>
      <trkpt lat="45.62271" lon="6.53155">
        <ele>1973.2</ele>
        <time>2025-02-20T11:35:21Z</time>
      </trkpt>
      <trkpt lat="45.62271" lon="6.53155">
        <ele>1973.2</ele>
        <time>2025-02-20T11:35:22Z</time>
      </trkpt>
      <trkpt lat="45.62271" lon="6.53155">
        <ele>1973.2</ele>
        <time>2025-02-20T11:35:23Z</time>
      </trkpt>
      <trkpt lat="45.62271" lon="6.53155">
        <ele>1973.2</ele>
        <time>2025-02-20T11:35:24Z</time>
      </trkpt>
      <trkpt lat="45.62271" lon="6.53155">
        <ele>1973.6</ele>
        <time>2025-02-20T11:35:25Z</time>
      </trkpt>
      <trkpt lat="45.62271" lon="6.53155">
        <ele>1973.6</ele>
        <time>2025-02-20T11:35:26Z</time>
      </trkpt>
      <trkpt lat="45.62271" lon="6.53155">
        <ele>1973.6</ele>
        <time>2025-02-20T11:35:27Z</time>
      </trkpt>
      <trkpt lat="45.62271" lon="6.53155">
        <ele>1973.2</ele>
        <time>2025-02-20T11:35:28Z</time>
      </trkpt>
      <trkpt lat="45.62271" lon="6.53155">
        <ele>1973.4</ele>
        <time>2025-02-20T11:35:29Z</time>
      </trkpt>
      <trkpt lat="45.62271" lon="6.53155">
        <ele>1973.4</ele>
        <time>2025-02-20T11:35:30Z</time>
      </trkpt>
      <trkpt lat="45.62271" lon="6.53155">
        <ele>1973.4</ele>
        <time>2025-02-20T11:35:31Z</time>
      </trkpt>
      <trkpt lat="45.62271" lon="6.53155">
        <ele>1973</ele>
        <time>2025-02-20T11:35:32Z</time>
      </trkpt>
      <trkpt lat="45.62271" lon="6.53155">
        <ele>1972.8</ele>
        <time>2025-02-20T11:35:33Z</time>
      </trkpt>
      <trkpt lat="45.62271" lon="6.53155">
        <ele>1972.8</ele>
        <time>2025-02-20T11:35:34Z</time>
      </trkpt>
      <trkpt lat="45.62271" lon="6.53155">
        <ele>1972.8</ele>
        <time>2025-02-20T11:35:35Z</time>
      </trkpt>
      <trkpt lat="45.62271" lon="6.53155">
        <ele>1972.8</ele>
        <time>2025-02-20T11:35:36Z</time>
      </trkpt>
      <trkpt lat="45.62271" lon="6.53155">
        <ele>1973</ele>
        <time>2025-02-20T11:35:37Z</time>
      </trkpt>
      <trkpt lat="45.62271" lon="6.53155">
        <ele>1973</ele>
        <time>2025-02-20T11:35:38Z</time>
      </trkpt>
      <trkpt lat="45.62271" lon="6.53155">
        <ele>1973</ele>
        <time>2025-02-20T11:35:39Z</time>
      </trkpt>
      <trkpt lat="45.62271" lon="6.53155">
        <ele>1973</ele>
        <time>2025-02-20T11:35:40Z</time>
      </trkpt>
      <trkpt lat="45.62271" lon="6.53155">
        <ele>1973</ele>
        <time>2025-02-20T11:35:41Z</time>
      </trkpt>
      <trkpt lat="45.62271" lon="6.53155">
        <ele>1973</ele>
        <time>2025-02-20T11:35:42Z</time>
      </trkpt>
      <trkpt lat="45.62271" lon="6.53154">
        <ele>1973</ele>
        <time>2025-02-20T11:35:43Z</time>
      </trkpt>
      <trkpt lat="45.62271" lon="6.53151">
        <ele>1973</ele>
        <time>2025-02-20T11:35:44Z</time>
      </trkpt>
      <trkpt lat="45.62271" lon="6.53149">
        <ele>1972.8</ele>
        <time>2025-02-20T11:35:45Z</time>
      </trkpt>
      <trkpt lat="45.62271" lon="6.53148">
        <ele>1972.8</ele>
        <time>2025-02-20T11:35:46Z</time>
      </trkpt>
      <trkpt lat="45.62271" lon="6.53147">
        <ele>1972.8</ele>
        <time>2025-02-20T11:35:47Z</time>
      </trkpt>
      <trkpt lat="45.62272" lon="6.53146">
        <ele>1972.8</ele>
        <time>2025-02-20T11:35:48Z</time>
      </trkpt>
      <trkpt lat="45.62272" lon="6.53145">
        <ele>1972.6</ele>
        <time>2025-02-20T11:35:49Z</time>
      </trkpt>
      <trkpt lat="45.62272" lon="6.53143">
        <ele>1972.6</ele>
        <time>2025-02-20T11:35:50Z</time>
      </trkpt>
      <trkpt lat="45.62273" lon="6.53142">
        <ele>1972.6</ele>
        <time>2025-02-20T11:35:51Z</time>
      </trkpt>
      <trkpt lat="45.62273" lon="6.53142">
        <ele>1972.4</ele>
        <time>2025-02-20T11:35:52Z</time>
      </trkpt>
      <trkpt lat="45.62273" lon="6.53142">
        <ele>1971.8</ele>
        <time>2025-02-20T11:35:53Z</time>
      </trkpt>
      <trkpt lat="45.62273" lon="6.53142">
        <ele>1971.8</ele>
        <time>2025-02-20T11:35:54Z</time>
      </trkpt>
      <trkpt lat="45.62273" lon="6.53142">
        <ele>1971.8</ele>
        <time>2025-02-20T11:35:55Z</time>
      </trkpt>
      <trkpt lat="45.62273" lon="6.53142">
        <ele>1971.8</ele>
        <time>2025-02-20T11:35:56Z</time>
      </trkpt>
      <trkpt lat="45.62273" lon="6.53142">
        <ele>1971.6</ele>
        <time>2025-02-20T11:35:57Z</time>
      </trkpt>
      <trkpt lat="45.62273" lon="6.53142">
        <ele>1971.6</ele>
        <time>2025-02-20T11:35:58Z</time>
      </trkpt>
      <trkpt lat="45.62273" lon="6.53142">
        <ele>1971.6</ele>
        <time>2025-02-20T11:35:59Z</time>
      </trkpt>
      <trkpt lat="45.62273" lon="6.53142">
        <ele>1972</ele>
        <time>2025-02-20T11:36:00Z</time>
      </trkpt>
      <trkpt lat="45.62273" lon="6.53142">
        <ele>1972.2</ele>
        <time>2025-02-20T11:36:01Z</time>
      </trkpt>
      <trkpt lat="45.62273" lon="6.53142">
        <ele>1972.2</ele>
        <time>2025-02-20T11:36:02Z</time>
      </trkpt>
      <trkpt lat="45.62273" lon="6.53142">
        <ele>1972.2</ele>
        <time>2025-02-20T11:36:03Z</time>
      </trkpt>
      <trkpt lat="45.62274" lon="6.53141">
        <ele>1972</ele>
        <time>2025-02-20T11:36:04Z</time>
      </trkpt>
      <trkpt lat="45.62274" lon="6.53139">
        <ele>1971.6</ele>
        <time>2025-02-20T11:36:05Z</time>
      </trkpt>
      <trkpt lat="45.62275" lon="6.53137">
        <ele>1971.6</ele>
        <time>2025-02-20T11:36:06Z</time>
      </trkpt>
      <trkpt lat="45.62275" lon="6.53137">
        <ele>1971.6</ele>
        <time>2025-02-20T11:36:07Z</time>
      </trkpt>
      <trkpt lat="45.62275" lon="6.53137">
        <ele>1971.4</ele>
        <time>2025-02-20T11:36:08Z</time>
      </trkpt>
      <trkpt lat="45.62275" lon="6.53137">
        <ele>1971.4</ele>
        <time>2025-02-20T11:36:09Z</time>
      </trkpt>
      <trkpt lat="45.62275" lon="6.53137">
        <ele>1971.4</ele>
        <time>2025-02-20T11:36:10Z</time>
      </trkpt>
      <trkpt lat="45.62275" lon="6.53137">
        <ele>1971.4</ele>
        <time>2025-02-20T11:36:11Z</time>
      </trkpt>
      <trkpt lat="45.62273" lon="6.53135">
        <ele>1971.4</ele>
        <time>2025-02-20T11:36:12Z</time>
      </trkpt>
      <trkpt lat="45.62269" lon="6.53132">
        <ele>1970.6</ele>
        <time>2025-02-20T11:36:13Z</time>
      </trkpt>
      <trkpt lat="45.62267" lon="6.53134">
        <ele>1970.6</ele>
        <time>2025-02-20T11:36:14Z</time>
      </trkpt>
      <trkpt lat="45.62264" lon="6.53136">
        <ele>1970.6</ele>
        <time>2025-02-20T11:36:15Z</time>
      </trkpt>
      <trkpt lat="45.6226" lon="6.53135">
        <ele>1969.6</ele>
        <time>2025-02-20T11:36:16Z</time>
      </trkpt>
      <trkpt lat="45.62258" lon="6.53132">
        <ele>1966</ele>
        <time>2025-02-20T11:36:17Z</time>
      </trkpt>
      <trkpt lat="45.62259" lon="6.53128">
        <ele>1966</ele>
        <time>2025-02-20T11:36:18Z</time>
      </trkpt>
      <trkpt lat="45.62261" lon="6.53125">
        <ele>1966</ele>
        <time>2025-02-20T11:36:19Z</time>
      </trkpt>
      <trkpt lat="45.62262" lon="6.53121">
        <ele>1965</ele>
        <time>2025-02-20T11:36:20Z</time>
      </trkpt>
      <trkpt lat="45.62263" lon="6.53118">
        <ele>1963.2</ele>
        <time>2025-02-20T11:36:21Z</time>
      </trkpt>
      <trkpt lat="45.62264" lon="6.53115">
        <ele>1963.2</ele>
        <time>2025-02-20T11:36:22Z</time>
      </trkpt>
      <trkpt lat="45.62264" lon="6.53112">
        <ele>1963.2</ele>
        <time>2025-02-20T11:36:23Z</time>
      </trkpt>
      <trkpt lat="45.62262" lon="6.5311">
        <ele>1962.2</ele>
        <time>2025-02-20T11:36:24Z</time>
      </trkpt>
      <trkpt lat="45.6226" lon="6.53111">
        <ele>1960.4</ele>
        <time>2025-02-20T11:36:25Z</time>
      </trkpt>
      <trkpt lat="45.62258" lon="6.53112">
        <ele>1960.4</ele>
        <time>2025-02-20T11:36:26Z</time>
      </trkpt>
      <trkpt lat="45.62256" lon="6.53113">
        <ele>1960.4</ele>
        <time>2025-02-20T11:36:27Z</time>
      </trkpt>
      <trkpt lat="45.62253" lon="6.53112">
        <ele>1959.4</ele>
        <time>2025-02-20T11:36:28Z</time>
      </trkpt>
      <trkpt lat="45.62252" lon="6.53108">
        <ele>1956.4</ele>
        <time>2025-02-20T11:36:29Z</time>
      </trkpt>
      <trkpt lat="45.62253" lon="6.53103">
        <ele>1956.4</ele>
        <time>2025-02-20T11:36:30Z</time>
      </trkpt>
      <trkpt lat="45.62252" lon="6.53099">
        <ele>1956.4</ele>
        <time>2025-02-20T11:36:31Z</time>
      </trkpt>
      <trkpt lat="45.62248" lon="6.53097">
        <ele>1955.4</ele>
        <time>2025-02-20T11:36:32Z</time>
      </trkpt>
      <trkpt lat="45.62244" lon="6.531">
        <ele>1951</ele>
        <time>2025-02-20T11:36:33Z</time>
      </trkpt>
      <trkpt lat="45.6224" lon="6.53099">
        <ele>1951</ele>
        <time>2025-02-20T11:36:34Z</time>
      </trkpt>
      <trkpt lat="45.62239" lon="6.53096">
        <ele>1951</ele>
        <time>2025-02-20T11:36:35Z</time>
      </trkpt>
      <trkpt lat="45.62239" lon="6.53091">
        <ele>1950</ele>
        <time>2025-02-20T11:36:36Z</time>
      </trkpt>
      <trkpt lat="45.62237" lon="6.53087">
        <ele>1948.6</ele>
        <time>2025-02-20T11:36:37Z</time>
      </trkpt>
      <trkpt lat="45.62237" lon="6.53082">
        <ele>1948.6</ele>
        <time>2025-02-20T11:36:38Z</time>
      </trkpt>
      <trkpt lat="45.62238" lon="6.53079">
        <ele>1948.6</ele>
        <time>2025-02-20T11:36:39Z</time>
      </trkpt>
      <trkpt lat="45.6224" lon="6.53078">
        <ele>1947.6</ele>
        <time>2025-02-20T11:36:40Z</time>
      </trkpt>
      <trkpt lat="45.62242" lon="6.53076">
        <ele>1943.8</ele>
        <time>2025-02-20T11:36:41Z</time>
      </trkpt>
      <trkpt lat="45.62242" lon="6.53074">
        <ele>1943.8</ele>
        <time>2025-02-20T11:36:42Z</time>
      </trkpt>
      <trkpt lat="45.62241" lon="6.53073">
        <ele>1943.8</ele>
        <time>2025-02-20T11:36:43Z</time>
      </trkpt>
      <trkpt lat="45.62241" lon="6.53073">
        <ele>1943.4</ele>
        <time>2025-02-20T11:36:44Z</time>
      </trkpt>
      <trkpt lat="45.62241" lon="6.53073">
        <ele>1943</ele>
        <time>2025-02-20T11:36:45Z</time>
      </trkpt>
      <trkpt lat="45.62241" lon="6.53073">
        <ele>1943</ele>
        <time>2025-02-20T11:36:46Z</time>
      </trkpt>
      <trkpt lat="45.62241" lon="6.53073">
        <ele>1943</ele>
        <time>2025-02-20T11:36:47Z</time>
      </trkpt>
      <trkpt lat="45.62241" lon="6.53073">
        <ele>1943</ele>
        <time>2025-02-20T11:36:48Z</time>
      </trkpt>
      <trkpt lat="45.62241" lon="6.53073">
        <ele>1942.6</ele>
        <time>2025-02-20T11:36:49Z</time>
      </trkpt>
      <trkpt lat="45.62241" lon="6.53073">
        <ele>1942.6</ele>
        <time>2025-02-20T11:36:50Z</time>
      </trkpt>
      <trkpt lat="45.62241" lon="6.53073">
        <ele>1942.6</ele>
        <time>2025-02-20T11:36:51Z</time>
      </trkpt>
      <trkpt lat="45.62241" lon="6.53073">
        <ele>1943</ele>
        <time>2025-02-20T11:36:52Z</time>
      </trkpt>
      <trkpt lat="45.62241" lon="6.53073">
        <ele>1942.8</ele>
        <time>2025-02-20T11:36:53Z</time>
      </trkpt>
      <trkpt lat="45.62241" lon="6.53073">
        <ele>1942.8</ele>
        <time>2025-02-20T11:36:54Z</time>
      </trkpt>
      <trkpt lat="45.62241" lon="6.53073">
        <ele>1942.8</ele>
        <time>2025-02-20T11:36:55Z</time>
      </trkpt>
      <trkpt lat="45.62241" lon="6.53073">
        <ele>1942.8</ele>
        <time>2025-02-20T11:36:56Z</time>
      </trkpt>
      <trkpt lat="45.62241" lon="6.53073">
        <ele>1942.6</ele>
        <time>2025-02-20T11:36:57Z</time>
      </trkpt>
      <trkpt lat="45.62241" lon="6.53073">
        <ele>1942.6</ele>
        <time>2025-02-20T11:36:58Z</time>
      </trkpt>
      <trkpt lat="45.62241" lon="6.53073">
        <ele>1942.6</ele>
        <time>2025-02-20T11:36:59Z</time>
      </trkpt>
      <trkpt lat="45.62241" lon="6.53073">
        <ele>1942.6</ele>
        <time>2025-02-20T11:37:00Z</time>
      </trkpt>
      <trkpt lat="45.62241" lon="6.53073">
        <ele>1942.4</ele>
        <time>2025-02-20T11:37:01Z</time>
      </trkpt>
      <trkpt lat="45.62241" lon="6.53073">
        <ele>1942.4</ele>
        <time>2025-02-20T11:37:02Z</time>
      </trkpt>
      <trkpt lat="45.62241" lon="6.53073">
        <ele>1942.4</ele>
        <time>2025-02-20T11:37:03Z</time>
      </trkpt>
      <trkpt lat="45.62241" lon="6.53073">
        <ele>1942.6</ele>
        <time>2025-02-20T11:37:04Z</time>
      </trkpt>
      <trkpt lat="45.62241" lon="6.53073">
        <ele>1942.8</ele>
        <time>2025-02-20T11:37:05Z</time>
      </trkpt>
      <trkpt lat="45.62241" lon="6.53073">
        <ele>1942.8</ele>
        <time>2025-02-20T11:37:06Z</time>
      </trkpt>
      <trkpt lat="45.62241" lon="6.53073">
        <ele>1942.8</ele>
        <time>2025-02-20T11:37:07Z</time>
      </trkpt>
      <trkpt lat="45.62241" lon="6.53073">
        <ele>1942.4</ele>
        <time>2025-02-20T11:37:08Z</time>
      </trkpt>
      <trkpt lat="45.62241" lon="6.53073">
        <ele>1942.4</ele>
        <time>2025-02-20T11:37:09Z</time>
      </trkpt>
      <trkpt lat="45.62241" lon="6.53073">
        <ele>1942.4</ele>
        <time>2025-02-20T11:37:10Z</time>
      </trkpt>
      <trkpt lat="45.62241" lon="6.53073">
        <ele>1942.4</ele>
        <time>2025-02-20T11:37:11Z</time>
      </trkpt>
      <trkpt lat="45.62241" lon="6.53073">
        <ele>1942.4</ele>
        <time>2025-02-20T11:37:12Z</time>
      </trkpt>
      <trkpt lat="45.62241" lon="6.53073">
        <ele>1942.4</ele>
        <time>2025-02-20T11:37:13Z</time>
      </trkpt>
      <trkpt lat="45.62241" lon="6.53073">
        <ele>1942.4</ele>
        <time>2025-02-20T11:37:14Z</time>
      </trkpt>
      <trkpt lat="45.62241" lon="6.53073">
        <ele>1942.4</ele>
        <time>2025-02-20T11:37:15Z</time>
      </trkpt>
      <trkpt lat="45.62241" lon="6.53073">
        <ele>1942.8</ele>
        <time>2025-02-20T11:37:16Z</time>
      </trkpt>
      <trkpt lat="45.62241" lon="6.53073">
        <ele>1943.2</ele>
        <time>2025-02-20T11:37:17Z</time>
      </trkpt>
      <trkpt lat="45.62241" lon="6.53073">
        <ele>1943.2</ele>
        <time>2025-02-20T11:37:18Z</time>
      </trkpt>
      <trkpt lat="45.62241" lon="6.53073">
        <ele>1943.2</ele>
        <time>2025-02-20T11:37:19Z</time>
      </trkpt>
      <trkpt lat="45.62241" lon="6.53073">
        <ele>1942.2</ele>
        <time>2025-02-20T11:37:20Z</time>
      </trkpt>
      <trkpt lat="45.62241" lon="6.53073">
        <ele>1942</ele>
        <time>2025-02-20T11:37:21Z</time>
      </trkpt>
      <trkpt lat="45.62241" lon="6.53073">
        <ele>1942</ele>
        <time>2025-02-20T11:37:22Z</time>
      </trkpt>
      <trkpt lat="45.62241" lon="6.53073">
        <ele>1942</ele>
        <time>2025-02-20T11:37:23Z</time>
      </trkpt>
      <trkpt lat="45.62241" lon="6.53073">
        <ele>1942</ele>
        <time>2025-02-20T11:37:24Z</time>
      </trkpt>
      <trkpt lat="45.62241" lon="6.53073">
        <ele>1942</ele>
        <time>2025-02-20T11:37:25Z</time>
      </trkpt>
      <trkpt lat="45.62241" lon="6.53073">
        <ele>1942</ele>
        <time>2025-02-20T11:37:26Z</time>
      </trkpt>
      <trkpt lat="45.62241" lon="6.53073">
        <ele>1942</ele>
        <time>2025-02-20T11:37:27Z</time>
      </trkpt>
      <trkpt lat="45.62241" lon="6.53073">
        <ele>1942.4</ele>
        <time>2025-02-20T11:37:28Z</time>
      </trkpt>
      <trkpt lat="45.62241" lon="6.53073">
        <ele>1942.4</ele>
        <time>2025-02-20T11:37:29Z</time>
      </trkpt>
      <trkpt lat="45.62241" lon="6.53073">
        <ele>1942.4</ele>
        <time>2025-02-20T11:37:30Z</time>
      </trkpt>
      <trkpt lat="45.62241" lon="6.53073">
        <ele>1942.4</ele>
        <time>2025-02-20T11:37:31Z</time>
      </trkpt>
      <trkpt lat="45.62241" lon="6.53073">
        <ele>1942</ele>
        <time>2025-02-20T11:37:32Z</time>
      </trkpt>
      <trkpt lat="45.62241" lon="6.53073">
        <ele>1942.2</ele>
        <time>2025-02-20T11:37:33Z</time>
      </trkpt>
      <trkpt lat="45.62241" lon="6.53073">
        <ele>1942.2</ele>
        <time>2025-02-20T11:37:34Z</time>
      </trkpt>
      <trkpt lat="45.62241" lon="6.53073">
        <ele>1942.2</ele>
        <time>2025-02-20T11:37:35Z</time>
      </trkpt>
      <trkpt lat="45.62241" lon="6.53073">
        <ele>1942.2</ele>
        <time>2025-02-20T11:37:36Z</time>
      </trkpt>
      <trkpt lat="45.62241" lon="6.53073">
        <ele>1942.2</ele>
        <time>2025-02-20T11:37:37Z</time>
      </trkpt>
      <trkpt lat="45.62241" lon="6.53073">
        <ele>1942.2</ele>
        <time>2025-02-20T11:37:38Z</time>
      </trkpt>
      <trkpt lat="45.62241" lon="6.53073">
        <ele>1942.2</ele>
        <time>2025-02-20T11:37:39Z</time>
      </trkpt>
      <trkpt lat="45.62241" lon="6.53073">
        <ele>1942.8</ele>
        <time>2025-02-20T11:37:40Z</time>
      </trkpt>
      <trkpt lat="45.62241" lon="6.53073">
        <ele>1943.4</ele>
        <time>2025-02-20T11:37:41Z</time>
      </trkpt>
      <trkpt lat="45.62241" lon="6.53073">
        <ele>1943.4</ele>
        <time>2025-02-20T11:37:42Z</time>
      </trkpt>
      <trkpt lat="45.62241" lon="6.53073">
        <ele>1943.4</ele>
        <time>2025-02-20T11:37:43Z</time>
      </trkpt>
      <trkpt lat="45.62238" lon="6.53071">
        <ele>1942.8</ele>
        <time>2025-02-20T11:37:44Z</time>
      </trkpt>
      <trkpt lat="45.62237" lon="6.5307">
        <ele>1942</ele>
        <time>2025-02-20T11:37:45Z</time>
      </trkpt>
      <trkpt lat="45.62235" lon="6.53066">
        <ele>1942</ele>
        <time>2025-02-20T11:37:46Z</time>
      </trkpt>
      <trkpt lat="45.62237" lon="6.53061">
        <ele>1942</ele>
        <time>2025-02-20T11:37:47Z</time>
      </trkpt>
      <trkpt lat="45.62239" lon="6.53059">
        <ele>1941</ele>
        <time>2025-02-20T11:37:48Z</time>
      </trkpt>
      <trkpt lat="45.6224" lon="6.53055">
        <ele>1937.8</ele>
        <time>2025-02-20T11:37:49Z</time>
      </trkpt>
      <trkpt lat="45.62238" lon="6.53053">
        <ele>1937.8</ele>
        <time>2025-02-20T11:37:50Z</time>
      </trkpt>
      <trkpt lat="45.62236" lon="6.53053">
        <ele>1937.8</ele>
        <time>2025-02-20T11:37:51Z</time>
      </trkpt>
      <trkpt lat="45.62234" lon="6.53049">
        <ele>1936.8</ele>
        <time>2025-02-20T11:37:52Z</time>
      </trkpt>
      <trkpt lat="45.62235" lon="6.53046">
        <ele>1933.2</ele>
        <time>2025-02-20T11:37:53Z</time>
      </trkpt>
      <trkpt lat="45.62236" lon="6.53044">
        <ele>1933.2</ele>
        <time>2025-02-20T11:37:54Z</time>
      </trkpt>
      <trkpt lat="45.62235" lon="6.5304">
        <ele>1933.2</ele>
        <time>2025-02-20T11:37:55Z</time>
      </trkpt>
      <trkpt lat="45.62232" lon="6.5304">
        <ele>1932.2</ele>
        <time>2025-02-20T11:37:56Z</time>
      </trkpt>
      <trkpt lat="45.62231" lon="6.53039">
        <ele>1929.4</ele>
        <time>2025-02-20T11:37:57Z</time>
      </trkpt>
      <trkpt lat="45.62229" lon="6.53035">
        <ele>1929.4</ele>
        <time>2025-02-20T11:37:58Z</time>
      </trkpt>
      <trkpt lat="45.62231" lon="6.53029">
        <ele>1929.4</ele>
        <time>2025-02-20T11:37:59Z</time>
      </trkpt>
      <trkpt lat="45.62231" lon="6.53021">
        <ele>1928.4</ele>
        <time>2025-02-20T11:38:00Z</time>
      </trkpt>
      <trkpt lat="45.62228" lon="6.53011">
        <ele>1921.4</ele>
        <time>2025-02-20T11:38:01Z</time>
      </trkpt>
      <trkpt lat="45.62224" lon="6.53001">
        <ele>1921.4</ele>
        <time>2025-02-20T11:38:02Z</time>
      </trkpt>
      <trkpt lat="45.6222" lon="6.52993">
        <ele>1921.4</ele>
        <time>2025-02-20T11:38:03Z</time>
      </trkpt>
      <trkpt lat="45.62217" lon="6.52984">
        <ele>1920.4</ele>
        <time>2025-02-20T11:38:04Z</time>
      </trkpt>
      <trkpt lat="45.62215" lon="6.52975">
        <ele>1915.2</ele>
        <time>2025-02-20T11:38:05Z</time>
      </trkpt>
      <trkpt lat="45.62213" lon="6.52965">
        <ele>1915.2</ele>
        <time>2025-02-20T11:38:06Z</time>
      </trkpt>
      <trkpt lat="45.6221" lon="6.52955">
        <ele>1915.2</ele>
        <time>2025-02-20T11:38:07Z</time>
      </trkpt>
      <trkpt lat="45.62207" lon="6.52945">
        <ele>1914.2</ele>
        <time>2025-02-20T11:38:08Z</time>
      </trkpt>
      <trkpt lat="45.62204" lon="6.52935">
        <ele>1909.2</ele>
        <time>2025-02-20T11:38:09Z</time>
      </trkpt>
      <trkpt lat="45.622" lon="6.52924">
        <ele>1909.2</ele>
        <time>2025-02-20T11:38:10Z</time>
      </trkpt>
      <trkpt lat="45.62196" lon="6.52912">
        <ele>1909.2</ele>
        <time>2025-02-20T11:38:11Z</time>
      </trkpt>
      <trkpt lat="45.62194" lon="6.52902">
        <ele>1909.2</ele>
        <time>2025-02-20T11:38:12Z</time>
      </trkpt>
      <trkpt lat="45.62193" lon="6.52892">
        <ele>1905.8</ele>
        <time>2025-02-20T11:38:13Z</time>
      </trkpt>
      <trkpt lat="45.62191" lon="6.52884">
        <ele>1905.8</ele>
        <time>2025-02-20T11:38:14Z</time>
      </trkpt>
      <trkpt lat="45.62191" lon="6.52877">
        <ele>1905.8</ele>
        <time>2025-02-20T11:38:15Z</time>
      </trkpt>
      <trkpt lat="45.62191" lon="6.52872">
        <ele>1904.8</ele>
        <time>2025-02-20T11:38:16Z</time>
      </trkpt>
      <trkpt lat="45.62192" lon="6.52869">
        <ele>1903.6</ele>
        <time>2025-02-20T11:38:17Z</time>
      </trkpt>
      <trkpt lat="45.62192" lon="6.52866">
        <ele>1903.6</ele>
        <time>2025-02-20T11:38:18Z</time>
      </trkpt>
      <trkpt lat="45.62192" lon="6.52863">
        <ele>1903.6</ele>
        <time>2025-02-20T11:38:19Z</time>
      </trkpt>
      <trkpt lat="45.62192" lon="6.52861">
        <ele>1903.6</ele>
        <time>2025-02-20T11:38:20Z</time>
      </trkpt>
      <trkpt lat="45.62192" lon="6.5286">
        <ele>1903.6</ele>
        <time>2025-02-20T11:38:21Z</time>
      </trkpt>
      <trkpt lat="45.62192" lon="6.52859">
        <ele>1903.6</ele>
        <time>2025-02-20T11:38:22Z</time>
      </trkpt>
      <trkpt lat="45.62192" lon="6.52859">
        <ele>1903.6</ele>
        <time>2025-02-20T11:38:23Z</time>
      </trkpt>
      <trkpt lat="45.62192" lon="6.52859">
        <ele>1903.6</ele>
        <time>2025-02-20T11:38:24Z</time>
      </trkpt>
      <trkpt lat="45.62192" lon="6.52859">
        <ele>1903.6</ele>
        <time>2025-02-20T11:38:25Z</time>
      </trkpt>
      <trkpt lat="45.62192" lon="6.52859">
        <ele>1903.6</ele>
        <time>2025-02-20T11:38:26Z</time>
      </trkpt>
      <trkpt lat="45.62192" lon="6.52859">
        <ele>1903.6</ele>
        <time>2025-02-20T11:38:27Z</time>
      </trkpt>
      <trkpt lat="45.62192" lon="6.52859">
        <ele>1903.6</ele>
        <time>2025-02-20T11:38:28Z</time>
      </trkpt>
      <trkpt lat="45.62192" lon="6.52859">
        <ele>1903.6</ele>
        <time>2025-02-20T11:38:29Z</time>
      </trkpt>
      <trkpt lat="45.62192" lon="6.52859">
        <ele>1903.6</ele>
        <time>2025-02-20T11:38:30Z</time>
      </trkpt>
      <trkpt lat="45.62192" lon="6.52859">
        <ele>1903.6</ele>
        <time>2025-02-20T11:38:31Z</time>
      </trkpt>
      <trkpt lat="45.62192" lon="6.52859">
        <ele>1903.6</ele>
        <time>2025-02-20T11:38:32Z</time>
      </trkpt>
      <trkpt lat="45.62192" lon="6.52859">
        <ele>1902.2</ele>
        <time>2025-02-20T11:38:33Z</time>
      </trkpt>
      <trkpt lat="45.62192" lon="6.52859">
        <ele>1902.2</ele>
        <time>2025-02-20T11:38:34Z</time>
      </trkpt>
      <trkpt lat="45.62192" lon="6.52859">
        <ele>1902.2</ele>
        <time>2025-02-20T11:38:35Z</time>
      </trkpt>
      <trkpt lat="45.62192" lon="6.52859">
        <ele>1903.2</ele>
        <time>2025-02-20T11:38:36Z</time>
      </trkpt>
      <trkpt lat="45.62192" lon="6.52859">
        <ele>1903.2</ele>
        <time>2025-02-20T11:38:37Z</time>
      </trkpt>
      <trkpt lat="45.62192" lon="6.52859">
        <ele>1903.2</ele>
        <time>2025-02-20T11:38:38Z</time>
      </trkpt>
      <trkpt lat="45.62192" lon="6.52859">
        <ele>1903.2</ele>
        <time>2025-02-20T11:38:39Z</time>
      </trkpt>
      <trkpt lat="45.62192" lon="6.52859">
        <ele>1903.2</ele>
        <time>2025-02-20T11:38:40Z</time>
      </trkpt>
      <trkpt lat="45.62192" lon="6.52859">
        <ele>1903.4</ele>
        <time>2025-02-20T11:38:41Z</time>
      </trkpt>
      <trkpt lat="45.62192" lon="6.52859">
        <ele>1903.4</ele>
        <time>2025-02-20T11:38:42Z</time>
      </trkpt>
      <trkpt lat="45.62192" lon="6.52859">
        <ele>1903.4</ele>
        <time>2025-02-20T11:38:43Z</time>
      </trkpt>
      <trkpt lat="45.62192" lon="6.52859">
        <ele>1903.8</ele>
        <time>2025-02-20T11:38:44Z</time>
      </trkpt>
      <trkpt lat="45.62192" lon="6.52859">
        <ele>1903.6</ele>
        <time>2025-02-20T11:38:45Z</time>
      </trkpt>
      <trkpt lat="45.62192" lon="6.52859">
        <ele>1903.6</ele>
        <time>2025-02-20T11:38:46Z</time>
      </trkpt>
      <trkpt lat="45.62192" lon="6.52859">
        <ele>1903.6</ele>
        <time>2025-02-20T11:38:47Z</time>
      </trkpt>
      <trkpt lat="45.62192" lon="6.52859">
        <ele>1903.6</ele>
        <time>2025-02-20T11:38:48Z</time>
      </trkpt>
      <trkpt lat="45.62192" lon="6.52859">
        <ele>1903.2</ele>
        <time>2025-02-20T11:38:49Z</time>
      </trkpt>
      <trkpt lat="45.62192" lon="6.52859">
        <ele>1903.2</ele>
        <time>2025-02-20T11:38:50Z</time>
      </trkpt>
      <trkpt lat="45.62192" lon="6.52859">
        <ele>1903.2</ele>
        <time>2025-02-20T11:38:51Z</time>
      </trkpt>
      <trkpt lat="45.62192" lon="6.52859">
        <ele>1903.4</ele>
        <time>2025-02-20T11:38:52Z</time>
      </trkpt>
      <trkpt lat="45.62192" lon="6.52859">
        <ele>1903.4</ele>
        <time>2025-02-20T11:38:53Z</time>
      </trkpt>
      <trkpt lat="45.62192" lon="6.52859">
        <ele>1903.4</ele>
        <time>2025-02-20T11:38:54Z</time>
      </trkpt>
      <trkpt lat="45.62192" lon="6.52859">
        <ele>1903.4</ele>
        <time>2025-02-20T11:38:55Z</time>
      </trkpt>
      <trkpt lat="45.62192" lon="6.52859">
        <ele>1903.4</ele>
        <time>2025-02-20T11:38:56Z</time>
      </trkpt>
      <trkpt lat="45.62192" lon="6.52859">
        <ele>1903.4</ele>
        <time>2025-02-20T11:38:57Z</time>
      </trkpt>
      <trkpt lat="45.62192" lon="6.52859">
        <ele>1903.4</ele>
        <time>2025-02-20T11:38:58Z</time>
      </trkpt>
      <trkpt lat="45.62192" lon="6.52859">
        <ele>1903.4</ele>
        <time>2025-02-20T11:38:59Z</time>
      </trkpt>
      <trkpt lat="45.62192" lon="6.52859">
        <ele>1903.4</ele>
        <time>2025-02-20T11:39:00Z</time>
      </trkpt>
      <trkpt lat="45.62192" lon="6.52859">
        <ele>1902.8</ele>
        <time>2025-02-20T11:39:01Z</time>
      </trkpt>
      <trkpt lat="45.62192" lon="6.52859">
        <ele>1902.8</ele>
        <time>2025-02-20T11:39:02Z</time>
      </trkpt>
      <trkpt lat="45.62192" lon="6.52859">
        <ele>1902.8</ele>
        <time>2025-02-20T11:39:03Z</time>
      </trkpt>
      <trkpt lat="45.62192" lon="6.52859">
        <ele>1903.2</ele>
        <time>2025-02-20T11:39:04Z</time>
      </trkpt>
      <trkpt lat="45.62192" lon="6.52859">
        <ele>1902.8</ele>
        <time>2025-02-20T11:39:05Z</time>
      </trkpt>
      <trkpt lat="45.62192" lon="6.52859">
        <ele>1902.8</ele>
        <time>2025-02-20T11:39:06Z</time>
      </trkpt>
      <trkpt lat="45.62192" lon="6.52859">
        <ele>1902.8</ele>
        <time>2025-02-20T11:39:07Z</time>
      </trkpt>
      <trkpt lat="45.62192" lon="6.52859">
        <ele>1903.8</ele>
        <time>2025-02-20T11:39:08Z</time>
      </trkpt>
      <trkpt lat="45.62192" lon="6.52859">
        <ele>1903.8</ele>
        <time>2025-02-20T11:39:09Z</time>
      </trkpt>
      <trkpt lat="45.62192" lon="6.52859">
        <ele>1903.8</ele>
        <time>2025-02-20T11:39:10Z</time>
      </trkpt>
      <trkpt lat="45.62192" lon="6.52859">
        <ele>1903.8</ele>
        <time>2025-02-20T11:39:11Z</time>
      </trkpt>
      <trkpt lat="45.62192" lon="6.52859">
        <ele>1902.8</ele>
        <time>2025-02-20T11:39:12Z</time>
      </trkpt>
      <trkpt lat="45.62192" lon="6.52859">
        <ele>1898.8</ele>
        <time>2025-02-20T11:39:13Z</time>
      </trkpt>
      <trkpt lat="45.62192" lon="6.52859">
        <ele>1898.8</ele>
        <time>2025-02-20T11:39:14Z</time>
      </trkpt>
      <trkpt lat="45.62192" lon="6.52859">
        <ele>1898.8</ele>
        <time>2025-02-20T11:39:15Z</time>
      </trkpt>
      <trkpt lat="45.62192" lon="6.52859">
        <ele>1899.8</ele>
        <time>2025-02-20T11:39:16Z</time>
      </trkpt>
      <trkpt lat="45.62192" lon="6.52859">
        <ele>1903.2</ele>
        <time>2025-02-20T11:39:17Z</time>
      </trkpt>
      <trkpt lat="45.62192" lon="6.52859">
        <ele>1903.2</ele>
        <time>2025-02-20T11:39:18Z</time>
      </trkpt>
      <trkpt lat="45.62192" lon="6.52859">
        <ele>1903.2</ele>
        <time>2025-02-20T11:39:19Z</time>
      </trkpt>
      <trkpt lat="45.62192" lon="6.52859">
        <ele>1903.6</ele>
        <time>2025-02-20T11:39:20Z</time>
      </trkpt>
      <trkpt lat="45.62192" lon="6.52859">
        <ele>1903.6</ele>
        <time>2025-02-20T11:39:21Z</time>
      </trkpt>
      <trkpt lat="45.62192" lon="6.52859">
        <ele>1903.6</ele>
        <time>2025-02-20T11:39:22Z</time>
      </trkpt>
      <trkpt lat="45.62192" lon="6.52859">
        <ele>1903.6</ele>
        <time>2025-02-20T11:39:23Z</time>
      </trkpt>
      <trkpt lat="45.62192" lon="6.52859">
        <ele>1903.6</ele>
        <time>2025-02-20T11:39:24Z</time>
      </trkpt>
      <trkpt lat="45.62192" lon="6.52859">
        <ele>1904</ele>
        <time>2025-02-20T11:39:25Z</time>
      </trkpt>
      <trkpt lat="45.62192" lon="6.52859">
        <ele>1904</ele>
        <time>2025-02-20T11:39:26Z</time>
      </trkpt>
      <trkpt lat="45.62192" lon="6.52859">
        <ele>1904</ele>
        <time>2025-02-20T11:39:27Z</time>
      </trkpt>
      <trkpt lat="45.62192" lon="6.52859">
        <ele>1904</ele>
        <time>2025-02-20T11:39:28Z</time>
      </trkpt>
      <trkpt lat="45.62192" lon="6.52859">
        <ele>1903</ele>
        <time>2025-02-20T11:39:29Z</time>
      </trkpt>
      <trkpt lat="45.62192" lon="6.52859">
        <ele>1903</ele>
        <time>2025-02-20T11:39:30Z</time>
      </trkpt>
      <trkpt lat="45.62192" lon="6.52859">
        <ele>1903</ele>
        <time>2025-02-20T11:39:31Z</time>
      </trkpt>
      <trkpt lat="45.62192" lon="6.52859">
        <ele>1903.2</ele>
        <time>2025-02-20T11:39:32Z</time>
      </trkpt>
      <trkpt lat="45.62192" lon="6.52859">
        <ele>1903.6</ele>
        <time>2025-02-20T11:39:33Z</time>
      </trkpt>
      <trkpt lat="45.62192" lon="6.52859">
        <ele>1903.6</ele>
        <time>2025-02-20T11:39:34Z</time>
      </trkpt>
      <trkpt lat="45.62192" lon="6.52859">
        <ele>1903.6</ele>
        <time>2025-02-20T11:39:35Z</time>
      </trkpt>
      <trkpt lat="45.62192" lon="6.52859">
        <ele>1903.6</ele>
        <time>2025-02-20T11:39:36Z</time>
      </trkpt>
      <trkpt lat="45.62192" lon="6.52859">
        <ele>1903.6</ele>
        <time>2025-02-20T11:39:37Z</time>
      </trkpt>
      <trkpt lat="45.62192" lon="6.52859">
        <ele>1903.6</ele>
        <time>2025-02-20T11:39:38Z</time>
      </trkpt>
      <trkpt lat="45.62192" lon="6.52859">
        <ele>1903.6</ele>
        <time>2025-02-20T11:39:39Z</time>
      </trkpt>
      <trkpt lat="45.62192" lon="6.52859">
        <ele>1903.6</ele>
        <time>2025-02-20T11:39:40Z</time>
      </trkpt>
      <trkpt lat="45.62192" lon="6.52859">
        <ele>1903.4</ele>
        <time>2025-02-20T11:39:41Z</time>
      </trkpt>
      <trkpt lat="45.62192" lon="6.52859">
        <ele>1903.4</ele>
        <time>2025-02-20T11:39:42Z</time>
      </trkpt>
      <trkpt lat="45.62192" lon="6.52859">
        <ele>1903.4</ele>
        <time>2025-02-20T11:39:43Z</time>
      </trkpt>
      <trkpt lat="45.62192" lon="6.52859">
        <ele>1903.4</ele>
        <time>2025-02-20T11:39:44Z</time>
      </trkpt>
      <trkpt lat="45.62192" lon="6.52859">
        <ele>1903.8</ele>
        <time>2025-02-20T11:39:45Z</time>
      </trkpt>
      <trkpt lat="45.62192" lon="6.52859">
        <ele>1903.8</ele>
        <time>2025-02-20T11:39:46Z</time>
      </trkpt>
      <trkpt lat="45.62192" lon="6.52859">
        <ele>1903.8</ele>
        <time>2025-02-20T11:39:47Z</time>
      </trkpt>
      <trkpt lat="45.62192" lon="6.52859">
        <ele>1903.8</ele>
        <time>2025-02-20T11:39:48Z</time>
      </trkpt>
      <trkpt lat="45.62192" lon="6.52859">
        <ele>1903</ele>
        <time>2025-02-20T11:39:49Z</time>
      </trkpt>
      <trkpt lat="45.62192" lon="6.52859">
        <ele>1903</ele>
        <time>2025-02-20T11:39:50Z</time>
      </trkpt>
      <trkpt lat="45.62192" lon="6.52859">
        <ele>1903</ele>
        <time>2025-02-20T11:39:51Z</time>
      </trkpt>
      <trkpt lat="45.62192" lon="6.52859">
        <ele>1903</ele>
        <time>2025-02-20T11:39:52Z</time>
      </trkpt>
      <trkpt lat="45.62192" lon="6.52859">
        <ele>1903.8</ele>
        <time>2025-02-20T11:39:53Z</time>
      </trkpt>
      <trkpt lat="45.62192" lon="6.52859">
        <ele>1903.8</ele>
        <time>2025-02-20T11:39:54Z</time>
      </trkpt>
      <trkpt lat="45.62192" lon="6.52859">
        <ele>1903.8</ele>
        <time>2025-02-20T11:39:55Z</time>
      </trkpt>
      <trkpt lat="45.62192" lon="6.52859">
        <ele>1903.8</ele>
        <time>2025-02-20T11:39:56Z</time>
      </trkpt>
      <trkpt lat="45.62192" lon="6.52859">
        <ele>1903.6</ele>
        <time>2025-02-20T11:39:57Z</time>
      </trkpt>
      <trkpt lat="45.62192" lon="6.52859">
        <ele>1903.6</ele>
        <time>2025-02-20T11:39:58Z</time>
      </trkpt>
      <trkpt lat="45.62192" lon="6.52859">
        <ele>1903.6</ele>
        <time>2025-02-20T11:39:59Z</time>
      </trkpt>
      <trkpt lat="45.62192" lon="6.52859">
        <ele>1903.6</ele>
        <time>2025-02-20T11:40:00Z</time>
      </trkpt>
      <trkpt lat="45.62192" lon="6.52859">
        <ele>1903.6</ele>
        <time>2025-02-20T11:40:01Z</time>
      </trkpt>
      <trkpt lat="45.62192" lon="6.52859">
        <ele>1903.6</ele>
        <time>2025-02-20T11:40:02Z</time>
      </trkpt>
      <trkpt lat="45.62192" lon="6.52859">
        <ele>1903.6</ele>
        <time>2025-02-20T11:40:03Z</time>
      </trkpt>
      <trkpt lat="45.62192" lon="6.52859">
        <ele>1903.6</ele>
        <time>2025-02-20T11:40:04Z</time>
      </trkpt>
      <trkpt lat="45.62192" lon="6.52859">
        <ele>1904.4</ele>
        <time>2025-02-20T11:40:05Z</time>
      </trkpt>
      <trkpt lat="45.62192" lon="6.52859">
        <ele>1904.4</ele>
        <time>2025-02-20T11:40:06Z</time>
      </trkpt>
      <trkpt lat="45.62192" lon="6.52859">
        <ele>1904.4</ele>
        <time>2025-02-20T11:40:07Z</time>
      </trkpt>
      <trkpt lat="45.62192" lon="6.52859">
        <ele>1904</ele>
        <time>2025-02-20T11:40:08Z</time>
      </trkpt>
      <trkpt lat="45.62192" lon="6.52859">
        <ele>1903.6</ele>
        <time>2025-02-20T11:40:09Z</time>
      </trkpt>
      <trkpt lat="45.62192" lon="6.52859">
        <ele>1903.6</ele>
        <time>2025-02-20T11:40:10Z</time>
      </trkpt>
      <trkpt lat="45.62192" lon="6.52859">
        <ele>1903.6</ele>
        <time>2025-02-20T11:40:11Z</time>
      </trkpt>
      <trkpt lat="45.62192" lon="6.52859">
        <ele>1903.6</ele>
        <time>2025-02-20T11:40:12Z</time>
      </trkpt>
      <trkpt lat="45.62192" lon="6.52859">
        <ele>1903.6</ele>
        <time>2025-02-20T11:40:13Z</time>
      </trkpt>
      <trkpt lat="45.62192" lon="6.52859">
        <ele>1903.6</ele>
        <time>2025-02-20T11:40:14Z</time>
      </trkpt>
      <trkpt lat="45.62192" lon="6.52859">
        <ele>1903.6</ele>
        <time>2025-02-20T11:40:15Z</time>
      </trkpt>
      <trkpt lat="45.62192" lon="6.52859">
        <ele>1903.6</ele>
        <time>2025-02-20T11:40:16Z</time>
      </trkpt>
      <trkpt lat="45.62192" lon="6.52859">
        <ele>1904.2</ele>
        <time>2025-02-20T11:40:17Z</time>
      </trkpt>
      <trkpt lat="45.62192" lon="6.52859">
        <ele>1904.2</ele>
        <time>2025-02-20T11:40:18Z</time>
      </trkpt>
      <trkpt lat="45.62192" lon="6.52859">
        <ele>1904.2</ele>
        <time>2025-02-20T11:40:19Z</time>
      </trkpt>
      <trkpt lat="45.62192" lon="6.52859">
        <ele>1904.2</ele>
        <time>2025-02-20T11:40:20Z</time>
      </trkpt>
      <trkpt lat="45.62192" lon="6.52859">
        <ele>1903.8</ele>
        <time>2025-02-20T11:40:21Z</time>
      </trkpt>
      <trkpt lat="45.62192" lon="6.52859">
        <ele>1903.8</ele>
        <time>2025-02-20T11:40:22Z</time>
      </trkpt>
      <trkpt lat="45.62192" lon="6.52859">
        <ele>1903.8</ele>
        <time>2025-02-20T11:40:23Z</time>
      </trkpt>
      <trkpt lat="45.62192" lon="6.52859">
        <ele>1904</ele>
        <time>2025-02-20T11:40:24Z</time>
      </trkpt>
      <trkpt lat="45.62192" lon="6.52859">
        <ele>1903.6</ele>
        <time>2025-02-20T11:40:25Z</time>
      </trkpt>
      <trkpt lat="45.62192" lon="6.52859">
        <ele>1903.6</ele>
        <time>2025-02-20T11:40:26Z</time>
      </trkpt>
      <trkpt lat="45.62192" lon="6.52859">
        <ele>1903.6</ele>
        <time>2025-02-20T11:40:27Z</time>
      </trkpt>
      <trkpt lat="45.62192" lon="6.52859">
        <ele>1903.8</ele>
        <time>2025-02-20T11:40:28Z</time>
      </trkpt>
      <trkpt lat="45.62192" lon="6.52859">
        <ele>1903.4</ele>
        <time>2025-02-20T11:40:29Z</time>
      </trkpt>
      <trkpt lat="45.62192" lon="6.52859">
        <ele>1903.4</ele>
        <time>2025-02-20T11:40:30Z</time>
      </trkpt>
      <trkpt lat="45.62192" lon="6.52859">
        <ele>1903.4</ele>
        <time>2025-02-20T11:40:31Z</time>
      </trkpt>
      <trkpt lat="45.62192" lon="6.52859">
        <ele>1903.6</ele>
        <time>2025-02-20T11:40:32Z</time>
      </trkpt>
      <trkpt lat="45.62192" lon="6.52859">
        <ele>1904.4</ele>
        <time>2025-02-20T11:40:33Z</time>
      </trkpt>
      <trkpt lat="45.62192" lon="6.52859">
        <ele>1904.4</ele>
        <time>2025-02-20T11:40:34Z</time>
      </trkpt>
      <trkpt lat="45.62192" lon="6.52859">
        <ele>1904.4</ele>
        <time>2025-02-20T11:40:35Z</time>
      </trkpt>
      <trkpt lat="45.62192" lon="6.52859">
        <ele>1903.8</ele>
        <time>2025-02-20T11:40:36Z</time>
      </trkpt>
      <trkpt lat="45.62192" lon="6.52859">
        <ele>1903.6</ele>
        <time>2025-02-20T11:40:37Z</time>
      </trkpt>
      <trkpt lat="45.62192" lon="6.52859">
        <ele>1903.6</ele>
        <time>2025-02-20T11:40:38Z</time>
      </trkpt>
      <trkpt lat="45.62192" lon="6.52859">
        <ele>1903.6</ele>
        <time>2025-02-20T11:40:39Z</time>
      </trkpt>
      <trkpt lat="45.62192" lon="6.52859">
        <ele>1903.6</ele>
        <time>2025-02-20T11:40:40Z</time>
      </trkpt>
      <trkpt lat="45.62192" lon="6.52859">
        <ele>1904</ele>
        <time>2025-02-20T11:40:41Z</time>
      </trkpt>
      <trkpt lat="45.62192" lon="6.52859">
        <ele>1904</ele>
        <time>2025-02-20T11:40:42Z</time>
      </trkpt>
      <trkpt lat="45.62192" lon="6.52859">
        <ele>1904</ele>
        <time>2025-02-20T11:40:43Z</time>
      </trkpt>
      <trkpt lat="45.62192" lon="6.52859">
        <ele>1904</ele>
        <time>2025-02-20T11:40:44Z</time>
      </trkpt>
      <trkpt lat="45.62192" lon="6.52859">
        <ele>1903.2</ele>
        <time>2025-02-20T11:40:45Z</time>
      </trkpt>
      <trkpt lat="45.62192" lon="6.52859">
        <ele>1903.2</ele>
        <time>2025-02-20T11:40:46Z</time>
      </trkpt>
      <trkpt lat="45.62192" lon="6.52859">
        <ele>1903.2</ele>
        <time>2025-02-20T11:40:47Z</time>
      </trkpt>
      <trkpt lat="45.62192" lon="6.52859">
        <ele>1903.8</ele>
        <time>2025-02-20T11:40:48Z</time>
      </trkpt>
      <trkpt lat="45.62192" lon="6.52859">
        <ele>1902.6</ele>
        <time>2025-02-20T11:40:49Z</time>
      </trkpt>
      <trkpt lat="45.62192" lon="6.52859">
        <ele>1902.6</ele>
        <time>2025-02-20T11:40:50Z</time>
      </trkpt>
      <trkpt lat="45.62192" lon="6.52859">
        <ele>1902.6</ele>
        <time>2025-02-20T11:40:51Z</time>
      </trkpt>
      <trkpt lat="45.62192" lon="6.52859">
        <ele>1903.2</ele>
        <time>2025-02-20T11:40:52Z</time>
      </trkpt>
      <trkpt lat="45.62192" lon="6.52859">
        <ele>1904.2</ele>
        <time>2025-02-20T11:40:53Z</time>
      </trkpt>
      <trkpt lat="45.62192" lon="6.52859">
        <ele>1904.2</ele>
        <time>2025-02-20T11:40:54Z</time>
      </trkpt>
      <trkpt lat="45.62192" lon="6.52859">
        <ele>1904.2</ele>
        <time>2025-02-20T11:40:55Z</time>
      </trkpt>
      <trkpt lat="45.62192" lon="6.52859">
        <ele>1904.2</ele>
        <time>2025-02-20T11:40:56Z</time>
      </trkpt>
      <trkpt lat="45.62192" lon="6.52859">
        <ele>1903.6</ele>
        <time>2025-02-20T11:40:57Z</time>
      </trkpt>
      <trkpt lat="45.62192" lon="6.52859">
        <ele>1903.6</ele>
        <time>2025-02-20T11:40:58Z</time>
      </trkpt>
      <trkpt lat="45.62192" lon="6.52859">
        <ele>1903.6</ele>
        <time>2025-02-20T11:40:59Z</time>
      </trkpt>
      <trkpt lat="45.62192" lon="6.52859">
        <ele>1903</ele>
        <time>2025-02-20T11:41:00Z</time>
      </trkpt>
      <trkpt lat="45.62192" lon="6.52859">
        <ele>1902.8</ele>
        <time>2025-02-20T11:41:01Z</time>
      </trkpt>
      <trkpt lat="45.62192" lon="6.52859">
        <ele>1902.8</ele>
        <time>2025-02-20T11:41:02Z</time>
      </trkpt>
      <trkpt lat="45.62192" lon="6.52859">
        <ele>1902.8</ele>
        <time>2025-02-20T11:41:03Z</time>
      </trkpt>
      <trkpt lat="45.62192" lon="6.52859">
        <ele>1903.2</ele>
        <time>2025-02-20T11:41:04Z</time>
      </trkpt>
      <trkpt lat="45.62192" lon="6.52859">
        <ele>1903.4</ele>
        <time>2025-02-20T11:41:05Z</time>
      </trkpt>
      <trkpt lat="45.62192" lon="6.52859">
        <ele>1903.4</ele>
        <time>2025-02-20T11:41:06Z</time>
      </trkpt>
      <trkpt lat="45.62192" lon="6.52859">
        <ele>1903.4</ele>
        <time>2025-02-20T11:41:07Z</time>
      </trkpt>
      <trkpt lat="45.62192" lon="6.52859">
        <ele>1903.4</ele>
        <time>2025-02-20T11:41:08Z</time>
      </trkpt>
      <trkpt lat="45.62192" lon="6.52859">
        <ele>1903.2</ele>
        <time>2025-02-20T11:41:09Z</time>
      </trkpt>
      <trkpt lat="45.62192" lon="6.52859">
        <ele>1903.2</ele>
        <time>2025-02-20T11:41:10Z</time>
      </trkpt>
      <trkpt lat="45.62192" lon="6.52859">
        <ele>1903.2</ele>
        <time>2025-02-20T11:41:11Z</time>
      </trkpt>
      <trkpt lat="45.62192" lon="6.52859">
        <ele>1903.2</ele>
        <time>2025-02-20T11:41:12Z</time>
      </trkpt>
      <trkpt lat="45.62192" lon="6.52859">
        <ele>1904</ele>
        <time>2025-02-20T11:41:13Z</time>
      </trkpt>
      <trkpt lat="45.62192" lon="6.52859">
        <ele>1904</ele>
        <time>2025-02-20T11:41:14Z</time>
      </trkpt>
      <trkpt lat="45.62192" lon="6.52859">
        <ele>1904</ele>
        <time>2025-02-20T11:41:15Z</time>
      </trkpt>
      <trkpt lat="45.62192" lon="6.52859">
        <ele>1904</ele>
        <time>2025-02-20T11:41:16Z</time>
      </trkpt>
      <trkpt lat="45.62192" lon="6.52859">
        <ele>1903.6</ele>
        <time>2025-02-20T11:41:17Z</time>
      </trkpt>
      <trkpt lat="45.62192" lon="6.52859">
        <ele>1903.6</ele>
        <time>2025-02-20T11:41:18Z</time>
      </trkpt>
      <trkpt lat="45.62192" lon="6.52859">
        <ele>1903.6</ele>
        <time>2025-02-20T11:41:19Z</time>
      </trkpt>
      <trkpt lat="45.62192" lon="6.52859">
        <ele>1903.6</ele>
        <time>2025-02-20T11:41:20Z</time>
      </trkpt>
      <trkpt lat="45.62192" lon="6.52859">
        <ele>1903.4</ele>
        <time>2025-02-20T11:41:21Z</time>
      </trkpt>
      <trkpt lat="45.62192" lon="6.52859">
        <ele>1903.4</ele>
        <time>2025-02-20T11:41:22Z</time>
      </trkpt>
      <trkpt lat="45.62192" lon="6.52859">
        <ele>1903.4</ele>
        <time>2025-02-20T11:41:23Z</time>
      </trkpt>
      <trkpt lat="45.62192" lon="6.52859">
        <ele>1903.4</ele>
        <time>2025-02-20T11:41:24Z</time>
      </trkpt>
      <trkpt lat="45.62192" lon="6.52859">
        <ele>1904.2</ele>
        <time>2025-02-20T11:41:25Z</time>
      </trkpt>
      <trkpt lat="45.62192" lon="6.52859">
        <ele>1904.2</ele>
        <time>2025-02-20T11:41:26Z</time>
      </trkpt>
      <trkpt lat="45.62192" lon="6.52859">
        <ele>1904.2</ele>
        <time>2025-02-20T11:41:27Z</time>
      </trkpt>
      <trkpt lat="45.62192" lon="6.52859">
        <ele>1904.2</ele>
        <time>2025-02-20T11:41:28Z</time>
      </trkpt>
      <trkpt lat="45.62192" lon="6.52859">
        <ele>1902.8</ele>
        <time>2025-02-20T11:41:29Z</time>
      </trkpt>
      <trkpt lat="45.62192" lon="6.52859">
        <ele>1902.8</ele>
        <time>2025-02-20T11:41:30Z</time>
      </trkpt>
      <trkpt lat="45.62192" lon="6.52859">
        <ele>1902.8</ele>
        <time>2025-02-20T11:41:31Z</time>
      </trkpt>
      <trkpt lat="45.62192" lon="6.52859">
        <ele>1903.8</ele>
        <time>2025-02-20T11:41:32Z</time>
      </trkpt>
      <trkpt lat="45.62192" lon="6.52859">
        <ele>1903.8</ele>
        <time>2025-02-20T11:41:33Z</time>
      </trkpt>
      <trkpt lat="45.62192" lon="6.52859">
        <ele>1903.8</ele>
        <time>2025-02-20T11:41:34Z</time>
      </trkpt>
      <trkpt lat="45.62192" lon="6.52859">
        <ele>1903.8</ele>
        <time>2025-02-20T11:41:35Z</time>
      </trkpt>
      <trkpt lat="45.62192" lon="6.52859">
        <ele>1903.8</ele>
        <time>2025-02-20T11:41:36Z</time>
      </trkpt>
      <trkpt lat="45.62192" lon="6.52859">
        <ele>1903.6</ele>
        <time>2025-02-20T11:41:37Z</time>
      </trkpt>
      <trkpt lat="45.62192" lon="6.52859">
        <ele>1903.6</ele>
        <time>2025-02-20T11:41:38Z</time>
      </trkpt>
      <trkpt lat="45.62192" lon="6.52859">
        <ele>1903.6</ele>
        <time>2025-02-20T11:41:39Z</time>
      </trkpt>
      <trkpt lat="45.62192" lon="6.52859">
        <ele>1903.6</ele>
        <time>2025-02-20T11:41:40Z</time>
      </trkpt>
      <trkpt lat="45.62192" lon="6.52859">
        <ele>1903.4</ele>
        <time>2025-02-20T11:41:41Z</time>
      </trkpt>
      <trkpt lat="45.62192" lon="6.52859">
        <ele>1903.4</ele>
        <time>2025-02-20T11:41:42Z</time>
      </trkpt>
      <trkpt lat="45.62192" lon="6.52859">
        <ele>1903.4</ele>
        <time>2025-02-20T11:41:43Z</time>
      </trkpt>
      <trkpt lat="45.62192" lon="6.52859">
        <ele>1903.4</ele>
        <time>2025-02-20T11:41:44Z</time>
      </trkpt>
      <trkpt lat="45.62192" lon="6.52859">
        <ele>1903.4</ele>
        <time>2025-02-20T11:41:45Z</time>
      </trkpt>
      <trkpt lat="45.62192" lon="6.52859">
        <ele>1903.4</ele>
        <time>2025-02-20T11:41:46Z</time>
      </trkpt>
      <trkpt lat="45.62192" lon="6.52859">
        <ele>1903.4</ele>
        <time>2025-02-20T11:41:47Z</time>
      </trkpt>
      <trkpt lat="45.62192" lon="6.52859">
        <ele>1903.4</ele>
        <time>2025-02-20T11:41:48Z</time>
      </trkpt>
      <trkpt lat="45.62192" lon="6.52859">
        <ele>1903.6</ele>
        <time>2025-02-20T11:41:49Z</time>
      </trkpt>
      <trkpt lat="45.62192" lon="6.52859">
        <ele>1903.6</ele>
        <time>2025-02-20T11:41:50Z</time>
      </trkpt>
      <trkpt lat="45.62192" lon="6.52859">
        <ele>1903.6</ele>
        <time>2025-02-20T11:41:51Z</time>
      </trkpt>
      <trkpt lat="45.62192" lon="6.52859">
        <ele>1903.6</ele>
        <time>2025-02-20T11:41:52Z</time>
      </trkpt>
      <trkpt lat="45.62192" lon="6.52859">
        <ele>1903.8</ele>
        <time>2025-02-20T11:41:53Z</time>
      </trkpt>
      <trkpt lat="45.62192" lon="6.52859">
        <ele>1903.8</ele>
        <time>2025-02-20T11:41:54Z</time>
      </trkpt>
      <trkpt lat="45.62192" lon="6.52859">
        <ele>1903.8</ele>
        <time>2025-02-20T11:41:55Z</time>
      </trkpt>
      <trkpt lat="45.62192" lon="6.52859">
        <ele>1903.4</ele>
        <time>2025-02-20T11:41:56Z</time>
      </trkpt>
      <trkpt lat="45.62192" lon="6.52859">
        <ele>1903.4</ele>
        <time>2025-02-20T11:41:57Z</time>
      </trkpt>
      <trkpt lat="45.62192" lon="6.52859">
        <ele>1903.4</ele>
        <time>2025-02-20T11:41:58Z</time>
      </trkpt>
      <trkpt lat="45.62192" lon="6.52859">
        <ele>1903.4</ele>
        <time>2025-02-20T11:41:59Z</time>
      </trkpt>
      <trkpt lat="45.62192" lon="6.52859">
        <ele>1903.6</ele>
        <time>2025-02-20T11:42:00Z</time>
      </trkpt>
      <trkpt lat="45.62192" lon="6.52859">
        <ele>1903</ele>
        <time>2025-02-20T11:42:01Z</time>
      </trkpt>
      <trkpt lat="45.62192" lon="6.52859">
        <ele>1903</ele>
        <time>2025-02-20T11:42:02Z</time>
      </trkpt>
      <trkpt lat="45.62192" lon="6.52859">
        <ele>1903</ele>
        <time>2025-02-20T11:42:03Z</time>
      </trkpt>
      <trkpt lat="45.62192" lon="6.52859">
        <ele>1903</ele>
        <time>2025-02-20T11:42:04Z</time>
      </trkpt>
      <trkpt lat="45.62192" lon="6.52859">
        <ele>1903.6</ele>
        <time>2025-02-20T11:42:05Z</time>
      </trkpt>
      <trkpt lat="45.62192" lon="6.52859">
        <ele>1903.6</ele>
        <time>2025-02-20T11:42:06Z</time>
      </trkpt>
      <trkpt lat="45.62192" lon="6.52859">
        <ele>1903.6</ele>
        <time>2025-02-20T11:42:07Z</time>
      </trkpt>
      <trkpt lat="45.62192" lon="6.52859">
        <ele>1903.2</ele>
        <time>2025-02-20T11:42:08Z</time>
      </trkpt>
      <trkpt lat="45.62192" lon="6.52859">
        <ele>1903.6</ele>
        <time>2025-02-20T11:42:09Z</time>
      </trkpt>
      <trkpt lat="45.62192" lon="6.52859">
        <ele>1903.6</ele>
        <time>2025-02-20T11:42:10Z</time>
      </trkpt>
      <trkpt lat="45.62192" lon="6.52859">
        <ele>1903.6</ele>
        <time>2025-02-20T11:42:11Z</time>
      </trkpt>
      <trkpt lat="45.62192" lon="6.52859">
        <ele>1903.2</ele>
        <time>2025-02-20T11:42:12Z</time>
      </trkpt>
      <trkpt lat="45.62192" lon="6.52859">
        <ele>1903.2</ele>
        <time>2025-02-20T11:42:13Z</time>
      </trkpt>
      <trkpt lat="45.62192" lon="6.52859">
        <ele>1903.2</ele>
        <time>2025-02-20T11:42:14Z</time>
      </trkpt>
      <trkpt lat="45.62192" lon="6.52859">
        <ele>1903.2</ele>
        <time>2025-02-20T11:42:15Z</time>
      </trkpt>
      <trkpt lat="45.62192" lon="6.52859">
        <ele>1903.2</ele>
        <time>2025-02-20T11:42:16Z</time>
      </trkpt>
      <trkpt lat="45.62192" lon="6.52859">
        <ele>1903.6</ele>
        <time>2025-02-20T11:42:17Z</time>
      </trkpt>
      <trkpt lat="45.62192" lon="6.52859">
        <ele>1903.6</ele>
        <time>2025-02-20T11:42:18Z</time>
      </trkpt>
      <trkpt lat="45.62192" lon="6.52859">
        <ele>1903.6</ele>
        <time>2025-02-20T11:42:19Z</time>
      </trkpt>
      <trkpt lat="45.62192" lon="6.52859">
        <ele>1903.2</ele>
        <time>2025-02-20T11:42:20Z</time>
      </trkpt>
      <trkpt lat="45.62192" lon="6.52859">
        <ele>1903.2</ele>
        <time>2025-02-20T11:42:21Z</time>
      </trkpt>
      <trkpt lat="45.62192" lon="6.52859">
        <ele>1903.2</ele>
        <time>2025-02-20T11:42:22Z</time>
      </trkpt>
      <trkpt lat="45.62192" lon="6.52859">
        <ele>1903.2</ele>
        <time>2025-02-20T11:42:23Z</time>
      </trkpt>
      <trkpt lat="45.62192" lon="6.52859">
        <ele>1903.2</ele>
        <time>2025-02-20T11:42:24Z</time>
      </trkpt>
      <trkpt lat="45.62192" lon="6.52859">
        <ele>1903</ele>
        <time>2025-02-20T11:42:25Z</time>
      </trkpt>
      <trkpt lat="45.62192" lon="6.52859">
        <ele>1903</ele>
        <time>2025-02-20T11:42:26Z</time>
      </trkpt>
      <trkpt lat="45.62192" lon="6.52859">
        <ele>1903</ele>
        <time>2025-02-20T11:42:27Z</time>
      </trkpt>
      <trkpt lat="45.62192" lon="6.52859">
        <ele>1903</ele>
        <time>2025-02-20T11:42:28Z</time>
      </trkpt>
      <trkpt lat="45.62192" lon="6.52859">
        <ele>1903</ele>
        <time>2025-02-20T11:42:29Z</time>
      </trkpt>
      <trkpt lat="45.62192" lon="6.52859">
        <ele>1903</ele>
        <time>2025-02-20T11:42:30Z</time>
      </trkpt>
      <trkpt lat="45.62192" lon="6.52859">
        <ele>1903</ele>
        <time>2025-02-20T11:42:31Z</time>
      </trkpt>
      <trkpt lat="45.62192" lon="6.52859">
        <ele>1903</ele>
        <time>2025-02-20T11:42:32Z</time>
      </trkpt>
      <trkpt lat="45.62192" lon="6.52859">
        <ele>1903</ele>
        <time>2025-02-20T11:42:33Z</time>
      </trkpt>
      <trkpt lat="45.62192" lon="6.52859">
        <ele>1903</ele>
        <time>2025-02-20T11:42:34Z</time>
      </trkpt>
      <trkpt lat="45.62192" lon="6.52859">
        <ele>1903</ele>
        <time>2025-02-20T11:42:35Z</time>
      </trkpt>
      <trkpt lat="45.62192" lon="6.52859">
        <ele>1903</ele>
        <time>2025-02-20T11:42:36Z</time>
      </trkpt>
      <trkpt lat="45.62192" lon="6.52859">
        <ele>1902.8</ele>
        <time>2025-02-20T11:42:37Z</time>
      </trkpt>
      <trkpt lat="45.62192" lon="6.52859">
        <ele>1902.8</ele>
        <time>2025-02-20T11:42:38Z</time>
      </trkpt>
      <trkpt lat="45.62192" lon="6.52859">
        <ele>1902.8</ele>
        <time>2025-02-20T11:42:39Z</time>
      </trkpt>
      <trkpt lat="45.62192" lon="6.52859">
        <ele>1903</ele>
        <time>2025-02-20T11:42:40Z</time>
      </trkpt>
      <trkpt lat="45.62192" lon="6.52859">
        <ele>1902.8</ele>
        <time>2025-02-20T11:42:41Z</time>
      </trkpt>
      <trkpt lat="45.62192" lon="6.52859">
        <ele>1902.8</ele>
        <time>2025-02-20T11:42:42Z</time>
      </trkpt>
      <trkpt lat="45.62192" lon="6.52859">
        <ele>1902.8</ele>
        <time>2025-02-20T11:42:43Z</time>
      </trkpt>
      <trkpt lat="45.62192" lon="6.52859">
        <ele>1903.6</ele>
        <time>2025-02-20T11:42:44Z</time>
      </trkpt>
      <trkpt lat="45.62192" lon="6.52859">
        <ele>1903.2</ele>
        <time>2025-02-20T11:42:45Z</time>
      </trkpt>
      <trkpt lat="45.62192" lon="6.52859">
        <ele>1903.2</ele>
        <time>2025-02-20T11:42:46Z</time>
      </trkpt>
      <trkpt lat="45.62192" lon="6.52859">
        <ele>1903.2</ele>
        <time>2025-02-20T11:42:47Z</time>
      </trkpt>
      <trkpt lat="45.62192" lon="6.52859">
        <ele>1903.6</ele>
        <time>2025-02-20T11:42:48Z</time>
      </trkpt>
      <trkpt lat="45.62192" lon="6.52859">
        <ele>1903</ele>
        <time>2025-02-20T11:42:49Z</time>
      </trkpt>
      <trkpt lat="45.62192" lon="6.52859">
        <ele>1903</ele>
        <time>2025-02-20T11:42:50Z</time>
      </trkpt>
      <trkpt lat="45.62192" lon="6.52859">
        <ele>1903</ele>
        <time>2025-02-20T11:42:51Z</time>
      </trkpt>
      <trkpt lat="45.62192" lon="6.52859">
        <ele>1903</ele>
        <time>2025-02-20T11:42:52Z</time>
      </trkpt>
      <trkpt lat="45.62192" lon="6.52859">
        <ele>1903.4</ele>
        <time>2025-02-20T11:42:53Z</time>
      </trkpt>
      <trkpt lat="45.62192" lon="6.52859">
        <ele>1903.4</ele>
        <time>2025-02-20T11:42:54Z</time>
      </trkpt>
      <trkpt lat="45.62192" lon="6.52859">
        <ele>1903.4</ele>
        <time>2025-02-20T11:42:55Z</time>
      </trkpt>
      <trkpt lat="45.62192" lon="6.52859">
        <ele>1903.4</ele>
        <time>2025-02-20T11:42:56Z</time>
      </trkpt>
      <trkpt lat="45.62192" lon="6.52859">
        <ele>1903.4</ele>
        <time>2025-02-20T11:42:57Z</time>
      </trkpt>
      <trkpt lat="45.62192" lon="6.52859">
        <ele>1903.4</ele>
        <time>2025-02-20T11:42:58Z</time>
      </trkpt>
      <trkpt lat="45.62192" lon="6.52859">
        <ele>1903.4</ele>
        <time>2025-02-20T11:42:59Z</time>
      </trkpt>
      <trkpt lat="45.62192" lon="6.52859">
        <ele>1903.4</ele>
        <time>2025-02-20T11:43:00Z</time>
      </trkpt>
      <trkpt lat="45.62192" lon="6.52859">
        <ele>1903.6</ele>
        <time>2025-02-20T11:43:01Z</time>
      </trkpt>
      <trkpt lat="45.62192" lon="6.52859">
        <ele>1903.6</ele>
        <time>2025-02-20T11:43:02Z</time>
      </trkpt>
      <trkpt lat="45.62192" lon="6.52859">
        <ele>1903.6</ele>
        <time>2025-02-20T11:43:03Z</time>
      </trkpt>
      <trkpt lat="45.62192" lon="6.52859">
        <ele>1903.6</ele>
        <time>2025-02-20T11:43:04Z</time>
      </trkpt>
      <trkpt lat="45.62192" lon="6.52859">
        <ele>1903.2</ele>
        <time>2025-02-20T11:43:05Z</time>
      </trkpt>
      <trkpt lat="45.62192" lon="6.52859">
        <ele>1903.2</ele>
        <time>2025-02-20T11:43:06Z</time>
      </trkpt>
      <trkpt lat="45.62192" lon="6.52859">
        <ele>1903.2</ele>
        <time>2025-02-20T11:43:07Z</time>
      </trkpt>
      <trkpt lat="45.62192" lon="6.52859">
        <ele>1903.2</ele>
        <time>2025-02-20T11:43:08Z</time>
      </trkpt>
      <trkpt lat="45.62192" lon="6.52859">
        <ele>1903.2</ele>
        <time>2025-02-20T11:43:09Z</time>
      </trkpt>
      <trkpt lat="45.62192" lon="6.52859">
        <ele>1903.2</ele>
        <time>2025-02-20T11:43:10Z</time>
      </trkpt>
      <trkpt lat="45.62192" lon="6.52859">
        <ele>1903.2</ele>
        <time>2025-02-20T11:43:11Z</time>
      </trkpt>
      <trkpt lat="45.62192" lon="6.52859">
        <ele>1903.2</ele>
        <time>2025-02-20T11:43:12Z</time>
      </trkpt>
      <trkpt lat="45.62192" lon="6.52859">
        <ele>1903.4</ele>
        <time>2025-02-20T11:43:13Z</time>
      </trkpt>
      <trkpt lat="45.62192" lon="6.52859">
        <ele>1903.4</ele>
        <time>2025-02-20T11:43:14Z</time>
      </trkpt>
      <trkpt lat="45.62192" lon="6.52859">
        <ele>1903.4</ele>
        <time>2025-02-20T11:43:15Z</time>
      </trkpt>
      <trkpt lat="45.62192" lon="6.52859">
        <ele>1903.4</ele>
        <time>2025-02-20T11:43:16Z</time>
      </trkpt>
      <trkpt lat="45.62192" lon="6.52859">
        <ele>1903</ele>
        <time>2025-02-20T11:43:17Z</time>
      </trkpt>
      <trkpt lat="45.62192" lon="6.52859">
        <ele>1903</ele>
        <time>2025-02-20T11:43:18Z</time>
      </trkpt>
      <trkpt lat="45.62192" lon="6.52859">
        <ele>1903</ele>
        <time>2025-02-20T11:43:19Z</time>
      </trkpt>
      <trkpt lat="45.62192" lon="6.52859">
        <ele>1903</ele>
        <time>2025-02-20T11:43:20Z</time>
      </trkpt>
      <trkpt lat="45.62192" lon="6.52859">
        <ele>1903.6</ele>
        <time>2025-02-20T11:43:21Z</time>
      </trkpt>
      <trkpt lat="45.62192" lon="6.52859">
        <ele>1903.6</ele>
        <time>2025-02-20T11:43:22Z</time>
      </trkpt>
      <trkpt lat="45.62192" lon="6.52859">
        <ele>1903.6</ele>
        <time>2025-02-20T11:43:23Z</time>
      </trkpt>
      <trkpt lat="45.62192" lon="6.52859">
        <ele>1903.6</ele>
        <time>2025-02-20T11:43:24Z</time>
      </trkpt>
      <trkpt lat="45.62192" lon="6.52859">
        <ele>1903.6</ele>
        <time>2025-02-20T11:43:25Z</time>
      </trkpt>
      <trkpt lat="45.62192" lon="6.52859">
        <ele>1903.6</ele>
        <time>2025-02-20T11:43:26Z</time>
      </trkpt>
      <trkpt lat="45.62192" lon="6.52859">
        <ele>1903.6</ele>
        <time>2025-02-20T11:43:27Z</time>
      </trkpt>
      <trkpt lat="45.62192" lon="6.52859">
        <ele>1903.6</ele>
        <time>2025-02-20T11:43:28Z</time>
      </trkpt>
      <trkpt lat="45.62192" lon="6.52859">
        <ele>1903.8</ele>
        <time>2025-02-20T11:43:29Z</time>
      </trkpt>
      <trkpt lat="45.62192" lon="6.52859">
        <ele>1903.8</ele>
        <time>2025-02-20T11:43:30Z</time>
      </trkpt>
      <trkpt lat="45.62192" lon="6.52859">
        <ele>1903.8</ele>
        <time>2025-02-20T11:43:31Z</time>
      </trkpt>
      <trkpt lat="45.62192" lon="6.52859">
        <ele>1903</ele>
        <time>2025-02-20T11:43:32Z</time>
      </trkpt>
      <trkpt lat="45.62192" lon="6.52859">
        <ele>1903.2</ele>
        <time>2025-02-20T11:43:33Z</time>
      </trkpt>
      <trkpt lat="45.62192" lon="6.52859">
        <ele>1903.2</ele>
        <time>2025-02-20T11:43:34Z</time>
      </trkpt>
      <trkpt lat="45.62192" lon="6.52859">
        <ele>1903.2</ele>
        <time>2025-02-20T11:43:35Z</time>
      </trkpt>
      <trkpt lat="45.62192" lon="6.52859">
        <ele>1903.2</ele>
        <time>2025-02-20T11:43:36Z</time>
      </trkpt>
      <trkpt lat="45.62192" lon="6.52859">
        <ele>1903.6</ele>
        <time>2025-02-20T11:43:37Z</time>
      </trkpt>
      <trkpt lat="45.62192" lon="6.52859">
        <ele>1903.6</ele>
        <time>2025-02-20T11:43:38Z</time>
      </trkpt>
      <trkpt lat="45.62192" lon="6.52859">
        <ele>1903.6</ele>
        <time>2025-02-20T11:43:39Z</time>
      </trkpt>
      <trkpt lat="45.62192" lon="6.52859">
        <ele>1903.6</ele>
        <time>2025-02-20T11:43:40Z</time>
      </trkpt>
      <trkpt lat="45.62192" lon="6.52859">
        <ele>1903.6</ele>
        <time>2025-02-20T11:43:41Z</time>
      </trkpt>
      <trkpt lat="45.62192" lon="6.52859">
        <ele>1903.6</ele>
        <time>2025-02-20T11:43:42Z</time>
      </trkpt>
      <trkpt lat="45.62192" lon="6.52859">
        <ele>1903.6</ele>
        <time>2025-02-20T11:43:43Z</time>
      </trkpt>
      <trkpt lat="45.62192" lon="6.52859">
        <ele>1903.6</ele>
        <time>2025-02-20T11:43:44Z</time>
      </trkpt>
      <trkpt lat="45.62192" lon="6.52859">
        <ele>1903.4</ele>
        <time>2025-02-20T11:43:45Z</time>
      </trkpt>
      <trkpt lat="45.62192" lon="6.52859">
        <ele>1903.4</ele>
        <time>2025-02-20T11:43:46Z</time>
      </trkpt>
      <trkpt lat="45.62192" lon="6.52859">
        <ele>1903.4</ele>
        <time>2025-02-20T11:43:47Z</time>
      </trkpt>
      <trkpt lat="45.62192" lon="6.52859">
        <ele>1903.4</ele>
        <time>2025-02-20T11:43:48Z</time>
      </trkpt>
      <trkpt lat="45.62192" lon="6.52859">
        <ele>1903.4</ele>
        <time>2025-02-20T11:43:49Z</time>
      </trkpt>
      <trkpt lat="45.62192" lon="6.52859">
        <ele>1903.4</ele>
        <time>2025-02-20T11:43:50Z</time>
      </trkpt>
      <trkpt lat="45.62192" lon="6.52859">
        <ele>1903.4</ele>
        <time>2025-02-20T11:43:51Z</time>
      </trkpt>
      <trkpt lat="45.62192" lon="6.52859">
        <ele>1903.4</ele>
        <time>2025-02-20T11:43:52Z</time>
      </trkpt>
      <trkpt lat="45.62192" lon="6.52859">
        <ele>1903.6</ele>
        <time>2025-02-20T11:43:53Z</time>
      </trkpt>
      <trkpt lat="45.62192" lon="6.52859">
        <ele>1903.6</ele>
        <time>2025-02-20T11:43:54Z</time>
      </trkpt>
      <trkpt lat="45.62192" lon="6.52859">
        <ele>1903.6</ele>
        <time>2025-02-20T11:43:55Z</time>
      </trkpt>
      <trkpt lat="45.62192" lon="6.52859">
        <ele>1903.6</ele>
        <time>2025-02-20T11:43:56Z</time>
      </trkpt>
      <trkpt lat="45.62192" lon="6.52859">
        <ele>1903.4</ele>
        <time>2025-02-20T11:43:57Z</time>
      </trkpt>
      <trkpt lat="45.62192" lon="6.52859">
        <ele>1903.4</ele>
        <time>2025-02-20T11:43:58Z</time>
      </trkpt>
      <trkpt lat="45.62192" lon="6.52859">
        <ele>1903.4</ele>
        <time>2025-02-20T11:43:59Z</time>
      </trkpt>
      <trkpt lat="45.62192" lon="6.52859">
        <ele>1903.4</ele>
        <time>2025-02-20T11:44:00Z</time>
      </trkpt>
      <trkpt lat="45.62192" lon="6.52859">
        <ele>1903.6</ele>
        <time>2025-02-20T11:44:01Z</time>
      </trkpt>
      <trkpt lat="45.62192" lon="6.52859">
        <ele>1903.6</ele>
        <time>2025-02-20T11:44:02Z</time>
      </trkpt>
      <trkpt lat="45.62192" lon="6.52859">
        <ele>1903.6</ele>
        <time>2025-02-20T11:44:03Z</time>
      </trkpt>
      <trkpt lat="45.62192" lon="6.52859">
        <ele>1903.6</ele>
        <time>2025-02-20T11:44:04Z</time>
      </trkpt>
      <trkpt lat="45.62192" lon="6.52859">
        <ele>1903.2</ele>
        <time>2025-02-20T11:44:05Z</time>
      </trkpt>
      <trkpt lat="45.62192" lon="6.52859">
        <ele>1903.2</ele>
        <time>2025-02-20T11:44:06Z</time>
      </trkpt>
      <trkpt lat="45.62192" lon="6.52859">
        <ele>1903.2</ele>
        <time>2025-02-20T11:44:07Z</time>
      </trkpt>
      <trkpt lat="45.62192" lon="6.52859">
        <ele>1903.2</ele>
        <time>2025-02-20T11:44:08Z</time>
      </trkpt>
      <trkpt lat="45.62192" lon="6.52859">
        <ele>1903.8</ele>
        <time>2025-02-20T11:44:09Z</time>
      </trkpt>
      <trkpt lat="45.62192" lon="6.52859">
        <ele>1903.8</ele>
        <time>2025-02-20T11:44:10Z</time>
      </trkpt>
      <trkpt lat="45.62192" lon="6.52859">
        <ele>1903.8</ele>
        <time>2025-02-20T11:44:11Z</time>
      </trkpt>
      <trkpt lat="45.62192" lon="6.52859">
        <ele>1903.8</ele>
        <time>2025-02-20T11:44:12Z</time>
      </trkpt>
      <trkpt lat="45.62192" lon="6.52859">
        <ele>1904.2</ele>
        <time>2025-02-20T11:44:13Z</time>
      </trkpt>
      <trkpt lat="45.62192" lon="6.52859">
        <ele>1904.2</ele>
        <time>2025-02-20T11:44:14Z</time>
      </trkpt>
      <trkpt lat="45.62192" lon="6.52859">
        <ele>1904.2</ele>
        <time>2025-02-20T11:44:15Z</time>
      </trkpt>
      <trkpt lat="45.62192" lon="6.52859">
        <ele>1903.2</ele>
        <time>2025-02-20T11:44:16Z</time>
      </trkpt>
      <trkpt lat="45.62192" lon="6.52859">
        <ele>1903.2</ele>
        <time>2025-02-20T11:44:17Z</time>
      </trkpt>
      <trkpt lat="45.62192" lon="6.52859">
        <ele>1903.2</ele>
        <time>2025-02-20T11:44:18Z</time>
      </trkpt>
      <trkpt lat="45.62192" lon="6.52859">
        <ele>1903.2</ele>
        <time>2025-02-20T11:44:19Z</time>
      </trkpt>
      <trkpt lat="45.62192" lon="6.52859">
        <ele>1903.2</ele>
        <time>2025-02-20T11:44:20Z</time>
      </trkpt>
      <trkpt lat="45.62192" lon="6.52859">
        <ele>1903.4</ele>
        <time>2025-02-20T11:44:21Z</time>
      </trkpt>
      <trkpt lat="45.62192" lon="6.52859">
        <ele>1903.4</ele>
        <time>2025-02-20T11:44:22Z</time>
      </trkpt>
      <trkpt lat="45.62192" lon="6.52859">
        <ele>1903.4</ele>
        <time>2025-02-20T11:44:23Z</time>
      </trkpt>
      <trkpt lat="45.62192" lon="6.52859">
        <ele>1903.4</ele>
        <time>2025-02-20T11:44:24Z</time>
      </trkpt>
      <trkpt lat="45.62192" lon="6.52859">
        <ele>1903.2</ele>
        <time>2025-02-20T11:44:25Z</time>
      </trkpt>
      <trkpt lat="45.62192" lon="6.52859">
        <ele>1903.2</ele>
        <time>2025-02-20T11:44:26Z</time>
      </trkpt>
      <trkpt lat="45.62192" lon="6.52859">
        <ele>1903.2</ele>
        <time>2025-02-20T11:44:27Z</time>
      </trkpt>
      <trkpt lat="45.62192" lon="6.52859">
        <ele>1903.2</ele>
        <time>2025-02-20T11:44:28Z</time>
      </trkpt>
      <trkpt lat="45.62192" lon="6.52859">
        <ele>1903.2</ele>
        <time>2025-02-20T11:44:29Z</time>
      </trkpt>
      <trkpt lat="45.62192" lon="6.52859">
        <ele>1903.2</ele>
        <time>2025-02-20T11:44:30Z</time>
      </trkpt>
      <trkpt lat="45.62192" lon="6.52859">
        <ele>1903.2</ele>
        <time>2025-02-20T11:44:31Z</time>
      </trkpt>
      <trkpt lat="45.62192" lon="6.52859">
        <ele>1903.2</ele>
        <time>2025-02-20T11:44:32Z</time>
      </trkpt>
      <trkpt lat="45.62192" lon="6.52859">
        <ele>1903</ele>
        <time>2025-02-20T11:44:33Z</time>
      </trkpt>
      <trkpt lat="45.62192" lon="6.52859">
        <ele>1903</ele>
        <time>2025-02-20T11:44:34Z</time>
      </trkpt>
      <trkpt lat="45.62192" lon="6.52859">
        <ele>1903</ele>
        <time>2025-02-20T11:44:35Z</time>
      </trkpt>
      <trkpt lat="45.62192" lon="6.52859">
        <ele>1903</ele>
        <time>2025-02-20T11:44:36Z</time>
      </trkpt>
      <trkpt lat="45.62192" lon="6.52859">
        <ele>1903</ele>
        <time>2025-02-20T11:44:37Z</time>
      </trkpt>
      <trkpt lat="45.62192" lon="6.52859">
        <ele>1903</ele>
        <time>2025-02-20T11:44:38Z</time>
      </trkpt>
      <trkpt lat="45.62192" lon="6.52859">
        <ele>1903</ele>
        <time>2025-02-20T11:44:39Z</time>
      </trkpt>
      <trkpt lat="45.62192" lon="6.52859">
        <ele>1903</ele>
        <time>2025-02-20T11:44:40Z</time>
      </trkpt>
      <trkpt lat="45.62192" lon="6.52859">
        <ele>1902.8</ele>
        <time>2025-02-20T11:44:41Z</time>
      </trkpt>
      <trkpt lat="45.62192" lon="6.52859">
        <ele>1902.8</ele>
        <time>2025-02-20T11:44:42Z</time>
      </trkpt>
      <trkpt lat="45.62192" lon="6.52859">
        <ele>1902.8</ele>
        <time>2025-02-20T11:44:43Z</time>
      </trkpt>
      <trkpt lat="45.62192" lon="6.52859">
        <ele>1902.8</ele>
        <time>2025-02-20T11:44:44Z</time>
      </trkpt>
      <trkpt lat="45.62192" lon="6.52859">
        <ele>1902.8</ele>
        <time>2025-02-20T11:44:45Z</time>
      </trkpt>
      <trkpt lat="45.62192" lon="6.52859">
        <ele>1902.8</ele>
        <time>2025-02-20T11:44:46Z</time>
      </trkpt>
      <trkpt lat="45.62192" lon="6.52859">
        <ele>1902.8</ele>
        <time>2025-02-20T11:44:47Z</time>
      </trkpt>
      <trkpt lat="45.62192" lon="6.52859">
        <ele>1903.2</ele>
        <time>2025-02-20T11:44:48Z</time>
      </trkpt>
      <trkpt lat="45.62192" lon="6.52859">
        <ele>1902.6</ele>
        <time>2025-02-20T11:44:49Z</time>
      </trkpt>
      <trkpt lat="45.62192" lon="6.52859">
        <ele>1902.6</ele>
        <time>2025-02-20T11:44:50Z</time>
      </trkpt>
      <trkpt lat="45.62192" lon="6.52859">
        <ele>1902.6</ele>
        <time>2025-02-20T11:44:51Z</time>
      </trkpt>
      <trkpt lat="45.62192" lon="6.52859">
        <ele>1902.6</ele>
        <time>2025-02-20T11:44:52Z</time>
      </trkpt>
      <trkpt lat="45.62192" lon="6.52859">
        <ele>1903.2</ele>
        <time>2025-02-20T11:44:53Z</time>
      </trkpt>
      <trkpt lat="45.62192" lon="6.52859">
        <ele>1903.2</ele>
        <time>2025-02-20T11:44:54Z</time>
      </trkpt>
      <trkpt lat="45.62192" lon="6.52859">
        <ele>1903.2</ele>
        <time>2025-02-20T11:44:55Z</time>
      </trkpt>
      <trkpt lat="45.62192" lon="6.52859">
        <ele>1903.2</ele>
        <time>2025-02-20T11:44:56Z</time>
      </trkpt>
      <trkpt lat="45.62192" lon="6.52859">
        <ele>1903.4</ele>
        <time>2025-02-20T11:44:57Z</time>
      </trkpt>
      <trkpt lat="45.62192" lon="6.52859">
        <ele>1903.4</ele>
        <time>2025-02-20T11:44:58Z</time>
      </trkpt>
      <trkpt lat="45.62192" lon="6.52859">
        <ele>1903.4</ele>
        <time>2025-02-20T11:44:59Z</time>
      </trkpt>
      <trkpt lat="45.62192" lon="6.52859">
        <ele>1903.4</ele>
        <time>2025-02-20T11:45:00Z</time>
      </trkpt>
      <trkpt lat="45.62192" lon="6.52859">
        <ele>1902.4</ele>
        <time>2025-02-20T11:45:01Z</time>
      </trkpt>
      <trkpt lat="45.62192" lon="6.52859">
        <ele>1902.4</ele>
        <time>2025-02-20T11:45:02Z</time>
      </trkpt>
      <trkpt lat="45.62192" lon="6.52859">
        <ele>1902.4</ele>
        <time>2025-02-20T11:45:03Z</time>
      </trkpt>
      <trkpt lat="45.62192" lon="6.52859">
        <ele>1903.2</ele>
        <time>2025-02-20T11:45:04Z</time>
      </trkpt>
      <trkpt lat="45.62192" lon="6.52859">
        <ele>1903.4</ele>
        <time>2025-02-20T11:45:05Z</time>
      </trkpt>
      <trkpt lat="45.62192" lon="6.52859">
        <ele>1903.4</ele>
        <time>2025-02-20T11:45:06Z</time>
      </trkpt>
      <trkpt lat="45.62192" lon="6.52859">
        <ele>1903.4</ele>
        <time>2025-02-20T11:45:07Z</time>
      </trkpt>
      <trkpt lat="45.62192" lon="6.52859">
        <ele>1903.4</ele>
        <time>2025-02-20T11:45:08Z</time>
      </trkpt>
      <trkpt lat="45.62192" lon="6.52859">
        <ele>1903.4</ele>
        <time>2025-02-20T11:45:09Z</time>
      </trkpt>
      <trkpt lat="45.62192" lon="6.52859">
        <ele>1903.4</ele>
        <time>2025-02-20T11:45:10Z</time>
      </trkpt>
      <trkpt lat="45.62192" lon="6.52859">
        <ele>1903.4</ele>
        <time>2025-02-20T11:45:11Z</time>
      </trkpt>
      <trkpt lat="45.62192" lon="6.52859">
        <ele>1903.2</ele>
        <time>2025-02-20T11:45:12Z</time>
      </trkpt>
      <trkpt lat="45.62192" lon="6.52859">
        <ele>1903.8</ele>
        <time>2025-02-20T11:45:13Z</time>
      </trkpt>
      <trkpt lat="45.62192" lon="6.52859">
        <ele>1903.8</ele>
        <time>2025-02-20T11:45:14Z</time>
      </trkpt>
      <trkpt lat="45.62192" lon="6.52859">
        <ele>1903.8</ele>
        <time>2025-02-20T11:45:15Z</time>
      </trkpt>
      <trkpt lat="45.62192" lon="6.52859">
        <ele>1903.2</ele>
        <time>2025-02-20T11:45:16Z</time>
      </trkpt>
      <trkpt lat="45.62192" lon="6.52859">
        <ele>1903</ele>
        <time>2025-02-20T11:45:17Z</time>
      </trkpt>
      <trkpt lat="45.62192" lon="6.52859">
        <ele>1903</ele>
        <time>2025-02-20T11:45:18Z</time>
      </trkpt>
      <trkpt lat="45.62192" lon="6.52859">
        <ele>1903</ele>
        <time>2025-02-20T11:45:19Z</time>
      </trkpt>
      <trkpt lat="45.62192" lon="6.52859">
        <ele>1902.6</ele>
        <time>2025-02-20T11:45:20Z</time>
      </trkpt>
      <trkpt lat="45.62192" lon="6.52859">
        <ele>1903.2</ele>
        <time>2025-02-20T11:45:21Z</time>
      </trkpt>
      <trkpt lat="45.62192" lon="6.52859">
        <ele>1903.2</ele>
        <time>2025-02-20T11:45:22Z</time>
      </trkpt>
      <trkpt lat="45.62192" lon="6.52859">
        <ele>1903.2</ele>
        <time>2025-02-20T11:45:23Z</time>
      </trkpt>
      <trkpt lat="45.62192" lon="6.52859">
        <ele>1903.2</ele>
        <time>2025-02-20T11:45:24Z</time>
      </trkpt>
      <trkpt lat="45.62192" lon="6.52859">
        <ele>1902.8</ele>
        <time>2025-02-20T11:45:25Z</time>
      </trkpt>
      <trkpt lat="45.62192" lon="6.52859">
        <ele>1902.8</ele>
        <time>2025-02-20T11:45:26Z</time>
      </trkpt>
      <trkpt lat="45.62192" lon="6.52859">
        <ele>1902.8</ele>
        <time>2025-02-20T11:45:27Z</time>
      </trkpt>
      <trkpt lat="45.62192" lon="6.52859">
        <ele>1902.8</ele>
        <time>2025-02-20T11:45:28Z</time>
      </trkpt>
      <trkpt lat="45.62192" lon="6.52859">
        <ele>1903.4</ele>
        <time>2025-02-20T11:45:29Z</time>
      </trkpt>
      <trkpt lat="45.62192" lon="6.52859">
        <ele>1903.4</ele>
        <time>2025-02-20T11:45:30Z</time>
      </trkpt>
      <trkpt lat="45.62192" lon="6.52859">
        <ele>1903.4</ele>
        <time>2025-02-20T11:45:31Z</time>
      </trkpt>
      <trkpt lat="45.62192" lon="6.52859">
        <ele>1903.4</ele>
        <time>2025-02-20T11:45:32Z</time>
      </trkpt>
      <trkpt lat="45.62192" lon="6.52859">
        <ele>1903.6</ele>
        <time>2025-02-20T11:45:33Z</time>
      </trkpt>
      <trkpt lat="45.62192" lon="6.52859">
        <ele>1903.6</ele>
        <time>2025-02-20T11:45:34Z</time>
      </trkpt>
      <trkpt lat="45.62192" lon="6.52859">
        <ele>1903.6</ele>
        <time>2025-02-20T11:45:35Z</time>
      </trkpt>
      <trkpt lat="45.62192" lon="6.52859">
        <ele>1903.6</ele>
        <time>2025-02-20T11:45:36Z</time>
      </trkpt>
      <trkpt lat="45.62192" lon="6.52859">
        <ele>1903.6</ele>
        <time>2025-02-20T11:45:37Z</time>
      </trkpt>
      <trkpt lat="45.62192" lon="6.52859">
        <ele>1903.6</ele>
        <time>2025-02-20T11:45:38Z</time>
      </trkpt>
      <trkpt lat="45.62192" lon="6.52859">
        <ele>1903.6</ele>
        <time>2025-02-20T11:45:39Z</time>
      </trkpt>
      <trkpt lat="45.62192" lon="6.52859">
        <ele>1902.6</ele>
        <time>2025-02-20T11:45:40Z</time>
      </trkpt>
      <trkpt lat="45.62192" lon="6.52859">
        <ele>1903</ele>
        <time>2025-02-20T11:45:41Z</time>
      </trkpt>
      <trkpt lat="45.62192" lon="6.52859">
        <ele>1903</ele>
        <time>2025-02-20T11:45:42Z</time>
      </trkpt>
      <trkpt lat="45.62192" lon="6.52859">
        <ele>1903</ele>
        <time>2025-02-20T11:45:43Z</time>
      </trkpt>
      <trkpt lat="45.62192" lon="6.52859">
        <ele>1903</ele>
        <time>2025-02-20T11:45:44Z</time>
      </trkpt>
      <trkpt lat="45.62192" lon="6.52859">
        <ele>1903.2</ele>
        <time>2025-02-20T11:45:45Z</time>
      </trkpt>
      <trkpt lat="45.62192" lon="6.52859">
        <ele>1903.2</ele>
        <time>2025-02-20T11:45:46Z</time>
      </trkpt>
      <trkpt lat="45.62192" lon="6.52859">
        <ele>1903.2</ele>
        <time>2025-02-20T11:45:47Z</time>
      </trkpt>
      <trkpt lat="45.62192" lon="6.52859">
        <ele>1903.2</ele>
        <time>2025-02-20T11:45:48Z</time>
      </trkpt>
      <trkpt lat="45.62192" lon="6.52859">
        <ele>1902.8</ele>
        <time>2025-02-20T11:45:49Z</time>
      </trkpt>
      <trkpt lat="45.62192" lon="6.52859">
        <ele>1902.8</ele>
        <time>2025-02-20T11:45:50Z</time>
      </trkpt>
      <trkpt lat="45.62192" lon="6.52859">
        <ele>1902.8</ele>
        <time>2025-02-20T11:45:51Z</time>
      </trkpt>
      <trkpt lat="45.62192" lon="6.52859">
        <ele>1902.8</ele>
        <time>2025-02-20T11:45:52Z</time>
      </trkpt>
      <trkpt lat="45.62192" lon="6.52859">
        <ele>1903.8</ele>
        <time>2025-02-20T11:45:53Z</time>
      </trkpt>
      <trkpt lat="45.62192" lon="6.52859">
        <ele>1903.8</ele>
        <time>2025-02-20T11:45:54Z</time>
      </trkpt>
      <trkpt lat="45.62192" lon="6.52859">
        <ele>1903.8</ele>
        <time>2025-02-20T11:45:55Z</time>
      </trkpt>
      <trkpt lat="45.62192" lon="6.52859">
        <ele>1903</ele>
        <time>2025-02-20T11:45:56Z</time>
      </trkpt>
      <trkpt lat="45.62192" lon="6.52859">
        <ele>1903.2</ele>
        <time>2025-02-20T11:45:57Z</time>
      </trkpt>
      <trkpt lat="45.62192" lon="6.52859">
        <ele>1903.2</ele>
        <time>2025-02-20T11:45:58Z</time>
      </trkpt>
      <trkpt lat="45.62192" lon="6.52859">
        <ele>1903.2</ele>
        <time>2025-02-20T11:45:59Z</time>
      </trkpt>
      <trkpt lat="45.62192" lon="6.52859">
        <ele>1903.2</ele>
        <time>2025-02-20T11:46:00Z</time>
      </trkpt>
      <trkpt lat="45.62192" lon="6.52859">
        <ele>1903</ele>
        <time>2025-02-20T11:46:01Z</time>
      </trkpt>
      <trkpt lat="45.62192" lon="6.52859">
        <ele>1903</ele>
        <time>2025-02-20T11:46:02Z</time>
      </trkpt>
      <trkpt lat="45.62192" lon="6.52859">
        <ele>1903</ele>
        <time>2025-02-20T11:46:03Z</time>
      </trkpt>
      <trkpt lat="45.62192" lon="6.52859">
        <ele>1903</ele>
        <time>2025-02-20T11:46:04Z</time>
      </trkpt>
      <trkpt lat="45.62192" lon="6.52859">
        <ele>1902.8</ele>
        <time>2025-02-20T11:46:05Z</time>
      </trkpt>
      <trkpt lat="45.62192" lon="6.52859">
        <ele>1902.8</ele>
        <time>2025-02-20T11:46:06Z</time>
      </trkpt>
      <trkpt lat="45.62192" lon="6.52859">
        <ele>1902.8</ele>
        <time>2025-02-20T11:46:07Z</time>
      </trkpt>
      <trkpt lat="45.62192" lon="6.52859">
        <ele>1903.2</ele>
        <time>2025-02-20T11:46:08Z</time>
      </trkpt>
      <trkpt lat="45.62192" lon="6.52859">
        <ele>1903.2</ele>
        <time>2025-02-20T11:46:09Z</time>
      </trkpt>
      <trkpt lat="45.62192" lon="6.52859">
        <ele>1903.2</ele>
        <time>2025-02-20T11:46:10Z</time>
      </trkpt>
      <trkpt lat="45.62192" lon="6.52859">
        <ele>1903.2</ele>
        <time>2025-02-20T11:46:11Z</time>
      </trkpt>
      <trkpt lat="45.62192" lon="6.52859">
        <ele>1903.2</ele>
        <time>2025-02-20T11:46:12Z</time>
      </trkpt>
      <trkpt lat="45.62192" lon="6.52859">
        <ele>1903.6</ele>
        <time>2025-02-20T11:46:13Z</time>
      </trkpt>
      <trkpt lat="45.62192" lon="6.52859">
        <ele>1903.6</ele>
        <time>2025-02-20T11:46:14Z</time>
      </trkpt>
      <trkpt lat="45.62192" lon="6.52859">
        <ele>1903.6</ele>
        <time>2025-02-20T11:46:15Z</time>
      </trkpt>
      <trkpt lat="45.62192" lon="6.52859">
        <ele>1902.8</ele>
        <time>2025-02-20T11:46:16Z</time>
      </trkpt>
      <trkpt lat="45.62192" lon="6.52859">
        <ele>1902.6</ele>
        <time>2025-02-20T11:46:17Z</time>
      </trkpt>
      <trkpt lat="45.62192" lon="6.52859">
        <ele>1902.6</ele>
        <time>2025-02-20T11:46:18Z</time>
      </trkpt>
      <trkpt lat="45.62192" lon="6.52859">
        <ele>1902.6</ele>
        <time>2025-02-20T11:46:19Z</time>
      </trkpt>
      <trkpt lat="45.62192" lon="6.52859">
        <ele>1903.6</ele>
        <time>2025-02-20T11:46:20Z</time>
      </trkpt>
      <trkpt lat="45.62192" lon="6.52859">
        <ele>1903.4</ele>
        <time>2025-02-20T11:46:21Z</time>
      </trkpt>
      <trkpt lat="45.62192" lon="6.52859">
        <ele>1903.4</ele>
        <time>2025-02-20T11:46:22Z</time>
      </trkpt>
      <trkpt lat="45.62192" lon="6.52859">
        <ele>1903.4</ele>
        <time>2025-02-20T11:46:23Z</time>
      </trkpt>
      <trkpt lat="45.62192" lon="6.52859">
        <ele>1903</ele>
        <time>2025-02-20T11:46:24Z</time>
      </trkpt>
      <trkpt lat="45.62192" lon="6.52859">
        <ele>1902.6</ele>
        <time>2025-02-20T11:46:25Z</time>
      </trkpt>
      <trkpt lat="45.62192" lon="6.52859">
        <ele>1902.6</ele>
        <time>2025-02-20T11:46:26Z</time>
      </trkpt>
      <trkpt lat="45.62192" lon="6.52859">
        <ele>1902.6</ele>
        <time>2025-02-20T11:46:27Z</time>
      </trkpt>
      <trkpt lat="45.62192" lon="6.52859">
        <ele>1903.4</ele>
        <time>2025-02-20T11:46:28Z</time>
      </trkpt>
      <trkpt lat="45.62192" lon="6.52859">
        <ele>1903.6</ele>
        <time>2025-02-20T11:46:29Z</time>
      </trkpt>
      <trkpt lat="45.62192" lon="6.52859">
        <ele>1903.6</ele>
        <time>2025-02-20T11:46:30Z</time>
      </trkpt>
      <trkpt lat="45.62192" lon="6.52859">
        <ele>1903.6</ele>
        <time>2025-02-20T11:46:31Z</time>
      </trkpt>
      <trkpt lat="45.62192" lon="6.52859">
        <ele>1903.2</ele>
        <time>2025-02-20T11:46:32Z</time>
      </trkpt>
      <trkpt lat="45.62192" lon="6.52859">
        <ele>1903.2</ele>
        <time>2025-02-20T11:46:33Z</time>
      </trkpt>
      <trkpt lat="45.62192" lon="6.52859">
        <ele>1903.2</ele>
        <time>2025-02-20T11:46:34Z</time>
      </trkpt>
      <trkpt lat="45.62192" lon="6.52859">
        <ele>1903.2</ele>
        <time>2025-02-20T11:46:35Z</time>
      </trkpt>
      <trkpt lat="45.62192" lon="6.52859">
        <ele>1903.2</ele>
        <time>2025-02-20T11:46:36Z</time>
      </trkpt>
      <trkpt lat="45.62192" lon="6.52859">
        <ele>1903</ele>
        <time>2025-02-20T11:46:37Z</time>
      </trkpt>
      <trkpt lat="45.62192" lon="6.52859">
        <ele>1903</ele>
        <time>2025-02-20T11:46:38Z</time>
      </trkpt>
      <trkpt lat="45.62192" lon="6.52859">
        <ele>1903</ele>
        <time>2025-02-20T11:46:39Z</time>
      </trkpt>
      <trkpt lat="45.62192" lon="6.52859">
        <ele>1903</ele>
        <time>2025-02-20T11:46:40Z</time>
      </trkpt>
      <trkpt lat="45.62192" lon="6.52859">
        <ele>1903.2</ele>
        <time>2025-02-20T11:46:41Z</time>
      </trkpt>
      <trkpt lat="45.62192" lon="6.52859">
        <ele>1903.2</ele>
        <time>2025-02-20T11:46:42Z</time>
      </trkpt>
      <trkpt lat="45.62192" lon="6.52859">
        <ele>1903.2</ele>
        <time>2025-02-20T11:46:43Z</time>
      </trkpt>
      <trkpt lat="45.62192" lon="6.52859">
        <ele>1903.2</ele>
        <time>2025-02-20T11:46:44Z</time>
      </trkpt>
      <trkpt lat="45.62192" lon="6.52859">
        <ele>1903</ele>
        <time>2025-02-20T11:46:45Z</time>
      </trkpt>
      <trkpt lat="45.62192" lon="6.52859">
        <ele>1903</ele>
        <time>2025-02-20T11:46:46Z</time>
      </trkpt>
      <trkpt lat="45.62192" lon="6.52859">
        <ele>1903</ele>
        <time>2025-02-20T11:46:47Z</time>
      </trkpt>
      <trkpt lat="45.62192" lon="6.52859">
        <ele>1903.2</ele>
        <time>2025-02-20T11:46:48Z</time>
      </trkpt>
      <trkpt lat="45.62192" lon="6.52859">
        <ele>1903</ele>
        <time>2025-02-20T11:46:49Z</time>
      </trkpt>
      <trkpt lat="45.62192" lon="6.52859">
        <ele>1903</ele>
        <time>2025-02-20T11:46:50Z</time>
      </trkpt>
      <trkpt lat="45.62192" lon="6.52859">
        <ele>1903</ele>
        <time>2025-02-20T11:46:51Z</time>
      </trkpt>
      <trkpt lat="45.62192" lon="6.52859">
        <ele>1903</ele>
        <time>2025-02-20T11:46:52Z</time>
      </trkpt>
      <trkpt lat="45.62192" lon="6.52859">
        <ele>1903</ele>
        <time>2025-02-20T11:46:53Z</time>
      </trkpt>
      <trkpt lat="45.62192" lon="6.52859">
        <ele>1903</ele>
        <time>2025-02-20T11:46:54Z</time>
      </trkpt>
      <trkpt lat="45.62192" lon="6.52859">
        <ele>1903</ele>
        <time>2025-02-20T11:46:55Z</time>
      </trkpt>
      <trkpt lat="45.62192" lon="6.52859">
        <ele>1903</ele>
        <time>2025-02-20T11:46:56Z</time>
      </trkpt>
      <trkpt lat="45.62192" lon="6.52859">
        <ele>1902.8</ele>
        <time>2025-02-20T11:46:57Z</time>
      </trkpt>
      <trkpt lat="45.62192" lon="6.52859">
        <ele>1902.8</ele>
        <time>2025-02-20T11:46:58Z</time>
      </trkpt>
      <trkpt lat="45.62192" lon="6.52859">
        <ele>1902.8</ele>
        <time>2025-02-20T11:46:59Z</time>
      </trkpt>
      <trkpt lat="45.62192" lon="6.52859">
        <ele>1903.4</ele>
        <time>2025-02-20T11:47:00Z</time>
      </trkpt>
      <trkpt lat="45.62192" lon="6.52859">
        <ele>1903.6</ele>
        <time>2025-02-20T11:47:01Z</time>
      </trkpt>
      <trkpt lat="45.62192" lon="6.52859">
        <ele>1903.6</ele>
        <time>2025-02-20T11:47:02Z</time>
      </trkpt>
      <trkpt lat="45.62192" lon="6.52859">
        <ele>1903.6</ele>
        <time>2025-02-20T11:47:03Z</time>
      </trkpt>
      <trkpt lat="45.62192" lon="6.52859">
        <ele>1903.4</ele>
        <time>2025-02-20T11:47:04Z</time>
      </trkpt>
      <trkpt lat="45.62192" lon="6.52859">
        <ele>1903</ele>
        <time>2025-02-20T11:47:05Z</time>
      </trkpt>
      <trkpt lat="45.62192" lon="6.52859">
        <ele>1903</ele>
        <time>2025-02-20T11:47:06Z</time>
      </trkpt>
      <trkpt lat="45.62192" lon="6.52859">
        <ele>1903</ele>
        <time>2025-02-20T11:47:07Z</time>
      </trkpt>
      <trkpt lat="45.62192" lon="6.52859">
        <ele>1903</ele>
        <time>2025-02-20T11:47:08Z</time>
      </trkpt>
      <trkpt lat="45.62192" lon="6.52859">
        <ele>1903.4</ele>
        <time>2025-02-20T11:47:09Z</time>
      </trkpt>
      <trkpt lat="45.62192" lon="6.52859">
        <ele>1903.4</ele>
        <time>2025-02-20T11:47:10Z</time>
      </trkpt>
      <trkpt lat="45.62192" lon="6.52859">
        <ele>1903.4</ele>
        <time>2025-02-20T11:47:11Z</time>
      </trkpt>
      <trkpt lat="45.62192" lon="6.52859">
        <ele>1902.6</ele>
        <time>2025-02-20T11:47:12Z</time>
      </trkpt>
      <trkpt lat="45.62192" lon="6.52859">
        <ele>1902.6</ele>
        <time>2025-02-20T11:47:13Z</time>
      </trkpt>
      <trkpt lat="45.62192" lon="6.52859">
        <ele>1902.6</ele>
        <time>2025-02-20T11:47:14Z</time>
      </trkpt>
      <trkpt lat="45.62192" lon="6.52859">
        <ele>1902.6</ele>
        <time>2025-02-20T11:47:15Z</time>
      </trkpt>
      <trkpt lat="45.62192" lon="6.52859">
        <ele>1902.6</ele>
        <time>2025-02-20T11:47:16Z</time>
      </trkpt>
      <trkpt lat="45.62192" lon="6.52859">
        <ele>1901.8</ele>
        <time>2025-02-20T11:47:17Z</time>
      </trkpt>
      <trkpt lat="45.62192" lon="6.52859">
        <ele>1901.8</ele>
        <time>2025-02-20T11:47:18Z</time>
      </trkpt>
      <trkpt lat="45.62192" lon="6.52859">
        <ele>1901.8</ele>
        <time>2025-02-20T11:47:19Z</time>
      </trkpt>
      <trkpt lat="45.62192" lon="6.52859">
        <ele>1902.8</ele>
        <time>2025-02-20T11:47:20Z</time>
      </trkpt>
      <trkpt lat="45.62192" lon="6.52859">
        <ele>1903.4</ele>
        <time>2025-02-20T11:47:21Z</time>
      </trkpt>
      <trkpt lat="45.62192" lon="6.52859">
        <ele>1903.4</ele>
        <time>2025-02-20T11:47:22Z</time>
      </trkpt>
      <trkpt lat="45.62192" lon="6.52859">
        <ele>1903.4</ele>
        <time>2025-02-20T11:47:23Z</time>
      </trkpt>
      <trkpt lat="45.62192" lon="6.52859">
        <ele>1903.4</ele>
        <time>2025-02-20T11:47:24Z</time>
      </trkpt>
      <trkpt lat="45.62192" lon="6.52859">
        <ele>1902.8</ele>
        <time>2025-02-20T11:47:25Z</time>
      </trkpt>
      <trkpt lat="45.62192" lon="6.52859">
        <ele>1902.8</ele>
        <time>2025-02-20T11:47:26Z</time>
      </trkpt>
      <trkpt lat="45.62192" lon="6.52859">
        <ele>1902.8</ele>
        <time>2025-02-20T11:47:27Z</time>
      </trkpt>
      <trkpt lat="45.62192" lon="6.52859">
        <ele>1902.8</ele>
        <time>2025-02-20T11:47:28Z</time>
      </trkpt>
      <trkpt lat="45.62192" lon="6.52859">
        <ele>1903.2</ele>
        <time>2025-02-20T11:47:29Z</time>
      </trkpt>
      <trkpt lat="45.62192" lon="6.52859">
        <ele>1903.2</ele>
        <time>2025-02-20T11:47:30Z</time>
      </trkpt>
      <trkpt lat="45.62192" lon="6.52859">
        <ele>1903.2</ele>
        <time>2025-02-20T11:47:31Z</time>
      </trkpt>
      <trkpt lat="45.62192" lon="6.52859">
        <ele>1902.6</ele>
        <time>2025-02-20T11:47:32Z</time>
      </trkpt>
      <trkpt lat="45.62192" lon="6.52859">
        <ele>1903.2</ele>
        <time>2025-02-20T11:47:33Z</time>
      </trkpt>
      <trkpt lat="45.62192" lon="6.52859">
        <ele>1903.2</ele>
        <time>2025-02-20T11:47:34Z</time>
      </trkpt>
      <trkpt lat="45.62192" lon="6.52859">
        <ele>1903.2</ele>
        <time>2025-02-20T11:47:35Z</time>
      </trkpt>
      <trkpt lat="45.62192" lon="6.52859">
        <ele>1903</ele>
        <time>2025-02-20T11:47:36Z</time>
      </trkpt>
      <trkpt lat="45.62192" lon="6.52859">
        <ele>1903.2</ele>
        <time>2025-02-20T11:47:37Z</time>
      </trkpt>
      <trkpt lat="45.62192" lon="6.52859">
        <ele>1903.2</ele>
        <time>2025-02-20T11:47:38Z</time>
      </trkpt>
      <trkpt lat="45.62192" lon="6.52859">
        <ele>1903.2</ele>
        <time>2025-02-20T11:47:39Z</time>
      </trkpt>
      <trkpt lat="45.62192" lon="6.52859">
        <ele>1903.2</ele>
        <time>2025-02-20T11:47:40Z</time>
      </trkpt>
      <trkpt lat="45.62192" lon="6.52859">
        <ele>1903.2</ele>
        <time>2025-02-20T11:47:41Z</time>
      </trkpt>
      <trkpt lat="45.62192" lon="6.52859">
        <ele>1903.2</ele>
        <time>2025-02-20T11:47:42Z</time>
      </trkpt>
      <trkpt lat="45.62192" lon="6.52859">
        <ele>1903.2</ele>
        <time>2025-02-20T11:47:43Z</time>
      </trkpt>
      <trkpt lat="45.62192" lon="6.52859">
        <ele>1903.2</ele>
        <time>2025-02-20T11:47:44Z</time>
      </trkpt>
      <trkpt lat="45.62192" lon="6.52859">
        <ele>1903</ele>
        <time>2025-02-20T11:47:45Z</time>
      </trkpt>
      <trkpt lat="45.62192" lon="6.52859">
        <ele>1903</ele>
        <time>2025-02-20T11:47:46Z</time>
      </trkpt>
      <trkpt lat="45.62192" lon="6.52859">
        <ele>1903</ele>
        <time>2025-02-20T11:47:47Z</time>
      </trkpt>
      <trkpt lat="45.62192" lon="6.52859">
        <ele>1903</ele>
        <time>2025-02-20T11:47:48Z</time>
      </trkpt>
      <trkpt lat="45.62192" lon="6.52859">
        <ele>1902.8</ele>
        <time>2025-02-20T11:47:49Z</time>
      </trkpt>
      <trkpt lat="45.62192" lon="6.52859">
        <ele>1902.8</ele>
        <time>2025-02-20T11:47:50Z</time>
      </trkpt>
      <trkpt lat="45.62192" lon="6.52859">
        <ele>1902.8</ele>
        <time>2025-02-20T11:47:51Z</time>
      </trkpt>
      <trkpt lat="45.62192" lon="6.52859">
        <ele>1902.8</ele>
        <time>2025-02-20T11:47:52Z</time>
      </trkpt>
      <trkpt lat="45.62192" lon="6.52859">
        <ele>1903</ele>
        <time>2025-02-20T11:47:53Z</time>
      </trkpt>
      <trkpt lat="45.62189" lon="6.52854">
        <ele>1903</ele>
        <time>2025-02-20T11:47:54Z</time>
      </trkpt>
      <trkpt lat="45.62188" lon="6.52853">
        <ele>1903</ele>
        <time>2025-02-20T11:47:55Z</time>
      </trkpt>
      <trkpt lat="45.62188" lon="6.52851">
        <ele>1903</ele>
        <time>2025-02-20T11:47:56Z</time>
      </trkpt>
      <trkpt lat="45.62188" lon="6.5285">
        <ele>1903.4</ele>
        <time>2025-02-20T11:47:57Z</time>
      </trkpt>
      <trkpt lat="45.62188" lon="6.5285">
        <ele>1903.4</ele>
        <time>2025-02-20T11:47:58Z</time>
      </trkpt>
      <trkpt lat="45.62188" lon="6.5285">
        <ele>1903.4</ele>
        <time>2025-02-20T11:47:59Z</time>
      </trkpt>
      <trkpt lat="45.62188" lon="6.5285">
        <ele>1903.4</ele>
        <time>2025-02-20T11:48:00Z</time>
      </trkpt>
      <trkpt lat="45.62188" lon="6.5285">
        <ele>1903.6</ele>
        <time>2025-02-20T11:48:01Z</time>
      </trkpt>
      <trkpt lat="45.62187" lon="6.52846">
        <ele>1903.6</ele>
        <time>2025-02-20T11:48:02Z</time>
      </trkpt>
      <trkpt lat="45.62187" lon="6.52845">
        <ele>1903.6</ele>
        <time>2025-02-20T11:48:03Z</time>
      </trkpt>
      <trkpt lat="45.62186" lon="6.52844">
        <ele>1902.6</ele>
        <time>2025-02-20T11:48:04Z</time>
      </trkpt>
      <trkpt lat="45.62186" lon="6.52843">
        <ele>1903</ele>
        <time>2025-02-20T11:48:05Z</time>
      </trkpt>
      <trkpt lat="45.62186" lon="6.52843">
        <ele>1903</ele>
        <time>2025-02-20T11:48:06Z</time>
      </trkpt>
      <trkpt lat="45.62186" lon="6.52843">
        <ele>1903</ele>
        <time>2025-02-20T11:48:07Z</time>
      </trkpt>
      <trkpt lat="45.62186" lon="6.52841">
        <ele>1903</ele>
        <time>2025-02-20T11:48:08Z</time>
      </trkpt>
      <trkpt lat="45.62185" lon="6.52841">
        <ele>1903.4</ele>
        <time>2025-02-20T11:48:09Z</time>
      </trkpt>
      <trkpt lat="45.62185" lon="6.5284">
        <ele>1903.4</ele>
        <time>2025-02-20T11:48:10Z</time>
      </trkpt>
      <trkpt lat="45.62185" lon="6.5284">
        <ele>1903.4</ele>
        <time>2025-02-20T11:48:11Z</time>
      </trkpt>
      <trkpt lat="45.62185" lon="6.52839">
        <ele>1903.8</ele>
        <time>2025-02-20T11:48:12Z</time>
      </trkpt>
      <trkpt lat="45.62185" lon="6.52839">
        <ele>1904</ele>
        <time>2025-02-20T11:48:13Z</time>
      </trkpt>
      <trkpt lat="45.62185" lon="6.52839">
        <ele>1904</ele>
        <time>2025-02-20T11:48:14Z</time>
      </trkpt>
      <trkpt lat="45.62185" lon="6.52839">
        <ele>1904</ele>
        <time>2025-02-20T11:48:15Z</time>
      </trkpt>
      <trkpt lat="45.62185" lon="6.52839">
        <ele>1903.8</ele>
        <time>2025-02-20T11:48:16Z</time>
      </trkpt>
      <trkpt lat="45.62185" lon="6.52839">
        <ele>1904.2</ele>
        <time>2025-02-20T11:48:17Z</time>
      </trkpt>
      <trkpt lat="45.62185" lon="6.52839">
        <ele>1904.2</ele>
        <time>2025-02-20T11:48:18Z</time>
      </trkpt>
      <trkpt lat="45.62185" lon="6.52839">
        <ele>1904.2</ele>
        <time>2025-02-20T11:48:19Z</time>
      </trkpt>
      <trkpt lat="45.62185" lon="6.52839">
        <ele>1904</ele>
        <time>2025-02-20T11:48:20Z</time>
      </trkpt>
      <trkpt lat="45.62185" lon="6.52839">
        <ele>1903.8</ele>
        <time>2025-02-20T11:48:21Z</time>
      </trkpt>
      <trkpt lat="45.62185" lon="6.52839">
        <ele>1903.8</ele>
        <time>2025-02-20T11:48:22Z</time>
      </trkpt>
      <trkpt lat="45.62185" lon="6.52839">
        <ele>1903.8</ele>
        <time>2025-02-20T11:48:23Z</time>
      </trkpt>
      <trkpt lat="45.62185" lon="6.52839">
        <ele>1903.8</ele>
        <time>2025-02-20T11:48:24Z</time>
      </trkpt>
      <trkpt lat="45.62185" lon="6.52839">
        <ele>1904</ele>
        <time>2025-02-20T11:48:25Z</time>
      </trkpt>
      <trkpt lat="45.62184" lon="6.52836">
        <ele>1904</ele>
        <time>2025-02-20T11:48:26Z</time>
      </trkpt>
      <trkpt lat="45.62184" lon="6.52836">
        <ele>1904</ele>
        <time>2025-02-20T11:48:27Z</time>
      </trkpt>
      <trkpt lat="45.62184" lon="6.52836">
        <ele>1904</ele>
        <time>2025-02-20T11:48:28Z</time>
      </trkpt>
      <trkpt lat="45.62184" lon="6.52835">
        <ele>1904</ele>
        <time>2025-02-20T11:48:29Z</time>
      </trkpt>
      <trkpt lat="45.62185" lon="6.52835">
        <ele>1904</ele>
        <time>2025-02-20T11:48:30Z</time>
      </trkpt>
      <trkpt lat="45.62185" lon="6.52835">
        <ele>1904</ele>
        <time>2025-02-20T11:48:31Z</time>
      </trkpt>
      <trkpt lat="45.62185" lon="6.52835">
        <ele>1904</ele>
        <time>2025-02-20T11:48:32Z</time>
      </trkpt>
      <trkpt lat="45.62185" lon="6.52835">
        <ele>1903.6</ele>
        <time>2025-02-20T11:48:33Z</time>
      </trkpt>
      <trkpt lat="45.62185" lon="6.52832">
        <ele>1903.6</ele>
        <time>2025-02-20T11:48:34Z</time>
      </trkpt>
      <trkpt lat="45.62186" lon="6.52831">
        <ele>1903.6</ele>
        <time>2025-02-20T11:48:35Z</time>
      </trkpt>
      <trkpt lat="45.62186" lon="6.52831">
        <ele>1904.6</ele>
        <time>2025-02-20T11:48:36Z</time>
      </trkpt>
      <trkpt lat="45.62185" lon="6.5283">
        <ele>1904.4</ele>
        <time>2025-02-20T11:48:37Z</time>
      </trkpt>
      <trkpt lat="45.62185" lon="6.5283">
        <ele>1904.4</ele>
        <time>2025-02-20T11:48:38Z</time>
      </trkpt>
      <trkpt lat="45.62185" lon="6.5283">
        <ele>1904.4</ele>
        <time>2025-02-20T11:48:39Z</time>
      </trkpt>
      <trkpt lat="45.62185" lon="6.5283">
        <ele>1904.4</ele>
        <time>2025-02-20T11:48:40Z</time>
      </trkpt>
      <trkpt lat="45.62185" lon="6.5283">
        <ele>1905</ele>
        <time>2025-02-20T11:48:41Z</time>
      </trkpt>
      <trkpt lat="45.62185" lon="6.5283">
        <ele>1905</ele>
        <time>2025-02-20T11:48:42Z</time>
      </trkpt>
      <trkpt lat="45.62185" lon="6.5283">
        <ele>1905</ele>
        <time>2025-02-20T11:48:43Z</time>
      </trkpt>
      <trkpt lat="45.62185" lon="6.52826">
        <ele>1905</ele>
        <time>2025-02-20T11:48:44Z</time>
      </trkpt>
      <trkpt lat="45.62185" lon="6.52826">
        <ele>1905.2</ele>
        <time>2025-02-20T11:48:45Z</time>
      </trkpt>
      <trkpt lat="45.62185" lon="6.52826">
        <ele>1905.2</ele>
        <time>2025-02-20T11:48:46Z</time>
      </trkpt>
      <trkpt lat="45.62185" lon="6.52825">
        <ele>1905.2</ele>
        <time>2025-02-20T11:48:47Z</time>
      </trkpt>
      <trkpt lat="45.62185" lon="6.52824">
        <ele>1905.6</ele>
        <time>2025-02-20T11:48:48Z</time>
      </trkpt>
      <trkpt lat="45.62185" lon="6.52823">
        <ele>1905</ele>
        <time>2025-02-20T11:48:49Z</time>
      </trkpt>
      <trkpt lat="45.62185" lon="6.52823">
        <ele>1905</ele>
        <time>2025-02-20T11:48:50Z</time>
      </trkpt>
      <trkpt lat="45.62185" lon="6.52822">
        <ele>1905</ele>
        <time>2025-02-20T11:48:51Z</time>
      </trkpt>
      <trkpt lat="45.62185" lon="6.52821">
        <ele>1905</ele>
        <time>2025-02-20T11:48:52Z</time>
      </trkpt>
      <trkpt lat="45.62185" lon="6.5282">
        <ele>1905.6</ele>
        <time>2025-02-20T11:48:53Z</time>
      </trkpt>
      <trkpt lat="45.62185" lon="6.52819">
        <ele>1905.6</ele>
        <time>2025-02-20T11:48:54Z</time>
      </trkpt>
      <trkpt lat="45.62184" lon="6.52819">
        <ele>1905.6</ele>
        <time>2025-02-20T11:48:55Z</time>
      </trkpt>
      <trkpt lat="45.62184" lon="6.52818">
        <ele>1905.6</ele>
        <time>2025-02-20T11:48:56Z</time>
      </trkpt>
      <trkpt lat="45.62184" lon="6.52818">
        <ele>1906.2</ele>
        <time>2025-02-20T11:48:57Z</time>
      </trkpt>
      <trkpt lat="45.62184" lon="6.52818">
        <ele>1906.2</ele>
        <time>2025-02-20T11:48:58Z</time>
      </trkpt>
      <trkpt lat="45.62184" lon="6.52818">
        <ele>1906.2</ele>
        <time>2025-02-20T11:48:59Z</time>
      </trkpt>
      <trkpt lat="45.62184" lon="6.52816">
        <ele>1906.2</ele>
        <time>2025-02-20T11:49:00Z</time>
      </trkpt>
      <trkpt lat="45.62184" lon="6.52815">
        <ele>1905.4</ele>
        <time>2025-02-20T11:49:01Z</time>
      </trkpt>
      <trkpt lat="45.62184" lon="6.52815">
        <ele>1905.4</ele>
        <time>2025-02-20T11:49:02Z</time>
      </trkpt>
      <trkpt lat="45.62184" lon="6.52815">
        <ele>1905.4</ele>
        <time>2025-02-20T11:49:03Z</time>
      </trkpt>
      <trkpt lat="45.62184" lon="6.52815">
        <ele>1906.4</ele>
        <time>2025-02-20T11:49:04Z</time>
      </trkpt>
      <trkpt lat="45.62184" lon="6.52813">
        <ele>1906.2</ele>
        <time>2025-02-20T11:49:05Z</time>
      </trkpt>
      <trkpt lat="45.62184" lon="6.52813">
        <ele>1906.2</ele>
        <time>2025-02-20T11:49:06Z</time>
      </trkpt>
      <trkpt lat="45.62184" lon="6.52812">
        <ele>1906.2</ele>
        <time>2025-02-20T11:49:07Z</time>
      </trkpt>
      <trkpt lat="45.62184" lon="6.52811">
        <ele>1906.2</ele>
        <time>2025-02-20T11:49:08Z</time>
      </trkpt>
      <trkpt lat="45.62184" lon="6.5281">
        <ele>1907</ele>
        <time>2025-02-20T11:49:09Z</time>
      </trkpt>
      <trkpt lat="45.62184" lon="6.5281">
        <ele>1907</ele>
        <time>2025-02-20T11:49:10Z</time>
      </trkpt>
      <trkpt lat="45.62184" lon="6.52809">
        <ele>1907</ele>
        <time>2025-02-20T11:49:11Z</time>
      </trkpt>
      <trkpt lat="45.62184" lon="6.52808">
        <ele>1907</ele>
        <time>2025-02-20T11:49:12Z</time>
      </trkpt>
      <trkpt lat="45.62184" lon="6.52808">
        <ele>1907.6</ele>
        <time>2025-02-20T11:49:13Z</time>
      </trkpt>
      <trkpt lat="45.62184" lon="6.52808">
        <ele>1907.6</ele>
        <time>2025-02-20T11:49:14Z</time>
      </trkpt>
      <trkpt lat="45.62184" lon="6.52808">
        <ele>1907.6</ele>
        <time>2025-02-20T11:49:15Z</time>
      </trkpt>
      <trkpt lat="45.62184" lon="6.52806">
        <ele>1907.6</ele>
        <time>2025-02-20T11:49:16Z</time>
      </trkpt>
      <trkpt lat="45.62184" lon="6.52805">
        <ele>1907.8</ele>
        <time>2025-02-20T11:49:17Z</time>
      </trkpt>
      <trkpt lat="45.62184" lon="6.52805">
        <ele>1907.8</ele>
        <time>2025-02-20T11:49:18Z</time>
      </trkpt>
      <trkpt lat="45.62184" lon="6.52805">
        <ele>1907.8</ele>
        <time>2025-02-20T11:49:19Z</time>
      </trkpt>
      <trkpt lat="45.62184" lon="6.52805">
        <ele>1907.6</ele>
        <time>2025-02-20T11:49:20Z</time>
      </trkpt>
      <trkpt lat="45.62184" lon="6.52805">
        <ele>1907.6</ele>
        <time>2025-02-20T11:49:21Z</time>
      </trkpt>
      <trkpt lat="45.62184" lon="6.52805">
        <ele>1907.6</ele>
        <time>2025-02-20T11:49:22Z</time>
      </trkpt>
      <trkpt lat="45.62184" lon="6.52805">
        <ele>1907.6</ele>
        <time>2025-02-20T11:49:23Z</time>
      </trkpt>
      <trkpt lat="45.62184" lon="6.52805">
        <ele>1907.6</ele>
        <time>2025-02-20T11:49:24Z</time>
      </trkpt>
      <trkpt lat="45.62184" lon="6.52805">
        <ele>1907.4</ele>
        <time>2025-02-20T11:49:25Z</time>
      </trkpt>
      <trkpt lat="45.62184" lon="6.52805">
        <ele>1907.4</ele>
        <time>2025-02-20T11:49:26Z</time>
      </trkpt>
      <trkpt lat="45.62184" lon="6.52805">
        <ele>1907.4</ele>
        <time>2025-02-20T11:49:27Z</time>
      </trkpt>
      <trkpt lat="45.62184" lon="6.52805">
        <ele>1907.4</ele>
        <time>2025-02-20T11:49:28Z</time>
      </trkpt>
      <trkpt lat="45.62184" lon="6.52805">
        <ele>1907.6</ele>
        <time>2025-02-20T11:49:29Z</time>
      </trkpt>
      <trkpt lat="45.62184" lon="6.52805">
        <ele>1907.6</ele>
        <time>2025-02-20T11:49:30Z</time>
      </trkpt>
      <trkpt lat="45.62184" lon="6.52805">
        <ele>1907.6</ele>
        <time>2025-02-20T11:49:31Z</time>
      </trkpt>
      <trkpt lat="45.62184" lon="6.52805">
        <ele>1907.6</ele>
        <time>2025-02-20T11:49:32Z</time>
      </trkpt>
      <trkpt lat="45.62184" lon="6.52805">
        <ele>1908</ele>
        <time>2025-02-20T11:49:33Z</time>
      </trkpt>
      <trkpt lat="45.62184" lon="6.52805">
        <ele>1908</ele>
        <time>2025-02-20T11:49:34Z</time>
      </trkpt>
      <trkpt lat="45.62184" lon="6.52803">
        <ele>1908</ele>
        <time>2025-02-20T11:49:35Z</time>
      </trkpt>
      <trkpt lat="45.62184" lon="6.52802">
        <ele>1907.8</ele>
        <time>2025-02-20T11:49:36Z</time>
      </trkpt>
      <trkpt lat="45.62184" lon="6.52801">
        <ele>1907.8</ele>
        <time>2025-02-20T11:49:37Z</time>
      </trkpt>
      <trkpt lat="45.62184" lon="6.528">
        <ele>1907.8</ele>
        <time>2025-02-20T11:49:38Z</time>
      </trkpt>
      <trkpt lat="45.62183" lon="6.52799">
        <ele>1907.8</ele>
        <time>2025-02-20T11:49:39Z</time>
      </trkpt>
      <trkpt lat="45.62183" lon="6.52798">
        <ele>1907.8</ele>
        <time>2025-02-20T11:49:40Z</time>
      </trkpt>
      <trkpt lat="45.62183" lon="6.52798">
        <ele>1907.6</ele>
        <time>2025-02-20T11:49:41Z</time>
      </trkpt>
      <trkpt lat="45.62182" lon="6.52797">
        <ele>1907.6</ele>
        <time>2025-02-20T11:49:42Z</time>
      </trkpt>
      <trkpt lat="45.62182" lon="6.52796">
        <ele>1907.6</ele>
        <time>2025-02-20T11:49:43Z</time>
      </trkpt>
      <trkpt lat="45.62182" lon="6.52795">
        <ele>1907.6</ele>
        <time>2025-02-20T11:49:44Z</time>
      </trkpt>
      <trkpt lat="45.62182" lon="6.52795">
        <ele>1907.6</ele>
        <time>2025-02-20T11:49:45Z</time>
      </trkpt>
      <trkpt lat="45.62181" lon="6.52794">
        <ele>1907.6</ele>
        <time>2025-02-20T11:49:46Z</time>
      </trkpt>
      <trkpt lat="45.62181" lon="6.52794">
        <ele>1907.6</ele>
        <time>2025-02-20T11:49:47Z</time>
      </trkpt>
      <trkpt lat="45.62181" lon="6.52793">
        <ele>1908.6</ele>
        <time>2025-02-20T11:49:48Z</time>
      </trkpt>
      <trkpt lat="45.62181" lon="6.52792">
        <ele>1908.4</ele>
        <time>2025-02-20T11:49:49Z</time>
      </trkpt>
      <trkpt lat="45.6218" lon="6.52791">
        <ele>1908.4</ele>
        <time>2025-02-20T11:49:50Z</time>
      </trkpt>
      <trkpt lat="45.62179" lon="6.5279">
        <ele>1908.4</ele>
        <time>2025-02-20T11:49:51Z</time>
      </trkpt>
      <trkpt lat="45.62179" lon="6.5279">
        <ele>1908.4</ele>
        <time>2025-02-20T11:49:52Z</time>
      </trkpt>
      <trkpt lat="45.62179" lon="6.52789">
        <ele>1909.2</ele>
        <time>2025-02-20T11:49:53Z</time>
      </trkpt>
      <trkpt lat="45.62178" lon="6.52788">
        <ele>1909.2</ele>
        <time>2025-02-20T11:49:54Z</time>
      </trkpt>
      <trkpt lat="45.62178" lon="6.52787">
        <ele>1909.2</ele>
        <time>2025-02-20T11:49:55Z</time>
      </trkpt>
      <trkpt lat="45.62177" lon="6.52786">
        <ele>1909.2</ele>
        <time>2025-02-20T11:49:56Z</time>
      </trkpt>
      <trkpt lat="45.62177" lon="6.52786">
        <ele>1909</ele>
        <time>2025-02-20T11:49:57Z</time>
      </trkpt>
      <trkpt lat="45.62176" lon="6.52785">
        <ele>1909</ele>
        <time>2025-02-20T11:49:58Z</time>
      </trkpt>
      <trkpt lat="45.62176" lon="6.52784">
        <ele>1909</ele>
        <time>2025-02-20T11:49:59Z</time>
      </trkpt>
      <trkpt lat="45.62176" lon="6.52783">
        <ele>1909</ele>
        <time>2025-02-20T11:50:00Z</time>
      </trkpt>
      <trkpt lat="45.62176" lon="6.52783">
        <ele>1909.6</ele>
        <time>2025-02-20T11:50:01Z</time>
      </trkpt>
      <trkpt lat="45.62175" lon="6.52783">
        <ele>1909.6</ele>
        <time>2025-02-20T11:50:02Z</time>
      </trkpt>
      <trkpt lat="45.62174" lon="6.52782">
        <ele>1909.6</ele>
        <time>2025-02-20T11:50:03Z</time>
      </trkpt>
      <trkpt lat="45.62174" lon="6.52782">
        <ele>1909.6</ele>
        <time>2025-02-20T11:50:04Z</time>
      </trkpt>
      <trkpt lat="45.62174" lon="6.52781">
        <ele>1909.4</ele>
        <time>2025-02-20T11:50:05Z</time>
      </trkpt>
      <trkpt lat="45.62173" lon="6.5278">
        <ele>1909.4</ele>
        <time>2025-02-20T11:50:06Z</time>
      </trkpt>
      <trkpt lat="45.62173" lon="6.5278">
        <ele>1909.4</ele>
        <time>2025-02-20T11:50:07Z</time>
      </trkpt>
      <trkpt lat="45.62173" lon="6.5278">
        <ele>1909.4</ele>
        <time>2025-02-20T11:50:08Z</time>
      </trkpt>
      <trkpt lat="45.62173" lon="6.5278">
        <ele>1910</ele>
        <time>2025-02-20T11:50:09Z</time>
      </trkpt>
      <trkpt lat="45.62173" lon="6.5278">
        <ele>1910</ele>
        <time>2025-02-20T11:50:10Z</time>
      </trkpt>
      <trkpt lat="45.62173" lon="6.5278">
        <ele>1910</ele>
        <time>2025-02-20T11:50:11Z</time>
      </trkpt>
      <trkpt lat="45.62173" lon="6.5278">
        <ele>1910</ele>
        <time>2025-02-20T11:50:12Z</time>
      </trkpt>
      <trkpt lat="45.62173" lon="6.5278">
        <ele>1910.6</ele>
        <time>2025-02-20T11:50:13Z</time>
      </trkpt>
      <trkpt lat="45.62173" lon="6.52778">
        <ele>1910.6</ele>
        <time>2025-02-20T11:50:14Z</time>
      </trkpt>
      <trkpt lat="45.62173" lon="6.52777">
        <ele>1910.6</ele>
        <time>2025-02-20T11:50:15Z</time>
      </trkpt>
      <trkpt lat="45.62173" lon="6.52777">
        <ele>1910.6</ele>
        <time>2025-02-20T11:50:16Z</time>
      </trkpt>
      <trkpt lat="45.62172" lon="6.52776">
        <ele>1910</ele>
        <time>2025-02-20T11:50:17Z</time>
      </trkpt>
      <trkpt lat="45.62172" lon="6.52775">
        <ele>1910</ele>
        <time>2025-02-20T11:50:18Z</time>
      </trkpt>
      <trkpt lat="45.62172" lon="6.52773">
        <ele>1910</ele>
        <time>2025-02-20T11:50:19Z</time>
      </trkpt>
      <trkpt lat="45.62172" lon="6.52772">
        <ele>1910</ele>
        <time>2025-02-20T11:50:20Z</time>
      </trkpt>
      <trkpt lat="45.62171" lon="6.52771">
        <ele>1910.6</ele>
        <time>2025-02-20T11:50:21Z</time>
      </trkpt>
      <trkpt lat="45.62171" lon="6.52771">
        <ele>1910.6</ele>
        <time>2025-02-20T11:50:22Z</time>
      </trkpt>
      <trkpt lat="45.62172" lon="6.5277">
        <ele>1910.6</ele>
        <time>2025-02-20T11:50:23Z</time>
      </trkpt>
      <trkpt lat="45.62172" lon="6.52769">
        <ele>1911.4</ele>
        <time>2025-02-20T11:50:24Z</time>
      </trkpt>
      <trkpt lat="45.62172" lon="6.52769">
        <ele>1911.6</ele>
        <time>2025-02-20T11:50:25Z</time>
      </trkpt>
      <trkpt lat="45.62172" lon="6.52769">
        <ele>1911.6</ele>
        <time>2025-02-20T11:50:26Z</time>
      </trkpt>
      <trkpt lat="45.62172" lon="6.52769">
        <ele>1911.6</ele>
        <time>2025-02-20T11:50:27Z</time>
      </trkpt>
      <trkpt lat="45.62172" lon="6.52769">
        <ele>1911.6</ele>
        <time>2025-02-20T11:50:28Z</time>
      </trkpt>
      <trkpt lat="45.62172" lon="6.52769">
        <ele>1911.2</ele>
        <time>2025-02-20T11:50:29Z</time>
      </trkpt>
      <trkpt lat="45.62172" lon="6.52769">
        <ele>1911.2</ele>
        <time>2025-02-20T11:50:30Z</time>
      </trkpt>
      <trkpt lat="45.62172" lon="6.52769">
        <ele>1911.2</ele>
        <time>2025-02-20T11:50:31Z</time>
      </trkpt>
      <trkpt lat="45.62172" lon="6.52769">
        <ele>1912.2</ele>
        <time>2025-02-20T11:50:32Z</time>
      </trkpt>
      <trkpt lat="45.62172" lon="6.52769">
        <ele>1911.6</ele>
        <time>2025-02-20T11:50:33Z</time>
      </trkpt>
      <trkpt lat="45.62172" lon="6.52769">
        <ele>1911.6</ele>
        <time>2025-02-20T11:50:34Z</time>
      </trkpt>
      <trkpt lat="45.62171" lon="6.52764">
        <ele>1911.6</ele>
        <time>2025-02-20T11:50:35Z</time>
      </trkpt>
      <trkpt lat="45.62171" lon="6.52763">
        <ele>1912.6</ele>
        <time>2025-02-20T11:50:36Z</time>
      </trkpt>
      <trkpt lat="45.62171" lon="6.52761">
        <ele>1912.6</ele>
        <time>2025-02-20T11:50:37Z</time>
      </trkpt>
      <trkpt lat="45.62171" lon="6.5276">
        <ele>1912.6</ele>
        <time>2025-02-20T11:50:38Z</time>
      </trkpt>
      <trkpt lat="45.62171" lon="6.5276">
        <ele>1912.6</ele>
        <time>2025-02-20T11:50:39Z</time>
      </trkpt>
      <trkpt lat="45.62171" lon="6.5276">
        <ele>1912.6</ele>
        <time>2025-02-20T11:50:40Z</time>
      </trkpt>
      <trkpt lat="45.62171" lon="6.52758">
        <ele>1913.2</ele>
        <time>2025-02-20T11:50:41Z</time>
      </trkpt>
      <trkpt lat="45.62171" lon="6.52758">
        <ele>1913.2</ele>
        <time>2025-02-20T11:50:42Z</time>
      </trkpt>
      <trkpt lat="45.62171" lon="6.52758">
        <ele>1913.2</ele>
        <time>2025-02-20T11:50:43Z</time>
      </trkpt>
      <trkpt lat="45.62171" lon="6.52758">
        <ele>1913.2</ele>
        <time>2025-02-20T11:50:44Z</time>
      </trkpt>
      <trkpt lat="45.62171" lon="6.52758">
        <ele>1913.6</ele>
        <time>2025-02-20T11:50:45Z</time>
      </trkpt>
      <trkpt lat="45.62171" lon="6.52753">
        <ele>1913.6</ele>
        <time>2025-02-20T11:50:46Z</time>
      </trkpt>
      <trkpt lat="45.6217" lon="6.52753">
        <ele>1913.6</ele>
        <time>2025-02-20T11:50:47Z</time>
      </trkpt>
      <trkpt lat="45.6217" lon="6.52752">
        <ele>1913.6</ele>
        <time>2025-02-20T11:50:48Z</time>
      </trkpt>
      <trkpt lat="45.6217" lon="6.52752">
        <ele>1913</ele>
        <time>2025-02-20T11:50:49Z</time>
      </trkpt>
      <trkpt lat="45.6217" lon="6.52751">
        <ele>1913</ele>
        <time>2025-02-20T11:50:50Z</time>
      </trkpt>
      <trkpt lat="45.6217" lon="6.5275">
        <ele>1913</ele>
        <time>2025-02-20T11:50:51Z</time>
      </trkpt>
      <trkpt lat="45.6217" lon="6.52749">
        <ele>1914</ele>
        <time>2025-02-20T11:50:52Z</time>
      </trkpt>
      <trkpt lat="45.6217" lon="6.52749">
        <ele>1913.4</ele>
        <time>2025-02-20T11:50:53Z</time>
      </trkpt>
      <trkpt lat="45.6217" lon="6.52748">
        <ele>1913.4</ele>
        <time>2025-02-20T11:50:54Z</time>
      </trkpt>
      <trkpt lat="45.62169" lon="6.52747">
        <ele>1913.4</ele>
        <time>2025-02-20T11:50:55Z</time>
      </trkpt>
      <trkpt lat="45.62169" lon="6.52746">
        <ele>1913.4</ele>
        <time>2025-02-20T11:50:56Z</time>
      </trkpt>
      <trkpt lat="45.62169" lon="6.52746">
        <ele>1913.8</ele>
        <time>2025-02-20T11:50:57Z</time>
      </trkpt>
      <trkpt lat="45.62169" lon="6.52745">
        <ele>1913.8</ele>
        <time>2025-02-20T11:50:58Z</time>
      </trkpt>
      <trkpt lat="45.62169" lon="6.52745">
        <ele>1913.8</ele>
        <time>2025-02-20T11:50:59Z</time>
      </trkpt>
      <trkpt lat="45.62169" lon="6.52743">
        <ele>1913.8</ele>
        <time>2025-02-20T11:51:00Z</time>
      </trkpt>
      <trkpt lat="45.62169" lon="6.52742">
        <ele>1914.6</ele>
        <time>2025-02-20T11:51:01Z</time>
      </trkpt>
      <trkpt lat="45.62168" lon="6.52741">
        <ele>1914.6</ele>
        <time>2025-02-20T11:51:02Z</time>
      </trkpt>
      <trkpt lat="45.62168" lon="6.5274">
        <ele>1914.6</ele>
        <time>2025-02-20T11:51:03Z</time>
      </trkpt>
      <trkpt lat="45.62168" lon="6.5274">
        <ele>1914.6</ele>
        <time>2025-02-20T11:51:04Z</time>
      </trkpt>
      <trkpt lat="45.62168" lon="6.52738">
        <ele>1914.8</ele>
        <time>2025-02-20T11:51:05Z</time>
      </trkpt>
      <trkpt lat="45.62167" lon="6.52738">
        <ele>1914.8</ele>
        <time>2025-02-20T11:51:06Z</time>
      </trkpt>
      <trkpt lat="45.62167" lon="6.52738">
        <ele>1914.8</ele>
        <time>2025-02-20T11:51:07Z</time>
      </trkpt>
      <trkpt lat="45.62167" lon="6.52738">
        <ele>1914.8</ele>
        <time>2025-02-20T11:51:08Z</time>
      </trkpt>
      <trkpt lat="45.62167" lon="6.52738">
        <ele>1915.2</ele>
        <time>2025-02-20T11:51:09Z</time>
      </trkpt>
      <trkpt lat="45.62167" lon="6.52738">
        <ele>1915.2</ele>
        <time>2025-02-20T11:51:10Z</time>
      </trkpt>
      <trkpt lat="45.62167" lon="6.52738">
        <ele>1915.2</ele>
        <time>2025-02-20T11:51:11Z</time>
      </trkpt>
      <trkpt lat="45.62167" lon="6.52738">
        <ele>1915</ele>
        <time>2025-02-20T11:51:12Z</time>
      </trkpt>
      <trkpt lat="45.62167" lon="6.52738">
        <ele>1915</ele>
        <time>2025-02-20T11:51:13Z</time>
      </trkpt>
      <trkpt lat="45.62167" lon="6.52738">
        <ele>1915</ele>
        <time>2025-02-20T11:51:14Z</time>
      </trkpt>
      <trkpt lat="45.62167" lon="6.52738">
        <ele>1915</ele>
        <time>2025-02-20T11:51:15Z</time>
      </trkpt>
      <trkpt lat="45.62167" lon="6.52738">
        <ele>1915</ele>
        <time>2025-02-20T11:51:16Z</time>
      </trkpt>
      <trkpt lat="45.62167" lon="6.52738">
        <ele>1915</ele>
        <time>2025-02-20T11:51:17Z</time>
      </trkpt>
      <trkpt lat="45.62167" lon="6.52738">
        <ele>1915</ele>
        <time>2025-02-20T11:51:18Z</time>
      </trkpt>
      <trkpt lat="45.62167" lon="6.52738">
        <ele>1915</ele>
        <time>2025-02-20T11:51:19Z</time>
      </trkpt>
      <trkpt lat="45.62167" lon="6.52738">
        <ele>1915</ele>
        <time>2025-02-20T11:51:20Z</time>
      </trkpt>
      <trkpt lat="45.62167" lon="6.52738">
        <ele>1915.6</ele>
        <time>2025-02-20T11:51:21Z</time>
      </trkpt>
      <trkpt lat="45.62167" lon="6.52738">
        <ele>1915.6</ele>
        <time>2025-02-20T11:51:22Z</time>
      </trkpt>
      <trkpt lat="45.62167" lon="6.52738">
        <ele>1915.6</ele>
        <time>2025-02-20T11:51:23Z</time>
      </trkpt>
      <trkpt lat="45.62167" lon="6.52738">
        <ele>1914.6</ele>
        <time>2025-02-20T11:51:24Z</time>
      </trkpt>
      <trkpt lat="45.62167" lon="6.52738">
        <ele>1915.6</ele>
        <time>2025-02-20T11:51:25Z</time>
      </trkpt>
      <trkpt lat="45.62167" lon="6.52738">
        <ele>1915.6</ele>
        <time>2025-02-20T11:51:26Z</time>
      </trkpt>
      <trkpt lat="45.62167" lon="6.52738">
        <ele>1915.6</ele>
        <time>2025-02-20T11:51:27Z</time>
      </trkpt>
      <trkpt lat="45.62167" lon="6.52738">
        <ele>1915.4</ele>
        <time>2025-02-20T11:51:28Z</time>
      </trkpt>
      <trkpt lat="45.62167" lon="6.52738">
        <ele>1915.4</ele>
        <time>2025-02-20T11:51:29Z</time>
      </trkpt>
      <trkpt lat="45.62167" lon="6.52738">
        <ele>1915.4</ele>
        <time>2025-02-20T11:51:30Z</time>
      </trkpt>
      <trkpt lat="45.62167" lon="6.52738">
        <ele>1915.4</ele>
        <time>2025-02-20T11:51:31Z</time>
      </trkpt>
      <trkpt lat="45.62167" lon="6.52738">
        <ele>1915.4</ele>
        <time>2025-02-20T11:51:32Z</time>
      </trkpt>
      <trkpt lat="45.62167" lon="6.52738">
        <ele>1915.6</ele>
        <time>2025-02-20T11:51:33Z</time>
      </trkpt>
      <trkpt lat="45.62167" lon="6.52738">
        <ele>1915.6</ele>
        <time>2025-02-20T11:51:34Z</time>
      </trkpt>
      <trkpt lat="45.62167" lon="6.52738">
        <ele>1915.6</ele>
        <time>2025-02-20T11:51:35Z</time>
      </trkpt>
      <trkpt lat="45.62167" lon="6.52738">
        <ele>1915.6</ele>
        <time>2025-02-20T11:51:36Z</time>
      </trkpt>
      <trkpt lat="45.62167" lon="6.52738">
        <ele>1915.6</ele>
        <time>2025-02-20T11:51:37Z</time>
      </trkpt>
      <trkpt lat="45.62167" lon="6.52738">
        <ele>1915.6</ele>
        <time>2025-02-20T11:51:38Z</time>
      </trkpt>
      <trkpt lat="45.62167" lon="6.52738">
        <ele>1915.6</ele>
        <time>2025-02-20T11:51:39Z</time>
      </trkpt>
      <trkpt lat="45.62167" lon="6.52738">
        <ele>1915</ele>
        <time>2025-02-20T11:51:40Z</time>
      </trkpt>
      <trkpt lat="45.62167" lon="6.52738">
        <ele>1914.8</ele>
        <time>2025-02-20T11:51:41Z</time>
      </trkpt>
      <trkpt lat="45.62167" lon="6.52738">
        <ele>1914.8</ele>
        <time>2025-02-20T11:51:42Z</time>
      </trkpt>
      <trkpt lat="45.62167" lon="6.52738">
        <ele>1914.8</ele>
        <time>2025-02-20T11:51:43Z</time>
      </trkpt>
      <trkpt lat="45.62167" lon="6.52738">
        <ele>1914.8</ele>
        <time>2025-02-20T11:51:44Z</time>
      </trkpt>
      <trkpt lat="45.62167" lon="6.52738">
        <ele>1915.4</ele>
        <time>2025-02-20T11:51:45Z</time>
      </trkpt>
      <trkpt lat="45.62167" lon="6.52738">
        <ele>1915.4</ele>
        <time>2025-02-20T11:51:46Z</time>
      </trkpt>
      <trkpt lat="45.62167" lon="6.52738">
        <ele>1915.4</ele>
        <time>2025-02-20T11:51:47Z</time>
      </trkpt>
      <trkpt lat="45.62167" lon="6.52738">
        <ele>1915.4</ele>
        <time>2025-02-20T11:51:48Z</time>
      </trkpt>
      <trkpt lat="45.62167" lon="6.52738">
        <ele>1916</ele>
        <time>2025-02-20T11:51:49Z</time>
      </trkpt>
      <trkpt lat="45.62167" lon="6.52738">
        <ele>1916</ele>
        <time>2025-02-20T11:51:50Z</time>
      </trkpt>
      <trkpt lat="45.62167" lon="6.52738">
        <ele>1916</ele>
        <time>2025-02-20T11:51:51Z</time>
      </trkpt>
      <trkpt lat="45.62167" lon="6.52738">
        <ele>1915.4</ele>
        <time>2025-02-20T11:51:52Z</time>
      </trkpt>
      <trkpt lat="45.62167" lon="6.52738">
        <ele>1914.8</ele>
        <time>2025-02-20T11:51:53Z</time>
      </trkpt>
      <trkpt lat="45.62167" lon="6.52738">
        <ele>1914.8</ele>
        <time>2025-02-20T11:51:54Z</time>
      </trkpt>
      <trkpt lat="45.62167" lon="6.52738">
        <ele>1914.8</ele>
        <time>2025-02-20T11:51:55Z</time>
      </trkpt>
      <trkpt lat="45.62167" lon="6.52738">
        <ele>1915.2</ele>
        <time>2025-02-20T11:51:56Z</time>
      </trkpt>
      <trkpt lat="45.62167" lon="6.52738">
        <ele>1914.8</ele>
        <time>2025-02-20T11:51:57Z</time>
      </trkpt>
      <trkpt lat="45.62167" lon="6.52738">
        <ele>1914.8</ele>
        <time>2025-02-20T11:51:58Z</time>
      </trkpt>
      <trkpt lat="45.62167" lon="6.52738">
        <ele>1914.8</ele>
        <time>2025-02-20T11:51:59Z</time>
      </trkpt>
      <trkpt lat="45.62167" lon="6.52738">
        <ele>1915.6</ele>
        <time>2025-02-20T11:52:00Z</time>
      </trkpt>
      <trkpt lat="45.62167" lon="6.52738">
        <ele>1915.6</ele>
        <time>2025-02-20T11:52:01Z</time>
      </trkpt>
      <trkpt lat="45.62167" lon="6.52738">
        <ele>1915.6</ele>
        <time>2025-02-20T11:52:02Z</time>
      </trkpt>
      <trkpt lat="45.62167" lon="6.52738">
        <ele>1915.6</ele>
        <time>2025-02-20T11:52:03Z</time>
      </trkpt>
      <trkpt lat="45.62167" lon="6.52738">
        <ele>1915.6</ele>
        <time>2025-02-20T11:52:04Z</time>
      </trkpt>
      <trkpt lat="45.62167" lon="6.52738">
        <ele>1915.6</ele>
        <time>2025-02-20T11:52:05Z</time>
      </trkpt>
      <trkpt lat="45.62167" lon="6.52738">
        <ele>1915.6</ele>
        <time>2025-02-20T11:52:06Z</time>
      </trkpt>
      <trkpt lat="45.62167" lon="6.52738">
        <ele>1915.6</ele>
        <time>2025-02-20T11:52:07Z</time>
      </trkpt>
      <trkpt lat="45.62167" lon="6.52738">
        <ele>1915.4</ele>
        <time>2025-02-20T11:52:08Z</time>
      </trkpt>
      <trkpt lat="45.62167" lon="6.52738">
        <ele>1915.2</ele>
        <time>2025-02-20T11:52:09Z</time>
      </trkpt>
      <trkpt lat="45.62167" lon="6.52738">
        <ele>1915.2</ele>
        <time>2025-02-20T11:52:10Z</time>
      </trkpt>
      <trkpt lat="45.62167" lon="6.52738">
        <ele>1915.2</ele>
        <time>2025-02-20T11:52:11Z</time>
      </trkpt>
      <trkpt lat="45.62167" lon="6.52738">
        <ele>1915.2</ele>
        <time>2025-02-20T11:52:12Z</time>
      </trkpt>
      <trkpt lat="45.62167" lon="6.52738">
        <ele>1915.2</ele>
        <time>2025-02-20T11:52:13Z</time>
      </trkpt>
      <trkpt lat="45.62167" lon="6.52738">
        <ele>1915.2</ele>
        <time>2025-02-20T11:52:14Z</time>
      </trkpt>
      <trkpt lat="45.62167" lon="6.52738">
        <ele>1915.2</ele>
        <time>2025-02-20T11:52:15Z</time>
      </trkpt>
      <trkpt lat="45.62167" lon="6.52738">
        <ele>1915.2</ele>
        <time>2025-02-20T11:52:16Z</time>
      </trkpt>
      <trkpt lat="45.62167" lon="6.52738">
        <ele>1915.4</ele>
        <time>2025-02-20T11:52:17Z</time>
      </trkpt>
      <trkpt lat="45.62167" lon="6.52738">
        <ele>1915.4</ele>
        <time>2025-02-20T11:52:18Z</time>
      </trkpt>
      <trkpt lat="45.62167" lon="6.52738">
        <ele>1915.4</ele>
        <time>2025-02-20T11:52:19Z</time>
      </trkpt>
      <trkpt lat="45.62167" lon="6.52738">
        <ele>1915.4</ele>
        <time>2025-02-20T11:52:20Z</time>
      </trkpt>
      <trkpt lat="45.62167" lon="6.52738">
        <ele>1915.4</ele>
        <time>2025-02-20T11:52:21Z</time>
      </trkpt>
      <trkpt lat="45.62167" lon="6.52738">
        <ele>1915.4</ele>
        <time>2025-02-20T11:52:22Z</time>
      </trkpt>
      <trkpt lat="45.62167" lon="6.52738">
        <ele>1915.4</ele>
        <time>2025-02-20T11:52:23Z</time>
      </trkpt>
      <trkpt lat="45.62167" lon="6.52738">
        <ele>1915.4</ele>
        <time>2025-02-20T11:52:24Z</time>
      </trkpt>
      <trkpt lat="45.62167" lon="6.52738">
        <ele>1915.4</ele>
        <time>2025-02-20T11:52:25Z</time>
      </trkpt>
      <trkpt lat="45.62167" lon="6.52738">
        <ele>1915.4</ele>
        <time>2025-02-20T11:52:26Z</time>
      </trkpt>
      <trkpt lat="45.62167" lon="6.52738">
        <ele>1915.4</ele>
        <time>2025-02-20T11:52:27Z</time>
      </trkpt>
      <trkpt lat="45.62167" lon="6.52738">
        <ele>1915.4</ele>
        <time>2025-02-20T11:52:28Z</time>
      </trkpt>
      <trkpt lat="45.62167" lon="6.52738">
        <ele>1915.4</ele>
        <time>2025-02-20T11:52:29Z</time>
      </trkpt>
      <trkpt lat="45.62167" lon="6.52738">
        <ele>1915.4</ele>
        <time>2025-02-20T11:52:30Z</time>
      </trkpt>
      <trkpt lat="45.62167" lon="6.52738">
        <ele>1915.4</ele>
        <time>2025-02-20T11:52:31Z</time>
      </trkpt>
      <trkpt lat="45.62167" lon="6.52738">
        <ele>1915.4</ele>
        <time>2025-02-20T11:52:32Z</time>
      </trkpt>
      <trkpt lat="45.62167" lon="6.52738">
        <ele>1915.2</ele>
        <time>2025-02-20T11:52:33Z</time>
      </trkpt>
      <trkpt lat="45.62167" lon="6.52738">
        <ele>1915.2</ele>
        <time>2025-02-20T11:52:34Z</time>
      </trkpt>
      <trkpt lat="45.62167" lon="6.52738">
        <ele>1915.2</ele>
        <time>2025-02-20T11:52:35Z</time>
      </trkpt>
      <trkpt lat="45.62167" lon="6.52738">
        <ele>1915.6</ele>
        <time>2025-02-20T11:52:36Z</time>
      </trkpt>
      <trkpt lat="45.62167" lon="6.52738">
        <ele>1915.2</ele>
        <time>2025-02-20T11:52:37Z</time>
      </trkpt>
      <trkpt lat="45.62167" lon="6.52738">
        <ele>1915.2</ele>
        <time>2025-02-20T11:52:38Z</time>
      </trkpt>
      <trkpt lat="45.62167" lon="6.52738">
        <ele>1915.2</ele>
        <time>2025-02-20T11:52:39Z</time>
      </trkpt>
      <trkpt lat="45.62167" lon="6.52738">
        <ele>1915.2</ele>
        <time>2025-02-20T11:52:40Z</time>
      </trkpt>
      <trkpt lat="45.62167" lon="6.52738">
        <ele>1915.2</ele>
        <time>2025-02-20T11:52:41Z</time>
      </trkpt>
      <trkpt lat="45.62167" lon="6.52738">
        <ele>1915.2</ele>
        <time>2025-02-20T11:52:42Z</time>
      </trkpt>
      <trkpt lat="45.62167" lon="6.52738">
        <ele>1915.2</ele>
        <time>2025-02-20T11:52:43Z</time>
      </trkpt>
      <trkpt lat="45.62167" lon="6.52738">
        <ele>1915.4</ele>
        <time>2025-02-20T11:52:44Z</time>
      </trkpt>
      <trkpt lat="45.62167" lon="6.52738">
        <ele>1915.2</ele>
        <time>2025-02-20T11:52:45Z</time>
      </trkpt>
      <trkpt lat="45.62167" lon="6.52738">
        <ele>1915.2</ele>
        <time>2025-02-20T11:52:46Z</time>
      </trkpt>
      <trkpt lat="45.62167" lon="6.52738">
        <ele>1915.2</ele>
        <time>2025-02-20T11:52:47Z</time>
      </trkpt>
      <trkpt lat="45.62167" lon="6.52738">
        <ele>1915.4</ele>
        <time>2025-02-20T11:52:48Z</time>
      </trkpt>
      <trkpt lat="45.62167" lon="6.52738">
        <ele>1915.4</ele>
        <time>2025-02-20T11:52:49Z</time>
      </trkpt>
      <trkpt lat="45.62167" lon="6.52738">
        <ele>1915.4</ele>
        <time>2025-02-20T11:52:50Z</time>
      </trkpt>
      <trkpt lat="45.62167" lon="6.52738">
        <ele>1915.4</ele>
        <time>2025-02-20T11:52:51Z</time>
      </trkpt>
      <trkpt lat="45.62167" lon="6.52738">
        <ele>1915.4</ele>
        <time>2025-02-20T11:52:52Z</time>
      </trkpt>
      <trkpt lat="45.62167" lon="6.52738">
        <ele>1915.4</ele>
        <time>2025-02-20T11:52:53Z</time>
      </trkpt>
      <trkpt lat="45.62167" lon="6.52738">
        <ele>1915.4</ele>
        <time>2025-02-20T11:52:54Z</time>
      </trkpt>
      <trkpt lat="45.62167" lon="6.52738">
        <ele>1915.4</ele>
        <time>2025-02-20T11:52:55Z</time>
      </trkpt>
      <trkpt lat="45.62167" lon="6.52738">
        <ele>1915.4</ele>
        <time>2025-02-20T11:52:56Z</time>
      </trkpt>
      <trkpt lat="45.62167" lon="6.52738">
        <ele>1915.4</ele>
        <time>2025-02-20T11:52:57Z</time>
      </trkpt>
      <trkpt lat="45.62167" lon="6.52738">
        <ele>1915.4</ele>
        <time>2025-02-20T11:52:58Z</time>
      </trkpt>
      <trkpt lat="45.62167" lon="6.52738">
        <ele>1915.4</ele>
        <time>2025-02-20T11:52:59Z</time>
      </trkpt>
      <trkpt lat="45.62167" lon="6.52738">
        <ele>1915.4</ele>
        <time>2025-02-20T11:53:00Z</time>
      </trkpt>
      <trkpt lat="45.62167" lon="6.52738">
        <ele>1915.4</ele>
        <time>2025-02-20T11:53:01Z</time>
      </trkpt>
      <trkpt lat="45.62167" lon="6.52738">
        <ele>1915.4</ele>
        <time>2025-02-20T11:53:02Z</time>
      </trkpt>
      <trkpt lat="45.62167" lon="6.52738">
        <ele>1915.4</ele>
        <time>2025-02-20T11:53:03Z</time>
      </trkpt>
      <trkpt lat="45.62167" lon="6.52738">
        <ele>1915.4</ele>
        <time>2025-02-20T11:53:04Z</time>
      </trkpt>
      <trkpt lat="45.62167" lon="6.52738">
        <ele>1915.4</ele>
        <time>2025-02-20T11:53:05Z</time>
      </trkpt>
      <trkpt lat="45.62167" lon="6.52738">
        <ele>1915.4</ele>
        <time>2025-02-20T11:53:06Z</time>
      </trkpt>
      <trkpt lat="45.62167" lon="6.52738">
        <ele>1915.4</ele>
        <time>2025-02-20T11:53:07Z</time>
      </trkpt>
      <trkpt lat="45.62167" lon="6.52738">
        <ele>1915.4</ele>
        <time>2025-02-20T11:53:08Z</time>
      </trkpt>
      <trkpt lat="45.62167" lon="6.52738">
        <ele>1915.4</ele>
        <time>2025-02-20T11:53:09Z</time>
      </trkpt>
      <trkpt lat="45.62167" lon="6.52738">
        <ele>1915.4</ele>
        <time>2025-02-20T11:53:10Z</time>
      </trkpt>
      <trkpt lat="45.62167" lon="6.52738">
        <ele>1915.4</ele>
        <time>2025-02-20T11:53:11Z</time>
      </trkpt>
      <trkpt lat="45.62167" lon="6.52738">
        <ele>1915.4</ele>
        <time>2025-02-20T11:53:12Z</time>
      </trkpt>
      <trkpt lat="45.62167" lon="6.52738">
        <ele>1915.6</ele>
        <time>2025-02-20T11:53:13Z</time>
      </trkpt>
      <trkpt lat="45.62167" lon="6.52738">
        <ele>1915.6</ele>
        <time>2025-02-20T11:53:14Z</time>
      </trkpt>
      <trkpt lat="45.62166" lon="6.52737">
        <ele>1915.6</ele>
        <time>2025-02-20T11:53:15Z</time>
      </trkpt>
      <trkpt lat="45.62166" lon="6.52736">
        <ele>1915.6</ele>
        <time>2025-02-20T11:53:16Z</time>
      </trkpt>
      <trkpt lat="45.62166" lon="6.52734">
        <ele>1915.4</ele>
        <time>2025-02-20T11:53:17Z</time>
      </trkpt>
      <trkpt lat="45.62165" lon="6.52734">
        <ele>1915.4</ele>
        <time>2025-02-20T11:53:18Z</time>
      </trkpt>
      <trkpt lat="45.62165" lon="6.52732">
        <ele>1915.4</ele>
        <time>2025-02-20T11:53:19Z</time>
      </trkpt>
      <trkpt lat="45.62165" lon="6.52731">
        <ele>1915.4</ele>
        <time>2025-02-20T11:53:20Z</time>
      </trkpt>
      <trkpt lat="45.62165" lon="6.5273">
        <ele>1915.2</ele>
        <time>2025-02-20T11:53:21Z</time>
      </trkpt>
      <trkpt lat="45.62165" lon="6.52729">
        <ele>1915.2</ele>
        <time>2025-02-20T11:53:22Z</time>
      </trkpt>
      <trkpt lat="45.62165" lon="6.52728">
        <ele>1915.2</ele>
        <time>2025-02-20T11:53:23Z</time>
      </trkpt>
      <trkpt lat="45.62164" lon="6.52727">
        <ele>1915.6</ele>
        <time>2025-02-20T11:53:24Z</time>
      </trkpt>
      <trkpt lat="45.62164" lon="6.52726">
        <ele>1916</ele>
        <time>2025-02-20T11:53:25Z</time>
      </trkpt>
      <trkpt lat="45.62163" lon="6.52725">
        <ele>1916</ele>
        <time>2025-02-20T11:53:26Z</time>
      </trkpt>
      <trkpt lat="45.62163" lon="6.52724">
        <ele>1916</ele>
        <time>2025-02-20T11:53:27Z</time>
      </trkpt>
      <trkpt lat="45.62162" lon="6.52723">
        <ele>1916</ele>
        <time>2025-02-20T11:53:28Z</time>
      </trkpt>
      <trkpt lat="45.62162" lon="6.52722">
        <ele>1915.2</ele>
        <time>2025-02-20T11:53:29Z</time>
      </trkpt>
      <trkpt lat="45.62161" lon="6.52721">
        <ele>1915.2</ele>
        <time>2025-02-20T11:53:30Z</time>
      </trkpt>
      <trkpt lat="45.62161" lon="6.5272">
        <ele>1915.2</ele>
        <time>2025-02-20T11:53:31Z</time>
      </trkpt>
      <trkpt lat="45.6216" lon="6.52719">
        <ele>1916</ele>
        <time>2025-02-20T11:53:32Z</time>
      </trkpt>
      <trkpt lat="45.6216" lon="6.52718">
        <ele>1915.2</ele>
        <time>2025-02-20T11:53:33Z</time>
      </trkpt>
      <trkpt lat="45.62158" lon="6.52717">
        <ele>1915.2</ele>
        <time>2025-02-20T11:53:34Z</time>
      </trkpt>
      <trkpt lat="45.62157" lon="6.52716">
        <ele>1915.2</ele>
        <time>2025-02-20T11:53:35Z</time>
      </trkpt>
      <trkpt lat="45.62156" lon="6.52714">
        <ele>1915.4</ele>
        <time>2025-02-20T11:53:36Z</time>
      </trkpt>
      <trkpt lat="45.62156" lon="6.52713">
        <ele>1915.8</ele>
        <time>2025-02-20T11:53:37Z</time>
      </trkpt>
      <trkpt lat="45.62155" lon="6.52712">
        <ele>1915.8</ele>
        <time>2025-02-20T11:53:38Z</time>
      </trkpt>
      <trkpt lat="45.62155" lon="6.52711">
        <ele>1915.8</ele>
        <time>2025-02-20T11:53:39Z</time>
      </trkpt>
      <trkpt lat="45.62154" lon="6.5271">
        <ele>1915.2</ele>
        <time>2025-02-20T11:53:40Z</time>
      </trkpt>
      <trkpt lat="45.62153" lon="6.52709">
        <ele>1915.6</ele>
        <time>2025-02-20T11:53:41Z</time>
      </trkpt>
      <trkpt lat="45.62153" lon="6.52708">
        <ele>1915.6</ele>
        <time>2025-02-20T11:53:42Z</time>
      </trkpt>
      <trkpt lat="45.62152" lon="6.52707">
        <ele>1915.6</ele>
        <time>2025-02-20T11:53:43Z</time>
      </trkpt>
      <trkpt lat="45.62152" lon="6.52706">
        <ele>1914.8</ele>
        <time>2025-02-20T11:53:44Z</time>
      </trkpt>
      <trkpt lat="45.62151" lon="6.52705">
        <ele>1914.8</ele>
        <time>2025-02-20T11:53:45Z</time>
      </trkpt>
      <trkpt lat="45.62151" lon="6.52704">
        <ele>1914.8</ele>
        <time>2025-02-20T11:53:46Z</time>
      </trkpt>
      <trkpt lat="45.6215" lon="6.52703">
        <ele>1914.8</ele>
        <time>2025-02-20T11:53:47Z</time>
      </trkpt>
      <trkpt lat="45.62149" lon="6.52702">
        <ele>1914.8</ele>
        <time>2025-02-20T11:53:48Z</time>
      </trkpt>
      <trkpt lat="45.62149" lon="6.52701">
        <ele>1915.6</ele>
        <time>2025-02-20T11:53:49Z</time>
      </trkpt>
      <trkpt lat="45.62148" lon="6.52699">
        <ele>1915.6</ele>
        <time>2025-02-20T11:53:50Z</time>
      </trkpt>
      <trkpt lat="45.62147" lon="6.52698">
        <ele>1915.6</ele>
        <time>2025-02-20T11:53:51Z</time>
      </trkpt>
      <trkpt lat="45.62146" lon="6.52697">
        <ele>1914.8</ele>
        <time>2025-02-20T11:53:52Z</time>
      </trkpt>
      <trkpt lat="45.62146" lon="6.52696">
        <ele>1914.6</ele>
        <time>2025-02-20T11:53:53Z</time>
      </trkpt>
      <trkpt lat="45.62145" lon="6.52695">
        <ele>1914.6</ele>
        <time>2025-02-20T11:53:54Z</time>
      </trkpt>
      <trkpt lat="45.62145" lon="6.52695">
        <ele>1914.6</ele>
        <time>2025-02-20T11:53:55Z</time>
      </trkpt>
      <trkpt lat="45.62144" lon="6.52693">
        <ele>1914.6</ele>
        <time>2025-02-20T11:53:56Z</time>
      </trkpt>
      <trkpt lat="45.62143" lon="6.52692">
        <ele>1915</ele>
        <time>2025-02-20T11:53:57Z</time>
      </trkpt>
      <trkpt lat="45.62143" lon="6.52692">
        <ele>1915</ele>
        <time>2025-02-20T11:53:58Z</time>
      </trkpt>
      <trkpt lat="45.62142" lon="6.5269">
        <ele>1915</ele>
        <time>2025-02-20T11:53:59Z</time>
      </trkpt>
      <trkpt lat="45.62142" lon="6.52689">
        <ele>1915</ele>
        <time>2025-02-20T11:54:00Z</time>
      </trkpt>
      <trkpt lat="45.62142" lon="6.52688">
        <ele>1914</ele>
        <time>2025-02-20T11:54:01Z</time>
      </trkpt>
      <trkpt lat="45.62141" lon="6.52688">
        <ele>1914</ele>
        <time>2025-02-20T11:54:02Z</time>
      </trkpt>
      <trkpt lat="45.62141" lon="6.52687">
        <ele>1914</ele>
        <time>2025-02-20T11:54:03Z</time>
      </trkpt>
      <trkpt lat="45.6214" lon="6.52686">
        <ele>1915</ele>
        <time>2025-02-20T11:54:04Z</time>
      </trkpt>
      <trkpt lat="45.62139" lon="6.52685">
        <ele>1914.8</ele>
        <time>2025-02-20T11:54:05Z</time>
      </trkpt>
      <trkpt lat="45.62138" lon="6.52684">
        <ele>1914.8</ele>
        <time>2025-02-20T11:54:06Z</time>
      </trkpt>
      <trkpt lat="45.62138" lon="6.52683">
        <ele>1914.8</ele>
        <time>2025-02-20T11:54:07Z</time>
      </trkpt>
      <trkpt lat="45.62137" lon="6.52682">
        <ele>1914.8</ele>
        <time>2025-02-20T11:54:08Z</time>
      </trkpt>
      <trkpt lat="45.62137" lon="6.52681">
        <ele>1915</ele>
        <time>2025-02-20T11:54:09Z</time>
      </trkpt>
      <trkpt lat="45.62137" lon="6.5268">
        <ele>1915</ele>
        <time>2025-02-20T11:54:10Z</time>
      </trkpt>
      <trkpt lat="45.62137" lon="6.52679">
        <ele>1915</ele>
        <time>2025-02-20T11:54:11Z</time>
      </trkpt>
      <trkpt lat="45.62137" lon="6.52679">
        <ele>1915</ele>
        <time>2025-02-20T11:54:12Z</time>
      </trkpt>
      <trkpt lat="45.62136" lon="6.52678">
        <ele>1914.4</ele>
        <time>2025-02-20T11:54:13Z</time>
      </trkpt>
      <trkpt lat="45.62135" lon="6.52676">
        <ele>1914.4</ele>
        <time>2025-02-20T11:54:14Z</time>
      </trkpt>
      <trkpt lat="45.62135" lon="6.52676">
        <ele>1914.4</ele>
        <time>2025-02-20T11:54:15Z</time>
      </trkpt>
      <trkpt lat="45.62135" lon="6.52674">
        <ele>1914.4</ele>
        <time>2025-02-20T11:54:16Z</time>
      </trkpt>
      <trkpt lat="45.62134" lon="6.52674">
        <ele>1915.6</ele>
        <time>2025-02-20T11:54:17Z</time>
      </trkpt>
      <trkpt lat="45.62134" lon="6.52673">
        <ele>1915.6</ele>
        <time>2025-02-20T11:54:18Z</time>
      </trkpt>
      <trkpt lat="45.62133" lon="6.52672">
        <ele>1915.6</ele>
        <time>2025-02-20T11:54:19Z</time>
      </trkpt>
      <trkpt lat="45.62133" lon="6.5267">
        <ele>1915</ele>
        <time>2025-02-20T11:54:20Z</time>
      </trkpt>
      <trkpt lat="45.62133" lon="6.52669">
        <ele>1914.6</ele>
        <time>2025-02-20T11:54:21Z</time>
      </trkpt>
      <trkpt lat="45.62132" lon="6.52669">
        <ele>1914.6</ele>
        <time>2025-02-20T11:54:22Z</time>
      </trkpt>
      <trkpt lat="45.62132" lon="6.52668">
        <ele>1914.6</ele>
        <time>2025-02-20T11:54:23Z</time>
      </trkpt>
      <trkpt lat="45.62132" lon="6.52667">
        <ele>1915.2</ele>
        <time>2025-02-20T11:54:24Z</time>
      </trkpt>
      <trkpt lat="45.62131" lon="6.52666">
        <ele>1914.4</ele>
        <time>2025-02-20T11:54:25Z</time>
      </trkpt>
      <trkpt lat="45.62131" lon="6.52665">
        <ele>1914.4</ele>
        <time>2025-02-20T11:54:26Z</time>
      </trkpt>
      <trkpt lat="45.6213" lon="6.52664">
        <ele>1914.4</ele>
        <time>2025-02-20T11:54:27Z</time>
      </trkpt>
      <trkpt lat="45.6213" lon="6.52663">
        <ele>1915.4</ele>
        <time>2025-02-20T11:54:28Z</time>
      </trkpt>
      <trkpt lat="45.6213" lon="6.52662">
        <ele>1915.8</ele>
        <time>2025-02-20T11:54:29Z</time>
      </trkpt>
      <trkpt lat="45.62129" lon="6.52661">
        <ele>1915.8</ele>
        <time>2025-02-20T11:54:30Z</time>
      </trkpt>
      <trkpt lat="45.62129" lon="6.52659">
        <ele>1915.8</ele>
        <time>2025-02-20T11:54:31Z</time>
      </trkpt>
      <trkpt lat="45.62128" lon="6.52658">
        <ele>1915.8</ele>
        <time>2025-02-20T11:54:32Z</time>
      </trkpt>
      <trkpt lat="45.62128" lon="6.52657">
        <ele>1916</ele>
        <time>2025-02-20T11:54:33Z</time>
      </trkpt>
      <trkpt lat="45.62127" lon="6.52656">
        <ele>1916</ele>
        <time>2025-02-20T11:54:34Z</time>
      </trkpt>
      <trkpt lat="45.62127" lon="6.52655">
        <ele>1916</ele>
        <time>2025-02-20T11:54:35Z</time>
      </trkpt>
      <trkpt lat="45.62126" lon="6.52654">
        <ele>1915.2</ele>
        <time>2025-02-20T11:54:36Z</time>
      </trkpt>
      <trkpt lat="45.62126" lon="6.52653">
        <ele>1915.8</ele>
        <time>2025-02-20T11:54:37Z</time>
      </trkpt>
      <trkpt lat="45.62126" lon="6.52652">
        <ele>1915.8</ele>
        <time>2025-02-20T11:54:38Z</time>
      </trkpt>
      <trkpt lat="45.62125" lon="6.52651">
        <ele>1915.8</ele>
        <time>2025-02-20T11:54:39Z</time>
      </trkpt>
      <trkpt lat="45.62125" lon="6.5265">
        <ele>1915.8</ele>
        <time>2025-02-20T11:54:40Z</time>
      </trkpt>
      <trkpt lat="45.62125" lon="6.52649">
        <ele>1916</ele>
        <time>2025-02-20T11:54:41Z</time>
      </trkpt>
      <trkpt lat="45.62125" lon="6.52648">
        <ele>1916</ele>
        <time>2025-02-20T11:54:42Z</time>
      </trkpt>
      <trkpt lat="45.62124" lon="6.52647">
        <ele>1916</ele>
        <time>2025-02-20T11:54:43Z</time>
      </trkpt>
      <trkpt lat="45.62124" lon="6.52646">
        <ele>1916</ele>
        <time>2025-02-20T11:54:44Z</time>
      </trkpt>
      <trkpt lat="45.62124" lon="6.52645">
        <ele>1916.4</ele>
        <time>2025-02-20T11:54:45Z</time>
      </trkpt>
      <trkpt lat="45.62123" lon="6.52644">
        <ele>1916.4</ele>
        <time>2025-02-20T11:54:46Z</time>
      </trkpt>
      <trkpt lat="45.62123" lon="6.52643">
        <ele>1916.4</ele>
        <time>2025-02-20T11:54:47Z</time>
      </trkpt>
      <trkpt lat="45.62123" lon="6.52642">
        <ele>1916.4</ele>
        <time>2025-02-20T11:54:48Z</time>
      </trkpt>
      <trkpt lat="45.62122" lon="6.52641">
        <ele>1916</ele>
        <time>2025-02-20T11:54:49Z</time>
      </trkpt>
      <trkpt lat="45.62121" lon="6.5264">
        <ele>1916</ele>
        <time>2025-02-20T11:54:50Z</time>
      </trkpt>
      <trkpt lat="45.62121" lon="6.5264">
        <ele>1916</ele>
        <time>2025-02-20T11:54:51Z</time>
      </trkpt>
      <trkpt lat="45.62121" lon="6.52639">
        <ele>1916</ele>
        <time>2025-02-20T11:54:52Z</time>
      </trkpt>
      <trkpt lat="45.62121" lon="6.52638">
        <ele>1917.4</ele>
        <time>2025-02-20T11:54:53Z</time>
      </trkpt>
      <trkpt lat="45.62121" lon="6.52637">
        <ele>1917.4</ele>
        <time>2025-02-20T11:54:54Z</time>
      </trkpt>
      <trkpt lat="45.62121" lon="6.52636">
        <ele>1917.4</ele>
        <time>2025-02-20T11:54:55Z</time>
      </trkpt>
      <trkpt lat="45.6212" lon="6.52635">
        <ele>1917.4</ele>
        <time>2025-02-20T11:54:56Z</time>
      </trkpt>
      <trkpt lat="45.6212" lon="6.52634">
        <ele>1916.8</ele>
        <time>2025-02-20T11:54:57Z</time>
      </trkpt>
      <trkpt lat="45.6212" lon="6.52633">
        <ele>1916.8</ele>
        <time>2025-02-20T11:54:58Z</time>
      </trkpt>
      <trkpt lat="45.6212" lon="6.52633">
        <ele>1916.8</ele>
        <time>2025-02-20T11:54:59Z</time>
      </trkpt>
      <trkpt lat="45.6212" lon="6.52632">
        <ele>1916.8</ele>
        <time>2025-02-20T11:55:00Z</time>
      </trkpt>
      <trkpt lat="45.62119" lon="6.52631">
        <ele>1917.6</ele>
        <time>2025-02-20T11:55:01Z</time>
      </trkpt>
      <trkpt lat="45.62119" lon="6.5263">
        <ele>1917.6</ele>
        <time>2025-02-20T11:55:02Z</time>
      </trkpt>
      <trkpt lat="45.62119" lon="6.5263">
        <ele>1917.6</ele>
        <time>2025-02-20T11:55:03Z</time>
      </trkpt>
      <trkpt lat="45.62119" lon="6.52629">
        <ele>1917.8</ele>
        <time>2025-02-20T11:55:04Z</time>
      </trkpt>
      <trkpt lat="45.62118" lon="6.52629">
        <ele>1917</ele>
        <time>2025-02-20T11:55:05Z</time>
      </trkpt>
      <trkpt lat="45.62118" lon="6.52627">
        <ele>1917</ele>
        <time>2025-02-20T11:55:06Z</time>
      </trkpt>
      <trkpt lat="45.62118" lon="6.52627">
        <ele>1917</ele>
        <time>2025-02-20T11:55:07Z</time>
      </trkpt>
      <trkpt lat="45.62118" lon="6.52626">
        <ele>1917.2</ele>
        <time>2025-02-20T11:55:08Z</time>
      </trkpt>
      <trkpt lat="45.62118" lon="6.52625">
        <ele>1918</ele>
        <time>2025-02-20T11:55:09Z</time>
      </trkpt>
      <trkpt lat="45.62118" lon="6.52625">
        <ele>1918</ele>
        <time>2025-02-20T11:55:10Z</time>
      </trkpt>
      <trkpt lat="45.62117" lon="6.52623">
        <ele>1918</ele>
        <time>2025-02-20T11:55:11Z</time>
      </trkpt>
      <trkpt lat="45.62117" lon="6.52623">
        <ele>1918</ele>
        <time>2025-02-20T11:55:12Z</time>
      </trkpt>
      <trkpt lat="45.62116" lon="6.52622">
        <ele>1917.6</ele>
        <time>2025-02-20T11:55:13Z</time>
      </trkpt>
      <trkpt lat="45.62116" lon="6.52621">
        <ele>1917.6</ele>
        <time>2025-02-20T11:55:14Z</time>
      </trkpt>
      <trkpt lat="45.62115" lon="6.5262">
        <ele>1917.6</ele>
        <time>2025-02-20T11:55:15Z</time>
      </trkpt>
      <trkpt lat="45.62115" lon="6.52619">
        <ele>1917.6</ele>
        <time>2025-02-20T11:55:16Z</time>
      </trkpt>
      <trkpt lat="45.62115" lon="6.52618">
        <ele>1919</ele>
        <time>2025-02-20T11:55:17Z</time>
      </trkpt>
      <trkpt lat="45.62114" lon="6.52618">
        <ele>1919</ele>
        <time>2025-02-20T11:55:18Z</time>
      </trkpt>
      <trkpt lat="45.62114" lon="6.52617">
        <ele>1919</ele>
        <time>2025-02-20T11:55:19Z</time>
      </trkpt>
      <trkpt lat="45.62114" lon="6.52616">
        <ele>1919</ele>
        <time>2025-02-20T11:55:20Z</time>
      </trkpt>
      <trkpt lat="45.62113" lon="6.52615">
        <ele>1918.8</ele>
        <time>2025-02-20T11:55:21Z</time>
      </trkpt>
      <trkpt lat="45.62113" lon="6.52615">
        <ele>1918.8</ele>
        <time>2025-02-20T11:55:22Z</time>
      </trkpt>
      <trkpt lat="45.62113" lon="6.52615">
        <ele>1918.8</ele>
        <time>2025-02-20T11:55:23Z</time>
      </trkpt>
      <trkpt lat="45.62112" lon="6.52614">
        <ele>1918.6</ele>
        <time>2025-02-20T11:55:24Z</time>
      </trkpt>
      <trkpt lat="45.62112" lon="6.52614">
        <ele>1918.2</ele>
        <time>2025-02-20T11:55:25Z</time>
      </trkpt>
      <trkpt lat="45.62112" lon="6.52613">
        <ele>1918.2</ele>
        <time>2025-02-20T11:55:26Z</time>
      </trkpt>
      <trkpt lat="45.62112" lon="6.52612">
        <ele>1918.2</ele>
        <time>2025-02-20T11:55:27Z</time>
      </trkpt>
      <trkpt lat="45.62112" lon="6.52611">
        <ele>1919.2</ele>
        <time>2025-02-20T11:55:28Z</time>
      </trkpt>
      <trkpt lat="45.62111" lon="6.52611">
        <ele>1919.8</ele>
        <time>2025-02-20T11:55:29Z</time>
      </trkpt>
      <trkpt lat="45.62111" lon="6.52611">
        <ele>1919.8</ele>
        <time>2025-02-20T11:55:30Z</time>
      </trkpt>
      <trkpt lat="45.62111" lon="6.52611">
        <ele>1919.8</ele>
        <time>2025-02-20T11:55:31Z</time>
      </trkpt>
      <trkpt lat="45.62111" lon="6.52609">
        <ele>1919.8</ele>
        <time>2025-02-20T11:55:32Z</time>
      </trkpt>
      <trkpt lat="45.62111" lon="6.52609">
        <ele>1920.4</ele>
        <time>2025-02-20T11:55:33Z</time>
      </trkpt>
      <trkpt lat="45.62111" lon="6.52609">
        <ele>1920.4</ele>
        <time>2025-02-20T11:55:34Z</time>
      </trkpt>
      <trkpt lat="45.6211" lon="6.52607">
        <ele>1920.4</ele>
        <time>2025-02-20T11:55:35Z</time>
      </trkpt>
      <trkpt lat="45.6211" lon="6.52607">
        <ele>1920.4</ele>
        <time>2025-02-20T11:55:36Z</time>
      </trkpt>
      <trkpt lat="45.6211" lon="6.52606">
        <ele>1920.8</ele>
        <time>2025-02-20T11:55:37Z</time>
      </trkpt>
      <trkpt lat="45.62109" lon="6.52605">
        <ele>1920.8</ele>
        <time>2025-02-20T11:55:38Z</time>
      </trkpt>
      <trkpt lat="45.62109" lon="6.52605">
        <ele>1920.8</ele>
        <time>2025-02-20T11:55:39Z</time>
      </trkpt>
      <trkpt lat="45.62109" lon="6.52604">
        <ele>1921</ele>
        <time>2025-02-20T11:55:40Z</time>
      </trkpt>
      <trkpt lat="45.62109" lon="6.52604">
        <ele>1921.2</ele>
        <time>2025-02-20T11:55:41Z</time>
      </trkpt>
      <trkpt lat="45.62109" lon="6.52604">
        <ele>1921.2</ele>
        <time>2025-02-20T11:55:42Z</time>
      </trkpt>
      <trkpt lat="45.62108" lon="6.52602">
        <ele>1921.2</ele>
        <time>2025-02-20T11:55:43Z</time>
      </trkpt>
      <trkpt lat="45.62108" lon="6.52602">
        <ele>1920.6</ele>
        <time>2025-02-20T11:55:44Z</time>
      </trkpt>
      <trkpt lat="45.62108" lon="6.52601">
        <ele>1920.2</ele>
        <time>2025-02-20T11:55:45Z</time>
      </trkpt>
      <trkpt lat="45.62107" lon="6.526">
        <ele>1920.2</ele>
        <time>2025-02-20T11:55:46Z</time>
      </trkpt>
      <trkpt lat="45.62107" lon="6.526">
        <ele>1920.2</ele>
        <time>2025-02-20T11:55:47Z</time>
      </trkpt>
      <trkpt lat="45.62106" lon="6.52599">
        <ele>1920.2</ele>
        <time>2025-02-20T11:55:48Z</time>
      </trkpt>
      <trkpt lat="45.62105" lon="6.52598">
        <ele>1920.8</ele>
        <time>2025-02-20T11:55:49Z</time>
      </trkpt>
      <trkpt lat="45.62105" lon="6.52598">
        <ele>1920.8</ele>
        <time>2025-02-20T11:55:50Z</time>
      </trkpt>
      <trkpt lat="45.62104" lon="6.52597">
        <ele>1920.8</ele>
        <time>2025-02-20T11:55:51Z</time>
      </trkpt>
      <trkpt lat="45.62104" lon="6.52596">
        <ele>1920.8</ele>
        <time>2025-02-20T11:55:52Z</time>
      </trkpt>
      <trkpt lat="45.62103" lon="6.52595">
        <ele>1922.6</ele>
        <time>2025-02-20T11:55:53Z</time>
      </trkpt>
      <trkpt lat="45.62103" lon="6.52595">
        <ele>1922.6</ele>
        <time>2025-02-20T11:55:54Z</time>
      </trkpt>
      <trkpt lat="45.62102" lon="6.52594">
        <ele>1922.6</ele>
        <time>2025-02-20T11:55:55Z</time>
      </trkpt>
      <trkpt lat="45.62102" lon="6.52593">
        <ele>1922.6</ele>
        <time>2025-02-20T11:55:56Z</time>
      </trkpt>
      <trkpt lat="45.62102" lon="6.52593">
        <ele>1923</ele>
        <time>2025-02-20T11:55:57Z</time>
      </trkpt>
      <trkpt lat="45.62102" lon="6.52593">
        <ele>1923</ele>
        <time>2025-02-20T11:55:58Z</time>
      </trkpt>
      <trkpt lat="45.62102" lon="6.52593">
        <ele>1923</ele>
        <time>2025-02-20T11:55:59Z</time>
      </trkpt>
      <trkpt lat="45.62102" lon="6.52593">
        <ele>1923</ele>
        <time>2025-02-20T11:56:00Z</time>
      </trkpt>
      <trkpt lat="45.62102" lon="6.52593">
        <ele>1924</ele>
        <time>2025-02-20T11:56:01Z</time>
      </trkpt>
      <trkpt lat="45.62102" lon="6.52591">
        <ele>1924</ele>
        <time>2025-02-20T11:56:02Z</time>
      </trkpt>
      <trkpt lat="45.62101" lon="6.52591">
        <ele>1924</ele>
        <time>2025-02-20T11:56:03Z</time>
      </trkpt>
      <trkpt lat="45.62101" lon="6.52589">
        <ele>1923.6</ele>
        <time>2025-02-20T11:56:04Z</time>
      </trkpt>
      <trkpt lat="45.62101" lon="6.52588">
        <ele>1924</ele>
        <time>2025-02-20T11:56:05Z</time>
      </trkpt>
      <trkpt lat="45.62099" lon="6.52587">
        <ele>1924</ele>
        <time>2025-02-20T11:56:06Z</time>
      </trkpt>
      <trkpt lat="45.62099" lon="6.52586">
        <ele>1924</ele>
        <time>2025-02-20T11:56:07Z</time>
      </trkpt>
      <trkpt lat="45.62098" lon="6.52586">
        <ele>1924</ele>
        <time>2025-02-20T11:56:08Z</time>
      </trkpt>
      <trkpt lat="45.62099" lon="6.52585">
        <ele>1924</ele>
        <time>2025-02-20T11:56:09Z</time>
      </trkpt>
      <trkpt lat="45.62098" lon="6.52584">
        <ele>1924</ele>
        <time>2025-02-20T11:56:10Z</time>
      </trkpt>
      <trkpt lat="45.62097" lon="6.52583">
        <ele>1924</ele>
        <time>2025-02-20T11:56:11Z</time>
      </trkpt>
      <trkpt lat="45.62097" lon="6.52582">
        <ele>1924</ele>
        <time>2025-02-20T11:56:12Z</time>
      </trkpt>
      <trkpt lat="45.62097" lon="6.52582">
        <ele>1924.4</ele>
        <time>2025-02-20T11:56:13Z</time>
      </trkpt>
      <trkpt lat="45.62096" lon="6.52581">
        <ele>1924.4</ele>
        <time>2025-02-20T11:56:14Z</time>
      </trkpt>
      <trkpt lat="45.62096" lon="6.52581">
        <ele>1924.4</ele>
        <time>2025-02-20T11:56:15Z</time>
      </trkpt>
      <trkpt lat="45.62096" lon="6.5258">
        <ele>1924.4</ele>
        <time>2025-02-20T11:56:16Z</time>
      </trkpt>
      <trkpt lat="45.62095" lon="6.52579">
        <ele>1924.4</ele>
        <time>2025-02-20T11:56:17Z</time>
      </trkpt>
      <trkpt lat="45.62095" lon="6.52579">
        <ele>1924.4</ele>
        <time>2025-02-20T11:56:18Z</time>
      </trkpt>
      <trkpt lat="45.62095" lon="6.52578">
        <ele>1924.4</ele>
        <time>2025-02-20T11:56:19Z</time>
      </trkpt>
      <trkpt lat="45.62094" lon="6.52578">
        <ele>1925</ele>
        <time>2025-02-20T11:56:20Z</time>
      </trkpt>
      <trkpt lat="45.62094" lon="6.52577">
        <ele>1924.6</ele>
        <time>2025-02-20T11:56:21Z</time>
      </trkpt>
      <trkpt lat="45.62094" lon="6.52576">
        <ele>1924.6</ele>
        <time>2025-02-20T11:56:22Z</time>
      </trkpt>
      <trkpt lat="45.62094" lon="6.52576">
        <ele>1924.6</ele>
        <time>2025-02-20T11:56:23Z</time>
      </trkpt>
      <trkpt lat="45.62094" lon="6.52575">
        <ele>1924.6</ele>
        <time>2025-02-20T11:56:24Z</time>
      </trkpt>
      <trkpt lat="45.62093" lon="6.52575">
        <ele>1924</ele>
        <time>2025-02-20T11:56:25Z</time>
      </trkpt>
      <trkpt lat="45.62092" lon="6.52574">
        <ele>1924</ele>
        <time>2025-02-20T11:56:26Z</time>
      </trkpt>
      <trkpt lat="45.62092" lon="6.52573">
        <ele>1924</ele>
        <time>2025-02-20T11:56:27Z</time>
      </trkpt>
      <trkpt lat="45.62091" lon="6.52573">
        <ele>1925</ele>
        <time>2025-02-20T11:56:28Z</time>
      </trkpt>
      <trkpt lat="45.62091" lon="6.52572">
        <ele>1925.8</ele>
        <time>2025-02-20T11:56:29Z</time>
      </trkpt>
      <trkpt lat="45.62091" lon="6.52571">
        <ele>1925.8</ele>
        <time>2025-02-20T11:56:30Z</time>
      </trkpt>
      <trkpt lat="45.62091" lon="6.52571">
        <ele>1925.8</ele>
        <time>2025-02-20T11:56:31Z</time>
      </trkpt>
      <trkpt lat="45.6209" lon="6.5257">
        <ele>1926.8</ele>
        <time>2025-02-20T11:56:32Z</time>
      </trkpt>
      <trkpt lat="45.6209" lon="6.52569">
        <ele>1926.4</ele>
        <time>2025-02-20T11:56:33Z</time>
      </trkpt>
      <trkpt lat="45.62089" lon="6.52568">
        <ele>1926.4</ele>
        <time>2025-02-20T11:56:34Z</time>
      </trkpt>
      <trkpt lat="45.62089" lon="6.52568">
        <ele>1926.4</ele>
        <time>2025-02-20T11:56:35Z</time>
      </trkpt>
      <trkpt lat="45.62089" lon="6.52568">
        <ele>1927.4</ele>
        <time>2025-02-20T11:56:36Z</time>
      </trkpt>
      <trkpt lat="45.62089" lon="6.52568">
        <ele>1927.6</ele>
        <time>2025-02-20T11:56:37Z</time>
      </trkpt>
      <trkpt lat="45.62089" lon="6.52568">
        <ele>1927.6</ele>
        <time>2025-02-20T11:56:38Z</time>
      </trkpt>
      <trkpt lat="45.62089" lon="6.52568">
        <ele>1927.6</ele>
        <time>2025-02-20T11:56:39Z</time>
      </trkpt>
      <trkpt lat="45.62089" lon="6.52568">
        <ele>1927.6</ele>
        <time>2025-02-20T11:56:40Z</time>
      </trkpt>
      <trkpt lat="45.62089" lon="6.52568">
        <ele>1927.2</ele>
        <time>2025-02-20T11:56:41Z</time>
      </trkpt>
      <trkpt lat="45.62089" lon="6.52568">
        <ele>1927.2</ele>
        <time>2025-02-20T11:56:42Z</time>
      </trkpt>
      <trkpt lat="45.62089" lon="6.52568">
        <ele>1927.2</ele>
        <time>2025-02-20T11:56:43Z</time>
      </trkpt>
      <trkpt lat="45.62089" lon="6.52568">
        <ele>1927.2</ele>
        <time>2025-02-20T11:56:44Z</time>
      </trkpt>
      <trkpt lat="45.62089" lon="6.52568">
        <ele>1927.2</ele>
        <time>2025-02-20T11:56:45Z</time>
      </trkpt>
      <trkpt lat="45.62089" lon="6.52568">
        <ele>1927.2</ele>
        <time>2025-02-20T11:56:46Z</time>
      </trkpt>
      <trkpt lat="45.62089" lon="6.52568">
        <ele>1927.2</ele>
        <time>2025-02-20T11:56:47Z</time>
      </trkpt>
      <trkpt lat="45.62087" lon="6.52564">
        <ele>1927.2</ele>
        <time>2025-02-20T11:56:48Z</time>
      </trkpt>
      <trkpt lat="45.62086" lon="6.52564">
        <ele>1928</ele>
        <time>2025-02-20T11:56:49Z</time>
      </trkpt>
      <trkpt lat="45.62086" lon="6.52564">
        <ele>1928</ele>
        <time>2025-02-20T11:56:50Z</time>
      </trkpt>
      <trkpt lat="45.62086" lon="6.52562">
        <ele>1928</ele>
        <time>2025-02-20T11:56:51Z</time>
      </trkpt>
      <trkpt lat="45.62086" lon="6.52562">
        <ele>1928</ele>
        <time>2025-02-20T11:56:52Z</time>
      </trkpt>
      <trkpt lat="45.62085" lon="6.5256">
        <ele>1927.8</ele>
        <time>2025-02-20T11:56:53Z</time>
      </trkpt>
      <trkpt lat="45.62085" lon="6.5256">
        <ele>1927.8</ele>
        <time>2025-02-20T11:56:54Z</time>
      </trkpt>
      <trkpt lat="45.62085" lon="6.52559">
        <ele>1927.8</ele>
        <time>2025-02-20T11:56:55Z</time>
      </trkpt>
      <trkpt lat="45.62085" lon="6.52558">
        <ele>1928.6</ele>
        <time>2025-02-20T11:56:56Z</time>
      </trkpt>
      <trkpt lat="45.62084" lon="6.52557">
        <ele>1928.8</ele>
        <time>2025-02-20T11:56:57Z</time>
      </trkpt>
      <trkpt lat="45.62084" lon="6.52556">
        <ele>1928.8</ele>
        <time>2025-02-20T11:56:58Z</time>
      </trkpt>
      <trkpt lat="45.62083" lon="6.52555">
        <ele>1928.8</ele>
        <time>2025-02-20T11:56:59Z</time>
      </trkpt>
      <trkpt lat="45.62083" lon="6.52554">
        <ele>1929.8</ele>
        <time>2025-02-20T11:57:00Z</time>
      </trkpt>
      <trkpt lat="45.62082" lon="6.52553">
        <ele>1930</ele>
        <time>2025-02-20T11:57:01Z</time>
      </trkpt>
      <trkpt lat="45.62083" lon="6.52553">
        <ele>1930</ele>
        <time>2025-02-20T11:57:02Z</time>
      </trkpt>
      <trkpt lat="45.62083" lon="6.52553">
        <ele>1930</ele>
        <time>2025-02-20T11:57:03Z</time>
      </trkpt>
      <trkpt lat="45.62082" lon="6.52551">
        <ele>1930</ele>
        <time>2025-02-20T11:57:04Z</time>
      </trkpt>
      <trkpt lat="45.62082" lon="6.52551">
        <ele>1929.4</ele>
        <time>2025-02-20T11:57:05Z</time>
      </trkpt>
      <trkpt lat="45.62081" lon="6.5255">
        <ele>1929.4</ele>
        <time>2025-02-20T11:57:06Z</time>
      </trkpt>
      <trkpt lat="45.62081" lon="6.52549">
        <ele>1929.4</ele>
        <time>2025-02-20T11:57:07Z</time>
      </trkpt>
      <trkpt lat="45.62081" lon="6.52549">
        <ele>1930</ele>
        <time>2025-02-20T11:57:08Z</time>
      </trkpt>
      <trkpt lat="45.62081" lon="6.52549">
        <ele>1929.4</ele>
        <time>2025-02-20T11:57:09Z</time>
      </trkpt>
      <trkpt lat="45.6208" lon="6.52546">
        <ele>1929.4</ele>
        <time>2025-02-20T11:57:10Z</time>
      </trkpt>
      <trkpt lat="45.62079" lon="6.52546">
        <ele>1929.4</ele>
        <time>2025-02-20T11:57:11Z</time>
      </trkpt>
      <trkpt lat="45.62079" lon="6.52545">
        <ele>1929.4</ele>
        <time>2025-02-20T11:57:12Z</time>
      </trkpt>
      <trkpt lat="45.62079" lon="6.52544">
        <ele>1929.8</ele>
        <time>2025-02-20T11:57:13Z</time>
      </trkpt>
      <trkpt lat="45.62079" lon="6.52543">
        <ele>1929.8</ele>
        <time>2025-02-20T11:57:14Z</time>
      </trkpt>
      <trkpt lat="45.62078" lon="6.52542">
        <ele>1929.8</ele>
        <time>2025-02-20T11:57:15Z</time>
      </trkpt>
      <trkpt lat="45.62079" lon="6.52541">
        <ele>1929.8</ele>
        <time>2025-02-20T11:57:16Z</time>
      </trkpt>
      <trkpt lat="45.62079" lon="6.5254">
        <ele>1931.4</ele>
        <time>2025-02-20T11:57:17Z</time>
      </trkpt>
      <trkpt lat="45.62079" lon="6.5254">
        <ele>1931.4</ele>
        <time>2025-02-20T11:57:18Z</time>
      </trkpt>
      <trkpt lat="45.62078" lon="6.52539">
        <ele>1931.4</ele>
        <time>2025-02-20T11:57:19Z</time>
      </trkpt>
      <trkpt lat="45.62078" lon="6.52538">
        <ele>1930.8</ele>
        <time>2025-02-20T11:57:20Z</time>
      </trkpt>
      <trkpt lat="45.62078" lon="6.52537">
        <ele>1931.2</ele>
        <time>2025-02-20T11:57:21Z</time>
      </trkpt>
      <trkpt lat="45.62077" lon="6.52537">
        <ele>1931.2</ele>
        <time>2025-02-20T11:57:22Z</time>
      </trkpt>
      <trkpt lat="45.62077" lon="6.52536">
        <ele>1931.2</ele>
        <time>2025-02-20T11:57:23Z</time>
      </trkpt>
      <trkpt lat="45.62077" lon="6.52536">
        <ele>1930.2</ele>
        <time>2025-02-20T11:57:24Z</time>
      </trkpt>
      <trkpt lat="45.62077" lon="6.52535">
        <ele>1931</ele>
        <time>2025-02-20T11:57:25Z</time>
      </trkpt>
      <trkpt lat="45.62077" lon="6.52534">
        <ele>1931</ele>
        <time>2025-02-20T11:57:26Z</time>
      </trkpt>
      <trkpt lat="45.62076" lon="6.52533">
        <ele>1931</ele>
        <time>2025-02-20T11:57:27Z</time>
      </trkpt>
      <trkpt lat="45.62076" lon="6.52533">
        <ele>1931</ele>
        <time>2025-02-20T11:57:28Z</time>
      </trkpt>
      <trkpt lat="45.62076" lon="6.52532">
        <ele>1931.4</ele>
        <time>2025-02-20T11:57:29Z</time>
      </trkpt>
      <trkpt lat="45.62075" lon="6.52531">
        <ele>1931.4</ele>
        <time>2025-02-20T11:57:30Z</time>
      </trkpt>
      <trkpt lat="45.62075" lon="6.5253">
        <ele>1931.4</ele>
        <time>2025-02-20T11:57:31Z</time>
      </trkpt>
      <trkpt lat="45.62074" lon="6.5253">
        <ele>1932</ele>
        <time>2025-02-20T11:57:32Z</time>
      </trkpt>
      <trkpt lat="45.62074" lon="6.52529">
        <ele>1931.8</ele>
        <time>2025-02-20T11:57:33Z</time>
      </trkpt>
      <trkpt lat="45.62074" lon="6.52528">
        <ele>1931.8</ele>
        <time>2025-02-20T11:57:34Z</time>
      </trkpt>
      <trkpt lat="45.62073" lon="6.52527">
        <ele>1931.8</ele>
        <time>2025-02-20T11:57:35Z</time>
      </trkpt>
      <trkpt lat="45.62073" lon="6.52527">
        <ele>1932.8</ele>
        <time>2025-02-20T11:57:36Z</time>
      </trkpt>
      <trkpt lat="45.62072" lon="6.52526">
        <ele>1932.6</ele>
        <time>2025-02-20T11:57:37Z</time>
      </trkpt>
      <trkpt lat="45.62072" lon="6.52525">
        <ele>1932.6</ele>
        <time>2025-02-20T11:57:38Z</time>
      </trkpt>
      <trkpt lat="45.62072" lon="6.52525">
        <ele>1932.6</ele>
        <time>2025-02-20T11:57:39Z</time>
      </trkpt>
      <trkpt lat="45.62072" lon="6.52525">
        <ele>1933.4</ele>
        <time>2025-02-20T11:57:40Z</time>
      </trkpt>
      <trkpt lat="45.62072" lon="6.52524">
        <ele>1933.6</ele>
        <time>2025-02-20T11:57:41Z</time>
      </trkpt>
      <trkpt lat="45.62072" lon="6.52524">
        <ele>1933.6</ele>
        <time>2025-02-20T11:57:42Z</time>
      </trkpt>
      <trkpt lat="45.62072" lon="6.52523">
        <ele>1933.6</ele>
        <time>2025-02-20T11:57:43Z</time>
      </trkpt>
      <trkpt lat="45.62071" lon="6.52523">
        <ele>1933.4</ele>
        <time>2025-02-20T11:57:44Z</time>
      </trkpt>
      <trkpt lat="45.62071" lon="6.52522">
        <ele>1934.2</ele>
        <time>2025-02-20T11:57:45Z</time>
      </trkpt>
      <trkpt lat="45.6207" lon="6.52521">
        <ele>1934.2</ele>
        <time>2025-02-20T11:57:46Z</time>
      </trkpt>
      <trkpt lat="45.6207" lon="6.5252">
        <ele>1934.2</ele>
        <time>2025-02-20T11:57:47Z</time>
      </trkpt>
      <trkpt lat="45.6207" lon="6.5252">
        <ele>1934.2</ele>
        <time>2025-02-20T11:57:48Z</time>
      </trkpt>
      <trkpt lat="45.6207" lon="6.52519">
        <ele>1934.2</ele>
        <time>2025-02-20T11:57:49Z</time>
      </trkpt>
      <trkpt lat="45.6207" lon="6.52518">
        <ele>1934.2</ele>
        <time>2025-02-20T11:57:50Z</time>
      </trkpt>
      <trkpt lat="45.6207" lon="6.52518">
        <ele>1934.2</ele>
        <time>2025-02-20T11:57:51Z</time>
      </trkpt>
      <trkpt lat="45.6207" lon="6.52517">
        <ele>1934.2</ele>
        <time>2025-02-20T11:57:52Z</time>
      </trkpt>
      <trkpt lat="45.6207" lon="6.52516">
        <ele>1933.8</ele>
        <time>2025-02-20T11:57:53Z</time>
      </trkpt>
      <trkpt lat="45.62069" lon="6.52515">
        <ele>1933.8</ele>
        <time>2025-02-20T11:57:54Z</time>
      </trkpt>
      <trkpt lat="45.62069" lon="6.52515">
        <ele>1933.8</ele>
        <time>2025-02-20T11:57:55Z</time>
      </trkpt>
      <trkpt lat="45.62069" lon="6.52514">
        <ele>1934.6</ele>
        <time>2025-02-20T11:57:56Z</time>
      </trkpt>
      <trkpt lat="45.62069" lon="6.52513">
        <ele>1934.2</ele>
        <time>2025-02-20T11:57:57Z</time>
      </trkpt>
      <trkpt lat="45.62068" lon="6.52512">
        <ele>1934.2</ele>
        <time>2025-02-20T11:57:58Z</time>
      </trkpt>
      <trkpt lat="45.62068" lon="6.52512">
        <ele>1934.2</ele>
        <time>2025-02-20T11:57:59Z</time>
      </trkpt>
      <trkpt lat="45.62067" lon="6.52511">
        <ele>1934.2</ele>
        <time>2025-02-20T11:58:00Z</time>
      </trkpt>
      <trkpt lat="45.62067" lon="6.52511">
        <ele>1934.2</ele>
        <time>2025-02-20T11:58:01Z</time>
      </trkpt>
      <trkpt lat="45.62067" lon="6.52509">
        <ele>1934.2</ele>
        <time>2025-02-20T11:58:02Z</time>
      </trkpt>
      <trkpt lat="45.62067" lon="6.52509">
        <ele>1934.2</ele>
        <time>2025-02-20T11:58:03Z</time>
      </trkpt>
      <trkpt lat="45.62067" lon="6.52508">
        <ele>1934.2</ele>
        <time>2025-02-20T11:58:04Z</time>
      </trkpt>
      <trkpt lat="45.62067" lon="6.52507">
        <ele>1935</ele>
        <time>2025-02-20T11:58:05Z</time>
      </trkpt>
      <trkpt lat="45.62066" lon="6.52506">
        <ele>1935</ele>
        <time>2025-02-20T11:58:06Z</time>
      </trkpt>
      <trkpt lat="45.62066" lon="6.52506">
        <ele>1935</ele>
        <time>2025-02-20T11:58:07Z</time>
      </trkpt>
      <trkpt lat="45.62065" lon="6.52505">
        <ele>1935.6</ele>
        <time>2025-02-20T11:58:08Z</time>
      </trkpt>
      <trkpt lat="45.62065" lon="6.52504">
        <ele>1936.4</ele>
        <time>2025-02-20T11:58:09Z</time>
      </trkpt>
      <trkpt lat="45.62065" lon="6.52503">
        <ele>1936.4</ele>
        <time>2025-02-20T11:58:10Z</time>
      </trkpt>
      <trkpt lat="45.62065" lon="6.52502">
        <ele>1936.4</ele>
        <time>2025-02-20T11:58:11Z</time>
      </trkpt>
      <trkpt lat="45.62065" lon="6.52502">
        <ele>1935.8</ele>
        <time>2025-02-20T11:58:12Z</time>
      </trkpt>
      <trkpt lat="45.62064" lon="6.52501">
        <ele>1936.4</ele>
        <time>2025-02-20T11:58:13Z</time>
      </trkpt>
      <trkpt lat="45.62064" lon="6.525">
        <ele>1936.4</ele>
        <time>2025-02-20T11:58:14Z</time>
      </trkpt>
      <trkpt lat="45.62064" lon="6.525">
        <ele>1936.4</ele>
        <time>2025-02-20T11:58:15Z</time>
      </trkpt>
      <trkpt lat="45.62064" lon="6.52499">
        <ele>1935.8</ele>
        <time>2025-02-20T11:58:16Z</time>
      </trkpt>
      <trkpt lat="45.62063" lon="6.52498">
        <ele>1935.8</ele>
        <time>2025-02-20T11:58:17Z</time>
      </trkpt>
      <trkpt lat="45.62063" lon="6.52498">
        <ele>1935.8</ele>
        <time>2025-02-20T11:58:18Z</time>
      </trkpt>
      <trkpt lat="45.62063" lon="6.52497">
        <ele>1935.8</ele>
        <time>2025-02-20T11:58:19Z</time>
      </trkpt>
      <trkpt lat="45.62062" lon="6.52496">
        <ele>1935.8</ele>
        <time>2025-02-20T11:58:20Z</time>
      </trkpt>
      <trkpt lat="45.62061" lon="6.52495">
        <ele>1936.2</ele>
        <time>2025-02-20T11:58:21Z</time>
      </trkpt>
      <trkpt lat="45.62061" lon="6.52495">
        <ele>1936.2</ele>
        <time>2025-02-20T11:58:22Z</time>
      </trkpt>
      <trkpt lat="45.62061" lon="6.52494">
        <ele>1936.2</ele>
        <time>2025-02-20T11:58:23Z</time>
      </trkpt>
      <trkpt lat="45.62061" lon="6.52493">
        <ele>1936.2</ele>
        <time>2025-02-20T11:58:24Z</time>
      </trkpt>
      <trkpt lat="45.6206" lon="6.52492">
        <ele>1936.6</ele>
        <time>2025-02-20T11:58:25Z</time>
      </trkpt>
      <trkpt lat="45.6206" lon="6.52492">
        <ele>1936.6</ele>
        <time>2025-02-20T11:58:26Z</time>
      </trkpt>
      <trkpt lat="45.6206" lon="6.5249">
        <ele>1936.6</ele>
        <time>2025-02-20T11:58:27Z</time>
      </trkpt>
      <trkpt lat="45.6206" lon="6.5249">
        <ele>1936.6</ele>
        <time>2025-02-20T11:58:28Z</time>
      </trkpt>
      <trkpt lat="45.6206" lon="6.52489">
        <ele>1937.4</ele>
        <time>2025-02-20T11:58:29Z</time>
      </trkpt>
      <trkpt lat="45.62059" lon="6.52489">
        <ele>1937.4</ele>
        <time>2025-02-20T11:58:30Z</time>
      </trkpt>
      <trkpt lat="45.62059" lon="6.52488">
        <ele>1937.4</ele>
        <time>2025-02-20T11:58:31Z</time>
      </trkpt>
      <trkpt lat="45.62059" lon="6.52487">
        <ele>1937.4</ele>
        <time>2025-02-20T11:58:32Z</time>
      </trkpt>
      <trkpt lat="45.62059" lon="6.52487">
        <ele>1938.2</ele>
        <time>2025-02-20T11:58:33Z</time>
      </trkpt>
      <trkpt lat="45.62059" lon="6.52486">
        <ele>1938.2</ele>
        <time>2025-02-20T11:58:34Z</time>
      </trkpt>
      <trkpt lat="45.62058" lon="6.52485">
        <ele>1938.2</ele>
        <time>2025-02-20T11:58:35Z</time>
      </trkpt>
      <trkpt lat="45.62058" lon="6.52484">
        <ele>1938.2</ele>
        <time>2025-02-20T11:58:36Z</time>
      </trkpt>
      <trkpt lat="45.62057" lon="6.52484">
        <ele>1938.2</ele>
        <time>2025-02-20T11:58:37Z</time>
      </trkpt>
      <trkpt lat="45.62057" lon="6.52483">
        <ele>1938.2</ele>
        <time>2025-02-20T11:58:38Z</time>
      </trkpt>
      <trkpt lat="45.62057" lon="6.52483">
        <ele>1938.2</ele>
        <time>2025-02-20T11:58:39Z</time>
      </trkpt>
      <trkpt lat="45.62057" lon="6.52482">
        <ele>1938.6</ele>
        <time>2025-02-20T11:58:40Z</time>
      </trkpt>
      <trkpt lat="45.62057" lon="6.52482">
        <ele>1938.8</ele>
        <time>2025-02-20T11:58:41Z</time>
      </trkpt>
      <trkpt lat="45.62057" lon="6.52482">
        <ele>1938.8</ele>
        <time>2025-02-20T11:58:42Z</time>
      </trkpt>
      <trkpt lat="45.62057" lon="6.52482">
        <ele>1938.8</ele>
        <time>2025-02-20T11:58:43Z</time>
      </trkpt>
      <trkpt lat="45.62057" lon="6.52482">
        <ele>1939.4</ele>
        <time>2025-02-20T11:58:44Z</time>
      </trkpt>
      <trkpt lat="45.62057" lon="6.52482">
        <ele>1939</ele>
        <time>2025-02-20T11:58:45Z</time>
      </trkpt>
      <trkpt lat="45.62057" lon="6.52482">
        <ele>1939</ele>
        <time>2025-02-20T11:58:46Z</time>
      </trkpt>
      <trkpt lat="45.62057" lon="6.52482">
        <ele>1939</ele>
        <time>2025-02-20T11:58:47Z</time>
      </trkpt>
      <trkpt lat="45.62057" lon="6.52482">
        <ele>1939.8</ele>
        <time>2025-02-20T11:58:48Z</time>
      </trkpt>
      <trkpt lat="45.62057" lon="6.52482">
        <ele>1939.2</ele>
        <time>2025-02-20T11:58:49Z</time>
      </trkpt>
      <trkpt lat="45.62056" lon="6.52479">
        <ele>1939.2</ele>
        <time>2025-02-20T11:58:50Z</time>
      </trkpt>
      <trkpt lat="45.62055" lon="6.52478">
        <ele>1939.2</ele>
        <time>2025-02-20T11:58:51Z</time>
      </trkpt>
      <trkpt lat="45.62055" lon="6.52477">
        <ele>1939.2</ele>
        <time>2025-02-20T11:58:52Z</time>
      </trkpt>
      <trkpt lat="45.62055" lon="6.52477">
        <ele>1939.2</ele>
        <time>2025-02-20T11:58:53Z</time>
      </trkpt>
      <trkpt lat="45.62054" lon="6.52476">
        <ele>1939.2</ele>
        <time>2025-02-20T11:58:54Z</time>
      </trkpt>
      <trkpt lat="45.62054" lon="6.52475">
        <ele>1939.2</ele>
        <time>2025-02-20T11:58:55Z</time>
      </trkpt>
      <trkpt lat="45.62053" lon="6.52475">
        <ele>1939.6</ele>
        <time>2025-02-20T11:58:56Z</time>
      </trkpt>
      <trkpt lat="45.62053" lon="6.52475">
        <ele>1940</ele>
        <time>2025-02-20T11:58:57Z</time>
      </trkpt>
      <trkpt lat="45.62052" lon="6.52474">
        <ele>1940</ele>
        <time>2025-02-20T11:58:58Z</time>
      </trkpt>
      <trkpt lat="45.62051" lon="6.52474">
        <ele>1940</ele>
        <time>2025-02-20T11:58:59Z</time>
      </trkpt>
      <trkpt lat="45.62051" lon="6.52474">
        <ele>1940</ele>
        <time>2025-02-20T11:59:00Z</time>
      </trkpt>
      <trkpt lat="45.6205" lon="6.52473">
        <ele>1940.2</ele>
        <time>2025-02-20T11:59:01Z</time>
      </trkpt>
      <trkpt lat="45.6205" lon="6.52473">
        <ele>1940.2</ele>
        <time>2025-02-20T11:59:02Z</time>
      </trkpt>
      <trkpt lat="45.62049" lon="6.52473">
        <ele>1940.2</ele>
        <time>2025-02-20T11:59:03Z</time>
      </trkpt>
      <trkpt lat="45.62049" lon="6.52473">
        <ele>1940.8</ele>
        <time>2025-02-20T11:59:04Z</time>
      </trkpt>
      <trkpt lat="45.62049" lon="6.52473">
        <ele>1939.6</ele>
        <time>2025-02-20T11:59:05Z</time>
      </trkpt>
      <trkpt lat="45.62048" lon="6.52472">
        <ele>1939.6</ele>
        <time>2025-02-20T11:59:06Z</time>
      </trkpt>
      <trkpt lat="45.62048" lon="6.52472">
        <ele>1939.6</ele>
        <time>2025-02-20T11:59:07Z</time>
      </trkpt>
      <trkpt lat="45.62047" lon="6.52471">
        <ele>1940.6</ele>
        <time>2025-02-20T11:59:08Z</time>
      </trkpt>
      <trkpt lat="45.62047" lon="6.52471">
        <ele>1940.4</ele>
        <time>2025-02-20T11:59:09Z</time>
      </trkpt>
      <trkpt lat="45.62046" lon="6.52471">
        <ele>1940.4</ele>
        <time>2025-02-20T11:59:10Z</time>
      </trkpt>
      <trkpt lat="45.62045" lon="6.52471">
        <ele>1940.4</ele>
        <time>2025-02-20T11:59:11Z</time>
      </trkpt>
      <trkpt lat="45.62045" lon="6.5247">
        <ele>1941</ele>
        <time>2025-02-20T11:59:12Z</time>
      </trkpt>
      <trkpt lat="45.62044" lon="6.5247">
        <ele>1941.2</ele>
        <time>2025-02-20T11:59:13Z</time>
      </trkpt>
      <trkpt lat="45.62043" lon="6.5247">
        <ele>1941.2</ele>
        <time>2025-02-20T11:59:14Z</time>
      </trkpt>
      <trkpt lat="45.62043" lon="6.5247">
        <ele>1941.2</ele>
        <time>2025-02-20T11:59:15Z</time>
      </trkpt>
      <trkpt lat="45.62043" lon="6.52469">
        <ele>1941.2</ele>
        <time>2025-02-20T11:59:16Z</time>
      </trkpt>
      <trkpt lat="45.62042" lon="6.52469">
        <ele>1941.8</ele>
        <time>2025-02-20T11:59:17Z</time>
      </trkpt>
      <trkpt lat="45.62041" lon="6.52468">
        <ele>1941.8</ele>
        <time>2025-02-20T11:59:18Z</time>
      </trkpt>
      <trkpt lat="45.62041" lon="6.52468">
        <ele>1941.8</ele>
        <time>2025-02-20T11:59:19Z</time>
      </trkpt>
      <trkpt lat="45.6204" lon="6.52468">
        <ele>1941.8</ele>
        <time>2025-02-20T11:59:20Z</time>
      </trkpt>
      <trkpt lat="45.62039" lon="6.52467">
        <ele>1941.4</ele>
        <time>2025-02-20T11:59:21Z</time>
      </trkpt>
      <trkpt lat="45.62039" lon="6.52467">
        <ele>1941.4</ele>
        <time>2025-02-20T11:59:22Z</time>
      </trkpt>
      <trkpt lat="45.62038" lon="6.52466">
        <ele>1941.4</ele>
        <time>2025-02-20T11:59:23Z</time>
      </trkpt>
      <trkpt lat="45.62038" lon="6.52466">
        <ele>1941.4</ele>
        <time>2025-02-20T11:59:24Z</time>
      </trkpt>
      <trkpt lat="45.62037" lon="6.52465">
        <ele>1942.2</ele>
        <time>2025-02-20T11:59:25Z</time>
      </trkpt>
      <trkpt lat="45.62036" lon="6.52464">
        <ele>1942.2</ele>
        <time>2025-02-20T11:59:26Z</time>
      </trkpt>
      <trkpt lat="45.62035" lon="6.52464">
        <ele>1942.2</ele>
        <time>2025-02-20T11:59:27Z</time>
      </trkpt>
      <trkpt lat="45.62035" lon="6.52463">
        <ele>1942.2</ele>
        <time>2025-02-20T11:59:28Z</time>
      </trkpt>
      <trkpt lat="45.62035" lon="6.52462">
        <ele>1942.2</ele>
        <time>2025-02-20T11:59:29Z</time>
      </trkpt>
      <trkpt lat="45.62035" lon="6.52462">
        <ele>1942.2</ele>
        <time>2025-02-20T11:59:30Z</time>
      </trkpt>
      <trkpt lat="45.62034" lon="6.52461">
        <ele>1942.2</ele>
        <time>2025-02-20T11:59:31Z</time>
      </trkpt>
      <trkpt lat="45.62034" lon="6.5246">
        <ele>1943</ele>
        <time>2025-02-20T11:59:32Z</time>
      </trkpt>
      <trkpt lat="45.62034" lon="6.5246">
        <ele>1942.6</ele>
        <time>2025-02-20T11:59:33Z</time>
      </trkpt>
      <trkpt lat="45.62033" lon="6.5246">
        <ele>1942.6</ele>
        <time>2025-02-20T11:59:34Z</time>
      </trkpt>
      <trkpt lat="45.62033" lon="6.52459">
        <ele>1942.6</ele>
        <time>2025-02-20T11:59:35Z</time>
      </trkpt>
      <trkpt lat="45.62032" lon="6.52459">
        <ele>1942.6</ele>
        <time>2025-02-20T11:59:36Z</time>
      </trkpt>
      <trkpt lat="45.62032" lon="6.52458">
        <ele>1942.2</ele>
        <time>2025-02-20T11:59:37Z</time>
      </trkpt>
      <trkpt lat="45.62031" lon="6.52457">
        <ele>1942.2</ele>
        <time>2025-02-20T11:59:38Z</time>
      </trkpt>
      <trkpt lat="45.6203" lon="6.52457">
        <ele>1942.2</ele>
        <time>2025-02-20T11:59:39Z</time>
      </trkpt>
      <trkpt lat="45.62029" lon="6.52456">
        <ele>1942.6</ele>
        <time>2025-02-20T11:59:40Z</time>
      </trkpt>
      <trkpt lat="45.62029" lon="6.52455">
        <ele>1943.6</ele>
        <time>2025-02-20T11:59:41Z</time>
      </trkpt>
      <trkpt lat="45.62029" lon="6.52455">
        <ele>1943.6</ele>
        <time>2025-02-20T11:59:42Z</time>
      </trkpt>
      <trkpt lat="45.62028" lon="6.52454">
        <ele>1943.6</ele>
        <time>2025-02-20T11:59:43Z</time>
      </trkpt>
      <trkpt lat="45.62027" lon="6.52453">
        <ele>1943.6</ele>
        <time>2025-02-20T11:59:44Z</time>
      </trkpt>
      <trkpt lat="45.62027" lon="6.52452">
        <ele>1943.8</ele>
        <time>2025-02-20T11:59:45Z</time>
      </trkpt>
      <trkpt lat="45.62026" lon="6.52451">
        <ele>1943.8</ele>
        <time>2025-02-20T11:59:46Z</time>
      </trkpt>
      <trkpt lat="45.62026" lon="6.52451">
        <ele>1943.8</ele>
        <time>2025-02-20T11:59:47Z</time>
      </trkpt>
      <trkpt lat="45.62026" lon="6.52451">
        <ele>1943.8</ele>
        <time>2025-02-20T11:59:48Z</time>
      </trkpt>
      <trkpt lat="45.62026" lon="6.5245">
        <ele>1944.2</ele>
        <time>2025-02-20T11:59:49Z</time>
      </trkpt>
      <trkpt lat="45.62026" lon="6.52449">
        <ele>1944.2</ele>
        <time>2025-02-20T11:59:50Z</time>
      </trkpt>
      <trkpt lat="45.62026" lon="6.52449">
        <ele>1944.2</ele>
        <time>2025-02-20T11:59:51Z</time>
      </trkpt>
      <trkpt lat="45.62026" lon="6.52449">
        <ele>1943.2</ele>
        <time>2025-02-20T11:59:52Z</time>
      </trkpt>
      <trkpt lat="45.62025" lon="6.52447">
        <ele>1943.4</ele>
        <time>2025-02-20T11:59:53Z</time>
      </trkpt>
      <trkpt lat="45.62025" lon="6.52447">
        <ele>1943.4</ele>
        <time>2025-02-20T11:59:54Z</time>
      </trkpt>
      <trkpt lat="45.62024" lon="6.52446">
        <ele>1943.4</ele>
        <time>2025-02-20T11:59:55Z</time>
      </trkpt>
      <trkpt lat="45.62024" lon="6.52445">
        <ele>1943.4</ele>
        <time>2025-02-20T11:59:56Z</time>
      </trkpt>
      <trkpt lat="45.62023" lon="6.52445">
        <ele>1943.8</ele>
        <time>2025-02-20T11:59:57Z</time>
      </trkpt>
      <trkpt lat="45.62023" lon="6.52444">
        <ele>1943.8</ele>
        <time>2025-02-20T11:59:58Z</time>
      </trkpt>
      <trkpt lat="45.62022" lon="6.52443">
        <ele>1943.8</ele>
        <time>2025-02-20T11:59:59Z</time>
      </trkpt>
      <trkpt lat="45.62022" lon="6.52443">
        <ele>1943.8</ele>
        <time>2025-02-20T12:00:00Z</time>
      </trkpt>
      <trkpt lat="45.62022" lon="6.52442">
        <ele>1944</ele>
        <time>2025-02-20T12:00:01Z</time>
      </trkpt>
      <trkpt lat="45.62021" lon="6.52442">
        <ele>1944</ele>
        <time>2025-02-20T12:00:02Z</time>
      </trkpt>
      <trkpt lat="45.62021" lon="6.52441">
        <ele>1944</ele>
        <time>2025-02-20T12:00:03Z</time>
      </trkpt>
      <trkpt lat="45.62021" lon="6.52441">
        <ele>1944</ele>
        <time>2025-02-20T12:00:04Z</time>
      </trkpt>
      <trkpt lat="45.6202" lon="6.5244">
        <ele>1944.6</ele>
        <time>2025-02-20T12:00:05Z</time>
      </trkpt>
      <trkpt lat="45.6202" lon="6.52439">
        <ele>1944.6</ele>
        <time>2025-02-20T12:00:06Z</time>
      </trkpt>
      <trkpt lat="45.62019" lon="6.52439">
        <ele>1944.6</ele>
        <time>2025-02-20T12:00:07Z</time>
      </trkpt>
      <trkpt lat="45.62019" lon="6.52438">
        <ele>1944.4</ele>
        <time>2025-02-20T12:00:08Z</time>
      </trkpt>
      <trkpt lat="45.62018" lon="6.52437">
        <ele>1944.8</ele>
        <time>2025-02-20T12:00:09Z</time>
      </trkpt>
      <trkpt lat="45.62018" lon="6.52437">
        <ele>1944.8</ele>
        <time>2025-02-20T12:00:10Z</time>
      </trkpt>
      <trkpt lat="45.62018" lon="6.52436">
        <ele>1944.8</ele>
        <time>2025-02-20T12:00:11Z</time>
      </trkpt>
      <trkpt lat="45.62017" lon="6.52436">
        <ele>1944.8</ele>
        <time>2025-02-20T12:00:12Z</time>
      </trkpt>
      <trkpt lat="45.62017" lon="6.52435">
        <ele>1946</ele>
        <time>2025-02-20T12:00:13Z</time>
      </trkpt>
      <trkpt lat="45.62017" lon="6.52435">
        <ele>1946</ele>
        <time>2025-02-20T12:00:14Z</time>
      </trkpt>
      <trkpt lat="45.62017" lon="6.52435">
        <ele>1946</ele>
        <time>2025-02-20T12:00:15Z</time>
      </trkpt>
      <trkpt lat="45.62016" lon="6.52433">
        <ele>1946</ele>
        <time>2025-02-20T12:00:16Z</time>
      </trkpt>
      <trkpt lat="45.62015" lon="6.52433">
        <ele>1945.8</ele>
        <time>2025-02-20T12:00:17Z</time>
      </trkpt>
      <trkpt lat="45.62015" lon="6.52432">
        <ele>1945.8</ele>
        <time>2025-02-20T12:00:18Z</time>
      </trkpt>
      <trkpt lat="45.62015" lon="6.52432">
        <ele>1945.8</ele>
        <time>2025-02-20T12:00:19Z</time>
      </trkpt>
      <trkpt lat="45.62014" lon="6.52432">
        <ele>1945.6</ele>
        <time>2025-02-20T12:00:20Z</time>
      </trkpt>
      <trkpt lat="45.62014" lon="6.52431">
        <ele>1946.4</ele>
        <time>2025-02-20T12:00:21Z</time>
      </trkpt>
      <trkpt lat="45.62014" lon="6.52431">
        <ele>1946.4</ele>
        <time>2025-02-20T12:00:22Z</time>
      </trkpt>
      <trkpt lat="45.62014" lon="6.52431">
        <ele>1946.4</ele>
        <time>2025-02-20T12:00:23Z</time>
      </trkpt>
      <trkpt lat="45.62014" lon="6.5243">
        <ele>1947.2</ele>
        <time>2025-02-20T12:00:24Z</time>
      </trkpt>
      <trkpt lat="45.62014" lon="6.52429">
        <ele>1947</ele>
        <time>2025-02-20T12:00:25Z</time>
      </trkpt>
      <trkpt lat="45.62014" lon="6.52429">
        <ele>1947</ele>
        <time>2025-02-20T12:00:26Z</time>
      </trkpt>
      <trkpt lat="45.62013" lon="6.52427">
        <ele>1947</ele>
        <time>2025-02-20T12:00:27Z</time>
      </trkpt>
      <trkpt lat="45.62013" lon="6.52427">
        <ele>1947</ele>
        <time>2025-02-20T12:00:28Z</time>
      </trkpt>
      <trkpt lat="45.62012" lon="6.52426">
        <ele>1946.4</ele>
        <time>2025-02-20T12:00:29Z</time>
      </trkpt>
      <trkpt lat="45.62012" lon="6.52426">
        <ele>1946.4</ele>
        <time>2025-02-20T12:00:30Z</time>
      </trkpt>
      <trkpt lat="45.62012" lon="6.52425">
        <ele>1946.4</ele>
        <time>2025-02-20T12:00:31Z</time>
      </trkpt>
      <trkpt lat="45.62011" lon="6.52425">
        <ele>1946.4</ele>
        <time>2025-02-20T12:00:32Z</time>
      </trkpt>
      <trkpt lat="45.62011" lon="6.52424">
        <ele>1947</ele>
        <time>2025-02-20T12:00:33Z</time>
      </trkpt>
      <trkpt lat="45.62011" lon="6.52424">
        <ele>1947</ele>
        <time>2025-02-20T12:00:34Z</time>
      </trkpt>
      <trkpt lat="45.6201" lon="6.52423">
        <ele>1947</ele>
        <time>2025-02-20T12:00:35Z</time>
      </trkpt>
      <trkpt lat="45.6201" lon="6.52422">
        <ele>1947.8</ele>
        <time>2025-02-20T12:00:36Z</time>
      </trkpt>
      <trkpt lat="45.62009" lon="6.52422">
        <ele>1947.8</ele>
        <time>2025-02-20T12:00:37Z</time>
      </trkpt>
      <trkpt lat="45.62009" lon="6.52421">
        <ele>1947.8</ele>
        <time>2025-02-20T12:00:38Z</time>
      </trkpt>
      <trkpt lat="45.62008" lon="6.52421">
        <ele>1947.8</ele>
        <time>2025-02-20T12:00:39Z</time>
      </trkpt>
      <trkpt lat="45.62008" lon="6.5242">
        <ele>1947.8</ele>
        <time>2025-02-20T12:00:40Z</time>
      </trkpt>
      <trkpt lat="45.62007" lon="6.52419">
        <ele>1948.4</ele>
        <time>2025-02-20T12:00:41Z</time>
      </trkpt>
      <trkpt lat="45.62007" lon="6.52419">
        <ele>1948.4</ele>
        <time>2025-02-20T12:00:42Z</time>
      </trkpt>
      <trkpt lat="45.62007" lon="6.52418">
        <ele>1948.4</ele>
        <time>2025-02-20T12:00:43Z</time>
      </trkpt>
      <trkpt lat="45.62007" lon="6.52418">
        <ele>1948.4</ele>
        <time>2025-02-20T12:00:44Z</time>
      </trkpt>
      <trkpt lat="45.62006" lon="6.52417">
        <ele>1948.8</ele>
        <time>2025-02-20T12:00:45Z</time>
      </trkpt>
      <trkpt lat="45.62005" lon="6.52417">
        <ele>1948.8</ele>
        <time>2025-02-20T12:00:46Z</time>
      </trkpt>
      <trkpt lat="45.62005" lon="6.52416">
        <ele>1948.8</ele>
        <time>2025-02-20T12:00:47Z</time>
      </trkpt>
      <trkpt lat="45.62005" lon="6.52415">
        <ele>1949</ele>
        <time>2025-02-20T12:00:48Z</time>
      </trkpt>
      <trkpt lat="45.62004" lon="6.52414">
        <ele>1949.4</ele>
        <time>2025-02-20T12:00:49Z</time>
      </trkpt>
      <trkpt lat="45.62004" lon="6.52414">
        <ele>1949.4</ele>
        <time>2025-02-20T12:00:50Z</time>
      </trkpt>
      <trkpt lat="45.62003" lon="6.52413">
        <ele>1949.4</ele>
        <time>2025-02-20T12:00:51Z</time>
      </trkpt>
      <trkpt lat="45.62003" lon="6.52412">
        <ele>1949.4</ele>
        <time>2025-02-20T12:00:52Z</time>
      </trkpt>
      <trkpt lat="45.62002" lon="6.52412">
        <ele>1949.6</ele>
        <time>2025-02-20T12:00:53Z</time>
      </trkpt>
      <trkpt lat="45.62002" lon="6.52412">
        <ele>1949.6</ele>
        <time>2025-02-20T12:00:54Z</time>
      </trkpt>
      <trkpt lat="45.62002" lon="6.5241">
        <ele>1949.6</ele>
        <time>2025-02-20T12:00:55Z</time>
      </trkpt>
      <trkpt lat="45.62002" lon="6.5241">
        <ele>1949.6</ele>
        <time>2025-02-20T12:00:56Z</time>
      </trkpt>
      <trkpt lat="45.62001" lon="6.52409">
        <ele>1949</ele>
        <time>2025-02-20T12:00:57Z</time>
      </trkpt>
      <trkpt lat="45.62001" lon="6.52408">
        <ele>1949</ele>
        <time>2025-02-20T12:00:58Z</time>
      </trkpt>
      <trkpt lat="45.62" lon="6.52407">
        <ele>1949</ele>
        <time>2025-02-20T12:00:59Z</time>
      </trkpt>
      <trkpt lat="45.62" lon="6.52407">
        <ele>1949</ele>
        <time>2025-02-20T12:01:00Z</time>
      </trkpt>
      <trkpt lat="45.61999" lon="6.52406">
        <ele>1949.2</ele>
        <time>2025-02-20T12:01:01Z</time>
      </trkpt>
      <trkpt lat="45.61999" lon="6.52406">
        <ele>1949.2</ele>
        <time>2025-02-20T12:01:02Z</time>
      </trkpt>
      <trkpt lat="45.61999" lon="6.52405">
        <ele>1949.2</ele>
        <time>2025-02-20T12:01:03Z</time>
      </trkpt>
      <trkpt lat="45.61999" lon="6.52405">
        <ele>1949.2</ele>
        <time>2025-02-20T12:01:04Z</time>
      </trkpt>
      <trkpt lat="45.61999" lon="6.52404">
        <ele>1950.4</ele>
        <time>2025-02-20T12:01:05Z</time>
      </trkpt>
      <trkpt lat="45.61998" lon="6.52403">
        <ele>1950.4</ele>
        <time>2025-02-20T12:01:06Z</time>
      </trkpt>
      <trkpt lat="45.61998" lon="6.52402">
        <ele>1950.4</ele>
        <time>2025-02-20T12:01:07Z</time>
      </trkpt>
      <trkpt lat="45.61998" lon="6.52402">
        <ele>1951.2</ele>
        <time>2025-02-20T12:01:08Z</time>
      </trkpt>
      <trkpt lat="45.61998" lon="6.52401">
        <ele>1951.2</ele>
        <time>2025-02-20T12:01:09Z</time>
      </trkpt>
      <trkpt lat="45.61997" lon="6.524">
        <ele>1951.2</ele>
        <time>2025-02-20T12:01:10Z</time>
      </trkpt>
      <trkpt lat="45.61996" lon="6.52399">
        <ele>1951.2</ele>
        <time>2025-02-20T12:01:11Z</time>
      </trkpt>
      <trkpt lat="45.61996" lon="6.52399">
        <ele>1951.2</ele>
        <time>2025-02-20T12:01:12Z</time>
      </trkpt>
      <trkpt lat="45.61996" lon="6.52398">
        <ele>1951.2</ele>
        <time>2025-02-20T12:01:13Z</time>
      </trkpt>
      <trkpt lat="45.61995" lon="6.52397">
        <ele>1951.2</ele>
        <time>2025-02-20T12:01:14Z</time>
      </trkpt>
      <trkpt lat="45.61995" lon="6.52397">
        <ele>1951.2</ele>
        <time>2025-02-20T12:01:15Z</time>
      </trkpt>
      <trkpt lat="45.61995" lon="6.52396">
        <ele>1951.4</ele>
        <time>2025-02-20T12:01:16Z</time>
      </trkpt>
      <trkpt lat="45.61995" lon="6.52395">
        <ele>1951.2</ele>
        <time>2025-02-20T12:01:17Z</time>
      </trkpt>
      <trkpt lat="45.61995" lon="6.52394">
        <ele>1951.2</ele>
        <time>2025-02-20T12:01:18Z</time>
      </trkpt>
      <trkpt lat="45.61995" lon="6.52394">
        <ele>1951.2</ele>
        <time>2025-02-20T12:01:19Z</time>
      </trkpt>
      <trkpt lat="45.61995" lon="6.52393">
        <ele>1951.4</ele>
        <time>2025-02-20T12:01:20Z</time>
      </trkpt>
      <trkpt lat="45.61994" lon="6.52392">
        <ele>1951</ele>
        <time>2025-02-20T12:01:21Z</time>
      </trkpt>
      <trkpt lat="45.61994" lon="6.52391">
        <ele>1951</ele>
        <time>2025-02-20T12:01:22Z</time>
      </trkpt>
      <trkpt lat="45.61994" lon="6.52391">
        <ele>1951</ele>
        <time>2025-02-20T12:01:23Z</time>
      </trkpt>
      <trkpt lat="45.61994" lon="6.5239">
        <ele>1951</ele>
        <time>2025-02-20T12:01:24Z</time>
      </trkpt>
      <trkpt lat="45.61994" lon="6.52389">
        <ele>1951.4</ele>
        <time>2025-02-20T12:01:25Z</time>
      </trkpt>
      <trkpt lat="45.61994" lon="6.52388">
        <ele>1951.4</ele>
        <time>2025-02-20T12:01:26Z</time>
      </trkpt>
      <trkpt lat="45.61994" lon="6.52387">
        <ele>1951.4</ele>
        <time>2025-02-20T12:01:27Z</time>
      </trkpt>
      <trkpt lat="45.61995" lon="6.52386">
        <ele>1952</ele>
        <time>2025-02-20T12:01:28Z</time>
      </trkpt>
      <trkpt lat="45.61994" lon="6.52386">
        <ele>1952.6</ele>
        <time>2025-02-20T12:01:29Z</time>
      </trkpt>
      <trkpt lat="45.61995" lon="6.52385">
        <ele>1952.6</ele>
        <time>2025-02-20T12:01:30Z</time>
      </trkpt>
      <trkpt lat="45.61995" lon="6.52384">
        <ele>1952.6</ele>
        <time>2025-02-20T12:01:31Z</time>
      </trkpt>
      <trkpt lat="45.61995" lon="6.52383">
        <ele>1952.6</ele>
        <time>2025-02-20T12:01:32Z</time>
      </trkpt>
      <trkpt lat="45.61996" lon="6.52383">
        <ele>1953.4</ele>
        <time>2025-02-20T12:01:33Z</time>
      </trkpt>
      <trkpt lat="45.61996" lon="6.52382">
        <ele>1953.4</ele>
        <time>2025-02-20T12:01:34Z</time>
      </trkpt>
      <trkpt lat="45.61997" lon="6.52382">
        <ele>1953.4</ele>
        <time>2025-02-20T12:01:35Z</time>
      </trkpt>
      <trkpt lat="45.61997" lon="6.52381">
        <ele>1953.2</ele>
        <time>2025-02-20T12:01:36Z</time>
      </trkpt>
      <trkpt lat="45.61998" lon="6.52381">
        <ele>1953.2</ele>
        <time>2025-02-20T12:01:37Z</time>
      </trkpt>
      <trkpt lat="45.61998" lon="6.5238">
        <ele>1953.2</ele>
        <time>2025-02-20T12:01:38Z</time>
      </trkpt>
      <trkpt lat="45.61998" lon="6.52379">
        <ele>1953.2</ele>
        <time>2025-02-20T12:01:39Z</time>
      </trkpt>
      <trkpt lat="45.61998" lon="6.52379">
        <ele>1953.2</ele>
        <time>2025-02-20T12:01:40Z</time>
      </trkpt>
      <trkpt lat="45.61998" lon="6.52379">
        <ele>1954.4</ele>
        <time>2025-02-20T12:01:41Z</time>
      </trkpt>
      <trkpt lat="45.61998" lon="6.52379">
        <ele>1954.4</ele>
        <time>2025-02-20T12:01:42Z</time>
      </trkpt>
      <trkpt lat="45.61998" lon="6.52379">
        <ele>1954.4</ele>
        <time>2025-02-20T12:01:43Z</time>
      </trkpt>
      <trkpt lat="45.61999" lon="6.52376">
        <ele>1954.4</ele>
        <time>2025-02-20T12:01:44Z</time>
      </trkpt>
      <trkpt lat="45.61999" lon="6.52376">
        <ele>1954.8</ele>
        <time>2025-02-20T12:01:45Z</time>
      </trkpt>
      <trkpt lat="45.62" lon="6.52375">
        <ele>1954.8</ele>
        <time>2025-02-20T12:01:46Z</time>
      </trkpt>
      <trkpt lat="45.62" lon="6.52375">
        <ele>1954.8</ele>
        <time>2025-02-20T12:01:47Z</time>
      </trkpt>
      <trkpt lat="45.62" lon="6.52375">
        <ele>1954.8</ele>
        <time>2025-02-20T12:01:48Z</time>
      </trkpt>
      <trkpt lat="45.62" lon="6.52375">
        <ele>1954.8</ele>
        <time>2025-02-20T12:01:49Z</time>
      </trkpt>
      <trkpt lat="45.62" lon="6.52375">
        <ele>1954.8</ele>
        <time>2025-02-20T12:01:50Z</time>
      </trkpt>
      <trkpt lat="45.62" lon="6.52375">
        <ele>1954.8</ele>
        <time>2025-02-20T12:01:51Z</time>
      </trkpt>
      <trkpt lat="45.62" lon="6.52375">
        <ele>1955.8</ele>
        <time>2025-02-20T12:01:52Z</time>
      </trkpt>
      <trkpt lat="45.62" lon="6.52375">
        <ele>1955.6</ele>
        <time>2025-02-20T12:01:53Z</time>
      </trkpt>
      <trkpt lat="45.62" lon="6.52375">
        <ele>1955.6</ele>
        <time>2025-02-20T12:01:54Z</time>
      </trkpt>
      <trkpt lat="45.62002" lon="6.5237">
        <ele>1955.6</ele>
        <time>2025-02-20T12:01:55Z</time>
      </trkpt>
      <trkpt lat="45.62001" lon="6.52369">
        <ele>1955.6</ele>
        <time>2025-02-20T12:01:56Z</time>
      </trkpt>
      <trkpt lat="45.62001" lon="6.52368">
        <ele>1955.4</ele>
        <time>2025-02-20T12:01:57Z</time>
      </trkpt>
      <trkpt lat="45.62001" lon="6.52368">
        <ele>1955.4</ele>
        <time>2025-02-20T12:01:58Z</time>
      </trkpt>
      <trkpt lat="45.62001" lon="6.52368">
        <ele>1955.4</ele>
        <time>2025-02-20T12:01:59Z</time>
      </trkpt>
      <trkpt lat="45.62001" lon="6.52367">
        <ele>1956.4</ele>
        <time>2025-02-20T12:02:00Z</time>
      </trkpt>
      <trkpt lat="45.62" lon="6.52366">
        <ele>1957.2</ele>
        <time>2025-02-20T12:02:01Z</time>
      </trkpt>
      <trkpt lat="45.62" lon="6.52366">
        <ele>1957.2</ele>
        <time>2025-02-20T12:02:02Z</time>
      </trkpt>
      <trkpt lat="45.62" lon="6.52366">
        <ele>1957.2</ele>
        <time>2025-02-20T12:02:03Z</time>
      </trkpt>
      <trkpt lat="45.61999" lon="6.52366">
        <ele>1957</ele>
        <time>2025-02-20T12:02:04Z</time>
      </trkpt>
      <trkpt lat="45.61999" lon="6.52366">
        <ele>1956.8</ele>
        <time>2025-02-20T12:02:05Z</time>
      </trkpt>
      <trkpt lat="45.61999" lon="6.52366">
        <ele>1956.8</ele>
        <time>2025-02-20T12:02:06Z</time>
      </trkpt>
      <trkpt lat="45.61999" lon="6.52366">
        <ele>1956.8</ele>
        <time>2025-02-20T12:02:07Z</time>
      </trkpt>
      <trkpt lat="45.61999" lon="6.52366">
        <ele>1957</ele>
        <time>2025-02-20T12:02:08Z</time>
      </trkpt>
      <trkpt lat="45.61999" lon="6.52366">
        <ele>1957.2</ele>
        <time>2025-02-20T12:02:09Z</time>
      </trkpt>
      <trkpt lat="45.61999" lon="6.52366">
        <ele>1957.2</ele>
        <time>2025-02-20T12:02:10Z</time>
      </trkpt>
      <trkpt lat="45.61999" lon="6.52366">
        <ele>1957.2</ele>
        <time>2025-02-20T12:02:11Z</time>
      </trkpt>
      <trkpt lat="45.61999" lon="6.52366">
        <ele>1957.2</ele>
        <time>2025-02-20T12:02:12Z</time>
      </trkpt>
      <trkpt lat="45.61999" lon="6.52366">
        <ele>1956.8</ele>
        <time>2025-02-20T12:02:13Z</time>
      </trkpt>
      <trkpt lat="45.61999" lon="6.52366">
        <ele>1956.8</ele>
        <time>2025-02-20T12:02:14Z</time>
      </trkpt>
      <trkpt lat="45.61999" lon="6.52366">
        <ele>1956.8</ele>
        <time>2025-02-20T12:02:15Z</time>
      </trkpt>
      <trkpt lat="45.61999" lon="6.52366">
        <ele>1957.2</ele>
        <time>2025-02-20T12:02:16Z</time>
      </trkpt>
      <trkpt lat="45.61999" lon="6.52366">
        <ele>1957.2</ele>
        <time>2025-02-20T12:02:17Z</time>
      </trkpt>
      <trkpt lat="45.61999" lon="6.52366">
        <ele>1957.2</ele>
        <time>2025-02-20T12:02:18Z</time>
      </trkpt>
      <trkpt lat="45.61999" lon="6.52366">
        <ele>1957.2</ele>
        <time>2025-02-20T12:02:19Z</time>
      </trkpt>
      <trkpt lat="45.61999" lon="6.52366">
        <ele>1957.2</ele>
        <time>2025-02-20T12:02:20Z</time>
      </trkpt>
      <trkpt lat="45.61999" lon="6.52366">
        <ele>1956.8</ele>
        <time>2025-02-20T12:02:21Z</time>
      </trkpt>
      <trkpt lat="45.61999" lon="6.52366">
        <ele>1956.8</ele>
        <time>2025-02-20T12:02:22Z</time>
      </trkpt>
      <trkpt lat="45.61999" lon="6.52366">
        <ele>1956.8</ele>
        <time>2025-02-20T12:02:23Z</time>
      </trkpt>
      <trkpt lat="45.61999" lon="6.52366">
        <ele>1957.8</ele>
        <time>2025-02-20T12:02:24Z</time>
      </trkpt>
      <trkpt lat="45.61999" lon="6.52366">
        <ele>1958.8</ele>
        <time>2025-02-20T12:02:25Z</time>
      </trkpt>
      <trkpt lat="45.61999" lon="6.52366">
        <ele>1958.8</ele>
        <time>2025-02-20T12:02:26Z</time>
      </trkpt>
      <trkpt lat="45.61999" lon="6.52366">
        <ele>1958.8</ele>
        <time>2025-02-20T12:02:27Z</time>
      </trkpt>
      <trkpt lat="45.61999" lon="6.52366">
        <ele>1959.2</ele>
        <time>2025-02-20T12:02:28Z</time>
      </trkpt>
      <trkpt lat="45.61999" lon="6.52366">
        <ele>1959</ele>
        <time>2025-02-20T12:02:29Z</time>
      </trkpt>
      <trkpt lat="45.61995" lon="6.52368">
        <ele>1959</ele>
        <time>2025-02-20T12:02:30Z</time>
      </trkpt>
      <trkpt lat="45.61995" lon="6.52368">
        <ele>1959</ele>
        <time>2025-02-20T12:02:31Z</time>
      </trkpt>
      <trkpt lat="45.61995" lon="6.52368">
        <ele>1959</ele>
        <time>2025-02-20T12:02:32Z</time>
      </trkpt>
      <trkpt lat="45.61995" lon="6.52368">
        <ele>1959.4</ele>
        <time>2025-02-20T12:02:33Z</time>
      </trkpt>
      <trkpt lat="45.61995" lon="6.52368">
        <ele>1959.4</ele>
        <time>2025-02-20T12:02:34Z</time>
      </trkpt>
      <trkpt lat="45.61995" lon="6.52368">
        <ele>1959.4</ele>
        <time>2025-02-20T12:02:35Z</time>
      </trkpt>
      <trkpt lat="45.61995" lon="6.52368">
        <ele>1960.2</ele>
        <time>2025-02-20T12:02:36Z</time>
      </trkpt>
      <trkpt lat="45.61995" lon="6.52368">
        <ele>1959.8</ele>
        <time>2025-02-20T12:02:37Z</time>
      </trkpt>
      <trkpt lat="45.61995" lon="6.52368">
        <ele>1959.8</ele>
        <time>2025-02-20T12:02:38Z</time>
      </trkpt>
      <trkpt lat="45.61995" lon="6.52368">
        <ele>1959.8</ele>
        <time>2025-02-20T12:02:39Z</time>
      </trkpt>
      <trkpt lat="45.61989" lon="6.52368">
        <ele>1959.8</ele>
        <time>2025-02-20T12:02:40Z</time>
      </trkpt>
      <trkpt lat="45.61988" lon="6.52369">
        <ele>1959.2</ele>
        <time>2025-02-20T12:02:41Z</time>
      </trkpt>
      <trkpt lat="45.61987" lon="6.52368">
        <ele>1959.2</ele>
        <time>2025-02-20T12:02:42Z</time>
      </trkpt>
      <trkpt lat="45.61986" lon="6.52368">
        <ele>1959.2</ele>
        <time>2025-02-20T12:02:43Z</time>
      </trkpt>
      <trkpt lat="45.61985" lon="6.52368">
        <ele>1959.2</ele>
        <time>2025-02-20T12:02:44Z</time>
      </trkpt>
      <trkpt lat="45.61985" lon="6.52368">
        <ele>1959.2</ele>
        <time>2025-02-20T12:02:45Z</time>
      </trkpt>
      <trkpt lat="45.61983" lon="6.52369">
        <ele>1959.2</ele>
        <time>2025-02-20T12:02:46Z</time>
      </trkpt>
      <trkpt lat="45.61983" lon="6.52369">
        <ele>1959.2</ele>
        <time>2025-02-20T12:02:47Z</time>
      </trkpt>
      <trkpt lat="45.61983" lon="6.52369">
        <ele>1960.2</ele>
        <time>2025-02-20T12:02:48Z</time>
      </trkpt>
      <trkpt lat="45.61983" lon="6.52369">
        <ele>1960.4</ele>
        <time>2025-02-20T12:02:49Z</time>
      </trkpt>
      <trkpt lat="45.61981" lon="6.52367">
        <ele>1960.4</ele>
        <time>2025-02-20T12:02:50Z</time>
      </trkpt>
      <trkpt lat="45.61981" lon="6.52367">
        <ele>1960.4</ele>
        <time>2025-02-20T12:02:51Z</time>
      </trkpt>
      <trkpt lat="45.61981" lon="6.52367">
        <ele>1961.4</ele>
        <time>2025-02-20T12:02:52Z</time>
      </trkpt>
      <trkpt lat="45.61981" lon="6.52367">
        <ele>1960.2</ele>
        <time>2025-02-20T12:02:53Z</time>
      </trkpt>
      <trkpt lat="45.61981" lon="6.52367">
        <ele>1960.2</ele>
        <time>2025-02-20T12:02:54Z</time>
      </trkpt>
      <trkpt lat="45.61981" lon="6.52367">
        <ele>1960.2</ele>
        <time>2025-02-20T12:02:55Z</time>
      </trkpt>
      <trkpt lat="45.61981" lon="6.52367">
        <ele>1961.2</ele>
        <time>2025-02-20T12:02:56Z</time>
      </trkpt>
      <trkpt lat="45.61981" lon="6.52364">
        <ele>1962.2</ele>
        <time>2025-02-20T12:02:57Z</time>
      </trkpt>
      <trkpt lat="45.61981" lon="6.52363">
        <ele>1962.2</ele>
        <time>2025-02-20T12:02:58Z</time>
      </trkpt>
      <trkpt lat="45.61982" lon="6.52361">
        <ele>1962.2</ele>
        <time>2025-02-20T12:02:59Z</time>
      </trkpt>
      <trkpt lat="45.61982" lon="6.52361">
        <ele>1961.2</ele>
        <time>2025-02-20T12:03:00Z</time>
      </trkpt>
      <trkpt lat="45.61982" lon="6.5236">
        <ele>1961.4</ele>
        <time>2025-02-20T12:03:01Z</time>
      </trkpt>
      <trkpt lat="45.61983" lon="6.52359">
        <ele>1961.4</ele>
        <time>2025-02-20T12:03:02Z</time>
      </trkpt>
      <trkpt lat="45.61984" lon="6.52358">
        <ele>1961.4</ele>
        <time>2025-02-20T12:03:03Z</time>
      </trkpt>
      <trkpt lat="45.61984" lon="6.52358">
        <ele>1962.4</ele>
        <time>2025-02-20T12:03:04Z</time>
      </trkpt>
      <trkpt lat="45.61985" lon="6.52357">
        <ele>1962.2</ele>
        <time>2025-02-20T12:03:05Z</time>
      </trkpt>
      <trkpt lat="45.61986" lon="6.52356">
        <ele>1962.2</ele>
        <time>2025-02-20T12:03:06Z</time>
      </trkpt>
      <trkpt lat="45.61986" lon="6.52356">
        <ele>1962.2</ele>
        <time>2025-02-20T12:03:07Z</time>
      </trkpt>
      <trkpt lat="45.61986" lon="6.52356">
        <ele>1963.2</ele>
        <time>2025-02-20T12:03:08Z</time>
      </trkpt>
      <trkpt lat="45.61987" lon="6.52355">
        <ele>1963.2</ele>
        <time>2025-02-20T12:03:09Z</time>
      </trkpt>
      <trkpt lat="45.61987" lon="6.52354">
        <ele>1963.2</ele>
        <time>2025-02-20T12:03:10Z</time>
      </trkpt>
      <trkpt lat="45.61987" lon="6.52354">
        <ele>1963.2</ele>
        <time>2025-02-20T12:03:11Z</time>
      </trkpt>
      <trkpt lat="45.61987" lon="6.52354">
        <ele>1963.2</ele>
        <time>2025-02-20T12:03:12Z</time>
      </trkpt>
      <trkpt lat="45.61987" lon="6.52354">
        <ele>1963.6</ele>
        <time>2025-02-20T12:03:13Z</time>
      </trkpt>
      <trkpt lat="45.61987" lon="6.52354">
        <ele>1963.6</ele>
        <time>2025-02-20T12:03:14Z</time>
      </trkpt>
      <trkpt lat="45.61987" lon="6.52354">
        <ele>1963.6</ele>
        <time>2025-02-20T12:03:15Z</time>
      </trkpt>
      <trkpt lat="45.61987" lon="6.52354">
        <ele>1963.6</ele>
        <time>2025-02-20T12:03:16Z</time>
      </trkpt>
      <trkpt lat="45.61989" lon="6.52351">
        <ele>1963.2</ele>
        <time>2025-02-20T12:03:17Z</time>
      </trkpt>
      <trkpt lat="45.6199" lon="6.52351">
        <ele>1963.2</ele>
        <time>2025-02-20T12:03:18Z</time>
      </trkpt>
      <trkpt lat="45.6199" lon="6.5235">
        <ele>1963.2</ele>
        <time>2025-02-20T12:03:19Z</time>
      </trkpt>
      <trkpt lat="45.6199" lon="6.52349">
        <ele>1964</ele>
        <time>2025-02-20T12:03:20Z</time>
      </trkpt>
      <trkpt lat="45.6199" lon="6.52348">
        <ele>1963.8</ele>
        <time>2025-02-20T12:03:21Z</time>
      </trkpt>
      <trkpt lat="45.6199" lon="6.52348">
        <ele>1963.8</ele>
        <time>2025-02-20T12:03:22Z</time>
      </trkpt>
      <trkpt lat="45.6199" lon="6.52347">
        <ele>1963.8</ele>
        <time>2025-02-20T12:03:23Z</time>
      </trkpt>
      <trkpt lat="45.6199" lon="6.52347">
        <ele>1963.8</ele>
        <time>2025-02-20T12:03:24Z</time>
      </trkpt>
      <trkpt lat="45.6199" lon="6.52346">
        <ele>1964.2</ele>
        <time>2025-02-20T12:03:25Z</time>
      </trkpt>
      <trkpt lat="45.6199" lon="6.52346">
        <ele>1964.2</ele>
        <time>2025-02-20T12:03:26Z</time>
      </trkpt>
      <trkpt lat="45.6199" lon="6.52345">
        <ele>1964.2</ele>
        <time>2025-02-20T12:03:27Z</time>
      </trkpt>
      <trkpt lat="45.6199" lon="6.52344">
        <ele>1964.2</ele>
        <time>2025-02-20T12:03:28Z</time>
      </trkpt>
      <trkpt lat="45.6199" lon="6.52344">
        <ele>1964.8</ele>
        <time>2025-02-20T12:03:29Z</time>
      </trkpt>
      <trkpt lat="45.6199" lon="6.52343">
        <ele>1964.8</ele>
        <time>2025-02-20T12:03:30Z</time>
      </trkpt>
      <trkpt lat="45.6199" lon="6.52343">
        <ele>1964.8</ele>
        <time>2025-02-20T12:03:31Z</time>
      </trkpt>
      <trkpt lat="45.6199" lon="6.52343">
        <ele>1964.8</ele>
        <time>2025-02-20T12:03:32Z</time>
      </trkpt>
      <trkpt lat="45.61989" lon="6.52342">
        <ele>1965</ele>
        <time>2025-02-20T12:03:33Z</time>
      </trkpt>
      <trkpt lat="45.61989" lon="6.52342">
        <ele>1965</ele>
        <time>2025-02-20T12:03:34Z</time>
      </trkpt>
      <trkpt lat="45.61988" lon="6.52343">
        <ele>1965</ele>
        <time>2025-02-20T12:03:35Z</time>
      </trkpt>
      <trkpt lat="45.61987" lon="6.52343">
        <ele>1966</ele>
        <time>2025-02-20T12:03:36Z</time>
      </trkpt>
      <trkpt lat="45.61987" lon="6.52343">
        <ele>1966</ele>
        <time>2025-02-20T12:03:37Z</time>
      </trkpt>
      <trkpt lat="45.61987" lon="6.52343">
        <ele>1966</ele>
        <time>2025-02-20T12:03:38Z</time>
      </trkpt>
      <trkpt lat="45.61986" lon="6.52343">
        <ele>1966</ele>
        <time>2025-02-20T12:03:39Z</time>
      </trkpt>
      <trkpt lat="45.61986" lon="6.52344">
        <ele>1966.6</ele>
        <time>2025-02-20T12:03:40Z</time>
      </trkpt>
      <trkpt lat="45.61986" lon="6.52344">
        <ele>1966.6</ele>
        <time>2025-02-20T12:03:41Z</time>
      </trkpt>
      <trkpt lat="45.61986" lon="6.52344">
        <ele>1966.6</ele>
        <time>2025-02-20T12:03:42Z</time>
      </trkpt>
      <trkpt lat="45.61986" lon="6.52344">
        <ele>1966.6</ele>
        <time>2025-02-20T12:03:43Z</time>
      </trkpt>
      <trkpt lat="45.61986" lon="6.52344">
        <ele>1966.6</ele>
        <time>2025-02-20T12:03:44Z</time>
      </trkpt>
      <trkpt lat="45.61986" lon="6.52344">
        <ele>1967.6</ele>
        <time>2025-02-20T12:03:45Z</time>
      </trkpt>
      <trkpt lat="45.61986" lon="6.52344">
        <ele>1967.6</ele>
        <time>2025-02-20T12:03:46Z</time>
      </trkpt>
      <trkpt lat="45.61986" lon="6.52344">
        <ele>1967.6</ele>
        <time>2025-02-20T12:03:47Z</time>
      </trkpt>
      <trkpt lat="45.61986" lon="6.52344">
        <ele>1967.6</ele>
        <time>2025-02-20T12:03:48Z</time>
      </trkpt>
      <trkpt lat="45.61986" lon="6.52344">
        <ele>1968</ele>
        <time>2025-02-20T12:03:49Z</time>
      </trkpt>
      <trkpt lat="45.61986" lon="6.52344">
        <ele>1968</ele>
        <time>2025-02-20T12:03:50Z</time>
      </trkpt>
      <trkpt lat="45.61986" lon="6.52344">
        <ele>1968</ele>
        <time>2025-02-20T12:03:51Z</time>
      </trkpt>
      <trkpt lat="45.61986" lon="6.52344">
        <ele>1967.4</ele>
        <time>2025-02-20T12:03:52Z</time>
      </trkpt>
      <trkpt lat="45.61979" lon="6.52344">
        <ele>1967.8</ele>
        <time>2025-02-20T12:03:53Z</time>
      </trkpt>
      <trkpt lat="45.61978" lon="6.52344">
        <ele>1967.8</ele>
        <time>2025-02-20T12:03:54Z</time>
      </trkpt>
      <trkpt lat="45.61978" lon="6.52344">
        <ele>1967.8</ele>
        <time>2025-02-20T12:03:55Z</time>
      </trkpt>
      <trkpt lat="45.61978" lon="6.52344">
        <ele>1967.2</ele>
        <time>2025-02-20T12:03:56Z</time>
      </trkpt>
      <trkpt lat="45.61977" lon="6.52344">
        <ele>1968</ele>
        <time>2025-02-20T12:03:57Z</time>
      </trkpt>
      <trkpt lat="45.61977" lon="6.52344">
        <ele>1968</ele>
        <time>2025-02-20T12:03:58Z</time>
      </trkpt>
      <trkpt lat="45.61976" lon="6.52344">
        <ele>1968</ele>
        <time>2025-02-20T12:03:59Z</time>
      </trkpt>
      <trkpt lat="45.61975" lon="6.52344">
        <ele>1968</ele>
        <time>2025-02-20T12:04:00Z</time>
      </trkpt>
      <trkpt lat="45.61975" lon="6.52344">
        <ele>1968.4</ele>
        <time>2025-02-20T12:04:01Z</time>
      </trkpt>
      <trkpt lat="45.61975" lon="6.52344">
        <ele>1968.4</ele>
        <time>2025-02-20T12:04:02Z</time>
      </trkpt>
      <trkpt lat="45.61975" lon="6.52344">
        <ele>1968.4</ele>
        <time>2025-02-20T12:04:03Z</time>
      </trkpt>
      <trkpt lat="45.61975" lon="6.52344">
        <ele>1969.4</ele>
        <time>2025-02-20T12:04:04Z</time>
      </trkpt>
      <trkpt lat="45.61975" lon="6.52344">
        <ele>1969</ele>
        <time>2025-02-20T12:04:05Z</time>
      </trkpt>
      <trkpt lat="45.61972" lon="6.52344">
        <ele>1969</ele>
        <time>2025-02-20T12:04:06Z</time>
      </trkpt>
      <trkpt lat="45.61971" lon="6.52344">
        <ele>1969</ele>
        <time>2025-02-20T12:04:07Z</time>
      </trkpt>
      <trkpt lat="45.6197" lon="6.52344">
        <ele>1969</ele>
        <time>2025-02-20T12:04:08Z</time>
      </trkpt>
      <trkpt lat="45.61969" lon="6.52345">
        <ele>1969.4</ele>
        <time>2025-02-20T12:04:09Z</time>
      </trkpt>
      <trkpt lat="45.61969" lon="6.52345">
        <ele>1969.4</ele>
        <time>2025-02-20T12:04:10Z</time>
      </trkpt>
      <trkpt lat="45.61968" lon="6.52345">
        <ele>1969.4</ele>
        <time>2025-02-20T12:04:11Z</time>
      </trkpt>
      <trkpt lat="45.61968" lon="6.52346">
        <ele>1969.4</ele>
        <time>2025-02-20T12:04:12Z</time>
      </trkpt>
      <trkpt lat="45.61967" lon="6.52346">
        <ele>1969</ele>
        <time>2025-02-20T12:04:13Z</time>
      </trkpt>
      <trkpt lat="45.61967" lon="6.52346">
        <ele>1969</ele>
        <time>2025-02-20T12:04:14Z</time>
      </trkpt>
      <trkpt lat="45.61967" lon="6.52346">
        <ele>1969</ele>
        <time>2025-02-20T12:04:15Z</time>
      </trkpt>
      <trkpt lat="45.61967" lon="6.52346">
        <ele>1970</ele>
        <time>2025-02-20T12:04:16Z</time>
      </trkpt>
      <trkpt lat="45.61967" lon="6.52346">
        <ele>1970.8</ele>
        <time>2025-02-20T12:04:17Z</time>
      </trkpt>
      <trkpt lat="45.61967" lon="6.52346">
        <ele>1970.8</ele>
        <time>2025-02-20T12:04:18Z</time>
      </trkpt>
      <trkpt lat="45.61965" lon="6.52346">
        <ele>1970.8</ele>
        <time>2025-02-20T12:04:19Z</time>
      </trkpt>
      <trkpt lat="45.61965" lon="6.52346">
        <ele>1971.4</ele>
        <time>2025-02-20T12:04:20Z</time>
      </trkpt>
      <trkpt lat="45.61965" lon="6.52346">
        <ele>1971.2</ele>
        <time>2025-02-20T12:04:21Z</time>
      </trkpt>
      <trkpt lat="45.61965" lon="6.52346">
        <ele>1971.2</ele>
        <time>2025-02-20T12:04:22Z</time>
      </trkpt>
      <trkpt lat="45.61965" lon="6.52346">
        <ele>1971.2</ele>
        <time>2025-02-20T12:04:23Z</time>
      </trkpt>
      <trkpt lat="45.61965" lon="6.52346">
        <ele>1971.2</ele>
        <time>2025-02-20T12:04:24Z</time>
      </trkpt>
      <trkpt lat="45.61965" lon="6.52346">
        <ele>1972</ele>
        <time>2025-02-20T12:04:25Z</time>
      </trkpt>
      <trkpt lat="45.61965" lon="6.52346">
        <ele>1972</ele>
        <time>2025-02-20T12:04:26Z</time>
      </trkpt>
      <trkpt lat="45.61965" lon="6.52346">
        <ele>1972</ele>
        <time>2025-02-20T12:04:27Z</time>
      </trkpt>
      <trkpt lat="45.61965" lon="6.52346">
        <ele>1972</ele>
        <time>2025-02-20T12:04:28Z</time>
      </trkpt>
      <trkpt lat="45.61965" lon="6.52346">
        <ele>1971.8</ele>
        <time>2025-02-20T12:04:29Z</time>
      </trkpt>
      <trkpt lat="45.61965" lon="6.52346">
        <ele>1971.8</ele>
        <time>2025-02-20T12:04:30Z</time>
      </trkpt>
      <trkpt lat="45.61965" lon="6.52346">
        <ele>1971.8</ele>
        <time>2025-02-20T12:04:31Z</time>
      </trkpt>
      <trkpt lat="45.61965" lon="6.52346">
        <ele>1971.8</ele>
        <time>2025-02-20T12:04:32Z</time>
      </trkpt>
      <trkpt lat="45.61964" lon="6.52348">
        <ele>1973</ele>
        <time>2025-02-20T12:04:33Z</time>
      </trkpt>
      <trkpt lat="45.61963" lon="6.5235">
        <ele>1973</ele>
        <time>2025-02-20T12:04:34Z</time>
      </trkpt>
      <trkpt lat="45.61962" lon="6.52351">
        <ele>1973</ele>
        <time>2025-02-20T12:04:35Z</time>
      </trkpt>
      <trkpt lat="45.61961" lon="6.52351">
        <ele>1973</ele>
        <time>2025-02-20T12:04:36Z</time>
      </trkpt>
      <trkpt lat="45.61961" lon="6.52351">
        <ele>1973.2</ele>
        <time>2025-02-20T12:04:37Z</time>
      </trkpt>
      <trkpt lat="45.6196" lon="6.52349">
        <ele>1973.2</ele>
        <time>2025-02-20T12:04:38Z</time>
      </trkpt>
      <trkpt lat="45.6196" lon="6.52349">
        <ele>1973.2</ele>
        <time>2025-02-20T12:04:39Z</time>
      </trkpt>
      <trkpt lat="45.6196" lon="6.52348">
        <ele>1973.2</ele>
        <time>2025-02-20T12:04:40Z</time>
      </trkpt>
      <trkpt lat="45.6196" lon="6.52347">
        <ele>1972.8</ele>
        <time>2025-02-20T12:04:41Z</time>
      </trkpt>
      <trkpt lat="45.6196" lon="6.52347">
        <ele>1972.8</ele>
        <time>2025-02-20T12:04:42Z</time>
      </trkpt>
      <trkpt lat="45.6196" lon="6.52347">
        <ele>1972.8</ele>
        <time>2025-02-20T12:04:43Z</time>
      </trkpt>
      <trkpt lat="45.61958" lon="6.52345">
        <ele>1973.8</ele>
        <time>2025-02-20T12:04:44Z</time>
      </trkpt>
      <trkpt lat="45.61958" lon="6.52345">
        <ele>1974</ele>
        <time>2025-02-20T12:04:45Z</time>
      </trkpt>
      <trkpt lat="45.61958" lon="6.52345">
        <ele>1974</ele>
        <time>2025-02-20T12:04:46Z</time>
      </trkpt>
      <trkpt lat="45.61958" lon="6.52345">
        <ele>1974</ele>
        <time>2025-02-20T12:04:47Z</time>
      </trkpt>
      <trkpt lat="45.61958" lon="6.52345">
        <ele>1974</ele>
        <time>2025-02-20T12:04:48Z</time>
      </trkpt>
      <trkpt lat="45.61958" lon="6.52345">
        <ele>1975</ele>
        <time>2025-02-20T12:04:49Z</time>
      </trkpt>
      <trkpt lat="45.61957" lon="6.52345">
        <ele>1975</ele>
        <time>2025-02-20T12:04:50Z</time>
      </trkpt>
      <trkpt lat="45.61957" lon="6.52343">
        <ele>1975</ele>
        <time>2025-02-20T12:04:51Z</time>
      </trkpt>
      <trkpt lat="45.61956" lon="6.52343">
        <ele>1975</ele>
        <time>2025-02-20T12:04:52Z</time>
      </trkpt>
      <trkpt lat="45.61956" lon="6.52343">
        <ele>1974.4</ele>
        <time>2025-02-20T12:04:53Z</time>
      </trkpt>
      <trkpt lat="45.61956" lon="6.52343">
        <ele>1974.4</ele>
        <time>2025-02-20T12:04:54Z</time>
      </trkpt>
      <trkpt lat="45.61956" lon="6.52343">
        <ele>1974.4</ele>
        <time>2025-02-20T12:04:55Z</time>
      </trkpt>
      <trkpt lat="45.61956" lon="6.52343">
        <ele>1975.4</ele>
        <time>2025-02-20T12:04:56Z</time>
      </trkpt>
      <trkpt lat="45.61956" lon="6.52343">
        <ele>1975.2</ele>
        <time>2025-02-20T12:04:57Z</time>
      </trkpt>
      <trkpt lat="45.61956" lon="6.52343">
        <ele>1975.2</ele>
        <time>2025-02-20T12:04:58Z</time>
      </trkpt>
      <trkpt lat="45.61956" lon="6.52343">
        <ele>1975.2</ele>
        <time>2025-02-20T12:04:59Z</time>
      </trkpt>
      <trkpt lat="45.61956" lon="6.52343">
        <ele>1975.2</ele>
        <time>2025-02-20T12:05:00Z</time>
      </trkpt>
      <trkpt lat="45.61954" lon="6.52342">
        <ele>1976.4</ele>
        <time>2025-02-20T12:05:01Z</time>
      </trkpt>
      <trkpt lat="45.61954" lon="6.52342">
        <ele>1976.4</ele>
        <time>2025-02-20T12:05:02Z</time>
      </trkpt>
      <trkpt lat="45.61954" lon="6.52342">
        <ele>1976.4</ele>
        <time>2025-02-20T12:05:03Z</time>
      </trkpt>
      <trkpt lat="45.61952" lon="6.52341">
        <ele>1976.4</ele>
        <time>2025-02-20T12:05:04Z</time>
      </trkpt>
      <trkpt lat="45.61951" lon="6.5234">
        <ele>1975.8</ele>
        <time>2025-02-20T12:05:05Z</time>
      </trkpt>
      <trkpt lat="45.6195" lon="6.5234">
        <ele>1975.8</ele>
        <time>2025-02-20T12:05:06Z</time>
      </trkpt>
      <trkpt lat="45.61949" lon="6.52339">
        <ele>1975.8</ele>
        <time>2025-02-20T12:05:07Z</time>
      </trkpt>
      <trkpt lat="45.61949" lon="6.52339">
        <ele>1976.8</ele>
        <time>2025-02-20T12:05:08Z</time>
      </trkpt>
      <trkpt lat="45.61949" lon="6.52339">
        <ele>1977.2</ele>
        <time>2025-02-20T12:05:09Z</time>
      </trkpt>
      <trkpt lat="45.61949" lon="6.52339">
        <ele>1977.2</ele>
        <time>2025-02-20T12:05:10Z</time>
      </trkpt>
      <trkpt lat="45.61948" lon="6.52338">
        <ele>1977.2</ele>
        <time>2025-02-20T12:05:11Z</time>
      </trkpt>
      <trkpt lat="45.61948" lon="6.52337">
        <ele>1977.2</ele>
        <time>2025-02-20T12:05:12Z</time>
      </trkpt>
      <trkpt lat="45.61947" lon="6.52337">
        <ele>1977</ele>
        <time>2025-02-20T12:05:13Z</time>
      </trkpt>
      <trkpt lat="45.61947" lon="6.52337">
        <ele>1977</ele>
        <time>2025-02-20T12:05:14Z</time>
      </trkpt>
      <trkpt lat="45.61947" lon="6.52337">
        <ele>1977</ele>
        <time>2025-02-20T12:05:15Z</time>
      </trkpt>
      <trkpt lat="45.61947" lon="6.52337">
        <ele>1977.4</ele>
        <time>2025-02-20T12:05:16Z</time>
      </trkpt>
      <trkpt lat="45.61945" lon="6.52336">
        <ele>1978.4</ele>
        <time>2025-02-20T12:05:17Z</time>
      </trkpt>
      <trkpt lat="45.61945" lon="6.52335">
        <ele>1978.4</ele>
        <time>2025-02-20T12:05:18Z</time>
      </trkpt>
      <trkpt lat="45.61944" lon="6.52335">
        <ele>1978.4</ele>
        <time>2025-02-20T12:05:19Z</time>
      </trkpt>
      <trkpt lat="45.61944" lon="6.52335">
        <ele>1978.4</ele>
        <time>2025-02-20T12:05:20Z</time>
      </trkpt>
      <trkpt lat="45.61944" lon="6.52335">
        <ele>1978.8</ele>
        <time>2025-02-20T12:05:21Z</time>
      </trkpt>
      <trkpt lat="45.61944" lon="6.52335">
        <ele>1978.8</ele>
        <time>2025-02-20T12:05:22Z</time>
      </trkpt>
      <trkpt lat="45.61944" lon="6.52335">
        <ele>1978.8</ele>
        <time>2025-02-20T12:05:23Z</time>
      </trkpt>
      <trkpt lat="45.61944" lon="6.52335">
        <ele>1978.4</ele>
        <time>2025-02-20T12:05:24Z</time>
      </trkpt>
      <trkpt lat="45.61944" lon="6.52335">
        <ele>1977.8</ele>
        <time>2025-02-20T12:05:25Z</time>
      </trkpt>
      <trkpt lat="45.61944" lon="6.52335">
        <ele>1977.8</ele>
        <time>2025-02-20T12:05:26Z</time>
      </trkpt>
      <trkpt lat="45.61944" lon="6.52335">
        <ele>1977.8</ele>
        <time>2025-02-20T12:05:27Z</time>
      </trkpt>
      <trkpt lat="45.61944" lon="6.52335">
        <ele>1978.8</ele>
        <time>2025-02-20T12:05:28Z</time>
      </trkpt>
      <trkpt lat="45.61944" lon="6.52335">
        <ele>1978.2</ele>
        <time>2025-02-20T12:05:29Z</time>
      </trkpt>
      <trkpt lat="45.61942" lon="6.52333">
        <ele>1978.2</ele>
        <time>2025-02-20T12:05:30Z</time>
      </trkpt>
      <trkpt lat="45.6194" lon="6.52334">
        <ele>1978.2</ele>
        <time>2025-02-20T12:05:31Z</time>
      </trkpt>
      <trkpt lat="45.61939" lon="6.52333">
        <ele>1979.2</ele>
        <time>2025-02-20T12:05:32Z</time>
      </trkpt>
      <trkpt lat="45.61939" lon="6.52332">
        <ele>1978.6</ele>
        <time>2025-02-20T12:05:33Z</time>
      </trkpt>
      <trkpt lat="45.61938" lon="6.52331">
        <ele>1978.6</ele>
        <time>2025-02-20T12:05:34Z</time>
      </trkpt>
      <trkpt lat="45.61937" lon="6.52331">
        <ele>1978.6</ele>
        <time>2025-02-20T12:05:35Z</time>
      </trkpt>
      <trkpt lat="45.61936" lon="6.52331">
        <ele>1979.4</ele>
        <time>2025-02-20T12:05:36Z</time>
      </trkpt>
      <trkpt lat="45.61936" lon="6.52331">
        <ele>1979</ele>
        <time>2025-02-20T12:05:37Z</time>
      </trkpt>
      <trkpt lat="45.61935" lon="6.5233">
        <ele>1979</ele>
        <time>2025-02-20T12:05:38Z</time>
      </trkpt>
      <trkpt lat="45.61935" lon="6.52329">
        <ele>1979</ele>
        <time>2025-02-20T12:05:39Z</time>
      </trkpt>
      <trkpt lat="45.61935" lon="6.52329">
        <ele>1980</ele>
        <time>2025-02-20T12:05:40Z</time>
      </trkpt>
      <trkpt lat="45.61935" lon="6.52329">
        <ele>1979.8</ele>
        <time>2025-02-20T12:05:41Z</time>
      </trkpt>
      <trkpt lat="45.61935" lon="6.52329">
        <ele>1979.8</ele>
        <time>2025-02-20T12:05:42Z</time>
      </trkpt>
      <trkpt lat="45.61935" lon="6.52329">
        <ele>1979.8</ele>
        <time>2025-02-20T12:05:43Z</time>
      </trkpt>
      <trkpt lat="45.61935" lon="6.52329">
        <ele>1979.8</ele>
        <time>2025-02-20T12:05:44Z</time>
      </trkpt>
      <trkpt lat="45.61935" lon="6.52329">
        <ele>1979.8</ele>
        <time>2025-02-20T12:05:45Z</time>
      </trkpt>
      <trkpt lat="45.61932" lon="6.52326">
        <ele>1979.8</ele>
        <time>2025-02-20T12:05:46Z</time>
      </trkpt>
      <trkpt lat="45.61932" lon="6.52326">
        <ele>1979.8</ele>
        <time>2025-02-20T12:05:47Z</time>
      </trkpt>
      <trkpt lat="45.61931" lon="6.52325">
        <ele>1980.8</ele>
        <time>2025-02-20T12:05:48Z</time>
      </trkpt>
      <trkpt lat="45.61931" lon="6.52323">
        <ele>1981.4</ele>
        <time>2025-02-20T12:05:49Z</time>
      </trkpt>
      <trkpt lat="45.6193" lon="6.52323">
        <ele>1981.4</ele>
        <time>2025-02-20T12:05:50Z</time>
      </trkpt>
      <trkpt lat="45.61929" lon="6.52323">
        <ele>1981.4</ele>
        <time>2025-02-20T12:05:51Z</time>
      </trkpt>
      <trkpt lat="45.61928" lon="6.52322">
        <ele>1981.4</ele>
        <time>2025-02-20T12:05:52Z</time>
      </trkpt>
      <trkpt lat="45.61927" lon="6.52323">
        <ele>1981.8</ele>
        <time>2025-02-20T12:05:53Z</time>
      </trkpt>
      <trkpt lat="45.61926" lon="6.52322">
        <ele>1981.8</ele>
        <time>2025-02-20T12:05:54Z</time>
      </trkpt>
      <trkpt lat="45.61925" lon="6.52321">
        <ele>1981.8</ele>
        <time>2025-02-20T12:05:55Z</time>
      </trkpt>
      <trkpt lat="45.61925" lon="6.52321">
        <ele>1982.4</ele>
        <time>2025-02-20T12:05:56Z</time>
      </trkpt>
      <trkpt lat="45.61925" lon="6.5232">
        <ele>1982.4</ele>
        <time>2025-02-20T12:05:57Z</time>
      </trkpt>
      <trkpt lat="45.61925" lon="6.5232">
        <ele>1982.4</ele>
        <time>2025-02-20T12:05:58Z</time>
      </trkpt>
      <trkpt lat="45.61924" lon="6.52318">
        <ele>1982.4</ele>
        <time>2025-02-20T12:05:59Z</time>
      </trkpt>
      <trkpt lat="45.61924" lon="6.52317">
        <ele>1982.8</ele>
        <time>2025-02-20T12:06:00Z</time>
      </trkpt>
      <trkpt lat="45.61923" lon="6.52317">
        <ele>1983.2</ele>
        <time>2025-02-20T12:06:01Z</time>
      </trkpt>
      <trkpt lat="45.61923" lon="6.52317">
        <ele>1983.2</ele>
        <time>2025-02-20T12:06:02Z</time>
      </trkpt>
      <trkpt lat="45.61923" lon="6.52316">
        <ele>1983.2</ele>
        <time>2025-02-20T12:06:03Z</time>
      </trkpt>
      <trkpt lat="45.61923" lon="6.52316">
        <ele>1983.6</ele>
        <time>2025-02-20T12:06:04Z</time>
      </trkpt>
      <trkpt lat="45.61923" lon="6.52315">
        <ele>1982.8</ele>
        <time>2025-02-20T12:06:05Z</time>
      </trkpt>
      <trkpt lat="45.61922" lon="6.52315">
        <ele>1982.8</ele>
        <time>2025-02-20T12:06:06Z</time>
      </trkpt>
      <trkpt lat="45.61922" lon="6.52314">
        <ele>1982.8</ele>
        <time>2025-02-20T12:06:07Z</time>
      </trkpt>
      <trkpt lat="45.61922" lon="6.52314">
        <ele>1983</ele>
        <time>2025-02-20T12:06:08Z</time>
      </trkpt>
      <trkpt lat="45.61922" lon="6.52312">
        <ele>1983.4</ele>
        <time>2025-02-20T12:06:09Z</time>
      </trkpt>
      <trkpt lat="45.61922" lon="6.52312">
        <ele>1983.4</ele>
        <time>2025-02-20T12:06:10Z</time>
      </trkpt>
      <trkpt lat="45.61922" lon="6.52311">
        <ele>1983.4</ele>
        <time>2025-02-20T12:06:11Z</time>
      </trkpt>
      <trkpt lat="45.61922" lon="6.5231">
        <ele>1983</ele>
        <time>2025-02-20T12:06:12Z</time>
      </trkpt>
      <trkpt lat="45.61922" lon="6.5231">
        <ele>1983.6</ele>
        <time>2025-02-20T12:06:13Z</time>
      </trkpt>
      <trkpt lat="45.61922" lon="6.52308">
        <ele>1983.6</ele>
        <time>2025-02-20T12:06:14Z</time>
      </trkpt>
      <trkpt lat="45.61921" lon="6.52307">
        <ele>1983.6</ele>
        <time>2025-02-20T12:06:15Z</time>
      </trkpt>
      <trkpt lat="45.61921" lon="6.52306">
        <ele>1983.6</ele>
        <time>2025-02-20T12:06:16Z</time>
      </trkpt>
      <trkpt lat="45.6192" lon="6.52306">
        <ele>1984.2</ele>
        <time>2025-02-20T12:06:17Z</time>
      </trkpt>
      <trkpt lat="45.6192" lon="6.52305">
        <ele>1984.2</ele>
        <time>2025-02-20T12:06:18Z</time>
      </trkpt>
      <trkpt lat="45.6192" lon="6.52305">
        <ele>1984.2</ele>
        <time>2025-02-20T12:06:19Z</time>
      </trkpt>
      <trkpt lat="45.6192" lon="6.52305">
        <ele>1983.8</ele>
        <time>2025-02-20T12:06:20Z</time>
      </trkpt>
      <trkpt lat="45.6192" lon="6.52305">
        <ele>1984.2</ele>
        <time>2025-02-20T12:06:21Z</time>
      </trkpt>
      <trkpt lat="45.6192" lon="6.52305">
        <ele>1984.2</ele>
        <time>2025-02-20T12:06:22Z</time>
      </trkpt>
      <trkpt lat="45.61919" lon="6.52301">
        <ele>1984.2</ele>
        <time>2025-02-20T12:06:23Z</time>
      </trkpt>
      <trkpt lat="45.6192" lon="6.523">
        <ele>1984.6</ele>
        <time>2025-02-20T12:06:24Z</time>
      </trkpt>
      <trkpt lat="45.61919" lon="6.52299">
        <ele>1984</ele>
        <time>2025-02-20T12:06:25Z</time>
      </trkpt>
      <trkpt lat="45.61919" lon="6.52299">
        <ele>1984</ele>
        <time>2025-02-20T12:06:26Z</time>
      </trkpt>
      <trkpt lat="45.61919" lon="6.52298">
        <ele>1984</ele>
        <time>2025-02-20T12:06:27Z</time>
      </trkpt>
      <trkpt lat="45.61918" lon="6.52298">
        <ele>1985</ele>
        <time>2025-02-20T12:06:28Z</time>
      </trkpt>
      <trkpt lat="45.61918" lon="6.52297">
        <ele>1985.6</ele>
        <time>2025-02-20T12:06:29Z</time>
      </trkpt>
      <trkpt lat="45.61918" lon="6.52297">
        <ele>1985.6</ele>
        <time>2025-02-20T12:06:30Z</time>
      </trkpt>
      <trkpt lat="45.61917" lon="6.52295">
        <ele>1985.6</ele>
        <time>2025-02-20T12:06:31Z</time>
      </trkpt>
      <trkpt lat="45.61917" lon="6.52293">
        <ele>1986.2</ele>
        <time>2025-02-20T12:06:32Z</time>
      </trkpt>
      <trkpt lat="45.61916" lon="6.52292">
        <ele>1986.2</ele>
        <time>2025-02-20T12:06:33Z</time>
      </trkpt>
      <trkpt lat="45.61916" lon="6.52291">
        <ele>1986.2</ele>
        <time>2025-02-20T12:06:34Z</time>
      </trkpt>
      <trkpt lat="45.61915" lon="6.5229">
        <ele>1986.2</ele>
        <time>2025-02-20T12:06:35Z</time>
      </trkpt>
      <trkpt lat="45.61915" lon="6.5229">
        <ele>1986.8</ele>
        <time>2025-02-20T12:06:36Z</time>
      </trkpt>
      <trkpt lat="45.61915" lon="6.52289">
        <ele>1987</ele>
        <time>2025-02-20T12:06:37Z</time>
      </trkpt>
      <trkpt lat="45.61914" lon="6.52288">
        <ele>1987</ele>
        <time>2025-02-20T12:06:38Z</time>
      </trkpt>
      <trkpt lat="45.61914" lon="6.52288">
        <ele>1987</ele>
        <time>2025-02-20T12:06:39Z</time>
      </trkpt>
      <trkpt lat="45.61913" lon="6.52287">
        <ele>1987</ele>
        <time>2025-02-20T12:06:40Z</time>
      </trkpt>
      <trkpt lat="45.61913" lon="6.52286">
        <ele>1986.2</ele>
        <time>2025-02-20T12:06:41Z</time>
      </trkpt>
      <trkpt lat="45.61913" lon="6.52285">
        <ele>1986.2</ele>
        <time>2025-02-20T12:06:42Z</time>
      </trkpt>
      <trkpt lat="45.61913" lon="6.52285">
        <ele>1986.2</ele>
        <time>2025-02-20T12:06:43Z</time>
      </trkpt>
      <trkpt lat="45.61912" lon="6.52284">
        <ele>1986.2</ele>
        <time>2025-02-20T12:06:44Z</time>
      </trkpt>
      <trkpt lat="45.61912" lon="6.52283">
        <ele>1986.6</ele>
        <time>2025-02-20T12:06:45Z</time>
      </trkpt>
      <trkpt lat="45.61912" lon="6.52282">
        <ele>1986.6</ele>
        <time>2025-02-20T12:06:46Z</time>
      </trkpt>
      <trkpt lat="45.61912" lon="6.52282">
        <ele>1986.6</ele>
        <time>2025-02-20T12:06:47Z</time>
      </trkpt>
      <trkpt lat="45.61911" lon="6.52281">
        <ele>1986.6</ele>
        <time>2025-02-20T12:06:48Z</time>
      </trkpt>
      <trkpt lat="45.61911" lon="6.5228">
        <ele>1987</ele>
        <time>2025-02-20T12:06:49Z</time>
      </trkpt>
      <trkpt lat="45.61911" lon="6.52279">
        <ele>1987</ele>
        <time>2025-02-20T12:06:50Z</time>
      </trkpt>
      <trkpt lat="45.6191" lon="6.52279">
        <ele>1987</ele>
        <time>2025-02-20T12:06:51Z</time>
      </trkpt>
      <trkpt lat="45.6191" lon="6.52279">
        <ele>1987</ele>
        <time>2025-02-20T12:06:52Z</time>
      </trkpt>
      <trkpt lat="45.6191" lon="6.52278">
        <ele>1987.4</ele>
        <time>2025-02-20T12:06:53Z</time>
      </trkpt>
      <trkpt lat="45.6191" lon="6.52277">
        <ele>1987.4</ele>
        <time>2025-02-20T12:06:54Z</time>
      </trkpt>
      <trkpt lat="45.6191" lon="6.52276">
        <ele>1987.4</ele>
        <time>2025-02-20T12:06:55Z</time>
      </trkpt>
      <trkpt lat="45.6191" lon="6.52276">
        <ele>1988.4</ele>
        <time>2025-02-20T12:06:56Z</time>
      </trkpt>
      <trkpt lat="45.61909" lon="6.52275">
        <ele>1988.6</ele>
        <time>2025-02-20T12:06:57Z</time>
      </trkpt>
      <trkpt lat="45.61908" lon="6.52274">
        <ele>1988.6</ele>
        <time>2025-02-20T12:06:58Z</time>
      </trkpt>
      <trkpt lat="45.61908" lon="6.52274">
        <ele>1988.6</ele>
        <time>2025-02-20T12:06:59Z</time>
      </trkpt>
      <trkpt lat="45.61908" lon="6.52274">
        <ele>1989</ele>
        <time>2025-02-20T12:07:00Z</time>
      </trkpt>
      <trkpt lat="45.61908" lon="6.52274">
        <ele>1989.2</ele>
        <time>2025-02-20T12:07:01Z</time>
      </trkpt>
      <trkpt lat="45.61908" lon="6.52274">
        <ele>1989.2</ele>
        <time>2025-02-20T12:07:02Z</time>
      </trkpt>
      <trkpt lat="45.61908" lon="6.52274">
        <ele>1989.2</ele>
        <time>2025-02-20T12:07:03Z</time>
      </trkpt>
      <trkpt lat="45.61908" lon="6.52274">
        <ele>1989.2</ele>
        <time>2025-02-20T12:07:04Z</time>
      </trkpt>
      <trkpt lat="45.61908" lon="6.52274">
        <ele>1988.8</ele>
        <time>2025-02-20T12:07:05Z</time>
      </trkpt>
      <trkpt lat="45.61908" lon="6.52274">
        <ele>1988.8</ele>
        <time>2025-02-20T12:07:06Z</time>
      </trkpt>
      <trkpt lat="45.61908" lon="6.52273">
        <ele>1988.8</ele>
        <time>2025-02-20T12:07:07Z</time>
      </trkpt>
      <trkpt lat="45.61907" lon="6.52273">
        <ele>1988.8</ele>
        <time>2025-02-20T12:07:08Z</time>
      </trkpt>
      <trkpt lat="45.61907" lon="6.52273">
        <ele>1988.8</ele>
        <time>2025-02-20T12:07:09Z</time>
      </trkpt>
      <trkpt lat="45.61907" lon="6.52273">
        <ele>1988.8</ele>
        <time>2025-02-20T12:07:10Z</time>
      </trkpt>
      <trkpt lat="45.61907" lon="6.52273">
        <ele>1988.8</ele>
        <time>2025-02-20T12:07:11Z</time>
      </trkpt>
      <trkpt lat="45.61907" lon="6.52273">
        <ele>1988.8</ele>
        <time>2025-02-20T12:07:12Z</time>
      </trkpt>
      <trkpt lat="45.61905" lon="6.52272">
        <ele>1989.6</ele>
        <time>2025-02-20T12:07:13Z</time>
      </trkpt>
      <trkpt lat="45.61904" lon="6.52271">
        <ele>1989.6</ele>
        <time>2025-02-20T12:07:14Z</time>
      </trkpt>
      <trkpt lat="45.61903" lon="6.52271">
        <ele>1989.6</ele>
        <time>2025-02-20T12:07:15Z</time>
      </trkpt>
      <trkpt lat="45.61903" lon="6.52271">
        <ele>1989.6</ele>
        <time>2025-02-20T12:07:16Z</time>
      </trkpt>
      <trkpt lat="45.61903" lon="6.52271">
        <ele>1990.2</ele>
        <time>2025-02-20T12:07:17Z</time>
      </trkpt>
      <trkpt lat="45.61903" lon="6.52271">
        <ele>1990.2</ele>
        <time>2025-02-20T12:07:18Z</time>
      </trkpt>
      <trkpt lat="45.61901" lon="6.52268">
        <ele>1990.2</ele>
        <time>2025-02-20T12:07:19Z</time>
      </trkpt>
      <trkpt lat="45.61901" lon="6.52268">
        <ele>1990.6</ele>
        <time>2025-02-20T12:07:20Z</time>
      </trkpt>
      <trkpt lat="45.619" lon="6.52268">
        <ele>1990.8</ele>
        <time>2025-02-20T12:07:21Z</time>
      </trkpt>
      <trkpt lat="45.619" lon="6.52268">
        <ele>1990.8</ele>
        <time>2025-02-20T12:07:22Z</time>
      </trkpt>
      <trkpt lat="45.619" lon="6.52268">
        <ele>1990.8</ele>
        <time>2025-02-20T12:07:23Z</time>
      </trkpt>
      <trkpt lat="45.61899" lon="6.52267">
        <ele>1990.8</ele>
        <time>2025-02-20T12:07:24Z</time>
      </trkpt>
      <trkpt lat="45.61899" lon="6.52267">
        <ele>1991.4</ele>
        <time>2025-02-20T12:07:25Z</time>
      </trkpt>
      <trkpt lat="45.61899" lon="6.52267">
        <ele>1991.4</ele>
        <time>2025-02-20T12:07:26Z</time>
      </trkpt>
      <trkpt lat="45.61899" lon="6.52267">
        <ele>1991.4</ele>
        <time>2025-02-20T12:07:27Z</time>
      </trkpt>
      <trkpt lat="45.61899" lon="6.52267">
        <ele>1991.8</ele>
        <time>2025-02-20T12:07:28Z</time>
      </trkpt>
      <trkpt lat="45.61899" lon="6.52267">
        <ele>1992.2</ele>
        <time>2025-02-20T12:07:29Z</time>
      </trkpt>
      <trkpt lat="45.61896" lon="6.52266">
        <ele>1992.2</ele>
        <time>2025-02-20T12:07:30Z</time>
      </trkpt>
      <trkpt lat="45.61895" lon="6.52266">
        <ele>1992.2</ele>
        <time>2025-02-20T12:07:31Z</time>
      </trkpt>
      <trkpt lat="45.61895" lon="6.52266">
        <ele>1991.6</ele>
        <time>2025-02-20T12:07:32Z</time>
      </trkpt>
      <trkpt lat="45.61895" lon="6.52266">
        <ele>1991</ele>
        <time>2025-02-20T12:07:33Z</time>
      </trkpt>
      <trkpt lat="45.61893" lon="6.52265">
        <ele>1991</ele>
        <time>2025-02-20T12:07:34Z</time>
      </trkpt>
      <trkpt lat="45.61893" lon="6.52265">
        <ele>1991</ele>
        <time>2025-02-20T12:07:35Z</time>
      </trkpt>
      <trkpt lat="45.61893" lon="6.52265">
        <ele>1992</ele>
        <time>2025-02-20T12:07:36Z</time>
      </trkpt>
      <trkpt lat="45.61893" lon="6.52265">
        <ele>1990.6</ele>
        <time>2025-02-20T12:07:37Z</time>
      </trkpt>
      <trkpt lat="45.61893" lon="6.52265">
        <ele>1990.6</ele>
        <time>2025-02-20T12:07:38Z</time>
      </trkpt>
      <trkpt lat="45.61893" lon="6.52265">
        <ele>1990.6</ele>
        <time>2025-02-20T12:07:39Z</time>
      </trkpt>
      <trkpt lat="45.61893" lon="6.52265">
        <ele>1991.6</ele>
        <time>2025-02-20T12:07:40Z</time>
      </trkpt>
      <trkpt lat="45.61893" lon="6.52265">
        <ele>1992.2</ele>
        <time>2025-02-20T12:07:41Z</time>
      </trkpt>
      <trkpt lat="45.61893" lon="6.52265">
        <ele>1992.2</ele>
        <time>2025-02-20T12:07:42Z</time>
      </trkpt>
      <trkpt lat="45.61893" lon="6.52265">
        <ele>1992.2</ele>
        <time>2025-02-20T12:07:43Z</time>
      </trkpt>
      <trkpt lat="45.61893" lon="6.52265">
        <ele>1993.2</ele>
        <time>2025-02-20T12:07:44Z</time>
      </trkpt>
      <trkpt lat="45.61892" lon="6.52257">
        <ele>1992.8</ele>
        <time>2025-02-20T12:07:45Z</time>
      </trkpt>
      <trkpt lat="45.61893" lon="6.52256">
        <ele>1992.8</ele>
        <time>2025-02-20T12:07:46Z</time>
      </trkpt>
      <trkpt lat="45.61894" lon="6.52255">
        <ele>1992.8</ele>
        <time>2025-02-20T12:07:47Z</time>
      </trkpt>
      <trkpt lat="45.61894" lon="6.52254">
        <ele>1992.6</ele>
        <time>2025-02-20T12:07:48Z</time>
      </trkpt>
      <trkpt lat="45.61895" lon="6.52253">
        <ele>1992.8</ele>
        <time>2025-02-20T12:07:49Z</time>
      </trkpt>
      <trkpt lat="45.61895" lon="6.52253">
        <ele>1992.8</ele>
        <time>2025-02-20T12:07:50Z</time>
      </trkpt>
      <trkpt lat="45.61896" lon="6.52252">
        <ele>1992.8</ele>
        <time>2025-02-20T12:07:51Z</time>
      </trkpt>
      <trkpt lat="45.61896" lon="6.52252">
        <ele>1992.8</ele>
        <time>2025-02-20T12:07:52Z</time>
      </trkpt>
      <trkpt lat="45.61896" lon="6.52252">
        <ele>1993.2</ele>
        <time>2025-02-20T12:07:53Z</time>
      </trkpt>
      <trkpt lat="45.61896" lon="6.52252">
        <ele>1993.2</ele>
        <time>2025-02-20T12:07:54Z</time>
      </trkpt>
      <trkpt lat="45.61897" lon="6.52251">
        <ele>1993.2</ele>
        <time>2025-02-20T12:07:55Z</time>
      </trkpt>
      <trkpt lat="45.61898" lon="6.52251">
        <ele>1993.2</ele>
        <time>2025-02-20T12:07:56Z</time>
      </trkpt>
      <trkpt lat="45.61898" lon="6.52251">
        <ele>1994</ele>
        <time>2025-02-20T12:07:57Z</time>
      </trkpt>
      <trkpt lat="45.61898" lon="6.52251">
        <ele>1994</ele>
        <time>2025-02-20T12:07:58Z</time>
      </trkpt>
      <trkpt lat="45.61898" lon="6.52251">
        <ele>1994</ele>
        <time>2025-02-20T12:07:59Z</time>
      </trkpt>
      <trkpt lat="45.61898" lon="6.52251">
        <ele>1994</ele>
        <time>2025-02-20T12:08:00Z</time>
      </trkpt>
      <trkpt lat="45.61898" lon="6.52251">
        <ele>1994.6</ele>
        <time>2025-02-20T12:08:01Z</time>
      </trkpt>
      <trkpt lat="45.61898" lon="6.52251">
        <ele>1994.6</ele>
        <time>2025-02-20T12:08:02Z</time>
      </trkpt>
      <trkpt lat="45.61898" lon="6.52251">
        <ele>1994.6</ele>
        <time>2025-02-20T12:08:03Z</time>
      </trkpt>
      <trkpt lat="45.61898" lon="6.52251">
        <ele>1994.6</ele>
        <time>2025-02-20T12:08:04Z</time>
      </trkpt>
      <trkpt lat="45.61898" lon="6.52251">
        <ele>1995.4</ele>
        <time>2025-02-20T12:08:05Z</time>
      </trkpt>
      <trkpt lat="45.61898" lon="6.52251">
        <ele>1995.4</ele>
        <time>2025-02-20T12:08:06Z</time>
      </trkpt>
      <trkpt lat="45.61898" lon="6.52251">
        <ele>1995.4</ele>
        <time>2025-02-20T12:08:07Z</time>
      </trkpt>
      <trkpt lat="45.61898" lon="6.52251">
        <ele>1995.4</ele>
        <time>2025-02-20T12:08:08Z</time>
      </trkpt>
      <trkpt lat="45.61898" lon="6.52251">
        <ele>1996.2</ele>
        <time>2025-02-20T12:08:09Z</time>
      </trkpt>
      <trkpt lat="45.61903" lon="6.52249">
        <ele>1996.2</ele>
        <time>2025-02-20T12:08:10Z</time>
      </trkpt>
      <trkpt lat="45.61903" lon="6.52249">
        <ele>1996.2</ele>
        <time>2025-02-20T12:08:11Z</time>
      </trkpt>
      <trkpt lat="45.61905" lon="6.5225">
        <ele>1996.4</ele>
        <time>2025-02-20T12:08:12Z</time>
      </trkpt>
      <trkpt lat="45.61905" lon="6.52249">
        <ele>1996.8</ele>
        <time>2025-02-20T12:08:13Z</time>
      </trkpt>
      <trkpt lat="45.61905" lon="6.52249">
        <ele>1996.8</ele>
        <time>2025-02-20T12:08:14Z</time>
      </trkpt>
      <trkpt lat="45.61905" lon="6.52249">
        <ele>1996.8</ele>
        <time>2025-02-20T12:08:15Z</time>
      </trkpt>
      <trkpt lat="45.61905" lon="6.52249">
        <ele>1996.8</ele>
        <time>2025-02-20T12:08:16Z</time>
      </trkpt>
      <trkpt lat="45.61905" lon="6.52249">
        <ele>1997</ele>
        <time>2025-02-20T12:08:17Z</time>
      </trkpt>
      <trkpt lat="45.61908" lon="6.52251">
        <ele>1997</ele>
        <time>2025-02-20T12:08:18Z</time>
      </trkpt>
      <trkpt lat="45.61909" lon="6.52252">
        <ele>1997</ele>
        <time>2025-02-20T12:08:19Z</time>
      </trkpt>
      <trkpt lat="45.61909" lon="6.52252">
        <ele>1997</ele>
        <time>2025-02-20T12:08:20Z</time>
      </trkpt>
      <trkpt lat="45.61909" lon="6.52252">
        <ele>1996.4</ele>
        <time>2025-02-20T12:08:21Z</time>
      </trkpt>
      <trkpt lat="45.61909" lon="6.52252">
        <ele>1996.4</ele>
        <time>2025-02-20T12:08:22Z</time>
      </trkpt>
      <trkpt lat="45.61909" lon="6.52252">
        <ele>1996.4</ele>
        <time>2025-02-20T12:08:23Z</time>
      </trkpt>
      <trkpt lat="45.61909" lon="6.52252">
        <ele>1997.4</ele>
        <time>2025-02-20T12:08:24Z</time>
      </trkpt>
      <trkpt lat="45.61909" lon="6.52252">
        <ele>1998.4</ele>
        <time>2025-02-20T12:08:25Z</time>
      </trkpt>
      <trkpt lat="45.61909" lon="6.52252">
        <ele>1998.4</ele>
        <time>2025-02-20T12:08:26Z</time>
      </trkpt>
      <trkpt lat="45.61909" lon="6.52252">
        <ele>1998.4</ele>
        <time>2025-02-20T12:08:27Z</time>
      </trkpt>
      <trkpt lat="45.61909" lon="6.52252">
        <ele>1999.4</ele>
        <time>2025-02-20T12:08:28Z</time>
      </trkpt>
      <trkpt lat="45.61914" lon="6.52251">
        <ele>1999</ele>
        <time>2025-02-20T12:08:29Z</time>
      </trkpt>
      <trkpt lat="45.61915" lon="6.5225">
        <ele>1999</ele>
        <time>2025-02-20T12:08:30Z</time>
      </trkpt>
      <trkpt lat="45.61915" lon="6.52249">
        <ele>1999</ele>
        <time>2025-02-20T12:08:31Z</time>
      </trkpt>
      <trkpt lat="45.61915" lon="6.52249">
        <ele>1999.2</ele>
        <time>2025-02-20T12:08:32Z</time>
      </trkpt>
      <trkpt lat="45.61914" lon="6.52248">
        <ele>1999.2</ele>
        <time>2025-02-20T12:08:33Z</time>
      </trkpt>
      <trkpt lat="45.61914" lon="6.52247">
        <ele>1999.2</ele>
        <time>2025-02-20T12:08:34Z</time>
      </trkpt>
      <trkpt lat="45.61914" lon="6.52247">
        <ele>1999.2</ele>
        <time>2025-02-20T12:08:35Z</time>
      </trkpt>
      <trkpt lat="45.61913" lon="6.52246">
        <ele>1999.2</ele>
        <time>2025-02-20T12:08:36Z</time>
      </trkpt>
      <trkpt lat="45.61913" lon="6.52245">
        <ele>1999.2</ele>
        <time>2025-02-20T12:08:37Z</time>
      </trkpt>
      <trkpt lat="45.61913" lon="6.52245">
        <ele>1999.2</ele>
        <time>2025-02-20T12:08:38Z</time>
      </trkpt>
      <trkpt lat="45.61913" lon="6.52245">
        <ele>1999.2</ele>
        <time>2025-02-20T12:08:39Z</time>
      </trkpt>
      <trkpt lat="45.61913" lon="6.52245">
        <ele>1999.2</ele>
        <time>2025-02-20T12:08:40Z</time>
      </trkpt>
      <trkpt lat="45.61913" lon="6.52245">
        <ele>1999</ele>
        <time>2025-02-20T12:08:41Z</time>
      </trkpt>
      <trkpt lat="45.61911" lon="6.52242">
        <ele>1999</ele>
        <time>2025-02-20T12:08:42Z</time>
      </trkpt>
      <trkpt lat="45.61911" lon="6.52241">
        <ele>1999</ele>
        <time>2025-02-20T12:08:43Z</time>
      </trkpt>
      <trkpt lat="45.6191" lon="6.52241">
        <ele>1999.4</ele>
        <time>2025-02-20T12:08:44Z</time>
      </trkpt>
      <trkpt lat="45.61909" lon="6.52241">
        <ele>2000</ele>
        <time>2025-02-20T12:08:45Z</time>
      </trkpt>
      <trkpt lat="45.61908" lon="6.5224">
        <ele>2000</ele>
        <time>2025-02-20T12:08:46Z</time>
      </trkpt>
      <trkpt lat="45.61908" lon="6.52239">
        <ele>2000</ele>
        <time>2025-02-20T12:08:47Z</time>
      </trkpt>
      <trkpt lat="45.61907" lon="6.52238">
        <ele>2000.6</ele>
        <time>2025-02-20T12:08:48Z</time>
      </trkpt>
      <trkpt lat="45.61906" lon="6.52237">
        <ele>2001.2</ele>
        <time>2025-02-20T12:08:49Z</time>
      </trkpt>
      <trkpt lat="45.61906" lon="6.52237">
        <ele>2001.2</ele>
        <time>2025-02-20T12:08:50Z</time>
      </trkpt>
      <trkpt lat="45.61905" lon="6.52236">
        <ele>2001.2</ele>
        <time>2025-02-20T12:08:51Z</time>
      </trkpt>
      <trkpt lat="45.61905" lon="6.52235">
        <ele>2001.2</ele>
        <time>2025-02-20T12:08:52Z</time>
      </trkpt>
      <trkpt lat="45.61904" lon="6.52234">
        <ele>2001.8</ele>
        <time>2025-02-20T12:08:53Z</time>
      </trkpt>
      <trkpt lat="45.61904" lon="6.52233">
        <ele>2001.8</ele>
        <time>2025-02-20T12:08:54Z</time>
      </trkpt>
      <trkpt lat="45.61903" lon="6.52233">
        <ele>2001.8</ele>
        <time>2025-02-20T12:08:55Z</time>
      </trkpt>
      <trkpt lat="45.61902" lon="6.52232">
        <ele>2001.2</ele>
        <time>2025-02-20T12:08:56Z</time>
      </trkpt>
      <trkpt lat="45.61902" lon="6.52232">
        <ele>2001.8</ele>
        <time>2025-02-20T12:08:57Z</time>
      </trkpt>
      <trkpt lat="45.61902" lon="6.52231">
        <ele>2001.8</ele>
        <time>2025-02-20T12:08:58Z</time>
      </trkpt>
      <trkpt lat="45.61902" lon="6.52231">
        <ele>2001.8</ele>
        <time>2025-02-20T12:08:59Z</time>
      </trkpt>
      <trkpt lat="45.61902" lon="6.52231">
        <ele>2001.8</ele>
        <time>2025-02-20T12:09:00Z</time>
      </trkpt>
      <trkpt lat="45.61902" lon="6.52231">
        <ele>2002.4</ele>
        <time>2025-02-20T12:09:01Z</time>
      </trkpt>
      <trkpt lat="45.61902" lon="6.52231">
        <ele>2002.4</ele>
        <time>2025-02-20T12:09:02Z</time>
      </trkpt>
      <trkpt lat="45.61902" lon="6.52231">
        <ele>2002.4</ele>
        <time>2025-02-20T12:09:03Z</time>
      </trkpt>
      <trkpt lat="45.61902" lon="6.52231">
        <ele>2002.4</ele>
        <time>2025-02-20T12:09:04Z</time>
      </trkpt>
      <trkpt lat="45.61902" lon="6.52231">
        <ele>2002.6</ele>
        <time>2025-02-20T12:09:05Z</time>
      </trkpt>
      <trkpt lat="45.61902" lon="6.52231">
        <ele>2002.6</ele>
        <time>2025-02-20T12:09:06Z</time>
      </trkpt>
      <trkpt lat="45.61902" lon="6.52231">
        <ele>2002.6</ele>
        <time>2025-02-20T12:09:07Z</time>
      </trkpt>
      <trkpt lat="45.61902" lon="6.52231">
        <ele>2002.6</ele>
        <time>2025-02-20T12:09:08Z</time>
      </trkpt>
      <trkpt lat="45.61902" lon="6.5223">
        <ele>2002.4</ele>
        <time>2025-02-20T12:09:09Z</time>
      </trkpt>
      <trkpt lat="45.61901" lon="6.52229">
        <ele>2002.4</ele>
        <time>2025-02-20T12:09:10Z</time>
      </trkpt>
      <trkpt lat="45.619" lon="6.52228">
        <ele>2002.4</ele>
        <time>2025-02-20T12:09:11Z</time>
      </trkpt>
      <trkpt lat="45.619" lon="6.52227">
        <ele>2002.4</ele>
        <time>2025-02-20T12:09:12Z</time>
      </trkpt>
      <trkpt lat="45.619" lon="6.52227">
        <ele>2002.6</ele>
        <time>2025-02-20T12:09:13Z</time>
      </trkpt>
      <trkpt lat="45.61899" lon="6.52225">
        <ele>2002.6</ele>
        <time>2025-02-20T12:09:14Z</time>
      </trkpt>
      <trkpt lat="45.61899" lon="6.52224">
        <ele>2002.6</ele>
        <time>2025-02-20T12:09:15Z</time>
      </trkpt>
      <trkpt lat="45.61899" lon="6.52224">
        <ele>2003.6</ele>
        <time>2025-02-20T12:09:16Z</time>
      </trkpt>
      <trkpt lat="45.61899" lon="6.52223">
        <ele>2003</ele>
        <time>2025-02-20T12:09:17Z</time>
      </trkpt>
      <trkpt lat="45.61898" lon="6.52222">
        <ele>2003</ele>
        <time>2025-02-20T12:09:18Z</time>
      </trkpt>
      <trkpt lat="45.61898" lon="6.52221">
        <ele>2003</ele>
        <time>2025-02-20T12:09:19Z</time>
      </trkpt>
      <trkpt lat="45.61898" lon="6.52221">
        <ele>2004</ele>
        <time>2025-02-20T12:09:20Z</time>
      </trkpt>
      <trkpt lat="45.61898" lon="6.5222">
        <ele>2004.4</ele>
        <time>2025-02-20T12:09:21Z</time>
      </trkpt>
      <trkpt lat="45.61898" lon="6.52219">
        <ele>2004.4</ele>
        <time>2025-02-20T12:09:22Z</time>
      </trkpt>
      <trkpt lat="45.61897" lon="6.52219">
        <ele>2004.4</ele>
        <time>2025-02-20T12:09:23Z</time>
      </trkpt>
      <trkpt lat="45.61897" lon="6.52218">
        <ele>2005.4</ele>
        <time>2025-02-20T12:09:24Z</time>
      </trkpt>
      <trkpt lat="45.61897" lon="6.52218">
        <ele>2005</ele>
        <time>2025-02-20T12:09:25Z</time>
      </trkpt>
      <trkpt lat="45.61897" lon="6.52217">
        <ele>2005</ele>
        <time>2025-02-20T12:09:26Z</time>
      </trkpt>
      <trkpt lat="45.61896" lon="6.52216">
        <ele>2005</ele>
        <time>2025-02-20T12:09:27Z</time>
      </trkpt>
      <trkpt lat="45.61896" lon="6.52216">
        <ele>2006</ele>
        <time>2025-02-20T12:09:28Z</time>
      </trkpt>
      <trkpt lat="45.61896" lon="6.52215">
        <ele>2005.6</ele>
        <time>2025-02-20T12:09:29Z</time>
      </trkpt>
      <trkpt lat="45.61896" lon="6.52215">
        <ele>2005.6</ele>
        <time>2025-02-20T12:09:30Z</time>
      </trkpt>
      <trkpt lat="45.61895" lon="6.52214">
        <ele>2005.6</ele>
        <time>2025-02-20T12:09:31Z</time>
      </trkpt>
      <trkpt lat="45.61895" lon="6.52214">
        <ele>2006</ele>
        <time>2025-02-20T12:09:32Z</time>
      </trkpt>
      <trkpt lat="45.61894" lon="6.52213">
        <ele>2006.2</ele>
        <time>2025-02-20T12:09:33Z</time>
      </trkpt>
      <trkpt lat="45.61893" lon="6.52213">
        <ele>2006.2</ele>
        <time>2025-02-20T12:09:34Z</time>
      </trkpt>
      <trkpt lat="45.61893" lon="6.52212">
        <ele>2006.2</ele>
        <time>2025-02-20T12:09:35Z</time>
      </trkpt>
      <trkpt lat="45.61893" lon="6.52212">
        <ele>2006.2</ele>
        <time>2025-02-20T12:09:36Z</time>
      </trkpt>
      <trkpt lat="45.61893" lon="6.52212">
        <ele>2005.8</ele>
        <time>2025-02-20T12:09:37Z</time>
      </trkpt>
      <trkpt lat="45.61893" lon="6.52212">
        <ele>2005.8</ele>
        <time>2025-02-20T12:09:38Z</time>
      </trkpt>
      <trkpt lat="45.61893" lon="6.52212">
        <ele>2005.8</ele>
        <time>2025-02-20T12:09:39Z</time>
      </trkpt>
      <trkpt lat="45.61892" lon="6.5221">
        <ele>2006.8</ele>
        <time>2025-02-20T12:09:40Z</time>
      </trkpt>
      <trkpt lat="45.61892" lon="6.5221">
        <ele>2005.8</ele>
        <time>2025-02-20T12:09:41Z</time>
      </trkpt>
      <trkpt lat="45.61891" lon="6.5221">
        <ele>2005.8</ele>
        <time>2025-02-20T12:09:42Z</time>
      </trkpt>
      <trkpt lat="45.61891" lon="6.52209">
        <ele>2005.8</ele>
        <time>2025-02-20T12:09:43Z</time>
      </trkpt>
      <trkpt lat="45.6189" lon="6.52209">
        <ele>2006.8</ele>
        <time>2025-02-20T12:09:44Z</time>
      </trkpt>
      <trkpt lat="45.6189" lon="6.52208">
        <ele>2006.2</ele>
        <time>2025-02-20T12:09:45Z</time>
      </trkpt>
      <trkpt lat="45.61889" lon="6.52208">
        <ele>2006.2</ele>
        <time>2025-02-20T12:09:46Z</time>
      </trkpt>
      <trkpt lat="45.61889" lon="6.52208">
        <ele>2006.2</ele>
        <time>2025-02-20T12:09:47Z</time>
      </trkpt>
      <trkpt lat="45.61888" lon="6.52207">
        <ele>2007.2</ele>
        <time>2025-02-20T12:09:48Z</time>
      </trkpt>
      <trkpt lat="45.61888" lon="6.52207">
        <ele>2006.6</ele>
        <time>2025-02-20T12:09:49Z</time>
      </trkpt>
      <trkpt lat="45.61888" lon="6.52206">
        <ele>2006.6</ele>
        <time>2025-02-20T12:09:50Z</time>
      </trkpt>
      <trkpt lat="45.61888" lon="6.52206">
        <ele>2006.6</ele>
        <time>2025-02-20T12:09:51Z</time>
      </trkpt>
      <trkpt lat="45.61887" lon="6.52205">
        <ele>2007.4</ele>
        <time>2025-02-20T12:09:52Z</time>
      </trkpt>
      <trkpt lat="45.61887" lon="6.52205">
        <ele>2007</ele>
        <time>2025-02-20T12:09:53Z</time>
      </trkpt>
      <trkpt lat="45.61886" lon="6.52205">
        <ele>2007</ele>
        <time>2025-02-20T12:09:54Z</time>
      </trkpt>
      <trkpt lat="45.61886" lon="6.52205">
        <ele>2007</ele>
        <time>2025-02-20T12:09:55Z</time>
      </trkpt>
      <trkpt lat="45.61886" lon="6.52205">
        <ele>2008</ele>
        <time>2025-02-20T12:09:56Z</time>
      </trkpt>
      <trkpt lat="45.61886" lon="6.52205">
        <ele>2009.2</ele>
        <time>2025-02-20T12:09:57Z</time>
      </trkpt>
      <trkpt lat="45.61886" lon="6.52205">
        <ele>2009.2</ele>
        <time>2025-02-20T12:09:58Z</time>
      </trkpt>
      <trkpt lat="45.61886" lon="6.52205">
        <ele>2009.2</ele>
        <time>2025-02-20T12:09:59Z</time>
      </trkpt>
      <trkpt lat="45.61886" lon="6.52205">
        <ele>2009.4</ele>
        <time>2025-02-20T12:10:00Z</time>
      </trkpt>
      <trkpt lat="45.61883" lon="6.52203">
        <ele>2008.6</ele>
        <time>2025-02-20T12:10:01Z</time>
      </trkpt>
      <trkpt lat="45.61883" lon="6.52202">
        <ele>2008.6</ele>
        <time>2025-02-20T12:10:02Z</time>
      </trkpt>
      <trkpt lat="45.61882" lon="6.52202">
        <ele>2008.6</ele>
        <time>2025-02-20T12:10:03Z</time>
      </trkpt>
      <trkpt lat="45.61882" lon="6.52202">
        <ele>2009.4</ele>
        <time>2025-02-20T12:10:04Z</time>
      </trkpt>
      <trkpt lat="45.61881" lon="6.52202">
        <ele>2009.6</ele>
        <time>2025-02-20T12:10:05Z</time>
      </trkpt>
      <trkpt lat="45.61881" lon="6.52202">
        <ele>2009.6</ele>
        <time>2025-02-20T12:10:06Z</time>
      </trkpt>
      <trkpt lat="45.6188" lon="6.52201">
        <ele>2009.6</ele>
        <time>2025-02-20T12:10:07Z</time>
      </trkpt>
      <trkpt lat="45.6188" lon="6.52201">
        <ele>2009.6</ele>
        <time>2025-02-20T12:10:08Z</time>
      </trkpt>
      <trkpt lat="45.61879" lon="6.522">
        <ele>2010.2</ele>
        <time>2025-02-20T12:10:09Z</time>
      </trkpt>
      <trkpt lat="45.61879" lon="6.522">
        <ele>2010.2</ele>
        <time>2025-02-20T12:10:10Z</time>
      </trkpt>
      <trkpt lat="45.61879" lon="6.522">
        <ele>2010.2</ele>
        <time>2025-02-20T12:10:11Z</time>
      </trkpt>
      <trkpt lat="45.61879" lon="6.522">
        <ele>2009.2</ele>
        <time>2025-02-20T12:10:12Z</time>
      </trkpt>
      <trkpt lat="45.61878" lon="6.52198">
        <ele>2010.8</ele>
        <time>2025-02-20T12:10:13Z</time>
      </trkpt>
      <trkpt lat="45.61878" lon="6.52198">
        <ele>2010.8</ele>
        <time>2025-02-20T12:10:14Z</time>
      </trkpt>
      <trkpt lat="45.61877" lon="6.52197">
        <ele>2010.8</ele>
        <time>2025-02-20T12:10:15Z</time>
      </trkpt>
      <trkpt lat="45.61877" lon="6.52197">
        <ele>2010.8</ele>
        <time>2025-02-20T12:10:16Z</time>
      </trkpt>
      <trkpt lat="45.61877" lon="6.52197">
        <ele>2010.2</ele>
        <time>2025-02-20T12:10:17Z</time>
      </trkpt>
      <trkpt lat="45.61876" lon="6.52195">
        <ele>2010.2</ele>
        <time>2025-02-20T12:10:18Z</time>
      </trkpt>
      <trkpt lat="45.61875" lon="6.52195">
        <ele>2010.2</ele>
        <time>2025-02-20T12:10:19Z</time>
      </trkpt>
      <trkpt lat="45.61875" lon="6.52194">
        <ele>2011.2</ele>
        <time>2025-02-20T12:10:20Z</time>
      </trkpt>
      <trkpt lat="45.61874" lon="6.52194">
        <ele>2011.8</ele>
        <time>2025-02-20T12:10:21Z</time>
      </trkpt>
      <trkpt lat="45.61874" lon="6.52193">
        <ele>2011.8</ele>
        <time>2025-02-20T12:10:22Z</time>
      </trkpt>
      <trkpt lat="45.61873" lon="6.52192">
        <ele>2011.8</ele>
        <time>2025-02-20T12:10:23Z</time>
      </trkpt>
      <trkpt lat="45.61872" lon="6.52191">
        <ele>2011.4</ele>
        <time>2025-02-20T12:10:24Z</time>
      </trkpt>
      <trkpt lat="45.61872" lon="6.5219">
        <ele>2010.8</ele>
        <time>2025-02-20T12:10:25Z</time>
      </trkpt>
      <trkpt lat="45.61872" lon="6.52191">
        <ele>2010.8</ele>
        <time>2025-02-20T12:10:26Z</time>
      </trkpt>
      <trkpt lat="45.61871" lon="6.5219">
        <ele>2010.8</ele>
        <time>2025-02-20T12:10:27Z</time>
      </trkpt>
      <trkpt lat="45.6187" lon="6.5219">
        <ele>2010.8</ele>
        <time>2025-02-20T12:10:28Z</time>
      </trkpt>
      <trkpt lat="45.6187" lon="6.52189">
        <ele>2012</ele>
        <time>2025-02-20T12:10:29Z</time>
      </trkpt>
      <trkpt lat="45.61869" lon="6.52189">
        <ele>2012</ele>
        <time>2025-02-20T12:10:30Z</time>
      </trkpt>
      <trkpt lat="45.61868" lon="6.52188">
        <ele>2012</ele>
        <time>2025-02-20T12:10:31Z</time>
      </trkpt>
      <trkpt lat="45.61867" lon="6.52188">
        <ele>2011</ele>
        <time>2025-02-20T12:10:32Z</time>
      </trkpt>
      <trkpt lat="45.61866" lon="6.52186">
        <ele>2011.4</ele>
        <time>2025-02-20T12:10:33Z</time>
      </trkpt>
      <trkpt lat="45.61866" lon="6.52186">
        <ele>2011.4</ele>
        <time>2025-02-20T12:10:34Z</time>
      </trkpt>
      <trkpt lat="45.61865" lon="6.52185">
        <ele>2011.4</ele>
        <time>2025-02-20T12:10:35Z</time>
      </trkpt>
      <trkpt lat="45.61865" lon="6.52184">
        <ele>2012</ele>
        <time>2025-02-20T12:10:36Z</time>
      </trkpt>
      <trkpt lat="45.61865" lon="6.52183">
        <ele>2012.8</ele>
        <time>2025-02-20T12:10:37Z</time>
      </trkpt>
      <trkpt lat="45.61864" lon="6.52182">
        <ele>2012.8</ele>
        <time>2025-02-20T12:10:38Z</time>
      </trkpt>
      <trkpt lat="45.61863" lon="6.52181">
        <ele>2012.8</ele>
        <time>2025-02-20T12:10:39Z</time>
      </trkpt>
      <trkpt lat="45.61862" lon="6.5218">
        <ele>2012.2</ele>
        <time>2025-02-20T12:10:40Z</time>
      </trkpt>
      <trkpt lat="45.61861" lon="6.52179">
        <ele>2012</ele>
        <time>2025-02-20T12:10:41Z</time>
      </trkpt>
      <trkpt lat="45.61861" lon="6.52178">
        <ele>2012</ele>
        <time>2025-02-20T12:10:42Z</time>
      </trkpt>
      <trkpt lat="45.6186" lon="6.52178">
        <ele>2012</ele>
        <time>2025-02-20T12:10:43Z</time>
      </trkpt>
      <trkpt lat="45.61859" lon="6.52177">
        <ele>2012</ele>
        <time>2025-02-20T12:10:44Z</time>
      </trkpt>
      <trkpt lat="45.61858" lon="6.52176">
        <ele>2012.6</ele>
        <time>2025-02-20T12:10:45Z</time>
      </trkpt>
      <trkpt lat="45.61857" lon="6.52174">
        <ele>2012.6</ele>
        <time>2025-02-20T12:10:46Z</time>
      </trkpt>
      <trkpt lat="45.61856" lon="6.52174">
        <ele>2012.6</ele>
        <time>2025-02-20T12:10:47Z</time>
      </trkpt>
      <trkpt lat="45.61856" lon="6.52173">
        <ele>2012.6</ele>
        <time>2025-02-20T12:10:48Z</time>
      </trkpt>
      <trkpt lat="45.61855" lon="6.52172">
        <ele>2012.2</ele>
        <time>2025-02-20T12:10:49Z</time>
      </trkpt>
      <trkpt lat="45.61854" lon="6.52171">
        <ele>2012.2</ele>
        <time>2025-02-20T12:10:50Z</time>
      </trkpt>
      <trkpt lat="45.61853" lon="6.5217">
        <ele>2012.2</ele>
        <time>2025-02-20T12:10:51Z</time>
      </trkpt>
      <trkpt lat="45.61853" lon="6.52169">
        <ele>2012.2</ele>
        <time>2025-02-20T12:10:52Z</time>
      </trkpt>
      <trkpt lat="45.61852" lon="6.52169">
        <ele>2012.4</ele>
        <time>2025-02-20T12:10:53Z</time>
      </trkpt>
      <trkpt lat="45.61852" lon="6.52168">
        <ele>2012.4</ele>
        <time>2025-02-20T12:10:54Z</time>
      </trkpt>
      <trkpt lat="45.61851" lon="6.52166">
        <ele>2012.4</ele>
        <time>2025-02-20T12:10:55Z</time>
      </trkpt>
      <trkpt lat="45.6185" lon="6.52165">
        <ele>2012.4</ele>
        <time>2025-02-20T12:10:56Z</time>
      </trkpt>
      <trkpt lat="45.61849" lon="6.52165">
        <ele>2011.6</ele>
        <time>2025-02-20T12:10:57Z</time>
      </trkpt>
      <trkpt lat="45.61849" lon="6.52164">
        <ele>2011.6</ele>
        <time>2025-02-20T12:10:58Z</time>
      </trkpt>
      <trkpt lat="45.61848" lon="6.52163">
        <ele>2011.6</ele>
        <time>2025-02-20T12:10:59Z</time>
      </trkpt>
      <trkpt lat="45.61847" lon="6.52163">
        <ele>2012.4</ele>
        <time>2025-02-20T12:11:00Z</time>
      </trkpt>
      <trkpt lat="45.61846" lon="6.52162">
        <ele>2011.6</ele>
        <time>2025-02-20T12:11:01Z</time>
      </trkpt>
      <trkpt lat="45.61846" lon="6.52161">
        <ele>2011.6</ele>
        <time>2025-02-20T12:11:02Z</time>
      </trkpt>
      <trkpt lat="45.61845" lon="6.52161">
        <ele>2011.6</ele>
        <time>2025-02-20T12:11:03Z</time>
      </trkpt>
      <trkpt lat="45.61845" lon="6.5216">
        <ele>2011.6</ele>
        <time>2025-02-20T12:11:04Z</time>
      </trkpt>
      <trkpt lat="45.61845" lon="6.5216">
        <ele>2011.8</ele>
        <time>2025-02-20T12:11:05Z</time>
      </trkpt>
      <trkpt lat="45.61844" lon="6.52159">
        <ele>2011.8</ele>
        <time>2025-02-20T12:11:06Z</time>
      </trkpt>
      <trkpt lat="45.61843" lon="6.52158">
        <ele>2011.8</ele>
        <time>2025-02-20T12:11:07Z</time>
      </trkpt>
      <trkpt lat="45.61843" lon="6.52157">
        <ele>2012.8</ele>
        <time>2025-02-20T12:11:08Z</time>
      </trkpt>
      <trkpt lat="45.61842" lon="6.52157">
        <ele>2012.2</ele>
        <time>2025-02-20T12:11:09Z</time>
      </trkpt>
      <trkpt lat="45.61841" lon="6.52156">
        <ele>2012.2</ele>
        <time>2025-02-20T12:11:10Z</time>
      </trkpt>
      <trkpt lat="45.6184" lon="6.52156">
        <ele>2012.2</ele>
        <time>2025-02-20T12:11:11Z</time>
      </trkpt>
      <trkpt lat="45.61839" lon="6.52155">
        <ele>2012.8</ele>
        <time>2025-02-20T12:11:12Z</time>
      </trkpt>
      <trkpt lat="45.61839" lon="6.52155">
        <ele>2012</ele>
        <time>2025-02-20T12:11:13Z</time>
      </trkpt>
      <trkpt lat="45.61838" lon="6.52154">
        <ele>2012</ele>
        <time>2025-02-20T12:11:14Z</time>
      </trkpt>
      <trkpt lat="45.61837" lon="6.52154">
        <ele>2012</ele>
        <time>2025-02-20T12:11:15Z</time>
      </trkpt>
      <trkpt lat="45.61836" lon="6.52153">
        <ele>2013</ele>
        <time>2025-02-20T12:11:16Z</time>
      </trkpt>
      <trkpt lat="45.61835" lon="6.52153">
        <ele>2013.6</ele>
        <time>2025-02-20T12:11:17Z</time>
      </trkpt>
      <trkpt lat="45.61835" lon="6.52153">
        <ele>2013.6</ele>
        <time>2025-02-20T12:11:18Z</time>
      </trkpt>
      <trkpt lat="45.61834" lon="6.52153">
        <ele>2013.6</ele>
        <time>2025-02-20T12:11:19Z</time>
      </trkpt>
      <trkpt lat="45.61834" lon="6.52152">
        <ele>2012.6</ele>
        <time>2025-02-20T12:11:20Z</time>
      </trkpt>
      <trkpt lat="45.61834" lon="6.52152">
        <ele>2012.8</ele>
        <time>2025-02-20T12:11:21Z</time>
      </trkpt>
      <trkpt lat="45.61833" lon="6.52152">
        <ele>2012.8</ele>
        <time>2025-02-20T12:11:22Z</time>
      </trkpt>
      <trkpt lat="45.61832" lon="6.52152">
        <ele>2012.8</ele>
        <time>2025-02-20T12:11:23Z</time>
      </trkpt>
      <trkpt lat="45.61832" lon="6.52152">
        <ele>2012.8</ele>
        <time>2025-02-20T12:11:24Z</time>
      </trkpt>
      <trkpt lat="45.61832" lon="6.52152">
        <ele>2013.8</ele>
        <time>2025-02-20T12:11:25Z</time>
      </trkpt>
      <trkpt lat="45.61832" lon="6.52152">
        <ele>2013.8</ele>
        <time>2025-02-20T12:11:26Z</time>
      </trkpt>
      <trkpt lat="45.61831" lon="6.52154">
        <ele>2013.8</ele>
        <time>2025-02-20T12:11:27Z</time>
      </trkpt>
      <trkpt lat="45.61831" lon="6.52154">
        <ele>2013.8</ele>
        <time>2025-02-20T12:11:28Z</time>
      </trkpt>
      <trkpt lat="45.6183" lon="6.52155">
        <ele>2014</ele>
        <time>2025-02-20T12:11:29Z</time>
      </trkpt>
      <trkpt lat="45.6183" lon="6.52155">
        <ele>2014</ele>
        <time>2025-02-20T12:11:30Z</time>
      </trkpt>
      <trkpt lat="45.61829" lon="6.52156">
        <ele>2014</ele>
        <time>2025-02-20T12:11:31Z</time>
      </trkpt>
      <trkpt lat="45.61829" lon="6.52156">
        <ele>2014</ele>
        <time>2025-02-20T12:11:32Z</time>
      </trkpt>
      <trkpt lat="45.61828" lon="6.52156">
        <ele>2014.6</ele>
        <time>2025-02-20T12:11:33Z</time>
      </trkpt>
      <trkpt lat="45.61827" lon="6.52157">
        <ele>2014.6</ele>
        <time>2025-02-20T12:11:34Z</time>
      </trkpt>
      <trkpt lat="45.61826" lon="6.52157">
        <ele>2014.6</ele>
        <time>2025-02-20T12:11:35Z</time>
      </trkpt>
      <trkpt lat="45.61826" lon="6.52158">
        <ele>2014.6</ele>
        <time>2025-02-20T12:11:36Z</time>
      </trkpt>
      <trkpt lat="45.61825" lon="6.52158">
        <ele>2015.8</ele>
        <time>2025-02-20T12:11:37Z</time>
      </trkpt>
      <trkpt lat="45.61825" lon="6.52159">
        <ele>2015.8</ele>
        <time>2025-02-20T12:11:38Z</time>
      </trkpt>
      <trkpt lat="45.61824" lon="6.52159">
        <ele>2015.8</ele>
        <time>2025-02-20T12:11:39Z</time>
      </trkpt>
      <trkpt lat="45.61824" lon="6.5216">
        <ele>2015.8</ele>
        <time>2025-02-20T12:11:40Z</time>
      </trkpt>
      <trkpt lat="45.61824" lon="6.5216">
        <ele>2016.2</ele>
        <time>2025-02-20T12:11:41Z</time>
      </trkpt>
      <trkpt lat="45.61824" lon="6.5216">
        <ele>2016.2</ele>
        <time>2025-02-20T12:11:42Z</time>
      </trkpt>
      <trkpt lat="45.61824" lon="6.5216">
        <ele>2016.2</ele>
        <time>2025-02-20T12:11:43Z</time>
      </trkpt>
      <trkpt lat="45.61824" lon="6.52161">
        <ele>2016.2</ele>
        <time>2025-02-20T12:11:44Z</time>
      </trkpt>
      <trkpt lat="45.61823" lon="6.52161">
        <ele>2017.2</ele>
        <time>2025-02-20T12:11:45Z</time>
      </trkpt>
      <trkpt lat="45.61823" lon="6.52162">
        <ele>2017.2</ele>
        <time>2025-02-20T12:11:46Z</time>
      </trkpt>
      <trkpt lat="45.61823" lon="6.52162">
        <ele>2017.2</ele>
        <time>2025-02-20T12:11:47Z</time>
      </trkpt>
      <trkpt lat="45.61823" lon="6.52162">
        <ele>2017.2</ele>
        <time>2025-02-20T12:11:48Z</time>
      </trkpt>
      <trkpt lat="45.61821" lon="6.52162">
        <ele>2018</ele>
        <time>2025-02-20T12:11:49Z</time>
      </trkpt>
      <trkpt lat="45.61821" lon="6.52162">
        <ele>2018</ele>
        <time>2025-02-20T12:11:50Z</time>
      </trkpt>
      <trkpt lat="45.6182" lon="6.52163">
        <ele>2018</ele>
        <time>2025-02-20T12:11:51Z</time>
      </trkpt>
      <trkpt lat="45.6182" lon="6.52163">
        <ele>2017.2</ele>
        <time>2025-02-20T12:11:52Z</time>
      </trkpt>
      <trkpt lat="45.61819" lon="6.52163">
        <ele>2018.2</ele>
        <time>2025-02-20T12:11:53Z</time>
      </trkpt>
      <trkpt lat="45.61819" lon="6.52163">
        <ele>2018.2</ele>
        <time>2025-02-20T12:11:54Z</time>
      </trkpt>
      <trkpt lat="45.61818" lon="6.52164">
        <ele>2018.2</ele>
        <time>2025-02-20T12:11:55Z</time>
      </trkpt>
      <trkpt lat="45.61818" lon="6.52165">
        <ele>2018.2</ele>
        <time>2025-02-20T12:11:56Z</time>
      </trkpt>
      <trkpt lat="45.61817" lon="6.52165">
        <ele>2018.6</ele>
        <time>2025-02-20T12:11:57Z</time>
      </trkpt>
      <trkpt lat="45.61817" lon="6.52165">
        <ele>2018.6</ele>
        <time>2025-02-20T12:11:58Z</time>
      </trkpt>
      <trkpt lat="45.61816" lon="6.52165">
        <ele>2018.6</ele>
        <time>2025-02-20T12:11:59Z</time>
      </trkpt>
      <trkpt lat="45.61815" lon="6.52166">
        <ele>2017.6</ele>
        <time>2025-02-20T12:12:00Z</time>
      </trkpt>
      <trkpt lat="45.61815" lon="6.52166">
        <ele>2017.8</ele>
        <time>2025-02-20T12:12:01Z</time>
      </trkpt>
      <trkpt lat="45.61814" lon="6.52166">
        <ele>2017.8</ele>
        <time>2025-02-20T12:12:02Z</time>
      </trkpt>
      <trkpt lat="45.61814" lon="6.52166">
        <ele>2017.8</ele>
        <time>2025-02-20T12:12:03Z</time>
      </trkpt>
      <trkpt lat="45.61814" lon="6.52166">
        <ele>2018.4</ele>
        <time>2025-02-20T12:12:04Z</time>
      </trkpt>
      <trkpt lat="45.61813" lon="6.52165">
        <ele>2018.2</ele>
        <time>2025-02-20T12:12:05Z</time>
      </trkpt>
      <trkpt lat="45.61813" lon="6.52164">
        <ele>2018.2</ele>
        <time>2025-02-20T12:12:06Z</time>
      </trkpt>
      <trkpt lat="45.61812" lon="6.52164">
        <ele>2018.2</ele>
        <time>2025-02-20T12:12:07Z</time>
      </trkpt>
      <trkpt lat="45.61812" lon="6.52163">
        <ele>2019.2</ele>
        <time>2025-02-20T12:12:08Z</time>
      </trkpt>
      <trkpt lat="45.61812" lon="6.52163">
        <ele>2018.6</ele>
        <time>2025-02-20T12:12:09Z</time>
      </trkpt>
      <trkpt lat="45.61811" lon="6.52162">
        <ele>2018.6</ele>
        <time>2025-02-20T12:12:10Z</time>
      </trkpt>
      <trkpt lat="45.61811" lon="6.52161">
        <ele>2018.6</ele>
        <time>2025-02-20T12:12:11Z</time>
      </trkpt>
      <trkpt lat="45.61811" lon="6.52161">
        <ele>2019.6</ele>
        <time>2025-02-20T12:12:12Z</time>
      </trkpt>
      <trkpt lat="45.6181" lon="6.5216">
        <ele>2020</ele>
        <time>2025-02-20T12:12:13Z</time>
      </trkpt>
      <trkpt lat="45.6181" lon="6.5216">
        <ele>2020</ele>
        <time>2025-02-20T12:12:14Z</time>
      </trkpt>
      <trkpt lat="45.6181" lon="6.52159">
        <ele>2020</ele>
        <time>2025-02-20T12:12:15Z</time>
      </trkpt>
      <trkpt lat="45.6181" lon="6.52158">
        <ele>2020</ele>
        <time>2025-02-20T12:12:16Z</time>
      </trkpt>
      <trkpt lat="45.61809" lon="6.52157">
        <ele>2020</ele>
        <time>2025-02-20T12:12:17Z</time>
      </trkpt>
      <trkpt lat="45.61809" lon="6.52156">
        <ele>2020</ele>
        <time>2025-02-20T12:12:18Z</time>
      </trkpt>
      <trkpt lat="45.61809" lon="6.52156">
        <ele>2020</ele>
        <time>2025-02-20T12:12:19Z</time>
      </trkpt>
      <trkpt lat="45.61809" lon="6.52155">
        <ele>2020.6</ele>
        <time>2025-02-20T12:12:20Z</time>
      </trkpt>
      <trkpt lat="45.61808" lon="6.52155">
        <ele>2020.2</ele>
        <time>2025-02-20T12:12:21Z</time>
      </trkpt>
      <trkpt lat="45.61808" lon="6.52153">
        <ele>2020.2</ele>
        <time>2025-02-20T12:12:22Z</time>
      </trkpt>
      <trkpt lat="45.61808" lon="6.52153">
        <ele>2020.2</ele>
        <time>2025-02-20T12:12:23Z</time>
      </trkpt>
      <trkpt lat="45.61808" lon="6.52152">
        <ele>2020.2</ele>
        <time>2025-02-20T12:12:24Z</time>
      </trkpt>
      <trkpt lat="45.61808" lon="6.52152">
        <ele>2020.6</ele>
        <time>2025-02-20T12:12:25Z</time>
      </trkpt>
      <trkpt lat="45.61807" lon="6.5215">
        <ele>2020.6</ele>
        <time>2025-02-20T12:12:26Z</time>
      </trkpt>
      <trkpt lat="45.61807" lon="6.5215">
        <ele>2020.6</ele>
        <time>2025-02-20T12:12:27Z</time>
      </trkpt>
      <trkpt lat="45.61807" lon="6.52149">
        <ele>2020.6</ele>
        <time>2025-02-20T12:12:28Z</time>
      </trkpt>
      <trkpt lat="45.61806" lon="6.52149">
        <ele>2022.2</ele>
        <time>2025-02-20T12:12:29Z</time>
      </trkpt>
      <trkpt lat="45.61806" lon="6.52148">
        <ele>2022.2</ele>
        <time>2025-02-20T12:12:30Z</time>
      </trkpt>
      <trkpt lat="45.61806" lon="6.52147">
        <ele>2022.2</ele>
        <time>2025-02-20T12:12:31Z</time>
      </trkpt>
      <trkpt lat="45.61806" lon="6.52146">
        <ele>2021.8</ele>
        <time>2025-02-20T12:12:32Z</time>
      </trkpt>
      <trkpt lat="45.61806" lon="6.52145">
        <ele>2022</ele>
        <time>2025-02-20T12:12:33Z</time>
      </trkpt>
      <trkpt lat="45.61806" lon="6.52145">
        <ele>2022</ele>
        <time>2025-02-20T12:12:34Z</time>
      </trkpt>
      <trkpt lat="45.61805" lon="6.52143">
        <ele>2022</ele>
        <time>2025-02-20T12:12:35Z</time>
      </trkpt>
      <trkpt lat="45.61805" lon="6.52143">
        <ele>2021.4</ele>
        <time>2025-02-20T12:12:36Z</time>
      </trkpt>
      <trkpt lat="45.61804" lon="6.52142">
        <ele>2022.2</ele>
        <time>2025-02-20T12:12:37Z</time>
      </trkpt>
      <trkpt lat="45.61804" lon="6.52141">
        <ele>2022.2</ele>
        <time>2025-02-20T12:12:38Z</time>
      </trkpt>
      <trkpt lat="45.61804" lon="6.5214">
        <ele>2022.2</ele>
        <time>2025-02-20T12:12:39Z</time>
      </trkpt>
      <trkpt lat="45.61803" lon="6.52139">
        <ele>2023</ele>
        <time>2025-02-20T12:12:40Z</time>
      </trkpt>
      <trkpt lat="45.61803" lon="6.52138">
        <ele>2022.4</ele>
        <time>2025-02-20T12:12:41Z</time>
      </trkpt>
      <trkpt lat="45.61802" lon="6.52137">
        <ele>2022.4</ele>
        <time>2025-02-20T12:12:42Z</time>
      </trkpt>
      <trkpt lat="45.61802" lon="6.52137">
        <ele>2022.4</ele>
        <time>2025-02-20T12:12:43Z</time>
      </trkpt>
      <trkpt lat="45.61802" lon="6.52136">
        <ele>2022.4</ele>
        <time>2025-02-20T12:12:44Z</time>
      </trkpt>
      <trkpt lat="45.61802" lon="6.52135">
        <ele>2022.4</ele>
        <time>2025-02-20T12:12:45Z</time>
      </trkpt>
      <trkpt lat="45.61802" lon="6.52134">
        <ele>2022.4</ele>
        <time>2025-02-20T12:12:46Z</time>
      </trkpt>
      <trkpt lat="45.61802" lon="6.52133">
        <ele>2022.4</ele>
        <time>2025-02-20T12:12:47Z</time>
      </trkpt>
      <trkpt lat="45.61802" lon="6.52132">
        <ele>2023.4</ele>
        <time>2025-02-20T12:12:48Z</time>
      </trkpt>
      <trkpt lat="45.61801" lon="6.52132">
        <ele>2023.8</ele>
        <time>2025-02-20T12:12:49Z</time>
      </trkpt>
      <trkpt lat="45.61801" lon="6.52131">
        <ele>2023.8</ele>
        <time>2025-02-20T12:12:50Z</time>
      </trkpt>
      <trkpt lat="45.618" lon="6.52131">
        <ele>2023.8</ele>
        <time>2025-02-20T12:12:51Z</time>
      </trkpt>
      <trkpt lat="45.618" lon="6.5213">
        <ele>2023.8</ele>
        <time>2025-02-20T12:12:52Z</time>
      </trkpt>
      <trkpt lat="45.61799" lon="6.5213">
        <ele>2023.4</ele>
        <time>2025-02-20T12:12:53Z</time>
      </trkpt>
      <trkpt lat="45.61799" lon="6.5213">
        <ele>2023.4</ele>
        <time>2025-02-20T12:12:54Z</time>
      </trkpt>
      <trkpt lat="45.61798" lon="6.52131">
        <ele>2023.4</ele>
        <time>2025-02-20T12:12:55Z</time>
      </trkpt>
      <trkpt lat="45.61798" lon="6.52131">
        <ele>2023.4</ele>
        <time>2025-02-20T12:12:56Z</time>
      </trkpt>
      <trkpt lat="45.61798" lon="6.52131">
        <ele>2023.8</ele>
        <time>2025-02-20T12:12:57Z</time>
      </trkpt>
      <trkpt lat="45.61798" lon="6.52131">
        <ele>2023.8</ele>
        <time>2025-02-20T12:12:58Z</time>
      </trkpt>
      <trkpt lat="45.61798" lon="6.52131">
        <ele>2023.8</ele>
        <time>2025-02-20T12:12:59Z</time>
      </trkpt>
      <trkpt lat="45.61798" lon="6.52131">
        <ele>2024.8</ele>
        <time>2025-02-20T12:13:00Z</time>
      </trkpt>
      <trkpt lat="45.61795" lon="6.52132">
        <ele>2025</ele>
        <time>2025-02-20T12:13:01Z</time>
      </trkpt>
      <trkpt lat="45.61795" lon="6.52133">
        <ele>2025</ele>
        <time>2025-02-20T12:13:02Z</time>
      </trkpt>
      <trkpt lat="45.61794" lon="6.52133">
        <ele>2025</ele>
        <time>2025-02-20T12:13:03Z</time>
      </trkpt>
      <trkpt lat="45.61794" lon="6.52133">
        <ele>2026</ele>
        <time>2025-02-20T12:13:04Z</time>
      </trkpt>
      <trkpt lat="45.61794" lon="6.52134">
        <ele>2025.8</ele>
        <time>2025-02-20T12:13:05Z</time>
      </trkpt>
      <trkpt lat="45.61794" lon="6.52134">
        <ele>2025.8</ele>
        <time>2025-02-20T12:13:06Z</time>
      </trkpt>
      <trkpt lat="45.61793" lon="6.52135">
        <ele>2025.8</ele>
        <time>2025-02-20T12:13:07Z</time>
      </trkpt>
      <trkpt lat="45.61792" lon="6.52135">
        <ele>2026.4</ele>
        <time>2025-02-20T12:13:08Z</time>
      </trkpt>
      <trkpt lat="45.61792" lon="6.52136">
        <ele>2025.4</ele>
        <time>2025-02-20T12:13:09Z</time>
      </trkpt>
      <trkpt lat="45.61791" lon="6.52136">
        <ele>2025.4</ele>
        <time>2025-02-20T12:13:10Z</time>
      </trkpt>
      <trkpt lat="45.61791" lon="6.52137">
        <ele>2025.4</ele>
        <time>2025-02-20T12:13:11Z</time>
      </trkpt>
      <trkpt lat="45.6179" lon="6.52137">
        <ele>2025.4</ele>
        <time>2025-02-20T12:13:12Z</time>
      </trkpt>
      <trkpt lat="45.6179" lon="6.52138">
        <ele>2025.8</ele>
        <time>2025-02-20T12:13:13Z</time>
      </trkpt>
      <trkpt lat="45.6179" lon="6.52138">
        <ele>2025.8</ele>
        <time>2025-02-20T12:13:14Z</time>
      </trkpt>
      <trkpt lat="45.61789" lon="6.52139">
        <ele>2025.8</ele>
        <time>2025-02-20T12:13:15Z</time>
      </trkpt>
      <trkpt lat="45.61789" lon="6.52139">
        <ele>2025.8</ele>
        <time>2025-02-20T12:13:16Z</time>
      </trkpt>
      <trkpt lat="45.61788" lon="6.5214">
        <ele>2026.6</ele>
        <time>2025-02-20T12:13:17Z</time>
      </trkpt>
      <trkpt lat="45.61788" lon="6.5214">
        <ele>2026.6</ele>
        <time>2025-02-20T12:13:18Z</time>
      </trkpt>
      <trkpt lat="45.61787" lon="6.52141">
        <ele>2026.6</ele>
        <time>2025-02-20T12:13:19Z</time>
      </trkpt>
      <trkpt lat="45.61787" lon="6.52141">
        <ele>2027.2</ele>
        <time>2025-02-20T12:13:20Z</time>
      </trkpt>
      <trkpt lat="45.61787" lon="6.52141">
        <ele>2028</ele>
        <time>2025-02-20T12:13:21Z</time>
      </trkpt>
      <trkpt lat="45.61787" lon="6.52141">
        <ele>2028</ele>
        <time>2025-02-20T12:13:22Z</time>
      </trkpt>
      <trkpt lat="45.61787" lon="6.52141">
        <ele>2028</ele>
        <time>2025-02-20T12:13:23Z</time>
      </trkpt>
      <trkpt lat="45.61785" lon="6.52142">
        <ele>2028</ele>
        <time>2025-02-20T12:13:24Z</time>
      </trkpt>
      <trkpt lat="45.61785" lon="6.52143">
        <ele>2027.4</ele>
        <time>2025-02-20T12:13:25Z</time>
      </trkpt>
      <trkpt lat="45.61784" lon="6.52143">
        <ele>2027.4</ele>
        <time>2025-02-20T12:13:26Z</time>
      </trkpt>
      <trkpt lat="45.61784" lon="6.52144">
        <ele>2027.4</ele>
        <time>2025-02-20T12:13:27Z</time>
      </trkpt>
      <trkpt lat="45.61784" lon="6.52144">
        <ele>2028</ele>
        <time>2025-02-20T12:13:28Z</time>
      </trkpt>
      <trkpt lat="45.61783" lon="6.52144">
        <ele>2028</ele>
        <time>2025-02-20T12:13:29Z</time>
      </trkpt>
      <trkpt lat="45.61783" lon="6.52144">
        <ele>2028</ele>
        <time>2025-02-20T12:13:30Z</time>
      </trkpt>
      <trkpt lat="45.61782" lon="6.52145">
        <ele>2028</ele>
        <time>2025-02-20T12:13:31Z</time>
      </trkpt>
      <trkpt lat="45.61782" lon="6.52146">
        <ele>2029</ele>
        <time>2025-02-20T12:13:32Z</time>
      </trkpt>
      <trkpt lat="45.61782" lon="6.52146">
        <ele>2028</ele>
        <time>2025-02-20T12:13:33Z</time>
      </trkpt>
      <trkpt lat="45.61782" lon="6.52146">
        <ele>2028</ele>
        <time>2025-02-20T12:13:34Z</time>
      </trkpt>
      <trkpt lat="45.61782" lon="6.52146">
        <ele>2028</ele>
        <time>2025-02-20T12:13:35Z</time>
      </trkpt>
      <trkpt lat="45.61782" lon="6.52146">
        <ele>2028</ele>
        <time>2025-02-20T12:13:36Z</time>
      </trkpt>
      <trkpt lat="45.6178" lon="6.52149">
        <ele>2029</ele>
        <time>2025-02-20T12:13:37Z</time>
      </trkpt>
      <trkpt lat="45.61779" lon="6.52149">
        <ele>2029</ele>
        <time>2025-02-20T12:13:38Z</time>
      </trkpt>
      <trkpt lat="45.61779" lon="6.52149">
        <ele>2029</ele>
        <time>2025-02-20T12:13:39Z</time>
      </trkpt>
      <trkpt lat="45.61779" lon="6.52149">
        <ele>2029</ele>
        <time>2025-02-20T12:13:40Z</time>
      </trkpt>
      <trkpt lat="45.61779" lon="6.52149">
        <ele>2029.4</ele>
        <time>2025-02-20T12:13:41Z</time>
      </trkpt>
      <trkpt lat="45.61778" lon="6.52149">
        <ele>2029.4</ele>
        <time>2025-02-20T12:13:42Z</time>
      </trkpt>
      <trkpt lat="45.61778" lon="6.52149">
        <ele>2029.4</ele>
        <time>2025-02-20T12:13:43Z</time>
      </trkpt>
      <trkpt lat="45.61777" lon="6.52149">
        <ele>2029.4</ele>
        <time>2025-02-20T12:13:44Z</time>
      </trkpt>
      <trkpt lat="45.61777" lon="6.52149">
        <ele>2029</ele>
        <time>2025-02-20T12:13:45Z</time>
      </trkpt>
      <trkpt lat="45.61777" lon="6.52149">
        <ele>2029</ele>
        <time>2025-02-20T12:13:46Z</time>
      </trkpt>
      <trkpt lat="45.61777" lon="6.52149">
        <ele>2029</ele>
        <time>2025-02-20T12:13:47Z</time>
      </trkpt>
      <trkpt lat="45.61777" lon="6.52149">
        <ele>2030</ele>
        <time>2025-02-20T12:13:48Z</time>
      </trkpt>
      <trkpt lat="45.61777" lon="6.52149">
        <ele>2029.8</ele>
        <time>2025-02-20T12:13:49Z</time>
      </trkpt>
      <trkpt lat="45.61776" lon="6.52146">
        <ele>2029.8</ele>
        <time>2025-02-20T12:13:50Z</time>
      </trkpt>
      <trkpt lat="45.61776" lon="6.52145">
        <ele>2029.8</ele>
        <time>2025-02-20T12:13:51Z</time>
      </trkpt>
      <trkpt lat="45.61776" lon="6.52144">
        <ele>2030.8</ele>
        <time>2025-02-20T12:13:52Z</time>
      </trkpt>
      <trkpt lat="45.61775" lon="6.52144">
        <ele>2031</ele>
        <time>2025-02-20T12:13:53Z</time>
      </trkpt>
      <trkpt lat="45.61775" lon="6.52144">
        <ele>2031</ele>
        <time>2025-02-20T12:13:54Z</time>
      </trkpt>
      <trkpt lat="45.61775" lon="6.52144">
        <ele>2031</ele>
        <time>2025-02-20T12:13:55Z</time>
      </trkpt>
      <trkpt lat="45.61775" lon="6.52144">
        <ele>2032</ele>
        <time>2025-02-20T12:13:56Z</time>
      </trkpt>
      <trkpt lat="45.61775" lon="6.52144">
        <ele>2032</ele>
        <time>2025-02-20T12:13:57Z</time>
      </trkpt>
      <trkpt lat="45.61775" lon="6.52144">
        <ele>2032</ele>
        <time>2025-02-20T12:13:58Z</time>
      </trkpt>
      <trkpt lat="45.61775" lon="6.52144">
        <ele>2032</ele>
        <time>2025-02-20T12:13:59Z</time>
      </trkpt>
      <trkpt lat="45.61775" lon="6.52144">
        <ele>2032</ele>
        <time>2025-02-20T12:14:00Z</time>
      </trkpt>
      <trkpt lat="45.61775" lon="6.52144">
        <ele>2031.2</ele>
        <time>2025-02-20T12:14:01Z</time>
      </trkpt>
      <trkpt lat="45.61775" lon="6.52144">
        <ele>2031.2</ele>
        <time>2025-02-20T12:14:02Z</time>
      </trkpt>
      <trkpt lat="45.61775" lon="6.52138">
        <ele>2031.2</ele>
        <time>2025-02-20T12:14:03Z</time>
      </trkpt>
      <trkpt lat="45.61774" lon="6.52137">
        <ele>2032.2</ele>
        <time>2025-02-20T12:14:04Z</time>
      </trkpt>
      <trkpt lat="45.61774" lon="6.52137">
        <ele>2032</ele>
        <time>2025-02-20T12:14:05Z</time>
      </trkpt>
      <trkpt lat="45.61774" lon="6.52137">
        <ele>2032</ele>
        <time>2025-02-20T12:14:06Z</time>
      </trkpt>
      <trkpt lat="45.61773" lon="6.52133">
        <ele>2032</ele>
        <time>2025-02-20T12:14:07Z</time>
      </trkpt>
      <trkpt lat="45.61773" lon="6.52132">
        <ele>2032.6</ele>
        <time>2025-02-20T12:14:08Z</time>
      </trkpt>
      <trkpt lat="45.61773" lon="6.52131">
        <ele>2032.6</ele>
        <time>2025-02-20T12:14:09Z</time>
      </trkpt>
      <trkpt lat="45.61773" lon="6.5213">
        <ele>2032.6</ele>
        <time>2025-02-20T12:14:10Z</time>
      </trkpt>
      <trkpt lat="45.61773" lon="6.52129">
        <ele>2032.6</ele>
        <time>2025-02-20T12:14:11Z</time>
      </trkpt>
      <trkpt lat="45.61773" lon="6.52129">
        <ele>2032.6</ele>
        <time>2025-02-20T12:14:12Z</time>
      </trkpt>
      <trkpt lat="45.61773" lon="6.52128">
        <ele>2033.4</ele>
        <time>2025-02-20T12:14:13Z</time>
      </trkpt>
      <trkpt lat="45.61773" lon="6.52127">
        <ele>2033.4</ele>
        <time>2025-02-20T12:14:14Z</time>
      </trkpt>
      <trkpt lat="45.61773" lon="6.52126">
        <ele>2033.4</ele>
        <time>2025-02-20T12:14:15Z</time>
      </trkpt>
      <trkpt lat="45.61773" lon="6.52126">
        <ele>2033.4</ele>
        <time>2025-02-20T12:14:16Z</time>
      </trkpt>
      <trkpt lat="45.61773" lon="6.52125">
        <ele>2034.6</ele>
        <time>2025-02-20T12:14:17Z</time>
      </trkpt>
      <trkpt lat="45.61772" lon="6.52124">
        <ele>2034.6</ele>
        <time>2025-02-20T12:14:18Z</time>
      </trkpt>
      <trkpt lat="45.61772" lon="6.52124">
        <ele>2034.6</ele>
        <time>2025-02-20T12:14:19Z</time>
      </trkpt>
      <trkpt lat="45.61772" lon="6.52124">
        <ele>2034.4</ele>
        <time>2025-02-20T12:14:20Z</time>
      </trkpt>
      <trkpt lat="45.61772" lon="6.52124">
        <ele>2035</ele>
        <time>2025-02-20T12:14:21Z</time>
      </trkpt>
      <trkpt lat="45.61772" lon="6.52123">
        <ele>2035</ele>
        <time>2025-02-20T12:14:22Z</time>
      </trkpt>
      <trkpt lat="45.61772" lon="6.52122">
        <ele>2035</ele>
        <time>2025-02-20T12:14:23Z</time>
      </trkpt>
      <trkpt lat="45.61772" lon="6.52122">
        <ele>2034.8</ele>
        <time>2025-02-20T12:14:24Z</time>
      </trkpt>
      <trkpt lat="45.61772" lon="6.52122">
        <ele>2033.4</ele>
        <time>2025-02-20T12:14:25Z</time>
      </trkpt>
      <trkpt lat="45.61772" lon="6.5212">
        <ele>2033.4</ele>
        <time>2025-02-20T12:14:26Z</time>
      </trkpt>
      <trkpt lat="45.61771" lon="6.5212">
        <ele>2033.4</ele>
        <time>2025-02-20T12:14:27Z</time>
      </trkpt>
      <trkpt lat="45.61771" lon="6.5212">
        <ele>2034.4</ele>
        <time>2025-02-20T12:14:28Z</time>
      </trkpt>
      <trkpt lat="45.61771" lon="6.5212">
        <ele>2035.8</ele>
        <time>2025-02-20T12:14:29Z</time>
      </trkpt>
      <trkpt lat="45.61771" lon="6.5212">
        <ele>2035.8</ele>
        <time>2025-02-20T12:14:30Z</time>
      </trkpt>
      <trkpt lat="45.61771" lon="6.5212">
        <ele>2035.8</ele>
        <time>2025-02-20T12:14:31Z</time>
      </trkpt>
      <trkpt lat="45.61771" lon="6.5212">
        <ele>2036.2</ele>
        <time>2025-02-20T12:14:32Z</time>
      </trkpt>
      <trkpt lat="45.61771" lon="6.5212">
        <ele>2035.4</ele>
        <time>2025-02-20T12:14:33Z</time>
      </trkpt>
      <trkpt lat="45.61771" lon="6.5212">
        <ele>2035.4</ele>
        <time>2025-02-20T12:14:34Z</time>
      </trkpt>
      <trkpt lat="45.6177" lon="6.52117">
        <ele>2035.4</ele>
        <time>2025-02-20T12:14:35Z</time>
      </trkpt>
      <trkpt lat="45.6177" lon="6.52116">
        <ele>2036</ele>
        <time>2025-02-20T12:14:36Z</time>
      </trkpt>
      <trkpt lat="45.6177" lon="6.52116">
        <ele>2036.8</ele>
        <time>2025-02-20T12:14:37Z</time>
      </trkpt>
      <trkpt lat="45.6177" lon="6.52116">
        <ele>2036.8</ele>
        <time>2025-02-20T12:14:38Z</time>
      </trkpt>
      <trkpt lat="45.6177" lon="6.52116">
        <ele>2036.8</ele>
        <time>2025-02-20T12:14:39Z</time>
      </trkpt>
      <trkpt lat="45.6177" lon="6.52116">
        <ele>2037.4</ele>
        <time>2025-02-20T12:14:40Z</time>
      </trkpt>
      <trkpt lat="45.6177" lon="6.52116">
        <ele>2037.8</ele>
        <time>2025-02-20T12:14:41Z</time>
      </trkpt>
      <trkpt lat="45.61768" lon="6.52113">
        <ele>2037.8</ele>
        <time>2025-02-20T12:14:42Z</time>
      </trkpt>
      <trkpt lat="45.61768" lon="6.52111">
        <ele>2037.8</ele>
        <time>2025-02-20T12:14:43Z</time>
      </trkpt>
      <trkpt lat="45.61768" lon="6.52111">
        <ele>2037.8</ele>
        <time>2025-02-20T12:14:44Z</time>
      </trkpt>
      <trkpt lat="45.61768" lon="6.52111">
        <ele>2037</ele>
        <time>2025-02-20T12:14:45Z</time>
      </trkpt>
      <trkpt lat="45.61766" lon="6.52109">
        <ele>2037</ele>
        <time>2025-02-20T12:14:46Z</time>
      </trkpt>
      <trkpt lat="45.61766" lon="6.52109">
        <ele>2037</ele>
        <time>2025-02-20T12:14:47Z</time>
      </trkpt>
      <trkpt lat="45.61766" lon="6.52109">
        <ele>2038</ele>
        <time>2025-02-20T12:14:48Z</time>
      </trkpt>
      <trkpt lat="45.61765" lon="6.52107">
        <ele>2038.8</ele>
        <time>2025-02-20T12:14:49Z</time>
      </trkpt>
      <trkpt lat="45.61765" lon="6.52106">
        <ele>2038.8</ele>
        <time>2025-02-20T12:14:50Z</time>
      </trkpt>
      <trkpt lat="45.61764" lon="6.52106">
        <ele>2038.8</ele>
        <time>2025-02-20T12:14:51Z</time>
      </trkpt>
      <trkpt lat="45.61764" lon="6.52105">
        <ele>2038.8</ele>
        <time>2025-02-20T12:14:52Z</time>
      </trkpt>
      <trkpt lat="45.61763" lon="6.52105">
        <ele>2039</ele>
        <time>2025-02-20T12:14:53Z</time>
      </trkpt>
      <trkpt lat="45.61763" lon="6.52104">
        <ele>2039</ele>
        <time>2025-02-20T12:14:54Z</time>
      </trkpt>
      <trkpt lat="45.61763" lon="6.52104">
        <ele>2039</ele>
        <time>2025-02-20T12:14:55Z</time>
      </trkpt>
      <trkpt lat="45.61763" lon="6.52104">
        <ele>2039</ele>
        <time>2025-02-20T12:14:56Z</time>
      </trkpt>
      <trkpt lat="45.61763" lon="6.52104">
        <ele>2039.2</ele>
        <time>2025-02-20T12:14:57Z</time>
      </trkpt>
      <trkpt lat="45.61763" lon="6.52104">
        <ele>2039.2</ele>
        <time>2025-02-20T12:14:58Z</time>
      </trkpt>
      <trkpt lat="45.61763" lon="6.52104">
        <ele>2039.2</ele>
        <time>2025-02-20T12:14:59Z</time>
      </trkpt>
      <trkpt lat="45.61763" lon="6.52104">
        <ele>2039.2</ele>
        <time>2025-02-20T12:15:00Z</time>
      </trkpt>
      <trkpt lat="45.61761" lon="6.52103">
        <ele>2040.2</ele>
        <time>2025-02-20T12:15:01Z</time>
      </trkpt>
      <trkpt lat="45.61761" lon="6.52103">
        <ele>2040.2</ele>
        <time>2025-02-20T12:15:02Z</time>
      </trkpt>
      <trkpt lat="45.61761" lon="6.52103">
        <ele>2040.2</ele>
        <time>2025-02-20T12:15:03Z</time>
      </trkpt>
      <trkpt lat="45.61761" lon="6.52103">
        <ele>2040.2</ele>
        <time>2025-02-20T12:15:04Z</time>
      </trkpt>
      <trkpt lat="45.61761" lon="6.52103">
        <ele>2039.8</ele>
        <time>2025-02-20T12:15:05Z</time>
      </trkpt>
      <trkpt lat="45.61761" lon="6.52103">
        <ele>2039.8</ele>
        <time>2025-02-20T12:15:06Z</time>
      </trkpt>
      <trkpt lat="45.61761" lon="6.52103">
        <ele>2039.8</ele>
        <time>2025-02-20T12:15:07Z</time>
      </trkpt>
      <trkpt lat="45.61759" lon="6.52101">
        <ele>2039.8</ele>
        <time>2025-02-20T12:15:08Z</time>
      </trkpt>
      <trkpt lat="45.61759" lon="6.52101">
        <ele>2040.8</ele>
        <time>2025-02-20T12:15:09Z</time>
      </trkpt>
      <trkpt lat="45.61759" lon="6.52101">
        <ele>2040.8</ele>
        <time>2025-02-20T12:15:10Z</time>
      </trkpt>
      <trkpt lat="45.61757" lon="6.521">
        <ele>2040.8</ele>
        <time>2025-02-20T12:15:11Z</time>
      </trkpt>
      <trkpt lat="45.61757" lon="6.52099">
        <ele>2040.8</ele>
        <time>2025-02-20T12:15:12Z</time>
      </trkpt>
      <trkpt lat="45.61757" lon="6.52098">
        <ele>2041.4</ele>
        <time>2025-02-20T12:15:13Z</time>
      </trkpt>
      <trkpt lat="45.61756" lon="6.52097">
        <ele>2041.4</ele>
        <time>2025-02-20T12:15:14Z</time>
      </trkpt>
      <trkpt lat="45.61756" lon="6.52096">
        <ele>2041.4</ele>
        <time>2025-02-20T12:15:15Z</time>
      </trkpt>
      <trkpt lat="45.61756" lon="6.52095">
        <ele>2041.4</ele>
        <time>2025-02-20T12:15:16Z</time>
      </trkpt>
      <trkpt lat="45.61756" lon="6.52094">
        <ele>2041.8</ele>
        <time>2025-02-20T12:15:17Z</time>
      </trkpt>
      <trkpt lat="45.61756" lon="6.52094">
        <ele>2041.8</ele>
        <time>2025-02-20T12:15:18Z</time>
      </trkpt>
      <trkpt lat="45.61756" lon="6.52093">
        <ele>2041.8</ele>
        <time>2025-02-20T12:15:19Z</time>
      </trkpt>
      <trkpt lat="45.61755" lon="6.52092">
        <ele>2041.8</ele>
        <time>2025-02-20T12:15:20Z</time>
      </trkpt>
      <trkpt lat="45.61755" lon="6.52092">
        <ele>2042.4</ele>
        <time>2025-02-20T12:15:21Z</time>
      </trkpt>
      <trkpt lat="45.61755" lon="6.5209">
        <ele>2042.4</ele>
        <time>2025-02-20T12:15:22Z</time>
      </trkpt>
      <trkpt lat="45.61755" lon="6.5209">
        <ele>2042.4</ele>
        <time>2025-02-20T12:15:23Z</time>
      </trkpt>
      <trkpt lat="45.61755" lon="6.52089">
        <ele>2042.4</ele>
        <time>2025-02-20T12:15:24Z</time>
      </trkpt>
      <trkpt lat="45.61754" lon="6.52088">
        <ele>2042.6</ele>
        <time>2025-02-20T12:15:25Z</time>
      </trkpt>
      <trkpt lat="45.61754" lon="6.52088">
        <ele>2042.6</ele>
        <time>2025-02-20T12:15:26Z</time>
      </trkpt>
      <trkpt lat="45.61754" lon="6.52087">
        <ele>2042.6</ele>
        <time>2025-02-20T12:15:27Z</time>
      </trkpt>
      <trkpt lat="45.61754" lon="6.52086">
        <ele>2042.6</ele>
        <time>2025-02-20T12:15:28Z</time>
      </trkpt>
      <trkpt lat="45.61754" lon="6.52085">
        <ele>2043.4</ele>
        <time>2025-02-20T12:15:29Z</time>
      </trkpt>
      <trkpt lat="45.61753" lon="6.52085">
        <ele>2043.4</ele>
        <time>2025-02-20T12:15:30Z</time>
      </trkpt>
      <trkpt lat="45.61753" lon="6.52084">
        <ele>2043.4</ele>
        <time>2025-02-20T12:15:31Z</time>
      </trkpt>
      <trkpt lat="45.61753" lon="6.52083">
        <ele>2043.2</ele>
        <time>2025-02-20T12:15:32Z</time>
      </trkpt>
      <trkpt lat="45.61753" lon="6.52083">
        <ele>2043.4</ele>
        <time>2025-02-20T12:15:33Z</time>
      </trkpt>
      <trkpt lat="45.61753" lon="6.52081">
        <ele>2043.4</ele>
        <time>2025-02-20T12:15:34Z</time>
      </trkpt>
      <trkpt lat="45.61753" lon="6.52081">
        <ele>2043.4</ele>
        <time>2025-02-20T12:15:35Z</time>
      </trkpt>
      <trkpt lat="45.61753" lon="6.5208">
        <ele>2043.4</ele>
        <time>2025-02-20T12:15:36Z</time>
      </trkpt>
      <trkpt lat="45.61753" lon="6.52079">
        <ele>2044.6</ele>
        <time>2025-02-20T12:15:37Z</time>
      </trkpt>
      <trkpt lat="45.61753" lon="6.52079">
        <ele>2044.6</ele>
        <time>2025-02-20T12:15:38Z</time>
      </trkpt>
      <trkpt lat="45.61752" lon="6.52078">
        <ele>2044.6</ele>
        <time>2025-02-20T12:15:39Z</time>
      </trkpt>
      <trkpt lat="45.61752" lon="6.52077">
        <ele>2044.6</ele>
        <time>2025-02-20T12:15:40Z</time>
      </trkpt>
      <trkpt lat="45.61752" lon="6.52076">
        <ele>2044.8</ele>
        <time>2025-02-20T12:15:41Z</time>
      </trkpt>
      <trkpt lat="45.61752" lon="6.52076">
        <ele>2044.8</ele>
        <time>2025-02-20T12:15:42Z</time>
      </trkpt>
      <trkpt lat="45.61751" lon="6.52075">
        <ele>2044.8</ele>
        <time>2025-02-20T12:15:43Z</time>
      </trkpt>
      <trkpt lat="45.6175" lon="6.52074">
        <ele>2044.8</ele>
        <time>2025-02-20T12:15:44Z</time>
      </trkpt>
      <trkpt lat="45.6175" lon="6.52073">
        <ele>2044.8</ele>
        <time>2025-02-20T12:15:45Z</time>
      </trkpt>
      <trkpt lat="45.6175" lon="6.52072">
        <ele>2044.8</ele>
        <time>2025-02-20T12:15:46Z</time>
      </trkpt>
      <trkpt lat="45.6175" lon="6.52071">
        <ele>2044.8</ele>
        <time>2025-02-20T12:15:47Z</time>
      </trkpt>
      <trkpt lat="45.6175" lon="6.5207">
        <ele>2044.8</ele>
        <time>2025-02-20T12:15:48Z</time>
      </trkpt>
      <trkpt lat="45.61749" lon="6.52069">
        <ele>2044.8</ele>
        <time>2025-02-20T12:15:49Z</time>
      </trkpt>
      <trkpt lat="45.61749" lon="6.52068">
        <ele>2044.8</ele>
        <time>2025-02-20T12:15:50Z</time>
      </trkpt>
      <trkpt lat="45.61749" lon="6.52067">
        <ele>2044.8</ele>
        <time>2025-02-20T12:15:51Z</time>
      </trkpt>
      <trkpt lat="45.61748" lon="6.52066">
        <ele>2044.8</ele>
        <time>2025-02-20T12:15:52Z</time>
      </trkpt>
      <trkpt lat="45.61748" lon="6.52066">
        <ele>2045.4</ele>
        <time>2025-02-20T12:15:53Z</time>
      </trkpt>
      <trkpt lat="45.61748" lon="6.52065">
        <ele>2045.4</ele>
        <time>2025-02-20T12:15:54Z</time>
      </trkpt>
      <trkpt lat="45.61747" lon="6.52064">
        <ele>2045.4</ele>
        <time>2025-02-20T12:15:55Z</time>
      </trkpt>
      <trkpt lat="45.61747" lon="6.52063">
        <ele>2045.4</ele>
        <time>2025-02-20T12:15:56Z</time>
      </trkpt>
      <trkpt lat="45.61747" lon="6.52062">
        <ele>2045.6</ele>
        <time>2025-02-20T12:15:57Z</time>
      </trkpt>
      <trkpt lat="45.61747" lon="6.52062">
        <ele>2045.6</ele>
        <time>2025-02-20T12:15:58Z</time>
      </trkpt>
      <trkpt lat="45.61746" lon="6.52061">
        <ele>2045.6</ele>
        <time>2025-02-20T12:15:59Z</time>
      </trkpt>
      <trkpt lat="45.61746" lon="6.52061">
        <ele>2045.6</ele>
        <time>2025-02-20T12:16:00Z</time>
      </trkpt>
      <trkpt lat="45.61746" lon="6.5206">
        <ele>2045</ele>
        <time>2025-02-20T12:16:01Z</time>
      </trkpt>
      <trkpt lat="45.61745" lon="6.52059">
        <ele>2045</ele>
        <time>2025-02-20T12:16:02Z</time>
      </trkpt>
      <trkpt lat="45.61745" lon="6.52058">
        <ele>2045</ele>
        <time>2025-02-20T12:16:03Z</time>
      </trkpt>
      <trkpt lat="45.61746" lon="6.52057">
        <ele>2045.2</ele>
        <time>2025-02-20T12:16:04Z</time>
      </trkpt>
      <trkpt lat="45.61746" lon="6.52056">
        <ele>2046</ele>
        <time>2025-02-20T12:16:05Z</time>
      </trkpt>
      <trkpt lat="45.61746" lon="6.52056">
        <ele>2046</ele>
        <time>2025-02-20T12:16:06Z</time>
      </trkpt>
      <trkpt lat="45.61746" lon="6.52055">
        <ele>2046</ele>
        <time>2025-02-20T12:16:07Z</time>
      </trkpt>
      <trkpt lat="45.61745" lon="6.52054">
        <ele>2046</ele>
        <time>2025-02-20T12:16:08Z</time>
      </trkpt>
      <trkpt lat="45.61745" lon="6.52053">
        <ele>2045.6</ele>
        <time>2025-02-20T12:16:09Z</time>
      </trkpt>
      <trkpt lat="45.61745" lon="6.52053">
        <ele>2045.6</ele>
        <time>2025-02-20T12:16:10Z</time>
      </trkpt>
      <trkpt lat="45.61745" lon="6.52051">
        <ele>2045.6</ele>
        <time>2025-02-20T12:16:11Z</time>
      </trkpt>
      <trkpt lat="45.61745" lon="6.52051">
        <ele>2046.6</ele>
        <time>2025-02-20T12:16:12Z</time>
      </trkpt>
      <trkpt lat="45.61745" lon="6.5205">
        <ele>2047</ele>
        <time>2025-02-20T12:16:13Z</time>
      </trkpt>
      <trkpt lat="45.61745" lon="6.52049">
        <ele>2047</ele>
        <time>2025-02-20T12:16:14Z</time>
      </trkpt>
      <trkpt lat="45.61744" lon="6.52048">
        <ele>2047</ele>
        <time>2025-02-20T12:16:15Z</time>
      </trkpt>
      <trkpt lat="45.61744" lon="6.52047">
        <ele>2047.6</ele>
        <time>2025-02-20T12:16:16Z</time>
      </trkpt>
      <trkpt lat="45.61744" lon="6.52046">
        <ele>2047.4</ele>
        <time>2025-02-20T12:16:17Z</time>
      </trkpt>
      <trkpt lat="45.61744" lon="6.52046">
        <ele>2047.4</ele>
        <time>2025-02-20T12:16:18Z</time>
      </trkpt>
      <trkpt lat="45.61744" lon="6.52045">
        <ele>2047.4</ele>
        <time>2025-02-20T12:16:19Z</time>
      </trkpt>
      <trkpt lat="45.61744" lon="6.52045">
        <ele>2048.4</ele>
        <time>2025-02-20T12:16:20Z</time>
      </trkpt>
      <trkpt lat="45.61744" lon="6.52044">
        <ele>2047.4</ele>
        <time>2025-02-20T12:16:21Z</time>
      </trkpt>
      <trkpt lat="45.61743" lon="6.52043">
        <ele>2047.4</ele>
        <time>2025-02-20T12:16:22Z</time>
      </trkpt>
      <trkpt lat="45.61743" lon="6.52042">
        <ele>2047.4</ele>
        <time>2025-02-20T12:16:23Z</time>
      </trkpt>
      <trkpt lat="45.61743" lon="6.52042">
        <ele>2047.4</ele>
        <time>2025-02-20T12:16:24Z</time>
      </trkpt>
      <trkpt lat="45.61743" lon="6.52042">
        <ele>2047.4</ele>
        <time>2025-02-20T12:16:25Z</time>
      </trkpt>
      <trkpt lat="45.61743" lon="6.52042">
        <ele>2047.4</ele>
        <time>2025-02-20T12:16:26Z</time>
      </trkpt>
      <trkpt lat="45.61742" lon="6.52041">
        <ele>2047.4</ele>
        <time>2025-02-20T12:16:27Z</time>
      </trkpt>
      <trkpt lat="45.61741" lon="6.52041">
        <ele>2047.8</ele>
        <time>2025-02-20T12:16:28Z</time>
      </trkpt>
      <trkpt lat="45.6174" lon="6.52041">
        <ele>2048.4</ele>
        <time>2025-02-20T12:16:29Z</time>
      </trkpt>
      <trkpt lat="45.6174" lon="6.52041">
        <ele>2048.4</ele>
        <time>2025-02-20T12:16:30Z</time>
      </trkpt>
      <trkpt lat="45.6174" lon="6.52041">
        <ele>2048.4</ele>
        <time>2025-02-20T12:16:31Z</time>
      </trkpt>
      <trkpt lat="45.6174" lon="6.52041">
        <ele>2048.4</ele>
        <time>2025-02-20T12:16:32Z</time>
      </trkpt>
      <trkpt lat="45.6174" lon="6.52041">
        <ele>2049.2</ele>
        <time>2025-02-20T12:16:33Z</time>
      </trkpt>
      <trkpt lat="45.6174" lon="6.52041">
        <ele>2049.2</ele>
        <time>2025-02-20T12:16:34Z</time>
      </trkpt>
      <trkpt lat="45.6174" lon="6.52041">
        <ele>2049.2</ele>
        <time>2025-02-20T12:16:35Z</time>
      </trkpt>
      <trkpt lat="45.6174" lon="6.52041">
        <ele>2048.8</ele>
        <time>2025-02-20T12:16:36Z</time>
      </trkpt>
      <trkpt lat="45.6174" lon="6.52041">
        <ele>2048.8</ele>
        <time>2025-02-20T12:16:37Z</time>
      </trkpt>
      <trkpt lat="45.6174" lon="6.52041">
        <ele>2048.8</ele>
        <time>2025-02-20T12:16:38Z</time>
      </trkpt>
      <trkpt lat="45.6174" lon="6.52041">
        <ele>2048.8</ele>
        <time>2025-02-20T12:16:39Z</time>
      </trkpt>
      <trkpt lat="45.6174" lon="6.52041">
        <ele>2048.8</ele>
        <time>2025-02-20T12:16:40Z</time>
      </trkpt>
      <trkpt lat="45.6174" lon="6.52041">
        <ele>2049</ele>
        <time>2025-02-20T12:16:41Z</time>
      </trkpt>
      <trkpt lat="45.6174" lon="6.52041">
        <ele>2049</ele>
        <time>2025-02-20T12:16:42Z</time>
      </trkpt>
      <trkpt lat="45.6174" lon="6.52041">
        <ele>2049</ele>
        <time>2025-02-20T12:16:43Z</time>
      </trkpt>
      <trkpt lat="45.6174" lon="6.52041">
        <ele>2049</ele>
        <time>2025-02-20T12:16:44Z</time>
      </trkpt>
      <trkpt lat="45.6174" lon="6.52041">
        <ele>2048.6</ele>
        <time>2025-02-20T12:16:45Z</time>
      </trkpt>
      <trkpt lat="45.6174" lon="6.52041">
        <ele>2048.6</ele>
        <time>2025-02-20T12:16:46Z</time>
      </trkpt>
      <trkpt lat="45.6174" lon="6.52041">
        <ele>2048.6</ele>
        <time>2025-02-20T12:16:47Z</time>
      </trkpt>
      <trkpt lat="45.6174" lon="6.52041">
        <ele>2049</ele>
        <time>2025-02-20T12:16:48Z</time>
      </trkpt>
      <trkpt lat="45.6174" lon="6.52041">
        <ele>2048.8</ele>
        <time>2025-02-20T12:16:49Z</time>
      </trkpt>
      <trkpt lat="45.6174" lon="6.52041">
        <ele>2048.8</ele>
        <time>2025-02-20T12:16:50Z</time>
      </trkpt>
      <trkpt lat="45.6174" lon="6.52041">
        <ele>2048.8</ele>
        <time>2025-02-20T12:16:51Z</time>
      </trkpt>
      <trkpt lat="45.6174" lon="6.52041">
        <ele>2048.8</ele>
        <time>2025-02-20T12:16:52Z</time>
      </trkpt>
      <trkpt lat="45.6174" lon="6.52041">
        <ele>2049.2</ele>
        <time>2025-02-20T12:16:53Z</time>
      </trkpt>
      <trkpt lat="45.6174" lon="6.52041">
        <ele>2049.2</ele>
        <time>2025-02-20T12:16:54Z</time>
      </trkpt>
      <trkpt lat="45.6174" lon="6.52041">
        <ele>2049.2</ele>
        <time>2025-02-20T12:16:55Z</time>
      </trkpt>
      <trkpt lat="45.6174" lon="6.52041">
        <ele>2049.2</ele>
        <time>2025-02-20T12:16:56Z</time>
      </trkpt>
      <trkpt lat="45.6174" lon="6.52041">
        <ele>2049.6</ele>
        <time>2025-02-20T12:16:57Z</time>
      </trkpt>
      <trkpt lat="45.6174" lon="6.52041">
        <ele>2049.6</ele>
        <time>2025-02-20T12:16:58Z</time>
      </trkpt>
      <trkpt lat="45.6174" lon="6.52041">
        <ele>2049.6</ele>
        <time>2025-02-20T12:16:59Z</time>
      </trkpt>
      <trkpt lat="45.6174" lon="6.52041">
        <ele>2049.6</ele>
        <time>2025-02-20T12:17:00Z</time>
      </trkpt>
      <trkpt lat="45.6174" lon="6.52041">
        <ele>2049.2</ele>
        <time>2025-02-20T12:17:01Z</time>
      </trkpt>
      <trkpt lat="45.6174" lon="6.52041">
        <ele>2049.2</ele>
        <time>2025-02-20T12:17:02Z</time>
      </trkpt>
      <trkpt lat="45.6174" lon="6.52041">
        <ele>2049.2</ele>
        <time>2025-02-20T12:17:03Z</time>
      </trkpt>
      <trkpt lat="45.6174" lon="6.52041">
        <ele>2049.2</ele>
        <time>2025-02-20T12:17:04Z</time>
      </trkpt>
      <trkpt lat="45.6174" lon="6.52041">
        <ele>2048.8</ele>
        <time>2025-02-20T12:17:05Z</time>
      </trkpt>
      <trkpt lat="45.6174" lon="6.52041">
        <ele>2048.8</ele>
        <time>2025-02-20T12:17:06Z</time>
      </trkpt>
      <trkpt lat="45.6174" lon="6.52041">
        <ele>2048.8</ele>
        <time>2025-02-20T12:17:07Z</time>
      </trkpt>
      <trkpt lat="45.6174" lon="6.52041">
        <ele>2048.8</ele>
        <time>2025-02-20T12:17:08Z</time>
      </trkpt>
      <trkpt lat="45.6174" lon="6.52041">
        <ele>2049</ele>
        <time>2025-02-20T12:17:09Z</time>
      </trkpt>
      <trkpt lat="45.6174" lon="6.52041">
        <ele>2049</ele>
        <time>2025-02-20T12:17:10Z</time>
      </trkpt>
      <trkpt lat="45.6174" lon="6.52041">
        <ele>2049</ele>
        <time>2025-02-20T12:17:11Z</time>
      </trkpt>
      <trkpt lat="45.6174" lon="6.52041">
        <ele>2049</ele>
        <time>2025-02-20T12:17:12Z</time>
      </trkpt>
      <trkpt lat="45.6174" lon="6.52041">
        <ele>2049.2</ele>
        <time>2025-02-20T12:17:13Z</time>
      </trkpt>
      <trkpt lat="45.6174" lon="6.52041">
        <ele>2049.2</ele>
        <time>2025-02-20T12:17:14Z</time>
      </trkpt>
      <trkpt lat="45.6174" lon="6.52041">
        <ele>2049.2</ele>
        <time>2025-02-20T12:17:15Z</time>
      </trkpt>
      <trkpt lat="45.6174" lon="6.52041">
        <ele>2049.2</ele>
        <time>2025-02-20T12:17:16Z</time>
      </trkpt>
      <trkpt lat="45.6174" lon="6.52041">
        <ele>2049</ele>
        <time>2025-02-20T12:17:17Z</time>
      </trkpt>
      <trkpt lat="45.6174" lon="6.52041">
        <ele>2049</ele>
        <time>2025-02-20T12:17:18Z</time>
      </trkpt>
      <trkpt lat="45.6174" lon="6.52041">
        <ele>2049</ele>
        <time>2025-02-20T12:17:19Z</time>
      </trkpt>
      <trkpt lat="45.6174" lon="6.52041">
        <ele>2049</ele>
        <time>2025-02-20T12:17:20Z</time>
      </trkpt>
      <trkpt lat="45.6174" lon="6.52041">
        <ele>2049.2</ele>
        <time>2025-02-20T12:17:21Z</time>
      </trkpt>
      <trkpt lat="45.6174" lon="6.52041">
        <ele>2049.2</ele>
        <time>2025-02-20T12:17:22Z</time>
      </trkpt>
      <trkpt lat="45.6174" lon="6.52041">
        <ele>2049.2</ele>
        <time>2025-02-20T12:17:23Z</time>
      </trkpt>
      <trkpt lat="45.61736" lon="6.52045">
        <ele>2049.2</ele>
        <time>2025-02-20T12:17:24Z</time>
      </trkpt>
      <trkpt lat="45.61736" lon="6.52045">
        <ele>2049.6</ele>
        <time>2025-02-20T12:17:25Z</time>
      </trkpt>
      <trkpt lat="45.61736" lon="6.52045">
        <ele>2049.6</ele>
        <time>2025-02-20T12:17:26Z</time>
      </trkpt>
      <trkpt lat="45.61736" lon="6.52045">
        <ele>2049.6</ele>
        <time>2025-02-20T12:17:27Z</time>
      </trkpt>
      <trkpt lat="45.61735" lon="6.52047">
        <ele>2049.6</ele>
        <time>2025-02-20T12:17:28Z</time>
      </trkpt>
      <trkpt lat="45.61734" lon="6.52046">
        <ele>2050.8</ele>
        <time>2025-02-20T12:17:29Z</time>
      </trkpt>
      <trkpt lat="45.61733" lon="6.52047">
        <ele>2050.8</ele>
        <time>2025-02-20T12:17:30Z</time>
      </trkpt>
      <trkpt lat="45.61733" lon="6.52048">
        <ele>2050.8</ele>
        <time>2025-02-20T12:17:31Z</time>
      </trkpt>
      <trkpt lat="45.61733" lon="6.52048">
        <ele>2050.8</ele>
        <time>2025-02-20T12:17:32Z</time>
      </trkpt>
      <trkpt lat="45.61732" lon="6.52049">
        <ele>2050.6</ele>
        <time>2025-02-20T12:17:33Z</time>
      </trkpt>
      <trkpt lat="45.61731" lon="6.5205">
        <ele>2050.6</ele>
        <time>2025-02-20T12:17:34Z</time>
      </trkpt>
      <trkpt lat="45.6173" lon="6.5205">
        <ele>2050.6</ele>
        <time>2025-02-20T12:17:35Z</time>
      </trkpt>
      <trkpt lat="45.61729" lon="6.5205">
        <ele>2051.4</ele>
        <time>2025-02-20T12:17:36Z</time>
      </trkpt>
      <trkpt lat="45.61729" lon="6.52051">
        <ele>2052</ele>
        <time>2025-02-20T12:17:37Z</time>
      </trkpt>
      <trkpt lat="45.61729" lon="6.52051">
        <ele>2052</ele>
        <time>2025-02-20T12:17:38Z</time>
      </trkpt>
      <trkpt lat="45.61728" lon="6.52052">
        <ele>2052</ele>
        <time>2025-02-20T12:17:39Z</time>
      </trkpt>
      <trkpt lat="45.61728" lon="6.52052">
        <ele>2052</ele>
        <time>2025-02-20T12:17:40Z</time>
      </trkpt>
      <trkpt lat="45.61727" lon="6.52053">
        <ele>2051</ele>
        <time>2025-02-20T12:17:41Z</time>
      </trkpt>
      <trkpt lat="45.61727" lon="6.52053">
        <ele>2051</ele>
        <time>2025-02-20T12:17:42Z</time>
      </trkpt>
      <trkpt lat="45.61726" lon="6.52053">
        <ele>2051</ele>
        <time>2025-02-20T12:17:43Z</time>
      </trkpt>
      <trkpt lat="45.61726" lon="6.52054">
        <ele>2052</ele>
        <time>2025-02-20T12:17:44Z</time>
      </trkpt>
      <trkpt lat="45.61726" lon="6.52054">
        <ele>2052.8</ele>
        <time>2025-02-20T12:17:45Z</time>
      </trkpt>
      <trkpt lat="45.61725" lon="6.52055">
        <ele>2052.8</ele>
        <time>2025-02-20T12:17:46Z</time>
      </trkpt>
      <trkpt lat="45.61725" lon="6.52055">
        <ele>2052.8</ele>
        <time>2025-02-20T12:17:47Z</time>
      </trkpt>
      <trkpt lat="45.61724" lon="6.52056">
        <ele>2052.8</ele>
        <time>2025-02-20T12:17:48Z</time>
      </trkpt>
      <trkpt lat="45.61724" lon="6.52056">
        <ele>2053.2</ele>
        <time>2025-02-20T12:17:49Z</time>
      </trkpt>
      <trkpt lat="45.61724" lon="6.52056">
        <ele>2053.2</ele>
        <time>2025-02-20T12:17:50Z</time>
      </trkpt>
      <trkpt lat="45.61723" lon="6.52057">
        <ele>2053.2</ele>
        <time>2025-02-20T12:17:51Z</time>
      </trkpt>
      <trkpt lat="45.61723" lon="6.52057">
        <ele>2053.2</ele>
        <time>2025-02-20T12:17:52Z</time>
      </trkpt>
      <trkpt lat="45.61722" lon="6.52057">
        <ele>2053.8</ele>
        <time>2025-02-20T12:17:53Z</time>
      </trkpt>
      <trkpt lat="45.61722" lon="6.52056">
        <ele>2053.8</ele>
        <time>2025-02-20T12:17:54Z</time>
      </trkpt>
      <trkpt lat="45.61721" lon="6.52056">
        <ele>2053.8</ele>
        <time>2025-02-20T12:17:55Z</time>
      </trkpt>
      <trkpt lat="45.61721" lon="6.52055">
        <ele>2053</ele>
        <time>2025-02-20T12:17:56Z</time>
      </trkpt>
      <trkpt lat="45.61721" lon="6.52055">
        <ele>2053.8</ele>
        <time>2025-02-20T12:17:57Z</time>
      </trkpt>
      <trkpt lat="45.61721" lon="6.52054">
        <ele>2053.8</ele>
        <time>2025-02-20T12:17:58Z</time>
      </trkpt>
      <trkpt lat="45.61721" lon="6.52053">
        <ele>2053.8</ele>
        <time>2025-02-20T12:17:59Z</time>
      </trkpt>
      <trkpt lat="45.6172" lon="6.52053">
        <ele>2053.8</ele>
        <time>2025-02-20T12:18:00Z</time>
      </trkpt>
      <trkpt lat="45.6172" lon="6.52052">
        <ele>2054.2</ele>
        <time>2025-02-20T12:18:01Z</time>
      </trkpt>
      <trkpt lat="45.6172" lon="6.52052">
        <ele>2054.2</ele>
        <time>2025-02-20T12:18:02Z</time>
      </trkpt>
      <trkpt lat="45.6172" lon="6.5205">
        <ele>2054.2</ele>
        <time>2025-02-20T12:18:03Z</time>
      </trkpt>
      <trkpt lat="45.61719" lon="6.5205">
        <ele>2054.2</ele>
        <time>2025-02-20T12:18:04Z</time>
      </trkpt>
      <trkpt lat="45.61719" lon="6.52049">
        <ele>2054.4</ele>
        <time>2025-02-20T12:18:05Z</time>
      </trkpt>
      <trkpt lat="45.61719" lon="6.52049">
        <ele>2054.4</ele>
        <time>2025-02-20T12:18:06Z</time>
      </trkpt>
      <trkpt lat="45.61719" lon="6.52048">
        <ele>2054.4</ele>
        <time>2025-02-20T12:18:07Z</time>
      </trkpt>
      <trkpt lat="45.61718" lon="6.52048">
        <ele>2054.4</ele>
        <time>2025-02-20T12:18:08Z</time>
      </trkpt>
      <trkpt lat="45.61718" lon="6.52047">
        <ele>2054</ele>
        <time>2025-02-20T12:18:09Z</time>
      </trkpt>
      <trkpt lat="45.61718" lon="6.52046">
        <ele>2054</ele>
        <time>2025-02-20T12:18:10Z</time>
      </trkpt>
      <trkpt lat="45.61717" lon="6.52045">
        <ele>2054</ele>
        <time>2025-02-20T12:18:11Z</time>
      </trkpt>
      <trkpt lat="45.61717" lon="6.52045">
        <ele>2055</ele>
        <time>2025-02-20T12:18:12Z</time>
      </trkpt>
      <trkpt lat="45.61716" lon="6.52044">
        <ele>2055.2</ele>
        <time>2025-02-20T12:18:13Z</time>
      </trkpt>
      <trkpt lat="45.61716" lon="6.52044">
        <ele>2055.2</ele>
        <time>2025-02-20T12:18:14Z</time>
      </trkpt>
      <trkpt lat="45.61715" lon="6.52043">
        <ele>2055.2</ele>
        <time>2025-02-20T12:18:15Z</time>
      </trkpt>
      <trkpt lat="45.61716" lon="6.52043">
        <ele>2056.2</ele>
        <time>2025-02-20T12:18:16Z</time>
      </trkpt>
      <trkpt lat="45.61715" lon="6.52042">
        <ele>2056.2</ele>
        <time>2025-02-20T12:18:17Z</time>
      </trkpt>
      <trkpt lat="45.61715" lon="6.52042">
        <ele>2056.2</ele>
        <time>2025-02-20T12:18:18Z</time>
      </trkpt>
      <trkpt lat="45.61715" lon="6.52042">
        <ele>2056.2</ele>
        <time>2025-02-20T12:18:19Z</time>
      </trkpt>
      <trkpt lat="45.61715" lon="6.52042">
        <ele>2056.2</ele>
        <time>2025-02-20T12:18:20Z</time>
      </trkpt>
      <trkpt lat="45.61715" lon="6.52042">
        <ele>2055</ele>
        <time>2025-02-20T12:18:21Z</time>
      </trkpt>
      <trkpt lat="45.61714" lon="6.52039">
        <ele>2055</ele>
        <time>2025-02-20T12:18:22Z</time>
      </trkpt>
      <trkpt lat="45.61714" lon="6.52038">
        <ele>2055</ele>
        <time>2025-02-20T12:18:23Z</time>
      </trkpt>
      <trkpt lat="45.61713" lon="6.52038">
        <ele>2056</ele>
        <time>2025-02-20T12:18:24Z</time>
      </trkpt>
      <trkpt lat="45.61712" lon="6.52037">
        <ele>2056.2</ele>
        <time>2025-02-20T12:18:25Z</time>
      </trkpt>
      <trkpt lat="45.61712" lon="6.52036">
        <ele>2056.2</ele>
        <time>2025-02-20T12:18:26Z</time>
      </trkpt>
      <trkpt lat="45.61712" lon="6.52036">
        <ele>2056.2</ele>
        <time>2025-02-20T12:18:27Z</time>
      </trkpt>
      <trkpt lat="45.61711" lon="6.52035">
        <ele>2056.2</ele>
        <time>2025-02-20T12:18:28Z</time>
      </trkpt>
      <trkpt lat="45.6171" lon="6.52035">
        <ele>2057</ele>
        <time>2025-02-20T12:18:29Z</time>
      </trkpt>
      <trkpt lat="45.6171" lon="6.52034">
        <ele>2057</ele>
        <time>2025-02-20T12:18:30Z</time>
      </trkpt>
      <trkpt lat="45.61709" lon="6.52034">
        <ele>2057</ele>
        <time>2025-02-20T12:18:31Z</time>
      </trkpt>
      <trkpt lat="45.61708" lon="6.52033">
        <ele>2057</ele>
        <time>2025-02-20T12:18:32Z</time>
      </trkpt>
      <trkpt lat="45.61708" lon="6.52033">
        <ele>2057.8</ele>
        <time>2025-02-20T12:18:33Z</time>
      </trkpt>
      <trkpt lat="45.61708" lon="6.52032">
        <ele>2057.8</ele>
        <time>2025-02-20T12:18:34Z</time>
      </trkpt>
      <trkpt lat="45.61708" lon="6.52031">
        <ele>2057.8</ele>
        <time>2025-02-20T12:18:35Z</time>
      </trkpt>
      <trkpt lat="45.61707" lon="6.52031">
        <ele>2057.8</ele>
        <time>2025-02-20T12:18:36Z</time>
      </trkpt>
      <trkpt lat="45.61707" lon="6.5203">
        <ele>2057.8</ele>
        <time>2025-02-20T12:18:37Z</time>
      </trkpt>
      <trkpt lat="45.61706" lon="6.52029">
        <ele>2057.8</ele>
        <time>2025-02-20T12:18:38Z</time>
      </trkpt>
      <trkpt lat="45.61706" lon="6.52028">
        <ele>2057.8</ele>
        <time>2025-02-20T12:18:39Z</time>
      </trkpt>
      <trkpt lat="45.61705" lon="6.52027">
        <ele>2058.4</ele>
        <time>2025-02-20T12:18:40Z</time>
      </trkpt>
      <trkpt lat="45.61705" lon="6.52027">
        <ele>2058.8</ele>
        <time>2025-02-20T12:18:41Z</time>
      </trkpt>
      <trkpt lat="45.61704" lon="6.52026">
        <ele>2058.8</ele>
        <time>2025-02-20T12:18:42Z</time>
      </trkpt>
      <trkpt lat="45.61704" lon="6.52025">
        <ele>2058.8</ele>
        <time>2025-02-20T12:18:43Z</time>
      </trkpt>
      <trkpt lat="45.61704" lon="6.52025">
        <ele>2058.8</ele>
        <time>2025-02-20T12:18:44Z</time>
      </trkpt>
      <trkpt lat="45.61704" lon="6.52025">
        <ele>2059.2</ele>
        <time>2025-02-20T12:18:45Z</time>
      </trkpt>
      <trkpt lat="45.61704" lon="6.52025">
        <ele>2059.2</ele>
        <time>2025-02-20T12:18:46Z</time>
      </trkpt>
      <trkpt lat="45.61704" lon="6.52025">
        <ele>2059.2</ele>
        <time>2025-02-20T12:18:47Z</time>
      </trkpt>
      <trkpt lat="45.61704" lon="6.52025">
        <ele>2059.2</ele>
        <time>2025-02-20T12:18:48Z</time>
      </trkpt>
      <trkpt lat="45.61704" lon="6.52025">
        <ele>2059</ele>
        <time>2025-02-20T12:18:49Z</time>
      </trkpt>
      <trkpt lat="45.61704" lon="6.52025">
        <ele>2059</ele>
        <time>2025-02-20T12:18:50Z</time>
      </trkpt>
      <trkpt lat="45.61703" lon="6.5202">
        <ele>2059</ele>
        <time>2025-02-20T12:18:51Z</time>
      </trkpt>
      <trkpt lat="45.61703" lon="6.5202">
        <ele>2059</ele>
        <time>2025-02-20T12:18:52Z</time>
      </trkpt>
      <trkpt lat="45.61702" lon="6.52019">
        <ele>2059.8</ele>
        <time>2025-02-20T12:18:53Z</time>
      </trkpt>
      <trkpt lat="45.61702" lon="6.52019">
        <ele>2059.8</ele>
        <time>2025-02-20T12:18:54Z</time>
      </trkpt>
      <trkpt lat="45.61701" lon="6.52018">
        <ele>2059.8</ele>
        <time>2025-02-20T12:18:55Z</time>
      </trkpt>
      <trkpt lat="45.617" lon="6.52018">
        <ele>2059.8</ele>
        <time>2025-02-20T12:18:56Z</time>
      </trkpt>
      <trkpt lat="45.617" lon="6.52017">
        <ele>2060.8</ele>
        <time>2025-02-20T12:18:57Z</time>
      </trkpt>
      <trkpt lat="45.617" lon="6.52016">
        <ele>2060.8</ele>
        <time>2025-02-20T12:18:58Z</time>
      </trkpt>
      <trkpt lat="45.61699" lon="6.52016">
        <ele>2060.8</ele>
        <time>2025-02-20T12:18:59Z</time>
      </trkpt>
      <trkpt lat="45.61699" lon="6.52015">
        <ele>2060.8</ele>
        <time>2025-02-20T12:19:00Z</time>
      </trkpt>
      <trkpt lat="45.61699" lon="6.52015">
        <ele>2060.8</ele>
        <time>2025-02-20T12:19:01Z</time>
      </trkpt>
      <trkpt lat="45.61699" lon="6.52015">
        <ele>2060.8</ele>
        <time>2025-02-20T12:19:02Z</time>
      </trkpt>
      <trkpt lat="45.61699" lon="6.52015">
        <ele>2060.8</ele>
        <time>2025-02-20T12:19:03Z</time>
      </trkpt>
      <trkpt lat="45.61699" lon="6.52015">
        <ele>2060.8</ele>
        <time>2025-02-20T12:19:04Z</time>
      </trkpt>
      <trkpt lat="45.61699" lon="6.52015">
        <ele>2060.4</ele>
        <time>2025-02-20T12:19:05Z</time>
      </trkpt>
      <trkpt lat="45.61699" lon="6.52015">
        <ele>2060.4</ele>
        <time>2025-02-20T12:19:06Z</time>
      </trkpt>
      <trkpt lat="45.61699" lon="6.52015">
        <ele>2060.4</ele>
        <time>2025-02-20T12:19:07Z</time>
      </trkpt>
      <trkpt lat="45.61699" lon="6.52015">
        <ele>2061.4</ele>
        <time>2025-02-20T12:19:08Z</time>
      </trkpt>
      <trkpt lat="45.61699" lon="6.52015">
        <ele>2061.6</ele>
        <time>2025-02-20T12:19:09Z</time>
      </trkpt>
      <trkpt lat="45.61699" lon="6.52015">
        <ele>2061.6</ele>
        <time>2025-02-20T12:19:10Z</time>
      </trkpt>
      <trkpt lat="45.61699" lon="6.52015">
        <ele>2061.6</ele>
        <time>2025-02-20T12:19:11Z</time>
      </trkpt>
      <trkpt lat="45.61699" lon="6.52015">
        <ele>2062</ele>
        <time>2025-02-20T12:19:12Z</time>
      </trkpt>
      <trkpt lat="45.61696" lon="6.52014">
        <ele>2061.4</ele>
        <time>2025-02-20T12:19:13Z</time>
      </trkpt>
      <trkpt lat="45.61696" lon="6.52015">
        <ele>2061.4</ele>
        <time>2025-02-20T12:19:14Z</time>
      </trkpt>
      <trkpt lat="45.61695" lon="6.52015">
        <ele>2061.4</ele>
        <time>2025-02-20T12:19:15Z</time>
      </trkpt>
      <trkpt lat="45.61695" lon="6.52015">
        <ele>2061.4</ele>
        <time>2025-02-20T12:19:16Z</time>
      </trkpt>
      <trkpt lat="45.61695" lon="6.52015">
        <ele>2062.2</ele>
        <time>2025-02-20T12:19:17Z</time>
      </trkpt>
      <trkpt lat="45.61695" lon="6.52015">
        <ele>2062.2</ele>
        <time>2025-02-20T12:19:18Z</time>
      </trkpt>
      <trkpt lat="45.61695" lon="6.52015">
        <ele>2062.2</ele>
        <time>2025-02-20T12:19:19Z</time>
      </trkpt>
      <trkpt lat="45.61695" lon="6.52015">
        <ele>2062.2</ele>
        <time>2025-02-20T12:19:20Z</time>
      </trkpt>
      <trkpt lat="45.61695" lon="6.52015">
        <ele>2062.8</ele>
        <time>2025-02-20T12:19:21Z</time>
      </trkpt>
      <trkpt lat="45.61693" lon="6.52018">
        <ele>2062.8</ele>
        <time>2025-02-20T12:19:22Z</time>
      </trkpt>
      <trkpt lat="45.61693" lon="6.52018">
        <ele>2062.8</ele>
        <time>2025-02-20T12:19:23Z</time>
      </trkpt>
      <trkpt lat="45.61693" lon="6.52018">
        <ele>2062.8</ele>
        <time>2025-02-20T12:19:24Z</time>
      </trkpt>
      <trkpt lat="45.61693" lon="6.52018">
        <ele>2063</ele>
        <time>2025-02-20T12:19:25Z</time>
      </trkpt>
      <trkpt lat="45.61693" lon="6.52018">
        <ele>2063</ele>
        <time>2025-02-20T12:19:26Z</time>
      </trkpt>
      <trkpt lat="45.61693" lon="6.52018">
        <ele>2063</ele>
        <time>2025-02-20T12:19:27Z</time>
      </trkpt>
      <trkpt lat="45.61693" lon="6.52018">
        <ele>2064</ele>
        <time>2025-02-20T12:19:28Z</time>
      </trkpt>
      <trkpt lat="45.61691" lon="6.5202">
        <ele>2063.6</ele>
        <time>2025-02-20T12:19:29Z</time>
      </trkpt>
      <trkpt lat="45.6169" lon="6.52021">
        <ele>2063.6</ele>
        <time>2025-02-20T12:19:30Z</time>
      </trkpt>
      <trkpt lat="45.6169" lon="6.52021">
        <ele>2063.6</ele>
        <time>2025-02-20T12:19:31Z</time>
      </trkpt>
      <trkpt lat="45.61689" lon="6.52021">
        <ele>2063.6</ele>
        <time>2025-02-20T12:19:32Z</time>
      </trkpt>
      <trkpt lat="45.61689" lon="6.52022">
        <ele>2064</ele>
        <time>2025-02-20T12:19:33Z</time>
      </trkpt>
      <trkpt lat="45.61688" lon="6.52022">
        <ele>2064</ele>
        <time>2025-02-20T12:19:34Z</time>
      </trkpt>
      <trkpt lat="45.61688" lon="6.52022">
        <ele>2064</ele>
        <time>2025-02-20T12:19:35Z</time>
      </trkpt>
      <trkpt lat="45.61688" lon="6.52022">
        <ele>2064.6</ele>
        <time>2025-02-20T12:19:36Z</time>
      </trkpt>
      <trkpt lat="45.61688" lon="6.52022">
        <ele>2064.6</ele>
        <time>2025-02-20T12:19:37Z</time>
      </trkpt>
      <trkpt lat="45.61688" lon="6.52022">
        <ele>2064.6</ele>
        <time>2025-02-20T12:19:38Z</time>
      </trkpt>
      <trkpt lat="45.61688" lon="6.52022">
        <ele>2064.6</ele>
        <time>2025-02-20T12:19:39Z</time>
      </trkpt>
      <trkpt lat="45.61687" lon="6.52025">
        <ele>2064.6</ele>
        <time>2025-02-20T12:19:40Z</time>
      </trkpt>
      <trkpt lat="45.61687" lon="6.52026">
        <ele>2064.4</ele>
        <time>2025-02-20T12:19:41Z</time>
      </trkpt>
      <trkpt lat="45.61687" lon="6.52026">
        <ele>2064.4</ele>
        <time>2025-02-20T12:19:42Z</time>
      </trkpt>
      <trkpt lat="45.61687" lon="6.52026">
        <ele>2064.4</ele>
        <time>2025-02-20T12:19:43Z</time>
      </trkpt>
      <trkpt lat="45.61687" lon="6.52026">
        <ele>2065.4</ele>
        <time>2025-02-20T12:19:44Z</time>
      </trkpt>
      <trkpt lat="45.61685" lon="6.52026">
        <ele>2066.4</ele>
        <time>2025-02-20T12:19:45Z</time>
      </trkpt>
      <trkpt lat="45.61684" lon="6.52025">
        <ele>2066.4</ele>
        <time>2025-02-20T12:19:46Z</time>
      </trkpt>
      <trkpt lat="45.61684" lon="6.52025">
        <ele>2066.4</ele>
        <time>2025-02-20T12:19:47Z</time>
      </trkpt>
      <trkpt lat="45.61683" lon="6.52024">
        <ele>2066.4</ele>
        <time>2025-02-20T12:19:48Z</time>
      </trkpt>
      <trkpt lat="45.61683" lon="6.52024">
        <ele>2065.6</ele>
        <time>2025-02-20T12:19:49Z</time>
      </trkpt>
      <trkpt lat="45.61683" lon="6.52023">
        <ele>2065.6</ele>
        <time>2025-02-20T12:19:50Z</time>
      </trkpt>
      <trkpt lat="45.61682" lon="6.52023">
        <ele>2065.6</ele>
        <time>2025-02-20T12:19:51Z</time>
      </trkpt>
      <trkpt lat="45.61682" lon="6.52022">
        <ele>2065.6</ele>
        <time>2025-02-20T12:19:52Z</time>
      </trkpt>
      <trkpt lat="45.61682" lon="6.52021">
        <ele>2067</ele>
        <time>2025-02-20T12:19:53Z</time>
      </trkpt>
      <trkpt lat="45.61682" lon="6.52021">
        <ele>2067</ele>
        <time>2025-02-20T12:19:54Z</time>
      </trkpt>
      <trkpt lat="45.61682" lon="6.52021">
        <ele>2067</ele>
        <time>2025-02-20T12:19:55Z</time>
      </trkpt>
      <trkpt lat="45.61682" lon="6.52019">
        <ele>2067</ele>
        <time>2025-02-20T12:19:56Z</time>
      </trkpt>
      <trkpt lat="45.61681" lon="6.52019">
        <ele>2067.8</ele>
        <time>2025-02-20T12:19:57Z</time>
      </trkpt>
      <trkpt lat="45.61682" lon="6.52018">
        <ele>2067.8</ele>
        <time>2025-02-20T12:19:58Z</time>
      </trkpt>
      <trkpt lat="45.61682" lon="6.52018">
        <ele>2067.8</ele>
        <time>2025-02-20T12:19:59Z</time>
      </trkpt>
      <trkpt lat="45.61681" lon="6.52017">
        <ele>2067.8</ele>
        <time>2025-02-20T12:20:00Z</time>
      </trkpt>
      <trkpt lat="45.61681" lon="6.52016">
        <ele>2067.2</ele>
        <time>2025-02-20T12:20:01Z</time>
      </trkpt>
      <trkpt lat="45.61681" lon="6.52015">
        <ele>2067.2</ele>
        <time>2025-02-20T12:20:02Z</time>
      </trkpt>
      <trkpt lat="45.61681" lon="6.52015">
        <ele>2067.2</ele>
        <time>2025-02-20T12:20:03Z</time>
      </trkpt>
      <trkpt lat="45.61681" lon="6.52015">
        <ele>2067.2</ele>
        <time>2025-02-20T12:20:04Z</time>
      </trkpt>
      <trkpt lat="45.61681" lon="6.52014">
        <ele>2068.4</ele>
        <time>2025-02-20T12:20:05Z</time>
      </trkpt>
      <trkpt lat="45.61681" lon="6.52014">
        <ele>2068.4</ele>
        <time>2025-02-20T12:20:06Z</time>
      </trkpt>
      <trkpt lat="45.61681" lon="6.52014">
        <ele>2068.4</ele>
        <time>2025-02-20T12:20:07Z</time>
      </trkpt>
      <trkpt lat="45.61681" lon="6.52014">
        <ele>2069.4</ele>
        <time>2025-02-20T12:20:08Z</time>
      </trkpt>
      <trkpt lat="45.61681" lon="6.52014">
        <ele>2069.4</ele>
        <time>2025-02-20T12:20:09Z</time>
      </trkpt>
      <trkpt lat="45.61679" lon="6.52012">
        <ele>2069.4</ele>
        <time>2025-02-20T12:20:10Z</time>
      </trkpt>
      <trkpt lat="45.61679" lon="6.52011">
        <ele>2069.4</ele>
        <time>2025-02-20T12:20:11Z</time>
      </trkpt>
      <trkpt lat="45.61679" lon="6.52011">
        <ele>2069.4</ele>
        <time>2025-02-20T12:20:12Z</time>
      </trkpt>
      <trkpt lat="45.61678" lon="6.5201">
        <ele>2069.4</ele>
        <time>2025-02-20T12:20:13Z</time>
      </trkpt>
      <trkpt lat="45.61678" lon="6.52009">
        <ele>2069.4</ele>
        <time>2025-02-20T12:20:14Z</time>
      </trkpt>
      <trkpt lat="45.61678" lon="6.52009">
        <ele>2069.4</ele>
        <time>2025-02-20T12:20:15Z</time>
      </trkpt>
      <trkpt lat="45.61678" lon="6.52009">
        <ele>2069.4</ele>
        <time>2025-02-20T12:20:16Z</time>
      </trkpt>
      <trkpt lat="45.61678" lon="6.52009">
        <ele>2069.4</ele>
        <time>2025-02-20T12:20:17Z</time>
      </trkpt>
      <trkpt lat="45.61678" lon="6.52009">
        <ele>2069.4</ele>
        <time>2025-02-20T12:20:18Z</time>
      </trkpt>
      <trkpt lat="45.61676" lon="6.52009">
        <ele>2069.4</ele>
        <time>2025-02-20T12:20:19Z</time>
      </trkpt>
      <trkpt lat="45.61675" lon="6.52009">
        <ele>2069.4</ele>
        <time>2025-02-20T12:20:20Z</time>
      </trkpt>
      <trkpt lat="45.61675" lon="6.52008">
        <ele>2071.2</ele>
        <time>2025-02-20T12:20:21Z</time>
      </trkpt>
      <trkpt lat="45.61674" lon="6.52009">
        <ele>2071.2</ele>
        <time>2025-02-20T12:20:22Z</time>
      </trkpt>
      <trkpt lat="45.61674" lon="6.52008">
        <ele>2071.2</ele>
        <time>2025-02-20T12:20:23Z</time>
      </trkpt>
      <trkpt lat="45.61674" lon="6.52008">
        <ele>2071.2</ele>
        <time>2025-02-20T12:20:24Z</time>
      </trkpt>
      <trkpt lat="45.61674" lon="6.52008">
        <ele>2071.2</ele>
        <time>2025-02-20T12:20:25Z</time>
      </trkpt>
      <trkpt lat="45.61674" lon="6.52008">
        <ele>2071.2</ele>
        <time>2025-02-20T12:20:26Z</time>
      </trkpt>
      <trkpt lat="45.61674" lon="6.52008">
        <ele>2071.2</ele>
        <time>2025-02-20T12:20:27Z</time>
      </trkpt>
      <trkpt lat="45.61672" lon="6.52008">
        <ele>2071.2</ele>
        <time>2025-02-20T12:20:28Z</time>
      </trkpt>
      <trkpt lat="45.61672" lon="6.52009">
        <ele>2070</ele>
        <time>2025-02-20T12:20:29Z</time>
      </trkpt>
      <trkpt lat="45.61671" lon="6.52009">
        <ele>2070</ele>
        <time>2025-02-20T12:20:30Z</time>
      </trkpt>
      <trkpt lat="45.61671" lon="6.52009">
        <ele>2070</ele>
        <time>2025-02-20T12:20:31Z</time>
      </trkpt>
      <trkpt lat="45.6167" lon="6.52009">
        <ele>2071</ele>
        <time>2025-02-20T12:20:32Z</time>
      </trkpt>
      <trkpt lat="45.61669" lon="6.52009">
        <ele>2071.4</ele>
        <time>2025-02-20T12:20:33Z</time>
      </trkpt>
      <trkpt lat="45.61669" lon="6.52009">
        <ele>2071.4</ele>
        <time>2025-02-20T12:20:34Z</time>
      </trkpt>
      <trkpt lat="45.61669" lon="6.52009">
        <ele>2071.4</ele>
        <time>2025-02-20T12:20:35Z</time>
      </trkpt>
      <trkpt lat="45.61668" lon="6.52009">
        <ele>2071.6</ele>
        <time>2025-02-20T12:20:36Z</time>
      </trkpt>
      <trkpt lat="45.61668" lon="6.52008">
        <ele>2071.6</ele>
        <time>2025-02-20T12:20:37Z</time>
      </trkpt>
      <trkpt lat="45.61667" lon="6.52008">
        <ele>2071.6</ele>
        <time>2025-02-20T12:20:38Z</time>
      </trkpt>
      <trkpt lat="45.61666" lon="6.52008">
        <ele>2071.6</ele>
        <time>2025-02-20T12:20:39Z</time>
      </trkpt>
      <trkpt lat="45.61666" lon="6.52008">
        <ele>2072.2</ele>
        <time>2025-02-20T12:20:40Z</time>
      </trkpt>
      <trkpt lat="45.61666" lon="6.52008">
        <ele>2072.8</ele>
        <time>2025-02-20T12:20:41Z</time>
      </trkpt>
      <trkpt lat="45.61666" lon="6.52008">
        <ele>2072.8</ele>
        <time>2025-02-20T12:20:42Z</time>
      </trkpt>
      <trkpt lat="45.61666" lon="6.52008">
        <ele>2072.8</ele>
        <time>2025-02-20T12:20:43Z</time>
      </trkpt>
      <trkpt lat="45.61666" lon="6.52008">
        <ele>2072.8</ele>
        <time>2025-02-20T12:20:44Z</time>
      </trkpt>
      <trkpt lat="45.61666" lon="6.52008">
        <ele>2073.2</ele>
        <time>2025-02-20T12:20:45Z</time>
      </trkpt>
      <trkpt lat="45.61666" lon="6.52008">
        <ele>2073.2</ele>
        <time>2025-02-20T12:20:46Z</time>
      </trkpt>
      <trkpt lat="45.61666" lon="6.52008">
        <ele>2073.2</ele>
        <time>2025-02-20T12:20:47Z</time>
      </trkpt>
      <trkpt lat="45.61666" lon="6.52008">
        <ele>2073.2</ele>
        <time>2025-02-20T12:20:48Z</time>
      </trkpt>
      <trkpt lat="45.61666" lon="6.52008">
        <ele>2073</ele>
        <time>2025-02-20T12:20:49Z</time>
      </trkpt>
      <trkpt lat="45.61666" lon="6.52008">
        <ele>2073</ele>
        <time>2025-02-20T12:20:50Z</time>
      </trkpt>
      <trkpt lat="45.61666" lon="6.52008">
        <ele>2073</ele>
        <time>2025-02-20T12:20:51Z</time>
      </trkpt>
      <trkpt lat="45.61666" lon="6.52008">
        <ele>2073.6</ele>
        <time>2025-02-20T12:20:52Z</time>
      </trkpt>
      <trkpt lat="45.61666" lon="6.52008">
        <ele>2073.2</ele>
        <time>2025-02-20T12:20:53Z</time>
      </trkpt>
      <trkpt lat="45.61666" lon="6.52008">
        <ele>2073.2</ele>
        <time>2025-02-20T12:20:54Z</time>
      </trkpt>
      <trkpt lat="45.61666" lon="6.52008">
        <ele>2073.2</ele>
        <time>2025-02-20T12:20:55Z</time>
      </trkpt>
      <trkpt lat="45.61666" lon="6.52008">
        <ele>2073.2</ele>
        <time>2025-02-20T12:20:56Z</time>
      </trkpt>
      <trkpt lat="45.61664" lon="6.52008">
        <ele>2072.4</ele>
        <time>2025-02-20T12:20:57Z</time>
      </trkpt>
      <trkpt lat="45.61663" lon="6.52008">
        <ele>2072.4</ele>
        <time>2025-02-20T12:20:58Z</time>
      </trkpt>
      <trkpt lat="45.61663" lon="6.52007">
        <ele>2072.4</ele>
        <time>2025-02-20T12:20:59Z</time>
      </trkpt>
      <trkpt lat="45.61662" lon="6.52007">
        <ele>2073.4</ele>
        <time>2025-02-20T12:21:00Z</time>
      </trkpt>
      <trkpt lat="45.61661" lon="6.52007">
        <ele>2075.6</ele>
        <time>2025-02-20T12:21:01Z</time>
      </trkpt>
      <trkpt lat="45.61661" lon="6.52007">
        <ele>2075.6</ele>
        <time>2025-02-20T12:21:02Z</time>
      </trkpt>
      <trkpt lat="45.6166" lon="6.52007">
        <ele>2075.6</ele>
        <time>2025-02-20T12:21:03Z</time>
      </trkpt>
      <trkpt lat="45.61659" lon="6.52007">
        <ele>2075.6</ele>
        <time>2025-02-20T12:21:04Z</time>
      </trkpt>
      <trkpt lat="45.61659" lon="6.52007">
        <ele>2074.8</ele>
        <time>2025-02-20T12:21:05Z</time>
      </trkpt>
      <trkpt lat="45.61659" lon="6.52007">
        <ele>2074.8</ele>
        <time>2025-02-20T12:21:06Z</time>
      </trkpt>
      <trkpt lat="45.61659" lon="6.52007">
        <ele>2074.8</ele>
        <time>2025-02-20T12:21:07Z</time>
      </trkpt>
      <trkpt lat="45.61659" lon="6.52007">
        <ele>2074.8</ele>
        <time>2025-02-20T12:21:08Z</time>
      </trkpt>
      <trkpt lat="45.61659" lon="6.52007">
        <ele>2074.6</ele>
        <time>2025-02-20T12:21:09Z</time>
      </trkpt>
      <trkpt lat="45.61659" lon="6.52007">
        <ele>2074.6</ele>
        <time>2025-02-20T12:21:10Z</time>
      </trkpt>
      <trkpt lat="45.61659" lon="6.52007">
        <ele>2074.6</ele>
        <time>2025-02-20T12:21:11Z</time>
      </trkpt>
      <trkpt lat="45.61659" lon="6.52007">
        <ele>2075.6</ele>
        <time>2025-02-20T12:21:12Z</time>
      </trkpt>
      <trkpt lat="45.61655" lon="6.52007">
        <ele>2076.2</ele>
        <time>2025-02-20T12:21:13Z</time>
      </trkpt>
      <trkpt lat="45.61654" lon="6.52007">
        <ele>2076.2</ele>
        <time>2025-02-20T12:21:14Z</time>
      </trkpt>
      <trkpt lat="45.61654" lon="6.52007">
        <ele>2076.2</ele>
        <time>2025-02-20T12:21:15Z</time>
      </trkpt>
      <trkpt lat="45.61654" lon="6.52007">
        <ele>2076.4</ele>
        <time>2025-02-20T12:21:16Z</time>
      </trkpt>
      <trkpt lat="45.61652" lon="6.52007">
        <ele>2076.8</ele>
        <time>2025-02-20T12:21:17Z</time>
      </trkpt>
      <trkpt lat="45.61651" lon="6.52007">
        <ele>2076.8</ele>
        <time>2025-02-20T12:21:18Z</time>
      </trkpt>
      <trkpt lat="45.61651" lon="6.52007">
        <ele>2076.8</ele>
        <time>2025-02-20T12:21:19Z</time>
      </trkpt>
      <trkpt lat="45.6165" lon="6.52006">
        <ele>2076.8</ele>
        <time>2025-02-20T12:21:20Z</time>
      </trkpt>
      <trkpt lat="45.61649" lon="6.52006">
        <ele>2077</ele>
        <time>2025-02-20T12:21:21Z</time>
      </trkpt>
      <trkpt lat="45.61649" lon="6.52006">
        <ele>2077</ele>
        <time>2025-02-20T12:21:22Z</time>
      </trkpt>
      <trkpt lat="45.61648" lon="6.52006">
        <ele>2077</ele>
        <time>2025-02-20T12:21:23Z</time>
      </trkpt>
      <trkpt lat="45.61647" lon="6.52006">
        <ele>2077</ele>
        <time>2025-02-20T12:21:24Z</time>
      </trkpt>
      <trkpt lat="45.61646" lon="6.52006">
        <ele>2077.2</ele>
        <time>2025-02-20T12:21:25Z</time>
      </trkpt>
      <trkpt lat="45.61646" lon="6.52006">
        <ele>2077.2</ele>
        <time>2025-02-20T12:21:26Z</time>
      </trkpt>
      <trkpt lat="45.61645" lon="6.52005">
        <ele>2077.2</ele>
        <time>2025-02-20T12:21:27Z</time>
      </trkpt>
      <trkpt lat="45.61644" lon="6.52005">
        <ele>2078</ele>
        <time>2025-02-20T12:21:28Z</time>
      </trkpt>
      <trkpt lat="45.61644" lon="6.52005">
        <ele>2077.8</ele>
        <time>2025-02-20T12:21:29Z</time>
      </trkpt>
      <trkpt lat="45.61643" lon="6.52005">
        <ele>2077.8</ele>
        <time>2025-02-20T12:21:30Z</time>
      </trkpt>
      <trkpt lat="45.61642" lon="6.52005">
        <ele>2077.8</ele>
        <time>2025-02-20T12:21:31Z</time>
      </trkpt>
      <trkpt lat="45.61641" lon="6.52004">
        <ele>2077.8</ele>
        <time>2025-02-20T12:21:32Z</time>
      </trkpt>
      <trkpt lat="45.61641" lon="6.52004">
        <ele>2077.4</ele>
        <time>2025-02-20T12:21:33Z</time>
      </trkpt>
      <trkpt lat="45.6164" lon="6.52004">
        <ele>2077.4</ele>
        <time>2025-02-20T12:21:34Z</time>
      </trkpt>
      <trkpt lat="45.61639" lon="6.52004">
        <ele>2077.4</ele>
        <time>2025-02-20T12:21:35Z</time>
      </trkpt>
      <trkpt lat="45.61638" lon="6.52003">
        <ele>2077.4</ele>
        <time>2025-02-20T12:21:36Z</time>
      </trkpt>
      <trkpt lat="45.61638" lon="6.52003">
        <ele>2077.8</ele>
        <time>2025-02-20T12:21:37Z</time>
      </trkpt>
      <trkpt lat="45.61637" lon="6.52003">
        <ele>2077.8</ele>
        <time>2025-02-20T12:21:38Z</time>
      </trkpt>
      <trkpt lat="45.61637" lon="6.52002">
        <ele>2077.8</ele>
        <time>2025-02-20T12:21:39Z</time>
      </trkpt>
      <trkpt lat="45.61636" lon="6.52002">
        <ele>2077.8</ele>
        <time>2025-02-20T12:21:40Z</time>
      </trkpt>
      <trkpt lat="45.61635" lon="6.52002">
        <ele>2079.2</ele>
        <time>2025-02-20T12:21:41Z</time>
      </trkpt>
      <trkpt lat="45.61635" lon="6.52002">
        <ele>2079.2</ele>
        <time>2025-02-20T12:21:42Z</time>
      </trkpt>
      <trkpt lat="45.61634" lon="6.52002">
        <ele>2079.2</ele>
        <time>2025-02-20T12:21:43Z</time>
      </trkpt>
      <trkpt lat="45.61634" lon="6.52001">
        <ele>2079.2</ele>
        <time>2025-02-20T12:21:44Z</time>
      </trkpt>
      <trkpt lat="45.61633" lon="6.52001">
        <ele>2079.4</ele>
        <time>2025-02-20T12:21:45Z</time>
      </trkpt>
      <trkpt lat="45.61633" lon="6.52">
        <ele>2079.4</ele>
        <time>2025-02-20T12:21:46Z</time>
      </trkpt>
      <trkpt lat="45.61631" lon="6.52">
        <ele>2079.4</ele>
        <time>2025-02-20T12:21:47Z</time>
      </trkpt>
      <trkpt lat="45.61631" lon="6.52">
        <ele>2079</ele>
        <time>2025-02-20T12:21:48Z</time>
      </trkpt>
      <trkpt lat="45.6163" lon="6.52">
        <ele>2079.6</ele>
        <time>2025-02-20T12:21:49Z</time>
      </trkpt>
      <trkpt lat="45.6163" lon="6.51999">
        <ele>2079.6</ele>
        <time>2025-02-20T12:21:50Z</time>
      </trkpt>
      <trkpt lat="45.61629" lon="6.51999">
        <ele>2079.6</ele>
        <time>2025-02-20T12:21:51Z</time>
      </trkpt>
      <trkpt lat="45.61629" lon="6.51999">
        <ele>2079.6</ele>
        <time>2025-02-20T12:21:52Z</time>
      </trkpt>
      <trkpt lat="45.61629" lon="6.51999">
        <ele>2080</ele>
        <time>2025-02-20T12:21:53Z</time>
      </trkpt>
      <trkpt lat="45.61628" lon="6.51999">
        <ele>2080</ele>
        <time>2025-02-20T12:21:54Z</time>
      </trkpt>
      <trkpt lat="45.61628" lon="6.51999">
        <ele>2080</ele>
        <time>2025-02-20T12:21:55Z</time>
      </trkpt>
      <trkpt lat="45.61627" lon="6.51998">
        <ele>2080</ele>
        <time>2025-02-20T12:21:56Z</time>
      </trkpt>
      <trkpt lat="45.61627" lon="6.51998">
        <ele>2079.8</ele>
        <time>2025-02-20T12:21:57Z</time>
      </trkpt>
      <trkpt lat="45.61626" lon="6.51998">
        <ele>2079.8</ele>
        <time>2025-02-20T12:21:58Z</time>
      </trkpt>
      <trkpt lat="45.61626" lon="6.51997">
        <ele>2079.8</ele>
        <time>2025-02-20T12:21:59Z</time>
      </trkpt>
      <trkpt lat="45.61625" lon="6.51997">
        <ele>2079.8</ele>
        <time>2025-02-20T12:22:00Z</time>
      </trkpt>
      <trkpt lat="45.61625" lon="6.51996">
        <ele>2079.8</ele>
        <time>2025-02-20T12:22:01Z</time>
      </trkpt>
      <trkpt lat="45.61624" lon="6.51996">
        <ele>2079.8</ele>
        <time>2025-02-20T12:22:02Z</time>
      </trkpt>
      <trkpt lat="45.61624" lon="6.51996">
        <ele>2079.8</ele>
        <time>2025-02-20T12:22:03Z</time>
      </trkpt>
      <trkpt lat="45.61623" lon="6.51995">
        <ele>2080.8</ele>
        <time>2025-02-20T12:22:04Z</time>
      </trkpt>
      <trkpt lat="45.61623" lon="6.51995">
        <ele>2080.2</ele>
        <time>2025-02-20T12:22:05Z</time>
      </trkpt>
      <trkpt lat="45.61622" lon="6.51994">
        <ele>2080.2</ele>
        <time>2025-02-20T12:22:06Z</time>
      </trkpt>
      <trkpt lat="45.61622" lon="6.51994">
        <ele>2080.2</ele>
        <time>2025-02-20T12:22:07Z</time>
      </trkpt>
      <trkpt lat="45.61621" lon="6.51994">
        <ele>2080.2</ele>
        <time>2025-02-20T12:22:08Z</time>
      </trkpt>
      <trkpt lat="45.61621" lon="6.51994">
        <ele>2081.8</ele>
        <time>2025-02-20T12:22:09Z</time>
      </trkpt>
      <trkpt lat="45.6162" lon="6.51993">
        <ele>2081.8</ele>
        <time>2025-02-20T12:22:10Z</time>
      </trkpt>
      <trkpt lat="45.61619" lon="6.51993">
        <ele>2081.8</ele>
        <time>2025-02-20T12:22:11Z</time>
      </trkpt>
      <trkpt lat="45.61618" lon="6.51993">
        <ele>2081.8</ele>
        <time>2025-02-20T12:22:12Z</time>
      </trkpt>
      <trkpt lat="45.61618" lon="6.51993">
        <ele>2082</ele>
        <time>2025-02-20T12:22:13Z</time>
      </trkpt>
      <trkpt lat="45.61617" lon="6.51992">
        <ele>2082</ele>
        <time>2025-02-20T12:22:14Z</time>
      </trkpt>
      <trkpt lat="45.61617" lon="6.51992">
        <ele>2082</ele>
        <time>2025-02-20T12:22:15Z</time>
      </trkpt>
      <trkpt lat="45.61617" lon="6.51992">
        <ele>2082.2</ele>
        <time>2025-02-20T12:22:16Z</time>
      </trkpt>
      <trkpt lat="45.61616" lon="6.51991">
        <ele>2082.6</ele>
        <time>2025-02-20T12:22:17Z</time>
      </trkpt>
      <trkpt lat="45.61615" lon="6.51991">
        <ele>2082.6</ele>
        <time>2025-02-20T12:22:18Z</time>
      </trkpt>
      <trkpt lat="45.61614" lon="6.5199">
        <ele>2082.6</ele>
        <time>2025-02-20T12:22:19Z</time>
      </trkpt>
      <trkpt lat="45.61614" lon="6.5199">
        <ele>2082.6</ele>
        <time>2025-02-20T12:22:20Z</time>
      </trkpt>
      <trkpt lat="45.61613" lon="6.5199">
        <ele>2083.2</ele>
        <time>2025-02-20T12:22:21Z</time>
      </trkpt>
      <trkpt lat="45.61613" lon="6.51989">
        <ele>2083.2</ele>
        <time>2025-02-20T12:22:22Z</time>
      </trkpt>
      <trkpt lat="45.61613" lon="6.51989">
        <ele>2083.2</ele>
        <time>2025-02-20T12:22:23Z</time>
      </trkpt>
      <trkpt lat="45.61613" lon="6.51989">
        <ele>2082.6</ele>
        <time>2025-02-20T12:22:24Z</time>
      </trkpt>
      <trkpt lat="45.61613" lon="6.51989">
        <ele>2083.2</ele>
        <time>2025-02-20T12:22:25Z</time>
      </trkpt>
      <trkpt lat="45.61613" lon="6.51989">
        <ele>2083.2</ele>
        <time>2025-02-20T12:22:26Z</time>
      </trkpt>
      <trkpt lat="45.61613" lon="6.51989">
        <ele>2083.2</ele>
        <time>2025-02-20T12:22:27Z</time>
      </trkpt>
      <trkpt lat="45.61613" lon="6.51989">
        <ele>2083.2</ele>
        <time>2025-02-20T12:22:28Z</time>
      </trkpt>
      <trkpt lat="45.61613" lon="6.51989">
        <ele>2083</ele>
        <time>2025-02-20T12:22:29Z</time>
      </trkpt>
      <trkpt lat="45.61613" lon="6.51989">
        <ele>2083</ele>
        <time>2025-02-20T12:22:30Z</time>
      </trkpt>
      <trkpt lat="45.61613" lon="6.51989">
        <ele>2083</ele>
        <time>2025-02-20T12:22:31Z</time>
      </trkpt>
      <trkpt lat="45.61613" lon="6.51989">
        <ele>2083</ele>
        <time>2025-02-20T12:22:32Z</time>
      </trkpt>
      <trkpt lat="45.61613" lon="6.51989">
        <ele>2083.4</ele>
        <time>2025-02-20T12:22:33Z</time>
      </trkpt>
      <trkpt lat="45.61613" lon="6.51989">
        <ele>2083.4</ele>
        <time>2025-02-20T12:22:34Z</time>
      </trkpt>
      <trkpt lat="45.61613" lon="6.51989">
        <ele>2083.4</ele>
        <time>2025-02-20T12:22:35Z</time>
      </trkpt>
      <trkpt lat="45.61613" lon="6.51989">
        <ele>2084.4</ele>
        <time>2025-02-20T12:22:36Z</time>
      </trkpt>
      <trkpt lat="45.61613" lon="6.51989">
        <ele>2084.8</ele>
        <time>2025-02-20T12:22:37Z</time>
      </trkpt>
      <trkpt lat="45.61613" lon="6.51989">
        <ele>2084.8</ele>
        <time>2025-02-20T12:22:38Z</time>
      </trkpt>
      <trkpt lat="45.61608" lon="6.51982">
        <ele>2084.8</ele>
        <time>2025-02-20T12:22:39Z</time>
      </trkpt>
      <trkpt lat="45.61608" lon="6.51982">
        <ele>2084.6</ele>
        <time>2025-02-20T12:22:40Z</time>
      </trkpt>
      <trkpt lat="45.61608" lon="6.51981">
        <ele>2083.8</ele>
        <time>2025-02-20T12:22:41Z</time>
      </trkpt>
      <trkpt lat="45.61607" lon="6.51981">
        <ele>2083.8</ele>
        <time>2025-02-20T12:22:42Z</time>
      </trkpt>
      <trkpt lat="45.61607" lon="6.51981">
        <ele>2083.8</ele>
        <time>2025-02-20T12:22:43Z</time>
      </trkpt>
      <trkpt lat="45.61606" lon="6.51981">
        <ele>2083.8</ele>
        <time>2025-02-20T12:22:44Z</time>
      </trkpt>
      <trkpt lat="45.61606" lon="6.51981">
        <ele>2085.6</ele>
        <time>2025-02-20T12:22:45Z</time>
      </trkpt>
      <trkpt lat="45.61606" lon="6.51981">
        <ele>2085.6</ele>
        <time>2025-02-20T12:22:46Z</time>
      </trkpt>
      <trkpt lat="45.61606" lon="6.51981">
        <ele>2085.6</ele>
        <time>2025-02-20T12:22:47Z</time>
      </trkpt>
      <trkpt lat="45.61604" lon="6.51983">
        <ele>2085.6</ele>
        <time>2025-02-20T12:22:48Z</time>
      </trkpt>
      <trkpt lat="45.61604" lon="6.51983">
        <ele>2086</ele>
        <time>2025-02-20T12:22:49Z</time>
      </trkpt>
      <trkpt lat="45.61603" lon="6.51983">
        <ele>2086</ele>
        <time>2025-02-20T12:22:50Z</time>
      </trkpt>
      <trkpt lat="45.61603" lon="6.51983">
        <ele>2086</ele>
        <time>2025-02-20T12:22:51Z</time>
      </trkpt>
      <trkpt lat="45.61603" lon="6.51983">
        <ele>2086</ele>
        <time>2025-02-20T12:22:52Z</time>
      </trkpt>
      <trkpt lat="45.61603" lon="6.51983">
        <ele>2087</ele>
        <time>2025-02-20T12:22:53Z</time>
      </trkpt>
      <trkpt lat="45.61603" lon="6.51983">
        <ele>2087</ele>
        <time>2025-02-20T12:22:54Z</time>
      </trkpt>
      <trkpt lat="45.61603" lon="6.51983">
        <ele>2087</ele>
        <time>2025-02-20T12:22:55Z</time>
      </trkpt>
      <trkpt lat="45.61603" lon="6.51983">
        <ele>2086</ele>
        <time>2025-02-20T12:22:56Z</time>
      </trkpt>
      <trkpt lat="45.61601" lon="6.51984">
        <ele>2086.8</ele>
        <time>2025-02-20T12:22:57Z</time>
      </trkpt>
      <trkpt lat="45.61601" lon="6.51984">
        <ele>2086.8</ele>
        <time>2025-02-20T12:22:58Z</time>
      </trkpt>
      <trkpt lat="45.61601" lon="6.51984">
        <ele>2086.8</ele>
        <time>2025-02-20T12:22:59Z</time>
      </trkpt>
      <trkpt lat="45.616" lon="6.51984">
        <ele>2086.8</ele>
        <time>2025-02-20T12:23:00Z</time>
      </trkpt>
      <trkpt lat="45.616" lon="6.51984">
        <ele>2086.4</ele>
        <time>2025-02-20T12:23:01Z</time>
      </trkpt>
      <trkpt lat="45.616" lon="6.51984">
        <ele>2086.4</ele>
        <time>2025-02-20T12:23:02Z</time>
      </trkpt>
      <trkpt lat="45.616" lon="6.51984">
        <ele>2086.4</ele>
        <time>2025-02-20T12:23:03Z</time>
      </trkpt>
      <trkpt lat="45.616" lon="6.51984">
        <ele>2087.4</ele>
        <time>2025-02-20T12:23:04Z</time>
      </trkpt>
      <trkpt lat="45.61599" lon="6.51984">
        <ele>2087.6</ele>
        <time>2025-02-20T12:23:05Z</time>
      </trkpt>
      <trkpt lat="45.61598" lon="6.51984">
        <ele>2087.6</ele>
        <time>2025-02-20T12:23:06Z</time>
      </trkpt>
      <trkpt lat="45.61598" lon="6.51984">
        <ele>2087.6</ele>
        <time>2025-02-20T12:23:07Z</time>
      </trkpt>
      <trkpt lat="45.61598" lon="6.51984">
        <ele>2087.8</ele>
        <time>2025-02-20T12:23:08Z</time>
      </trkpt>
      <trkpt lat="45.61598" lon="6.51984">
        <ele>2088.8</ele>
        <time>2025-02-20T12:23:09Z</time>
      </trkpt>
      <trkpt lat="45.61598" lon="6.51984">
        <ele>2088.8</ele>
        <time>2025-02-20T12:23:10Z</time>
      </trkpt>
      <trkpt lat="45.61598" lon="6.51984">
        <ele>2088.8</ele>
        <time>2025-02-20T12:23:11Z</time>
      </trkpt>
      <trkpt lat="45.61596" lon="6.51985">
        <ele>2088.6</ele>
        <time>2025-02-20T12:23:12Z</time>
      </trkpt>
      <trkpt lat="45.61596" lon="6.51984">
        <ele>2088.4</ele>
        <time>2025-02-20T12:23:13Z</time>
      </trkpt>
      <trkpt lat="45.61596" lon="6.51984">
        <ele>2088.4</ele>
        <time>2025-02-20T12:23:14Z</time>
      </trkpt>
      <trkpt lat="45.61596" lon="6.51984">
        <ele>2088.4</ele>
        <time>2025-02-20T12:23:15Z</time>
      </trkpt>
      <trkpt lat="45.61596" lon="6.51984">
        <ele>2088.8</ele>
        <time>2025-02-20T12:23:16Z</time>
      </trkpt>
      <trkpt lat="45.61596" lon="6.51984">
        <ele>2089.4</ele>
        <time>2025-02-20T12:23:17Z</time>
      </trkpt>
      <trkpt lat="45.61596" lon="6.51984">
        <ele>2089.4</ele>
        <time>2025-02-20T12:23:18Z</time>
      </trkpt>
      <trkpt lat="45.61594" lon="6.5198">
        <ele>2089.4</ele>
        <time>2025-02-20T12:23:19Z</time>
      </trkpt>
      <trkpt lat="45.61593" lon="6.51979">
        <ele>2089.4</ele>
        <time>2025-02-20T12:23:20Z</time>
      </trkpt>
      <trkpt lat="45.61593" lon="6.51979">
        <ele>2090.6</ele>
        <time>2025-02-20T12:23:21Z</time>
      </trkpt>
      <trkpt lat="45.61592" lon="6.51978">
        <ele>2090.6</ele>
        <time>2025-02-20T12:23:22Z</time>
      </trkpt>
      <trkpt lat="45.61592" lon="6.51977">
        <ele>2090.6</ele>
        <time>2025-02-20T12:23:23Z</time>
      </trkpt>
      <trkpt lat="45.61592" lon="6.51976">
        <ele>2089.6</ele>
        <time>2025-02-20T12:23:24Z</time>
      </trkpt>
      <trkpt lat="45.61592" lon="6.51976">
        <ele>2089.4</ele>
        <time>2025-02-20T12:23:25Z</time>
      </trkpt>
      <trkpt lat="45.61592" lon="6.51976">
        <ele>2089.4</ele>
        <time>2025-02-20T12:23:26Z</time>
      </trkpt>
      <trkpt lat="45.61592" lon="6.51976">
        <ele>2089.4</ele>
        <time>2025-02-20T12:23:27Z</time>
      </trkpt>
      <trkpt lat="45.61592" lon="6.51976">
        <ele>2090.4</ele>
        <time>2025-02-20T12:23:28Z</time>
      </trkpt>
      <trkpt lat="45.61592" lon="6.51973">
        <ele>2091</ele>
        <time>2025-02-20T12:23:29Z</time>
      </trkpt>
      <trkpt lat="45.61592" lon="6.51973">
        <ele>2091</ele>
        <time>2025-02-20T12:23:30Z</time>
      </trkpt>
      <trkpt lat="45.61592" lon="6.51972">
        <ele>2091</ele>
        <time>2025-02-20T12:23:31Z</time>
      </trkpt>
      <trkpt lat="45.61591" lon="6.51971">
        <ele>2091</ele>
        <time>2025-02-20T12:23:32Z</time>
      </trkpt>
      <trkpt lat="45.61591" lon="6.51971">
        <ele>2090.6</ele>
        <time>2025-02-20T12:23:33Z</time>
      </trkpt>
      <trkpt lat="45.61591" lon="6.51971">
        <ele>2090.6</ele>
        <time>2025-02-20T12:23:34Z</time>
      </trkpt>
      <trkpt lat="45.61591" lon="6.51971">
        <ele>2090.6</ele>
        <time>2025-02-20T12:23:35Z</time>
      </trkpt>
      <trkpt lat="45.61591" lon="6.51971">
        <ele>2090.6</ele>
        <time>2025-02-20T12:23:36Z</time>
      </trkpt>
      <trkpt lat="45.61591" lon="6.51971">
        <ele>2092.8</ele>
        <time>2025-02-20T12:23:37Z</time>
      </trkpt>
      <trkpt lat="45.61591" lon="6.51967">
        <ele>2092.8</ele>
        <time>2025-02-20T12:23:38Z</time>
      </trkpt>
      <trkpt lat="45.61591" lon="6.51966">
        <ele>2092.8</ele>
        <time>2025-02-20T12:23:39Z</time>
      </trkpt>
      <trkpt lat="45.61591" lon="6.51966">
        <ele>2092.2</ele>
        <time>2025-02-20T12:23:40Z</time>
      </trkpt>
      <trkpt lat="45.61591" lon="6.51966">
        <ele>2091.2</ele>
        <time>2025-02-20T12:23:41Z</time>
      </trkpt>
      <trkpt lat="45.61591" lon="6.51966">
        <ele>2091.2</ele>
        <time>2025-02-20T12:23:42Z</time>
      </trkpt>
      <trkpt lat="45.61591" lon="6.51966">
        <ele>2091.2</ele>
        <time>2025-02-20T12:23:43Z</time>
      </trkpt>
      <trkpt lat="45.61591" lon="6.51966">
        <ele>2092.2</ele>
        <time>2025-02-20T12:23:44Z</time>
      </trkpt>
      <trkpt lat="45.61591" lon="6.51966">
        <ele>2092.2</ele>
        <time>2025-02-20T12:23:45Z</time>
      </trkpt>
      <trkpt lat="45.61591" lon="6.51966">
        <ele>2092.2</ele>
        <time>2025-02-20T12:23:46Z</time>
      </trkpt>
      <trkpt lat="45.61591" lon="6.51966">
        <ele>2092.2</ele>
        <time>2025-02-20T12:23:47Z</time>
      </trkpt>
      <trkpt lat="45.61591" lon="6.51966">
        <ele>2092.2</ele>
        <time>2025-02-20T12:23:48Z</time>
      </trkpt>
      <trkpt lat="45.61591" lon="6.51966">
        <ele>2093.2</ele>
        <time>2025-02-20T12:23:49Z</time>
      </trkpt>
      <trkpt lat="45.61591" lon="6.51966">
        <ele>2093.2</ele>
        <time>2025-02-20T12:23:50Z</time>
      </trkpt>
      <trkpt lat="45.6159" lon="6.51958">
        <ele>2093.2</ele>
        <time>2025-02-20T12:23:51Z</time>
      </trkpt>
      <trkpt lat="45.61591" lon="6.51957">
        <ele>2093.2</ele>
        <time>2025-02-20T12:23:52Z</time>
      </trkpt>
      <trkpt lat="45.61591" lon="6.51957">
        <ele>2094.2</ele>
        <time>2025-02-20T12:23:53Z</time>
      </trkpt>
      <trkpt lat="45.6159" lon="6.51955">
        <ele>2094.2</ele>
        <time>2025-02-20T12:23:54Z</time>
      </trkpt>
      <trkpt lat="45.6159" lon="6.51954">
        <ele>2094.2</ele>
        <time>2025-02-20T12:23:55Z</time>
      </trkpt>
      <trkpt lat="45.6159" lon="6.51954">
        <ele>2093.8</ele>
        <time>2025-02-20T12:23:56Z</time>
      </trkpt>
      <trkpt lat="45.6159" lon="6.51954">
        <ele>2094</ele>
        <time>2025-02-20T12:23:57Z</time>
      </trkpt>
      <trkpt lat="45.6159" lon="6.51954">
        <ele>2094</ele>
        <time>2025-02-20T12:23:58Z</time>
      </trkpt>
      <trkpt lat="45.6159" lon="6.51954">
        <ele>2094</ele>
        <time>2025-02-20T12:23:59Z</time>
      </trkpt>
      <trkpt lat="45.6159" lon="6.51954">
        <ele>2095</ele>
        <time>2025-02-20T12:24:00Z</time>
      </trkpt>
      <trkpt lat="45.6159" lon="6.51954">
        <ele>2094.8</ele>
        <time>2025-02-20T12:24:01Z</time>
      </trkpt>
      <trkpt lat="45.6159" lon="6.51954">
        <ele>2094.8</ele>
        <time>2025-02-20T12:24:02Z</time>
      </trkpt>
      <trkpt lat="45.61589" lon="6.51947">
        <ele>2094.8</ele>
        <time>2025-02-20T12:24:03Z</time>
      </trkpt>
      <trkpt lat="45.61588" lon="6.51945">
        <ele>2093.8</ele>
        <time>2025-02-20T12:24:04Z</time>
      </trkpt>
      <trkpt lat="45.61588" lon="6.51945">
        <ele>2094.4</ele>
        <time>2025-02-20T12:24:05Z</time>
      </trkpt>
      <trkpt lat="45.61588" lon="6.51944">
        <ele>2094.4</ele>
        <time>2025-02-20T12:24:06Z</time>
      </trkpt>
      <trkpt lat="45.61588" lon="6.51944">
        <ele>2094.4</ele>
        <time>2025-02-20T12:24:07Z</time>
      </trkpt>
      <trkpt lat="45.61588" lon="6.51944">
        <ele>2095.2</ele>
        <time>2025-02-20T12:24:08Z</time>
      </trkpt>
      <trkpt lat="45.61586" lon="6.51942">
        <ele>2095.8</ele>
        <time>2025-02-20T12:24:09Z</time>
      </trkpt>
      <trkpt lat="45.61586" lon="6.51942">
        <ele>2095.8</ele>
        <time>2025-02-20T12:24:10Z</time>
      </trkpt>
      <trkpt lat="45.61585" lon="6.51941">
        <ele>2095.8</ele>
        <time>2025-02-20T12:24:11Z</time>
      </trkpt>
      <trkpt lat="45.61584" lon="6.51941">
        <ele>2096</ele>
        <time>2025-02-20T12:24:12Z</time>
      </trkpt>
      <trkpt lat="45.61584" lon="6.5194">
        <ele>2096</ele>
        <time>2025-02-20T12:24:13Z</time>
      </trkpt>
      <trkpt lat="45.61583" lon="6.5194">
        <ele>2096</ele>
        <time>2025-02-20T12:24:14Z</time>
      </trkpt>
      <trkpt lat="45.61583" lon="6.5194">
        <ele>2096</ele>
        <time>2025-02-20T12:24:15Z</time>
      </trkpt>
      <trkpt lat="45.61583" lon="6.51939">
        <ele>2095.2</ele>
        <time>2025-02-20T12:24:16Z</time>
      </trkpt>
      <trkpt lat="45.61582" lon="6.51939">
        <ele>2095.4</ele>
        <time>2025-02-20T12:24:17Z</time>
      </trkpt>
      <trkpt lat="45.61582" lon="6.51939">
        <ele>2095.4</ele>
        <time>2025-02-20T12:24:18Z</time>
      </trkpt>
      <trkpt lat="45.61582" lon="6.51939">
        <ele>2095.4</ele>
        <time>2025-02-20T12:24:19Z</time>
      </trkpt>
      <trkpt lat="45.61582" lon="6.51939">
        <ele>2096.4</ele>
        <time>2025-02-20T12:24:20Z</time>
      </trkpt>
      <trkpt lat="45.61582" lon="6.51939">
        <ele>2097</ele>
        <time>2025-02-20T12:24:21Z</time>
      </trkpt>
      <trkpt lat="45.61582" lon="6.51939">
        <ele>2097</ele>
        <time>2025-02-20T12:24:22Z</time>
      </trkpt>
      <trkpt lat="45.61582" lon="6.51939">
        <ele>2097</ele>
        <time>2025-02-20T12:24:23Z</time>
      </trkpt>
      <trkpt lat="45.61582" lon="6.51939">
        <ele>2097</ele>
        <time>2025-02-20T12:24:24Z</time>
      </trkpt>
      <trkpt lat="45.61582" lon="6.51939">
        <ele>2097</ele>
        <time>2025-02-20T12:24:25Z</time>
      </trkpt>
      <trkpt lat="45.61582" lon="6.51939">
        <ele>2097</ele>
        <time>2025-02-20T12:24:26Z</time>
      </trkpt>
      <trkpt lat="45.61582" lon="6.51939">
        <ele>2097</ele>
        <time>2025-02-20T12:24:27Z</time>
      </trkpt>
      <trkpt lat="45.61582" lon="6.51939">
        <ele>2097</ele>
        <time>2025-02-20T12:24:28Z</time>
      </trkpt>
      <trkpt lat="45.61581" lon="6.51934">
        <ele>2098.2</ele>
        <time>2025-02-20T12:24:29Z</time>
      </trkpt>
      <trkpt lat="45.6158" lon="6.51933">
        <ele>2098.2</ele>
        <time>2025-02-20T12:24:30Z</time>
      </trkpt>
      <trkpt lat="45.6158" lon="6.51933">
        <ele>2098.2</ele>
        <time>2025-02-20T12:24:31Z</time>
      </trkpt>
      <trkpt lat="45.6158" lon="6.51933">
        <ele>2098.2</ele>
        <time>2025-02-20T12:24:32Z</time>
      </trkpt>
      <trkpt lat="45.6158" lon="6.51933">
        <ele>2098.2</ele>
        <time>2025-02-20T12:24:33Z</time>
      </trkpt>
      <trkpt lat="45.6158" lon="6.51933">
        <ele>2098.2</ele>
        <time>2025-02-20T12:24:34Z</time>
      </trkpt>
      <trkpt lat="45.6158" lon="6.51933">
        <ele>2098.2</ele>
        <time>2025-02-20T12:24:35Z</time>
      </trkpt>
      <trkpt lat="45.6158" lon="6.51933">
        <ele>2098.2</ele>
        <time>2025-02-20T12:24:36Z</time>
      </trkpt>
      <trkpt lat="45.6158" lon="6.51933">
        <ele>2097.8</ele>
        <time>2025-02-20T12:24:37Z</time>
      </trkpt>
      <trkpt lat="45.61578" lon="6.51929">
        <ele>2097.8</ele>
        <time>2025-02-20T12:24:38Z</time>
      </trkpt>
      <trkpt lat="45.61577" lon="6.51927">
        <ele>2097.8</ele>
        <time>2025-02-20T12:24:39Z</time>
      </trkpt>
      <trkpt lat="45.61577" lon="6.51926">
        <ele>2098.8</ele>
        <time>2025-02-20T12:24:40Z</time>
      </trkpt>
      <trkpt lat="45.61577" lon="6.51925">
        <ele>2099.2</ele>
        <time>2025-02-20T12:24:41Z</time>
      </trkpt>
      <trkpt lat="45.61577" lon="6.51925">
        <ele>2099.2</ele>
        <time>2025-02-20T12:24:42Z</time>
      </trkpt>
      <trkpt lat="45.61577" lon="6.51925">
        <ele>2099.2</ele>
        <time>2025-02-20T12:24:43Z</time>
      </trkpt>
      <trkpt lat="45.61577" lon="6.51925">
        <ele>2099.2</ele>
        <time>2025-02-20T12:24:44Z</time>
      </trkpt>
      <trkpt lat="45.61577" lon="6.51925">
        <ele>2098.6</ele>
        <time>2025-02-20T12:24:45Z</time>
      </trkpt>
      <trkpt lat="45.61577" lon="6.51925">
        <ele>2098.6</ele>
        <time>2025-02-20T12:24:46Z</time>
      </trkpt>
      <trkpt lat="45.61577" lon="6.51925">
        <ele>2098.6</ele>
        <time>2025-02-20T12:24:47Z</time>
      </trkpt>
      <trkpt lat="45.61577" lon="6.51925">
        <ele>2098.6</ele>
        <time>2025-02-20T12:24:48Z</time>
      </trkpt>
      <trkpt lat="45.61577" lon="6.51925">
        <ele>2100.2</ele>
        <time>2025-02-20T12:24:49Z</time>
      </trkpt>
      <trkpt lat="45.61577" lon="6.51925">
        <ele>2100.2</ele>
        <time>2025-02-20T12:24:50Z</time>
      </trkpt>
      <trkpt lat="45.61577" lon="6.51925">
        <ele>2100.2</ele>
        <time>2025-02-20T12:24:51Z</time>
      </trkpt>
      <trkpt lat="45.61577" lon="6.51925">
        <ele>2100.2</ele>
        <time>2025-02-20T12:24:52Z</time>
      </trkpt>
      <trkpt lat="45.61577" lon="6.51925">
        <ele>2100</ele>
        <time>2025-02-20T12:24:53Z</time>
      </trkpt>
      <trkpt lat="45.61577" lon="6.51925">
        <ele>2100</ele>
        <time>2025-02-20T12:24:54Z</time>
      </trkpt>
      <trkpt lat="45.61577" lon="6.51925">
        <ele>2100</ele>
        <time>2025-02-20T12:24:55Z</time>
      </trkpt>
      <trkpt lat="45.61577" lon="6.51925">
        <ele>2100</ele>
        <time>2025-02-20T12:24:56Z</time>
      </trkpt>
      <trkpt lat="45.61577" lon="6.51925">
        <ele>2100.4</ele>
        <time>2025-02-20T12:24:57Z</time>
      </trkpt>
      <trkpt lat="45.61577" lon="6.51925">
        <ele>2100.4</ele>
        <time>2025-02-20T12:24:58Z</time>
      </trkpt>
      <trkpt lat="45.61577" lon="6.51925">
        <ele>2100.4</ele>
        <time>2025-02-20T12:24:59Z</time>
      </trkpt>
      <trkpt lat="45.61577" lon="6.51925">
        <ele>2101</ele>
        <time>2025-02-20T12:25:00Z</time>
      </trkpt>
      <trkpt lat="45.61577" lon="6.51925">
        <ele>2101</ele>
        <time>2025-02-20T12:25:01Z</time>
      </trkpt>
      <trkpt lat="45.61577" lon="6.51925">
        <ele>2101</ele>
        <time>2025-02-20T12:25:02Z</time>
      </trkpt>
      <trkpt lat="45.61571" lon="6.51916">
        <ele>2101</ele>
        <time>2025-02-20T12:25:03Z</time>
      </trkpt>
      <trkpt lat="45.61571" lon="6.51916">
        <ele>2100.8</ele>
        <time>2025-02-20T12:25:04Z</time>
      </trkpt>
      <trkpt lat="45.61571" lon="6.51916">
        <ele>2101</ele>
        <time>2025-02-20T12:25:05Z</time>
      </trkpt>
      <trkpt lat="45.61571" lon="6.51916">
        <ele>2101</ele>
        <time>2025-02-20T12:25:06Z</time>
      </trkpt>
      <trkpt lat="45.61571" lon="6.51916">
        <ele>2101</ele>
        <time>2025-02-20T12:25:07Z</time>
      </trkpt>
      <trkpt lat="45.61571" lon="6.51916">
        <ele>2100.8</ele>
        <time>2025-02-20T12:25:08Z</time>
      </trkpt>
      <trkpt lat="45.61571" lon="6.51916">
        <ele>2101</ele>
        <time>2025-02-20T12:25:09Z</time>
      </trkpt>
      <trkpt lat="45.61571" lon="6.51916">
        <ele>2101</ele>
        <time>2025-02-20T12:25:10Z</time>
      </trkpt>
      <trkpt lat="45.61571" lon="6.51916">
        <ele>2101</ele>
        <time>2025-02-20T12:25:11Z</time>
      </trkpt>
      <trkpt lat="45.61571" lon="6.51916">
        <ele>2101</ele>
        <time>2025-02-20T12:25:12Z</time>
      </trkpt>
      <trkpt lat="45.61566" lon="6.51917">
        <ele>2101.4</ele>
        <time>2025-02-20T12:25:13Z</time>
      </trkpt>
      <trkpt lat="45.61566" lon="6.51917">
        <ele>2101.4</ele>
        <time>2025-02-20T12:25:14Z</time>
      </trkpt>
      <trkpt lat="45.61565" lon="6.51918">
        <ele>2101.4</ele>
        <time>2025-02-20T12:25:15Z</time>
      </trkpt>
      <trkpt lat="45.61564" lon="6.51918">
        <ele>2102.4</ele>
        <time>2025-02-20T12:25:16Z</time>
      </trkpt>
      <trkpt lat="45.61564" lon="6.51918">
        <ele>2101.6</ele>
        <time>2025-02-20T12:25:17Z</time>
      </trkpt>
      <trkpt lat="45.61564" lon="6.51918">
        <ele>2101.6</ele>
        <time>2025-02-20T12:25:18Z</time>
      </trkpt>
      <trkpt lat="45.61564" lon="6.51918">
        <ele>2101.6</ele>
        <time>2025-02-20T12:25:19Z</time>
      </trkpt>
      <trkpt lat="45.61564" lon="6.51918">
        <ele>2102.2</ele>
        <time>2025-02-20T12:25:20Z</time>
      </trkpt>
      <trkpt lat="45.61564" lon="6.51918">
        <ele>2102</ele>
        <time>2025-02-20T12:25:21Z</time>
      </trkpt>
      <trkpt lat="45.61564" lon="6.51918">
        <ele>2102</ele>
        <time>2025-02-20T12:25:22Z</time>
      </trkpt>
      <trkpt lat="45.61564" lon="6.51918">
        <ele>2102</ele>
        <time>2025-02-20T12:25:23Z</time>
      </trkpt>
      <trkpt lat="45.61564" lon="6.51918">
        <ele>2102.8</ele>
        <time>2025-02-20T12:25:24Z</time>
      </trkpt>
      <trkpt lat="45.61564" lon="6.51918">
        <ele>2102</ele>
        <time>2025-02-20T12:25:25Z</time>
      </trkpt>
      <trkpt lat="45.61564" lon="6.51918">
        <ele>2102</ele>
        <time>2025-02-20T12:25:26Z</time>
      </trkpt>
      <trkpt lat="45.61564" lon="6.51918">
        <ele>2102</ele>
        <time>2025-02-20T12:25:27Z</time>
      </trkpt>
      <trkpt lat="45.61564" lon="6.51918">
        <ele>2102.2</ele>
        <time>2025-02-20T12:25:28Z</time>
      </trkpt>
      <trkpt lat="45.61564" lon="6.51918">
        <ele>2102.2</ele>
        <time>2025-02-20T12:25:29Z</time>
      </trkpt>
      <trkpt lat="45.61564" lon="6.51918">
        <ele>2102.2</ele>
        <time>2025-02-20T12:25:30Z</time>
      </trkpt>
      <trkpt lat="45.61564" lon="6.51918">
        <ele>2102.2</ele>
        <time>2025-02-20T12:25:31Z</time>
      </trkpt>
      <trkpt lat="45.61564" lon="6.51918">
        <ele>2102.2</ele>
        <time>2025-02-20T12:25:32Z</time>
      </trkpt>
      <trkpt lat="45.61564" lon="6.51918">
        <ele>2102.2</ele>
        <time>2025-02-20T12:25:33Z</time>
      </trkpt>
      <trkpt lat="45.61564" lon="6.51918">
        <ele>2102.2</ele>
        <time>2025-02-20T12:25:34Z</time>
      </trkpt>
      <trkpt lat="45.61564" lon="6.51918">
        <ele>2102.2</ele>
        <time>2025-02-20T12:25:35Z</time>
      </trkpt>
      <trkpt lat="45.61564" lon="6.51918">
        <ele>2102.2</ele>
        <time>2025-02-20T12:25:36Z</time>
      </trkpt>
      <trkpt lat="45.61564" lon="6.51918">
        <ele>2102.4</ele>
        <time>2025-02-20T12:25:37Z</time>
      </trkpt>
      <trkpt lat="45.61564" lon="6.51918">
        <ele>2102.4</ele>
        <time>2025-02-20T12:25:38Z</time>
      </trkpt>
      <trkpt lat="45.61564" lon="6.51918">
        <ele>2102.4</ele>
        <time>2025-02-20T12:25:39Z</time>
      </trkpt>
      <trkpt lat="45.61564" lon="6.51918">
        <ele>2102.4</ele>
        <time>2025-02-20T12:25:40Z</time>
      </trkpt>
      <trkpt lat="45.61564" lon="6.51918">
        <ele>2102.6</ele>
        <time>2025-02-20T12:25:41Z</time>
      </trkpt>
      <trkpt lat="45.61564" lon="6.51918">
        <ele>2102.6</ele>
        <time>2025-02-20T12:25:42Z</time>
      </trkpt>
      <trkpt lat="45.61564" lon="6.51918">
        <ele>2102.6</ele>
        <time>2025-02-20T12:25:43Z</time>
      </trkpt>
      <trkpt lat="45.61564" lon="6.51918">
        <ele>2102.6</ele>
        <time>2025-02-20T12:25:44Z</time>
      </trkpt>
      <trkpt lat="45.61564" lon="6.51918">
        <ele>2102.4</ele>
        <time>2025-02-20T12:25:45Z</time>
      </trkpt>
      <trkpt lat="45.61564" lon="6.51918">
        <ele>2102.4</ele>
        <time>2025-02-20T12:25:46Z</time>
      </trkpt>
      <trkpt lat="45.61564" lon="6.51918">
        <ele>2102.4</ele>
        <time>2025-02-20T12:25:47Z</time>
      </trkpt>
      <trkpt lat="45.61564" lon="6.51918">
        <ele>2102.4</ele>
        <time>2025-02-20T12:25:48Z</time>
      </trkpt>
      <trkpt lat="45.61564" lon="6.51918">
        <ele>2102.6</ele>
        <time>2025-02-20T12:25:49Z</time>
      </trkpt>
      <trkpt lat="45.61564" lon="6.51918">
        <ele>2102.6</ele>
        <time>2025-02-20T12:25:50Z</time>
      </trkpt>
      <trkpt lat="45.61564" lon="6.51918">
        <ele>2102.6</ele>
        <time>2025-02-20T12:25:51Z</time>
      </trkpt>
      <trkpt lat="45.61564" lon="6.51918">
        <ele>2102.6</ele>
        <time>2025-02-20T12:25:52Z</time>
      </trkpt>
      <trkpt lat="45.61564" lon="6.51918">
        <ele>2102.4</ele>
        <time>2025-02-20T12:25:53Z</time>
      </trkpt>
      <trkpt lat="45.61564" lon="6.51918">
        <ele>2102.4</ele>
        <time>2025-02-20T12:25:54Z</time>
      </trkpt>
      <trkpt lat="45.61564" lon="6.51918">
        <ele>2102.4</ele>
        <time>2025-02-20T12:25:55Z</time>
      </trkpt>
      <trkpt lat="45.61564" lon="6.51918">
        <ele>2102.4</ele>
        <time>2025-02-20T12:25:56Z</time>
      </trkpt>
      <trkpt lat="45.61564" lon="6.51918">
        <ele>2102.4</ele>
        <time>2025-02-20T12:25:57Z</time>
      </trkpt>
      <trkpt lat="45.61564" lon="6.51918">
        <ele>2102.4</ele>
        <time>2025-02-20T12:25:58Z</time>
      </trkpt>
      <trkpt lat="45.61564" lon="6.51918">
        <ele>2102.4</ele>
        <time>2025-02-20T12:25:59Z</time>
      </trkpt>
      <trkpt lat="45.61564" lon="6.51918">
        <ele>2102.4</ele>
        <time>2025-02-20T12:26:00Z</time>
      </trkpt>
      <trkpt lat="45.61564" lon="6.51918">
        <ele>2102.6</ele>
        <time>2025-02-20T12:26:01Z</time>
      </trkpt>
      <trkpt lat="45.61564" lon="6.51918">
        <ele>2102.6</ele>
        <time>2025-02-20T12:26:02Z</time>
      </trkpt>
      <trkpt lat="45.61564" lon="6.51918">
        <ele>2102.6</ele>
        <time>2025-02-20T12:26:03Z</time>
      </trkpt>
      <trkpt lat="45.61564" lon="6.51918">
        <ele>2102.6</ele>
        <time>2025-02-20T12:26:04Z</time>
      </trkpt>
      <trkpt lat="45.61564" lon="6.51918">
        <ele>2102.4</ele>
        <time>2025-02-20T12:26:05Z</time>
      </trkpt>
      <trkpt lat="45.61564" lon="6.51918">
        <ele>2102.4</ele>
        <time>2025-02-20T12:26:06Z</time>
      </trkpt>
      <trkpt lat="45.61564" lon="6.51918">
        <ele>2102.4</ele>
        <time>2025-02-20T12:26:07Z</time>
      </trkpt>
      <trkpt lat="45.61564" lon="6.51918">
        <ele>2102.8</ele>
        <time>2025-02-20T12:26:08Z</time>
      </trkpt>
      <trkpt lat="45.61564" lon="6.51918">
        <ele>2102.8</ele>
        <time>2025-02-20T12:26:09Z</time>
      </trkpt>
      <trkpt lat="45.61564" lon="6.51918">
        <ele>2102.8</ele>
        <time>2025-02-20T12:26:10Z</time>
      </trkpt>
      <trkpt lat="45.61564" lon="6.51918">
        <ele>2102.8</ele>
        <time>2025-02-20T12:26:11Z</time>
      </trkpt>
      <trkpt lat="45.61564" lon="6.51918">
        <ele>2102.4</ele>
        <time>2025-02-20T12:26:12Z</time>
      </trkpt>
      <trkpt lat="45.61564" lon="6.51918">
        <ele>2102</ele>
        <time>2025-02-20T12:26:13Z</time>
      </trkpt>
      <trkpt lat="45.61564" lon="6.51918">
        <ele>2102</ele>
        <time>2025-02-20T12:26:14Z</time>
      </trkpt>
      <trkpt lat="45.61564" lon="6.51918">
        <ele>2102</ele>
        <time>2025-02-20T12:26:15Z</time>
      </trkpt>
      <trkpt lat="45.61564" lon="6.51918">
        <ele>2102.4</ele>
        <time>2025-02-20T12:26:16Z</time>
      </trkpt>
      <trkpt lat="45.61564" lon="6.51918">
        <ele>2102.2</ele>
        <time>2025-02-20T12:26:17Z</time>
      </trkpt>
      <trkpt lat="45.61564" lon="6.51918">
        <ele>2102.2</ele>
        <time>2025-02-20T12:26:18Z</time>
      </trkpt>
      <trkpt lat="45.61564" lon="6.51918">
        <ele>2102.2</ele>
        <time>2025-02-20T12:26:19Z</time>
      </trkpt>
      <trkpt lat="45.61564" lon="6.51918">
        <ele>2102.2</ele>
        <time>2025-02-20T12:26:20Z</time>
      </trkpt>
      <trkpt lat="45.61564" lon="6.51918">
        <ele>2102.4</ele>
        <time>2025-02-20T12:26:21Z</time>
      </trkpt>
      <trkpt lat="45.61564" lon="6.51918">
        <ele>2102.4</ele>
        <time>2025-02-20T12:26:22Z</time>
      </trkpt>
      <trkpt lat="45.61564" lon="6.51918">
        <ele>2102.4</ele>
        <time>2025-02-20T12:26:23Z</time>
      </trkpt>
      <trkpt lat="45.61564" lon="6.51918">
        <ele>2102.4</ele>
        <time>2025-02-20T12:26:24Z</time>
      </trkpt>
      <trkpt lat="45.61564" lon="6.51918">
        <ele>2102.4</ele>
        <time>2025-02-20T12:26:25Z</time>
      </trkpt>
      <trkpt lat="45.61564" lon="6.51918">
        <ele>2102.4</ele>
        <time>2025-02-20T12:26:26Z</time>
      </trkpt>
      <trkpt lat="45.61564" lon="6.51918">
        <ele>2102.4</ele>
        <time>2025-02-20T12:26:27Z</time>
      </trkpt>
      <trkpt lat="45.61564" lon="6.51918">
        <ele>2102.4</ele>
        <time>2025-02-20T12:26:28Z</time>
      </trkpt>
      <trkpt lat="45.61564" lon="6.51918">
        <ele>2101.4</ele>
        <time>2025-02-20T12:26:29Z</time>
      </trkpt>
      <trkpt lat="45.61564" lon="6.51918">
        <ele>2101.4</ele>
        <time>2025-02-20T12:26:30Z</time>
      </trkpt>
      <trkpt lat="45.61564" lon="6.51918">
        <ele>2101.4</ele>
        <time>2025-02-20T12:26:31Z</time>
      </trkpt>
      <trkpt lat="45.61564" lon="6.51918">
        <ele>2102</ele>
        <time>2025-02-20T12:26:32Z</time>
      </trkpt>
      <trkpt lat="45.61564" lon="6.51918">
        <ele>2102.8</ele>
        <time>2025-02-20T12:26:33Z</time>
      </trkpt>
      <trkpt lat="45.61564" lon="6.51918">
        <ele>2102.8</ele>
        <time>2025-02-20T12:26:34Z</time>
      </trkpt>
      <trkpt lat="45.61564" lon="6.51918">
        <ele>2102.8</ele>
        <time>2025-02-20T12:26:35Z</time>
      </trkpt>
      <trkpt lat="45.61564" lon="6.51918">
        <ele>2102.8</ele>
        <time>2025-02-20T12:26:36Z</time>
      </trkpt>
      <trkpt lat="45.61564" lon="6.51918">
        <ele>2102.6</ele>
        <time>2025-02-20T12:26:37Z</time>
      </trkpt>
      <trkpt lat="45.61564" lon="6.51918">
        <ele>2102.6</ele>
        <time>2025-02-20T12:26:38Z</time>
      </trkpt>
      <trkpt lat="45.61564" lon="6.51918">
        <ele>2102.6</ele>
        <time>2025-02-20T12:26:39Z</time>
      </trkpt>
      <trkpt lat="45.61564" lon="6.51918">
        <ele>2102.6</ele>
        <time>2025-02-20T12:26:40Z</time>
      </trkpt>
      <trkpt lat="45.61564" lon="6.51918">
        <ele>2102.8</ele>
        <time>2025-02-20T12:26:41Z</time>
      </trkpt>
      <trkpt lat="45.61564" lon="6.51918">
        <ele>2102.8</ele>
        <time>2025-02-20T12:26:42Z</time>
      </trkpt>
      <trkpt lat="45.61564" lon="6.51918">
        <ele>2102.8</ele>
        <time>2025-02-20T12:26:43Z</time>
      </trkpt>
      <trkpt lat="45.61564" lon="6.51918">
        <ele>2102.8</ele>
        <time>2025-02-20T12:26:44Z</time>
      </trkpt>
      <trkpt lat="45.61564" lon="6.51918">
        <ele>2102.6</ele>
        <time>2025-02-20T12:26:45Z</time>
      </trkpt>
      <trkpt lat="45.61564" lon="6.51918">
        <ele>2102.6</ele>
        <time>2025-02-20T12:26:46Z</time>
      </trkpt>
      <trkpt lat="45.61564" lon="6.51918">
        <ele>2102.6</ele>
        <time>2025-02-20T12:26:47Z</time>
      </trkpt>
      <trkpt lat="45.61564" lon="6.51918">
        <ele>2102.6</ele>
        <time>2025-02-20T12:26:48Z</time>
      </trkpt>
      <trkpt lat="45.61559" lon="6.51922">
        <ele>2102.8</ele>
        <time>2025-02-20T12:26:49Z</time>
      </trkpt>
      <trkpt lat="45.61558" lon="6.51922">
        <ele>2102.8</ele>
        <time>2025-02-20T12:26:50Z</time>
      </trkpt>
      <trkpt lat="45.61558" lon="6.51923">
        <ele>2102.8</ele>
        <time>2025-02-20T12:26:51Z</time>
      </trkpt>
      <trkpt lat="45.61557" lon="6.51924">
        <ele>2102.8</ele>
        <time>2025-02-20T12:26:52Z</time>
      </trkpt>
      <trkpt lat="45.61557" lon="6.51924">
        <ele>2103</ele>
        <time>2025-02-20T12:26:53Z</time>
      </trkpt>
      <trkpt lat="45.61556" lon="6.51924">
        <ele>2103</ele>
        <time>2025-02-20T12:26:54Z</time>
      </trkpt>
      <trkpt lat="45.61556" lon="6.51925">
        <ele>2103</ele>
        <time>2025-02-20T12:26:55Z</time>
      </trkpt>
      <trkpt lat="45.61555" lon="6.51925">
        <ele>2103</ele>
        <time>2025-02-20T12:26:56Z</time>
      </trkpt>
      <trkpt lat="45.61555" lon="6.51925">
        <ele>2103</ele>
        <time>2025-02-20T12:26:57Z</time>
      </trkpt>
      <trkpt lat="45.61555" lon="6.51926">
        <ele>2103</ele>
        <time>2025-02-20T12:26:58Z</time>
      </trkpt>
      <trkpt lat="45.61555" lon="6.51926">
        <ele>2103</ele>
        <time>2025-02-20T12:26:59Z</time>
      </trkpt>
      <trkpt lat="45.61555" lon="6.51926">
        <ele>2104</ele>
        <time>2025-02-20T12:27:00Z</time>
      </trkpt>
      <trkpt lat="45.61555" lon="6.51926">
        <ele>2104.8</ele>
        <time>2025-02-20T12:27:01Z</time>
      </trkpt>
      <trkpt lat="45.61555" lon="6.51926">
        <ele>2104.8</ele>
        <time>2025-02-20T12:27:02Z</time>
      </trkpt>
      <trkpt lat="45.61554" lon="6.51928">
        <ele>2104.8</ele>
        <time>2025-02-20T12:27:03Z</time>
      </trkpt>
      <trkpt lat="45.61554" lon="6.51928">
        <ele>2104.8</ele>
        <time>2025-02-20T12:27:04Z</time>
      </trkpt>
      <trkpt lat="45.61554" lon="6.51928">
        <ele>2104.4</ele>
        <time>2025-02-20T12:27:05Z</time>
      </trkpt>
      <trkpt lat="45.61554" lon="6.51929">
        <ele>2104.4</ele>
        <time>2025-02-20T12:27:06Z</time>
      </trkpt>
      <trkpt lat="45.61554" lon="6.51929">
        <ele>2104.4</ele>
        <time>2025-02-20T12:27:07Z</time>
      </trkpt>
      <trkpt lat="45.61554" lon="6.51929">
        <ele>2105.2</ele>
        <time>2025-02-20T12:27:08Z</time>
      </trkpt>
      <trkpt lat="45.61554" lon="6.51929">
        <ele>2105.8</ele>
        <time>2025-02-20T12:27:09Z</time>
      </trkpt>
      <trkpt lat="45.61554" lon="6.51929">
        <ele>2105.8</ele>
        <time>2025-02-20T12:27:10Z</time>
      </trkpt>
      <trkpt lat="45.61554" lon="6.51929">
        <ele>2105.8</ele>
        <time>2025-02-20T12:27:11Z</time>
      </trkpt>
      <trkpt lat="45.61552" lon="6.51931">
        <ele>2105.8</ele>
        <time>2025-02-20T12:27:12Z</time>
      </trkpt>
      <trkpt lat="45.61551" lon="6.51931">
        <ele>2105.2</ele>
        <time>2025-02-20T12:27:13Z</time>
      </trkpt>
      <trkpt lat="45.61551" lon="6.51932">
        <ele>2105.2</ele>
        <time>2025-02-20T12:27:14Z</time>
      </trkpt>
      <trkpt lat="45.6155" lon="6.51932">
        <ele>2105.2</ele>
        <time>2025-02-20T12:27:15Z</time>
      </trkpt>
      <trkpt lat="45.6155" lon="6.51932">
        <ele>2105.2</ele>
        <time>2025-02-20T12:27:16Z</time>
      </trkpt>
      <trkpt lat="45.6155" lon="6.51932">
        <ele>2106.4</ele>
        <time>2025-02-20T12:27:17Z</time>
      </trkpt>
      <trkpt lat="45.6155" lon="6.51932">
        <ele>2106.4</ele>
        <time>2025-02-20T12:27:18Z</time>
      </trkpt>
      <trkpt lat="45.6155" lon="6.51932">
        <ele>2106.4</ele>
        <time>2025-02-20T12:27:19Z</time>
      </trkpt>
      <trkpt lat="45.6155" lon="6.51932">
        <ele>2107.4</ele>
        <time>2025-02-20T12:27:20Z</time>
      </trkpt>
      <trkpt lat="45.6155" lon="6.51932">
        <ele>2107.2</ele>
        <time>2025-02-20T12:27:21Z</time>
      </trkpt>
      <trkpt lat="45.6155" lon="6.51932">
        <ele>2107.2</ele>
        <time>2025-02-20T12:27:22Z</time>
      </trkpt>
      <trkpt lat="45.6155" lon="6.51932">
        <ele>2107.2</ele>
        <time>2025-02-20T12:27:23Z</time>
      </trkpt>
      <trkpt lat="45.6155" lon="6.51932">
        <ele>2107</ele>
        <time>2025-02-20T12:27:24Z</time>
      </trkpt>
      <trkpt lat="45.6155" lon="6.51932">
        <ele>2106.8</ele>
        <time>2025-02-20T12:27:25Z</time>
      </trkpt>
      <trkpt lat="45.6155" lon="6.51932">
        <ele>2106.8</ele>
        <time>2025-02-20T12:27:26Z</time>
      </trkpt>
      <trkpt lat="45.6155" lon="6.51932">
        <ele>2106.8</ele>
        <time>2025-02-20T12:27:27Z</time>
      </trkpt>
      <trkpt lat="45.6155" lon="6.51932">
        <ele>2106.8</ele>
        <time>2025-02-20T12:27:28Z</time>
      </trkpt>
      <trkpt lat="45.61547" lon="6.51938">
        <ele>2107.8</ele>
        <time>2025-02-20T12:27:29Z</time>
      </trkpt>
      <trkpt lat="45.61547" lon="6.51938">
        <ele>2107.8</ele>
        <time>2025-02-20T12:27:30Z</time>
      </trkpt>
      <trkpt lat="45.61547" lon="6.51938">
        <ele>2107.8</ele>
        <time>2025-02-20T12:27:31Z</time>
      </trkpt>
      <trkpt lat="45.61547" lon="6.51939">
        <ele>2107.8</ele>
        <time>2025-02-20T12:27:32Z</time>
      </trkpt>
      <trkpt lat="45.61547" lon="6.51939">
        <ele>2108</ele>
        <time>2025-02-20T12:27:33Z</time>
      </trkpt>
      <trkpt lat="45.61547" lon="6.51939">
        <ele>2108</ele>
        <time>2025-02-20T12:27:34Z</time>
      </trkpt>
      <trkpt lat="45.61547" lon="6.51939">
        <ele>2108</ele>
        <time>2025-02-20T12:27:35Z</time>
      </trkpt>
      <trkpt lat="45.61547" lon="6.51939">
        <ele>2109</ele>
        <time>2025-02-20T12:27:36Z</time>
      </trkpt>
      <trkpt lat="45.61547" lon="6.51939">
        <ele>2109.4</ele>
        <time>2025-02-20T12:27:37Z</time>
      </trkpt>
      <trkpt lat="45.61546" lon="6.5194">
        <ele>2109.4</ele>
        <time>2025-02-20T12:27:38Z</time>
      </trkpt>
      <trkpt lat="45.61546" lon="6.5194">
        <ele>2109.4</ele>
        <time>2025-02-20T12:27:39Z</time>
      </trkpt>
      <trkpt lat="45.61546" lon="6.5194">
        <ele>2108.8</ele>
        <time>2025-02-20T12:27:40Z</time>
      </trkpt>
      <trkpt lat="45.61546" lon="6.5194">
        <ele>2109.4</ele>
        <time>2025-02-20T12:27:41Z</time>
      </trkpt>
      <trkpt lat="45.61546" lon="6.5194">
        <ele>2109.4</ele>
        <time>2025-02-20T12:27:42Z</time>
      </trkpt>
      <trkpt lat="45.61544" lon="6.51938">
        <ele>2109.4</ele>
        <time>2025-02-20T12:27:43Z</time>
      </trkpt>
      <trkpt lat="45.61544" lon="6.51938">
        <ele>2110.4</ele>
        <time>2025-02-20T12:27:44Z</time>
      </trkpt>
      <trkpt lat="45.61544" lon="6.51936">
        <ele>2110.2</ele>
        <time>2025-02-20T12:27:45Z</time>
      </trkpt>
      <trkpt lat="45.61544" lon="6.51935">
        <ele>2110.2</ele>
        <time>2025-02-20T12:27:46Z</time>
      </trkpt>
      <trkpt lat="45.61544" lon="6.51934">
        <ele>2110.2</ele>
        <time>2025-02-20T12:27:47Z</time>
      </trkpt>
      <trkpt lat="45.61544" lon="6.51933">
        <ele>2110.2</ele>
        <time>2025-02-20T12:27:48Z</time>
      </trkpt>
      <trkpt lat="45.61543" lon="6.51932">
        <ele>2110.8</ele>
        <time>2025-02-20T12:27:49Z</time>
      </trkpt>
      <trkpt lat="45.61543" lon="6.51931">
        <ele>2110.8</ele>
        <time>2025-02-20T12:27:50Z</time>
      </trkpt>
      <trkpt lat="45.61543" lon="6.5193">
        <ele>2110.8</ele>
        <time>2025-02-20T12:27:51Z</time>
      </trkpt>
      <trkpt lat="45.61543" lon="6.5193">
        <ele>2110.8</ele>
        <time>2025-02-20T12:27:52Z</time>
      </trkpt>
      <trkpt lat="45.61543" lon="6.51928">
        <ele>2111.4</ele>
        <time>2025-02-20T12:27:53Z</time>
      </trkpt>
      <trkpt lat="45.61542" lon="6.51927">
        <ele>2111.4</ele>
        <time>2025-02-20T12:27:54Z</time>
      </trkpt>
      <trkpt lat="45.61542" lon="6.51927">
        <ele>2111.4</ele>
        <time>2025-02-20T12:27:55Z</time>
      </trkpt>
      <trkpt lat="45.61542" lon="6.51927">
        <ele>2111.4</ele>
        <time>2025-02-20T12:27:56Z</time>
      </trkpt>
      <trkpt lat="45.61542" lon="6.51927">
        <ele>2111.2</ele>
        <time>2025-02-20T12:27:57Z</time>
      </trkpt>
      <trkpt lat="45.61542" lon="6.51924">
        <ele>2111.2</ele>
        <time>2025-02-20T12:27:58Z</time>
      </trkpt>
      <trkpt lat="45.61542" lon="6.51924">
        <ele>2111.2</ele>
        <time>2025-02-20T12:27:59Z</time>
      </trkpt>
      <trkpt lat="45.61542" lon="6.51923">
        <ele>2111.2</ele>
        <time>2025-02-20T12:28:00Z</time>
      </trkpt>
      <trkpt lat="45.61542" lon="6.51923">
        <ele>2110.6</ele>
        <time>2025-02-20T12:28:01Z</time>
      </trkpt>
      <trkpt lat="45.61542" lon="6.51923">
        <ele>2110.6</ele>
        <time>2025-02-20T12:28:02Z</time>
      </trkpt>
      <trkpt lat="45.61542" lon="6.51923">
        <ele>2110.6</ele>
        <time>2025-02-20T12:28:03Z</time>
      </trkpt>
      <trkpt lat="45.61542" lon="6.51923">
        <ele>2111.6</ele>
        <time>2025-02-20T12:28:04Z</time>
      </trkpt>
      <trkpt lat="45.61542" lon="6.51923">
        <ele>2111.6</ele>
        <time>2025-02-20T12:28:05Z</time>
      </trkpt>
      <trkpt lat="45.61542" lon="6.51923">
        <ele>2111.6</ele>
        <time>2025-02-20T12:28:06Z</time>
      </trkpt>
      <trkpt lat="45.61542" lon="6.5192">
        <ele>2111.6</ele>
        <time>2025-02-20T12:28:07Z</time>
      </trkpt>
      <trkpt lat="45.61541" lon="6.51919">
        <ele>2111.6</ele>
        <time>2025-02-20T12:28:08Z</time>
      </trkpt>
      <trkpt lat="45.61541" lon="6.51919">
        <ele>2112.4</ele>
        <time>2025-02-20T12:28:09Z</time>
      </trkpt>
      <trkpt lat="45.61541" lon="6.51919">
        <ele>2112.4</ele>
        <time>2025-02-20T12:28:10Z</time>
      </trkpt>
      <trkpt lat="45.6154" lon="6.51917">
        <ele>2112.4</ele>
        <time>2025-02-20T12:28:11Z</time>
      </trkpt>
      <trkpt lat="45.6154" lon="6.51917">
        <ele>2112.4</ele>
        <time>2025-02-20T12:28:12Z</time>
      </trkpt>
      <trkpt lat="45.6154" lon="6.51917">
        <ele>2112.2</ele>
        <time>2025-02-20T12:28:13Z</time>
      </trkpt>
      <trkpt lat="45.6154" lon="6.51917">
        <ele>2112.2</ele>
        <time>2025-02-20T12:28:14Z</time>
      </trkpt>
      <trkpt lat="45.6154" lon="6.51917">
        <ele>2112.2</ele>
        <time>2025-02-20T12:28:15Z</time>
      </trkpt>
      <trkpt lat="45.6154" lon="6.51917">
        <ele>2113.2</ele>
        <time>2025-02-20T12:28:16Z</time>
      </trkpt>
      <trkpt lat="45.6154" lon="6.51917">
        <ele>2113.8</ele>
        <time>2025-02-20T12:28:17Z</time>
      </trkpt>
      <trkpt lat="45.6154" lon="6.51917">
        <ele>2113.8</ele>
        <time>2025-02-20T12:28:18Z</time>
      </trkpt>
      <trkpt lat="45.6154" lon="6.51917">
        <ele>2113.8</ele>
        <time>2025-02-20T12:28:19Z</time>
      </trkpt>
      <trkpt lat="45.6154" lon="6.51917">
        <ele>2113.8</ele>
        <time>2025-02-20T12:28:20Z</time>
      </trkpt>
      <trkpt lat="45.6154" lon="6.51913">
        <ele>2114.2</ele>
        <time>2025-02-20T12:28:21Z</time>
      </trkpt>
      <trkpt lat="45.6154" lon="6.51912">
        <ele>2114.2</ele>
        <time>2025-02-20T12:28:22Z</time>
      </trkpt>
      <trkpt lat="45.6154" lon="6.51912">
        <ele>2114.2</ele>
        <time>2025-02-20T12:28:23Z</time>
      </trkpt>
      <trkpt lat="45.6154" lon="6.51912">
        <ele>2114.2</ele>
        <time>2025-02-20T12:28:24Z</time>
      </trkpt>
      <trkpt lat="45.6154" lon="6.51912">
        <ele>2114.2</ele>
        <time>2025-02-20T12:28:25Z</time>
      </trkpt>
      <trkpt lat="45.6154" lon="6.51912">
        <ele>2114.2</ele>
        <time>2025-02-20T12:28:26Z</time>
      </trkpt>
      <trkpt lat="45.6154" lon="6.51912">
        <ele>2114.2</ele>
        <time>2025-02-20T12:28:27Z</time>
      </trkpt>
      <trkpt lat="45.6154" lon="6.51912">
        <ele>2114.2</ele>
        <time>2025-02-20T12:28:28Z</time>
      </trkpt>
      <trkpt lat="45.6154" lon="6.51912">
        <ele>2115.2</ele>
        <time>2025-02-20T12:28:29Z</time>
      </trkpt>
      <trkpt lat="45.6154" lon="6.51912">
        <ele>2115.2</ele>
        <time>2025-02-20T12:28:30Z</time>
      </trkpt>
      <trkpt lat="45.6154" lon="6.51912">
        <ele>2115.2</ele>
        <time>2025-02-20T12:28:31Z</time>
      </trkpt>
      <trkpt lat="45.6154" lon="6.51912">
        <ele>2114.8</ele>
        <time>2025-02-20T12:28:32Z</time>
      </trkpt>
      <trkpt lat="45.6154" lon="6.51912">
        <ele>2114.6</ele>
        <time>2025-02-20T12:28:33Z</time>
      </trkpt>
      <trkpt lat="45.61536" lon="6.51906">
        <ele>2114.6</ele>
        <time>2025-02-20T12:28:34Z</time>
      </trkpt>
      <trkpt lat="45.61536" lon="6.51907">
        <ele>2114.6</ele>
        <time>2025-02-20T12:28:35Z</time>
      </trkpt>
      <trkpt lat="45.61535" lon="6.51907">
        <ele>2115.6</ele>
        <time>2025-02-20T12:28:36Z</time>
      </trkpt>
      <trkpt lat="45.61535" lon="6.51907">
        <ele>2116</ele>
        <time>2025-02-20T12:28:37Z</time>
      </trkpt>
      <trkpt lat="45.61535" lon="6.51907">
        <ele>2116</ele>
        <time>2025-02-20T12:28:38Z</time>
      </trkpt>
      <trkpt lat="45.61535" lon="6.51907">
        <ele>2116</ele>
        <time>2025-02-20T12:28:39Z</time>
      </trkpt>
      <trkpt lat="45.61535" lon="6.51907">
        <ele>2116</ele>
        <time>2025-02-20T12:28:40Z</time>
      </trkpt>
      <trkpt lat="45.61533" lon="6.5191">
        <ele>2116</ele>
        <time>2025-02-20T12:28:41Z</time>
      </trkpt>
      <trkpt lat="45.61533" lon="6.5191">
        <ele>2116</ele>
        <time>2025-02-20T12:28:42Z</time>
      </trkpt>
      <trkpt lat="45.61532" lon="6.5191">
        <ele>2116</ele>
        <time>2025-02-20T12:28:43Z</time>
      </trkpt>
      <trkpt lat="45.61532" lon="6.51911">
        <ele>2116</ele>
        <time>2025-02-20T12:28:44Z</time>
      </trkpt>
      <trkpt lat="45.61532" lon="6.51911">
        <ele>2117</ele>
        <time>2025-02-20T12:28:45Z</time>
      </trkpt>
      <trkpt lat="45.61532" lon="6.51911">
        <ele>2117</ele>
        <time>2025-02-20T12:28:46Z</time>
      </trkpt>
      <trkpt lat="45.61532" lon="6.51911">
        <ele>2117</ele>
        <time>2025-02-20T12:28:47Z</time>
      </trkpt>
      <trkpt lat="45.61532" lon="6.51911">
        <ele>2116.2</ele>
        <time>2025-02-20T12:28:48Z</time>
      </trkpt>
      <trkpt lat="45.61532" lon="6.51911">
        <ele>2116.8</ele>
        <time>2025-02-20T12:28:49Z</time>
      </trkpt>
      <trkpt lat="45.61532" lon="6.51911">
        <ele>2116.8</ele>
        <time>2025-02-20T12:28:50Z</time>
      </trkpt>
      <trkpt lat="45.61532" lon="6.51911">
        <ele>2116.8</ele>
        <time>2025-02-20T12:28:51Z</time>
      </trkpt>
      <trkpt lat="45.61532" lon="6.51911">
        <ele>2117.6</ele>
        <time>2025-02-20T12:28:52Z</time>
      </trkpt>
      <trkpt lat="45.6153" lon="6.51913">
        <ele>2117</ele>
        <time>2025-02-20T12:28:53Z</time>
      </trkpt>
      <trkpt lat="45.6153" lon="6.51914">
        <ele>2117</ele>
        <time>2025-02-20T12:28:54Z</time>
      </trkpt>
      <trkpt lat="45.6153" lon="6.51914">
        <ele>2117</ele>
        <time>2025-02-20T12:28:55Z</time>
      </trkpt>
      <trkpt lat="45.6153" lon="6.51914">
        <ele>2117</ele>
        <time>2025-02-20T12:28:56Z</time>
      </trkpt>
      <trkpt lat="45.6153" lon="6.51914">
        <ele>2118.8</ele>
        <time>2025-02-20T12:28:57Z</time>
      </trkpt>
      <trkpt lat="45.6153" lon="6.51914">
        <ele>2118.8</ele>
        <time>2025-02-20T12:28:58Z</time>
      </trkpt>
      <trkpt lat="45.6153" lon="6.51914">
        <ele>2118.8</ele>
        <time>2025-02-20T12:28:59Z</time>
      </trkpt>
      <trkpt lat="45.6153" lon="6.51914">
        <ele>2118.8</ele>
        <time>2025-02-20T12:29:00Z</time>
      </trkpt>
      <trkpt lat="45.6153" lon="6.51914">
        <ele>2118.2</ele>
        <time>2025-02-20T12:29:01Z</time>
      </trkpt>
      <trkpt lat="45.6153" lon="6.51914">
        <ele>2118.2</ele>
        <time>2025-02-20T12:29:02Z</time>
      </trkpt>
      <trkpt lat="45.6153" lon="6.51914">
        <ele>2118.2</ele>
        <time>2025-02-20T12:29:03Z</time>
      </trkpt>
      <trkpt lat="45.61528" lon="6.51908">
        <ele>2119.2</ele>
        <time>2025-02-20T12:29:04Z</time>
      </trkpt>
      <trkpt lat="45.61528" lon="6.51907">
        <ele>2119</ele>
        <time>2025-02-20T12:29:05Z</time>
      </trkpt>
      <trkpt lat="45.61528" lon="6.51907">
        <ele>2119</ele>
        <time>2025-02-20T12:29:06Z</time>
      </trkpt>
      <trkpt lat="45.61528" lon="6.51907">
        <ele>2119</ele>
        <time>2025-02-20T12:29:07Z</time>
      </trkpt>
      <trkpt lat="45.61528" lon="6.51907">
        <ele>2119.8</ele>
        <time>2025-02-20T12:29:08Z</time>
      </trkpt>
      <trkpt lat="45.61528" lon="6.51902">
        <ele>2119.6</ele>
        <time>2025-02-20T12:29:09Z</time>
      </trkpt>
      <trkpt lat="45.61528" lon="6.51901">
        <ele>2119.6</ele>
        <time>2025-02-20T12:29:10Z</time>
      </trkpt>
      <trkpt lat="45.61528" lon="6.519">
        <ele>2119.6</ele>
        <time>2025-02-20T12:29:11Z</time>
      </trkpt>
      <trkpt lat="45.61527" lon="6.519">
        <ele>2119.6</ele>
        <time>2025-02-20T12:29:12Z</time>
      </trkpt>
      <trkpt lat="45.61527" lon="6.519">
        <ele>2119.8</ele>
        <time>2025-02-20T12:29:13Z</time>
      </trkpt>
      <trkpt lat="45.61527" lon="6.519">
        <ele>2119.8</ele>
        <time>2025-02-20T12:29:14Z</time>
      </trkpt>
      <trkpt lat="45.61527" lon="6.519">
        <ele>2119.8</ele>
        <time>2025-02-20T12:29:15Z</time>
      </trkpt>
      <trkpt lat="45.61527" lon="6.519">
        <ele>2119.8</ele>
        <time>2025-02-20T12:29:16Z</time>
      </trkpt>
      <trkpt lat="45.61527" lon="6.519">
        <ele>2120.6</ele>
        <time>2025-02-20T12:29:17Z</time>
      </trkpt>
      <trkpt lat="45.61527" lon="6.519">
        <ele>2120.6</ele>
        <time>2025-02-20T12:29:18Z</time>
      </trkpt>
      <trkpt lat="45.61527" lon="6.519">
        <ele>2120.6</ele>
        <time>2025-02-20T12:29:19Z</time>
      </trkpt>
      <trkpt lat="45.61527" lon="6.51896">
        <ele>2120.6</ele>
        <time>2025-02-20T12:29:20Z</time>
      </trkpt>
      <trkpt lat="45.61527" lon="6.51895">
        <ele>2121</ele>
        <time>2025-02-20T12:29:21Z</time>
      </trkpt>
      <trkpt lat="45.61526" lon="6.51894">
        <ele>2121</ele>
        <time>2025-02-20T12:29:22Z</time>
      </trkpt>
      <trkpt lat="45.61526" lon="6.51894">
        <ele>2121</ele>
        <time>2025-02-20T12:29:23Z</time>
      </trkpt>
      <trkpt lat="45.61526" lon="6.51894">
        <ele>2121</ele>
        <time>2025-02-20T12:29:24Z</time>
      </trkpt>
      <trkpt lat="45.61526" lon="6.51894">
        <ele>2120.8</ele>
        <time>2025-02-20T12:29:25Z</time>
      </trkpt>
      <trkpt lat="45.61526" lon="6.51894">
        <ele>2120.8</ele>
        <time>2025-02-20T12:29:26Z</time>
      </trkpt>
      <trkpt lat="45.61525" lon="6.51892">
        <ele>2120.8</ele>
        <time>2025-02-20T12:29:27Z</time>
      </trkpt>
      <trkpt lat="45.61524" lon="6.51891">
        <ele>2121.8</ele>
        <time>2025-02-20T12:29:28Z</time>
      </trkpt>
      <trkpt lat="45.61524" lon="6.51891">
        <ele>2122.6</ele>
        <time>2025-02-20T12:29:29Z</time>
      </trkpt>
      <trkpt lat="45.61523" lon="6.51891">
        <ele>2122.6</ele>
        <time>2025-02-20T12:29:30Z</time>
      </trkpt>
      <trkpt lat="45.61522" lon="6.5189">
        <ele>2122.6</ele>
        <time>2025-02-20T12:29:31Z</time>
      </trkpt>
      <trkpt lat="45.61521" lon="6.51891">
        <ele>2122.6</ele>
        <time>2025-02-20T12:29:32Z</time>
      </trkpt>
      <trkpt lat="45.61521" lon="6.51891">
        <ele>2122.4</ele>
        <time>2025-02-20T12:29:33Z</time>
      </trkpt>
      <trkpt lat="45.6152" lon="6.51891">
        <ele>2122.4</ele>
        <time>2025-02-20T12:29:34Z</time>
      </trkpt>
      <trkpt lat="45.61519" lon="6.51892">
        <ele>2122.4</ele>
        <time>2025-02-20T12:29:35Z</time>
      </trkpt>
      <trkpt lat="45.61519" lon="6.51892">
        <ele>2123.4</ele>
        <time>2025-02-20T12:29:36Z</time>
      </trkpt>
      <trkpt lat="45.61518" lon="6.51892">
        <ele>2123.2</ele>
        <time>2025-02-20T12:29:37Z</time>
      </trkpt>
      <trkpt lat="45.61518" lon="6.51893">
        <ele>2123.2</ele>
        <time>2025-02-20T12:29:38Z</time>
      </trkpt>
      <trkpt lat="45.61518" lon="6.51893">
        <ele>2123.2</ele>
        <time>2025-02-20T12:29:39Z</time>
      </trkpt>
      <trkpt lat="45.61518" lon="6.51893">
        <ele>2123.2</ele>
        <time>2025-02-20T12:29:40Z</time>
      </trkpt>
      <trkpt lat="45.61517" lon="6.51894">
        <ele>2122.6</ele>
        <time>2025-02-20T12:29:41Z</time>
      </trkpt>
      <trkpt lat="45.61517" lon="6.51894">
        <ele>2122.6</ele>
        <time>2025-02-20T12:29:42Z</time>
      </trkpt>
      <trkpt lat="45.61515" lon="6.51893">
        <ele>2122.6</ele>
        <time>2025-02-20T12:29:43Z</time>
      </trkpt>
      <trkpt lat="45.61515" lon="6.51894">
        <ele>2122.8</ele>
        <time>2025-02-20T12:29:44Z</time>
      </trkpt>
      <trkpt lat="45.61514" lon="6.51894">
        <ele>2123</ele>
        <time>2025-02-20T12:29:45Z</time>
      </trkpt>
      <trkpt lat="45.61514" lon="6.51894">
        <ele>2123</ele>
        <time>2025-02-20T12:29:46Z</time>
      </trkpt>
      <trkpt lat="45.61514" lon="6.51894">
        <ele>2123</ele>
        <time>2025-02-20T12:29:47Z</time>
      </trkpt>
      <trkpt lat="45.61514" lon="6.51894">
        <ele>2123.8</ele>
        <time>2025-02-20T12:29:48Z</time>
      </trkpt>
      <trkpt lat="45.61514" lon="6.51894">
        <ele>2124</ele>
        <time>2025-02-20T12:29:49Z</time>
      </trkpt>
      <trkpt lat="45.61514" lon="6.51894">
        <ele>2124</ele>
        <time>2025-02-20T12:29:50Z</time>
      </trkpt>
      <trkpt lat="45.61514" lon="6.51894">
        <ele>2124</ele>
        <time>2025-02-20T12:29:51Z</time>
      </trkpt>
      <trkpt lat="45.61514" lon="6.51894">
        <ele>2124</ele>
        <time>2025-02-20T12:29:52Z</time>
      </trkpt>
      <trkpt lat="45.61512" lon="6.51896">
        <ele>2124.6</ele>
        <time>2025-02-20T12:29:53Z</time>
      </trkpt>
      <trkpt lat="45.61512" lon="6.51897">
        <ele>2124.6</ele>
        <time>2025-02-20T12:29:54Z</time>
      </trkpt>
      <trkpt lat="45.61511" lon="6.51897">
        <ele>2124.6</ele>
        <time>2025-02-20T12:29:55Z</time>
      </trkpt>
      <trkpt lat="45.61511" lon="6.51897">
        <ele>2124.6</ele>
        <time>2025-02-20T12:29:56Z</time>
      </trkpt>
      <trkpt lat="45.61511" lon="6.51897">
        <ele>2125.2</ele>
        <time>2025-02-20T12:29:57Z</time>
      </trkpt>
      <trkpt lat="45.6151" lon="6.51898">
        <ele>2125.2</ele>
        <time>2025-02-20T12:29:58Z</time>
      </trkpt>
      <trkpt lat="45.6151" lon="6.51898">
        <ele>2125.2</ele>
        <time>2025-02-20T12:29:59Z</time>
      </trkpt>
      <trkpt lat="45.61509" lon="6.51899">
        <ele>2125.2</ele>
        <time>2025-02-20T12:30:00Z</time>
      </trkpt>
      <trkpt lat="45.61509" lon="6.51899">
        <ele>2124.6</ele>
        <time>2025-02-20T12:30:01Z</time>
      </trkpt>
      <trkpt lat="45.61509" lon="6.51899">
        <ele>2124.6</ele>
        <time>2025-02-20T12:30:02Z</time>
      </trkpt>
      <trkpt lat="45.61509" lon="6.51899">
        <ele>2124.6</ele>
        <time>2025-02-20T12:30:03Z</time>
      </trkpt>
      <trkpt lat="45.61509" lon="6.51899">
        <ele>2125</ele>
        <time>2025-02-20T12:30:04Z</time>
      </trkpt>
      <trkpt lat="45.61507" lon="6.519">
        <ele>2125.2</ele>
        <time>2025-02-20T12:30:05Z</time>
      </trkpt>
      <trkpt lat="45.61507" lon="6.519">
        <ele>2125.2</ele>
        <time>2025-02-20T12:30:06Z</time>
      </trkpt>
      <trkpt lat="45.61507" lon="6.519">
        <ele>2125.2</ele>
        <time>2025-02-20T12:30:07Z</time>
      </trkpt>
      <trkpt lat="45.61507" lon="6.519">
        <ele>2126</ele>
        <time>2025-02-20T12:30:08Z</time>
      </trkpt>
      <trkpt lat="45.61506" lon="6.519">
        <ele>2126.4</ele>
        <time>2025-02-20T12:30:09Z</time>
      </trkpt>
      <trkpt lat="45.61506" lon="6.519">
        <ele>2126.4</ele>
        <time>2025-02-20T12:30:10Z</time>
      </trkpt>
      <trkpt lat="45.61506" lon="6.519">
        <ele>2126.4</ele>
        <time>2025-02-20T12:30:11Z</time>
      </trkpt>
      <trkpt lat="45.61506" lon="6.519">
        <ele>2125.8</ele>
        <time>2025-02-20T12:30:12Z</time>
      </trkpt>
      <trkpt lat="45.61505" lon="6.519">
        <ele>2125.8</ele>
        <time>2025-02-20T12:30:13Z</time>
      </trkpt>
      <trkpt lat="45.61505" lon="6.51899">
        <ele>2125.8</ele>
        <time>2025-02-20T12:30:14Z</time>
      </trkpt>
      <trkpt lat="45.61505" lon="6.51899">
        <ele>2125.8</ele>
        <time>2025-02-20T12:30:15Z</time>
      </trkpt>
      <trkpt lat="45.61504" lon="6.51898">
        <ele>2125.8</ele>
        <time>2025-02-20T12:30:16Z</time>
      </trkpt>
      <trkpt lat="45.61504" lon="6.51898">
        <ele>2126.4</ele>
        <time>2025-02-20T12:30:17Z</time>
      </trkpt>
      <trkpt lat="45.61503" lon="6.51898">
        <ele>2126.4</ele>
        <time>2025-02-20T12:30:18Z</time>
      </trkpt>
      <trkpt lat="45.61503" lon="6.51897">
        <ele>2126.4</ele>
        <time>2025-02-20T12:30:19Z</time>
      </trkpt>
      <trkpt lat="45.61503" lon="6.51896">
        <ele>2127.4</ele>
        <time>2025-02-20T12:30:20Z</time>
      </trkpt>
      <trkpt lat="45.61502" lon="6.51896">
        <ele>2127</ele>
        <time>2025-02-20T12:30:21Z</time>
      </trkpt>
      <trkpt lat="45.61502" lon="6.51896">
        <ele>2127</ele>
        <time>2025-02-20T12:30:22Z</time>
      </trkpt>
      <trkpt lat="45.61502" lon="6.51896">
        <ele>2127</ele>
        <time>2025-02-20T12:30:23Z</time>
      </trkpt>
      <trkpt lat="45.61502" lon="6.51894">
        <ele>2127.6</ele>
        <time>2025-02-20T12:30:24Z</time>
      </trkpt>
      <trkpt lat="45.61501" lon="6.51894">
        <ele>2128</ele>
        <time>2025-02-20T12:30:25Z</time>
      </trkpt>
      <trkpt lat="45.61501" lon="6.51893">
        <ele>2128</ele>
        <time>2025-02-20T12:30:26Z</time>
      </trkpt>
      <trkpt lat="45.61501" lon="6.51893">
        <ele>2128</ele>
        <time>2025-02-20T12:30:27Z</time>
      </trkpt>
      <trkpt lat="45.615" lon="6.51892">
        <ele>2128</ele>
        <time>2025-02-20T12:30:28Z</time>
      </trkpt>
      <trkpt lat="45.615" lon="6.51891">
        <ele>2128</ele>
        <time>2025-02-20T12:30:29Z</time>
      </trkpt>
      <trkpt lat="45.615" lon="6.5189">
        <ele>2128</ele>
        <time>2025-02-20T12:30:30Z</time>
      </trkpt>
      <trkpt lat="45.615" lon="6.5189">
        <ele>2128</ele>
        <time>2025-02-20T12:30:31Z</time>
      </trkpt>
      <trkpt lat="45.61499" lon="6.51889">
        <ele>2128</ele>
        <time>2025-02-20T12:30:32Z</time>
      </trkpt>
      <trkpt lat="45.61499" lon="6.51888">
        <ele>2128.4</ele>
        <time>2025-02-20T12:30:33Z</time>
      </trkpt>
      <trkpt lat="45.61499" lon="6.51888">
        <ele>2128.4</ele>
        <time>2025-02-20T12:30:34Z</time>
      </trkpt>
      <trkpt lat="45.61498" lon="6.51887">
        <ele>2128.4</ele>
        <time>2025-02-20T12:30:35Z</time>
      </trkpt>
      <trkpt lat="45.61499" lon="6.51886">
        <ele>2129.2</ele>
        <time>2025-02-20T12:30:36Z</time>
      </trkpt>
      <trkpt lat="45.61498" lon="6.51885">
        <ele>2128.4</ele>
        <time>2025-02-20T12:30:37Z</time>
      </trkpt>
      <trkpt lat="45.61498" lon="6.51885">
        <ele>2128.4</ele>
        <time>2025-02-20T12:30:38Z</time>
      </trkpt>
      <trkpt lat="45.61498" lon="6.51885">
        <ele>2128.4</ele>
        <time>2025-02-20T12:30:39Z</time>
      </trkpt>
      <trkpt lat="45.61498" lon="6.51885">
        <ele>2128.4</ele>
        <time>2025-02-20T12:30:40Z</time>
      </trkpt>
      <trkpt lat="45.61498" lon="6.51885">
        <ele>2130</ele>
        <time>2025-02-20T12:30:41Z</time>
      </trkpt>
      <trkpt lat="45.61498" lon="6.51885">
        <ele>2130</ele>
        <time>2025-02-20T12:30:42Z</time>
      </trkpt>
      <trkpt lat="45.61498" lon="6.51885">
        <ele>2130</ele>
        <time>2025-02-20T12:30:43Z</time>
      </trkpt>
      <trkpt lat="45.61498" lon="6.51885">
        <ele>2130</ele>
        <time>2025-02-20T12:30:44Z</time>
      </trkpt>
      <trkpt lat="45.61498" lon="6.51885">
        <ele>2130</ele>
        <time>2025-02-20T12:30:45Z</time>
      </trkpt>
      <trkpt lat="45.61498" lon="6.5188">
        <ele>2130</ele>
        <time>2025-02-20T12:30:46Z</time>
      </trkpt>
      <trkpt lat="45.61498" lon="6.51879">
        <ele>2130</ele>
        <time>2025-02-20T12:30:47Z</time>
      </trkpt>
      <trkpt lat="45.61498" lon="6.51879">
        <ele>2130</ele>
        <time>2025-02-20T12:30:48Z</time>
      </trkpt>
      <trkpt lat="45.61498" lon="6.51879">
        <ele>2131</ele>
        <time>2025-02-20T12:30:49Z</time>
      </trkpt>
      <trkpt lat="45.61498" lon="6.51879">
        <ele>2131</ele>
        <time>2025-02-20T12:30:50Z</time>
      </trkpt>
      <trkpt lat="45.61498" lon="6.51876">
        <ele>2131</ele>
        <time>2025-02-20T12:30:51Z</time>
      </trkpt>
      <trkpt lat="45.61497" lon="6.51875">
        <ele>2131</ele>
        <time>2025-02-20T12:30:52Z</time>
      </trkpt>
      <trkpt lat="45.61497" lon="6.51874">
        <ele>2131.2</ele>
        <time>2025-02-20T12:30:53Z</time>
      </trkpt>
      <trkpt lat="45.61497" lon="6.51874">
        <ele>2131.2</ele>
        <time>2025-02-20T12:30:54Z</time>
      </trkpt>
      <trkpt lat="45.61497" lon="6.51874">
        <ele>2131.2</ele>
        <time>2025-02-20T12:30:55Z</time>
      </trkpt>
      <trkpt lat="45.61497" lon="6.51874">
        <ele>2131.2</ele>
        <time>2025-02-20T12:30:56Z</time>
      </trkpt>
      <trkpt lat="45.61497" lon="6.51874">
        <ele>2132</ele>
        <time>2025-02-20T12:30:57Z</time>
      </trkpt>
      <trkpt lat="45.61497" lon="6.51874">
        <ele>2132</ele>
        <time>2025-02-20T12:30:58Z</time>
      </trkpt>
      <trkpt lat="45.61497" lon="6.51874">
        <ele>2132</ele>
        <time>2025-02-20T12:30:59Z</time>
      </trkpt>
      <trkpt lat="45.61497" lon="6.51874">
        <ele>2131.8</ele>
        <time>2025-02-20T12:31:00Z</time>
      </trkpt>
      <trkpt lat="45.61497" lon="6.51874">
        <ele>2132</ele>
        <time>2025-02-20T12:31:01Z</time>
      </trkpt>
      <trkpt lat="45.61497" lon="6.51874">
        <ele>2132</ele>
        <time>2025-02-20T12:31:02Z</time>
      </trkpt>
      <trkpt lat="45.61497" lon="6.51874">
        <ele>2132</ele>
        <time>2025-02-20T12:31:03Z</time>
      </trkpt>
      <trkpt lat="45.61497" lon="6.51874">
        <ele>2132</ele>
        <time>2025-02-20T12:31:04Z</time>
      </trkpt>
      <trkpt lat="45.61497" lon="6.51874">
        <ele>2132</ele>
        <time>2025-02-20T12:31:05Z</time>
      </trkpt>
      <trkpt lat="45.61497" lon="6.51874">
        <ele>2132</ele>
        <time>2025-02-20T12:31:06Z</time>
      </trkpt>
      <trkpt lat="45.61497" lon="6.51874">
        <ele>2132</ele>
        <time>2025-02-20T12:31:07Z</time>
      </trkpt>
      <trkpt lat="45.61498" lon="6.51867">
        <ele>2132.8</ele>
        <time>2025-02-20T12:31:08Z</time>
      </trkpt>
      <trkpt lat="45.61498" lon="6.51866">
        <ele>2132.2</ele>
        <time>2025-02-20T12:31:09Z</time>
      </trkpt>
      <trkpt lat="45.61499" lon="6.51864">
        <ele>2132.2</ele>
        <time>2025-02-20T12:31:10Z</time>
      </trkpt>
      <trkpt lat="45.61499" lon="6.51862">
        <ele>2132.2</ele>
        <time>2025-02-20T12:31:11Z</time>
      </trkpt>
      <trkpt lat="45.61499" lon="6.51862">
        <ele>2133.2</ele>
        <time>2025-02-20T12:31:12Z</time>
      </trkpt>
      <trkpt lat="45.61499" lon="6.51862">
        <ele>2133</ele>
        <time>2025-02-20T12:31:13Z</time>
      </trkpt>
      <trkpt lat="45.61499" lon="6.51862">
        <ele>2133</ele>
        <time>2025-02-20T12:31:14Z</time>
      </trkpt>
      <trkpt lat="45.61499" lon="6.51862">
        <ele>2133</ele>
        <time>2025-02-20T12:31:15Z</time>
      </trkpt>
      <trkpt lat="45.61499" lon="6.51862">
        <ele>2133</ele>
        <time>2025-02-20T12:31:16Z</time>
      </trkpt>
      <trkpt lat="45.61499" lon="6.51862">
        <ele>2133.6</ele>
        <time>2025-02-20T12:31:17Z</time>
      </trkpt>
      <trkpt lat="45.61498" lon="6.51859">
        <ele>2133.6</ele>
        <time>2025-02-20T12:31:18Z</time>
      </trkpt>
      <trkpt lat="45.61498" lon="6.51859">
        <ele>2133.6</ele>
        <time>2025-02-20T12:31:19Z</time>
      </trkpt>
      <trkpt lat="45.61498" lon="6.51859">
        <ele>2133.6</ele>
        <time>2025-02-20T12:31:20Z</time>
      </trkpt>
      <trkpt lat="45.61498" lon="6.51857">
        <ele>2134.2</ele>
        <time>2025-02-20T12:31:21Z</time>
      </trkpt>
      <trkpt lat="45.61497" lon="6.51857">
        <ele>2134.2</ele>
        <time>2025-02-20T12:31:22Z</time>
      </trkpt>
      <trkpt lat="45.61497" lon="6.51856">
        <ele>2134.2</ele>
        <time>2025-02-20T12:31:23Z</time>
      </trkpt>
      <trkpt lat="45.61497" lon="6.51856">
        <ele>2133.8</ele>
        <time>2025-02-20T12:31:24Z</time>
      </trkpt>
      <trkpt lat="45.61497" lon="6.51856">
        <ele>2134.8</ele>
        <time>2025-02-20T12:31:25Z</time>
      </trkpt>
      <trkpt lat="45.61497" lon="6.51856">
        <ele>2134.8</ele>
        <time>2025-02-20T12:31:26Z</time>
      </trkpt>
      <trkpt lat="45.61497" lon="6.51856">
        <ele>2134.8</ele>
        <time>2025-02-20T12:31:27Z</time>
      </trkpt>
      <trkpt lat="45.61496" lon="6.51854">
        <ele>2134.8</ele>
        <time>2025-02-20T12:31:28Z</time>
      </trkpt>
      <trkpt lat="45.61495" lon="6.51854">
        <ele>2135.4</ele>
        <time>2025-02-20T12:31:29Z</time>
      </trkpt>
      <trkpt lat="45.61495" lon="6.51853">
        <ele>2135.4</ele>
        <time>2025-02-20T12:31:30Z</time>
      </trkpt>
      <trkpt lat="45.61495" lon="6.51852">
        <ele>2135.4</ele>
        <time>2025-02-20T12:31:31Z</time>
      </trkpt>
      <trkpt lat="45.61495" lon="6.51852">
        <ele>2135.4</ele>
        <time>2025-02-20T12:31:32Z</time>
      </trkpt>
      <trkpt lat="45.61494" lon="6.51851">
        <ele>2135.8</ele>
        <time>2025-02-20T12:31:33Z</time>
      </trkpt>
      <trkpt lat="45.61495" lon="6.5185">
        <ele>2135.8</ele>
        <time>2025-02-20T12:31:34Z</time>
      </trkpt>
      <trkpt lat="45.61494" lon="6.51849">
        <ele>2135.8</ele>
        <time>2025-02-20T12:31:35Z</time>
      </trkpt>
      <trkpt lat="45.61494" lon="6.51849">
        <ele>2135.8</ele>
        <time>2025-02-20T12:31:36Z</time>
      </trkpt>
      <trkpt lat="45.61494" lon="6.51849">
        <ele>2135.4</ele>
        <time>2025-02-20T12:31:37Z</time>
      </trkpt>
      <trkpt lat="45.61494" lon="6.51849">
        <ele>2135.4</ele>
        <time>2025-02-20T12:31:38Z</time>
      </trkpt>
      <trkpt lat="45.61494" lon="6.51849">
        <ele>2135.4</ele>
        <time>2025-02-20T12:31:39Z</time>
      </trkpt>
      <trkpt lat="45.61494" lon="6.51847">
        <ele>2136.4</ele>
        <time>2025-02-20T12:31:40Z</time>
      </trkpt>
      <trkpt lat="45.61493" lon="6.51847">
        <ele>2136.8</ele>
        <time>2025-02-20T12:31:41Z</time>
      </trkpt>
      <trkpt lat="45.61493" lon="6.51847">
        <ele>2136.8</ele>
        <time>2025-02-20T12:31:42Z</time>
      </trkpt>
      <trkpt lat="45.61493" lon="6.51846">
        <ele>2136.8</ele>
        <time>2025-02-20T12:31:43Z</time>
      </trkpt>
      <trkpt lat="45.61493" lon="6.51846">
        <ele>2136.4</ele>
        <time>2025-02-20T12:31:44Z</time>
      </trkpt>
      <trkpt lat="45.61493" lon="6.51846">
        <ele>2136.8</ele>
        <time>2025-02-20T12:31:45Z</time>
      </trkpt>
      <trkpt lat="45.61493" lon="6.51846">
        <ele>2136.8</ele>
        <time>2025-02-20T12:31:46Z</time>
      </trkpt>
      <trkpt lat="45.61493" lon="6.51846">
        <ele>2136.8</ele>
        <time>2025-02-20T12:31:47Z</time>
      </trkpt>
      <trkpt lat="45.61493" lon="6.51846">
        <ele>2137.8</ele>
        <time>2025-02-20T12:31:48Z</time>
      </trkpt>
      <trkpt lat="45.61493" lon="6.51846">
        <ele>2137.6</ele>
        <time>2025-02-20T12:31:49Z</time>
      </trkpt>
      <trkpt lat="45.61493" lon="6.51846">
        <ele>2137.6</ele>
        <time>2025-02-20T12:31:50Z</time>
      </trkpt>
      <trkpt lat="45.61491" lon="6.51844">
        <ele>2137.6</ele>
        <time>2025-02-20T12:31:51Z</time>
      </trkpt>
      <trkpt lat="45.61491" lon="6.51844">
        <ele>2137.6</ele>
        <time>2025-02-20T12:31:52Z</time>
      </trkpt>
      <trkpt lat="45.6149" lon="6.51843">
        <ele>2137.8</ele>
        <time>2025-02-20T12:31:53Z</time>
      </trkpt>
      <trkpt lat="45.61489" lon="6.51842">
        <ele>2137.8</ele>
        <time>2025-02-20T12:31:54Z</time>
      </trkpt>
      <trkpt lat="45.61489" lon="6.51842">
        <ele>2137.8</ele>
        <time>2025-02-20T12:31:55Z</time>
      </trkpt>
      <trkpt lat="45.61489" lon="6.51842">
        <ele>2138.6</ele>
        <time>2025-02-20T12:31:56Z</time>
      </trkpt>
      <trkpt lat="45.61488" lon="6.51841">
        <ele>2139</ele>
        <time>2025-02-20T12:31:57Z</time>
      </trkpt>
      <trkpt lat="45.61488" lon="6.51841">
        <ele>2139</ele>
        <time>2025-02-20T12:31:58Z</time>
      </trkpt>
      <trkpt lat="45.61488" lon="6.51841">
        <ele>2139</ele>
        <time>2025-02-20T12:31:59Z</time>
      </trkpt>
      <trkpt lat="45.61488" lon="6.51841">
        <ele>2139</ele>
        <time>2025-02-20T12:32:00Z</time>
      </trkpt>
      <trkpt lat="45.61487" lon="6.5184">
        <ele>2139.2</ele>
        <time>2025-02-20T12:32:01Z</time>
      </trkpt>
      <trkpt lat="45.61486" lon="6.5184">
        <ele>2139.2</ele>
        <time>2025-02-20T12:32:02Z</time>
      </trkpt>
      <trkpt lat="45.61486" lon="6.5184">
        <ele>2139.2</ele>
        <time>2025-02-20T12:32:03Z</time>
      </trkpt>
      <trkpt lat="45.61485" lon="6.51839">
        <ele>2139.2</ele>
        <time>2025-02-20T12:32:04Z</time>
      </trkpt>
      <trkpt lat="45.61485" lon="6.51838">
        <ele>2139</ele>
        <time>2025-02-20T12:32:05Z</time>
      </trkpt>
      <trkpt lat="45.61485" lon="6.51838">
        <ele>2139</ele>
        <time>2025-02-20T12:32:06Z</time>
      </trkpt>
      <trkpt lat="45.61484" lon="6.51838">
        <ele>2139</ele>
        <time>2025-02-20T12:32:07Z</time>
      </trkpt>
      <trkpt lat="45.61483" lon="6.51837">
        <ele>2139</ele>
        <time>2025-02-20T12:32:08Z</time>
      </trkpt>
      <trkpt lat="45.61482" lon="6.51837">
        <ele>2138.8</ele>
        <time>2025-02-20T12:32:09Z</time>
      </trkpt>
      <trkpt lat="45.61482" lon="6.51837">
        <ele>2138.8</ele>
        <time>2025-02-20T12:32:10Z</time>
      </trkpt>
      <trkpt lat="45.61482" lon="6.51837">
        <ele>2138.8</ele>
        <time>2025-02-20T12:32:11Z</time>
      </trkpt>
      <trkpt lat="45.61482" lon="6.51837">
        <ele>2139.8</ele>
        <time>2025-02-20T12:32:12Z</time>
      </trkpt>
      <trkpt lat="45.61482" lon="6.51837">
        <ele>2139.8</ele>
        <time>2025-02-20T12:32:13Z</time>
      </trkpt>
      <trkpt lat="45.6148" lon="6.51836">
        <ele>2139.8</ele>
        <time>2025-02-20T12:32:14Z</time>
      </trkpt>
      <trkpt lat="45.6148" lon="6.51835">
        <ele>2139.8</ele>
        <time>2025-02-20T12:32:15Z</time>
      </trkpt>
      <trkpt lat="45.61479" lon="6.51835">
        <ele>2140.6</ele>
        <time>2025-02-20T12:32:16Z</time>
      </trkpt>
      <trkpt lat="45.61479" lon="6.51835">
        <ele>2141.2</ele>
        <time>2025-02-20T12:32:17Z</time>
      </trkpt>
      <trkpt lat="45.61479" lon="6.51835">
        <ele>2141.2</ele>
        <time>2025-02-20T12:32:18Z</time>
      </trkpt>
      <trkpt lat="45.61479" lon="6.51835">
        <ele>2141.2</ele>
        <time>2025-02-20T12:32:19Z</time>
      </trkpt>
      <trkpt lat="45.61479" lon="6.51835">
        <ele>2140.6</ele>
        <time>2025-02-20T12:32:20Z</time>
      </trkpt>
      <trkpt lat="45.61477" lon="6.51835">
        <ele>2140</ele>
        <time>2025-02-20T12:32:21Z</time>
      </trkpt>
      <trkpt lat="45.61477" lon="6.51835">
        <ele>2140</ele>
        <time>2025-02-20T12:32:22Z</time>
      </trkpt>
      <trkpt lat="45.61476" lon="6.51835">
        <ele>2140</ele>
        <time>2025-02-20T12:32:23Z</time>
      </trkpt>
      <trkpt lat="45.61476" lon="6.51835">
        <ele>2140.2</ele>
        <time>2025-02-20T12:32:24Z</time>
      </trkpt>
      <trkpt lat="45.61476" lon="6.51835">
        <ele>2141.4</ele>
        <time>2025-02-20T12:32:25Z</time>
      </trkpt>
      <trkpt lat="45.61476" lon="6.51835">
        <ele>2141.4</ele>
        <time>2025-02-20T12:32:26Z</time>
      </trkpt>
      <trkpt lat="45.61474" lon="6.51834">
        <ele>2141.4</ele>
        <time>2025-02-20T12:32:27Z</time>
      </trkpt>
      <trkpt lat="45.61474" lon="6.51833">
        <ele>2141.4</ele>
        <time>2025-02-20T12:32:28Z</time>
      </trkpt>
      <trkpt lat="45.61473" lon="6.51833">
        <ele>2142.6</ele>
        <time>2025-02-20T12:32:29Z</time>
      </trkpt>
      <trkpt lat="45.61473" lon="6.51833">
        <ele>2142.6</ele>
        <time>2025-02-20T12:32:30Z</time>
      </trkpt>
      <trkpt lat="45.61472" lon="6.51832">
        <ele>2142.6</ele>
        <time>2025-02-20T12:32:31Z</time>
      </trkpt>
      <trkpt lat="45.61472" lon="6.51832">
        <ele>2142.6</ele>
        <time>2025-02-20T12:32:32Z</time>
      </trkpt>
      <trkpt lat="45.61471" lon="6.51831">
        <ele>2142.6</ele>
        <time>2025-02-20T12:32:33Z</time>
      </trkpt>
      <trkpt lat="45.61471" lon="6.51831">
        <ele>2142.6</ele>
        <time>2025-02-20T12:32:34Z</time>
      </trkpt>
      <trkpt lat="45.6147" lon="6.51831">
        <ele>2142.6</ele>
        <time>2025-02-20T12:32:35Z</time>
      </trkpt>
      <trkpt lat="45.61469" lon="6.5183">
        <ele>2142.4</ele>
        <time>2025-02-20T12:32:36Z</time>
      </trkpt>
      <trkpt lat="45.61469" lon="6.5183">
        <ele>2142.8</ele>
        <time>2025-02-20T12:32:37Z</time>
      </trkpt>
      <trkpt lat="45.61468" lon="6.5183">
        <ele>2142.8</ele>
        <time>2025-02-20T12:32:38Z</time>
      </trkpt>
      <trkpt lat="45.61468" lon="6.51829">
        <ele>2142.8</ele>
        <time>2025-02-20T12:32:39Z</time>
      </trkpt>
      <trkpt lat="45.61467" lon="6.51829">
        <ele>2142.8</ele>
        <time>2025-02-20T12:32:40Z</time>
      </trkpt>
      <trkpt lat="45.61467" lon="6.51828">
        <ele>2141.8</ele>
        <time>2025-02-20T12:32:41Z</time>
      </trkpt>
      <trkpt lat="45.61467" lon="6.51827">
        <ele>2141.8</ele>
        <time>2025-02-20T12:32:42Z</time>
      </trkpt>
      <trkpt lat="45.61465" lon="6.51827">
        <ele>2141.8</ele>
        <time>2025-02-20T12:32:43Z</time>
      </trkpt>
      <trkpt lat="45.61464" lon="6.51826">
        <ele>2142.8</ele>
        <time>2025-02-20T12:32:44Z</time>
      </trkpt>
      <trkpt lat="45.61464" lon="6.51825">
        <ele>2143.4</ele>
        <time>2025-02-20T12:32:45Z</time>
      </trkpt>
      <trkpt lat="45.61464" lon="6.51823">
        <ele>2143.4</ele>
        <time>2025-02-20T12:32:46Z</time>
      </trkpt>
      <trkpt lat="45.61463" lon="6.51822">
        <ele>2143.4</ele>
        <time>2025-02-20T12:32:47Z</time>
      </trkpt>
      <trkpt lat="45.61462" lon="6.51821">
        <ele>2143.4</ele>
        <time>2025-02-20T12:32:48Z</time>
      </trkpt>
      <trkpt lat="45.61461" lon="6.51821">
        <ele>2143.8</ele>
        <time>2025-02-20T12:32:49Z</time>
      </trkpt>
      <trkpt lat="45.6146" lon="6.5182">
        <ele>2143.8</ele>
        <time>2025-02-20T12:32:50Z</time>
      </trkpt>
      <trkpt lat="45.6146" lon="6.5182">
        <ele>2143.8</ele>
        <time>2025-02-20T12:32:51Z</time>
      </trkpt>
      <trkpt lat="45.61459" lon="6.5182">
        <ele>2142.8</ele>
        <time>2025-02-20T12:32:52Z</time>
      </trkpt>
      <trkpt lat="45.61459" lon="6.51819">
        <ele>2142</ele>
        <time>2025-02-20T12:32:53Z</time>
      </trkpt>
      <trkpt lat="45.61458" lon="6.51819">
        <ele>2142</ele>
        <time>2025-02-20T12:32:54Z</time>
      </trkpt>
      <trkpt lat="45.61457" lon="6.51818">
        <ele>2142</ele>
        <time>2025-02-20T12:32:55Z</time>
      </trkpt>
      <trkpt lat="45.61457" lon="6.51818">
        <ele>2143</ele>
        <time>2025-02-20T12:32:56Z</time>
      </trkpt>
      <trkpt lat="45.61457" lon="6.51817">
        <ele>2143</ele>
        <time>2025-02-20T12:32:57Z</time>
      </trkpt>
      <trkpt lat="45.61456" lon="6.51817">
        <ele>2143</ele>
        <time>2025-02-20T12:32:58Z</time>
      </trkpt>
      <trkpt lat="45.61455" lon="6.51816">
        <ele>2143</ele>
        <time>2025-02-20T12:32:59Z</time>
      </trkpt>
      <trkpt lat="45.61455" lon="6.51815">
        <ele>2144</ele>
        <time>2025-02-20T12:33:00Z</time>
      </trkpt>
      <trkpt lat="45.61454" lon="6.51814">
        <ele>2143.8</ele>
        <time>2025-02-20T12:33:01Z</time>
      </trkpt>
      <trkpt lat="45.61453" lon="6.51814">
        <ele>2143.8</ele>
        <time>2025-02-20T12:33:02Z</time>
      </trkpt>
      <trkpt lat="45.61452" lon="6.51813">
        <ele>2143.8</ele>
        <time>2025-02-20T12:33:03Z</time>
      </trkpt>
      <trkpt lat="45.61451" lon="6.51812">
        <ele>2142.8</ele>
        <time>2025-02-20T12:33:04Z</time>
      </trkpt>
      <trkpt lat="45.61451" lon="6.51811">
        <ele>2143.4</ele>
        <time>2025-02-20T12:33:05Z</time>
      </trkpt>
      <trkpt lat="45.6145" lon="6.51811">
        <ele>2143.4</ele>
        <time>2025-02-20T12:33:06Z</time>
      </trkpt>
      <trkpt lat="45.6145" lon="6.5181">
        <ele>2143.4</ele>
        <time>2025-02-20T12:33:07Z</time>
      </trkpt>
      <trkpt lat="45.6145" lon="6.5181">
        <ele>2143.4</ele>
        <time>2025-02-20T12:33:08Z</time>
      </trkpt>
      <trkpt lat="45.61449" lon="6.51809">
        <ele>2143.8</ele>
        <time>2025-02-20T12:33:09Z</time>
      </trkpt>
      <trkpt lat="45.61447" lon="6.51809">
        <ele>2143.8</ele>
        <time>2025-02-20T12:33:10Z</time>
      </trkpt>
      <trkpt lat="45.61447" lon="6.51808">
        <ele>2143.8</ele>
        <time>2025-02-20T12:33:11Z</time>
      </trkpt>
      <trkpt lat="45.61446" lon="6.51808">
        <ele>2143.8</ele>
        <time>2025-02-20T12:33:12Z</time>
      </trkpt>
      <trkpt lat="45.61445" lon="6.51807">
        <ele>2143.6</ele>
        <time>2025-02-20T12:33:13Z</time>
      </trkpt>
      <trkpt lat="45.61444" lon="6.51806">
        <ele>2143.6</ele>
        <time>2025-02-20T12:33:14Z</time>
      </trkpt>
      <trkpt lat="45.61443" lon="6.51806">
        <ele>2143.6</ele>
        <time>2025-02-20T12:33:15Z</time>
      </trkpt>
      <trkpt lat="45.61443" lon="6.51806">
        <ele>2143.2</ele>
        <time>2025-02-20T12:33:16Z</time>
      </trkpt>
      <trkpt lat="45.61442" lon="6.51805">
        <ele>2142.4</ele>
        <time>2025-02-20T12:33:17Z</time>
      </trkpt>
      <trkpt lat="45.61442" lon="6.51804">
        <ele>2142.4</ele>
        <time>2025-02-20T12:33:18Z</time>
      </trkpt>
      <trkpt lat="45.61442" lon="6.51804">
        <ele>2142.4</ele>
        <time>2025-02-20T12:33:19Z</time>
      </trkpt>
      <trkpt lat="45.61442" lon="6.51804">
        <ele>2143.4</ele>
        <time>2025-02-20T12:33:20Z</time>
      </trkpt>
      <trkpt lat="45.61442" lon="6.51804">
        <ele>2144.2</ele>
        <time>2025-02-20T12:33:21Z</time>
      </trkpt>
      <trkpt lat="45.61441" lon="6.51802">
        <ele>2144.2</ele>
        <time>2025-02-20T12:33:22Z</time>
      </trkpt>
      <trkpt lat="45.6144" lon="6.51802">
        <ele>2144.2</ele>
        <time>2025-02-20T12:33:23Z</time>
      </trkpt>
      <trkpt lat="45.6144" lon="6.51801">
        <ele>2144.2</ele>
        <time>2025-02-20T12:33:24Z</time>
      </trkpt>
      <trkpt lat="45.61439" lon="6.51801">
        <ele>2144.2</ele>
        <time>2025-02-20T12:33:25Z</time>
      </trkpt>
      <trkpt lat="45.61438" lon="6.51801">
        <ele>2144.2</ele>
        <time>2025-02-20T12:33:26Z</time>
      </trkpt>
      <trkpt lat="45.61437" lon="6.518">
        <ele>2144.2</ele>
        <time>2025-02-20T12:33:27Z</time>
      </trkpt>
      <trkpt lat="45.61437" lon="6.518">
        <ele>2144.2</ele>
        <time>2025-02-20T12:33:28Z</time>
      </trkpt>
      <trkpt lat="45.61437" lon="6.518">
        <ele>2144.2</ele>
        <time>2025-02-20T12:33:29Z</time>
      </trkpt>
      <trkpt lat="45.61437" lon="6.518">
        <ele>2144.2</ele>
        <time>2025-02-20T12:33:30Z</time>
      </trkpt>
      <trkpt lat="45.61437" lon="6.518">
        <ele>2144.2</ele>
        <time>2025-02-20T12:33:31Z</time>
      </trkpt>
      <trkpt lat="45.61434" lon="6.51799">
        <ele>2144.2</ele>
        <time>2025-02-20T12:33:32Z</time>
      </trkpt>
      <trkpt lat="45.61433" lon="6.51799">
        <ele>2144.4</ele>
        <time>2025-02-20T12:33:33Z</time>
      </trkpt>
      <trkpt lat="45.61432" lon="6.51798">
        <ele>2144.4</ele>
        <time>2025-02-20T12:33:34Z</time>
      </trkpt>
      <trkpt lat="45.61432" lon="6.51798">
        <ele>2144.4</ele>
        <time>2025-02-20T12:33:35Z</time>
      </trkpt>
      <trkpt lat="45.61432" lon="6.51798">
        <ele>2145</ele>
        <time>2025-02-20T12:33:36Z</time>
      </trkpt>
      <trkpt lat="45.61432" lon="6.51798">
        <ele>2145.2</ele>
        <time>2025-02-20T12:33:37Z</time>
      </trkpt>
      <trkpt lat="45.61431" lon="6.51797">
        <ele>2145.2</ele>
        <time>2025-02-20T12:33:38Z</time>
      </trkpt>
      <trkpt lat="45.61431" lon="6.51797">
        <ele>2145.2</ele>
        <time>2025-02-20T12:33:39Z</time>
      </trkpt>
      <trkpt lat="45.61431" lon="6.51796">
        <ele>2145.6</ele>
        <time>2025-02-20T12:33:40Z</time>
      </trkpt>
      <trkpt lat="45.6143" lon="6.51796">
        <ele>2145.8</ele>
        <time>2025-02-20T12:33:41Z</time>
      </trkpt>
      <trkpt lat="45.6143" lon="6.51795">
        <ele>2145.8</ele>
        <time>2025-02-20T12:33:42Z</time>
      </trkpt>
      <trkpt lat="45.6143" lon="6.51795">
        <ele>2145.8</ele>
        <time>2025-02-20T12:33:43Z</time>
      </trkpt>
      <trkpt lat="45.61428" lon="6.51795">
        <ele>2145.8</ele>
        <time>2025-02-20T12:33:44Z</time>
      </trkpt>
      <trkpt lat="45.61428" lon="6.51794">
        <ele>2146.2</ele>
        <time>2025-02-20T12:33:45Z</time>
      </trkpt>
      <trkpt lat="45.61428" lon="6.51794">
        <ele>2146.2</ele>
        <time>2025-02-20T12:33:46Z</time>
      </trkpt>
      <trkpt lat="45.61428" lon="6.51794">
        <ele>2146.2</ele>
        <time>2025-02-20T12:33:47Z</time>
      </trkpt>
      <trkpt lat="45.61428" lon="6.51794">
        <ele>2147.2</ele>
        <time>2025-02-20T12:33:48Z</time>
      </trkpt>
      <trkpt lat="45.61428" lon="6.51794">
        <ele>2147</ele>
        <time>2025-02-20T12:33:49Z</time>
      </trkpt>
      <trkpt lat="45.61428" lon="6.51794">
        <ele>2147</ele>
        <time>2025-02-20T12:33:50Z</time>
      </trkpt>
      <trkpt lat="45.61428" lon="6.51794">
        <ele>2147</ele>
        <time>2025-02-20T12:33:51Z</time>
      </trkpt>
      <trkpt lat="45.61428" lon="6.51794">
        <ele>2147</ele>
        <time>2025-02-20T12:33:52Z</time>
      </trkpt>
      <trkpt lat="45.61428" lon="6.51794">
        <ele>2146.8</ele>
        <time>2025-02-20T12:33:53Z</time>
      </trkpt>
      <trkpt lat="45.61428" lon="6.51794">
        <ele>2146.8</ele>
        <time>2025-02-20T12:33:54Z</time>
      </trkpt>
      <trkpt lat="45.61428" lon="6.51794">
        <ele>2146.8</ele>
        <time>2025-02-20T12:33:55Z</time>
      </trkpt>
      <trkpt lat="45.61428" lon="6.51794">
        <ele>2146.8</ele>
        <time>2025-02-20T12:33:56Z</time>
      </trkpt>
      <trkpt lat="45.61428" lon="6.51794">
        <ele>2146.8</ele>
        <time>2025-02-20T12:33:57Z</time>
      </trkpt>
      <trkpt lat="45.61428" lon="6.51794">
        <ele>2146.8</ele>
        <time>2025-02-20T12:33:58Z</time>
      </trkpt>
      <trkpt lat="45.61428" lon="6.51794">
        <ele>2146.8</ele>
        <time>2025-02-20T12:33:59Z</time>
      </trkpt>
      <trkpt lat="45.61428" lon="6.51794">
        <ele>2146.8</ele>
        <time>2025-02-20T12:34:00Z</time>
      </trkpt>
      <trkpt lat="45.61428" lon="6.51794">
        <ele>2146.8</ele>
        <time>2025-02-20T12:34:01Z</time>
      </trkpt>
      <trkpt lat="45.61428" lon="6.51794">
        <ele>2146.8</ele>
        <time>2025-02-20T12:34:02Z</time>
      </trkpt>
      <trkpt lat="45.61428" lon="6.51794">
        <ele>2146.8</ele>
        <time>2025-02-20T12:34:03Z</time>
      </trkpt>
      <trkpt lat="45.61428" lon="6.51794">
        <ele>2146.8</ele>
        <time>2025-02-20T12:34:04Z</time>
      </trkpt>
      <trkpt lat="45.61428" lon="6.51794">
        <ele>2147.2</ele>
        <time>2025-02-20T12:34:05Z</time>
      </trkpt>
      <trkpt lat="45.61428" lon="6.51794">
        <ele>2147.2</ele>
        <time>2025-02-20T12:34:06Z</time>
      </trkpt>
      <trkpt lat="45.61428" lon="6.51794">
        <ele>2147.2</ele>
        <time>2025-02-20T12:34:07Z</time>
      </trkpt>
      <trkpt lat="45.61428" lon="6.51794">
        <ele>2146.4</ele>
        <time>2025-02-20T12:34:08Z</time>
      </trkpt>
      <trkpt lat="45.61428" lon="6.51794">
        <ele>2146.8</ele>
        <time>2025-02-20T12:34:09Z</time>
      </trkpt>
      <trkpt lat="45.61428" lon="6.51794">
        <ele>2146.8</ele>
        <time>2025-02-20T12:34:10Z</time>
      </trkpt>
      <trkpt lat="45.61428" lon="6.51794">
        <ele>2146.8</ele>
        <time>2025-02-20T12:34:11Z</time>
      </trkpt>
      <trkpt lat="45.61428" lon="6.51794">
        <ele>2146.8</ele>
        <time>2025-02-20T12:34:12Z</time>
      </trkpt>
      <trkpt lat="45.61428" lon="6.51794">
        <ele>2146.6</ele>
        <time>2025-02-20T12:34:13Z</time>
      </trkpt>
      <trkpt lat="45.61428" lon="6.51794">
        <ele>2146.6</ele>
        <time>2025-02-20T12:34:14Z</time>
      </trkpt>
      <trkpt lat="45.61428" lon="6.51794">
        <ele>2146.6</ele>
        <time>2025-02-20T12:34:15Z</time>
      </trkpt>
      <trkpt lat="45.61428" lon="6.51794">
        <ele>2146.6</ele>
        <time>2025-02-20T12:34:16Z</time>
      </trkpt>
      <trkpt lat="45.61428" lon="6.51794">
        <ele>2146.6</ele>
        <time>2025-02-20T12:34:17Z</time>
      </trkpt>
      <trkpt lat="45.61428" lon="6.51794">
        <ele>2146.6</ele>
        <time>2025-02-20T12:34:18Z</time>
      </trkpt>
      <trkpt lat="45.61428" lon="6.51794">
        <ele>2146.6</ele>
        <time>2025-02-20T12:34:19Z</time>
      </trkpt>
      <trkpt lat="45.61428" lon="6.51794">
        <ele>2146.6</ele>
        <time>2025-02-20T12:34:20Z</time>
      </trkpt>
      <trkpt lat="45.61428" lon="6.51794">
        <ele>2147</ele>
        <time>2025-02-20T12:34:21Z</time>
      </trkpt>
      <trkpt lat="45.61428" lon="6.51794">
        <ele>2147</ele>
        <time>2025-02-20T12:34:22Z</time>
      </trkpt>
      <trkpt lat="45.61428" lon="6.51794">
        <ele>2147</ele>
        <time>2025-02-20T12:34:23Z</time>
      </trkpt>
      <trkpt lat="45.61428" lon="6.51794">
        <ele>2147</ele>
        <time>2025-02-20T12:34:24Z</time>
      </trkpt>
      <trkpt lat="45.61428" lon="6.51794">
        <ele>2147.2</ele>
        <time>2025-02-20T12:34:25Z</time>
      </trkpt>
      <trkpt lat="45.61428" lon="6.51794">
        <ele>2147.2</ele>
        <time>2025-02-20T12:34:26Z</time>
      </trkpt>
      <trkpt lat="45.61428" lon="6.51794">
        <ele>2147.2</ele>
        <time>2025-02-20T12:34:27Z</time>
      </trkpt>
      <trkpt lat="45.61428" lon="6.51794">
        <ele>2147.2</ele>
        <time>2025-02-20T12:34:28Z</time>
      </trkpt>
      <trkpt lat="45.61428" lon="6.51794">
        <ele>2146.6</ele>
        <time>2025-02-20T12:34:29Z</time>
      </trkpt>
      <trkpt lat="45.61428" lon="6.51794">
        <ele>2146.6</ele>
        <time>2025-02-20T12:34:30Z</time>
      </trkpt>
      <trkpt lat="45.61428" lon="6.51794">
        <ele>2146.6</ele>
        <time>2025-02-20T12:34:31Z</time>
      </trkpt>
      <trkpt lat="45.61428" lon="6.51794">
        <ele>2146.8</ele>
        <time>2025-02-20T12:34:32Z</time>
      </trkpt>
      <trkpt lat="45.61428" lon="6.51794">
        <ele>2146.4</ele>
        <time>2025-02-20T12:34:33Z</time>
      </trkpt>
      <trkpt lat="45.61428" lon="6.51794">
        <ele>2146.4</ele>
        <time>2025-02-20T12:34:34Z</time>
      </trkpt>
      <trkpt lat="45.61428" lon="6.51794">
        <ele>2146.4</ele>
        <time>2025-02-20T12:34:35Z</time>
      </trkpt>
      <trkpt lat="45.61428" lon="6.51794">
        <ele>2146.8</ele>
        <time>2025-02-20T12:34:36Z</time>
      </trkpt>
      <trkpt lat="45.61428" lon="6.51794">
        <ele>2146.6</ele>
        <time>2025-02-20T12:34:37Z</time>
      </trkpt>
      <trkpt lat="45.61428" lon="6.51794">
        <ele>2146.6</ele>
        <time>2025-02-20T12:34:38Z</time>
      </trkpt>
      <trkpt lat="45.61428" lon="6.51794">
        <ele>2146.6</ele>
        <time>2025-02-20T12:34:39Z</time>
      </trkpt>
      <trkpt lat="45.61428" lon="6.51794">
        <ele>2146.6</ele>
        <time>2025-02-20T12:34:40Z</time>
      </trkpt>
      <trkpt lat="45.61428" lon="6.51794">
        <ele>2147</ele>
        <time>2025-02-20T12:34:41Z</time>
      </trkpt>
      <trkpt lat="45.61428" lon="6.51794">
        <ele>2147</ele>
        <time>2025-02-20T12:34:42Z</time>
      </trkpt>
      <trkpt lat="45.61428" lon="6.51794">
        <ele>2147</ele>
        <time>2025-02-20T12:34:43Z</time>
      </trkpt>
      <trkpt lat="45.61428" lon="6.51794">
        <ele>2147</ele>
        <time>2025-02-20T12:34:44Z</time>
      </trkpt>
      <trkpt lat="45.61428" lon="6.51794">
        <ele>2147</ele>
        <time>2025-02-20T12:34:45Z</time>
      </trkpt>
      <trkpt lat="45.61428" lon="6.51794">
        <ele>2147</ele>
        <time>2025-02-20T12:34:46Z</time>
      </trkpt>
      <trkpt lat="45.61428" lon="6.51794">
        <ele>2147</ele>
        <time>2025-02-20T12:34:47Z</time>
      </trkpt>
      <trkpt lat="45.61428" lon="6.51794">
        <ele>2147</ele>
        <time>2025-02-20T12:34:48Z</time>
      </trkpt>
      <trkpt lat="45.61428" lon="6.51794">
        <ele>2147</ele>
        <time>2025-02-20T12:34:49Z</time>
      </trkpt>
      <trkpt lat="45.61428" lon="6.51794">
        <ele>2147</ele>
        <time>2025-02-20T12:34:50Z</time>
      </trkpt>
      <trkpt lat="45.61428" lon="6.51794">
        <ele>2147</ele>
        <time>2025-02-20T12:34:51Z</time>
      </trkpt>
      <trkpt lat="45.61428" lon="6.51794">
        <ele>2147</ele>
        <time>2025-02-20T12:34:52Z</time>
      </trkpt>
      <trkpt lat="45.61428" lon="6.51794">
        <ele>2144.4</ele>
        <time>2025-02-20T12:34:53Z</time>
      </trkpt>
      <trkpt lat="45.61428" lon="6.51794">
        <ele>2144.4</ele>
        <time>2025-02-20T12:34:54Z</time>
      </trkpt>
      <trkpt lat="45.61428" lon="6.51794">
        <ele>2144.4</ele>
        <time>2025-02-20T12:34:55Z</time>
      </trkpt>
      <trkpt lat="45.61428" lon="6.51794">
        <ele>2145.4</ele>
        <time>2025-02-20T12:34:56Z</time>
      </trkpt>
      <trkpt lat="45.61428" lon="6.51794">
        <ele>2146.8</ele>
        <time>2025-02-20T12:34:57Z</time>
      </trkpt>
      <trkpt lat="45.61428" lon="6.51794">
        <ele>2146.8</ele>
        <time>2025-02-20T12:34:58Z</time>
      </trkpt>
      <trkpt lat="45.61428" lon="6.51794">
        <ele>2146.8</ele>
        <time>2025-02-20T12:34:59Z</time>
      </trkpt>
      <trkpt lat="45.61428" lon="6.51794">
        <ele>2146.8</ele>
        <time>2025-02-20T12:35:00Z</time>
      </trkpt>
      <trkpt lat="45.61428" lon="6.51794">
        <ele>2147</ele>
        <time>2025-02-20T12:35:01Z</time>
      </trkpt>
      <trkpt lat="45.61428" lon="6.51794">
        <ele>2147</ele>
        <time>2025-02-20T12:35:02Z</time>
      </trkpt>
      <trkpt lat="45.61428" lon="6.51794">
        <ele>2147</ele>
        <time>2025-02-20T12:35:03Z</time>
      </trkpt>
      <trkpt lat="45.61428" lon="6.51794">
        <ele>2147</ele>
        <time>2025-02-20T12:35:04Z</time>
      </trkpt>
      <trkpt lat="45.61428" lon="6.51794">
        <ele>2147.4</ele>
        <time>2025-02-20T12:35:05Z</time>
      </trkpt>
      <trkpt lat="45.61428" lon="6.51794">
        <ele>2147.4</ele>
        <time>2025-02-20T12:35:06Z</time>
      </trkpt>
      <trkpt lat="45.61428" lon="6.51794">
        <ele>2147.4</ele>
        <time>2025-02-20T12:35:07Z</time>
      </trkpt>
      <trkpt lat="45.61428" lon="6.51794">
        <ele>2146.8</ele>
        <time>2025-02-20T12:35:08Z</time>
      </trkpt>
      <trkpt lat="45.61428" lon="6.51794">
        <ele>2146.8</ele>
        <time>2025-02-20T12:35:09Z</time>
      </trkpt>
      <trkpt lat="45.61428" lon="6.51794">
        <ele>2146.8</ele>
        <time>2025-02-20T12:35:10Z</time>
      </trkpt>
      <trkpt lat="45.61428" lon="6.51794">
        <ele>2146.8</ele>
        <time>2025-02-20T12:35:11Z</time>
      </trkpt>
      <trkpt lat="45.61428" lon="6.51794">
        <ele>2146.8</ele>
        <time>2025-02-20T12:35:12Z</time>
      </trkpt>
      <trkpt lat="45.61428" lon="6.51794">
        <ele>2147.2</ele>
        <time>2025-02-20T12:35:13Z</time>
      </trkpt>
      <trkpt lat="45.61428" lon="6.51794">
        <ele>2147.2</ele>
        <time>2025-02-20T12:35:14Z</time>
      </trkpt>
      <trkpt lat="45.61428" lon="6.51794">
        <ele>2147.2</ele>
        <time>2025-02-20T12:35:15Z</time>
      </trkpt>
      <trkpt lat="45.61428" lon="6.51794">
        <ele>2147.2</ele>
        <time>2025-02-20T12:35:16Z</time>
      </trkpt>
      <trkpt lat="45.61428" lon="6.51794">
        <ele>2147.2</ele>
        <time>2025-02-20T12:35:17Z</time>
      </trkpt>
      <trkpt lat="45.61428" lon="6.51794">
        <ele>2147.2</ele>
        <time>2025-02-20T12:35:18Z</time>
      </trkpt>
      <trkpt lat="45.61428" lon="6.51794">
        <ele>2147.2</ele>
        <time>2025-02-20T12:35:19Z</time>
      </trkpt>
      <trkpt lat="45.61428" lon="6.51794">
        <ele>2147.2</ele>
        <time>2025-02-20T12:35:20Z</time>
      </trkpt>
      <trkpt lat="45.61428" lon="6.51794">
        <ele>2147</ele>
        <time>2025-02-20T12:35:21Z</time>
      </trkpt>
      <trkpt lat="45.61428" lon="6.51794">
        <ele>2147</ele>
        <time>2025-02-20T12:35:22Z</time>
      </trkpt>
      <trkpt lat="45.61428" lon="6.51794">
        <ele>2147</ele>
        <time>2025-02-20T12:35:23Z</time>
      </trkpt>
      <trkpt lat="45.61428" lon="6.51794">
        <ele>2147</ele>
        <time>2025-02-20T12:35:24Z</time>
      </trkpt>
      <trkpt lat="45.61428" lon="6.51794">
        <ele>2147</ele>
        <time>2025-02-20T12:35:25Z</time>
      </trkpt>
      <trkpt lat="45.61428" lon="6.51794">
        <ele>2147</ele>
        <time>2025-02-20T12:35:26Z</time>
      </trkpt>
      <trkpt lat="45.61428" lon="6.51794">
        <ele>2147</ele>
        <time>2025-02-20T12:35:27Z</time>
      </trkpt>
      <trkpt lat="45.61428" lon="6.51794">
        <ele>2147</ele>
        <time>2025-02-20T12:35:28Z</time>
      </trkpt>
      <trkpt lat="45.61428" lon="6.51794">
        <ele>2147.2</ele>
        <time>2025-02-20T12:35:29Z</time>
      </trkpt>
      <trkpt lat="45.61428" lon="6.51794">
        <ele>2147.2</ele>
        <time>2025-02-20T12:35:30Z</time>
      </trkpt>
      <trkpt lat="45.61428" lon="6.51794">
        <ele>2147.2</ele>
        <time>2025-02-20T12:35:31Z</time>
      </trkpt>
      <trkpt lat="45.61428" lon="6.51794">
        <ele>2147.2</ele>
        <time>2025-02-20T12:35:32Z</time>
      </trkpt>
      <trkpt lat="45.61428" lon="6.51794">
        <ele>2147</ele>
        <time>2025-02-20T12:35:33Z</time>
      </trkpt>
      <trkpt lat="45.61428" lon="6.51794">
        <ele>2147</ele>
        <time>2025-02-20T12:35:34Z</time>
      </trkpt>
      <trkpt lat="45.61428" lon="6.51794">
        <ele>2147</ele>
        <time>2025-02-20T12:35:35Z</time>
      </trkpt>
      <trkpt lat="45.61428" lon="6.51794">
        <ele>2147</ele>
        <time>2025-02-20T12:35:36Z</time>
      </trkpt>
      <trkpt lat="45.61428" lon="6.51794">
        <ele>2146.8</ele>
        <time>2025-02-20T12:35:37Z</time>
      </trkpt>
      <trkpt lat="45.61428" lon="6.51794">
        <ele>2146.8</ele>
        <time>2025-02-20T12:35:38Z</time>
      </trkpt>
      <trkpt lat="45.61428" lon="6.51794">
        <ele>2146.8</ele>
        <time>2025-02-20T12:35:39Z</time>
      </trkpt>
      <trkpt lat="45.61428" lon="6.51794">
        <ele>2147</ele>
        <time>2025-02-20T12:35:40Z</time>
      </trkpt>
      <trkpt lat="45.61428" lon="6.51794">
        <ele>2146.8</ele>
        <time>2025-02-20T12:35:41Z</time>
      </trkpt>
      <trkpt lat="45.61428" lon="6.51794">
        <ele>2146.8</ele>
        <time>2025-02-20T12:35:42Z</time>
      </trkpt>
      <trkpt lat="45.61428" lon="6.51794">
        <ele>2146.8</ele>
        <time>2025-02-20T12:35:43Z</time>
      </trkpt>
      <trkpt lat="45.61428" lon="6.51794">
        <ele>2146.8</ele>
        <time>2025-02-20T12:35:44Z</time>
      </trkpt>
      <trkpt lat="45.61428" lon="6.51794">
        <ele>2147.4</ele>
        <time>2025-02-20T12:35:45Z</time>
      </trkpt>
      <trkpt lat="45.61428" lon="6.51794">
        <ele>2147.4</ele>
        <time>2025-02-20T12:35:46Z</time>
      </trkpt>
      <trkpt lat="45.61428" lon="6.51794">
        <ele>2147.4</ele>
        <time>2025-02-20T12:35:47Z</time>
      </trkpt>
      <trkpt lat="45.61428" lon="6.51794">
        <ele>2147.4</ele>
        <time>2025-02-20T12:35:48Z</time>
      </trkpt>
      <trkpt lat="45.61428" lon="6.51794">
        <ele>2147</ele>
        <time>2025-02-20T12:35:49Z</time>
      </trkpt>
      <trkpt lat="45.61428" lon="6.51794">
        <ele>2147</ele>
        <time>2025-02-20T12:35:50Z</time>
      </trkpt>
      <trkpt lat="45.61428" lon="6.51794">
        <ele>2147</ele>
        <time>2025-02-20T12:35:51Z</time>
      </trkpt>
      <trkpt lat="45.61428" lon="6.51794">
        <ele>2147</ele>
        <time>2025-02-20T12:35:52Z</time>
      </trkpt>
      <trkpt lat="45.61428" lon="6.51794">
        <ele>2146.8</ele>
        <time>2025-02-20T12:35:53Z</time>
      </trkpt>
      <trkpt lat="45.61428" lon="6.51794">
        <ele>2146.8</ele>
        <time>2025-02-20T12:35:54Z</time>
      </trkpt>
      <trkpt lat="45.61428" lon="6.51794">
        <ele>2146.8</ele>
        <time>2025-02-20T12:35:55Z</time>
      </trkpt>
      <trkpt lat="45.61428" lon="6.51794">
        <ele>2146.8</ele>
        <time>2025-02-20T12:35:56Z</time>
      </trkpt>
      <trkpt lat="45.61428" lon="6.51794">
        <ele>2146.6</ele>
        <time>2025-02-20T12:35:57Z</time>
      </trkpt>
      <trkpt lat="45.61428" lon="6.51794">
        <ele>2146.6</ele>
        <time>2025-02-20T12:35:58Z</time>
      </trkpt>
      <trkpt lat="45.61428" lon="6.51794">
        <ele>2146.6</ele>
        <time>2025-02-20T12:35:59Z</time>
      </trkpt>
      <trkpt lat="45.61428" lon="6.51794">
        <ele>2146.8</ele>
        <time>2025-02-20T12:36:00Z</time>
      </trkpt>
      <trkpt lat="45.61428" lon="6.51794">
        <ele>2147.2</ele>
        <time>2025-02-20T12:36:01Z</time>
      </trkpt>
      <trkpt lat="45.61428" lon="6.51794">
        <ele>2147.2</ele>
        <time>2025-02-20T12:36:02Z</time>
      </trkpt>
      <trkpt lat="45.61428" lon="6.51794">
        <ele>2147.2</ele>
        <time>2025-02-20T12:36:03Z</time>
      </trkpt>
      <trkpt lat="45.61428" lon="6.51794">
        <ele>2147.2</ele>
        <time>2025-02-20T12:36:04Z</time>
      </trkpt>
      <trkpt lat="45.61428" lon="6.51794">
        <ele>2147.2</ele>
        <time>2025-02-20T12:36:05Z</time>
      </trkpt>
      <trkpt lat="45.61428" lon="6.51794">
        <ele>2147.2</ele>
        <time>2025-02-20T12:36:06Z</time>
      </trkpt>
      <trkpt lat="45.61428" lon="6.51794">
        <ele>2147.2</ele>
        <time>2025-02-20T12:36:07Z</time>
      </trkpt>
      <trkpt lat="45.61428" lon="6.51794">
        <ele>2147</ele>
        <time>2025-02-20T12:36:08Z</time>
      </trkpt>
      <trkpt lat="45.61428" lon="6.51794">
        <ele>2146.6</ele>
        <time>2025-02-20T12:36:09Z</time>
      </trkpt>
      <trkpt lat="45.61428" lon="6.51794">
        <ele>2146.6</ele>
        <time>2025-02-20T12:36:10Z</time>
      </trkpt>
      <trkpt lat="45.61428" lon="6.51794">
        <ele>2146.6</ele>
        <time>2025-02-20T12:36:11Z</time>
      </trkpt>
      <trkpt lat="45.61428" lon="6.51794">
        <ele>2147</ele>
        <time>2025-02-20T12:36:12Z</time>
      </trkpt>
      <trkpt lat="45.61428" lon="6.51794">
        <ele>2146.6</ele>
        <time>2025-02-20T12:36:13Z</time>
      </trkpt>
      <trkpt lat="45.61428" lon="6.51794">
        <ele>2146.6</ele>
        <time>2025-02-20T12:36:14Z</time>
      </trkpt>
      <trkpt lat="45.61428" lon="6.51794">
        <ele>2146.6</ele>
        <time>2025-02-20T12:36:15Z</time>
      </trkpt>
      <trkpt lat="45.61428" lon="6.51794">
        <ele>2146.6</ele>
        <time>2025-02-20T12:36:16Z</time>
      </trkpt>
      <trkpt lat="45.61428" lon="6.51794">
        <ele>2146.6</ele>
        <time>2025-02-20T12:36:17Z</time>
      </trkpt>
      <trkpt lat="45.61428" lon="6.51794">
        <ele>2146.6</ele>
        <time>2025-02-20T12:36:18Z</time>
      </trkpt>
      <trkpt lat="45.61428" lon="6.51794">
        <ele>2146.6</ele>
        <time>2025-02-20T12:36:19Z</time>
      </trkpt>
      <trkpt lat="45.61428" lon="6.51794">
        <ele>2146.6</ele>
        <time>2025-02-20T12:36:20Z</time>
      </trkpt>
      <trkpt lat="45.61428" lon="6.51794">
        <ele>2146.8</ele>
        <time>2025-02-20T12:36:21Z</time>
      </trkpt>
      <trkpt lat="45.61428" lon="6.51794">
        <ele>2146.8</ele>
        <time>2025-02-20T12:36:22Z</time>
      </trkpt>
      <trkpt lat="45.61428" lon="6.51794">
        <ele>2146.8</ele>
        <time>2025-02-20T12:36:23Z</time>
      </trkpt>
      <trkpt lat="45.61428" lon="6.51794">
        <ele>2146.2</ele>
        <time>2025-02-20T12:36:24Z</time>
      </trkpt>
      <trkpt lat="45.61428" lon="6.51794">
        <ele>2146</ele>
        <time>2025-02-20T12:36:25Z</time>
      </trkpt>
      <trkpt lat="45.61428" lon="6.51794">
        <ele>2146</ele>
        <time>2025-02-20T12:36:26Z</time>
      </trkpt>
      <trkpt lat="45.61428" lon="6.51794">
        <ele>2146</ele>
        <time>2025-02-20T12:36:27Z</time>
      </trkpt>
      <trkpt lat="45.61428" lon="6.51794">
        <ele>2146.2</ele>
        <time>2025-02-20T12:36:28Z</time>
      </trkpt>
      <trkpt lat="45.61428" lon="6.51794">
        <ele>2146.6</ele>
        <time>2025-02-20T12:36:29Z</time>
      </trkpt>
      <trkpt lat="45.61428" lon="6.51794">
        <ele>2146.6</ele>
        <time>2025-02-20T12:36:30Z</time>
      </trkpt>
      <trkpt lat="45.61428" lon="6.51794">
        <ele>2146.6</ele>
        <time>2025-02-20T12:36:31Z</time>
      </trkpt>
      <trkpt lat="45.61428" lon="6.51794">
        <ele>2146.8</ele>
        <time>2025-02-20T12:36:32Z</time>
      </trkpt>
      <trkpt lat="45.61428" lon="6.51794">
        <ele>2146.6</ele>
        <time>2025-02-20T12:36:33Z</time>
      </trkpt>
      <trkpt lat="45.61428" lon="6.51794">
        <ele>2146.6</ele>
        <time>2025-02-20T12:36:34Z</time>
      </trkpt>
      <trkpt lat="45.61428" lon="6.51794">
        <ele>2146.6</ele>
        <time>2025-02-20T12:36:35Z</time>
      </trkpt>
      <trkpt lat="45.61428" lon="6.51794">
        <ele>2146.6</ele>
        <time>2025-02-20T12:36:36Z</time>
      </trkpt>
      <trkpt lat="45.61428" lon="6.51794">
        <ele>2146.8</ele>
        <time>2025-02-20T12:36:37Z</time>
      </trkpt>
      <trkpt lat="45.61428" lon="6.51794">
        <ele>2146.8</ele>
        <time>2025-02-20T12:36:38Z</time>
      </trkpt>
      <trkpt lat="45.61428" lon="6.51794">
        <ele>2146.8</ele>
        <time>2025-02-20T12:36:39Z</time>
      </trkpt>
      <trkpt lat="45.61428" lon="6.51794">
        <ele>2146.2</ele>
        <time>2025-02-20T12:36:40Z</time>
      </trkpt>
      <trkpt lat="45.61428" lon="6.51794">
        <ele>2147</ele>
        <time>2025-02-20T12:36:41Z</time>
      </trkpt>
      <trkpt lat="45.61428" lon="6.51794">
        <ele>2147</ele>
        <time>2025-02-20T12:36:42Z</time>
      </trkpt>
      <trkpt lat="45.61428" lon="6.51794">
        <ele>2147</ele>
        <time>2025-02-20T12:36:43Z</time>
      </trkpt>
      <trkpt lat="45.61428" lon="6.51794">
        <ele>2146.6</ele>
        <time>2025-02-20T12:36:44Z</time>
      </trkpt>
      <trkpt lat="45.61428" lon="6.51794">
        <ele>2147</ele>
        <time>2025-02-20T12:36:45Z</time>
      </trkpt>
      <trkpt lat="45.61428" lon="6.51794">
        <ele>2147</ele>
        <time>2025-02-20T12:36:46Z</time>
      </trkpt>
      <trkpt lat="45.61428" lon="6.51794">
        <ele>2147</ele>
        <time>2025-02-20T12:36:47Z</time>
      </trkpt>
      <trkpt lat="45.61428" lon="6.51794">
        <ele>2147</ele>
        <time>2025-02-20T12:36:48Z</time>
      </trkpt>
      <trkpt lat="45.61428" lon="6.51794">
        <ele>2147.2</ele>
        <time>2025-02-20T12:36:49Z</time>
      </trkpt>
      <trkpt lat="45.61428" lon="6.51794">
        <ele>2147.2</ele>
        <time>2025-02-20T12:36:50Z</time>
      </trkpt>
      <trkpt lat="45.61428" lon="6.51794">
        <ele>2147.2</ele>
        <time>2025-02-20T12:36:51Z</time>
      </trkpt>
      <trkpt lat="45.61428" lon="6.51794">
        <ele>2147.2</ele>
        <time>2025-02-20T12:36:52Z</time>
      </trkpt>
      <trkpt lat="45.61428" lon="6.51794">
        <ele>2146.6</ele>
        <time>2025-02-20T12:36:53Z</time>
      </trkpt>
      <trkpt lat="45.61428" lon="6.51794">
        <ele>2146.6</ele>
        <time>2025-02-20T12:36:54Z</time>
      </trkpt>
      <trkpt lat="45.61428" lon="6.51794">
        <ele>2146.6</ele>
        <time>2025-02-20T12:36:55Z</time>
      </trkpt>
      <trkpt lat="45.61428" lon="6.51794">
        <ele>2147.4</ele>
        <time>2025-02-20T12:36:56Z</time>
      </trkpt>
      <trkpt lat="45.61428" lon="6.51794">
        <ele>2146.8</ele>
        <time>2025-02-20T12:36:57Z</time>
      </trkpt>
      <trkpt lat="45.61428" lon="6.51794">
        <ele>2146.8</ele>
        <time>2025-02-20T12:36:58Z</time>
      </trkpt>
      <trkpt lat="45.61428" lon="6.51794">
        <ele>2146.8</ele>
        <time>2025-02-20T12:36:59Z</time>
      </trkpt>
      <trkpt lat="45.61428" lon="6.51794">
        <ele>2146.8</ele>
        <time>2025-02-20T12:37:00Z</time>
      </trkpt>
      <trkpt lat="45.61428" lon="6.51794">
        <ele>2146.8</ele>
        <time>2025-02-20T12:37:01Z</time>
      </trkpt>
      <trkpt lat="45.61428" lon="6.51794">
        <ele>2146.8</ele>
        <time>2025-02-20T12:37:02Z</time>
      </trkpt>
      <trkpt lat="45.61428" lon="6.51794">
        <ele>2146.8</ele>
        <time>2025-02-20T12:37:03Z</time>
      </trkpt>
      <trkpt lat="45.61428" lon="6.51794">
        <ele>2146.8</ele>
        <time>2025-02-20T12:37:04Z</time>
      </trkpt>
      <trkpt lat="45.61428" lon="6.51794">
        <ele>2147</ele>
        <time>2025-02-20T12:37:05Z</time>
      </trkpt>
      <trkpt lat="45.61428" lon="6.51794">
        <ele>2147</ele>
        <time>2025-02-20T12:37:06Z</time>
      </trkpt>
      <trkpt lat="45.61428" lon="6.51794">
        <ele>2147</ele>
        <time>2025-02-20T12:37:07Z</time>
      </trkpt>
      <trkpt lat="45.61428" lon="6.51794">
        <ele>2147</ele>
        <time>2025-02-20T12:37:08Z</time>
      </trkpt>
      <trkpt lat="45.61428" lon="6.51794">
        <ele>2147.4</ele>
        <time>2025-02-20T12:37:09Z</time>
      </trkpt>
      <trkpt lat="45.61428" lon="6.51794">
        <ele>2147.4</ele>
        <time>2025-02-20T12:37:10Z</time>
      </trkpt>
      <trkpt lat="45.61428" lon="6.51794">
        <ele>2147.4</ele>
        <time>2025-02-20T12:37:11Z</time>
      </trkpt>
      <trkpt lat="45.61428" lon="6.51794">
        <ele>2147</ele>
        <time>2025-02-20T12:37:12Z</time>
      </trkpt>
      <trkpt lat="45.61428" lon="6.51794">
        <ele>2147.2</ele>
        <time>2025-02-20T12:37:13Z</time>
      </trkpt>
      <trkpt lat="45.61428" lon="6.51794">
        <ele>2147.2</ele>
        <time>2025-02-20T12:37:14Z</time>
      </trkpt>
      <trkpt lat="45.61428" lon="6.51794">
        <ele>2147.2</ele>
        <time>2025-02-20T12:37:15Z</time>
      </trkpt>
      <trkpt lat="45.61428" lon="6.51794">
        <ele>2147</ele>
        <time>2025-02-20T12:37:16Z</time>
      </trkpt>
      <trkpt lat="45.61428" lon="6.51794">
        <ele>2146.6</ele>
        <time>2025-02-20T12:37:17Z</time>
      </trkpt>
      <trkpt lat="45.61428" lon="6.51794">
        <ele>2146.6</ele>
        <time>2025-02-20T12:37:18Z</time>
      </trkpt>
      <trkpt lat="45.61428" lon="6.51794">
        <ele>2146.6</ele>
        <time>2025-02-20T12:37:19Z</time>
      </trkpt>
      <trkpt lat="45.61428" lon="6.51794">
        <ele>2147</ele>
        <time>2025-02-20T12:37:20Z</time>
      </trkpt>
      <trkpt lat="45.61428" lon="6.51794">
        <ele>2147</ele>
        <time>2025-02-20T12:37:21Z</time>
      </trkpt>
      <trkpt lat="45.61428" lon="6.51794">
        <ele>2147</ele>
        <time>2025-02-20T12:37:22Z</time>
      </trkpt>
      <trkpt lat="45.61428" lon="6.51794">
        <ele>2147</ele>
        <time>2025-02-20T12:37:23Z</time>
      </trkpt>
      <trkpt lat="45.61428" lon="6.51794">
        <ele>2147</ele>
        <time>2025-02-20T12:37:24Z</time>
      </trkpt>
      <trkpt lat="45.61428" lon="6.51794">
        <ele>2146.6</ele>
        <time>2025-02-20T12:37:25Z</time>
      </trkpt>
      <trkpt lat="45.61428" lon="6.51794">
        <ele>2146.6</ele>
        <time>2025-02-20T12:37:26Z</time>
      </trkpt>
      <trkpt lat="45.61428" lon="6.51794">
        <ele>2146.6</ele>
        <time>2025-02-20T12:37:27Z</time>
      </trkpt>
      <trkpt lat="45.61428" lon="6.51794">
        <ele>2146.6</ele>
        <time>2025-02-20T12:37:28Z</time>
      </trkpt>
      <trkpt lat="45.61428" lon="6.51794">
        <ele>2147</ele>
        <time>2025-02-20T12:37:29Z</time>
      </trkpt>
      <trkpt lat="45.61428" lon="6.51794">
        <ele>2147</ele>
        <time>2025-02-20T12:37:30Z</time>
      </trkpt>
      <trkpt lat="45.61428" lon="6.51794">
        <ele>2147</ele>
        <time>2025-02-20T12:37:31Z</time>
      </trkpt>
      <trkpt lat="45.61428" lon="6.51794">
        <ele>2147</ele>
        <time>2025-02-20T12:37:32Z</time>
      </trkpt>
      <trkpt lat="45.61428" lon="6.51794">
        <ele>2146.4</ele>
        <time>2025-02-20T12:37:33Z</time>
      </trkpt>
      <trkpt lat="45.61428" lon="6.51794">
        <ele>2146.4</ele>
        <time>2025-02-20T12:37:34Z</time>
      </trkpt>
      <trkpt lat="45.61428" lon="6.51794">
        <ele>2146.4</ele>
        <time>2025-02-20T12:37:35Z</time>
      </trkpt>
      <trkpt lat="45.61428" lon="6.51794">
        <ele>2146.4</ele>
        <time>2025-02-20T12:37:36Z</time>
      </trkpt>
      <trkpt lat="45.61428" lon="6.51794">
        <ele>2151.8</ele>
        <time>2025-02-20T12:37:37Z</time>
      </trkpt>
      <trkpt lat="45.61428" lon="6.51794">
        <ele>2151.8</ele>
        <time>2025-02-20T12:37:38Z</time>
      </trkpt>
      <trkpt lat="45.61428" lon="6.51794">
        <ele>2151.8</ele>
        <time>2025-02-20T12:37:39Z</time>
      </trkpt>
      <trkpt lat="45.61428" lon="6.51794">
        <ele>2150.8</ele>
        <time>2025-02-20T12:37:40Z</time>
      </trkpt>
      <trkpt lat="45.61428" lon="6.51794">
        <ele>2147.8</ele>
        <time>2025-02-20T12:37:41Z</time>
      </trkpt>
      <trkpt lat="45.61428" lon="6.51794">
        <ele>2147.8</ele>
        <time>2025-02-20T12:37:42Z</time>
      </trkpt>
      <trkpt lat="45.61428" lon="6.51794">
        <ele>2147.8</ele>
        <time>2025-02-20T12:37:43Z</time>
      </trkpt>
      <trkpt lat="45.61428" lon="6.51794">
        <ele>2147</ele>
        <time>2025-02-20T12:37:44Z</time>
      </trkpt>
      <trkpt lat="45.61428" lon="6.51794">
        <ele>2147</ele>
        <time>2025-02-20T12:37:45Z</time>
      </trkpt>
      <trkpt lat="45.61428" lon="6.51794">
        <ele>2147</ele>
        <time>2025-02-20T12:37:46Z</time>
      </trkpt>
      <trkpt lat="45.61428" lon="6.51794">
        <ele>2147</ele>
        <time>2025-02-20T12:37:47Z</time>
      </trkpt>
      <trkpt lat="45.61428" lon="6.51794">
        <ele>2147</ele>
        <time>2025-02-20T12:37:48Z</time>
      </trkpt>
      <trkpt lat="45.61428" lon="6.51794">
        <ele>2147.2</ele>
        <time>2025-02-20T12:37:49Z</time>
      </trkpt>
      <trkpt lat="45.61428" lon="6.51794">
        <ele>2147.2</ele>
        <time>2025-02-20T12:37:50Z</time>
      </trkpt>
      <trkpt lat="45.61428" lon="6.51794">
        <ele>2147.2</ele>
        <time>2025-02-20T12:37:51Z</time>
      </trkpt>
      <trkpt lat="45.61428" lon="6.51794">
        <ele>2147.2</ele>
        <time>2025-02-20T12:37:52Z</time>
      </trkpt>
      <trkpt lat="45.61428" lon="6.51794">
        <ele>2147.8</ele>
        <time>2025-02-20T12:37:53Z</time>
      </trkpt>
      <trkpt lat="45.61428" lon="6.51794">
        <ele>2147.8</ele>
        <time>2025-02-20T12:37:54Z</time>
      </trkpt>
      <trkpt lat="45.61428" lon="6.51794">
        <ele>2147.8</ele>
        <time>2025-02-20T12:37:55Z</time>
      </trkpt>
      <trkpt lat="45.61428" lon="6.51794">
        <ele>2146.8</ele>
        <time>2025-02-20T12:37:56Z</time>
      </trkpt>
      <trkpt lat="45.61428" lon="6.51794">
        <ele>2147</ele>
        <time>2025-02-20T12:37:57Z</time>
      </trkpt>
      <trkpt lat="45.61428" lon="6.51794">
        <ele>2147</ele>
        <time>2025-02-20T12:37:58Z</time>
      </trkpt>
      <trkpt lat="45.61428" lon="6.51794">
        <ele>2147</ele>
        <time>2025-02-20T12:37:59Z</time>
      </trkpt>
      <trkpt lat="45.61428" lon="6.51794">
        <ele>2147</ele>
        <time>2025-02-20T12:38:00Z</time>
      </trkpt>
      <trkpt lat="45.61428" lon="6.51794">
        <ele>2147.2</ele>
        <time>2025-02-20T12:38:01Z</time>
      </trkpt>
      <trkpt lat="45.61428" lon="6.51794">
        <ele>2147.2</ele>
        <time>2025-02-20T12:38:02Z</time>
      </trkpt>
      <trkpt lat="45.61428" lon="6.51794">
        <ele>2147.2</ele>
        <time>2025-02-20T12:38:03Z</time>
      </trkpt>
      <trkpt lat="45.61428" lon="6.51794">
        <ele>2147.2</ele>
        <time>2025-02-20T12:38:04Z</time>
      </trkpt>
      <trkpt lat="45.61428" lon="6.51794">
        <ele>2147.2</ele>
        <time>2025-02-20T12:38:05Z</time>
      </trkpt>
      <trkpt lat="45.61428" lon="6.51794">
        <ele>2147.2</ele>
        <time>2025-02-20T12:38:06Z</time>
      </trkpt>
      <trkpt lat="45.61428" lon="6.51794">
        <ele>2147.2</ele>
        <time>2025-02-20T12:38:07Z</time>
      </trkpt>
      <trkpt lat="45.61428" lon="6.51794">
        <ele>2147.2</ele>
        <time>2025-02-20T12:38:08Z</time>
      </trkpt>
      <trkpt lat="45.61428" lon="6.51794">
        <ele>2146.8</ele>
        <time>2025-02-20T12:38:09Z</time>
      </trkpt>
      <trkpt lat="45.61428" lon="6.51794">
        <ele>2146.8</ele>
        <time>2025-02-20T12:38:10Z</time>
      </trkpt>
      <trkpt lat="45.61428" lon="6.51794">
        <ele>2146.8</ele>
        <time>2025-02-20T12:38:11Z</time>
      </trkpt>
      <trkpt lat="45.61428" lon="6.51794">
        <ele>2146.8</ele>
        <time>2025-02-20T12:38:12Z</time>
      </trkpt>
      <trkpt lat="45.61428" lon="6.51794">
        <ele>2147.4</ele>
        <time>2025-02-20T12:38:13Z</time>
      </trkpt>
      <trkpt lat="45.61428" lon="6.51794">
        <ele>2147.4</ele>
        <time>2025-02-20T12:38:14Z</time>
      </trkpt>
      <trkpt lat="45.61428" lon="6.51794">
        <ele>2147.4</ele>
        <time>2025-02-20T12:38:15Z</time>
      </trkpt>
      <trkpt lat="45.61428" lon="6.51794">
        <ele>2147.4</ele>
        <time>2025-02-20T12:38:16Z</time>
      </trkpt>
      <trkpt lat="45.61428" lon="6.51794">
        <ele>2147.6</ele>
        <time>2025-02-20T12:38:17Z</time>
      </trkpt>
      <trkpt lat="45.61428" lon="6.51794">
        <ele>2147.6</ele>
        <time>2025-02-20T12:38:18Z</time>
      </trkpt>
      <trkpt lat="45.61428" lon="6.51794">
        <ele>2147.6</ele>
        <time>2025-02-20T12:38:19Z</time>
      </trkpt>
      <trkpt lat="45.61428" lon="6.51794">
        <ele>2147.2</ele>
        <time>2025-02-20T12:38:20Z</time>
      </trkpt>
      <trkpt lat="45.61428" lon="6.51794">
        <ele>2147</ele>
        <time>2025-02-20T12:38:21Z</time>
      </trkpt>
      <trkpt lat="45.61428" lon="6.51794">
        <ele>2147</ele>
        <time>2025-02-20T12:38:22Z</time>
      </trkpt>
      <trkpt lat="45.61428" lon="6.51794">
        <ele>2147</ele>
        <time>2025-02-20T12:38:23Z</time>
      </trkpt>
      <trkpt lat="45.61428" lon="6.51794">
        <ele>2147</ele>
        <time>2025-02-20T12:38:24Z</time>
      </trkpt>
      <trkpt lat="45.61428" lon="6.51794">
        <ele>2147</ele>
        <time>2025-02-20T12:38:25Z</time>
      </trkpt>
      <trkpt lat="45.61428" lon="6.51794">
        <ele>2147</ele>
        <time>2025-02-20T12:38:26Z</time>
      </trkpt>
      <trkpt lat="45.61428" lon="6.51794">
        <ele>2147</ele>
        <time>2025-02-20T12:38:27Z</time>
      </trkpt>
      <trkpt lat="45.61428" lon="6.51794">
        <ele>2147</ele>
        <time>2025-02-20T12:38:28Z</time>
      </trkpt>
      <trkpt lat="45.61428" lon="6.51794">
        <ele>2146.8</ele>
        <time>2025-02-20T12:38:29Z</time>
      </trkpt>
      <trkpt lat="45.61428" lon="6.51794">
        <ele>2146.8</ele>
        <time>2025-02-20T12:38:30Z</time>
      </trkpt>
      <trkpt lat="45.61428" lon="6.51794">
        <ele>2146.8</ele>
        <time>2025-02-20T12:38:31Z</time>
      </trkpt>
      <trkpt lat="45.61428" lon="6.51794">
        <ele>2147</ele>
        <time>2025-02-20T12:38:32Z</time>
      </trkpt>
      <trkpt lat="45.61428" lon="6.51794">
        <ele>2147</ele>
        <time>2025-02-20T12:38:33Z</time>
      </trkpt>
      <trkpt lat="45.61428" lon="6.51794">
        <ele>2147</ele>
        <time>2025-02-20T12:38:34Z</time>
      </trkpt>
      <trkpt lat="45.61428" lon="6.51794">
        <ele>2147</ele>
        <time>2025-02-20T12:38:35Z</time>
      </trkpt>
      <trkpt lat="45.61428" lon="6.51794">
        <ele>2147</ele>
        <time>2025-02-20T12:38:36Z</time>
      </trkpt>
      <trkpt lat="45.61428" lon="6.51794">
        <ele>2147.4</ele>
        <time>2025-02-20T12:38:37Z</time>
      </trkpt>
      <trkpt lat="45.61428" lon="6.51794">
        <ele>2147.4</ele>
        <time>2025-02-20T12:38:38Z</time>
      </trkpt>
      <trkpt lat="45.61428" lon="6.51794">
        <ele>2147.4</ele>
        <time>2025-02-20T12:38:39Z</time>
      </trkpt>
      <trkpt lat="45.61428" lon="6.51794">
        <ele>2146.8</ele>
        <time>2025-02-20T12:38:40Z</time>
      </trkpt>
      <trkpt lat="45.61428" lon="6.51794">
        <ele>2146.8</ele>
        <time>2025-02-20T12:38:41Z</time>
      </trkpt>
      <trkpt lat="45.61428" lon="6.51794">
        <ele>2146.8</ele>
        <time>2025-02-20T12:38:42Z</time>
      </trkpt>
      <trkpt lat="45.61428" lon="6.51794">
        <ele>2146.8</ele>
        <time>2025-02-20T12:38:43Z</time>
      </trkpt>
      <trkpt lat="45.61428" lon="6.51794">
        <ele>2147.6</ele>
        <time>2025-02-20T12:38:44Z</time>
      </trkpt>
      <trkpt lat="45.61428" lon="6.51794">
        <ele>2147.4</ele>
        <time>2025-02-20T12:38:45Z</time>
      </trkpt>
      <trkpt lat="45.61428" lon="6.51794">
        <ele>2147.4</ele>
        <time>2025-02-20T12:38:46Z</time>
      </trkpt>
      <trkpt lat="45.61428" lon="6.51794">
        <ele>2147.4</ele>
        <time>2025-02-20T12:38:47Z</time>
      </trkpt>
      <trkpt lat="45.61428" lon="6.51794">
        <ele>2147.4</ele>
        <time>2025-02-20T12:38:48Z</time>
      </trkpt>
      <trkpt lat="45.61428" lon="6.51794">
        <ele>2147</ele>
        <time>2025-02-20T12:38:49Z</time>
      </trkpt>
      <trkpt lat="45.61428" lon="6.51794">
        <ele>2147</ele>
        <time>2025-02-20T12:38:50Z</time>
      </trkpt>
      <trkpt lat="45.61428" lon="6.51794">
        <ele>2147</ele>
        <time>2025-02-20T12:38:51Z</time>
      </trkpt>
      <trkpt lat="45.61428" lon="6.51794">
        <ele>2147</ele>
        <time>2025-02-20T12:38:52Z</time>
      </trkpt>
      <trkpt lat="45.61428" lon="6.51794">
        <ele>2146.8</ele>
        <time>2025-02-20T12:38:53Z</time>
      </trkpt>
      <trkpt lat="45.61428" lon="6.51794">
        <ele>2146.8</ele>
        <time>2025-02-20T12:38:54Z</time>
      </trkpt>
      <trkpt lat="45.61428" lon="6.51794">
        <ele>2146.8</ele>
        <time>2025-02-20T12:38:55Z</time>
      </trkpt>
      <trkpt lat="45.61428" lon="6.51794">
        <ele>2147.6</ele>
        <time>2025-02-20T12:38:56Z</time>
      </trkpt>
      <trkpt lat="45.61428" lon="6.51794">
        <ele>2147.4</ele>
        <time>2025-02-20T12:38:57Z</time>
      </trkpt>
      <trkpt lat="45.61428" lon="6.51794">
        <ele>2147.4</ele>
        <time>2025-02-20T12:38:58Z</time>
      </trkpt>
      <trkpt lat="45.61428" lon="6.51794">
        <ele>2147.4</ele>
        <time>2025-02-20T12:38:59Z</time>
      </trkpt>
      <trkpt lat="45.61428" lon="6.51794">
        <ele>2147.4</ele>
        <time>2025-02-20T12:39:00Z</time>
      </trkpt>
      <trkpt lat="45.61428" lon="6.51794">
        <ele>2146.8</ele>
        <time>2025-02-20T12:39:01Z</time>
      </trkpt>
      <trkpt lat="45.61428" lon="6.51794">
        <ele>2146.8</ele>
        <time>2025-02-20T12:39:02Z</time>
      </trkpt>
      <trkpt lat="45.61428" lon="6.51794">
        <ele>2146.8</ele>
        <time>2025-02-20T12:39:03Z</time>
      </trkpt>
      <trkpt lat="45.61428" lon="6.51794">
        <ele>2147.2</ele>
        <time>2025-02-20T12:39:04Z</time>
      </trkpt>
      <trkpt lat="45.61428" lon="6.51794">
        <ele>2147.4</ele>
        <time>2025-02-20T12:39:05Z</time>
      </trkpt>
      <trkpt lat="45.61428" lon="6.51794">
        <ele>2147.4</ele>
        <time>2025-02-20T12:39:06Z</time>
      </trkpt>
      <trkpt lat="45.61428" lon="6.51794">
        <ele>2147.4</ele>
        <time>2025-02-20T12:39:07Z</time>
      </trkpt>
      <trkpt lat="45.61428" lon="6.51794">
        <ele>2147.4</ele>
        <time>2025-02-20T12:39:08Z</time>
      </trkpt>
      <trkpt lat="45.61428" lon="6.51794">
        <ele>2146.8</ele>
        <time>2025-02-20T12:39:09Z</time>
      </trkpt>
      <trkpt lat="45.61428" lon="6.51794">
        <ele>2146.8</ele>
        <time>2025-02-20T12:39:10Z</time>
      </trkpt>
      <trkpt lat="45.61428" lon="6.51794">
        <ele>2146.8</ele>
        <time>2025-02-20T12:39:11Z</time>
      </trkpt>
      <trkpt lat="45.61428" lon="6.51794">
        <ele>2146.8</ele>
        <time>2025-02-20T12:39:12Z</time>
      </trkpt>
      <trkpt lat="45.61428" lon="6.51794">
        <ele>2147.4</ele>
        <time>2025-02-20T12:39:13Z</time>
      </trkpt>
      <trkpt lat="45.61428" lon="6.51794">
        <ele>2147.4</ele>
        <time>2025-02-20T12:39:14Z</time>
      </trkpt>
      <trkpt lat="45.61428" lon="6.51794">
        <ele>2147.4</ele>
        <time>2025-02-20T12:39:15Z</time>
      </trkpt>
      <trkpt lat="45.61428" lon="6.51794">
        <ele>2147.4</ele>
        <time>2025-02-20T12:39:16Z</time>
      </trkpt>
      <trkpt lat="45.61428" lon="6.51794">
        <ele>2146.8</ele>
        <time>2025-02-20T12:39:17Z</time>
      </trkpt>
      <trkpt lat="45.61428" lon="6.51794">
        <ele>2146.8</ele>
        <time>2025-02-20T12:39:18Z</time>
      </trkpt>
      <trkpt lat="45.61428" lon="6.51794">
        <ele>2146.8</ele>
        <time>2025-02-20T12:39:19Z</time>
      </trkpt>
      <trkpt lat="45.61428" lon="6.51794">
        <ele>2147</ele>
        <time>2025-02-20T12:39:20Z</time>
      </trkpt>
      <trkpt lat="45.61428" lon="6.51794">
        <ele>2146.6</ele>
        <time>2025-02-20T12:39:21Z</time>
      </trkpt>
      <trkpt lat="45.61428" lon="6.51794">
        <ele>2146.6</ele>
        <time>2025-02-20T12:39:22Z</time>
      </trkpt>
      <trkpt lat="45.61428" lon="6.51794">
        <ele>2146.6</ele>
        <time>2025-02-20T12:39:23Z</time>
      </trkpt>
      <trkpt lat="45.61428" lon="6.51794">
        <ele>2146.8</ele>
        <time>2025-02-20T12:39:24Z</time>
      </trkpt>
      <trkpt lat="45.61428" lon="6.51794">
        <ele>2147.4</ele>
        <time>2025-02-20T12:39:25Z</time>
      </trkpt>
      <trkpt lat="45.61428" lon="6.51794">
        <ele>2147.4</ele>
        <time>2025-02-20T12:39:26Z</time>
      </trkpt>
      <trkpt lat="45.61428" lon="6.51794">
        <ele>2147.4</ele>
        <time>2025-02-20T12:39:27Z</time>
      </trkpt>
      <trkpt lat="45.61428" lon="6.51794">
        <ele>2147.4</ele>
        <time>2025-02-20T12:39:28Z</time>
      </trkpt>
      <trkpt lat="45.61428" lon="6.51794">
        <ele>2148.2</ele>
        <time>2025-02-20T12:39:29Z</time>
      </trkpt>
      <trkpt lat="45.61428" lon="6.51794">
        <ele>2148.2</ele>
        <time>2025-02-20T12:39:30Z</time>
      </trkpt>
      <trkpt lat="45.61428" lon="6.51794">
        <ele>2148.2</ele>
        <time>2025-02-20T12:39:31Z</time>
      </trkpt>
      <trkpt lat="45.61428" lon="6.51794">
        <ele>2147.4</ele>
        <time>2025-02-20T12:39:32Z</time>
      </trkpt>
      <trkpt lat="45.61428" lon="6.51794">
        <ele>2148.2</ele>
        <time>2025-02-20T12:39:33Z</time>
      </trkpt>
      <trkpt lat="45.61428" lon="6.51794">
        <ele>2148.2</ele>
        <time>2025-02-20T12:39:34Z</time>
      </trkpt>
      <trkpt lat="45.61428" lon="6.51794">
        <ele>2148.2</ele>
        <time>2025-02-20T12:39:35Z</time>
      </trkpt>
      <trkpt lat="45.61428" lon="6.51794">
        <ele>2147.4</ele>
        <time>2025-02-20T12:39:36Z</time>
      </trkpt>
      <trkpt lat="45.61428" lon="6.51794">
        <ele>2148</ele>
        <time>2025-02-20T12:39:37Z</time>
      </trkpt>
      <trkpt lat="45.61428" lon="6.51794">
        <ele>2148</ele>
        <time>2025-02-20T12:39:38Z</time>
      </trkpt>
      <trkpt lat="45.61417" lon="6.51778">
        <ele>2148</ele>
        <time>2025-02-20T12:39:39Z</time>
      </trkpt>
      <trkpt lat="45.61417" lon="6.51778">
        <ele>2148</ele>
        <time>2025-02-20T12:39:40Z</time>
      </trkpt>
      <trkpt lat="45.61417" lon="6.51777">
        <ele>2148.2</ele>
        <time>2025-02-20T12:39:41Z</time>
      </trkpt>
      <trkpt lat="45.61417" lon="6.51776">
        <ele>2148.2</ele>
        <time>2025-02-20T12:39:42Z</time>
      </trkpt>
      <trkpt lat="45.61417" lon="6.51775">
        <ele>2148.2</ele>
        <time>2025-02-20T12:39:43Z</time>
      </trkpt>
      <trkpt lat="45.61417" lon="6.51775">
        <ele>2149.2</ele>
        <time>2025-02-20T12:39:44Z</time>
      </trkpt>
      <trkpt lat="45.61416" lon="6.51774">
        <ele>2149.2</ele>
        <time>2025-02-20T12:39:45Z</time>
      </trkpt>
      <trkpt lat="45.61416" lon="6.51773">
        <ele>2149.2</ele>
        <time>2025-02-20T12:39:46Z</time>
      </trkpt>
      <trkpt lat="45.61416" lon="6.51772">
        <ele>2149.2</ele>
        <time>2025-02-20T12:39:47Z</time>
      </trkpt>
      <trkpt lat="45.61416" lon="6.51772">
        <ele>2150.2</ele>
        <time>2025-02-20T12:39:48Z</time>
      </trkpt>
      <trkpt lat="45.61416" lon="6.51772">
        <ele>2150.4</ele>
        <time>2025-02-20T12:39:49Z</time>
      </trkpt>
      <trkpt lat="45.61416" lon="6.51772">
        <ele>2150.4</ele>
        <time>2025-02-20T12:39:50Z</time>
      </trkpt>
      <trkpt lat="45.61416" lon="6.51772">
        <ele>2150.4</ele>
        <time>2025-02-20T12:39:51Z</time>
      </trkpt>
      <trkpt lat="45.61416" lon="6.51772">
        <ele>2150.4</ele>
        <time>2025-02-20T12:39:52Z</time>
      </trkpt>
      <trkpt lat="45.61415" lon="6.51769">
        <ele>2149.4</ele>
        <time>2025-02-20T12:39:53Z</time>
      </trkpt>
      <trkpt lat="45.61415" lon="6.51768">
        <ele>2149.4</ele>
        <time>2025-02-20T12:39:54Z</time>
      </trkpt>
      <trkpt lat="45.61414" lon="6.51767">
        <ele>2149.4</ele>
        <time>2025-02-20T12:39:55Z</time>
      </trkpt>
      <trkpt lat="45.61414" lon="6.51766">
        <ele>2149.4</ele>
        <time>2025-02-20T12:39:56Z</time>
      </trkpt>
      <trkpt lat="45.61414" lon="6.51766">
        <ele>2149.4</ele>
        <time>2025-02-20T12:39:57Z</time>
      </trkpt>
      <trkpt lat="45.61414" lon="6.51764">
        <ele>2149.4</ele>
        <time>2025-02-20T12:39:58Z</time>
      </trkpt>
      <trkpt lat="45.61414" lon="6.51764">
        <ele>2149.4</ele>
        <time>2025-02-20T12:39:59Z</time>
      </trkpt>
      <trkpt lat="45.61414" lon="6.51763">
        <ele>2150.2</ele>
        <time>2025-02-20T12:40:00Z</time>
      </trkpt>
      <trkpt lat="45.61414" lon="6.51763">
        <ele>2150.6</ele>
        <time>2025-02-20T12:40:01Z</time>
      </trkpt>
      <trkpt lat="45.61413" lon="6.51762">
        <ele>2150.6</ele>
        <time>2025-02-20T12:40:02Z</time>
      </trkpt>
      <trkpt lat="45.61413" lon="6.51761">
        <ele>2150.6</ele>
        <time>2025-02-20T12:40:03Z</time>
      </trkpt>
      <trkpt lat="45.61413" lon="6.5176">
        <ele>2150.2</ele>
        <time>2025-02-20T12:40:04Z</time>
      </trkpt>
      <trkpt lat="45.61413" lon="6.5176">
        <ele>2150.2</ele>
        <time>2025-02-20T12:40:05Z</time>
      </trkpt>
      <trkpt lat="45.61413" lon="6.5176">
        <ele>2150.2</ele>
        <time>2025-02-20T12:40:06Z</time>
      </trkpt>
      <trkpt lat="45.61413" lon="6.5176">
        <ele>2150.2</ele>
        <time>2025-02-20T12:40:07Z</time>
      </trkpt>
      <trkpt lat="45.61412" lon="6.51759">
        <ele>2151.2</ele>
        <time>2025-02-20T12:40:08Z</time>
      </trkpt>
      <trkpt lat="45.61412" lon="6.51758">
        <ele>2150.6</ele>
        <time>2025-02-20T12:40:09Z</time>
      </trkpt>
      <trkpt lat="45.61412" lon="6.51758">
        <ele>2150.6</ele>
        <time>2025-02-20T12:40:10Z</time>
      </trkpt>
      <trkpt lat="45.61412" lon="6.51758">
        <ele>2150.6</ele>
        <time>2025-02-20T12:40:11Z</time>
      </trkpt>
      <trkpt lat="45.61412" lon="6.51758">
        <ele>2151.6</ele>
        <time>2025-02-20T12:40:12Z</time>
      </trkpt>
      <trkpt lat="45.61412" lon="6.51758">
        <ele>2151.6</ele>
        <time>2025-02-20T12:40:13Z</time>
      </trkpt>
      <trkpt lat="45.61412" lon="6.51758">
        <ele>2151.6</ele>
        <time>2025-02-20T12:40:14Z</time>
      </trkpt>
      <trkpt lat="45.61412" lon="6.51758">
        <ele>2151.6</ele>
        <time>2025-02-20T12:40:15Z</time>
      </trkpt>
      <trkpt lat="45.61412" lon="6.51758">
        <ele>2152.6</ele>
        <time>2025-02-20T12:40:16Z</time>
      </trkpt>
      <trkpt lat="45.61411" lon="6.51754">
        <ele>2152.2</ele>
        <time>2025-02-20T12:40:17Z</time>
      </trkpt>
      <trkpt lat="45.61411" lon="6.51754">
        <ele>2152.2</ele>
        <time>2025-02-20T12:40:18Z</time>
      </trkpt>
      <trkpt lat="45.61411" lon="6.51754">
        <ele>2152.2</ele>
        <time>2025-02-20T12:40:19Z</time>
      </trkpt>
      <trkpt lat="45.61411" lon="6.51754">
        <ele>2152.2</ele>
        <time>2025-02-20T12:40:20Z</time>
      </trkpt>
      <trkpt lat="45.61411" lon="6.51754">
        <ele>2153.4</ele>
        <time>2025-02-20T12:40:21Z</time>
      </trkpt>
      <trkpt lat="45.61411" lon="6.51754">
        <ele>2153.4</ele>
        <time>2025-02-20T12:40:22Z</time>
      </trkpt>
      <trkpt lat="45.6141" lon="6.51752">
        <ele>2153.4</ele>
        <time>2025-02-20T12:40:23Z</time>
      </trkpt>
      <trkpt lat="45.6141" lon="6.51751">
        <ele>2153.4</ele>
        <time>2025-02-20T12:40:24Z</time>
      </trkpt>
      <trkpt lat="45.6141" lon="6.51751">
        <ele>2153.8</ele>
        <time>2025-02-20T12:40:25Z</time>
      </trkpt>
      <trkpt lat="45.6141" lon="6.5175">
        <ele>2153.8</ele>
        <time>2025-02-20T12:40:26Z</time>
      </trkpt>
      <trkpt lat="45.6141" lon="6.51749">
        <ele>2153.8</ele>
        <time>2025-02-20T12:40:27Z</time>
      </trkpt>
      <trkpt lat="45.61409" lon="6.51749">
        <ele>2153.6</ele>
        <time>2025-02-20T12:40:28Z</time>
      </trkpt>
      <trkpt lat="45.61409" lon="6.51748">
        <ele>2152.6</ele>
        <time>2025-02-20T12:40:29Z</time>
      </trkpt>
      <trkpt lat="45.61409" lon="6.51748">
        <ele>2152.6</ele>
        <time>2025-02-20T12:40:30Z</time>
      </trkpt>
      <trkpt lat="45.61409" lon="6.51748">
        <ele>2152.6</ele>
        <time>2025-02-20T12:40:31Z</time>
      </trkpt>
      <trkpt lat="45.61409" lon="6.51748">
        <ele>2153.6</ele>
        <time>2025-02-20T12:40:32Z</time>
      </trkpt>
      <trkpt lat="45.61409" lon="6.51748">
        <ele>2154.4</ele>
        <time>2025-02-20T12:40:33Z</time>
      </trkpt>
      <trkpt lat="45.61409" lon="6.51748">
        <ele>2154.4</ele>
        <time>2025-02-20T12:40:34Z</time>
      </trkpt>
      <trkpt lat="45.6141" lon="6.51744">
        <ele>2154.4</ele>
        <time>2025-02-20T12:40:35Z</time>
      </trkpt>
      <trkpt lat="45.6141" lon="6.51743">
        <ele>2154.4</ele>
        <time>2025-02-20T12:40:36Z</time>
      </trkpt>
      <trkpt lat="45.6141" lon="6.51743">
        <ele>2154.8</ele>
        <time>2025-02-20T12:40:37Z</time>
      </trkpt>
      <trkpt lat="45.6141" lon="6.51743">
        <ele>2154.8</ele>
        <time>2025-02-20T12:40:38Z</time>
      </trkpt>
      <trkpt lat="45.6141" lon="6.51743">
        <ele>2154.8</ele>
        <time>2025-02-20T12:40:39Z</time>
      </trkpt>
      <trkpt lat="45.6141" lon="6.51743">
        <ele>2154.4</ele>
        <time>2025-02-20T12:40:40Z</time>
      </trkpt>
      <trkpt lat="45.6141" lon="6.51743">
        <ele>2155.4</ele>
        <time>2025-02-20T12:40:41Z</time>
      </trkpt>
      <trkpt lat="45.6141" lon="6.51743">
        <ele>2155.4</ele>
        <time>2025-02-20T12:40:42Z</time>
      </trkpt>
      <trkpt lat="45.6141" lon="6.51743">
        <ele>2155.4</ele>
        <time>2025-02-20T12:40:43Z</time>
      </trkpt>
      <trkpt lat="45.6141" lon="6.51743">
        <ele>2155.4</ele>
        <time>2025-02-20T12:40:44Z</time>
      </trkpt>
      <trkpt lat="45.6141" lon="6.51743">
        <ele>2155</ele>
        <time>2025-02-20T12:40:45Z</time>
      </trkpt>
      <trkpt lat="45.6141" lon="6.51743">
        <ele>2155</ele>
        <time>2025-02-20T12:40:46Z</time>
      </trkpt>
      <trkpt lat="45.6141" lon="6.51743">
        <ele>2155</ele>
        <time>2025-02-20T12:40:47Z</time>
      </trkpt>
      <trkpt lat="45.6141" lon="6.51743">
        <ele>2155</ele>
        <time>2025-02-20T12:40:48Z</time>
      </trkpt>
      <trkpt lat="45.6141" lon="6.51743">
        <ele>2156.2</ele>
        <time>2025-02-20T12:40:49Z</time>
      </trkpt>
      <trkpt lat="45.6141" lon="6.51743">
        <ele>2156.2</ele>
        <time>2025-02-20T12:40:50Z</time>
      </trkpt>
      <trkpt lat="45.6141" lon="6.51743">
        <ele>2156.2</ele>
        <time>2025-02-20T12:40:51Z</time>
      </trkpt>
      <trkpt lat="45.6141" lon="6.51743">
        <ele>2156.2</ele>
        <time>2025-02-20T12:40:52Z</time>
      </trkpt>
      <trkpt lat="45.6141" lon="6.51743">
        <ele>2157</ele>
        <time>2025-02-20T12:40:53Z</time>
      </trkpt>
      <trkpt lat="45.6141" lon="6.51743">
        <ele>2157</ele>
        <time>2025-02-20T12:40:54Z</time>
      </trkpt>
      <trkpt lat="45.6141" lon="6.51743">
        <ele>2157</ele>
        <time>2025-02-20T12:40:55Z</time>
      </trkpt>
      <trkpt lat="45.6141" lon="6.51743">
        <ele>2157</ele>
        <time>2025-02-20T12:40:56Z</time>
      </trkpt>
      <trkpt lat="45.61408" lon="6.51737">
        <ele>2157.4</ele>
        <time>2025-02-20T12:40:57Z</time>
      </trkpt>
      <trkpt lat="45.61408" lon="6.51737">
        <ele>2157.4</ele>
        <time>2025-02-20T12:40:58Z</time>
      </trkpt>
      <trkpt lat="45.61408" lon="6.51737">
        <ele>2157.4</ele>
        <time>2025-02-20T12:40:59Z</time>
      </trkpt>
      <trkpt lat="45.61407" lon="6.51738">
        <ele>2156.8</ele>
        <time>2025-02-20T12:41:00Z</time>
      </trkpt>
      <trkpt lat="45.61407" lon="6.51738">
        <ele>2158.2</ele>
        <time>2025-02-20T12:41:01Z</time>
      </trkpt>
      <trkpt lat="45.61406" lon="6.51739">
        <ele>2158.2</ele>
        <time>2025-02-20T12:41:02Z</time>
      </trkpt>
      <trkpt lat="45.61406" lon="6.5174">
        <ele>2158.2</ele>
        <time>2025-02-20T12:41:03Z</time>
      </trkpt>
      <trkpt lat="45.61406" lon="6.5174">
        <ele>2157.6</ele>
        <time>2025-02-20T12:41:04Z</time>
      </trkpt>
      <trkpt lat="45.61406" lon="6.5174">
        <ele>2158</ele>
        <time>2025-02-20T12:41:05Z</time>
      </trkpt>
      <trkpt lat="45.61406" lon="6.5174">
        <ele>2158</ele>
        <time>2025-02-20T12:41:06Z</time>
      </trkpt>
      <trkpt lat="45.61404" lon="6.51742">
        <ele>2158</ele>
        <time>2025-02-20T12:41:07Z</time>
      </trkpt>
      <trkpt lat="45.61404" lon="6.51742">
        <ele>2158</ele>
        <time>2025-02-20T12:41:08Z</time>
      </trkpt>
      <trkpt lat="45.61404" lon="6.51742">
        <ele>2158</ele>
        <time>2025-02-20T12:41:09Z</time>
      </trkpt>
      <trkpt lat="45.61404" lon="6.51742">
        <ele>2158</ele>
        <time>2025-02-20T12:41:10Z</time>
      </trkpt>
      <trkpt lat="45.61404" lon="6.51742">
        <ele>2158</ele>
        <time>2025-02-20T12:41:11Z</time>
      </trkpt>
      <trkpt lat="45.61404" lon="6.51742">
        <ele>2158.6</ele>
        <time>2025-02-20T12:41:12Z</time>
      </trkpt>
      <trkpt lat="45.61404" lon="6.51742">
        <ele>2158.4</ele>
        <time>2025-02-20T12:41:13Z</time>
      </trkpt>
      <trkpt lat="45.61401" lon="6.51744">
        <ele>2158.4</ele>
        <time>2025-02-20T12:41:14Z</time>
      </trkpt>
      <trkpt lat="45.61401" lon="6.51744">
        <ele>2158.4</ele>
        <time>2025-02-20T12:41:15Z</time>
      </trkpt>
      <trkpt lat="45.61401" lon="6.51744">
        <ele>2158.4</ele>
        <time>2025-02-20T12:41:16Z</time>
      </trkpt>
      <trkpt lat="45.61401" lon="6.51744">
        <ele>2159.6</ele>
        <time>2025-02-20T12:41:17Z</time>
      </trkpt>
      <trkpt lat="45.61401" lon="6.51744">
        <ele>2159.6</ele>
        <time>2025-02-20T12:41:18Z</time>
      </trkpt>
      <trkpt lat="45.61399" lon="6.51745">
        <ele>2159.6</ele>
        <time>2025-02-20T12:41:19Z</time>
      </trkpt>
      <trkpt lat="45.61399" lon="6.51745">
        <ele>2159.6</ele>
        <time>2025-02-20T12:41:20Z</time>
      </trkpt>
      <trkpt lat="45.61398" lon="6.51745">
        <ele>2159.4</ele>
        <time>2025-02-20T12:41:21Z</time>
      </trkpt>
      <trkpt lat="45.61398" lon="6.51746">
        <ele>2159.4</ele>
        <time>2025-02-20T12:41:22Z</time>
      </trkpt>
      <trkpt lat="45.61398" lon="6.51746">
        <ele>2159.4</ele>
        <time>2025-02-20T12:41:23Z</time>
      </trkpt>
      <trkpt lat="45.61396" lon="6.51746">
        <ele>2159.4</ele>
        <time>2025-02-20T12:41:24Z</time>
      </trkpt>
      <trkpt lat="45.61396" lon="6.51746">
        <ele>2159.8</ele>
        <time>2025-02-20T12:41:25Z</time>
      </trkpt>
      <trkpt lat="45.61396" lon="6.51746">
        <ele>2159.8</ele>
        <time>2025-02-20T12:41:26Z</time>
      </trkpt>
      <trkpt lat="45.61395" lon="6.51747">
        <ele>2159.8</ele>
        <time>2025-02-20T12:41:27Z</time>
      </trkpt>
      <trkpt lat="45.61395" lon="6.51747">
        <ele>2159.8</ele>
        <time>2025-02-20T12:41:28Z</time>
      </trkpt>
      <trkpt lat="45.61395" lon="6.51747">
        <ele>2160.6</ele>
        <time>2025-02-20T12:41:29Z</time>
      </trkpt>
      <trkpt lat="45.61395" lon="6.51747">
        <ele>2160.6</ele>
        <time>2025-02-20T12:41:30Z</time>
      </trkpt>
      <trkpt lat="45.61393" lon="6.51747">
        <ele>2160.6</ele>
        <time>2025-02-20T12:41:31Z</time>
      </trkpt>
      <trkpt lat="45.61393" lon="6.51748">
        <ele>2161</ele>
        <time>2025-02-20T12:41:32Z</time>
      </trkpt>
      <trkpt lat="45.61392" lon="6.51748">
        <ele>2160.4</ele>
        <time>2025-02-20T12:41:33Z</time>
      </trkpt>
      <trkpt lat="45.61392" lon="6.51747">
        <ele>2160.4</ele>
        <time>2025-02-20T12:41:34Z</time>
      </trkpt>
      <trkpt lat="45.61392" lon="6.51747">
        <ele>2160.4</ele>
        <time>2025-02-20T12:41:35Z</time>
      </trkpt>
      <trkpt lat="45.61391" lon="6.51747">
        <ele>2161.4</ele>
        <time>2025-02-20T12:41:36Z</time>
      </trkpt>
      <trkpt lat="45.61391" lon="6.51746">
        <ele>2161.6</ele>
        <time>2025-02-20T12:41:37Z</time>
      </trkpt>
      <trkpt lat="45.61391" lon="6.51746">
        <ele>2161.6</ele>
        <time>2025-02-20T12:41:38Z</time>
      </trkpt>
      <trkpt lat="45.61391" lon="6.51746">
        <ele>2161.6</ele>
        <time>2025-02-20T12:41:39Z</time>
      </trkpt>
      <trkpt lat="45.61391" lon="6.51746">
        <ele>2161.6</ele>
        <time>2025-02-20T12:41:40Z</time>
      </trkpt>
      <trkpt lat="45.61391" lon="6.51746">
        <ele>2161.6</ele>
        <time>2025-02-20T12:41:41Z</time>
      </trkpt>
      <trkpt lat="45.61391" lon="6.51746">
        <ele>2161.6</ele>
        <time>2025-02-20T12:41:42Z</time>
      </trkpt>
      <trkpt lat="45.61391" lon="6.51746">
        <ele>2161.6</ele>
        <time>2025-02-20T12:41:43Z</time>
      </trkpt>
      <trkpt lat="45.61391" lon="6.51746">
        <ele>2161.6</ele>
        <time>2025-02-20T12:41:44Z</time>
      </trkpt>
      <trkpt lat="45.61391" lon="6.51746">
        <ele>2163.4</ele>
        <time>2025-02-20T12:41:45Z</time>
      </trkpt>
      <trkpt lat="45.61387" lon="6.51746">
        <ele>2163.4</ele>
        <time>2025-02-20T12:41:46Z</time>
      </trkpt>
      <trkpt lat="45.61387" lon="6.51746">
        <ele>2163.4</ele>
        <time>2025-02-20T12:41:47Z</time>
      </trkpt>
      <trkpt lat="45.61387" lon="6.51746">
        <ele>2163</ele>
        <time>2025-02-20T12:41:48Z</time>
      </trkpt>
      <trkpt lat="45.61387" lon="6.51746">
        <ele>2162.8</ele>
        <time>2025-02-20T12:41:49Z</time>
      </trkpt>
      <trkpt lat="45.61387" lon="6.51746">
        <ele>2162.8</ele>
        <time>2025-02-20T12:41:50Z</time>
      </trkpt>
      <trkpt lat="45.61387" lon="6.51746">
        <ele>2162.8</ele>
        <time>2025-02-20T12:41:51Z</time>
      </trkpt>
      <trkpt lat="45.61387" lon="6.51746">
        <ele>2162.8</ele>
        <time>2025-02-20T12:41:52Z</time>
      </trkpt>
      <trkpt lat="45.61387" lon="6.51746">
        <ele>2163.6</ele>
        <time>2025-02-20T12:41:53Z</time>
      </trkpt>
      <trkpt lat="45.61387" lon="6.51746">
        <ele>2163.6</ele>
        <time>2025-02-20T12:41:54Z</time>
      </trkpt>
      <trkpt lat="45.61387" lon="6.51746">
        <ele>2163.6</ele>
        <time>2025-02-20T12:41:55Z</time>
      </trkpt>
      <trkpt lat="45.61383" lon="6.51744">
        <ele>2163.6</ele>
        <time>2025-02-20T12:41:56Z</time>
      </trkpt>
      <trkpt lat="45.61383" lon="6.51743">
        <ele>2163.8</ele>
        <time>2025-02-20T12:41:57Z</time>
      </trkpt>
      <trkpt lat="45.61383" lon="6.51743">
        <ele>2163.8</ele>
        <time>2025-02-20T12:41:58Z</time>
      </trkpt>
      <trkpt lat="45.61382" lon="6.51744">
        <ele>2163.8</ele>
        <time>2025-02-20T12:41:59Z</time>
      </trkpt>
      <trkpt lat="45.61382" lon="6.51744">
        <ele>2163.8</ele>
        <time>2025-02-20T12:42:00Z</time>
      </trkpt>
      <trkpt lat="45.61382" lon="6.51744">
        <ele>2164.6</ele>
        <time>2025-02-20T12:42:01Z</time>
      </trkpt>
      <trkpt lat="45.61381" lon="6.51744">
        <ele>2164.6</ele>
        <time>2025-02-20T12:42:02Z</time>
      </trkpt>
      <trkpt lat="45.61381" lon="6.51744">
        <ele>2164.6</ele>
        <time>2025-02-20T12:42:03Z</time>
      </trkpt>
      <trkpt lat="45.6138" lon="6.51743">
        <ele>2164.6</ele>
        <time>2025-02-20T12:42:04Z</time>
      </trkpt>
      <trkpt lat="45.6138" lon="6.51743">
        <ele>2163.6</ele>
        <time>2025-02-20T12:42:05Z</time>
      </trkpt>
      <trkpt lat="45.6138" lon="6.51743">
        <ele>2163.6</ele>
        <time>2025-02-20T12:42:06Z</time>
      </trkpt>
      <trkpt lat="45.6138" lon="6.51743">
        <ele>2163.6</ele>
        <time>2025-02-20T12:42:07Z</time>
      </trkpt>
      <trkpt lat="45.6138" lon="6.51743">
        <ele>2164.6</ele>
        <time>2025-02-20T12:42:08Z</time>
      </trkpt>
      <trkpt lat="45.6138" lon="6.51739">
        <ele>2164.4</ele>
        <time>2025-02-20T12:42:09Z</time>
      </trkpt>
      <trkpt lat="45.61381" lon="6.51738">
        <ele>2164.4</ele>
        <time>2025-02-20T12:42:10Z</time>
      </trkpt>
      <trkpt lat="45.61381" lon="6.51738">
        <ele>2164.4</ele>
        <time>2025-02-20T12:42:11Z</time>
      </trkpt>
      <trkpt lat="45.61381" lon="6.51738">
        <ele>2164.4</ele>
        <time>2025-02-20T12:42:12Z</time>
      </trkpt>
      <trkpt lat="45.61381" lon="6.51738">
        <ele>2165.2</ele>
        <time>2025-02-20T12:42:13Z</time>
      </trkpt>
      <trkpt lat="45.61381" lon="6.51735">
        <ele>2165.2</ele>
        <time>2025-02-20T12:42:14Z</time>
      </trkpt>
      <trkpt lat="45.61381" lon="6.51735">
        <ele>2165.2</ele>
        <time>2025-02-20T12:42:15Z</time>
      </trkpt>
      <trkpt lat="45.61381" lon="6.51735">
        <ele>2166.2</ele>
        <time>2025-02-20T12:42:16Z</time>
      </trkpt>
      <trkpt lat="45.61381" lon="6.51735">
        <ele>2165.6</ele>
        <time>2025-02-20T12:42:17Z</time>
      </trkpt>
      <trkpt lat="45.61381" lon="6.51735">
        <ele>2165.6</ele>
        <time>2025-02-20T12:42:18Z</time>
      </trkpt>
      <trkpt lat="45.61381" lon="6.51735">
        <ele>2165.6</ele>
        <time>2025-02-20T12:42:19Z</time>
      </trkpt>
      <trkpt lat="45.61381" lon="6.51735">
        <ele>2165.6</ele>
        <time>2025-02-20T12:42:20Z</time>
      </trkpt>
      <trkpt lat="45.61381" lon="6.51735">
        <ele>2166</ele>
        <time>2025-02-20T12:42:21Z</time>
      </trkpt>
      <trkpt lat="45.61381" lon="6.51735">
        <ele>2166</ele>
        <time>2025-02-20T12:42:22Z</time>
      </trkpt>
      <trkpt lat="45.61381" lon="6.51735">
        <ele>2166</ele>
        <time>2025-02-20T12:42:23Z</time>
      </trkpt>
      <trkpt lat="45.61381" lon="6.51735">
        <ele>2166</ele>
        <time>2025-02-20T12:42:24Z</time>
      </trkpt>
      <trkpt lat="45.6138" lon="6.5173">
        <ele>2166.2</ele>
        <time>2025-02-20T12:42:25Z</time>
      </trkpt>
      <trkpt lat="45.6138" lon="6.51729">
        <ele>2166.2</ele>
        <time>2025-02-20T12:42:26Z</time>
      </trkpt>
      <trkpt lat="45.6138" lon="6.51729">
        <ele>2166.2</ele>
        <time>2025-02-20T12:42:27Z</time>
      </trkpt>
      <trkpt lat="45.6138" lon="6.51729">
        <ele>2167</ele>
        <time>2025-02-20T12:42:28Z</time>
      </trkpt>
      <trkpt lat="45.6138" lon="6.51729">
        <ele>2167.2</ele>
        <time>2025-02-20T12:42:29Z</time>
      </trkpt>
      <trkpt lat="45.6138" lon="6.51729">
        <ele>2167.2</ele>
        <time>2025-02-20T12:42:30Z</time>
      </trkpt>
      <trkpt lat="45.6138" lon="6.51729">
        <ele>2167.2</ele>
        <time>2025-02-20T12:42:31Z</time>
      </trkpt>
      <trkpt lat="45.6138" lon="6.51729">
        <ele>2167.2</ele>
        <time>2025-02-20T12:42:32Z</time>
      </trkpt>
      <trkpt lat="45.6138" lon="6.51729">
        <ele>2168</ele>
        <time>2025-02-20T12:42:33Z</time>
      </trkpt>
      <trkpt lat="45.6138" lon="6.51729">
        <ele>2168</ele>
        <time>2025-02-20T12:42:34Z</time>
      </trkpt>
      <trkpt lat="45.6138" lon="6.51729">
        <ele>2168</ele>
        <time>2025-02-20T12:42:35Z</time>
      </trkpt>
      <trkpt lat="45.6138" lon="6.51729">
        <ele>2168</ele>
        <time>2025-02-20T12:42:36Z</time>
      </trkpt>
      <trkpt lat="45.6138" lon="6.51729">
        <ele>2168.8</ele>
        <time>2025-02-20T12:42:37Z</time>
      </trkpt>
      <trkpt lat="45.6138" lon="6.51724">
        <ele>2168.8</ele>
        <time>2025-02-20T12:42:38Z</time>
      </trkpt>
      <trkpt lat="45.6138" lon="6.51723">
        <ele>2168.8</ele>
        <time>2025-02-20T12:42:39Z</time>
      </trkpt>
      <trkpt lat="45.6138" lon="6.51723">
        <ele>2168.8</ele>
        <time>2025-02-20T12:42:40Z</time>
      </trkpt>
      <trkpt lat="45.6138" lon="6.51723">
        <ele>2168.2</ele>
        <time>2025-02-20T12:42:41Z</time>
      </trkpt>
      <trkpt lat="45.6138" lon="6.51723">
        <ele>2168.2</ele>
        <time>2025-02-20T12:42:42Z</time>
      </trkpt>
      <trkpt lat="45.6138" lon="6.51723">
        <ele>2168.2</ele>
        <time>2025-02-20T12:42:43Z</time>
      </trkpt>
      <trkpt lat="45.6138" lon="6.51723">
        <ele>2168.2</ele>
        <time>2025-02-20T12:42:44Z</time>
      </trkpt>
      <trkpt lat="45.6138" lon="6.51723">
        <ele>2169.2</ele>
        <time>2025-02-20T12:42:45Z</time>
      </trkpt>
      <trkpt lat="45.61379" lon="6.5172">
        <ele>2169.2</ele>
        <time>2025-02-20T12:42:46Z</time>
      </trkpt>
      <trkpt lat="45.61379" lon="6.5172">
        <ele>2169.2</ele>
        <time>2025-02-20T12:42:47Z</time>
      </trkpt>
      <trkpt lat="45.61379" lon="6.5172">
        <ele>2169.2</ele>
        <time>2025-02-20T12:42:48Z</time>
      </trkpt>
      <trkpt lat="45.61379" lon="6.5172">
        <ele>2169.4</ele>
        <time>2025-02-20T12:42:49Z</time>
      </trkpt>
      <trkpt lat="45.61379" lon="6.5172">
        <ele>2169.4</ele>
        <time>2025-02-20T12:42:50Z</time>
      </trkpt>
      <trkpt lat="45.61379" lon="6.5172">
        <ele>2169.4</ele>
        <time>2025-02-20T12:42:51Z</time>
      </trkpt>
      <trkpt lat="45.61378" lon="6.51717">
        <ele>2169.4</ele>
        <time>2025-02-20T12:42:52Z</time>
      </trkpt>
      <trkpt lat="45.61379" lon="6.51716">
        <ele>2170</ele>
        <time>2025-02-20T12:42:53Z</time>
      </trkpt>
      <trkpt lat="45.61379" lon="6.51716">
        <ele>2170</ele>
        <time>2025-02-20T12:42:54Z</time>
      </trkpt>
      <trkpt lat="45.61379" lon="6.51716">
        <ele>2170</ele>
        <time>2025-02-20T12:42:55Z</time>
      </trkpt>
      <trkpt lat="45.61379" lon="6.51716">
        <ele>2170</ele>
        <time>2025-02-20T12:42:56Z</time>
      </trkpt>
      <trkpt lat="45.61379" lon="6.51716">
        <ele>2170.2</ele>
        <time>2025-02-20T12:42:57Z</time>
      </trkpt>
      <trkpt lat="45.61379" lon="6.51716">
        <ele>2170.2</ele>
        <time>2025-02-20T12:42:58Z</time>
      </trkpt>
      <trkpt lat="45.61379" lon="6.51716">
        <ele>2170.2</ele>
        <time>2025-02-20T12:42:59Z</time>
      </trkpt>
      <trkpt lat="45.61379" lon="6.51716">
        <ele>2170.2</ele>
        <time>2025-02-20T12:43:00Z</time>
      </trkpt>
      <trkpt lat="45.61379" lon="6.51716">
        <ele>2170.8</ele>
        <time>2025-02-20T12:43:01Z</time>
      </trkpt>
      <trkpt lat="45.61379" lon="6.51716">
        <ele>2170.8</ele>
        <time>2025-02-20T12:43:02Z</time>
      </trkpt>
      <trkpt lat="45.61379" lon="6.51716">
        <ele>2170.8</ele>
        <time>2025-02-20T12:43:03Z</time>
      </trkpt>
      <trkpt lat="45.61379" lon="6.51716">
        <ele>2170.8</ele>
        <time>2025-02-20T12:43:04Z</time>
      </trkpt>
      <trkpt lat="45.61379" lon="6.51716">
        <ele>2170.4</ele>
        <time>2025-02-20T12:43:05Z</time>
      </trkpt>
      <trkpt lat="45.61379" lon="6.51716">
        <ele>2170.4</ele>
        <time>2025-02-20T12:43:06Z</time>
      </trkpt>
      <trkpt lat="45.61379" lon="6.51716">
        <ele>2170.4</ele>
        <time>2025-02-20T12:43:07Z</time>
      </trkpt>
      <trkpt lat="45.61379" lon="6.51716">
        <ele>2170.6</ele>
        <time>2025-02-20T12:43:08Z</time>
      </trkpt>
      <trkpt lat="45.61379" lon="6.51716">
        <ele>2171.6</ele>
        <time>2025-02-20T12:43:09Z</time>
      </trkpt>
      <trkpt lat="45.61379" lon="6.51716">
        <ele>2171.6</ele>
        <time>2025-02-20T12:43:10Z</time>
      </trkpt>
      <trkpt lat="45.61379" lon="6.51716">
        <ele>2171.6</ele>
        <time>2025-02-20T12:43:11Z</time>
      </trkpt>
      <trkpt lat="45.61377" lon="6.51706">
        <ele>2171.6</ele>
        <time>2025-02-20T12:43:12Z</time>
      </trkpt>
      <trkpt lat="45.61377" lon="6.51705">
        <ele>2171</ele>
        <time>2025-02-20T12:43:13Z</time>
      </trkpt>
      <trkpt lat="45.61377" lon="6.51705">
        <ele>2171</ele>
        <time>2025-02-20T12:43:14Z</time>
      </trkpt>
      <trkpt lat="45.61377" lon="6.51703">
        <ele>2171</ele>
        <time>2025-02-20T12:43:15Z</time>
      </trkpt>
      <trkpt lat="45.61377" lon="6.51703">
        <ele>2171.2</ele>
        <time>2025-02-20T12:43:16Z</time>
      </trkpt>
      <trkpt lat="45.61377" lon="6.51703">
        <ele>2172.2</ele>
        <time>2025-02-20T12:43:17Z</time>
      </trkpt>
      <trkpt lat="45.61377" lon="6.51703">
        <ele>2172.2</ele>
        <time>2025-02-20T12:43:18Z</time>
      </trkpt>
      <trkpt lat="45.61377" lon="6.51703">
        <ele>2172.2</ele>
        <time>2025-02-20T12:43:19Z</time>
      </trkpt>
      <trkpt lat="45.61376" lon="6.51701">
        <ele>2172.2</ele>
        <time>2025-02-20T12:43:20Z</time>
      </trkpt>
      <trkpt lat="45.61376" lon="6.51701">
        <ele>2171.4</ele>
        <time>2025-02-20T12:43:21Z</time>
      </trkpt>
      <trkpt lat="45.61376" lon="6.51701">
        <ele>2171.4</ele>
        <time>2025-02-20T12:43:22Z</time>
      </trkpt>
      <trkpt lat="45.61376" lon="6.51701">
        <ele>2171.4</ele>
        <time>2025-02-20T12:43:23Z</time>
      </trkpt>
      <trkpt lat="45.61376" lon="6.51701">
        <ele>2172.4</ele>
        <time>2025-02-20T12:43:24Z</time>
      </trkpt>
      <trkpt lat="45.61376" lon="6.51698">
        <ele>2173.2</ele>
        <time>2025-02-20T12:43:25Z</time>
      </trkpt>
      <trkpt lat="45.61376" lon="6.51697">
        <ele>2173.2</ele>
        <time>2025-02-20T12:43:26Z</time>
      </trkpt>
      <trkpt lat="45.61376" lon="6.51697">
        <ele>2173.2</ele>
        <time>2025-02-20T12:43:27Z</time>
      </trkpt>
      <trkpt lat="45.61376" lon="6.51696">
        <ele>2173.2</ele>
        <time>2025-02-20T12:43:28Z</time>
      </trkpt>
      <trkpt lat="45.61376" lon="6.51695">
        <ele>2173.2</ele>
        <time>2025-02-20T12:43:29Z</time>
      </trkpt>
      <trkpt lat="45.61376" lon="6.51695">
        <ele>2173.2</ele>
        <time>2025-02-20T12:43:30Z</time>
      </trkpt>
      <trkpt lat="45.61376" lon="6.51695">
        <ele>2173.2</ele>
        <time>2025-02-20T12:43:31Z</time>
      </trkpt>
      <trkpt lat="45.61376" lon="6.51695">
        <ele>2174.2</ele>
        <time>2025-02-20T12:43:32Z</time>
      </trkpt>
      <trkpt lat="45.61376" lon="6.51695">
        <ele>2173.6</ele>
        <time>2025-02-20T12:43:33Z</time>
      </trkpt>
      <trkpt lat="45.61376" lon="6.51695">
        <ele>2173.6</ele>
        <time>2025-02-20T12:43:34Z</time>
      </trkpt>
      <trkpt lat="45.61376" lon="6.51695">
        <ele>2173.6</ele>
        <time>2025-02-20T12:43:35Z</time>
      </trkpt>
      <trkpt lat="45.61376" lon="6.51695">
        <ele>2173.6</ele>
        <time>2025-02-20T12:43:36Z</time>
      </trkpt>
      <trkpt lat="45.61376" lon="6.51695">
        <ele>2174.8</ele>
        <time>2025-02-20T12:43:37Z</time>
      </trkpt>
      <trkpt lat="45.61375" lon="6.51694">
        <ele>2174.8</ele>
        <time>2025-02-20T12:43:38Z</time>
      </trkpt>
      <trkpt lat="45.61375" lon="6.51694">
        <ele>2174.8</ele>
        <time>2025-02-20T12:43:39Z</time>
      </trkpt>
      <trkpt lat="45.61375" lon="6.51694">
        <ele>2174.8</ele>
        <time>2025-02-20T12:43:40Z</time>
      </trkpt>
      <trkpt lat="45.61375" lon="6.51694">
        <ele>2174.2</ele>
        <time>2025-02-20T12:43:41Z</time>
      </trkpt>
      <trkpt lat="45.61375" lon="6.51694">
        <ele>2174.2</ele>
        <time>2025-02-20T12:43:42Z</time>
      </trkpt>
      <trkpt lat="45.61375" lon="6.51692">
        <ele>2174.2</ele>
        <time>2025-02-20T12:43:43Z</time>
      </trkpt>
      <trkpt lat="45.61375" lon="6.51691">
        <ele>2174.2</ele>
        <time>2025-02-20T12:43:44Z</time>
      </trkpt>
      <trkpt lat="45.61375" lon="6.51691">
        <ele>2176.2</ele>
        <time>2025-02-20T12:43:45Z</time>
      </trkpt>
      <trkpt lat="45.61375" lon="6.51691">
        <ele>2176.2</ele>
        <time>2025-02-20T12:43:46Z</time>
      </trkpt>
      <trkpt lat="45.61375" lon="6.51691">
        <ele>2176.2</ele>
        <time>2025-02-20T12:43:47Z</time>
      </trkpt>
      <trkpt lat="45.61375" lon="6.51691">
        <ele>2175.2</ele>
        <time>2025-02-20T12:43:48Z</time>
      </trkpt>
      <trkpt lat="45.61375" lon="6.51691">
        <ele>2175.8</ele>
        <time>2025-02-20T12:43:49Z</time>
      </trkpt>
      <trkpt lat="45.61375" lon="6.51691">
        <ele>2175.8</ele>
        <time>2025-02-20T12:43:50Z</time>
      </trkpt>
      <trkpt lat="45.61375" lon="6.51691">
        <ele>2175.8</ele>
        <time>2025-02-20T12:43:51Z</time>
      </trkpt>
      <trkpt lat="45.61375" lon="6.51691">
        <ele>2175.8</ele>
        <time>2025-02-20T12:43:52Z</time>
      </trkpt>
      <trkpt lat="45.61375" lon="6.51691">
        <ele>2175.6</ele>
        <time>2025-02-20T12:43:53Z</time>
      </trkpt>
      <trkpt lat="45.61375" lon="6.51691">
        <ele>2175.6</ele>
        <time>2025-02-20T12:43:54Z</time>
      </trkpt>
      <trkpt lat="45.61375" lon="6.51691">
        <ele>2175.6</ele>
        <time>2025-02-20T12:43:55Z</time>
      </trkpt>
      <trkpt lat="45.61375" lon="6.51691">
        <ele>2175.6</ele>
        <time>2025-02-20T12:43:56Z</time>
      </trkpt>
      <trkpt lat="45.61375" lon="6.51691">
        <ele>2177.4</ele>
        <time>2025-02-20T12:43:57Z</time>
      </trkpt>
      <trkpt lat="45.61375" lon="6.51691">
        <ele>2177.4</ele>
        <time>2025-02-20T12:43:58Z</time>
      </trkpt>
      <trkpt lat="45.61375" lon="6.51691">
        <ele>2177.4</ele>
        <time>2025-02-20T12:43:59Z</time>
      </trkpt>
      <trkpt lat="45.61375" lon="6.51691">
        <ele>2177.2</ele>
        <time>2025-02-20T12:44:00Z</time>
      </trkpt>
      <trkpt lat="45.61375" lon="6.51691">
        <ele>2176.2</ele>
        <time>2025-02-20T12:44:01Z</time>
      </trkpt>
      <trkpt lat="45.61375" lon="6.51691">
        <ele>2176.2</ele>
        <time>2025-02-20T12:44:02Z</time>
      </trkpt>
      <trkpt lat="45.61375" lon="6.51691">
        <ele>2176.2</ele>
        <time>2025-02-20T12:44:03Z</time>
      </trkpt>
      <trkpt lat="45.61375" lon="6.51691">
        <ele>2177</ele>
        <time>2025-02-20T12:44:04Z</time>
      </trkpt>
      <trkpt lat="45.61374" lon="6.51686">
        <ele>2177.6</ele>
        <time>2025-02-20T12:44:05Z</time>
      </trkpt>
      <trkpt lat="45.61374" lon="6.51685">
        <ele>2177.6</ele>
        <time>2025-02-20T12:44:06Z</time>
      </trkpt>
      <trkpt lat="45.61374" lon="6.51685">
        <ele>2177.6</ele>
        <time>2025-02-20T12:44:07Z</time>
      </trkpt>
      <trkpt lat="45.61374" lon="6.51685">
        <ele>2177.6</ele>
        <time>2025-02-20T12:44:08Z</time>
      </trkpt>
      <trkpt lat="45.61374" lon="6.51685">
        <ele>2177.8</ele>
        <time>2025-02-20T12:44:09Z</time>
      </trkpt>
      <trkpt lat="45.61374" lon="6.51685">
        <ele>2177.8</ele>
        <time>2025-02-20T12:44:10Z</time>
      </trkpt>
      <trkpt lat="45.61374" lon="6.51685">
        <ele>2177.8</ele>
        <time>2025-02-20T12:44:11Z</time>
      </trkpt>
      <trkpt lat="45.61374" lon="6.51685">
        <ele>2177.8</ele>
        <time>2025-02-20T12:44:12Z</time>
      </trkpt>
      <trkpt lat="45.61374" lon="6.51685">
        <ele>2178.6</ele>
        <time>2025-02-20T12:44:13Z</time>
      </trkpt>
      <trkpt lat="45.61374" lon="6.51685">
        <ele>2178.6</ele>
        <time>2025-02-20T12:44:14Z</time>
      </trkpt>
      <trkpt lat="45.61373" lon="6.51682">
        <ele>2178.6</ele>
        <time>2025-02-20T12:44:15Z</time>
      </trkpt>
      <trkpt lat="45.61373" lon="6.51682">
        <ele>2178.6</ele>
        <time>2025-02-20T12:44:16Z</time>
      </trkpt>
      <trkpt lat="45.61373" lon="6.51682">
        <ele>2179.4</ele>
        <time>2025-02-20T12:44:17Z</time>
      </trkpt>
      <trkpt lat="45.61373" lon="6.51682">
        <ele>2179.4</ele>
        <time>2025-02-20T12:44:18Z</time>
      </trkpt>
      <trkpt lat="45.61373" lon="6.51682">
        <ele>2179.4</ele>
        <time>2025-02-20T12:44:19Z</time>
      </trkpt>
      <trkpt lat="45.61372" lon="6.51678">
        <ele>2178.4</ele>
        <time>2025-02-20T12:44:20Z</time>
      </trkpt>
      <trkpt lat="45.61371" lon="6.51677">
        <ele>2177.6</ele>
        <time>2025-02-20T12:44:21Z</time>
      </trkpt>
      <trkpt lat="45.61371" lon="6.51677">
        <ele>2177.6</ele>
        <time>2025-02-20T12:44:22Z</time>
      </trkpt>
      <trkpt lat="45.61371" lon="6.51677">
        <ele>2177.6</ele>
        <time>2025-02-20T12:44:23Z</time>
      </trkpt>
      <trkpt lat="45.61371" lon="6.51677">
        <ele>2178.6</ele>
        <time>2025-02-20T12:44:24Z</time>
      </trkpt>
      <trkpt lat="45.61371" lon="6.51677">
        <ele>2178.8</ele>
        <time>2025-02-20T12:44:25Z</time>
      </trkpt>
      <trkpt lat="45.61371" lon="6.51677">
        <ele>2178.8</ele>
        <time>2025-02-20T12:44:26Z</time>
      </trkpt>
      <trkpt lat="45.6137" lon="6.51674">
        <ele>2178.8</ele>
        <time>2025-02-20T12:44:27Z</time>
      </trkpt>
      <trkpt lat="45.6137" lon="6.51673">
        <ele>2178.8</ele>
        <time>2025-02-20T12:44:28Z</time>
      </trkpt>
      <trkpt lat="45.6137" lon="6.51673">
        <ele>2179.6</ele>
        <time>2025-02-20T12:44:29Z</time>
      </trkpt>
      <trkpt lat="45.61369" lon="6.51672">
        <ele>2179.6</ele>
        <time>2025-02-20T12:44:30Z</time>
      </trkpt>
      <trkpt lat="45.61369" lon="6.51672">
        <ele>2179.6</ele>
        <time>2025-02-20T12:44:31Z</time>
      </trkpt>
      <trkpt lat="45.61369" lon="6.51672">
        <ele>2179.6</ele>
        <time>2025-02-20T12:44:32Z</time>
      </trkpt>
      <trkpt lat="45.61369" lon="6.51672">
        <ele>2179.4</ele>
        <time>2025-02-20T12:44:33Z</time>
      </trkpt>
      <trkpt lat="45.61369" lon="6.51672">
        <ele>2179.4</ele>
        <time>2025-02-20T12:44:34Z</time>
      </trkpt>
      <trkpt lat="45.61368" lon="6.5167">
        <ele>2179.4</ele>
        <time>2025-02-20T12:44:35Z</time>
      </trkpt>
      <trkpt lat="45.61368" lon="6.5167">
        <ele>2180</ele>
        <time>2025-02-20T12:44:36Z</time>
      </trkpt>
      <trkpt lat="45.61368" lon="6.51669">
        <ele>2180.8</ele>
        <time>2025-02-20T12:44:37Z</time>
      </trkpt>
      <trkpt lat="45.61368" lon="6.51669">
        <ele>2180.8</ele>
        <time>2025-02-20T12:44:38Z</time>
      </trkpt>
      <trkpt lat="45.61368" lon="6.51669">
        <ele>2180.8</ele>
        <time>2025-02-20T12:44:39Z</time>
      </trkpt>
      <trkpt lat="45.61367" lon="6.51668">
        <ele>2180.8</ele>
        <time>2025-02-20T12:44:40Z</time>
      </trkpt>
      <trkpt lat="45.61367" lon="6.51667">
        <ele>2180.2</ele>
        <time>2025-02-20T12:44:41Z</time>
      </trkpt>
      <trkpt lat="45.61367" lon="6.51667">
        <ele>2180.2</ele>
        <time>2025-02-20T12:44:42Z</time>
      </trkpt>
      <trkpt lat="45.61367" lon="6.51667">
        <ele>2180.2</ele>
        <time>2025-02-20T12:44:43Z</time>
      </trkpt>
      <trkpt lat="45.61367" lon="6.51667">
        <ele>2181.2</ele>
        <time>2025-02-20T12:44:44Z</time>
      </trkpt>
      <trkpt lat="45.61367" lon="6.51667">
        <ele>2181</ele>
        <time>2025-02-20T12:44:45Z</time>
      </trkpt>
      <trkpt lat="45.61367" lon="6.51667">
        <ele>2181</ele>
        <time>2025-02-20T12:44:46Z</time>
      </trkpt>
      <trkpt lat="45.61366" lon="6.51666">
        <ele>2181</ele>
        <time>2025-02-20T12:44:47Z</time>
      </trkpt>
      <trkpt lat="45.61365" lon="6.51665">
        <ele>2181.8</ele>
        <time>2025-02-20T12:44:48Z</time>
      </trkpt>
      <trkpt lat="45.61365" lon="6.51665">
        <ele>2183.6</ele>
        <time>2025-02-20T12:44:49Z</time>
      </trkpt>
      <trkpt lat="45.61365" lon="6.51664">
        <ele>2183.6</ele>
        <time>2025-02-20T12:44:50Z</time>
      </trkpt>
      <trkpt lat="45.61364" lon="6.51663">
        <ele>2183.6</ele>
        <time>2025-02-20T12:44:51Z</time>
      </trkpt>
      <trkpt lat="45.61364" lon="6.51662">
        <ele>2182.6</ele>
        <time>2025-02-20T12:44:52Z</time>
      </trkpt>
      <trkpt lat="45.61364" lon="6.51662">
        <ele>2182</ele>
        <time>2025-02-20T12:44:53Z</time>
      </trkpt>
      <trkpt lat="45.61363" lon="6.51661">
        <ele>2182</ele>
        <time>2025-02-20T12:44:54Z</time>
      </trkpt>
      <trkpt lat="45.61363" lon="6.51661">
        <ele>2182</ele>
        <time>2025-02-20T12:44:55Z</time>
      </trkpt>
      <trkpt lat="45.61363" lon="6.51661">
        <ele>2183</ele>
        <time>2025-02-20T12:44:56Z</time>
      </trkpt>
      <trkpt lat="45.61363" lon="6.51661">
        <ele>2183.6</ele>
        <time>2025-02-20T12:44:57Z</time>
      </trkpt>
      <trkpt lat="45.61363" lon="6.51661">
        <ele>2183.6</ele>
        <time>2025-02-20T12:44:58Z</time>
      </trkpt>
      <trkpt lat="45.61362" lon="6.51661">
        <ele>2183.6</ele>
        <time>2025-02-20T12:44:59Z</time>
      </trkpt>
      <trkpt lat="45.61362" lon="6.51661">
        <ele>2183.6</ele>
        <time>2025-02-20T12:45:00Z</time>
      </trkpt>
      <trkpt lat="45.61362" lon="6.51661">
        <ele>2184.4</ele>
        <time>2025-02-20T12:45:01Z</time>
      </trkpt>
      <trkpt lat="45.61362" lon="6.51661">
        <ele>2184.4</ele>
        <time>2025-02-20T12:45:02Z</time>
      </trkpt>
      <trkpt lat="45.61362" lon="6.51661">
        <ele>2184.4</ele>
        <time>2025-02-20T12:45:03Z</time>
      </trkpt>
      <trkpt lat="45.6136" lon="6.5166">
        <ele>2184.4</ele>
        <time>2025-02-20T12:45:04Z</time>
      </trkpt>
      <trkpt lat="45.6136" lon="6.51659">
        <ele>2184.4</ele>
        <time>2025-02-20T12:45:05Z</time>
      </trkpt>
      <trkpt lat="45.61359" lon="6.51659">
        <ele>2184.4</ele>
        <time>2025-02-20T12:45:06Z</time>
      </trkpt>
      <trkpt lat="45.61359" lon="6.51658">
        <ele>2184.4</ele>
        <time>2025-02-20T12:45:07Z</time>
      </trkpt>
      <trkpt lat="45.61359" lon="6.51658">
        <ele>2184.4</ele>
        <time>2025-02-20T12:45:08Z</time>
      </trkpt>
      <trkpt lat="45.61358" lon="6.51658">
        <ele>2184.4</ele>
        <time>2025-02-20T12:45:09Z</time>
      </trkpt>
      <trkpt lat="45.61357" lon="6.51657">
        <ele>2184.4</ele>
        <time>2025-02-20T12:45:10Z</time>
      </trkpt>
      <trkpt lat="45.61357" lon="6.51656">
        <ele>2184.4</ele>
        <time>2025-02-20T12:45:11Z</time>
      </trkpt>
      <trkpt lat="45.61357" lon="6.51656">
        <ele>2185.2</ele>
        <time>2025-02-20T12:45:12Z</time>
      </trkpt>
      <trkpt lat="45.61357" lon="6.51656">
        <ele>2184.4</ele>
        <time>2025-02-20T12:45:13Z</time>
      </trkpt>
      <trkpt lat="45.61357" lon="6.51656">
        <ele>2184.4</ele>
        <time>2025-02-20T12:45:14Z</time>
      </trkpt>
      <trkpt lat="45.61357" lon="6.51656">
        <ele>2184.4</ele>
        <time>2025-02-20T12:45:15Z</time>
      </trkpt>
      <trkpt lat="45.61357" lon="6.51656">
        <ele>2184.4</ele>
        <time>2025-02-20T12:45:16Z</time>
      </trkpt>
      <trkpt lat="45.61357" lon="6.51656">
        <ele>2185.4</ele>
        <time>2025-02-20T12:45:17Z</time>
      </trkpt>
      <trkpt lat="45.61357" lon="6.51656">
        <ele>2185.4</ele>
        <time>2025-02-20T12:45:18Z</time>
      </trkpt>
      <trkpt lat="45.61357" lon="6.51656">
        <ele>2185.4</ele>
        <time>2025-02-20T12:45:19Z</time>
      </trkpt>
      <trkpt lat="45.61357" lon="6.51656">
        <ele>2185.4</ele>
        <time>2025-02-20T12:45:20Z</time>
      </trkpt>
      <trkpt lat="45.61357" lon="6.51656">
        <ele>2185.6</ele>
        <time>2025-02-20T12:45:21Z</time>
      </trkpt>
      <trkpt lat="45.61355" lon="6.51654">
        <ele>2185.6</ele>
        <time>2025-02-20T12:45:22Z</time>
      </trkpt>
      <trkpt lat="45.61355" lon="6.51654">
        <ele>2185.6</ele>
        <time>2025-02-20T12:45:23Z</time>
      </trkpt>
      <trkpt lat="45.61354" lon="6.51653">
        <ele>2185.2</ele>
        <time>2025-02-20T12:45:24Z</time>
      </trkpt>
      <trkpt lat="45.61353" lon="6.51653">
        <ele>2185</ele>
        <time>2025-02-20T12:45:25Z</time>
      </trkpt>
      <trkpt lat="45.61353" lon="6.51651">
        <ele>2185</ele>
        <time>2025-02-20T12:45:26Z</time>
      </trkpt>
      <trkpt lat="45.61352" lon="6.51651">
        <ele>2185</ele>
        <time>2025-02-20T12:45:27Z</time>
      </trkpt>
      <trkpt lat="45.61351" lon="6.5165">
        <ele>2186</ele>
        <time>2025-02-20T12:45:28Z</time>
      </trkpt>
      <trkpt lat="45.6135" lon="6.5165">
        <ele>2184.6</ele>
        <time>2025-02-20T12:45:29Z</time>
      </trkpt>
      <trkpt lat="45.61349" lon="6.5165">
        <ele>2184.6</ele>
        <time>2025-02-20T12:45:30Z</time>
      </trkpt>
      <trkpt lat="45.61349" lon="6.51649">
        <ele>2184.6</ele>
        <time>2025-02-20T12:45:31Z</time>
      </trkpt>
      <trkpt lat="45.61348" lon="6.51649">
        <ele>2185.6</ele>
        <time>2025-02-20T12:45:32Z</time>
      </trkpt>
      <trkpt lat="45.61348" lon="6.51649">
        <ele>2186</ele>
        <time>2025-02-20T12:45:33Z</time>
      </trkpt>
      <trkpt lat="45.61347" lon="6.51649">
        <ele>2186</ele>
        <time>2025-02-20T12:45:34Z</time>
      </trkpt>
      <trkpt lat="45.61347" lon="6.51648">
        <ele>2186</ele>
        <time>2025-02-20T12:45:35Z</time>
      </trkpt>
      <trkpt lat="45.61347" lon="6.51648">
        <ele>2186.8</ele>
        <time>2025-02-20T12:45:36Z</time>
      </trkpt>
      <trkpt lat="45.61346" lon="6.51648">
        <ele>2186.2</ele>
        <time>2025-02-20T12:45:37Z</time>
      </trkpt>
      <trkpt lat="45.61346" lon="6.51648">
        <ele>2186.2</ele>
        <time>2025-02-20T12:45:38Z</time>
      </trkpt>
      <trkpt lat="45.61345" lon="6.51648">
        <ele>2186.2</ele>
        <time>2025-02-20T12:45:39Z</time>
      </trkpt>
      <trkpt lat="45.61345" lon="6.51647">
        <ele>2186.6</ele>
        <time>2025-02-20T12:45:40Z</time>
      </trkpt>
      <trkpt lat="45.61344" lon="6.51647">
        <ele>2186.4</ele>
        <time>2025-02-20T12:45:41Z</time>
      </trkpt>
      <trkpt lat="45.61344" lon="6.51646">
        <ele>2186.4</ele>
        <time>2025-02-20T12:45:42Z</time>
      </trkpt>
      <trkpt lat="45.61343" lon="6.51646">
        <ele>2186.4</ele>
        <time>2025-02-20T12:45:43Z</time>
      </trkpt>
      <trkpt lat="45.61343" lon="6.51645">
        <ele>2187</ele>
        <time>2025-02-20T12:45:44Z</time>
      </trkpt>
      <trkpt lat="45.61342" lon="6.51645">
        <ele>2186.8</ele>
        <time>2025-02-20T12:45:45Z</time>
      </trkpt>
      <trkpt lat="45.61342" lon="6.51645">
        <ele>2186.8</ele>
        <time>2025-02-20T12:45:46Z</time>
      </trkpt>
      <trkpt lat="45.61341" lon="6.51645">
        <ele>2186.8</ele>
        <time>2025-02-20T12:45:47Z</time>
      </trkpt>
      <trkpt lat="45.6134" lon="6.51645">
        <ele>2186.8</ele>
        <time>2025-02-20T12:45:48Z</time>
      </trkpt>
      <trkpt lat="45.6134" lon="6.51645">
        <ele>2186.6</ele>
        <time>2025-02-20T12:45:49Z</time>
      </trkpt>
      <trkpt lat="45.6134" lon="6.51645">
        <ele>2186.6</ele>
        <time>2025-02-20T12:45:50Z</time>
      </trkpt>
      <trkpt lat="45.61339" lon="6.51644">
        <ele>2186.6</ele>
        <time>2025-02-20T12:45:51Z</time>
      </trkpt>
      <trkpt lat="45.61338" lon="6.51644">
        <ele>2187</ele>
        <time>2025-02-20T12:45:52Z</time>
      </trkpt>
      <trkpt lat="45.61338" lon="6.51645">
        <ele>2186.8</ele>
        <time>2025-02-20T12:45:53Z</time>
      </trkpt>
      <trkpt lat="45.61337" lon="6.51645">
        <ele>2186.8</ele>
        <time>2025-02-20T12:45:54Z</time>
      </trkpt>
      <trkpt lat="45.61336" lon="6.51645">
        <ele>2186.8</ele>
        <time>2025-02-20T12:45:55Z</time>
      </trkpt>
      <trkpt lat="45.61336" lon="6.51644">
        <ele>2187.8</ele>
        <time>2025-02-20T12:45:56Z</time>
      </trkpt>
      <trkpt lat="45.61335" lon="6.51644">
        <ele>2188.2</ele>
        <time>2025-02-20T12:45:57Z</time>
      </trkpt>
      <trkpt lat="45.61334" lon="6.51643">
        <ele>2188.2</ele>
        <time>2025-02-20T12:45:58Z</time>
      </trkpt>
      <trkpt lat="45.61334" lon="6.51643">
        <ele>2188.2</ele>
        <time>2025-02-20T12:45:59Z</time>
      </trkpt>
      <trkpt lat="45.61333" lon="6.51643">
        <ele>2188.2</ele>
        <time>2025-02-20T12:46:00Z</time>
      </trkpt>
      <trkpt lat="45.61333" lon="6.51642">
        <ele>2188.4</ele>
        <time>2025-02-20T12:46:01Z</time>
      </trkpt>
      <trkpt lat="45.61332" lon="6.51641">
        <ele>2188.4</ele>
        <time>2025-02-20T12:46:02Z</time>
      </trkpt>
      <trkpt lat="45.61331" lon="6.51639">
        <ele>2188.4</ele>
        <time>2025-02-20T12:46:03Z</time>
      </trkpt>
      <trkpt lat="45.61331" lon="6.51638">
        <ele>2187.8</ele>
        <time>2025-02-20T12:46:04Z</time>
      </trkpt>
      <trkpt lat="45.6133" lon="6.51637">
        <ele>2187.6</ele>
        <time>2025-02-20T12:46:05Z</time>
      </trkpt>
      <trkpt lat="45.61329" lon="6.51636">
        <ele>2187.6</ele>
        <time>2025-02-20T12:46:06Z</time>
      </trkpt>
      <trkpt lat="45.61328" lon="6.51635">
        <ele>2187.6</ele>
        <time>2025-02-20T12:46:07Z</time>
      </trkpt>
      <trkpt lat="45.61328" lon="6.51634">
        <ele>2186.8</ele>
        <time>2025-02-20T12:46:08Z</time>
      </trkpt>
      <trkpt lat="45.61327" lon="6.51634">
        <ele>2186.8</ele>
        <time>2025-02-20T12:46:09Z</time>
      </trkpt>
      <trkpt lat="45.61327" lon="6.51634">
        <ele>2186.8</ele>
        <time>2025-02-20T12:46:10Z</time>
      </trkpt>
      <trkpt lat="45.61326" lon="6.51633">
        <ele>2186.8</ele>
        <time>2025-02-20T12:46:11Z</time>
      </trkpt>
      <trkpt lat="45.61326" lon="6.51633">
        <ele>2187.4</ele>
        <time>2025-02-20T12:46:12Z</time>
      </trkpt>
      <trkpt lat="45.61325" lon="6.51631">
        <ele>2187.2</ele>
        <time>2025-02-20T12:46:13Z</time>
      </trkpt>
      <trkpt lat="45.61325" lon="6.5163">
        <ele>2187.2</ele>
        <time>2025-02-20T12:46:14Z</time>
      </trkpt>
      <trkpt lat="45.61324" lon="6.5163">
        <ele>2187.2</ele>
        <time>2025-02-20T12:46:15Z</time>
      </trkpt>
      <trkpt lat="45.61324" lon="6.51629">
        <ele>2187.6</ele>
        <time>2025-02-20T12:46:16Z</time>
      </trkpt>
      <trkpt lat="45.61323" lon="6.51628">
        <ele>2187.4</ele>
        <time>2025-02-20T12:46:17Z</time>
      </trkpt>
      <trkpt lat="45.61322" lon="6.51627">
        <ele>2187.4</ele>
        <time>2025-02-20T12:46:18Z</time>
      </trkpt>
      <trkpt lat="45.61321" lon="6.51626">
        <ele>2187.4</ele>
        <time>2025-02-20T12:46:19Z</time>
      </trkpt>
      <trkpt lat="45.61322" lon="6.51625">
        <ele>2187.4</ele>
        <time>2025-02-20T12:46:20Z</time>
      </trkpt>
      <trkpt lat="45.61321" lon="6.51624">
        <ele>2187</ele>
        <time>2025-02-20T12:46:21Z</time>
      </trkpt>
      <trkpt lat="45.6132" lon="6.51623">
        <ele>2187</ele>
        <time>2025-02-20T12:46:22Z</time>
      </trkpt>
      <trkpt lat="45.61319" lon="6.51622">
        <ele>2187</ele>
        <time>2025-02-20T12:46:23Z</time>
      </trkpt>
      <trkpt lat="45.61319" lon="6.51621">
        <ele>2187</ele>
        <time>2025-02-20T12:46:24Z</time>
      </trkpt>
      <trkpt lat="45.61318" lon="6.51621">
        <ele>2187.2</ele>
        <time>2025-02-20T12:46:25Z</time>
      </trkpt>
      <trkpt lat="45.61318" lon="6.5162">
        <ele>2187.2</ele>
        <time>2025-02-20T12:46:26Z</time>
      </trkpt>
      <trkpt lat="45.61318" lon="6.51619">
        <ele>2187.2</ele>
        <time>2025-02-20T12:46:27Z</time>
      </trkpt>
      <trkpt lat="45.61317" lon="6.51617">
        <ele>2186.4</ele>
        <time>2025-02-20T12:46:28Z</time>
      </trkpt>
      <trkpt lat="45.61317" lon="6.51617">
        <ele>2186.8</ele>
        <time>2025-02-20T12:46:29Z</time>
      </trkpt>
      <trkpt lat="45.61316" lon="6.51616">
        <ele>2186.8</ele>
        <time>2025-02-20T12:46:30Z</time>
      </trkpt>
      <trkpt lat="45.61315" lon="6.51615">
        <ele>2186.8</ele>
        <time>2025-02-20T12:46:31Z</time>
      </trkpt>
      <trkpt lat="45.61315" lon="6.51614">
        <ele>2186.8</ele>
        <time>2025-02-20T12:46:32Z</time>
      </trkpt>
      <trkpt lat="45.61314" lon="6.51614">
        <ele>2187.4</ele>
        <time>2025-02-20T12:46:33Z</time>
      </trkpt>
      <trkpt lat="45.61314" lon="6.51613">
        <ele>2187.4</ele>
        <time>2025-02-20T12:46:34Z</time>
      </trkpt>
      <trkpt lat="45.61313" lon="6.51612">
        <ele>2187.4</ele>
        <time>2025-02-20T12:46:35Z</time>
      </trkpt>
      <trkpt lat="45.61313" lon="6.51611">
        <ele>2187.4</ele>
        <time>2025-02-20T12:46:36Z</time>
      </trkpt>
      <trkpt lat="45.61312" lon="6.5161">
        <ele>2187</ele>
        <time>2025-02-20T12:46:37Z</time>
      </trkpt>
      <trkpt lat="45.61312" lon="6.51609">
        <ele>2187</ele>
        <time>2025-02-20T12:46:38Z</time>
      </trkpt>
      <trkpt lat="45.61311" lon="6.51609">
        <ele>2187</ele>
        <time>2025-02-20T12:46:39Z</time>
      </trkpt>
      <trkpt lat="45.61311" lon="6.51608">
        <ele>2187.6</ele>
        <time>2025-02-20T12:46:40Z</time>
      </trkpt>
      <trkpt lat="45.6131" lon="6.51607">
        <ele>2187.4</ele>
        <time>2025-02-20T12:46:41Z</time>
      </trkpt>
      <trkpt lat="45.6131" lon="6.51607">
        <ele>2187.4</ele>
        <time>2025-02-20T12:46:42Z</time>
      </trkpt>
      <trkpt lat="45.61309" lon="6.51606">
        <ele>2187.4</ele>
        <time>2025-02-20T12:46:43Z</time>
      </trkpt>
      <trkpt lat="45.61309" lon="6.51606">
        <ele>2188</ele>
        <time>2025-02-20T12:46:44Z</time>
      </trkpt>
      <trkpt lat="45.61308" lon="6.51605">
        <ele>2187.6</ele>
        <time>2025-02-20T12:46:45Z</time>
      </trkpt>
      <trkpt lat="45.61308" lon="6.51604">
        <ele>2187.6</ele>
        <time>2025-02-20T12:46:46Z</time>
      </trkpt>
      <trkpt lat="45.61307" lon="6.51604">
        <ele>2187.6</ele>
        <time>2025-02-20T12:46:47Z</time>
      </trkpt>
      <trkpt lat="45.61307" lon="6.51604">
        <ele>2187.6</ele>
        <time>2025-02-20T12:46:48Z</time>
      </trkpt>
      <trkpt lat="45.61307" lon="6.51604">
        <ele>2187.8</ele>
        <time>2025-02-20T12:46:49Z</time>
      </trkpt>
      <trkpt lat="45.61306" lon="6.51602">
        <ele>2187.8</ele>
        <time>2025-02-20T12:46:50Z</time>
      </trkpt>
      <trkpt lat="45.61306" lon="6.51602">
        <ele>2187.8</ele>
        <time>2025-02-20T12:46:51Z</time>
      </trkpt>
      <trkpt lat="45.61305" lon="6.51601">
        <ele>2187.8</ele>
        <time>2025-02-20T12:46:52Z</time>
      </trkpt>
      <trkpt lat="45.61305" lon="6.51601">
        <ele>2188.6</ele>
        <time>2025-02-20T12:46:53Z</time>
      </trkpt>
      <trkpt lat="45.61305" lon="6.51601">
        <ele>2188.6</ele>
        <time>2025-02-20T12:46:54Z</time>
      </trkpt>
      <trkpt lat="45.61305" lon="6.51601">
        <ele>2188.6</ele>
        <time>2025-02-20T12:46:55Z</time>
      </trkpt>
      <trkpt lat="45.61303" lon="6.51599">
        <ele>2188.6</ele>
        <time>2025-02-20T12:46:56Z</time>
      </trkpt>
      <trkpt lat="45.61303" lon="6.51599">
        <ele>2189.2</ele>
        <time>2025-02-20T12:46:57Z</time>
      </trkpt>
      <trkpt lat="45.61302" lon="6.51598">
        <ele>2189.2</ele>
        <time>2025-02-20T12:46:58Z</time>
      </trkpt>
      <trkpt lat="45.61301" lon="6.51597">
        <ele>2189.2</ele>
        <time>2025-02-20T12:46:59Z</time>
      </trkpt>
      <trkpt lat="45.61301" lon="6.51597">
        <ele>2189.2</ele>
        <time>2025-02-20T12:47:00Z</time>
      </trkpt>
      <trkpt lat="45.613" lon="6.51596">
        <ele>2189.2</ele>
        <time>2025-02-20T12:47:01Z</time>
      </trkpt>
      <trkpt lat="45.613" lon="6.51596">
        <ele>2189.2</ele>
        <time>2025-02-20T12:47:02Z</time>
      </trkpt>
      <trkpt lat="45.61299" lon="6.51596">
        <ele>2189.2</ele>
        <time>2025-02-20T12:47:03Z</time>
      </trkpt>
      <trkpt lat="45.61299" lon="6.51595">
        <ele>2188.4</ele>
        <time>2025-02-20T12:47:04Z</time>
      </trkpt>
      <trkpt lat="45.61299" lon="6.51595">
        <ele>2189.4</ele>
        <time>2025-02-20T12:47:05Z</time>
      </trkpt>
      <trkpt lat="45.61298" lon="6.51594">
        <ele>2189.4</ele>
        <time>2025-02-20T12:47:06Z</time>
      </trkpt>
      <trkpt lat="45.61298" lon="6.51594">
        <ele>2189.4</ele>
        <time>2025-02-20T12:47:07Z</time>
      </trkpt>
      <trkpt lat="45.61297" lon="6.51593">
        <ele>2189.4</ele>
        <time>2025-02-20T12:47:08Z</time>
      </trkpt>
      <trkpt lat="45.61297" lon="6.51593">
        <ele>2189.4</ele>
        <time>2025-02-20T12:47:09Z</time>
      </trkpt>
      <trkpt lat="45.61296" lon="6.51592">
        <ele>2189.4</ele>
        <time>2025-02-20T12:47:10Z</time>
      </trkpt>
      <trkpt lat="45.61296" lon="6.51592">
        <ele>2189.4</ele>
        <time>2025-02-20T12:47:11Z</time>
      </trkpt>
      <trkpt lat="45.61295" lon="6.51592">
        <ele>2189.4</ele>
        <time>2025-02-20T12:47:12Z</time>
      </trkpt>
      <trkpt lat="45.61295" lon="6.51592">
        <ele>2190.2</ele>
        <time>2025-02-20T12:47:13Z</time>
      </trkpt>
      <trkpt lat="45.61295" lon="6.5159">
        <ele>2190.2</ele>
        <time>2025-02-20T12:47:14Z</time>
      </trkpt>
      <trkpt lat="45.61294" lon="6.51589">
        <ele>2190.2</ele>
        <time>2025-02-20T12:47:15Z</time>
      </trkpt>
      <trkpt lat="45.61294" lon="6.51589">
        <ele>2190.2</ele>
        <time>2025-02-20T12:47:16Z</time>
      </trkpt>
      <trkpt lat="45.61294" lon="6.51588">
        <ele>2190.6</ele>
        <time>2025-02-20T12:47:17Z</time>
      </trkpt>
      <trkpt lat="45.61294" lon="6.51588">
        <ele>2190.6</ele>
        <time>2025-02-20T12:47:18Z</time>
      </trkpt>
      <trkpt lat="45.61294" lon="6.51588">
        <ele>2190.6</ele>
        <time>2025-02-20T12:47:19Z</time>
      </trkpt>
      <trkpt lat="45.61294" lon="6.51588">
        <ele>2190.2</ele>
        <time>2025-02-20T12:47:20Z</time>
      </trkpt>
      <trkpt lat="45.61294" lon="6.51588">
        <ele>2189.8</ele>
        <time>2025-02-20T12:47:21Z</time>
      </trkpt>
      <trkpt lat="45.61294" lon="6.51588">
        <ele>2189.8</ele>
        <time>2025-02-20T12:47:22Z</time>
      </trkpt>
      <trkpt lat="45.61294" lon="6.51588">
        <ele>2189.8</ele>
        <time>2025-02-20T12:47:23Z</time>
      </trkpt>
      <trkpt lat="45.61294" lon="6.51588">
        <ele>2189.8</ele>
        <time>2025-02-20T12:47:24Z</time>
      </trkpt>
      <trkpt lat="45.61294" lon="6.51588">
        <ele>2189</ele>
        <time>2025-02-20T12:47:25Z</time>
      </trkpt>
      <trkpt lat="45.61291" lon="6.51585">
        <ele>2189</ele>
        <time>2025-02-20T12:47:26Z</time>
      </trkpt>
      <trkpt lat="45.61291" lon="6.51585">
        <ele>2189</ele>
        <time>2025-02-20T12:47:27Z</time>
      </trkpt>
      <trkpt lat="45.61291" lon="6.51585">
        <ele>2190</ele>
        <time>2025-02-20T12:47:28Z</time>
      </trkpt>
      <trkpt lat="45.61291" lon="6.51585">
        <ele>2190.6</ele>
        <time>2025-02-20T12:47:29Z</time>
      </trkpt>
      <trkpt lat="45.61291" lon="6.51585">
        <ele>2190.6</ele>
        <time>2025-02-20T12:47:30Z</time>
      </trkpt>
      <trkpt lat="45.61289" lon="6.51583">
        <ele>2190.6</ele>
        <time>2025-02-20T12:47:31Z</time>
      </trkpt>
      <trkpt lat="45.61289" lon="6.51583">
        <ele>2190.6</ele>
        <time>2025-02-20T12:47:32Z</time>
      </trkpt>
      <trkpt lat="45.61289" lon="6.51583">
        <ele>2191.2</ele>
        <time>2025-02-20T12:47:33Z</time>
      </trkpt>
      <trkpt lat="45.61289" lon="6.51583">
        <ele>2191.2</ele>
        <time>2025-02-20T12:47:34Z</time>
      </trkpt>
      <trkpt lat="45.61289" lon="6.51583">
        <ele>2191.2</ele>
        <time>2025-02-20T12:47:35Z</time>
      </trkpt>
      <trkpt lat="45.61289" lon="6.51583">
        <ele>2191.2</ele>
        <time>2025-02-20T12:47:36Z</time>
      </trkpt>
      <trkpt lat="45.61289" lon="6.51583">
        <ele>2190.8</ele>
        <time>2025-02-20T12:47:37Z</time>
      </trkpt>
      <trkpt lat="45.61287" lon="6.5158">
        <ele>2190.8</ele>
        <time>2025-02-20T12:47:38Z</time>
      </trkpt>
      <trkpt lat="45.61287" lon="6.5158">
        <ele>2190.8</ele>
        <time>2025-02-20T12:47:39Z</time>
      </trkpt>
      <trkpt lat="45.61287" lon="6.5158">
        <ele>2190.8</ele>
        <time>2025-02-20T12:47:40Z</time>
      </trkpt>
      <trkpt lat="45.61286" lon="6.51579">
        <ele>2191.8</ele>
        <time>2025-02-20T12:47:41Z</time>
      </trkpt>
      <trkpt lat="45.61286" lon="6.51578">
        <ele>2191.8</ele>
        <time>2025-02-20T12:47:42Z</time>
      </trkpt>
      <trkpt lat="45.61286" lon="6.51578">
        <ele>2191.8</ele>
        <time>2025-02-20T12:47:43Z</time>
      </trkpt>
      <trkpt lat="45.61285" lon="6.51577">
        <ele>2191.8</ele>
        <time>2025-02-20T12:47:44Z</time>
      </trkpt>
      <trkpt lat="45.61285" lon="6.51577">
        <ele>2191.8</ele>
        <time>2025-02-20T12:47:45Z</time>
      </trkpt>
      <trkpt lat="45.61285" lon="6.51576">
        <ele>2191.8</ele>
        <time>2025-02-20T12:47:46Z</time>
      </trkpt>
      <trkpt lat="45.61285" lon="6.51576">
        <ele>2191.8</ele>
        <time>2025-02-20T12:47:47Z</time>
      </trkpt>
      <trkpt lat="45.61284" lon="6.51575">
        <ele>2192.8</ele>
        <time>2025-02-20T12:47:48Z</time>
      </trkpt>
      <trkpt lat="45.61283" lon="6.51575">
        <ele>2193</ele>
        <time>2025-02-20T12:47:49Z</time>
      </trkpt>
      <trkpt lat="45.61283" lon="6.51575">
        <ele>2193</ele>
        <time>2025-02-20T12:47:50Z</time>
      </trkpt>
      <trkpt lat="45.61283" lon="6.51574">
        <ele>2193</ele>
        <time>2025-02-20T12:47:51Z</time>
      </trkpt>
      <trkpt lat="45.61282" lon="6.51574">
        <ele>2193</ele>
        <time>2025-02-20T12:47:52Z</time>
      </trkpt>
      <trkpt lat="45.61282" lon="6.51573">
        <ele>2192.8</ele>
        <time>2025-02-20T12:47:53Z</time>
      </trkpt>
      <trkpt lat="45.61282" lon="6.51573">
        <ele>2192.8</ele>
        <time>2025-02-20T12:47:54Z</time>
      </trkpt>
      <trkpt lat="45.61281" lon="6.51571">
        <ele>2192.8</ele>
        <time>2025-02-20T12:47:55Z</time>
      </trkpt>
      <trkpt lat="45.61281" lon="6.51571">
        <ele>2193.4</ele>
        <time>2025-02-20T12:47:56Z</time>
      </trkpt>
      <trkpt lat="45.61281" lon="6.5157">
        <ele>2193.4</ele>
        <time>2025-02-20T12:47:57Z</time>
      </trkpt>
      <trkpt lat="45.61281" lon="6.5157">
        <ele>2193.4</ele>
        <time>2025-02-20T12:47:58Z</time>
      </trkpt>
      <trkpt lat="45.61281" lon="6.5157">
        <ele>2193.4</ele>
        <time>2025-02-20T12:47:59Z</time>
      </trkpt>
      <trkpt lat="45.61281" lon="6.5157">
        <ele>2193.4</ele>
        <time>2025-02-20T12:48:00Z</time>
      </trkpt>
      <trkpt lat="45.61281" lon="6.5157">
        <ele>2194.6</ele>
        <time>2025-02-20T12:48:01Z</time>
      </trkpt>
      <trkpt lat="45.61281" lon="6.5157">
        <ele>2194.6</ele>
        <time>2025-02-20T12:48:02Z</time>
      </trkpt>
      <trkpt lat="45.61281" lon="6.5157">
        <ele>2194.6</ele>
        <time>2025-02-20T12:48:03Z</time>
      </trkpt>
      <trkpt lat="45.61281" lon="6.5157">
        <ele>2194.2</ele>
        <time>2025-02-20T12:48:04Z</time>
      </trkpt>
      <trkpt lat="45.61281" lon="6.5157">
        <ele>2194.8</ele>
        <time>2025-02-20T12:48:05Z</time>
      </trkpt>
      <trkpt lat="45.61281" lon="6.5157">
        <ele>2194.8</ele>
        <time>2025-02-20T12:48:06Z</time>
      </trkpt>
      <trkpt lat="45.61279" lon="6.51567">
        <ele>2194.8</ele>
        <time>2025-02-20T12:48:07Z</time>
      </trkpt>
      <trkpt lat="45.61279" lon="6.51566">
        <ele>2194</ele>
        <time>2025-02-20T12:48:08Z</time>
      </trkpt>
      <trkpt lat="45.61279" lon="6.51566">
        <ele>2195.8</ele>
        <time>2025-02-20T12:48:09Z</time>
      </trkpt>
      <trkpt lat="45.61279" lon="6.51566">
        <ele>2195.8</ele>
        <time>2025-02-20T12:48:10Z</time>
      </trkpt>
      <trkpt lat="45.61279" lon="6.51566">
        <ele>2195.8</ele>
        <time>2025-02-20T12:48:11Z</time>
      </trkpt>
      <trkpt lat="45.61278" lon="6.51564">
        <ele>2195.2</ele>
        <time>2025-02-20T12:48:12Z</time>
      </trkpt>
      <trkpt lat="45.61278" lon="6.51563">
        <ele>2194.6</ele>
        <time>2025-02-20T12:48:13Z</time>
      </trkpt>
      <trkpt lat="45.61278" lon="6.51563">
        <ele>2194.6</ele>
        <time>2025-02-20T12:48:14Z</time>
      </trkpt>
      <trkpt lat="45.61278" lon="6.51563">
        <ele>2194.6</ele>
        <time>2025-02-20T12:48:15Z</time>
      </trkpt>
      <trkpt lat="45.61278" lon="6.51563">
        <ele>2195.6</ele>
        <time>2025-02-20T12:48:16Z</time>
      </trkpt>
      <trkpt lat="45.61278" lon="6.51563">
        <ele>2195.8</ele>
        <time>2025-02-20T12:48:17Z</time>
      </trkpt>
      <trkpt lat="45.61278" lon="6.51563">
        <ele>2195.8</ele>
        <time>2025-02-20T12:48:18Z</time>
      </trkpt>
      <trkpt lat="45.61278" lon="6.51563">
        <ele>2195.8</ele>
        <time>2025-02-20T12:48:19Z</time>
      </trkpt>
      <trkpt lat="45.61278" lon="6.51563">
        <ele>2195.8</ele>
        <time>2025-02-20T12:48:20Z</time>
      </trkpt>
      <trkpt lat="45.61278" lon="6.51563">
        <ele>2195</ele>
        <time>2025-02-20T12:48:21Z</time>
      </trkpt>
      <trkpt lat="45.61278" lon="6.51563">
        <ele>2195</ele>
        <time>2025-02-20T12:48:22Z</time>
      </trkpt>
      <trkpt lat="45.61278" lon="6.51563">
        <ele>2195</ele>
        <time>2025-02-20T12:48:23Z</time>
      </trkpt>
      <trkpt lat="45.61278" lon="6.51563">
        <ele>2196</ele>
        <time>2025-02-20T12:48:24Z</time>
      </trkpt>
      <trkpt lat="45.61276" lon="6.51561">
        <ele>2196</ele>
        <time>2025-02-20T12:48:25Z</time>
      </trkpt>
      <trkpt lat="45.61275" lon="6.5156">
        <ele>2196</ele>
        <time>2025-02-20T12:48:26Z</time>
      </trkpt>
      <trkpt lat="45.61275" lon="6.5156">
        <ele>2196</ele>
        <time>2025-02-20T12:48:27Z</time>
      </trkpt>
      <trkpt lat="45.61275" lon="6.5156">
        <ele>2196</ele>
        <time>2025-02-20T12:48:28Z</time>
      </trkpt>
      <trkpt lat="45.61275" lon="6.5156">
        <ele>2196.2</ele>
        <time>2025-02-20T12:48:29Z</time>
      </trkpt>
      <trkpt lat="45.61275" lon="6.5156">
        <ele>2196.2</ele>
        <time>2025-02-20T12:48:30Z</time>
      </trkpt>
      <trkpt lat="45.61275" lon="6.5156">
        <ele>2196.2</ele>
        <time>2025-02-20T12:48:31Z</time>
      </trkpt>
      <trkpt lat="45.61275" lon="6.5156">
        <ele>2197.2</ele>
        <time>2025-02-20T12:48:32Z</time>
      </trkpt>
      <trkpt lat="45.61273" lon="6.51555">
        <ele>2197</ele>
        <time>2025-02-20T12:48:33Z</time>
      </trkpt>
      <trkpt lat="45.61273" lon="6.51554">
        <ele>2197</ele>
        <time>2025-02-20T12:48:34Z</time>
      </trkpt>
      <trkpt lat="45.61273" lon="6.51554">
        <ele>2197</ele>
        <time>2025-02-20T12:48:35Z</time>
      </trkpt>
      <trkpt lat="45.61273" lon="6.51554">
        <ele>2197</ele>
        <time>2025-02-20T12:48:36Z</time>
      </trkpt>
      <trkpt lat="45.61273" lon="6.51554">
        <ele>2197.8</ele>
        <time>2025-02-20T12:48:37Z</time>
      </trkpt>
      <trkpt lat="45.61273" lon="6.51554">
        <ele>2197.8</ele>
        <time>2025-02-20T12:48:38Z</time>
      </trkpt>
      <trkpt lat="45.61273" lon="6.51554">
        <ele>2197.8</ele>
        <time>2025-02-20T12:48:39Z</time>
      </trkpt>
      <trkpt lat="45.61273" lon="6.51554">
        <ele>2197.8</ele>
        <time>2025-02-20T12:48:40Z</time>
      </trkpt>
      <trkpt lat="45.61273" lon="6.51554">
        <ele>2197.6</ele>
        <time>2025-02-20T12:48:41Z</time>
      </trkpt>
      <trkpt lat="45.61273" lon="6.51554">
        <ele>2197.6</ele>
        <time>2025-02-20T12:48:42Z</time>
      </trkpt>
      <trkpt lat="45.61273" lon="6.51554">
        <ele>2197.6</ele>
        <time>2025-02-20T12:48:43Z</time>
      </trkpt>
      <trkpt lat="45.61273" lon="6.51554">
        <ele>2197.8</ele>
        <time>2025-02-20T12:48:44Z</time>
      </trkpt>
      <trkpt lat="45.61272" lon="6.51547">
        <ele>2198.2</ele>
        <time>2025-02-20T12:48:45Z</time>
      </trkpt>
      <trkpt lat="45.61272" lon="6.51548">
        <ele>2198.2</ele>
        <time>2025-02-20T12:48:46Z</time>
      </trkpt>
      <trkpt lat="45.61271" lon="6.51547">
        <ele>2198.2</ele>
        <time>2025-02-20T12:48:47Z</time>
      </trkpt>
      <trkpt lat="45.61271" lon="6.51547">
        <ele>2197.2</ele>
        <time>2025-02-20T12:48:48Z</time>
      </trkpt>
      <trkpt lat="45.61271" lon="6.51547">
        <ele>2198.4</ele>
        <time>2025-02-20T12:48:49Z</time>
      </trkpt>
      <trkpt lat="45.6127" lon="6.51547">
        <ele>2198.4</ele>
        <time>2025-02-20T12:48:50Z</time>
      </trkpt>
      <trkpt lat="45.6127" lon="6.51547">
        <ele>2198.4</ele>
        <time>2025-02-20T12:48:51Z</time>
      </trkpt>
      <trkpt lat="45.6127" lon="6.51546">
        <ele>2199.4</ele>
        <time>2025-02-20T12:48:52Z</time>
      </trkpt>
      <trkpt lat="45.6127" lon="6.51546">
        <ele>2199</ele>
        <time>2025-02-20T12:48:53Z</time>
      </trkpt>
      <trkpt lat="45.61269" lon="6.51546">
        <ele>2199</ele>
        <time>2025-02-20T12:48:54Z</time>
      </trkpt>
      <trkpt lat="45.61269" lon="6.51545">
        <ele>2199</ele>
        <time>2025-02-20T12:48:55Z</time>
      </trkpt>
      <trkpt lat="45.61269" lon="6.51545">
        <ele>2199</ele>
        <time>2025-02-20T12:48:56Z</time>
      </trkpt>
      <trkpt lat="45.61269" lon="6.51545">
        <ele>2199.6</ele>
        <time>2025-02-20T12:48:57Z</time>
      </trkpt>
      <trkpt lat="45.61269" lon="6.51545">
        <ele>2199.6</ele>
        <time>2025-02-20T12:48:58Z</time>
      </trkpt>
      <trkpt lat="45.61268" lon="6.51544">
        <ele>2199.6</ele>
        <time>2025-02-20T12:48:59Z</time>
      </trkpt>
      <trkpt lat="45.61268" lon="6.51543">
        <ele>2199.6</ele>
        <time>2025-02-20T12:49:00Z</time>
      </trkpt>
      <trkpt lat="45.61268" lon="6.51542">
        <ele>2200.2</ele>
        <time>2025-02-20T12:49:01Z</time>
      </trkpt>
      <trkpt lat="45.61267" lon="6.51542">
        <ele>2200.2</ele>
        <time>2025-02-20T12:49:02Z</time>
      </trkpt>
      <trkpt lat="45.61267" lon="6.51541">
        <ele>2200.2</ele>
        <time>2025-02-20T12:49:03Z</time>
      </trkpt>
      <trkpt lat="45.61267" lon="6.51541">
        <ele>2200.2</ele>
        <time>2025-02-20T12:49:04Z</time>
      </trkpt>
      <trkpt lat="45.61267" lon="6.51541">
        <ele>2201.2</ele>
        <time>2025-02-20T12:49:05Z</time>
      </trkpt>
      <trkpt lat="45.61267" lon="6.51541">
        <ele>2201.2</ele>
        <time>2025-02-20T12:49:06Z</time>
      </trkpt>
      <trkpt lat="45.61267" lon="6.51541">
        <ele>2201.2</ele>
        <time>2025-02-20T12:49:07Z</time>
      </trkpt>
      <trkpt lat="45.61266" lon="6.51539">
        <ele>2201.2</ele>
        <time>2025-02-20T12:49:08Z</time>
      </trkpt>
      <trkpt lat="45.61266" lon="6.51538">
        <ele>2200.4</ele>
        <time>2025-02-20T12:49:09Z</time>
      </trkpt>
      <trkpt lat="45.61265" lon="6.51537">
        <ele>2200.4</ele>
        <time>2025-02-20T12:49:10Z</time>
      </trkpt>
      <trkpt lat="45.61265" lon="6.51537">
        <ele>2200.4</ele>
        <time>2025-02-20T12:49:11Z</time>
      </trkpt>
      <trkpt lat="45.61265" lon="6.51537">
        <ele>2201.4</ele>
        <time>2025-02-20T12:49:12Z</time>
      </trkpt>
      <trkpt lat="45.61265" lon="6.51537">
        <ele>2201.8</ele>
        <time>2025-02-20T12:49:13Z</time>
      </trkpt>
      <trkpt lat="45.61265" lon="6.51537">
        <ele>2201.8</ele>
        <time>2025-02-20T12:49:14Z</time>
      </trkpt>
      <trkpt lat="45.61264" lon="6.51535">
        <ele>2201.8</ele>
        <time>2025-02-20T12:49:15Z</time>
      </trkpt>
      <trkpt lat="45.61264" lon="6.51535">
        <ele>2201.8</ele>
        <time>2025-02-20T12:49:16Z</time>
      </trkpt>
      <trkpt lat="45.61264" lon="6.51535">
        <ele>2202.2</ele>
        <time>2025-02-20T12:49:17Z</time>
      </trkpt>
      <trkpt lat="45.61263" lon="6.51534">
        <ele>2202.2</ele>
        <time>2025-02-20T12:49:18Z</time>
      </trkpt>
      <trkpt lat="45.61263" lon="6.51533">
        <ele>2202.2</ele>
        <time>2025-02-20T12:49:19Z</time>
      </trkpt>
      <trkpt lat="45.61263" lon="6.51533">
        <ele>2202.2</ele>
        <time>2025-02-20T12:49:20Z</time>
      </trkpt>
      <trkpt lat="45.61263" lon="6.51533">
        <ele>2202.2</ele>
        <time>2025-02-20T12:49:21Z</time>
      </trkpt>
      <trkpt lat="45.61262" lon="6.51532">
        <ele>2202.2</ele>
        <time>2025-02-20T12:49:22Z</time>
      </trkpt>
      <trkpt lat="45.61262" lon="6.51532">
        <ele>2202.2</ele>
        <time>2025-02-20T12:49:23Z</time>
      </trkpt>
      <trkpt lat="45.61262" lon="6.51532">
        <ele>2202.2</ele>
        <time>2025-02-20T12:49:24Z</time>
      </trkpt>
      <trkpt lat="45.61261" lon="6.51531">
        <ele>2201</ele>
        <time>2025-02-20T12:49:25Z</time>
      </trkpt>
      <trkpt lat="45.61261" lon="6.51531">
        <ele>2201</ele>
        <time>2025-02-20T12:49:26Z</time>
      </trkpt>
      <trkpt lat="45.61261" lon="6.51531">
        <ele>2201</ele>
        <time>2025-02-20T12:49:27Z</time>
      </trkpt>
      <trkpt lat="45.6126" lon="6.5153">
        <ele>2202</ele>
        <time>2025-02-20T12:49:28Z</time>
      </trkpt>
      <trkpt lat="45.6126" lon="6.51529">
        <ele>2202.8</ele>
        <time>2025-02-20T12:49:29Z</time>
      </trkpt>
      <trkpt lat="45.6126" lon="6.51529">
        <ele>2202.8</ele>
        <time>2025-02-20T12:49:30Z</time>
      </trkpt>
      <trkpt lat="45.6126" lon="6.51529">
        <ele>2202.8</ele>
        <time>2025-02-20T12:49:31Z</time>
      </trkpt>
      <trkpt lat="45.6126" lon="6.51529">
        <ele>2203.6</ele>
        <time>2025-02-20T12:49:32Z</time>
      </trkpt>
      <trkpt lat="45.61259" lon="6.51527">
        <ele>2203.2</ele>
        <time>2025-02-20T12:49:33Z</time>
      </trkpt>
      <trkpt lat="45.61258" lon="6.51527">
        <ele>2203.2</ele>
        <time>2025-02-20T12:49:34Z</time>
      </trkpt>
      <trkpt lat="45.61258" lon="6.51526">
        <ele>2203.2</ele>
        <time>2025-02-20T12:49:35Z</time>
      </trkpt>
      <trkpt lat="45.61258" lon="6.51526">
        <ele>2202.4</ele>
        <time>2025-02-20T12:49:36Z</time>
      </trkpt>
      <trkpt lat="45.61258" lon="6.51524">
        <ele>2203.6</ele>
        <time>2025-02-20T12:49:37Z</time>
      </trkpt>
      <trkpt lat="45.61257" lon="6.51524">
        <ele>2203.6</ele>
        <time>2025-02-20T12:49:38Z</time>
      </trkpt>
      <trkpt lat="45.61257" lon="6.51524">
        <ele>2203.6</ele>
        <time>2025-02-20T12:49:39Z</time>
      </trkpt>
      <trkpt lat="45.61257" lon="6.51523">
        <ele>2203.6</ele>
        <time>2025-02-20T12:49:40Z</time>
      </trkpt>
      <trkpt lat="45.61257" lon="6.51523">
        <ele>2204.2</ele>
        <time>2025-02-20T12:49:41Z</time>
      </trkpt>
      <trkpt lat="45.61256" lon="6.51522">
        <ele>2204.2</ele>
        <time>2025-02-20T12:49:42Z</time>
      </trkpt>
      <trkpt lat="45.61256" lon="6.51521">
        <ele>2204.2</ele>
        <time>2025-02-20T12:49:43Z</time>
      </trkpt>
      <trkpt lat="45.61256" lon="6.51521">
        <ele>2204.2</ele>
        <time>2025-02-20T12:49:44Z</time>
      </trkpt>
      <trkpt lat="45.61255" lon="6.5152">
        <ele>2204.8</ele>
        <time>2025-02-20T12:49:45Z</time>
      </trkpt>
      <trkpt lat="45.61255" lon="6.5152">
        <ele>2204.8</ele>
        <time>2025-02-20T12:49:46Z</time>
      </trkpt>
      <trkpt lat="45.61255" lon="6.51519">
        <ele>2204.8</ele>
        <time>2025-02-20T12:49:47Z</time>
      </trkpt>
      <trkpt lat="45.61255" lon="6.51518">
        <ele>2203.8</ele>
        <time>2025-02-20T12:49:48Z</time>
      </trkpt>
      <trkpt lat="45.61254" lon="6.51518">
        <ele>2204.2</ele>
        <time>2025-02-20T12:49:49Z</time>
      </trkpt>
      <trkpt lat="45.61254" lon="6.51517">
        <ele>2204.2</ele>
        <time>2025-02-20T12:49:50Z</time>
      </trkpt>
      <trkpt lat="45.61254" lon="6.51516">
        <ele>2204.2</ele>
        <time>2025-02-20T12:49:51Z</time>
      </trkpt>
      <trkpt lat="45.61253" lon="6.51516">
        <ele>2204.2</ele>
        <time>2025-02-20T12:49:52Z</time>
      </trkpt>
      <trkpt lat="45.61253" lon="6.51515">
        <ele>2203.6</ele>
        <time>2025-02-20T12:49:53Z</time>
      </trkpt>
      <trkpt lat="45.61253" lon="6.51514">
        <ele>2203.6</ele>
        <time>2025-02-20T12:49:54Z</time>
      </trkpt>
      <trkpt lat="45.61252" lon="6.51514">
        <ele>2203.6</ele>
        <time>2025-02-20T12:49:55Z</time>
      </trkpt>
      <trkpt lat="45.61252" lon="6.51513">
        <ele>2204.6</ele>
        <time>2025-02-20T12:49:56Z</time>
      </trkpt>
      <trkpt lat="45.61252" lon="6.51513">
        <ele>2204.6</ele>
        <time>2025-02-20T12:49:57Z</time>
      </trkpt>
      <trkpt lat="45.61252" lon="6.51513">
        <ele>2204.6</ele>
        <time>2025-02-20T12:49:58Z</time>
      </trkpt>
      <trkpt lat="45.61252" lon="6.51513">
        <ele>2204.6</ele>
        <time>2025-02-20T12:49:59Z</time>
      </trkpt>
      <trkpt lat="45.61252" lon="6.51513">
        <ele>2205.4</ele>
        <time>2025-02-20T12:50:00Z</time>
      </trkpt>
      <trkpt lat="45.61252" lon="6.5151">
        <ele>2205</ele>
        <time>2025-02-20T12:50:01Z</time>
      </trkpt>
      <trkpt lat="45.61252" lon="6.5151">
        <ele>2205</ele>
        <time>2025-02-20T12:50:02Z</time>
      </trkpt>
      <trkpt lat="45.61252" lon="6.51509">
        <ele>2205</ele>
        <time>2025-02-20T12:50:03Z</time>
      </trkpt>
      <trkpt lat="45.61251" lon="6.51508">
        <ele>2205</ele>
        <time>2025-02-20T12:50:04Z</time>
      </trkpt>
      <trkpt lat="45.61251" lon="6.51508">
        <ele>2205.6</ele>
        <time>2025-02-20T12:50:05Z</time>
      </trkpt>
      <trkpt lat="45.61251" lon="6.51507">
        <ele>2205.6</ele>
        <time>2025-02-20T12:50:06Z</time>
      </trkpt>
      <trkpt lat="45.6125" lon="6.51507">
        <ele>2205.6</ele>
        <time>2025-02-20T12:50:07Z</time>
      </trkpt>
      <trkpt lat="45.6125" lon="6.51506">
        <ele>2205.6</ele>
        <time>2025-02-20T12:50:08Z</time>
      </trkpt>
      <trkpt lat="45.6125" lon="6.51505">
        <ele>2206.8</ele>
        <time>2025-02-20T12:50:09Z</time>
      </trkpt>
      <trkpt lat="45.61249" lon="6.51505">
        <ele>2206.8</ele>
        <time>2025-02-20T12:50:10Z</time>
      </trkpt>
      <trkpt lat="45.61249" lon="6.51504">
        <ele>2206.8</ele>
        <time>2025-02-20T12:50:11Z</time>
      </trkpt>
      <trkpt lat="45.61249" lon="6.51503">
        <ele>2205.8</ele>
        <time>2025-02-20T12:50:12Z</time>
      </trkpt>
      <trkpt lat="45.61249" lon="6.51503">
        <ele>2206.8</ele>
        <time>2025-02-20T12:50:13Z</time>
      </trkpt>
      <trkpt lat="45.61248" lon="6.51502">
        <ele>2206.8</ele>
        <time>2025-02-20T12:50:14Z</time>
      </trkpt>
      <trkpt lat="45.61248" lon="6.51501">
        <ele>2206.8</ele>
        <time>2025-02-20T12:50:15Z</time>
      </trkpt>
      <trkpt lat="45.61248" lon="6.51501">
        <ele>2205.8</ele>
        <time>2025-02-20T12:50:16Z</time>
      </trkpt>
      <trkpt lat="45.61247" lon="6.515">
        <ele>2206.2</ele>
        <time>2025-02-20T12:50:17Z</time>
      </trkpt>
      <trkpt lat="45.61247" lon="6.51499">
        <ele>2206.2</ele>
        <time>2025-02-20T12:50:18Z</time>
      </trkpt>
      <trkpt lat="45.61247" lon="6.51499">
        <ele>2206.2</ele>
        <time>2025-02-20T12:50:19Z</time>
      </trkpt>
      <trkpt lat="45.61247" lon="6.51499">
        <ele>2206.2</ele>
        <time>2025-02-20T12:50:20Z</time>
      </trkpt>
      <trkpt lat="45.61247" lon="6.51499">
        <ele>2205.8</ele>
        <time>2025-02-20T12:50:21Z</time>
      </trkpt>
      <trkpt lat="45.61247" lon="6.51499">
        <ele>2205.8</ele>
        <time>2025-02-20T12:50:22Z</time>
      </trkpt>
      <trkpt lat="45.61247" lon="6.51499">
        <ele>2205.8</ele>
        <time>2025-02-20T12:50:23Z</time>
      </trkpt>
      <trkpt lat="45.61247" lon="6.51499">
        <ele>2206.8</ele>
        <time>2025-02-20T12:50:24Z</time>
      </trkpt>
      <trkpt lat="45.61247" lon="6.51499">
        <ele>2207.2</ele>
        <time>2025-02-20T12:50:25Z</time>
      </trkpt>
      <trkpt lat="45.61247" lon="6.51499">
        <ele>2207.2</ele>
        <time>2025-02-20T12:50:26Z</time>
      </trkpt>
      <trkpt lat="45.61244" lon="6.51495">
        <ele>2207.2</ele>
        <time>2025-02-20T12:50:27Z</time>
      </trkpt>
      <trkpt lat="45.61245" lon="6.51495">
        <ele>2207.2</ele>
        <time>2025-02-20T12:50:28Z</time>
      </trkpt>
      <trkpt lat="45.61245" lon="6.51495">
        <ele>2207</ele>
        <time>2025-02-20T12:50:29Z</time>
      </trkpt>
      <trkpt lat="45.61245" lon="6.51495">
        <ele>2207</ele>
        <time>2025-02-20T12:50:30Z</time>
      </trkpt>
      <trkpt lat="45.61245" lon="6.51495">
        <ele>2207</ele>
        <time>2025-02-20T12:50:31Z</time>
      </trkpt>
      <trkpt lat="45.61245" lon="6.51495">
        <ele>2207</ele>
        <time>2025-02-20T12:50:32Z</time>
      </trkpt>
      <trkpt lat="45.61245" lon="6.51495">
        <ele>2208.6</ele>
        <time>2025-02-20T12:50:33Z</time>
      </trkpt>
      <trkpt lat="45.61245" lon="6.51495">
        <ele>2208.6</ele>
        <time>2025-02-20T12:50:34Z</time>
      </trkpt>
      <trkpt lat="45.61245" lon="6.51495">
        <ele>2208.6</ele>
        <time>2025-02-20T12:50:35Z</time>
      </trkpt>
      <trkpt lat="45.61245" lon="6.51495">
        <ele>2208.6</ele>
        <time>2025-02-20T12:50:36Z</time>
      </trkpt>
      <trkpt lat="45.61245" lon="6.51495">
        <ele>2209</ele>
        <time>2025-02-20T12:50:37Z</time>
      </trkpt>
      <trkpt lat="45.61245" lon="6.51495">
        <ele>2209</ele>
        <time>2025-02-20T12:50:38Z</time>
      </trkpt>
      <trkpt lat="45.61245" lon="6.51495">
        <ele>2209</ele>
        <time>2025-02-20T12:50:39Z</time>
      </trkpt>
      <trkpt lat="45.61243" lon="6.5149">
        <ele>2208.2</ele>
        <time>2025-02-20T12:50:40Z</time>
      </trkpt>
      <trkpt lat="45.61242" lon="6.51489">
        <ele>2207.6</ele>
        <time>2025-02-20T12:50:41Z</time>
      </trkpt>
      <trkpt lat="45.61242" lon="6.51489">
        <ele>2207.6</ele>
        <time>2025-02-20T12:50:42Z</time>
      </trkpt>
      <trkpt lat="45.61242" lon="6.51489">
        <ele>2207.6</ele>
        <time>2025-02-20T12:50:43Z</time>
      </trkpt>
      <trkpt lat="45.61241" lon="6.51488">
        <ele>2208.6</ele>
        <time>2025-02-20T12:50:44Z</time>
      </trkpt>
      <trkpt lat="45.61241" lon="6.51487">
        <ele>2208.8</ele>
        <time>2025-02-20T12:50:45Z</time>
      </trkpt>
      <trkpt lat="45.61241" lon="6.51487">
        <ele>2208.8</ele>
        <time>2025-02-20T12:50:46Z</time>
      </trkpt>
      <trkpt lat="45.61239" lon="6.51485">
        <ele>2208.8</ele>
        <time>2025-02-20T12:50:47Z</time>
      </trkpt>
      <trkpt lat="45.61239" lon="6.51485">
        <ele>2208.8</ele>
        <time>2025-02-20T12:50:48Z</time>
      </trkpt>
      <trkpt lat="45.61239" lon="6.51485">
        <ele>2208.4</ele>
        <time>2025-02-20T12:50:49Z</time>
      </trkpt>
      <trkpt lat="45.61239" lon="6.51485">
        <ele>2208.4</ele>
        <time>2025-02-20T12:50:50Z</time>
      </trkpt>
      <trkpt lat="45.61239" lon="6.51485">
        <ele>2208.4</ele>
        <time>2025-02-20T12:50:51Z</time>
      </trkpt>
      <trkpt lat="45.61239" lon="6.51485">
        <ele>2209.4</ele>
        <time>2025-02-20T12:50:52Z</time>
      </trkpt>
      <trkpt lat="45.61239" lon="6.51485">
        <ele>2209.6</ele>
        <time>2025-02-20T12:50:53Z</time>
      </trkpt>
      <trkpt lat="45.61239" lon="6.51485">
        <ele>2209.6</ele>
        <time>2025-02-20T12:50:54Z</time>
      </trkpt>
      <trkpt lat="45.61239" lon="6.51485">
        <ele>2209.6</ele>
        <time>2025-02-20T12:50:55Z</time>
      </trkpt>
      <trkpt lat="45.61239" lon="6.51485">
        <ele>2209.6</ele>
        <time>2025-02-20T12:50:56Z</time>
      </trkpt>
      <trkpt lat="45.61239" lon="6.51485">
        <ele>2209.2</ele>
        <time>2025-02-20T12:50:57Z</time>
      </trkpt>
      <trkpt lat="45.61239" lon="6.51485">
        <ele>2209.2</ele>
        <time>2025-02-20T12:50:58Z</time>
      </trkpt>
      <trkpt lat="45.61239" lon="6.51485">
        <ele>2209.2</ele>
        <time>2025-02-20T12:50:59Z</time>
      </trkpt>
      <trkpt lat="45.61239" lon="6.51485">
        <ele>2208.8</ele>
        <time>2025-02-20T12:51:00Z</time>
      </trkpt>
      <trkpt lat="45.61239" lon="6.51485">
        <ele>2211.2</ele>
        <time>2025-02-20T12:51:01Z</time>
      </trkpt>
      <trkpt lat="45.61239" lon="6.51485">
        <ele>2211.2</ele>
        <time>2025-02-20T12:51:02Z</time>
      </trkpt>
      <trkpt lat="45.61239" lon="6.51485">
        <ele>2211.2</ele>
        <time>2025-02-20T12:51:03Z</time>
      </trkpt>
      <trkpt lat="45.61239" lon="6.51485">
        <ele>2210.2</ele>
        <time>2025-02-20T12:51:04Z</time>
      </trkpt>
      <trkpt lat="45.61239" lon="6.51485">
        <ele>2209</ele>
        <time>2025-02-20T12:51:05Z</time>
      </trkpt>
      <trkpt lat="45.61239" lon="6.51485">
        <ele>2209</ele>
        <time>2025-02-20T12:51:06Z</time>
      </trkpt>
      <trkpt lat="45.61239" lon="6.51485">
        <ele>2209</ele>
        <time>2025-02-20T12:51:07Z</time>
      </trkpt>
      <trkpt lat="45.61239" lon="6.51485">
        <ele>2209</ele>
        <time>2025-02-20T12:51:08Z</time>
      </trkpt>
      <trkpt lat="45.61239" lon="6.51485">
        <ele>2208.8</ele>
        <time>2025-02-20T12:51:09Z</time>
      </trkpt>
      <trkpt lat="45.61239" lon="6.51485">
        <ele>2208.8</ele>
        <time>2025-02-20T12:51:10Z</time>
      </trkpt>
      <trkpt lat="45.61239" lon="6.51485">
        <ele>2208.8</ele>
        <time>2025-02-20T12:51:11Z</time>
      </trkpt>
      <trkpt lat="45.61239" lon="6.51485">
        <ele>2208.8</ele>
        <time>2025-02-20T12:51:12Z</time>
      </trkpt>
      <trkpt lat="45.61239" lon="6.51485">
        <ele>2208.6</ele>
        <time>2025-02-20T12:51:13Z</time>
      </trkpt>
      <trkpt lat="45.61239" lon="6.51485">
        <ele>2208.6</ele>
        <time>2025-02-20T12:51:14Z</time>
      </trkpt>
      <trkpt lat="45.61239" lon="6.51485">
        <ele>2208.6</ele>
        <time>2025-02-20T12:51:15Z</time>
      </trkpt>
      <trkpt lat="45.61236" lon="6.51481">
        <ele>2209.4</ele>
        <time>2025-02-20T12:51:16Z</time>
      </trkpt>
      <trkpt lat="45.61236" lon="6.5148">
        <ele>2209.8</ele>
        <time>2025-02-20T12:51:17Z</time>
      </trkpt>
      <trkpt lat="45.61236" lon="6.51479">
        <ele>2209.8</ele>
        <time>2025-02-20T12:51:18Z</time>
      </trkpt>
      <trkpt lat="45.61236" lon="6.51478">
        <ele>2209.8</ele>
        <time>2025-02-20T12:51:19Z</time>
      </trkpt>
      <trkpt lat="45.61236" lon="6.51477">
        <ele>2209.8</ele>
        <time>2025-02-20T12:51:20Z</time>
      </trkpt>
      <trkpt lat="45.61235" lon="6.51476">
        <ele>2209.6</ele>
        <time>2025-02-20T12:51:21Z</time>
      </trkpt>
      <trkpt lat="45.61235" lon="6.51476">
        <ele>2209.6</ele>
        <time>2025-02-20T12:51:22Z</time>
      </trkpt>
      <trkpt lat="45.61235" lon="6.51476">
        <ele>2209.6</ele>
        <time>2025-02-20T12:51:23Z</time>
      </trkpt>
      <trkpt lat="45.61235" lon="6.51475">
        <ele>2209.6</ele>
        <time>2025-02-20T12:51:24Z</time>
      </trkpt>
      <trkpt lat="45.61235" lon="6.51475">
        <ele>2211</ele>
        <time>2025-02-20T12:51:25Z</time>
      </trkpt>
      <trkpt lat="45.61235" lon="6.51475">
        <ele>2211</ele>
        <time>2025-02-20T12:51:26Z</time>
      </trkpt>
      <trkpt lat="45.61234" lon="6.51473">
        <ele>2211</ele>
        <time>2025-02-20T12:51:27Z</time>
      </trkpt>
      <trkpt lat="45.61234" lon="6.51473">
        <ele>2210.6</ele>
        <time>2025-02-20T12:51:28Z</time>
      </trkpt>
      <trkpt lat="45.61234" lon="6.51473">
        <ele>2210.8</ele>
        <time>2025-02-20T12:51:29Z</time>
      </trkpt>
      <trkpt lat="45.61234" lon="6.51471">
        <ele>2210.8</ele>
        <time>2025-02-20T12:51:30Z</time>
      </trkpt>
      <trkpt lat="45.61233" lon="6.51471">
        <ele>2210.8</ele>
        <time>2025-02-20T12:51:31Z</time>
      </trkpt>
      <trkpt lat="45.61233" lon="6.5147">
        <ele>2211</ele>
        <time>2025-02-20T12:51:32Z</time>
      </trkpt>
      <trkpt lat="45.61233" lon="6.51469">
        <ele>2210</ele>
        <time>2025-02-20T12:51:33Z</time>
      </trkpt>
      <trkpt lat="45.61232" lon="6.51469">
        <ele>2210</ele>
        <time>2025-02-20T12:51:34Z</time>
      </trkpt>
      <trkpt lat="45.61232" lon="6.51468">
        <ele>2210</ele>
        <time>2025-02-20T12:51:35Z</time>
      </trkpt>
      <trkpt lat="45.61232" lon="6.51468">
        <ele>2211</ele>
        <time>2025-02-20T12:51:36Z</time>
      </trkpt>
      <trkpt lat="45.61232" lon="6.51468">
        <ele>2211.6</ele>
        <time>2025-02-20T12:51:37Z</time>
      </trkpt>
      <trkpt lat="45.61232" lon="6.51468">
        <ele>2211.6</ele>
        <time>2025-02-20T12:51:38Z</time>
      </trkpt>
      <trkpt lat="45.61232" lon="6.51468">
        <ele>2211.6</ele>
        <time>2025-02-20T12:51:39Z</time>
      </trkpt>
      <trkpt lat="45.61232" lon="6.51468">
        <ele>2212.2</ele>
        <time>2025-02-20T12:51:40Z</time>
      </trkpt>
      <trkpt lat="45.61232" lon="6.51464">
        <ele>2211.2</ele>
        <time>2025-02-20T12:51:41Z</time>
      </trkpt>
      <trkpt lat="45.61232" lon="6.51463">
        <ele>2211.2</ele>
        <time>2025-02-20T12:51:42Z</time>
      </trkpt>
      <trkpt lat="45.61232" lon="6.51462">
        <ele>2211.2</ele>
        <time>2025-02-20T12:51:43Z</time>
      </trkpt>
      <trkpt lat="45.61232" lon="6.51462">
        <ele>2211.2</ele>
        <time>2025-02-20T12:51:44Z</time>
      </trkpt>
      <trkpt lat="45.61231" lon="6.51462">
        <ele>2211.8</ele>
        <time>2025-02-20T12:51:45Z</time>
      </trkpt>
      <trkpt lat="45.61231" lon="6.51461">
        <ele>2211.8</ele>
        <time>2025-02-20T12:51:46Z</time>
      </trkpt>
      <trkpt lat="45.61231" lon="6.51461">
        <ele>2211.8</ele>
        <time>2025-02-20T12:51:47Z</time>
      </trkpt>
      <trkpt lat="45.61231" lon="6.51461">
        <ele>2211.8</ele>
        <time>2025-02-20T12:51:48Z</time>
      </trkpt>
      <trkpt lat="45.61231" lon="6.51461">
        <ele>2212.8</ele>
        <time>2025-02-20T12:51:49Z</time>
      </trkpt>
      <trkpt lat="45.6123" lon="6.51458">
        <ele>2212.8</ele>
        <time>2025-02-20T12:51:50Z</time>
      </trkpt>
      <trkpt lat="45.6123" lon="6.51458">
        <ele>2212.8</ele>
        <time>2025-02-20T12:51:51Z</time>
      </trkpt>
      <trkpt lat="45.6123" lon="6.51458">
        <ele>2212.2</ele>
        <time>2025-02-20T12:51:52Z</time>
      </trkpt>
      <trkpt lat="45.6123" lon="6.51457">
        <ele>2212.2</ele>
        <time>2025-02-20T12:51:53Z</time>
      </trkpt>
      <trkpt lat="45.6123" lon="6.51457">
        <ele>2212.2</ele>
        <time>2025-02-20T12:51:54Z</time>
      </trkpt>
      <trkpt lat="45.6123" lon="6.51457">
        <ele>2212.2</ele>
        <time>2025-02-20T12:51:55Z</time>
      </trkpt>
      <trkpt lat="45.6123" lon="6.51457">
        <ele>2213.2</ele>
        <time>2025-02-20T12:51:56Z</time>
      </trkpt>
      <trkpt lat="45.61229" lon="6.51454">
        <ele>2212.2</ele>
        <time>2025-02-20T12:51:57Z</time>
      </trkpt>
      <trkpt lat="45.61229" lon="6.51454">
        <ele>2212.2</ele>
        <time>2025-02-20T12:51:58Z</time>
      </trkpt>
      <trkpt lat="45.61229" lon="6.51453">
        <ele>2212.2</ele>
        <time>2025-02-20T12:51:59Z</time>
      </trkpt>
      <trkpt lat="45.61228" lon="6.51452">
        <ele>2212.6</ele>
        <time>2025-02-20T12:52:00Z</time>
      </trkpt>
      <trkpt lat="45.61228" lon="6.51451">
        <ele>2214</ele>
        <time>2025-02-20T12:52:01Z</time>
      </trkpt>
      <trkpt lat="45.61228" lon="6.5145">
        <ele>2214</ele>
        <time>2025-02-20T12:52:02Z</time>
      </trkpt>
      <trkpt lat="45.61228" lon="6.5145">
        <ele>2214</ele>
        <time>2025-02-20T12:52:03Z</time>
      </trkpt>
      <trkpt lat="45.61228" lon="6.51449">
        <ele>2214</ele>
        <time>2025-02-20T12:52:04Z</time>
      </trkpt>
      <trkpt lat="45.61227" lon="6.51448">
        <ele>2214.2</ele>
        <time>2025-02-20T12:52:05Z</time>
      </trkpt>
      <trkpt lat="45.61227" lon="6.51447">
        <ele>2214.2</ele>
        <time>2025-02-20T12:52:06Z</time>
      </trkpt>
      <trkpt lat="45.61227" lon="6.51447">
        <ele>2214.2</ele>
        <time>2025-02-20T12:52:07Z</time>
      </trkpt>
      <trkpt lat="45.61227" lon="6.51447">
        <ele>2214.2</ele>
        <time>2025-02-20T12:52:08Z</time>
      </trkpt>
      <trkpt lat="45.61227" lon="6.51447">
        <ele>2214.2</ele>
        <time>2025-02-20T12:52:09Z</time>
      </trkpt>
      <trkpt lat="45.61227" lon="6.51447">
        <ele>2214.2</ele>
        <time>2025-02-20T12:52:10Z</time>
      </trkpt>
      <trkpt lat="45.61227" lon="6.51447">
        <ele>2214.2</ele>
        <time>2025-02-20T12:52:11Z</time>
      </trkpt>
      <trkpt lat="45.61227" lon="6.51447">
        <ele>2215</ele>
        <time>2025-02-20T12:52:12Z</time>
      </trkpt>
      <trkpt lat="45.61227" lon="6.51447">
        <ele>2214.6</ele>
        <time>2025-02-20T12:52:13Z</time>
      </trkpt>
      <trkpt lat="45.61227" lon="6.51447">
        <ele>2214.6</ele>
        <time>2025-02-20T12:52:14Z</time>
      </trkpt>
      <trkpt lat="45.61227" lon="6.51447">
        <ele>2214.6</ele>
        <time>2025-02-20T12:52:15Z</time>
      </trkpt>
      <trkpt lat="45.61227" lon="6.51447">
        <ele>2214.6</ele>
        <time>2025-02-20T12:52:16Z</time>
      </trkpt>
      <trkpt lat="45.61227" lon="6.51447">
        <ele>2215.6</ele>
        <time>2025-02-20T12:52:17Z</time>
      </trkpt>
      <trkpt lat="45.61227" lon="6.51447">
        <ele>2215.6</ele>
        <time>2025-02-20T12:52:18Z</time>
      </trkpt>
      <trkpt lat="45.61227" lon="6.51447">
        <ele>2215.6</ele>
        <time>2025-02-20T12:52:19Z</time>
      </trkpt>
      <trkpt lat="45.61225" lon="6.51438">
        <ele>2215.6</ele>
        <time>2025-02-20T12:52:20Z</time>
      </trkpt>
      <trkpt lat="45.61225" lon="6.51438">
        <ele>2216</ele>
        <time>2025-02-20T12:52:21Z</time>
      </trkpt>
      <trkpt lat="45.61225" lon="6.51437">
        <ele>2216</ele>
        <time>2025-02-20T12:52:22Z</time>
      </trkpt>
      <trkpt lat="45.61225" lon="6.51437">
        <ele>2216</ele>
        <time>2025-02-20T12:52:23Z</time>
      </trkpt>
      <trkpt lat="45.61225" lon="6.51436">
        <ele>2215.4</ele>
        <time>2025-02-20T12:52:24Z</time>
      </trkpt>
      <trkpt lat="45.61225" lon="6.51435">
        <ele>2215</ele>
        <time>2025-02-20T12:52:25Z</time>
      </trkpt>
      <trkpt lat="45.61224" lon="6.51434">
        <ele>2215</ele>
        <time>2025-02-20T12:52:26Z</time>
      </trkpt>
      <trkpt lat="45.61224" lon="6.51433">
        <ele>2215</ele>
        <time>2025-02-20T12:52:27Z</time>
      </trkpt>
      <trkpt lat="45.61224" lon="6.51433">
        <ele>2216</ele>
        <time>2025-02-20T12:52:28Z</time>
      </trkpt>
      <trkpt lat="45.61224" lon="6.51433">
        <ele>2216</ele>
        <time>2025-02-20T12:52:29Z</time>
      </trkpt>
      <trkpt lat="45.61224" lon="6.51433">
        <ele>2216</ele>
        <time>2025-02-20T12:52:30Z</time>
      </trkpt>
      <trkpt lat="45.61224" lon="6.51433">
        <ele>2216</ele>
        <time>2025-02-20T12:52:31Z</time>
      </trkpt>
      <trkpt lat="45.61224" lon="6.51433">
        <ele>2216</ele>
        <time>2025-02-20T12:52:32Z</time>
      </trkpt>
      <trkpt lat="45.61223" lon="6.51429">
        <ele>2216.8</ele>
        <time>2025-02-20T12:52:33Z</time>
      </trkpt>
      <trkpt lat="45.61223" lon="6.51428">
        <ele>2216.8</ele>
        <time>2025-02-20T12:52:34Z</time>
      </trkpt>
      <trkpt lat="45.61223" lon="6.51428">
        <ele>2216.8</ele>
        <time>2025-02-20T12:52:35Z</time>
      </trkpt>
      <trkpt lat="45.61223" lon="6.51427">
        <ele>2216.8</ele>
        <time>2025-02-20T12:52:36Z</time>
      </trkpt>
      <trkpt lat="45.61223" lon="6.51427">
        <ele>2217.2</ele>
        <time>2025-02-20T12:52:37Z</time>
      </trkpt>
      <trkpt lat="45.61223" lon="6.51427">
        <ele>2217.2</ele>
        <time>2025-02-20T12:52:38Z</time>
      </trkpt>
      <trkpt lat="45.61223" lon="6.51427">
        <ele>2217.2</ele>
        <time>2025-02-20T12:52:39Z</time>
      </trkpt>
      <trkpt lat="45.61223" lon="6.51427">
        <ele>2217</ele>
        <time>2025-02-20T12:52:40Z</time>
      </trkpt>
      <trkpt lat="45.61223" lon="6.51424">
        <ele>2216.8</ele>
        <time>2025-02-20T12:52:41Z</time>
      </trkpt>
      <trkpt lat="45.61223" lon="6.51423">
        <ele>2216.8</ele>
        <time>2025-02-20T12:52:42Z</time>
      </trkpt>
      <trkpt lat="45.61223" lon="6.51422">
        <ele>2216.8</ele>
        <time>2025-02-20T12:52:43Z</time>
      </trkpt>
      <trkpt lat="45.61223" lon="6.51422">
        <ele>2217.8</ele>
        <time>2025-02-20T12:52:44Z</time>
      </trkpt>
      <trkpt lat="45.61222" lon="6.51421">
        <ele>2216.8</ele>
        <time>2025-02-20T12:52:45Z</time>
      </trkpt>
      <trkpt lat="45.61222" lon="6.51421">
        <ele>2216.8</ele>
        <time>2025-02-20T12:52:46Z</time>
      </trkpt>
      <trkpt lat="45.61222" lon="6.5142">
        <ele>2216.8</ele>
        <time>2025-02-20T12:52:47Z</time>
      </trkpt>
      <trkpt lat="45.61222" lon="6.51419">
        <ele>2217.6</ele>
        <time>2025-02-20T12:52:48Z</time>
      </trkpt>
      <trkpt lat="45.61222" lon="6.51419">
        <ele>2218.4</ele>
        <time>2025-02-20T12:52:49Z</time>
      </trkpt>
      <trkpt lat="45.61221" lon="6.51418">
        <ele>2218.4</ele>
        <time>2025-02-20T12:52:50Z</time>
      </trkpt>
      <trkpt lat="45.61221" lon="6.51417">
        <ele>2218.4</ele>
        <time>2025-02-20T12:52:51Z</time>
      </trkpt>
      <trkpt lat="45.61221" lon="6.51417">
        <ele>2218.4</ele>
        <time>2025-02-20T12:52:52Z</time>
      </trkpt>
      <trkpt lat="45.61221" lon="6.51416">
        <ele>2217.6</ele>
        <time>2025-02-20T12:52:53Z</time>
      </trkpt>
      <trkpt lat="45.61221" lon="6.51416">
        <ele>2217.6</ele>
        <time>2025-02-20T12:52:54Z</time>
      </trkpt>
      <trkpt lat="45.61221" lon="6.51416">
        <ele>2217.6</ele>
        <time>2025-02-20T12:52:55Z</time>
      </trkpt>
      <trkpt lat="45.61221" lon="6.51416">
        <ele>2218.6</ele>
        <time>2025-02-20T12:52:56Z</time>
      </trkpt>
      <trkpt lat="45.6122" lon="6.51414">
        <ele>2218</ele>
        <time>2025-02-20T12:52:57Z</time>
      </trkpt>
      <trkpt lat="45.6122" lon="6.51413">
        <ele>2218</ele>
        <time>2025-02-20T12:52:58Z</time>
      </trkpt>
      <trkpt lat="45.6122" lon="6.51412">
        <ele>2218</ele>
        <time>2025-02-20T12:52:59Z</time>
      </trkpt>
      <trkpt lat="45.6122" lon="6.51411">
        <ele>2218</ele>
        <time>2025-02-20T12:53:00Z</time>
      </trkpt>
      <trkpt lat="45.6122" lon="6.51411">
        <ele>2219.6</ele>
        <time>2025-02-20T12:53:01Z</time>
      </trkpt>
      <trkpt lat="45.61221" lon="6.5141">
        <ele>2219.6</ele>
        <time>2025-02-20T12:53:02Z</time>
      </trkpt>
      <trkpt lat="45.61221" lon="6.5141">
        <ele>2219.6</ele>
        <time>2025-02-20T12:53:03Z</time>
      </trkpt>
      <trkpt lat="45.61221" lon="6.5141">
        <ele>2219.6</ele>
        <time>2025-02-20T12:53:04Z</time>
      </trkpt>
      <trkpt lat="45.61221" lon="6.5141">
        <ele>2220.2</ele>
        <time>2025-02-20T12:53:05Z</time>
      </trkpt>
      <trkpt lat="45.61221" lon="6.5141">
        <ele>2220.2</ele>
        <time>2025-02-20T12:53:06Z</time>
      </trkpt>
      <trkpt lat="45.61221" lon="6.51408">
        <ele>2220.2</ele>
        <time>2025-02-20T12:53:07Z</time>
      </trkpt>
      <trkpt lat="45.61221" lon="6.51408">
        <ele>2219.8</ele>
        <time>2025-02-20T12:53:08Z</time>
      </trkpt>
      <trkpt lat="45.61221" lon="6.51408">
        <ele>2220.8</ele>
        <time>2025-02-20T12:53:09Z</time>
      </trkpt>
      <trkpt lat="45.61221" lon="6.51408">
        <ele>2220.8</ele>
        <time>2025-02-20T12:53:10Z</time>
      </trkpt>
      <trkpt lat="45.61221" lon="6.51408">
        <ele>2220.8</ele>
        <time>2025-02-20T12:53:11Z</time>
      </trkpt>
      <trkpt lat="45.6122" lon="6.51405">
        <ele>2219.8</ele>
        <time>2025-02-20T12:53:12Z</time>
      </trkpt>
      <trkpt lat="45.6122" lon="6.51405">
        <ele>2219.4</ele>
        <time>2025-02-20T12:53:13Z</time>
      </trkpt>
      <trkpt lat="45.6122" lon="6.51405">
        <ele>2219.4</ele>
        <time>2025-02-20T12:53:14Z</time>
      </trkpt>
      <trkpt lat="45.6122" lon="6.51403">
        <ele>2219.4</ele>
        <time>2025-02-20T12:53:15Z</time>
      </trkpt>
      <trkpt lat="45.6122" lon="6.51403">
        <ele>2220.4</ele>
        <time>2025-02-20T12:53:16Z</time>
      </trkpt>
      <trkpt lat="45.6122" lon="6.51402">
        <ele>2220.8</ele>
        <time>2025-02-20T12:53:17Z</time>
      </trkpt>
      <trkpt lat="45.6122" lon="6.51402">
        <ele>2220.8</ele>
        <time>2025-02-20T12:53:18Z</time>
      </trkpt>
      <trkpt lat="45.6122" lon="6.51402">
        <ele>2220.8</ele>
        <time>2025-02-20T12:53:19Z</time>
      </trkpt>
      <trkpt lat="45.6122" lon="6.51402">
        <ele>2220.8</ele>
        <time>2025-02-20T12:53:20Z</time>
      </trkpt>
      <trkpt lat="45.6122" lon="6.51402">
        <ele>2220.6</ele>
        <time>2025-02-20T12:53:21Z</time>
      </trkpt>
      <trkpt lat="45.6122" lon="6.51399">
        <ele>2220.6</ele>
        <time>2025-02-20T12:53:22Z</time>
      </trkpt>
      <trkpt lat="45.6122" lon="6.51399">
        <ele>2220.6</ele>
        <time>2025-02-20T12:53:23Z</time>
      </trkpt>
      <trkpt lat="45.6122" lon="6.51399">
        <ele>2221.6</ele>
        <time>2025-02-20T12:53:24Z</time>
      </trkpt>
      <trkpt lat="45.6122" lon="6.51399">
        <ele>2221</ele>
        <time>2025-02-20T12:53:25Z</time>
      </trkpt>
      <trkpt lat="45.6122" lon="6.51399">
        <ele>2221</ele>
        <time>2025-02-20T12:53:26Z</time>
      </trkpt>
      <trkpt lat="45.6122" lon="6.51399">
        <ele>2221</ele>
        <time>2025-02-20T12:53:27Z</time>
      </trkpt>
      <trkpt lat="45.6122" lon="6.51399">
        <ele>2221</ele>
        <time>2025-02-20T12:53:28Z</time>
      </trkpt>
      <trkpt lat="45.6122" lon="6.51399">
        <ele>2221.2</ele>
        <time>2025-02-20T12:53:29Z</time>
      </trkpt>
      <trkpt lat="45.6122" lon="6.51395">
        <ele>2221.2</ele>
        <time>2025-02-20T12:53:30Z</time>
      </trkpt>
      <trkpt lat="45.6122" lon="6.51395">
        <ele>2221.2</ele>
        <time>2025-02-20T12:53:31Z</time>
      </trkpt>
      <trkpt lat="45.6122" lon="6.51395">
        <ele>2221.2</ele>
        <time>2025-02-20T12:53:32Z</time>
      </trkpt>
      <trkpt lat="45.6122" lon="6.51395">
        <ele>2222.2</ele>
        <time>2025-02-20T12:53:33Z</time>
      </trkpt>
      <trkpt lat="45.6122" lon="6.51395">
        <ele>2222.2</ele>
        <time>2025-02-20T12:53:34Z</time>
      </trkpt>
      <trkpt lat="45.6122" lon="6.51393">
        <ele>2222.2</ele>
        <time>2025-02-20T12:53:35Z</time>
      </trkpt>
      <trkpt lat="45.6122" lon="6.51392">
        <ele>2222.2</ele>
        <time>2025-02-20T12:53:36Z</time>
      </trkpt>
      <trkpt lat="45.6122" lon="6.51392">
        <ele>2223</ele>
        <time>2025-02-20T12:53:37Z</time>
      </trkpt>
      <trkpt lat="45.6122" lon="6.51392">
        <ele>2223</ele>
        <time>2025-02-20T12:53:38Z</time>
      </trkpt>
      <trkpt lat="45.6122" lon="6.51392">
        <ele>2223</ele>
        <time>2025-02-20T12:53:39Z</time>
      </trkpt>
      <trkpt lat="45.6122" lon="6.51392">
        <ele>2222.8</ele>
        <time>2025-02-20T12:53:40Z</time>
      </trkpt>
      <trkpt lat="45.6122" lon="6.51392">
        <ele>2223.4</ele>
        <time>2025-02-20T12:53:41Z</time>
      </trkpt>
      <trkpt lat="45.6122" lon="6.51392">
        <ele>2223.4</ele>
        <time>2025-02-20T12:53:42Z</time>
      </trkpt>
      <trkpt lat="45.6122" lon="6.51392">
        <ele>2223.4</ele>
        <time>2025-02-20T12:53:43Z</time>
      </trkpt>
      <trkpt lat="45.6122" lon="6.51392">
        <ele>2223.2</ele>
        <time>2025-02-20T12:53:44Z</time>
      </trkpt>
      <trkpt lat="45.6122" lon="6.51392">
        <ele>2224</ele>
        <time>2025-02-20T12:53:45Z</time>
      </trkpt>
      <trkpt lat="45.6122" lon="6.51392">
        <ele>2224</ele>
        <time>2025-02-20T12:53:46Z</time>
      </trkpt>
      <trkpt lat="45.6122" lon="6.51392">
        <ele>2224</ele>
        <time>2025-02-20T12:53:47Z</time>
      </trkpt>
      <trkpt lat="45.6122" lon="6.51392">
        <ele>2223.4</ele>
        <time>2025-02-20T12:53:48Z</time>
      </trkpt>
      <trkpt lat="45.6122" lon="6.51392">
        <ele>2223.6</ele>
        <time>2025-02-20T12:53:49Z</time>
      </trkpt>
      <trkpt lat="45.6122" lon="6.51392">
        <ele>2223.6</ele>
        <time>2025-02-20T12:53:50Z</time>
      </trkpt>
      <trkpt lat="45.6122" lon="6.51392">
        <ele>2223.6</ele>
        <time>2025-02-20T12:53:51Z</time>
      </trkpt>
      <trkpt lat="45.6122" lon="6.51392">
        <ele>2223.6</ele>
        <time>2025-02-20T12:53:52Z</time>
      </trkpt>
      <trkpt lat="45.6122" lon="6.51392">
        <ele>2224.6</ele>
        <time>2025-02-20T12:53:53Z</time>
      </trkpt>
      <trkpt lat="45.6122" lon="6.51392">
        <ele>2224.6</ele>
        <time>2025-02-20T12:53:54Z</time>
      </trkpt>
      <trkpt lat="45.6122" lon="6.51392">
        <ele>2224.6</ele>
        <time>2025-02-20T12:53:55Z</time>
      </trkpt>
      <trkpt lat="45.6122" lon="6.51392">
        <ele>2224.6</ele>
        <time>2025-02-20T12:53:56Z</time>
      </trkpt>
      <trkpt lat="45.6122" lon="6.51392">
        <ele>2223.6</ele>
        <time>2025-02-20T12:53:57Z</time>
      </trkpt>
      <trkpt lat="45.6122" lon="6.51392">
        <ele>2223.6</ele>
        <time>2025-02-20T12:53:58Z</time>
      </trkpt>
      <trkpt lat="45.6122" lon="6.51392">
        <ele>2223.6</ele>
        <time>2025-02-20T12:53:59Z</time>
      </trkpt>
      <trkpt lat="45.6122" lon="6.51392">
        <ele>2224.6</ele>
        <time>2025-02-20T12:54:00Z</time>
      </trkpt>
      <trkpt lat="45.6122" lon="6.51392">
        <ele>2223.8</ele>
        <time>2025-02-20T12:54:01Z</time>
      </trkpt>
      <trkpt lat="45.6122" lon="6.51392">
        <ele>2223.8</ele>
        <time>2025-02-20T12:54:02Z</time>
      </trkpt>
      <trkpt lat="45.6122" lon="6.51392">
        <ele>2223.8</ele>
        <time>2025-02-20T12:54:03Z</time>
      </trkpt>
      <trkpt lat="45.6122" lon="6.51392">
        <ele>2224.8</ele>
        <time>2025-02-20T12:54:04Z</time>
      </trkpt>
      <trkpt lat="45.6122" lon="6.51392">
        <ele>2225.6</ele>
        <time>2025-02-20T12:54:05Z</time>
      </trkpt>
      <trkpt lat="45.6122" lon="6.51377">
        <ele>2225.6</ele>
        <time>2025-02-20T12:54:06Z</time>
      </trkpt>
      <trkpt lat="45.6122" lon="6.51376">
        <ele>2225.6</ele>
        <time>2025-02-20T12:54:07Z</time>
      </trkpt>
      <trkpt lat="45.6122" lon="6.51376">
        <ele>2225.6</ele>
        <time>2025-02-20T12:54:08Z</time>
      </trkpt>
      <trkpt lat="45.6122" lon="6.51376">
        <ele>2225.8</ele>
        <time>2025-02-20T12:54:09Z</time>
      </trkpt>
      <trkpt lat="45.6122" lon="6.51376">
        <ele>2225.8</ele>
        <time>2025-02-20T12:54:10Z</time>
      </trkpt>
      <trkpt lat="45.6122" lon="6.51376">
        <ele>2225.8</ele>
        <time>2025-02-20T12:54:11Z</time>
      </trkpt>
      <trkpt lat="45.6122" lon="6.51376">
        <ele>2225.8</ele>
        <time>2025-02-20T12:54:12Z</time>
      </trkpt>
      <trkpt lat="45.6122" lon="6.51376">
        <ele>2226.6</ele>
        <time>2025-02-20T12:54:13Z</time>
      </trkpt>
      <trkpt lat="45.6122" lon="6.51376">
        <ele>2226.6</ele>
        <time>2025-02-20T12:54:14Z</time>
      </trkpt>
      <trkpt lat="45.6122" lon="6.51376">
        <ele>2226.6</ele>
        <time>2025-02-20T12:54:15Z</time>
      </trkpt>
      <trkpt lat="45.6122" lon="6.51376">
        <ele>2225.6</ele>
        <time>2025-02-20T12:54:16Z</time>
      </trkpt>
      <trkpt lat="45.6122" lon="6.51376">
        <ele>2226.4</ele>
        <time>2025-02-20T12:54:17Z</time>
      </trkpt>
      <trkpt lat="45.6122" lon="6.51376">
        <ele>2226.4</ele>
        <time>2025-02-20T12:54:18Z</time>
      </trkpt>
      <trkpt lat="45.6122" lon="6.51376">
        <ele>2226.4</ele>
        <time>2025-02-20T12:54:19Z</time>
      </trkpt>
      <trkpt lat="45.6122" lon="6.51376">
        <ele>2226.4</ele>
        <time>2025-02-20T12:54:20Z</time>
      </trkpt>
      <trkpt lat="45.6122" lon="6.51376">
        <ele>2226.6</ele>
        <time>2025-02-20T12:54:21Z</time>
      </trkpt>
      <trkpt lat="45.6122" lon="6.51376">
        <ele>2226.6</ele>
        <time>2025-02-20T12:54:22Z</time>
      </trkpt>
      <trkpt lat="45.6122" lon="6.51376">
        <ele>2226.6</ele>
        <time>2025-02-20T12:54:23Z</time>
      </trkpt>
      <trkpt lat="45.6122" lon="6.51376">
        <ele>2226.6</ele>
        <time>2025-02-20T12:54:24Z</time>
      </trkpt>
      <trkpt lat="45.61217" lon="6.51376">
        <ele>2226.8</ele>
        <time>2025-02-20T12:54:25Z</time>
      </trkpt>
      <trkpt lat="45.61217" lon="6.51376">
        <ele>2226.8</ele>
        <time>2025-02-20T12:54:26Z</time>
      </trkpt>
      <trkpt lat="45.61216" lon="6.51377">
        <ele>2226.8</ele>
        <time>2025-02-20T12:54:27Z</time>
      </trkpt>
      <trkpt lat="45.61216" lon="6.51377">
        <ele>2226.8</ele>
        <time>2025-02-20T12:54:28Z</time>
      </trkpt>
      <trkpt lat="45.61215" lon="6.51378">
        <ele>2226.6</ele>
        <time>2025-02-20T12:54:29Z</time>
      </trkpt>
      <trkpt lat="45.61215" lon="6.51378">
        <ele>2226.6</ele>
        <time>2025-02-20T12:54:30Z</time>
      </trkpt>
      <trkpt lat="45.61215" lon="6.51378">
        <ele>2226.6</ele>
        <time>2025-02-20T12:54:31Z</time>
      </trkpt>
      <trkpt lat="45.61215" lon="6.51378">
        <ele>2226.6</ele>
        <time>2025-02-20T12:54:32Z</time>
      </trkpt>
      <trkpt lat="45.61215" lon="6.51378">
        <ele>2227.6</ele>
        <time>2025-02-20T12:54:33Z</time>
      </trkpt>
      <trkpt lat="45.61215" lon="6.51378">
        <ele>2227.6</ele>
        <time>2025-02-20T12:54:34Z</time>
      </trkpt>
      <trkpt lat="45.61215" lon="6.51378">
        <ele>2227.6</ele>
        <time>2025-02-20T12:54:35Z</time>
      </trkpt>
      <trkpt lat="45.61215" lon="6.51378">
        <ele>2227.6</ele>
        <time>2025-02-20T12:54:36Z</time>
      </trkpt>
      <trkpt lat="45.61215" lon="6.51378">
        <ele>2228</ele>
        <time>2025-02-20T12:54:37Z</time>
      </trkpt>
      <trkpt lat="45.61215" lon="6.51378">
        <ele>2228</ele>
        <time>2025-02-20T12:54:38Z</time>
      </trkpt>
      <trkpt lat="45.61215" lon="6.51378">
        <ele>2228</ele>
        <time>2025-02-20T12:54:39Z</time>
      </trkpt>
      <trkpt lat="45.61215" lon="6.51378">
        <ele>2228</ele>
        <time>2025-02-20T12:54:40Z</time>
      </trkpt>
      <trkpt lat="45.61215" lon="6.51378">
        <ele>2228</ele>
        <time>2025-02-20T12:54:41Z</time>
      </trkpt>
      <trkpt lat="45.61215" lon="6.51378">
        <ele>2228</ele>
        <time>2025-02-20T12:54:42Z</time>
      </trkpt>
      <trkpt lat="45.61215" lon="6.51378">
        <ele>2228</ele>
        <time>2025-02-20T12:54:43Z</time>
      </trkpt>
      <trkpt lat="45.61215" lon="6.51378">
        <ele>2228</ele>
        <time>2025-02-20T12:54:44Z</time>
      </trkpt>
      <trkpt lat="45.61215" lon="6.51378">
        <ele>2228</ele>
        <time>2025-02-20T12:54:45Z</time>
      </trkpt>
      <trkpt lat="45.61215" lon="6.51378">
        <ele>2228</ele>
        <time>2025-02-20T12:54:46Z</time>
      </trkpt>
      <trkpt lat="45.61215" lon="6.51378">
        <ele>2228</ele>
        <time>2025-02-20T12:54:47Z</time>
      </trkpt>
      <trkpt lat="45.61215" lon="6.51378">
        <ele>2228.8</ele>
        <time>2025-02-20T12:54:48Z</time>
      </trkpt>
      <trkpt lat="45.61215" lon="6.51378">
        <ele>2228</ele>
        <time>2025-02-20T12:54:49Z</time>
      </trkpt>
      <trkpt lat="45.61215" lon="6.51378">
        <ele>2228</ele>
        <time>2025-02-20T12:54:50Z</time>
      </trkpt>
      <trkpt lat="45.61214" lon="6.51375">
        <ele>2228</ele>
        <time>2025-02-20T12:54:51Z</time>
      </trkpt>
      <trkpt lat="45.61214" lon="6.51374">
        <ele>2228</ele>
        <time>2025-02-20T12:54:52Z</time>
      </trkpt>
      <trkpt lat="45.61213" lon="6.51373">
        <ele>2229.4</ele>
        <time>2025-02-20T12:54:53Z</time>
      </trkpt>
      <trkpt lat="45.61213" lon="6.51372">
        <ele>2229.4</ele>
        <time>2025-02-20T12:54:54Z</time>
      </trkpt>
      <trkpt lat="45.61213" lon="6.51372">
        <ele>2229.4</ele>
        <time>2025-02-20T12:54:55Z</time>
      </trkpt>
      <trkpt lat="45.61213" lon="6.5137">
        <ele>2229.4</ele>
        <time>2025-02-20T12:54:56Z</time>
      </trkpt>
      <trkpt lat="45.61213" lon="6.5137">
        <ele>2230</ele>
        <time>2025-02-20T12:54:57Z</time>
      </trkpt>
      <trkpt lat="45.61213" lon="6.51368">
        <ele>2230</ele>
        <time>2025-02-20T12:54:58Z</time>
      </trkpt>
      <trkpt lat="45.61213" lon="6.51368">
        <ele>2230</ele>
        <time>2025-02-20T12:54:59Z</time>
      </trkpt>
      <trkpt lat="45.61213" lon="6.51367">
        <ele>2229.8</ele>
        <time>2025-02-20T12:55:00Z</time>
      </trkpt>
      <trkpt lat="45.61213" lon="6.51366">
        <ele>2229.2</ele>
        <time>2025-02-20T12:55:01Z</time>
      </trkpt>
      <trkpt lat="45.61213" lon="6.51366">
        <ele>2229.2</ele>
        <time>2025-02-20T12:55:02Z</time>
      </trkpt>
      <trkpt lat="45.61213" lon="6.51366">
        <ele>2229.2</ele>
        <time>2025-02-20T12:55:03Z</time>
      </trkpt>
      <trkpt lat="45.61213" lon="6.51366">
        <ele>2230.2</ele>
        <time>2025-02-20T12:55:04Z</time>
      </trkpt>
      <trkpt lat="45.61213" lon="6.51366">
        <ele>2231</ele>
        <time>2025-02-20T12:55:05Z</time>
      </trkpt>
      <trkpt lat="45.61213" lon="6.51366">
        <ele>2231</ele>
        <time>2025-02-20T12:55:06Z</time>
      </trkpt>
      <trkpt lat="45.61213" lon="6.51362">
        <ele>2231</ele>
        <time>2025-02-20T12:55:07Z</time>
      </trkpt>
      <trkpt lat="45.61213" lon="6.51361">
        <ele>2231</ele>
        <time>2025-02-20T12:55:08Z</time>
      </trkpt>
      <trkpt lat="45.61213" lon="6.5136">
        <ele>2230.2</ele>
        <time>2025-02-20T12:55:09Z</time>
      </trkpt>
      <trkpt lat="45.61213" lon="6.5136">
        <ele>2230.2</ele>
        <time>2025-02-20T12:55:10Z</time>
      </trkpt>
      <trkpt lat="45.61213" lon="6.5136">
        <ele>2230.2</ele>
        <time>2025-02-20T12:55:11Z</time>
      </trkpt>
      <trkpt lat="45.61213" lon="6.5136">
        <ele>2231.2</ele>
        <time>2025-02-20T12:55:12Z</time>
      </trkpt>
      <trkpt lat="45.61213" lon="6.5136">
        <ele>2232.2</ele>
        <time>2025-02-20T12:55:13Z</time>
      </trkpt>
      <trkpt lat="45.61213" lon="6.51357">
        <ele>2232.2</ele>
        <time>2025-02-20T12:55:14Z</time>
      </trkpt>
      <trkpt lat="45.61214" lon="6.51357">
        <ele>2232.2</ele>
        <time>2025-02-20T12:55:15Z</time>
      </trkpt>
      <trkpt lat="45.61214" lon="6.51356">
        <ele>2231.8</ele>
        <time>2025-02-20T12:55:16Z</time>
      </trkpt>
      <trkpt lat="45.61213" lon="6.51355">
        <ele>2231.2</ele>
        <time>2025-02-20T12:55:17Z</time>
      </trkpt>
      <trkpt lat="45.61213" lon="6.51355">
        <ele>2231.2</ele>
        <time>2025-02-20T12:55:18Z</time>
      </trkpt>
      <trkpt lat="45.61213" lon="6.51354">
        <ele>2231.2</ele>
        <time>2025-02-20T12:55:19Z</time>
      </trkpt>
      <trkpt lat="45.61213" lon="6.51353">
        <ele>2232.2</ele>
        <time>2025-02-20T12:55:20Z</time>
      </trkpt>
      <trkpt lat="45.61214" lon="6.51352">
        <ele>2232.4</ele>
        <time>2025-02-20T12:55:21Z</time>
      </trkpt>
      <trkpt lat="45.61214" lon="6.51352">
        <ele>2232.4</ele>
        <time>2025-02-20T12:55:22Z</time>
      </trkpt>
      <trkpt lat="45.61214" lon="6.51351">
        <ele>2232.4</ele>
        <time>2025-02-20T12:55:23Z</time>
      </trkpt>
      <trkpt lat="45.61214" lon="6.51351">
        <ele>2232.4</ele>
        <time>2025-02-20T12:55:24Z</time>
      </trkpt>
      <trkpt lat="45.61214" lon="6.5135">
        <ele>2232.8</ele>
        <time>2025-02-20T12:55:25Z</time>
      </trkpt>
      <trkpt lat="45.61214" lon="6.51349">
        <ele>2232.8</ele>
        <time>2025-02-20T12:55:26Z</time>
      </trkpt>
      <trkpt lat="45.61214" lon="6.51349">
        <ele>2232.8</ele>
        <time>2025-02-20T12:55:27Z</time>
      </trkpt>
      <trkpt lat="45.61214" lon="6.51349">
        <ele>2232.8</ele>
        <time>2025-02-20T12:55:28Z</time>
      </trkpt>
      <trkpt lat="45.61214" lon="6.51349">
        <ele>2233</ele>
        <time>2025-02-20T12:55:29Z</time>
      </trkpt>
      <trkpt lat="45.61214" lon="6.51349">
        <ele>2233</ele>
        <time>2025-02-20T12:55:30Z</time>
      </trkpt>
      <trkpt lat="45.61214" lon="6.51349">
        <ele>2233</ele>
        <time>2025-02-20T12:55:31Z</time>
      </trkpt>
      <trkpt lat="45.61214" lon="6.51349">
        <ele>2233</ele>
        <time>2025-02-20T12:55:32Z</time>
      </trkpt>
      <trkpt lat="45.61214" lon="6.51349">
        <ele>2233.2</ele>
        <time>2025-02-20T12:55:33Z</time>
      </trkpt>
      <trkpt lat="45.61214" lon="6.51349">
        <ele>2233.2</ele>
        <time>2025-02-20T12:55:34Z</time>
      </trkpt>
      <trkpt lat="45.61214" lon="6.51349">
        <ele>2233.2</ele>
        <time>2025-02-20T12:55:35Z</time>
      </trkpt>
      <trkpt lat="45.61214" lon="6.51349">
        <ele>2233.2</ele>
        <time>2025-02-20T12:55:36Z</time>
      </trkpt>
      <trkpt lat="45.61214" lon="6.51349">
        <ele>2234</ele>
        <time>2025-02-20T12:55:37Z</time>
      </trkpt>
      <trkpt lat="45.61212" lon="6.51351">
        <ele>2234</ele>
        <time>2025-02-20T12:55:38Z</time>
      </trkpt>
      <trkpt lat="45.61211" lon="6.51351">
        <ele>2234</ele>
        <time>2025-02-20T12:55:39Z</time>
      </trkpt>
      <trkpt lat="45.6121" lon="6.51352">
        <ele>2234</ele>
        <time>2025-02-20T12:55:40Z</time>
      </trkpt>
      <trkpt lat="45.61209" lon="6.51353">
        <ele>2234</ele>
        <time>2025-02-20T12:55:41Z</time>
      </trkpt>
      <trkpt lat="45.61209" lon="6.51353">
        <ele>2234</ele>
        <time>2025-02-20T12:55:42Z</time>
      </trkpt>
      <trkpt lat="45.61209" lon="6.51353">
        <ele>2234</ele>
        <time>2025-02-20T12:55:43Z</time>
      </trkpt>
      <trkpt lat="45.61209" lon="6.51353">
        <ele>2235</ele>
        <time>2025-02-20T12:55:44Z</time>
      </trkpt>
      <trkpt lat="45.61209" lon="6.51353">
        <ele>2234</ele>
        <time>2025-02-20T12:55:45Z</time>
      </trkpt>
      <trkpt lat="45.61209" lon="6.51353">
        <ele>2234</ele>
        <time>2025-02-20T12:55:46Z</time>
      </trkpt>
      <trkpt lat="45.61209" lon="6.51353">
        <ele>2234</ele>
        <time>2025-02-20T12:55:47Z</time>
      </trkpt>
      <trkpt lat="45.61209" lon="6.51353">
        <ele>2234</ele>
        <time>2025-02-20T12:55:48Z</time>
      </trkpt>
      <trkpt lat="45.61209" lon="6.51353">
        <ele>2235.6</ele>
        <time>2025-02-20T12:55:49Z</time>
      </trkpt>
      <trkpt lat="45.61209" lon="6.51353">
        <ele>2235.6</ele>
        <time>2025-02-20T12:55:50Z</time>
      </trkpt>
      <trkpt lat="45.61209" lon="6.51353">
        <ele>2235.6</ele>
        <time>2025-02-20T12:55:51Z</time>
      </trkpt>
      <trkpt lat="45.61206" lon="6.51357">
        <ele>2234.6</ele>
        <time>2025-02-20T12:55:52Z</time>
      </trkpt>
      <trkpt lat="45.61205" lon="6.51357">
        <ele>2235.6</ele>
        <time>2025-02-20T12:55:53Z</time>
      </trkpt>
      <trkpt lat="45.61205" lon="6.51357">
        <ele>2235.6</ele>
        <time>2025-02-20T12:55:54Z</time>
      </trkpt>
      <trkpt lat="45.61205" lon="6.51357">
        <ele>2235.6</ele>
        <time>2025-02-20T12:55:55Z</time>
      </trkpt>
      <trkpt lat="45.61205" lon="6.51357">
        <ele>2235.6</ele>
        <time>2025-02-20T12:55:56Z</time>
      </trkpt>
      <trkpt lat="45.61205" lon="6.51357">
        <ele>2236</ele>
        <time>2025-02-20T12:55:57Z</time>
      </trkpt>
      <trkpt lat="45.61205" lon="6.51357">
        <ele>2236</ele>
        <time>2025-02-20T12:55:58Z</time>
      </trkpt>
      <trkpt lat="45.61205" lon="6.51357">
        <ele>2236</ele>
        <time>2025-02-20T12:55:59Z</time>
      </trkpt>
      <trkpt lat="45.61205" lon="6.51357">
        <ele>2236.8</ele>
        <time>2025-02-20T12:56:00Z</time>
      </trkpt>
      <trkpt lat="45.61205" lon="6.51357">
        <ele>2236</ele>
        <time>2025-02-20T12:56:01Z</time>
      </trkpt>
      <trkpt lat="45.61205" lon="6.51357">
        <ele>2236</ele>
        <time>2025-02-20T12:56:02Z</time>
      </trkpt>
      <trkpt lat="45.61202" lon="6.51361">
        <ele>2236</ele>
        <time>2025-02-20T12:56:03Z</time>
      </trkpt>
      <trkpt lat="45.61201" lon="6.51361">
        <ele>2236</ele>
        <time>2025-02-20T12:56:04Z</time>
      </trkpt>
      <trkpt lat="45.61201" lon="6.51361">
        <ele>2236.8</ele>
        <time>2025-02-20T12:56:05Z</time>
      </trkpt>
      <trkpt lat="45.61201" lon="6.51361">
        <ele>2236.8</ele>
        <time>2025-02-20T12:56:06Z</time>
      </trkpt>
      <trkpt lat="45.61201" lon="6.51361">
        <ele>2236.8</ele>
        <time>2025-02-20T12:56:07Z</time>
      </trkpt>
      <trkpt lat="45.61198" lon="6.51362">
        <ele>2236.8</ele>
        <time>2025-02-20T12:56:08Z</time>
      </trkpt>
      <trkpt lat="45.61198" lon="6.51362">
        <ele>2237.2</ele>
        <time>2025-02-20T12:56:09Z</time>
      </trkpt>
      <trkpt lat="45.61197" lon="6.51361">
        <ele>2237.2</ele>
        <time>2025-02-20T12:56:10Z</time>
      </trkpt>
      <trkpt lat="45.61197" lon="6.5136">
        <ele>2237.2</ele>
        <time>2025-02-20T12:56:11Z</time>
      </trkpt>
      <trkpt lat="45.61197" lon="6.5136">
        <ele>2237.2</ele>
        <time>2025-02-20T12:56:12Z</time>
      </trkpt>
      <trkpt lat="45.61197" lon="6.51358">
        <ele>2237.6</ele>
        <time>2025-02-20T12:56:13Z</time>
      </trkpt>
      <trkpt lat="45.61198" lon="6.51357">
        <ele>2237.6</ele>
        <time>2025-02-20T12:56:14Z</time>
      </trkpt>
      <trkpt lat="45.61198" lon="6.51355">
        <ele>2237.6</ele>
        <time>2025-02-20T12:56:15Z</time>
      </trkpt>
      <trkpt lat="45.61198" lon="6.51355">
        <ele>2237.6</ele>
        <time>2025-02-20T12:56:16Z</time>
      </trkpt>
      <trkpt lat="45.61198" lon="6.51354">
        <ele>2237.8</ele>
        <time>2025-02-20T12:56:17Z</time>
      </trkpt>
      <trkpt lat="45.61198" lon="6.51353">
        <ele>2237.8</ele>
        <time>2025-02-20T12:56:18Z</time>
      </trkpt>
      <trkpt lat="45.61198" lon="6.51353">
        <ele>2237.8</ele>
        <time>2025-02-20T12:56:19Z</time>
      </trkpt>
      <trkpt lat="45.61198" lon="6.51353">
        <ele>2237.8</ele>
        <time>2025-02-20T12:56:20Z</time>
      </trkpt>
      <trkpt lat="45.61198" lon="6.51353">
        <ele>2239</ele>
        <time>2025-02-20T12:56:21Z</time>
      </trkpt>
      <trkpt lat="45.61198" lon="6.51353">
        <ele>2239</ele>
        <time>2025-02-20T12:56:22Z</time>
      </trkpt>
      <trkpt lat="45.61198" lon="6.51353">
        <ele>2239</ele>
        <time>2025-02-20T12:56:23Z</time>
      </trkpt>
      <trkpt lat="45.61198" lon="6.51353">
        <ele>2239</ele>
        <time>2025-02-20T12:56:24Z</time>
      </trkpt>
      <trkpt lat="45.61198" lon="6.51353">
        <ele>2238.6</ele>
        <time>2025-02-20T12:56:25Z</time>
      </trkpt>
      <trkpt lat="45.61198" lon="6.51353">
        <ele>2238.6</ele>
        <time>2025-02-20T12:56:26Z</time>
      </trkpt>
      <trkpt lat="45.61198" lon="6.51353">
        <ele>2238.6</ele>
        <time>2025-02-20T12:56:27Z</time>
      </trkpt>
      <trkpt lat="45.61198" lon="6.51353">
        <ele>2239.6</ele>
        <time>2025-02-20T12:56:28Z</time>
      </trkpt>
      <trkpt lat="45.61197" lon="6.51346">
        <ele>2238.6</ele>
        <time>2025-02-20T12:56:29Z</time>
      </trkpt>
      <trkpt lat="45.61196" lon="6.51345">
        <ele>2238.6</ele>
        <time>2025-02-20T12:56:30Z</time>
      </trkpt>
      <trkpt lat="45.61196" lon="6.51345">
        <ele>2238.6</ele>
        <time>2025-02-20T12:56:31Z</time>
      </trkpt>
      <trkpt lat="45.61196" lon="6.51345">
        <ele>2239.6</ele>
        <time>2025-02-20T12:56:32Z</time>
      </trkpt>
      <trkpt lat="45.61196" lon="6.51345">
        <ele>2240.4</ele>
        <time>2025-02-20T12:56:33Z</time>
      </trkpt>
      <trkpt lat="45.61196" lon="6.51345">
        <ele>2240.4</ele>
        <time>2025-02-20T12:56:34Z</time>
      </trkpt>
      <trkpt lat="45.61196" lon="6.51345">
        <ele>2240.4</ele>
        <time>2025-02-20T12:56:35Z</time>
      </trkpt>
      <trkpt lat="45.61196" lon="6.51345">
        <ele>2240.4</ele>
        <time>2025-02-20T12:56:36Z</time>
      </trkpt>
      <trkpt lat="45.61196" lon="6.51345">
        <ele>2241</ele>
        <time>2025-02-20T12:56:37Z</time>
      </trkpt>
      <trkpt lat="45.61196" lon="6.51345">
        <ele>2241</ele>
        <time>2025-02-20T12:56:38Z</time>
      </trkpt>
      <trkpt lat="45.61195" lon="6.51342">
        <ele>2241</ele>
        <time>2025-02-20T12:56:39Z</time>
      </trkpt>
      <trkpt lat="45.61194" lon="6.51342">
        <ele>2241</ele>
        <time>2025-02-20T12:56:40Z</time>
      </trkpt>
      <trkpt lat="45.61194" lon="6.51342">
        <ele>2241.4</ele>
        <time>2025-02-20T12:56:41Z</time>
      </trkpt>
      <trkpt lat="45.61194" lon="6.51342">
        <ele>2241.4</ele>
        <time>2025-02-20T12:56:42Z</time>
      </trkpt>
      <trkpt lat="45.61194" lon="6.51342">
        <ele>2241.4</ele>
        <time>2025-02-20T12:56:43Z</time>
      </trkpt>
      <trkpt lat="45.61194" lon="6.51342">
        <ele>2241</ele>
        <time>2025-02-20T12:56:44Z</time>
      </trkpt>
      <trkpt lat="45.61194" lon="6.51342">
        <ele>2241</ele>
        <time>2025-02-20T12:56:45Z</time>
      </trkpt>
      <trkpt lat="45.61194" lon="6.51342">
        <ele>2241</ele>
        <time>2025-02-20T12:56:46Z</time>
      </trkpt>
      <trkpt lat="45.61194" lon="6.51342">
        <ele>2241</ele>
        <time>2025-02-20T12:56:47Z</time>
      </trkpt>
      <trkpt lat="45.61194" lon="6.51342">
        <ele>2241.4</ele>
        <time>2025-02-20T12:56:48Z</time>
      </trkpt>
      <trkpt lat="45.61194" lon="6.51342">
        <ele>2242.2</ele>
        <time>2025-02-20T12:56:49Z</time>
      </trkpt>
      <trkpt lat="45.61194" lon="6.51342">
        <ele>2242.2</ele>
        <time>2025-02-20T12:56:50Z</time>
      </trkpt>
      <trkpt lat="45.61194" lon="6.51342">
        <ele>2242.2</ele>
        <time>2025-02-20T12:56:51Z</time>
      </trkpt>
      <trkpt lat="45.61191" lon="6.51339">
        <ele>2242.4</ele>
        <time>2025-02-20T12:56:52Z</time>
      </trkpt>
      <trkpt lat="45.61191" lon="6.51339">
        <ele>2242</ele>
        <time>2025-02-20T12:56:53Z</time>
      </trkpt>
      <trkpt lat="45.61191" lon="6.51339">
        <ele>2242</ele>
        <time>2025-02-20T12:56:54Z</time>
      </trkpt>
      <trkpt lat="45.61191" lon="6.51339">
        <ele>2242</ele>
        <time>2025-02-20T12:56:55Z</time>
      </trkpt>
      <trkpt lat="45.61191" lon="6.51339">
        <ele>2243</ele>
        <time>2025-02-20T12:56:56Z</time>
      </trkpt>
      <trkpt lat="45.61191" lon="6.51339">
        <ele>2242.8</ele>
        <time>2025-02-20T12:56:57Z</time>
      </trkpt>
      <trkpt lat="45.61191" lon="6.51339">
        <ele>2242.8</ele>
        <time>2025-02-20T12:56:58Z</time>
      </trkpt>
      <trkpt lat="45.61191" lon="6.51339">
        <ele>2242.8</ele>
        <time>2025-02-20T12:56:59Z</time>
      </trkpt>
      <trkpt lat="45.61191" lon="6.51339">
        <ele>2242.8</ele>
        <time>2025-02-20T12:57:00Z</time>
      </trkpt>
      <trkpt lat="45.61191" lon="6.51339">
        <ele>2242.8</ele>
        <time>2025-02-20T12:57:01Z</time>
      </trkpt>
      <trkpt lat="45.61191" lon="6.51337">
        <ele>2242.8</ele>
        <time>2025-02-20T12:57:02Z</time>
      </trkpt>
      <trkpt lat="45.6119" lon="6.51337">
        <ele>2242.8</ele>
        <time>2025-02-20T12:57:03Z</time>
      </trkpt>
      <trkpt lat="45.6119" lon="6.51337">
        <ele>2243.6</ele>
        <time>2025-02-20T12:57:04Z</time>
      </trkpt>
      <trkpt lat="45.6119" lon="6.51337">
        <ele>2243.8</ele>
        <time>2025-02-20T12:57:05Z</time>
      </trkpt>
      <trkpt lat="45.6119" lon="6.51337">
        <ele>2243.8</ele>
        <time>2025-02-20T12:57:06Z</time>
      </trkpt>
      <trkpt lat="45.6119" lon="6.51337">
        <ele>2243.8</ele>
        <time>2025-02-20T12:57:07Z</time>
      </trkpt>
      <trkpt lat="45.6119" lon="6.51337">
        <ele>2243.8</ele>
        <time>2025-02-20T12:57:08Z</time>
      </trkpt>
      <trkpt lat="45.6119" lon="6.51337">
        <ele>2243.8</ele>
        <time>2025-02-20T12:57:09Z</time>
      </trkpt>
      <trkpt lat="45.6119" lon="6.51337">
        <ele>2243.8</ele>
        <time>2025-02-20T12:57:10Z</time>
      </trkpt>
      <trkpt lat="45.6119" lon="6.51337">
        <ele>2243.8</ele>
        <time>2025-02-20T12:57:11Z</time>
      </trkpt>
      <trkpt lat="45.6119" lon="6.51337">
        <ele>2244.8</ele>
        <time>2025-02-20T12:57:12Z</time>
      </trkpt>
      <trkpt lat="45.61189" lon="6.51335">
        <ele>2244.2</ele>
        <time>2025-02-20T12:57:13Z</time>
      </trkpt>
      <trkpt lat="45.61189" lon="6.51334">
        <ele>2244.2</ele>
        <time>2025-02-20T12:57:14Z</time>
      </trkpt>
      <trkpt lat="45.61189" lon="6.51334">
        <ele>2244.2</ele>
        <time>2025-02-20T12:57:15Z</time>
      </trkpt>
      <trkpt lat="45.61188" lon="6.51333">
        <ele>2244.2</ele>
        <time>2025-02-20T12:57:16Z</time>
      </trkpt>
      <trkpt lat="45.61188" lon="6.51332">
        <ele>2244.8</ele>
        <time>2025-02-20T12:57:17Z</time>
      </trkpt>
      <trkpt lat="45.61187" lon="6.51331">
        <ele>2244.8</ele>
        <time>2025-02-20T12:57:18Z</time>
      </trkpt>
      <trkpt lat="45.61187" lon="6.51331">
        <ele>2244.8</ele>
        <time>2025-02-20T12:57:19Z</time>
      </trkpt>
      <trkpt lat="45.61187" lon="6.51331">
        <ele>2245.8</ele>
        <time>2025-02-20T12:57:20Z</time>
      </trkpt>
      <trkpt lat="45.61186" lon="6.51329">
        <ele>2245.6</ele>
        <time>2025-02-20T12:57:21Z</time>
      </trkpt>
      <trkpt lat="45.61186" lon="6.51329">
        <ele>2245.6</ele>
        <time>2025-02-20T12:57:22Z</time>
      </trkpt>
      <trkpt lat="45.61186" lon="6.51329">
        <ele>2245.6</ele>
        <time>2025-02-20T12:57:23Z</time>
      </trkpt>
      <trkpt lat="45.61186" lon="6.51329">
        <ele>2245.6</ele>
        <time>2025-02-20T12:57:24Z</time>
      </trkpt>
      <trkpt lat="45.61186" lon="6.51329">
        <ele>2246.6</ele>
        <time>2025-02-20T12:57:25Z</time>
      </trkpt>
      <trkpt lat="45.61186" lon="6.51326">
        <ele>2246.6</ele>
        <time>2025-02-20T12:57:26Z</time>
      </trkpt>
      <trkpt lat="45.61186" lon="6.51326">
        <ele>2246.6</ele>
        <time>2025-02-20T12:57:27Z</time>
      </trkpt>
      <trkpt lat="45.61186" lon="6.51326">
        <ele>2246.6</ele>
        <time>2025-02-20T12:57:28Z</time>
      </trkpt>
      <trkpt lat="45.61186" lon="6.51326">
        <ele>2246.2</ele>
        <time>2025-02-20T12:57:29Z</time>
      </trkpt>
      <trkpt lat="45.61186" lon="6.51326">
        <ele>2246.2</ele>
        <time>2025-02-20T12:57:30Z</time>
      </trkpt>
      <trkpt lat="45.61186" lon="6.51326">
        <ele>2246.2</ele>
        <time>2025-02-20T12:57:31Z</time>
      </trkpt>
      <trkpt lat="45.61186" lon="6.51326">
        <ele>2247.2</ele>
        <time>2025-02-20T12:57:32Z</time>
      </trkpt>
      <trkpt lat="45.61185" lon="6.51323">
        <ele>2246.4</ele>
        <time>2025-02-20T12:57:33Z</time>
      </trkpt>
      <trkpt lat="45.61184" lon="6.51322">
        <ele>2246.4</ele>
        <time>2025-02-20T12:57:34Z</time>
      </trkpt>
      <trkpt lat="45.61184" lon="6.51321">
        <ele>2246.4</ele>
        <time>2025-02-20T12:57:35Z</time>
      </trkpt>
      <trkpt lat="45.61184" lon="6.5132">
        <ele>2246.4</ele>
        <time>2025-02-20T12:57:36Z</time>
      </trkpt>
      <trkpt lat="45.61184" lon="6.5132">
        <ele>2247.8</ele>
        <time>2025-02-20T12:57:37Z</time>
      </trkpt>
      <trkpt lat="45.61184" lon="6.51318">
        <ele>2247.8</ele>
        <time>2025-02-20T12:57:38Z</time>
      </trkpt>
      <trkpt lat="45.61183" lon="6.51318">
        <ele>2247.8</ele>
        <time>2025-02-20T12:57:39Z</time>
      </trkpt>
      <trkpt lat="45.61183" lon="6.51318">
        <ele>2247.4</ele>
        <time>2025-02-20T12:57:40Z</time>
      </trkpt>
      <trkpt lat="45.61183" lon="6.51318">
        <ele>2247.6</ele>
        <time>2025-02-20T12:57:41Z</time>
      </trkpt>
      <trkpt lat="45.61183" lon="6.51318">
        <ele>2247.6</ele>
        <time>2025-02-20T12:57:42Z</time>
      </trkpt>
      <trkpt lat="45.61183" lon="6.51316">
        <ele>2247.6</ele>
        <time>2025-02-20T12:57:43Z</time>
      </trkpt>
      <trkpt lat="45.61183" lon="6.51316">
        <ele>2247.8</ele>
        <time>2025-02-20T12:57:44Z</time>
      </trkpt>
      <trkpt lat="45.61183" lon="6.51315">
        <ele>2248.4</ele>
        <time>2025-02-20T12:57:45Z</time>
      </trkpt>
      <trkpt lat="45.61183" lon="6.51315">
        <ele>2248.4</ele>
        <time>2025-02-20T12:57:46Z</time>
      </trkpt>
      <trkpt lat="45.61183" lon="6.51315">
        <ele>2248.4</ele>
        <time>2025-02-20T12:57:47Z</time>
      </trkpt>
      <trkpt lat="45.61182" lon="6.51313">
        <ele>2248.4</ele>
        <time>2025-02-20T12:57:48Z</time>
      </trkpt>
      <trkpt lat="45.61182" lon="6.51313">
        <ele>2249</ele>
        <time>2025-02-20T12:57:49Z</time>
      </trkpt>
      <trkpt lat="45.61181" lon="6.51312">
        <ele>2249</ele>
        <time>2025-02-20T12:57:50Z</time>
      </trkpt>
      <trkpt lat="45.61181" lon="6.51312">
        <ele>2249</ele>
        <time>2025-02-20T12:57:51Z</time>
      </trkpt>
      <trkpt lat="45.61181" lon="6.51312">
        <ele>2249</ele>
        <time>2025-02-20T12:57:52Z</time>
      </trkpt>
      <trkpt lat="45.61181" lon="6.51312">
        <ele>2250</ele>
        <time>2025-02-20T12:57:53Z</time>
      </trkpt>
      <trkpt lat="45.61181" lon="6.51312">
        <ele>2250</ele>
        <time>2025-02-20T12:57:54Z</time>
      </trkpt>
      <trkpt lat="45.61179" lon="6.5131">
        <ele>2250</ele>
        <time>2025-02-20T12:57:55Z</time>
      </trkpt>
      <trkpt lat="45.61179" lon="6.51309">
        <ele>2249</ele>
        <time>2025-02-20T12:57:56Z</time>
      </trkpt>
      <trkpt lat="45.61179" lon="6.51309">
        <ele>2249.8</ele>
        <time>2025-02-20T12:57:57Z</time>
      </trkpt>
      <trkpt lat="45.61179" lon="6.51309">
        <ele>2249.8</ele>
        <time>2025-02-20T12:57:58Z</time>
      </trkpt>
      <trkpt lat="45.61179" lon="6.51309">
        <ele>2249.8</ele>
        <time>2025-02-20T12:57:59Z</time>
      </trkpt>
      <trkpt lat="45.61178" lon="6.51309">
        <ele>2249.8</ele>
        <time>2025-02-20T12:58:00Z</time>
      </trkpt>
      <trkpt lat="45.61178" lon="6.51309">
        <ele>2250</ele>
        <time>2025-02-20T12:58:01Z</time>
      </trkpt>
      <trkpt lat="45.61178" lon="6.51309">
        <ele>2250</ele>
        <time>2025-02-20T12:58:02Z</time>
      </trkpt>
      <trkpt lat="45.61178" lon="6.51309">
        <ele>2250</ele>
        <time>2025-02-20T12:58:03Z</time>
      </trkpt>
      <trkpt lat="45.61178" lon="6.51309">
        <ele>2250</ele>
        <time>2025-02-20T12:58:04Z</time>
      </trkpt>
      <trkpt lat="45.61176" lon="6.51307">
        <ele>2251</ele>
        <time>2025-02-20T12:58:05Z</time>
      </trkpt>
      <trkpt lat="45.61176" lon="6.51307">
        <ele>2251</ele>
        <time>2025-02-20T12:58:06Z</time>
      </trkpt>
      <trkpt lat="45.61175" lon="6.51306">
        <ele>2251</ele>
        <time>2025-02-20T12:58:07Z</time>
      </trkpt>
      <trkpt lat="45.61175" lon="6.51306">
        <ele>2250.6</ele>
        <time>2025-02-20T12:58:08Z</time>
      </trkpt>
      <trkpt lat="45.61174" lon="6.51306">
        <ele>2250.4</ele>
        <time>2025-02-20T12:58:09Z</time>
      </trkpt>
      <trkpt lat="45.61174" lon="6.51305">
        <ele>2250.4</ele>
        <time>2025-02-20T12:58:10Z</time>
      </trkpt>
      <trkpt lat="45.61174" lon="6.51305">
        <ele>2250.4</ele>
        <time>2025-02-20T12:58:11Z</time>
      </trkpt>
      <trkpt lat="45.61173" lon="6.51305">
        <ele>2250.4</ele>
        <time>2025-02-20T12:58:12Z</time>
      </trkpt>
      <trkpt lat="45.61173" lon="6.51305">
        <ele>2251.8</ele>
        <time>2025-02-20T12:58:13Z</time>
      </trkpt>
      <trkpt lat="45.61172" lon="6.51304">
        <ele>2251.8</ele>
        <time>2025-02-20T12:58:14Z</time>
      </trkpt>
      <trkpt lat="45.61172" lon="6.51304">
        <ele>2251.8</ele>
        <time>2025-02-20T12:58:15Z</time>
      </trkpt>
      <trkpt lat="45.61172" lon="6.51304">
        <ele>2251.8</ele>
        <time>2025-02-20T12:58:16Z</time>
      </trkpt>
      <trkpt lat="45.61172" lon="6.51304">
        <ele>2252</ele>
        <time>2025-02-20T12:58:17Z</time>
      </trkpt>
      <trkpt lat="45.6117" lon="6.51304">
        <ele>2252</ele>
        <time>2025-02-20T12:58:18Z</time>
      </trkpt>
      <trkpt lat="45.6117" lon="6.51304">
        <ele>2252</ele>
        <time>2025-02-20T12:58:19Z</time>
      </trkpt>
      <trkpt lat="45.6117" lon="6.51304">
        <ele>2251.6</ele>
        <time>2025-02-20T12:58:20Z</time>
      </trkpt>
      <trkpt lat="45.61169" lon="6.51304">
        <ele>2252.6</ele>
        <time>2025-02-20T12:58:21Z</time>
      </trkpt>
      <trkpt lat="45.61169" lon="6.51304">
        <ele>2252.6</ele>
        <time>2025-02-20T12:58:22Z</time>
      </trkpt>
      <trkpt lat="45.61169" lon="6.51304">
        <ele>2252.6</ele>
        <time>2025-02-20T12:58:23Z</time>
      </trkpt>
      <trkpt lat="45.61169" lon="6.51304">
        <ele>2252.6</ele>
        <time>2025-02-20T12:58:24Z</time>
      </trkpt>
      <trkpt lat="45.61169" lon="6.51304">
        <ele>2252</ele>
        <time>2025-02-20T12:58:25Z</time>
      </trkpt>
      <trkpt lat="45.61169" lon="6.51304">
        <ele>2252</ele>
        <time>2025-02-20T12:58:26Z</time>
      </trkpt>
      <trkpt lat="45.61169" lon="6.51304">
        <ele>2252</ele>
        <time>2025-02-20T12:58:27Z</time>
      </trkpt>
      <trkpt lat="45.61169" lon="6.51304">
        <ele>2252.6</ele>
        <time>2025-02-20T12:58:28Z</time>
      </trkpt>
      <trkpt lat="45.61169" lon="6.51304">
        <ele>2252.8</ele>
        <time>2025-02-20T12:58:29Z</time>
      </trkpt>
      <trkpt lat="45.61169" lon="6.51304">
        <ele>2252.8</ele>
        <time>2025-02-20T12:58:30Z</time>
      </trkpt>
      <trkpt lat="45.61169" lon="6.51304">
        <ele>2252.8</ele>
        <time>2025-02-20T12:58:31Z</time>
      </trkpt>
      <trkpt lat="45.61169" lon="6.51304">
        <ele>2252.8</ele>
        <time>2025-02-20T12:58:32Z</time>
      </trkpt>
      <trkpt lat="45.61169" lon="6.51304">
        <ele>2252.6</ele>
        <time>2025-02-20T12:58:33Z</time>
      </trkpt>
      <trkpt lat="45.61169" lon="6.51304">
        <ele>2252.6</ele>
        <time>2025-02-20T12:58:34Z</time>
      </trkpt>
      <trkpt lat="45.61169" lon="6.51304">
        <ele>2252.6</ele>
        <time>2025-02-20T12:58:35Z</time>
      </trkpt>
      <trkpt lat="45.61169" lon="6.51304">
        <ele>2253.6</ele>
        <time>2025-02-20T12:58:36Z</time>
      </trkpt>
      <trkpt lat="45.61167" lon="6.51304">
        <ele>2253</ele>
        <time>2025-02-20T12:58:37Z</time>
      </trkpt>
      <trkpt lat="45.61167" lon="6.51304">
        <ele>2253</ele>
        <time>2025-02-20T12:58:38Z</time>
      </trkpt>
      <trkpt lat="45.61166" lon="6.51304">
        <ele>2253</ele>
        <time>2025-02-20T12:58:39Z</time>
      </trkpt>
      <trkpt lat="45.61166" lon="6.51304">
        <ele>2253.4</ele>
        <time>2025-02-20T12:58:40Z</time>
      </trkpt>
      <trkpt lat="45.61165" lon="6.51304">
        <ele>2253</ele>
        <time>2025-02-20T12:58:41Z</time>
      </trkpt>
      <trkpt lat="45.61165" lon="6.51304">
        <ele>2253</ele>
        <time>2025-02-20T12:58:42Z</time>
      </trkpt>
      <trkpt lat="45.61165" lon="6.51304">
        <ele>2253</ele>
        <time>2025-02-20T12:58:43Z</time>
      </trkpt>
      <trkpt lat="45.61164" lon="6.51303">
        <ele>2253.4</ele>
        <time>2025-02-20T12:58:44Z</time>
      </trkpt>
      <trkpt lat="45.61164" lon="6.51303">
        <ele>2254.8</ele>
        <time>2025-02-20T12:58:45Z</time>
      </trkpt>
      <trkpt lat="45.61164" lon="6.51303">
        <ele>2254.8</ele>
        <time>2025-02-20T12:58:46Z</time>
      </trkpt>
      <trkpt lat="45.61164" lon="6.51303">
        <ele>2254.8</ele>
        <time>2025-02-20T12:58:47Z</time>
      </trkpt>
      <trkpt lat="45.61163" lon="6.51304">
        <ele>2254.8</ele>
        <time>2025-02-20T12:58:48Z</time>
      </trkpt>
      <trkpt lat="45.61162" lon="6.51304">
        <ele>2255</ele>
        <time>2025-02-20T12:58:49Z</time>
      </trkpt>
      <trkpt lat="45.61161" lon="6.51303">
        <ele>2255</ele>
        <time>2025-02-20T12:58:50Z</time>
      </trkpt>
      <trkpt lat="45.61161" lon="6.51303">
        <ele>2255</ele>
        <time>2025-02-20T12:58:51Z</time>
      </trkpt>
      <trkpt lat="45.6116" lon="6.51303">
        <ele>2255</ele>
        <time>2025-02-20T12:58:52Z</time>
      </trkpt>
      <trkpt lat="45.6116" lon="6.51303">
        <ele>2254.6</ele>
        <time>2025-02-20T12:58:53Z</time>
      </trkpt>
      <trkpt lat="45.6116" lon="6.51303">
        <ele>2254.6</ele>
        <time>2025-02-20T12:58:54Z</time>
      </trkpt>
      <trkpt lat="45.6116" lon="6.51303">
        <ele>2254.6</ele>
        <time>2025-02-20T12:58:55Z</time>
      </trkpt>
      <trkpt lat="45.6116" lon="6.51303">
        <ele>2255.6</ele>
        <time>2025-02-20T12:58:56Z</time>
      </trkpt>
      <trkpt lat="45.6116" lon="6.51303">
        <ele>2256.2</ele>
        <time>2025-02-20T12:58:57Z</time>
      </trkpt>
      <trkpt lat="45.6116" lon="6.51303">
        <ele>2256.2</ele>
        <time>2025-02-20T12:58:58Z</time>
      </trkpt>
      <trkpt lat="45.61157" lon="6.51303">
        <ele>2256.2</ele>
        <time>2025-02-20T12:58:59Z</time>
      </trkpt>
      <trkpt lat="45.61157" lon="6.51303">
        <ele>2257.2</ele>
        <time>2025-02-20T12:59:00Z</time>
      </trkpt>
      <trkpt lat="45.61157" lon="6.51303">
        <ele>2256.2</ele>
        <time>2025-02-20T12:59:01Z</time>
      </trkpt>
      <trkpt lat="45.61157" lon="6.51303">
        <ele>2256.2</ele>
        <time>2025-02-20T12:59:02Z</time>
      </trkpt>
      <trkpt lat="45.61155" lon="6.51302">
        <ele>2256.2</ele>
        <time>2025-02-20T12:59:03Z</time>
      </trkpt>
      <trkpt lat="45.61155" lon="6.51301">
        <ele>2256.2</ele>
        <time>2025-02-20T12:59:04Z</time>
      </trkpt>
      <trkpt lat="45.61155" lon="6.51301">
        <ele>2256</ele>
        <time>2025-02-20T12:59:05Z</time>
      </trkpt>
      <trkpt lat="45.61155" lon="6.51301">
        <ele>2256</ele>
        <time>2025-02-20T12:59:06Z</time>
      </trkpt>
      <trkpt lat="45.61153" lon="6.513">
        <ele>2256</ele>
        <time>2025-02-20T12:59:07Z</time>
      </trkpt>
      <trkpt lat="45.61153" lon="6.513">
        <ele>2256</ele>
        <time>2025-02-20T12:59:08Z</time>
      </trkpt>
      <trkpt lat="45.61152" lon="6.513">
        <ele>2257.4</ele>
        <time>2025-02-20T12:59:09Z</time>
      </trkpt>
      <trkpt lat="45.61152" lon="6.513">
        <ele>2257.4</ele>
        <time>2025-02-20T12:59:10Z</time>
      </trkpt>
      <trkpt lat="45.61152" lon="6.513">
        <ele>2257.4</ele>
        <time>2025-02-20T12:59:11Z</time>
      </trkpt>
      <trkpt lat="45.61151" lon="6.51299">
        <ele>2257.4</ele>
        <time>2025-02-20T12:59:12Z</time>
      </trkpt>
      <trkpt lat="45.61151" lon="6.51298">
        <ele>2258</ele>
        <time>2025-02-20T12:59:13Z</time>
      </trkpt>
      <trkpt lat="45.6115" lon="6.51297">
        <ele>2258</ele>
        <time>2025-02-20T12:59:14Z</time>
      </trkpt>
      <trkpt lat="45.6115" lon="6.51297">
        <ele>2258</ele>
        <time>2025-02-20T12:59:15Z</time>
      </trkpt>
      <trkpt lat="45.61149" lon="6.51297">
        <ele>2258</ele>
        <time>2025-02-20T12:59:16Z</time>
      </trkpt>
      <trkpt lat="45.61149" lon="6.51296">
        <ele>2257.6</ele>
        <time>2025-02-20T12:59:17Z</time>
      </trkpt>
      <trkpt lat="45.61149" lon="6.51296">
        <ele>2257.6</ele>
        <time>2025-02-20T12:59:18Z</time>
      </trkpt>
      <trkpt lat="45.61149" lon="6.51296">
        <ele>2257.6</ele>
        <time>2025-02-20T12:59:19Z</time>
      </trkpt>
      <trkpt lat="45.61149" lon="6.51296">
        <ele>2258.6</ele>
        <time>2025-02-20T12:59:20Z</time>
      </trkpt>
      <trkpt lat="45.61148" lon="6.51295">
        <ele>2258.2</ele>
        <time>2025-02-20T12:59:21Z</time>
      </trkpt>
      <trkpt lat="45.61148" lon="6.51295">
        <ele>2258.2</ele>
        <time>2025-02-20T12:59:22Z</time>
      </trkpt>
      <trkpt lat="45.61148" lon="6.51295">
        <ele>2258.2</ele>
        <time>2025-02-20T12:59:23Z</time>
      </trkpt>
      <trkpt lat="45.61148" lon="6.51295">
        <ele>2258.2</ele>
        <time>2025-02-20T12:59:24Z</time>
      </trkpt>
      <trkpt lat="45.61148" lon="6.51295">
        <ele>2260.2</ele>
        <time>2025-02-20T12:59:25Z</time>
      </trkpt>
      <trkpt lat="45.61146" lon="6.51293">
        <ele>2260.2</ele>
        <time>2025-02-20T12:59:26Z</time>
      </trkpt>
      <trkpt lat="45.61146" lon="6.51292">
        <ele>2260.2</ele>
        <time>2025-02-20T12:59:27Z</time>
      </trkpt>
      <trkpt lat="45.61146" lon="6.51292">
        <ele>2260.2</ele>
        <time>2025-02-20T12:59:28Z</time>
      </trkpt>
      <trkpt lat="45.61145" lon="6.51291">
        <ele>2259.4</ele>
        <time>2025-02-20T12:59:29Z</time>
      </trkpt>
      <trkpt lat="45.61145" lon="6.51291">
        <ele>2259.4</ele>
        <time>2025-02-20T12:59:30Z</time>
      </trkpt>
      <trkpt lat="45.61144" lon="6.5129">
        <ele>2259.4</ele>
        <time>2025-02-20T12:59:31Z</time>
      </trkpt>
      <trkpt lat="45.61144" lon="6.5129">
        <ele>2259.4</ele>
        <time>2025-02-20T12:59:32Z</time>
      </trkpt>
      <trkpt lat="45.61144" lon="6.5129">
        <ele>2260.6</ele>
        <time>2025-02-20T12:59:33Z</time>
      </trkpt>
      <trkpt lat="45.61144" lon="6.5129">
        <ele>2260.6</ele>
        <time>2025-02-20T12:59:34Z</time>
      </trkpt>
      <trkpt lat="45.61143" lon="6.51288">
        <ele>2260.6</ele>
        <time>2025-02-20T12:59:35Z</time>
      </trkpt>
      <trkpt lat="45.61143" lon="6.51288">
        <ele>2260.6</ele>
        <time>2025-02-20T12:59:36Z</time>
      </trkpt>
      <trkpt lat="45.61143" lon="6.51288">
        <ele>2261</ele>
        <time>2025-02-20T12:59:37Z</time>
      </trkpt>
      <trkpt lat="45.61143" lon="6.51288">
        <ele>2261</ele>
        <time>2025-02-20T12:59:38Z</time>
      </trkpt>
      <trkpt lat="45.61143" lon="6.51288">
        <ele>2261</ele>
        <time>2025-02-20T12:59:39Z</time>
      </trkpt>
      <trkpt lat="45.61143" lon="6.51288">
        <ele>2261</ele>
        <time>2025-02-20T12:59:40Z</time>
      </trkpt>
      <trkpt lat="45.61143" lon="6.51288">
        <ele>2260.6</ele>
        <time>2025-02-20T12:59:41Z</time>
      </trkpt>
      <trkpt lat="45.61142" lon="6.51286">
        <ele>2260.6</ele>
        <time>2025-02-20T12:59:42Z</time>
      </trkpt>
      <trkpt lat="45.61142" lon="6.51285">
        <ele>2260.6</ele>
        <time>2025-02-20T12:59:43Z</time>
      </trkpt>
      <trkpt lat="45.61142" lon="6.51285">
        <ele>2261.6</ele>
        <time>2025-02-20T12:59:44Z</time>
      </trkpt>
      <trkpt lat="45.61141" lon="6.51284">
        <ele>2261.8</ele>
        <time>2025-02-20T12:59:45Z</time>
      </trkpt>
      <trkpt lat="45.6114" lon="6.51283">
        <ele>2261.8</ele>
        <time>2025-02-20T12:59:46Z</time>
      </trkpt>
      <trkpt lat="45.6114" lon="6.51283">
        <ele>2261.8</ele>
        <time>2025-02-20T12:59:47Z</time>
      </trkpt>
      <trkpt lat="45.6114" lon="6.51283">
        <ele>2261.8</ele>
        <time>2025-02-20T12:59:48Z</time>
      </trkpt>
      <trkpt lat="45.6114" lon="6.51283">
        <ele>2263.4</ele>
        <time>2025-02-20T12:59:49Z</time>
      </trkpt>
      <trkpt lat="45.6114" lon="6.51283">
        <ele>2263.4</ele>
        <time>2025-02-20T12:59:50Z</time>
      </trkpt>
      <trkpt lat="45.6114" lon="6.51283">
        <ele>2263.4</ele>
        <time>2025-02-20T12:59:51Z</time>
      </trkpt>
      <trkpt lat="45.6114" lon="6.51283">
        <ele>2263.2</ele>
        <time>2025-02-20T12:59:52Z</time>
      </trkpt>
      <trkpt lat="45.61139" lon="6.5128">
        <ele>2263</ele>
        <time>2025-02-20T12:59:53Z</time>
      </trkpt>
      <trkpt lat="45.61139" lon="6.5128">
        <ele>2263</ele>
        <time>2025-02-20T12:59:54Z</time>
      </trkpt>
      <trkpt lat="45.61139" lon="6.5128">
        <ele>2263</ele>
        <time>2025-02-20T12:59:55Z</time>
      </trkpt>
      <trkpt lat="45.61139" lon="6.5128">
        <ele>2263</ele>
        <time>2025-02-20T12:59:56Z</time>
      </trkpt>
      <trkpt lat="45.61139" lon="6.5128">
        <ele>2264.2</ele>
        <time>2025-02-20T12:59:57Z</time>
      </trkpt>
      <trkpt lat="45.61139" lon="6.5128">
        <ele>2264.2</ele>
        <time>2025-02-20T12:59:58Z</time>
      </trkpt>
      <trkpt lat="45.61139" lon="6.5128">
        <ele>2264.2</ele>
        <time>2025-02-20T12:59:59Z</time>
      </trkpt>
      <trkpt lat="45.61139" lon="6.5128">
        <ele>2264.2</ele>
        <time>2025-02-20T13:00:00Z</time>
      </trkpt>
      <trkpt lat="45.61139" lon="6.5128">
        <ele>2265</ele>
        <time>2025-02-20T13:00:01Z</time>
      </trkpt>
      <trkpt lat="45.61139" lon="6.5128">
        <ele>2265</ele>
        <time>2025-02-20T13:00:02Z</time>
      </trkpt>
      <trkpt lat="45.61137" lon="6.51276">
        <ele>2265</ele>
        <time>2025-02-20T13:00:03Z</time>
      </trkpt>
      <trkpt lat="45.61137" lon="6.51275">
        <ele>2264.8</ele>
        <time>2025-02-20T13:00:04Z</time>
      </trkpt>
      <trkpt lat="45.61137" lon="6.51275">
        <ele>2265.6</ele>
        <time>2025-02-20T13:00:05Z</time>
      </trkpt>
      <trkpt lat="45.61136" lon="6.51274">
        <ele>2265.6</ele>
        <time>2025-02-20T13:00:06Z</time>
      </trkpt>
      <trkpt lat="45.61136" lon="6.51274">
        <ele>2265.6</ele>
        <time>2025-02-20T13:00:07Z</time>
      </trkpt>
      <trkpt lat="45.61136" lon="6.51274">
        <ele>2265</ele>
        <time>2025-02-20T13:00:08Z</time>
      </trkpt>
      <trkpt lat="45.61136" lon="6.51274">
        <ele>2265.4</ele>
        <time>2025-02-20T13:00:09Z</time>
      </trkpt>
      <trkpt lat="45.61136" lon="6.51274">
        <ele>2265.4</ele>
        <time>2025-02-20T13:00:10Z</time>
      </trkpt>
      <trkpt lat="45.61136" lon="6.51274">
        <ele>2265.4</ele>
        <time>2025-02-20T13:00:11Z</time>
      </trkpt>
      <trkpt lat="45.61136" lon="6.51274">
        <ele>2265.4</ele>
        <time>2025-02-20T13:00:12Z</time>
      </trkpt>
      <trkpt lat="45.61136" lon="6.51274">
        <ele>2265.8</ele>
        <time>2025-02-20T13:00:13Z</time>
      </trkpt>
      <trkpt lat="45.61136" lon="6.51274">
        <ele>2265.8</ele>
        <time>2025-02-20T13:00:14Z</time>
      </trkpt>
      <trkpt lat="45.61136" lon="6.51274">
        <ele>2265.8</ele>
        <time>2025-02-20T13:00:15Z</time>
      </trkpt>
      <trkpt lat="45.61133" lon="6.51273">
        <ele>2265.8</ele>
        <time>2025-02-20T13:00:16Z</time>
      </trkpt>
      <trkpt lat="45.61133" lon="6.51273">
        <ele>2266</ele>
        <time>2025-02-20T13:00:17Z</time>
      </trkpt>
      <trkpt lat="45.61133" lon="6.51273">
        <ele>2266</ele>
        <time>2025-02-20T13:00:18Z</time>
      </trkpt>
      <trkpt lat="45.61132" lon="6.51274">
        <ele>2266</ele>
        <time>2025-02-20T13:00:19Z</time>
      </trkpt>
      <trkpt lat="45.61132" lon="6.51274">
        <ele>2266</ele>
        <time>2025-02-20T13:00:20Z</time>
      </trkpt>
      <trkpt lat="45.61132" lon="6.51274">
        <ele>2266.2</ele>
        <time>2025-02-20T13:00:21Z</time>
      </trkpt>
      <trkpt lat="45.61132" lon="6.51275">
        <ele>2266.2</ele>
        <time>2025-02-20T13:00:22Z</time>
      </trkpt>
      <trkpt lat="45.61132" lon="6.51275">
        <ele>2266.2</ele>
        <time>2025-02-20T13:00:23Z</time>
      </trkpt>
      <trkpt lat="45.61132" lon="6.51275">
        <ele>2266.2</ele>
        <time>2025-02-20T13:00:24Z</time>
      </trkpt>
      <trkpt lat="45.61132" lon="6.51275">
        <ele>2267.4</ele>
        <time>2025-02-20T13:00:25Z</time>
      </trkpt>
      <trkpt lat="45.61132" lon="6.51275">
        <ele>2267.4</ele>
        <time>2025-02-20T13:00:26Z</time>
      </trkpt>
      <trkpt lat="45.61132" lon="6.51275">
        <ele>2267.4</ele>
        <time>2025-02-20T13:00:27Z</time>
      </trkpt>
      <trkpt lat="45.61132" lon="6.51277">
        <ele>2267.4</ele>
        <time>2025-02-20T13:00:28Z</time>
      </trkpt>
      <trkpt lat="45.61131" lon="6.51278">
        <ele>2266</ele>
        <time>2025-02-20T13:00:29Z</time>
      </trkpt>
      <trkpt lat="45.61131" lon="6.51278">
        <ele>2266</ele>
        <time>2025-02-20T13:00:30Z</time>
      </trkpt>
      <trkpt lat="45.61131" lon="6.51278">
        <ele>2266</ele>
        <time>2025-02-20T13:00:31Z</time>
      </trkpt>
      <trkpt lat="45.61131" lon="6.51278">
        <ele>2267</ele>
        <time>2025-02-20T13:00:32Z</time>
      </trkpt>
      <trkpt lat="45.61131" lon="6.51278">
        <ele>2268</ele>
        <time>2025-02-20T13:00:33Z</time>
      </trkpt>
      <trkpt lat="45.61131" lon="6.51278">
        <ele>2268</ele>
        <time>2025-02-20T13:00:34Z</time>
      </trkpt>
      <trkpt lat="45.61131" lon="6.51282">
        <ele>2268</ele>
        <time>2025-02-20T13:00:35Z</time>
      </trkpt>
      <trkpt lat="45.61131" lon="6.51282">
        <ele>2268</ele>
        <time>2025-02-20T13:00:36Z</time>
      </trkpt>
      <trkpt lat="45.61131" lon="6.51282">
        <ele>2268.2</ele>
        <time>2025-02-20T13:00:37Z</time>
      </trkpt>
      <trkpt lat="45.61131" lon="6.51282">
        <ele>2268.2</ele>
        <time>2025-02-20T13:00:38Z</time>
      </trkpt>
      <trkpt lat="45.61131" lon="6.51282">
        <ele>2268.2</ele>
        <time>2025-02-20T13:00:39Z</time>
      </trkpt>
      <trkpt lat="45.61131" lon="6.51282">
        <ele>2268.4</ele>
        <time>2025-02-20T13:00:40Z</time>
      </trkpt>
      <trkpt lat="45.61131" lon="6.51282">
        <ele>2268.6</ele>
        <time>2025-02-20T13:00:41Z</time>
      </trkpt>
      <trkpt lat="45.61131" lon="6.51282">
        <ele>2268.6</ele>
        <time>2025-02-20T13:00:42Z</time>
      </trkpt>
      <trkpt lat="45.61131" lon="6.51282">
        <ele>2268.6</ele>
        <time>2025-02-20T13:00:43Z</time>
      </trkpt>
      <trkpt lat="45.61131" lon="6.51282">
        <ele>2268.8</ele>
        <time>2025-02-20T13:00:44Z</time>
      </trkpt>
      <trkpt lat="45.61131" lon="6.51282">
        <ele>2269.4</ele>
        <time>2025-02-20T13:00:45Z</time>
      </trkpt>
      <trkpt lat="45.61131" lon="6.51282">
        <ele>2269.4</ele>
        <time>2025-02-20T13:00:46Z</time>
      </trkpt>
      <trkpt lat="45.61132" lon="6.51287">
        <ele>2269.4</ele>
        <time>2025-02-20T13:00:47Z</time>
      </trkpt>
      <trkpt lat="45.61131" lon="6.51288">
        <ele>2269.4</ele>
        <time>2025-02-20T13:00:48Z</time>
      </trkpt>
      <trkpt lat="45.61131" lon="6.51288">
        <ele>2269.2</ele>
        <time>2025-02-20T13:00:49Z</time>
      </trkpt>
      <trkpt lat="45.61131" lon="6.51289">
        <ele>2269.2</ele>
        <time>2025-02-20T13:00:50Z</time>
      </trkpt>
      <trkpt lat="45.61131" lon="6.51289">
        <ele>2269.2</ele>
        <time>2025-02-20T13:00:51Z</time>
      </trkpt>
      <trkpt lat="45.61131" lon="6.5129">
        <ele>2269.2</ele>
        <time>2025-02-20T13:00:52Z</time>
      </trkpt>
      <trkpt lat="45.61131" lon="6.5129">
        <ele>2270.2</ele>
        <time>2025-02-20T13:00:53Z</time>
      </trkpt>
      <trkpt lat="45.6113" lon="6.51291">
        <ele>2270.2</ele>
        <time>2025-02-20T13:00:54Z</time>
      </trkpt>
      <trkpt lat="45.6113" lon="6.51291">
        <ele>2270.2</ele>
        <time>2025-02-20T13:00:55Z</time>
      </trkpt>
      <trkpt lat="45.6113" lon="6.51292">
        <ele>2269.8</ele>
        <time>2025-02-20T13:00:56Z</time>
      </trkpt>
      <trkpt lat="45.61129" lon="6.51292">
        <ele>2269.6</ele>
        <time>2025-02-20T13:00:57Z</time>
      </trkpt>
      <trkpt lat="45.61129" lon="6.51293">
        <ele>2269.6</ele>
        <time>2025-02-20T13:00:58Z</time>
      </trkpt>
      <trkpt lat="45.61129" lon="6.51294">
        <ele>2269.6</ele>
        <time>2025-02-20T13:00:59Z</time>
      </trkpt>
      <trkpt lat="45.61129" lon="6.51294">
        <ele>2270.4</ele>
        <time>2025-02-20T13:01:00Z</time>
      </trkpt>
      <trkpt lat="45.61129" lon="6.51294">
        <ele>2270.8</ele>
        <time>2025-02-20T13:01:01Z</time>
      </trkpt>
      <trkpt lat="45.61129" lon="6.51294">
        <ele>2270.8</ele>
        <time>2025-02-20T13:01:02Z</time>
      </trkpt>
      <trkpt lat="45.61129" lon="6.51294">
        <ele>2270.8</ele>
        <time>2025-02-20T13:01:03Z</time>
      </trkpt>
      <trkpt lat="45.61129" lon="6.51294">
        <ele>2270.8</ele>
        <time>2025-02-20T13:01:04Z</time>
      </trkpt>
      <trkpt lat="45.61129" lon="6.51294">
        <ele>2271.4</ele>
        <time>2025-02-20T13:01:05Z</time>
      </trkpt>
      <trkpt lat="45.61129" lon="6.51294">
        <ele>2271.4</ele>
        <time>2025-02-20T13:01:06Z</time>
      </trkpt>
      <trkpt lat="45.61128" lon="6.51293">
        <ele>2271.4</ele>
        <time>2025-02-20T13:01:07Z</time>
      </trkpt>
      <trkpt lat="45.61128" lon="6.51293">
        <ele>2271.4</ele>
        <time>2025-02-20T13:01:08Z</time>
      </trkpt>
      <trkpt lat="45.61126" lon="6.51293">
        <ele>2272</ele>
        <time>2025-02-20T13:01:09Z</time>
      </trkpt>
      <trkpt lat="45.61125" lon="6.51293">
        <ele>2272</ele>
        <time>2025-02-20T13:01:10Z</time>
      </trkpt>
      <trkpt lat="45.61125" lon="6.51293">
        <ele>2272</ele>
        <time>2025-02-20T13:01:11Z</time>
      </trkpt>
      <trkpt lat="45.61125" lon="6.51293">
        <ele>2271.6</ele>
        <time>2025-02-20T13:01:12Z</time>
      </trkpt>
      <trkpt lat="45.61125" lon="6.51293">
        <ele>2271.8</ele>
        <time>2025-02-20T13:01:13Z</time>
      </trkpt>
      <trkpt lat="45.61125" lon="6.51293">
        <ele>2271.8</ele>
        <time>2025-02-20T13:01:14Z</time>
      </trkpt>
      <trkpt lat="45.61123" lon="6.51291">
        <ele>2271.8</ele>
        <time>2025-02-20T13:01:15Z</time>
      </trkpt>
      <trkpt lat="45.61123" lon="6.51291">
        <ele>2271.8</ele>
        <time>2025-02-20T13:01:16Z</time>
      </trkpt>
      <trkpt lat="45.61123" lon="6.51291">
        <ele>2272.4</ele>
        <time>2025-02-20T13:01:17Z</time>
      </trkpt>
      <trkpt lat="45.61122" lon="6.51289">
        <ele>2272.4</ele>
        <time>2025-02-20T13:01:18Z</time>
      </trkpt>
      <trkpt lat="45.61122" lon="6.51289">
        <ele>2272.4</ele>
        <time>2025-02-20T13:01:19Z</time>
      </trkpt>
      <trkpt lat="45.61122" lon="6.51289">
        <ele>2272.4</ele>
        <time>2025-02-20T13:01:20Z</time>
      </trkpt>
      <trkpt lat="45.61122" lon="6.51289">
        <ele>2272</ele>
        <time>2025-02-20T13:01:21Z</time>
      </trkpt>
      <trkpt lat="45.61122" lon="6.51289">
        <ele>2272</ele>
        <time>2025-02-20T13:01:22Z</time>
      </trkpt>
      <trkpt lat="45.61122" lon="6.51289">
        <ele>2272</ele>
        <time>2025-02-20T13:01:23Z</time>
      </trkpt>
      <trkpt lat="45.61122" lon="6.51289">
        <ele>2273</ele>
        <time>2025-02-20T13:01:24Z</time>
      </trkpt>
      <trkpt lat="45.6112" lon="6.51287">
        <ele>2272.8</ele>
        <time>2025-02-20T13:01:25Z</time>
      </trkpt>
      <trkpt lat="45.61119" lon="6.51287">
        <ele>2272.8</ele>
        <time>2025-02-20T13:01:26Z</time>
      </trkpt>
      <trkpt lat="45.61119" lon="6.51287">
        <ele>2272.8</ele>
        <time>2025-02-20T13:01:27Z</time>
      </trkpt>
      <trkpt lat="45.61119" lon="6.51287">
        <ele>2273.8</ele>
        <time>2025-02-20T13:01:28Z</time>
      </trkpt>
      <trkpt lat="45.61119" lon="6.51287">
        <ele>2274.2</ele>
        <time>2025-02-20T13:01:29Z</time>
      </trkpt>
      <trkpt lat="45.61119" lon="6.51287">
        <ele>2274.2</ele>
        <time>2025-02-20T13:01:30Z</time>
      </trkpt>
      <trkpt lat="45.61119" lon="6.51287">
        <ele>2274.2</ele>
        <time>2025-02-20T13:01:31Z</time>
      </trkpt>
      <trkpt lat="45.61119" lon="6.51287">
        <ele>2274.2</ele>
        <time>2025-02-20T13:01:32Z</time>
      </trkpt>
      <trkpt lat="45.61119" lon="6.51287">
        <ele>2274</ele>
        <time>2025-02-20T13:01:33Z</time>
      </trkpt>
      <trkpt lat="45.61119" lon="6.51287">
        <ele>2274</ele>
        <time>2025-02-20T13:01:34Z</time>
      </trkpt>
      <trkpt lat="45.61119" lon="6.51287">
        <ele>2274</ele>
        <time>2025-02-20T13:01:35Z</time>
      </trkpt>
      <trkpt lat="45.61119" lon="6.51287">
        <ele>2273.2</ele>
        <time>2025-02-20T13:01:36Z</time>
      </trkpt>
      <trkpt lat="45.61119" lon="6.51287">
        <ele>2273.6</ele>
        <time>2025-02-20T13:01:37Z</time>
      </trkpt>
      <trkpt lat="45.61119" lon="6.51287">
        <ele>2273.6</ele>
        <time>2025-02-20T13:01:38Z</time>
      </trkpt>
      <trkpt lat="45.61119" lon="6.51287">
        <ele>2273.6</ele>
        <time>2025-02-20T13:01:39Z</time>
      </trkpt>
      <trkpt lat="45.61119" lon="6.51287">
        <ele>2273.6</ele>
        <time>2025-02-20T13:01:40Z</time>
      </trkpt>
      <trkpt lat="45.61119" lon="6.51287">
        <ele>2273.6</ele>
        <time>2025-02-20T13:01:41Z</time>
      </trkpt>
      <trkpt lat="45.61119" lon="6.51287">
        <ele>2273.6</ele>
        <time>2025-02-20T13:01:42Z</time>
      </trkpt>
      <trkpt lat="45.61119" lon="6.51286">
        <ele>2273.6</ele>
        <time>2025-02-20T13:01:43Z</time>
      </trkpt>
      <trkpt lat="45.61119" lon="6.51286">
        <ele>2274.6</ele>
        <time>2025-02-20T13:01:44Z</time>
      </trkpt>
      <trkpt lat="45.61118" lon="6.51285">
        <ele>2274.2</ele>
        <time>2025-02-20T13:01:45Z</time>
      </trkpt>
      <trkpt lat="45.61118" lon="6.51284">
        <ele>2274.2</ele>
        <time>2025-02-20T13:01:46Z</time>
      </trkpt>
      <trkpt lat="45.61118" lon="6.51284">
        <ele>2274.2</ele>
        <time>2025-02-20T13:01:47Z</time>
      </trkpt>
      <trkpt lat="45.61118" lon="6.51284">
        <ele>2274.2</ele>
        <time>2025-02-20T13:01:48Z</time>
      </trkpt>
      <trkpt lat="45.61117" lon="6.51283">
        <ele>2274.6</ele>
        <time>2025-02-20T13:01:49Z</time>
      </trkpt>
      <trkpt lat="45.61116" lon="6.51283">
        <ele>2274.6</ele>
        <time>2025-02-20T13:01:50Z</time>
      </trkpt>
      <trkpt lat="45.61116" lon="6.51283">
        <ele>2274.6</ele>
        <time>2025-02-20T13:01:51Z</time>
      </trkpt>
      <trkpt lat="45.61116" lon="6.51283">
        <ele>2274.6</ele>
        <time>2025-02-20T13:01:52Z</time>
      </trkpt>
      <trkpt lat="45.61116" lon="6.51283">
        <ele>2275.8</ele>
        <time>2025-02-20T13:01:53Z</time>
      </trkpt>
      <trkpt lat="45.61115" lon="6.5128">
        <ele>2275.8</ele>
        <time>2025-02-20T13:01:54Z</time>
      </trkpt>
      <trkpt lat="45.61115" lon="6.5128">
        <ele>2275.8</ele>
        <time>2025-02-20T13:01:55Z</time>
      </trkpt>
      <trkpt lat="45.61115" lon="6.5128">
        <ele>2275.2</ele>
        <time>2025-02-20T13:01:56Z</time>
      </trkpt>
      <trkpt lat="45.61115" lon="6.5128">
        <ele>2275</ele>
        <time>2025-02-20T13:01:57Z</time>
      </trkpt>
      <trkpt lat="45.61115" lon="6.5128">
        <ele>2275</ele>
        <time>2025-02-20T13:01:58Z</time>
      </trkpt>
      <trkpt lat="45.61115" lon="6.5128">
        <ele>2275</ele>
        <time>2025-02-20T13:01:59Z</time>
      </trkpt>
      <trkpt lat="45.61115" lon="6.5128">
        <ele>2276</ele>
        <time>2025-02-20T13:02:00Z</time>
      </trkpt>
      <trkpt lat="45.61115" lon="6.5128">
        <ele>2275.8</ele>
        <time>2025-02-20T13:02:01Z</time>
      </trkpt>
      <trkpt lat="45.61115" lon="6.5128">
        <ele>2275.8</ele>
        <time>2025-02-20T13:02:02Z</time>
      </trkpt>
      <trkpt lat="45.61115" lon="6.5128">
        <ele>2275.8</ele>
        <time>2025-02-20T13:02:03Z</time>
      </trkpt>
      <trkpt lat="45.61113" lon="6.51276">
        <ele>2276.8</ele>
        <time>2025-02-20T13:02:04Z</time>
      </trkpt>
      <trkpt lat="45.61113" lon="6.51275">
        <ele>2276.6</ele>
        <time>2025-02-20T13:02:05Z</time>
      </trkpt>
      <trkpt lat="45.61113" lon="6.51274">
        <ele>2276.6</ele>
        <time>2025-02-20T13:02:06Z</time>
      </trkpt>
      <trkpt lat="45.61113" lon="6.51274">
        <ele>2276.6</ele>
        <time>2025-02-20T13:02:07Z</time>
      </trkpt>
      <trkpt lat="45.61113" lon="6.51274">
        <ele>2276.6</ele>
        <time>2025-02-20T13:02:08Z</time>
      </trkpt>
      <trkpt lat="45.61113" lon="6.51274">
        <ele>2277.6</ele>
        <time>2025-02-20T13:02:09Z</time>
      </trkpt>
      <trkpt lat="45.61113" lon="6.51274">
        <ele>2277.6</ele>
        <time>2025-02-20T13:02:10Z</time>
      </trkpt>
      <trkpt lat="45.61113" lon="6.5127">
        <ele>2277.6</ele>
        <time>2025-02-20T13:02:11Z</time>
      </trkpt>
      <trkpt lat="45.61113" lon="6.5127">
        <ele>2277.6</ele>
        <time>2025-02-20T13:02:12Z</time>
      </trkpt>
      <trkpt lat="45.61113" lon="6.5127">
        <ele>2277.8</ele>
        <time>2025-02-20T13:02:13Z</time>
      </trkpt>
      <trkpt lat="45.61113" lon="6.5127">
        <ele>2277.8</ele>
        <time>2025-02-20T13:02:14Z</time>
      </trkpt>
      <trkpt lat="45.61113" lon="6.5127">
        <ele>2277.8</ele>
        <time>2025-02-20T13:02:15Z</time>
      </trkpt>
      <trkpt lat="45.61112" lon="6.51267">
        <ele>2277.8</ele>
        <time>2025-02-20T13:02:16Z</time>
      </trkpt>
      <trkpt lat="45.61112" lon="6.51267">
        <ele>2277.8</ele>
        <time>2025-02-20T13:02:17Z</time>
      </trkpt>
      <trkpt lat="45.61112" lon="6.51267">
        <ele>2277.8</ele>
        <time>2025-02-20T13:02:18Z</time>
      </trkpt>
      <trkpt lat="45.61112" lon="6.51267">
        <ele>2277.8</ele>
        <time>2025-02-20T13:02:19Z</time>
      </trkpt>
      <trkpt lat="45.61112" lon="6.51267">
        <ele>2278.8</ele>
        <time>2025-02-20T13:02:20Z</time>
      </trkpt>
      <trkpt lat="45.61112" lon="6.51265">
        <ele>2278.6</ele>
        <time>2025-02-20T13:02:21Z</time>
      </trkpt>
      <trkpt lat="45.61112" lon="6.51264">
        <ele>2278.6</ele>
        <time>2025-02-20T13:02:22Z</time>
      </trkpt>
      <trkpt lat="45.61111" lon="6.51264">
        <ele>2278.6</ele>
        <time>2025-02-20T13:02:23Z</time>
      </trkpt>
      <trkpt lat="45.61111" lon="6.51263">
        <ele>2278.6</ele>
        <time>2025-02-20T13:02:24Z</time>
      </trkpt>
      <trkpt lat="45.61111" lon="6.51263">
        <ele>2279.8</ele>
        <time>2025-02-20T13:02:25Z</time>
      </trkpt>
      <trkpt lat="45.61111" lon="6.51263">
        <ele>2279.8</ele>
        <time>2025-02-20T13:02:26Z</time>
      </trkpt>
      <trkpt lat="45.61111" lon="6.51263">
        <ele>2279.8</ele>
        <time>2025-02-20T13:02:27Z</time>
      </trkpt>
      <trkpt lat="45.61111" lon="6.5126">
        <ele>2279.8</ele>
        <time>2025-02-20T13:02:28Z</time>
      </trkpt>
      <trkpt lat="45.61111" lon="6.5126">
        <ele>2278.6</ele>
        <time>2025-02-20T13:02:29Z</time>
      </trkpt>
      <trkpt lat="45.61111" lon="6.5126">
        <ele>2278.6</ele>
        <time>2025-02-20T13:02:30Z</time>
      </trkpt>
      <trkpt lat="45.61111" lon="6.51259">
        <ele>2278.6</ele>
        <time>2025-02-20T13:02:31Z</time>
      </trkpt>
      <trkpt lat="45.61111" lon="6.51258">
        <ele>2279.4</ele>
        <time>2025-02-20T13:02:32Z</time>
      </trkpt>
      <trkpt lat="45.61111" lon="6.51258">
        <ele>2279.8</ele>
        <time>2025-02-20T13:02:33Z</time>
      </trkpt>
      <trkpt lat="45.61111" lon="6.51258">
        <ele>2279.8</ele>
        <time>2025-02-20T13:02:34Z</time>
      </trkpt>
      <trkpt lat="45.61111" lon="6.51258">
        <ele>2279.8</ele>
        <time>2025-02-20T13:02:35Z</time>
      </trkpt>
      <trkpt lat="45.6111" lon="6.51256">
        <ele>2280.8</ele>
        <time>2025-02-20T13:02:36Z</time>
      </trkpt>
      <trkpt lat="45.6111" lon="6.51256">
        <ele>2280</ele>
        <time>2025-02-20T13:02:37Z</time>
      </trkpt>
      <trkpt lat="45.6111" lon="6.51256">
        <ele>2280</ele>
        <time>2025-02-20T13:02:38Z</time>
      </trkpt>
      <trkpt lat="45.6111" lon="6.51256">
        <ele>2280</ele>
        <time>2025-02-20T13:02:39Z</time>
      </trkpt>
      <trkpt lat="45.6111" lon="6.51256">
        <ele>2281</ele>
        <time>2025-02-20T13:02:40Z</time>
      </trkpt>
      <trkpt lat="45.61111" lon="6.51253">
        <ele>2280.8</ele>
        <time>2025-02-20T13:02:41Z</time>
      </trkpt>
      <trkpt lat="45.61111" lon="6.51253">
        <ele>2280.8</ele>
        <time>2025-02-20T13:02:42Z</time>
      </trkpt>
      <trkpt lat="45.61111" lon="6.51253">
        <ele>2280.8</ele>
        <time>2025-02-20T13:02:43Z</time>
      </trkpt>
      <trkpt lat="45.61111" lon="6.51253">
        <ele>2280.8</ele>
        <time>2025-02-20T13:02:44Z</time>
      </trkpt>
      <trkpt lat="45.61111" lon="6.51253">
        <ele>2281.6</ele>
        <time>2025-02-20T13:02:45Z</time>
      </trkpt>
      <trkpt lat="45.61111" lon="6.51253">
        <ele>2281.6</ele>
        <time>2025-02-20T13:02:46Z</time>
      </trkpt>
      <trkpt lat="45.61111" lon="6.51253">
        <ele>2281.6</ele>
        <time>2025-02-20T13:02:47Z</time>
      </trkpt>
      <trkpt lat="45.61111" lon="6.51253">
        <ele>2281.6</ele>
        <time>2025-02-20T13:02:48Z</time>
      </trkpt>
      <trkpt lat="45.61111" lon="6.51253">
        <ele>2281.4</ele>
        <time>2025-02-20T13:02:49Z</time>
      </trkpt>
      <trkpt lat="45.61111" lon="6.51253">
        <ele>2281.4</ele>
        <time>2025-02-20T13:02:50Z</time>
      </trkpt>
      <trkpt lat="45.61111" lon="6.51253">
        <ele>2281.4</ele>
        <time>2025-02-20T13:02:51Z</time>
      </trkpt>
      <trkpt lat="45.61111" lon="6.51253">
        <ele>2282</ele>
        <time>2025-02-20T13:02:52Z</time>
      </trkpt>
      <trkpt lat="45.61111" lon="6.51253">
        <ele>2282</ele>
        <time>2025-02-20T13:02:53Z</time>
      </trkpt>
      <trkpt lat="45.61111" lon="6.51253">
        <ele>2282</ele>
        <time>2025-02-20T13:02:54Z</time>
      </trkpt>
      <trkpt lat="45.61111" lon="6.51253">
        <ele>2282</ele>
        <time>2025-02-20T13:02:55Z</time>
      </trkpt>
      <trkpt lat="45.61111" lon="6.51253">
        <ele>2282</ele>
        <time>2025-02-20T13:02:56Z</time>
      </trkpt>
      <trkpt lat="45.61111" lon="6.51253">
        <ele>2283.8</ele>
        <time>2025-02-20T13:02:57Z</time>
      </trkpt>
      <trkpt lat="45.61111" lon="6.51253">
        <ele>2283.8</ele>
        <time>2025-02-20T13:02:58Z</time>
      </trkpt>
      <trkpt lat="45.61111" lon="6.51253">
        <ele>2283.8</ele>
        <time>2025-02-20T13:02:59Z</time>
      </trkpt>
      <trkpt lat="45.61111" lon="6.51253">
        <ele>2283.8</ele>
        <time>2025-02-20T13:03:00Z</time>
      </trkpt>
      <trkpt lat="45.61111" lon="6.51253">
        <ele>2283.8</ele>
        <time>2025-02-20T13:03:01Z</time>
      </trkpt>
      <trkpt lat="45.61111" lon="6.51253">
        <ele>2283.8</ele>
        <time>2025-02-20T13:03:02Z</time>
      </trkpt>
      <trkpt lat="45.61111" lon="6.51253">
        <ele>2283.8</ele>
        <time>2025-02-20T13:03:03Z</time>
      </trkpt>
      <trkpt lat="45.61112" lon="6.51243">
        <ele>2283.8</ele>
        <time>2025-02-20T13:03:04Z</time>
      </trkpt>
      <trkpt lat="45.61112" lon="6.51242">
        <ele>2282.6</ele>
        <time>2025-02-20T13:03:05Z</time>
      </trkpt>
      <trkpt lat="45.61112" lon="6.51242">
        <ele>2282.6</ele>
        <time>2025-02-20T13:03:06Z</time>
      </trkpt>
      <trkpt lat="45.61111" lon="6.51241">
        <ele>2282.6</ele>
        <time>2025-02-20T13:03:07Z</time>
      </trkpt>
      <trkpt lat="45.61111" lon="6.51241">
        <ele>2283.2</ele>
        <time>2025-02-20T13:03:08Z</time>
      </trkpt>
      <trkpt lat="45.61111" lon="6.51241">
        <ele>2284.8</ele>
        <time>2025-02-20T13:03:09Z</time>
      </trkpt>
      <trkpt lat="45.6111" lon="6.51239">
        <ele>2284.8</ele>
        <time>2025-02-20T13:03:10Z</time>
      </trkpt>
      <trkpt lat="45.6111" lon="6.51239">
        <ele>2284.8</ele>
        <time>2025-02-20T13:03:11Z</time>
      </trkpt>
      <trkpt lat="45.6111" lon="6.51239">
        <ele>2284.8</ele>
        <time>2025-02-20T13:03:12Z</time>
      </trkpt>
      <trkpt lat="45.6111" lon="6.51239">
        <ele>2284.6</ele>
        <time>2025-02-20T13:03:13Z</time>
      </trkpt>
      <trkpt lat="45.6111" lon="6.51239">
        <ele>2284.6</ele>
        <time>2025-02-20T13:03:14Z</time>
      </trkpt>
      <trkpt lat="45.6111" lon="6.51239">
        <ele>2284.6</ele>
        <time>2025-02-20T13:03:15Z</time>
      </trkpt>
      <trkpt lat="45.6111" lon="6.51239">
        <ele>2284.6</ele>
        <time>2025-02-20T13:03:16Z</time>
      </trkpt>
      <trkpt lat="45.6111" lon="6.51239">
        <ele>2284</ele>
        <time>2025-02-20T13:03:17Z</time>
      </trkpt>
      <trkpt lat="45.6111" lon="6.51239">
        <ele>2284</ele>
        <time>2025-02-20T13:03:18Z</time>
      </trkpt>
      <trkpt lat="45.61111" lon="6.51236">
        <ele>2284</ele>
        <time>2025-02-20T13:03:19Z</time>
      </trkpt>
      <trkpt lat="45.6111" lon="6.51236">
        <ele>2284.2</ele>
        <time>2025-02-20T13:03:20Z</time>
      </trkpt>
      <trkpt lat="45.6111" lon="6.51236">
        <ele>2285.8</ele>
        <time>2025-02-20T13:03:21Z</time>
      </trkpt>
      <trkpt lat="45.6111" lon="6.51235">
        <ele>2285.8</ele>
        <time>2025-02-20T13:03:22Z</time>
      </trkpt>
      <trkpt lat="45.61111" lon="6.51235">
        <ele>2285.8</ele>
        <time>2025-02-20T13:03:23Z</time>
      </trkpt>
      <trkpt lat="45.61111" lon="6.51235">
        <ele>2285.8</ele>
        <time>2025-02-20T13:03:24Z</time>
      </trkpt>
      <trkpt lat="45.61111" lon="6.51235">
        <ele>2286.4</ele>
        <time>2025-02-20T13:03:25Z</time>
      </trkpt>
      <trkpt lat="45.61111" lon="6.51235">
        <ele>2286.4</ele>
        <time>2025-02-20T13:03:26Z</time>
      </trkpt>
      <trkpt lat="45.61111" lon="6.51235">
        <ele>2286.4</ele>
        <time>2025-02-20T13:03:27Z</time>
      </trkpt>
      <trkpt lat="45.61111" lon="6.51235">
        <ele>2286.4</ele>
        <time>2025-02-20T13:03:28Z</time>
      </trkpt>
      <trkpt lat="45.61111" lon="6.51235">
        <ele>2286.6</ele>
        <time>2025-02-20T13:03:29Z</time>
      </trkpt>
      <trkpt lat="45.61111" lon="6.51235">
        <ele>2286.6</ele>
        <time>2025-02-20T13:03:30Z</time>
      </trkpt>
      <trkpt lat="45.61111" lon="6.51235">
        <ele>2286.6</ele>
        <time>2025-02-20T13:03:31Z</time>
      </trkpt>
      <trkpt lat="45.61111" lon="6.51235">
        <ele>2286.6</ele>
        <time>2025-02-20T13:03:32Z</time>
      </trkpt>
      <trkpt lat="45.61111" lon="6.51235">
        <ele>2287.4</ele>
        <time>2025-02-20T13:03:33Z</time>
      </trkpt>
      <trkpt lat="45.61111" lon="6.51235">
        <ele>2287.4</ele>
        <time>2025-02-20T13:03:34Z</time>
      </trkpt>
      <trkpt lat="45.61111" lon="6.51235">
        <ele>2287.4</ele>
        <time>2025-02-20T13:03:35Z</time>
      </trkpt>
      <trkpt lat="45.61111" lon="6.51235">
        <ele>2286.8</ele>
        <time>2025-02-20T13:03:36Z</time>
      </trkpt>
      <trkpt lat="45.61111" lon="6.51235">
        <ele>2286.4</ele>
        <time>2025-02-20T13:03:37Z</time>
      </trkpt>
      <trkpt lat="45.61111" lon="6.51235">
        <ele>2286.4</ele>
        <time>2025-02-20T13:03:38Z</time>
      </trkpt>
      <trkpt lat="45.61111" lon="6.51235">
        <ele>2286.4</ele>
        <time>2025-02-20T13:03:39Z</time>
      </trkpt>
      <trkpt lat="45.61111" lon="6.51235">
        <ele>2286.8</ele>
        <time>2025-02-20T13:03:40Z</time>
      </trkpt>
      <trkpt lat="45.61111" lon="6.51235">
        <ele>2287</ele>
        <time>2025-02-20T13:03:41Z</time>
      </trkpt>
      <trkpt lat="45.61111" lon="6.51235">
        <ele>2287</ele>
        <time>2025-02-20T13:03:42Z</time>
      </trkpt>
      <trkpt lat="45.61111" lon="6.51235">
        <ele>2287</ele>
        <time>2025-02-20T13:03:43Z</time>
      </trkpt>
      <trkpt lat="45.61111" lon="6.51235">
        <ele>2287</ele>
        <time>2025-02-20T13:03:44Z</time>
      </trkpt>
      <trkpt lat="45.61111" lon="6.51235">
        <ele>2287.8</ele>
        <time>2025-02-20T13:03:45Z</time>
      </trkpt>
      <trkpt lat="45.61111" lon="6.51235">
        <ele>2287.8</ele>
        <time>2025-02-20T13:03:46Z</time>
      </trkpt>
      <trkpt lat="45.61111" lon="6.51235">
        <ele>2287.8</ele>
        <time>2025-02-20T13:03:47Z</time>
      </trkpt>
      <trkpt lat="45.61111" lon="6.51235">
        <ele>2287.2</ele>
        <time>2025-02-20T13:03:48Z</time>
      </trkpt>
      <trkpt lat="45.61111" lon="6.51235">
        <ele>2286.6</ele>
        <time>2025-02-20T13:03:49Z</time>
      </trkpt>
      <trkpt lat="45.61111" lon="6.51235">
        <ele>2286.6</ele>
        <time>2025-02-20T13:03:50Z</time>
      </trkpt>
      <trkpt lat="45.61111" lon="6.51235">
        <ele>2286.6</ele>
        <time>2025-02-20T13:03:51Z</time>
      </trkpt>
      <trkpt lat="45.61111" lon="6.51235">
        <ele>2287.6</ele>
        <time>2025-02-20T13:03:52Z</time>
      </trkpt>
      <trkpt lat="45.61111" lon="6.51235">
        <ele>2287.6</ele>
        <time>2025-02-20T13:03:53Z</time>
      </trkpt>
      <trkpt lat="45.61111" lon="6.51235">
        <ele>2287.6</ele>
        <time>2025-02-20T13:03:54Z</time>
      </trkpt>
      <trkpt lat="45.61111" lon="6.51235">
        <ele>2287.6</ele>
        <time>2025-02-20T13:03:55Z</time>
      </trkpt>
      <trkpt lat="45.61111" lon="6.51235">
        <ele>2287.6</ele>
        <time>2025-02-20T13:03:56Z</time>
      </trkpt>
      <trkpt lat="45.61111" lon="6.51235">
        <ele>2288.8</ele>
        <time>2025-02-20T13:03:57Z</time>
      </trkpt>
      <trkpt lat="45.61111" lon="6.51235">
        <ele>2288.8</ele>
        <time>2025-02-20T13:03:58Z</time>
      </trkpt>
      <trkpt lat="45.61111" lon="6.51235">
        <ele>2288.8</ele>
        <time>2025-02-20T13:03:59Z</time>
      </trkpt>
      <trkpt lat="45.61111" lon="6.51235">
        <ele>2288.8</ele>
        <time>2025-02-20T13:04:00Z</time>
      </trkpt>
      <trkpt lat="45.61101" lon="6.51242">
        <ele>2288.8</ele>
        <time>2025-02-20T13:04:01Z</time>
      </trkpt>
      <trkpt lat="45.61101" lon="6.51243">
        <ele>2288.8</ele>
        <time>2025-02-20T13:04:02Z</time>
      </trkpt>
      <trkpt lat="45.61101" lon="6.51243">
        <ele>2288.8</ele>
        <time>2025-02-20T13:04:03Z</time>
      </trkpt>
      <trkpt lat="45.61101" lon="6.51244">
        <ele>2288.8</ele>
        <time>2025-02-20T13:04:04Z</time>
      </trkpt>
      <trkpt lat="45.61101" lon="6.51244">
        <ele>2288.8</ele>
        <time>2025-02-20T13:04:05Z</time>
      </trkpt>
      <trkpt lat="45.61101" lon="6.51244">
        <ele>2288.8</ele>
        <time>2025-02-20T13:04:06Z</time>
      </trkpt>
      <trkpt lat="45.61101" lon="6.51244">
        <ele>2288.8</ele>
        <time>2025-02-20T13:04:07Z</time>
      </trkpt>
      <trkpt lat="45.61101" lon="6.51244">
        <ele>2289.8</ele>
        <time>2025-02-20T13:04:08Z</time>
      </trkpt>
      <trkpt lat="45.611" lon="6.51245">
        <ele>2289.6</ele>
        <time>2025-02-20T13:04:09Z</time>
      </trkpt>
      <trkpt lat="45.611" lon="6.51245">
        <ele>2289.6</ele>
        <time>2025-02-20T13:04:10Z</time>
      </trkpt>
      <trkpt lat="45.611" lon="6.51245">
        <ele>2289.6</ele>
        <time>2025-02-20T13:04:11Z</time>
      </trkpt>
      <trkpt lat="45.61099" lon="6.51246">
        <ele>2289.6</ele>
        <time>2025-02-20T13:04:12Z</time>
      </trkpt>
      <trkpt lat="45.61098" lon="6.51246">
        <ele>2289.4</ele>
        <time>2025-02-20T13:04:13Z</time>
      </trkpt>
      <trkpt lat="45.61098" lon="6.51246">
        <ele>2289.4</ele>
        <time>2025-02-20T13:04:14Z</time>
      </trkpt>
      <trkpt lat="45.61098" lon="6.51246">
        <ele>2289.4</ele>
        <time>2025-02-20T13:04:15Z</time>
      </trkpt>
      <trkpt lat="45.61098" lon="6.51246">
        <ele>2290.4</ele>
        <time>2025-02-20T13:04:16Z</time>
      </trkpt>
      <trkpt lat="45.61098" lon="6.51246">
        <ele>2290.4</ele>
        <time>2025-02-20T13:04:17Z</time>
      </trkpt>
      <trkpt lat="45.61098" lon="6.51246">
        <ele>2290.4</ele>
        <time>2025-02-20T13:04:18Z</time>
      </trkpt>
      <trkpt lat="45.61098" lon="6.51246">
        <ele>2290.4</ele>
        <time>2025-02-20T13:04:19Z</time>
      </trkpt>
      <trkpt lat="45.61098" lon="6.51246">
        <ele>2290.4</ele>
        <time>2025-02-20T13:04:20Z</time>
      </trkpt>
      <trkpt lat="45.61098" lon="6.51246">
        <ele>2290.6</ele>
        <time>2025-02-20T13:04:21Z</time>
      </trkpt>
      <trkpt lat="45.61098" lon="6.51246">
        <ele>2290.6</ele>
        <time>2025-02-20T13:04:22Z</time>
      </trkpt>
      <trkpt lat="45.61098" lon="6.51246">
        <ele>2290.6</ele>
        <time>2025-02-20T13:04:23Z</time>
      </trkpt>
      <trkpt lat="45.61098" lon="6.51246">
        <ele>2291.4</ele>
        <time>2025-02-20T13:04:24Z</time>
      </trkpt>
      <trkpt lat="45.61096" lon="6.51249">
        <ele>2291</ele>
        <time>2025-02-20T13:04:25Z</time>
      </trkpt>
      <trkpt lat="45.61096" lon="6.51249">
        <ele>2291</ele>
        <time>2025-02-20T13:04:26Z</time>
      </trkpt>
      <trkpt lat="45.61096" lon="6.51249">
        <ele>2291</ele>
        <time>2025-02-20T13:04:27Z</time>
      </trkpt>
      <trkpt lat="45.61095" lon="6.5125">
        <ele>2292</ele>
        <time>2025-02-20T13:04:28Z</time>
      </trkpt>
      <trkpt lat="45.61095" lon="6.5125">
        <ele>2291.4</ele>
        <time>2025-02-20T13:04:29Z</time>
      </trkpt>
      <trkpt lat="45.61095" lon="6.5125">
        <ele>2291.4</ele>
        <time>2025-02-20T13:04:30Z</time>
      </trkpt>
      <trkpt lat="45.61095" lon="6.5125">
        <ele>2291.4</ele>
        <time>2025-02-20T13:04:31Z</time>
      </trkpt>
      <trkpt lat="45.61095" lon="6.5125">
        <ele>2292.2</ele>
        <time>2025-02-20T13:04:32Z</time>
      </trkpt>
      <trkpt lat="45.61095" lon="6.5125">
        <ele>2292</ele>
        <time>2025-02-20T13:04:33Z</time>
      </trkpt>
      <trkpt lat="45.61095" lon="6.5125">
        <ele>2292</ele>
        <time>2025-02-20T13:04:34Z</time>
      </trkpt>
      <trkpt lat="45.61095" lon="6.5125">
        <ele>2292</ele>
        <time>2025-02-20T13:04:35Z</time>
      </trkpt>
      <trkpt lat="45.61092" lon="6.51252">
        <ele>2292.2</ele>
        <time>2025-02-20T13:04:36Z</time>
      </trkpt>
      <trkpt lat="45.61092" lon="6.51252">
        <ele>2292.2</ele>
        <time>2025-02-20T13:04:37Z</time>
      </trkpt>
      <trkpt lat="45.61092" lon="6.51252">
        <ele>2292.2</ele>
        <time>2025-02-20T13:04:38Z</time>
      </trkpt>
      <trkpt lat="45.61092" lon="6.51252">
        <ele>2292.2</ele>
        <time>2025-02-20T13:04:39Z</time>
      </trkpt>
      <trkpt lat="45.61092" lon="6.51252">
        <ele>2292.4</ele>
        <time>2025-02-20T13:04:40Z</time>
      </trkpt>
      <trkpt lat="45.61092" lon="6.51252">
        <ele>2293</ele>
        <time>2025-02-20T13:04:41Z</time>
      </trkpt>
      <trkpt lat="45.61092" lon="6.51252">
        <ele>2293</ele>
        <time>2025-02-20T13:04:42Z</time>
      </trkpt>
      <trkpt lat="45.61092" lon="6.51252">
        <ele>2293</ele>
        <time>2025-02-20T13:04:43Z</time>
      </trkpt>
      <trkpt lat="45.61089" lon="6.51252">
        <ele>2293</ele>
        <time>2025-02-20T13:04:44Z</time>
      </trkpt>
      <trkpt lat="45.61088" lon="6.51252">
        <ele>2293.2</ele>
        <time>2025-02-20T13:04:45Z</time>
      </trkpt>
      <trkpt lat="45.61088" lon="6.51252">
        <ele>2293.2</ele>
        <time>2025-02-20T13:04:46Z</time>
      </trkpt>
      <trkpt lat="45.61087" lon="6.51252">
        <ele>2293.2</ele>
        <time>2025-02-20T13:04:47Z</time>
      </trkpt>
      <trkpt lat="45.61087" lon="6.51253">
        <ele>2293.2</ele>
        <time>2025-02-20T13:04:48Z</time>
      </trkpt>
      <trkpt lat="45.61087" lon="6.51253">
        <ele>2294</ele>
        <time>2025-02-20T13:04:49Z</time>
      </trkpt>
      <trkpt lat="45.61087" lon="6.51253">
        <ele>2294</ele>
        <time>2025-02-20T13:04:50Z</time>
      </trkpt>
      <trkpt lat="45.61087" lon="6.51253">
        <ele>2294</ele>
        <time>2025-02-20T13:04:51Z</time>
      </trkpt>
      <trkpt lat="45.61086" lon="6.51254">
        <ele>2294</ele>
        <time>2025-02-20T13:04:52Z</time>
      </trkpt>
      <trkpt lat="45.61086" lon="6.51254">
        <ele>2294</ele>
        <time>2025-02-20T13:04:53Z</time>
      </trkpt>
      <trkpt lat="45.61086" lon="6.51254">
        <ele>2294</ele>
        <time>2025-02-20T13:04:54Z</time>
      </trkpt>
      <trkpt lat="45.61086" lon="6.51255">
        <ele>2294</ele>
        <time>2025-02-20T13:04:55Z</time>
      </trkpt>
      <trkpt lat="45.61086" lon="6.51255">
        <ele>2294.6</ele>
        <time>2025-02-20T13:04:56Z</time>
      </trkpt>
      <trkpt lat="45.61086" lon="6.51255">
        <ele>2294.6</ele>
        <time>2025-02-20T13:04:57Z</time>
      </trkpt>
      <trkpt lat="45.61086" lon="6.51255">
        <ele>2294.6</ele>
        <time>2025-02-20T13:04:58Z</time>
      </trkpt>
      <trkpt lat="45.61086" lon="6.51255">
        <ele>2294.6</ele>
        <time>2025-02-20T13:04:59Z</time>
      </trkpt>
      <trkpt lat="45.61086" lon="6.51255">
        <ele>2295.2</ele>
        <time>2025-02-20T13:05:00Z</time>
      </trkpt>
      <trkpt lat="45.61086" lon="6.51255">
        <ele>2295.4</ele>
        <time>2025-02-20T13:05:01Z</time>
      </trkpt>
      <trkpt lat="45.61086" lon="6.51255">
        <ele>2295.4</ele>
        <time>2025-02-20T13:05:02Z</time>
      </trkpt>
      <trkpt lat="45.61086" lon="6.51255">
        <ele>2295.4</ele>
        <time>2025-02-20T13:05:03Z</time>
      </trkpt>
      <trkpt lat="45.61086" lon="6.51255">
        <ele>2294.4</ele>
        <time>2025-02-20T13:05:04Z</time>
      </trkpt>
      <trkpt lat="45.61086" lon="6.51255">
        <ele>2295.4</ele>
        <time>2025-02-20T13:05:05Z</time>
      </trkpt>
      <trkpt lat="45.61086" lon="6.51255">
        <ele>2295.4</ele>
        <time>2025-02-20T13:05:06Z</time>
      </trkpt>
      <trkpt lat="45.61086" lon="6.51255">
        <ele>2295.4</ele>
        <time>2025-02-20T13:05:07Z</time>
      </trkpt>
      <trkpt lat="45.61086" lon="6.51255">
        <ele>2295.4</ele>
        <time>2025-02-20T13:05:08Z</time>
      </trkpt>
      <trkpt lat="45.61086" lon="6.51255">
        <ele>2294.4</ele>
        <time>2025-02-20T13:05:09Z</time>
      </trkpt>
      <trkpt lat="45.61086" lon="6.51255">
        <ele>2294.4</ele>
        <time>2025-02-20T13:05:10Z</time>
      </trkpt>
      <trkpt lat="45.61086" lon="6.51255">
        <ele>2294.4</ele>
        <time>2025-02-20T13:05:11Z</time>
      </trkpt>
      <trkpt lat="45.61086" lon="6.51255">
        <ele>2294.8</ele>
        <time>2025-02-20T13:05:12Z</time>
      </trkpt>
      <trkpt lat="45.61086" lon="6.51255">
        <ele>2296.8</ele>
        <time>2025-02-20T13:05:13Z</time>
      </trkpt>
      <trkpt lat="45.61086" lon="6.51249">
        <ele>2296.8</ele>
        <time>2025-02-20T13:05:14Z</time>
      </trkpt>
      <trkpt lat="45.61086" lon="6.51249">
        <ele>2296.8</ele>
        <time>2025-02-20T13:05:15Z</time>
      </trkpt>
      <trkpt lat="45.61086" lon="6.51249">
        <ele>2296.8</ele>
        <time>2025-02-20T13:05:16Z</time>
      </trkpt>
      <trkpt lat="45.61086" lon="6.51249">
        <ele>2296.2</ele>
        <time>2025-02-20T13:05:17Z</time>
      </trkpt>
      <trkpt lat="45.61086" lon="6.51249">
        <ele>2296.2</ele>
        <time>2025-02-20T13:05:18Z</time>
      </trkpt>
      <trkpt lat="45.61086" lon="6.51247">
        <ele>2296.2</ele>
        <time>2025-02-20T13:05:19Z</time>
      </trkpt>
      <trkpt lat="45.61086" lon="6.51246">
        <ele>2296.2</ele>
        <time>2025-02-20T13:05:20Z</time>
      </trkpt>
      <trkpt lat="45.61086" lon="6.51246">
        <ele>2298</ele>
        <time>2025-02-20T13:05:21Z</time>
      </trkpt>
      <trkpt lat="45.61086" lon="6.51245">
        <ele>2298</ele>
        <time>2025-02-20T13:05:22Z</time>
      </trkpt>
      <trkpt lat="45.61086" lon="6.51245">
        <ele>2298</ele>
        <time>2025-02-20T13:05:23Z</time>
      </trkpt>
      <trkpt lat="45.61086" lon="6.51245">
        <ele>2298</ele>
        <time>2025-02-20T13:05:24Z</time>
      </trkpt>
      <trkpt lat="45.61086" lon="6.51245">
        <ele>2297</ele>
        <time>2025-02-20T13:05:25Z</time>
      </trkpt>
      <trkpt lat="45.61086" lon="6.51245">
        <ele>2297</ele>
        <time>2025-02-20T13:05:26Z</time>
      </trkpt>
      <trkpt lat="45.61086" lon="6.51245">
        <ele>2297</ele>
        <time>2025-02-20T13:05:27Z</time>
      </trkpt>
      <trkpt lat="45.61086" lon="6.51245">
        <ele>2297</ele>
        <time>2025-02-20T13:05:28Z</time>
      </trkpt>
      <trkpt lat="45.61086" lon="6.51245">
        <ele>2296.8</ele>
        <time>2025-02-20T13:05:29Z</time>
      </trkpt>
      <trkpt lat="45.61086" lon="6.51245">
        <ele>2296.8</ele>
        <time>2025-02-20T13:05:30Z</time>
      </trkpt>
      <trkpt lat="45.61085" lon="6.51243">
        <ele>2296.8</ele>
        <time>2025-02-20T13:05:31Z</time>
      </trkpt>
      <trkpt lat="45.61085" lon="6.51243">
        <ele>2297.8</ele>
        <time>2025-02-20T13:05:32Z</time>
      </trkpt>
      <trkpt lat="45.61085" lon="6.51243">
        <ele>2298.6</ele>
        <time>2025-02-20T13:05:33Z</time>
      </trkpt>
      <trkpt lat="45.61085" lon="6.51243">
        <ele>2298.6</ele>
        <time>2025-02-20T13:05:34Z</time>
      </trkpt>
      <trkpt lat="45.61085" lon="6.51243">
        <ele>2298.6</ele>
        <time>2025-02-20T13:05:35Z</time>
      </trkpt>
      <trkpt lat="45.61085" lon="6.51243">
        <ele>2298.6</ele>
        <time>2025-02-20T13:05:36Z</time>
      </trkpt>
      <trkpt lat="45.61085" lon="6.51243">
        <ele>2299.2</ele>
        <time>2025-02-20T13:05:37Z</time>
      </trkpt>
      <trkpt lat="45.61085" lon="6.51243">
        <ele>2299.2</ele>
        <time>2025-02-20T13:05:38Z</time>
      </trkpt>
      <trkpt lat="45.61085" lon="6.51243">
        <ele>2299.2</ele>
        <time>2025-02-20T13:05:39Z</time>
      </trkpt>
      <trkpt lat="45.61085" lon="6.51243">
        <ele>2299.2</ele>
        <time>2025-02-20T13:05:40Z</time>
      </trkpt>
      <trkpt lat="45.61085" lon="6.51243">
        <ele>2298.8</ele>
        <time>2025-02-20T13:05:41Z</time>
      </trkpt>
      <trkpt lat="45.61085" lon="6.51243">
        <ele>2298.8</ele>
        <time>2025-02-20T13:05:42Z</time>
      </trkpt>
      <trkpt lat="45.61085" lon="6.51243">
        <ele>2298.8</ele>
        <time>2025-02-20T13:05:43Z</time>
      </trkpt>
      <trkpt lat="45.61085" lon="6.51243">
        <ele>2298.8</ele>
        <time>2025-02-20T13:05:44Z</time>
      </trkpt>
      <trkpt lat="45.61085" lon="6.51243">
        <ele>2300.6</ele>
        <time>2025-02-20T13:05:45Z</time>
      </trkpt>
      <trkpt lat="45.61085" lon="6.51243">
        <ele>2300.6</ele>
        <time>2025-02-20T13:05:46Z</time>
      </trkpt>
      <trkpt lat="45.61085" lon="6.51243">
        <ele>2300.6</ele>
        <time>2025-02-20T13:05:47Z</time>
      </trkpt>
      <trkpt lat="45.61085" lon="6.51243">
        <ele>2299.6</ele>
        <time>2025-02-20T13:05:48Z</time>
      </trkpt>
      <trkpt lat="45.61085" lon="6.51243">
        <ele>2300.2</ele>
        <time>2025-02-20T13:05:49Z</time>
      </trkpt>
      <trkpt lat="45.61085" lon="6.51243">
        <ele>2300.2</ele>
        <time>2025-02-20T13:05:50Z</time>
      </trkpt>
      <trkpt lat="45.61085" lon="6.51243">
        <ele>2300.2</ele>
        <time>2025-02-20T13:05:51Z</time>
      </trkpt>
      <trkpt lat="45.61085" lon="6.51243">
        <ele>2300.2</ele>
        <time>2025-02-20T13:05:52Z</time>
      </trkpt>
      <trkpt lat="45.61085" lon="6.51243">
        <ele>2299.4</ele>
        <time>2025-02-20T13:05:53Z</time>
      </trkpt>
      <trkpt lat="45.61085" lon="6.51243">
        <ele>2299.4</ele>
        <time>2025-02-20T13:05:54Z</time>
      </trkpt>
      <trkpt lat="45.61085" lon="6.51243">
        <ele>2299.4</ele>
        <time>2025-02-20T13:05:55Z</time>
      </trkpt>
      <trkpt lat="45.61085" lon="6.51243">
        <ele>2300.4</ele>
        <time>2025-02-20T13:05:56Z</time>
      </trkpt>
      <trkpt lat="45.61085" lon="6.51243">
        <ele>2300.8</ele>
        <time>2025-02-20T13:05:57Z</time>
      </trkpt>
      <trkpt lat="45.61085" lon="6.51243">
        <ele>2300.8</ele>
        <time>2025-02-20T13:05:58Z</time>
      </trkpt>
      <trkpt lat="45.61085" lon="6.51243">
        <ele>2300.8</ele>
        <time>2025-02-20T13:05:59Z</time>
      </trkpt>
      <trkpt lat="45.61085" lon="6.51243">
        <ele>2300.8</ele>
        <time>2025-02-20T13:06:00Z</time>
      </trkpt>
      <trkpt lat="45.61085" lon="6.51243">
        <ele>2300.6</ele>
        <time>2025-02-20T13:06:01Z</time>
      </trkpt>
      <trkpt lat="45.61084" lon="6.51238">
        <ele>2300.6</ele>
        <time>2025-02-20T13:06:02Z</time>
      </trkpt>
      <trkpt lat="45.61084" lon="6.51238">
        <ele>2300.6</ele>
        <time>2025-02-20T13:06:03Z</time>
      </trkpt>
      <trkpt lat="45.61083" lon="6.51237">
        <ele>2301</ele>
        <time>2025-02-20T13:06:04Z</time>
      </trkpt>
      <trkpt lat="45.61083" lon="6.51236">
        <ele>2300</ele>
        <time>2025-02-20T13:06:05Z</time>
      </trkpt>
      <trkpt lat="45.61083" lon="6.51236">
        <ele>2300</ele>
        <time>2025-02-20T13:06:06Z</time>
      </trkpt>
      <trkpt lat="45.61083" lon="6.51235">
        <ele>2300</ele>
        <time>2025-02-20T13:06:07Z</time>
      </trkpt>
      <trkpt lat="45.61083" lon="6.51235">
        <ele>2301</ele>
        <time>2025-02-20T13:06:08Z</time>
      </trkpt>
      <trkpt lat="45.61082" lon="6.51234">
        <ele>2301.2</ele>
        <time>2025-02-20T13:06:09Z</time>
      </trkpt>
      <trkpt lat="45.61082" lon="6.51233">
        <ele>2301.2</ele>
        <time>2025-02-20T13:06:10Z</time>
      </trkpt>
      <trkpt lat="45.61082" lon="6.51232">
        <ele>2301.2</ele>
        <time>2025-02-20T13:06:11Z</time>
      </trkpt>
      <trkpt lat="45.61082" lon="6.51232">
        <ele>2301.2</ele>
        <time>2025-02-20T13:06:12Z</time>
      </trkpt>
      <trkpt lat="45.61082" lon="6.51232">
        <ele>2302.2</ele>
        <time>2025-02-20T13:06:13Z</time>
      </trkpt>
      <trkpt lat="45.61082" lon="6.5123">
        <ele>2302.2</ele>
        <time>2025-02-20T13:06:14Z</time>
      </trkpt>
      <trkpt lat="45.61081" lon="6.5123">
        <ele>2302.2</ele>
        <time>2025-02-20T13:06:15Z</time>
      </trkpt>
      <trkpt lat="45.61081" lon="6.51229">
        <ele>2302.2</ele>
        <time>2025-02-20T13:06:16Z</time>
      </trkpt>
      <trkpt lat="45.61081" lon="6.51229">
        <ele>2301.2</ele>
        <time>2025-02-20T13:06:17Z</time>
      </trkpt>
      <trkpt lat="45.61081" lon="6.51228">
        <ele>2301.2</ele>
        <time>2025-02-20T13:06:18Z</time>
      </trkpt>
      <trkpt lat="45.6108" lon="6.51228">
        <ele>2301.2</ele>
        <time>2025-02-20T13:06:19Z</time>
      </trkpt>
      <trkpt lat="45.6108" lon="6.51227">
        <ele>2302.2</ele>
        <time>2025-02-20T13:06:20Z</time>
      </trkpt>
      <trkpt lat="45.6108" lon="6.51226">
        <ele>2303</ele>
        <time>2025-02-20T13:06:21Z</time>
      </trkpt>
      <trkpt lat="45.6108" lon="6.51226">
        <ele>2303</ele>
        <time>2025-02-20T13:06:22Z</time>
      </trkpt>
      <trkpt lat="45.6108" lon="6.51224">
        <ele>2303</ele>
        <time>2025-02-20T13:06:23Z</time>
      </trkpt>
      <trkpt lat="45.6108" lon="6.51224">
        <ele>2303</ele>
        <time>2025-02-20T13:06:24Z</time>
      </trkpt>
      <trkpt lat="45.6108" lon="6.51223">
        <ele>2302.8</ele>
        <time>2025-02-20T13:06:25Z</time>
      </trkpt>
      <trkpt lat="45.61079" lon="6.51223">
        <ele>2302.8</ele>
        <time>2025-02-20T13:06:26Z</time>
      </trkpt>
      <trkpt lat="45.61079" lon="6.51223">
        <ele>2302.8</ele>
        <time>2025-02-20T13:06:27Z</time>
      </trkpt>
      <trkpt lat="45.61079" lon="6.51222">
        <ele>2302.8</ele>
        <time>2025-02-20T13:06:28Z</time>
      </trkpt>
      <trkpt lat="45.61079" lon="6.51222">
        <ele>2303</ele>
        <time>2025-02-20T13:06:29Z</time>
      </trkpt>
      <trkpt lat="45.61079" lon="6.51222">
        <ele>2303</ele>
        <time>2025-02-20T13:06:30Z</time>
      </trkpt>
      <trkpt lat="45.61079" lon="6.51222">
        <ele>2303</ele>
        <time>2025-02-20T13:06:31Z</time>
      </trkpt>
      <trkpt lat="45.61079" lon="6.51222">
        <ele>2303</ele>
        <time>2025-02-20T13:06:32Z</time>
      </trkpt>
      <trkpt lat="45.61079" lon="6.51222">
        <ele>2304.4</ele>
        <time>2025-02-20T13:06:33Z</time>
      </trkpt>
      <trkpt lat="45.61079" lon="6.51222">
        <ele>2304.4</ele>
        <time>2025-02-20T13:06:34Z</time>
      </trkpt>
      <trkpt lat="45.61079" lon="6.51222">
        <ele>2304.4</ele>
        <time>2025-02-20T13:06:35Z</time>
      </trkpt>
      <trkpt lat="45.61079" lon="6.51222">
        <ele>2304.4</ele>
        <time>2025-02-20T13:06:36Z</time>
      </trkpt>
      <trkpt lat="45.61079" lon="6.51222">
        <ele>2303.8</ele>
        <time>2025-02-20T13:06:37Z</time>
      </trkpt>
      <trkpt lat="45.61079" lon="6.51222">
        <ele>2303.8</ele>
        <time>2025-02-20T13:06:38Z</time>
      </trkpt>
      <trkpt lat="45.61079" lon="6.51222">
        <ele>2303.8</ele>
        <time>2025-02-20T13:06:39Z</time>
      </trkpt>
      <trkpt lat="45.61079" lon="6.51222">
        <ele>2303.8</ele>
        <time>2025-02-20T13:06:40Z</time>
      </trkpt>
      <trkpt lat="45.61079" lon="6.51222">
        <ele>2304.4</ele>
        <time>2025-02-20T13:06:41Z</time>
      </trkpt>
      <trkpt lat="45.61079" lon="6.51222">
        <ele>2304.4</ele>
        <time>2025-02-20T13:06:42Z</time>
      </trkpt>
      <trkpt lat="45.61079" lon="6.51222">
        <ele>2304.4</ele>
        <time>2025-02-20T13:06:43Z</time>
      </trkpt>
      <trkpt lat="45.61079" lon="6.51222">
        <ele>2304.4</ele>
        <time>2025-02-20T13:06:44Z</time>
      </trkpt>
      <trkpt lat="45.61079" lon="6.51222">
        <ele>2305.6</ele>
        <time>2025-02-20T13:06:45Z</time>
      </trkpt>
      <trkpt lat="45.61079" lon="6.51222">
        <ele>2305.6</ele>
        <time>2025-02-20T13:06:46Z</time>
      </trkpt>
      <trkpt lat="45.61079" lon="6.51222">
        <ele>2305.6</ele>
        <time>2025-02-20T13:06:47Z</time>
      </trkpt>
      <trkpt lat="45.61079" lon="6.51222">
        <ele>2305.2</ele>
        <time>2025-02-20T13:06:48Z</time>
      </trkpt>
      <trkpt lat="45.61079" lon="6.51222">
        <ele>2306</ele>
        <time>2025-02-20T13:06:49Z</time>
      </trkpt>
      <trkpt lat="45.61079" lon="6.51222">
        <ele>2306</ele>
        <time>2025-02-20T13:06:50Z</time>
      </trkpt>
      <trkpt lat="45.61079" lon="6.51222">
        <ele>2306</ele>
        <time>2025-02-20T13:06:51Z</time>
      </trkpt>
      <trkpt lat="45.61079" lon="6.51222">
        <ele>2306</ele>
        <time>2025-02-20T13:06:52Z</time>
      </trkpt>
      <trkpt lat="45.61079" lon="6.51222">
        <ele>2306.2</ele>
        <time>2025-02-20T13:06:53Z</time>
      </trkpt>
      <trkpt lat="45.61079" lon="6.51222">
        <ele>2306.2</ele>
        <time>2025-02-20T13:06:54Z</time>
      </trkpt>
      <trkpt lat="45.61079" lon="6.51222">
        <ele>2306.2</ele>
        <time>2025-02-20T13:06:55Z</time>
      </trkpt>
      <trkpt lat="45.61079" lon="6.51222">
        <ele>2306.2</ele>
        <time>2025-02-20T13:06:56Z</time>
      </trkpt>
      <trkpt lat="45.61079" lon="6.51222">
        <ele>2306.4</ele>
        <time>2025-02-20T13:06:57Z</time>
      </trkpt>
      <trkpt lat="45.61079" lon="6.51222">
        <ele>2306.4</ele>
        <time>2025-02-20T13:06:58Z</time>
      </trkpt>
      <trkpt lat="45.61073" lon="6.51233">
        <ele>2306.4</ele>
        <time>2025-02-20T13:06:59Z</time>
      </trkpt>
      <trkpt lat="45.61072" lon="6.51233">
        <ele>2307.2</ele>
        <time>2025-02-20T13:07:00Z</time>
      </trkpt>
      <trkpt lat="45.61072" lon="6.51233">
        <ele>2306.6</ele>
        <time>2025-02-20T13:07:01Z</time>
      </trkpt>
      <trkpt lat="45.61072" lon="6.51233">
        <ele>2306.6</ele>
        <time>2025-02-20T13:07:02Z</time>
      </trkpt>
      <trkpt lat="45.61072" lon="6.51233">
        <ele>2306.6</ele>
        <time>2025-02-20T13:07:03Z</time>
      </trkpt>
      <trkpt lat="45.61072" lon="6.51233">
        <ele>2306.6</ele>
        <time>2025-02-20T13:07:04Z</time>
      </trkpt>
      <trkpt lat="45.61072" lon="6.51233">
        <ele>2307.6</ele>
        <time>2025-02-20T13:07:05Z</time>
      </trkpt>
      <trkpt lat="45.61072" lon="6.51233">
        <ele>2307.6</ele>
        <time>2025-02-20T13:07:06Z</time>
      </trkpt>
      <trkpt lat="45.61072" lon="6.51233">
        <ele>2307.6</ele>
        <time>2025-02-20T13:07:07Z</time>
      </trkpt>
      <trkpt lat="45.61072" lon="6.51233">
        <ele>2307.6</ele>
        <time>2025-02-20T13:07:08Z</time>
      </trkpt>
      <trkpt lat="45.61072" lon="6.51233">
        <ele>2308</ele>
        <time>2025-02-20T13:07:09Z</time>
      </trkpt>
      <trkpt lat="45.61072" lon="6.51233">
        <ele>2308</ele>
        <time>2025-02-20T13:07:10Z</time>
      </trkpt>
      <trkpt lat="45.61072" lon="6.51233">
        <ele>2308</ele>
        <time>2025-02-20T13:07:11Z</time>
      </trkpt>
      <trkpt lat="45.61072" lon="6.51233">
        <ele>2308</ele>
        <time>2025-02-20T13:07:12Z</time>
      </trkpt>
      <trkpt lat="45.61072" lon="6.51233">
        <ele>2309.2</ele>
        <time>2025-02-20T13:07:13Z</time>
      </trkpt>
      <trkpt lat="45.61072" lon="6.51233">
        <ele>2309.2</ele>
        <time>2025-02-20T13:07:14Z</time>
      </trkpt>
      <trkpt lat="45.61072" lon="6.51233">
        <ele>2309.2</ele>
        <time>2025-02-20T13:07:15Z</time>
      </trkpt>
      <trkpt lat="45.61072" lon="6.51233">
        <ele>2308.8</ele>
        <time>2025-02-20T13:07:16Z</time>
      </trkpt>
      <trkpt lat="45.61072" lon="6.51233">
        <ele>2309</ele>
        <time>2025-02-20T13:07:17Z</time>
      </trkpt>
      <trkpt lat="45.61072" lon="6.51233">
        <ele>2309</ele>
        <time>2025-02-20T13:07:18Z</time>
      </trkpt>
      <trkpt lat="45.61072" lon="6.51233">
        <ele>2309</ele>
        <time>2025-02-20T13:07:19Z</time>
      </trkpt>
      <trkpt lat="45.61072" lon="6.51233">
        <ele>2309</ele>
        <time>2025-02-20T13:07:20Z</time>
      </trkpt>
      <trkpt lat="45.61072" lon="6.51233">
        <ele>2308.8</ele>
        <time>2025-02-20T13:07:21Z</time>
      </trkpt>
      <trkpt lat="45.61072" lon="6.51233">
        <ele>2308.8</ele>
        <time>2025-02-20T13:07:22Z</time>
      </trkpt>
      <trkpt lat="45.61072" lon="6.51233">
        <ele>2308.8</ele>
        <time>2025-02-20T13:07:23Z</time>
      </trkpt>
      <trkpt lat="45.61072" lon="6.51233">
        <ele>2309.2</ele>
        <time>2025-02-20T13:07:24Z</time>
      </trkpt>
      <trkpt lat="45.61072" lon="6.51233">
        <ele>2307.4</ele>
        <time>2025-02-20T13:07:25Z</time>
      </trkpt>
      <trkpt lat="45.61072" lon="6.51233">
        <ele>2307.4</ele>
        <time>2025-02-20T13:07:26Z</time>
      </trkpt>
      <trkpt lat="45.61072" lon="6.51233">
        <ele>2307.4</ele>
        <time>2025-02-20T13:07:27Z</time>
      </trkpt>
      <trkpt lat="45.61072" lon="6.51233">
        <ele>2308.4</ele>
        <time>2025-02-20T13:07:28Z</time>
      </trkpt>
      <trkpt lat="45.61068" lon="6.51237">
        <ele>2308.8</ele>
        <time>2025-02-20T13:07:29Z</time>
      </trkpt>
      <trkpt lat="45.61067" lon="6.51236">
        <ele>2308.8</ele>
        <time>2025-02-20T13:07:30Z</time>
      </trkpt>
      <trkpt lat="45.61067" lon="6.51236">
        <ele>2308.8</ele>
        <time>2025-02-20T13:07:31Z</time>
      </trkpt>
      <trkpt lat="45.61068" lon="6.51233">
        <ele>2309.6</ele>
        <time>2025-02-20T13:07:32Z</time>
      </trkpt>
      <trkpt lat="45.61068" lon="6.51233">
        <ele>2310.2</ele>
        <time>2025-02-20T13:07:33Z</time>
      </trkpt>
      <trkpt lat="45.61068" lon="6.51231">
        <ele>2310.2</ele>
        <time>2025-02-20T13:07:34Z</time>
      </trkpt>
      <trkpt lat="45.61068" lon="6.51231">
        <ele>2310.2</ele>
        <time>2025-02-20T13:07:35Z</time>
      </trkpt>
      <trkpt lat="45.61068" lon="6.51229">
        <ele>2310.2</ele>
        <time>2025-02-20T13:07:36Z</time>
      </trkpt>
      <trkpt lat="45.61067" lon="6.51229">
        <ele>2309.6</ele>
        <time>2025-02-20T13:07:37Z</time>
      </trkpt>
      <trkpt lat="45.61068" lon="6.51227">
        <ele>2309.6</ele>
        <time>2025-02-20T13:07:38Z</time>
      </trkpt>
      <trkpt lat="45.61068" lon="6.51226">
        <ele>2309.6</ele>
        <time>2025-02-20T13:07:39Z</time>
      </trkpt>
      <trkpt lat="45.61068" lon="6.51225">
        <ele>2310.6</ele>
        <time>2025-02-20T13:07:40Z</time>
      </trkpt>
      <trkpt lat="45.61068" lon="6.51224">
        <ele>2310.2</ele>
        <time>2025-02-20T13:07:41Z</time>
      </trkpt>
      <trkpt lat="45.61067" lon="6.51224">
        <ele>2310.2</ele>
        <time>2025-02-20T13:07:42Z</time>
      </trkpt>
      <trkpt lat="45.61067" lon="6.51224">
        <ele>2310.2</ele>
        <time>2025-02-20T13:07:43Z</time>
      </trkpt>
      <trkpt lat="45.61067" lon="6.51224">
        <ele>2310.2</ele>
        <time>2025-02-20T13:07:44Z</time>
      </trkpt>
      <trkpt lat="45.61067" lon="6.51224">
        <ele>2312</ele>
        <time>2025-02-20T13:07:45Z</time>
      </trkpt>
      <trkpt lat="45.61067" lon="6.5122">
        <ele>2312</ele>
        <time>2025-02-20T13:07:46Z</time>
      </trkpt>
      <trkpt lat="45.61067" lon="6.5122">
        <ele>2312</ele>
        <time>2025-02-20T13:07:47Z</time>
      </trkpt>
      <trkpt lat="45.61067" lon="6.5122">
        <ele>2311.4</ele>
        <time>2025-02-20T13:07:48Z</time>
      </trkpt>
      <trkpt lat="45.61067" lon="6.51219">
        <ele>2310.8</ele>
        <time>2025-02-20T13:07:49Z</time>
      </trkpt>
      <trkpt lat="45.61067" lon="6.51219">
        <ele>2310.8</ele>
        <time>2025-02-20T13:07:50Z</time>
      </trkpt>
      <trkpt lat="45.61067" lon="6.51219">
        <ele>2310.8</ele>
        <time>2025-02-20T13:07:51Z</time>
      </trkpt>
      <trkpt lat="45.61067" lon="6.51219">
        <ele>2311.8</ele>
        <time>2025-02-20T13:07:52Z</time>
      </trkpt>
      <trkpt lat="45.61067" lon="6.51219">
        <ele>2311.6</ele>
        <time>2025-02-20T13:07:53Z</time>
      </trkpt>
      <trkpt lat="45.61067" lon="6.51219">
        <ele>2311.6</ele>
        <time>2025-02-20T13:07:54Z</time>
      </trkpt>
      <trkpt lat="45.61067" lon="6.51219">
        <ele>2311.6</ele>
        <time>2025-02-20T13:07:55Z</time>
      </trkpt>
      <trkpt lat="45.61067" lon="6.51219">
        <ele>2311.6</ele>
        <time>2025-02-20T13:07:56Z</time>
      </trkpt>
      <trkpt lat="45.61067" lon="6.51219">
        <ele>2312.8</ele>
        <time>2025-02-20T13:07:57Z</time>
      </trkpt>
      <trkpt lat="45.61067" lon="6.51219">
        <ele>2312.8</ele>
        <time>2025-02-20T13:07:58Z</time>
      </trkpt>
      <trkpt lat="45.61067" lon="6.51219">
        <ele>2312.8</ele>
        <time>2025-02-20T13:07:59Z</time>
      </trkpt>
      <trkpt lat="45.61067" lon="6.51219">
        <ele>2312</ele>
        <time>2025-02-20T13:08:00Z</time>
      </trkpt>
      <trkpt lat="45.61067" lon="6.51219">
        <ele>2313</ele>
        <time>2025-02-20T13:08:01Z</time>
      </trkpt>
      <trkpt lat="45.61067" lon="6.51219">
        <ele>2313</ele>
        <time>2025-02-20T13:08:02Z</time>
      </trkpt>
      <trkpt lat="45.61067" lon="6.51219">
        <ele>2313</ele>
        <time>2025-02-20T13:08:03Z</time>
      </trkpt>
      <trkpt lat="45.61067" lon="6.51219">
        <ele>2312.2</ele>
        <time>2025-02-20T13:08:04Z</time>
      </trkpt>
      <trkpt lat="45.61067" lon="6.51219">
        <ele>2312</ele>
        <time>2025-02-20T13:08:05Z</time>
      </trkpt>
      <trkpt lat="45.61067" lon="6.51219">
        <ele>2312</ele>
        <time>2025-02-20T13:08:06Z</time>
      </trkpt>
      <trkpt lat="45.61067" lon="6.51219">
        <ele>2312</ele>
        <time>2025-02-20T13:08:07Z</time>
      </trkpt>
      <trkpt lat="45.61066" lon="6.5122">
        <ele>2312.4</ele>
        <time>2025-02-20T13:08:08Z</time>
      </trkpt>
      <trkpt lat="45.61065" lon="6.5122">
        <ele>2312.2</ele>
        <time>2025-02-20T13:08:09Z</time>
      </trkpt>
      <trkpt lat="45.61065" lon="6.5122">
        <ele>2312.2</ele>
        <time>2025-02-20T13:08:10Z</time>
      </trkpt>
      <trkpt lat="45.61065" lon="6.5122">
        <ele>2312.2</ele>
        <time>2025-02-20T13:08:11Z</time>
      </trkpt>
      <trkpt lat="45.61065" lon="6.5122">
        <ele>2313.2</ele>
        <time>2025-02-20T13:08:12Z</time>
      </trkpt>
      <trkpt lat="45.61065" lon="6.5122">
        <ele>2313</ele>
        <time>2025-02-20T13:08:13Z</time>
      </trkpt>
      <trkpt lat="45.61065" lon="6.5122">
        <ele>2313</ele>
        <time>2025-02-20T13:08:14Z</time>
      </trkpt>
      <trkpt lat="45.61065" lon="6.5122">
        <ele>2313</ele>
        <time>2025-02-20T13:08:15Z</time>
      </trkpt>
      <trkpt lat="45.61065" lon="6.5122">
        <ele>2313</ele>
        <time>2025-02-20T13:08:16Z</time>
      </trkpt>
      <trkpt lat="45.61065" lon="6.5122">
        <ele>2313.4</ele>
        <time>2025-02-20T13:08:17Z</time>
      </trkpt>
      <trkpt lat="45.61065" lon="6.5122">
        <ele>2313.4</ele>
        <time>2025-02-20T13:08:18Z</time>
      </trkpt>
      <trkpt lat="45.61065" lon="6.5122">
        <ele>2313.4</ele>
        <time>2025-02-20T13:08:19Z</time>
      </trkpt>
      <trkpt lat="45.61065" lon="6.5122">
        <ele>2313.4</ele>
        <time>2025-02-20T13:08:20Z</time>
      </trkpt>
      <trkpt lat="45.6106" lon="6.51223">
        <ele>2313.4</ele>
        <time>2025-02-20T13:08:21Z</time>
      </trkpt>
      <trkpt lat="45.6106" lon="6.51224">
        <ele>2313.4</ele>
        <time>2025-02-20T13:08:22Z</time>
      </trkpt>
      <trkpt lat="45.6106" lon="6.51224">
        <ele>2313.4</ele>
        <time>2025-02-20T13:08:23Z</time>
      </trkpt>
      <trkpt lat="45.6106" lon="6.51224">
        <ele>2314.4</ele>
        <time>2025-02-20T13:08:24Z</time>
      </trkpt>
      <trkpt lat="45.6106" lon="6.51224">
        <ele>2314.6</ele>
        <time>2025-02-20T13:08:25Z</time>
      </trkpt>
      <trkpt lat="45.6106" lon="6.51224">
        <ele>2314.6</ele>
        <time>2025-02-20T13:08:26Z</time>
      </trkpt>
      <trkpt lat="45.6106" lon="6.51224">
        <ele>2314.6</ele>
        <time>2025-02-20T13:08:27Z</time>
      </trkpt>
      <trkpt lat="45.6106" lon="6.51224">
        <ele>2314.6</ele>
        <time>2025-02-20T13:08:28Z</time>
      </trkpt>
      <trkpt lat="45.6106" lon="6.51224">
        <ele>2314.6</ele>
        <time>2025-02-20T13:08:29Z</time>
      </trkpt>
      <trkpt lat="45.61058" lon="6.51224">
        <ele>2314.6</ele>
        <time>2025-02-20T13:08:30Z</time>
      </trkpt>
      <trkpt lat="45.61058" lon="6.51224">
        <ele>2314.6</ele>
        <time>2025-02-20T13:08:31Z</time>
      </trkpt>
      <trkpt lat="45.61058" lon="6.51224">
        <ele>2314.6</ele>
        <time>2025-02-20T13:08:32Z</time>
      </trkpt>
      <trkpt lat="45.61058" lon="6.51224">
        <ele>2315.4</ele>
        <time>2025-02-20T13:08:33Z</time>
      </trkpt>
      <trkpt lat="45.61058" lon="6.51224">
        <ele>2315.4</ele>
        <time>2025-02-20T13:08:34Z</time>
      </trkpt>
      <trkpt lat="45.61058" lon="6.51224">
        <ele>2315.4</ele>
        <time>2025-02-20T13:08:35Z</time>
      </trkpt>
      <trkpt lat="45.61058" lon="6.51224">
        <ele>2315.4</ele>
        <time>2025-02-20T13:08:36Z</time>
      </trkpt>
      <trkpt lat="45.61058" lon="6.51224">
        <ele>2315.2</ele>
        <time>2025-02-20T13:08:37Z</time>
      </trkpt>
      <trkpt lat="45.61058" lon="6.51224">
        <ele>2315.2</ele>
        <time>2025-02-20T13:08:38Z</time>
      </trkpt>
      <trkpt lat="45.61058" lon="6.51224">
        <ele>2315.2</ele>
        <time>2025-02-20T13:08:39Z</time>
      </trkpt>
      <trkpt lat="45.61058" lon="6.51224">
        <ele>2315.2</ele>
        <time>2025-02-20T13:08:40Z</time>
      </trkpt>
      <trkpt lat="45.61058" lon="6.51224">
        <ele>2316.6</ele>
        <time>2025-02-20T13:08:41Z</time>
      </trkpt>
      <trkpt lat="45.61058" lon="6.51224">
        <ele>2316.6</ele>
        <time>2025-02-20T13:08:42Z</time>
      </trkpt>
      <trkpt lat="45.61058" lon="6.51224">
        <ele>2316.6</ele>
        <time>2025-02-20T13:08:43Z</time>
      </trkpt>
      <trkpt lat="45.61058" lon="6.51224">
        <ele>2316.6</ele>
        <time>2025-02-20T13:08:44Z</time>
      </trkpt>
      <trkpt lat="45.61058" lon="6.51224">
        <ele>2316</ele>
        <time>2025-02-20T13:08:45Z</time>
      </trkpt>
      <trkpt lat="45.61058" lon="6.51224">
        <ele>2316</ele>
        <time>2025-02-20T13:08:46Z</time>
      </trkpt>
      <trkpt lat="45.61058" lon="6.51224">
        <ele>2316</ele>
        <time>2025-02-20T13:08:47Z</time>
      </trkpt>
      <trkpt lat="45.61058" lon="6.51224">
        <ele>2316</ele>
        <time>2025-02-20T13:08:48Z</time>
      </trkpt>
      <trkpt lat="45.61058" lon="6.51224">
        <ele>2316.6</ele>
        <time>2025-02-20T13:08:49Z</time>
      </trkpt>
      <trkpt lat="45.61058" lon="6.51224">
        <ele>2316.6</ele>
        <time>2025-02-20T13:08:50Z</time>
      </trkpt>
      <trkpt lat="45.61058" lon="6.51224">
        <ele>2316.6</ele>
        <time>2025-02-20T13:08:51Z</time>
      </trkpt>
      <trkpt lat="45.61058" lon="6.51224">
        <ele>2317</ele>
        <time>2025-02-20T13:08:52Z</time>
      </trkpt>
      <trkpt lat="45.61058" lon="6.51224">
        <ele>2317.2</ele>
        <time>2025-02-20T13:08:53Z</time>
      </trkpt>
      <trkpt lat="45.61058" lon="6.51224">
        <ele>2317.2</ele>
        <time>2025-02-20T13:08:54Z</time>
      </trkpt>
      <trkpt lat="45.61058" lon="6.51224">
        <ele>2317.2</ele>
        <time>2025-02-20T13:08:55Z</time>
      </trkpt>
      <trkpt lat="45.61058" lon="6.51224">
        <ele>2317</ele>
        <time>2025-02-20T13:08:56Z</time>
      </trkpt>
      <trkpt lat="45.61058" lon="6.51224">
        <ele>2317.2</ele>
        <time>2025-02-20T13:08:57Z</time>
      </trkpt>
      <trkpt lat="45.61058" lon="6.51224">
        <ele>2317.2</ele>
        <time>2025-02-20T13:08:58Z</time>
      </trkpt>
      <trkpt lat="45.61058" lon="6.51224">
        <ele>2317.2</ele>
        <time>2025-02-20T13:08:59Z</time>
      </trkpt>
      <trkpt lat="45.61058" lon="6.51224">
        <ele>2317.2</ele>
        <time>2025-02-20T13:09:00Z</time>
      </trkpt>
      <trkpt lat="45.61058" lon="6.51224">
        <ele>2316.8</ele>
        <time>2025-02-20T13:09:01Z</time>
      </trkpt>
      <trkpt lat="45.61058" lon="6.51224">
        <ele>2316.8</ele>
        <time>2025-02-20T13:09:02Z</time>
      </trkpt>
      <trkpt lat="45.61058" lon="6.51224">
        <ele>2316.8</ele>
        <time>2025-02-20T13:09:03Z</time>
      </trkpt>
      <trkpt lat="45.61058" lon="6.51224">
        <ele>2316.8</ele>
        <time>2025-02-20T13:09:04Z</time>
      </trkpt>
      <trkpt lat="45.61058" lon="6.51224">
        <ele>2317</ele>
        <time>2025-02-20T13:09:05Z</time>
      </trkpt>
      <trkpt lat="45.61058" lon="6.51224">
        <ele>2317</ele>
        <time>2025-02-20T13:09:06Z</time>
      </trkpt>
      <trkpt lat="45.61058" lon="6.51224">
        <ele>2317</ele>
        <time>2025-02-20T13:09:07Z</time>
      </trkpt>
      <trkpt lat="45.61053" lon="6.51224">
        <ele>2317</ele>
        <time>2025-02-20T13:09:08Z</time>
      </trkpt>
      <trkpt lat="45.61054" lon="6.51224">
        <ele>2316.4</ele>
        <time>2025-02-20T13:09:09Z</time>
      </trkpt>
      <trkpt lat="45.61054" lon="6.51223">
        <ele>2316.4</ele>
        <time>2025-02-20T13:09:10Z</time>
      </trkpt>
      <trkpt lat="45.61054" lon="6.51223">
        <ele>2316.4</ele>
        <time>2025-02-20T13:09:11Z</time>
      </trkpt>
      <trkpt lat="45.61054" lon="6.51223">
        <ele>2317.4</ele>
        <time>2025-02-20T13:09:12Z</time>
      </trkpt>
      <trkpt lat="45.61054" lon="6.51223">
        <ele>2317.2</ele>
        <time>2025-02-20T13:09:13Z</time>
      </trkpt>
      <trkpt lat="45.61054" lon="6.51223">
        <ele>2317.2</ele>
        <time>2025-02-20T13:09:14Z</time>
      </trkpt>
      <trkpt lat="45.61054" lon="6.51223">
        <ele>2317.2</ele>
        <time>2025-02-20T13:09:15Z</time>
      </trkpt>
      <trkpt lat="45.61054" lon="6.51223">
        <ele>2318.2</ele>
        <time>2025-02-20T13:09:16Z</time>
      </trkpt>
      <trkpt lat="45.61054" lon="6.51219">
        <ele>2318.6</ele>
        <time>2025-02-20T13:09:17Z</time>
      </trkpt>
      <trkpt lat="45.61054" lon="6.51218">
        <ele>2318.6</ele>
        <time>2025-02-20T13:09:18Z</time>
      </trkpt>
      <trkpt lat="45.61054" lon="6.51218">
        <ele>2318.6</ele>
        <time>2025-02-20T13:09:19Z</time>
      </trkpt>
      <trkpt lat="45.61054" lon="6.51218">
        <ele>2318.6</ele>
        <time>2025-02-20T13:09:20Z</time>
      </trkpt>
      <trkpt lat="45.61054" lon="6.51218">
        <ele>2320.6</ele>
        <time>2025-02-20T13:09:21Z</time>
      </trkpt>
      <trkpt lat="45.61054" lon="6.51218">
        <ele>2320.6</ele>
        <time>2025-02-20T13:09:22Z</time>
      </trkpt>
      <trkpt lat="45.61054" lon="6.51218">
        <ele>2320.6</ele>
        <time>2025-02-20T13:09:23Z</time>
      </trkpt>
      <trkpt lat="45.61055" lon="6.51215">
        <ele>2319.6</ele>
        <time>2025-02-20T13:09:24Z</time>
      </trkpt>
      <trkpt lat="45.61055" lon="6.51215">
        <ele>2318.6</ele>
        <time>2025-02-20T13:09:25Z</time>
      </trkpt>
      <trkpt lat="45.61055" lon="6.51215">
        <ele>2318.6</ele>
        <time>2025-02-20T13:09:26Z</time>
      </trkpt>
      <trkpt lat="45.61055" lon="6.51215">
        <ele>2318.6</ele>
        <time>2025-02-20T13:09:27Z</time>
      </trkpt>
      <trkpt lat="45.61055" lon="6.51215">
        <ele>2319.6</ele>
        <time>2025-02-20T13:09:28Z</time>
      </trkpt>
      <trkpt lat="45.61055" lon="6.51215">
        <ele>2320.6</ele>
        <time>2025-02-20T13:09:29Z</time>
      </trkpt>
      <trkpt lat="45.61055" lon="6.51215">
        <ele>2320.6</ele>
        <time>2025-02-20T13:09:30Z</time>
      </trkpt>
      <trkpt lat="45.61055" lon="6.51215">
        <ele>2320.6</ele>
        <time>2025-02-20T13:09:31Z</time>
      </trkpt>
      <trkpt lat="45.61055" lon="6.51215">
        <ele>2320.6</ele>
        <time>2025-02-20T13:09:32Z</time>
      </trkpt>
      <trkpt lat="45.61055" lon="6.51215">
        <ele>2320.6</ele>
        <time>2025-02-20T13:09:33Z</time>
      </trkpt>
      <trkpt lat="45.61055" lon="6.51215">
        <ele>2320.6</ele>
        <time>2025-02-20T13:09:34Z</time>
      </trkpt>
      <trkpt lat="45.61055" lon="6.51215">
        <ele>2320.6</ele>
        <time>2025-02-20T13:09:35Z</time>
      </trkpt>
      <trkpt lat="45.61055" lon="6.51209">
        <ele>2320.6</ele>
        <time>2025-02-20T13:09:36Z</time>
      </trkpt>
      <trkpt lat="45.61055" lon="6.51209">
        <ele>2320.8</ele>
        <time>2025-02-20T13:09:37Z</time>
      </trkpt>
      <trkpt lat="45.61055" lon="6.51209">
        <ele>2320.8</ele>
        <time>2025-02-20T13:09:38Z</time>
      </trkpt>
      <trkpt lat="45.61055" lon="6.51209">
        <ele>2320.8</ele>
        <time>2025-02-20T13:09:39Z</time>
      </trkpt>
      <trkpt lat="45.61055" lon="6.51209">
        <ele>2321.4</ele>
        <time>2025-02-20T13:09:40Z</time>
      </trkpt>
      <trkpt lat="45.61055" lon="6.51209">
        <ele>2322.4</ele>
        <time>2025-02-20T13:09:41Z</time>
      </trkpt>
      <trkpt lat="45.61055" lon="6.51209">
        <ele>2322.4</ele>
        <time>2025-02-20T13:09:42Z</time>
      </trkpt>
      <trkpt lat="45.61055" lon="6.51209">
        <ele>2322.4</ele>
        <time>2025-02-20T13:09:43Z</time>
      </trkpt>
      <trkpt lat="45.61055" lon="6.51209">
        <ele>2322.4</ele>
        <time>2025-02-20T13:09:44Z</time>
      </trkpt>
      <trkpt lat="45.61055" lon="6.51209">
        <ele>2321.4</ele>
        <time>2025-02-20T13:09:45Z</time>
      </trkpt>
      <trkpt lat="45.61055" lon="6.51209">
        <ele>2321.4</ele>
        <time>2025-02-20T13:09:46Z</time>
      </trkpt>
      <trkpt lat="45.61055" lon="6.51209">
        <ele>2321.4</ele>
        <time>2025-02-20T13:09:47Z</time>
      </trkpt>
      <trkpt lat="45.61055" lon="6.51209">
        <ele>2321.8</ele>
        <time>2025-02-20T13:09:48Z</time>
      </trkpt>
      <trkpt lat="45.61055" lon="6.51209">
        <ele>2322.4</ele>
        <time>2025-02-20T13:09:49Z</time>
      </trkpt>
      <trkpt lat="45.61055" lon="6.51209">
        <ele>2322.4</ele>
        <time>2025-02-20T13:09:50Z</time>
      </trkpt>
      <trkpt lat="45.61055" lon="6.51209">
        <ele>2322.4</ele>
        <time>2025-02-20T13:09:51Z</time>
      </trkpt>
      <trkpt lat="45.61055" lon="6.51209">
        <ele>2322.4</ele>
        <time>2025-02-20T13:09:52Z</time>
      </trkpt>
      <trkpt lat="45.61055" lon="6.51209">
        <ele>2322</ele>
        <time>2025-02-20T13:09:53Z</time>
      </trkpt>
      <trkpt lat="45.61055" lon="6.51209">
        <ele>2322</ele>
        <time>2025-02-20T13:09:54Z</time>
      </trkpt>
      <trkpt lat="45.61055" lon="6.51209">
        <ele>2322</ele>
        <time>2025-02-20T13:09:55Z</time>
      </trkpt>
      <trkpt lat="45.61055" lon="6.51209">
        <ele>2322</ele>
        <time>2025-02-20T13:09:56Z</time>
      </trkpt>
      <trkpt lat="45.61055" lon="6.51209">
        <ele>2322.4</ele>
        <time>2025-02-20T13:09:57Z</time>
      </trkpt>
      <trkpt lat="45.61055" lon="6.51209">
        <ele>2322.4</ele>
        <time>2025-02-20T13:09:58Z</time>
      </trkpt>
      <trkpt lat="45.61055" lon="6.51209">
        <ele>2322.4</ele>
        <time>2025-02-20T13:09:59Z</time>
      </trkpt>
      <trkpt lat="45.61055" lon="6.51209">
        <ele>2321.6</ele>
        <time>2025-02-20T13:10:00Z</time>
      </trkpt>
      <trkpt lat="45.61055" lon="6.51209">
        <ele>2322</ele>
        <time>2025-02-20T13:10:01Z</time>
      </trkpt>
      <trkpt lat="45.61055" lon="6.51209">
        <ele>2322</ele>
        <time>2025-02-20T13:10:02Z</time>
      </trkpt>
      <trkpt lat="45.61055" lon="6.51209">
        <ele>2322</ele>
        <time>2025-02-20T13:10:03Z</time>
      </trkpt>
      <trkpt lat="45.61055" lon="6.51209">
        <ele>2322</ele>
        <time>2025-02-20T13:10:04Z</time>
      </trkpt>
      <trkpt lat="45.61055" lon="6.51209">
        <ele>2323</ele>
        <time>2025-02-20T13:10:05Z</time>
      </trkpt>
      <trkpt lat="45.61055" lon="6.51209">
        <ele>2323</ele>
        <time>2025-02-20T13:10:06Z</time>
      </trkpt>
      <trkpt lat="45.61055" lon="6.51209">
        <ele>2323</ele>
        <time>2025-02-20T13:10:07Z</time>
      </trkpt>
      <trkpt lat="45.61055" lon="6.51209">
        <ele>2322.4</ele>
        <time>2025-02-20T13:10:08Z</time>
      </trkpt>
      <trkpt lat="45.61055" lon="6.51209">
        <ele>2321.8</ele>
        <time>2025-02-20T13:10:09Z</time>
      </trkpt>
      <trkpt lat="45.61055" lon="6.51209">
        <ele>2321.8</ele>
        <time>2025-02-20T13:10:10Z</time>
      </trkpt>
      <trkpt lat="45.61055" lon="6.51209">
        <ele>2321.8</ele>
        <time>2025-02-20T13:10:11Z</time>
      </trkpt>
      <trkpt lat="45.61055" lon="6.51209">
        <ele>2321.8</ele>
        <time>2025-02-20T13:10:12Z</time>
      </trkpt>
      <trkpt lat="45.61055" lon="6.51209">
        <ele>2322.8</ele>
        <time>2025-02-20T13:10:13Z</time>
      </trkpt>
      <trkpt lat="45.61055" lon="6.51209">
        <ele>2322.8</ele>
        <time>2025-02-20T13:10:14Z</time>
      </trkpt>
      <trkpt lat="45.61055" lon="6.51209">
        <ele>2322.8</ele>
        <time>2025-02-20T13:10:15Z</time>
      </trkpt>
      <trkpt lat="45.61055" lon="6.51209">
        <ele>2322.8</ele>
        <time>2025-02-20T13:10:16Z</time>
      </trkpt>
      <trkpt lat="45.61055" lon="6.51209">
        <ele>2322.2</ele>
        <time>2025-02-20T13:10:17Z</time>
      </trkpt>
      <trkpt lat="45.61055" lon="6.51209">
        <ele>2322.2</ele>
        <time>2025-02-20T13:10:18Z</time>
      </trkpt>
      <trkpt lat="45.61053" lon="6.51205">
        <ele>2322.2</ele>
        <time>2025-02-20T13:10:19Z</time>
      </trkpt>
      <trkpt lat="45.61053" lon="6.51206">
        <ele>2323.2</ele>
        <time>2025-02-20T13:10:20Z</time>
      </trkpt>
      <trkpt lat="45.61052" lon="6.51206">
        <ele>2324</ele>
        <time>2025-02-20T13:10:21Z</time>
      </trkpt>
      <trkpt lat="45.61052" lon="6.51206">
        <ele>2324</ele>
        <time>2025-02-20T13:10:22Z</time>
      </trkpt>
      <trkpt lat="45.61051" lon="6.51207">
        <ele>2324</ele>
        <time>2025-02-20T13:10:23Z</time>
      </trkpt>
      <trkpt lat="45.61051" lon="6.51207">
        <ele>2324</ele>
        <time>2025-02-20T13:10:24Z</time>
      </trkpt>
      <trkpt lat="45.61051" lon="6.51207">
        <ele>2323.6</ele>
        <time>2025-02-20T13:10:25Z</time>
      </trkpt>
      <trkpt lat="45.61051" lon="6.51207">
        <ele>2323.6</ele>
        <time>2025-02-20T13:10:26Z</time>
      </trkpt>
      <trkpt lat="45.6105" lon="6.51208">
        <ele>2323.6</ele>
        <time>2025-02-20T13:10:27Z</time>
      </trkpt>
      <trkpt lat="45.61049" lon="6.51209">
        <ele>2323.6</ele>
        <time>2025-02-20T13:10:28Z</time>
      </trkpt>
      <trkpt lat="45.61049" lon="6.51209">
        <ele>2323.6</ele>
        <time>2025-02-20T13:10:29Z</time>
      </trkpt>
      <trkpt lat="45.61049" lon="6.51209">
        <ele>2323.6</ele>
        <time>2025-02-20T13:10:30Z</time>
      </trkpt>
      <trkpt lat="45.61049" lon="6.51209">
        <ele>2323.6</ele>
        <time>2025-02-20T13:10:31Z</time>
      </trkpt>
      <trkpt lat="45.61049" lon="6.51209">
        <ele>2324.4</ele>
        <time>2025-02-20T13:10:32Z</time>
      </trkpt>
      <trkpt lat="45.61049" lon="6.51209">
        <ele>2325.2</ele>
        <time>2025-02-20T13:10:33Z</time>
      </trkpt>
      <trkpt lat="45.61049" lon="6.51209">
        <ele>2325.2</ele>
        <time>2025-02-20T13:10:34Z</time>
      </trkpt>
      <trkpt lat="45.61049" lon="6.51209">
        <ele>2325.2</ele>
        <time>2025-02-20T13:10:35Z</time>
      </trkpt>
      <trkpt lat="45.61047" lon="6.5121">
        <ele>2324.4</ele>
        <time>2025-02-20T13:10:36Z</time>
      </trkpt>
      <trkpt lat="45.61047" lon="6.5121">
        <ele>2324.4</ele>
        <time>2025-02-20T13:10:37Z</time>
      </trkpt>
      <trkpt lat="45.61047" lon="6.5121">
        <ele>2324.4</ele>
        <time>2025-02-20T13:10:38Z</time>
      </trkpt>
      <trkpt lat="45.61045" lon="6.5121">
        <ele>2324.4</ele>
        <time>2025-02-20T13:10:39Z</time>
      </trkpt>
      <trkpt lat="45.61045" lon="6.5121">
        <ele>2325.4</ele>
        <time>2025-02-20T13:10:40Z</time>
      </trkpt>
      <trkpt lat="45.61044" lon="6.51211">
        <ele>2326</ele>
        <time>2025-02-20T13:10:41Z</time>
      </trkpt>
      <trkpt lat="45.61045" lon="6.51212">
        <ele>2326</ele>
        <time>2025-02-20T13:10:42Z</time>
      </trkpt>
      <trkpt lat="45.61044" lon="6.51212">
        <ele>2326</ele>
        <time>2025-02-20T13:10:43Z</time>
      </trkpt>
      <trkpt lat="45.61044" lon="6.51212">
        <ele>2326</ele>
        <time>2025-02-20T13:10:44Z</time>
      </trkpt>
      <trkpt lat="45.61044" lon="6.51212">
        <ele>2325.4</ele>
        <time>2025-02-20T13:10:45Z</time>
      </trkpt>
      <trkpt lat="45.61044" lon="6.51212">
        <ele>2325.4</ele>
        <time>2025-02-20T13:10:46Z</time>
      </trkpt>
      <trkpt lat="45.61044" lon="6.51212">
        <ele>2325.4</ele>
        <time>2025-02-20T13:10:47Z</time>
      </trkpt>
      <trkpt lat="45.61042" lon="6.51213">
        <ele>2325.4</ele>
        <time>2025-02-20T13:10:48Z</time>
      </trkpt>
      <trkpt lat="45.61042" lon="6.51214">
        <ele>2327.4</ele>
        <time>2025-02-20T13:10:49Z</time>
      </trkpt>
      <trkpt lat="45.61042" lon="6.51213">
        <ele>2327.4</ele>
        <time>2025-02-20T13:10:50Z</time>
      </trkpt>
      <trkpt lat="45.61042" lon="6.51213">
        <ele>2327.4</ele>
        <time>2025-02-20T13:10:51Z</time>
      </trkpt>
      <trkpt lat="45.61041" lon="6.51212">
        <ele>2326.4</ele>
        <time>2025-02-20T13:10:52Z</time>
      </trkpt>
      <trkpt lat="45.61041" lon="6.51212">
        <ele>2326</ele>
        <time>2025-02-20T13:10:53Z</time>
      </trkpt>
      <trkpt lat="45.61041" lon="6.51212">
        <ele>2326</ele>
        <time>2025-02-20T13:10:54Z</time>
      </trkpt>
      <trkpt lat="45.61041" lon="6.51212">
        <ele>2326</ele>
        <time>2025-02-20T13:10:55Z</time>
      </trkpt>
      <trkpt lat="45.61041" lon="6.51212">
        <ele>2327</ele>
        <time>2025-02-20T13:10:56Z</time>
      </trkpt>
      <trkpt lat="45.61041" lon="6.51212">
        <ele>2326.8</ele>
        <time>2025-02-20T13:10:57Z</time>
      </trkpt>
      <trkpt lat="45.61041" lon="6.51212">
        <ele>2326.8</ele>
        <time>2025-02-20T13:10:58Z</time>
      </trkpt>
      <trkpt lat="45.61041" lon="6.51209">
        <ele>2326.8</ele>
        <time>2025-02-20T13:10:59Z</time>
      </trkpt>
      <trkpt lat="45.61041" lon="6.51209">
        <ele>2327.2</ele>
        <time>2025-02-20T13:11:00Z</time>
      </trkpt>
      <trkpt lat="45.61041" lon="6.51209">
        <ele>2328.4</ele>
        <time>2025-02-20T13:11:01Z</time>
      </trkpt>
      <trkpt lat="45.6104" lon="6.51208">
        <ele>2328.4</ele>
        <time>2025-02-20T13:11:02Z</time>
      </trkpt>
      <trkpt lat="45.6104" lon="6.51208">
        <ele>2328.4</ele>
        <time>2025-02-20T13:11:03Z</time>
      </trkpt>
      <trkpt lat="45.6104" lon="6.51207">
        <ele>2328.4</ele>
        <time>2025-02-20T13:11:04Z</time>
      </trkpt>
      <trkpt lat="45.6104" lon="6.51207">
        <ele>2327.6</ele>
        <time>2025-02-20T13:11:05Z</time>
      </trkpt>
      <trkpt lat="45.6104" lon="6.51207">
        <ele>2327.6</ele>
        <time>2025-02-20T13:11:06Z</time>
      </trkpt>
      <trkpt lat="45.6104" lon="6.51207">
        <ele>2327.6</ele>
        <time>2025-02-20T13:11:07Z</time>
      </trkpt>
      <trkpt lat="45.6104" lon="6.51207">
        <ele>2328.6</ele>
        <time>2025-02-20T13:11:08Z</time>
      </trkpt>
      <trkpt lat="45.6104" lon="6.51207">
        <ele>2329</ele>
        <time>2025-02-20T13:11:09Z</time>
      </trkpt>
      <trkpt lat="45.6104" lon="6.51207">
        <ele>2329</ele>
        <time>2025-02-20T13:11:10Z</time>
      </trkpt>
      <trkpt lat="45.6104" lon="6.51207">
        <ele>2329</ele>
        <time>2025-02-20T13:11:11Z</time>
      </trkpt>
      <trkpt lat="45.6104" lon="6.51207">
        <ele>2329</ele>
        <time>2025-02-20T13:11:12Z</time>
      </trkpt>
      <trkpt lat="45.6104" lon="6.51207">
        <ele>2330.6</ele>
        <time>2025-02-20T13:11:13Z</time>
      </trkpt>
      <trkpt lat="45.61039" lon="6.51202">
        <ele>2330.6</ele>
        <time>2025-02-20T13:11:14Z</time>
      </trkpt>
      <trkpt lat="45.61039" lon="6.51202">
        <ele>2330.6</ele>
        <time>2025-02-20T13:11:15Z</time>
      </trkpt>
      <trkpt lat="45.61039" lon="6.512">
        <ele>2330.6</ele>
        <time>2025-02-20T13:11:16Z</time>
      </trkpt>
      <trkpt lat="45.61038" lon="6.512">
        <ele>2329.6</ele>
        <time>2025-02-20T13:11:17Z</time>
      </trkpt>
      <trkpt lat="45.61038" lon="6.512">
        <ele>2329.6</ele>
        <time>2025-02-20T13:11:18Z</time>
      </trkpt>
      <trkpt lat="45.61038" lon="6.51199">
        <ele>2329.6</ele>
        <time>2025-02-20T13:11:19Z</time>
      </trkpt>
      <trkpt lat="45.61038" lon="6.51199">
        <ele>2330.6</ele>
        <time>2025-02-20T13:11:20Z</time>
      </trkpt>
      <trkpt lat="45.61038" lon="6.51198">
        <ele>2331.4</ele>
        <time>2025-02-20T13:11:21Z</time>
      </trkpt>
      <trkpt lat="45.61038" lon="6.51197">
        <ele>2331.4</ele>
        <time>2025-02-20T13:11:22Z</time>
      </trkpt>
      <trkpt lat="45.61038" lon="6.51196">
        <ele>2331.4</ele>
        <time>2025-02-20T13:11:23Z</time>
      </trkpt>
      <trkpt lat="45.61038" lon="6.51196">
        <ele>2331.4</ele>
        <time>2025-02-20T13:11:24Z</time>
      </trkpt>
      <trkpt lat="45.61038" lon="6.51195">
        <ele>2331.4</ele>
        <time>2025-02-20T13:11:25Z</time>
      </trkpt>
      <trkpt lat="45.61037" lon="6.51195">
        <ele>2331.4</ele>
        <time>2025-02-20T13:11:26Z</time>
      </trkpt>
      <trkpt lat="45.61037" lon="6.51195">
        <ele>2331.4</ele>
        <time>2025-02-20T13:11:27Z</time>
      </trkpt>
      <trkpt lat="45.61037" lon="6.51195">
        <ele>2330.4</ele>
        <time>2025-02-20T13:11:28Z</time>
      </trkpt>
      <trkpt lat="45.61037" lon="6.51195">
        <ele>2331.8</ele>
        <time>2025-02-20T13:11:29Z</time>
      </trkpt>
      <trkpt lat="45.61037" lon="6.51195">
        <ele>2331.8</ele>
        <time>2025-02-20T13:11:30Z</time>
      </trkpt>
      <trkpt lat="45.61036" lon="6.51193">
        <ele>2331.8</ele>
        <time>2025-02-20T13:11:31Z</time>
      </trkpt>
      <trkpt lat="45.61035" lon="6.51193">
        <ele>2331.8</ele>
        <time>2025-02-20T13:11:32Z</time>
      </trkpt>
      <trkpt lat="45.61035" lon="6.51193">
        <ele>2332.2</ele>
        <time>2025-02-20T13:11:33Z</time>
      </trkpt>
      <trkpt lat="45.61034" lon="6.51193">
        <ele>2332.2</ele>
        <time>2025-02-20T13:11:34Z</time>
      </trkpt>
      <trkpt lat="45.61034" lon="6.51193">
        <ele>2332.2</ele>
        <time>2025-02-20T13:11:35Z</time>
      </trkpt>
      <trkpt lat="45.61033" lon="6.51194">
        <ele>2332.2</ele>
        <time>2025-02-20T13:11:36Z</time>
      </trkpt>
      <trkpt lat="45.61033" lon="6.51194">
        <ele>2334</ele>
        <time>2025-02-20T13:11:37Z</time>
      </trkpt>
      <trkpt lat="45.61033" lon="6.51194">
        <ele>2334</ele>
        <time>2025-02-20T13:11:38Z</time>
      </trkpt>
      <trkpt lat="45.61033" lon="6.51194">
        <ele>2334</ele>
        <time>2025-02-20T13:11:39Z</time>
      </trkpt>
      <trkpt lat="45.61033" lon="6.51194">
        <ele>2334</ele>
        <time>2025-02-20T13:11:40Z</time>
      </trkpt>
      <trkpt lat="45.61033" lon="6.51194">
        <ele>2333.2</ele>
        <time>2025-02-20T13:11:41Z</time>
      </trkpt>
      <trkpt lat="45.61033" lon="6.51194">
        <ele>2333.2</ele>
        <time>2025-02-20T13:11:42Z</time>
      </trkpt>
      <trkpt lat="45.61033" lon="6.51194">
        <ele>2333.2</ele>
        <time>2025-02-20T13:11:43Z</time>
      </trkpt>
      <trkpt lat="45.61033" lon="6.51194">
        <ele>2334</ele>
        <time>2025-02-20T13:11:44Z</time>
      </trkpt>
      <trkpt lat="45.61033" lon="6.51194">
        <ele>2333</ele>
        <time>2025-02-20T13:11:45Z</time>
      </trkpt>
      <trkpt lat="45.61033" lon="6.51194">
        <ele>2333</ele>
        <time>2025-02-20T13:11:46Z</time>
      </trkpt>
      <trkpt lat="45.61033" lon="6.51194">
        <ele>2333</ele>
        <time>2025-02-20T13:11:47Z</time>
      </trkpt>
      <trkpt lat="45.61033" lon="6.51194">
        <ele>2332.2</ele>
        <time>2025-02-20T13:11:48Z</time>
      </trkpt>
      <trkpt lat="45.61033" lon="6.51194">
        <ele>2332.4</ele>
        <time>2025-02-20T13:11:49Z</time>
      </trkpt>
      <trkpt lat="45.61033" lon="6.51194">
        <ele>2332.4</ele>
        <time>2025-02-20T13:11:50Z</time>
      </trkpt>
      <trkpt lat="45.61033" lon="6.51194">
        <ele>2332.4</ele>
        <time>2025-02-20T13:11:51Z</time>
      </trkpt>
      <trkpt lat="45.61033" lon="6.51194">
        <ele>2332.6</ele>
        <time>2025-02-20T13:11:52Z</time>
      </trkpt>
      <trkpt lat="45.61033" lon="6.51194">
        <ele>2332.8</ele>
        <time>2025-02-20T13:11:53Z</time>
      </trkpt>
      <trkpt lat="45.61033" lon="6.51194">
        <ele>2332.8</ele>
        <time>2025-02-20T13:11:54Z</time>
      </trkpt>
      <trkpt lat="45.61033" lon="6.51194">
        <ele>2332.8</ele>
        <time>2025-02-20T13:11:55Z</time>
      </trkpt>
      <trkpt lat="45.61033" lon="6.51194">
        <ele>2332.8</ele>
        <time>2025-02-20T13:11:56Z</time>
      </trkpt>
      <trkpt lat="45.61033" lon="6.51194">
        <ele>2333.2</ele>
        <time>2025-02-20T13:11:57Z</time>
      </trkpt>
      <trkpt lat="45.61033" lon="6.51194">
        <ele>2333.2</ele>
        <time>2025-02-20T13:11:58Z</time>
      </trkpt>
      <trkpt lat="45.61033" lon="6.51194">
        <ele>2333.2</ele>
        <time>2025-02-20T13:11:59Z</time>
      </trkpt>
      <trkpt lat="45.61033" lon="6.51194">
        <ele>2333.2</ele>
        <time>2025-02-20T13:12:00Z</time>
      </trkpt>
      <trkpt lat="45.61033" lon="6.51194">
        <ele>2332.6</ele>
        <time>2025-02-20T13:12:01Z</time>
      </trkpt>
      <trkpt lat="45.61033" lon="6.51194">
        <ele>2332.6</ele>
        <time>2025-02-20T13:12:02Z</time>
      </trkpt>
      <trkpt lat="45.61033" lon="6.51194">
        <ele>2332.6</ele>
        <time>2025-02-20T13:12:03Z</time>
      </trkpt>
      <trkpt lat="45.61033" lon="6.51194">
        <ele>2333.4</ele>
        <time>2025-02-20T13:12:04Z</time>
      </trkpt>
      <trkpt lat="45.61033" lon="6.51194">
        <ele>2333.4</ele>
        <time>2025-02-20T13:12:05Z</time>
      </trkpt>
      <trkpt lat="45.61033" lon="6.51194">
        <ele>2333.4</ele>
        <time>2025-02-20T13:12:06Z</time>
      </trkpt>
      <trkpt lat="45.61033" lon="6.51194">
        <ele>2333.4</ele>
        <time>2025-02-20T13:12:07Z</time>
      </trkpt>
      <trkpt lat="45.61033" lon="6.51194">
        <ele>2332.6</ele>
        <time>2025-02-20T13:12:08Z</time>
      </trkpt>
      <trkpt lat="45.61033" lon="6.51194">
        <ele>2333</ele>
        <time>2025-02-20T13:12:09Z</time>
      </trkpt>
      <trkpt lat="45.61033" lon="6.51194">
        <ele>2333</ele>
        <time>2025-02-20T13:12:10Z</time>
      </trkpt>
      <trkpt lat="45.61033" lon="6.51194">
        <ele>2333</ele>
        <time>2025-02-20T13:12:11Z</time>
      </trkpt>
      <trkpt lat="45.61033" lon="6.51194">
        <ele>2333</ele>
        <time>2025-02-20T13:12:12Z</time>
      </trkpt>
      <trkpt lat="45.61033" lon="6.51194">
        <ele>2333</ele>
        <time>2025-02-20T13:12:13Z</time>
      </trkpt>
      <trkpt lat="45.61033" lon="6.51194">
        <ele>2333</ele>
        <time>2025-02-20T13:12:14Z</time>
      </trkpt>
      <trkpt lat="45.61033" lon="6.51194">
        <ele>2333</ele>
        <time>2025-02-20T13:12:15Z</time>
      </trkpt>
      <trkpt lat="45.61033" lon="6.51194">
        <ele>2333</ele>
        <time>2025-02-20T13:12:16Z</time>
      </trkpt>
      <trkpt lat="45.61033" lon="6.51194">
        <ele>2333</ele>
        <time>2025-02-20T13:12:17Z</time>
      </trkpt>
      <trkpt lat="45.61033" lon="6.51194">
        <ele>2333</ele>
        <time>2025-02-20T13:12:18Z</time>
      </trkpt>
      <trkpt lat="45.61033" lon="6.51194">
        <ele>2333</ele>
        <time>2025-02-20T13:12:19Z</time>
      </trkpt>
      <trkpt lat="45.61033" lon="6.51194">
        <ele>2333.6</ele>
        <time>2025-02-20T13:12:20Z</time>
      </trkpt>
      <trkpt lat="45.61033" lon="6.51194">
        <ele>2334</ele>
        <time>2025-02-20T13:12:21Z</time>
      </trkpt>
      <trkpt lat="45.61033" lon="6.51194">
        <ele>2334</ele>
        <time>2025-02-20T13:12:22Z</time>
      </trkpt>
      <trkpt lat="45.61033" lon="6.51194">
        <ele>2334</ele>
        <time>2025-02-20T13:12:23Z</time>
      </trkpt>
      <trkpt lat="45.61033" lon="6.51194">
        <ele>2333.2</ele>
        <time>2025-02-20T13:12:24Z</time>
      </trkpt>
      <trkpt lat="45.61033" lon="6.51194">
        <ele>2333.6</ele>
        <time>2025-02-20T13:12:25Z</time>
      </trkpt>
      <trkpt lat="45.61033" lon="6.51194">
        <ele>2333.6</ele>
        <time>2025-02-20T13:12:26Z</time>
      </trkpt>
      <trkpt lat="45.61033" lon="6.51194">
        <ele>2333.6</ele>
        <time>2025-02-20T13:12:27Z</time>
      </trkpt>
      <trkpt lat="45.61033" lon="6.51194">
        <ele>2333</ele>
        <time>2025-02-20T13:12:28Z</time>
      </trkpt>
      <trkpt lat="45.61033" lon="6.51194">
        <ele>2332.6</ele>
        <time>2025-02-20T13:12:29Z</time>
      </trkpt>
      <trkpt lat="45.61033" lon="6.51194">
        <ele>2332.6</ele>
        <time>2025-02-20T13:12:30Z</time>
      </trkpt>
      <trkpt lat="45.61033" lon="6.51194">
        <ele>2332.6</ele>
        <time>2025-02-20T13:12:31Z</time>
      </trkpt>
      <trkpt lat="45.61033" lon="6.51194">
        <ele>2332.4</ele>
        <time>2025-02-20T13:12:32Z</time>
      </trkpt>
      <trkpt lat="45.61033" lon="6.51194">
        <ele>2333.2</ele>
        <time>2025-02-20T13:12:33Z</time>
      </trkpt>
      <trkpt lat="45.61033" lon="6.51194">
        <ele>2333.2</ele>
        <time>2025-02-20T13:12:34Z</time>
      </trkpt>
      <trkpt lat="45.61033" lon="6.51194">
        <ele>2333.2</ele>
        <time>2025-02-20T13:12:35Z</time>
      </trkpt>
      <trkpt lat="45.61033" lon="6.51194">
        <ele>2333.2</ele>
        <time>2025-02-20T13:12:36Z</time>
      </trkpt>
      <trkpt lat="45.61033" lon="6.51194">
        <ele>2333.2</ele>
        <time>2025-02-20T13:12:37Z</time>
      </trkpt>
      <trkpt lat="45.61033" lon="6.51194">
        <ele>2333.2</ele>
        <time>2025-02-20T13:12:38Z</time>
      </trkpt>
      <trkpt lat="45.61033" lon="6.51194">
        <ele>2333.2</ele>
        <time>2025-02-20T13:12:39Z</time>
      </trkpt>
      <trkpt lat="45.61033" lon="6.51194">
        <ele>2332.8</ele>
        <time>2025-02-20T13:12:40Z</time>
      </trkpt>
      <trkpt lat="45.61033" lon="6.51194">
        <ele>2333</ele>
        <time>2025-02-20T13:12:41Z</time>
      </trkpt>
      <trkpt lat="45.61033" lon="6.51194">
        <ele>2333</ele>
        <time>2025-02-20T13:12:42Z</time>
      </trkpt>
      <trkpt lat="45.61033" lon="6.51194">
        <ele>2333</ele>
        <time>2025-02-20T13:12:43Z</time>
      </trkpt>
      <trkpt lat="45.61033" lon="6.51194">
        <ele>2332.4</ele>
        <time>2025-02-20T13:12:44Z</time>
      </trkpt>
      <trkpt lat="45.61033" lon="6.51194">
        <ele>2332.4</ele>
        <time>2025-02-20T13:12:45Z</time>
      </trkpt>
      <trkpt lat="45.61033" lon="6.51194">
        <ele>2332.4</ele>
        <time>2025-02-20T13:12:46Z</time>
      </trkpt>
      <trkpt lat="45.61033" lon="6.51194">
        <ele>2332.4</ele>
        <time>2025-02-20T13:12:47Z</time>
      </trkpt>
      <trkpt lat="45.61033" lon="6.51194">
        <ele>2332.4</ele>
        <time>2025-02-20T13:12:48Z</time>
      </trkpt>
      <trkpt lat="45.61033" lon="6.51194">
        <ele>2332.2</ele>
        <time>2025-02-20T13:12:49Z</time>
      </trkpt>
      <trkpt lat="45.61033" lon="6.51194">
        <ele>2332.2</ele>
        <time>2025-02-20T13:12:50Z</time>
      </trkpt>
      <trkpt lat="45.61033" lon="6.51194">
        <ele>2332.2</ele>
        <time>2025-02-20T13:12:51Z</time>
      </trkpt>
      <trkpt lat="45.61033" lon="6.51194">
        <ele>2332.4</ele>
        <time>2025-02-20T13:12:52Z</time>
      </trkpt>
      <trkpt lat="45.61033" lon="6.51194">
        <ele>2332.6</ele>
        <time>2025-02-20T13:12:53Z</time>
      </trkpt>
      <trkpt lat="45.61033" lon="6.51194">
        <ele>2332.6</ele>
        <time>2025-02-20T13:12:54Z</time>
      </trkpt>
      <trkpt lat="45.61033" lon="6.51194">
        <ele>2332.6</ele>
        <time>2025-02-20T13:12:55Z</time>
      </trkpt>
      <trkpt lat="45.61033" lon="6.51194">
        <ele>2332.6</ele>
        <time>2025-02-20T13:12:56Z</time>
      </trkpt>
      <trkpt lat="45.61033" lon="6.51194">
        <ele>2332.4</ele>
        <time>2025-02-20T13:12:57Z</time>
      </trkpt>
      <trkpt lat="45.61033" lon="6.51194">
        <ele>2332.4</ele>
        <time>2025-02-20T13:12:58Z</time>
      </trkpt>
      <trkpt lat="45.61033" lon="6.51194">
        <ele>2332.4</ele>
        <time>2025-02-20T13:12:59Z</time>
      </trkpt>
      <trkpt lat="45.61033" lon="6.51194">
        <ele>2332.4</ele>
        <time>2025-02-20T13:13:00Z</time>
      </trkpt>
      <trkpt lat="45.61033" lon="6.51194">
        <ele>2332.8</ele>
        <time>2025-02-20T13:13:01Z</time>
      </trkpt>
      <trkpt lat="45.61033" lon="6.51194">
        <ele>2332.8</ele>
        <time>2025-02-20T13:13:02Z</time>
      </trkpt>
      <trkpt lat="45.61033" lon="6.51194">
        <ele>2332.8</ele>
        <time>2025-02-20T13:13:03Z</time>
      </trkpt>
      <trkpt lat="45.61033" lon="6.51194">
        <ele>2332.8</ele>
        <time>2025-02-20T13:13:04Z</time>
      </trkpt>
      <trkpt lat="45.61033" lon="6.51194">
        <ele>2332.2</ele>
        <time>2025-02-20T13:13:05Z</time>
      </trkpt>
      <trkpt lat="45.61033" lon="6.51194">
        <ele>2332.2</ele>
        <time>2025-02-20T13:13:06Z</time>
      </trkpt>
      <trkpt lat="45.61033" lon="6.51194">
        <ele>2332.2</ele>
        <time>2025-02-20T13:13:07Z</time>
      </trkpt>
      <trkpt lat="45.61033" lon="6.51194">
        <ele>2332.8</ele>
        <time>2025-02-20T13:13:08Z</time>
      </trkpt>
      <trkpt lat="45.61033" lon="6.51194">
        <ele>2333.6</ele>
        <time>2025-02-20T13:13:09Z</time>
      </trkpt>
      <trkpt lat="45.61033" lon="6.51194">
        <ele>2333.6</ele>
        <time>2025-02-20T13:13:10Z</time>
      </trkpt>
      <trkpt lat="45.61033" lon="6.51194">
        <ele>2333.6</ele>
        <time>2025-02-20T13:13:11Z</time>
      </trkpt>
      <trkpt lat="45.61033" lon="6.51194">
        <ele>2333.4</ele>
        <time>2025-02-20T13:13:12Z</time>
      </trkpt>
      <trkpt lat="45.61033" lon="6.51194">
        <ele>2333.6</ele>
        <time>2025-02-20T13:13:13Z</time>
      </trkpt>
      <trkpt lat="45.61033" lon="6.51194">
        <ele>2333.6</ele>
        <time>2025-02-20T13:13:14Z</time>
      </trkpt>
      <trkpt lat="45.61033" lon="6.51194">
        <ele>2333.6</ele>
        <time>2025-02-20T13:13:15Z</time>
      </trkpt>
      <trkpt lat="45.61033" lon="6.51194">
        <ele>2332.6</ele>
        <time>2025-02-20T13:13:16Z</time>
      </trkpt>
      <trkpt lat="45.61033" lon="6.51194">
        <ele>2332.6</ele>
        <time>2025-02-20T13:13:17Z</time>
      </trkpt>
      <trkpt lat="45.61033" lon="6.51194">
        <ele>2332.6</ele>
        <time>2025-02-20T13:13:18Z</time>
      </trkpt>
      <trkpt lat="45.61033" lon="6.51194">
        <ele>2332.6</ele>
        <time>2025-02-20T13:13:19Z</time>
      </trkpt>
      <trkpt lat="45.61033" lon="6.51194">
        <ele>2332.6</ele>
        <time>2025-02-20T13:13:20Z</time>
      </trkpt>
      <trkpt lat="45.61033" lon="6.51194">
        <ele>2332.8</ele>
        <time>2025-02-20T13:13:21Z</time>
      </trkpt>
      <trkpt lat="45.61033" lon="6.51194">
        <ele>2332.8</ele>
        <time>2025-02-20T13:13:22Z</time>
      </trkpt>
      <trkpt lat="45.61033" lon="6.51194">
        <ele>2332.8</ele>
        <time>2025-02-20T13:13:23Z</time>
      </trkpt>
      <trkpt lat="45.61033" lon="6.51194">
        <ele>2333.8</ele>
        <time>2025-02-20T13:13:24Z</time>
      </trkpt>
      <trkpt lat="45.61033" lon="6.51194">
        <ele>2333.6</ele>
        <time>2025-02-20T13:13:25Z</time>
      </trkpt>
      <trkpt lat="45.61033" lon="6.51194">
        <ele>2333.6</ele>
        <time>2025-02-20T13:13:26Z</time>
      </trkpt>
      <trkpt lat="45.61033" lon="6.51194">
        <ele>2333.6</ele>
        <time>2025-02-20T13:13:27Z</time>
      </trkpt>
      <trkpt lat="45.61033" lon="6.51194">
        <ele>2333.6</ele>
        <time>2025-02-20T13:13:28Z</time>
      </trkpt>
      <trkpt lat="45.61033" lon="6.51194">
        <ele>2334</ele>
        <time>2025-02-20T13:13:29Z</time>
      </trkpt>
      <trkpt lat="45.61033" lon="6.51194">
        <ele>2334</ele>
        <time>2025-02-20T13:13:30Z</time>
      </trkpt>
      <trkpt lat="45.61033" lon="6.51194">
        <ele>2334</ele>
        <time>2025-02-20T13:13:31Z</time>
      </trkpt>
      <trkpt lat="45.61033" lon="6.51194">
        <ele>2333.8</ele>
        <time>2025-02-20T13:13:32Z</time>
      </trkpt>
      <trkpt lat="45.61033" lon="6.51194">
        <ele>2333.2</ele>
        <time>2025-02-20T13:13:33Z</time>
      </trkpt>
      <trkpt lat="45.61033" lon="6.51194">
        <ele>2333.2</ele>
        <time>2025-02-20T13:13:34Z</time>
      </trkpt>
      <trkpt lat="45.61033" lon="6.51194">
        <ele>2333.2</ele>
        <time>2025-02-20T13:13:35Z</time>
      </trkpt>
      <trkpt lat="45.61033" lon="6.51194">
        <ele>2334.2</ele>
        <time>2025-02-20T13:13:36Z</time>
      </trkpt>
      <trkpt lat="45.61033" lon="6.51194">
        <ele>2333</ele>
        <time>2025-02-20T13:13:37Z</time>
      </trkpt>
      <trkpt lat="45.61033" lon="6.51194">
        <ele>2333</ele>
        <time>2025-02-20T13:13:38Z</time>
      </trkpt>
      <trkpt lat="45.61033" lon="6.51194">
        <ele>2333</ele>
        <time>2025-02-20T13:13:39Z</time>
      </trkpt>
      <trkpt lat="45.61033" lon="6.51194">
        <ele>2333.6</ele>
        <time>2025-02-20T13:13:40Z</time>
      </trkpt>
      <trkpt lat="45.61033" lon="6.51194">
        <ele>2333.4</ele>
        <time>2025-02-20T13:13:41Z</time>
      </trkpt>
      <trkpt lat="45.61033" lon="6.51194">
        <ele>2333.4</ele>
        <time>2025-02-20T13:13:42Z</time>
      </trkpt>
      <trkpt lat="45.61033" lon="6.51194">
        <ele>2333.4</ele>
        <time>2025-02-20T13:13:43Z</time>
      </trkpt>
      <trkpt lat="45.61033" lon="6.51194">
        <ele>2333.4</ele>
        <time>2025-02-20T13:13:44Z</time>
      </trkpt>
      <trkpt lat="45.61033" lon="6.51194">
        <ele>2333</ele>
        <time>2025-02-20T13:13:45Z</time>
      </trkpt>
      <trkpt lat="45.61033" lon="6.51194">
        <ele>2333</ele>
        <time>2025-02-20T13:13:46Z</time>
      </trkpt>
      <trkpt lat="45.61033" lon="6.51194">
        <ele>2333</ele>
        <time>2025-02-20T13:13:47Z</time>
      </trkpt>
      <trkpt lat="45.61033" lon="6.51194">
        <ele>2333</ele>
        <time>2025-02-20T13:13:48Z</time>
      </trkpt>
      <trkpt lat="45.61033" lon="6.51194">
        <ele>2332</ele>
        <time>2025-02-20T13:13:49Z</time>
      </trkpt>
      <trkpt lat="45.61033" lon="6.51194">
        <ele>2332</ele>
        <time>2025-02-20T13:13:50Z</time>
      </trkpt>
      <trkpt lat="45.61033" lon="6.51194">
        <ele>2332</ele>
        <time>2025-02-20T13:13:51Z</time>
      </trkpt>
      <trkpt lat="45.61033" lon="6.51194">
        <ele>2332.6</ele>
        <time>2025-02-20T13:13:52Z</time>
      </trkpt>
      <trkpt lat="45.61033" lon="6.51194">
        <ele>2333.2</ele>
        <time>2025-02-20T13:13:53Z</time>
      </trkpt>
      <trkpt lat="45.61033" lon="6.51194">
        <ele>2333.2</ele>
        <time>2025-02-20T13:13:54Z</time>
      </trkpt>
      <trkpt lat="45.61033" lon="6.51194">
        <ele>2333.2</ele>
        <time>2025-02-20T13:13:55Z</time>
      </trkpt>
      <trkpt lat="45.61033" lon="6.51194">
        <ele>2333.2</ele>
        <time>2025-02-20T13:13:56Z</time>
      </trkpt>
      <trkpt lat="45.61033" lon="6.51194">
        <ele>2334</ele>
        <time>2025-02-20T13:13:57Z</time>
      </trkpt>
      <trkpt lat="45.61033" lon="6.51194">
        <ele>2334</ele>
        <time>2025-02-20T13:13:58Z</time>
      </trkpt>
      <trkpt lat="45.61033" lon="6.51194">
        <ele>2334</ele>
        <time>2025-02-20T13:13:59Z</time>
      </trkpt>
      <trkpt lat="45.61033" lon="6.51194">
        <ele>2333.6</ele>
        <time>2025-02-20T13:14:00Z</time>
      </trkpt>
      <trkpt lat="45.61033" lon="6.51194">
        <ele>2333.4</ele>
        <time>2025-02-20T13:14:01Z</time>
      </trkpt>
      <trkpt lat="45.61033" lon="6.51194">
        <ele>2333.4</ele>
        <time>2025-02-20T13:14:02Z</time>
      </trkpt>
      <trkpt lat="45.61033" lon="6.51194">
        <ele>2333.4</ele>
        <time>2025-02-20T13:14:03Z</time>
      </trkpt>
      <trkpt lat="45.61033" lon="6.51194">
        <ele>2332.8</ele>
        <time>2025-02-20T13:14:04Z</time>
      </trkpt>
      <trkpt lat="45.61033" lon="6.51194">
        <ele>2333</ele>
        <time>2025-02-20T13:14:05Z</time>
      </trkpt>
      <trkpt lat="45.61033" lon="6.51194">
        <ele>2333</ele>
        <time>2025-02-20T13:14:06Z</time>
      </trkpt>
      <trkpt lat="45.61033" lon="6.51194">
        <ele>2333</ele>
        <time>2025-02-20T13:14:07Z</time>
      </trkpt>
      <trkpt lat="45.61033" lon="6.51194">
        <ele>2333.2</ele>
        <time>2025-02-20T13:14:08Z</time>
      </trkpt>
      <trkpt lat="45.61033" lon="6.51194">
        <ele>2334</ele>
        <time>2025-02-20T13:14:09Z</time>
      </trkpt>
      <trkpt lat="45.61033" lon="6.51194">
        <ele>2334</ele>
        <time>2025-02-20T13:14:10Z</time>
      </trkpt>
      <trkpt lat="45.61033" lon="6.51194">
        <ele>2334</ele>
        <time>2025-02-20T13:14:11Z</time>
      </trkpt>
      <trkpt lat="45.61033" lon="6.51194">
        <ele>2333.4</ele>
        <time>2025-02-20T13:14:12Z</time>
      </trkpt>
      <trkpt lat="45.61033" lon="6.51194">
        <ele>2334</ele>
        <time>2025-02-20T13:14:13Z</time>
      </trkpt>
      <trkpt lat="45.61033" lon="6.51194">
        <ele>2334</ele>
        <time>2025-02-20T13:14:14Z</time>
      </trkpt>
      <trkpt lat="45.61033" lon="6.51194">
        <ele>2334</ele>
        <time>2025-02-20T13:14:15Z</time>
      </trkpt>
      <trkpt lat="45.61033" lon="6.51194">
        <ele>2333.2</ele>
        <time>2025-02-20T13:14:16Z</time>
      </trkpt>
      <trkpt lat="45.61033" lon="6.51194">
        <ele>2332.8</ele>
        <time>2025-02-20T13:14:17Z</time>
      </trkpt>
      <trkpt lat="45.61033" lon="6.51194">
        <ele>2332.8</ele>
        <time>2025-02-20T13:14:18Z</time>
      </trkpt>
      <trkpt lat="45.61033" lon="6.51194">
        <ele>2332.8</ele>
        <time>2025-02-20T13:14:19Z</time>
      </trkpt>
      <trkpt lat="45.61033" lon="6.51194">
        <ele>2332.8</ele>
        <time>2025-02-20T13:14:20Z</time>
      </trkpt>
      <trkpt lat="45.61033" lon="6.51194">
        <ele>2333.2</ele>
        <time>2025-02-20T13:14:21Z</time>
      </trkpt>
      <trkpt lat="45.61033" lon="6.51194">
        <ele>2333.2</ele>
        <time>2025-02-20T13:14:22Z</time>
      </trkpt>
      <trkpt lat="45.61033" lon="6.51194">
        <ele>2333.2</ele>
        <time>2025-02-20T13:14:23Z</time>
      </trkpt>
      <trkpt lat="45.61033" lon="6.51194">
        <ele>2332.4</ele>
        <time>2025-02-20T13:14:24Z</time>
      </trkpt>
      <trkpt lat="45.61033" lon="6.51194">
        <ele>2332.6</ele>
        <time>2025-02-20T13:14:25Z</time>
      </trkpt>
      <trkpt lat="45.61033" lon="6.51194">
        <ele>2332.6</ele>
        <time>2025-02-20T13:14:26Z</time>
      </trkpt>
      <trkpt lat="45.61033" lon="6.51194">
        <ele>2332.6</ele>
        <time>2025-02-20T13:14:27Z</time>
      </trkpt>
      <trkpt lat="45.61033" lon="6.51194">
        <ele>2332.6</ele>
        <time>2025-02-20T13:14:28Z</time>
      </trkpt>
      <trkpt lat="45.61033" lon="6.51194">
        <ele>2332.8</ele>
        <time>2025-02-20T13:14:29Z</time>
      </trkpt>
      <trkpt lat="45.61033" lon="6.51194">
        <ele>2332.8</ele>
        <time>2025-02-20T13:14:30Z</time>
      </trkpt>
      <trkpt lat="45.61033" lon="6.51194">
        <ele>2332.8</ele>
        <time>2025-02-20T13:14:31Z</time>
      </trkpt>
      <trkpt lat="45.61033" lon="6.51194">
        <ele>2332.8</ele>
        <time>2025-02-20T13:14:32Z</time>
      </trkpt>
      <trkpt lat="45.61033" lon="6.51194">
        <ele>2332.8</ele>
        <time>2025-02-20T13:14:33Z</time>
      </trkpt>
      <trkpt lat="45.61033" lon="6.51194">
        <ele>2332.8</ele>
        <time>2025-02-20T13:14:34Z</time>
      </trkpt>
      <trkpt lat="45.61033" lon="6.51194">
        <ele>2332.8</ele>
        <time>2025-02-20T13:14:35Z</time>
      </trkpt>
      <trkpt lat="45.61033" lon="6.51194">
        <ele>2332.8</ele>
        <time>2025-02-20T13:14:36Z</time>
      </trkpt>
      <trkpt lat="45.61033" lon="6.51194">
        <ele>2333</ele>
        <time>2025-02-20T13:14:37Z</time>
      </trkpt>
      <trkpt lat="45.61033" lon="6.51194">
        <ele>2333</ele>
        <time>2025-02-20T13:14:38Z</time>
      </trkpt>
      <trkpt lat="45.61033" lon="6.51194">
        <ele>2333</ele>
        <time>2025-02-20T13:14:39Z</time>
      </trkpt>
      <trkpt lat="45.61033" lon="6.51194">
        <ele>2333.2</ele>
        <time>2025-02-20T13:14:40Z</time>
      </trkpt>
      <trkpt lat="45.61033" lon="6.51194">
        <ele>2333.2</ele>
        <time>2025-02-20T13:14:41Z</time>
      </trkpt>
      <trkpt lat="45.61033" lon="6.51194">
        <ele>2333.2</ele>
        <time>2025-02-20T13:14:42Z</time>
      </trkpt>
      <trkpt lat="45.61033" lon="6.51194">
        <ele>2333.2</ele>
        <time>2025-02-20T13:14:43Z</time>
      </trkpt>
      <trkpt lat="45.61033" lon="6.51194">
        <ele>2332.8</ele>
        <time>2025-02-20T13:14:44Z</time>
      </trkpt>
      <trkpt lat="45.61033" lon="6.51194">
        <ele>2332.6</ele>
        <time>2025-02-20T13:14:45Z</time>
      </trkpt>
      <trkpt lat="45.61033" lon="6.51194">
        <ele>2332.6</ele>
        <time>2025-02-20T13:14:46Z</time>
      </trkpt>
      <trkpt lat="45.61033" lon="6.51194">
        <ele>2332.6</ele>
        <time>2025-02-20T13:14:47Z</time>
      </trkpt>
      <trkpt lat="45.61033" lon="6.51194">
        <ele>2332.6</ele>
        <time>2025-02-20T13:14:48Z</time>
      </trkpt>
      <trkpt lat="45.61033" lon="6.51194">
        <ele>2332.6</ele>
        <time>2025-02-20T13:14:49Z</time>
      </trkpt>
      <trkpt lat="45.61033" lon="6.51194">
        <ele>2332.6</ele>
        <time>2025-02-20T13:14:50Z</time>
      </trkpt>
      <trkpt lat="45.61033" lon="6.51194">
        <ele>2332.6</ele>
        <time>2025-02-20T13:14:51Z</time>
      </trkpt>
      <trkpt lat="45.61033" lon="6.51194">
        <ele>2332.6</ele>
        <time>2025-02-20T13:14:52Z</time>
      </trkpt>
      <trkpt lat="45.61033" lon="6.51194">
        <ele>2332.8</ele>
        <time>2025-02-20T13:14:53Z</time>
      </trkpt>
      <trkpt lat="45.61033" lon="6.51194">
        <ele>2332.8</ele>
        <time>2025-02-20T13:14:54Z</time>
      </trkpt>
      <trkpt lat="45.61033" lon="6.51194">
        <ele>2332.8</ele>
        <time>2025-02-20T13:14:55Z</time>
      </trkpt>
      <trkpt lat="45.61033" lon="6.51194">
        <ele>2332.8</ele>
        <time>2025-02-20T13:14:56Z</time>
      </trkpt>
      <trkpt lat="45.61033" lon="6.51194">
        <ele>2332.4</ele>
        <time>2025-02-20T13:14:57Z</time>
      </trkpt>
      <trkpt lat="45.61033" lon="6.51194">
        <ele>2332.4</ele>
        <time>2025-02-20T13:14:58Z</time>
      </trkpt>
      <trkpt lat="45.61033" lon="6.51194">
        <ele>2332.4</ele>
        <time>2025-02-20T13:14:59Z</time>
      </trkpt>
      <trkpt lat="45.61033" lon="6.51194">
        <ele>2332.8</ele>
        <time>2025-02-20T13:15:00Z</time>
      </trkpt>
      <trkpt lat="45.61033" lon="6.51194">
        <ele>2332.2</ele>
        <time>2025-02-20T13:15:01Z</time>
      </trkpt>
      <trkpt lat="45.61033" lon="6.51194">
        <ele>2332.2</ele>
        <time>2025-02-20T13:15:02Z</time>
      </trkpt>
      <trkpt lat="45.61033" lon="6.51194">
        <ele>2332.2</ele>
        <time>2025-02-20T13:15:03Z</time>
      </trkpt>
      <trkpt lat="45.61033" lon="6.51194">
        <ele>2333</ele>
        <time>2025-02-20T13:15:04Z</time>
      </trkpt>
      <trkpt lat="45.61033" lon="6.51194">
        <ele>2333</ele>
        <time>2025-02-20T13:15:05Z</time>
      </trkpt>
      <trkpt lat="45.61033" lon="6.51194">
        <ele>2333</ele>
        <time>2025-02-20T13:15:06Z</time>
      </trkpt>
      <trkpt lat="45.61033" lon="6.51194">
        <ele>2333</ele>
        <time>2025-02-20T13:15:07Z</time>
      </trkpt>
      <trkpt lat="45.61033" lon="6.51194">
        <ele>2333</ele>
        <time>2025-02-20T13:15:08Z</time>
      </trkpt>
      <trkpt lat="45.61033" lon="6.51194">
        <ele>2333.2</ele>
        <time>2025-02-20T13:15:09Z</time>
      </trkpt>
      <trkpt lat="45.61033" lon="6.51194">
        <ele>2333.2</ele>
        <time>2025-02-20T13:15:10Z</time>
      </trkpt>
      <trkpt lat="45.61033" lon="6.51194">
        <ele>2333.2</ele>
        <time>2025-02-20T13:15:11Z</time>
      </trkpt>
      <trkpt lat="45.61033" lon="6.51194">
        <ele>2332.6</ele>
        <time>2025-02-20T13:15:12Z</time>
      </trkpt>
      <trkpt lat="45.61033" lon="6.51194">
        <ele>2333</ele>
        <time>2025-02-20T13:15:13Z</time>
      </trkpt>
      <trkpt lat="45.61033" lon="6.51194">
        <ele>2333</ele>
        <time>2025-02-20T13:15:14Z</time>
      </trkpt>
      <trkpt lat="45.61033" lon="6.51194">
        <ele>2333</ele>
        <time>2025-02-20T13:15:15Z</time>
      </trkpt>
      <trkpt lat="45.61033" lon="6.51194">
        <ele>2332.2</ele>
        <time>2025-02-20T13:15:16Z</time>
      </trkpt>
      <trkpt lat="45.61033" lon="6.51194">
        <ele>2332.8</ele>
        <time>2025-02-20T13:15:17Z</time>
      </trkpt>
      <trkpt lat="45.61033" lon="6.51194">
        <ele>2332.8</ele>
        <time>2025-02-20T13:15:18Z</time>
      </trkpt>
      <trkpt lat="45.61033" lon="6.51194">
        <ele>2332.8</ele>
        <time>2025-02-20T13:15:19Z</time>
      </trkpt>
      <trkpt lat="45.61033" lon="6.51194">
        <ele>2333.8</ele>
        <time>2025-02-20T13:15:20Z</time>
      </trkpt>
      <trkpt lat="45.61033" lon="6.51194">
        <ele>2333.6</ele>
        <time>2025-02-20T13:15:21Z</time>
      </trkpt>
      <trkpt lat="45.61033" lon="6.51194">
        <ele>2333.6</ele>
        <time>2025-02-20T13:15:22Z</time>
      </trkpt>
      <trkpt lat="45.61033" lon="6.51194">
        <ele>2333.6</ele>
        <time>2025-02-20T13:15:23Z</time>
      </trkpt>
      <trkpt lat="45.61033" lon="6.51194">
        <ele>2333.2</ele>
        <time>2025-02-20T13:15:24Z</time>
      </trkpt>
      <trkpt lat="45.61033" lon="6.51194">
        <ele>2333.6</ele>
        <time>2025-02-20T13:15:25Z</time>
      </trkpt>
      <trkpt lat="45.61033" lon="6.51194">
        <ele>2333.6</ele>
        <time>2025-02-20T13:15:26Z</time>
      </trkpt>
      <trkpt lat="45.61033" lon="6.51194">
        <ele>2333.6</ele>
        <time>2025-02-20T13:15:27Z</time>
      </trkpt>
      <trkpt lat="45.61033" lon="6.51194">
        <ele>2333.6</ele>
        <time>2025-02-20T13:15:28Z</time>
      </trkpt>
      <trkpt lat="45.61033" lon="6.51194">
        <ele>2333.6</ele>
        <time>2025-02-20T13:15:29Z</time>
      </trkpt>
      <trkpt lat="45.61033" lon="6.51194">
        <ele>2333.6</ele>
        <time>2025-02-20T13:15:30Z</time>
      </trkpt>
      <trkpt lat="45.61033" lon="6.51194">
        <ele>2333.6</ele>
        <time>2025-02-20T13:15:31Z</time>
      </trkpt>
      <trkpt lat="45.61033" lon="6.51194">
        <ele>2333</ele>
        <time>2025-02-20T13:15:32Z</time>
      </trkpt>
      <trkpt lat="45.61033" lon="6.51194">
        <ele>2332.6</ele>
        <time>2025-02-20T13:15:33Z</time>
      </trkpt>
      <trkpt lat="45.61033" lon="6.51194">
        <ele>2332.6</ele>
        <time>2025-02-20T13:15:34Z</time>
      </trkpt>
      <trkpt lat="45.61033" lon="6.51194">
        <ele>2332.6</ele>
        <time>2025-02-20T13:15:35Z</time>
      </trkpt>
      <trkpt lat="45.61033" lon="6.51194">
        <ele>2333.4</ele>
        <time>2025-02-20T13:15:36Z</time>
      </trkpt>
      <trkpt lat="45.61033" lon="6.51194">
        <ele>2333.4</ele>
        <time>2025-02-20T13:15:37Z</time>
      </trkpt>
      <trkpt lat="45.61033" lon="6.51194">
        <ele>2333.4</ele>
        <time>2025-02-20T13:15:38Z</time>
      </trkpt>
      <trkpt lat="45.61033" lon="6.51194">
        <ele>2333.4</ele>
        <time>2025-02-20T13:15:39Z</time>
      </trkpt>
      <trkpt lat="45.61033" lon="6.51194">
        <ele>2333.4</ele>
        <time>2025-02-20T13:15:40Z</time>
      </trkpt>
      <trkpt lat="45.61033" lon="6.51194">
        <ele>2332.8</ele>
        <time>2025-02-20T13:15:41Z</time>
      </trkpt>
      <trkpt lat="45.61033" lon="6.51194">
        <ele>2332.8</ele>
        <time>2025-02-20T13:15:42Z</time>
      </trkpt>
      <trkpt lat="45.61033" lon="6.51194">
        <ele>2332.8</ele>
        <time>2025-02-20T13:15:43Z</time>
      </trkpt>
      <trkpt lat="45.61033" lon="6.51194">
        <ele>2332.8</ele>
        <time>2025-02-20T13:15:44Z</time>
      </trkpt>
      <trkpt lat="45.61033" lon="6.51194">
        <ele>2332.8</ele>
        <time>2025-02-20T13:15:45Z</time>
      </trkpt>
      <trkpt lat="45.61033" lon="6.51194">
        <ele>2332.8</ele>
        <time>2025-02-20T13:15:46Z</time>
      </trkpt>
      <trkpt lat="45.61033" lon="6.51194">
        <ele>2332.8</ele>
        <time>2025-02-20T13:15:47Z</time>
      </trkpt>
      <trkpt lat="45.61033" lon="6.51194">
        <ele>2332.8</ele>
        <time>2025-02-20T13:15:48Z</time>
      </trkpt>
      <trkpt lat="45.61033" lon="6.51194">
        <ele>2333.2</ele>
        <time>2025-02-20T13:15:49Z</time>
      </trkpt>
      <trkpt lat="45.61033" lon="6.51194">
        <ele>2333.2</ele>
        <time>2025-02-20T13:15:50Z</time>
      </trkpt>
      <trkpt lat="45.61033" lon="6.51194">
        <ele>2333.2</ele>
        <time>2025-02-20T13:15:51Z</time>
      </trkpt>
      <trkpt lat="45.61033" lon="6.51194">
        <ele>2332.6</ele>
        <time>2025-02-20T13:15:52Z</time>
      </trkpt>
      <trkpt lat="45.61033" lon="6.51194">
        <ele>2332.6</ele>
        <time>2025-02-20T13:15:53Z</time>
      </trkpt>
      <trkpt lat="45.61033" lon="6.51194">
        <ele>2332.6</ele>
        <time>2025-02-20T13:15:54Z</time>
      </trkpt>
      <trkpt lat="45.61033" lon="6.51194">
        <ele>2332.6</ele>
        <time>2025-02-20T13:15:55Z</time>
      </trkpt>
      <trkpt lat="45.61033" lon="6.51194">
        <ele>2332.6</ele>
        <time>2025-02-20T13:15:56Z</time>
      </trkpt>
      <trkpt lat="45.61033" lon="6.51194">
        <ele>2332.2</ele>
        <time>2025-02-20T13:15:57Z</time>
      </trkpt>
      <trkpt lat="45.61033" lon="6.51194">
        <ele>2332.2</ele>
        <time>2025-02-20T13:15:58Z</time>
      </trkpt>
      <trkpt lat="45.61033" lon="6.51194">
        <ele>2332.2</ele>
        <time>2025-02-20T13:15:59Z</time>
      </trkpt>
      <trkpt lat="45.61033" lon="6.51194">
        <ele>2333.2</ele>
        <time>2025-02-20T13:16:00Z</time>
      </trkpt>
      <trkpt lat="45.61033" lon="6.51194">
        <ele>2333.4</ele>
        <time>2025-02-20T13:16:01Z</time>
      </trkpt>
      <trkpt lat="45.61033" lon="6.51194">
        <ele>2333.4</ele>
        <time>2025-02-20T13:16:02Z</time>
      </trkpt>
      <trkpt lat="45.61033" lon="6.51194">
        <ele>2333.4</ele>
        <time>2025-02-20T13:16:03Z</time>
      </trkpt>
      <trkpt lat="45.61033" lon="6.51194">
        <ele>2333.4</ele>
        <time>2025-02-20T13:16:04Z</time>
      </trkpt>
      <trkpt lat="45.61033" lon="6.51194">
        <ele>2333.4</ele>
        <time>2025-02-20T13:16:05Z</time>
      </trkpt>
      <trkpt lat="45.61033" lon="6.51194">
        <ele>2333.4</ele>
        <time>2025-02-20T13:16:06Z</time>
      </trkpt>
      <trkpt lat="45.61033" lon="6.51194">
        <ele>2333.4</ele>
        <time>2025-02-20T13:16:07Z</time>
      </trkpt>
      <trkpt lat="45.61033" lon="6.51194">
        <ele>2332.4</ele>
        <time>2025-02-20T13:16:08Z</time>
      </trkpt>
      <trkpt lat="45.61033" lon="6.51194">
        <ele>2333.2</ele>
        <time>2025-02-20T13:16:09Z</time>
      </trkpt>
      <trkpt lat="45.61033" lon="6.51194">
        <ele>2333.2</ele>
        <time>2025-02-20T13:16:10Z</time>
      </trkpt>
      <trkpt lat="45.61033" lon="6.51194">
        <ele>2333.2</ele>
        <time>2025-02-20T13:16:11Z</time>
      </trkpt>
      <trkpt lat="45.61033" lon="6.51194">
        <ele>2332.6</ele>
        <time>2025-02-20T13:16:12Z</time>
      </trkpt>
      <trkpt lat="45.61033" lon="6.51194">
        <ele>2332.8</ele>
        <time>2025-02-20T13:16:13Z</time>
      </trkpt>
      <trkpt lat="45.61033" lon="6.51194">
        <ele>2332.8</ele>
        <time>2025-02-20T13:16:14Z</time>
      </trkpt>
      <trkpt lat="45.61033" lon="6.51194">
        <ele>2332.8</ele>
        <time>2025-02-20T13:16:15Z</time>
      </trkpt>
      <trkpt lat="45.61033" lon="6.51194">
        <ele>2332.2</ele>
        <time>2025-02-20T13:16:16Z</time>
      </trkpt>
      <trkpt lat="45.61033" lon="6.51194">
        <ele>2332.6</ele>
        <time>2025-02-20T13:16:17Z</time>
      </trkpt>
      <trkpt lat="45.61033" lon="6.51194">
        <ele>2332.6</ele>
        <time>2025-02-20T13:16:18Z</time>
      </trkpt>
      <trkpt lat="45.61033" lon="6.51194">
        <ele>2332.6</ele>
        <time>2025-02-20T13:16:19Z</time>
      </trkpt>
      <trkpt lat="45.61033" lon="6.51194">
        <ele>2332.6</ele>
        <time>2025-02-20T13:16:20Z</time>
      </trkpt>
      <trkpt lat="45.61033" lon="6.51194">
        <ele>2333.4</ele>
        <time>2025-02-20T13:16:21Z</time>
      </trkpt>
      <trkpt lat="45.61033" lon="6.51194">
        <ele>2333.4</ele>
        <time>2025-02-20T13:16:22Z</time>
      </trkpt>
      <trkpt lat="45.61033" lon="6.51194">
        <ele>2333.4</ele>
        <time>2025-02-20T13:16:23Z</time>
      </trkpt>
      <trkpt lat="45.61033" lon="6.51194">
        <ele>2333.4</ele>
        <time>2025-02-20T13:16:24Z</time>
      </trkpt>
      <trkpt lat="45.61033" lon="6.51194">
        <ele>2332.8</ele>
        <time>2025-02-20T13:16:25Z</time>
      </trkpt>
      <trkpt lat="45.61033" lon="6.51194">
        <ele>2332.8</ele>
        <time>2025-02-20T13:16:26Z</time>
      </trkpt>
      <trkpt lat="45.61033" lon="6.51194">
        <ele>2332.8</ele>
        <time>2025-02-20T13:16:27Z</time>
      </trkpt>
      <trkpt lat="45.61033" lon="6.51194">
        <ele>2333.6</ele>
        <time>2025-02-20T13:16:28Z</time>
      </trkpt>
      <trkpt lat="45.61033" lon="6.51194">
        <ele>2333</ele>
        <time>2025-02-20T13:16:29Z</time>
      </trkpt>
      <trkpt lat="45.61033" lon="6.51194">
        <ele>2333</ele>
        <time>2025-02-20T13:16:30Z</time>
      </trkpt>
      <trkpt lat="45.61033" lon="6.51194">
        <ele>2333</ele>
        <time>2025-02-20T13:16:31Z</time>
      </trkpt>
      <trkpt lat="45.61033" lon="6.51194">
        <ele>2333</ele>
        <time>2025-02-20T13:16:32Z</time>
      </trkpt>
      <trkpt lat="45.61033" lon="6.51194">
        <ele>2333</ele>
        <time>2025-02-20T13:16:33Z</time>
      </trkpt>
      <trkpt lat="45.61033" lon="6.51194">
        <ele>2333</ele>
        <time>2025-02-20T13:16:34Z</time>
      </trkpt>
      <trkpt lat="45.61033" lon="6.51194">
        <ele>2333</ele>
        <time>2025-02-20T13:16:35Z</time>
      </trkpt>
      <trkpt lat="45.61033" lon="6.51194">
        <ele>2332.2</ele>
        <time>2025-02-20T13:16:36Z</time>
      </trkpt>
      <trkpt lat="45.61033" lon="6.51194">
        <ele>2333</ele>
        <time>2025-02-20T13:16:37Z</time>
      </trkpt>
      <trkpt lat="45.61033" lon="6.51194">
        <ele>2333</ele>
        <time>2025-02-20T13:16:38Z</time>
      </trkpt>
      <trkpt lat="45.61033" lon="6.51194">
        <ele>2333</ele>
        <time>2025-02-20T13:16:39Z</time>
      </trkpt>
      <trkpt lat="45.61033" lon="6.51194">
        <ele>2333</ele>
        <time>2025-02-20T13:16:40Z</time>
      </trkpt>
      <trkpt lat="45.61033" lon="6.51194">
        <ele>2332.6</ele>
        <time>2025-02-20T13:16:41Z</time>
      </trkpt>
      <trkpt lat="45.61033" lon="6.51194">
        <ele>2332.6</ele>
        <time>2025-02-20T13:16:42Z</time>
      </trkpt>
      <trkpt lat="45.61033" lon="6.51194">
        <ele>2332.6</ele>
        <time>2025-02-20T13:16:43Z</time>
      </trkpt>
      <trkpt lat="45.61033" lon="6.51194">
        <ele>2332.6</ele>
        <time>2025-02-20T13:16:44Z</time>
      </trkpt>
      <trkpt lat="45.61033" lon="6.51194">
        <ele>2332.8</ele>
        <time>2025-02-20T13:16:45Z</time>
      </trkpt>
      <trkpt lat="45.61033" lon="6.51194">
        <ele>2332.8</ele>
        <time>2025-02-20T13:16:46Z</time>
      </trkpt>
      <trkpt lat="45.61033" lon="6.51194">
        <ele>2332.8</ele>
        <time>2025-02-20T13:16:47Z</time>
      </trkpt>
      <trkpt lat="45.61033" lon="6.51194">
        <ele>2332.8</ele>
        <time>2025-02-20T13:16:48Z</time>
      </trkpt>
      <trkpt lat="45.61033" lon="6.51194">
        <ele>2332.8</ele>
        <time>2025-02-20T13:16:49Z</time>
      </trkpt>
      <trkpt lat="45.61033" lon="6.51194">
        <ele>2332.8</ele>
        <time>2025-02-20T13:16:50Z</time>
      </trkpt>
      <trkpt lat="45.61033" lon="6.51194">
        <ele>2332.8</ele>
        <time>2025-02-20T13:16:51Z</time>
      </trkpt>
      <trkpt lat="45.61033" lon="6.51194">
        <ele>2332.8</ele>
        <time>2025-02-20T13:16:52Z</time>
      </trkpt>
      <trkpt lat="45.61033" lon="6.51194">
        <ele>2333</ele>
        <time>2025-02-20T13:16:53Z</time>
      </trkpt>
      <trkpt lat="45.61033" lon="6.51194">
        <ele>2333</ele>
        <time>2025-02-20T13:16:54Z</time>
      </trkpt>
      <trkpt lat="45.61033" lon="6.51194">
        <ele>2333</ele>
        <time>2025-02-20T13:16:55Z</time>
      </trkpt>
      <trkpt lat="45.61033" lon="6.51194">
        <ele>2333</ele>
        <time>2025-02-20T13:16:56Z</time>
      </trkpt>
      <trkpt lat="45.61033" lon="6.51194">
        <ele>2332.6</ele>
        <time>2025-02-20T13:16:57Z</time>
      </trkpt>
      <trkpt lat="45.61033" lon="6.51194">
        <ele>2332.6</ele>
        <time>2025-02-20T13:16:58Z</time>
      </trkpt>
      <trkpt lat="45.61033" lon="6.51194">
        <ele>2332.6</ele>
        <time>2025-02-20T13:16:59Z</time>
      </trkpt>
      <trkpt lat="45.61033" lon="6.51194">
        <ele>2332.8</ele>
        <time>2025-02-20T13:17:00Z</time>
      </trkpt>
      <trkpt lat="45.61033" lon="6.51194">
        <ele>2332.6</ele>
        <time>2025-02-20T13:17:01Z</time>
      </trkpt>
      <trkpt lat="45.61033" lon="6.51194">
        <ele>2332.6</ele>
        <time>2025-02-20T13:17:02Z</time>
      </trkpt>
      <trkpt lat="45.61033" lon="6.51194">
        <ele>2332.6</ele>
        <time>2025-02-20T13:17:03Z</time>
      </trkpt>
      <trkpt lat="45.61033" lon="6.51194">
        <ele>2332.6</ele>
        <time>2025-02-20T13:17:04Z</time>
      </trkpt>
      <trkpt lat="45.61033" lon="6.51194">
        <ele>2332.8</ele>
        <time>2025-02-20T13:17:05Z</time>
      </trkpt>
      <trkpt lat="45.61033" lon="6.51194">
        <ele>2332.8</ele>
        <time>2025-02-20T13:17:06Z</time>
      </trkpt>
      <trkpt lat="45.61033" lon="6.51194">
        <ele>2332.8</ele>
        <time>2025-02-20T13:17:07Z</time>
      </trkpt>
      <trkpt lat="45.61033" lon="6.51194">
        <ele>2333.8</ele>
        <time>2025-02-20T13:17:08Z</time>
      </trkpt>
      <trkpt lat="45.61033" lon="6.51194">
        <ele>2333.8</ele>
        <time>2025-02-20T13:17:09Z</time>
      </trkpt>
      <trkpt lat="45.61033" lon="6.51194">
        <ele>2333.8</ele>
        <time>2025-02-20T13:17:10Z</time>
      </trkpt>
      <trkpt lat="45.61033" lon="6.51194">
        <ele>2333.8</ele>
        <time>2025-02-20T13:17:11Z</time>
      </trkpt>
      <trkpt lat="45.61033" lon="6.51194">
        <ele>2333.8</ele>
        <time>2025-02-20T13:17:12Z</time>
      </trkpt>
      <trkpt lat="45.61033" lon="6.51194">
        <ele>2332.8</ele>
        <time>2025-02-20T13:17:13Z</time>
      </trkpt>
      <trkpt lat="45.61033" lon="6.51194">
        <ele>2332.8</ele>
        <time>2025-02-20T13:17:14Z</time>
      </trkpt>
      <trkpt lat="45.61033" lon="6.51194">
        <ele>2332.8</ele>
        <time>2025-02-20T13:17:15Z</time>
      </trkpt>
      <trkpt lat="45.61033" lon="6.51194">
        <ele>2332.6</ele>
        <time>2025-02-20T13:17:16Z</time>
      </trkpt>
      <trkpt lat="45.61033" lon="6.51194">
        <ele>2332.8</ele>
        <time>2025-02-20T13:17:17Z</time>
      </trkpt>
      <trkpt lat="45.61033" lon="6.51194">
        <ele>2332.8</ele>
        <time>2025-02-20T13:17:18Z</time>
      </trkpt>
      <trkpt lat="45.61033" lon="6.51194">
        <ele>2332.8</ele>
        <time>2025-02-20T13:17:19Z</time>
      </trkpt>
      <trkpt lat="45.61033" lon="6.51194">
        <ele>2332.2</ele>
        <time>2025-02-20T13:17:20Z</time>
      </trkpt>
      <trkpt lat="45.61033" lon="6.51194">
        <ele>2332.6</ele>
        <time>2025-02-20T13:17:21Z</time>
      </trkpt>
      <trkpt lat="45.61033" lon="6.51194">
        <ele>2332.6</ele>
        <time>2025-02-20T13:17:22Z</time>
      </trkpt>
      <trkpt lat="45.61033" lon="6.51194">
        <ele>2332.6</ele>
        <time>2025-02-20T13:17:23Z</time>
      </trkpt>
      <trkpt lat="45.61033" lon="6.51194">
        <ele>2332</ele>
        <time>2025-02-20T13:17:24Z</time>
      </trkpt>
      <trkpt lat="45.61033" lon="6.51194">
        <ele>2332.4</ele>
        <time>2025-02-20T13:17:25Z</time>
      </trkpt>
      <trkpt lat="45.61033" lon="6.51194">
        <ele>2332.4</ele>
        <time>2025-02-20T13:17:26Z</time>
      </trkpt>
      <trkpt lat="45.61033" lon="6.51194">
        <ele>2332.4</ele>
        <time>2025-02-20T13:17:27Z</time>
      </trkpt>
      <trkpt lat="45.61033" lon="6.51194">
        <ele>2332.6</ele>
        <time>2025-02-20T13:17:28Z</time>
      </trkpt>
      <trkpt lat="45.61033" lon="6.51194">
        <ele>2332.4</ele>
        <time>2025-02-20T13:17:29Z</time>
      </trkpt>
      <trkpt lat="45.61033" lon="6.51194">
        <ele>2332.4</ele>
        <time>2025-02-20T13:17:30Z</time>
      </trkpt>
      <trkpt lat="45.61033" lon="6.51194">
        <ele>2332.4</ele>
        <time>2025-02-20T13:17:31Z</time>
      </trkpt>
      <trkpt lat="45.61033" lon="6.51194">
        <ele>2332.8</ele>
        <time>2025-02-20T13:17:32Z</time>
      </trkpt>
      <trkpt lat="45.61033" lon="6.51194">
        <ele>2332.8</ele>
        <time>2025-02-20T13:17:33Z</time>
      </trkpt>
      <trkpt lat="45.61033" lon="6.51194">
        <ele>2332.8</ele>
        <time>2025-02-20T13:17:34Z</time>
      </trkpt>
      <trkpt lat="45.61033" lon="6.51194">
        <ele>2332.8</ele>
        <time>2025-02-20T13:17:35Z</time>
      </trkpt>
      <trkpt lat="45.61033" lon="6.51194">
        <ele>2332.4</ele>
        <time>2025-02-20T13:17:36Z</time>
      </trkpt>
      <trkpt lat="45.61033" lon="6.51194">
        <ele>2332.6</ele>
        <time>2025-02-20T13:17:37Z</time>
      </trkpt>
      <trkpt lat="45.61033" lon="6.51194">
        <ele>2332.6</ele>
        <time>2025-02-20T13:17:38Z</time>
      </trkpt>
      <trkpt lat="45.61033" lon="6.51194">
        <ele>2332.6</ele>
        <time>2025-02-20T13:17:39Z</time>
      </trkpt>
      <trkpt lat="45.61033" lon="6.51194">
        <ele>2332.6</ele>
        <time>2025-02-20T13:17:40Z</time>
      </trkpt>
      <trkpt lat="45.61033" lon="6.51194">
        <ele>2332.8</ele>
        <time>2025-02-20T13:17:41Z</time>
      </trkpt>
      <trkpt lat="45.61033" lon="6.51194">
        <ele>2332.8</ele>
        <time>2025-02-20T13:17:42Z</time>
      </trkpt>
      <trkpt lat="45.61033" lon="6.51194">
        <ele>2332.8</ele>
        <time>2025-02-20T13:17:43Z</time>
      </trkpt>
      <trkpt lat="45.61033" lon="6.51194">
        <ele>2332.8</ele>
        <time>2025-02-20T13:17:44Z</time>
      </trkpt>
      <trkpt lat="45.61033" lon="6.51194">
        <ele>2332.2</ele>
        <time>2025-02-20T13:17:45Z</time>
      </trkpt>
      <trkpt lat="45.61033" lon="6.51194">
        <ele>2332.2</ele>
        <time>2025-02-20T13:17:46Z</time>
      </trkpt>
      <trkpt lat="45.61033" lon="6.51194">
        <ele>2332.2</ele>
        <time>2025-02-20T13:17:47Z</time>
      </trkpt>
      <trkpt lat="45.61033" lon="6.51194">
        <ele>2331.8</ele>
        <time>2025-02-20T13:17:48Z</time>
      </trkpt>
      <trkpt lat="45.61033" lon="6.51194">
        <ele>2332.4</ele>
        <time>2025-02-20T13:17:49Z</time>
      </trkpt>
      <trkpt lat="45.61033" lon="6.51194">
        <ele>2332.4</ele>
        <time>2025-02-20T13:17:50Z</time>
      </trkpt>
      <trkpt lat="45.61033" lon="6.51194">
        <ele>2332.4</ele>
        <time>2025-02-20T13:17:51Z</time>
      </trkpt>
      <trkpt lat="45.61033" lon="6.51194">
        <ele>2332</ele>
        <time>2025-02-20T13:17:52Z</time>
      </trkpt>
      <trkpt lat="45.61033" lon="6.51194">
        <ele>2332</ele>
        <time>2025-02-20T13:17:53Z</time>
      </trkpt>
      <trkpt lat="45.61033" lon="6.51194">
        <ele>2332</ele>
        <time>2025-02-20T13:17:54Z</time>
      </trkpt>
      <trkpt lat="45.61033" lon="6.51194">
        <ele>2332</ele>
        <time>2025-02-20T13:17:55Z</time>
      </trkpt>
      <trkpt lat="45.61033" lon="6.51194">
        <ele>2332</ele>
        <time>2025-02-20T13:17:56Z</time>
      </trkpt>
      <trkpt lat="45.61033" lon="6.51194">
        <ele>2332.2</ele>
        <time>2025-02-20T13:17:57Z</time>
      </trkpt>
      <trkpt lat="45.61033" lon="6.51194">
        <ele>2332.2</ele>
        <time>2025-02-20T13:17:58Z</time>
      </trkpt>
      <trkpt lat="45.61033" lon="6.51194">
        <ele>2332.2</ele>
        <time>2025-02-20T13:17:59Z</time>
      </trkpt>
      <trkpt lat="45.61033" lon="6.51194">
        <ele>2332.8</ele>
        <time>2025-02-20T13:18:00Z</time>
      </trkpt>
      <trkpt lat="45.61033" lon="6.51194">
        <ele>2332.4</ele>
        <time>2025-02-20T13:18:01Z</time>
      </trkpt>
      <trkpt lat="45.61033" lon="6.51194">
        <ele>2332.4</ele>
        <time>2025-02-20T13:18:02Z</time>
      </trkpt>
      <trkpt lat="45.61033" lon="6.51194">
        <ele>2332.4</ele>
        <time>2025-02-20T13:18:03Z</time>
      </trkpt>
      <trkpt lat="45.61033" lon="6.51194">
        <ele>2332.4</ele>
        <time>2025-02-20T13:18:04Z</time>
      </trkpt>
      <trkpt lat="45.61033" lon="6.51194">
        <ele>2332.4</ele>
        <time>2025-02-20T13:18:05Z</time>
      </trkpt>
      <trkpt lat="45.61033" lon="6.51194">
        <ele>2332.4</ele>
        <time>2025-02-20T13:18:06Z</time>
      </trkpt>
      <trkpt lat="45.61033" lon="6.51194">
        <ele>2332.4</ele>
        <time>2025-02-20T13:18:07Z</time>
      </trkpt>
      <trkpt lat="45.61033" lon="6.51194">
        <ele>2332.6</ele>
        <time>2025-02-20T13:18:08Z</time>
      </trkpt>
      <trkpt lat="45.61033" lon="6.51194">
        <ele>2332.6</ele>
        <time>2025-02-20T13:18:09Z</time>
      </trkpt>
      <trkpt lat="45.61033" lon="6.51194">
        <ele>2332.6</ele>
        <time>2025-02-20T13:18:10Z</time>
      </trkpt>
      <trkpt lat="45.61033" lon="6.51194">
        <ele>2332.6</ele>
        <time>2025-02-20T13:18:11Z</time>
      </trkpt>
      <trkpt lat="45.61033" lon="6.51194">
        <ele>2332.6</ele>
        <time>2025-02-20T13:18:12Z</time>
      </trkpt>
      <trkpt lat="45.61033" lon="6.51194">
        <ele>2332.6</ele>
        <time>2025-02-20T13:18:13Z</time>
      </trkpt>
      <trkpt lat="45.61033" lon="6.51194">
        <ele>2332.6</ele>
        <time>2025-02-20T13:18:14Z</time>
      </trkpt>
      <trkpt lat="45.61033" lon="6.51194">
        <ele>2332.6</ele>
        <time>2025-02-20T13:18:15Z</time>
      </trkpt>
      <trkpt lat="45.61033" lon="6.51194">
        <ele>2332.4</ele>
        <time>2025-02-20T13:18:16Z</time>
      </trkpt>
      <trkpt lat="45.61033" lon="6.51194">
        <ele>2332</ele>
        <time>2025-02-20T13:18:17Z</time>
      </trkpt>
      <trkpt lat="45.61033" lon="6.51194">
        <ele>2332</ele>
        <time>2025-02-20T13:18:18Z</time>
      </trkpt>
      <trkpt lat="45.61033" lon="6.51194">
        <ele>2332</ele>
        <time>2025-02-20T13:18:19Z</time>
      </trkpt>
      <trkpt lat="45.61033" lon="6.51194">
        <ele>2332.8</ele>
        <time>2025-02-20T13:18:20Z</time>
      </trkpt>
      <trkpt lat="45.61033" lon="6.51194">
        <ele>2332.4</ele>
        <time>2025-02-20T13:18:21Z</time>
      </trkpt>
      <trkpt lat="45.61033" lon="6.51194">
        <ele>2332.4</ele>
        <time>2025-02-20T13:18:22Z</time>
      </trkpt>
      <trkpt lat="45.61033" lon="6.51194">
        <ele>2332.4</ele>
        <time>2025-02-20T13:18:23Z</time>
      </trkpt>
      <trkpt lat="45.61033" lon="6.51194">
        <ele>2332.4</ele>
        <time>2025-02-20T13:18:24Z</time>
      </trkpt>
      <trkpt lat="45.61033" lon="6.51194">
        <ele>2332.2</ele>
        <time>2025-02-20T13:18:25Z</time>
      </trkpt>
      <trkpt lat="45.61033" lon="6.51194">
        <ele>2332.2</ele>
        <time>2025-02-20T13:18:26Z</time>
      </trkpt>
      <trkpt lat="45.61033" lon="6.51194">
        <ele>2332.2</ele>
        <time>2025-02-20T13:18:27Z</time>
      </trkpt>
      <trkpt lat="45.61033" lon="6.51194">
        <ele>2332.2</ele>
        <time>2025-02-20T13:18:28Z</time>
      </trkpt>
      <trkpt lat="45.61033" lon="6.51194">
        <ele>2333.4</ele>
        <time>2025-02-20T13:18:29Z</time>
      </trkpt>
      <trkpt lat="45.61033" lon="6.51194">
        <ele>2333.4</ele>
        <time>2025-02-20T13:18:30Z</time>
      </trkpt>
      <trkpt lat="45.61033" lon="6.51194">
        <ele>2333.4</ele>
        <time>2025-02-20T13:18:31Z</time>
      </trkpt>
      <trkpt lat="45.61033" lon="6.51194">
        <ele>2332.6</ele>
        <time>2025-02-20T13:18:32Z</time>
      </trkpt>
      <trkpt lat="45.61033" lon="6.51194">
        <ele>2332.4</ele>
        <time>2025-02-20T13:18:33Z</time>
      </trkpt>
      <trkpt lat="45.61033" lon="6.51194">
        <ele>2332.4</ele>
        <time>2025-02-20T13:18:34Z</time>
      </trkpt>
      <trkpt lat="45.61033" lon="6.51194">
        <ele>2332.4</ele>
        <time>2025-02-20T13:18:35Z</time>
      </trkpt>
      <trkpt lat="45.61033" lon="6.51194">
        <ele>2332.4</ele>
        <time>2025-02-20T13:18:36Z</time>
      </trkpt>
      <trkpt lat="45.61033" lon="6.51194">
        <ele>2331.8</ele>
        <time>2025-02-20T13:18:37Z</time>
      </trkpt>
      <trkpt lat="45.61033" lon="6.51194">
        <ele>2331.8</ele>
        <time>2025-02-20T13:18:38Z</time>
      </trkpt>
      <trkpt lat="45.61033" lon="6.51194">
        <ele>2331.8</ele>
        <time>2025-02-20T13:18:39Z</time>
      </trkpt>
      <trkpt lat="45.61033" lon="6.51194">
        <ele>2332.2</ele>
        <time>2025-02-20T13:18:40Z</time>
      </trkpt>
      <trkpt lat="45.61033" lon="6.51194">
        <ele>2332.6</ele>
        <time>2025-02-20T13:18:41Z</time>
      </trkpt>
      <trkpt lat="45.61033" lon="6.51194">
        <ele>2332.6</ele>
        <time>2025-02-20T13:18:42Z</time>
      </trkpt>
      <trkpt lat="45.61033" lon="6.51194">
        <ele>2332.6</ele>
        <time>2025-02-20T13:18:43Z</time>
      </trkpt>
      <trkpt lat="45.61033" lon="6.51194">
        <ele>2332.8</ele>
        <time>2025-02-20T13:18:44Z</time>
      </trkpt>
      <trkpt lat="45.61033" lon="6.51194">
        <ele>2332.8</ele>
        <time>2025-02-20T13:18:45Z</time>
      </trkpt>
      <trkpt lat="45.61033" lon="6.51194">
        <ele>2332.8</ele>
        <time>2025-02-20T13:18:46Z</time>
      </trkpt>
      <trkpt lat="45.61033" lon="6.51194">
        <ele>2332.8</ele>
        <time>2025-02-20T13:18:47Z</time>
      </trkpt>
      <trkpt lat="45.61033" lon="6.51194">
        <ele>2333</ele>
        <time>2025-02-20T13:18:48Z</time>
      </trkpt>
      <trkpt lat="45.61033" lon="6.51194">
        <ele>2332.6</ele>
        <time>2025-02-20T13:18:49Z</time>
      </trkpt>
      <trkpt lat="45.61033" lon="6.51194">
        <ele>2332.6</ele>
        <time>2025-02-20T13:18:50Z</time>
      </trkpt>
      <trkpt lat="45.61033" lon="6.51194">
        <ele>2332.6</ele>
        <time>2025-02-20T13:18:51Z</time>
      </trkpt>
      <trkpt lat="45.61033" lon="6.51194">
        <ele>2332.6</ele>
        <time>2025-02-20T13:18:52Z</time>
      </trkpt>
      <trkpt lat="45.61033" lon="6.51194">
        <ele>2332.8</ele>
        <time>2025-02-20T13:18:53Z</time>
      </trkpt>
      <trkpt lat="45.61033" lon="6.51194">
        <ele>2332.8</ele>
        <time>2025-02-20T13:18:54Z</time>
      </trkpt>
      <trkpt lat="45.61033" lon="6.51194">
        <ele>2332.8</ele>
        <time>2025-02-20T13:18:55Z</time>
      </trkpt>
      <trkpt lat="45.61033" lon="6.51194">
        <ele>2332.4</ele>
        <time>2025-02-20T13:18:56Z</time>
      </trkpt>
      <trkpt lat="45.61033" lon="6.51194">
        <ele>2332.2</ele>
        <time>2025-02-20T13:18:57Z</time>
      </trkpt>
      <trkpt lat="45.61033" lon="6.51194">
        <ele>2332.2</ele>
        <time>2025-02-20T13:18:58Z</time>
      </trkpt>
      <trkpt lat="45.61033" lon="6.51194">
        <ele>2332.2</ele>
        <time>2025-02-20T13:18:59Z</time>
      </trkpt>
      <trkpt lat="45.61033" lon="6.51194">
        <ele>2332.2</ele>
        <time>2025-02-20T13:19:00Z</time>
      </trkpt>
      <trkpt lat="45.61033" lon="6.51194">
        <ele>2333</ele>
        <time>2025-02-20T13:19:01Z</time>
      </trkpt>
      <trkpt lat="45.61033" lon="6.51194">
        <ele>2333</ele>
        <time>2025-02-20T13:19:02Z</time>
      </trkpt>
      <trkpt lat="45.61033" lon="6.51194">
        <ele>2333</ele>
        <time>2025-02-20T13:19:03Z</time>
      </trkpt>
      <trkpt lat="45.61033" lon="6.51194">
        <ele>2333.4</ele>
        <time>2025-02-20T13:19:04Z</time>
      </trkpt>
      <trkpt lat="45.61033" lon="6.51194">
        <ele>2333.2</ele>
        <time>2025-02-20T13:19:05Z</time>
      </trkpt>
      <trkpt lat="45.61033" lon="6.51194">
        <ele>2333.2</ele>
        <time>2025-02-20T13:19:06Z</time>
      </trkpt>
      <trkpt lat="45.61033" lon="6.51194">
        <ele>2333.2</ele>
        <time>2025-02-20T13:19:07Z</time>
      </trkpt>
      <trkpt lat="45.61033" lon="6.51194">
        <ele>2332.8</ele>
        <time>2025-02-20T13:19:08Z</time>
      </trkpt>
      <trkpt lat="45.61033" lon="6.51194">
        <ele>2332.4</ele>
        <time>2025-02-20T13:19:09Z</time>
      </trkpt>
      <trkpt lat="45.61033" lon="6.51194">
        <ele>2332.4</ele>
        <time>2025-02-20T13:19:10Z</time>
      </trkpt>
      <trkpt lat="45.61033" lon="6.51194">
        <ele>2332.4</ele>
        <time>2025-02-20T13:19:11Z</time>
      </trkpt>
      <trkpt lat="45.61033" lon="6.51194">
        <ele>2332.4</ele>
        <time>2025-02-20T13:19:12Z</time>
      </trkpt>
      <trkpt lat="45.61033" lon="6.51194">
        <ele>2332.4</ele>
        <time>2025-02-20T13:19:13Z</time>
      </trkpt>
      <trkpt lat="45.61033" lon="6.51194">
        <ele>2332.4</ele>
        <time>2025-02-20T13:19:14Z</time>
      </trkpt>
      <trkpt lat="45.61033" lon="6.51194">
        <ele>2332.4</ele>
        <time>2025-02-20T13:19:15Z</time>
      </trkpt>
      <trkpt lat="45.61033" lon="6.51194">
        <ele>2332.8</ele>
        <time>2025-02-20T13:19:16Z</time>
      </trkpt>
      <trkpt lat="45.61033" lon="6.51194">
        <ele>2332.6</ele>
        <time>2025-02-20T13:19:17Z</time>
      </trkpt>
      <trkpt lat="45.61033" lon="6.51194">
        <ele>2332.6</ele>
        <time>2025-02-20T13:19:18Z</time>
      </trkpt>
      <trkpt lat="45.61033" lon="6.51194">
        <ele>2332.6</ele>
        <time>2025-02-20T13:19:19Z</time>
      </trkpt>
      <trkpt lat="45.61033" lon="6.51194">
        <ele>2332.6</ele>
        <time>2025-02-20T13:19:20Z</time>
      </trkpt>
      <trkpt lat="45.61033" lon="6.51194">
        <ele>2332.4</ele>
        <time>2025-02-20T13:19:21Z</time>
      </trkpt>
      <trkpt lat="45.61033" lon="6.51194">
        <ele>2332.4</ele>
        <time>2025-02-20T13:19:22Z</time>
      </trkpt>
      <trkpt lat="45.61033" lon="6.51194">
        <ele>2332.4</ele>
        <time>2025-02-20T13:19:23Z</time>
      </trkpt>
      <trkpt lat="45.61033" lon="6.51194">
        <ele>2332.4</ele>
        <time>2025-02-20T13:19:24Z</time>
      </trkpt>
      <trkpt lat="45.61033" lon="6.51194">
        <ele>2332</ele>
        <time>2025-02-20T13:19:25Z</time>
      </trkpt>
      <trkpt lat="45.61033" lon="6.51194">
        <ele>2332</ele>
        <time>2025-02-20T13:19:26Z</time>
      </trkpt>
      <trkpt lat="45.61033" lon="6.51194">
        <ele>2332</ele>
        <time>2025-02-20T13:19:27Z</time>
      </trkpt>
      <trkpt lat="45.61033" lon="6.51194">
        <ele>2332.8</ele>
        <time>2025-02-20T13:19:28Z</time>
      </trkpt>
      <trkpt lat="45.61033" lon="6.51194">
        <ele>2332</ele>
        <time>2025-02-20T13:19:29Z</time>
      </trkpt>
      <trkpt lat="45.61033" lon="6.51194">
        <ele>2332</ele>
        <time>2025-02-20T13:19:30Z</time>
      </trkpt>
      <trkpt lat="45.61033" lon="6.51194">
        <ele>2332</ele>
        <time>2025-02-20T13:19:31Z</time>
      </trkpt>
      <trkpt lat="45.61033" lon="6.51194">
        <ele>2333</ele>
        <time>2025-02-20T13:19:32Z</time>
      </trkpt>
      <trkpt lat="45.61033" lon="6.51194">
        <ele>2333</ele>
        <time>2025-02-20T13:19:33Z</time>
      </trkpt>
      <trkpt lat="45.61033" lon="6.51194">
        <ele>2333</ele>
        <time>2025-02-20T13:19:34Z</time>
      </trkpt>
      <trkpt lat="45.61033" lon="6.51194">
        <ele>2333</ele>
        <time>2025-02-20T13:19:35Z</time>
      </trkpt>
      <trkpt lat="45.61033" lon="6.51194">
        <ele>2333</ele>
        <time>2025-02-20T13:19:36Z</time>
      </trkpt>
      <trkpt lat="45.61033" lon="6.51194">
        <ele>2332.6</ele>
        <time>2025-02-20T13:19:37Z</time>
      </trkpt>
      <trkpt lat="45.61033" lon="6.51194">
        <ele>2332.6</ele>
        <time>2025-02-20T13:19:38Z</time>
      </trkpt>
      <trkpt lat="45.61033" lon="6.51194">
        <ele>2332.6</ele>
        <time>2025-02-20T13:19:39Z</time>
      </trkpt>
      <trkpt lat="45.61033" lon="6.51194">
        <ele>2332.6</ele>
        <time>2025-02-20T13:19:40Z</time>
      </trkpt>
      <trkpt lat="45.61033" lon="6.51194">
        <ele>2332.4</ele>
        <time>2025-02-20T13:19:41Z</time>
      </trkpt>
      <trkpt lat="45.61033" lon="6.51194">
        <ele>2332.4</ele>
        <time>2025-02-20T13:19:42Z</time>
      </trkpt>
      <trkpt lat="45.61033" lon="6.51194">
        <ele>2332.4</ele>
        <time>2025-02-20T13:19:43Z</time>
      </trkpt>
      <trkpt lat="45.61033" lon="6.51194">
        <ele>2332.4</ele>
        <time>2025-02-20T13:19:44Z</time>
      </trkpt>
      <trkpt lat="45.61033" lon="6.51194">
        <ele>2332</ele>
        <time>2025-02-20T13:19:45Z</time>
      </trkpt>
      <trkpt lat="45.61033" lon="6.51194">
        <ele>2332</ele>
        <time>2025-02-20T13:19:46Z</time>
      </trkpt>
      <trkpt lat="45.61033" lon="6.51194">
        <ele>2332</ele>
        <time>2025-02-20T13:19:47Z</time>
      </trkpt>
      <trkpt lat="45.61033" lon="6.51194">
        <ele>2332.4</ele>
        <time>2025-02-20T13:19:48Z</time>
      </trkpt>
      <trkpt lat="45.61033" lon="6.51194">
        <ele>2332</ele>
        <time>2025-02-20T13:19:49Z</time>
      </trkpt>
      <trkpt lat="45.61033" lon="6.51194">
        <ele>2332</ele>
        <time>2025-02-20T13:19:50Z</time>
      </trkpt>
      <trkpt lat="45.61033" lon="6.51194">
        <ele>2332</ele>
        <time>2025-02-20T13:19:51Z</time>
      </trkpt>
      <trkpt lat="45.61033" lon="6.51194">
        <ele>2332.2</ele>
        <time>2025-02-20T13:19:52Z</time>
      </trkpt>
      <trkpt lat="45.61033" lon="6.51194">
        <ele>2332.6</ele>
        <time>2025-02-20T13:19:53Z</time>
      </trkpt>
      <trkpt lat="45.61033" lon="6.51194">
        <ele>2332.6</ele>
        <time>2025-02-20T13:19:54Z</time>
      </trkpt>
      <trkpt lat="45.61033" lon="6.51194">
        <ele>2332.6</ele>
        <time>2025-02-20T13:19:55Z</time>
      </trkpt>
      <trkpt lat="45.61033" lon="6.51194">
        <ele>2332.6</ele>
        <time>2025-02-20T13:19:56Z</time>
      </trkpt>
      <trkpt lat="45.61033" lon="6.51194">
        <ele>2333.4</ele>
        <time>2025-02-20T13:19:57Z</time>
      </trkpt>
      <trkpt lat="45.61033" lon="6.51194">
        <ele>2333.4</ele>
        <time>2025-02-20T13:19:58Z</time>
      </trkpt>
      <trkpt lat="45.61033" lon="6.51194">
        <ele>2333.4</ele>
        <time>2025-02-20T13:19:59Z</time>
      </trkpt>
      <trkpt lat="45.61033" lon="6.51194">
        <ele>2333.4</ele>
        <time>2025-02-20T13:20:00Z</time>
      </trkpt>
      <trkpt lat="45.61033" lon="6.51194">
        <ele>2332.6</ele>
        <time>2025-02-20T13:20:01Z</time>
      </trkpt>
      <trkpt lat="45.61033" lon="6.51194">
        <ele>2332.6</ele>
        <time>2025-02-20T13:20:02Z</time>
      </trkpt>
      <trkpt lat="45.61033" lon="6.51194">
        <ele>2332.6</ele>
        <time>2025-02-20T13:20:03Z</time>
      </trkpt>
      <trkpt lat="45.61033" lon="6.51194">
        <ele>2332.6</ele>
        <time>2025-02-20T13:20:04Z</time>
      </trkpt>
      <trkpt lat="45.61033" lon="6.51194">
        <ele>2333.2</ele>
        <time>2025-02-20T13:20:05Z</time>
      </trkpt>
      <trkpt lat="45.61033" lon="6.51194">
        <ele>2333.2</ele>
        <time>2025-02-20T13:20:06Z</time>
      </trkpt>
      <trkpt lat="45.61033" lon="6.51194">
        <ele>2333.2</ele>
        <time>2025-02-20T13:20:07Z</time>
      </trkpt>
      <trkpt lat="45.61033" lon="6.51194">
        <ele>2333.2</ele>
        <time>2025-02-20T13:20:08Z</time>
      </trkpt>
      <trkpt lat="45.61033" lon="6.51194">
        <ele>2332.6</ele>
        <time>2025-02-20T13:20:09Z</time>
      </trkpt>
      <trkpt lat="45.61033" lon="6.51194">
        <ele>2332.6</ele>
        <time>2025-02-20T13:20:10Z</time>
      </trkpt>
      <trkpt lat="45.61033" lon="6.51194">
        <ele>2332.6</ele>
        <time>2025-02-20T13:20:11Z</time>
      </trkpt>
      <trkpt lat="45.61033" lon="6.51194">
        <ele>2332.6</ele>
        <time>2025-02-20T13:20:12Z</time>
      </trkpt>
      <trkpt lat="45.61033" lon="6.51194">
        <ele>2333</ele>
        <time>2025-02-20T13:20:13Z</time>
      </trkpt>
      <trkpt lat="45.61033" lon="6.51194">
        <ele>2333</ele>
        <time>2025-02-20T13:20:14Z</time>
      </trkpt>
      <trkpt lat="45.61033" lon="6.51194">
        <ele>2333</ele>
        <time>2025-02-20T13:20:15Z</time>
      </trkpt>
      <trkpt lat="45.61033" lon="6.51194">
        <ele>2333</ele>
        <time>2025-02-20T13:20:16Z</time>
      </trkpt>
      <trkpt lat="45.61033" lon="6.51194">
        <ele>2332.8</ele>
        <time>2025-02-20T13:20:17Z</time>
      </trkpt>
      <trkpt lat="45.61033" lon="6.51194">
        <ele>2332.8</ele>
        <time>2025-02-20T13:20:18Z</time>
      </trkpt>
      <trkpt lat="45.61033" lon="6.51194">
        <ele>2332.8</ele>
        <time>2025-02-20T13:20:19Z</time>
      </trkpt>
      <trkpt lat="45.61033" lon="6.51194">
        <ele>2332.8</ele>
        <time>2025-02-20T13:20:20Z</time>
      </trkpt>
      <trkpt lat="45.61033" lon="6.51194">
        <ele>2332.6</ele>
        <time>2025-02-20T13:20:21Z</time>
      </trkpt>
      <trkpt lat="45.61033" lon="6.51194">
        <ele>2332.6</ele>
        <time>2025-02-20T13:20:22Z</time>
      </trkpt>
      <trkpt lat="45.61033" lon="6.51194">
        <ele>2332.6</ele>
        <time>2025-02-20T13:20:23Z</time>
      </trkpt>
      <trkpt lat="45.61033" lon="6.51194">
        <ele>2332.2</ele>
        <time>2025-02-20T13:20:24Z</time>
      </trkpt>
      <trkpt lat="45.61033" lon="6.51194">
        <ele>2332.4</ele>
        <time>2025-02-20T13:20:25Z</time>
      </trkpt>
      <trkpt lat="45.61033" lon="6.51194">
        <ele>2332.4</ele>
        <time>2025-02-20T13:20:26Z</time>
      </trkpt>
      <trkpt lat="45.61033" lon="6.51194">
        <ele>2332.4</ele>
        <time>2025-02-20T13:20:27Z</time>
      </trkpt>
      <trkpt lat="45.61033" lon="6.51194">
        <ele>2332.8</ele>
        <time>2025-02-20T13:20:28Z</time>
      </trkpt>
      <trkpt lat="45.61033" lon="6.51194">
        <ele>2332.8</ele>
        <time>2025-02-20T13:20:29Z</time>
      </trkpt>
      <trkpt lat="45.61033" lon="6.51194">
        <ele>2332.8</ele>
        <time>2025-02-20T13:20:30Z</time>
      </trkpt>
      <trkpt lat="45.61033" lon="6.51194">
        <ele>2332.8</ele>
        <time>2025-02-20T13:20:31Z</time>
      </trkpt>
      <trkpt lat="45.61033" lon="6.51194">
        <ele>2332.8</ele>
        <time>2025-02-20T13:20:32Z</time>
      </trkpt>
      <trkpt lat="45.61033" lon="6.51194">
        <ele>2333</ele>
        <time>2025-02-20T13:20:33Z</time>
      </trkpt>
      <trkpt lat="45.61033" lon="6.51194">
        <ele>2333</ele>
        <time>2025-02-20T13:20:34Z</time>
      </trkpt>
      <trkpt lat="45.61033" lon="6.51194">
        <ele>2333</ele>
        <time>2025-02-20T13:20:35Z</time>
      </trkpt>
      <trkpt lat="45.61033" lon="6.51194">
        <ele>2332.8</ele>
        <time>2025-02-20T13:20:36Z</time>
      </trkpt>
      <trkpt lat="45.61033" lon="6.51194">
        <ele>2332.2</ele>
        <time>2025-02-20T13:20:37Z</time>
      </trkpt>
      <trkpt lat="45.61033" lon="6.51194">
        <ele>2332.2</ele>
        <time>2025-02-20T13:20:38Z</time>
      </trkpt>
      <trkpt lat="45.61033" lon="6.51194">
        <ele>2332.2</ele>
        <time>2025-02-20T13:20:39Z</time>
      </trkpt>
      <trkpt lat="45.61033" lon="6.51194">
        <ele>2332.2</ele>
        <time>2025-02-20T13:20:40Z</time>
      </trkpt>
      <trkpt lat="45.61033" lon="6.51194">
        <ele>2332.8</ele>
        <time>2025-02-20T13:20:41Z</time>
      </trkpt>
      <trkpt lat="45.61033" lon="6.51194">
        <ele>2332.8</ele>
        <time>2025-02-20T13:20:42Z</time>
      </trkpt>
      <trkpt lat="45.61033" lon="6.51194">
        <ele>2332.8</ele>
        <time>2025-02-20T13:20:43Z</time>
      </trkpt>
      <trkpt lat="45.61033" lon="6.51194">
        <ele>2332.8</ele>
        <time>2025-02-20T13:20:44Z</time>
      </trkpt>
      <trkpt lat="45.61033" lon="6.51194">
        <ele>2332.6</ele>
        <time>2025-02-20T13:20:45Z</time>
      </trkpt>
      <trkpt lat="45.61033" lon="6.51194">
        <ele>2332.6</ele>
        <time>2025-02-20T13:20:46Z</time>
      </trkpt>
      <trkpt lat="45.61033" lon="6.51194">
        <ele>2332.6</ele>
        <time>2025-02-20T13:20:47Z</time>
      </trkpt>
      <trkpt lat="45.61033" lon="6.51194">
        <ele>2332.6</ele>
        <time>2025-02-20T13:20:48Z</time>
      </trkpt>
      <trkpt lat="45.61033" lon="6.51194">
        <ele>2332.6</ele>
        <time>2025-02-20T13:20:49Z</time>
      </trkpt>
      <trkpt lat="45.61033" lon="6.51194">
        <ele>2332.6</ele>
        <time>2025-02-20T13:20:50Z</time>
      </trkpt>
      <trkpt lat="45.61033" lon="6.51194">
        <ele>2332.6</ele>
        <time>2025-02-20T13:20:51Z</time>
      </trkpt>
      <trkpt lat="45.61033" lon="6.51194">
        <ele>2332.8</ele>
        <time>2025-02-20T13:20:52Z</time>
      </trkpt>
      <trkpt lat="45.61033" lon="6.51194">
        <ele>2332.8</ele>
        <time>2025-02-20T13:20:53Z</time>
      </trkpt>
      <trkpt lat="45.61033" lon="6.51194">
        <ele>2332.8</ele>
        <time>2025-02-20T13:20:54Z</time>
      </trkpt>
      <trkpt lat="45.61033" lon="6.51194">
        <ele>2332.8</ele>
        <time>2025-02-20T13:20:55Z</time>
      </trkpt>
      <trkpt lat="45.61033" lon="6.51194">
        <ele>2332.8</ele>
        <time>2025-02-20T13:20:56Z</time>
      </trkpt>
      <trkpt lat="45.61033" lon="6.51194">
        <ele>2332.4</ele>
        <time>2025-02-20T13:20:57Z</time>
      </trkpt>
      <trkpt lat="45.61033" lon="6.51194">
        <ele>2332.4</ele>
        <time>2025-02-20T13:20:58Z</time>
      </trkpt>
      <trkpt lat="45.61033" lon="6.51194">
        <ele>2332.4</ele>
        <time>2025-02-20T13:20:59Z</time>
      </trkpt>
      <trkpt lat="45.61033" lon="6.51194">
        <ele>2332.4</ele>
        <time>2025-02-20T13:21:00Z</time>
      </trkpt>
      <trkpt lat="45.61033" lon="6.51194">
        <ele>2332.8</ele>
        <time>2025-02-20T13:21:01Z</time>
      </trkpt>
      <trkpt lat="45.61033" lon="6.51194">
        <ele>2332.8</ele>
        <time>2025-02-20T13:21:02Z</time>
      </trkpt>
      <trkpt lat="45.61033" lon="6.51194">
        <ele>2332.8</ele>
        <time>2025-02-20T13:21:03Z</time>
      </trkpt>
      <trkpt lat="45.61033" lon="6.51194">
        <ele>2332.8</ele>
        <time>2025-02-20T13:21:04Z</time>
      </trkpt>
      <trkpt lat="45.61033" lon="6.51194">
        <ele>2333.2</ele>
        <time>2025-02-20T13:21:05Z</time>
      </trkpt>
      <trkpt lat="45.61033" lon="6.51194">
        <ele>2333.2</ele>
        <time>2025-02-20T13:21:06Z</time>
      </trkpt>
      <trkpt lat="45.61033" lon="6.51194">
        <ele>2333.2</ele>
        <time>2025-02-20T13:21:07Z</time>
      </trkpt>
      <trkpt lat="45.61033" lon="6.51194">
        <ele>2333.2</ele>
        <time>2025-02-20T13:21:08Z</time>
      </trkpt>
      <trkpt lat="45.61033" lon="6.51194">
        <ele>2332.8</ele>
        <time>2025-02-20T13:21:09Z</time>
      </trkpt>
      <trkpt lat="45.61033" lon="6.51194">
        <ele>2332.8</ele>
        <time>2025-02-20T13:21:10Z</time>
      </trkpt>
      <trkpt lat="45.61033" lon="6.51194">
        <ele>2332.8</ele>
        <time>2025-02-20T13:21:11Z</time>
      </trkpt>
      <trkpt lat="45.61033" lon="6.51194">
        <ele>2332.8</ele>
        <time>2025-02-20T13:21:12Z</time>
      </trkpt>
      <trkpt lat="45.61033" lon="6.51194">
        <ele>2332.8</ele>
        <time>2025-02-20T13:21:13Z</time>
      </trkpt>
      <trkpt lat="45.61033" lon="6.51194">
        <ele>2332.8</ele>
        <time>2025-02-20T13:21:14Z</time>
      </trkpt>
      <trkpt lat="45.61033" lon="6.51194">
        <ele>2332.8</ele>
        <time>2025-02-20T13:21:15Z</time>
      </trkpt>
      <trkpt lat="45.61033" lon="6.51194">
        <ele>2333</ele>
        <time>2025-02-20T13:21:16Z</time>
      </trkpt>
      <trkpt lat="45.61033" lon="6.51194">
        <ele>2333</ele>
        <time>2025-02-20T13:21:17Z</time>
      </trkpt>
      <trkpt lat="45.61033" lon="6.51194">
        <ele>2333</ele>
        <time>2025-02-20T13:21:18Z</time>
      </trkpt>
      <trkpt lat="45.61033" lon="6.51194">
        <ele>2333</ele>
        <time>2025-02-20T13:21:19Z</time>
      </trkpt>
      <trkpt lat="45.61033" lon="6.51194">
        <ele>2333</ele>
        <time>2025-02-20T13:21:20Z</time>
      </trkpt>
      <trkpt lat="45.61033" lon="6.51194">
        <ele>2333.2</ele>
        <time>2025-02-20T13:21:21Z</time>
      </trkpt>
      <trkpt lat="45.61033" lon="6.51194">
        <ele>2333.2</ele>
        <time>2025-02-20T13:21:22Z</time>
      </trkpt>
      <trkpt lat="45.61033" lon="6.51194">
        <ele>2333.2</ele>
        <time>2025-02-20T13:21:23Z</time>
      </trkpt>
      <trkpt lat="45.61033" lon="6.51194">
        <ele>2333.2</ele>
        <time>2025-02-20T13:21:24Z</time>
      </trkpt>
      <trkpt lat="45.61033" lon="6.51194">
        <ele>2333.2</ele>
        <time>2025-02-20T13:21:25Z</time>
      </trkpt>
      <trkpt lat="45.61033" lon="6.51194">
        <ele>2333.2</ele>
        <time>2025-02-20T13:21:26Z</time>
      </trkpt>
      <trkpt lat="45.61033" lon="6.51194">
        <ele>2333.2</ele>
        <time>2025-02-20T13:21:27Z</time>
      </trkpt>
      <trkpt lat="45.61033" lon="6.51194">
        <ele>2332.6</ele>
        <time>2025-02-20T13:21:28Z</time>
      </trkpt>
      <trkpt lat="45.61033" lon="6.51194">
        <ele>2332.6</ele>
        <time>2025-02-20T13:21:29Z</time>
      </trkpt>
      <trkpt lat="45.61033" lon="6.51194">
        <ele>2332.6</ele>
        <time>2025-02-20T13:21:30Z</time>
      </trkpt>
      <trkpt lat="45.61033" lon="6.51194">
        <ele>2332.6</ele>
        <time>2025-02-20T13:21:31Z</time>
      </trkpt>
      <trkpt lat="45.61033" lon="6.51194">
        <ele>2332.6</ele>
        <time>2025-02-20T13:21:32Z</time>
      </trkpt>
      <trkpt lat="45.61033" lon="6.51194">
        <ele>2332.4</ele>
        <time>2025-02-20T13:21:33Z</time>
      </trkpt>
      <trkpt lat="45.61033" lon="6.51194">
        <ele>2332.4</ele>
        <time>2025-02-20T13:21:34Z</time>
      </trkpt>
      <trkpt lat="45.61033" lon="6.51194">
        <ele>2332.4</ele>
        <time>2025-02-20T13:21:35Z</time>
      </trkpt>
      <trkpt lat="45.61033" lon="6.51194">
        <ele>2332.4</ele>
        <time>2025-02-20T13:21:36Z</time>
      </trkpt>
      <trkpt lat="45.61033" lon="6.51194">
        <ele>2332</ele>
        <time>2025-02-20T13:21:37Z</time>
      </trkpt>
      <trkpt lat="45.61033" lon="6.51194">
        <ele>2332</ele>
        <time>2025-02-20T13:21:38Z</time>
      </trkpt>
      <trkpt lat="45.61033" lon="6.51194">
        <ele>2332</ele>
        <time>2025-02-20T13:21:39Z</time>
      </trkpt>
      <trkpt lat="45.61033" lon="6.51194">
        <ele>2332.8</ele>
        <time>2025-02-20T13:21:40Z</time>
      </trkpt>
      <trkpt lat="45.61033" lon="6.51194">
        <ele>2332.4</ele>
        <time>2025-02-20T13:21:41Z</time>
      </trkpt>
      <trkpt lat="45.61033" lon="6.51194">
        <ele>2332.4</ele>
        <time>2025-02-20T13:21:42Z</time>
      </trkpt>
      <trkpt lat="45.61033" lon="6.51194">
        <ele>2332.4</ele>
        <time>2025-02-20T13:21:43Z</time>
      </trkpt>
      <trkpt lat="45.61033" lon="6.51194">
        <ele>2332.4</ele>
        <time>2025-02-20T13:21:44Z</time>
      </trkpt>
      <trkpt lat="45.61033" lon="6.51194">
        <ele>2331.8</ele>
        <time>2025-02-20T13:21:45Z</time>
      </trkpt>
      <trkpt lat="45.61033" lon="6.51194">
        <ele>2331.8</ele>
        <time>2025-02-20T13:21:46Z</time>
      </trkpt>
      <trkpt lat="45.61033" lon="6.51194">
        <ele>2331.8</ele>
        <time>2025-02-20T13:21:47Z</time>
      </trkpt>
      <trkpt lat="45.61033" lon="6.51194">
        <ele>2332.6</ele>
        <time>2025-02-20T13:21:48Z</time>
      </trkpt>
      <trkpt lat="45.61033" lon="6.51194">
        <ele>2332.4</ele>
        <time>2025-02-20T13:21:49Z</time>
      </trkpt>
      <trkpt lat="45.61033" lon="6.51194">
        <ele>2332.4</ele>
        <time>2025-02-20T13:21:50Z</time>
      </trkpt>
      <trkpt lat="45.61033" lon="6.51194">
        <ele>2332.4</ele>
        <time>2025-02-20T13:21:51Z</time>
      </trkpt>
      <trkpt lat="45.61033" lon="6.51194">
        <ele>2332.4</ele>
        <time>2025-02-20T13:21:52Z</time>
      </trkpt>
      <trkpt lat="45.61033" lon="6.51194">
        <ele>2332.8</ele>
        <time>2025-02-20T13:21:53Z</time>
      </trkpt>
      <trkpt lat="45.61033" lon="6.51194">
        <ele>2332.8</ele>
        <time>2025-02-20T13:21:54Z</time>
      </trkpt>
      <trkpt lat="45.61033" lon="6.51194">
        <ele>2332.8</ele>
        <time>2025-02-20T13:21:55Z</time>
      </trkpt>
      <trkpt lat="45.61033" lon="6.51194">
        <ele>2332.6</ele>
        <time>2025-02-20T13:21:56Z</time>
      </trkpt>
      <trkpt lat="45.61033" lon="6.51194">
        <ele>2332.6</ele>
        <time>2025-02-20T13:21:57Z</time>
      </trkpt>
      <trkpt lat="45.61033" lon="6.51194">
        <ele>2332.6</ele>
        <time>2025-02-20T13:21:58Z</time>
      </trkpt>
      <trkpt lat="45.61033" lon="6.51194">
        <ele>2332.6</ele>
        <time>2025-02-20T13:21:59Z</time>
      </trkpt>
      <trkpt lat="45.61033" lon="6.51194">
        <ele>2332.4</ele>
        <time>2025-02-20T13:22:00Z</time>
      </trkpt>
      <trkpt lat="45.61033" lon="6.51194">
        <ele>2332.2</ele>
        <time>2025-02-20T13:22:01Z</time>
      </trkpt>
      <trkpt lat="45.61033" lon="6.51194">
        <ele>2332.2</ele>
        <time>2025-02-20T13:22:02Z</time>
      </trkpt>
      <trkpt lat="45.61033" lon="6.51194">
        <ele>2332.2</ele>
        <time>2025-02-20T13:22:03Z</time>
      </trkpt>
      <trkpt lat="45.61033" lon="6.51194">
        <ele>2332.2</ele>
        <time>2025-02-20T13:22:04Z</time>
      </trkpt>
      <trkpt lat="45.61033" lon="6.51194">
        <ele>2333.2</ele>
        <time>2025-02-20T13:22:05Z</time>
      </trkpt>
      <trkpt lat="45.61033" lon="6.51194">
        <ele>2333.2</ele>
        <time>2025-02-20T13:22:06Z</time>
      </trkpt>
      <trkpt lat="45.61033" lon="6.51194">
        <ele>2333.2</ele>
        <time>2025-02-20T13:22:07Z</time>
      </trkpt>
      <trkpt lat="45.61033" lon="6.51194">
        <ele>2333.2</ele>
        <time>2025-02-20T13:22:08Z</time>
      </trkpt>
      <trkpt lat="45.61033" lon="6.51194">
        <ele>2332.8</ele>
        <time>2025-02-20T13:22:09Z</time>
      </trkpt>
      <trkpt lat="45.61033" lon="6.51194">
        <ele>2332.8</ele>
        <time>2025-02-20T13:22:10Z</time>
      </trkpt>
      <trkpt lat="45.61033" lon="6.51194">
        <ele>2332.8</ele>
        <time>2025-02-20T13:22:11Z</time>
      </trkpt>
      <trkpt lat="45.61033" lon="6.51194">
        <ele>2332.8</ele>
        <time>2025-02-20T13:22:12Z</time>
      </trkpt>
      <trkpt lat="45.61033" lon="6.51194">
        <ele>2332.8</ele>
        <time>2025-02-20T13:22:13Z</time>
      </trkpt>
      <trkpt lat="45.61033" lon="6.51194">
        <ele>2332.8</ele>
        <time>2025-02-20T13:22:14Z</time>
      </trkpt>
      <trkpt lat="45.61033" lon="6.51194">
        <ele>2332.8</ele>
        <time>2025-02-20T13:22:15Z</time>
      </trkpt>
      <trkpt lat="45.61033" lon="6.51194">
        <ele>2332.8</ele>
        <time>2025-02-20T13:22:16Z</time>
      </trkpt>
      <trkpt lat="45.61033" lon="6.51194">
        <ele>2332.4</ele>
        <time>2025-02-20T13:22:17Z</time>
      </trkpt>
      <trkpt lat="45.61033" lon="6.51194">
        <ele>2332.4</ele>
        <time>2025-02-20T13:22:18Z</time>
      </trkpt>
      <trkpt lat="45.61033" lon="6.51194">
        <ele>2332.4</ele>
        <time>2025-02-20T13:22:19Z</time>
      </trkpt>
      <trkpt lat="45.61033" lon="6.51194">
        <ele>2332.4</ele>
        <time>2025-02-20T13:22:20Z</time>
      </trkpt>
      <trkpt lat="45.61033" lon="6.51194">
        <ele>2332.4</ele>
        <time>2025-02-20T13:22:21Z</time>
      </trkpt>
      <trkpt lat="45.61033" lon="6.51194">
        <ele>2332.4</ele>
        <time>2025-02-20T13:22:22Z</time>
      </trkpt>
      <trkpt lat="45.61033" lon="6.51194">
        <ele>2332.4</ele>
        <time>2025-02-20T13:22:23Z</time>
      </trkpt>
      <trkpt lat="45.61033" lon="6.51194">
        <ele>2331.6</ele>
        <time>2025-02-20T13:22:24Z</time>
      </trkpt>
      <trkpt lat="45.61033" lon="6.51194">
        <ele>2331.8</ele>
        <time>2025-02-20T13:22:25Z</time>
      </trkpt>
      <trkpt lat="45.61033" lon="6.51194">
        <ele>2331.8</ele>
        <time>2025-02-20T13:22:26Z</time>
      </trkpt>
      <trkpt lat="45.61033" lon="6.51194">
        <ele>2331.8</ele>
        <time>2025-02-20T13:22:27Z</time>
      </trkpt>
      <trkpt lat="45.61033" lon="6.51194">
        <ele>2332.8</ele>
        <time>2025-02-20T13:22:28Z</time>
      </trkpt>
      <trkpt lat="45.61033" lon="6.51194">
        <ele>2333.6</ele>
        <time>2025-02-20T13:22:29Z</time>
      </trkpt>
      <trkpt lat="45.61033" lon="6.51194">
        <ele>2333.6</ele>
        <time>2025-02-20T13:22:30Z</time>
      </trkpt>
      <trkpt lat="45.61033" lon="6.51194">
        <ele>2333.6</ele>
        <time>2025-02-20T13:22:31Z</time>
      </trkpt>
      <trkpt lat="45.61033" lon="6.51194">
        <ele>2332.6</ele>
        <time>2025-02-20T13:22:32Z</time>
      </trkpt>
      <trkpt lat="45.61033" lon="6.51194">
        <ele>2332.6</ele>
        <time>2025-02-20T13:22:33Z</time>
      </trkpt>
      <trkpt lat="45.61033" lon="6.51194">
        <ele>2332.6</ele>
        <time>2025-02-20T13:22:34Z</time>
      </trkpt>
      <trkpt lat="45.61033" lon="6.51194">
        <ele>2332.6</ele>
        <time>2025-02-20T13:22:35Z</time>
      </trkpt>
      <trkpt lat="45.61033" lon="6.51194">
        <ele>2332.6</ele>
        <time>2025-02-20T13:22:36Z</time>
      </trkpt>
      <trkpt lat="45.61033" lon="6.51194">
        <ele>2332.2</ele>
        <time>2025-02-20T13:22:37Z</time>
      </trkpt>
      <trkpt lat="45.61033" lon="6.51194">
        <ele>2332.2</ele>
        <time>2025-02-20T13:22:38Z</time>
      </trkpt>
      <trkpt lat="45.61033" lon="6.51194">
        <ele>2332.2</ele>
        <time>2025-02-20T13:22:39Z</time>
      </trkpt>
      <trkpt lat="45.61033" lon="6.51194">
        <ele>2332.6</ele>
        <time>2025-02-20T13:22:40Z</time>
      </trkpt>
      <trkpt lat="45.61033" lon="6.51194">
        <ele>2332.6</ele>
        <time>2025-02-20T13:22:41Z</time>
      </trkpt>
      <trkpt lat="45.61033" lon="6.51194">
        <ele>2332.6</ele>
        <time>2025-02-20T13:22:42Z</time>
      </trkpt>
      <trkpt lat="45.61033" lon="6.51194">
        <ele>2332.6</ele>
        <time>2025-02-20T13:22:43Z</time>
      </trkpt>
      <trkpt lat="45.61033" lon="6.51194">
        <ele>2332.6</ele>
        <time>2025-02-20T13:22:44Z</time>
      </trkpt>
      <trkpt lat="45.61033" lon="6.51194">
        <ele>2332</ele>
        <time>2025-02-20T13:22:45Z</time>
      </trkpt>
      <trkpt lat="45.61033" lon="6.51194">
        <ele>2332</ele>
        <time>2025-02-20T13:22:46Z</time>
      </trkpt>
      <trkpt lat="45.61033" lon="6.51194">
        <ele>2332</ele>
        <time>2025-02-20T13:22:47Z</time>
      </trkpt>
      <trkpt lat="45.61033" lon="6.51194">
        <ele>2331.8</ele>
        <time>2025-02-20T13:22:48Z</time>
      </trkpt>
      <trkpt lat="45.61033" lon="6.51194">
        <ele>2331.6</ele>
        <time>2025-02-20T13:22:49Z</time>
      </trkpt>
      <trkpt lat="45.61033" lon="6.51194">
        <ele>2331.6</ele>
        <time>2025-02-20T13:22:50Z</time>
      </trkpt>
      <trkpt lat="45.61033" lon="6.51194">
        <ele>2331.6</ele>
        <time>2025-02-20T13:22:51Z</time>
      </trkpt>
      <trkpt lat="45.61033" lon="6.51194">
        <ele>2332.2</ele>
        <time>2025-02-20T13:22:52Z</time>
      </trkpt>
      <trkpt lat="45.61033" lon="6.51194">
        <ele>2331.8</ele>
        <time>2025-02-20T13:22:53Z</time>
      </trkpt>
      <trkpt lat="45.61033" lon="6.51194">
        <ele>2331.8</ele>
        <time>2025-02-20T13:22:54Z</time>
      </trkpt>
      <trkpt lat="45.61033" lon="6.51194">
        <ele>2331.8</ele>
        <time>2025-02-20T13:22:55Z</time>
      </trkpt>
      <trkpt lat="45.61033" lon="6.51194">
        <ele>2332.2</ele>
        <time>2025-02-20T13:22:56Z</time>
      </trkpt>
      <trkpt lat="45.61033" lon="6.51194">
        <ele>2331.8</ele>
        <time>2025-02-20T13:22:57Z</time>
      </trkpt>
      <trkpt lat="45.61033" lon="6.51194">
        <ele>2331.8</ele>
        <time>2025-02-20T13:22:58Z</time>
      </trkpt>
      <trkpt lat="45.61033" lon="6.51194">
        <ele>2331.8</ele>
        <time>2025-02-20T13:22:59Z</time>
      </trkpt>
      <trkpt lat="45.61033" lon="6.51194">
        <ele>2332</ele>
        <time>2025-02-20T13:23:00Z</time>
      </trkpt>
      <trkpt lat="45.61033" lon="6.51194">
        <ele>2332.2</ele>
        <time>2025-02-20T13:23:01Z</time>
      </trkpt>
      <trkpt lat="45.61033" lon="6.51194">
        <ele>2332.2</ele>
        <time>2025-02-20T13:23:02Z</time>
      </trkpt>
      <trkpt lat="45.61033" lon="6.51194">
        <ele>2332.2</ele>
        <time>2025-02-20T13:23:03Z</time>
      </trkpt>
      <trkpt lat="45.61033" lon="6.51194">
        <ele>2332.2</ele>
        <time>2025-02-20T13:23:04Z</time>
      </trkpt>
      <trkpt lat="45.61033" lon="6.51194">
        <ele>2332</ele>
        <time>2025-02-20T13:23:05Z</time>
      </trkpt>
      <trkpt lat="45.61033" lon="6.51194">
        <ele>2332</ele>
        <time>2025-02-20T13:23:06Z</time>
      </trkpt>
      <trkpt lat="45.61033" lon="6.51194">
        <ele>2332</ele>
        <time>2025-02-20T13:23:07Z</time>
      </trkpt>
      <trkpt lat="45.61033" lon="6.51194">
        <ele>2332</ele>
        <time>2025-02-20T13:23:08Z</time>
      </trkpt>
      <trkpt lat="45.61033" lon="6.51194">
        <ele>2332.2</ele>
        <time>2025-02-20T13:23:09Z</time>
      </trkpt>
      <trkpt lat="45.61033" lon="6.51194">
        <ele>2332.2</ele>
        <time>2025-02-20T13:23:10Z</time>
      </trkpt>
      <trkpt lat="45.61033" lon="6.51194">
        <ele>2332.2</ele>
        <time>2025-02-20T13:23:11Z</time>
      </trkpt>
      <trkpt lat="45.61033" lon="6.51194">
        <ele>2332.4</ele>
        <time>2025-02-20T13:23:12Z</time>
      </trkpt>
      <trkpt lat="45.61033" lon="6.51194">
        <ele>2332.4</ele>
        <time>2025-02-20T13:23:13Z</time>
      </trkpt>
      <trkpt lat="45.61033" lon="6.51194">
        <ele>2332.4</ele>
        <time>2025-02-20T13:23:14Z</time>
      </trkpt>
      <trkpt lat="45.61033" lon="6.51194">
        <ele>2332.4</ele>
        <time>2025-02-20T13:23:15Z</time>
      </trkpt>
      <trkpt lat="45.61033" lon="6.51194">
        <ele>2332.4</ele>
        <time>2025-02-20T13:23:16Z</time>
      </trkpt>
      <trkpt lat="45.61033" lon="6.51194">
        <ele>2332.4</ele>
        <time>2025-02-20T13:23:17Z</time>
      </trkpt>
      <trkpt lat="45.61033" lon="6.51194">
        <ele>2332.4</ele>
        <time>2025-02-20T13:23:18Z</time>
      </trkpt>
      <trkpt lat="45.61033" lon="6.51194">
        <ele>2332.4</ele>
        <time>2025-02-20T13:23:19Z</time>
      </trkpt>
      <trkpt lat="45.61033" lon="6.51194">
        <ele>2332.4</ele>
        <time>2025-02-20T13:23:20Z</time>
      </trkpt>
      <trkpt lat="45.61033" lon="6.51194">
        <ele>2332.6</ele>
        <time>2025-02-20T13:23:21Z</time>
      </trkpt>
      <trkpt lat="45.61033" lon="6.51194">
        <ele>2332.6</ele>
        <time>2025-02-20T13:23:22Z</time>
      </trkpt>
      <trkpt lat="45.61033" lon="6.51194">
        <ele>2332.6</ele>
        <time>2025-02-20T13:23:23Z</time>
      </trkpt>
      <trkpt lat="45.61033" lon="6.51194">
        <ele>2332.6</ele>
        <time>2025-02-20T13:23:24Z</time>
      </trkpt>
      <trkpt lat="45.61033" lon="6.51194">
        <ele>2332.6</ele>
        <time>2025-02-20T13:23:25Z</time>
      </trkpt>
      <trkpt lat="45.61033" lon="6.51194">
        <ele>2332.6</ele>
        <time>2025-02-20T13:23:26Z</time>
      </trkpt>
      <trkpt lat="45.61033" lon="6.51194">
        <ele>2332.6</ele>
        <time>2025-02-20T13:23:27Z</time>
      </trkpt>
      <trkpt lat="45.61033" lon="6.51194">
        <ele>2332.6</ele>
        <time>2025-02-20T13:23:28Z</time>
      </trkpt>
      <trkpt lat="45.61033" lon="6.51194">
        <ele>2332.8</ele>
        <time>2025-02-20T13:23:29Z</time>
      </trkpt>
      <trkpt lat="45.61033" lon="6.51194">
        <ele>2332.8</ele>
        <time>2025-02-20T13:23:30Z</time>
      </trkpt>
      <trkpt lat="45.61033" lon="6.51194">
        <ele>2332.8</ele>
        <time>2025-02-20T13:23:31Z</time>
      </trkpt>
      <trkpt lat="45.61033" lon="6.51194">
        <ele>2332.4</ele>
        <time>2025-02-20T13:23:32Z</time>
      </trkpt>
      <trkpt lat="45.61033" lon="6.51194">
        <ele>2332.6</ele>
        <time>2025-02-20T13:23:33Z</time>
      </trkpt>
      <trkpt lat="45.61033" lon="6.51194">
        <ele>2332.6</ele>
        <time>2025-02-20T13:23:34Z</time>
      </trkpt>
      <trkpt lat="45.61033" lon="6.51194">
        <ele>2332.6</ele>
        <time>2025-02-20T13:23:35Z</time>
      </trkpt>
      <trkpt lat="45.61033" lon="6.51194">
        <ele>2332.6</ele>
        <time>2025-02-20T13:23:36Z</time>
      </trkpt>
      <trkpt lat="45.61033" lon="6.51194">
        <ele>2331.8</ele>
        <time>2025-02-20T13:23:37Z</time>
      </trkpt>
      <trkpt lat="45.61033" lon="6.51194">
        <ele>2331.8</ele>
        <time>2025-02-20T13:23:38Z</time>
      </trkpt>
      <trkpt lat="45.61033" lon="6.51194">
        <ele>2331.8</ele>
        <time>2025-02-20T13:23:39Z</time>
      </trkpt>
      <trkpt lat="45.61033" lon="6.51194">
        <ele>2332.6</ele>
        <time>2025-02-20T13:23:40Z</time>
      </trkpt>
      <trkpt lat="45.61033" lon="6.51194">
        <ele>2332.8</ele>
        <time>2025-02-20T13:23:41Z</time>
      </trkpt>
      <trkpt lat="45.61033" lon="6.51194">
        <ele>2332.8</ele>
        <time>2025-02-20T13:23:42Z</time>
      </trkpt>
      <trkpt lat="45.61033" lon="6.51194">
        <ele>2332.8</ele>
        <time>2025-02-20T13:23:43Z</time>
      </trkpt>
      <trkpt lat="45.61033" lon="6.51194">
        <ele>2332.8</ele>
        <time>2025-02-20T13:23:44Z</time>
      </trkpt>
      <trkpt lat="45.61033" lon="6.51194">
        <ele>2333.2</ele>
        <time>2025-02-20T13:23:45Z</time>
      </trkpt>
      <trkpt lat="45.61033" lon="6.51194">
        <ele>2333.2</ele>
        <time>2025-02-20T13:23:46Z</time>
      </trkpt>
      <trkpt lat="45.61033" lon="6.51194">
        <ele>2333.2</ele>
        <time>2025-02-20T13:23:47Z</time>
      </trkpt>
      <trkpt lat="45.61033" lon="6.51194">
        <ele>2332.8</ele>
        <time>2025-02-20T13:23:48Z</time>
      </trkpt>
      <trkpt lat="45.61033" lon="6.51194">
        <ele>2333.2</ele>
        <time>2025-02-20T13:23:49Z</time>
      </trkpt>
      <trkpt lat="45.61033" lon="6.51194">
        <ele>2333.2</ele>
        <time>2025-02-20T13:23:50Z</time>
      </trkpt>
      <trkpt lat="45.61033" lon="6.51194">
        <ele>2333.2</ele>
        <time>2025-02-20T13:23:51Z</time>
      </trkpt>
      <trkpt lat="45.61033" lon="6.51194">
        <ele>2332.2</ele>
        <time>2025-02-20T13:23:52Z</time>
      </trkpt>
      <trkpt lat="45.61033" lon="6.51194">
        <ele>2332.6</ele>
        <time>2025-02-20T13:23:53Z</time>
      </trkpt>
      <trkpt lat="45.61033" lon="6.51194">
        <ele>2332.6</ele>
        <time>2025-02-20T13:23:54Z</time>
      </trkpt>
      <trkpt lat="45.61033" lon="6.51194">
        <ele>2332.6</ele>
        <time>2025-02-20T13:23:55Z</time>
      </trkpt>
      <trkpt lat="45.61033" lon="6.51194">
        <ele>2332.6</ele>
        <time>2025-02-20T13:23:56Z</time>
      </trkpt>
      <trkpt lat="45.61033" lon="6.51194">
        <ele>2332.6</ele>
        <time>2025-02-20T13:23:57Z</time>
      </trkpt>
      <trkpt lat="45.61033" lon="6.51194">
        <ele>2332.6</ele>
        <time>2025-02-20T13:23:58Z</time>
      </trkpt>
      <trkpt lat="45.61033" lon="6.51194">
        <ele>2332.6</ele>
        <time>2025-02-20T13:23:59Z</time>
      </trkpt>
      <trkpt lat="45.61033" lon="6.51194">
        <ele>2332.6</ele>
        <time>2025-02-20T13:24:00Z</time>
      </trkpt>
      <trkpt lat="45.61033" lon="6.51194">
        <ele>2332.6</ele>
        <time>2025-02-20T13:24:01Z</time>
      </trkpt>
      <trkpt lat="45.61033" lon="6.51194">
        <ele>2332.6</ele>
        <time>2025-02-20T13:24:02Z</time>
      </trkpt>
      <trkpt lat="45.61033" lon="6.51194">
        <ele>2332.6</ele>
        <time>2025-02-20T13:24:03Z</time>
      </trkpt>
      <trkpt lat="45.61033" lon="6.51194">
        <ele>2332.4</ele>
        <time>2025-02-20T13:24:04Z</time>
      </trkpt>
      <trkpt lat="45.61033" lon="6.51194">
        <ele>2332.4</ele>
        <time>2025-02-20T13:24:05Z</time>
      </trkpt>
      <trkpt lat="45.61033" lon="6.51194">
        <ele>2332.4</ele>
        <time>2025-02-20T13:24:06Z</time>
      </trkpt>
      <trkpt lat="45.61033" lon="6.51194">
        <ele>2332.4</ele>
        <time>2025-02-20T13:24:07Z</time>
      </trkpt>
      <trkpt lat="45.61033" lon="6.51194">
        <ele>2332.4</ele>
        <time>2025-02-20T13:24:08Z</time>
      </trkpt>
      <trkpt lat="45.61033" lon="6.51194">
        <ele>2332.4</ele>
        <time>2025-02-20T13:24:09Z</time>
      </trkpt>
      <trkpt lat="45.61033" lon="6.51194">
        <ele>2332.4</ele>
        <time>2025-02-20T13:24:10Z</time>
      </trkpt>
      <trkpt lat="45.61033" lon="6.51194">
        <ele>2332.4</ele>
        <time>2025-02-20T13:24:11Z</time>
      </trkpt>
      <trkpt lat="45.61033" lon="6.51194">
        <ele>2332.2</ele>
        <time>2025-02-20T13:24:12Z</time>
      </trkpt>
      <trkpt lat="45.61033" lon="6.51194">
        <ele>2332.2</ele>
        <time>2025-02-20T13:24:13Z</time>
      </trkpt>
      <trkpt lat="45.61033" lon="6.51194">
        <ele>2332.2</ele>
        <time>2025-02-20T13:24:14Z</time>
      </trkpt>
      <trkpt lat="45.61033" lon="6.51194">
        <ele>2332.2</ele>
        <time>2025-02-20T13:24:15Z</time>
      </trkpt>
      <trkpt lat="45.61033" lon="6.51194">
        <ele>2332.2</ele>
        <time>2025-02-20T13:24:16Z</time>
      </trkpt>
      <trkpt lat="45.61033" lon="6.51194">
        <ele>2332</ele>
        <time>2025-02-20T13:24:17Z</time>
      </trkpt>
      <trkpt lat="45.61033" lon="6.51194">
        <ele>2332</ele>
        <time>2025-02-20T13:24:18Z</time>
      </trkpt>
      <trkpt lat="45.61033" lon="6.51194">
        <ele>2332</ele>
        <time>2025-02-20T13:24:19Z</time>
      </trkpt>
      <trkpt lat="45.61033" lon="6.51194">
        <ele>2332</ele>
        <time>2025-02-20T13:24:20Z</time>
      </trkpt>
      <trkpt lat="45.61033" lon="6.51194">
        <ele>2332.2</ele>
        <time>2025-02-20T13:24:21Z</time>
      </trkpt>
      <trkpt lat="45.61033" lon="6.51194">
        <ele>2332.2</ele>
        <time>2025-02-20T13:24:22Z</time>
      </trkpt>
      <trkpt lat="45.61033" lon="6.51194">
        <ele>2332.2</ele>
        <time>2025-02-20T13:24:23Z</time>
      </trkpt>
      <trkpt lat="45.61033" lon="6.51194">
        <ele>2332.2</ele>
        <time>2025-02-20T13:24:24Z</time>
      </trkpt>
      <trkpt lat="45.61033" lon="6.51194">
        <ele>2332.6</ele>
        <time>2025-02-20T13:24:25Z</time>
      </trkpt>
      <trkpt lat="45.61033" lon="6.51194">
        <ele>2332.6</ele>
        <time>2025-02-20T13:24:26Z</time>
      </trkpt>
      <trkpt lat="45.61033" lon="6.51194">
        <ele>2332.6</ele>
        <time>2025-02-20T13:24:27Z</time>
      </trkpt>
      <trkpt lat="45.61033" lon="6.51194">
        <ele>2332.6</ele>
        <time>2025-02-20T13:24:28Z</time>
      </trkpt>
      <trkpt lat="45.61033" lon="6.51194">
        <ele>2332.8</ele>
        <time>2025-02-20T13:24:29Z</time>
      </trkpt>
      <trkpt lat="45.61033" lon="6.51194">
        <ele>2332.8</ele>
        <time>2025-02-20T13:24:30Z</time>
      </trkpt>
      <trkpt lat="45.61033" lon="6.51194">
        <ele>2332.8</ele>
        <time>2025-02-20T13:24:31Z</time>
      </trkpt>
      <trkpt lat="45.61033" lon="6.51194">
        <ele>2332</ele>
        <time>2025-02-20T13:24:32Z</time>
      </trkpt>
      <trkpt lat="45.61033" lon="6.51194">
        <ele>2332.6</ele>
        <time>2025-02-20T13:24:33Z</time>
      </trkpt>
      <trkpt lat="45.61033" lon="6.51194">
        <ele>2332.6</ele>
        <time>2025-02-20T13:24:34Z</time>
      </trkpt>
      <trkpt lat="45.61033" lon="6.51194">
        <ele>2332.6</ele>
        <time>2025-02-20T13:24:35Z</time>
      </trkpt>
      <trkpt lat="45.61033" lon="6.51194">
        <ele>2331.8</ele>
        <time>2025-02-20T13:24:36Z</time>
      </trkpt>
      <trkpt lat="45.61033" lon="6.51194">
        <ele>2332</ele>
        <time>2025-02-20T13:24:37Z</time>
      </trkpt>
      <trkpt lat="45.61033" lon="6.51194">
        <ele>2332</ele>
        <time>2025-02-20T13:24:38Z</time>
      </trkpt>
      <trkpt lat="45.61033" lon="6.51194">
        <ele>2332</ele>
        <time>2025-02-20T13:24:39Z</time>
      </trkpt>
      <trkpt lat="45.61033" lon="6.51194">
        <ele>2332</ele>
        <time>2025-02-20T13:24:40Z</time>
      </trkpt>
      <trkpt lat="45.61033" lon="6.51194">
        <ele>2332</ele>
        <time>2025-02-20T13:24:41Z</time>
      </trkpt>
      <trkpt lat="45.61033" lon="6.51194">
        <ele>2332</ele>
        <time>2025-02-20T13:24:42Z</time>
      </trkpt>
      <trkpt lat="45.61033" lon="6.51194">
        <ele>2332</ele>
        <time>2025-02-20T13:24:43Z</time>
      </trkpt>
      <trkpt lat="45.61033" lon="6.51194">
        <ele>2332</ele>
        <time>2025-02-20T13:24:44Z</time>
      </trkpt>
      <trkpt lat="45.61033" lon="6.51194">
        <ele>2332</ele>
        <time>2025-02-20T13:24:45Z</time>
      </trkpt>
      <trkpt lat="45.61033" lon="6.51194">
        <ele>2332</ele>
        <time>2025-02-20T13:24:46Z</time>
      </trkpt>
      <trkpt lat="45.61033" lon="6.51194">
        <ele>2332</ele>
        <time>2025-02-20T13:24:47Z</time>
      </trkpt>
      <trkpt lat="45.61033" lon="6.51194">
        <ele>2332</ele>
        <time>2025-02-20T13:24:48Z</time>
      </trkpt>
      <trkpt lat="45.61033" lon="6.51194">
        <ele>2331.6</ele>
        <time>2025-02-20T13:24:49Z</time>
      </trkpt>
      <trkpt lat="45.61033" lon="6.51194">
        <ele>2331.6</ele>
        <time>2025-02-20T13:24:50Z</time>
      </trkpt>
      <trkpt lat="45.61033" lon="6.51194">
        <ele>2331.6</ele>
        <time>2025-02-20T13:24:51Z</time>
      </trkpt>
      <trkpt lat="45.61033" lon="6.51194">
        <ele>2331.6</ele>
        <time>2025-02-20T13:24:52Z</time>
      </trkpt>
      <trkpt lat="45.61033" lon="6.51194">
        <ele>2332.2</ele>
        <time>2025-02-20T13:24:53Z</time>
      </trkpt>
      <trkpt lat="45.61033" lon="6.51194">
        <ele>2332.2</ele>
        <time>2025-02-20T13:24:54Z</time>
      </trkpt>
      <trkpt lat="45.61033" lon="6.51194">
        <ele>2332.2</ele>
        <time>2025-02-20T13:24:55Z</time>
      </trkpt>
      <trkpt lat="45.61033" lon="6.51194">
        <ele>2332.2</ele>
        <time>2025-02-20T13:24:56Z</time>
      </trkpt>
      <trkpt lat="45.61033" lon="6.51194">
        <ele>2332.6</ele>
        <time>2025-02-20T13:24:57Z</time>
      </trkpt>
      <trkpt lat="45.61033" lon="6.51194">
        <ele>2332.6</ele>
        <time>2025-02-20T13:24:58Z</time>
      </trkpt>
      <trkpt lat="45.61033" lon="6.51194">
        <ele>2332.6</ele>
        <time>2025-02-20T13:24:59Z</time>
      </trkpt>
      <trkpt lat="45.61033" lon="6.51194">
        <ele>2332.6</ele>
        <time>2025-02-20T13:25:00Z</time>
      </trkpt>
      <trkpt lat="45.61033" lon="6.51194">
        <ele>2332.6</ele>
        <time>2025-02-20T13:25:01Z</time>
      </trkpt>
      <trkpt lat="45.61033" lon="6.51194">
        <ele>2332.6</ele>
        <time>2025-02-20T13:25:02Z</time>
      </trkpt>
      <trkpt lat="45.61033" lon="6.51194">
        <ele>2332.6</ele>
        <time>2025-02-20T13:25:03Z</time>
      </trkpt>
      <trkpt lat="45.61033" lon="6.51194">
        <ele>2331.6</ele>
        <time>2025-02-20T13:25:04Z</time>
      </trkpt>
      <trkpt lat="45.61033" lon="6.51194">
        <ele>2332.8</ele>
        <time>2025-02-20T13:25:05Z</time>
      </trkpt>
      <trkpt lat="45.61033" lon="6.51194">
        <ele>2332.8</ele>
        <time>2025-02-20T13:25:06Z</time>
      </trkpt>
      <trkpt lat="45.61033" lon="6.51194">
        <ele>2332.8</ele>
        <time>2025-02-20T13:25:07Z</time>
      </trkpt>
      <trkpt lat="45.61033" lon="6.51194">
        <ele>2332.2</ele>
        <time>2025-02-20T13:25:08Z</time>
      </trkpt>
      <trkpt lat="45.61033" lon="6.51194">
        <ele>2331.8</ele>
        <time>2025-02-20T13:25:09Z</time>
      </trkpt>
      <trkpt lat="45.61033" lon="6.51194">
        <ele>2331.8</ele>
        <time>2025-02-20T13:25:10Z</time>
      </trkpt>
      <trkpt lat="45.61033" lon="6.51194">
        <ele>2331.8</ele>
        <time>2025-02-20T13:25:11Z</time>
      </trkpt>
      <trkpt lat="45.61033" lon="6.51194">
        <ele>2331.8</ele>
        <time>2025-02-20T13:25:12Z</time>
      </trkpt>
      <trkpt lat="45.61033" lon="6.51194">
        <ele>2332.4</ele>
        <time>2025-02-20T13:25:13Z</time>
      </trkpt>
      <trkpt lat="45.61033" lon="6.51194">
        <ele>2332.4</ele>
        <time>2025-02-20T13:25:14Z</time>
      </trkpt>
      <trkpt lat="45.61033" lon="6.51194">
        <ele>2332.4</ele>
        <time>2025-02-20T13:25:15Z</time>
      </trkpt>
      <trkpt lat="45.61033" lon="6.51194">
        <ele>2332</ele>
        <time>2025-02-20T13:25:16Z</time>
      </trkpt>
      <trkpt lat="45.61033" lon="6.51194">
        <ele>2332.4</ele>
        <time>2025-02-20T13:25:17Z</time>
      </trkpt>
      <trkpt lat="45.61033" lon="6.51194">
        <ele>2332.4</ele>
        <time>2025-02-20T13:25:18Z</time>
      </trkpt>
      <trkpt lat="45.61033" lon="6.51194">
        <ele>2332.4</ele>
        <time>2025-02-20T13:25:19Z</time>
      </trkpt>
      <trkpt lat="45.61033" lon="6.51194">
        <ele>2332.4</ele>
        <time>2025-02-20T13:25:20Z</time>
      </trkpt>
      <trkpt lat="45.61033" lon="6.51194">
        <ele>2332.4</ele>
        <time>2025-02-20T13:25:21Z</time>
      </trkpt>
      <trkpt lat="45.61033" lon="6.51194">
        <ele>2332.4</ele>
        <time>2025-02-20T13:25:22Z</time>
      </trkpt>
      <trkpt lat="45.61033" lon="6.51194">
        <ele>2332.4</ele>
        <time>2025-02-20T13:25:23Z</time>
      </trkpt>
      <trkpt lat="45.61033" lon="6.51194">
        <ele>2332.4</ele>
        <time>2025-02-20T13:25:24Z</time>
      </trkpt>
      <trkpt lat="45.61033" lon="6.51194">
        <ele>2332.4</ele>
        <time>2025-02-20T13:25:25Z</time>
      </trkpt>
      <trkpt lat="45.61033" lon="6.51194">
        <ele>2332.4</ele>
        <time>2025-02-20T13:25:26Z</time>
      </trkpt>
      <trkpt lat="45.61033" lon="6.51194">
        <ele>2332.4</ele>
        <time>2025-02-20T13:25:27Z</time>
      </trkpt>
      <trkpt lat="45.61033" lon="6.51194">
        <ele>2332.4</ele>
        <time>2025-02-20T13:25:28Z</time>
      </trkpt>
      <trkpt lat="45.61033" lon="6.51194">
        <ele>2332.6</ele>
        <time>2025-02-20T13:25:29Z</time>
      </trkpt>
      <trkpt lat="45.61033" lon="6.51194">
        <ele>2332.6</ele>
        <time>2025-02-20T13:25:30Z</time>
      </trkpt>
      <trkpt lat="45.61033" lon="6.51194">
        <ele>2332.6</ele>
        <time>2025-02-20T13:25:31Z</time>
      </trkpt>
      <trkpt lat="45.61033" lon="6.51194">
        <ele>2332.6</ele>
        <time>2025-02-20T13:25:32Z</time>
      </trkpt>
      <trkpt lat="45.61033" lon="6.51194">
        <ele>2332.2</ele>
        <time>2025-02-20T13:25:33Z</time>
      </trkpt>
      <trkpt lat="45.61033" lon="6.51194">
        <ele>2332.2</ele>
        <time>2025-02-20T13:25:34Z</time>
      </trkpt>
      <trkpt lat="45.61033" lon="6.51194">
        <ele>2332.2</ele>
        <time>2025-02-20T13:25:35Z</time>
      </trkpt>
      <trkpt lat="45.61033" lon="6.51194">
        <ele>2332.2</ele>
        <time>2025-02-20T13:25:36Z</time>
      </trkpt>
      <trkpt lat="45.61033" lon="6.51194">
        <ele>2332.2</ele>
        <time>2025-02-20T13:25:37Z</time>
      </trkpt>
      <trkpt lat="45.61033" lon="6.51194">
        <ele>2332.2</ele>
        <time>2025-02-20T13:25:38Z</time>
      </trkpt>
      <trkpt lat="45.61033" lon="6.51194">
        <ele>2332.2</ele>
        <time>2025-02-20T13:25:39Z</time>
      </trkpt>
      <trkpt lat="45.61033" lon="6.51194">
        <ele>2332.2</ele>
        <time>2025-02-20T13:25:40Z</time>
      </trkpt>
      <trkpt lat="45.61033" lon="6.51194">
        <ele>2332.2</ele>
        <time>2025-02-20T13:25:41Z</time>
      </trkpt>
      <trkpt lat="45.61033" lon="6.51194">
        <ele>2332.2</ele>
        <time>2025-02-20T13:25:42Z</time>
      </trkpt>
      <trkpt lat="45.61033" lon="6.51194">
        <ele>2332.2</ele>
        <time>2025-02-20T13:25:43Z</time>
      </trkpt>
      <trkpt lat="45.61033" lon="6.51194">
        <ele>2332.2</ele>
        <time>2025-02-20T13:25:44Z</time>
      </trkpt>
      <trkpt lat="45.61033" lon="6.51194">
        <ele>2331.8</ele>
        <time>2025-02-20T13:25:45Z</time>
      </trkpt>
      <trkpt lat="45.61033" lon="6.51194">
        <ele>2331.8</ele>
        <time>2025-02-20T13:25:46Z</time>
      </trkpt>
      <trkpt lat="45.61033" lon="6.51194">
        <ele>2331.8</ele>
        <time>2025-02-20T13:25:47Z</time>
      </trkpt>
      <trkpt lat="45.61033" lon="6.51194">
        <ele>2331.8</ele>
        <time>2025-02-20T13:25:48Z</time>
      </trkpt>
      <trkpt lat="45.61033" lon="6.51194">
        <ele>2332.2</ele>
        <time>2025-02-20T13:25:49Z</time>
      </trkpt>
      <trkpt lat="45.61033" lon="6.51194">
        <ele>2332.2</ele>
        <time>2025-02-20T13:25:50Z</time>
      </trkpt>
      <trkpt lat="45.61033" lon="6.51194">
        <ele>2332.2</ele>
        <time>2025-02-20T13:25:51Z</time>
      </trkpt>
      <trkpt lat="45.61033" lon="6.51194">
        <ele>2332.2</ele>
        <time>2025-02-20T13:25:52Z</time>
      </trkpt>
      <trkpt lat="45.61033" lon="6.51194">
        <ele>2332.6</ele>
        <time>2025-02-20T13:25:53Z</time>
      </trkpt>
      <trkpt lat="45.61033" lon="6.51194">
        <ele>2332.6</ele>
        <time>2025-02-20T13:25:54Z</time>
      </trkpt>
      <trkpt lat="45.61033" lon="6.51194">
        <ele>2332.6</ele>
        <time>2025-02-20T13:25:55Z</time>
      </trkpt>
      <trkpt lat="45.61033" lon="6.51194">
        <ele>2332</ele>
        <time>2025-02-20T13:25:56Z</time>
      </trkpt>
      <trkpt lat="45.61033" lon="6.51194">
        <ele>2332.4</ele>
        <time>2025-02-20T13:25:57Z</time>
      </trkpt>
      <trkpt lat="45.61033" lon="6.51194">
        <ele>2332.4</ele>
        <time>2025-02-20T13:25:58Z</time>
      </trkpt>
      <trkpt lat="45.61033" lon="6.51194">
        <ele>2332.4</ele>
        <time>2025-02-20T13:25:59Z</time>
      </trkpt>
      <trkpt lat="45.61033" lon="6.51194">
        <ele>2332.4</ele>
        <time>2025-02-20T13:26:00Z</time>
      </trkpt>
      <trkpt lat="45.61033" lon="6.51194">
        <ele>2332.2</ele>
        <time>2025-02-20T13:26:01Z</time>
      </trkpt>
      <trkpt lat="45.61033" lon="6.51194">
        <ele>2332.2</ele>
        <time>2025-02-20T13:26:02Z</time>
      </trkpt>
      <trkpt lat="45.61033" lon="6.51194">
        <ele>2332.2</ele>
        <time>2025-02-20T13:26:03Z</time>
      </trkpt>
      <trkpt lat="45.61033" lon="6.51194">
        <ele>2332.2</ele>
        <time>2025-02-20T13:26:04Z</time>
      </trkpt>
      <trkpt lat="45.61033" lon="6.51194">
        <ele>2332.2</ele>
        <time>2025-02-20T13:26:05Z</time>
      </trkpt>
      <trkpt lat="45.61033" lon="6.51194">
        <ele>2332.2</ele>
        <time>2025-02-20T13:26:06Z</time>
      </trkpt>
      <trkpt lat="45.61033" lon="6.51194">
        <ele>2332.2</ele>
        <time>2025-02-20T13:26:07Z</time>
      </trkpt>
      <trkpt lat="45.61033" lon="6.51194">
        <ele>2332.2</ele>
        <time>2025-02-20T13:26:08Z</time>
      </trkpt>
      <trkpt lat="45.61033" lon="6.51194">
        <ele>2332.4</ele>
        <time>2025-02-20T13:26:09Z</time>
      </trkpt>
      <trkpt lat="45.61033" lon="6.51194">
        <ele>2332.4</ele>
        <time>2025-02-20T13:26:10Z</time>
      </trkpt>
      <trkpt lat="45.61033" lon="6.51194">
        <ele>2332.4</ele>
        <time>2025-02-20T13:26:11Z</time>
      </trkpt>
      <trkpt lat="45.61033" lon="6.51194">
        <ele>2332.4</ele>
        <time>2025-02-20T13:26:12Z</time>
      </trkpt>
      <trkpt lat="45.61033" lon="6.51194">
        <ele>2332.2</ele>
        <time>2025-02-20T13:26:13Z</time>
      </trkpt>
      <trkpt lat="45.61033" lon="6.51194">
        <ele>2332.2</ele>
        <time>2025-02-20T13:26:14Z</time>
      </trkpt>
      <trkpt lat="45.61033" lon="6.51194">
        <ele>2332.2</ele>
        <time>2025-02-20T13:26:15Z</time>
      </trkpt>
      <trkpt lat="45.61033" lon="6.51194">
        <ele>2332.2</ele>
        <time>2025-02-20T13:26:16Z</time>
      </trkpt>
      <trkpt lat="45.61033" lon="6.51194">
        <ele>2332.4</ele>
        <time>2025-02-20T13:26:17Z</time>
      </trkpt>
      <trkpt lat="45.61033" lon="6.51194">
        <ele>2332.4</ele>
        <time>2025-02-20T13:26:18Z</time>
      </trkpt>
      <trkpt lat="45.61033" lon="6.51194">
        <ele>2332.4</ele>
        <time>2025-02-20T13:26:19Z</time>
      </trkpt>
      <trkpt lat="45.61033" lon="6.51194">
        <ele>2332.4</ele>
        <time>2025-02-20T13:26:20Z</time>
      </trkpt>
      <trkpt lat="45.61033" lon="6.51194">
        <ele>2332.4</ele>
        <time>2025-02-20T13:26:21Z</time>
      </trkpt>
      <trkpt lat="45.61033" lon="6.51194">
        <ele>2332.4</ele>
        <time>2025-02-20T13:26:22Z</time>
      </trkpt>
      <trkpt lat="45.61033" lon="6.51194">
        <ele>2332.4</ele>
        <time>2025-02-20T13:26:23Z</time>
      </trkpt>
      <trkpt lat="45.61033" lon="6.51194">
        <ele>2332.4</ele>
        <time>2025-02-20T13:26:24Z</time>
      </trkpt>
      <trkpt lat="45.61033" lon="6.51194">
        <ele>2332.6</ele>
        <time>2025-02-20T13:26:25Z</time>
      </trkpt>
      <trkpt lat="45.61033" lon="6.51194">
        <ele>2332.6</ele>
        <time>2025-02-20T13:26:26Z</time>
      </trkpt>
      <trkpt lat="45.61033" lon="6.51194">
        <ele>2332.6</ele>
        <time>2025-02-20T13:26:27Z</time>
      </trkpt>
      <trkpt lat="45.61033" lon="6.51194">
        <ele>2332</ele>
        <time>2025-02-20T13:26:28Z</time>
      </trkpt>
      <trkpt lat="45.61033" lon="6.51194">
        <ele>2332.4</ele>
        <time>2025-02-20T13:26:29Z</time>
      </trkpt>
      <trkpt lat="45.61033" lon="6.51194">
        <ele>2332.4</ele>
        <time>2025-02-20T13:26:30Z</time>
      </trkpt>
      <trkpt lat="45.61033" lon="6.51194">
        <ele>2332.4</ele>
        <time>2025-02-20T13:26:31Z</time>
      </trkpt>
      <trkpt lat="45.61033" lon="6.51194">
        <ele>2332.4</ele>
        <time>2025-02-20T13:26:32Z</time>
      </trkpt>
      <trkpt lat="45.61033" lon="6.51194">
        <ele>2332</ele>
        <time>2025-02-20T13:26:33Z</time>
      </trkpt>
      <trkpt lat="45.61033" lon="6.51194">
        <ele>2332</ele>
        <time>2025-02-20T13:26:34Z</time>
      </trkpt>
      <trkpt lat="45.61033" lon="6.51194">
        <ele>2332</ele>
        <time>2025-02-20T13:26:35Z</time>
      </trkpt>
      <trkpt lat="45.61033" lon="6.51194">
        <ele>2332</ele>
        <time>2025-02-20T13:26:36Z</time>
      </trkpt>
      <trkpt lat="45.61033" lon="6.51194">
        <ele>2331.6</ele>
        <time>2025-02-20T13:26:37Z</time>
      </trkpt>
      <trkpt lat="45.61033" lon="6.51194">
        <ele>2331.6</ele>
        <time>2025-02-20T13:26:38Z</time>
      </trkpt>
      <trkpt lat="45.61033" lon="6.51194">
        <ele>2331.6</ele>
        <time>2025-02-20T13:26:39Z</time>
      </trkpt>
      <trkpt lat="45.61033" lon="6.51194">
        <ele>2332.2</ele>
        <time>2025-02-20T13:26:40Z</time>
      </trkpt>
      <trkpt lat="45.61033" lon="6.51194">
        <ele>2332.4</ele>
        <time>2025-02-20T13:26:41Z</time>
      </trkpt>
      <trkpt lat="45.61033" lon="6.51194">
        <ele>2332.4</ele>
        <time>2025-02-20T13:26:42Z</time>
      </trkpt>
      <trkpt lat="45.61033" lon="6.51194">
        <ele>2332.4</ele>
        <time>2025-02-20T13:26:43Z</time>
      </trkpt>
      <trkpt lat="45.61033" lon="6.51194">
        <ele>2332.8</ele>
        <time>2025-02-20T13:26:44Z</time>
      </trkpt>
      <trkpt lat="45.61033" lon="6.51194">
        <ele>2332</ele>
        <time>2025-02-20T13:26:45Z</time>
      </trkpt>
      <trkpt lat="45.61033" lon="6.51194">
        <ele>2332</ele>
        <time>2025-02-20T13:26:46Z</time>
      </trkpt>
      <trkpt lat="45.61033" lon="6.51194">
        <ele>2332</ele>
        <time>2025-02-20T13:26:47Z</time>
      </trkpt>
      <trkpt lat="45.61033" lon="6.51194">
        <ele>2332</ele>
        <time>2025-02-20T13:26:48Z</time>
      </trkpt>
      <trkpt lat="45.61033" lon="6.51194">
        <ele>2331.8</ele>
        <time>2025-02-20T13:26:49Z</time>
      </trkpt>
      <trkpt lat="45.61033" lon="6.51194">
        <ele>2331.8</ele>
        <time>2025-02-20T13:26:50Z</time>
      </trkpt>
      <trkpt lat="45.61033" lon="6.51194">
        <ele>2331.8</ele>
        <time>2025-02-20T13:26:51Z</time>
      </trkpt>
      <trkpt lat="45.61033" lon="6.51194">
        <ele>2332.4</ele>
        <time>2025-02-20T13:26:52Z</time>
      </trkpt>
      <trkpt lat="45.61033" lon="6.51194">
        <ele>2332</ele>
        <time>2025-02-20T13:26:53Z</time>
      </trkpt>
      <trkpt lat="45.61033" lon="6.51194">
        <ele>2332</ele>
        <time>2025-02-20T13:26:54Z</time>
      </trkpt>
      <trkpt lat="45.61033" lon="6.51194">
        <ele>2332</ele>
        <time>2025-02-20T13:26:55Z</time>
      </trkpt>
      <trkpt lat="45.61033" lon="6.51194">
        <ele>2332.4</ele>
        <time>2025-02-20T13:26:56Z</time>
      </trkpt>
      <trkpt lat="45.61033" lon="6.51194">
        <ele>2332.4</ele>
        <time>2025-02-20T13:26:57Z</time>
      </trkpt>
      <trkpt lat="45.61033" lon="6.51194">
        <ele>2332.4</ele>
        <time>2025-02-20T13:26:58Z</time>
      </trkpt>
      <trkpt lat="45.61033" lon="6.51194">
        <ele>2332.4</ele>
        <time>2025-02-20T13:26:59Z</time>
      </trkpt>
      <trkpt lat="45.61033" lon="6.51194">
        <ele>2332.4</ele>
        <time>2025-02-20T13:27:00Z</time>
      </trkpt>
      <trkpt lat="45.61033" lon="6.51194">
        <ele>2332.2</ele>
        <time>2025-02-20T13:27:01Z</time>
      </trkpt>
      <trkpt lat="45.61033" lon="6.51194">
        <ele>2332.2</ele>
        <time>2025-02-20T13:27:02Z</time>
      </trkpt>
      <trkpt lat="45.61033" lon="6.51194">
        <ele>2332.2</ele>
        <time>2025-02-20T13:27:03Z</time>
      </trkpt>
      <trkpt lat="45.61033" lon="6.51194">
        <ele>2331.8</ele>
        <time>2025-02-20T13:27:04Z</time>
      </trkpt>
      <trkpt lat="45.61033" lon="6.51194">
        <ele>2331.6</ele>
        <time>2025-02-20T13:27:05Z</time>
      </trkpt>
      <trkpt lat="45.61033" lon="6.51194">
        <ele>2331.6</ele>
        <time>2025-02-20T13:27:06Z</time>
      </trkpt>
      <trkpt lat="45.61033" lon="6.51194">
        <ele>2331.6</ele>
        <time>2025-02-20T13:27:07Z</time>
      </trkpt>
      <trkpt lat="45.61033" lon="6.51194">
        <ele>2331.8</ele>
        <time>2025-02-20T13:27:08Z</time>
      </trkpt>
      <trkpt lat="45.61033" lon="6.51194">
        <ele>2332.2</ele>
        <time>2025-02-20T13:27:09Z</time>
      </trkpt>
      <trkpt lat="45.61033" lon="6.51194">
        <ele>2332.2</ele>
        <time>2025-02-20T13:27:10Z</time>
      </trkpt>
      <trkpt lat="45.61033" lon="6.51194">
        <ele>2332.2</ele>
        <time>2025-02-20T13:27:11Z</time>
      </trkpt>
      <trkpt lat="45.61033" lon="6.51194">
        <ele>2332.6</ele>
        <time>2025-02-20T13:27:12Z</time>
      </trkpt>
      <trkpt lat="45.61033" lon="6.51194">
        <ele>2332.4</ele>
        <time>2025-02-20T13:27:13Z</time>
      </trkpt>
      <trkpt lat="45.61033" lon="6.51194">
        <ele>2332.4</ele>
        <time>2025-02-20T13:27:14Z</time>
      </trkpt>
      <trkpt lat="45.61033" lon="6.51194">
        <ele>2332.4</ele>
        <time>2025-02-20T13:27:15Z</time>
      </trkpt>
      <trkpt lat="45.61033" lon="6.51194">
        <ele>2332.8</ele>
        <time>2025-02-20T13:27:16Z</time>
      </trkpt>
      <trkpt lat="45.61033" lon="6.51194">
        <ele>2333</ele>
        <time>2025-02-20T13:27:17Z</time>
      </trkpt>
      <trkpt lat="45.61033" lon="6.51194">
        <ele>2333</ele>
        <time>2025-02-20T13:27:18Z</time>
      </trkpt>
      <trkpt lat="45.61033" lon="6.51194">
        <ele>2333</ele>
        <time>2025-02-20T13:27:19Z</time>
      </trkpt>
      <trkpt lat="45.61033" lon="6.51194">
        <ele>2332</ele>
        <time>2025-02-20T13:27:20Z</time>
      </trkpt>
      <trkpt lat="45.61033" lon="6.51194">
        <ele>2332.2</ele>
        <time>2025-02-20T13:27:21Z</time>
      </trkpt>
      <trkpt lat="45.61033" lon="6.51194">
        <ele>2332.2</ele>
        <time>2025-02-20T13:27:22Z</time>
      </trkpt>
      <trkpt lat="45.61033" lon="6.51194">
        <ele>2332.2</ele>
        <time>2025-02-20T13:27:23Z</time>
      </trkpt>
      <trkpt lat="45.61033" lon="6.51194">
        <ele>2331.2</ele>
        <time>2025-02-20T13:27:24Z</time>
      </trkpt>
      <trkpt lat="45.61033" lon="6.51194">
        <ele>2330.8</ele>
        <time>2025-02-20T13:27:25Z</time>
      </trkpt>
      <trkpt lat="45.61033" lon="6.51194">
        <ele>2330.8</ele>
        <time>2025-02-20T13:27:26Z</time>
      </trkpt>
      <trkpt lat="45.61033" lon="6.51194">
        <ele>2330.8</ele>
        <time>2025-02-20T13:27:27Z</time>
      </trkpt>
      <trkpt lat="45.61033" lon="6.51194">
        <ele>2331.8</ele>
        <time>2025-02-20T13:27:28Z</time>
      </trkpt>
      <trkpt lat="45.61033" lon="6.51194">
        <ele>2332.8</ele>
        <time>2025-02-20T13:27:29Z</time>
      </trkpt>
      <trkpt lat="45.61033" lon="6.51194">
        <ele>2332.8</ele>
        <time>2025-02-20T13:27:30Z</time>
      </trkpt>
      <trkpt lat="45.61033" lon="6.51194">
        <ele>2332.8</ele>
        <time>2025-02-20T13:27:31Z</time>
      </trkpt>
      <trkpt lat="45.61033" lon="6.51194">
        <ele>2332.4</ele>
        <time>2025-02-20T13:27:32Z</time>
      </trkpt>
      <trkpt lat="45.61033" lon="6.51194">
        <ele>2332</ele>
        <time>2025-02-20T13:27:33Z</time>
      </trkpt>
      <trkpt lat="45.61033" lon="6.51194">
        <ele>2332</ele>
        <time>2025-02-20T13:27:34Z</time>
      </trkpt>
      <trkpt lat="45.61033" lon="6.51194">
        <ele>2332</ele>
        <time>2025-02-20T13:27:35Z</time>
      </trkpt>
      <trkpt lat="45.61033" lon="6.51194">
        <ele>2332.4</ele>
        <time>2025-02-20T13:27:36Z</time>
      </trkpt>
      <trkpt lat="45.61033" lon="6.51194">
        <ele>2332.4</ele>
        <time>2025-02-20T13:27:37Z</time>
      </trkpt>
      <trkpt lat="45.61033" lon="6.51194">
        <ele>2332.4</ele>
        <time>2025-02-20T13:27:38Z</time>
      </trkpt>
      <trkpt lat="45.61033" lon="6.51194">
        <ele>2332.4</ele>
        <time>2025-02-20T13:27:39Z</time>
      </trkpt>
      <trkpt lat="45.61033" lon="6.51194">
        <ele>2332.4</ele>
        <time>2025-02-20T13:27:40Z</time>
      </trkpt>
      <trkpt lat="45.61033" lon="6.51194">
        <ele>2333.4</ele>
        <time>2025-02-20T13:27:41Z</time>
      </trkpt>
      <trkpt lat="45.61033" lon="6.51194">
        <ele>2333.4</ele>
        <time>2025-02-20T13:27:42Z</time>
      </trkpt>
      <trkpt lat="45.61033" lon="6.51194">
        <ele>2333.4</ele>
        <time>2025-02-20T13:27:43Z</time>
      </trkpt>
      <trkpt lat="45.61033" lon="6.51194">
        <ele>2333.4</ele>
        <time>2025-02-20T13:27:44Z</time>
      </trkpt>
      <trkpt lat="45.61033" lon="6.51194">
        <ele>2332.6</ele>
        <time>2025-02-20T13:27:45Z</time>
      </trkpt>
      <trkpt lat="45.61033" lon="6.51194">
        <ele>2332.6</ele>
        <time>2025-02-20T13:27:46Z</time>
      </trkpt>
      <trkpt lat="45.61033" lon="6.51194">
        <ele>2332.6</ele>
        <time>2025-02-20T13:27:47Z</time>
      </trkpt>
      <trkpt lat="45.61033" lon="6.51194">
        <ele>2332.6</ele>
        <time>2025-02-20T13:27:48Z</time>
      </trkpt>
      <trkpt lat="45.61033" lon="6.51194">
        <ele>2332.4</ele>
        <time>2025-02-20T13:27:49Z</time>
      </trkpt>
      <trkpt lat="45.61033" lon="6.51194">
        <ele>2332.4</ele>
        <time>2025-02-20T13:27:50Z</time>
      </trkpt>
      <trkpt lat="45.61033" lon="6.51194">
        <ele>2332.4</ele>
        <time>2025-02-20T13:27:51Z</time>
      </trkpt>
      <trkpt lat="45.61032" lon="6.51195">
        <ele>2333.4</ele>
        <time>2025-02-20T13:27:52Z</time>
      </trkpt>
      <trkpt lat="45.61032" lon="6.51194">
        <ele>2333</ele>
        <time>2025-02-20T13:27:53Z</time>
      </trkpt>
      <trkpt lat="45.61031" lon="6.51191">
        <ele>2333</ele>
        <time>2025-02-20T13:27:54Z</time>
      </trkpt>
      <trkpt lat="45.61032" lon="6.5119">
        <ele>2333</ele>
        <time>2025-02-20T13:27:55Z</time>
      </trkpt>
      <trkpt lat="45.61033" lon="6.51187">
        <ele>2333</ele>
        <time>2025-02-20T13:27:56Z</time>
      </trkpt>
      <trkpt lat="45.61034" lon="6.51185">
        <ele>2332.8</ele>
        <time>2025-02-20T13:27:57Z</time>
      </trkpt>
      <trkpt lat="45.61035" lon="6.51183">
        <ele>2332.8</ele>
        <time>2025-02-20T13:27:58Z</time>
      </trkpt>
      <trkpt lat="45.61035" lon="6.51181">
        <ele>2332.8</ele>
        <time>2025-02-20T13:27:59Z</time>
      </trkpt>
      <trkpt lat="45.61036" lon="6.5118">
        <ele>2332.8</ele>
        <time>2025-02-20T13:28:00Z</time>
      </trkpt>
      <trkpt lat="45.61037" lon="6.51178">
        <ele>2331.2</ele>
        <time>2025-02-20T13:28:01Z</time>
      </trkpt>
      <trkpt lat="45.61037" lon="6.51176">
        <ele>2331.2</ele>
        <time>2025-02-20T13:28:02Z</time>
      </trkpt>
      <trkpt lat="45.61038" lon="6.51176">
        <ele>2331.2</ele>
        <time>2025-02-20T13:28:03Z</time>
      </trkpt>
      <trkpt lat="45.61038" lon="6.51174">
        <ele>2332.2</ele>
        <time>2025-02-20T13:28:04Z</time>
      </trkpt>
      <trkpt lat="45.61038" lon="6.51173">
        <ele>2333.2</ele>
        <time>2025-02-20T13:28:05Z</time>
      </trkpt>
      <trkpt lat="45.61039" lon="6.51172">
        <ele>2333.2</ele>
        <time>2025-02-20T13:28:06Z</time>
      </trkpt>
      <trkpt lat="45.61039" lon="6.51171">
        <ele>2333.2</ele>
        <time>2025-02-20T13:28:07Z</time>
      </trkpt>
      <trkpt lat="45.61039" lon="6.5117">
        <ele>2333</ele>
        <time>2025-02-20T13:28:08Z</time>
      </trkpt>
      <trkpt lat="45.6104" lon="6.51169">
        <ele>2332.8</ele>
        <time>2025-02-20T13:28:09Z</time>
      </trkpt>
      <trkpt lat="45.6104" lon="6.51168">
        <ele>2332.8</ele>
        <time>2025-02-20T13:28:10Z</time>
      </trkpt>
      <trkpt lat="45.61041" lon="6.51167">
        <ele>2332.8</ele>
        <time>2025-02-20T13:28:11Z</time>
      </trkpt>
      <trkpt lat="45.61041" lon="6.51165">
        <ele>2332.8</ele>
        <time>2025-02-20T13:28:12Z</time>
      </trkpt>
      <trkpt lat="45.61042" lon="6.51164">
        <ele>2333.2</ele>
        <time>2025-02-20T13:28:13Z</time>
      </trkpt>
      <trkpt lat="45.61042" lon="6.51162">
        <ele>2333.2</ele>
        <time>2025-02-20T13:28:14Z</time>
      </trkpt>
      <trkpt lat="45.61042" lon="6.51161">
        <ele>2333.2</ele>
        <time>2025-02-20T13:28:15Z</time>
      </trkpt>
      <trkpt lat="45.61043" lon="6.51161">
        <ele>2333.4</ele>
        <time>2025-02-20T13:28:16Z</time>
      </trkpt>
      <trkpt lat="45.61043" lon="6.5116">
        <ele>2332.6</ele>
        <time>2025-02-20T13:28:17Z</time>
      </trkpt>
      <trkpt lat="45.61044" lon="6.51159">
        <ele>2332.6</ele>
        <time>2025-02-20T13:28:18Z</time>
      </trkpt>
      <trkpt lat="45.61044" lon="6.51158">
        <ele>2332.6</ele>
        <time>2025-02-20T13:28:19Z</time>
      </trkpt>
      <trkpt lat="45.61044" lon="6.51157">
        <ele>2332.6</ele>
        <time>2025-02-20T13:28:20Z</time>
      </trkpt>
      <trkpt lat="45.61045" lon="6.51156">
        <ele>2334.6</ele>
        <time>2025-02-20T13:28:21Z</time>
      </trkpt>
      <trkpt lat="45.61045" lon="6.51155">
        <ele>2334.6</ele>
        <time>2025-02-20T13:28:22Z</time>
      </trkpt>
      <trkpt lat="45.61046" lon="6.51154">
        <ele>2334.6</ele>
        <time>2025-02-20T13:28:23Z</time>
      </trkpt>
      <trkpt lat="45.61046" lon="6.51153">
        <ele>2335</ele>
        <time>2025-02-20T13:28:24Z</time>
      </trkpt>
      <trkpt lat="45.61046" lon="6.51153">
        <ele>2334.6</ele>
        <time>2025-02-20T13:28:25Z</time>
      </trkpt>
      <trkpt lat="45.61046" lon="6.51152">
        <ele>2334.6</ele>
        <time>2025-02-20T13:28:26Z</time>
      </trkpt>
      <trkpt lat="45.61046" lon="6.51151">
        <ele>2334.6</ele>
        <time>2025-02-20T13:28:27Z</time>
      </trkpt>
      <trkpt lat="45.61047" lon="6.5115">
        <ele>2335.6</ele>
        <time>2025-02-20T13:28:28Z</time>
      </trkpt>
      <trkpt lat="45.61047" lon="6.5115">
        <ele>2336</ele>
        <time>2025-02-20T13:28:29Z</time>
      </trkpt>
      <trkpt lat="45.61047" lon="6.51149">
        <ele>2336</ele>
        <time>2025-02-20T13:28:30Z</time>
      </trkpt>
      <trkpt lat="45.61047" lon="6.51148">
        <ele>2336</ele>
        <time>2025-02-20T13:28:31Z</time>
      </trkpt>
      <trkpt lat="45.61047" lon="6.51147">
        <ele>2336</ele>
        <time>2025-02-20T13:28:32Z</time>
      </trkpt>
      <trkpt lat="45.61047" lon="6.51146">
        <ele>2336.2</ele>
        <time>2025-02-20T13:28:33Z</time>
      </trkpt>
      <trkpt lat="45.61047" lon="6.51146">
        <ele>2336.2</ele>
        <time>2025-02-20T13:28:34Z</time>
      </trkpt>
      <trkpt lat="45.61047" lon="6.51145">
        <ele>2336.2</ele>
        <time>2025-02-20T13:28:35Z</time>
      </trkpt>
      <trkpt lat="45.61048" lon="6.51144">
        <ele>2336.2</ele>
        <time>2025-02-20T13:28:36Z</time>
      </trkpt>
      <trkpt lat="45.61048" lon="6.51143">
        <ele>2335.4</ele>
        <time>2025-02-20T13:28:37Z</time>
      </trkpt>
      <trkpt lat="45.61048" lon="6.51143">
        <ele>2335.4</ele>
        <time>2025-02-20T13:28:38Z</time>
      </trkpt>
      <trkpt lat="45.61048" lon="6.51141">
        <ele>2335.4</ele>
        <time>2025-02-20T13:28:39Z</time>
      </trkpt>
      <trkpt lat="45.61047" lon="6.51141">
        <ele>2335.4</ele>
        <time>2025-02-20T13:28:40Z</time>
      </trkpt>
      <trkpt lat="45.61047" lon="6.5114">
        <ele>2335.2</ele>
        <time>2025-02-20T13:28:41Z</time>
      </trkpt>
      <trkpt lat="45.61047" lon="6.5114">
        <ele>2335.2</ele>
        <time>2025-02-20T13:28:42Z</time>
      </trkpt>
      <trkpt lat="45.61047" lon="6.51139">
        <ele>2335.2</ele>
        <time>2025-02-20T13:28:43Z</time>
      </trkpt>
      <trkpt lat="45.61047" lon="6.51138">
        <ele>2336.2</ele>
        <time>2025-02-20T13:28:44Z</time>
      </trkpt>
      <trkpt lat="45.61047" lon="6.51138">
        <ele>2337</ele>
        <time>2025-02-20T13:28:45Z</time>
      </trkpt>
      <trkpt lat="45.61047" lon="6.51138">
        <ele>2337</ele>
        <time>2025-02-20T13:28:46Z</time>
      </trkpt>
      <trkpt lat="45.61047" lon="6.51138">
        <ele>2337</ele>
        <time>2025-02-20T13:28:47Z</time>
      </trkpt>
      <trkpt lat="45.61046" lon="6.51136">
        <ele>2338</ele>
        <time>2025-02-20T13:28:48Z</time>
      </trkpt>
      <trkpt lat="45.61046" lon="6.51135">
        <ele>2338.4</ele>
        <time>2025-02-20T13:28:49Z</time>
      </trkpt>
      <trkpt lat="45.61046" lon="6.51135">
        <ele>2338.4</ele>
        <time>2025-02-20T13:28:50Z</time>
      </trkpt>
      <trkpt lat="45.61046" lon="6.51135">
        <ele>2338.4</ele>
        <time>2025-02-20T13:28:51Z</time>
      </trkpt>
      <trkpt lat="45.61046" lon="6.51133">
        <ele>2339</ele>
        <time>2025-02-20T13:28:52Z</time>
      </trkpt>
      <trkpt lat="45.61046" lon="6.51132">
        <ele>2339.2</ele>
        <time>2025-02-20T13:28:53Z</time>
      </trkpt>
      <trkpt lat="45.61046" lon="6.51131">
        <ele>2339.2</ele>
        <time>2025-02-20T13:28:54Z</time>
      </trkpt>
      <trkpt lat="45.61045" lon="6.5113">
        <ele>2339.2</ele>
        <time>2025-02-20T13:28:55Z</time>
      </trkpt>
      <trkpt lat="45.61045" lon="6.5113">
        <ele>2339.2</ele>
        <time>2025-02-20T13:28:56Z</time>
      </trkpt>
      <trkpt lat="45.61046" lon="6.5113">
        <ele>2339</ele>
        <time>2025-02-20T13:28:57Z</time>
      </trkpt>
      <trkpt lat="45.61046" lon="6.5113">
        <ele>2339</ele>
        <time>2025-02-20T13:28:58Z</time>
      </trkpt>
      <trkpt lat="45.61046" lon="6.5113">
        <ele>2339</ele>
        <time>2025-02-20T13:28:59Z</time>
      </trkpt>
      <trkpt lat="45.61046" lon="6.5113">
        <ele>2339</ele>
        <time>2025-02-20T13:29:00Z</time>
      </trkpt>
      <trkpt lat="45.61046" lon="6.5113">
        <ele>2339.2</ele>
        <time>2025-02-20T13:29:01Z</time>
      </trkpt>
      <trkpt lat="45.61046" lon="6.5113">
        <ele>2339.2</ele>
        <time>2025-02-20T13:29:02Z</time>
      </trkpt>
      <trkpt lat="45.61046" lon="6.5113">
        <ele>2339.2</ele>
        <time>2025-02-20T13:29:03Z</time>
      </trkpt>
      <trkpt lat="45.61046" lon="6.5113">
        <ele>2340.2</ele>
        <time>2025-02-20T13:29:04Z</time>
      </trkpt>
      <trkpt lat="45.61048" lon="6.5113">
        <ele>2340.8</ele>
        <time>2025-02-20T13:29:05Z</time>
      </trkpt>
      <trkpt lat="45.61048" lon="6.5113">
        <ele>2340.8</ele>
        <time>2025-02-20T13:29:06Z</time>
      </trkpt>
      <trkpt lat="45.61049" lon="6.51131">
        <ele>2340.8</ele>
        <time>2025-02-20T13:29:07Z</time>
      </trkpt>
      <trkpt lat="45.61049" lon="6.51131">
        <ele>2341.2</ele>
        <time>2025-02-20T13:29:08Z</time>
      </trkpt>
      <trkpt lat="45.6105" lon="6.51131">
        <ele>2339.6</ele>
        <time>2025-02-20T13:29:09Z</time>
      </trkpt>
      <trkpt lat="45.61051" lon="6.51132">
        <ele>2339.6</ele>
        <time>2025-02-20T13:29:10Z</time>
      </trkpt>
      <trkpt lat="45.61051" lon="6.51131">
        <ele>2339.6</ele>
        <time>2025-02-20T13:29:11Z</time>
      </trkpt>
      <trkpt lat="45.61052" lon="6.51132">
        <ele>2340.2</ele>
        <time>2025-02-20T13:29:12Z</time>
      </trkpt>
      <trkpt lat="45.61052" lon="6.51132">
        <ele>2340.2</ele>
        <time>2025-02-20T13:29:13Z</time>
      </trkpt>
      <trkpt lat="45.61053" lon="6.51132">
        <ele>2340.2</ele>
        <time>2025-02-20T13:29:14Z</time>
      </trkpt>
      <trkpt lat="45.61053" lon="6.51132">
        <ele>2340.2</ele>
        <time>2025-02-20T13:29:15Z</time>
      </trkpt>
      <trkpt lat="45.61054" lon="6.51132">
        <ele>2341.2</ele>
        <time>2025-02-20T13:29:16Z</time>
      </trkpt>
      <trkpt lat="45.61055" lon="6.51132">
        <ele>2342.4</ele>
        <time>2025-02-20T13:29:17Z</time>
      </trkpt>
      <trkpt lat="45.61055" lon="6.51132">
        <ele>2342.4</ele>
        <time>2025-02-20T13:29:18Z</time>
      </trkpt>
      <trkpt lat="45.61056" lon="6.51132">
        <ele>2342.4</ele>
        <time>2025-02-20T13:29:19Z</time>
      </trkpt>
      <trkpt lat="45.61056" lon="6.51132">
        <ele>2342.4</ele>
        <time>2025-02-20T13:29:20Z</time>
      </trkpt>
      <trkpt lat="45.61057" lon="6.51132">
        <ele>2343.2</ele>
        <time>2025-02-20T13:29:21Z</time>
      </trkpt>
      <trkpt lat="45.61057" lon="6.51132">
        <ele>2343.2</ele>
        <time>2025-02-20T13:29:22Z</time>
      </trkpt>
      <trkpt lat="45.61058" lon="6.51132">
        <ele>2343.2</ele>
        <time>2025-02-20T13:29:23Z</time>
      </trkpt>
      <trkpt lat="45.61059" lon="6.51132">
        <ele>2343.2</ele>
        <time>2025-02-20T13:29:24Z</time>
      </trkpt>
      <trkpt lat="45.61059" lon="6.51132">
        <ele>2343.8</ele>
        <time>2025-02-20T13:29:25Z</time>
      </trkpt>
      <trkpt lat="45.61059" lon="6.51132">
        <ele>2343.8</ele>
        <time>2025-02-20T13:29:26Z</time>
      </trkpt>
      <trkpt lat="45.6106" lon="6.51132">
        <ele>2343.8</ele>
        <time>2025-02-20T13:29:27Z</time>
      </trkpt>
      <trkpt lat="45.61061" lon="6.51132">
        <ele>2343.6</ele>
        <time>2025-02-20T13:29:28Z</time>
      </trkpt>
      <trkpt lat="45.61062" lon="6.51132">
        <ele>2343.2</ele>
        <time>2025-02-20T13:29:29Z</time>
      </trkpt>
      <trkpt lat="45.61062" lon="6.51132">
        <ele>2343.2</ele>
        <time>2025-02-20T13:29:30Z</time>
      </trkpt>
      <trkpt lat="45.61063" lon="6.51131">
        <ele>2343.2</ele>
        <time>2025-02-20T13:29:31Z</time>
      </trkpt>
      <trkpt lat="45.61063" lon="6.51131">
        <ele>2343.2</ele>
        <time>2025-02-20T13:29:32Z</time>
      </trkpt>
      <trkpt lat="45.61063" lon="6.51131">
        <ele>2343.2</ele>
        <time>2025-02-20T13:29:33Z</time>
      </trkpt>
      <trkpt lat="45.61063" lon="6.5113">
        <ele>2343.2</ele>
        <time>2025-02-20T13:29:34Z</time>
      </trkpt>
      <trkpt lat="45.61064" lon="6.5113">
        <ele>2343.2</ele>
        <time>2025-02-20T13:29:35Z</time>
      </trkpt>
      <trkpt lat="45.61064" lon="6.5113">
        <ele>2343.2</ele>
        <time>2025-02-20T13:29:36Z</time>
      </trkpt>
      <trkpt lat="45.61063" lon="6.51128">
        <ele>2343.4</ele>
        <time>2025-02-20T13:29:37Z</time>
      </trkpt>
      <trkpt lat="45.61063" lon="6.51128">
        <ele>2343.4</ele>
        <time>2025-02-20T13:29:38Z</time>
      </trkpt>
      <trkpt lat="45.61063" lon="6.51127">
        <ele>2343.4</ele>
        <time>2025-02-20T13:29:39Z</time>
      </trkpt>
      <trkpt lat="45.61063" lon="6.51126">
        <ele>2344.4</ele>
        <time>2025-02-20T13:29:40Z</time>
      </trkpt>
      <trkpt lat="45.61062" lon="6.51125">
        <ele>2345.2</ele>
        <time>2025-02-20T13:29:41Z</time>
      </trkpt>
      <trkpt lat="45.61061" lon="6.51125">
        <ele>2345.2</ele>
        <time>2025-02-20T13:29:42Z</time>
      </trkpt>
      <trkpt lat="45.61061" lon="6.51124">
        <ele>2345.2</ele>
        <time>2025-02-20T13:29:43Z</time>
      </trkpt>
      <trkpt lat="45.6106" lon="6.51124">
        <ele>2346.2</ele>
        <time>2025-02-20T13:29:44Z</time>
      </trkpt>
      <trkpt lat="45.6106" lon="6.51123">
        <ele>2346.6</ele>
        <time>2025-02-20T13:29:45Z</time>
      </trkpt>
      <trkpt lat="45.6106" lon="6.51123">
        <ele>2346.6</ele>
        <time>2025-02-20T13:29:46Z</time>
      </trkpt>
      <trkpt lat="45.61059" lon="6.51121">
        <ele>2346.6</ele>
        <time>2025-02-20T13:29:47Z</time>
      </trkpt>
      <trkpt lat="45.61059" lon="6.5112">
        <ele>2346.6</ele>
        <time>2025-02-20T13:29:48Z</time>
      </trkpt>
      <trkpt lat="45.61059" lon="6.51119">
        <ele>2346.8</ele>
        <time>2025-02-20T13:29:49Z</time>
      </trkpt>
      <trkpt lat="45.61059" lon="6.51119">
        <ele>2346.8</ele>
        <time>2025-02-20T13:29:50Z</time>
      </trkpt>
      <trkpt lat="45.61059" lon="6.51117">
        <ele>2346.8</ele>
        <time>2025-02-20T13:29:51Z</time>
      </trkpt>
      <trkpt lat="45.61059" lon="6.51117">
        <ele>2346.8</ele>
        <time>2025-02-20T13:29:52Z</time>
      </trkpt>
      <trkpt lat="45.61059" lon="6.51116">
        <ele>2347.8</ele>
        <time>2025-02-20T13:29:53Z</time>
      </trkpt>
      <trkpt lat="45.61059" lon="6.51115">
        <ele>2347.8</ele>
        <time>2025-02-20T13:29:54Z</time>
      </trkpt>
      <trkpt lat="45.61059" lon="6.51114">
        <ele>2347.8</ele>
        <time>2025-02-20T13:29:55Z</time>
      </trkpt>
      <trkpt lat="45.61059" lon="6.51114">
        <ele>2347.8</ele>
        <time>2025-02-20T13:29:56Z</time>
      </trkpt>
      <trkpt lat="45.61059" lon="6.51113">
        <ele>2348.2</ele>
        <time>2025-02-20T13:29:57Z</time>
      </trkpt>
      <trkpt lat="45.61059" lon="6.51112">
        <ele>2348.2</ele>
        <time>2025-02-20T13:29:58Z</time>
      </trkpt>
      <trkpt lat="45.61059" lon="6.51112">
        <ele>2348.2</ele>
        <time>2025-02-20T13:29:59Z</time>
      </trkpt>
      <trkpt lat="45.61059" lon="6.51112">
        <ele>2348.8</ele>
        <time>2025-02-20T13:30:00Z</time>
      </trkpt>
      <trkpt lat="45.61059" lon="6.51112">
        <ele>2349</ele>
        <time>2025-02-20T13:30:01Z</time>
      </trkpt>
      <trkpt lat="45.61059" lon="6.5111">
        <ele>2349</ele>
        <time>2025-02-20T13:30:02Z</time>
      </trkpt>
      <trkpt lat="45.61059" lon="6.51109">
        <ele>2349</ele>
        <time>2025-02-20T13:30:03Z</time>
      </trkpt>
      <trkpt lat="45.61059" lon="6.51108">
        <ele>2349</ele>
        <time>2025-02-20T13:30:04Z</time>
      </trkpt>
      <trkpt lat="45.61059" lon="6.51107">
        <ele>2348.8</ele>
        <time>2025-02-20T13:30:05Z</time>
      </trkpt>
      <trkpt lat="45.61059" lon="6.51107">
        <ele>2348.8</ele>
        <time>2025-02-20T13:30:06Z</time>
      </trkpt>
      <trkpt lat="45.61059" lon="6.51106">
        <ele>2348.8</ele>
        <time>2025-02-20T13:30:07Z</time>
      </trkpt>
      <trkpt lat="45.6106" lon="6.51105">
        <ele>2349.8</ele>
        <time>2025-02-20T13:30:08Z</time>
      </trkpt>
      <trkpt lat="45.6106" lon="6.51104">
        <ele>2349.8</ele>
        <time>2025-02-20T13:30:09Z</time>
      </trkpt>
      <trkpt lat="45.6106" lon="6.51104">
        <ele>2349.8</ele>
        <time>2025-02-20T13:30:10Z</time>
      </trkpt>
      <trkpt lat="45.6106" lon="6.51103">
        <ele>2349.8</ele>
        <time>2025-02-20T13:30:11Z</time>
      </trkpt>
      <trkpt lat="45.6106" lon="6.51102">
        <ele>2350.6</ele>
        <time>2025-02-20T13:30:12Z</time>
      </trkpt>
      <trkpt lat="45.61061" lon="6.51102">
        <ele>2350.6</ele>
        <time>2025-02-20T13:30:13Z</time>
      </trkpt>
      <trkpt lat="45.61061" lon="6.51101">
        <ele>2350.6</ele>
        <time>2025-02-20T13:30:14Z</time>
      </trkpt>
      <trkpt lat="45.61061" lon="6.51101">
        <ele>2350.6</ele>
        <time>2025-02-20T13:30:15Z</time>
      </trkpt>
      <trkpt lat="45.61062" lon="6.51101">
        <ele>2350.6</ele>
        <time>2025-02-20T13:30:16Z</time>
      </trkpt>
      <trkpt lat="45.61062" lon="6.511">
        <ele>2349.6</ele>
        <time>2025-02-20T13:30:17Z</time>
      </trkpt>
      <trkpt lat="45.61062" lon="6.511">
        <ele>2349.6</ele>
        <time>2025-02-20T13:30:18Z</time>
      </trkpt>
      <trkpt lat="45.61063" lon="6.51099">
        <ele>2349.6</ele>
        <time>2025-02-20T13:30:19Z</time>
      </trkpt>
      <trkpt lat="45.61063" lon="6.51098">
        <ele>2349.6</ele>
        <time>2025-02-20T13:30:20Z</time>
      </trkpt>
      <trkpt lat="45.61063" lon="6.51097">
        <ele>2350.4</ele>
        <time>2025-02-20T13:30:21Z</time>
      </trkpt>
      <trkpt lat="45.61063" lon="6.51097">
        <ele>2350.4</ele>
        <time>2025-02-20T13:30:22Z</time>
      </trkpt>
      <trkpt lat="45.61064" lon="6.51096">
        <ele>2350.4</ele>
        <time>2025-02-20T13:30:23Z</time>
      </trkpt>
      <trkpt lat="45.61064" lon="6.51096">
        <ele>2350.4</ele>
        <time>2025-02-20T13:30:24Z</time>
      </trkpt>
      <trkpt lat="45.61064" lon="6.51095">
        <ele>2350.6</ele>
        <time>2025-02-20T13:30:25Z</time>
      </trkpt>
      <trkpt lat="45.61064" lon="6.51095">
        <ele>2350.6</ele>
        <time>2025-02-20T13:30:26Z</time>
      </trkpt>
      <trkpt lat="45.61064" lon="6.51095">
        <ele>2350.6</ele>
        <time>2025-02-20T13:30:27Z</time>
      </trkpt>
      <trkpt lat="45.61064" lon="6.51095">
        <ele>2351.6</ele>
        <time>2025-02-20T13:30:28Z</time>
      </trkpt>
      <trkpt lat="45.61064" lon="6.51095">
        <ele>2352.8</ele>
        <time>2025-02-20T13:30:29Z</time>
      </trkpt>
      <trkpt lat="45.61065" lon="6.51092">
        <ele>2352.8</ele>
        <time>2025-02-20T13:30:30Z</time>
      </trkpt>
      <trkpt lat="45.61065" lon="6.51092">
        <ele>2352.8</ele>
        <time>2025-02-20T13:30:31Z</time>
      </trkpt>
      <trkpt lat="45.61065" lon="6.51091">
        <ele>2352.8</ele>
        <time>2025-02-20T13:30:32Z</time>
      </trkpt>
      <trkpt lat="45.61065" lon="6.5109">
        <ele>2352.6</ele>
        <time>2025-02-20T13:30:33Z</time>
      </trkpt>
      <trkpt lat="45.61064" lon="6.51089">
        <ele>2352.6</ele>
        <time>2025-02-20T13:30:34Z</time>
      </trkpt>
      <trkpt lat="45.61064" lon="6.51088">
        <ele>2352.6</ele>
        <time>2025-02-20T13:30:35Z</time>
      </trkpt>
      <trkpt lat="45.61064" lon="6.51087">
        <ele>2351.6</ele>
        <time>2025-02-20T13:30:36Z</time>
      </trkpt>
      <trkpt lat="45.61064" lon="6.51087">
        <ele>2353.6</ele>
        <time>2025-02-20T13:30:37Z</time>
      </trkpt>
      <trkpt lat="45.61064" lon="6.51087">
        <ele>2353.6</ele>
        <time>2025-02-20T13:30:38Z</time>
      </trkpt>
      <trkpt lat="45.61065" lon="6.51086">
        <ele>2353.6</ele>
        <time>2025-02-20T13:30:39Z</time>
      </trkpt>
      <trkpt lat="45.61065" lon="6.51086">
        <ele>2354.6</ele>
        <time>2025-02-20T13:30:40Z</time>
      </trkpt>
      <trkpt lat="45.61065" lon="6.51084">
        <ele>2354.4</ele>
        <time>2025-02-20T13:30:41Z</time>
      </trkpt>
      <trkpt lat="45.61065" lon="6.51084">
        <ele>2354.4</ele>
        <time>2025-02-20T13:30:42Z</time>
      </trkpt>
      <trkpt lat="45.61066" lon="6.51083">
        <ele>2354.4</ele>
        <time>2025-02-20T13:30:43Z</time>
      </trkpt>
      <trkpt lat="45.61066" lon="6.51083">
        <ele>2354.4</ele>
        <time>2025-02-20T13:30:44Z</time>
      </trkpt>
      <trkpt lat="45.61066" lon="6.51082">
        <ele>2352.8</ele>
        <time>2025-02-20T13:30:45Z</time>
      </trkpt>
      <trkpt lat="45.61066" lon="6.51082">
        <ele>2352.8</ele>
        <time>2025-02-20T13:30:46Z</time>
      </trkpt>
      <trkpt lat="45.61066" lon="6.51081">
        <ele>2352.8</ele>
        <time>2025-02-20T13:30:47Z</time>
      </trkpt>
      <trkpt lat="45.61066" lon="6.5108">
        <ele>2353.8</ele>
        <time>2025-02-20T13:30:48Z</time>
      </trkpt>
      <trkpt lat="45.61066" lon="6.51079">
        <ele>2354.4</ele>
        <time>2025-02-20T13:30:49Z</time>
      </trkpt>
      <trkpt lat="45.61066" lon="6.51079">
        <ele>2354.4</ele>
        <time>2025-02-20T13:30:50Z</time>
      </trkpt>
      <trkpt lat="45.61067" lon="6.51078">
        <ele>2354.4</ele>
        <time>2025-02-20T13:30:51Z</time>
      </trkpt>
      <trkpt lat="45.61067" lon="6.51078">
        <ele>2355</ele>
        <time>2025-02-20T13:30:52Z</time>
      </trkpt>
      <trkpt lat="45.61068" lon="6.51077">
        <ele>2355</ele>
        <time>2025-02-20T13:30:53Z</time>
      </trkpt>
      <trkpt lat="45.61068" lon="6.51076">
        <ele>2355</ele>
        <time>2025-02-20T13:30:54Z</time>
      </trkpt>
      <trkpt lat="45.61068" lon="6.51075">
        <ele>2355</ele>
        <time>2025-02-20T13:30:55Z</time>
      </trkpt>
      <trkpt lat="45.61068" lon="6.51075">
        <ele>2356</ele>
        <time>2025-02-20T13:30:56Z</time>
      </trkpt>
      <trkpt lat="45.61069" lon="6.51074">
        <ele>2355.6</ele>
        <time>2025-02-20T13:30:57Z</time>
      </trkpt>
      <trkpt lat="45.61069" lon="6.51073">
        <ele>2355.6</ele>
        <time>2025-02-20T13:30:58Z</time>
      </trkpt>
      <trkpt lat="45.6107" lon="6.51073">
        <ele>2355.6</ele>
        <time>2025-02-20T13:30:59Z</time>
      </trkpt>
      <trkpt lat="45.6107" lon="6.51072">
        <ele>2356.6</ele>
        <time>2025-02-20T13:31:00Z</time>
      </trkpt>
      <trkpt lat="45.6107" lon="6.51072">
        <ele>2357.8</ele>
        <time>2025-02-20T13:31:01Z</time>
      </trkpt>
      <trkpt lat="45.61071" lon="6.51071">
        <ele>2357.8</ele>
        <time>2025-02-20T13:31:02Z</time>
      </trkpt>
      <trkpt lat="45.61071" lon="6.51071">
        <ele>2357.8</ele>
        <time>2025-02-20T13:31:03Z</time>
      </trkpt>
      <trkpt lat="45.61072" lon="6.5107">
        <ele>2358.8</ele>
        <time>2025-02-20T13:31:04Z</time>
      </trkpt>
      <trkpt lat="45.61072" lon="6.5107">
        <ele>2358.4</ele>
        <time>2025-02-20T13:31:05Z</time>
      </trkpt>
      <trkpt lat="45.61073" lon="6.51069">
        <ele>2358.4</ele>
        <time>2025-02-20T13:31:06Z</time>
      </trkpt>
      <trkpt lat="45.61073" lon="6.51069">
        <ele>2358.4</ele>
        <time>2025-02-20T13:31:07Z</time>
      </trkpt>
      <trkpt lat="45.61074" lon="6.51068">
        <ele>2359.4</ele>
        <time>2025-02-20T13:31:08Z</time>
      </trkpt>
      <trkpt lat="45.61074" lon="6.51068">
        <ele>2359.2</ele>
        <time>2025-02-20T13:31:09Z</time>
      </trkpt>
      <trkpt lat="45.61074" lon="6.51068">
        <ele>2359.2</ele>
        <time>2025-02-20T13:31:10Z</time>
      </trkpt>
      <trkpt lat="45.61075" lon="6.51067">
        <ele>2359.2</ele>
        <time>2025-02-20T13:31:11Z</time>
      </trkpt>
      <trkpt lat="45.61076" lon="6.51067">
        <ele>2359.2</ele>
        <time>2025-02-20T13:31:12Z</time>
      </trkpt>
      <trkpt lat="45.61076" lon="6.51066">
        <ele>2358.2</ele>
        <time>2025-02-20T13:31:13Z</time>
      </trkpt>
      <trkpt lat="45.61077" lon="6.51066">
        <ele>2358.2</ele>
        <time>2025-02-20T13:31:14Z</time>
      </trkpt>
      <trkpt lat="45.61077" lon="6.51065">
        <ele>2358.2</ele>
        <time>2025-02-20T13:31:15Z</time>
      </trkpt>
      <trkpt lat="45.61077" lon="6.51064">
        <ele>2358.6</ele>
        <time>2025-02-20T13:31:16Z</time>
      </trkpt>
      <trkpt lat="45.61077" lon="6.51063">
        <ele>2360.6</ele>
        <time>2025-02-20T13:31:17Z</time>
      </trkpt>
      <trkpt lat="45.61078" lon="6.51063">
        <ele>2360.6</ele>
        <time>2025-02-20T13:31:18Z</time>
      </trkpt>
      <trkpt lat="45.61078" lon="6.51062">
        <ele>2360.6</ele>
        <time>2025-02-20T13:31:19Z</time>
      </trkpt>
      <trkpt lat="45.61078" lon="6.51061">
        <ele>2360.6</ele>
        <time>2025-02-20T13:31:20Z</time>
      </trkpt>
      <trkpt lat="45.61078" lon="6.5106">
        <ele>2361</ele>
        <time>2025-02-20T13:31:21Z</time>
      </trkpt>
      <trkpt lat="45.61078" lon="6.5106">
        <ele>2361</ele>
        <time>2025-02-20T13:31:22Z</time>
      </trkpt>
      <trkpt lat="45.61078" lon="6.51059">
        <ele>2361</ele>
        <time>2025-02-20T13:31:23Z</time>
      </trkpt>
      <trkpt lat="45.61078" lon="6.51058">
        <ele>2360</ele>
        <time>2025-02-20T13:31:24Z</time>
      </trkpt>
      <trkpt lat="45.61078" lon="6.51057">
        <ele>2359.8</ele>
        <time>2025-02-20T13:31:25Z</time>
      </trkpt>
      <trkpt lat="45.61078" lon="6.51056">
        <ele>2359.8</ele>
        <time>2025-02-20T13:31:26Z</time>
      </trkpt>
      <trkpt lat="45.61078" lon="6.51055">
        <ele>2359.8</ele>
        <time>2025-02-20T13:31:27Z</time>
      </trkpt>
      <trkpt lat="45.61078" lon="6.51054">
        <ele>2359.8</ele>
        <time>2025-02-20T13:31:28Z</time>
      </trkpt>
      <trkpt lat="45.61078" lon="6.51053">
        <ele>2361.2</ele>
        <time>2025-02-20T13:31:29Z</time>
      </trkpt>
      <trkpt lat="45.61078" lon="6.51052">
        <ele>2361.2</ele>
        <time>2025-02-20T13:31:30Z</time>
      </trkpt>
      <trkpt lat="45.61078" lon="6.51052">
        <ele>2361.2</ele>
        <time>2025-02-20T13:31:31Z</time>
      </trkpt>
      <trkpt lat="45.61078" lon="6.51051">
        <ele>2361.2</ele>
        <time>2025-02-20T13:31:32Z</time>
      </trkpt>
      <trkpt lat="45.61078" lon="6.5105">
        <ele>2360.6</ele>
        <time>2025-02-20T13:31:33Z</time>
      </trkpt>
      <trkpt lat="45.61078" lon="6.51049">
        <ele>2360.6</ele>
        <time>2025-02-20T13:31:34Z</time>
      </trkpt>
      <trkpt lat="45.61078" lon="6.51048">
        <ele>2360.6</ele>
        <time>2025-02-20T13:31:35Z</time>
      </trkpt>
      <trkpt lat="45.61079" lon="6.51047">
        <ele>2361.2</ele>
        <time>2025-02-20T13:31:36Z</time>
      </trkpt>
      <trkpt lat="45.61079" lon="6.51047">
        <ele>2360.8</ele>
        <time>2025-02-20T13:31:37Z</time>
      </trkpt>
      <trkpt lat="45.61079" lon="6.51046">
        <ele>2360.8</ele>
        <time>2025-02-20T13:31:38Z</time>
      </trkpt>
      <trkpt lat="45.61079" lon="6.51045">
        <ele>2360.8</ele>
        <time>2025-02-20T13:31:39Z</time>
      </trkpt>
      <trkpt lat="45.61079" lon="6.51044">
        <ele>2361.8</ele>
        <time>2025-02-20T13:31:40Z</time>
      </trkpt>
      <trkpt lat="45.61079" lon="6.51044">
        <ele>2361.2</ele>
        <time>2025-02-20T13:31:41Z</time>
      </trkpt>
      <trkpt lat="45.61079" lon="6.51043">
        <ele>2361.2</ele>
        <time>2025-02-20T13:31:42Z</time>
      </trkpt>
      <trkpt lat="45.61079" lon="6.51042">
        <ele>2361.2</ele>
        <time>2025-02-20T13:31:43Z</time>
      </trkpt>
      <trkpt lat="45.61079" lon="6.51042">
        <ele>2361.6</ele>
        <time>2025-02-20T13:31:44Z</time>
      </trkpt>
      <trkpt lat="45.61079" lon="6.51041">
        <ele>2362</ele>
        <time>2025-02-20T13:31:45Z</time>
      </trkpt>
      <trkpt lat="45.6108" lon="6.5104">
        <ele>2362</ele>
        <time>2025-02-20T13:31:46Z</time>
      </trkpt>
      <trkpt lat="45.6108" lon="6.51039">
        <ele>2362</ele>
        <time>2025-02-20T13:31:47Z</time>
      </trkpt>
      <trkpt lat="45.6108" lon="6.51038">
        <ele>2362</ele>
        <time>2025-02-20T13:31:48Z</time>
      </trkpt>
      <trkpt lat="45.6108" lon="6.51038">
        <ele>2363.2</ele>
        <time>2025-02-20T13:31:49Z</time>
      </trkpt>
      <trkpt lat="45.6108" lon="6.51037">
        <ele>2363.2</ele>
        <time>2025-02-20T13:31:50Z</time>
      </trkpt>
      <trkpt lat="45.6108" lon="6.51037">
        <ele>2363.2</ele>
        <time>2025-02-20T13:31:51Z</time>
      </trkpt>
      <trkpt lat="45.6108" lon="6.51036">
        <ele>2364.2</ele>
        <time>2025-02-20T13:31:52Z</time>
      </trkpt>
      <trkpt lat="45.6108" lon="6.51035">
        <ele>2364</ele>
        <time>2025-02-20T13:31:53Z</time>
      </trkpt>
      <trkpt lat="45.6108" lon="6.51034">
        <ele>2364</ele>
        <time>2025-02-20T13:31:54Z</time>
      </trkpt>
      <trkpt lat="45.6108" lon="6.51033">
        <ele>2364</ele>
        <time>2025-02-20T13:31:55Z</time>
      </trkpt>
      <trkpt lat="45.61081" lon="6.51032">
        <ele>2365</ele>
        <time>2025-02-20T13:31:56Z</time>
      </trkpt>
      <trkpt lat="45.61081" lon="6.51032">
        <ele>2365.2</ele>
        <time>2025-02-20T13:31:57Z</time>
      </trkpt>
      <trkpt lat="45.61081" lon="6.51031">
        <ele>2365.2</ele>
        <time>2025-02-20T13:31:58Z</time>
      </trkpt>
      <trkpt lat="45.61081" lon="6.5103">
        <ele>2365.2</ele>
        <time>2025-02-20T13:31:59Z</time>
      </trkpt>
      <trkpt lat="45.61081" lon="6.51029">
        <ele>2366.2</ele>
        <time>2025-02-20T13:32:00Z</time>
      </trkpt>
      <trkpt lat="45.61082" lon="6.51029">
        <ele>2366.2</ele>
        <time>2025-02-20T13:32:01Z</time>
      </trkpt>
      <trkpt lat="45.61082" lon="6.51028">
        <ele>2366.2</ele>
        <time>2025-02-20T13:32:02Z</time>
      </trkpt>
      <trkpt lat="45.61082" lon="6.51028">
        <ele>2366.2</ele>
        <time>2025-02-20T13:32:03Z</time>
      </trkpt>
      <trkpt lat="45.61082" lon="6.51027">
        <ele>2367.2</ele>
        <time>2025-02-20T13:32:04Z</time>
      </trkpt>
      <trkpt lat="45.61082" lon="6.51027">
        <ele>2367.6</ele>
        <time>2025-02-20T13:32:05Z</time>
      </trkpt>
      <trkpt lat="45.61082" lon="6.51026">
        <ele>2367.6</ele>
        <time>2025-02-20T13:32:06Z</time>
      </trkpt>
      <trkpt lat="45.61082" lon="6.51025">
        <ele>2367.6</ele>
        <time>2025-02-20T13:32:07Z</time>
      </trkpt>
      <trkpt lat="45.61082" lon="6.51024">
        <ele>2367.6</ele>
        <time>2025-02-20T13:32:08Z</time>
      </trkpt>
      <trkpt lat="45.61082" lon="6.51024">
        <ele>2367.6</ele>
        <time>2025-02-20T13:32:09Z</time>
      </trkpt>
      <trkpt lat="45.61081" lon="6.51023">
        <ele>2367.6</ele>
        <time>2025-02-20T13:32:10Z</time>
      </trkpt>
      <trkpt lat="45.61081" lon="6.51023">
        <ele>2367.6</ele>
        <time>2025-02-20T13:32:11Z</time>
      </trkpt>
      <trkpt lat="45.6108" lon="6.51023">
        <ele>2368</ele>
        <time>2025-02-20T13:32:12Z</time>
      </trkpt>
      <trkpt lat="45.6108" lon="6.51022">
        <ele>2368</ele>
        <time>2025-02-20T13:32:13Z</time>
      </trkpt>
      <trkpt lat="45.61079" lon="6.51022">
        <ele>2368</ele>
        <time>2025-02-20T13:32:14Z</time>
      </trkpt>
      <trkpt lat="45.61079" lon="6.51021">
        <ele>2368</ele>
        <time>2025-02-20T13:32:15Z</time>
      </trkpt>
      <trkpt lat="45.61079" lon="6.51021">
        <ele>2368</ele>
        <time>2025-02-20T13:32:16Z</time>
      </trkpt>
      <trkpt lat="45.61078" lon="6.51021">
        <ele>2368.6</ele>
        <time>2025-02-20T13:32:17Z</time>
      </trkpt>
      <trkpt lat="45.61078" lon="6.5102">
        <ele>2368.6</ele>
        <time>2025-02-20T13:32:18Z</time>
      </trkpt>
      <trkpt lat="45.61077" lon="6.51019">
        <ele>2368.6</ele>
        <time>2025-02-20T13:32:19Z</time>
      </trkpt>
      <trkpt lat="45.61077" lon="6.51019">
        <ele>2368.6</ele>
        <time>2025-02-20T13:32:20Z</time>
      </trkpt>
      <trkpt lat="45.61077" lon="6.51018">
        <ele>2368</ele>
        <time>2025-02-20T13:32:21Z</time>
      </trkpt>
      <trkpt lat="45.61077" lon="6.51018">
        <ele>2368</ele>
        <time>2025-02-20T13:32:22Z</time>
      </trkpt>
      <trkpt lat="45.61076" lon="6.51017">
        <ele>2368</ele>
        <time>2025-02-20T13:32:23Z</time>
      </trkpt>
      <trkpt lat="45.61076" lon="6.51017">
        <ele>2368</ele>
        <time>2025-02-20T13:32:24Z</time>
      </trkpt>
      <trkpt lat="45.61076" lon="6.51016">
        <ele>2367.8</ele>
        <time>2025-02-20T13:32:25Z</time>
      </trkpt>
      <trkpt lat="45.61076" lon="6.51015">
        <ele>2367.8</ele>
        <time>2025-02-20T13:32:26Z</time>
      </trkpt>
      <trkpt lat="45.61075" lon="6.51014">
        <ele>2367.8</ele>
        <time>2025-02-20T13:32:27Z</time>
      </trkpt>
      <trkpt lat="45.61075" lon="6.51014">
        <ele>2368.8</ele>
        <time>2025-02-20T13:32:28Z</time>
      </trkpt>
      <trkpt lat="45.61075" lon="6.51013">
        <ele>2369.4</ele>
        <time>2025-02-20T13:32:29Z</time>
      </trkpt>
      <trkpt lat="45.61074" lon="6.51013">
        <ele>2369.4</ele>
        <time>2025-02-20T13:32:30Z</time>
      </trkpt>
      <trkpt lat="45.61074" lon="6.51012">
        <ele>2369.4</ele>
        <time>2025-02-20T13:32:31Z</time>
      </trkpt>
      <trkpt lat="45.61074" lon="6.51011">
        <ele>2370</ele>
        <time>2025-02-20T13:32:32Z</time>
      </trkpt>
      <trkpt lat="45.61074" lon="6.51011">
        <ele>2371.4</ele>
        <time>2025-02-20T13:32:33Z</time>
      </trkpt>
      <trkpt lat="45.61074" lon="6.5101">
        <ele>2371.4</ele>
        <time>2025-02-20T13:32:34Z</time>
      </trkpt>
      <trkpt lat="45.61074" lon="6.5101">
        <ele>2371.4</ele>
        <time>2025-02-20T13:32:35Z</time>
      </trkpt>
      <trkpt lat="45.61074" lon="6.51009">
        <ele>2371.4</ele>
        <time>2025-02-20T13:32:36Z</time>
      </trkpt>
      <trkpt lat="45.61074" lon="6.51008">
        <ele>2372</ele>
        <time>2025-02-20T13:32:37Z</time>
      </trkpt>
      <trkpt lat="45.61074" lon="6.51007">
        <ele>2372</ele>
        <time>2025-02-20T13:32:38Z</time>
      </trkpt>
      <trkpt lat="45.61074" lon="6.51006">
        <ele>2372</ele>
        <time>2025-02-20T13:32:39Z</time>
      </trkpt>
      <trkpt lat="45.61074" lon="6.51005">
        <ele>2372.6</ele>
        <time>2025-02-20T13:32:40Z</time>
      </trkpt>
      <trkpt lat="45.61074" lon="6.51005">
        <ele>2372.8</ele>
        <time>2025-02-20T13:32:41Z</time>
      </trkpt>
      <trkpt lat="45.61074" lon="6.51004">
        <ele>2372.8</ele>
        <time>2025-02-20T13:32:42Z</time>
      </trkpt>
      <trkpt lat="45.61074" lon="6.51003">
        <ele>2372.8</ele>
        <time>2025-02-20T13:32:43Z</time>
      </trkpt>
      <trkpt lat="45.61074" lon="6.51003">
        <ele>2371.8</ele>
        <time>2025-02-20T13:32:44Z</time>
      </trkpt>
      <trkpt lat="45.61074" lon="6.51002">
        <ele>2372</ele>
        <time>2025-02-20T13:32:45Z</time>
      </trkpt>
      <trkpt lat="45.61074" lon="6.51001">
        <ele>2372</ele>
        <time>2025-02-20T13:32:46Z</time>
      </trkpt>
      <trkpt lat="45.61074" lon="6.51">
        <ele>2372</ele>
        <time>2025-02-20T13:32:47Z</time>
      </trkpt>
      <trkpt lat="45.61075" lon="6.50999">
        <ele>2372</ele>
        <time>2025-02-20T13:32:48Z</time>
      </trkpt>
      <trkpt lat="45.61075" lon="6.50999">
        <ele>2372.2</ele>
        <time>2025-02-20T13:32:49Z</time>
      </trkpt>
      <trkpt lat="45.61075" lon="6.50998">
        <ele>2372.2</ele>
        <time>2025-02-20T13:32:50Z</time>
      </trkpt>
      <trkpt lat="45.61075" lon="6.50998">
        <ele>2372.2</ele>
        <time>2025-02-20T13:32:51Z</time>
      </trkpt>
      <trkpt lat="45.61075" lon="6.50997">
        <ele>2373.2</ele>
        <time>2025-02-20T13:32:52Z</time>
      </trkpt>
      <trkpt lat="45.61076" lon="6.50996">
        <ele>2374.4</ele>
        <time>2025-02-20T13:32:53Z</time>
      </trkpt>
      <trkpt lat="45.61076" lon="6.50996">
        <ele>2374.4</ele>
        <time>2025-02-20T13:32:54Z</time>
      </trkpt>
      <trkpt lat="45.61077" lon="6.50995">
        <ele>2374.4</ele>
        <time>2025-02-20T13:32:55Z</time>
      </trkpt>
      <trkpt lat="45.61077" lon="6.50995">
        <ele>2375.4</ele>
        <time>2025-02-20T13:32:56Z</time>
      </trkpt>
      <trkpt lat="45.61077" lon="6.50994">
        <ele>2375.4</ele>
        <time>2025-02-20T13:32:57Z</time>
      </trkpt>
      <trkpt lat="45.61078" lon="6.50994">
        <ele>2375.4</ele>
        <time>2025-02-20T13:32:58Z</time>
      </trkpt>
      <trkpt lat="45.61078" lon="6.50993">
        <ele>2375.4</ele>
        <time>2025-02-20T13:32:59Z</time>
      </trkpt>
      <trkpt lat="45.61078" lon="6.50993">
        <ele>2376.2</ele>
        <time>2025-02-20T13:33:00Z</time>
      </trkpt>
      <trkpt lat="45.61079" lon="6.50992">
        <ele>2376</ele>
        <time>2025-02-20T13:33:01Z</time>
      </trkpt>
      <trkpt lat="45.61079" lon="6.50992">
        <ele>2376</ele>
        <time>2025-02-20T13:33:02Z</time>
      </trkpt>
      <trkpt lat="45.6108" lon="6.50991">
        <ele>2376</ele>
        <time>2025-02-20T13:33:03Z</time>
      </trkpt>
      <trkpt lat="45.6108" lon="6.50991">
        <ele>2377</ele>
        <time>2025-02-20T13:33:04Z</time>
      </trkpt>
      <trkpt lat="45.6108" lon="6.50989">
        <ele>2376.6</ele>
        <time>2025-02-20T13:33:05Z</time>
      </trkpt>
      <trkpt lat="45.61081" lon="6.50989">
        <ele>2376.6</ele>
        <time>2025-02-20T13:33:06Z</time>
      </trkpt>
      <trkpt lat="45.61081" lon="6.50988">
        <ele>2376.6</ele>
        <time>2025-02-20T13:33:07Z</time>
      </trkpt>
      <trkpt lat="45.61081" lon="6.50988">
        <ele>2377.2</ele>
        <time>2025-02-20T13:33:08Z</time>
      </trkpt>
      <trkpt lat="45.61081" lon="6.50987">
        <ele>2377</ele>
        <time>2025-02-20T13:33:09Z</time>
      </trkpt>
      <trkpt lat="45.61081" lon="6.50986">
        <ele>2377</ele>
        <time>2025-02-20T13:33:10Z</time>
      </trkpt>
      <trkpt lat="45.61081" lon="6.50985">
        <ele>2377</ele>
        <time>2025-02-20T13:33:11Z</time>
      </trkpt>
      <trkpt lat="45.61082" lon="6.50984">
        <ele>2377</ele>
        <time>2025-02-20T13:33:12Z</time>
      </trkpt>
      <trkpt lat="45.61082" lon="6.50984">
        <ele>2377.8</ele>
        <time>2025-02-20T13:33:13Z</time>
      </trkpt>
      <trkpt lat="45.61081" lon="6.50983">
        <ele>2377.8</ele>
        <time>2025-02-20T13:33:14Z</time>
      </trkpt>
      <trkpt lat="45.61081" lon="6.50983">
        <ele>2377.8</ele>
        <time>2025-02-20T13:33:15Z</time>
      </trkpt>
      <trkpt lat="45.61081" lon="6.50983">
        <ele>2378.8</ele>
        <time>2025-02-20T13:33:16Z</time>
      </trkpt>
      <trkpt lat="45.61083" lon="6.50981">
        <ele>2379.4</ele>
        <time>2025-02-20T13:33:17Z</time>
      </trkpt>
      <trkpt lat="45.61083" lon="6.50981">
        <ele>2379.4</ele>
        <time>2025-02-20T13:33:18Z</time>
      </trkpt>
      <trkpt lat="45.61083" lon="6.5098">
        <ele>2379.4</ele>
        <time>2025-02-20T13:33:19Z</time>
      </trkpt>
      <trkpt lat="45.61083" lon="6.50979">
        <ele>2380.4</ele>
        <time>2025-02-20T13:33:20Z</time>
      </trkpt>
      <trkpt lat="45.61083" lon="6.50978">
        <ele>2379.8</ele>
        <time>2025-02-20T13:33:21Z</time>
      </trkpt>
      <trkpt lat="45.61083" lon="6.50978">
        <ele>2379.8</ele>
        <time>2025-02-20T13:33:22Z</time>
      </trkpt>
      <trkpt lat="45.61083" lon="6.50978">
        <ele>2379.8</ele>
        <time>2025-02-20T13:33:23Z</time>
      </trkpt>
      <trkpt lat="45.61084" lon="6.50976">
        <ele>2379.8</ele>
        <time>2025-02-20T13:33:24Z</time>
      </trkpt>
      <trkpt lat="45.61083" lon="6.50975">
        <ele>2379.6</ele>
        <time>2025-02-20T13:33:25Z</time>
      </trkpt>
      <trkpt lat="45.61083" lon="6.50974">
        <ele>2379.6</ele>
        <time>2025-02-20T13:33:26Z</time>
      </trkpt>
      <trkpt lat="45.61084" lon="6.50973">
        <ele>2379.6</ele>
        <time>2025-02-20T13:33:27Z</time>
      </trkpt>
      <trkpt lat="45.61084" lon="6.50971">
        <ele>2379.6</ele>
        <time>2025-02-20T13:33:28Z</time>
      </trkpt>
      <trkpt lat="45.61084" lon="6.5097">
        <ele>2380.6</ele>
        <time>2025-02-20T13:33:29Z</time>
      </trkpt>
      <trkpt lat="45.61083" lon="6.50969">
        <ele>2380.6</ele>
        <time>2025-02-20T13:33:30Z</time>
      </trkpt>
      <trkpt lat="45.61083" lon="6.50967">
        <ele>2380.6</ele>
        <time>2025-02-20T13:33:31Z</time>
      </trkpt>
      <trkpt lat="45.61083" lon="6.50966">
        <ele>2380.6</ele>
        <time>2025-02-20T13:33:32Z</time>
      </trkpt>
      <trkpt lat="45.61083" lon="6.50964">
        <ele>2381.4</ele>
        <time>2025-02-20T13:33:33Z</time>
      </trkpt>
      <trkpt lat="45.61083" lon="6.50963">
        <ele>2381.4</ele>
        <time>2025-02-20T13:33:34Z</time>
      </trkpt>
      <trkpt lat="45.61084" lon="6.50961">
        <ele>2381.4</ele>
        <time>2025-02-20T13:33:35Z</time>
      </trkpt>
      <trkpt lat="45.61084" lon="6.5096">
        <ele>2380.4</ele>
        <time>2025-02-20T13:33:36Z</time>
      </trkpt>
      <trkpt lat="45.61084" lon="6.50959">
        <ele>2381.8</ele>
        <time>2025-02-20T13:33:37Z</time>
      </trkpt>
      <trkpt lat="45.61084" lon="6.50958">
        <ele>2381.8</ele>
        <time>2025-02-20T13:33:38Z</time>
      </trkpt>
      <trkpt lat="45.61084" lon="6.50956">
        <ele>2381.8</ele>
        <time>2025-02-20T13:33:39Z</time>
      </trkpt>
      <trkpt lat="45.61084" lon="6.50955">
        <ele>2380.8</ele>
        <time>2025-02-20T13:33:40Z</time>
      </trkpt>
      <trkpt lat="45.61084" lon="6.50954">
        <ele>2380</ele>
        <time>2025-02-20T13:33:41Z</time>
      </trkpt>
      <trkpt lat="45.61084" lon="6.50953">
        <ele>2380</ele>
        <time>2025-02-20T13:33:42Z</time>
      </trkpt>
      <trkpt lat="45.61084" lon="6.50952">
        <ele>2380</ele>
        <time>2025-02-20T13:33:43Z</time>
      </trkpt>
      <trkpt lat="45.61084" lon="6.50951">
        <ele>2380.6</ele>
        <time>2025-02-20T13:33:44Z</time>
      </trkpt>
      <trkpt lat="45.61084" lon="6.5095">
        <ele>2379.8</ele>
        <time>2025-02-20T13:33:45Z</time>
      </trkpt>
      <trkpt lat="45.61084" lon="6.50949">
        <ele>2379.8</ele>
        <time>2025-02-20T13:33:46Z</time>
      </trkpt>
      <trkpt lat="45.61084" lon="6.50948">
        <ele>2379.8</ele>
        <time>2025-02-20T13:33:47Z</time>
      </trkpt>
      <trkpt lat="45.61084" lon="6.50947">
        <ele>2379.8</ele>
        <time>2025-02-20T13:33:48Z</time>
      </trkpt>
      <trkpt lat="45.61084" lon="6.50946">
        <ele>2382.4</ele>
        <time>2025-02-20T13:33:49Z</time>
      </trkpt>
      <trkpt lat="45.61083" lon="6.50945">
        <ele>2382.4</ele>
        <time>2025-02-20T13:33:50Z</time>
      </trkpt>
      <trkpt lat="45.61083" lon="6.50944">
        <ele>2382.4</ele>
        <time>2025-02-20T13:33:51Z</time>
      </trkpt>
      <trkpt lat="45.61083" lon="6.50944">
        <ele>2381.4</ele>
        <time>2025-02-20T13:33:52Z</time>
      </trkpt>
      <trkpt lat="45.61083" lon="6.50943">
        <ele>2380.8</ele>
        <time>2025-02-20T13:33:53Z</time>
      </trkpt>
      <trkpt lat="45.61083" lon="6.50942">
        <ele>2380.8</ele>
        <time>2025-02-20T13:33:54Z</time>
      </trkpt>
      <trkpt lat="45.61083" lon="6.50941">
        <ele>2380.8</ele>
        <time>2025-02-20T13:33:55Z</time>
      </trkpt>
      <trkpt lat="45.61083" lon="6.5094">
        <ele>2381.8</ele>
        <time>2025-02-20T13:33:56Z</time>
      </trkpt>
      <trkpt lat="45.61083" lon="6.50939">
        <ele>2382.2</ele>
        <time>2025-02-20T13:33:57Z</time>
      </trkpt>
      <trkpt lat="45.61083" lon="6.50938">
        <ele>2382.2</ele>
        <time>2025-02-20T13:33:58Z</time>
      </trkpt>
      <trkpt lat="45.61083" lon="6.50937">
        <ele>2382.2</ele>
        <time>2025-02-20T13:33:59Z</time>
      </trkpt>
      <trkpt lat="45.61083" lon="6.50936">
        <ele>2382.2</ele>
        <time>2025-02-20T13:34:00Z</time>
      </trkpt>
      <trkpt lat="45.61083" lon="6.50935">
        <ele>2383.8</ele>
        <time>2025-02-20T13:34:01Z</time>
      </trkpt>
      <trkpt lat="45.61083" lon="6.50934">
        <ele>2383.8</ele>
        <time>2025-02-20T13:34:02Z</time>
      </trkpt>
      <trkpt lat="45.61083" lon="6.50933">
        <ele>2383.8</ele>
        <time>2025-02-20T13:34:03Z</time>
      </trkpt>
      <trkpt lat="45.61083" lon="6.50932">
        <ele>2382.8</ele>
        <time>2025-02-20T13:34:04Z</time>
      </trkpt>
      <trkpt lat="45.61083" lon="6.50931">
        <ele>2383.6</ele>
        <time>2025-02-20T13:34:05Z</time>
      </trkpt>
      <trkpt lat="45.61083" lon="6.5093">
        <ele>2383.6</ele>
        <time>2025-02-20T13:34:06Z</time>
      </trkpt>
      <trkpt lat="45.61083" lon="6.50929">
        <ele>2383.6</ele>
        <time>2025-02-20T13:34:07Z</time>
      </trkpt>
      <trkpt lat="45.61083" lon="6.50928">
        <ele>2383.6</ele>
        <time>2025-02-20T13:34:08Z</time>
      </trkpt>
      <trkpt lat="45.61082" lon="6.50927">
        <ele>2383.4</ele>
        <time>2025-02-20T13:34:09Z</time>
      </trkpt>
      <trkpt lat="45.61082" lon="6.50926">
        <ele>2383.4</ele>
        <time>2025-02-20T13:34:10Z</time>
      </trkpt>
      <trkpt lat="45.61082" lon="6.50925">
        <ele>2383.4</ele>
        <time>2025-02-20T13:34:11Z</time>
      </trkpt>
      <trkpt lat="45.61082" lon="6.50924">
        <ele>2383.4</ele>
        <time>2025-02-20T13:34:12Z</time>
      </trkpt>
      <trkpt lat="45.61082" lon="6.50923">
        <ele>2383.4</ele>
        <time>2025-02-20T13:34:13Z</time>
      </trkpt>
      <trkpt lat="45.61082" lon="6.50922">
        <ele>2383.4</ele>
        <time>2025-02-20T13:34:14Z</time>
      </trkpt>
      <trkpt lat="45.61083" lon="6.50921">
        <ele>2383.4</ele>
        <time>2025-02-20T13:34:15Z</time>
      </trkpt>
      <trkpt lat="45.61083" lon="6.50921">
        <ele>2384.4</ele>
        <time>2025-02-20T13:34:16Z</time>
      </trkpt>
      <trkpt lat="45.61084" lon="6.50921">
        <ele>2385.4</ele>
        <time>2025-02-20T13:34:17Z</time>
      </trkpt>
      <trkpt lat="45.61084" lon="6.50922">
        <ele>2385.4</ele>
        <time>2025-02-20T13:34:18Z</time>
      </trkpt>
      <trkpt lat="45.61084" lon="6.50922">
        <ele>2385.4</ele>
        <time>2025-02-20T13:34:19Z</time>
      </trkpt>
      <trkpt lat="45.61084" lon="6.50922">
        <ele>2385.4</ele>
        <time>2025-02-20T13:34:20Z</time>
      </trkpt>
      <trkpt lat="45.61084" lon="6.50922">
        <ele>2385.6</ele>
        <time>2025-02-20T13:34:21Z</time>
      </trkpt>
      <trkpt lat="45.61084" lon="6.50922">
        <ele>2385.6</ele>
        <time>2025-02-20T13:34:22Z</time>
      </trkpt>
      <trkpt lat="45.61084" lon="6.50922">
        <ele>2385.6</ele>
        <time>2025-02-20T13:34:23Z</time>
      </trkpt>
      <trkpt lat="45.61084" lon="6.50922">
        <ele>2385.6</ele>
        <time>2025-02-20T13:34:24Z</time>
      </trkpt>
      <trkpt lat="45.61084" lon="6.50922">
        <ele>2385.6</ele>
        <time>2025-02-20T13:34:25Z</time>
      </trkpt>
      <trkpt lat="45.61084" lon="6.50922">
        <ele>2385.6</ele>
        <time>2025-02-20T13:34:26Z</time>
      </trkpt>
      <trkpt lat="45.61084" lon="6.50922">
        <ele>2385.6</ele>
        <time>2025-02-20T13:34:27Z</time>
      </trkpt>
      <trkpt lat="45.61084" lon="6.50922">
        <ele>2385.6</ele>
        <time>2025-02-20T13:34:28Z</time>
      </trkpt>
      <trkpt lat="45.61084" lon="6.50922">
        <ele>2385.6</ele>
        <time>2025-02-20T13:34:29Z</time>
      </trkpt>
      <trkpt lat="45.61084" lon="6.50922">
        <ele>2385.6</ele>
        <time>2025-02-20T13:34:30Z</time>
      </trkpt>
      <trkpt lat="45.61084" lon="6.50922">
        <ele>2385.6</ele>
        <time>2025-02-20T13:34:31Z</time>
      </trkpt>
      <trkpt lat="45.61084" lon="6.50922">
        <ele>2386</ele>
        <time>2025-02-20T13:34:32Z</time>
      </trkpt>
      <trkpt lat="45.61084" lon="6.50922">
        <ele>2385.6</ele>
        <time>2025-02-20T13:34:33Z</time>
      </trkpt>
      <trkpt lat="45.61084" lon="6.50922">
        <ele>2385.6</ele>
        <time>2025-02-20T13:34:34Z</time>
      </trkpt>
      <trkpt lat="45.61084" lon="6.50922">
        <ele>2385.6</ele>
        <time>2025-02-20T13:34:35Z</time>
      </trkpt>
      <trkpt lat="45.61084" lon="6.50922">
        <ele>2385.6</ele>
        <time>2025-02-20T13:34:36Z</time>
      </trkpt>
      <trkpt lat="45.61084" lon="6.50922">
        <ele>2385.4</ele>
        <time>2025-02-20T13:34:37Z</time>
      </trkpt>
      <trkpt lat="45.61084" lon="6.50922">
        <ele>2385.4</ele>
        <time>2025-02-20T13:34:38Z</time>
      </trkpt>
      <trkpt lat="45.61084" lon="6.50922">
        <ele>2385.4</ele>
        <time>2025-02-20T13:34:39Z</time>
      </trkpt>
      <trkpt lat="45.61084" lon="6.50922">
        <ele>2385.4</ele>
        <time>2025-02-20T13:34:40Z</time>
      </trkpt>
      <trkpt lat="45.61084" lon="6.50922">
        <ele>2385.6</ele>
        <time>2025-02-20T13:34:41Z</time>
      </trkpt>
      <trkpt lat="45.61084" lon="6.50922">
        <ele>2385.6</ele>
        <time>2025-02-20T13:34:42Z</time>
      </trkpt>
      <trkpt lat="45.61084" lon="6.50922">
        <ele>2385.6</ele>
        <time>2025-02-20T13:34:43Z</time>
      </trkpt>
      <trkpt lat="45.61084" lon="6.50922">
        <ele>2385.2</ele>
        <time>2025-02-20T13:34:44Z</time>
      </trkpt>
      <trkpt lat="45.61084" lon="6.50922">
        <ele>2385</ele>
        <time>2025-02-20T13:34:45Z</time>
      </trkpt>
      <trkpt lat="45.61084" lon="6.50922">
        <ele>2385</ele>
        <time>2025-02-20T13:34:46Z</time>
      </trkpt>
      <trkpt lat="45.61084" lon="6.50922">
        <ele>2385</ele>
        <time>2025-02-20T13:34:47Z</time>
      </trkpt>
      <trkpt lat="45.61084" lon="6.50922">
        <ele>2385.4</ele>
        <time>2025-02-20T13:34:48Z</time>
      </trkpt>
      <trkpt lat="45.61084" lon="6.50922">
        <ele>2385.6</ele>
        <time>2025-02-20T13:34:49Z</time>
      </trkpt>
      <trkpt lat="45.61084" lon="6.50922">
        <ele>2385.6</ele>
        <time>2025-02-20T13:34:50Z</time>
      </trkpt>
      <trkpt lat="45.61084" lon="6.50922">
        <ele>2385.6</ele>
        <time>2025-02-20T13:34:51Z</time>
      </trkpt>
      <trkpt lat="45.61084" lon="6.50922">
        <ele>2385.6</ele>
        <time>2025-02-20T13:34:52Z</time>
      </trkpt>
      <trkpt lat="45.61084" lon="6.50922">
        <ele>2385.6</ele>
        <time>2025-02-20T13:34:53Z</time>
      </trkpt>
      <trkpt lat="45.61084" lon="6.50922">
        <ele>2385.6</ele>
        <time>2025-02-20T13:34:54Z</time>
      </trkpt>
      <trkpt lat="45.61084" lon="6.50922">
        <ele>2385.6</ele>
        <time>2025-02-20T13:34:55Z</time>
      </trkpt>
      <trkpt lat="45.61084" lon="6.50922">
        <ele>2385.6</ele>
        <time>2025-02-20T13:34:56Z</time>
      </trkpt>
      <trkpt lat="45.61084" lon="6.50922">
        <ele>2385</ele>
        <time>2025-02-20T13:34:57Z</time>
      </trkpt>
      <trkpt lat="45.61084" lon="6.50922">
        <ele>2385</ele>
        <time>2025-02-20T13:34:58Z</time>
      </trkpt>
      <trkpt lat="45.61084" lon="6.50922">
        <ele>2385</ele>
        <time>2025-02-20T13:34:59Z</time>
      </trkpt>
      <trkpt lat="45.61084" lon="6.50922">
        <ele>2385</ele>
        <time>2025-02-20T13:35:00Z</time>
      </trkpt>
      <trkpt lat="45.61084" lon="6.50922">
        <ele>2386.2</ele>
        <time>2025-02-20T13:35:01Z</time>
      </trkpt>
      <trkpt lat="45.61084" lon="6.50922">
        <ele>2386.2</ele>
        <time>2025-02-20T13:35:02Z</time>
      </trkpt>
      <trkpt lat="45.61084" lon="6.50922">
        <ele>2386.2</ele>
        <time>2025-02-20T13:35:03Z</time>
      </trkpt>
      <trkpt lat="45.61084" lon="6.50922">
        <ele>2386.2</ele>
        <time>2025-02-20T13:35:04Z</time>
      </trkpt>
      <trkpt lat="45.61084" lon="6.50922">
        <ele>2386</ele>
        <time>2025-02-20T13:35:05Z</time>
      </trkpt>
      <trkpt lat="45.61084" lon="6.50922">
        <ele>2386</ele>
        <time>2025-02-20T13:35:06Z</time>
      </trkpt>
      <trkpt lat="45.61084" lon="6.50922">
        <ele>2386</ele>
        <time>2025-02-20T13:35:07Z</time>
      </trkpt>
      <trkpt lat="45.61084" lon="6.50922">
        <ele>2386</ele>
        <time>2025-02-20T13:35:08Z</time>
      </trkpt>
      <trkpt lat="45.61084" lon="6.50922">
        <ele>2385.6</ele>
        <time>2025-02-20T13:35:09Z</time>
      </trkpt>
      <trkpt lat="45.61084" lon="6.50922">
        <ele>2385.6</ele>
        <time>2025-02-20T13:35:10Z</time>
      </trkpt>
      <trkpt lat="45.61084" lon="6.50922">
        <ele>2385.6</ele>
        <time>2025-02-20T13:35:11Z</time>
      </trkpt>
      <trkpt lat="45.61084" lon="6.50922">
        <ele>2385.6</ele>
        <time>2025-02-20T13:35:12Z</time>
      </trkpt>
      <trkpt lat="45.61084" lon="6.50922">
        <ele>2385.4</ele>
        <time>2025-02-20T13:35:13Z</time>
      </trkpt>
      <trkpt lat="45.61084" lon="6.50923">
        <ele>2385.4</ele>
        <time>2025-02-20T13:35:14Z</time>
      </trkpt>
      <trkpt lat="45.61084" lon="6.50923">
        <ele>2385.4</ele>
        <time>2025-02-20T13:35:15Z</time>
      </trkpt>
      <trkpt lat="45.61084" lon="6.50923">
        <ele>2385.6</ele>
        <time>2025-02-20T13:35:16Z</time>
      </trkpt>
      <trkpt lat="45.61084" lon="6.50923">
        <ele>2383.2</ele>
        <time>2025-02-20T13:35:17Z</time>
      </trkpt>
      <trkpt lat="45.61084" lon="6.50922">
        <ele>2383.2</ele>
        <time>2025-02-20T13:35:18Z</time>
      </trkpt>
      <trkpt lat="45.61084" lon="6.50921">
        <ele>2383.2</ele>
        <time>2025-02-20T13:35:19Z</time>
      </trkpt>
      <trkpt lat="45.61084" lon="6.50921">
        <ele>2383.2</ele>
        <time>2025-02-20T13:35:20Z</time>
      </trkpt>
      <trkpt lat="45.61084" lon="6.50921">
        <ele>2385.2</ele>
        <time>2025-02-20T13:35:21Z</time>
      </trkpt>
      <trkpt lat="45.61084" lon="6.50921">
        <ele>2385.2</ele>
        <time>2025-02-20T13:35:22Z</time>
      </trkpt>
      <trkpt lat="45.61084" lon="6.50921">
        <ele>2385.2</ele>
        <time>2025-02-20T13:35:23Z</time>
      </trkpt>
      <trkpt lat="45.61084" lon="6.50921">
        <ele>2385.2</ele>
        <time>2025-02-20T13:35:24Z</time>
      </trkpt>
      <trkpt lat="45.61084" lon="6.50921">
        <ele>2384.8</ele>
        <time>2025-02-20T13:35:25Z</time>
      </trkpt>
      <trkpt lat="45.61084" lon="6.50921">
        <ele>2384.8</ele>
        <time>2025-02-20T13:35:26Z</time>
      </trkpt>
      <trkpt lat="45.61084" lon="6.50921">
        <ele>2384.8</ele>
        <time>2025-02-20T13:35:27Z</time>
      </trkpt>
      <trkpt lat="45.61084" lon="6.50921">
        <ele>2385.6</ele>
        <time>2025-02-20T13:35:28Z</time>
      </trkpt>
      <trkpt lat="45.61084" lon="6.50921">
        <ele>2385</ele>
        <time>2025-02-20T13:35:29Z</time>
      </trkpt>
      <trkpt lat="45.61084" lon="6.50921">
        <ele>2385</ele>
        <time>2025-02-20T13:35:30Z</time>
      </trkpt>
      <trkpt lat="45.61084" lon="6.50921">
        <ele>2385</ele>
        <time>2025-02-20T13:35:31Z</time>
      </trkpt>
      <trkpt lat="45.61084" lon="6.50921">
        <ele>2385</ele>
        <time>2025-02-20T13:35:32Z</time>
      </trkpt>
      <trkpt lat="45.61084" lon="6.50921">
        <ele>2385.2</ele>
        <time>2025-02-20T13:35:33Z</time>
      </trkpt>
      <trkpt lat="45.61084" lon="6.50921">
        <ele>2385.2</ele>
        <time>2025-02-20T13:35:34Z</time>
      </trkpt>
      <trkpt lat="45.61084" lon="6.50921">
        <ele>2385.2</ele>
        <time>2025-02-20T13:35:35Z</time>
      </trkpt>
      <trkpt lat="45.61084" lon="6.50921">
        <ele>2385.2</ele>
        <time>2025-02-20T13:35:36Z</time>
      </trkpt>
      <trkpt lat="45.61084" lon="6.50921">
        <ele>2385</ele>
        <time>2025-02-20T13:35:37Z</time>
      </trkpt>
      <trkpt lat="45.61084" lon="6.50921">
        <ele>2385</ele>
        <time>2025-02-20T13:35:38Z</time>
      </trkpt>
      <trkpt lat="45.61084" lon="6.50921">
        <ele>2385</ele>
        <time>2025-02-20T13:35:39Z</time>
      </trkpt>
      <trkpt lat="45.61084" lon="6.50921">
        <ele>2385</ele>
        <time>2025-02-20T13:35:40Z</time>
      </trkpt>
      <trkpt lat="45.61084" lon="6.50922">
        <ele>2384.4</ele>
        <time>2025-02-20T13:35:41Z</time>
      </trkpt>
      <trkpt lat="45.61084" lon="6.50922">
        <ele>2384.4</ele>
        <time>2025-02-20T13:35:42Z</time>
      </trkpt>
      <trkpt lat="45.61084" lon="6.50922">
        <ele>2384.4</ele>
        <time>2025-02-20T13:35:43Z</time>
      </trkpt>
      <trkpt lat="45.61084" lon="6.50922">
        <ele>2384.4</ele>
        <time>2025-02-20T13:35:44Z</time>
      </trkpt>
      <trkpt lat="45.61084" lon="6.50922">
        <ele>2384.8</ele>
        <time>2025-02-20T13:35:45Z</time>
      </trkpt>
      <trkpt lat="45.61084" lon="6.50922">
        <ele>2384.8</ele>
        <time>2025-02-20T13:35:46Z</time>
      </trkpt>
      <trkpt lat="45.61084" lon="6.50922">
        <ele>2384.8</ele>
        <time>2025-02-20T13:35:47Z</time>
      </trkpt>
      <trkpt lat="45.61084" lon="6.50922">
        <ele>2384.8</ele>
        <time>2025-02-20T13:35:48Z</time>
      </trkpt>
      <trkpt lat="45.61084" lon="6.50922">
        <ele>2384.8</ele>
        <time>2025-02-20T13:35:49Z</time>
      </trkpt>
      <trkpt lat="45.61084" lon="6.50922">
        <ele>2384.8</ele>
        <time>2025-02-20T13:35:50Z</time>
      </trkpt>
      <trkpt lat="45.61084" lon="6.50922">
        <ele>2384.8</ele>
        <time>2025-02-20T13:35:51Z</time>
      </trkpt>
      <trkpt lat="45.61084" lon="6.50922">
        <ele>2384.6</ele>
        <time>2025-02-20T13:35:52Z</time>
      </trkpt>
      <trkpt lat="45.61084" lon="6.50922">
        <ele>2385.4</ele>
        <time>2025-02-20T13:35:53Z</time>
      </trkpt>
      <trkpt lat="45.61084" lon="6.50922">
        <ele>2385.4</ele>
        <time>2025-02-20T13:35:54Z</time>
      </trkpt>
      <trkpt lat="45.61084" lon="6.50922">
        <ele>2385.4</ele>
        <time>2025-02-20T13:35:55Z</time>
      </trkpt>
      <trkpt lat="45.61084" lon="6.50922">
        <ele>2385.2</ele>
        <time>2025-02-20T13:35:56Z</time>
      </trkpt>
      <trkpt lat="45.61084" lon="6.50922">
        <ele>2385.6</ele>
        <time>2025-02-20T13:35:57Z</time>
      </trkpt>
      <trkpt lat="45.61084" lon="6.50922">
        <ele>2385.6</ele>
        <time>2025-02-20T13:35:58Z</time>
      </trkpt>
      <trkpt lat="45.61084" lon="6.50922">
        <ele>2385.6</ele>
        <time>2025-02-20T13:35:59Z</time>
      </trkpt>
      <trkpt lat="45.61084" lon="6.50922">
        <ele>2385.2</ele>
        <time>2025-02-20T13:36:00Z</time>
      </trkpt>
      <trkpt lat="45.61084" lon="6.50922">
        <ele>2385.2</ele>
        <time>2025-02-20T13:36:01Z</time>
      </trkpt>
      <trkpt lat="45.61084" lon="6.50922">
        <ele>2385.2</ele>
        <time>2025-02-20T13:36:02Z</time>
      </trkpt>
      <trkpt lat="45.61084" lon="6.50922">
        <ele>2385.2</ele>
        <time>2025-02-20T13:36:03Z</time>
      </trkpt>
      <trkpt lat="45.61084" lon="6.50922">
        <ele>2384.8</ele>
        <time>2025-02-20T13:36:04Z</time>
      </trkpt>
      <trkpt lat="45.61084" lon="6.50922">
        <ele>2385</ele>
        <time>2025-02-20T13:36:05Z</time>
      </trkpt>
      <trkpt lat="45.61084" lon="6.50922">
        <ele>2385</ele>
        <time>2025-02-20T13:36:06Z</time>
      </trkpt>
      <trkpt lat="45.61084" lon="6.50922">
        <ele>2385</ele>
        <time>2025-02-20T13:36:07Z</time>
      </trkpt>
      <trkpt lat="45.61084" lon="6.50922">
        <ele>2385</ele>
        <time>2025-02-20T13:36:08Z</time>
      </trkpt>
      <trkpt lat="45.61084" lon="6.50922">
        <ele>2384.8</ele>
        <time>2025-02-20T13:36:09Z</time>
      </trkpt>
      <trkpt lat="45.61084" lon="6.50922">
        <ele>2384.8</ele>
        <time>2025-02-20T13:36:10Z</time>
      </trkpt>
      <trkpt lat="45.61084" lon="6.50922">
        <ele>2384.8</ele>
        <time>2025-02-20T13:36:11Z</time>
      </trkpt>
      <trkpt lat="45.61084" lon="6.50922">
        <ele>2385.4</ele>
        <time>2025-02-20T13:36:12Z</time>
      </trkpt>
      <trkpt lat="45.61084" lon="6.50922">
        <ele>2385</ele>
        <time>2025-02-20T13:36:13Z</time>
      </trkpt>
      <trkpt lat="45.61084" lon="6.50922">
        <ele>2385</ele>
        <time>2025-02-20T13:36:14Z</time>
      </trkpt>
      <trkpt lat="45.61084" lon="6.50922">
        <ele>2385</ele>
        <time>2025-02-20T13:36:15Z</time>
      </trkpt>
      <trkpt lat="45.61084" lon="6.50922">
        <ele>2385.4</ele>
        <time>2025-02-20T13:36:16Z</time>
      </trkpt>
      <trkpt lat="45.61084" lon="6.50922">
        <ele>2385</ele>
        <time>2025-02-20T13:36:17Z</time>
      </trkpt>
      <trkpt lat="45.61084" lon="6.50922">
        <ele>2385</ele>
        <time>2025-02-20T13:36:18Z</time>
      </trkpt>
      <trkpt lat="45.61084" lon="6.50922">
        <ele>2385</ele>
        <time>2025-02-20T13:36:19Z</time>
      </trkpt>
      <trkpt lat="45.61084" lon="6.50922">
        <ele>2385</ele>
        <time>2025-02-20T13:36:20Z</time>
      </trkpt>
      <trkpt lat="45.61084" lon="6.50922">
        <ele>2385.4</ele>
        <time>2025-02-20T13:36:21Z</time>
      </trkpt>
      <trkpt lat="45.61084" lon="6.50922">
        <ele>2385.4</ele>
        <time>2025-02-20T13:36:22Z</time>
      </trkpt>
      <trkpt lat="45.61084" lon="6.50922">
        <ele>2385.4</ele>
        <time>2025-02-20T13:36:23Z</time>
      </trkpt>
      <trkpt lat="45.61084" lon="6.50922">
        <ele>2385.4</ele>
        <time>2025-02-20T13:36:24Z</time>
      </trkpt>
      <trkpt lat="45.61084" lon="6.50922">
        <ele>2385.4</ele>
        <time>2025-02-20T13:36:25Z</time>
      </trkpt>
      <trkpt lat="45.61084" lon="6.50922">
        <ele>2385.4</ele>
        <time>2025-02-20T13:36:26Z</time>
      </trkpt>
      <trkpt lat="45.61084" lon="6.50922">
        <ele>2385.4</ele>
        <time>2025-02-20T13:36:27Z</time>
      </trkpt>
      <trkpt lat="45.61084" lon="6.50922">
        <ele>2385.4</ele>
        <time>2025-02-20T13:36:28Z</time>
      </trkpt>
      <trkpt lat="45.61084" lon="6.50922">
        <ele>2385.2</ele>
        <time>2025-02-20T13:36:29Z</time>
      </trkpt>
      <trkpt lat="45.61084" lon="6.50922">
        <ele>2385.2</ele>
        <time>2025-02-20T13:36:30Z</time>
      </trkpt>
      <trkpt lat="45.61084" lon="6.50922">
        <ele>2385.2</ele>
        <time>2025-02-20T13:36:31Z</time>
      </trkpt>
      <trkpt lat="45.61084" lon="6.50922">
        <ele>2385.2</ele>
        <time>2025-02-20T13:36:32Z</time>
      </trkpt>
      <trkpt lat="45.61084" lon="6.50922">
        <ele>2385</ele>
        <time>2025-02-20T13:36:33Z</time>
      </trkpt>
      <trkpt lat="45.61084" lon="6.50922">
        <ele>2385</ele>
        <time>2025-02-20T13:36:34Z</time>
      </trkpt>
      <trkpt lat="45.61084" lon="6.50922">
        <ele>2385</ele>
        <time>2025-02-20T13:36:35Z</time>
      </trkpt>
      <trkpt lat="45.61084" lon="6.50922">
        <ele>2385</ele>
        <time>2025-02-20T13:36:36Z</time>
      </trkpt>
      <trkpt lat="45.61084" lon="6.50922">
        <ele>2385</ele>
        <time>2025-02-20T13:36:37Z</time>
      </trkpt>
      <trkpt lat="45.61084" lon="6.50922">
        <ele>2385</ele>
        <time>2025-02-20T13:36:38Z</time>
      </trkpt>
      <trkpt lat="45.61084" lon="6.50922">
        <ele>2385</ele>
        <time>2025-02-20T13:36:39Z</time>
      </trkpt>
      <trkpt lat="45.61084" lon="6.50922">
        <ele>2385.2</ele>
        <time>2025-02-20T13:36:40Z</time>
      </trkpt>
      <trkpt lat="45.61084" lon="6.50922">
        <ele>2385.2</ele>
        <time>2025-02-20T13:36:41Z</time>
      </trkpt>
      <trkpt lat="45.61084" lon="6.50922">
        <ele>2385.2</ele>
        <time>2025-02-20T13:36:42Z</time>
      </trkpt>
      <trkpt lat="45.61084" lon="6.50922">
        <ele>2385.2</ele>
        <time>2025-02-20T13:36:43Z</time>
      </trkpt>
      <trkpt lat="45.61084" lon="6.50922">
        <ele>2385.6</ele>
        <time>2025-02-20T13:36:44Z</time>
      </trkpt>
      <trkpt lat="45.61084" lon="6.50922">
        <ele>2385.6</ele>
        <time>2025-02-20T13:36:45Z</time>
      </trkpt>
      <trkpt lat="45.61084" lon="6.50922">
        <ele>2385.6</ele>
        <time>2025-02-20T13:36:46Z</time>
      </trkpt>
      <trkpt lat="45.61084" lon="6.50922">
        <ele>2385.6</ele>
        <time>2025-02-20T13:36:47Z</time>
      </trkpt>
      <trkpt lat="45.61084" lon="6.50922">
        <ele>2385.6</ele>
        <time>2025-02-20T13:36:48Z</time>
      </trkpt>
      <trkpt lat="45.61084" lon="6.50922">
        <ele>2385</ele>
        <time>2025-02-20T13:36:49Z</time>
      </trkpt>
      <trkpt lat="45.61084" lon="6.50922">
        <ele>2385</ele>
        <time>2025-02-20T13:36:50Z</time>
      </trkpt>
      <trkpt lat="45.61084" lon="6.50922">
        <ele>2385</ele>
        <time>2025-02-20T13:36:51Z</time>
      </trkpt>
      <trkpt lat="45.61084" lon="6.50922">
        <ele>2385</ele>
        <time>2025-02-20T13:36:52Z</time>
      </trkpt>
      <trkpt lat="45.61084" lon="6.50922">
        <ele>2385</ele>
        <time>2025-02-20T13:36:53Z</time>
      </trkpt>
      <trkpt lat="45.61084" lon="6.50922">
        <ele>2385</ele>
        <time>2025-02-20T13:36:54Z</time>
      </trkpt>
      <trkpt lat="45.61084" lon="6.50922">
        <ele>2385</ele>
        <time>2025-02-20T13:36:55Z</time>
      </trkpt>
      <trkpt lat="45.61084" lon="6.50922">
        <ele>2384.6</ele>
        <time>2025-02-20T13:36:56Z</time>
      </trkpt>
      <trkpt lat="45.61084" lon="6.50922">
        <ele>2384.4</ele>
        <time>2025-02-20T13:36:57Z</time>
      </trkpt>
      <trkpt lat="45.61084" lon="6.50922">
        <ele>2384.4</ele>
        <time>2025-02-20T13:36:58Z</time>
      </trkpt>
      <trkpt lat="45.61084" lon="6.50922">
        <ele>2384.4</ele>
        <time>2025-02-20T13:36:59Z</time>
      </trkpt>
      <trkpt lat="45.61084" lon="6.50922">
        <ele>2385.2</ele>
        <time>2025-02-20T13:37:00Z</time>
      </trkpt>
      <trkpt lat="45.61084" lon="6.50922">
        <ele>2385.2</ele>
        <time>2025-02-20T13:37:01Z</time>
      </trkpt>
      <trkpt lat="45.61084" lon="6.50922">
        <ele>2385.2</ele>
        <time>2025-02-20T13:37:02Z</time>
      </trkpt>
      <trkpt lat="45.61084" lon="6.50922">
        <ele>2385.2</ele>
        <time>2025-02-20T13:37:03Z</time>
      </trkpt>
      <trkpt lat="45.61084" lon="6.50922">
        <ele>2385.2</ele>
        <time>2025-02-20T13:37:04Z</time>
      </trkpt>
      <trkpt lat="45.61084" lon="6.50922">
        <ele>2385.4</ele>
        <time>2025-02-20T13:37:05Z</time>
      </trkpt>
      <trkpt lat="45.61084" lon="6.50922">
        <ele>2385.4</ele>
        <time>2025-02-20T13:37:06Z</time>
      </trkpt>
      <trkpt lat="45.61084" lon="6.50922">
        <ele>2385.4</ele>
        <time>2025-02-20T13:37:07Z</time>
      </trkpt>
      <trkpt lat="45.61084" lon="6.50922">
        <ele>2385.2</ele>
        <time>2025-02-20T13:37:08Z</time>
      </trkpt>
      <trkpt lat="45.61084" lon="6.50922">
        <ele>2384.8</ele>
        <time>2025-02-20T13:37:09Z</time>
      </trkpt>
      <trkpt lat="45.61084" lon="6.50922">
        <ele>2384.8</ele>
        <time>2025-02-20T13:37:10Z</time>
      </trkpt>
      <trkpt lat="45.61084" lon="6.50922">
        <ele>2384.8</ele>
        <time>2025-02-20T13:37:11Z</time>
      </trkpt>
      <trkpt lat="45.61084" lon="6.50922">
        <ele>2384.8</ele>
        <time>2025-02-20T13:37:12Z</time>
      </trkpt>
      <trkpt lat="45.61084" lon="6.50922">
        <ele>2384.4</ele>
        <time>2025-02-20T13:37:13Z</time>
      </trkpt>
      <trkpt lat="45.61084" lon="6.50922">
        <ele>2384.4</ele>
        <time>2025-02-20T13:37:14Z</time>
      </trkpt>
      <trkpt lat="45.61084" lon="6.50922">
        <ele>2384.4</ele>
        <time>2025-02-20T13:37:15Z</time>
      </trkpt>
      <trkpt lat="45.61084" lon="6.50922">
        <ele>2384.4</ele>
        <time>2025-02-20T13:37:16Z</time>
      </trkpt>
      <trkpt lat="45.61084" lon="6.50922">
        <ele>2384.4</ele>
        <time>2025-02-20T13:37:17Z</time>
      </trkpt>
      <trkpt lat="45.61084" lon="6.50922">
        <ele>2384.4</ele>
        <time>2025-02-20T13:37:18Z</time>
      </trkpt>
      <trkpt lat="45.61084" lon="6.50922">
        <ele>2384.4</ele>
        <time>2025-02-20T13:37:19Z</time>
      </trkpt>
      <trkpt lat="45.61084" lon="6.50922">
        <ele>2384.4</ele>
        <time>2025-02-20T13:37:20Z</time>
      </trkpt>
      <trkpt lat="45.61084" lon="6.50922">
        <ele>2384</ele>
        <time>2025-02-20T13:37:21Z</time>
      </trkpt>
      <trkpt lat="45.61084" lon="6.50922">
        <ele>2384</ele>
        <time>2025-02-20T13:37:22Z</time>
      </trkpt>
      <trkpt lat="45.61084" lon="6.50922">
        <ele>2384</ele>
        <time>2025-02-20T13:37:23Z</time>
      </trkpt>
      <trkpt lat="45.61084" lon="6.50922">
        <ele>2384</ele>
        <time>2025-02-20T13:37:24Z</time>
      </trkpt>
      <trkpt lat="45.61084" lon="6.50922">
        <ele>2384</ele>
        <time>2025-02-20T13:37:25Z</time>
      </trkpt>
      <trkpt lat="45.61084" lon="6.50922">
        <ele>2384</ele>
        <time>2025-02-20T13:37:26Z</time>
      </trkpt>
      <trkpt lat="45.61084" lon="6.50922">
        <ele>2384</ele>
        <time>2025-02-20T13:37:27Z</time>
      </trkpt>
      <trkpt lat="45.61084" lon="6.50922">
        <ele>2384</ele>
        <time>2025-02-20T13:37:28Z</time>
      </trkpt>
      <trkpt lat="45.61084" lon="6.50922">
        <ele>2384.8</ele>
        <time>2025-02-20T13:37:29Z</time>
      </trkpt>
      <trkpt lat="45.61084" lon="6.50922">
        <ele>2384.8</ele>
        <time>2025-02-20T13:37:30Z</time>
      </trkpt>
      <trkpt lat="45.61084" lon="6.50922">
        <ele>2384.8</ele>
        <time>2025-02-20T13:37:31Z</time>
      </trkpt>
      <trkpt lat="45.61084" lon="6.50922">
        <ele>2384.8</ele>
        <time>2025-02-20T13:37:32Z</time>
      </trkpt>
      <trkpt lat="45.61084" lon="6.50922">
        <ele>2384.6</ele>
        <time>2025-02-20T13:37:33Z</time>
      </trkpt>
      <trkpt lat="45.61084" lon="6.50922">
        <ele>2384.6</ele>
        <time>2025-02-20T13:37:34Z</time>
      </trkpt>
      <trkpt lat="45.61084" lon="6.50922">
        <ele>2384.6</ele>
        <time>2025-02-20T13:37:35Z</time>
      </trkpt>
      <trkpt lat="45.61084" lon="6.50922">
        <ele>2384.6</ele>
        <time>2025-02-20T13:37:36Z</time>
      </trkpt>
      <trkpt lat="45.61084" lon="6.50922">
        <ele>2384.6</ele>
        <time>2025-02-20T13:37:37Z</time>
      </trkpt>
      <trkpt lat="45.61084" lon="6.50922">
        <ele>2384.6</ele>
        <time>2025-02-20T13:37:38Z</time>
      </trkpt>
      <trkpt lat="45.61084" lon="6.50922">
        <ele>2384.6</ele>
        <time>2025-02-20T13:37:39Z</time>
      </trkpt>
      <trkpt lat="45.61084" lon="6.50922">
        <ele>2384</ele>
        <time>2025-02-20T13:37:40Z</time>
      </trkpt>
      <trkpt lat="45.61084" lon="6.50922">
        <ele>2384.2</ele>
        <time>2025-02-20T13:37:41Z</time>
      </trkpt>
      <trkpt lat="45.61084" lon="6.50922">
        <ele>2384.2</ele>
        <time>2025-02-20T13:37:42Z</time>
      </trkpt>
      <trkpt lat="45.61084" lon="6.50922">
        <ele>2384.2</ele>
        <time>2025-02-20T13:37:43Z</time>
      </trkpt>
      <trkpt lat="45.61084" lon="6.50922">
        <ele>2384.2</ele>
        <time>2025-02-20T13:37:44Z</time>
      </trkpt>
      <trkpt lat="45.61084" lon="6.50922">
        <ele>2383.6</ele>
        <time>2025-02-20T13:37:45Z</time>
      </trkpt>
      <trkpt lat="45.61084" lon="6.50922">
        <ele>2383.6</ele>
        <time>2025-02-20T13:37:46Z</time>
      </trkpt>
      <trkpt lat="45.61084" lon="6.50922">
        <ele>2383.6</ele>
        <time>2025-02-20T13:37:47Z</time>
      </trkpt>
      <trkpt lat="45.61084" lon="6.50922">
        <ele>2384.4</ele>
        <time>2025-02-20T13:37:48Z</time>
      </trkpt>
      <trkpt lat="45.61084" lon="6.50922">
        <ele>2384.4</ele>
        <time>2025-02-20T13:37:49Z</time>
      </trkpt>
      <trkpt lat="45.61084" lon="6.50922">
        <ele>2384.4</ele>
        <time>2025-02-20T13:37:50Z</time>
      </trkpt>
      <trkpt lat="45.61084" lon="6.50922">
        <ele>2384.4</ele>
        <time>2025-02-20T13:37:51Z</time>
      </trkpt>
      <trkpt lat="45.61084" lon="6.50922">
        <ele>2384.4</ele>
        <time>2025-02-20T13:37:52Z</time>
      </trkpt>
      <trkpt lat="45.61084" lon="6.50922">
        <ele>2384.6</ele>
        <time>2025-02-20T13:37:53Z</time>
      </trkpt>
      <trkpt lat="45.61084" lon="6.50922">
        <ele>2384.6</ele>
        <time>2025-02-20T13:37:54Z</time>
      </trkpt>
      <trkpt lat="45.61084" lon="6.50922">
        <ele>2384.6</ele>
        <time>2025-02-20T13:37:55Z</time>
      </trkpt>
      <trkpt lat="45.61084" lon="6.50922">
        <ele>2384.6</ele>
        <time>2025-02-20T13:37:56Z</time>
      </trkpt>
      <trkpt lat="45.61084" lon="6.50922">
        <ele>2384.4</ele>
        <time>2025-02-20T13:37:57Z</time>
      </trkpt>
      <trkpt lat="45.61084" lon="6.50922">
        <ele>2384.4</ele>
        <time>2025-02-20T13:37:58Z</time>
      </trkpt>
      <trkpt lat="45.61084" lon="6.50922">
        <ele>2384.4</ele>
        <time>2025-02-20T13:37:59Z</time>
      </trkpt>
      <trkpt lat="45.61084" lon="6.50922">
        <ele>2384.4</ele>
        <time>2025-02-20T13:38:00Z</time>
      </trkpt>
      <trkpt lat="45.61084" lon="6.50922">
        <ele>2384.4</ele>
        <time>2025-02-20T13:38:01Z</time>
      </trkpt>
      <trkpt lat="45.61084" lon="6.50922">
        <ele>2384.4</ele>
        <time>2025-02-20T13:38:02Z</time>
      </trkpt>
      <trkpt lat="45.61084" lon="6.50922">
        <ele>2384.4</ele>
        <time>2025-02-20T13:38:03Z</time>
      </trkpt>
      <trkpt lat="45.61084" lon="6.50922">
        <ele>2384.4</ele>
        <time>2025-02-20T13:38:04Z</time>
      </trkpt>
      <trkpt lat="45.61084" lon="6.50922">
        <ele>2383.6</ele>
        <time>2025-02-20T13:38:05Z</time>
      </trkpt>
      <trkpt lat="45.61084" lon="6.50922">
        <ele>2383.6</ele>
        <time>2025-02-20T13:38:06Z</time>
      </trkpt>
      <trkpt lat="45.61084" lon="6.50922">
        <ele>2383.6</ele>
        <time>2025-02-20T13:38:07Z</time>
      </trkpt>
      <trkpt lat="45.61084" lon="6.50922">
        <ele>2384.4</ele>
        <time>2025-02-20T13:38:08Z</time>
      </trkpt>
      <trkpt lat="45.61084" lon="6.50922">
        <ele>2384.2</ele>
        <time>2025-02-20T13:38:09Z</time>
      </trkpt>
      <trkpt lat="45.61084" lon="6.50922">
        <ele>2384.2</ele>
        <time>2025-02-20T13:38:10Z</time>
      </trkpt>
      <trkpt lat="45.61084" lon="6.50922">
        <ele>2384.2</ele>
        <time>2025-02-20T13:38:11Z</time>
      </trkpt>
      <trkpt lat="45.61084" lon="6.50922">
        <ele>2384.2</ele>
        <time>2025-02-20T13:38:12Z</time>
      </trkpt>
      <trkpt lat="45.61084" lon="6.50922">
        <ele>2384.4</ele>
        <time>2025-02-20T13:38:13Z</time>
      </trkpt>
      <trkpt lat="45.61084" lon="6.50922">
        <ele>2384.4</ele>
        <time>2025-02-20T13:38:14Z</time>
      </trkpt>
      <trkpt lat="45.61084" lon="6.50922">
        <ele>2384.4</ele>
        <time>2025-02-20T13:38:15Z</time>
      </trkpt>
      <trkpt lat="45.61084" lon="6.50922">
        <ele>2384.8</ele>
        <time>2025-02-20T13:38:16Z</time>
      </trkpt>
      <trkpt lat="45.61084" lon="6.50922">
        <ele>2383.8</ele>
        <time>2025-02-20T13:38:17Z</time>
      </trkpt>
      <trkpt lat="45.61084" lon="6.50922">
        <ele>2383.8</ele>
        <time>2025-02-20T13:38:18Z</time>
      </trkpt>
      <trkpt lat="45.61084" lon="6.50922">
        <ele>2383.8</ele>
        <time>2025-02-20T13:38:19Z</time>
      </trkpt>
      <trkpt lat="45.61084" lon="6.50922">
        <ele>2383.8</ele>
        <time>2025-02-20T13:38:20Z</time>
      </trkpt>
      <trkpt lat="45.61084" lon="6.50922">
        <ele>2384.4</ele>
        <time>2025-02-20T13:38:21Z</time>
      </trkpt>
      <trkpt lat="45.61084" lon="6.50922">
        <ele>2384.4</ele>
        <time>2025-02-20T13:38:22Z</time>
      </trkpt>
      <trkpt lat="45.61084" lon="6.50922">
        <ele>2384.4</ele>
        <time>2025-02-20T13:38:23Z</time>
      </trkpt>
      <trkpt lat="45.61084" lon="6.50922">
        <ele>2383.8</ele>
        <time>2025-02-20T13:38:24Z</time>
      </trkpt>
      <trkpt lat="45.61084" lon="6.50922">
        <ele>2384.2</ele>
        <time>2025-02-20T13:38:25Z</time>
      </trkpt>
      <trkpt lat="45.61084" lon="6.50922">
        <ele>2384.2</ele>
        <time>2025-02-20T13:38:26Z</time>
      </trkpt>
      <trkpt lat="45.61084" lon="6.50922">
        <ele>2384.2</ele>
        <time>2025-02-20T13:38:27Z</time>
      </trkpt>
      <trkpt lat="45.61084" lon="6.50922">
        <ele>2384.6</ele>
        <time>2025-02-20T13:38:28Z</time>
      </trkpt>
      <trkpt lat="45.61084" lon="6.50922">
        <ele>2384.4</ele>
        <time>2025-02-20T13:38:29Z</time>
      </trkpt>
      <trkpt lat="45.61084" lon="6.50922">
        <ele>2384.4</ele>
        <time>2025-02-20T13:38:30Z</time>
      </trkpt>
      <trkpt lat="45.61084" lon="6.50922">
        <ele>2384.4</ele>
        <time>2025-02-20T13:38:31Z</time>
      </trkpt>
      <trkpt lat="45.61084" lon="6.50922">
        <ele>2384</ele>
        <time>2025-02-20T13:38:32Z</time>
      </trkpt>
      <trkpt lat="45.61084" lon="6.50922">
        <ele>2384.6</ele>
        <time>2025-02-20T13:38:33Z</time>
      </trkpt>
      <trkpt lat="45.61084" lon="6.50922">
        <ele>2384.6</ele>
        <time>2025-02-20T13:38:34Z</time>
      </trkpt>
      <trkpt lat="45.61084" lon="6.50922">
        <ele>2384.6</ele>
        <time>2025-02-20T13:38:35Z</time>
      </trkpt>
      <trkpt lat="45.61084" lon="6.50922">
        <ele>2384.6</ele>
        <time>2025-02-20T13:38:36Z</time>
      </trkpt>
      <trkpt lat="45.61084" lon="6.50922">
        <ele>2384.2</ele>
        <time>2025-02-20T13:38:37Z</time>
      </trkpt>
      <trkpt lat="45.61084" lon="6.50922">
        <ele>2384.2</ele>
        <time>2025-02-20T13:38:38Z</time>
      </trkpt>
      <trkpt lat="45.61084" lon="6.50922">
        <ele>2384.2</ele>
        <time>2025-02-20T13:38:39Z</time>
      </trkpt>
      <trkpt lat="45.61084" lon="6.50922">
        <ele>2385.2</ele>
        <time>2025-02-20T13:38:40Z</time>
      </trkpt>
      <trkpt lat="45.61084" lon="6.50922">
        <ele>2385.4</ele>
        <time>2025-02-20T13:38:41Z</time>
      </trkpt>
      <trkpt lat="45.61084" lon="6.50922">
        <ele>2385.4</ele>
        <time>2025-02-20T13:38:42Z</time>
      </trkpt>
      <trkpt lat="45.61084" lon="6.50922">
        <ele>2385.4</ele>
        <time>2025-02-20T13:38:43Z</time>
      </trkpt>
      <trkpt lat="45.61084" lon="6.50922">
        <ele>2384.4</ele>
        <time>2025-02-20T13:38:44Z</time>
      </trkpt>
      <trkpt lat="45.61084" lon="6.50922">
        <ele>2384.2</ele>
        <time>2025-02-20T13:38:45Z</time>
      </trkpt>
      <trkpt lat="45.61084" lon="6.50922">
        <ele>2384.2</ele>
        <time>2025-02-20T13:38:46Z</time>
      </trkpt>
      <trkpt lat="45.61084" lon="6.50922">
        <ele>2384.2</ele>
        <time>2025-02-20T13:38:47Z</time>
      </trkpt>
      <trkpt lat="45.61084" lon="6.50922">
        <ele>2384.2</ele>
        <time>2025-02-20T13:38:48Z</time>
      </trkpt>
      <trkpt lat="45.61084" lon="6.50922">
        <ele>2384.4</ele>
        <time>2025-02-20T13:38:49Z</time>
      </trkpt>
      <trkpt lat="45.61084" lon="6.50922">
        <ele>2384.4</ele>
        <time>2025-02-20T13:38:50Z</time>
      </trkpt>
      <trkpt lat="45.61084" lon="6.50922">
        <ele>2384.4</ele>
        <time>2025-02-20T13:38:51Z</time>
      </trkpt>
      <trkpt lat="45.61084" lon="6.50922">
        <ele>2384.4</ele>
        <time>2025-02-20T13:38:52Z</time>
      </trkpt>
      <trkpt lat="45.61084" lon="6.50922">
        <ele>2384.4</ele>
        <time>2025-02-20T13:38:53Z</time>
      </trkpt>
      <trkpt lat="45.61084" lon="6.50922">
        <ele>2384.4</ele>
        <time>2025-02-20T13:38:54Z</time>
      </trkpt>
      <trkpt lat="45.61084" lon="6.50922">
        <ele>2384.4</ele>
        <time>2025-02-20T13:38:55Z</time>
      </trkpt>
      <trkpt lat="45.61084" lon="6.50922">
        <ele>2384.4</ele>
        <time>2025-02-20T13:38:56Z</time>
      </trkpt>
      <trkpt lat="45.61084" lon="6.50922">
        <ele>2384</ele>
        <time>2025-02-20T13:38:57Z</time>
      </trkpt>
      <trkpt lat="45.61084" lon="6.50922">
        <ele>2384</ele>
        <time>2025-02-20T13:38:58Z</time>
      </trkpt>
      <trkpt lat="45.61084" lon="6.50922">
        <ele>2384</ele>
        <time>2025-02-20T13:38:59Z</time>
      </trkpt>
      <trkpt lat="45.61084" lon="6.50922">
        <ele>2384</ele>
        <time>2025-02-20T13:39:00Z</time>
      </trkpt>
      <trkpt lat="45.61084" lon="6.50922">
        <ele>2384</ele>
        <time>2025-02-20T13:39:01Z</time>
      </trkpt>
      <trkpt lat="45.61084" lon="6.50922">
        <ele>2384</ele>
        <time>2025-02-20T13:39:02Z</time>
      </trkpt>
      <trkpt lat="45.61084" lon="6.50922">
        <ele>2384</ele>
        <time>2025-02-20T13:39:03Z</time>
      </trkpt>
      <trkpt lat="45.61084" lon="6.50922">
        <ele>2384.2</ele>
        <time>2025-02-20T13:39:04Z</time>
      </trkpt>
      <trkpt lat="45.61084" lon="6.50922">
        <ele>2384.2</ele>
        <time>2025-02-20T13:39:05Z</time>
      </trkpt>
      <trkpt lat="45.61084" lon="6.50922">
        <ele>2384.2</ele>
        <time>2025-02-20T13:39:06Z</time>
      </trkpt>
      <trkpt lat="45.61084" lon="6.50922">
        <ele>2384.2</ele>
        <time>2025-02-20T13:39:07Z</time>
      </trkpt>
      <trkpt lat="45.61084" lon="6.50922">
        <ele>2384.2</ele>
        <time>2025-02-20T13:39:08Z</time>
      </trkpt>
      <trkpt lat="45.61084" lon="6.50922">
        <ele>2384</ele>
        <time>2025-02-20T13:39:09Z</time>
      </trkpt>
      <trkpt lat="45.61084" lon="6.50922">
        <ele>2384</ele>
        <time>2025-02-20T13:39:10Z</time>
      </trkpt>
      <trkpt lat="45.61084" lon="6.50922">
        <ele>2384</ele>
        <time>2025-02-20T13:39:11Z</time>
      </trkpt>
      <trkpt lat="45.61084" lon="6.50922">
        <ele>2384</ele>
        <time>2025-02-20T13:39:12Z</time>
      </trkpt>
      <trkpt lat="45.61084" lon="6.50922">
        <ele>2383.8</ele>
        <time>2025-02-20T13:39:13Z</time>
      </trkpt>
      <trkpt lat="45.61084" lon="6.50922">
        <ele>2383.8</ele>
        <time>2025-02-20T13:39:14Z</time>
      </trkpt>
      <trkpt lat="45.61084" lon="6.50922">
        <ele>2383.8</ele>
        <time>2025-02-20T13:39:15Z</time>
      </trkpt>
      <trkpt lat="45.61084" lon="6.50922">
        <ele>2384</ele>
        <time>2025-02-20T13:39:16Z</time>
      </trkpt>
      <trkpt lat="45.61084" lon="6.50922">
        <ele>2384</ele>
        <time>2025-02-20T13:39:17Z</time>
      </trkpt>
      <trkpt lat="45.61084" lon="6.50922">
        <ele>2384</ele>
        <time>2025-02-20T13:39:18Z</time>
      </trkpt>
      <trkpt lat="45.61084" lon="6.50922">
        <ele>2384</ele>
        <time>2025-02-20T13:39:19Z</time>
      </trkpt>
      <trkpt lat="45.61084" lon="6.50922">
        <ele>2384</ele>
        <time>2025-02-20T13:39:20Z</time>
      </trkpt>
      <trkpt lat="45.61084" lon="6.50922">
        <ele>2384.2</ele>
        <time>2025-02-20T13:39:21Z</time>
      </trkpt>
      <trkpt lat="45.61084" lon="6.50922">
        <ele>2384.2</ele>
        <time>2025-02-20T13:39:22Z</time>
      </trkpt>
      <trkpt lat="45.61084" lon="6.50922">
        <ele>2384.2</ele>
        <time>2025-02-20T13:39:23Z</time>
      </trkpt>
      <trkpt lat="45.61084" lon="6.50922">
        <ele>2384.4</ele>
        <time>2025-02-20T13:39:24Z</time>
      </trkpt>
      <trkpt lat="45.61084" lon="6.50922">
        <ele>2384.2</ele>
        <time>2025-02-20T13:39:25Z</time>
      </trkpt>
      <trkpt lat="45.61084" lon="6.50922">
        <ele>2384.2</ele>
        <time>2025-02-20T13:39:26Z</time>
      </trkpt>
      <trkpt lat="45.61084" lon="6.50922">
        <ele>2384.2</ele>
        <time>2025-02-20T13:39:27Z</time>
      </trkpt>
      <trkpt lat="45.61084" lon="6.50922">
        <ele>2384</ele>
        <time>2025-02-20T13:39:28Z</time>
      </trkpt>
      <trkpt lat="45.61084" lon="6.50922">
        <ele>2384.2</ele>
        <time>2025-02-20T13:39:29Z</time>
      </trkpt>
      <trkpt lat="45.61084" lon="6.50922">
        <ele>2384.2</ele>
        <time>2025-02-20T13:39:30Z</time>
      </trkpt>
      <trkpt lat="45.61084" lon="6.50922">
        <ele>2384.2</ele>
        <time>2025-02-20T13:39:31Z</time>
      </trkpt>
      <trkpt lat="45.61084" lon="6.50922">
        <ele>2384.2</ele>
        <time>2025-02-20T13:39:32Z</time>
      </trkpt>
      <trkpt lat="45.61084" lon="6.50922">
        <ele>2383.8</ele>
        <time>2025-02-20T13:39:33Z</time>
      </trkpt>
      <trkpt lat="45.61084" lon="6.50922">
        <ele>2383.8</ele>
        <time>2025-02-20T13:39:34Z</time>
      </trkpt>
      <trkpt lat="45.61084" lon="6.50922">
        <ele>2383.8</ele>
        <time>2025-02-20T13:39:35Z</time>
      </trkpt>
      <trkpt lat="45.61084" lon="6.50922">
        <ele>2383.8</ele>
        <time>2025-02-20T13:39:36Z</time>
      </trkpt>
      <trkpt lat="45.61084" lon="6.50922">
        <ele>2384.4</ele>
        <time>2025-02-20T13:39:37Z</time>
      </trkpt>
      <trkpt lat="45.61084" lon="6.50922">
        <ele>2384.4</ele>
        <time>2025-02-20T13:39:38Z</time>
      </trkpt>
      <trkpt lat="45.61084" lon="6.50922">
        <ele>2384.4</ele>
        <time>2025-02-20T13:39:39Z</time>
      </trkpt>
      <trkpt lat="45.61084" lon="6.50922">
        <ele>2383.6</ele>
        <time>2025-02-20T13:39:40Z</time>
      </trkpt>
      <trkpt lat="45.61084" lon="6.50922">
        <ele>2383.2</ele>
        <time>2025-02-20T13:39:41Z</time>
      </trkpt>
      <trkpt lat="45.61084" lon="6.50922">
        <ele>2383.2</ele>
        <time>2025-02-20T13:39:42Z</time>
      </trkpt>
      <trkpt lat="45.61084" lon="6.50922">
        <ele>2383.2</ele>
        <time>2025-02-20T13:39:43Z</time>
      </trkpt>
      <trkpt lat="45.61084" lon="6.50922">
        <ele>2384</ele>
        <time>2025-02-20T13:39:44Z</time>
      </trkpt>
      <trkpt lat="45.61084" lon="6.50922">
        <ele>2383.6</ele>
        <time>2025-02-20T13:39:45Z</time>
      </trkpt>
      <trkpt lat="45.61084" lon="6.50922">
        <ele>2383.6</ele>
        <time>2025-02-20T13:39:46Z</time>
      </trkpt>
      <trkpt lat="45.61084" lon="6.50922">
        <ele>2383.6</ele>
        <time>2025-02-20T13:39:47Z</time>
      </trkpt>
      <trkpt lat="45.61084" lon="6.50922">
        <ele>2383.6</ele>
        <time>2025-02-20T13:39:48Z</time>
      </trkpt>
      <trkpt lat="45.61084" lon="6.50922">
        <ele>2384</ele>
        <time>2025-02-20T13:39:49Z</time>
      </trkpt>
      <trkpt lat="45.61084" lon="6.50922">
        <ele>2384</ele>
        <time>2025-02-20T13:39:50Z</time>
      </trkpt>
      <trkpt lat="45.61084" lon="6.50922">
        <ele>2384</ele>
        <time>2025-02-20T13:39:51Z</time>
      </trkpt>
      <trkpt lat="45.61084" lon="6.50922">
        <ele>2384</ele>
        <time>2025-02-20T13:39:52Z</time>
      </trkpt>
      <trkpt lat="45.61084" lon="6.50922">
        <ele>2383.8</ele>
        <time>2025-02-20T13:39:53Z</time>
      </trkpt>
      <trkpt lat="45.61084" lon="6.50922">
        <ele>2383.8</ele>
        <time>2025-02-20T13:39:54Z</time>
      </trkpt>
      <trkpt lat="45.61084" lon="6.50922">
        <ele>2383.8</ele>
        <time>2025-02-20T13:39:55Z</time>
      </trkpt>
      <trkpt lat="45.61084" lon="6.50922">
        <ele>2383.6</ele>
        <time>2025-02-20T13:39:56Z</time>
      </trkpt>
      <trkpt lat="45.61084" lon="6.50922">
        <ele>2383.8</ele>
        <time>2025-02-20T13:39:57Z</time>
      </trkpt>
      <trkpt lat="45.61084" lon="6.50922">
        <ele>2383.8</ele>
        <time>2025-02-20T13:39:58Z</time>
      </trkpt>
      <trkpt lat="45.61084" lon="6.50922">
        <ele>2383.8</ele>
        <time>2025-02-20T13:39:59Z</time>
      </trkpt>
      <trkpt lat="45.61084" lon="6.50922">
        <ele>2383.8</ele>
        <time>2025-02-20T13:40:00Z</time>
      </trkpt>
      <trkpt lat="45.61084" lon="6.50922">
        <ele>2383.8</ele>
        <time>2025-02-20T13:40:01Z</time>
      </trkpt>
      <trkpt lat="45.61084" lon="6.50922">
        <ele>2383.8</ele>
        <time>2025-02-20T13:40:02Z</time>
      </trkpt>
      <trkpt lat="45.61084" lon="6.50922">
        <ele>2383.8</ele>
        <time>2025-02-20T13:40:03Z</time>
      </trkpt>
      <trkpt lat="45.61084" lon="6.50922">
        <ele>2383.8</ele>
        <time>2025-02-20T13:40:04Z</time>
      </trkpt>
      <trkpt lat="45.61084" lon="6.50922">
        <ele>2383.8</ele>
        <time>2025-02-20T13:40:05Z</time>
      </trkpt>
      <trkpt lat="45.61084" lon="6.50922">
        <ele>2383.8</ele>
        <time>2025-02-20T13:40:06Z</time>
      </trkpt>
      <trkpt lat="45.61084" lon="6.50922">
        <ele>2383.8</ele>
        <time>2025-02-20T13:40:07Z</time>
      </trkpt>
      <trkpt lat="45.61084" lon="6.50922">
        <ele>2383.8</ele>
        <time>2025-02-20T13:40:08Z</time>
      </trkpt>
      <trkpt lat="45.61084" lon="6.50922">
        <ele>2383.6</ele>
        <time>2025-02-20T13:40:09Z</time>
      </trkpt>
      <trkpt lat="45.61084" lon="6.50922">
        <ele>2383.6</ele>
        <time>2025-02-20T13:40:10Z</time>
      </trkpt>
      <trkpt lat="45.61084" lon="6.50922">
        <ele>2383.6</ele>
        <time>2025-02-20T13:40:11Z</time>
      </trkpt>
      <trkpt lat="45.61084" lon="6.50922">
        <ele>2383.6</ele>
        <time>2025-02-20T13:40:12Z</time>
      </trkpt>
      <trkpt lat="45.61084" lon="6.50922">
        <ele>2384.6</ele>
        <time>2025-02-20T13:40:13Z</time>
      </trkpt>
      <trkpt lat="45.61084" lon="6.50922">
        <ele>2384.6</ele>
        <time>2025-02-20T13:40:14Z</time>
      </trkpt>
      <trkpt lat="45.61084" lon="6.50922">
        <ele>2384.6</ele>
        <time>2025-02-20T13:40:15Z</time>
      </trkpt>
      <trkpt lat="45.61084" lon="6.50922">
        <ele>2383.6</ele>
        <time>2025-02-20T13:40:16Z</time>
      </trkpt>
      <trkpt lat="45.61084" lon="6.50922">
        <ele>2383.8</ele>
        <time>2025-02-20T13:40:17Z</time>
      </trkpt>
      <trkpt lat="45.61084" lon="6.50922">
        <ele>2383.8</ele>
        <time>2025-02-20T13:40:18Z</time>
      </trkpt>
      <trkpt lat="45.61084" lon="6.50922">
        <ele>2383.8</ele>
        <time>2025-02-20T13:40:19Z</time>
      </trkpt>
      <trkpt lat="45.61084" lon="6.50922">
        <ele>2383.8</ele>
        <time>2025-02-20T13:40:20Z</time>
      </trkpt>
      <trkpt lat="45.61084" lon="6.50922">
        <ele>2382.8</ele>
        <time>2025-02-20T13:40:21Z</time>
      </trkpt>
      <trkpt lat="45.61083" lon="6.50921">
        <ele>2382.8</ele>
        <time>2025-02-20T13:40:22Z</time>
      </trkpt>
      <trkpt lat="45.61083" lon="6.50922">
        <ele>2382.8</ele>
        <time>2025-02-20T13:40:23Z</time>
      </trkpt>
      <trkpt lat="45.61083" lon="6.50922">
        <ele>2383.8</ele>
        <time>2025-02-20T13:40:24Z</time>
      </trkpt>
      <trkpt lat="45.61083" lon="6.50922">
        <ele>2383.8</ele>
        <time>2025-02-20T13:40:25Z</time>
      </trkpt>
      <trkpt lat="45.61083" lon="6.50922">
        <ele>2383.8</ele>
        <time>2025-02-20T13:40:26Z</time>
      </trkpt>
      <trkpt lat="45.61083" lon="6.50922">
        <ele>2383.8</ele>
        <time>2025-02-20T13:40:27Z</time>
      </trkpt>
      <trkpt lat="45.61083" lon="6.50922">
        <ele>2384.4</ele>
        <time>2025-02-20T13:40:28Z</time>
      </trkpt>
      <trkpt lat="45.61083" lon="6.50922">
        <ele>2384.2</ele>
        <time>2025-02-20T13:40:29Z</time>
      </trkpt>
      <trkpt lat="45.61083" lon="6.50922">
        <ele>2384.2</ele>
        <time>2025-02-20T13:40:30Z</time>
      </trkpt>
      <trkpt lat="45.61083" lon="6.50922">
        <ele>2384.2</ele>
        <time>2025-02-20T13:40:31Z</time>
      </trkpt>
      <trkpt lat="45.61083" lon="6.50922">
        <ele>2384.2</ele>
        <time>2025-02-20T13:40:32Z</time>
      </trkpt>
      <trkpt lat="45.61083" lon="6.50922">
        <ele>2384.6</ele>
        <time>2025-02-20T13:40:33Z</time>
      </trkpt>
      <trkpt lat="45.61083" lon="6.50922">
        <ele>2384.6</ele>
        <time>2025-02-20T13:40:34Z</time>
      </trkpt>
      <trkpt lat="45.61083" lon="6.50922">
        <ele>2384.6</ele>
        <time>2025-02-20T13:40:35Z</time>
      </trkpt>
      <trkpt lat="45.61083" lon="6.50922">
        <ele>2384.6</ele>
        <time>2025-02-20T13:40:36Z</time>
      </trkpt>
      <trkpt lat="45.61083" lon="6.50922">
        <ele>2384.4</ele>
        <time>2025-02-20T13:40:37Z</time>
      </trkpt>
      <trkpt lat="45.61083" lon="6.50922">
        <ele>2384.4</ele>
        <time>2025-02-20T13:40:38Z</time>
      </trkpt>
      <trkpt lat="45.61083" lon="6.50922">
        <ele>2384.4</ele>
        <time>2025-02-20T13:40:39Z</time>
      </trkpt>
      <trkpt lat="45.61083" lon="6.50922">
        <ele>2384.4</ele>
        <time>2025-02-20T13:40:40Z</time>
      </trkpt>
      <trkpt lat="45.61083" lon="6.50922">
        <ele>2384.2</ele>
        <time>2025-02-20T13:40:41Z</time>
      </trkpt>
      <trkpt lat="45.61083" lon="6.50922">
        <ele>2384.2</ele>
        <time>2025-02-20T13:40:42Z</time>
      </trkpt>
      <trkpt lat="45.61083" lon="6.50922">
        <ele>2384.2</ele>
        <time>2025-02-20T13:40:43Z</time>
      </trkpt>
      <trkpt lat="45.61083" lon="6.50922">
        <ele>2384.6</ele>
        <time>2025-02-20T13:40:44Z</time>
      </trkpt>
      <trkpt lat="45.61083" lon="6.50922">
        <ele>2384.4</ele>
        <time>2025-02-20T13:40:45Z</time>
      </trkpt>
      <trkpt lat="45.61083" lon="6.50922">
        <ele>2384.4</ele>
        <time>2025-02-20T13:40:46Z</time>
      </trkpt>
      <trkpt lat="45.61083" lon="6.50922">
        <ele>2384.4</ele>
        <time>2025-02-20T13:40:47Z</time>
      </trkpt>
      <trkpt lat="45.61083" lon="6.50922">
        <ele>2384.4</ele>
        <time>2025-02-20T13:40:48Z</time>
      </trkpt>
      <trkpt lat="45.61083" lon="6.50922">
        <ele>2385</ele>
        <time>2025-02-20T13:40:49Z</time>
      </trkpt>
      <trkpt lat="45.61084" lon="6.50921">
        <ele>2385</ele>
        <time>2025-02-20T13:40:50Z</time>
      </trkpt>
      <trkpt lat="45.61084" lon="6.50921">
        <ele>2385</ele>
        <time>2025-02-20T13:40:51Z</time>
      </trkpt>
      <trkpt lat="45.61084" lon="6.50921">
        <ele>2384</ele>
        <time>2025-02-20T13:40:52Z</time>
      </trkpt>
      <trkpt lat="45.61084" lon="6.50921">
        <ele>2383.8</ele>
        <time>2025-02-20T13:40:53Z</time>
      </trkpt>
      <trkpt lat="45.61084" lon="6.50921">
        <ele>2383.8</ele>
        <time>2025-02-20T13:40:54Z</time>
      </trkpt>
      <trkpt lat="45.61084" lon="6.50921">
        <ele>2383.8</ele>
        <time>2025-02-20T13:40:55Z</time>
      </trkpt>
      <trkpt lat="45.61084" lon="6.50921">
        <ele>2383.8</ele>
        <time>2025-02-20T13:40:56Z</time>
      </trkpt>
      <trkpt lat="45.61084" lon="6.50921">
        <ele>2383.6</ele>
        <time>2025-02-20T13:40:57Z</time>
      </trkpt>
      <trkpt lat="45.61084" lon="6.50921">
        <ele>2383.6</ele>
        <time>2025-02-20T13:40:58Z</time>
      </trkpt>
      <trkpt lat="45.61084" lon="6.50921">
        <ele>2383.6</ele>
        <time>2025-02-20T13:40:59Z</time>
      </trkpt>
      <trkpt lat="45.61084" lon="6.50921">
        <ele>2383.6</ele>
        <time>2025-02-20T13:41:00Z</time>
      </trkpt>
      <trkpt lat="45.61084" lon="6.50921">
        <ele>2384</ele>
        <time>2025-02-20T13:41:01Z</time>
      </trkpt>
      <trkpt lat="45.61084" lon="6.50921">
        <ele>2384</ele>
        <time>2025-02-20T13:41:02Z</time>
      </trkpt>
      <trkpt lat="45.61084" lon="6.50921">
        <ele>2384</ele>
        <time>2025-02-20T13:41:03Z</time>
      </trkpt>
      <trkpt lat="45.61084" lon="6.50923">
        <ele>2384</ele>
        <time>2025-02-20T13:41:04Z</time>
      </trkpt>
      <trkpt lat="45.61085" lon="6.50927">
        <ele>2383.6</ele>
        <time>2025-02-20T13:41:05Z</time>
      </trkpt>
      <trkpt lat="45.61085" lon="6.50932">
        <ele>2383.6</ele>
        <time>2025-02-20T13:41:06Z</time>
      </trkpt>
      <trkpt lat="45.61085" lon="6.50937">
        <ele>2383.6</ele>
        <time>2025-02-20T13:41:07Z</time>
      </trkpt>
      <trkpt lat="45.61086" lon="6.50944">
        <ele>2383.6</ele>
        <time>2025-02-20T13:41:08Z</time>
      </trkpt>
      <trkpt lat="45.61086" lon="6.50953">
        <ele>2383.8</ele>
        <time>2025-02-20T13:41:09Z</time>
      </trkpt>
      <trkpt lat="45.61085" lon="6.50961">
        <ele>2383.8</ele>
        <time>2025-02-20T13:41:10Z</time>
      </trkpt>
      <trkpt lat="45.61085" lon="6.50967">
        <ele>2383.8</ele>
        <time>2025-02-20T13:41:11Z</time>
      </trkpt>
      <trkpt lat="45.61085" lon="6.50971">
        <ele>2382.8</ele>
        <time>2025-02-20T13:41:12Z</time>
      </trkpt>
      <trkpt lat="45.61086" lon="6.50975">
        <ele>2380.2</ele>
        <time>2025-02-20T13:41:13Z</time>
      </trkpt>
      <trkpt lat="45.61087" lon="6.5098">
        <ele>2380.2</ele>
        <time>2025-02-20T13:41:14Z</time>
      </trkpt>
      <trkpt lat="45.61088" lon="6.50982">
        <ele>2380.2</ele>
        <time>2025-02-20T13:41:15Z</time>
      </trkpt>
      <trkpt lat="45.61089" lon="6.50983">
        <ele>2379.2</ele>
        <time>2025-02-20T13:41:16Z</time>
      </trkpt>
      <trkpt lat="45.6109" lon="6.50985">
        <ele>2377.8</ele>
        <time>2025-02-20T13:41:17Z</time>
      </trkpt>
      <trkpt lat="45.61091" lon="6.50988">
        <ele>2377.8</ele>
        <time>2025-02-20T13:41:18Z</time>
      </trkpt>
      <trkpt lat="45.6109" lon="6.5099">
        <ele>2377.8</ele>
        <time>2025-02-20T13:41:19Z</time>
      </trkpt>
      <trkpt lat="45.61089" lon="6.50992">
        <ele>2376.8</ele>
        <time>2025-02-20T13:41:20Z</time>
      </trkpt>
      <trkpt lat="45.61089" lon="6.50992">
        <ele>2376.6</ele>
        <time>2025-02-20T13:41:21Z</time>
      </trkpt>
      <trkpt lat="45.61089" lon="6.50992">
        <ele>2376.6</ele>
        <time>2025-02-20T13:41:22Z</time>
      </trkpt>
      <trkpt lat="45.61089" lon="6.50992">
        <ele>2376.6</ele>
        <time>2025-02-20T13:41:23Z</time>
      </trkpt>
      <trkpt lat="45.61089" lon="6.50992">
        <ele>2376.2</ele>
        <time>2025-02-20T13:41:24Z</time>
      </trkpt>
      <trkpt lat="45.61089" lon="6.50992">
        <ele>2376.2</ele>
        <time>2025-02-20T13:41:25Z</time>
      </trkpt>
      <trkpt lat="45.61089" lon="6.50992">
        <ele>2376.2</ele>
        <time>2025-02-20T13:41:26Z</time>
      </trkpt>
      <trkpt lat="45.61089" lon="6.50992">
        <ele>2376.2</ele>
        <time>2025-02-20T13:41:27Z</time>
      </trkpt>
      <trkpt lat="45.61089" lon="6.50992">
        <ele>2375.6</ele>
        <time>2025-02-20T13:41:28Z</time>
      </trkpt>
      <trkpt lat="45.61089" lon="6.50992">
        <ele>2375.4</ele>
        <time>2025-02-20T13:41:29Z</time>
      </trkpt>
      <trkpt lat="45.61089" lon="6.50992">
        <ele>2375.4</ele>
        <time>2025-02-20T13:41:30Z</time>
      </trkpt>
      <trkpt lat="45.61089" lon="6.50992">
        <ele>2375.4</ele>
        <time>2025-02-20T13:41:31Z</time>
      </trkpt>
      <trkpt lat="45.61089" lon="6.50992">
        <ele>2375</ele>
        <time>2025-02-20T13:41:32Z</time>
      </trkpt>
      <trkpt lat="45.61089" lon="6.50992">
        <ele>2374.8</ele>
        <time>2025-02-20T13:41:33Z</time>
      </trkpt>
      <trkpt lat="45.6109" lon="6.50995">
        <ele>2374.8</ele>
        <time>2025-02-20T13:41:34Z</time>
      </trkpt>
      <trkpt lat="45.61089" lon="6.50998">
        <ele>2374.8</ele>
        <time>2025-02-20T13:41:35Z</time>
      </trkpt>
      <trkpt lat="45.61087" lon="6.51">
        <ele>2374.8</ele>
        <time>2025-02-20T13:41:36Z</time>
      </trkpt>
      <trkpt lat="45.61086" lon="6.51003">
        <ele>2372.6</ele>
        <time>2025-02-20T13:41:37Z</time>
      </trkpt>
      <trkpt lat="45.61087" lon="6.51006">
        <ele>2372.6</ele>
        <time>2025-02-20T13:41:38Z</time>
      </trkpt>
      <trkpt lat="45.61089" lon="6.51007">
        <ele>2372.6</ele>
        <time>2025-02-20T13:41:39Z</time>
      </trkpt>
      <trkpt lat="45.61092" lon="6.51009">
        <ele>2371.6</ele>
        <time>2025-02-20T13:41:40Z</time>
      </trkpt>
      <trkpt lat="45.61092" lon="6.51014">
        <ele>2370.2</ele>
        <time>2025-02-20T13:41:41Z</time>
      </trkpt>
      <trkpt lat="45.61091" lon="6.51017">
        <ele>2370.2</ele>
        <time>2025-02-20T13:41:42Z</time>
      </trkpt>
      <trkpt lat="45.61091" lon="6.51021">
        <ele>2370.2</ele>
        <time>2025-02-20T13:41:43Z</time>
      </trkpt>
      <trkpt lat="45.61093" lon="6.51022">
        <ele>2369.2</ele>
        <time>2025-02-20T13:41:44Z</time>
      </trkpt>
      <trkpt lat="45.61096" lon="6.51024">
        <ele>2364</ele>
        <time>2025-02-20T13:41:45Z</time>
      </trkpt>
      <trkpt lat="45.61097" lon="6.51028">
        <ele>2364</ele>
        <time>2025-02-20T13:41:46Z</time>
      </trkpt>
      <trkpt lat="45.61096" lon="6.51031">
        <ele>2364</ele>
        <time>2025-02-20T13:41:47Z</time>
      </trkpt>
      <trkpt lat="45.61095" lon="6.51035">
        <ele>2364</ele>
        <time>2025-02-20T13:41:48Z</time>
      </trkpt>
      <trkpt lat="45.61096" lon="6.51039">
        <ele>2360.8</ele>
        <time>2025-02-20T13:41:49Z</time>
      </trkpt>
      <trkpt lat="45.61098" lon="6.51039">
        <ele>2360.8</ele>
        <time>2025-02-20T13:41:50Z</time>
      </trkpt>
      <trkpt lat="45.61102" lon="6.51041">
        <ele>2360.8</ele>
        <time>2025-02-20T13:41:51Z</time>
      </trkpt>
      <trkpt lat="45.61101" lon="6.51047">
        <ele>2359.8</ele>
        <time>2025-02-20T13:41:52Z</time>
      </trkpt>
      <trkpt lat="45.61099" lon="6.51051">
        <ele>2356.2</ele>
        <time>2025-02-20T13:41:53Z</time>
      </trkpt>
      <trkpt lat="45.61098" lon="6.51056">
        <ele>2356.2</ele>
        <time>2025-02-20T13:41:54Z</time>
      </trkpt>
      <trkpt lat="45.61101" lon="6.51058">
        <ele>2356.2</ele>
        <time>2025-02-20T13:41:55Z</time>
      </trkpt>
      <trkpt lat="45.61104" lon="6.51058">
        <ele>2355.2</ele>
        <time>2025-02-20T13:41:56Z</time>
      </trkpt>
      <trkpt lat="45.61106" lon="6.51062">
        <ele>2352.2</ele>
        <time>2025-02-20T13:41:57Z</time>
      </trkpt>
      <trkpt lat="45.61105" lon="6.51066">
        <ele>2352.2</ele>
        <time>2025-02-20T13:41:58Z</time>
      </trkpt>
      <trkpt lat="45.61106" lon="6.5107">
        <ele>2352.2</ele>
        <time>2025-02-20T13:41:59Z</time>
      </trkpt>
      <trkpt lat="45.61109" lon="6.51071">
        <ele>2351.2</ele>
        <time>2025-02-20T13:42:00Z</time>
      </trkpt>
      <trkpt lat="45.61111" lon="6.51073">
        <ele>2348.6</ele>
        <time>2025-02-20T13:42:01Z</time>
      </trkpt>
      <trkpt lat="45.61111" lon="6.51078">
        <ele>2348.6</ele>
        <time>2025-02-20T13:42:02Z</time>
      </trkpt>
      <trkpt lat="45.61113" lon="6.51079">
        <ele>2348.6</ele>
        <time>2025-02-20T13:42:03Z</time>
      </trkpt>
      <trkpt lat="45.61116" lon="6.51079">
        <ele>2347.6</ele>
        <time>2025-02-20T13:42:04Z</time>
      </trkpt>
      <trkpt lat="45.61117" lon="6.51082">
        <ele>2344.4</ele>
        <time>2025-02-20T13:42:05Z</time>
      </trkpt>
      <trkpt lat="45.61118" lon="6.51088">
        <ele>2344.4</ele>
        <time>2025-02-20T13:42:06Z</time>
      </trkpt>
      <trkpt lat="45.61122" lon="6.51091">
        <ele>2344.4</ele>
        <time>2025-02-20T13:42:07Z</time>
      </trkpt>
      <trkpt lat="45.61123" lon="6.51096">
        <ele>2343.4</ele>
        <time>2025-02-20T13:42:08Z</time>
      </trkpt>
      <trkpt lat="45.61125" lon="6.51101">
        <ele>2336.8</ele>
        <time>2025-02-20T13:42:09Z</time>
      </trkpt>
      <trkpt lat="45.61128" lon="6.51101">
        <ele>2336.8</ele>
        <time>2025-02-20T13:42:10Z</time>
      </trkpt>
      <trkpt lat="45.61132" lon="6.51104">
        <ele>2336.8</ele>
        <time>2025-02-20T13:42:11Z</time>
      </trkpt>
      <trkpt lat="45.61134" lon="6.5111">
        <ele>2335.8</ele>
        <time>2025-02-20T13:42:12Z</time>
      </trkpt>
      <trkpt lat="45.61138" lon="6.51114">
        <ele>2329.8</ele>
        <time>2025-02-20T13:42:13Z</time>
      </trkpt>
      <trkpt lat="45.61142" lon="6.51122">
        <ele>2329.8</ele>
        <time>2025-02-20T13:42:14Z</time>
      </trkpt>
      <trkpt lat="45.61147" lon="6.51127">
        <ele>2329.8</ele>
        <time>2025-02-20T13:42:15Z</time>
      </trkpt>
      <trkpt lat="45.61152" lon="6.51127">
        <ele>2328.8</ele>
        <time>2025-02-20T13:42:16Z</time>
      </trkpt>
      <trkpt lat="45.61158" lon="6.5113">
        <ele>2321.2</ele>
        <time>2025-02-20T13:42:17Z</time>
      </trkpt>
      <trkpt lat="45.61161" lon="6.51136">
        <ele>2321.2</ele>
        <time>2025-02-20T13:42:18Z</time>
      </trkpt>
      <trkpt lat="45.61165" lon="6.51138">
        <ele>2321.2</ele>
        <time>2025-02-20T13:42:19Z</time>
      </trkpt>
      <trkpt lat="45.61169" lon="6.5114">
        <ele>2320.2</ele>
        <time>2025-02-20T13:42:20Z</time>
      </trkpt>
      <trkpt lat="45.61172" lon="6.51145">
        <ele>2317.2</ele>
        <time>2025-02-20T13:42:21Z</time>
      </trkpt>
      <trkpt lat="45.61174" lon="6.51151">
        <ele>2317.2</ele>
        <time>2025-02-20T13:42:22Z</time>
      </trkpt>
      <trkpt lat="45.61178" lon="6.51152">
        <ele>2317.2</ele>
        <time>2025-02-20T13:42:23Z</time>
      </trkpt>
      <trkpt lat="45.61183" lon="6.51155">
        <ele>2316.2</ele>
        <time>2025-02-20T13:42:24Z</time>
      </trkpt>
      <trkpt lat="45.61184" lon="6.51161">
        <ele>2312</ele>
        <time>2025-02-20T13:42:25Z</time>
      </trkpt>
      <trkpt lat="45.61187" lon="6.51165">
        <ele>2312</ele>
        <time>2025-02-20T13:42:26Z</time>
      </trkpt>
      <trkpt lat="45.61189" lon="6.51165">
        <ele>2312</ele>
        <time>2025-02-20T13:42:27Z</time>
      </trkpt>
      <trkpt lat="45.6119" lon="6.51164">
        <ele>2311</ele>
        <time>2025-02-20T13:42:28Z</time>
      </trkpt>
      <trkpt lat="45.6119" lon="6.51164">
        <ele>2308.6</ele>
        <time>2025-02-20T13:42:29Z</time>
      </trkpt>
      <trkpt lat="45.6119" lon="6.51164">
        <ele>2308.6</ele>
        <time>2025-02-20T13:42:30Z</time>
      </trkpt>
      <trkpt lat="45.6119" lon="6.51164">
        <ele>2308.6</ele>
        <time>2025-02-20T13:42:31Z</time>
      </trkpt>
      <trkpt lat="45.6119" lon="6.51164">
        <ele>2308.6</ele>
        <time>2025-02-20T13:42:32Z</time>
      </trkpt>
      <trkpt lat="45.6119" lon="6.51164">
        <ele>2308.4</ele>
        <time>2025-02-20T13:42:33Z</time>
      </trkpt>
      <trkpt lat="45.6119" lon="6.51164">
        <ele>2308.4</ele>
        <time>2025-02-20T13:42:34Z</time>
      </trkpt>
      <trkpt lat="45.6119" lon="6.51164">
        <ele>2308.4</ele>
        <time>2025-02-20T13:42:35Z</time>
      </trkpt>
      <trkpt lat="45.6119" lon="6.51164">
        <ele>2308.4</ele>
        <time>2025-02-20T13:42:36Z</time>
      </trkpt>
      <trkpt lat="45.6119" lon="6.51164">
        <ele>2308.4</ele>
        <time>2025-02-20T13:42:37Z</time>
      </trkpt>
      <trkpt lat="45.6119" lon="6.51164">
        <ele>2308.4</ele>
        <time>2025-02-20T13:42:38Z</time>
      </trkpt>
      <trkpt lat="45.61192" lon="6.51164">
        <ele>2308.4</ele>
        <time>2025-02-20T13:42:39Z</time>
      </trkpt>
      <trkpt lat="45.61193" lon="6.51165">
        <ele>2308.4</ele>
        <time>2025-02-20T13:42:40Z</time>
      </trkpt>
      <trkpt lat="45.61194" lon="6.51168">
        <ele>2307.6</ele>
        <time>2025-02-20T13:42:41Z</time>
      </trkpt>
      <trkpt lat="45.61193" lon="6.51169">
        <ele>2307.6</ele>
        <time>2025-02-20T13:42:42Z</time>
      </trkpt>
      <trkpt lat="45.61193" lon="6.51169">
        <ele>2307.6</ele>
        <time>2025-02-20T13:42:43Z</time>
      </trkpt>
      <trkpt lat="45.61193" lon="6.51169">
        <ele>2306.6</ele>
        <time>2025-02-20T13:42:44Z</time>
      </trkpt>
      <trkpt lat="45.61193" lon="6.51169">
        <ele>2306.6</ele>
        <time>2025-02-20T13:42:45Z</time>
      </trkpt>
      <trkpt lat="45.61193" lon="6.51169">
        <ele>2306.6</ele>
        <time>2025-02-20T13:42:46Z</time>
      </trkpt>
      <trkpt lat="45.61193" lon="6.51169">
        <ele>2306.6</ele>
        <time>2025-02-20T13:42:47Z</time>
      </trkpt>
      <trkpt lat="45.61193" lon="6.51169">
        <ele>2306.8</ele>
        <time>2025-02-20T13:42:48Z</time>
      </trkpt>
      <trkpt lat="45.61193" lon="6.51169">
        <ele>2306.6</ele>
        <time>2025-02-20T13:42:49Z</time>
      </trkpt>
      <trkpt lat="45.61193" lon="6.51169">
        <ele>2306.6</ele>
        <time>2025-02-20T13:42:50Z</time>
      </trkpt>
      <trkpt lat="45.61193" lon="6.51169">
        <ele>2306.6</ele>
        <time>2025-02-20T13:42:51Z</time>
      </trkpt>
      <trkpt lat="45.61193" lon="6.51169">
        <ele>2306.8</ele>
        <time>2025-02-20T13:42:52Z</time>
      </trkpt>
      <trkpt lat="45.61193" lon="6.51169">
        <ele>2306.4</ele>
        <time>2025-02-20T13:42:53Z</time>
      </trkpt>
      <trkpt lat="45.61193" lon="6.51169">
        <ele>2306.4</ele>
        <time>2025-02-20T13:42:54Z</time>
      </trkpt>
      <trkpt lat="45.61194" lon="6.5117">
        <ele>2306.4</ele>
        <time>2025-02-20T13:42:55Z</time>
      </trkpt>
      <trkpt lat="45.61194" lon="6.51173">
        <ele>2306.4</ele>
        <time>2025-02-20T13:42:56Z</time>
      </trkpt>
      <trkpt lat="45.61196" lon="6.51175">
        <ele>2306.4</ele>
        <time>2025-02-20T13:42:57Z</time>
      </trkpt>
      <trkpt lat="45.61199" lon="6.51177">
        <ele>2306.4</ele>
        <time>2025-02-20T13:42:58Z</time>
      </trkpt>
      <trkpt lat="45.612" lon="6.51181">
        <ele>2306.4</ele>
        <time>2025-02-20T13:42:59Z</time>
      </trkpt>
      <trkpt lat="45.612" lon="6.51187">
        <ele>2305.4</ele>
        <time>2025-02-20T13:43:00Z</time>
      </trkpt>
      <trkpt lat="45.61203" lon="6.5119">
        <ele>2301</ele>
        <time>2025-02-20T13:43:01Z</time>
      </trkpt>
      <trkpt lat="45.61207" lon="6.51191">
        <ele>2301</ele>
        <time>2025-02-20T13:43:02Z</time>
      </trkpt>
      <trkpt lat="45.61209" lon="6.51195">
        <ele>2301</ele>
        <time>2025-02-20T13:43:03Z</time>
      </trkpt>
      <trkpt lat="45.61207" lon="6.512">
        <ele>2300</ele>
        <time>2025-02-20T13:43:04Z</time>
      </trkpt>
      <trkpt lat="45.61209" lon="6.51204">
        <ele>2293.4</ele>
        <time>2025-02-20T13:43:05Z</time>
      </trkpt>
      <trkpt lat="45.61213" lon="6.51207">
        <ele>2293.4</ele>
        <time>2025-02-20T13:43:06Z</time>
      </trkpt>
      <trkpt lat="45.61215" lon="6.51214">
        <ele>2293.4</ele>
        <time>2025-02-20T13:43:07Z</time>
      </trkpt>
      <trkpt lat="45.61211" lon="6.51219">
        <ele>2292.4</ele>
        <time>2025-02-20T13:43:08Z</time>
      </trkpt>
      <trkpt lat="45.61211" lon="6.51226">
        <ele>2283.8</ele>
        <time>2025-02-20T13:43:09Z</time>
      </trkpt>
      <trkpt lat="45.61215" lon="6.51231">
        <ele>2283.8</ele>
        <time>2025-02-20T13:43:10Z</time>
      </trkpt>
      <trkpt lat="45.61219" lon="6.51237">
        <ele>2283.8</ele>
        <time>2025-02-20T13:43:11Z</time>
      </trkpt>
      <trkpt lat="45.61217" lon="6.51243">
        <ele>2282.8</ele>
        <time>2025-02-20T13:43:12Z</time>
      </trkpt>
      <trkpt lat="45.61217" lon="6.51249">
        <ele>2274.8</ele>
        <time>2025-02-20T13:43:13Z</time>
      </trkpt>
      <trkpt lat="45.6122" lon="6.51253">
        <ele>2274.8</ele>
        <time>2025-02-20T13:43:14Z</time>
      </trkpt>
      <trkpt lat="45.61223" lon="6.51259">
        <ele>2274.8</ele>
        <time>2025-02-20T13:43:15Z</time>
      </trkpt>
      <trkpt lat="45.61223" lon="6.51267">
        <ele>2273.8</ele>
        <time>2025-02-20T13:43:16Z</time>
      </trkpt>
      <trkpt lat="45.61226" lon="6.51275">
        <ele>2266</ele>
        <time>2025-02-20T13:43:17Z</time>
      </trkpt>
      <trkpt lat="45.6123" lon="6.5128">
        <ele>2266</ele>
        <time>2025-02-20T13:43:18Z</time>
      </trkpt>
      <trkpt lat="45.61231" lon="6.51286">
        <ele>2266</ele>
        <time>2025-02-20T13:43:19Z</time>
      </trkpt>
      <trkpt lat="45.61228" lon="6.51292">
        <ele>2265</ele>
        <time>2025-02-20T13:43:20Z</time>
      </trkpt>
      <trkpt lat="45.61231" lon="6.51296">
        <ele>2258</ele>
        <time>2025-02-20T13:43:21Z</time>
      </trkpt>
      <trkpt lat="45.61233" lon="6.51296">
        <ele>2258</ele>
        <time>2025-02-20T13:43:22Z</time>
      </trkpt>
      <trkpt lat="45.61234" lon="6.51296">
        <ele>2258</ele>
        <time>2025-02-20T13:43:23Z</time>
      </trkpt>
      <trkpt lat="45.61238" lon="6.51297">
        <ele>2257</ele>
        <time>2025-02-20T13:43:24Z</time>
      </trkpt>
      <trkpt lat="45.61241" lon="6.51297">
        <ele>2254.6</ele>
        <time>2025-02-20T13:43:25Z</time>
      </trkpt>
      <trkpt lat="45.61245" lon="6.51296">
        <ele>2254.6</ele>
        <time>2025-02-20T13:43:26Z</time>
      </trkpt>
      <trkpt lat="45.61247" lon="6.51296">
        <ele>2254.6</ele>
        <time>2025-02-20T13:43:27Z</time>
      </trkpt>
      <trkpt lat="45.61248" lon="6.51295">
        <ele>2253.6</ele>
        <time>2025-02-20T13:43:28Z</time>
      </trkpt>
      <trkpt lat="45.61249" lon="6.51295">
        <ele>2252.8</ele>
        <time>2025-02-20T13:43:29Z</time>
      </trkpt>
      <trkpt lat="45.61249" lon="6.51295">
        <ele>2252.8</ele>
        <time>2025-02-20T13:43:30Z</time>
      </trkpt>
      <trkpt lat="45.61249" lon="6.51295">
        <ele>2252.8</ele>
        <time>2025-02-20T13:43:31Z</time>
      </trkpt>
      <trkpt lat="45.61249" lon="6.51295">
        <ele>2252.6</ele>
        <time>2025-02-20T13:43:32Z</time>
      </trkpt>
      <trkpt lat="45.61249" lon="6.51295">
        <ele>2252.8</ele>
        <time>2025-02-20T13:43:33Z</time>
      </trkpt>
      <trkpt lat="45.61249" lon="6.51295">
        <ele>2252.8</ele>
        <time>2025-02-20T13:43:34Z</time>
      </trkpt>
      <trkpt lat="45.61251" lon="6.51297">
        <ele>2252.8</ele>
        <time>2025-02-20T13:43:35Z</time>
      </trkpt>
      <trkpt lat="45.6125" lon="6.51302">
        <ele>2251.8</ele>
        <time>2025-02-20T13:43:36Z</time>
      </trkpt>
      <trkpt lat="45.61248" lon="6.51306">
        <ele>2249.6</ele>
        <time>2025-02-20T13:43:37Z</time>
      </trkpt>
      <trkpt lat="45.61247" lon="6.5131">
        <ele>2249.6</ele>
        <time>2025-02-20T13:43:38Z</time>
      </trkpt>
      <trkpt lat="45.61248" lon="6.51315">
        <ele>2249.6</ele>
        <time>2025-02-20T13:43:39Z</time>
      </trkpt>
      <trkpt lat="45.61251" lon="6.51315">
        <ele>2248.6</ele>
        <time>2025-02-20T13:43:40Z</time>
      </trkpt>
      <trkpt lat="45.61253" lon="6.51314">
        <ele>2245.6</ele>
        <time>2025-02-20T13:43:41Z</time>
      </trkpt>
      <trkpt lat="45.61255" lon="6.51314">
        <ele>2245.6</ele>
        <time>2025-02-20T13:43:42Z</time>
      </trkpt>
      <trkpt lat="45.61258" lon="6.51313">
        <ele>2245.6</ele>
        <time>2025-02-20T13:43:43Z</time>
      </trkpt>
      <trkpt lat="45.61261" lon="6.51315">
        <ele>2244.6</ele>
        <time>2025-02-20T13:43:44Z</time>
      </trkpt>
      <trkpt lat="45.6126" lon="6.51319">
        <ele>2243.6</ele>
        <time>2025-02-20T13:43:45Z</time>
      </trkpt>
      <trkpt lat="45.61259" lon="6.51323">
        <ele>2243.6</ele>
        <time>2025-02-20T13:43:46Z</time>
      </trkpt>
      <trkpt lat="45.61262" lon="6.51325">
        <ele>2243.6</ele>
        <time>2025-02-20T13:43:47Z</time>
      </trkpt>
      <trkpt lat="45.61265" lon="6.51325">
        <ele>2242.6</ele>
        <time>2025-02-20T13:43:48Z</time>
      </trkpt>
      <trkpt lat="45.61267" lon="6.51329">
        <ele>2236</ele>
        <time>2025-02-20T13:43:49Z</time>
      </trkpt>
      <trkpt lat="45.61265" lon="6.51334">
        <ele>2236</ele>
        <time>2025-02-20T13:43:50Z</time>
      </trkpt>
      <trkpt lat="45.61263" lon="6.51339">
        <ele>2236</ele>
        <time>2025-02-20T13:43:51Z</time>
      </trkpt>
      <trkpt lat="45.61267" lon="6.51345">
        <ele>2235</ele>
        <time>2025-02-20T13:43:52Z</time>
      </trkpt>
      <trkpt lat="45.61271" lon="6.51346">
        <ele>2225.4</ele>
        <time>2025-02-20T13:43:53Z</time>
      </trkpt>
      <trkpt lat="45.61276" lon="6.51347">
        <ele>2225.4</ele>
        <time>2025-02-20T13:43:54Z</time>
      </trkpt>
      <trkpt lat="45.6128" lon="6.51348">
        <ele>2225.4</ele>
        <time>2025-02-20T13:43:55Z</time>
      </trkpt>
      <trkpt lat="45.61285" lon="6.51351">
        <ele>2224.4</ele>
        <time>2025-02-20T13:43:56Z</time>
      </trkpt>
      <trkpt lat="45.61289" lon="6.51354">
        <ele>2220.4</ele>
        <time>2025-02-20T13:43:57Z</time>
      </trkpt>
      <trkpt lat="45.61289" lon="6.51359">
        <ele>2220.4</ele>
        <time>2025-02-20T13:43:58Z</time>
      </trkpt>
      <trkpt lat="45.61292" lon="6.51361">
        <ele>2220.4</ele>
        <time>2025-02-20T13:43:59Z</time>
      </trkpt>
      <trkpt lat="45.61293" lon="6.51361">
        <ele>2219.4</ele>
        <time>2025-02-20T13:44:00Z</time>
      </trkpt>
      <trkpt lat="45.61294" lon="6.51361">
        <ele>2215.6</ele>
        <time>2025-02-20T13:44:01Z</time>
      </trkpt>
      <trkpt lat="45.61294" lon="6.51361">
        <ele>2215.6</ele>
        <time>2025-02-20T13:44:02Z</time>
      </trkpt>
      <trkpt lat="45.61294" lon="6.51361">
        <ele>2215.6</ele>
        <time>2025-02-20T13:44:03Z</time>
      </trkpt>
      <trkpt lat="45.61294" lon="6.51361">
        <ele>2216.2</ele>
        <time>2025-02-20T13:44:04Z</time>
      </trkpt>
      <trkpt lat="45.61294" lon="6.51361">
        <ele>2216</ele>
        <time>2025-02-20T13:44:05Z</time>
      </trkpt>
      <trkpt lat="45.61294" lon="6.51361">
        <ele>2216</ele>
        <time>2025-02-20T13:44:06Z</time>
      </trkpt>
      <trkpt lat="45.61294" lon="6.51361">
        <ele>2216</ele>
        <time>2025-02-20T13:44:07Z</time>
      </trkpt>
      <trkpt lat="45.61295" lon="6.51362">
        <ele>2216</ele>
        <time>2025-02-20T13:44:08Z</time>
      </trkpt>
      <trkpt lat="45.61296" lon="6.51363">
        <ele>2216.4</ele>
        <time>2025-02-20T13:44:09Z</time>
      </trkpt>
      <trkpt lat="45.61298" lon="6.51364">
        <ele>2216.4</ele>
        <time>2025-02-20T13:44:10Z</time>
      </trkpt>
      <trkpt lat="45.613" lon="6.51365">
        <ele>2216.4</ele>
        <time>2025-02-20T13:44:11Z</time>
      </trkpt>
      <trkpt lat="45.61302" lon="6.51368">
        <ele>2215.6</ele>
        <time>2025-02-20T13:44:12Z</time>
      </trkpt>
      <trkpt lat="45.61301" lon="6.51372">
        <ele>2215</ele>
        <time>2025-02-20T13:44:13Z</time>
      </trkpt>
      <trkpt lat="45.613" lon="6.51372">
        <ele>2215</ele>
        <time>2025-02-20T13:44:14Z</time>
      </trkpt>
      <trkpt lat="45.613" lon="6.51372">
        <ele>2215</ele>
        <time>2025-02-20T13:44:15Z</time>
      </trkpt>
      <trkpt lat="45.613" lon="6.51372">
        <ele>2214</ele>
        <time>2025-02-20T13:44:16Z</time>
      </trkpt>
      <trkpt lat="45.613" lon="6.51372">
        <ele>2213.8</ele>
        <time>2025-02-20T13:44:17Z</time>
      </trkpt>
      <trkpt lat="45.613" lon="6.51372">
        <ele>2213.8</ele>
        <time>2025-02-20T13:44:18Z</time>
      </trkpt>
      <trkpt lat="45.613" lon="6.51372">
        <ele>2213.8</ele>
        <time>2025-02-20T13:44:19Z</time>
      </trkpt>
      <trkpt lat="45.613" lon="6.51372">
        <ele>2213.6</ele>
        <time>2025-02-20T13:44:20Z</time>
      </trkpt>
      <trkpt lat="45.613" lon="6.51372">
        <ele>2213.4</ele>
        <time>2025-02-20T13:44:21Z</time>
      </trkpt>
      <trkpt lat="45.613" lon="6.51372">
        <ele>2213.4</ele>
        <time>2025-02-20T13:44:22Z</time>
      </trkpt>
      <trkpt lat="45.613" lon="6.51372">
        <ele>2213.4</ele>
        <time>2025-02-20T13:44:23Z</time>
      </trkpt>
      <trkpt lat="45.61302" lon="6.51374">
        <ele>2213.4</ele>
        <time>2025-02-20T13:44:24Z</time>
      </trkpt>
      <trkpt lat="45.61304" lon="6.51377">
        <ele>2212</ele>
        <time>2025-02-20T13:44:25Z</time>
      </trkpt>
      <trkpt lat="45.61303" lon="6.51382">
        <ele>2212</ele>
        <time>2025-02-20T13:44:26Z</time>
      </trkpt>
      <trkpt lat="45.61301" lon="6.51382">
        <ele>2212</ele>
        <time>2025-02-20T13:44:27Z</time>
      </trkpt>
      <trkpt lat="45.613" lon="6.51385">
        <ele>2211</ele>
        <time>2025-02-20T13:44:28Z</time>
      </trkpt>
      <trkpt lat="45.61302" lon="6.51389">
        <ele>2207</ele>
        <time>2025-02-20T13:44:29Z</time>
      </trkpt>
      <trkpt lat="45.61303" lon="6.51395">
        <ele>2207</ele>
        <time>2025-02-20T13:44:30Z</time>
      </trkpt>
      <trkpt lat="45.61298" lon="6.514">
        <ele>2207</ele>
        <time>2025-02-20T13:44:31Z</time>
      </trkpt>
      <trkpt lat="45.61292" lon="6.51404">
        <ele>2206</ele>
        <time>2025-02-20T13:44:32Z</time>
      </trkpt>
      <trkpt lat="45.61289" lon="6.51408">
        <ele>2198.4</ele>
        <time>2025-02-20T13:44:33Z</time>
      </trkpt>
      <trkpt lat="45.6129" lon="6.51415">
        <ele>2198.4</ele>
        <time>2025-02-20T13:44:34Z</time>
      </trkpt>
      <trkpt lat="45.6129" lon="6.51424">
        <ele>2198.4</ele>
        <time>2025-02-20T13:44:35Z</time>
      </trkpt>
      <trkpt lat="45.6129" lon="6.51431">
        <ele>2197.4</ele>
        <time>2025-02-20T13:44:36Z</time>
      </trkpt>
      <trkpt lat="45.61289" lon="6.51438">
        <ele>2193.8</ele>
        <time>2025-02-20T13:44:37Z</time>
      </trkpt>
      <trkpt lat="45.6129" lon="6.51443">
        <ele>2193.8</ele>
        <time>2025-02-20T13:44:38Z</time>
      </trkpt>
      <trkpt lat="45.61294" lon="6.51447">
        <ele>2193.8</ele>
        <time>2025-02-20T13:44:39Z</time>
      </trkpt>
      <trkpt lat="45.61297" lon="6.51453">
        <ele>2193.8</ele>
        <time>2025-02-20T13:44:40Z</time>
      </trkpt>
      <trkpt lat="45.61301" lon="6.51457">
        <ele>2190.2</ele>
        <time>2025-02-20T13:44:41Z</time>
      </trkpt>
      <trkpt lat="45.61305" lon="6.51463">
        <ele>2190.2</ele>
        <time>2025-02-20T13:44:42Z</time>
      </trkpt>
      <trkpt lat="45.6131" lon="6.51468">
        <ele>2190.2</ele>
        <time>2025-02-20T13:44:43Z</time>
      </trkpt>
      <trkpt lat="45.61312" lon="6.51475">
        <ele>2189.2</ele>
        <time>2025-02-20T13:44:44Z</time>
      </trkpt>
      <trkpt lat="45.61314" lon="6.51482">
        <ele>2184.4</ele>
        <time>2025-02-20T13:44:45Z</time>
      </trkpt>
      <trkpt lat="45.61318" lon="6.51488">
        <ele>2184.4</ele>
        <time>2025-02-20T13:44:46Z</time>
      </trkpt>
      <trkpt lat="45.61319" lon="6.51495">
        <ele>2184.4</ele>
        <time>2025-02-20T13:44:47Z</time>
      </trkpt>
      <trkpt lat="45.61323" lon="6.515">
        <ele>2183.4</ele>
        <time>2025-02-20T13:44:48Z</time>
      </trkpt>
      <trkpt lat="45.61326" lon="6.51508">
        <ele>2178.8</ele>
        <time>2025-02-20T13:44:49Z</time>
      </trkpt>
      <trkpt lat="45.61331" lon="6.51515">
        <ele>2178.8</ele>
        <time>2025-02-20T13:44:50Z</time>
      </trkpt>
      <trkpt lat="45.61338" lon="6.51521">
        <ele>2178.8</ele>
        <time>2025-02-20T13:44:51Z</time>
      </trkpt>
      <trkpt lat="45.61343" lon="6.51531">
        <ele>2177.8</ele>
        <time>2025-02-20T13:44:52Z</time>
      </trkpt>
      <trkpt lat="45.61346" lon="6.51539">
        <ele>2169.2</ele>
        <time>2025-02-20T13:44:53Z</time>
      </trkpt>
      <trkpt lat="45.6135" lon="6.51545">
        <ele>2169.2</ele>
        <time>2025-02-20T13:44:54Z</time>
      </trkpt>
      <trkpt lat="45.61355" lon="6.51551">
        <ele>2169.2</ele>
        <time>2025-02-20T13:44:55Z</time>
      </trkpt>
      <trkpt lat="45.6136" lon="6.51559">
        <ele>2168.2</ele>
        <time>2025-02-20T13:44:56Z</time>
      </trkpt>
      <trkpt lat="45.61368" lon="6.51565">
        <ele>2163.8</ele>
        <time>2025-02-20T13:44:57Z</time>
      </trkpt>
      <trkpt lat="45.61373" lon="6.51573">
        <ele>2163.8</ele>
        <time>2025-02-20T13:44:58Z</time>
      </trkpt>
      <trkpt lat="45.61379" lon="6.51581">
        <ele>2163.8</ele>
        <time>2025-02-20T13:44:59Z</time>
      </trkpt>
      <trkpt lat="45.61383" lon="6.5159">
        <ele>2162.8</ele>
        <time>2025-02-20T13:45:00Z</time>
      </trkpt>
      <trkpt lat="45.6139" lon="6.51596">
        <ele>2155.4</ele>
        <time>2025-02-20T13:45:01Z</time>
      </trkpt>
      <trkpt lat="45.61394" lon="6.51603">
        <ele>2155.4</ele>
        <time>2025-02-20T13:45:02Z</time>
      </trkpt>
      <trkpt lat="45.61398" lon="6.51607">
        <ele>2155.4</ele>
        <time>2025-02-20T13:45:03Z</time>
      </trkpt>
      <trkpt lat="45.61402" lon="6.51606">
        <ele>2154.4</ele>
        <time>2025-02-20T13:45:04Z</time>
      </trkpt>
      <trkpt lat="45.61405" lon="6.51603">
        <ele>2152</ele>
        <time>2025-02-20T13:45:05Z</time>
      </trkpt>
      <trkpt lat="45.61406" lon="6.51601">
        <ele>2152</ele>
        <time>2025-02-20T13:45:06Z</time>
      </trkpt>
      <trkpt lat="45.61406" lon="6.51601">
        <ele>2152</ele>
        <time>2025-02-20T13:45:07Z</time>
      </trkpt>
      <trkpt lat="45.61406" lon="6.51601">
        <ele>2151</ele>
        <time>2025-02-20T13:45:08Z</time>
      </trkpt>
      <trkpt lat="45.61406" lon="6.51601">
        <ele>2149.8</ele>
        <time>2025-02-20T13:45:09Z</time>
      </trkpt>
      <trkpt lat="45.61406" lon="6.51601">
        <ele>2149.8</ele>
        <time>2025-02-20T13:45:10Z</time>
      </trkpt>
      <trkpt lat="45.61406" lon="6.51601">
        <ele>2149.8</ele>
        <time>2025-02-20T13:45:11Z</time>
      </trkpt>
      <trkpt lat="45.61406" lon="6.51601">
        <ele>2149.8</ele>
        <time>2025-02-20T13:45:12Z</time>
      </trkpt>
      <trkpt lat="45.61406" lon="6.51601">
        <ele>2149.6</ele>
        <time>2025-02-20T13:45:13Z</time>
      </trkpt>
      <trkpt lat="45.61406" lon="6.51601">
        <ele>2149.6</ele>
        <time>2025-02-20T13:45:14Z</time>
      </trkpt>
      <trkpt lat="45.61406" lon="6.51601">
        <ele>2149.6</ele>
        <time>2025-02-20T13:45:15Z</time>
      </trkpt>
      <trkpt lat="45.61406" lon="6.51601">
        <ele>2150</ele>
        <time>2025-02-20T13:45:16Z</time>
      </trkpt>
      <trkpt lat="45.61406" lon="6.51601">
        <ele>2150</ele>
        <time>2025-02-20T13:45:17Z</time>
      </trkpt>
      <trkpt lat="45.61406" lon="6.51601">
        <ele>2150</ele>
        <time>2025-02-20T13:45:18Z</time>
      </trkpt>
      <trkpt lat="45.61406" lon="6.51601">
        <ele>2150</ele>
        <time>2025-02-20T13:45:19Z</time>
      </trkpt>
      <trkpt lat="45.61406" lon="6.51601">
        <ele>2149.8</ele>
        <time>2025-02-20T13:45:20Z</time>
      </trkpt>
      <trkpt lat="45.61406" lon="6.51601">
        <ele>2149.8</ele>
        <time>2025-02-20T13:45:21Z</time>
      </trkpt>
      <trkpt lat="45.61406" lon="6.51601">
        <ele>2149.8</ele>
        <time>2025-02-20T13:45:22Z</time>
      </trkpt>
      <trkpt lat="45.61406" lon="6.51601">
        <ele>2149.8</ele>
        <time>2025-02-20T13:45:23Z</time>
      </trkpt>
      <trkpt lat="45.61406" lon="6.51601">
        <ele>2149.8</ele>
        <time>2025-02-20T13:45:24Z</time>
      </trkpt>
      <trkpt lat="45.61409" lon="6.51596">
        <ele>2149.6</ele>
        <time>2025-02-20T13:45:25Z</time>
      </trkpt>
      <trkpt lat="45.61413" lon="6.51598">
        <ele>2149.6</ele>
        <time>2025-02-20T13:45:26Z</time>
      </trkpt>
      <trkpt lat="45.61416" lon="6.51603">
        <ele>2149.6</ele>
        <time>2025-02-20T13:45:27Z</time>
      </trkpt>
      <trkpt lat="45.61417" lon="6.51608">
        <ele>2148.6</ele>
        <time>2025-02-20T13:45:28Z</time>
      </trkpt>
      <trkpt lat="45.61418" lon="6.51614">
        <ele>2145.2</ele>
        <time>2025-02-20T13:45:29Z</time>
      </trkpt>
      <trkpt lat="45.6142" lon="6.51618">
        <ele>2145.2</ele>
        <time>2025-02-20T13:45:30Z</time>
      </trkpt>
      <trkpt lat="45.61423" lon="6.51619">
        <ele>2145.2</ele>
        <time>2025-02-20T13:45:31Z</time>
      </trkpt>
      <trkpt lat="45.61427" lon="6.51617">
        <ele>2144.2</ele>
        <time>2025-02-20T13:45:32Z</time>
      </trkpt>
      <trkpt lat="45.6143" lon="6.5162">
        <ele>2140.4</ele>
        <time>2025-02-20T13:45:33Z</time>
      </trkpt>
      <trkpt lat="45.61432" lon="6.51625">
        <ele>2140.4</ele>
        <time>2025-02-20T13:45:34Z</time>
      </trkpt>
      <trkpt lat="45.61436" lon="6.51625">
        <ele>2140.4</ele>
        <time>2025-02-20T13:45:35Z</time>
      </trkpt>
      <trkpt lat="45.61439" lon="6.51621">
        <ele>2139.4</ele>
        <time>2025-02-20T13:45:36Z</time>
      </trkpt>
      <trkpt lat="45.61443" lon="6.51619">
        <ele>2133.4</ele>
        <time>2025-02-20T13:45:37Z</time>
      </trkpt>
      <trkpt lat="45.61447" lon="6.51622">
        <ele>2133.4</ele>
        <time>2025-02-20T13:45:38Z</time>
      </trkpt>
      <trkpt lat="45.61448" lon="6.51627">
        <ele>2133.4</ele>
        <time>2025-02-20T13:45:39Z</time>
      </trkpt>
      <trkpt lat="45.61449" lon="6.51632">
        <ele>2132.4</ele>
        <time>2025-02-20T13:45:40Z</time>
      </trkpt>
      <trkpt lat="45.61451" lon="6.51635">
        <ele>2128.6</ele>
        <time>2025-02-20T13:45:41Z</time>
      </trkpt>
      <trkpt lat="45.61454" lon="6.51637">
        <ele>2128.6</ele>
        <time>2025-02-20T13:45:42Z</time>
      </trkpt>
      <trkpt lat="45.61455" lon="6.51633">
        <ele>2128.6</ele>
        <time>2025-02-20T13:45:43Z</time>
      </trkpt>
      <trkpt lat="45.61456" lon="6.5163">
        <ele>2127.6</ele>
        <time>2025-02-20T13:45:44Z</time>
      </trkpt>
      <trkpt lat="45.61459" lon="6.51627">
        <ele>2124.2</ele>
        <time>2025-02-20T13:45:45Z</time>
      </trkpt>
      <trkpt lat="45.61463" lon="6.51629">
        <ele>2124.2</ele>
        <time>2025-02-20T13:45:46Z</time>
      </trkpt>
      <trkpt lat="45.61465" lon="6.51634">
        <ele>2124.2</ele>
        <time>2025-02-20T13:45:47Z</time>
      </trkpt>
      <trkpt lat="45.61466" lon="6.51638">
        <ele>2123.2</ele>
        <time>2025-02-20T13:45:48Z</time>
      </trkpt>
      <trkpt lat="45.61467" lon="6.5164">
        <ele>2118.4</ele>
        <time>2025-02-20T13:45:49Z</time>
      </trkpt>
      <trkpt lat="45.61467" lon="6.51641">
        <ele>2118.4</ele>
        <time>2025-02-20T13:45:50Z</time>
      </trkpt>
      <trkpt lat="45.61468" lon="6.51642">
        <ele>2118.4</ele>
        <time>2025-02-20T13:45:51Z</time>
      </trkpt>
      <trkpt lat="45.61469" lon="6.51644">
        <ele>2118.4</ele>
        <time>2025-02-20T13:45:52Z</time>
      </trkpt>
      <trkpt lat="45.61472" lon="6.51646">
        <ele>2117.6</ele>
        <time>2025-02-20T13:45:53Z</time>
      </trkpt>
      <trkpt lat="45.61474" lon="6.51642">
        <ele>2117.6</ele>
        <time>2025-02-20T13:45:54Z</time>
      </trkpt>
      <trkpt lat="45.61475" lon="6.51638">
        <ele>2117.6</ele>
        <time>2025-02-20T13:45:55Z</time>
      </trkpt>
      <trkpt lat="45.61478" lon="6.51636">
        <ele>2116.6</ele>
        <time>2025-02-20T13:45:56Z</time>
      </trkpt>
      <trkpt lat="45.6148" lon="6.51639">
        <ele>2111</ele>
        <time>2025-02-20T13:45:57Z</time>
      </trkpt>
      <trkpt lat="45.61482" lon="6.51643">
        <ele>2111</ele>
        <time>2025-02-20T13:45:58Z</time>
      </trkpt>
      <trkpt lat="45.61484" lon="6.51646">
        <ele>2111</ele>
        <time>2025-02-20T13:45:59Z</time>
      </trkpt>
      <trkpt lat="45.61488" lon="6.51643">
        <ele>2110</ele>
        <time>2025-02-20T13:46:00Z</time>
      </trkpt>
      <trkpt lat="45.61491" lon="6.51639">
        <ele>2105</ele>
        <time>2025-02-20T13:46:01Z</time>
      </trkpt>
      <trkpt lat="45.61497" lon="6.51641">
        <ele>2105</ele>
        <time>2025-02-20T13:46:02Z</time>
      </trkpt>
      <trkpt lat="45.615" lon="6.51648">
        <ele>2105</ele>
        <time>2025-02-20T13:46:03Z</time>
      </trkpt>
      <trkpt lat="45.61502" lon="6.51655">
        <ele>2104</ele>
        <time>2025-02-20T13:46:04Z</time>
      </trkpt>
      <trkpt lat="45.61503" lon="6.51662">
        <ele>2096.8</ele>
        <time>2025-02-20T13:46:05Z</time>
      </trkpt>
      <trkpt lat="45.61505" lon="6.51668">
        <ele>2096.8</ele>
        <time>2025-02-20T13:46:06Z</time>
      </trkpt>
      <trkpt lat="45.61508" lon="6.51672">
        <ele>2096.8</ele>
        <time>2025-02-20T13:46:07Z</time>
      </trkpt>
      <trkpt lat="45.61512" lon="6.51674">
        <ele>2096.8</ele>
        <time>2025-02-20T13:46:08Z</time>
      </trkpt>
      <trkpt lat="45.61518" lon="6.51671">
        <ele>2093.6</ele>
        <time>2025-02-20T13:46:09Z</time>
      </trkpt>
      <trkpt lat="45.61524" lon="6.51673">
        <ele>2093.6</ele>
        <time>2025-02-20T13:46:10Z</time>
      </trkpt>
      <trkpt lat="45.6153" lon="6.51677">
        <ele>2093.6</ele>
        <time>2025-02-20T13:46:11Z</time>
      </trkpt>
      <trkpt lat="45.61537" lon="6.51676">
        <ele>2092.6</ele>
        <time>2025-02-20T13:46:12Z</time>
      </trkpt>
      <trkpt lat="45.61542" lon="6.51681">
        <ele>2087.8</ele>
        <time>2025-02-20T13:46:13Z</time>
      </trkpt>
      <trkpt lat="45.61545" lon="6.51687">
        <ele>2087.8</ele>
        <time>2025-02-20T13:46:14Z</time>
      </trkpt>
      <trkpt lat="45.6155" lon="6.51688">
        <ele>2087.8</ele>
        <time>2025-02-20T13:46:15Z</time>
      </trkpt>
      <trkpt lat="45.61556" lon="6.51688">
        <ele>2086.8</ele>
        <time>2025-02-20T13:46:16Z</time>
      </trkpt>
      <trkpt lat="45.6156" lon="6.51692">
        <ele>2082.2</ele>
        <time>2025-02-20T13:46:17Z</time>
      </trkpt>
      <trkpt lat="45.61565" lon="6.51694">
        <ele>2082.2</ele>
        <time>2025-02-20T13:46:18Z</time>
      </trkpt>
      <trkpt lat="45.6157" lon="6.51694">
        <ele>2082.2</ele>
        <time>2025-02-20T13:46:19Z</time>
      </trkpt>
      <trkpt lat="45.61575" lon="6.51693">
        <ele>2081.2</ele>
        <time>2025-02-20T13:46:20Z</time>
      </trkpt>
      <trkpt lat="45.61581" lon="6.51691">
        <ele>2077.8</ele>
        <time>2025-02-20T13:46:21Z</time>
      </trkpt>
      <trkpt lat="45.61585" lon="6.51694">
        <ele>2077.8</ele>
        <time>2025-02-20T13:46:22Z</time>
      </trkpt>
      <trkpt lat="45.61592" lon="6.51693">
        <ele>2077.8</ele>
        <time>2025-02-20T13:46:23Z</time>
      </trkpt>
      <trkpt lat="45.61599" lon="6.51692">
        <ele>2076.8</ele>
        <time>2025-02-20T13:46:24Z</time>
      </trkpt>
      <trkpt lat="45.61604" lon="6.51697">
        <ele>2071.4</ele>
        <time>2025-02-20T13:46:25Z</time>
      </trkpt>
      <trkpt lat="45.61609" lon="6.51702">
        <ele>2071.4</ele>
        <time>2025-02-20T13:46:26Z</time>
      </trkpt>
      <trkpt lat="45.61613" lon="6.51703">
        <ele>2071.4</ele>
        <time>2025-02-20T13:46:27Z</time>
      </trkpt>
      <trkpt lat="45.61616" lon="6.51707">
        <ele>2070.4</ele>
        <time>2025-02-20T13:46:28Z</time>
      </trkpt>
      <trkpt lat="45.61618" lon="6.51711">
        <ele>2069.4</ele>
        <time>2025-02-20T13:46:29Z</time>
      </trkpt>
      <trkpt lat="45.61621" lon="6.51713">
        <ele>2069.4</ele>
        <time>2025-02-20T13:46:30Z</time>
      </trkpt>
      <trkpt lat="45.61624" lon="6.51715">
        <ele>2069.4</ele>
        <time>2025-02-20T13:46:31Z</time>
      </trkpt>
      <trkpt lat="45.61626" lon="6.51718">
        <ele>2068.4</ele>
        <time>2025-02-20T13:46:32Z</time>
      </trkpt>
      <trkpt lat="45.61625" lon="6.51721">
        <ele>2066.6</ele>
        <time>2025-02-20T13:46:33Z</time>
      </trkpt>
      <trkpt lat="45.61624" lon="6.51721">
        <ele>2066.6</ele>
        <time>2025-02-20T13:46:34Z</time>
      </trkpt>
      <trkpt lat="45.61623" lon="6.51722">
        <ele>2066.6</ele>
        <time>2025-02-20T13:46:35Z</time>
      </trkpt>
      <trkpt lat="45.61622" lon="6.51723">
        <ele>2065.6</ele>
        <time>2025-02-20T13:46:36Z</time>
      </trkpt>
      <trkpt lat="45.61621" lon="6.51727">
        <ele>2065.8</ele>
        <time>2025-02-20T13:46:37Z</time>
      </trkpt>
      <trkpt lat="45.61619" lon="6.51731">
        <ele>2065.8</ele>
        <time>2025-02-20T13:46:38Z</time>
      </trkpt>
      <trkpt lat="45.61618" lon="6.51738">
        <ele>2065.8</ele>
        <time>2025-02-20T13:46:39Z</time>
      </trkpt>
      <trkpt lat="45.61618" lon="6.51747">
        <ele>2064.8</ele>
        <time>2025-02-20T13:46:40Z</time>
      </trkpt>
      <trkpt lat="45.61619" lon="6.51756">
        <ele>2061.8</ele>
        <time>2025-02-20T13:46:41Z</time>
      </trkpt>
      <trkpt lat="45.6162" lon="6.51763">
        <ele>2061.8</ele>
        <time>2025-02-20T13:46:42Z</time>
      </trkpt>
      <trkpt lat="45.61621" lon="6.5177">
        <ele>2061.8</ele>
        <time>2025-02-20T13:46:43Z</time>
      </trkpt>
      <trkpt lat="45.61623" lon="6.51776">
        <ele>2060.8</ele>
        <time>2025-02-20T13:46:44Z</time>
      </trkpt>
      <trkpt lat="45.61627" lon="6.51779">
        <ele>2059.4</ele>
        <time>2025-02-20T13:46:45Z</time>
      </trkpt>
      <trkpt lat="45.61632" lon="6.51782">
        <ele>2059.4</ele>
        <time>2025-02-20T13:46:46Z</time>
      </trkpt>
      <trkpt lat="45.61635" lon="6.51787">
        <ele>2059.4</ele>
        <time>2025-02-20T13:46:47Z</time>
      </trkpt>
      <trkpt lat="45.6164" lon="6.51788">
        <ele>2058.4</ele>
        <time>2025-02-20T13:46:48Z</time>
      </trkpt>
      <trkpt lat="45.61645" lon="6.51793">
        <ele>2052</ele>
        <time>2025-02-20T13:46:49Z</time>
      </trkpt>
      <trkpt lat="45.61647" lon="6.51799">
        <ele>2052</ele>
        <time>2025-02-20T13:46:50Z</time>
      </trkpt>
      <trkpt lat="45.6165" lon="6.51801">
        <ele>2052</ele>
        <time>2025-02-20T13:46:51Z</time>
      </trkpt>
      <trkpt lat="45.61655" lon="6.518">
        <ele>2051</ele>
        <time>2025-02-20T13:46:52Z</time>
      </trkpt>
      <trkpt lat="45.61661" lon="6.51802">
        <ele>2044.6</ele>
        <time>2025-02-20T13:46:53Z</time>
      </trkpt>
      <trkpt lat="45.61664" lon="6.51809">
        <ele>2044.6</ele>
        <time>2025-02-20T13:46:54Z</time>
      </trkpt>
      <trkpt lat="45.61669" lon="6.51813">
        <ele>2044.6</ele>
        <time>2025-02-20T13:46:55Z</time>
      </trkpt>
      <trkpt lat="45.61675" lon="6.51814">
        <ele>2043.6</ele>
        <time>2025-02-20T13:46:56Z</time>
      </trkpt>
      <trkpt lat="45.6168" lon="6.5182">
        <ele>2038</ele>
        <time>2025-02-20T13:46:57Z</time>
      </trkpt>
      <trkpt lat="45.61682" lon="6.51828">
        <ele>2038</ele>
        <time>2025-02-20T13:46:58Z</time>
      </trkpt>
      <trkpt lat="45.61683" lon="6.51835">
        <ele>2038</ele>
        <time>2025-02-20T13:46:59Z</time>
      </trkpt>
      <trkpt lat="45.61683" lon="6.51842">
        <ele>2037</ele>
        <time>2025-02-20T13:47:00Z</time>
      </trkpt>
      <trkpt lat="45.61684" lon="6.51848">
        <ele>2033.6</ele>
        <time>2025-02-20T13:47:01Z</time>
      </trkpt>
      <trkpt lat="45.61687" lon="6.51853">
        <ele>2033.6</ele>
        <time>2025-02-20T13:47:02Z</time>
      </trkpt>
      <trkpt lat="45.61693" lon="6.51855">
        <ele>2033.6</ele>
        <time>2025-02-20T13:47:03Z</time>
      </trkpt>
      <trkpt lat="45.61698" lon="6.51861">
        <ele>2032.6</ele>
        <time>2025-02-20T13:47:04Z</time>
      </trkpt>
      <trkpt lat="45.61701" lon="6.51869">
        <ele>2029.2</ele>
        <time>2025-02-20T13:47:05Z</time>
      </trkpt>
      <trkpt lat="45.61704" lon="6.51876">
        <ele>2029.2</ele>
        <time>2025-02-20T13:47:06Z</time>
      </trkpt>
      <trkpt lat="45.61707" lon="6.51883">
        <ele>2029.2</ele>
        <time>2025-02-20T13:47:07Z</time>
      </trkpt>
      <trkpt lat="45.61711" lon="6.51888">
        <ele>2028.2</ele>
        <time>2025-02-20T13:47:08Z</time>
      </trkpt>
      <trkpt lat="45.61715" lon="6.5189">
        <ele>2024.8</ele>
        <time>2025-02-20T13:47:09Z</time>
      </trkpt>
      <trkpt lat="45.61721" lon="6.51888">
        <ele>2024.8</ele>
        <time>2025-02-20T13:47:10Z</time>
      </trkpt>
      <trkpt lat="45.61727" lon="6.51892">
        <ele>2024.8</ele>
        <time>2025-02-20T13:47:11Z</time>
      </trkpt>
      <trkpt lat="45.61731" lon="6.51899">
        <ele>2024.8</ele>
        <time>2025-02-20T13:47:12Z</time>
      </trkpt>
      <trkpt lat="45.61733" lon="6.51904">
        <ele>2017.8</ele>
        <time>2025-02-20T13:47:13Z</time>
      </trkpt>
      <trkpt lat="45.61738" lon="6.5191">
        <ele>2017.8</ele>
        <time>2025-02-20T13:47:14Z</time>
      </trkpt>
      <trkpt lat="45.61744" lon="6.51916">
        <ele>2017.8</ele>
        <time>2025-02-20T13:47:15Z</time>
      </trkpt>
      <trkpt lat="45.61751" lon="6.51922">
        <ele>2016.8</ele>
        <time>2025-02-20T13:47:16Z</time>
      </trkpt>
      <trkpt lat="45.61757" lon="6.51929">
        <ele>2012</ele>
        <time>2025-02-20T13:47:17Z</time>
      </trkpt>
      <trkpt lat="45.61763" lon="6.51935">
        <ele>2012</ele>
        <time>2025-02-20T13:47:18Z</time>
      </trkpt>
      <trkpt lat="45.6177" lon="6.5194">
        <ele>2012</ele>
        <time>2025-02-20T13:47:19Z</time>
      </trkpt>
      <trkpt lat="45.61776" lon="6.51945">
        <ele>2011</ele>
        <time>2025-02-20T13:47:20Z</time>
      </trkpt>
      <trkpt lat="45.61781" lon="6.5195">
        <ele>2009</ele>
        <time>2025-02-20T13:47:21Z</time>
      </trkpt>
      <trkpt lat="45.61789" lon="6.5195">
        <ele>2009</ele>
        <time>2025-02-20T13:47:22Z</time>
      </trkpt>
      <trkpt lat="45.61796" lon="6.51949">
        <ele>2009</ele>
        <time>2025-02-20T13:47:23Z</time>
      </trkpt>
      <trkpt lat="45.61803" lon="6.51953">
        <ele>2008</ele>
        <time>2025-02-20T13:47:24Z</time>
      </trkpt>
      <trkpt lat="45.6181" lon="6.51957">
        <ele>2003</ele>
        <time>2025-02-20T13:47:25Z</time>
      </trkpt>
      <trkpt lat="45.61817" lon="6.51958">
        <ele>2003</ele>
        <time>2025-02-20T13:47:26Z</time>
      </trkpt>
      <trkpt lat="45.61824" lon="6.51957">
        <ele>2003</ele>
        <time>2025-02-20T13:47:27Z</time>
      </trkpt>
      <trkpt lat="45.61832" lon="6.51957">
        <ele>2003</ele>
        <time>2025-02-20T13:47:28Z</time>
      </trkpt>
      <trkpt lat="45.6184" lon="6.51956">
        <ele>1999.2</ele>
        <time>2025-02-20T13:47:29Z</time>
      </trkpt>
      <trkpt lat="45.61847" lon="6.51959">
        <ele>1999.2</ele>
        <time>2025-02-20T13:47:30Z</time>
      </trkpt>
      <trkpt lat="45.6185" lon="6.51964">
        <ele>1999.2</ele>
        <time>2025-02-20T13:47:31Z</time>
      </trkpt>
      <trkpt lat="45.61854" lon="6.51967">
        <ele>1998.2</ele>
        <time>2025-02-20T13:47:32Z</time>
      </trkpt>
      <trkpt lat="45.61858" lon="6.5197">
        <ele>1995.8</ele>
        <time>2025-02-20T13:47:33Z</time>
      </trkpt>
      <trkpt lat="45.61861" lon="6.51972">
        <ele>1995.8</ele>
        <time>2025-02-20T13:47:34Z</time>
      </trkpt>
      <trkpt lat="45.61864" lon="6.51975">
        <ele>1995.8</ele>
        <time>2025-02-20T13:47:35Z</time>
      </trkpt>
      <trkpt lat="45.61866" lon="6.51977">
        <ele>1994.8</ele>
        <time>2025-02-20T13:47:36Z</time>
      </trkpt>
      <trkpt lat="45.61867" lon="6.51979">
        <ele>1992.6</ele>
        <time>2025-02-20T13:47:37Z</time>
      </trkpt>
      <trkpt lat="45.61867" lon="6.51983">
        <ele>1992.6</ele>
        <time>2025-02-20T13:47:38Z</time>
      </trkpt>
      <trkpt lat="45.61867" lon="6.51989">
        <ele>1992.6</ele>
        <time>2025-02-20T13:47:39Z</time>
      </trkpt>
      <trkpt lat="45.61871" lon="6.51993">
        <ele>1992.6</ele>
        <time>2025-02-20T13:47:40Z</time>
      </trkpt>
      <trkpt lat="45.61875" lon="6.51995">
        <ele>1991</ele>
        <time>2025-02-20T13:47:41Z</time>
      </trkpt>
      <trkpt lat="45.6188" lon="6.51998">
        <ele>1991</ele>
        <time>2025-02-20T13:47:42Z</time>
      </trkpt>
      <trkpt lat="45.61884" lon="6.52002">
        <ele>1991</ele>
        <time>2025-02-20T13:47:43Z</time>
      </trkpt>
      <trkpt lat="45.61887" lon="6.52008">
        <ele>1990</ele>
        <time>2025-02-20T13:47:44Z</time>
      </trkpt>
      <trkpt lat="45.61888" lon="6.52012">
        <ele>1988.2</ele>
        <time>2025-02-20T13:47:45Z</time>
      </trkpt>
      <trkpt lat="45.6189" lon="6.52013">
        <ele>1988.2</ele>
        <time>2025-02-20T13:47:46Z</time>
      </trkpt>
      <trkpt lat="45.61892" lon="6.52014">
        <ele>1988.2</ele>
        <time>2025-02-20T13:47:47Z</time>
      </trkpt>
      <trkpt lat="45.61896" lon="6.52014">
        <ele>1987.8</ele>
        <time>2025-02-20T13:47:48Z</time>
      </trkpt>
      <trkpt lat="45.619" lon="6.52013">
        <ele>1986</ele>
        <time>2025-02-20T13:47:49Z</time>
      </trkpt>
      <trkpt lat="45.61902" lon="6.52012">
        <ele>1986</ele>
        <time>2025-02-20T13:47:50Z</time>
      </trkpt>
      <trkpt lat="45.61903" lon="6.52012">
        <ele>1986</ele>
        <time>2025-02-20T13:47:51Z</time>
      </trkpt>
      <trkpt lat="45.61903" lon="6.52012">
        <ele>1986</ele>
        <time>2025-02-20T13:47:52Z</time>
      </trkpt>
      <trkpt lat="45.61903" lon="6.52012">
        <ele>1985.8</ele>
        <time>2025-02-20T13:47:53Z</time>
      </trkpt>
      <trkpt lat="45.61903" lon="6.52012">
        <ele>1985.8</ele>
        <time>2025-02-20T13:47:54Z</time>
      </trkpt>
      <trkpt lat="45.61903" lon="6.52012">
        <ele>1985.8</ele>
        <time>2025-02-20T13:47:55Z</time>
      </trkpt>
      <trkpt lat="45.61903" lon="6.52012">
        <ele>1985.8</ele>
        <time>2025-02-20T13:47:56Z</time>
      </trkpt>
      <trkpt lat="45.61903" lon="6.52012">
        <ele>1987.4</ele>
        <time>2025-02-20T13:47:57Z</time>
      </trkpt>
      <trkpt lat="45.61903" lon="6.52012">
        <ele>1987.4</ele>
        <time>2025-02-20T13:47:58Z</time>
      </trkpt>
      <trkpt lat="45.61903" lon="6.52012">
        <ele>1987.4</ele>
        <time>2025-02-20T13:47:59Z</time>
      </trkpt>
      <trkpt lat="45.61903" lon="6.52012">
        <ele>1986.4</ele>
        <time>2025-02-20T13:48:00Z</time>
      </trkpt>
      <trkpt lat="45.61903" lon="6.52012">
        <ele>1986.2</ele>
        <time>2025-02-20T13:48:01Z</time>
      </trkpt>
      <trkpt lat="45.61903" lon="6.52012">
        <ele>1986.2</ele>
        <time>2025-02-20T13:48:02Z</time>
      </trkpt>
      <trkpt lat="45.61903" lon="6.52012">
        <ele>1986.2</ele>
        <time>2025-02-20T13:48:03Z</time>
      </trkpt>
      <trkpt lat="45.61903" lon="6.52012">
        <ele>1986.2</ele>
        <time>2025-02-20T13:48:04Z</time>
      </trkpt>
      <trkpt lat="45.61903" lon="6.52012">
        <ele>1985.4</ele>
        <time>2025-02-20T13:48:05Z</time>
      </trkpt>
      <trkpt lat="45.61903" lon="6.52012">
        <ele>1985.4</ele>
        <time>2025-02-20T13:48:06Z</time>
      </trkpt>
      <trkpt lat="45.61903" lon="6.52012">
        <ele>1985.4</ele>
        <time>2025-02-20T13:48:07Z</time>
      </trkpt>
      <trkpt lat="45.61903" lon="6.52012">
        <ele>1985.4</ele>
        <time>2025-02-20T13:48:08Z</time>
      </trkpt>
      <trkpt lat="45.61903" lon="6.52012">
        <ele>1985.2</ele>
        <time>2025-02-20T13:48:09Z</time>
      </trkpt>
      <trkpt lat="45.61903" lon="6.52011">
        <ele>1985.2</ele>
        <time>2025-02-20T13:48:10Z</time>
      </trkpt>
      <trkpt lat="45.61904" lon="6.52012">
        <ele>1985.2</ele>
        <time>2025-02-20T13:48:11Z</time>
      </trkpt>
      <trkpt lat="45.61905" lon="6.52012">
        <ele>1985.2</ele>
        <time>2025-02-20T13:48:12Z</time>
      </trkpt>
      <trkpt lat="45.61905" lon="6.52011">
        <ele>1985.4</ele>
        <time>2025-02-20T13:48:13Z</time>
      </trkpt>
      <trkpt lat="45.61905" lon="6.52011">
        <ele>1985.4</ele>
        <time>2025-02-20T13:48:14Z</time>
      </trkpt>
      <trkpt lat="45.61906" lon="6.52011">
        <ele>1985.4</ele>
        <time>2025-02-20T13:48:15Z</time>
      </trkpt>
      <trkpt lat="45.61907" lon="6.5201">
        <ele>1985.4</ele>
        <time>2025-02-20T13:48:16Z</time>
      </trkpt>
      <trkpt lat="45.61908" lon="6.5201">
        <ele>1985.8</ele>
        <time>2025-02-20T13:48:17Z</time>
      </trkpt>
      <trkpt lat="45.61909" lon="6.5201">
        <ele>1985.8</ele>
        <time>2025-02-20T13:48:18Z</time>
      </trkpt>
      <trkpt lat="45.6191" lon="6.5201">
        <ele>1985.8</ele>
        <time>2025-02-20T13:48:19Z</time>
      </trkpt>
      <trkpt lat="45.61911" lon="6.5201">
        <ele>1984.8</ele>
        <time>2025-02-20T13:48:20Z</time>
      </trkpt>
      <trkpt lat="45.61912" lon="6.52009">
        <ele>1985.2</ele>
        <time>2025-02-20T13:48:21Z</time>
      </trkpt>
      <trkpt lat="45.61914" lon="6.52008">
        <ele>1985.2</ele>
        <time>2025-02-20T13:48:22Z</time>
      </trkpt>
      <trkpt lat="45.61916" lon="6.52007">
        <ele>1985.2</ele>
        <time>2025-02-20T13:48:23Z</time>
      </trkpt>
      <trkpt lat="45.61918" lon="6.52007">
        <ele>1985.2</ele>
        <time>2025-02-20T13:48:24Z</time>
      </trkpt>
      <trkpt lat="45.61922" lon="6.52007">
        <ele>1984</ele>
        <time>2025-02-20T13:48:25Z</time>
      </trkpt>
      <trkpt lat="45.61927" lon="6.52007">
        <ele>1984</ele>
        <time>2025-02-20T13:48:26Z</time>
      </trkpt>
      <trkpt lat="45.61932" lon="6.52007">
        <ele>1984</ele>
        <time>2025-02-20T13:48:27Z</time>
      </trkpt>
      <trkpt lat="45.61935" lon="6.52008">
        <ele>1983</ele>
        <time>2025-02-20T13:48:28Z</time>
      </trkpt>
      <trkpt lat="45.61936" lon="6.52008">
        <ele>1980.2</ele>
        <time>2025-02-20T13:48:29Z</time>
      </trkpt>
      <trkpt lat="45.61937" lon="6.52009">
        <ele>1980.2</ele>
        <time>2025-02-20T13:48:30Z</time>
      </trkpt>
      <trkpt lat="45.61938" lon="6.52011">
        <ele>1980.2</ele>
        <time>2025-02-20T13:48:31Z</time>
      </trkpt>
      <trkpt lat="45.61939" lon="6.52013">
        <ele>1980.2</ele>
        <time>2025-02-20T13:48:32Z</time>
      </trkpt>
      <trkpt lat="45.61941" lon="6.52015">
        <ele>1978.6</ele>
        <time>2025-02-20T13:48:33Z</time>
      </trkpt>
      <trkpt lat="45.61942" lon="6.52017">
        <ele>1978.6</ele>
        <time>2025-02-20T13:48:34Z</time>
      </trkpt>
      <trkpt lat="45.61944" lon="6.52019">
        <ele>1978.6</ele>
        <time>2025-02-20T13:48:35Z</time>
      </trkpt>
      <trkpt lat="45.61945" lon="6.52022">
        <ele>1978.6</ele>
        <time>2025-02-20T13:48:36Z</time>
      </trkpt>
      <trkpt lat="45.61944" lon="6.52025">
        <ele>1976</ele>
        <time>2025-02-20T13:48:37Z</time>
      </trkpt>
      <trkpt lat="45.61944" lon="6.52028">
        <ele>1976</ele>
        <time>2025-02-20T13:48:38Z</time>
      </trkpt>
      <trkpt lat="45.61946" lon="6.52031">
        <ele>1976</ele>
        <time>2025-02-20T13:48:39Z</time>
      </trkpt>
      <trkpt lat="45.6195" lon="6.52032">
        <ele>1975</ele>
        <time>2025-02-20T13:48:40Z</time>
      </trkpt>
      <trkpt lat="45.61954" lon="6.52031">
        <ele>1973</ele>
        <time>2025-02-20T13:48:41Z</time>
      </trkpt>
      <trkpt lat="45.61958" lon="6.52032">
        <ele>1973</ele>
        <time>2025-02-20T13:48:42Z</time>
      </trkpt>
      <trkpt lat="45.61958" lon="6.52034">
        <ele>1973</ele>
        <time>2025-02-20T13:48:43Z</time>
      </trkpt>
      <trkpt lat="45.61958" lon="6.52039">
        <ele>1972</ele>
        <time>2025-02-20T13:48:44Z</time>
      </trkpt>
      <trkpt lat="45.61961" lon="6.52041">
        <ele>1971.4</ele>
        <time>2025-02-20T13:48:45Z</time>
      </trkpt>
      <trkpt lat="45.61965" lon="6.52041">
        <ele>1971.4</ele>
        <time>2025-02-20T13:48:46Z</time>
      </trkpt>
      <trkpt lat="45.61967" lon="6.52042">
        <ele>1971.4</ele>
        <time>2025-02-20T13:48:47Z</time>
      </trkpt>
      <trkpt lat="45.61968" lon="6.52042">
        <ele>1970.4</ele>
        <time>2025-02-20T13:48:48Z</time>
      </trkpt>
      <trkpt lat="45.61967" lon="6.52042">
        <ele>1967.8</ele>
        <time>2025-02-20T13:48:49Z</time>
      </trkpt>
      <trkpt lat="45.61966" lon="6.52042">
        <ele>1967.8</ele>
        <time>2025-02-20T13:48:50Z</time>
      </trkpt>
      <trkpt lat="45.61966" lon="6.52042">
        <ele>1967.8</ele>
        <time>2025-02-20T13:48:51Z</time>
      </trkpt>
      <trkpt lat="45.61966" lon="6.52042">
        <ele>1967.8</ele>
        <time>2025-02-20T13:48:52Z</time>
      </trkpt>
      <trkpt lat="45.61966" lon="6.52042">
        <ele>1967.6</ele>
        <time>2025-02-20T13:48:53Z</time>
      </trkpt>
      <trkpt lat="45.61966" lon="6.52043">
        <ele>1967.6</ele>
        <time>2025-02-20T13:48:54Z</time>
      </trkpt>
      <trkpt lat="45.61966" lon="6.52045">
        <ele>1967.6</ele>
        <time>2025-02-20T13:48:55Z</time>
      </trkpt>
      <trkpt lat="45.61965" lon="6.52046">
        <ele>1967.6</ele>
        <time>2025-02-20T13:48:56Z</time>
      </trkpt>
      <trkpt lat="45.61965" lon="6.52047">
        <ele>1965.8</ele>
        <time>2025-02-20T13:48:57Z</time>
      </trkpt>
      <trkpt lat="45.61964" lon="6.52048">
        <ele>1965.8</ele>
        <time>2025-02-20T13:48:58Z</time>
      </trkpt>
      <trkpt lat="45.61964" lon="6.52049">
        <ele>1965.8</ele>
        <time>2025-02-20T13:48:59Z</time>
      </trkpt>
      <trkpt lat="45.61963" lon="6.52051">
        <ele>1965.8</ele>
        <time>2025-02-20T13:49:00Z</time>
      </trkpt>
      <trkpt lat="45.61962" lon="6.52051">
        <ele>1963.6</ele>
        <time>2025-02-20T13:49:01Z</time>
      </trkpt>
      <trkpt lat="45.61962" lon="6.52052">
        <ele>1963.6</ele>
        <time>2025-02-20T13:49:02Z</time>
      </trkpt>
      <trkpt lat="45.61962" lon="6.52054">
        <ele>1963.6</ele>
        <time>2025-02-20T13:49:03Z</time>
      </trkpt>
      <trkpt lat="45.61962" lon="6.52055">
        <ele>1962.6</ele>
        <time>2025-02-20T13:49:04Z</time>
      </trkpt>
      <trkpt lat="45.61964" lon="6.52058">
        <ele>1962.2</ele>
        <time>2025-02-20T13:49:05Z</time>
      </trkpt>
      <trkpt lat="45.61966" lon="6.52059">
        <ele>1962.2</ele>
        <time>2025-02-20T13:49:06Z</time>
      </trkpt>
      <trkpt lat="45.61968" lon="6.5206">
        <ele>1962.2</ele>
        <time>2025-02-20T13:49:07Z</time>
      </trkpt>
      <trkpt lat="45.6197" lon="6.52062">
        <ele>1961.2</ele>
        <time>2025-02-20T13:49:08Z</time>
      </trkpt>
      <trkpt lat="45.61973" lon="6.52065">
        <ele>1959.8</ele>
        <time>2025-02-20T13:49:09Z</time>
      </trkpt>
      <trkpt lat="45.61975" lon="6.52069">
        <ele>1959.8</ele>
        <time>2025-02-20T13:49:10Z</time>
      </trkpt>
      <trkpt lat="45.61978" lon="6.52074">
        <ele>1959.8</ele>
        <time>2025-02-20T13:49:11Z</time>
      </trkpt>
      <trkpt lat="45.6198" lon="6.52078">
        <ele>1958.8</ele>
        <time>2025-02-20T13:49:12Z</time>
      </trkpt>
      <trkpt lat="45.61983" lon="6.52082">
        <ele>1954.8</ele>
        <time>2025-02-20T13:49:13Z</time>
      </trkpt>
      <trkpt lat="45.61984" lon="6.52087">
        <ele>1954.8</ele>
        <time>2025-02-20T13:49:14Z</time>
      </trkpt>
      <trkpt lat="45.61986" lon="6.5209">
        <ele>1954.8</ele>
        <time>2025-02-20T13:49:15Z</time>
      </trkpt>
      <trkpt lat="45.6199" lon="6.52092">
        <ele>1953.8</ele>
        <time>2025-02-20T13:49:16Z</time>
      </trkpt>
      <trkpt lat="45.61995" lon="6.52095">
        <ele>1951</ele>
        <time>2025-02-20T13:49:17Z</time>
      </trkpt>
      <trkpt lat="45.61998" lon="6.52099">
        <ele>1951</ele>
        <time>2025-02-20T13:49:18Z</time>
      </trkpt>
      <trkpt lat="45.62002" lon="6.52102">
        <ele>1951</ele>
        <time>2025-02-20T13:49:19Z</time>
      </trkpt>
      <trkpt lat="45.62005" lon="6.52106">
        <ele>1950</ele>
        <time>2025-02-20T13:49:20Z</time>
      </trkpt>
      <trkpt lat="45.62007" lon="6.5211">
        <ele>1946</ele>
        <time>2025-02-20T13:49:21Z</time>
      </trkpt>
      <trkpt lat="45.62009" lon="6.52113">
        <ele>1946</ele>
        <time>2025-02-20T13:49:22Z</time>
      </trkpt>
      <trkpt lat="45.6201" lon="6.52115">
        <ele>1946</ele>
        <time>2025-02-20T13:49:23Z</time>
      </trkpt>
      <trkpt lat="45.62012" lon="6.52118">
        <ele>1945</ele>
        <time>2025-02-20T13:49:24Z</time>
      </trkpt>
      <trkpt lat="45.62015" lon="6.52121">
        <ele>1942.6</ele>
        <time>2025-02-20T13:49:25Z</time>
      </trkpt>
      <trkpt lat="45.62016" lon="6.52125">
        <ele>1942.6</ele>
        <time>2025-02-20T13:49:26Z</time>
      </trkpt>
      <trkpt lat="45.62017" lon="6.52126">
        <ele>1942.6</ele>
        <time>2025-02-20T13:49:27Z</time>
      </trkpt>
      <trkpt lat="45.62019" lon="6.52128">
        <ele>1941.6</ele>
        <time>2025-02-20T13:49:28Z</time>
      </trkpt>
      <trkpt lat="45.62022" lon="6.52128">
        <ele>1940.6</ele>
        <time>2025-02-20T13:49:29Z</time>
      </trkpt>
      <trkpt lat="45.62027" lon="6.52125">
        <ele>1940.6</ele>
        <time>2025-02-20T13:49:30Z</time>
      </trkpt>
      <trkpt lat="45.6203" lon="6.52128">
        <ele>1940.6</ele>
        <time>2025-02-20T13:49:31Z</time>
      </trkpt>
      <trkpt lat="45.62031" lon="6.52132">
        <ele>1939.6</ele>
        <time>2025-02-20T13:49:32Z</time>
      </trkpt>
      <trkpt lat="45.62031" lon="6.52135">
        <ele>1935.6</ele>
        <time>2025-02-20T13:49:33Z</time>
      </trkpt>
      <trkpt lat="45.62032" lon="6.52136">
        <ele>1935.6</ele>
        <time>2025-02-20T13:49:34Z</time>
      </trkpt>
      <trkpt lat="45.62035" lon="6.52139">
        <ele>1935.6</ele>
        <time>2025-02-20T13:49:35Z</time>
      </trkpt>
      <trkpt lat="45.62037" lon="6.52141">
        <ele>1935.6</ele>
        <time>2025-02-20T13:49:36Z</time>
      </trkpt>
      <trkpt lat="45.6204" lon="6.52144">
        <ele>1932.6</ele>
        <time>2025-02-20T13:49:37Z</time>
      </trkpt>
      <trkpt lat="45.62042" lon="6.52147">
        <ele>1932.6</ele>
        <time>2025-02-20T13:49:38Z</time>
      </trkpt>
      <trkpt lat="45.62044" lon="6.52149">
        <ele>1932.6</ele>
        <time>2025-02-20T13:49:39Z</time>
      </trkpt>
      <trkpt lat="45.62046" lon="6.52152">
        <ele>1931.6</ele>
        <time>2025-02-20T13:49:40Z</time>
      </trkpt>
      <trkpt lat="45.6205" lon="6.52155">
        <ele>1927.6</ele>
        <time>2025-02-20T13:49:41Z</time>
      </trkpt>
      <trkpt lat="45.62053" lon="6.52158">
        <ele>1927.6</ele>
        <time>2025-02-20T13:49:42Z</time>
      </trkpt>
      <trkpt lat="45.62054" lon="6.52159">
        <ele>1927.6</ele>
        <time>2025-02-20T13:49:43Z</time>
      </trkpt>
      <trkpt lat="45.62055" lon="6.5216">
        <ele>1926.6</ele>
        <time>2025-02-20T13:49:44Z</time>
      </trkpt>
      <trkpt lat="45.62057" lon="6.52161">
        <ele>1924.2</ele>
        <time>2025-02-20T13:49:45Z</time>
      </trkpt>
      <trkpt lat="45.6206" lon="6.52163">
        <ele>1924.2</ele>
        <time>2025-02-20T13:49:46Z</time>
      </trkpt>
      <trkpt lat="45.62063" lon="6.52165">
        <ele>1924.2</ele>
        <time>2025-02-20T13:49:47Z</time>
      </trkpt>
      <trkpt lat="45.62066" lon="6.52168">
        <ele>1923.2</ele>
        <time>2025-02-20T13:49:48Z</time>
      </trkpt>
      <trkpt lat="45.62067" lon="6.52169">
        <ele>1920</ele>
        <time>2025-02-20T13:49:49Z</time>
      </trkpt>
      <trkpt lat="45.62068" lon="6.52171">
        <ele>1920</ele>
        <time>2025-02-20T13:49:50Z</time>
      </trkpt>
      <trkpt lat="45.62069" lon="6.52173">
        <ele>1920</ele>
        <time>2025-02-20T13:49:51Z</time>
      </trkpt>
      <trkpt lat="45.62069" lon="6.52173">
        <ele>1920</ele>
        <time>2025-02-20T13:49:52Z</time>
      </trkpt>
      <trkpt lat="45.62069" lon="6.52173">
        <ele>1919</ele>
        <time>2025-02-20T13:49:53Z</time>
      </trkpt>
      <trkpt lat="45.6207" lon="6.52172">
        <ele>1919</ele>
        <time>2025-02-20T13:49:54Z</time>
      </trkpt>
      <trkpt lat="45.62071" lon="6.52172">
        <ele>1919</ele>
        <time>2025-02-20T13:49:55Z</time>
      </trkpt>
      <trkpt lat="45.62072" lon="6.52174">
        <ele>1918.6</ele>
        <time>2025-02-20T13:49:56Z</time>
      </trkpt>
      <trkpt lat="45.62075" lon="6.52177">
        <ele>1918.2</ele>
        <time>2025-02-20T13:49:57Z</time>
      </trkpt>
      <trkpt lat="45.62078" lon="6.52179">
        <ele>1918.2</ele>
        <time>2025-02-20T13:49:58Z</time>
      </trkpt>
      <trkpt lat="45.6208" lon="6.52183">
        <ele>1918.2</ele>
        <time>2025-02-20T13:49:59Z</time>
      </trkpt>
      <trkpt lat="45.62082" lon="6.52187">
        <ele>1917.2</ele>
        <time>2025-02-20T13:50:00Z</time>
      </trkpt>
      <trkpt lat="45.62083" lon="6.5219">
        <ele>1911.8</ele>
        <time>2025-02-20T13:50:01Z</time>
      </trkpt>
      <trkpt lat="45.62084" lon="6.52193">
        <ele>1911.8</ele>
        <time>2025-02-20T13:50:02Z</time>
      </trkpt>
      <trkpt lat="45.62086" lon="6.52196">
        <ele>1911.8</ele>
        <time>2025-02-20T13:50:03Z</time>
      </trkpt>
      <trkpt lat="45.62088" lon="6.522">
        <ele>1910.8</ele>
        <time>2025-02-20T13:50:04Z</time>
      </trkpt>
      <trkpt lat="45.6209" lon="6.52204">
        <ele>1908.8</ele>
        <time>2025-02-20T13:50:05Z</time>
      </trkpt>
      <trkpt lat="45.62092" lon="6.52208">
        <ele>1908.8</ele>
        <time>2025-02-20T13:50:06Z</time>
      </trkpt>
      <trkpt lat="45.62096" lon="6.52213">
        <ele>1908.8</ele>
        <time>2025-02-20T13:50:07Z</time>
      </trkpt>
      <trkpt lat="45.621" lon="6.52217">
        <ele>1907.8</ele>
        <time>2025-02-20T13:50:08Z</time>
      </trkpt>
      <trkpt lat="45.62103" lon="6.5222">
        <ele>1904.6</ele>
        <time>2025-02-20T13:50:09Z</time>
      </trkpt>
      <trkpt lat="45.62104" lon="6.52222">
        <ele>1904.6</ele>
        <time>2025-02-20T13:50:10Z</time>
      </trkpt>
      <trkpt lat="45.62105" lon="6.52224">
        <ele>1904.6</ele>
        <time>2025-02-20T13:50:11Z</time>
      </trkpt>
      <trkpt lat="45.62107" lon="6.52224">
        <ele>1904</ele>
        <time>2025-02-20T13:50:12Z</time>
      </trkpt>
      <trkpt lat="45.62107" lon="6.52224">
        <ele>1904</ele>
        <time>2025-02-20T13:50:13Z</time>
      </trkpt>
      <trkpt lat="45.62108" lon="6.52224">
        <ele>1904</ele>
        <time>2025-02-20T13:50:14Z</time>
      </trkpt>
      <trkpt lat="45.62109" lon="6.52226">
        <ele>1904</ele>
        <time>2025-02-20T13:50:15Z</time>
      </trkpt>
      <trkpt lat="45.6211" lon="6.52227">
        <ele>1904</ele>
        <time>2025-02-20T13:50:16Z</time>
      </trkpt>
      <trkpt lat="45.62111" lon="6.52228">
        <ele>1903.6</ele>
        <time>2025-02-20T13:50:17Z</time>
      </trkpt>
      <trkpt lat="45.62111" lon="6.52228">
        <ele>1903.6</ele>
        <time>2025-02-20T13:50:18Z</time>
      </trkpt>
      <trkpt lat="45.62111" lon="6.52228">
        <ele>1903.6</ele>
        <time>2025-02-20T13:50:19Z</time>
      </trkpt>
      <trkpt lat="45.62111" lon="6.52228">
        <ele>1903</ele>
        <time>2025-02-20T13:50:20Z</time>
      </trkpt>
      <trkpt lat="45.62111" lon="6.52228">
        <ele>1902.4</ele>
        <time>2025-02-20T13:50:21Z</time>
      </trkpt>
      <trkpt lat="45.62111" lon="6.52228">
        <ele>1902.4</ele>
        <time>2025-02-20T13:50:22Z</time>
      </trkpt>
      <trkpt lat="45.62112" lon="6.5223">
        <ele>1902.4</ele>
        <time>2025-02-20T13:50:23Z</time>
      </trkpt>
      <trkpt lat="45.62113" lon="6.52234">
        <ele>1902.4</ele>
        <time>2025-02-20T13:50:24Z</time>
      </trkpt>
      <trkpt lat="45.62113" lon="6.52238">
        <ele>1901.4</ele>
        <time>2025-02-20T13:50:25Z</time>
      </trkpt>
      <trkpt lat="45.62115" lon="6.52242">
        <ele>1901.4</ele>
        <time>2025-02-20T13:50:26Z</time>
      </trkpt>
      <trkpt lat="45.62119" lon="6.52244">
        <ele>1901.4</ele>
        <time>2025-02-20T13:50:27Z</time>
      </trkpt>
      <trkpt lat="45.62122" lon="6.52244">
        <ele>1900.4</ele>
        <time>2025-02-20T13:50:28Z</time>
      </trkpt>
      <trkpt lat="45.62123" lon="6.52242">
        <ele>1897.8</ele>
        <time>2025-02-20T13:50:29Z</time>
      </trkpt>
      <trkpt lat="45.62123" lon="6.52241">
        <ele>1897.8</ele>
        <time>2025-02-20T13:50:30Z</time>
      </trkpt>
      <trkpt lat="45.62123" lon="6.52241">
        <ele>1897.8</ele>
        <time>2025-02-20T13:50:31Z</time>
      </trkpt>
      <trkpt lat="45.62123" lon="6.52241">
        <ele>1897.8</ele>
        <time>2025-02-20T13:50:32Z</time>
      </trkpt>
      <trkpt lat="45.62123" lon="6.52241">
        <ele>1898.4</ele>
        <time>2025-02-20T13:50:33Z</time>
      </trkpt>
      <trkpt lat="45.62123" lon="6.52241">
        <ele>1898.4</ele>
        <time>2025-02-20T13:50:34Z</time>
      </trkpt>
      <trkpt lat="45.62123" lon="6.52241">
        <ele>1898.4</ele>
        <time>2025-02-20T13:50:35Z</time>
      </trkpt>
      <trkpt lat="45.62123" lon="6.52241">
        <ele>1898.4</ele>
        <time>2025-02-20T13:50:36Z</time>
      </trkpt>
      <trkpt lat="45.62123" lon="6.52241">
        <ele>1897.4</ele>
        <time>2025-02-20T13:50:37Z</time>
      </trkpt>
      <trkpt lat="45.62123" lon="6.52241">
        <ele>1897.4</ele>
        <time>2025-02-20T13:50:38Z</time>
      </trkpt>
      <trkpt lat="45.62124" lon="6.5224">
        <ele>1897.4</ele>
        <time>2025-02-20T13:50:39Z</time>
      </trkpt>
      <trkpt lat="45.62126" lon="6.52243">
        <ele>1897.4</ele>
        <time>2025-02-20T13:50:40Z</time>
      </trkpt>
      <trkpt lat="45.62126" lon="6.52245">
        <ele>1896</ele>
        <time>2025-02-20T13:50:41Z</time>
      </trkpt>
      <trkpt lat="45.62125" lon="6.52248">
        <ele>1896</ele>
        <time>2025-02-20T13:50:42Z</time>
      </trkpt>
      <trkpt lat="45.62124" lon="6.5225">
        <ele>1896</ele>
        <time>2025-02-20T13:50:43Z</time>
      </trkpt>
      <trkpt lat="45.62124" lon="6.52254">
        <ele>1896</ele>
        <time>2025-02-20T13:50:44Z</time>
      </trkpt>
      <trkpt lat="45.62127" lon="6.52258">
        <ele>1894</ele>
        <time>2025-02-20T13:50:45Z</time>
      </trkpt>
      <trkpt lat="45.62131" lon="6.52262">
        <ele>1894</ele>
        <time>2025-02-20T13:50:46Z</time>
      </trkpt>
      <trkpt lat="45.62134" lon="6.52267">
        <ele>1894</ele>
        <time>2025-02-20T13:50:47Z</time>
      </trkpt>
      <trkpt lat="45.62134" lon="6.52274">
        <ele>1894</ele>
        <time>2025-02-20T13:50:48Z</time>
      </trkpt>
      <trkpt lat="45.62136" lon="6.52279">
        <ele>1889.2</ele>
        <time>2025-02-20T13:50:49Z</time>
      </trkpt>
      <trkpt lat="45.6214" lon="6.52282">
        <ele>1889.2</ele>
        <time>2025-02-20T13:50:50Z</time>
      </trkpt>
      <trkpt lat="45.62145" lon="6.52288">
        <ele>1889.2</ele>
        <time>2025-02-20T13:50:51Z</time>
      </trkpt>
      <trkpt lat="45.62152" lon="6.52292">
        <ele>1888.2</ele>
        <time>2025-02-20T13:50:52Z</time>
      </trkpt>
      <trkpt lat="45.6216" lon="6.52294">
        <ele>1884.6</ele>
        <time>2025-02-20T13:50:53Z</time>
      </trkpt>
      <trkpt lat="45.62167" lon="6.52295">
        <ele>1884.6</ele>
        <time>2025-02-20T13:50:54Z</time>
      </trkpt>
      <trkpt lat="45.62173" lon="6.52296">
        <ele>1884.6</ele>
        <time>2025-02-20T13:50:55Z</time>
      </trkpt>
      <trkpt lat="45.62178" lon="6.52298">
        <ele>1883.6</ele>
        <time>2025-02-20T13:50:56Z</time>
      </trkpt>
      <trkpt lat="45.62182" lon="6.52298">
        <ele>1880.2</ele>
        <time>2025-02-20T13:50:57Z</time>
      </trkpt>
      <trkpt lat="45.62185" lon="6.523">
        <ele>1880.2</ele>
        <time>2025-02-20T13:50:58Z</time>
      </trkpt>
      <trkpt lat="45.62189" lon="6.52303">
        <ele>1880.2</ele>
        <time>2025-02-20T13:50:59Z</time>
      </trkpt>
      <trkpt lat="45.62194" lon="6.52304">
        <ele>1880.2</ele>
        <time>2025-02-20T13:51:00Z</time>
      </trkpt>
      <trkpt lat="45.62199" lon="6.52303">
        <ele>1878.4</ele>
        <time>2025-02-20T13:51:01Z</time>
      </trkpt>
      <trkpt lat="45.62202" lon="6.52301">
        <ele>1878.4</ele>
        <time>2025-02-20T13:51:02Z</time>
      </trkpt>
      <trkpt lat="45.62205" lon="6.52298">
        <ele>1878.4</ele>
        <time>2025-02-20T13:51:03Z</time>
      </trkpt>
      <trkpt lat="45.62208" lon="6.52295">
        <ele>1878.4</ele>
        <time>2025-02-20T13:51:04Z</time>
      </trkpt>
      <trkpt lat="45.62212" lon="6.52292">
        <ele>1876.4</ele>
        <time>2025-02-20T13:51:05Z</time>
      </trkpt>
      <trkpt lat="45.62216" lon="6.52295">
        <ele>1876.4</ele>
        <time>2025-02-20T13:51:06Z</time>
      </trkpt>
      <trkpt lat="45.62215" lon="6.52299">
        <ele>1876.4</ele>
        <time>2025-02-20T13:51:07Z</time>
      </trkpt>
      <trkpt lat="45.62215" lon="6.52301">
        <ele>1875.4</ele>
        <time>2025-02-20T13:51:08Z</time>
      </trkpt>
      <trkpt lat="45.62214" lon="6.52303">
        <ele>1873.6</ele>
        <time>2025-02-20T13:51:09Z</time>
      </trkpt>
      <trkpt lat="45.62214" lon="6.52304">
        <ele>1873.6</ele>
        <time>2025-02-20T13:51:10Z</time>
      </trkpt>
      <trkpt lat="45.62214" lon="6.52306">
        <ele>1873.6</ele>
        <time>2025-02-20T13:51:11Z</time>
      </trkpt>
      <trkpt lat="45.62214" lon="6.52306">
        <ele>1873.6</ele>
        <time>2025-02-20T13:51:12Z</time>
      </trkpt>
      <trkpt lat="45.62214" lon="6.52306">
        <ele>1874</ele>
        <time>2025-02-20T13:51:13Z</time>
      </trkpt>
      <trkpt lat="45.62214" lon="6.52306">
        <ele>1874</ele>
        <time>2025-02-20T13:51:14Z</time>
      </trkpt>
      <trkpt lat="45.62214" lon="6.52306">
        <ele>1874</ele>
        <time>2025-02-20T13:51:15Z</time>
      </trkpt>
      <trkpt lat="45.62214" lon="6.52306">
        <ele>1873.6</ele>
        <time>2025-02-20T13:51:16Z</time>
      </trkpt>
      <trkpt lat="45.62213" lon="6.52309">
        <ele>1873.6</ele>
        <time>2025-02-20T13:51:17Z</time>
      </trkpt>
      <trkpt lat="45.62213" lon="6.5231">
        <ele>1873.6</ele>
        <time>2025-02-20T13:51:18Z</time>
      </trkpt>
      <trkpt lat="45.62214" lon="6.52311">
        <ele>1873.6</ele>
        <time>2025-02-20T13:51:19Z</time>
      </trkpt>
      <trkpt lat="45.62213" lon="6.52313">
        <ele>1873.6</ele>
        <time>2025-02-20T13:51:20Z</time>
      </trkpt>
      <trkpt lat="45.62212" lon="6.52315">
        <ele>1873.6</ele>
        <time>2025-02-20T13:51:21Z</time>
      </trkpt>
      <trkpt lat="45.62212" lon="6.52317">
        <ele>1873.6</ele>
        <time>2025-02-20T13:51:22Z</time>
      </trkpt>
      <trkpt lat="45.6221" lon="6.52319">
        <ele>1873.6</ele>
        <time>2025-02-20T13:51:23Z</time>
      </trkpt>
      <trkpt lat="45.62209" lon="6.52321">
        <ele>1873</ele>
        <time>2025-02-20T13:51:24Z</time>
      </trkpt>
      <trkpt lat="45.62208" lon="6.52323">
        <ele>1872.8</ele>
        <time>2025-02-20T13:51:25Z</time>
      </trkpt>
      <trkpt lat="45.62206" lon="6.52326">
        <ele>1872.8</ele>
        <time>2025-02-20T13:51:26Z</time>
      </trkpt>
      <trkpt lat="45.62204" lon="6.52331">
        <ele>1872.8</ele>
        <time>2025-02-20T13:51:27Z</time>
      </trkpt>
      <trkpt lat="45.62202" lon="6.52336">
        <ele>1871.8</ele>
        <time>2025-02-20T13:51:28Z</time>
      </trkpt>
      <trkpt lat="45.622" lon="6.5234">
        <ele>1870.2</ele>
        <time>2025-02-20T13:51:29Z</time>
      </trkpt>
      <trkpt lat="45.62199" lon="6.52346">
        <ele>1870.2</ele>
        <time>2025-02-20T13:51:30Z</time>
      </trkpt>
      <trkpt lat="45.62201" lon="6.52353">
        <ele>1870.2</ele>
        <time>2025-02-20T13:51:31Z</time>
      </trkpt>
      <trkpt lat="45.62205" lon="6.52357">
        <ele>1869.2</ele>
        <time>2025-02-20T13:51:32Z</time>
      </trkpt>
      <trkpt lat="45.62211" lon="6.52358">
        <ele>1866.2</ele>
        <time>2025-02-20T13:51:33Z</time>
      </trkpt>
      <trkpt lat="45.62215" lon="6.5236">
        <ele>1866.2</ele>
        <time>2025-02-20T13:51:34Z</time>
      </trkpt>
      <trkpt lat="45.62219" lon="6.52361">
        <ele>1866.2</ele>
        <time>2025-02-20T13:51:35Z</time>
      </trkpt>
      <trkpt lat="45.62222" lon="6.52362">
        <ele>1865.2</ele>
        <time>2025-02-20T13:51:36Z</time>
      </trkpt>
      <trkpt lat="45.62223" lon="6.52361">
        <ele>1865</ele>
        <time>2025-02-20T13:51:37Z</time>
      </trkpt>
      <trkpt lat="45.62225" lon="6.52361">
        <ele>1865</ele>
        <time>2025-02-20T13:51:38Z</time>
      </trkpt>
      <trkpt lat="45.62227" lon="6.52359">
        <ele>1865</ele>
        <time>2025-02-20T13:51:39Z</time>
      </trkpt>
      <trkpt lat="45.6223" lon="6.52356">
        <ele>1865</ele>
        <time>2025-02-20T13:51:40Z</time>
      </trkpt>
      <trkpt lat="45.62232" lon="6.52354">
        <ele>1864.2</ele>
        <time>2025-02-20T13:51:41Z</time>
      </trkpt>
      <trkpt lat="45.62233" lon="6.52353">
        <ele>1864.2</ele>
        <time>2025-02-20T13:51:42Z</time>
      </trkpt>
      <trkpt lat="45.62233" lon="6.52352">
        <ele>1864.2</ele>
        <time>2025-02-20T13:51:43Z</time>
      </trkpt>
      <trkpt lat="45.62234" lon="6.52351">
        <ele>1863.6</ele>
        <time>2025-02-20T13:51:44Z</time>
      </trkpt>
      <trkpt lat="45.62235" lon="6.52349">
        <ele>1863.4</ele>
        <time>2025-02-20T13:51:45Z</time>
      </trkpt>
      <trkpt lat="45.62237" lon="6.52347">
        <ele>1863.4</ele>
        <time>2025-02-20T13:51:46Z</time>
      </trkpt>
      <trkpt lat="45.62241" lon="6.52344">
        <ele>1863.4</ele>
        <time>2025-02-20T13:51:47Z</time>
      </trkpt>
      <trkpt lat="45.62247" lon="6.5234">
        <ele>1862.4</ele>
        <time>2025-02-20T13:51:48Z</time>
      </trkpt>
      <trkpt lat="45.6225" lon="6.52336">
        <ele>1860.2</ele>
        <time>2025-02-20T13:51:49Z</time>
      </trkpt>
      <trkpt lat="45.62251" lon="6.52335">
        <ele>1860.2</ele>
        <time>2025-02-20T13:51:50Z</time>
      </trkpt>
      <trkpt lat="45.62251" lon="6.52335">
        <ele>1860.2</ele>
        <time>2025-02-20T13:51:51Z</time>
      </trkpt>
      <trkpt lat="45.62251" lon="6.52335">
        <ele>1860.2</ele>
        <time>2025-02-20T13:51:52Z</time>
      </trkpt>
      <trkpt lat="45.62251" lon="6.52335">
        <ele>1860.6</ele>
        <time>2025-02-20T13:51:53Z</time>
      </trkpt>
      <trkpt lat="45.62251" lon="6.52335">
        <ele>1860.6</ele>
        <time>2025-02-20T13:51:54Z</time>
      </trkpt>
      <trkpt lat="45.62251" lon="6.52335">
        <ele>1860.6</ele>
        <time>2025-02-20T13:51:55Z</time>
      </trkpt>
      <trkpt lat="45.62251" lon="6.52335">
        <ele>1860.2</ele>
        <time>2025-02-20T13:51:56Z</time>
      </trkpt>
      <trkpt lat="45.62251" lon="6.52335">
        <ele>1860.4</ele>
        <time>2025-02-20T13:51:57Z</time>
      </trkpt>
      <trkpt lat="45.62251" lon="6.52335">
        <ele>1860.4</ele>
        <time>2025-02-20T13:51:58Z</time>
      </trkpt>
      <trkpt lat="45.62251" lon="6.52335">
        <ele>1860.4</ele>
        <time>2025-02-20T13:51:59Z</time>
      </trkpt>
      <trkpt lat="45.62251" lon="6.52335">
        <ele>1860.4</ele>
        <time>2025-02-20T13:52:00Z</time>
      </trkpt>
      <trkpt lat="45.62251" lon="6.52335">
        <ele>1860.4</ele>
        <time>2025-02-20T13:52:01Z</time>
      </trkpt>
      <trkpt lat="45.62251" lon="6.52335">
        <ele>1860.4</ele>
        <time>2025-02-20T13:52:02Z</time>
      </trkpt>
      <trkpt lat="45.62251" lon="6.52335">
        <ele>1860.4</ele>
        <time>2025-02-20T13:52:03Z</time>
      </trkpt>
      <trkpt lat="45.62251" lon="6.52335">
        <ele>1860.4</ele>
        <time>2025-02-20T13:52:04Z</time>
      </trkpt>
      <trkpt lat="45.62251" lon="6.52335">
        <ele>1860.2</ele>
        <time>2025-02-20T13:52:05Z</time>
      </trkpt>
      <trkpt lat="45.62251" lon="6.52335">
        <ele>1860.2</ele>
        <time>2025-02-20T13:52:06Z</time>
      </trkpt>
      <trkpt lat="45.62251" lon="6.52335">
        <ele>1860.2</ele>
        <time>2025-02-20T13:52:07Z</time>
      </trkpt>
      <trkpt lat="45.62251" lon="6.52335">
        <ele>1860.2</ele>
        <time>2025-02-20T13:52:08Z</time>
      </trkpt>
      <trkpt lat="45.62251" lon="6.52335">
        <ele>1860.2</ele>
        <time>2025-02-20T13:52:09Z</time>
      </trkpt>
      <trkpt lat="45.62251" lon="6.52335">
        <ele>1860.2</ele>
        <time>2025-02-20T13:52:10Z</time>
      </trkpt>
      <trkpt lat="45.62251" lon="6.52335">
        <ele>1860.2</ele>
        <time>2025-02-20T13:52:11Z</time>
      </trkpt>
      <trkpt lat="45.62251" lon="6.52335">
        <ele>1860.2</ele>
        <time>2025-02-20T13:52:12Z</time>
      </trkpt>
      <trkpt lat="45.62251" lon="6.52335">
        <ele>1860</ele>
        <time>2025-02-20T13:52:13Z</time>
      </trkpt>
      <trkpt lat="45.62251" lon="6.52335">
        <ele>1860</ele>
        <time>2025-02-20T13:52:14Z</time>
      </trkpt>
      <trkpt lat="45.62251" lon="6.52335">
        <ele>1860</ele>
        <time>2025-02-20T13:52:15Z</time>
      </trkpt>
      <trkpt lat="45.62251" lon="6.52335">
        <ele>1860</ele>
        <time>2025-02-20T13:52:16Z</time>
      </trkpt>
      <trkpt lat="45.62251" lon="6.52335">
        <ele>1859.6</ele>
        <time>2025-02-20T13:52:17Z</time>
      </trkpt>
      <trkpt lat="45.62251" lon="6.52335">
        <ele>1859.6</ele>
        <time>2025-02-20T13:52:18Z</time>
      </trkpt>
      <trkpt lat="45.62251" lon="6.52335">
        <ele>1859.6</ele>
        <time>2025-02-20T13:52:19Z</time>
      </trkpt>
      <trkpt lat="45.62251" lon="6.52335">
        <ele>1859.6</ele>
        <time>2025-02-20T13:52:20Z</time>
      </trkpt>
      <trkpt lat="45.62251" lon="6.52335">
        <ele>1859.8</ele>
        <time>2025-02-20T13:52:21Z</time>
      </trkpt>
      <trkpt lat="45.62251" lon="6.52335">
        <ele>1859.8</ele>
        <time>2025-02-20T13:52:22Z</time>
      </trkpt>
      <trkpt lat="45.62251" lon="6.52335">
        <ele>1859.8</ele>
        <time>2025-02-20T13:52:23Z</time>
      </trkpt>
      <trkpt lat="45.62251" lon="6.52335">
        <ele>1860</ele>
        <time>2025-02-20T13:52:24Z</time>
      </trkpt>
      <trkpt lat="45.62251" lon="6.52335">
        <ele>1860</ele>
        <time>2025-02-20T13:52:25Z</time>
      </trkpt>
      <trkpt lat="45.62251" lon="6.52335">
        <ele>1860</ele>
        <time>2025-02-20T13:52:26Z</time>
      </trkpt>
      <trkpt lat="45.62251" lon="6.52335">
        <ele>1860</ele>
        <time>2025-02-20T13:52:27Z</time>
      </trkpt>
      <trkpt lat="45.62251" lon="6.52335">
        <ele>1860</ele>
        <time>2025-02-20T13:52:28Z</time>
      </trkpt>
      <trkpt lat="45.62251" lon="6.52335">
        <ele>1860.2</ele>
        <time>2025-02-20T13:52:29Z</time>
      </trkpt>
      <trkpt lat="45.62251" lon="6.52335">
        <ele>1860.2</ele>
        <time>2025-02-20T13:52:30Z</time>
      </trkpt>
      <trkpt lat="45.62251" lon="6.52335">
        <ele>1860.2</ele>
        <time>2025-02-20T13:52:31Z</time>
      </trkpt>
      <trkpt lat="45.62251" lon="6.52335">
        <ele>1860.2</ele>
        <time>2025-02-20T13:52:32Z</time>
      </trkpt>
      <trkpt lat="45.62251" lon="6.52335">
        <ele>1860</ele>
        <time>2025-02-20T13:52:33Z</time>
      </trkpt>
      <trkpt lat="45.62251" lon="6.52335">
        <ele>1860</ele>
        <time>2025-02-20T13:52:34Z</time>
      </trkpt>
      <trkpt lat="45.62251" lon="6.52335">
        <ele>1860</ele>
        <time>2025-02-20T13:52:35Z</time>
      </trkpt>
      <trkpt lat="45.62251" lon="6.52335">
        <ele>1860</ele>
        <time>2025-02-20T13:52:36Z</time>
      </trkpt>
      <trkpt lat="45.62251" lon="6.52335">
        <ele>1860.4</ele>
        <time>2025-02-20T13:52:37Z</time>
      </trkpt>
      <trkpt lat="45.62251" lon="6.52335">
        <ele>1860.4</ele>
        <time>2025-02-20T13:52:38Z</time>
      </trkpt>
      <trkpt lat="45.62251" lon="6.52335">
        <ele>1860.4</ele>
        <time>2025-02-20T13:52:39Z</time>
      </trkpt>
      <trkpt lat="45.62251" lon="6.52335">
        <ele>1860.4</ele>
        <time>2025-02-20T13:52:40Z</time>
      </trkpt>
      <trkpt lat="45.62251" lon="6.52335">
        <ele>1860.6</ele>
        <time>2025-02-20T13:52:41Z</time>
      </trkpt>
      <trkpt lat="45.62251" lon="6.52335">
        <ele>1860.6</ele>
        <time>2025-02-20T13:52:42Z</time>
      </trkpt>
      <trkpt lat="45.62251" lon="6.52335">
        <ele>1860.6</ele>
        <time>2025-02-20T13:52:43Z</time>
      </trkpt>
      <trkpt lat="45.62251" lon="6.52335">
        <ele>1860.2</ele>
        <time>2025-02-20T13:52:44Z</time>
      </trkpt>
      <trkpt lat="45.62251" lon="6.52335">
        <ele>1860.4</ele>
        <time>2025-02-20T13:52:45Z</time>
      </trkpt>
      <trkpt lat="45.62251" lon="6.52335">
        <ele>1860.4</ele>
        <time>2025-02-20T13:52:46Z</time>
      </trkpt>
      <trkpt lat="45.62251" lon="6.52335">
        <ele>1860.4</ele>
        <time>2025-02-20T13:52:47Z</time>
      </trkpt>
      <trkpt lat="45.62251" lon="6.52335">
        <ele>1860.4</ele>
        <time>2025-02-20T13:52:48Z</time>
      </trkpt>
      <trkpt lat="45.62251" lon="6.52335">
        <ele>1860.4</ele>
        <time>2025-02-20T13:52:49Z</time>
      </trkpt>
      <trkpt lat="45.62251" lon="6.52335">
        <ele>1860.4</ele>
        <time>2025-02-20T13:52:50Z</time>
      </trkpt>
      <trkpt lat="45.62251" lon="6.52335">
        <ele>1860.4</ele>
        <time>2025-02-20T13:52:51Z</time>
      </trkpt>
      <trkpt lat="45.62251" lon="6.52335">
        <ele>1860.4</ele>
        <time>2025-02-20T13:52:52Z</time>
      </trkpt>
      <trkpt lat="45.62251" lon="6.52335">
        <ele>1860.6</ele>
        <time>2025-02-20T13:52:53Z</time>
      </trkpt>
      <trkpt lat="45.62251" lon="6.52335">
        <ele>1860.6</ele>
        <time>2025-02-20T13:52:54Z</time>
      </trkpt>
      <trkpt lat="45.62251" lon="6.52335">
        <ele>1860.6</ele>
        <time>2025-02-20T13:52:55Z</time>
      </trkpt>
      <trkpt lat="45.62251" lon="6.52335">
        <ele>1860.4</ele>
        <time>2025-02-20T13:52:56Z</time>
      </trkpt>
      <trkpt lat="45.62251" lon="6.52335">
        <ele>1860.6</ele>
        <time>2025-02-20T13:52:57Z</time>
      </trkpt>
      <trkpt lat="45.62251" lon="6.52335">
        <ele>1860.6</ele>
        <time>2025-02-20T13:52:58Z</time>
      </trkpt>
      <trkpt lat="45.62251" lon="6.52335">
        <ele>1860.6</ele>
        <time>2025-02-20T13:52:59Z</time>
      </trkpt>
      <trkpt lat="45.62251" lon="6.52335">
        <ele>1860.4</ele>
        <time>2025-02-20T13:53:00Z</time>
      </trkpt>
      <trkpt lat="45.62251" lon="6.52335">
        <ele>1860.6</ele>
        <time>2025-02-20T13:53:01Z</time>
      </trkpt>
      <trkpt lat="45.62251" lon="6.52335">
        <ele>1860.6</ele>
        <time>2025-02-20T13:53:02Z</time>
      </trkpt>
      <trkpt lat="45.62251" lon="6.52335">
        <ele>1860.6</ele>
        <time>2025-02-20T13:53:03Z</time>
      </trkpt>
      <trkpt lat="45.62251" lon="6.52335">
        <ele>1860.6</ele>
        <time>2025-02-20T13:53:04Z</time>
      </trkpt>
      <trkpt lat="45.62251" lon="6.52335">
        <ele>1860.8</ele>
        <time>2025-02-20T13:53:05Z</time>
      </trkpt>
      <trkpt lat="45.62251" lon="6.52335">
        <ele>1860.8</ele>
        <time>2025-02-20T13:53:06Z</time>
      </trkpt>
      <trkpt lat="45.62251" lon="6.52335">
        <ele>1860.8</ele>
        <time>2025-02-20T13:53:07Z</time>
      </trkpt>
      <trkpt lat="45.62251" lon="6.52335">
        <ele>1860.6</ele>
        <time>2025-02-20T13:53:08Z</time>
      </trkpt>
      <trkpt lat="45.62251" lon="6.52335">
        <ele>1860.4</ele>
        <time>2025-02-20T13:53:09Z</time>
      </trkpt>
      <trkpt lat="45.62251" lon="6.52335">
        <ele>1860.4</ele>
        <time>2025-02-20T13:53:10Z</time>
      </trkpt>
      <trkpt lat="45.62251" lon="6.52335">
        <ele>1860.4</ele>
        <time>2025-02-20T13:53:11Z</time>
      </trkpt>
      <trkpt lat="45.62251" lon="6.52335">
        <ele>1860.4</ele>
        <time>2025-02-20T13:53:12Z</time>
      </trkpt>
      <trkpt lat="45.62251" lon="6.52335">
        <ele>1860.4</ele>
        <time>2025-02-20T13:53:13Z</time>
      </trkpt>
      <trkpt lat="45.62251" lon="6.52335">
        <ele>1860.4</ele>
        <time>2025-02-20T13:53:14Z</time>
      </trkpt>
      <trkpt lat="45.62251" lon="6.52335">
        <ele>1860.4</ele>
        <time>2025-02-20T13:53:15Z</time>
      </trkpt>
      <trkpt lat="45.62251" lon="6.52335">
        <ele>1860.4</ele>
        <time>2025-02-20T13:53:16Z</time>
      </trkpt>
      <trkpt lat="45.62251" lon="6.52335">
        <ele>1860.6</ele>
        <time>2025-02-20T13:53:17Z</time>
      </trkpt>
      <trkpt lat="45.62251" lon="6.52335">
        <ele>1860.6</ele>
        <time>2025-02-20T13:53:18Z</time>
      </trkpt>
      <trkpt lat="45.62251" lon="6.52335">
        <ele>1860.6</ele>
        <time>2025-02-20T13:53:19Z</time>
      </trkpt>
      <trkpt lat="45.62251" lon="6.52335">
        <ele>1860.6</ele>
        <time>2025-02-20T13:53:20Z</time>
      </trkpt>
      <trkpt lat="45.62251" lon="6.52335">
        <ele>1860.2</ele>
        <time>2025-02-20T13:53:21Z</time>
      </trkpt>
      <trkpt lat="45.62251" lon="6.52335">
        <ele>1860.2</ele>
        <time>2025-02-20T13:53:22Z</time>
      </trkpt>
      <trkpt lat="45.62251" lon="6.52335">
        <ele>1860.2</ele>
        <time>2025-02-20T13:53:23Z</time>
      </trkpt>
      <trkpt lat="45.62251" lon="6.52335">
        <ele>1860.2</ele>
        <time>2025-02-20T13:53:24Z</time>
      </trkpt>
      <trkpt lat="45.62251" lon="6.52335">
        <ele>1860.2</ele>
        <time>2025-02-20T13:53:25Z</time>
      </trkpt>
      <trkpt lat="45.62251" lon="6.52335">
        <ele>1860.2</ele>
        <time>2025-02-20T13:53:26Z</time>
      </trkpt>
      <trkpt lat="45.62251" lon="6.52335">
        <ele>1860.2</ele>
        <time>2025-02-20T13:53:27Z</time>
      </trkpt>
      <trkpt lat="45.62251" lon="6.52335">
        <ele>1860.2</ele>
        <time>2025-02-20T13:53:28Z</time>
      </trkpt>
      <trkpt lat="45.62251" lon="6.52335">
        <ele>1860.4</ele>
        <time>2025-02-20T13:53:29Z</time>
      </trkpt>
      <trkpt lat="45.62251" lon="6.52335">
        <ele>1860.4</ele>
        <time>2025-02-20T13:53:30Z</time>
      </trkpt>
      <trkpt lat="45.62251" lon="6.52335">
        <ele>1860.4</ele>
        <time>2025-02-20T13:53:31Z</time>
      </trkpt>
      <trkpt lat="45.62251" lon="6.52335">
        <ele>1860.4</ele>
        <time>2025-02-20T13:53:32Z</time>
      </trkpt>
      <trkpt lat="45.62251" lon="6.52335">
        <ele>1860.6</ele>
        <time>2025-02-20T13:53:33Z</time>
      </trkpt>
      <trkpt lat="45.62251" lon="6.52335">
        <ele>1860.6</ele>
        <time>2025-02-20T13:53:34Z</time>
      </trkpt>
      <trkpt lat="45.62251" lon="6.52335">
        <ele>1860.6</ele>
        <time>2025-02-20T13:53:35Z</time>
      </trkpt>
      <trkpt lat="45.62251" lon="6.52335">
        <ele>1860.6</ele>
        <time>2025-02-20T13:53:36Z</time>
      </trkpt>
      <trkpt lat="45.62251" lon="6.52335">
        <ele>1861</ele>
        <time>2025-02-20T13:53:37Z</time>
      </trkpt>
      <trkpt lat="45.62251" lon="6.52335">
        <ele>1861</ele>
        <time>2025-02-20T13:53:38Z</time>
      </trkpt>
      <trkpt lat="45.62251" lon="6.52335">
        <ele>1861</ele>
        <time>2025-02-20T13:53:39Z</time>
      </trkpt>
      <trkpt lat="45.62251" lon="6.52335">
        <ele>1860.8</ele>
        <time>2025-02-20T13:53:40Z</time>
      </trkpt>
      <trkpt lat="45.62251" lon="6.52335">
        <ele>1860.8</ele>
        <time>2025-02-20T13:53:41Z</time>
      </trkpt>
      <trkpt lat="45.62251" lon="6.52335">
        <ele>1860.8</ele>
        <time>2025-02-20T13:53:42Z</time>
      </trkpt>
      <trkpt lat="45.62251" lon="6.52335">
        <ele>1860.8</ele>
        <time>2025-02-20T13:53:43Z</time>
      </trkpt>
      <trkpt lat="45.62251" lon="6.52335">
        <ele>1860.6</ele>
        <time>2025-02-20T13:53:44Z</time>
      </trkpt>
      <trkpt lat="45.62251" lon="6.52335">
        <ele>1860.6</ele>
        <time>2025-02-20T13:53:45Z</time>
      </trkpt>
      <trkpt lat="45.62251" lon="6.52335">
        <ele>1860.6</ele>
        <time>2025-02-20T13:53:46Z</time>
      </trkpt>
      <trkpt lat="45.62251" lon="6.52335">
        <ele>1860.6</ele>
        <time>2025-02-20T13:53:47Z</time>
      </trkpt>
      <trkpt lat="45.62251" lon="6.52335">
        <ele>1860.6</ele>
        <time>2025-02-20T13:53:48Z</time>
      </trkpt>
      <trkpt lat="45.62251" lon="6.52335">
        <ele>1861</ele>
        <time>2025-02-20T13:53:49Z</time>
      </trkpt>
      <trkpt lat="45.62251" lon="6.52335">
        <ele>1861</ele>
        <time>2025-02-20T13:53:50Z</time>
      </trkpt>
      <trkpt lat="45.62251" lon="6.52335">
        <ele>1861</ele>
        <time>2025-02-20T13:53:51Z</time>
      </trkpt>
      <trkpt lat="45.62251" lon="6.52335">
        <ele>1860.4</ele>
        <time>2025-02-20T13:53:52Z</time>
      </trkpt>
      <trkpt lat="45.62251" lon="6.52335">
        <ele>1859.8</ele>
        <time>2025-02-20T13:53:53Z</time>
      </trkpt>
      <trkpt lat="45.62251" lon="6.52335">
        <ele>1859.8</ele>
        <time>2025-02-20T13:53:54Z</time>
      </trkpt>
      <trkpt lat="45.62251" lon="6.52335">
        <ele>1859.8</ele>
        <time>2025-02-20T13:53:55Z</time>
      </trkpt>
      <trkpt lat="45.62251" lon="6.52335">
        <ele>1860</ele>
        <time>2025-02-20T13:53:56Z</time>
      </trkpt>
      <trkpt lat="45.62251" lon="6.52335">
        <ele>1860</ele>
        <time>2025-02-20T13:53:57Z</time>
      </trkpt>
      <trkpt lat="45.62251" lon="6.52335">
        <ele>1860</ele>
        <time>2025-02-20T13:53:58Z</time>
      </trkpt>
      <trkpt lat="45.62251" lon="6.52335">
        <ele>1860</ele>
        <time>2025-02-20T13:53:59Z</time>
      </trkpt>
      <trkpt lat="45.62251" lon="6.52335">
        <ele>1860</ele>
        <time>2025-02-20T13:54:00Z</time>
      </trkpt>
      <trkpt lat="45.62251" lon="6.52335">
        <ele>1860.2</ele>
        <time>2025-02-20T13:54:01Z</time>
      </trkpt>
      <trkpt lat="45.62251" lon="6.52335">
        <ele>1860.2</ele>
        <time>2025-02-20T13:54:02Z</time>
      </trkpt>
      <trkpt lat="45.62251" lon="6.52335">
        <ele>1860.2</ele>
        <time>2025-02-20T13:54:03Z</time>
      </trkpt>
      <trkpt lat="45.62251" lon="6.52335">
        <ele>1860</ele>
        <time>2025-02-20T13:54:04Z</time>
      </trkpt>
      <trkpt lat="45.62251" lon="6.52335">
        <ele>1860.8</ele>
        <time>2025-02-20T13:54:05Z</time>
      </trkpt>
      <trkpt lat="45.62251" lon="6.52335">
        <ele>1860.8</ele>
        <time>2025-02-20T13:54:06Z</time>
      </trkpt>
      <trkpt lat="45.62251" lon="6.52335">
        <ele>1860.8</ele>
        <time>2025-02-20T13:54:07Z</time>
      </trkpt>
      <trkpt lat="45.62251" lon="6.52335">
        <ele>1860.2</ele>
        <time>2025-02-20T13:54:08Z</time>
      </trkpt>
      <trkpt lat="45.62251" lon="6.52335">
        <ele>1860.6</ele>
        <time>2025-02-20T13:54:09Z</time>
      </trkpt>
      <trkpt lat="45.62251" lon="6.52335">
        <ele>1860.6</ele>
        <time>2025-02-20T13:54:10Z</time>
      </trkpt>
      <trkpt lat="45.62251" lon="6.52335">
        <ele>1860.6</ele>
        <time>2025-02-20T13:54:11Z</time>
      </trkpt>
      <trkpt lat="45.62251" lon="6.52335">
        <ele>1860.4</ele>
        <time>2025-02-20T13:54:12Z</time>
      </trkpt>
      <trkpt lat="45.62251" lon="6.52335">
        <ele>1860.6</ele>
        <time>2025-02-20T13:54:13Z</time>
      </trkpt>
      <trkpt lat="45.62251" lon="6.52335">
        <ele>1860.6</ele>
        <time>2025-02-20T13:54:14Z</time>
      </trkpt>
      <trkpt lat="45.62251" lon="6.52335">
        <ele>1860.6</ele>
        <time>2025-02-20T13:54:15Z</time>
      </trkpt>
      <trkpt lat="45.62251" lon="6.52335">
        <ele>1860.4</ele>
        <time>2025-02-20T13:54:16Z</time>
      </trkpt>
      <trkpt lat="45.62251" lon="6.52335">
        <ele>1860.2</ele>
        <time>2025-02-20T13:54:17Z</time>
      </trkpt>
      <trkpt lat="45.62251" lon="6.52335">
        <ele>1860.2</ele>
        <time>2025-02-20T13:54:18Z</time>
      </trkpt>
      <trkpt lat="45.62251" lon="6.52335">
        <ele>1860.2</ele>
        <time>2025-02-20T13:54:19Z</time>
      </trkpt>
      <trkpt lat="45.62251" lon="6.52335">
        <ele>1860.6</ele>
        <time>2025-02-20T13:54:20Z</time>
      </trkpt>
      <trkpt lat="45.62251" lon="6.52335">
        <ele>1860.6</ele>
        <time>2025-02-20T13:54:21Z</time>
      </trkpt>
      <trkpt lat="45.62251" lon="6.52335">
        <ele>1860.6</ele>
        <time>2025-02-20T13:54:22Z</time>
      </trkpt>
      <trkpt lat="45.62251" lon="6.52335">
        <ele>1860.6</ele>
        <time>2025-02-20T13:54:23Z</time>
      </trkpt>
      <trkpt lat="45.62251" lon="6.52335">
        <ele>1860.2</ele>
        <time>2025-02-20T13:54:24Z</time>
      </trkpt>
      <trkpt lat="45.62251" lon="6.52335">
        <ele>1860.2</ele>
        <time>2025-02-20T13:54:25Z</time>
      </trkpt>
      <trkpt lat="45.62251" lon="6.52335">
        <ele>1860.2</ele>
        <time>2025-02-20T13:54:26Z</time>
      </trkpt>
      <trkpt lat="45.62251" lon="6.52335">
        <ele>1860.2</ele>
        <time>2025-02-20T13:54:27Z</time>
      </trkpt>
      <trkpt lat="45.62251" lon="6.52335">
        <ele>1860.2</ele>
        <time>2025-02-20T13:54:28Z</time>
      </trkpt>
      <trkpt lat="45.62251" lon="6.52335">
        <ele>1860.2</ele>
        <time>2025-02-20T13:54:29Z</time>
      </trkpt>
      <trkpt lat="45.62251" lon="6.52335">
        <ele>1860.2</ele>
        <time>2025-02-20T13:54:30Z</time>
      </trkpt>
      <trkpt lat="45.62251" lon="6.52335">
        <ele>1860.2</ele>
        <time>2025-02-20T13:54:31Z</time>
      </trkpt>
      <trkpt lat="45.62251" lon="6.52335">
        <ele>1860.2</ele>
        <time>2025-02-20T13:54:32Z</time>
      </trkpt>
      <trkpt lat="45.62251" lon="6.52335">
        <ele>1860.2</ele>
        <time>2025-02-20T13:54:33Z</time>
      </trkpt>
      <trkpt lat="45.62251" lon="6.52335">
        <ele>1860.2</ele>
        <time>2025-02-20T13:54:34Z</time>
      </trkpt>
      <trkpt lat="45.62251" lon="6.52335">
        <ele>1860.2</ele>
        <time>2025-02-20T13:54:35Z</time>
      </trkpt>
      <trkpt lat="45.62251" lon="6.52335">
        <ele>1860.4</ele>
        <time>2025-02-20T13:54:36Z</time>
      </trkpt>
      <trkpt lat="45.62251" lon="6.52335">
        <ele>1860.2</ele>
        <time>2025-02-20T13:54:37Z</time>
      </trkpt>
      <trkpt lat="45.62251" lon="6.52335">
        <ele>1860.2</ele>
        <time>2025-02-20T13:54:38Z</time>
      </trkpt>
      <trkpt lat="45.62251" lon="6.52335">
        <ele>1860.2</ele>
        <time>2025-02-20T13:54:39Z</time>
      </trkpt>
      <trkpt lat="45.62251" lon="6.52335">
        <ele>1860.2</ele>
        <time>2025-02-20T13:54:40Z</time>
      </trkpt>
      <trkpt lat="45.62251" lon="6.52335">
        <ele>1860.2</ele>
        <time>2025-02-20T13:54:41Z</time>
      </trkpt>
      <trkpt lat="45.62251" lon="6.52335">
        <ele>1860.2</ele>
        <time>2025-02-20T13:54:42Z</time>
      </trkpt>
      <trkpt lat="45.62251" lon="6.52335">
        <ele>1860.2</ele>
        <time>2025-02-20T13:54:43Z</time>
      </trkpt>
      <trkpt lat="45.62251" lon="6.52335">
        <ele>1860.2</ele>
        <time>2025-02-20T13:54:44Z</time>
      </trkpt>
      <trkpt lat="45.62251" lon="6.52335">
        <ele>1860.6</ele>
        <time>2025-02-20T13:54:45Z</time>
      </trkpt>
      <trkpt lat="45.62251" lon="6.52335">
        <ele>1860.6</ele>
        <time>2025-02-20T13:54:46Z</time>
      </trkpt>
      <trkpt lat="45.62251" lon="6.52335">
        <ele>1860.6</ele>
        <time>2025-02-20T13:54:47Z</time>
      </trkpt>
      <trkpt lat="45.62251" lon="6.52335">
        <ele>1860.6</ele>
        <time>2025-02-20T13:54:48Z</time>
      </trkpt>
      <trkpt lat="45.62251" lon="6.52335">
        <ele>1860.2</ele>
        <time>2025-02-20T13:54:49Z</time>
      </trkpt>
      <trkpt lat="45.62251" lon="6.52335">
        <ele>1860.2</ele>
        <time>2025-02-20T13:54:50Z</time>
      </trkpt>
      <trkpt lat="45.62251" lon="6.52335">
        <ele>1860.2</ele>
        <time>2025-02-20T13:54:51Z</time>
      </trkpt>
      <trkpt lat="45.62251" lon="6.52335">
        <ele>1860.2</ele>
        <time>2025-02-20T13:54:52Z</time>
      </trkpt>
      <trkpt lat="45.62251" lon="6.52335">
        <ele>1860</ele>
        <time>2025-02-20T13:54:53Z</time>
      </trkpt>
      <trkpt lat="45.62251" lon="6.52335">
        <ele>1860</ele>
        <time>2025-02-20T13:54:54Z</time>
      </trkpt>
      <trkpt lat="45.62251" lon="6.52335">
        <ele>1860</ele>
        <time>2025-02-20T13:54:55Z</time>
      </trkpt>
      <trkpt lat="45.62251" lon="6.52335">
        <ele>1860</ele>
        <time>2025-02-20T13:54:56Z</time>
      </trkpt>
      <trkpt lat="45.62251" lon="6.52335">
        <ele>1860</ele>
        <time>2025-02-20T13:54:57Z</time>
      </trkpt>
      <trkpt lat="45.62251" lon="6.52335">
        <ele>1860</ele>
        <time>2025-02-20T13:54:58Z</time>
      </trkpt>
      <trkpt lat="45.62251" lon="6.52335">
        <ele>1860</ele>
        <time>2025-02-20T13:54:59Z</time>
      </trkpt>
      <trkpt lat="45.62251" lon="6.52335">
        <ele>1860.4</ele>
        <time>2025-02-20T13:55:00Z</time>
      </trkpt>
      <trkpt lat="45.62251" lon="6.52335">
        <ele>1859.6</ele>
        <time>2025-02-20T13:55:01Z</time>
      </trkpt>
      <trkpt lat="45.62251" lon="6.52335">
        <ele>1859.6</ele>
        <time>2025-02-20T13:55:02Z</time>
      </trkpt>
      <trkpt lat="45.62251" lon="6.52335">
        <ele>1859.6</ele>
        <time>2025-02-20T13:55:03Z</time>
      </trkpt>
      <trkpt lat="45.62251" lon="6.52335">
        <ele>1860.4</ele>
        <time>2025-02-20T13:55:04Z</time>
      </trkpt>
      <trkpt lat="45.62251" lon="6.52335">
        <ele>1860.4</ele>
        <time>2025-02-20T13:55:05Z</time>
      </trkpt>
      <trkpt lat="45.62251" lon="6.52335">
        <ele>1860.4</ele>
        <time>2025-02-20T13:55:06Z</time>
      </trkpt>
      <trkpt lat="45.62251" lon="6.52335">
        <ele>1860.4</ele>
        <time>2025-02-20T13:55:07Z</time>
      </trkpt>
      <trkpt lat="45.62251" lon="6.52335">
        <ele>1860.4</ele>
        <time>2025-02-20T13:55:08Z</time>
      </trkpt>
      <trkpt lat="45.62251" lon="6.52335">
        <ele>1860.4</ele>
        <time>2025-02-20T13:55:09Z</time>
      </trkpt>
      <trkpt lat="45.62251" lon="6.52335">
        <ele>1860.4</ele>
        <time>2025-02-20T13:55:10Z</time>
      </trkpt>
      <trkpt lat="45.62251" lon="6.52335">
        <ele>1860.4</ele>
        <time>2025-02-20T13:55:11Z</time>
      </trkpt>
      <trkpt lat="45.62251" lon="6.52335">
        <ele>1860.4</ele>
        <time>2025-02-20T13:55:12Z</time>
      </trkpt>
      <trkpt lat="45.62251" lon="6.52335">
        <ele>1860.2</ele>
        <time>2025-02-20T13:55:13Z</time>
      </trkpt>
      <trkpt lat="45.62251" lon="6.52335">
        <ele>1860.2</ele>
        <time>2025-02-20T13:55:14Z</time>
      </trkpt>
      <trkpt lat="45.62251" lon="6.52335">
        <ele>1860.2</ele>
        <time>2025-02-20T13:55:15Z</time>
      </trkpt>
      <trkpt lat="45.62251" lon="6.52335">
        <ele>1860.2</ele>
        <time>2025-02-20T13:55:16Z</time>
      </trkpt>
      <trkpt lat="45.62251" lon="6.52335">
        <ele>1860.2</ele>
        <time>2025-02-20T13:55:17Z</time>
      </trkpt>
      <trkpt lat="45.62251" lon="6.52335">
        <ele>1860.2</ele>
        <time>2025-02-20T13:55:18Z</time>
      </trkpt>
      <trkpt lat="45.62251" lon="6.52335">
        <ele>1860.2</ele>
        <time>2025-02-20T13:55:19Z</time>
      </trkpt>
      <trkpt lat="45.62251" lon="6.52335">
        <ele>1860.2</ele>
        <time>2025-02-20T13:55:20Z</time>
      </trkpt>
      <trkpt lat="45.62251" lon="6.52335">
        <ele>1860.2</ele>
        <time>2025-02-20T13:55:21Z</time>
      </trkpt>
      <trkpt lat="45.62251" lon="6.52335">
        <ele>1860.2</ele>
        <time>2025-02-20T13:55:22Z</time>
      </trkpt>
      <trkpt lat="45.62251" lon="6.52335">
        <ele>1860.2</ele>
        <time>2025-02-20T13:55:23Z</time>
      </trkpt>
      <trkpt lat="45.62251" lon="6.52335">
        <ele>1860.2</ele>
        <time>2025-02-20T13:55:24Z</time>
      </trkpt>
      <trkpt lat="45.62251" lon="6.52335">
        <ele>1859.8</ele>
        <time>2025-02-20T13:55:25Z</time>
      </trkpt>
      <trkpt lat="45.62251" lon="6.52335">
        <ele>1859.8</ele>
        <time>2025-02-20T13:55:26Z</time>
      </trkpt>
      <trkpt lat="45.62251" lon="6.52335">
        <ele>1859.8</ele>
        <time>2025-02-20T13:55:27Z</time>
      </trkpt>
      <trkpt lat="45.62251" lon="6.52335">
        <ele>1860</ele>
        <time>2025-02-20T13:55:28Z</time>
      </trkpt>
      <trkpt lat="45.62251" lon="6.52335">
        <ele>1859.8</ele>
        <time>2025-02-20T13:55:29Z</time>
      </trkpt>
      <trkpt lat="45.62251" lon="6.52335">
        <ele>1859.8</ele>
        <time>2025-02-20T13:55:30Z</time>
      </trkpt>
      <trkpt lat="45.62251" lon="6.52335">
        <ele>1859.8</ele>
        <time>2025-02-20T13:55:31Z</time>
      </trkpt>
      <trkpt lat="45.62251" lon="6.52335">
        <ele>1860.4</ele>
        <time>2025-02-20T13:55:32Z</time>
      </trkpt>
      <trkpt lat="45.62251" lon="6.52335">
        <ele>1860.8</ele>
        <time>2025-02-20T13:55:33Z</time>
      </trkpt>
      <trkpt lat="45.62251" lon="6.52335">
        <ele>1860.8</ele>
        <time>2025-02-20T13:55:34Z</time>
      </trkpt>
      <trkpt lat="45.62251" lon="6.52335">
        <ele>1860.8</ele>
        <time>2025-02-20T13:55:35Z</time>
      </trkpt>
      <trkpt lat="45.62251" lon="6.52335">
        <ele>1859.8</ele>
        <time>2025-02-20T13:55:36Z</time>
      </trkpt>
      <trkpt lat="45.62251" lon="6.52335">
        <ele>1860.2</ele>
        <time>2025-02-20T13:55:37Z</time>
      </trkpt>
      <trkpt lat="45.62251" lon="6.52335">
        <ele>1860.2</ele>
        <time>2025-02-20T13:55:38Z</time>
      </trkpt>
      <trkpt lat="45.62251" lon="6.52335">
        <ele>1860.2</ele>
        <time>2025-02-20T13:55:39Z</time>
      </trkpt>
      <trkpt lat="45.62251" lon="6.52335">
        <ele>1860.2</ele>
        <time>2025-02-20T13:55:40Z</time>
      </trkpt>
      <trkpt lat="45.62251" lon="6.52335">
        <ele>1860.4</ele>
        <time>2025-02-20T13:55:41Z</time>
      </trkpt>
      <trkpt lat="45.62251" lon="6.52335">
        <ele>1860.4</ele>
        <time>2025-02-20T13:55:42Z</time>
      </trkpt>
      <trkpt lat="45.62251" lon="6.52335">
        <ele>1860.4</ele>
        <time>2025-02-20T13:55:43Z</time>
      </trkpt>
      <trkpt lat="45.62251" lon="6.52335">
        <ele>1860.4</ele>
        <time>2025-02-20T13:55:44Z</time>
      </trkpt>
      <trkpt lat="45.62251" lon="6.52335">
        <ele>1860.8</ele>
        <time>2025-02-20T13:55:45Z</time>
      </trkpt>
      <trkpt lat="45.62251" lon="6.52335">
        <ele>1860.8</ele>
        <time>2025-02-20T13:55:46Z</time>
      </trkpt>
      <trkpt lat="45.62251" lon="6.52335">
        <ele>1860.8</ele>
        <time>2025-02-20T13:55:47Z</time>
      </trkpt>
      <trkpt lat="45.62251" lon="6.52335">
        <ele>1860.8</ele>
        <time>2025-02-20T13:55:48Z</time>
      </trkpt>
      <trkpt lat="45.62251" lon="6.52335">
        <ele>1860.6</ele>
        <time>2025-02-20T13:55:49Z</time>
      </trkpt>
      <trkpt lat="45.62251" lon="6.52335">
        <ele>1860.6</ele>
        <time>2025-02-20T13:55:50Z</time>
      </trkpt>
      <trkpt lat="45.62251" lon="6.52335">
        <ele>1860.6</ele>
        <time>2025-02-20T13:55:51Z</time>
      </trkpt>
      <trkpt lat="45.62251" lon="6.52335">
        <ele>1860.4</ele>
        <time>2025-02-20T13:55:52Z</time>
      </trkpt>
      <trkpt lat="45.62251" lon="6.52335">
        <ele>1860.4</ele>
        <time>2025-02-20T13:55:53Z</time>
      </trkpt>
      <trkpt lat="45.62251" lon="6.52335">
        <ele>1860.4</ele>
        <time>2025-02-20T13:55:54Z</time>
      </trkpt>
      <trkpt lat="45.62251" lon="6.52335">
        <ele>1860.4</ele>
        <time>2025-02-20T13:55:55Z</time>
      </trkpt>
      <trkpt lat="45.62251" lon="6.52335">
        <ele>1860.4</ele>
        <time>2025-02-20T13:55:56Z</time>
      </trkpt>
      <trkpt lat="45.62251" lon="6.52335">
        <ele>1860.4</ele>
        <time>2025-02-20T13:55:57Z</time>
      </trkpt>
      <trkpt lat="45.62251" lon="6.52335">
        <ele>1860.4</ele>
        <time>2025-02-20T13:55:58Z</time>
      </trkpt>
      <trkpt lat="45.62251" lon="6.52335">
        <ele>1860.4</ele>
        <time>2025-02-20T13:55:59Z</time>
      </trkpt>
      <trkpt lat="45.62251" lon="6.52335">
        <ele>1860.4</ele>
        <time>2025-02-20T13:56:00Z</time>
      </trkpt>
      <trkpt lat="45.62251" lon="6.52335">
        <ele>1860.2</ele>
        <time>2025-02-20T13:56:01Z</time>
      </trkpt>
      <trkpt lat="45.62251" lon="6.52335">
        <ele>1860.2</ele>
        <time>2025-02-20T13:56:02Z</time>
      </trkpt>
      <trkpt lat="45.62251" lon="6.52335">
        <ele>1860.2</ele>
        <time>2025-02-20T13:56:03Z</time>
      </trkpt>
      <trkpt lat="45.62251" lon="6.52335">
        <ele>1860.2</ele>
        <time>2025-02-20T13:56:04Z</time>
      </trkpt>
      <trkpt lat="45.62251" lon="6.52335">
        <ele>1860</ele>
        <time>2025-02-20T13:56:05Z</time>
      </trkpt>
      <trkpt lat="45.62251" lon="6.52335">
        <ele>1860</ele>
        <time>2025-02-20T13:56:06Z</time>
      </trkpt>
      <trkpt lat="45.62251" lon="6.52335">
        <ele>1860</ele>
        <time>2025-02-20T13:56:07Z</time>
      </trkpt>
      <trkpt lat="45.62251" lon="6.52335">
        <ele>1860</ele>
        <time>2025-02-20T13:56:08Z</time>
      </trkpt>
      <trkpt lat="45.62251" lon="6.52335">
        <ele>1860.2</ele>
        <time>2025-02-20T13:56:09Z</time>
      </trkpt>
      <trkpt lat="45.62251" lon="6.52335">
        <ele>1860.2</ele>
        <time>2025-02-20T13:56:10Z</time>
      </trkpt>
      <trkpt lat="45.62251" lon="6.52335">
        <ele>1860.2</ele>
        <time>2025-02-20T13:56:11Z</time>
      </trkpt>
      <trkpt lat="45.62251" lon="6.52335">
        <ele>1860.2</ele>
        <time>2025-02-20T13:56:12Z</time>
      </trkpt>
      <trkpt lat="45.62251" lon="6.52335">
        <ele>1860.4</ele>
        <time>2025-02-20T13:56:13Z</time>
      </trkpt>
      <trkpt lat="45.62251" lon="6.52335">
        <ele>1860.4</ele>
        <time>2025-02-20T13:56:14Z</time>
      </trkpt>
      <trkpt lat="45.62251" lon="6.52335">
        <ele>1860.4</ele>
        <time>2025-02-20T13:56:15Z</time>
      </trkpt>
      <trkpt lat="45.62251" lon="6.52335">
        <ele>1860.4</ele>
        <time>2025-02-20T13:56:16Z</time>
      </trkpt>
      <trkpt lat="45.62251" lon="6.52335">
        <ele>1860.8</ele>
        <time>2025-02-20T13:56:17Z</time>
      </trkpt>
      <trkpt lat="45.62251" lon="6.52335">
        <ele>1860.8</ele>
        <time>2025-02-20T13:56:18Z</time>
      </trkpt>
      <trkpt lat="45.62251" lon="6.52335">
        <ele>1860.8</ele>
        <time>2025-02-20T13:56:19Z</time>
      </trkpt>
      <trkpt lat="45.62251" lon="6.52335">
        <ele>1860.8</ele>
        <time>2025-02-20T13:56:20Z</time>
      </trkpt>
      <trkpt lat="45.62251" lon="6.52335">
        <ele>1861.2</ele>
        <time>2025-02-20T13:56:21Z</time>
      </trkpt>
      <trkpt lat="45.62251" lon="6.52335">
        <ele>1861.2</ele>
        <time>2025-02-20T13:56:22Z</time>
      </trkpt>
      <trkpt lat="45.62251" lon="6.52335">
        <ele>1861.2</ele>
        <time>2025-02-20T13:56:23Z</time>
      </trkpt>
      <trkpt lat="45.62251" lon="6.52335">
        <ele>1860.2</ele>
        <time>2025-02-20T13:56:24Z</time>
      </trkpt>
      <trkpt lat="45.62251" lon="6.52335">
        <ele>1860.4</ele>
        <time>2025-02-20T13:56:25Z</time>
      </trkpt>
      <trkpt lat="45.62251" lon="6.52335">
        <ele>1860.4</ele>
        <time>2025-02-20T13:56:26Z</time>
      </trkpt>
      <trkpt lat="45.62251" lon="6.52335">
        <ele>1860.4</ele>
        <time>2025-02-20T13:56:27Z</time>
      </trkpt>
      <trkpt lat="45.62251" lon="6.52335">
        <ele>1860.4</ele>
        <time>2025-02-20T13:56:28Z</time>
      </trkpt>
      <trkpt lat="45.62251" lon="6.52335">
        <ele>1860.6</ele>
        <time>2025-02-20T13:56:29Z</time>
      </trkpt>
      <trkpt lat="45.62251" lon="6.52335">
        <ele>1860.6</ele>
        <time>2025-02-20T13:56:30Z</time>
      </trkpt>
      <trkpt lat="45.62251" lon="6.52335">
        <ele>1860.6</ele>
        <time>2025-02-20T13:56:31Z</time>
      </trkpt>
      <trkpt lat="45.62251" lon="6.52335">
        <ele>1860.6</ele>
        <time>2025-02-20T13:56:32Z</time>
      </trkpt>
      <trkpt lat="45.62251" lon="6.52335">
        <ele>1860.8</ele>
        <time>2025-02-20T13:56:33Z</time>
      </trkpt>
      <trkpt lat="45.62251" lon="6.52335">
        <ele>1860.8</ele>
        <time>2025-02-20T13:56:34Z</time>
      </trkpt>
      <trkpt lat="45.62251" lon="6.52335">
        <ele>1860.8</ele>
        <time>2025-02-20T13:56:35Z</time>
      </trkpt>
      <trkpt lat="45.62251" lon="6.52335">
        <ele>1860</ele>
        <time>2025-02-20T13:56:36Z</time>
      </trkpt>
      <trkpt lat="45.62251" lon="6.52335">
        <ele>1860.6</ele>
        <time>2025-02-20T13:56:37Z</time>
      </trkpt>
      <trkpt lat="45.62251" lon="6.52335">
        <ele>1860.6</ele>
        <time>2025-02-20T13:56:38Z</time>
      </trkpt>
      <trkpt lat="45.62251" lon="6.52335">
        <ele>1860.6</ele>
        <time>2025-02-20T13:56:39Z</time>
      </trkpt>
      <trkpt lat="45.62251" lon="6.52335">
        <ele>1860.6</ele>
        <time>2025-02-20T13:56:40Z</time>
      </trkpt>
      <trkpt lat="45.62251" lon="6.52335">
        <ele>1860.6</ele>
        <time>2025-02-20T13:56:41Z</time>
      </trkpt>
      <trkpt lat="45.62251" lon="6.52335">
        <ele>1860.6</ele>
        <time>2025-02-20T13:56:42Z</time>
      </trkpt>
      <trkpt lat="45.62251" lon="6.52335">
        <ele>1860.6</ele>
        <time>2025-02-20T13:56:43Z</time>
      </trkpt>
      <trkpt lat="45.62251" lon="6.52335">
        <ele>1861</ele>
        <time>2025-02-20T13:56:44Z</time>
      </trkpt>
      <trkpt lat="45.62251" lon="6.52335">
        <ele>1861</ele>
        <time>2025-02-20T13:56:45Z</time>
      </trkpt>
      <trkpt lat="45.62251" lon="6.52335">
        <ele>1861</ele>
        <time>2025-02-20T13:56:46Z</time>
      </trkpt>
      <trkpt lat="45.62251" lon="6.52335">
        <ele>1861</ele>
        <time>2025-02-20T13:56:47Z</time>
      </trkpt>
      <trkpt lat="45.62251" lon="6.52335">
        <ele>1861</ele>
        <time>2025-02-20T13:56:48Z</time>
      </trkpt>
      <trkpt lat="45.62251" lon="6.52335">
        <ele>1861.2</ele>
        <time>2025-02-20T13:56:49Z</time>
      </trkpt>
      <trkpt lat="45.62251" lon="6.52335">
        <ele>1861.2</ele>
        <time>2025-02-20T13:56:50Z</time>
      </trkpt>
      <trkpt lat="45.62251" lon="6.52335">
        <ele>1861.2</ele>
        <time>2025-02-20T13:56:51Z</time>
      </trkpt>
      <trkpt lat="45.62251" lon="6.52335">
        <ele>1861.2</ele>
        <time>2025-02-20T13:56:52Z</time>
      </trkpt>
      <trkpt lat="45.62251" lon="6.52335">
        <ele>1860.8</ele>
        <time>2025-02-20T13:56:53Z</time>
      </trkpt>
      <trkpt lat="45.62251" lon="6.52335">
        <ele>1860.8</ele>
        <time>2025-02-20T13:56:54Z</time>
      </trkpt>
      <trkpt lat="45.62251" lon="6.52335">
        <ele>1860.8</ele>
        <time>2025-02-20T13:56:55Z</time>
      </trkpt>
      <trkpt lat="45.62251" lon="6.52335">
        <ele>1860</ele>
        <time>2025-02-20T13:56:56Z</time>
      </trkpt>
      <trkpt lat="45.62251" lon="6.52335">
        <ele>1860.4</ele>
        <time>2025-02-20T13:56:57Z</time>
      </trkpt>
      <trkpt lat="45.62251" lon="6.52335">
        <ele>1860.4</ele>
        <time>2025-02-20T13:56:58Z</time>
      </trkpt>
      <trkpt lat="45.62251" lon="6.52335">
        <ele>1860.4</ele>
        <time>2025-02-20T13:56:59Z</time>
      </trkpt>
      <trkpt lat="45.62251" lon="6.52335">
        <ele>1860.4</ele>
        <time>2025-02-20T13:57:00Z</time>
      </trkpt>
      <trkpt lat="45.62251" lon="6.52335">
        <ele>1859.6</ele>
        <time>2025-02-20T13:57:01Z</time>
      </trkpt>
      <trkpt lat="45.62251" lon="6.52335">
        <ele>1859.6</ele>
        <time>2025-02-20T13:57:02Z</time>
      </trkpt>
      <trkpt lat="45.62251" lon="6.52335">
        <ele>1859.6</ele>
        <time>2025-02-20T13:57:03Z</time>
      </trkpt>
      <trkpt lat="45.62251" lon="6.52335">
        <ele>1860.6</ele>
        <time>2025-02-20T13:57:04Z</time>
      </trkpt>
      <trkpt lat="45.62251" lon="6.52335">
        <ele>1860.8</ele>
        <time>2025-02-20T13:57:05Z</time>
      </trkpt>
      <trkpt lat="45.62251" lon="6.52335">
        <ele>1860.8</ele>
        <time>2025-02-20T13:57:06Z</time>
      </trkpt>
      <trkpt lat="45.62251" lon="6.52335">
        <ele>1860.8</ele>
        <time>2025-02-20T13:57:07Z</time>
      </trkpt>
      <trkpt lat="45.62251" lon="6.52335">
        <ele>1860.8</ele>
        <time>2025-02-20T13:57:08Z</time>
      </trkpt>
      <trkpt lat="45.62251" lon="6.52335">
        <ele>1859.8</ele>
        <time>2025-02-20T13:57:09Z</time>
      </trkpt>
      <trkpt lat="45.62251" lon="6.52335">
        <ele>1859.8</ele>
        <time>2025-02-20T13:57:10Z</time>
      </trkpt>
      <trkpt lat="45.62251" lon="6.52335">
        <ele>1859.8</ele>
        <time>2025-02-20T13:57:11Z</time>
      </trkpt>
      <trkpt lat="45.62251" lon="6.52335">
        <ele>1859.8</ele>
        <time>2025-02-20T13:57:12Z</time>
      </trkpt>
      <trkpt lat="45.62251" lon="6.52335">
        <ele>1861</ele>
        <time>2025-02-20T13:57:13Z</time>
      </trkpt>
      <trkpt lat="45.62251" lon="6.52335">
        <ele>1861</ele>
        <time>2025-02-20T13:57:14Z</time>
      </trkpt>
      <trkpt lat="45.62251" lon="6.52335">
        <ele>1861</ele>
        <time>2025-02-20T13:57:15Z</time>
      </trkpt>
      <trkpt lat="45.62251" lon="6.52335">
        <ele>1861</ele>
        <time>2025-02-20T13:57:16Z</time>
      </trkpt>
      <trkpt lat="45.62251" lon="6.52335">
        <ele>1859.8</ele>
        <time>2025-02-20T13:57:17Z</time>
      </trkpt>
      <trkpt lat="45.62251" lon="6.52335">
        <ele>1859.8</ele>
        <time>2025-02-20T13:57:18Z</time>
      </trkpt>
      <trkpt lat="45.62251" lon="6.52335">
        <ele>1859.8</ele>
        <time>2025-02-20T13:57:19Z</time>
      </trkpt>
      <trkpt lat="45.62253" lon="6.52332">
        <ele>1859.8</ele>
        <time>2025-02-20T13:57:20Z</time>
      </trkpt>
      <trkpt lat="45.62253" lon="6.52333">
        <ele>1861.2</ele>
        <time>2025-02-20T13:57:21Z</time>
      </trkpt>
      <trkpt lat="45.62253" lon="6.52333">
        <ele>1861.2</ele>
        <time>2025-02-20T13:57:22Z</time>
      </trkpt>
      <trkpt lat="45.62253" lon="6.52333">
        <ele>1861.2</ele>
        <time>2025-02-20T13:57:23Z</time>
      </trkpt>
      <trkpt lat="45.62254" lon="6.52335">
        <ele>1862.2</ele>
        <time>2025-02-20T13:57:24Z</time>
      </trkpt>
      <trkpt lat="45.62254" lon="6.52336">
        <ele>1862.4</ele>
        <time>2025-02-20T13:57:25Z</time>
      </trkpt>
      <trkpt lat="45.62255" lon="6.52337">
        <ele>1862.4</ele>
        <time>2025-02-20T13:57:26Z</time>
      </trkpt>
      <trkpt lat="45.62255" lon="6.52337">
        <ele>1862.4</ele>
        <time>2025-02-20T13:57:27Z</time>
      </trkpt>
      <trkpt lat="45.62256" lon="6.52338">
        <ele>1861.8</ele>
        <time>2025-02-20T13:57:28Z</time>
      </trkpt>
      <trkpt lat="45.62256" lon="6.52338">
        <ele>1862.2</ele>
        <time>2025-02-20T13:57:29Z</time>
      </trkpt>
      <trkpt lat="45.62257" lon="6.52339">
        <ele>1862.2</ele>
        <time>2025-02-20T13:57:30Z</time>
      </trkpt>
      <trkpt lat="45.62258" lon="6.52339">
        <ele>1862.2</ele>
        <time>2025-02-20T13:57:31Z</time>
      </trkpt>
      <trkpt lat="45.62258" lon="6.52338">
        <ele>1861.6</ele>
        <time>2025-02-20T13:57:32Z</time>
      </trkpt>
      <trkpt lat="45.62259" lon="6.52338">
        <ele>1862.6</ele>
        <time>2025-02-20T13:57:33Z</time>
      </trkpt>
      <trkpt lat="45.62259" lon="6.52338">
        <ele>1862.6</ele>
        <time>2025-02-20T13:57:34Z</time>
      </trkpt>
      <trkpt lat="45.62259" lon="6.52338">
        <ele>1862.6</ele>
        <time>2025-02-20T13:57:35Z</time>
      </trkpt>
      <trkpt lat="45.62259" lon="6.52338">
        <ele>1862.6</ele>
        <time>2025-02-20T13:57:36Z</time>
      </trkpt>
      <trkpt lat="45.62259" lon="6.52338">
        <ele>1862.4</ele>
        <time>2025-02-20T13:57:37Z</time>
      </trkpt>
      <trkpt lat="45.6226" lon="6.52338">
        <ele>1862.4</ele>
        <time>2025-02-20T13:57:38Z</time>
      </trkpt>
      <trkpt lat="45.6226" lon="6.52337">
        <ele>1862.4</ele>
        <time>2025-02-20T13:57:39Z</time>
      </trkpt>
      <trkpt lat="45.62261" lon="6.52337">
        <ele>1862.4</ele>
        <time>2025-02-20T13:57:40Z</time>
      </trkpt>
      <trkpt lat="45.62261" lon="6.52337">
        <ele>1863.6</ele>
        <time>2025-02-20T13:57:41Z</time>
      </trkpt>
      <trkpt lat="45.62262" lon="6.52337">
        <ele>1863.6</ele>
        <time>2025-02-20T13:57:42Z</time>
      </trkpt>
      <trkpt lat="45.62262" lon="6.52337">
        <ele>1863.6</ele>
        <time>2025-02-20T13:57:43Z</time>
      </trkpt>
      <trkpt lat="45.62262" lon="6.52337">
        <ele>1863.4</ele>
        <time>2025-02-20T13:57:44Z</time>
      </trkpt>
      <trkpt lat="45.62262" lon="6.52337">
        <ele>1863.2</ele>
        <time>2025-02-20T13:57:45Z</time>
      </trkpt>
      <trkpt lat="45.62262" lon="6.52337">
        <ele>1863.2</ele>
        <time>2025-02-20T13:57:46Z</time>
      </trkpt>
      <trkpt lat="45.62264" lon="6.52336">
        <ele>1863.2</ele>
        <time>2025-02-20T13:57:47Z</time>
      </trkpt>
      <trkpt lat="45.62264" lon="6.52336">
        <ele>1864.2</ele>
        <time>2025-02-20T13:57:48Z</time>
      </trkpt>
      <trkpt lat="45.62264" lon="6.52335">
        <ele>1865</ele>
        <time>2025-02-20T13:57:49Z</time>
      </trkpt>
      <trkpt lat="45.62265" lon="6.52335">
        <ele>1865</ele>
        <time>2025-02-20T13:57:50Z</time>
      </trkpt>
      <trkpt lat="45.62265" lon="6.52335">
        <ele>1865</ele>
        <time>2025-02-20T13:57:51Z</time>
      </trkpt>
      <trkpt lat="45.62265" lon="6.52335">
        <ele>1865.6</ele>
        <time>2025-02-20T13:57:52Z</time>
      </trkpt>
      <trkpt lat="45.62265" lon="6.52335">
        <ele>1865.6</ele>
        <time>2025-02-20T13:57:53Z</time>
      </trkpt>
      <trkpt lat="45.62265" lon="6.52335">
        <ele>1865.6</ele>
        <time>2025-02-20T13:57:54Z</time>
      </trkpt>
      <trkpt lat="45.62266" lon="6.52335">
        <ele>1865.6</ele>
        <time>2025-02-20T13:57:55Z</time>
      </trkpt>
      <trkpt lat="45.62266" lon="6.52335">
        <ele>1865.6</ele>
        <time>2025-02-20T13:57:56Z</time>
      </trkpt>
      <trkpt lat="45.62267" lon="6.52334">
        <ele>1867</ele>
        <time>2025-02-20T13:57:57Z</time>
      </trkpt>
      <trkpt lat="45.62267" lon="6.52334">
        <ele>1867</ele>
        <time>2025-02-20T13:57:58Z</time>
      </trkpt>
      <trkpt lat="45.62268" lon="6.52334">
        <ele>1867</ele>
        <time>2025-02-20T13:57:59Z</time>
      </trkpt>
      <trkpt lat="45.62268" lon="6.52334">
        <ele>1867</ele>
        <time>2025-02-20T13:58:00Z</time>
      </trkpt>
      <trkpt lat="45.62268" lon="6.52334">
        <ele>1867</ele>
        <time>2025-02-20T13:58:01Z</time>
      </trkpt>
      <trkpt lat="45.6227" lon="6.52334">
        <ele>1867</ele>
        <time>2025-02-20T13:58:02Z</time>
      </trkpt>
      <trkpt lat="45.62271" lon="6.52334">
        <ele>1867</ele>
        <time>2025-02-20T13:58:03Z</time>
      </trkpt>
      <trkpt lat="45.62271" lon="6.52334">
        <ele>1866.4</ele>
        <time>2025-02-20T13:58:04Z</time>
      </trkpt>
      <trkpt lat="45.62272" lon="6.52334">
        <ele>1866.4</ele>
        <time>2025-02-20T13:58:05Z</time>
      </trkpt>
      <trkpt lat="45.62273" lon="6.52333">
        <ele>1866.4</ele>
        <time>2025-02-20T13:58:06Z</time>
      </trkpt>
      <trkpt lat="45.62274" lon="6.52334">
        <ele>1866.4</ele>
        <time>2025-02-20T13:58:07Z</time>
      </trkpt>
      <trkpt lat="45.62275" lon="6.52334">
        <ele>1866.4</ele>
        <time>2025-02-20T13:58:08Z</time>
      </trkpt>
      <trkpt lat="45.62276" lon="6.52333">
        <ele>1867</ele>
        <time>2025-02-20T13:58:09Z</time>
      </trkpt>
      <trkpt lat="45.62277" lon="6.52334">
        <ele>1867</ele>
        <time>2025-02-20T13:58:10Z</time>
      </trkpt>
      <trkpt lat="45.62277" lon="6.52334">
        <ele>1867</ele>
        <time>2025-02-20T13:58:11Z</time>
      </trkpt>
      <trkpt lat="45.62278" lon="6.52335">
        <ele>1867</ele>
        <time>2025-02-20T13:58:12Z</time>
      </trkpt>
      <trkpt lat="45.62279" lon="6.52336">
        <ele>1867.6</ele>
        <time>2025-02-20T13:58:13Z</time>
      </trkpt>
      <trkpt lat="45.6228" lon="6.52335">
        <ele>1867.6</ele>
        <time>2025-02-20T13:58:14Z</time>
      </trkpt>
      <trkpt lat="45.6228" lon="6.52335">
        <ele>1867.6</ele>
        <time>2025-02-20T13:58:15Z</time>
      </trkpt>
      <trkpt lat="45.6228" lon="6.52336">
        <ele>1867.6</ele>
        <time>2025-02-20T13:58:16Z</time>
      </trkpt>
      <trkpt lat="45.62281" lon="6.52336">
        <ele>1867.2</ele>
        <time>2025-02-20T13:58:17Z</time>
      </trkpt>
      <trkpt lat="45.62282" lon="6.52336">
        <ele>1867.2</ele>
        <time>2025-02-20T13:58:18Z</time>
      </trkpt>
      <trkpt lat="45.62283" lon="6.52337">
        <ele>1867.2</ele>
        <time>2025-02-20T13:58:19Z</time>
      </trkpt>
      <trkpt lat="45.62284" lon="6.52337">
        <ele>1867.2</ele>
        <time>2025-02-20T13:58:20Z</time>
      </trkpt>
      <trkpt lat="45.62284" lon="6.52337">
        <ele>1867.6</ele>
        <time>2025-02-20T13:58:21Z</time>
      </trkpt>
      <trkpt lat="45.62285" lon="6.52337">
        <ele>1867.6</ele>
        <time>2025-02-20T13:58:22Z</time>
      </trkpt>
      <trkpt lat="45.62286" lon="6.52337">
        <ele>1867.6</ele>
        <time>2025-02-20T13:58:23Z</time>
      </trkpt>
      <trkpt lat="45.62287" lon="6.52337">
        <ele>1867.6</ele>
        <time>2025-02-20T13:58:24Z</time>
      </trkpt>
      <trkpt lat="45.62288" lon="6.52337">
        <ele>1867.8</ele>
        <time>2025-02-20T13:58:25Z</time>
      </trkpt>
      <trkpt lat="45.62289" lon="6.52338">
        <ele>1867.8</ele>
        <time>2025-02-20T13:58:26Z</time>
      </trkpt>
      <trkpt lat="45.6229" lon="6.52338">
        <ele>1867.8</ele>
        <time>2025-02-20T13:58:27Z</time>
      </trkpt>
      <trkpt lat="45.62291" lon="6.52338">
        <ele>1867.4</ele>
        <time>2025-02-20T13:58:28Z</time>
      </trkpt>
      <trkpt lat="45.62291" lon="6.52338">
        <ele>1867</ele>
        <time>2025-02-20T13:58:29Z</time>
      </trkpt>
      <trkpt lat="45.62292" lon="6.52338">
        <ele>1867</ele>
        <time>2025-02-20T13:58:30Z</time>
      </trkpt>
      <trkpt lat="45.62293" lon="6.52338">
        <ele>1867</ele>
        <time>2025-02-20T13:58:31Z</time>
      </trkpt>
      <trkpt lat="45.62294" lon="6.52339">
        <ele>1867</ele>
        <time>2025-02-20T13:58:32Z</time>
      </trkpt>
      <trkpt lat="45.62295" lon="6.52339">
        <ele>1867.4</ele>
        <time>2025-02-20T13:58:33Z</time>
      </trkpt>
      <trkpt lat="45.62295" lon="6.52339">
        <ele>1867.4</ele>
        <time>2025-02-20T13:58:34Z</time>
      </trkpt>
      <trkpt lat="45.62296" lon="6.52339">
        <ele>1867.4</ele>
        <time>2025-02-20T13:58:35Z</time>
      </trkpt>
      <trkpt lat="45.62297" lon="6.5234">
        <ele>1867.4</ele>
        <time>2025-02-20T13:58:36Z</time>
      </trkpt>
      <trkpt lat="45.62298" lon="6.5234">
        <ele>1868.2</ele>
        <time>2025-02-20T13:58:37Z</time>
      </trkpt>
      <trkpt lat="45.62298" lon="6.5234">
        <ele>1868.2</ele>
        <time>2025-02-20T13:58:38Z</time>
      </trkpt>
      <trkpt lat="45.62299" lon="6.5234">
        <ele>1868.2</ele>
        <time>2025-02-20T13:58:39Z</time>
      </trkpt>
      <trkpt lat="45.623" lon="6.5234">
        <ele>1868</ele>
        <time>2025-02-20T13:58:40Z</time>
      </trkpt>
      <trkpt lat="45.623" lon="6.52341">
        <ele>1867.8</ele>
        <time>2025-02-20T13:58:41Z</time>
      </trkpt>
      <trkpt lat="45.62301" lon="6.52341">
        <ele>1867.8</ele>
        <time>2025-02-20T13:58:42Z</time>
      </trkpt>
      <trkpt lat="45.62302" lon="6.52341">
        <ele>1867.8</ele>
        <time>2025-02-20T13:58:43Z</time>
      </trkpt>
      <trkpt lat="45.62302" lon="6.52342">
        <ele>1867.8</ele>
        <time>2025-02-20T13:58:44Z</time>
      </trkpt>
      <trkpt lat="45.62303" lon="6.52341">
        <ele>1868.2</ele>
        <time>2025-02-20T13:58:45Z</time>
      </trkpt>
      <trkpt lat="45.62304" lon="6.52341">
        <ele>1868.2</ele>
        <time>2025-02-20T13:58:46Z</time>
      </trkpt>
      <trkpt lat="45.62304" lon="6.52342">
        <ele>1868.2</ele>
        <time>2025-02-20T13:58:47Z</time>
      </trkpt>
      <trkpt lat="45.62305" lon="6.52342">
        <ele>1868.2</ele>
        <time>2025-02-20T13:58:48Z</time>
      </trkpt>
      <trkpt lat="45.62306" lon="6.52341">
        <ele>1869.4</ele>
        <time>2025-02-20T13:58:49Z</time>
      </trkpt>
      <trkpt lat="45.62306" lon="6.52341">
        <ele>1869.4</ele>
        <time>2025-02-20T13:58:50Z</time>
      </trkpt>
      <trkpt lat="45.62307" lon="6.52342">
        <ele>1869.4</ele>
        <time>2025-02-20T13:58:51Z</time>
      </trkpt>
      <trkpt lat="45.62308" lon="6.52342">
        <ele>1869.4</ele>
        <time>2025-02-20T13:58:52Z</time>
      </trkpt>
      <trkpt lat="45.62309" lon="6.52342">
        <ele>1869.4</ele>
        <time>2025-02-20T13:58:53Z</time>
      </trkpt>
      <trkpt lat="45.62309" lon="6.52342">
        <ele>1869.4</ele>
        <time>2025-02-20T13:58:54Z</time>
      </trkpt>
      <trkpt lat="45.62311" lon="6.52343">
        <ele>1869.4</ele>
        <time>2025-02-20T13:58:55Z</time>
      </trkpt>
      <trkpt lat="45.62312" lon="6.52343">
        <ele>1868.6</ele>
        <time>2025-02-20T13:58:56Z</time>
      </trkpt>
      <trkpt lat="45.62313" lon="6.52343">
        <ele>1869</ele>
        <time>2025-02-20T13:58:57Z</time>
      </trkpt>
      <trkpt lat="45.62316" lon="6.52344">
        <ele>1869</ele>
        <time>2025-02-20T13:58:58Z</time>
      </trkpt>
      <trkpt lat="45.62317" lon="6.52344">
        <ele>1869</ele>
        <time>2025-02-20T13:58:59Z</time>
      </trkpt>
      <trkpt lat="45.62319" lon="6.52344">
        <ele>1868</ele>
        <time>2025-02-20T13:59:00Z</time>
      </trkpt>
      <trkpt lat="45.62319" lon="6.52345">
        <ele>1867</ele>
        <time>2025-02-20T13:59:01Z</time>
      </trkpt>
      <trkpt lat="45.6232" lon="6.52345">
        <ele>1867</ele>
        <time>2025-02-20T13:59:02Z</time>
      </trkpt>
      <trkpt lat="45.62321" lon="6.52345">
        <ele>1867</ele>
        <time>2025-02-20T13:59:03Z</time>
      </trkpt>
      <trkpt lat="45.62322" lon="6.52345">
        <ele>1867</ele>
        <time>2025-02-20T13:59:04Z</time>
      </trkpt>
      <trkpt lat="45.62323" lon="6.52345">
        <ele>1867.2</ele>
        <time>2025-02-20T13:59:05Z</time>
      </trkpt>
      <trkpt lat="45.62324" lon="6.52345">
        <ele>1867.2</ele>
        <time>2025-02-20T13:59:06Z</time>
      </trkpt>
      <trkpt lat="45.62325" lon="6.52345">
        <ele>1867.2</ele>
        <time>2025-02-20T13:59:07Z</time>
      </trkpt>
      <trkpt lat="45.62326" lon="6.52344">
        <ele>1867.2</ele>
        <time>2025-02-20T13:59:08Z</time>
      </trkpt>
      <trkpt lat="45.62326" lon="6.52344">
        <ele>1868</ele>
        <time>2025-02-20T13:59:09Z</time>
      </trkpt>
      <trkpt lat="45.62327" lon="6.52344">
        <ele>1868</ele>
        <time>2025-02-20T13:59:10Z</time>
      </trkpt>
      <trkpt lat="45.62328" lon="6.52344">
        <ele>1868</ele>
        <time>2025-02-20T13:59:11Z</time>
      </trkpt>
      <trkpt lat="45.62329" lon="6.52345">
        <ele>1868</ele>
        <time>2025-02-20T13:59:12Z</time>
      </trkpt>
      <trkpt lat="45.62329" lon="6.52345">
        <ele>1866.8</ele>
        <time>2025-02-20T13:59:13Z</time>
      </trkpt>
      <trkpt lat="45.6233" lon="6.52344">
        <ele>1866.8</ele>
        <time>2025-02-20T13:59:14Z</time>
      </trkpt>
      <trkpt lat="45.62331" lon="6.52344">
        <ele>1866.8</ele>
        <time>2025-02-20T13:59:15Z</time>
      </trkpt>
      <trkpt lat="45.62331" lon="6.52344">
        <ele>1867.8</ele>
        <time>2025-02-20T13:59:16Z</time>
      </trkpt>
      <trkpt lat="45.62332" lon="6.52344">
        <ele>1868.2</ele>
        <time>2025-02-20T13:59:17Z</time>
      </trkpt>
      <trkpt lat="45.62333" lon="6.52343">
        <ele>1868.2</ele>
        <time>2025-02-20T13:59:18Z</time>
      </trkpt>
      <trkpt lat="45.62333" lon="6.52343">
        <ele>1868.2</ele>
        <time>2025-02-20T13:59:19Z</time>
      </trkpt>
      <trkpt lat="45.62334" lon="6.52343">
        <ele>1869.2</ele>
        <time>2025-02-20T13:59:20Z</time>
      </trkpt>
      <trkpt lat="45.62334" lon="6.52343">
        <ele>1869.4</ele>
        <time>2025-02-20T13:59:21Z</time>
      </trkpt>
      <trkpt lat="45.62334" lon="6.52343">
        <ele>1869.4</ele>
        <time>2025-02-20T13:59:22Z</time>
      </trkpt>
      <trkpt lat="45.62334" lon="6.52343">
        <ele>1869.4</ele>
        <time>2025-02-20T13:59:23Z</time>
      </trkpt>
      <trkpt lat="45.62335" lon="6.52343">
        <ele>1869.4</ele>
        <time>2025-02-20T13:59:24Z</time>
      </trkpt>
      <trkpt lat="45.62335" lon="6.52342">
        <ele>1870</ele>
        <time>2025-02-20T13:59:25Z</time>
      </trkpt>
      <trkpt lat="45.62336" lon="6.52342">
        <ele>1870</ele>
        <time>2025-02-20T13:59:26Z</time>
      </trkpt>
      <trkpt lat="45.62336" lon="6.52341">
        <ele>1870</ele>
        <time>2025-02-20T13:59:27Z</time>
      </trkpt>
      <trkpt lat="45.62337" lon="6.52341">
        <ele>1870.6</ele>
        <time>2025-02-20T13:59:28Z</time>
      </trkpt>
      <trkpt lat="45.62337" lon="6.52341">
        <ele>1871.2</ele>
        <time>2025-02-20T13:59:29Z</time>
      </trkpt>
      <trkpt lat="45.62338" lon="6.52341">
        <ele>1871.2</ele>
        <time>2025-02-20T13:59:30Z</time>
      </trkpt>
      <trkpt lat="45.62339" lon="6.5234">
        <ele>1871.2</ele>
        <time>2025-02-20T13:59:31Z</time>
      </trkpt>
      <trkpt lat="45.62339" lon="6.52339">
        <ele>1870.2</ele>
        <time>2025-02-20T13:59:32Z</time>
      </trkpt>
      <trkpt lat="45.62339" lon="6.52339">
        <ele>1870</ele>
        <time>2025-02-20T13:59:33Z</time>
      </trkpt>
      <trkpt lat="45.6234" lon="6.52339">
        <ele>1870</ele>
        <time>2025-02-20T13:59:34Z</time>
      </trkpt>
      <trkpt lat="45.6234" lon="6.52338">
        <ele>1870</ele>
        <time>2025-02-20T13:59:35Z</time>
      </trkpt>
      <trkpt lat="45.62341" lon="6.52338">
        <ele>1871</ele>
        <time>2025-02-20T13:59:36Z</time>
      </trkpt>
      <trkpt lat="45.62341" lon="6.52338">
        <ele>1872</ele>
        <time>2025-02-20T13:59:37Z</time>
      </trkpt>
      <trkpt lat="45.62341" lon="6.52338">
        <ele>1872</ele>
        <time>2025-02-20T13:59:38Z</time>
      </trkpt>
      <trkpt lat="45.62341" lon="6.52338">
        <ele>1872</ele>
        <time>2025-02-20T13:59:39Z</time>
      </trkpt>
      <trkpt lat="45.62342" lon="6.52336">
        <ele>1872</ele>
        <time>2025-02-20T13:59:40Z</time>
      </trkpt>
      <trkpt lat="45.62343" lon="6.52335">
        <ele>1871.4</ele>
        <time>2025-02-20T13:59:41Z</time>
      </trkpt>
      <trkpt lat="45.62343" lon="6.52334">
        <ele>1871.4</ele>
        <time>2025-02-20T13:59:42Z</time>
      </trkpt>
      <trkpt lat="45.62343" lon="6.52334">
        <ele>1871.4</ele>
        <time>2025-02-20T13:59:43Z</time>
      </trkpt>
      <trkpt lat="45.62343" lon="6.52334">
        <ele>1871.4</ele>
        <time>2025-02-20T13:59:44Z</time>
      </trkpt>
      <trkpt lat="45.62343" lon="6.52334">
        <ele>1871.8</ele>
        <time>2025-02-20T13:59:45Z</time>
      </trkpt>
      <trkpt lat="45.62343" lon="6.52334">
        <ele>1871.8</ele>
        <time>2025-02-20T13:59:46Z</time>
      </trkpt>
      <trkpt lat="45.62343" lon="6.52334">
        <ele>1871.8</ele>
        <time>2025-02-20T13:59:47Z</time>
      </trkpt>
      <trkpt lat="45.62343" lon="6.52334">
        <ele>1872.8</ele>
        <time>2025-02-20T13:59:48Z</time>
      </trkpt>
      <trkpt lat="45.62345" lon="6.52332">
        <ele>1873.4</ele>
        <time>2025-02-20T13:59:49Z</time>
      </trkpt>
      <trkpt lat="45.62345" lon="6.52331">
        <ele>1873.4</ele>
        <time>2025-02-20T13:59:50Z</time>
      </trkpt>
      <trkpt lat="45.62346" lon="6.5233">
        <ele>1873.4</ele>
        <time>2025-02-20T13:59:51Z</time>
      </trkpt>
      <trkpt lat="45.62346" lon="6.5233">
        <ele>1872.4</ele>
        <time>2025-02-20T13:59:52Z</time>
      </trkpt>
      <trkpt lat="45.62347" lon="6.52329">
        <ele>1871.8</ele>
        <time>2025-02-20T13:59:53Z</time>
      </trkpt>
      <trkpt lat="45.62347" lon="6.52329">
        <ele>1871.8</ele>
        <time>2025-02-20T13:59:54Z</time>
      </trkpt>
      <trkpt lat="45.62348" lon="6.52328">
        <ele>1871.8</ele>
        <time>2025-02-20T13:59:55Z</time>
      </trkpt>
      <trkpt lat="45.62349" lon="6.52328">
        <ele>1871.8</ele>
        <time>2025-02-20T13:59:56Z</time>
      </trkpt>
      <trkpt lat="45.62349" lon="6.52327">
        <ele>1872.2</ele>
        <time>2025-02-20T13:59:57Z</time>
      </trkpt>
      <trkpt lat="45.62349" lon="6.52326">
        <ele>1872.2</ele>
        <time>2025-02-20T13:59:58Z</time>
      </trkpt>
      <trkpt lat="45.6235" lon="6.52325">
        <ele>1872.2</ele>
        <time>2025-02-20T13:59:59Z</time>
      </trkpt>
      <trkpt lat="45.62351" lon="6.52325">
        <ele>1872.4</ele>
        <time>2025-02-20T14:00:00Z</time>
      </trkpt>
      <trkpt lat="45.62351" lon="6.52323">
        <ele>1872.6</ele>
        <time>2025-02-20T14:00:01Z</time>
      </trkpt>
      <trkpt lat="45.62351" lon="6.52323">
        <ele>1872.6</ele>
        <time>2025-02-20T14:00:02Z</time>
      </trkpt>
      <trkpt lat="45.62352" lon="6.52322">
        <ele>1872.6</ele>
        <time>2025-02-20T14:00:03Z</time>
      </trkpt>
      <trkpt lat="45.62352" lon="6.52322">
        <ele>1873.6</ele>
        <time>2025-02-20T14:00:04Z</time>
      </trkpt>
      <trkpt lat="45.62352" lon="6.52322">
        <ele>1875.2</ele>
        <time>2025-02-20T14:00:05Z</time>
      </trkpt>
      <trkpt lat="45.62352" lon="6.52321">
        <ele>1875.2</ele>
        <time>2025-02-20T14:00:06Z</time>
      </trkpt>
      <trkpt lat="45.62352" lon="6.52321">
        <ele>1875.2</ele>
        <time>2025-02-20T14:00:07Z</time>
      </trkpt>
      <trkpt lat="45.62352" lon="6.52321">
        <ele>1874.6</ele>
        <time>2025-02-20T14:00:08Z</time>
      </trkpt>
      <trkpt lat="45.62352" lon="6.52321">
        <ele>1874.8</ele>
        <time>2025-02-20T14:00:09Z</time>
      </trkpt>
      <trkpt lat="45.62352" lon="6.52321">
        <ele>1874.8</ele>
        <time>2025-02-20T14:00:10Z</time>
      </trkpt>
      <trkpt lat="45.62352" lon="6.52321">
        <ele>1874.8</ele>
        <time>2025-02-20T14:00:11Z</time>
      </trkpt>
      <trkpt lat="45.62352" lon="6.52321">
        <ele>1874.6</ele>
        <time>2025-02-20T14:00:12Z</time>
      </trkpt>
      <trkpt lat="45.62352" lon="6.52321">
        <ele>1874.4</ele>
        <time>2025-02-20T14:00:13Z</time>
      </trkpt>
      <trkpt lat="45.62352" lon="6.52321">
        <ele>1874.4</ele>
        <time>2025-02-20T14:00:14Z</time>
      </trkpt>
      <trkpt lat="45.62352" lon="6.52321">
        <ele>1874.4</ele>
        <time>2025-02-20T14:00:15Z</time>
      </trkpt>
      <trkpt lat="45.62352" lon="6.52321">
        <ele>1874.4</ele>
        <time>2025-02-20T14:00:16Z</time>
      </trkpt>
      <trkpt lat="45.62352" lon="6.52321">
        <ele>1874</ele>
        <time>2025-02-20T14:00:17Z</time>
      </trkpt>
      <trkpt lat="45.62352" lon="6.52321">
        <ele>1874</ele>
        <time>2025-02-20T14:00:18Z</time>
      </trkpt>
      <trkpt lat="45.62352" lon="6.52321">
        <ele>1874</ele>
        <time>2025-02-20T14:00:19Z</time>
      </trkpt>
      <trkpt lat="45.62354" lon="6.52321">
        <ele>1874</ele>
        <time>2025-02-20T14:00:20Z</time>
      </trkpt>
      <trkpt lat="45.62355" lon="6.5232">
        <ele>1874.2</ele>
        <time>2025-02-20T14:00:21Z</time>
      </trkpt>
      <trkpt lat="45.62356" lon="6.52319">
        <ele>1874.2</ele>
        <time>2025-02-20T14:00:22Z</time>
      </trkpt>
      <trkpt lat="45.62357" lon="6.52318">
        <ele>1874.2</ele>
        <time>2025-02-20T14:00:23Z</time>
      </trkpt>
      <trkpt lat="45.62358" lon="6.52318">
        <ele>1874.2</ele>
        <time>2025-02-20T14:00:24Z</time>
      </trkpt>
      <trkpt lat="45.62359" lon="6.52317">
        <ele>1873.8</ele>
        <time>2025-02-20T14:00:25Z</time>
      </trkpt>
      <trkpt lat="45.6236" lon="6.52318">
        <ele>1873.8</ele>
        <time>2025-02-20T14:00:26Z</time>
      </trkpt>
      <trkpt lat="45.62361" lon="6.52318">
        <ele>1873.8</ele>
        <time>2025-02-20T14:00:27Z</time>
      </trkpt>
      <trkpt lat="45.62362" lon="6.52318">
        <ele>1874.8</ele>
        <time>2025-02-20T14:00:28Z</time>
      </trkpt>
      <trkpt lat="45.62362" lon="6.52318">
        <ele>1874.6</ele>
        <time>2025-02-20T14:00:29Z</time>
      </trkpt>
      <trkpt lat="45.62363" lon="6.52317">
        <ele>1874.6</ele>
        <time>2025-02-20T14:00:30Z</time>
      </trkpt>
      <trkpt lat="45.62364" lon="6.52317">
        <ele>1874.6</ele>
        <time>2025-02-20T14:00:31Z</time>
      </trkpt>
      <trkpt lat="45.62365" lon="6.52318">
        <ele>1874.2</ele>
        <time>2025-02-20T14:00:32Z</time>
      </trkpt>
      <trkpt lat="45.62365" lon="6.52318">
        <ele>1874.8</ele>
        <time>2025-02-20T14:00:33Z</time>
      </trkpt>
      <trkpt lat="45.62366" lon="6.52317">
        <ele>1874.8</ele>
        <time>2025-02-20T14:00:34Z</time>
      </trkpt>
      <trkpt lat="45.62367" lon="6.52317">
        <ele>1874.8</ele>
        <time>2025-02-20T14:00:35Z</time>
      </trkpt>
      <trkpt lat="45.62367" lon="6.52317">
        <ele>1873.8</ele>
        <time>2025-02-20T14:00:36Z</time>
      </trkpt>
      <trkpt lat="45.62368" lon="6.52316">
        <ele>1874.4</ele>
        <time>2025-02-20T14:00:37Z</time>
      </trkpt>
      <trkpt lat="45.62369" lon="6.52316">
        <ele>1874.4</ele>
        <time>2025-02-20T14:00:38Z</time>
      </trkpt>
      <trkpt lat="45.6237" lon="6.52316">
        <ele>1874.4</ele>
        <time>2025-02-20T14:00:39Z</time>
      </trkpt>
      <trkpt lat="45.62371" lon="6.52315">
        <ele>1874.6</ele>
        <time>2025-02-20T14:00:40Z</time>
      </trkpt>
      <trkpt lat="45.62372" lon="6.52315">
        <ele>1874.2</ele>
        <time>2025-02-20T14:00:41Z</time>
      </trkpt>
      <trkpt lat="45.62373" lon="6.52314">
        <ele>1874.2</ele>
        <time>2025-02-20T14:00:42Z</time>
      </trkpt>
      <trkpt lat="45.62373" lon="6.52314">
        <ele>1874.2</ele>
        <time>2025-02-20T14:00:43Z</time>
      </trkpt>
      <trkpt lat="45.62374" lon="6.52313">
        <ele>1874.4</ele>
        <time>2025-02-20T14:00:44Z</time>
      </trkpt>
      <trkpt lat="45.62375" lon="6.52312">
        <ele>1874.4</ele>
        <time>2025-02-20T14:00:45Z</time>
      </trkpt>
      <trkpt lat="45.62376" lon="6.52312">
        <ele>1874.4</ele>
        <time>2025-02-20T14:00:46Z</time>
      </trkpt>
      <trkpt lat="45.62377" lon="6.52312">
        <ele>1874.4</ele>
        <time>2025-02-20T14:00:47Z</time>
      </trkpt>
      <trkpt lat="45.62377" lon="6.52312">
        <ele>1874.4</ele>
        <time>2025-02-20T14:00:48Z</time>
      </trkpt>
      <trkpt lat="45.62377" lon="6.52311">
        <ele>1874</ele>
        <time>2025-02-20T14:00:49Z</time>
      </trkpt>
      <trkpt lat="45.62378" lon="6.5231">
        <ele>1874</ele>
        <time>2025-02-20T14:00:50Z</time>
      </trkpt>
      <trkpt lat="45.62378" lon="6.5231">
        <ele>1874</ele>
        <time>2025-02-20T14:00:51Z</time>
      </trkpt>
      <trkpt lat="45.62379" lon="6.52311">
        <ele>1874</ele>
        <time>2025-02-20T14:00:52Z</time>
      </trkpt>
      <trkpt lat="45.62379" lon="6.52311">
        <ele>1876.6</ele>
        <time>2025-02-20T14:00:53Z</time>
      </trkpt>
      <trkpt lat="45.6238" lon="6.52311">
        <ele>1876.6</ele>
        <time>2025-02-20T14:00:54Z</time>
      </trkpt>
      <trkpt lat="45.62381" lon="6.52312">
        <ele>1876.6</ele>
        <time>2025-02-20T14:00:55Z</time>
      </trkpt>
      <trkpt lat="45.62382" lon="6.52312">
        <ele>1876.6</ele>
        <time>2025-02-20T14:00:56Z</time>
      </trkpt>
      <trkpt lat="45.62382" lon="6.52311">
        <ele>1876.8</ele>
        <time>2025-02-20T14:00:57Z</time>
      </trkpt>
      <trkpt lat="45.62383" lon="6.52311">
        <ele>1876.8</ele>
        <time>2025-02-20T14:00:58Z</time>
      </trkpt>
      <trkpt lat="45.62383" lon="6.52312">
        <ele>1876.8</ele>
        <time>2025-02-20T14:00:59Z</time>
      </trkpt>
      <trkpt lat="45.62384" lon="6.52312">
        <ele>1876.4</ele>
        <time>2025-02-20T14:01:00Z</time>
      </trkpt>
      <trkpt lat="45.62384" lon="6.52313">
        <ele>1876.8</ele>
        <time>2025-02-20T14:01:01Z</time>
      </trkpt>
      <trkpt lat="45.62385" lon="6.52313">
        <ele>1876.8</ele>
        <time>2025-02-20T14:01:02Z</time>
      </trkpt>
      <trkpt lat="45.62385" lon="6.52313">
        <ele>1876.8</ele>
        <time>2025-02-20T14:01:03Z</time>
      </trkpt>
      <trkpt lat="45.62386" lon="6.52314">
        <ele>1877.4</ele>
        <time>2025-02-20T14:01:04Z</time>
      </trkpt>
      <trkpt lat="45.62387" lon="6.52314">
        <ele>1877.4</ele>
        <time>2025-02-20T14:01:05Z</time>
      </trkpt>
      <trkpt lat="45.62388" lon="6.52315">
        <ele>1877.4</ele>
        <time>2025-02-20T14:01:06Z</time>
      </trkpt>
      <trkpt lat="45.62387" lon="6.52316">
        <ele>1877.4</ele>
        <time>2025-02-20T14:01:07Z</time>
      </trkpt>
      <trkpt lat="45.62389" lon="6.52316">
        <ele>1877.4</ele>
        <time>2025-02-20T14:01:08Z</time>
      </trkpt>
      <trkpt lat="45.6239" lon="6.52317">
        <ele>1877.4</ele>
        <time>2025-02-20T14:01:09Z</time>
      </trkpt>
      <trkpt lat="45.62391" lon="6.52317">
        <ele>1877.4</ele>
        <time>2025-02-20T14:01:10Z</time>
      </trkpt>
      <trkpt lat="45.62392" lon="6.52317">
        <ele>1877.4</ele>
        <time>2025-02-20T14:01:11Z</time>
      </trkpt>
      <trkpt lat="45.62393" lon="6.52317">
        <ele>1877.2</ele>
        <time>2025-02-20T14:01:12Z</time>
      </trkpt>
      <trkpt lat="45.62394" lon="6.52317">
        <ele>1876.8</ele>
        <time>2025-02-20T14:01:13Z</time>
      </trkpt>
      <trkpt lat="45.62395" lon="6.52317">
        <ele>1876.8</ele>
        <time>2025-02-20T14:01:14Z</time>
      </trkpt>
      <trkpt lat="45.62396" lon="6.52317">
        <ele>1876.8</ele>
        <time>2025-02-20T14:01:15Z</time>
      </trkpt>
      <trkpt lat="45.62397" lon="6.52316">
        <ele>1876.6</ele>
        <time>2025-02-20T14:01:16Z</time>
      </trkpt>
      <trkpt lat="45.62398" lon="6.52316">
        <ele>1877.2</ele>
        <time>2025-02-20T14:01:17Z</time>
      </trkpt>
      <trkpt lat="45.62399" lon="6.52316">
        <ele>1877.2</ele>
        <time>2025-02-20T14:01:18Z</time>
      </trkpt>
      <trkpt lat="45.62399" lon="6.52316">
        <ele>1877.2</ele>
        <time>2025-02-20T14:01:19Z</time>
      </trkpt>
      <trkpt lat="45.624" lon="6.52315">
        <ele>1877.2</ele>
        <time>2025-02-20T14:01:20Z</time>
      </trkpt>
      <trkpt lat="45.624" lon="6.52315">
        <ele>1876.2</ele>
        <time>2025-02-20T14:01:21Z</time>
      </trkpt>
      <trkpt lat="45.624" lon="6.52314">
        <ele>1876.2</ele>
        <time>2025-02-20T14:01:22Z</time>
      </trkpt>
      <trkpt lat="45.624" lon="6.52313">
        <ele>1876.2</ele>
        <time>2025-02-20T14:01:23Z</time>
      </trkpt>
      <trkpt lat="45.624" lon="6.52312">
        <ele>1877.2</ele>
        <time>2025-02-20T14:01:24Z</time>
      </trkpt>
      <trkpt lat="45.624" lon="6.52312">
        <ele>1877.6</ele>
        <time>2025-02-20T14:01:25Z</time>
      </trkpt>
      <trkpt lat="45.62401" lon="6.52311">
        <ele>1877.6</ele>
        <time>2025-02-20T14:01:26Z</time>
      </trkpt>
      <trkpt lat="45.62401" lon="6.5231">
        <ele>1877.6</ele>
        <time>2025-02-20T14:01:27Z</time>
      </trkpt>
      <trkpt lat="45.62401" lon="6.5231">
        <ele>1878</ele>
        <time>2025-02-20T14:01:28Z</time>
      </trkpt>
      <trkpt lat="45.62401" lon="6.52309">
        <ele>1877.8</ele>
        <time>2025-02-20T14:01:29Z</time>
      </trkpt>
      <trkpt lat="45.62401" lon="6.52308">
        <ele>1877.8</ele>
        <time>2025-02-20T14:01:30Z</time>
      </trkpt>
      <trkpt lat="45.62401" lon="6.52308">
        <ele>1877.8</ele>
        <time>2025-02-20T14:01:31Z</time>
      </trkpt>
      <trkpt lat="45.62401" lon="6.52307">
        <ele>1877.8</ele>
        <time>2025-02-20T14:01:32Z</time>
      </trkpt>
      <trkpt lat="45.62401" lon="6.52306">
        <ele>1876.8</ele>
        <time>2025-02-20T14:01:33Z</time>
      </trkpt>
      <trkpt lat="45.62401" lon="6.52306">
        <ele>1876.8</ele>
        <time>2025-02-20T14:01:34Z</time>
      </trkpt>
      <trkpt lat="45.62401" lon="6.52305">
        <ele>1876.8</ele>
        <time>2025-02-20T14:01:35Z</time>
      </trkpt>
      <trkpt lat="45.62401" lon="6.52305">
        <ele>1876.8</ele>
        <time>2025-02-20T14:01:36Z</time>
      </trkpt>
      <trkpt lat="45.62401" lon="6.52304">
        <ele>1879.4</ele>
        <time>2025-02-20T14:01:37Z</time>
      </trkpt>
      <trkpt lat="45.62401" lon="6.52303">
        <ele>1879.4</ele>
        <time>2025-02-20T14:01:38Z</time>
      </trkpt>
      <trkpt lat="45.62401" lon="6.52302">
        <ele>1879.4</ele>
        <time>2025-02-20T14:01:39Z</time>
      </trkpt>
      <trkpt lat="45.62401" lon="6.52301">
        <ele>1879.4</ele>
        <time>2025-02-20T14:01:40Z</time>
      </trkpt>
      <trkpt lat="45.62401" lon="6.523">
        <ele>1878.4</ele>
        <time>2025-02-20T14:01:41Z</time>
      </trkpt>
      <trkpt lat="45.62401" lon="6.523">
        <ele>1878.4</ele>
        <time>2025-02-20T14:01:42Z</time>
      </trkpt>
      <trkpt lat="45.62401" lon="6.52299">
        <ele>1878.4</ele>
        <time>2025-02-20T14:01:43Z</time>
      </trkpt>
      <trkpt lat="45.62401" lon="6.52297">
        <ele>1878.4</ele>
        <time>2025-02-20T14:01:44Z</time>
      </trkpt>
      <trkpt lat="45.62402" lon="6.52297">
        <ele>1879.2</ele>
        <time>2025-02-20T14:01:45Z</time>
      </trkpt>
      <trkpt lat="45.62402" lon="6.52296">
        <ele>1879.2</ele>
        <time>2025-02-20T14:01:46Z</time>
      </trkpt>
      <trkpt lat="45.62402" lon="6.52296">
        <ele>1879.2</ele>
        <time>2025-02-20T14:01:47Z</time>
      </trkpt>
      <trkpt lat="45.62402" lon="6.52295">
        <ele>1880.2</ele>
        <time>2025-02-20T14:01:48Z</time>
      </trkpt>
      <trkpt lat="45.62402" lon="6.52295">
        <ele>1880.4</ele>
        <time>2025-02-20T14:01:49Z</time>
      </trkpt>
      <trkpt lat="45.62402" lon="6.52295">
        <ele>1880.4</ele>
        <time>2025-02-20T14:01:50Z</time>
      </trkpt>
      <trkpt lat="45.62402" lon="6.52294">
        <ele>1880.4</ele>
        <time>2025-02-20T14:01:51Z</time>
      </trkpt>
      <trkpt lat="45.62402" lon="6.52293">
        <ele>1881.4</ele>
        <time>2025-02-20T14:01:52Z</time>
      </trkpt>
      <trkpt lat="45.62402" lon="6.52293">
        <ele>1881.4</ele>
        <time>2025-02-20T14:01:53Z</time>
      </trkpt>
      <trkpt lat="45.62402" lon="6.52293">
        <ele>1881.4</ele>
        <time>2025-02-20T14:01:54Z</time>
      </trkpt>
      <trkpt lat="45.62403" lon="6.52291">
        <ele>1881.4</ele>
        <time>2025-02-20T14:01:55Z</time>
      </trkpt>
      <trkpt lat="45.62402" lon="6.5229">
        <ele>1882</ele>
        <time>2025-02-20T14:01:56Z</time>
      </trkpt>
      <trkpt lat="45.62402" lon="6.52289">
        <ele>1880.8</ele>
        <time>2025-02-20T14:01:57Z</time>
      </trkpt>
      <trkpt lat="45.62402" lon="6.52289">
        <ele>1880.8</ele>
        <time>2025-02-20T14:01:58Z</time>
      </trkpt>
      <trkpt lat="45.62403" lon="6.52288">
        <ele>1880.8</ele>
        <time>2025-02-20T14:01:59Z</time>
      </trkpt>
      <trkpt lat="45.62403" lon="6.52288">
        <ele>1880.8</ele>
        <time>2025-02-20T14:02:00Z</time>
      </trkpt>
      <trkpt lat="45.62403" lon="6.52287">
        <ele>1881.8</ele>
        <time>2025-02-20T14:02:01Z</time>
      </trkpt>
      <trkpt lat="45.62403" lon="6.52286">
        <ele>1881.8</ele>
        <time>2025-02-20T14:02:02Z</time>
      </trkpt>
      <trkpt lat="45.62404" lon="6.52286">
        <ele>1881.8</ele>
        <time>2025-02-20T14:02:03Z</time>
      </trkpt>
      <trkpt lat="45.62404" lon="6.52285">
        <ele>1882.8</ele>
        <time>2025-02-20T14:02:04Z</time>
      </trkpt>
      <trkpt lat="45.62404" lon="6.52284">
        <ele>1883.4</ele>
        <time>2025-02-20T14:02:05Z</time>
      </trkpt>
      <trkpt lat="45.62404" lon="6.52283">
        <ele>1883.4</ele>
        <time>2025-02-20T14:02:06Z</time>
      </trkpt>
      <trkpt lat="45.62405" lon="6.52283">
        <ele>1883.4</ele>
        <time>2025-02-20T14:02:07Z</time>
      </trkpt>
      <trkpt lat="45.62404" lon="6.52282">
        <ele>1883.4</ele>
        <time>2025-02-20T14:02:08Z</time>
      </trkpt>
      <trkpt lat="45.62404" lon="6.52282">
        <ele>1882.8</ele>
        <time>2025-02-20T14:02:09Z</time>
      </trkpt>
      <trkpt lat="45.62405" lon="6.52281">
        <ele>1882.8</ele>
        <time>2025-02-20T14:02:10Z</time>
      </trkpt>
      <trkpt lat="45.62405" lon="6.52281">
        <ele>1882.8</ele>
        <time>2025-02-20T14:02:11Z</time>
      </trkpt>
      <trkpt lat="45.62405" lon="6.5228">
        <ele>1882</ele>
        <time>2025-02-20T14:02:12Z</time>
      </trkpt>
      <trkpt lat="45.62405" lon="6.5228">
        <ele>1882.2</ele>
        <time>2025-02-20T14:02:13Z</time>
      </trkpt>
      <trkpt lat="45.62405" lon="6.5228">
        <ele>1882.2</ele>
        <time>2025-02-20T14:02:14Z</time>
      </trkpt>
      <trkpt lat="45.62406" lon="6.52279">
        <ele>1882.2</ele>
        <time>2025-02-20T14:02:15Z</time>
      </trkpt>
      <trkpt lat="45.62406" lon="6.52279">
        <ele>1882.2</ele>
        <time>2025-02-20T14:02:16Z</time>
      </trkpt>
      <trkpt lat="45.62406" lon="6.52279">
        <ele>1884.2</ele>
        <time>2025-02-20T14:02:17Z</time>
      </trkpt>
      <trkpt lat="45.62406" lon="6.52279">
        <ele>1884.2</ele>
        <time>2025-02-20T14:02:18Z</time>
      </trkpt>
      <trkpt lat="45.62406" lon="6.52279">
        <ele>1884.2</ele>
        <time>2025-02-20T14:02:19Z</time>
      </trkpt>
      <trkpt lat="45.62406" lon="6.5228">
        <ele>1884.2</ele>
        <time>2025-02-20T14:02:20Z</time>
      </trkpt>
      <trkpt lat="45.62406" lon="6.52282">
        <ele>1884.8</ele>
        <time>2025-02-20T14:02:21Z</time>
      </trkpt>
      <trkpt lat="45.62406" lon="6.52283">
        <ele>1884.8</ele>
        <time>2025-02-20T14:02:22Z</time>
      </trkpt>
      <trkpt lat="45.62406" lon="6.52284">
        <ele>1884.8</ele>
        <time>2025-02-20T14:02:23Z</time>
      </trkpt>
      <trkpt lat="45.62406" lon="6.52284">
        <ele>1884.8</ele>
        <time>2025-02-20T14:02:24Z</time>
      </trkpt>
      <trkpt lat="45.62406" lon="6.52284">
        <ele>1884.8</ele>
        <time>2025-02-20T14:02:25Z</time>
      </trkpt>
      <trkpt lat="45.62406" lon="6.52284">
        <ele>1884.8</ele>
        <time>2025-02-20T14:02:26Z</time>
      </trkpt>
      <trkpt lat="45.62406" lon="6.52284">
        <ele>1884.8</ele>
        <time>2025-02-20T14:02:27Z</time>
      </trkpt>
      <trkpt lat="45.62406" lon="6.52284">
        <ele>1885.6</ele>
        <time>2025-02-20T14:02:28Z</time>
      </trkpt>
      <trkpt lat="45.62406" lon="6.52284">
        <ele>1885.6</ele>
        <time>2025-02-20T14:02:29Z</time>
      </trkpt>
      <trkpt lat="45.62406" lon="6.52284">
        <ele>1885.6</ele>
        <time>2025-02-20T14:02:30Z</time>
      </trkpt>
      <trkpt lat="45.62408" lon="6.52288">
        <ele>1885.6</ele>
        <time>2025-02-20T14:02:31Z</time>
      </trkpt>
      <trkpt lat="45.62408" lon="6.52289">
        <ele>1886.2</ele>
        <time>2025-02-20T14:02:32Z</time>
      </trkpt>
      <trkpt lat="45.62408" lon="6.52289">
        <ele>1886.4</ele>
        <time>2025-02-20T14:02:33Z</time>
      </trkpt>
      <trkpt lat="45.62408" lon="6.5229">
        <ele>1886.4</ele>
        <time>2025-02-20T14:02:34Z</time>
      </trkpt>
      <trkpt lat="45.62409" lon="6.5229">
        <ele>1886.4</ele>
        <time>2025-02-20T14:02:35Z</time>
      </trkpt>
      <trkpt lat="45.62409" lon="6.5229">
        <ele>1887</ele>
        <time>2025-02-20T14:02:36Z</time>
      </trkpt>
      <trkpt lat="45.6241" lon="6.52291">
        <ele>1886.2</ele>
        <time>2025-02-20T14:02:37Z</time>
      </trkpt>
      <trkpt lat="45.6241" lon="6.52291">
        <ele>1886.2</ele>
        <time>2025-02-20T14:02:38Z</time>
      </trkpt>
      <trkpt lat="45.62409" lon="6.52292">
        <ele>1886.2</ele>
        <time>2025-02-20T14:02:39Z</time>
      </trkpt>
      <trkpt lat="45.62409" lon="6.52292">
        <ele>1886.2</ele>
        <time>2025-02-20T14:02:40Z</time>
      </trkpt>
      <trkpt lat="45.6241" lon="6.52293">
        <ele>1886.8</ele>
        <time>2025-02-20T14:02:41Z</time>
      </trkpt>
      <trkpt lat="45.6241" lon="6.52293">
        <ele>1886.8</ele>
        <time>2025-02-20T14:02:42Z</time>
      </trkpt>
      <trkpt lat="45.62411" lon="6.52293">
        <ele>1886.8</ele>
        <time>2025-02-20T14:02:43Z</time>
      </trkpt>
      <trkpt lat="45.62411" lon="6.52293">
        <ele>1886.8</ele>
        <time>2025-02-20T14:02:44Z</time>
      </trkpt>
      <trkpt lat="45.62411" lon="6.52293">
        <ele>1887.8</ele>
        <time>2025-02-20T14:02:45Z</time>
      </trkpt>
      <trkpt lat="45.62412" lon="6.52293">
        <ele>1887.8</ele>
        <time>2025-02-20T14:02:46Z</time>
      </trkpt>
      <trkpt lat="45.62412" lon="6.52293">
        <ele>1887.8</ele>
        <time>2025-02-20T14:02:47Z</time>
      </trkpt>
      <trkpt lat="45.62413" lon="6.52294">
        <ele>1887.8</ele>
        <time>2025-02-20T14:02:48Z</time>
      </trkpt>
      <trkpt lat="45.62413" lon="6.52294">
        <ele>1887.4</ele>
        <time>2025-02-20T14:02:49Z</time>
      </trkpt>
      <trkpt lat="45.62414" lon="6.52295">
        <ele>1887.4</ele>
        <time>2025-02-20T14:02:50Z</time>
      </trkpt>
      <trkpt lat="45.62414" lon="6.52295">
        <ele>1887.4</ele>
        <time>2025-02-20T14:02:51Z</time>
      </trkpt>
      <trkpt lat="45.62414" lon="6.52295">
        <ele>1887.2</ele>
        <time>2025-02-20T14:02:52Z</time>
      </trkpt>
      <trkpt lat="45.62414" lon="6.52295">
        <ele>1887.4</ele>
        <time>2025-02-20T14:02:53Z</time>
      </trkpt>
      <trkpt lat="45.62414" lon="6.52295">
        <ele>1887.4</ele>
        <time>2025-02-20T14:02:54Z</time>
      </trkpt>
      <trkpt lat="45.62414" lon="6.52295">
        <ele>1887.4</ele>
        <time>2025-02-20T14:02:55Z</time>
      </trkpt>
      <trkpt lat="45.62414" lon="6.52295">
        <ele>1888.4</ele>
        <time>2025-02-20T14:02:56Z</time>
      </trkpt>
      <trkpt lat="45.62417" lon="6.52297">
        <ele>1889</ele>
        <time>2025-02-20T14:02:57Z</time>
      </trkpt>
      <trkpt lat="45.62417" lon="6.52297">
        <ele>1889</ele>
        <time>2025-02-20T14:02:58Z</time>
      </trkpt>
      <trkpt lat="45.62418" lon="6.52298">
        <ele>1889</ele>
        <time>2025-02-20T14:02:59Z</time>
      </trkpt>
      <trkpt lat="45.62418" lon="6.52298">
        <ele>1889</ele>
        <time>2025-02-20T14:03:00Z</time>
      </trkpt>
      <trkpt lat="45.62419" lon="6.52299">
        <ele>1889.2</ele>
        <time>2025-02-20T14:03:01Z</time>
      </trkpt>
      <trkpt lat="45.62419" lon="6.52299">
        <ele>1889.2</ele>
        <time>2025-02-20T14:03:02Z</time>
      </trkpt>
      <trkpt lat="45.62419" lon="6.52299">
        <ele>1889.2</ele>
        <time>2025-02-20T14:03:03Z</time>
      </trkpt>
      <trkpt lat="45.62419" lon="6.52299">
        <ele>1889.2</ele>
        <time>2025-02-20T14:03:04Z</time>
      </trkpt>
      <trkpt lat="45.62419" lon="6.52299">
        <ele>1890</ele>
        <time>2025-02-20T14:03:05Z</time>
      </trkpt>
      <trkpt lat="45.62419" lon="6.52299">
        <ele>1890</ele>
        <time>2025-02-20T14:03:06Z</time>
      </trkpt>
      <trkpt lat="45.62419" lon="6.52299">
        <ele>1890</ele>
        <time>2025-02-20T14:03:07Z</time>
      </trkpt>
      <trkpt lat="45.6242" lon="6.52298">
        <ele>1889.4</ele>
        <time>2025-02-20T14:03:08Z</time>
      </trkpt>
      <trkpt lat="45.62421" lon="6.52299">
        <ele>1889.4</ele>
        <time>2025-02-20T14:03:09Z</time>
      </trkpt>
      <trkpt lat="45.62421" lon="6.52299">
        <ele>1889.4</ele>
        <time>2025-02-20T14:03:10Z</time>
      </trkpt>
      <trkpt lat="45.62421" lon="6.523">
        <ele>1889.4</ele>
        <time>2025-02-20T14:03:11Z</time>
      </trkpt>
      <trkpt lat="45.62422" lon="6.52301">
        <ele>1890.4</ele>
        <time>2025-02-20T14:03:12Z</time>
      </trkpt>
      <trkpt lat="45.62423" lon="6.52302">
        <ele>1889.4</ele>
        <time>2025-02-20T14:03:13Z</time>
      </trkpt>
      <trkpt lat="45.62423" lon="6.52302">
        <ele>1889.4</ele>
        <time>2025-02-20T14:03:14Z</time>
      </trkpt>
      <trkpt lat="45.62423" lon="6.52302">
        <ele>1889.4</ele>
        <time>2025-02-20T14:03:15Z</time>
      </trkpt>
      <trkpt lat="45.62424" lon="6.52303">
        <ele>1889.4</ele>
        <time>2025-02-20T14:03:16Z</time>
      </trkpt>
      <trkpt lat="45.62425" lon="6.52304">
        <ele>1889.4</ele>
        <time>2025-02-20T14:03:17Z</time>
      </trkpt>
      <trkpt lat="45.62425" lon="6.52304">
        <ele>1889.4</ele>
        <time>2025-02-20T14:03:18Z</time>
      </trkpt>
      <trkpt lat="45.62426" lon="6.52304">
        <ele>1889.4</ele>
        <time>2025-02-20T14:03:19Z</time>
      </trkpt>
      <trkpt lat="45.62427" lon="6.52304">
        <ele>1890.4</ele>
        <time>2025-02-20T14:03:20Z</time>
      </trkpt>
      <trkpt lat="45.62427" lon="6.52304">
        <ele>1892.2</ele>
        <time>2025-02-20T14:03:21Z</time>
      </trkpt>
      <trkpt lat="45.62427" lon="6.52305">
        <ele>1892.2</ele>
        <time>2025-02-20T14:03:22Z</time>
      </trkpt>
      <trkpt lat="45.62427" lon="6.52306">
        <ele>1892.2</ele>
        <time>2025-02-20T14:03:23Z</time>
      </trkpt>
      <trkpt lat="45.62428" lon="6.52306">
        <ele>1892.2</ele>
        <time>2025-02-20T14:03:24Z</time>
      </trkpt>
      <trkpt lat="45.62429" lon="6.52307">
        <ele>1892.4</ele>
        <time>2025-02-20T14:03:25Z</time>
      </trkpt>
      <trkpt lat="45.62429" lon="6.52307">
        <ele>1892.4</ele>
        <time>2025-02-20T14:03:26Z</time>
      </trkpt>
      <trkpt lat="45.62429" lon="6.52307">
        <ele>1892.4</ele>
        <time>2025-02-20T14:03:27Z</time>
      </trkpt>
      <trkpt lat="45.6243" lon="6.52308">
        <ele>1892.4</ele>
        <time>2025-02-20T14:03:28Z</time>
      </trkpt>
      <trkpt lat="45.6243" lon="6.52308">
        <ele>1893</ele>
        <time>2025-02-20T14:03:29Z</time>
      </trkpt>
      <trkpt lat="45.6243" lon="6.52308">
        <ele>1893</ele>
        <time>2025-02-20T14:03:30Z</time>
      </trkpt>
      <trkpt lat="45.62431" lon="6.52309">
        <ele>1893</ele>
        <time>2025-02-20T14:03:31Z</time>
      </trkpt>
      <trkpt lat="45.62432" lon="6.52309">
        <ele>1893</ele>
        <time>2025-02-20T14:03:32Z</time>
      </trkpt>
      <trkpt lat="45.62432" lon="6.52309">
        <ele>1892.6</ele>
        <time>2025-02-20T14:03:33Z</time>
      </trkpt>
      <trkpt lat="45.62433" lon="6.52309">
        <ele>1892.6</ele>
        <time>2025-02-20T14:03:34Z</time>
      </trkpt>
      <trkpt lat="45.62433" lon="6.52309">
        <ele>1892.6</ele>
        <time>2025-02-20T14:03:35Z</time>
      </trkpt>
      <trkpt lat="45.62433" lon="6.52309">
        <ele>1892.6</ele>
        <time>2025-02-20T14:03:36Z</time>
      </trkpt>
      <trkpt lat="45.62433" lon="6.5231">
        <ele>1892.6</ele>
        <time>2025-02-20T14:03:37Z</time>
      </trkpt>
      <trkpt lat="45.62433" lon="6.5231">
        <ele>1892.6</ele>
        <time>2025-02-20T14:03:38Z</time>
      </trkpt>
      <trkpt lat="45.62433" lon="6.5231">
        <ele>1892.6</ele>
        <time>2025-02-20T14:03:39Z</time>
      </trkpt>
      <trkpt lat="45.62433" lon="6.5231">
        <ele>1893.6</ele>
        <time>2025-02-20T14:03:40Z</time>
      </trkpt>
      <trkpt lat="45.62433" lon="6.5231">
        <ele>1893</ele>
        <time>2025-02-20T14:03:41Z</time>
      </trkpt>
      <trkpt lat="45.62433" lon="6.5231">
        <ele>1893</ele>
        <time>2025-02-20T14:03:42Z</time>
      </trkpt>
      <trkpt lat="45.62433" lon="6.5231">
        <ele>1893</ele>
        <time>2025-02-20T14:03:43Z</time>
      </trkpt>
      <trkpt lat="45.62433" lon="6.5231">
        <ele>1894</ele>
        <time>2025-02-20T14:03:44Z</time>
      </trkpt>
      <trkpt lat="45.62436" lon="6.52311">
        <ele>1892.8</ele>
        <time>2025-02-20T14:03:45Z</time>
      </trkpt>
      <trkpt lat="45.62436" lon="6.52312">
        <ele>1892.8</ele>
        <time>2025-02-20T14:03:46Z</time>
      </trkpt>
      <trkpt lat="45.62436" lon="6.52312">
        <ele>1892.8</ele>
        <time>2025-02-20T14:03:47Z</time>
      </trkpt>
      <trkpt lat="45.62436" lon="6.52312">
        <ele>1893.8</ele>
        <time>2025-02-20T14:03:48Z</time>
      </trkpt>
      <trkpt lat="45.62436" lon="6.52312">
        <ele>1895.8</ele>
        <time>2025-02-20T14:03:49Z</time>
      </trkpt>
      <trkpt lat="45.62436" lon="6.52312">
        <ele>1895.8</ele>
        <time>2025-02-20T14:03:50Z</time>
      </trkpt>
      <trkpt lat="45.62437" lon="6.52313">
        <ele>1895.8</ele>
        <time>2025-02-20T14:03:51Z</time>
      </trkpt>
      <trkpt lat="45.62438" lon="6.52314">
        <ele>1895.8</ele>
        <time>2025-02-20T14:03:52Z</time>
      </trkpt>
      <trkpt lat="45.62438" lon="6.52314">
        <ele>1894.8</ele>
        <time>2025-02-20T14:03:53Z</time>
      </trkpt>
      <trkpt lat="45.62438" lon="6.52314">
        <ele>1894.8</ele>
        <time>2025-02-20T14:03:54Z</time>
      </trkpt>
      <trkpt lat="45.62439" lon="6.52315">
        <ele>1894.8</ele>
        <time>2025-02-20T14:03:55Z</time>
      </trkpt>
      <trkpt lat="45.62439" lon="6.52315">
        <ele>1895.8</ele>
        <time>2025-02-20T14:03:56Z</time>
      </trkpt>
      <trkpt lat="45.6244" lon="6.52316">
        <ele>1894.8</ele>
        <time>2025-02-20T14:03:57Z</time>
      </trkpt>
      <trkpt lat="45.6244" lon="6.52316">
        <ele>1894.8</ele>
        <time>2025-02-20T14:03:58Z</time>
      </trkpt>
      <trkpt lat="45.6244" lon="6.52316">
        <ele>1894.8</ele>
        <time>2025-02-20T14:03:59Z</time>
      </trkpt>
      <trkpt lat="45.6244" lon="6.52316">
        <ele>1895.8</ele>
        <time>2025-02-20T14:04:00Z</time>
      </trkpt>
      <trkpt lat="45.6244" lon="6.52316">
        <ele>1897</ele>
        <time>2025-02-20T14:04:01Z</time>
      </trkpt>
      <trkpt lat="45.6244" lon="6.52316">
        <ele>1897</ele>
        <time>2025-02-20T14:04:02Z</time>
      </trkpt>
      <trkpt lat="45.6244" lon="6.52316">
        <ele>1897</ele>
        <time>2025-02-20T14:04:03Z</time>
      </trkpt>
      <trkpt lat="45.6244" lon="6.52316">
        <ele>1897</ele>
        <time>2025-02-20T14:04:04Z</time>
      </trkpt>
      <trkpt lat="45.6244" lon="6.52316">
        <ele>1896.2</ele>
        <time>2025-02-20T14:04:05Z</time>
      </trkpt>
      <trkpt lat="45.6244" lon="6.52316">
        <ele>1896.2</ele>
        <time>2025-02-20T14:04:06Z</time>
      </trkpt>
      <trkpt lat="45.6244" lon="6.52316">
        <ele>1896.2</ele>
        <time>2025-02-20T14:04:07Z</time>
      </trkpt>
      <trkpt lat="45.6244" lon="6.52316">
        <ele>1896.2</ele>
        <time>2025-02-20T14:04:08Z</time>
      </trkpt>
      <trkpt lat="45.6244" lon="6.52316">
        <ele>1897.2</ele>
        <time>2025-02-20T14:04:09Z</time>
      </trkpt>
      <trkpt lat="45.6244" lon="6.52316">
        <ele>1897.2</ele>
        <time>2025-02-20T14:04:10Z</time>
      </trkpt>
      <trkpt lat="45.6244" lon="6.52316">
        <ele>1897.2</ele>
        <time>2025-02-20T14:04:11Z</time>
      </trkpt>
      <trkpt lat="45.6244" lon="6.52316">
        <ele>1897.2</ele>
        <time>2025-02-20T14:04:12Z</time>
      </trkpt>
      <trkpt lat="45.6244" lon="6.52316">
        <ele>1897</ele>
        <time>2025-02-20T14:04:13Z</time>
      </trkpt>
      <trkpt lat="45.6244" lon="6.52316">
        <ele>1897</ele>
        <time>2025-02-20T14:04:14Z</time>
      </trkpt>
      <trkpt lat="45.6244" lon="6.52316">
        <ele>1897</ele>
        <time>2025-02-20T14:04:15Z</time>
      </trkpt>
      <trkpt lat="45.6244" lon="6.52316">
        <ele>1896.2</ele>
        <time>2025-02-20T14:04:16Z</time>
      </trkpt>
      <trkpt lat="45.6244" lon="6.52316">
        <ele>1896.8</ele>
        <time>2025-02-20T14:04:17Z</time>
      </trkpt>
      <trkpt lat="45.6244" lon="6.52316">
        <ele>1896.8</ele>
        <time>2025-02-20T14:04:18Z</time>
      </trkpt>
      <trkpt lat="45.6244" lon="6.52316">
        <ele>1896.8</ele>
        <time>2025-02-20T14:04:19Z</time>
      </trkpt>
      <trkpt lat="45.6244" lon="6.52316">
        <ele>1896.8</ele>
        <time>2025-02-20T14:04:20Z</time>
      </trkpt>
      <trkpt lat="45.6244" lon="6.52316">
        <ele>1896.2</ele>
        <time>2025-02-20T14:04:21Z</time>
      </trkpt>
      <trkpt lat="45.6244" lon="6.52316">
        <ele>1896.2</ele>
        <time>2025-02-20T14:04:22Z</time>
      </trkpt>
      <trkpt lat="45.6244" lon="6.52316">
        <ele>1896.2</ele>
        <time>2025-02-20T14:04:23Z</time>
      </trkpt>
      <trkpt lat="45.6244" lon="6.52316">
        <ele>1896.4</ele>
        <time>2025-02-20T14:04:24Z</time>
      </trkpt>
      <trkpt lat="45.6244" lon="6.52316">
        <ele>1897.4</ele>
        <time>2025-02-20T14:04:25Z</time>
      </trkpt>
      <trkpt lat="45.6244" lon="6.52316">
        <ele>1897.4</ele>
        <time>2025-02-20T14:04:26Z</time>
      </trkpt>
      <trkpt lat="45.6244" lon="6.52316">
        <ele>1897.4</ele>
        <time>2025-02-20T14:04:27Z</time>
      </trkpt>
      <trkpt lat="45.6244" lon="6.52316">
        <ele>1897.4</ele>
        <time>2025-02-20T14:04:28Z</time>
      </trkpt>
      <trkpt lat="45.6244" lon="6.52316">
        <ele>1896.4</ele>
        <time>2025-02-20T14:04:29Z</time>
      </trkpt>
      <trkpt lat="45.6244" lon="6.52316">
        <ele>1896.4</ele>
        <time>2025-02-20T14:04:30Z</time>
      </trkpt>
      <trkpt lat="45.6244" lon="6.52316">
        <ele>1896.4</ele>
        <time>2025-02-20T14:04:31Z</time>
      </trkpt>
      <trkpt lat="45.6244" lon="6.52316">
        <ele>1897.2</ele>
        <time>2025-02-20T14:04:32Z</time>
      </trkpt>
      <trkpt lat="45.6244" lon="6.52316">
        <ele>1898.4</ele>
        <time>2025-02-20T14:04:33Z</time>
      </trkpt>
      <trkpt lat="45.6244" lon="6.52316">
        <ele>1898.4</ele>
        <time>2025-02-20T14:04:34Z</time>
      </trkpt>
      <trkpt lat="45.6244" lon="6.52316">
        <ele>1898.4</ele>
        <time>2025-02-20T14:04:35Z</time>
      </trkpt>
      <trkpt lat="45.6244" lon="6.52316">
        <ele>1897.6</ele>
        <time>2025-02-20T14:04:36Z</time>
      </trkpt>
      <trkpt lat="45.6244" lon="6.52316">
        <ele>1897.4</ele>
        <time>2025-02-20T14:04:37Z</time>
      </trkpt>
      <trkpt lat="45.6244" lon="6.52316">
        <ele>1897.4</ele>
        <time>2025-02-20T14:04:38Z</time>
      </trkpt>
      <trkpt lat="45.6244" lon="6.52316">
        <ele>1897.4</ele>
        <time>2025-02-20T14:04:39Z</time>
      </trkpt>
      <trkpt lat="45.6244" lon="6.52316">
        <ele>1897.4</ele>
        <time>2025-02-20T14:04:40Z</time>
      </trkpt>
      <trkpt lat="45.6244" lon="6.52316">
        <ele>1896.2</ele>
        <time>2025-02-20T14:04:41Z</time>
      </trkpt>
      <trkpt lat="45.6244" lon="6.52316">
        <ele>1896.2</ele>
        <time>2025-02-20T14:04:42Z</time>
      </trkpt>
      <trkpt lat="45.6244" lon="6.52316">
        <ele>1896.2</ele>
        <time>2025-02-20T14:04:43Z</time>
      </trkpt>
      <trkpt lat="45.6244" lon="6.52316">
        <ele>1897.2</ele>
        <time>2025-02-20T14:04:44Z</time>
      </trkpt>
      <trkpt lat="45.62441" lon="6.52312">
        <ele>1898.2</ele>
        <time>2025-02-20T14:04:45Z</time>
      </trkpt>
      <trkpt lat="45.62441" lon="6.52311">
        <ele>1898.2</ele>
        <time>2025-02-20T14:04:46Z</time>
      </trkpt>
      <trkpt lat="45.62441" lon="6.52311">
        <ele>1898.2</ele>
        <time>2025-02-20T14:04:47Z</time>
      </trkpt>
      <trkpt lat="45.62441" lon="6.5231">
        <ele>1898.2</ele>
        <time>2025-02-20T14:04:48Z</time>
      </trkpt>
      <trkpt lat="45.62441" lon="6.52309">
        <ele>1899</ele>
        <time>2025-02-20T14:04:49Z</time>
      </trkpt>
      <trkpt lat="45.6244" lon="6.52309">
        <ele>1899</ele>
        <time>2025-02-20T14:04:50Z</time>
      </trkpt>
      <trkpt lat="45.6244" lon="6.52308">
        <ele>1899</ele>
        <time>2025-02-20T14:04:51Z</time>
      </trkpt>
      <trkpt lat="45.6244" lon="6.52307">
        <ele>1899.6</ele>
        <time>2025-02-20T14:04:52Z</time>
      </trkpt>
      <trkpt lat="45.6244" lon="6.52306">
        <ele>1899.6</ele>
        <time>2025-02-20T14:04:53Z</time>
      </trkpt>
      <trkpt lat="45.62439" lon="6.52305">
        <ele>1899.6</ele>
        <time>2025-02-20T14:04:54Z</time>
      </trkpt>
      <trkpt lat="45.62439" lon="6.52305">
        <ele>1899.6</ele>
        <time>2025-02-20T14:04:55Z</time>
      </trkpt>
      <trkpt lat="45.62438" lon="6.52304">
        <ele>1898.6</ele>
        <time>2025-02-20T14:04:56Z</time>
      </trkpt>
      <trkpt lat="45.62438" lon="6.52304">
        <ele>1898.4</ele>
        <time>2025-02-20T14:04:57Z</time>
      </trkpt>
      <trkpt lat="45.62438" lon="6.52302">
        <ele>1898.4</ele>
        <time>2025-02-20T14:04:58Z</time>
      </trkpt>
      <trkpt lat="45.62438" lon="6.52301">
        <ele>1898.4</ele>
        <time>2025-02-20T14:04:59Z</time>
      </trkpt>
      <trkpt lat="45.62438" lon="6.523">
        <ele>1898.2</ele>
        <time>2025-02-20T14:05:00Z</time>
      </trkpt>
      <trkpt lat="45.62437" lon="6.523">
        <ele>1900</ele>
        <time>2025-02-20T14:05:01Z</time>
      </trkpt>
      <trkpt lat="45.62437" lon="6.523">
        <ele>1900</ele>
        <time>2025-02-20T14:05:02Z</time>
      </trkpt>
      <trkpt lat="45.62437" lon="6.52299">
        <ele>1900</ele>
        <time>2025-02-20T14:05:03Z</time>
      </trkpt>
      <trkpt lat="45.62437" lon="6.52299">
        <ele>1900</ele>
        <time>2025-02-20T14:05:04Z</time>
      </trkpt>
      <trkpt lat="45.62436" lon="6.52299">
        <ele>1901.2</ele>
        <time>2025-02-20T14:05:05Z</time>
      </trkpt>
      <trkpt lat="45.62436" lon="6.52299">
        <ele>1901.2</ele>
        <time>2025-02-20T14:05:06Z</time>
      </trkpt>
      <trkpt lat="45.62436" lon="6.52297">
        <ele>1901.2</ele>
        <time>2025-02-20T14:05:07Z</time>
      </trkpt>
      <trkpt lat="45.62436" lon="6.52297">
        <ele>1902</ele>
        <time>2025-02-20T14:05:08Z</time>
      </trkpt>
      <trkpt lat="45.62435" lon="6.52296">
        <ele>1900.6</ele>
        <time>2025-02-20T14:05:09Z</time>
      </trkpt>
      <trkpt lat="45.62435" lon="6.52296">
        <ele>1900.6</ele>
        <time>2025-02-20T14:05:10Z</time>
      </trkpt>
      <trkpt lat="45.62435" lon="6.52295">
        <ele>1900.6</ele>
        <time>2025-02-20T14:05:11Z</time>
      </trkpt>
      <trkpt lat="45.62435" lon="6.52295">
        <ele>1901</ele>
        <time>2025-02-20T14:05:12Z</time>
      </trkpt>
      <trkpt lat="45.62434" lon="6.52294">
        <ele>1899.8</ele>
        <time>2025-02-20T14:05:13Z</time>
      </trkpt>
      <trkpt lat="45.62434" lon="6.52294">
        <ele>1899.8</ele>
        <time>2025-02-20T14:05:14Z</time>
      </trkpt>
      <trkpt lat="45.62434" lon="6.52294">
        <ele>1899.8</ele>
        <time>2025-02-20T14:05:15Z</time>
      </trkpt>
      <trkpt lat="45.62434" lon="6.52292">
        <ele>1900.8</ele>
        <time>2025-02-20T14:05:16Z</time>
      </trkpt>
      <trkpt lat="45.62433" lon="6.52292">
        <ele>1902.8</ele>
        <time>2025-02-20T14:05:17Z</time>
      </trkpt>
      <trkpt lat="45.62433" lon="6.5229">
        <ele>1902.8</ele>
        <time>2025-02-20T14:05:18Z</time>
      </trkpt>
      <trkpt lat="45.62433" lon="6.5229">
        <ele>1902.8</ele>
        <time>2025-02-20T14:05:19Z</time>
      </trkpt>
      <trkpt lat="45.62433" lon="6.52289">
        <ele>1902.8</ele>
        <time>2025-02-20T14:05:20Z</time>
      </trkpt>
      <trkpt lat="45.62433" lon="6.52288">
        <ele>1903.6</ele>
        <time>2025-02-20T14:05:21Z</time>
      </trkpt>
      <trkpt lat="45.62432" lon="6.52288">
        <ele>1903.6</ele>
        <time>2025-02-20T14:05:22Z</time>
      </trkpt>
      <trkpt lat="45.62433" lon="6.52288">
        <ele>1903.6</ele>
        <time>2025-02-20T14:05:23Z</time>
      </trkpt>
      <trkpt lat="45.62433" lon="6.52286">
        <ele>1902.6</ele>
        <time>2025-02-20T14:05:24Z</time>
      </trkpt>
      <trkpt lat="45.62433" lon="6.52286">
        <ele>1902.6</ele>
        <time>2025-02-20T14:05:25Z</time>
      </trkpt>
      <trkpt lat="45.62432" lon="6.52286">
        <ele>1902.6</ele>
        <time>2025-02-20T14:05:26Z</time>
      </trkpt>
      <trkpt lat="45.62433" lon="6.52286">
        <ele>1902.6</ele>
        <time>2025-02-20T14:05:27Z</time>
      </trkpt>
      <trkpt lat="45.62433" lon="6.52286">
        <ele>1902.4</ele>
        <time>2025-02-20T14:05:28Z</time>
      </trkpt>
      <trkpt lat="45.62432" lon="6.52284">
        <ele>1903.8</ele>
        <time>2025-02-20T14:05:29Z</time>
      </trkpt>
      <trkpt lat="45.62432" lon="6.52284">
        <ele>1903.8</ele>
        <time>2025-02-20T14:05:30Z</time>
      </trkpt>
      <trkpt lat="45.62432" lon="6.52284">
        <ele>1903.8</ele>
        <time>2025-02-20T14:05:31Z</time>
      </trkpt>
      <trkpt lat="45.62432" lon="6.52284">
        <ele>1902.8</ele>
        <time>2025-02-20T14:05:32Z</time>
      </trkpt>
      <trkpt lat="45.62432" lon="6.52284">
        <ele>1904</ele>
        <time>2025-02-20T14:05:33Z</time>
      </trkpt>
      <trkpt lat="45.62432" lon="6.52284">
        <ele>1904</ele>
        <time>2025-02-20T14:05:34Z</time>
      </trkpt>
      <trkpt lat="45.62432" lon="6.52284">
        <ele>1904</ele>
        <time>2025-02-20T14:05:35Z</time>
      </trkpt>
      <trkpt lat="45.62432" lon="6.52284">
        <ele>1904</ele>
        <time>2025-02-20T14:05:36Z</time>
      </trkpt>
      <trkpt lat="45.62432" lon="6.52284">
        <ele>1904.8</ele>
        <time>2025-02-20T14:05:37Z</time>
      </trkpt>
      <trkpt lat="45.62432" lon="6.52284">
        <ele>1904.8</ele>
        <time>2025-02-20T14:05:38Z</time>
      </trkpt>
      <trkpt lat="45.62432" lon="6.52284">
        <ele>1904.8</ele>
        <time>2025-02-20T14:05:39Z</time>
      </trkpt>
      <trkpt lat="45.62432" lon="6.52284">
        <ele>1904.6</ele>
        <time>2025-02-20T14:05:40Z</time>
      </trkpt>
      <trkpt lat="45.62433" lon="6.52284">
        <ele>1903.4</ele>
        <time>2025-02-20T14:05:41Z</time>
      </trkpt>
      <trkpt lat="45.62434" lon="6.52285">
        <ele>1903.4</ele>
        <time>2025-02-20T14:05:42Z</time>
      </trkpt>
      <trkpt lat="45.62435" lon="6.52286">
        <ele>1903.4</ele>
        <time>2025-02-20T14:05:43Z</time>
      </trkpt>
      <trkpt lat="45.62435" lon="6.52287">
        <ele>1903.4</ele>
        <time>2025-02-20T14:05:44Z</time>
      </trkpt>
      <trkpt lat="45.62436" lon="6.52287">
        <ele>1905.2</ele>
        <time>2025-02-20T14:05:45Z</time>
      </trkpt>
      <trkpt lat="45.62436" lon="6.52287">
        <ele>1905.2</ele>
        <time>2025-02-20T14:05:46Z</time>
      </trkpt>
      <trkpt lat="45.62436" lon="6.52287">
        <ele>1905.2</ele>
        <time>2025-02-20T14:05:47Z</time>
      </trkpt>
      <trkpt lat="45.62436" lon="6.52287">
        <ele>1905.2</ele>
        <time>2025-02-20T14:05:48Z</time>
      </trkpt>
      <trkpt lat="45.62436" lon="6.52287">
        <ele>1905.6</ele>
        <time>2025-02-20T14:05:49Z</time>
      </trkpt>
      <trkpt lat="45.62438" lon="6.52288">
        <ele>1905.6</ele>
        <time>2025-02-20T14:05:50Z</time>
      </trkpt>
      <trkpt lat="45.62438" lon="6.52288">
        <ele>1905.6</ele>
        <time>2025-02-20T14:05:51Z</time>
      </trkpt>
      <trkpt lat="45.62439" lon="6.52288">
        <ele>1904.6</ele>
        <time>2025-02-20T14:05:52Z</time>
      </trkpt>
      <trkpt lat="45.62439" lon="6.52289">
        <ele>1904.2</ele>
        <time>2025-02-20T14:05:53Z</time>
      </trkpt>
      <trkpt lat="45.62439" lon="6.52289">
        <ele>1904.2</ele>
        <time>2025-02-20T14:05:54Z</time>
      </trkpt>
      <trkpt lat="45.6244" lon="6.5229">
        <ele>1904.2</ele>
        <time>2025-02-20T14:05:55Z</time>
      </trkpt>
      <trkpt lat="45.6244" lon="6.5229">
        <ele>1904.8</ele>
        <time>2025-02-20T14:05:56Z</time>
      </trkpt>
      <trkpt lat="45.6244" lon="6.5229">
        <ele>1906</ele>
        <time>2025-02-20T14:05:57Z</time>
      </trkpt>
      <trkpt lat="45.6244" lon="6.5229">
        <ele>1906</ele>
        <time>2025-02-20T14:05:58Z</time>
      </trkpt>
      <trkpt lat="45.6244" lon="6.5229">
        <ele>1906</ele>
        <time>2025-02-20T14:05:59Z</time>
      </trkpt>
      <trkpt lat="45.62441" lon="6.52291">
        <ele>1906</ele>
        <time>2025-02-20T14:06:00Z</time>
      </trkpt>
      <trkpt lat="45.62441" lon="6.5229">
        <ele>1905.4</ele>
        <time>2025-02-20T14:06:01Z</time>
      </trkpt>
      <trkpt lat="45.62441" lon="6.5229">
        <ele>1905.4</ele>
        <time>2025-02-20T14:06:02Z</time>
      </trkpt>
      <trkpt lat="45.62442" lon="6.52291">
        <ele>1905.4</ele>
        <time>2025-02-20T14:06:03Z</time>
      </trkpt>
      <trkpt lat="45.62442" lon="6.52291">
        <ele>1906.4</ele>
        <time>2025-02-20T14:06:04Z</time>
      </trkpt>
      <trkpt lat="45.62443" lon="6.52291">
        <ele>1906.2</ele>
        <time>2025-02-20T14:06:05Z</time>
      </trkpt>
      <trkpt lat="45.62443" lon="6.52292">
        <ele>1906.2</ele>
        <time>2025-02-20T14:06:06Z</time>
      </trkpt>
      <trkpt lat="45.62443" lon="6.52292">
        <ele>1906.2</ele>
        <time>2025-02-20T14:06:07Z</time>
      </trkpt>
      <trkpt lat="45.62444" lon="6.52292">
        <ele>1906.2</ele>
        <time>2025-02-20T14:06:08Z</time>
      </trkpt>
      <trkpt lat="45.62444" lon="6.52292">
        <ele>1906.6</ele>
        <time>2025-02-20T14:06:09Z</time>
      </trkpt>
      <trkpt lat="45.62444" lon="6.52292">
        <ele>1906.6</ele>
        <time>2025-02-20T14:06:10Z</time>
      </trkpt>
      <trkpt lat="45.62445" lon="6.52292">
        <ele>1906.6</ele>
        <time>2025-02-20T14:06:11Z</time>
      </trkpt>
      <trkpt lat="45.62445" lon="6.52293">
        <ele>1907.2</ele>
        <time>2025-02-20T14:06:12Z</time>
      </trkpt>
      <trkpt lat="45.62445" lon="6.52293">
        <ele>1908.2</ele>
        <time>2025-02-20T14:06:13Z</time>
      </trkpt>
      <trkpt lat="45.62445" lon="6.52293">
        <ele>1908.2</ele>
        <time>2025-02-20T14:06:14Z</time>
      </trkpt>
      <trkpt lat="45.62445" lon="6.52293">
        <ele>1908.2</ele>
        <time>2025-02-20T14:06:15Z</time>
      </trkpt>
      <trkpt lat="45.62447" lon="6.52293">
        <ele>1908.2</ele>
        <time>2025-02-20T14:06:16Z</time>
      </trkpt>
      <trkpt lat="45.62447" lon="6.52293">
        <ele>1907.4</ele>
        <time>2025-02-20T14:06:17Z</time>
      </trkpt>
      <trkpt lat="45.62447" lon="6.52293">
        <ele>1907.4</ele>
        <time>2025-02-20T14:06:18Z</time>
      </trkpt>
      <trkpt lat="45.62447" lon="6.52293">
        <ele>1907.4</ele>
        <time>2025-02-20T14:06:19Z</time>
      </trkpt>
      <trkpt lat="45.62447" lon="6.52293">
        <ele>1908.4</ele>
        <time>2025-02-20T14:06:20Z</time>
      </trkpt>
      <trkpt lat="45.62447" lon="6.52293">
        <ele>1907.6</ele>
        <time>2025-02-20T14:06:21Z</time>
      </trkpt>
      <trkpt lat="45.62447" lon="6.52293">
        <ele>1907.6</ele>
        <time>2025-02-20T14:06:22Z</time>
      </trkpt>
      <trkpt lat="45.62447" lon="6.52293">
        <ele>1907.6</ele>
        <time>2025-02-20T14:06:23Z</time>
      </trkpt>
      <trkpt lat="45.62447" lon="6.52293">
        <ele>1908.6</ele>
        <time>2025-02-20T14:06:24Z</time>
      </trkpt>
      <trkpt lat="45.62447" lon="6.52293">
        <ele>1909</ele>
        <time>2025-02-20T14:06:25Z</time>
      </trkpt>
      <trkpt lat="45.62447" lon="6.52293">
        <ele>1909</ele>
        <time>2025-02-20T14:06:26Z</time>
      </trkpt>
      <trkpt lat="45.62447" lon="6.52293">
        <ele>1909</ele>
        <time>2025-02-20T14:06:27Z</time>
      </trkpt>
      <trkpt lat="45.62447" lon="6.52293">
        <ele>1909</ele>
        <time>2025-02-20T14:06:28Z</time>
      </trkpt>
      <trkpt lat="45.62447" lon="6.52293">
        <ele>1908.4</ele>
        <time>2025-02-20T14:06:29Z</time>
      </trkpt>
      <trkpt lat="45.62447" lon="6.52293">
        <ele>1908.4</ele>
        <time>2025-02-20T14:06:30Z</time>
      </trkpt>
      <trkpt lat="45.62447" lon="6.52293">
        <ele>1908.4</ele>
        <time>2025-02-20T14:06:31Z</time>
      </trkpt>
      <trkpt lat="45.62447" lon="6.52293">
        <ele>1908.8</ele>
        <time>2025-02-20T14:06:32Z</time>
      </trkpt>
      <trkpt lat="45.62449" lon="6.52292">
        <ele>1909.6</ele>
        <time>2025-02-20T14:06:33Z</time>
      </trkpt>
      <trkpt lat="45.62448" lon="6.52291">
        <ele>1909.6</ele>
        <time>2025-02-20T14:06:34Z</time>
      </trkpt>
      <trkpt lat="45.62448" lon="6.52291">
        <ele>1909.6</ele>
        <time>2025-02-20T14:06:35Z</time>
      </trkpt>
      <trkpt lat="45.62448" lon="6.5229">
        <ele>1910.2</ele>
        <time>2025-02-20T14:06:36Z</time>
      </trkpt>
      <trkpt lat="45.62448" lon="6.52289">
        <ele>1909.6</ele>
        <time>2025-02-20T14:06:37Z</time>
      </trkpt>
      <trkpt lat="45.62447" lon="6.52288">
        <ele>1909.6</ele>
        <time>2025-02-20T14:06:38Z</time>
      </trkpt>
      <trkpt lat="45.62447" lon="6.52288">
        <ele>1909.6</ele>
        <time>2025-02-20T14:06:39Z</time>
      </trkpt>
      <trkpt lat="45.62447" lon="6.52287">
        <ele>1909.6</ele>
        <time>2025-02-20T14:06:40Z</time>
      </trkpt>
      <trkpt lat="45.62448" lon="6.52287">
        <ele>1908.8</ele>
        <time>2025-02-20T14:06:41Z</time>
      </trkpt>
      <trkpt lat="45.62448" lon="6.52286">
        <ele>1908.8</ele>
        <time>2025-02-20T14:06:42Z</time>
      </trkpt>
      <trkpt lat="45.62449" lon="6.52286">
        <ele>1908.8</ele>
        <time>2025-02-20T14:06:43Z</time>
      </trkpt>
      <trkpt lat="45.62449" lon="6.52286">
        <ele>1909.8</ele>
        <time>2025-02-20T14:06:44Z</time>
      </trkpt>
      <trkpt lat="45.62449" lon="6.52285">
        <ele>1911</ele>
        <time>2025-02-20T14:06:45Z</time>
      </trkpt>
      <trkpt lat="45.62449" lon="6.52284">
        <ele>1911</ele>
        <time>2025-02-20T14:06:46Z</time>
      </trkpt>
      <trkpt lat="45.62449" lon="6.52284">
        <ele>1911</ele>
        <time>2025-02-20T14:06:47Z</time>
      </trkpt>
      <trkpt lat="45.6245" lon="6.52284">
        <ele>1912</ele>
        <time>2025-02-20T14:06:48Z</time>
      </trkpt>
      <trkpt lat="45.6245" lon="6.52283">
        <ele>1912.2</ele>
        <time>2025-02-20T14:06:49Z</time>
      </trkpt>
      <trkpt lat="45.62451" lon="6.52283">
        <ele>1912.2</ele>
        <time>2025-02-20T14:06:50Z</time>
      </trkpt>
      <trkpt lat="45.62451" lon="6.52282">
        <ele>1912.2</ele>
        <time>2025-02-20T14:06:51Z</time>
      </trkpt>
      <trkpt lat="45.62451" lon="6.52282">
        <ele>1912.2</ele>
        <time>2025-02-20T14:06:52Z</time>
      </trkpt>
      <trkpt lat="45.62451" lon="6.52281">
        <ele>1912.4</ele>
        <time>2025-02-20T14:06:53Z</time>
      </trkpt>
      <trkpt lat="45.62451" lon="6.52281">
        <ele>1912.4</ele>
        <time>2025-02-20T14:06:54Z</time>
      </trkpt>
      <trkpt lat="45.62451" lon="6.5228">
        <ele>1912.4</ele>
        <time>2025-02-20T14:06:55Z</time>
      </trkpt>
      <trkpt lat="45.62451" lon="6.5228">
        <ele>1911.4</ele>
        <time>2025-02-20T14:06:56Z</time>
      </trkpt>
      <trkpt lat="45.62451" lon="6.52279">
        <ele>1911.2</ele>
        <time>2025-02-20T14:06:57Z</time>
      </trkpt>
      <trkpt lat="45.62452" lon="6.52278">
        <ele>1911.2</ele>
        <time>2025-02-20T14:06:58Z</time>
      </trkpt>
      <trkpt lat="45.62452" lon="6.52278">
        <ele>1911.2</ele>
        <time>2025-02-20T14:06:59Z</time>
      </trkpt>
      <trkpt lat="45.62452" lon="6.52277">
        <ele>1911.2</ele>
        <time>2025-02-20T14:07:00Z</time>
      </trkpt>
      <trkpt lat="45.62452" lon="6.52277">
        <ele>1912.6</ele>
        <time>2025-02-20T14:07:01Z</time>
      </trkpt>
      <trkpt lat="45.62452" lon="6.52277">
        <ele>1912.6</ele>
        <time>2025-02-20T14:07:02Z</time>
      </trkpt>
      <trkpt lat="45.62453" lon="6.52276">
        <ele>1912.6</ele>
        <time>2025-02-20T14:07:03Z</time>
      </trkpt>
      <trkpt lat="45.62453" lon="6.52276">
        <ele>1913.6</ele>
        <time>2025-02-20T14:07:04Z</time>
      </trkpt>
      <trkpt lat="45.62453" lon="6.52276">
        <ele>1913.8</ele>
        <time>2025-02-20T14:07:05Z</time>
      </trkpt>
      <trkpt lat="45.62453" lon="6.52276">
        <ele>1913.8</ele>
        <time>2025-02-20T14:07:06Z</time>
      </trkpt>
      <trkpt lat="45.62453" lon="6.52276">
        <ele>1913.8</ele>
        <time>2025-02-20T14:07:07Z</time>
      </trkpt>
      <trkpt lat="45.62453" lon="6.52276">
        <ele>1913</ele>
        <time>2025-02-20T14:07:08Z</time>
      </trkpt>
      <trkpt lat="45.62453" lon="6.52276">
        <ele>1913</ele>
        <time>2025-02-20T14:07:09Z</time>
      </trkpt>
      <trkpt lat="45.62453" lon="6.52276">
        <ele>1913</ele>
        <time>2025-02-20T14:07:10Z</time>
      </trkpt>
      <trkpt lat="45.62453" lon="6.52276">
        <ele>1913</ele>
        <time>2025-02-20T14:07:11Z</time>
      </trkpt>
      <trkpt lat="45.62453" lon="6.52276">
        <ele>1913.4</ele>
        <time>2025-02-20T14:07:12Z</time>
      </trkpt>
      <trkpt lat="45.62453" lon="6.52276">
        <ele>1913</ele>
        <time>2025-02-20T14:07:13Z</time>
      </trkpt>
      <trkpt lat="45.62453" lon="6.52276">
        <ele>1913</ele>
        <time>2025-02-20T14:07:14Z</time>
      </trkpt>
      <trkpt lat="45.62453" lon="6.52276">
        <ele>1913</ele>
        <time>2025-02-20T14:07:15Z</time>
      </trkpt>
      <trkpt lat="45.62453" lon="6.52276">
        <ele>1913</ele>
        <time>2025-02-20T14:07:16Z</time>
      </trkpt>
      <trkpt lat="45.62453" lon="6.52276">
        <ele>1913.4</ele>
        <time>2025-02-20T14:07:17Z</time>
      </trkpt>
      <trkpt lat="45.62453" lon="6.52276">
        <ele>1913.4</ele>
        <time>2025-02-20T14:07:18Z</time>
      </trkpt>
      <trkpt lat="45.62453" lon="6.52276">
        <ele>1913.4</ele>
        <time>2025-02-20T14:07:19Z</time>
      </trkpt>
      <trkpt lat="45.62453" lon="6.52276">
        <ele>1913.4</ele>
        <time>2025-02-20T14:07:20Z</time>
      </trkpt>
      <trkpt lat="45.62453" lon="6.52276">
        <ele>1913.6</ele>
        <time>2025-02-20T14:07:21Z</time>
      </trkpt>
      <trkpt lat="45.62453" lon="6.52276">
        <ele>1913.6</ele>
        <time>2025-02-20T14:07:22Z</time>
      </trkpt>
      <trkpt lat="45.62453" lon="6.52276">
        <ele>1913.6</ele>
        <time>2025-02-20T14:07:23Z</time>
      </trkpt>
      <trkpt lat="45.62453" lon="6.52276">
        <ele>1914</ele>
        <time>2025-02-20T14:07:24Z</time>
      </trkpt>
      <trkpt lat="45.62453" lon="6.52276">
        <ele>1915</ele>
        <time>2025-02-20T14:07:25Z</time>
      </trkpt>
      <trkpt lat="45.62453" lon="6.52276">
        <ele>1915</ele>
        <time>2025-02-20T14:07:26Z</time>
      </trkpt>
      <trkpt lat="45.62453" lon="6.52276">
        <ele>1915</ele>
        <time>2025-02-20T14:07:27Z</time>
      </trkpt>
      <trkpt lat="45.62453" lon="6.52276">
        <ele>1915</ele>
        <time>2025-02-20T14:07:28Z</time>
      </trkpt>
      <trkpt lat="45.62453" lon="6.52276">
        <ele>1914.4</ele>
        <time>2025-02-20T14:07:29Z</time>
      </trkpt>
      <trkpt lat="45.62453" lon="6.52276">
        <ele>1914.4</ele>
        <time>2025-02-20T14:07:30Z</time>
      </trkpt>
      <trkpt lat="45.62453" lon="6.52276">
        <ele>1914.4</ele>
        <time>2025-02-20T14:07:31Z</time>
      </trkpt>
      <trkpt lat="45.62453" lon="6.52276">
        <ele>1914.4</ele>
        <time>2025-02-20T14:07:32Z</time>
      </trkpt>
      <trkpt lat="45.62453" lon="6.52276">
        <ele>1914.8</ele>
        <time>2025-02-20T14:07:33Z</time>
      </trkpt>
      <trkpt lat="45.62453" lon="6.52276">
        <ele>1914.8</ele>
        <time>2025-02-20T14:07:34Z</time>
      </trkpt>
      <trkpt lat="45.62453" lon="6.52276">
        <ele>1914.8</ele>
        <time>2025-02-20T14:07:35Z</time>
      </trkpt>
      <trkpt lat="45.62453" lon="6.52276">
        <ele>1914.4</ele>
        <time>2025-02-20T14:07:36Z</time>
      </trkpt>
      <trkpt lat="45.62453" lon="6.52276">
        <ele>1913.4</ele>
        <time>2025-02-20T14:07:37Z</time>
      </trkpt>
      <trkpt lat="45.62453" lon="6.52276">
        <ele>1913.4</ele>
        <time>2025-02-20T14:07:38Z</time>
      </trkpt>
      <trkpt lat="45.62453" lon="6.52276">
        <ele>1913.4</ele>
        <time>2025-02-20T14:07:39Z</time>
      </trkpt>
      <trkpt lat="45.62453" lon="6.52276">
        <ele>1914.4</ele>
        <time>2025-02-20T14:07:40Z</time>
      </trkpt>
      <trkpt lat="45.62453" lon="6.52276">
        <ele>1913.6</ele>
        <time>2025-02-20T14:07:41Z</time>
      </trkpt>
      <trkpt lat="45.62453" lon="6.52276">
        <ele>1913.6</ele>
        <time>2025-02-20T14:07:42Z</time>
      </trkpt>
      <trkpt lat="45.62453" lon="6.52276">
        <ele>1913.6</ele>
        <time>2025-02-20T14:07:43Z</time>
      </trkpt>
      <trkpt lat="45.62453" lon="6.52276">
        <ele>1913.6</ele>
        <time>2025-02-20T14:07:44Z</time>
      </trkpt>
      <trkpt lat="45.62453" lon="6.52276">
        <ele>1914.2</ele>
        <time>2025-02-20T14:07:45Z</time>
      </trkpt>
      <trkpt lat="45.62453" lon="6.52276">
        <ele>1914.2</ele>
        <time>2025-02-20T14:07:46Z</time>
      </trkpt>
      <trkpt lat="45.62456" lon="6.52266">
        <ele>1914.2</ele>
        <time>2025-02-20T14:07:47Z</time>
      </trkpt>
      <trkpt lat="45.62456" lon="6.52265">
        <ele>1914.2</ele>
        <time>2025-02-20T14:07:48Z</time>
      </trkpt>
      <trkpt lat="45.62456" lon="6.52265">
        <ele>1916</ele>
        <time>2025-02-20T14:07:49Z</time>
      </trkpt>
      <trkpt lat="45.62456" lon="6.52265">
        <ele>1916</ele>
        <time>2025-02-20T14:07:50Z</time>
      </trkpt>
      <trkpt lat="45.62457" lon="6.52263">
        <ele>1916</ele>
        <time>2025-02-20T14:07:51Z</time>
      </trkpt>
      <trkpt lat="45.62457" lon="6.52262">
        <ele>1916</ele>
        <time>2025-02-20T14:07:52Z</time>
      </trkpt>
      <trkpt lat="45.62458" lon="6.52262">
        <ele>1916.6</ele>
        <time>2025-02-20T14:07:53Z</time>
      </trkpt>
      <trkpt lat="45.62458" lon="6.52261">
        <ele>1916.6</ele>
        <time>2025-02-20T14:07:54Z</time>
      </trkpt>
      <trkpt lat="45.62458" lon="6.52261">
        <ele>1916.6</ele>
        <time>2025-02-20T14:07:55Z</time>
      </trkpt>
      <trkpt lat="45.62458" lon="6.5226">
        <ele>1916</ele>
        <time>2025-02-20T14:07:56Z</time>
      </trkpt>
      <trkpt lat="45.62459" lon="6.52259">
        <ele>1916.8</ele>
        <time>2025-02-20T14:07:57Z</time>
      </trkpt>
      <trkpt lat="45.62459" lon="6.52259">
        <ele>1916.8</ele>
        <time>2025-02-20T14:07:58Z</time>
      </trkpt>
      <trkpt lat="45.62459" lon="6.52259">
        <ele>1916.8</ele>
        <time>2025-02-20T14:07:59Z</time>
      </trkpt>
      <trkpt lat="45.62459" lon="6.52259">
        <ele>1917.4</ele>
        <time>2025-02-20T14:08:00Z</time>
      </trkpt>
      <trkpt lat="45.6246" lon="6.52257">
        <ele>1916.2</ele>
        <time>2025-02-20T14:08:01Z</time>
      </trkpt>
      <trkpt lat="45.6246" lon="6.52257">
        <ele>1916.2</ele>
        <time>2025-02-20T14:08:02Z</time>
      </trkpt>
      <trkpt lat="45.62461" lon="6.52256">
        <ele>1916.2</ele>
        <time>2025-02-20T14:08:03Z</time>
      </trkpt>
      <trkpt lat="45.62461" lon="6.52256">
        <ele>1917.2</ele>
        <time>2025-02-20T14:08:04Z</time>
      </trkpt>
      <trkpt lat="45.62461" lon="6.52256">
        <ele>1915.8</ele>
        <time>2025-02-20T14:08:05Z</time>
      </trkpt>
      <trkpt lat="45.62461" lon="6.52256">
        <ele>1915.8</ele>
        <time>2025-02-20T14:08:06Z</time>
      </trkpt>
      <trkpt lat="45.62462" lon="6.52255">
        <ele>1915.8</ele>
        <time>2025-02-20T14:08:07Z</time>
      </trkpt>
      <trkpt lat="45.62462" lon="6.52254">
        <ele>1916.8</ele>
        <time>2025-02-20T14:08:08Z</time>
      </trkpt>
      <trkpt lat="45.62463" lon="6.52254">
        <ele>1918.4</ele>
        <time>2025-02-20T14:08:09Z</time>
      </trkpt>
      <trkpt lat="45.62464" lon="6.52254">
        <ele>1918.4</ele>
        <time>2025-02-20T14:08:10Z</time>
      </trkpt>
      <trkpt lat="45.62464" lon="6.52253">
        <ele>1918.4</ele>
        <time>2025-02-20T14:08:11Z</time>
      </trkpt>
      <trkpt lat="45.62465" lon="6.52253">
        <ele>1918.4</ele>
        <time>2025-02-20T14:08:12Z</time>
      </trkpt>
      <trkpt lat="45.62465" lon="6.52252">
        <ele>1918.4</ele>
        <time>2025-02-20T14:08:13Z</time>
      </trkpt>
      <trkpt lat="45.62465" lon="6.52252">
        <ele>1918.4</ele>
        <time>2025-02-20T14:08:14Z</time>
      </trkpt>
      <trkpt lat="45.62466" lon="6.52252">
        <ele>1918.4</ele>
        <time>2025-02-20T14:08:15Z</time>
      </trkpt>
      <trkpt lat="45.62466" lon="6.52252">
        <ele>1918.4</ele>
        <time>2025-02-20T14:08:16Z</time>
      </trkpt>
      <trkpt lat="45.62466" lon="6.52252">
        <ele>1919.2</ele>
        <time>2025-02-20T14:08:17Z</time>
      </trkpt>
      <trkpt lat="45.62467" lon="6.52252">
        <ele>1919.2</ele>
        <time>2025-02-20T14:08:18Z</time>
      </trkpt>
      <trkpt lat="45.62467" lon="6.52252">
        <ele>1919.2</ele>
        <time>2025-02-20T14:08:19Z</time>
      </trkpt>
      <trkpt lat="45.62467" lon="6.52252">
        <ele>1918.6</ele>
        <time>2025-02-20T14:08:20Z</time>
      </trkpt>
      <trkpt lat="45.62468" lon="6.52251">
        <ele>1919.8</ele>
        <time>2025-02-20T14:08:21Z</time>
      </trkpt>
      <trkpt lat="45.62468" lon="6.5225">
        <ele>1919.8</ele>
        <time>2025-02-20T14:08:22Z</time>
      </trkpt>
      <trkpt lat="45.62468" lon="6.52251">
        <ele>1919.8</ele>
        <time>2025-02-20T14:08:23Z</time>
      </trkpt>
      <trkpt lat="45.62469" lon="6.5225">
        <ele>1919.8</ele>
        <time>2025-02-20T14:08:24Z</time>
      </trkpt>
      <trkpt lat="45.6247" lon="6.5225">
        <ele>1919.6</ele>
        <time>2025-02-20T14:08:25Z</time>
      </trkpt>
      <trkpt lat="45.6247" lon="6.5225">
        <ele>1919.6</ele>
        <time>2025-02-20T14:08:26Z</time>
      </trkpt>
      <trkpt lat="45.6247" lon="6.52249">
        <ele>1919.6</ele>
        <time>2025-02-20T14:08:27Z</time>
      </trkpt>
      <trkpt lat="45.62471" lon="6.52249">
        <ele>1919.6</ele>
        <time>2025-02-20T14:08:28Z</time>
      </trkpt>
      <trkpt lat="45.62471" lon="6.52249">
        <ele>1920</ele>
        <time>2025-02-20T14:08:29Z</time>
      </trkpt>
      <trkpt lat="45.62471" lon="6.52248">
        <ele>1920</ele>
        <time>2025-02-20T14:08:30Z</time>
      </trkpt>
      <trkpt lat="45.62472" lon="6.52248">
        <ele>1920</ele>
        <time>2025-02-20T14:08:31Z</time>
      </trkpt>
      <trkpt lat="45.62472" lon="6.52248">
        <ele>1919.2</ele>
        <time>2025-02-20T14:08:32Z</time>
      </trkpt>
      <trkpt lat="45.62472" lon="6.52248">
        <ele>1919.8</ele>
        <time>2025-02-20T14:08:33Z</time>
      </trkpt>
      <trkpt lat="45.62472" lon="6.52248">
        <ele>1919.8</ele>
        <time>2025-02-20T14:08:34Z</time>
      </trkpt>
      <trkpt lat="45.62472" lon="6.52248">
        <ele>1919.8</ele>
        <time>2025-02-20T14:08:35Z</time>
      </trkpt>
      <trkpt lat="45.62472" lon="6.52248">
        <ele>1919.8</ele>
        <time>2025-02-20T14:08:36Z</time>
      </trkpt>
      <trkpt lat="45.62472" lon="6.52248">
        <ele>1921</ele>
        <time>2025-02-20T14:08:37Z</time>
      </trkpt>
      <trkpt lat="45.62472" lon="6.52248">
        <ele>1921</ele>
        <time>2025-02-20T14:08:38Z</time>
      </trkpt>
      <trkpt lat="45.62474" lon="6.52245">
        <ele>1921</ele>
        <time>2025-02-20T14:08:39Z</time>
      </trkpt>
      <trkpt lat="45.62474" lon="6.52245">
        <ele>1921.6</ele>
        <time>2025-02-20T14:08:40Z</time>
      </trkpt>
      <trkpt lat="45.62475" lon="6.52246">
        <ele>1920.4</ele>
        <time>2025-02-20T14:08:41Z</time>
      </trkpt>
      <trkpt lat="45.62475" lon="6.52247">
        <ele>1920.4</ele>
        <time>2025-02-20T14:08:42Z</time>
      </trkpt>
      <trkpt lat="45.62475" lon="6.52247">
        <ele>1920.4</ele>
        <time>2025-02-20T14:08:43Z</time>
      </trkpt>
      <trkpt lat="45.62475" lon="6.52247">
        <ele>1921.4</ele>
        <time>2025-02-20T14:08:44Z</time>
      </trkpt>
      <trkpt lat="45.62475" lon="6.52247">
        <ele>1922.2</ele>
        <time>2025-02-20T14:08:45Z</time>
      </trkpt>
      <trkpt lat="45.62475" lon="6.52247">
        <ele>1922.2</ele>
        <time>2025-02-20T14:08:46Z</time>
      </trkpt>
      <trkpt lat="45.62475" lon="6.52247">
        <ele>1922.2</ele>
        <time>2025-02-20T14:08:47Z</time>
      </trkpt>
      <trkpt lat="45.62475" lon="6.52247">
        <ele>1922.2</ele>
        <time>2025-02-20T14:08:48Z</time>
      </trkpt>
      <trkpt lat="45.62475" lon="6.52247">
        <ele>1921.8</ele>
        <time>2025-02-20T14:08:49Z</time>
      </trkpt>
      <trkpt lat="45.62475" lon="6.52247">
        <ele>1921.8</ele>
        <time>2025-02-20T14:08:50Z</time>
      </trkpt>
      <trkpt lat="45.62475" lon="6.52247">
        <ele>1921.8</ele>
        <time>2025-02-20T14:08:51Z</time>
      </trkpt>
      <trkpt lat="45.62475" lon="6.52247">
        <ele>1922</ele>
        <time>2025-02-20T14:08:52Z</time>
      </trkpt>
      <trkpt lat="45.62475" lon="6.52247">
        <ele>1921.4</ele>
        <time>2025-02-20T14:08:53Z</time>
      </trkpt>
      <trkpt lat="45.62475" lon="6.52247">
        <ele>1921.4</ele>
        <time>2025-02-20T14:08:54Z</time>
      </trkpt>
      <trkpt lat="45.62475" lon="6.52247">
        <ele>1921.4</ele>
        <time>2025-02-20T14:08:55Z</time>
      </trkpt>
      <trkpt lat="45.62475" lon="6.52247">
        <ele>1922.4</ele>
        <time>2025-02-20T14:08:56Z</time>
      </trkpt>
      <trkpt lat="45.62475" lon="6.52247">
        <ele>1922</ele>
        <time>2025-02-20T14:08:57Z</time>
      </trkpt>
      <trkpt lat="45.62475" lon="6.52247">
        <ele>1922</ele>
        <time>2025-02-20T14:08:58Z</time>
      </trkpt>
      <trkpt lat="45.62475" lon="6.52247">
        <ele>1922</ele>
        <time>2025-02-20T14:08:59Z</time>
      </trkpt>
      <trkpt lat="45.62476" lon="6.52252">
        <ele>1922.2</ele>
        <time>2025-02-20T14:09:00Z</time>
      </trkpt>
      <trkpt lat="45.62476" lon="6.52252">
        <ele>1922</ele>
        <time>2025-02-20T14:09:01Z</time>
      </trkpt>
      <trkpt lat="45.62476" lon="6.52252">
        <ele>1922</ele>
        <time>2025-02-20T14:09:02Z</time>
      </trkpt>
      <trkpt lat="45.62476" lon="6.52252">
        <ele>1922</ele>
        <time>2025-02-20T14:09:03Z</time>
      </trkpt>
      <trkpt lat="45.62476" lon="6.52252">
        <ele>1923</ele>
        <time>2025-02-20T14:09:04Z</time>
      </trkpt>
      <trkpt lat="45.62476" lon="6.52255">
        <ele>1922.8</ele>
        <time>2025-02-20T14:09:05Z</time>
      </trkpt>
      <trkpt lat="45.62476" lon="6.52255">
        <ele>1922.8</ele>
        <time>2025-02-20T14:09:06Z</time>
      </trkpt>
      <trkpt lat="45.62476" lon="6.52255">
        <ele>1922.8</ele>
        <time>2025-02-20T14:09:07Z</time>
      </trkpt>
      <trkpt lat="45.62476" lon="6.52255">
        <ele>1922.8</ele>
        <time>2025-02-20T14:09:08Z</time>
      </trkpt>
      <trkpt lat="45.62476" lon="6.52255">
        <ele>1924.6</ele>
        <time>2025-02-20T14:09:09Z</time>
      </trkpt>
      <trkpt lat="45.62476" lon="6.52255">
        <ele>1924.6</ele>
        <time>2025-02-20T14:09:10Z</time>
      </trkpt>
      <trkpt lat="45.62476" lon="6.52255">
        <ele>1924.6</ele>
        <time>2025-02-20T14:09:11Z</time>
      </trkpt>
      <trkpt lat="45.62476" lon="6.52258">
        <ele>1924.6</ele>
        <time>2025-02-20T14:09:12Z</time>
      </trkpt>
      <trkpt lat="45.62475" lon="6.52259">
        <ele>1923.4</ele>
        <time>2025-02-20T14:09:13Z</time>
      </trkpt>
      <trkpt lat="45.62475" lon="6.52259">
        <ele>1923.4</ele>
        <time>2025-02-20T14:09:14Z</time>
      </trkpt>
      <trkpt lat="45.62475" lon="6.5226">
        <ele>1923.4</ele>
        <time>2025-02-20T14:09:15Z</time>
      </trkpt>
      <trkpt lat="45.62475" lon="6.5226">
        <ele>1924.4</ele>
        <time>2025-02-20T14:09:16Z</time>
      </trkpt>
      <trkpt lat="45.62475" lon="6.52261">
        <ele>1923.4</ele>
        <time>2025-02-20T14:09:17Z</time>
      </trkpt>
      <trkpt lat="45.62474" lon="6.52262">
        <ele>1923.4</ele>
        <time>2025-02-20T14:09:18Z</time>
      </trkpt>
      <trkpt lat="45.62474" lon="6.52262">
        <ele>1923.4</ele>
        <time>2025-02-20T14:09:19Z</time>
      </trkpt>
      <trkpt lat="45.62474" lon="6.52262">
        <ele>1924.4</ele>
        <time>2025-02-20T14:09:20Z</time>
      </trkpt>
      <trkpt lat="45.62474" lon="6.52262">
        <ele>1926</ele>
        <time>2025-02-20T14:09:21Z</time>
      </trkpt>
      <trkpt lat="45.62474" lon="6.52264">
        <ele>1926</ele>
        <time>2025-02-20T14:09:22Z</time>
      </trkpt>
      <trkpt lat="45.62474" lon="6.52264">
        <ele>1926</ele>
        <time>2025-02-20T14:09:23Z</time>
      </trkpt>
      <trkpt lat="45.62474" lon="6.52264">
        <ele>1926</ele>
        <time>2025-02-20T14:09:24Z</time>
      </trkpt>
      <trkpt lat="45.62473" lon="6.52265">
        <ele>1926.8</ele>
        <time>2025-02-20T14:09:25Z</time>
      </trkpt>
      <trkpt lat="45.62473" lon="6.52266">
        <ele>1926.8</ele>
        <time>2025-02-20T14:09:26Z</time>
      </trkpt>
      <trkpt lat="45.62473" lon="6.52267">
        <ele>1926.8</ele>
        <time>2025-02-20T14:09:27Z</time>
      </trkpt>
      <trkpt lat="45.62473" lon="6.52267">
        <ele>1926.8</ele>
        <time>2025-02-20T14:09:28Z</time>
      </trkpt>
      <trkpt lat="45.62473" lon="6.52267">
        <ele>1927.4</ele>
        <time>2025-02-20T14:09:29Z</time>
      </trkpt>
      <trkpt lat="45.62473" lon="6.52269">
        <ele>1927.4</ele>
        <time>2025-02-20T14:09:30Z</time>
      </trkpt>
      <trkpt lat="45.62473" lon="6.52269">
        <ele>1927.4</ele>
        <time>2025-02-20T14:09:31Z</time>
      </trkpt>
      <trkpt lat="45.62473" lon="6.52269">
        <ele>1926.6</ele>
        <time>2025-02-20T14:09:32Z</time>
      </trkpt>
      <trkpt lat="45.62473" lon="6.52269">
        <ele>1927</ele>
        <time>2025-02-20T14:09:33Z</time>
      </trkpt>
      <trkpt lat="45.62473" lon="6.52269">
        <ele>1927</ele>
        <time>2025-02-20T14:09:34Z</time>
      </trkpt>
      <trkpt lat="45.62473" lon="6.52269">
        <ele>1927</ele>
        <time>2025-02-20T14:09:35Z</time>
      </trkpt>
      <trkpt lat="45.62473" lon="6.52269">
        <ele>1927</ele>
        <time>2025-02-20T14:09:36Z</time>
      </trkpt>
      <trkpt lat="45.62473" lon="6.52269">
        <ele>1927.2</ele>
        <time>2025-02-20T14:09:37Z</time>
      </trkpt>
      <trkpt lat="45.62475" lon="6.5227">
        <ele>1927.2</ele>
        <time>2025-02-20T14:09:38Z</time>
      </trkpt>
      <trkpt lat="45.62475" lon="6.52271">
        <ele>1927.2</ele>
        <time>2025-02-20T14:09:39Z</time>
      </trkpt>
      <trkpt lat="45.62475" lon="6.52271">
        <ele>1928.2</ele>
        <time>2025-02-20T14:09:40Z</time>
      </trkpt>
      <trkpt lat="45.62475" lon="6.52271">
        <ele>1927.8</ele>
        <time>2025-02-20T14:09:41Z</time>
      </trkpt>
      <trkpt lat="45.62475" lon="6.52271">
        <ele>1927.8</ele>
        <time>2025-02-20T14:09:42Z</time>
      </trkpt>
      <trkpt lat="45.62475" lon="6.52271">
        <ele>1927.8</ele>
        <time>2025-02-20T14:09:43Z</time>
      </trkpt>
      <trkpt lat="45.62475" lon="6.52271">
        <ele>1928.8</ele>
        <time>2025-02-20T14:09:44Z</time>
      </trkpt>
      <trkpt lat="45.62475" lon="6.52271">
        <ele>1927.6</ele>
        <time>2025-02-20T14:09:45Z</time>
      </trkpt>
      <trkpt lat="45.62475" lon="6.52271">
        <ele>1927.6</ele>
        <time>2025-02-20T14:09:46Z</time>
      </trkpt>
      <trkpt lat="45.62475" lon="6.52271">
        <ele>1927.6</ele>
        <time>2025-02-20T14:09:47Z</time>
      </trkpt>
      <trkpt lat="45.62475" lon="6.52271">
        <ele>1928.6</ele>
        <time>2025-02-20T14:09:48Z</time>
      </trkpt>
      <trkpt lat="45.62475" lon="6.52271">
        <ele>1929.4</ele>
        <time>2025-02-20T14:09:49Z</time>
      </trkpt>
      <trkpt lat="45.62475" lon="6.52271">
        <ele>1929.4</ele>
        <time>2025-02-20T14:09:50Z</time>
      </trkpt>
      <trkpt lat="45.62475" lon="6.52271">
        <ele>1929.4</ele>
        <time>2025-02-20T14:09:51Z</time>
      </trkpt>
      <trkpt lat="45.6248" lon="6.5227">
        <ele>1928.8</ele>
        <time>2025-02-20T14:09:52Z</time>
      </trkpt>
      <trkpt lat="45.6248" lon="6.5227">
        <ele>1929.4</ele>
        <time>2025-02-20T14:09:53Z</time>
      </trkpt>
      <trkpt lat="45.6248" lon="6.5227">
        <ele>1929.4</ele>
        <time>2025-02-20T14:09:54Z</time>
      </trkpt>
      <trkpt lat="45.62481" lon="6.5227">
        <ele>1929.4</ele>
        <time>2025-02-20T14:09:55Z</time>
      </trkpt>
      <trkpt lat="45.62481" lon="6.5227">
        <ele>1929.6</ele>
        <time>2025-02-20T14:09:56Z</time>
      </trkpt>
      <trkpt lat="45.62481" lon="6.5227">
        <ele>1928</ele>
        <time>2025-02-20T14:09:57Z</time>
      </trkpt>
      <trkpt lat="45.62481" lon="6.5227">
        <ele>1928</ele>
        <time>2025-02-20T14:09:58Z</time>
      </trkpt>
      <trkpt lat="45.62481" lon="6.5227">
        <ele>1928</ele>
        <time>2025-02-20T14:09:59Z</time>
      </trkpt>
      <trkpt lat="45.62481" lon="6.5227">
        <ele>1929</ele>
        <time>2025-02-20T14:10:00Z</time>
      </trkpt>
      <trkpt lat="45.62481" lon="6.5227">
        <ele>1930.2</ele>
        <time>2025-02-20T14:10:01Z</time>
      </trkpt>
      <trkpt lat="45.62484" lon="6.5227">
        <ele>1930.2</ele>
        <time>2025-02-20T14:10:02Z</time>
      </trkpt>
      <trkpt lat="45.62485" lon="6.52271">
        <ele>1930.2</ele>
        <time>2025-02-20T14:10:03Z</time>
      </trkpt>
      <trkpt lat="45.62485" lon="6.52271">
        <ele>1930.2</ele>
        <time>2025-02-20T14:10:04Z</time>
      </trkpt>
      <trkpt lat="45.62486" lon="6.52272">
        <ele>1931.2</ele>
        <time>2025-02-20T14:10:05Z</time>
      </trkpt>
      <trkpt lat="45.62487" lon="6.52272">
        <ele>1931.2</ele>
        <time>2025-02-20T14:10:06Z</time>
      </trkpt>
      <trkpt lat="45.62487" lon="6.52272">
        <ele>1931.2</ele>
        <time>2025-02-20T14:10:07Z</time>
      </trkpt>
      <trkpt lat="45.62487" lon="6.52272">
        <ele>1931.2</ele>
        <time>2025-02-20T14:10:08Z</time>
      </trkpt>
      <trkpt lat="45.62488" lon="6.52272">
        <ele>1929.4</ele>
        <time>2025-02-20T14:10:09Z</time>
      </trkpt>
      <trkpt lat="45.62488" lon="6.52272">
        <ele>1929.4</ele>
        <time>2025-02-20T14:10:10Z</time>
      </trkpt>
      <trkpt lat="45.62489" lon="6.52272">
        <ele>1929.4</ele>
        <time>2025-02-20T14:10:11Z</time>
      </trkpt>
      <trkpt lat="45.6249" lon="6.52272">
        <ele>1929.4</ele>
        <time>2025-02-20T14:10:12Z</time>
      </trkpt>
      <trkpt lat="45.6249" lon="6.52273">
        <ele>1931.4</ele>
        <time>2025-02-20T14:10:13Z</time>
      </trkpt>
      <trkpt lat="45.6249" lon="6.52273">
        <ele>1931.4</ele>
        <time>2025-02-20T14:10:14Z</time>
      </trkpt>
      <trkpt lat="45.62491" lon="6.52273">
        <ele>1931.4</ele>
        <time>2025-02-20T14:10:15Z</time>
      </trkpt>
      <trkpt lat="45.62491" lon="6.52273">
        <ele>1931.4</ele>
        <time>2025-02-20T14:10:16Z</time>
      </trkpt>
      <trkpt lat="45.62492" lon="6.52273">
        <ele>1932.4</ele>
        <time>2025-02-20T14:10:17Z</time>
      </trkpt>
      <trkpt lat="45.62492" lon="6.52273">
        <ele>1932.4</ele>
        <time>2025-02-20T14:10:18Z</time>
      </trkpt>
      <trkpt lat="45.62492" lon="6.52273">
        <ele>1932.4</ele>
        <time>2025-02-20T14:10:19Z</time>
      </trkpt>
      <trkpt lat="45.62493" lon="6.52273">
        <ele>1932.4</ele>
        <time>2025-02-20T14:10:20Z</time>
      </trkpt>
      <trkpt lat="45.62493" lon="6.52273">
        <ele>1932.2</ele>
        <time>2025-02-20T14:10:21Z</time>
      </trkpt>
      <trkpt lat="45.62493" lon="6.52273">
        <ele>1932.2</ele>
        <time>2025-02-20T14:10:22Z</time>
      </trkpt>
      <trkpt lat="45.62494" lon="6.52273">
        <ele>1932.2</ele>
        <time>2025-02-20T14:10:23Z</time>
      </trkpt>
      <trkpt lat="45.62494" lon="6.52274">
        <ele>1932.2</ele>
        <time>2025-02-20T14:10:24Z</time>
      </trkpt>
      <trkpt lat="45.62494" lon="6.52274">
        <ele>1931.6</ele>
        <time>2025-02-20T14:10:25Z</time>
      </trkpt>
      <trkpt lat="45.62494" lon="6.52275">
        <ele>1931.6</ele>
        <time>2025-02-20T14:10:26Z</time>
      </trkpt>
      <trkpt lat="45.62494" lon="6.52275">
        <ele>1931.6</ele>
        <time>2025-02-20T14:10:27Z</time>
      </trkpt>
      <trkpt lat="45.62494" lon="6.52276">
        <ele>1932.6</ele>
        <time>2025-02-20T14:10:28Z</time>
      </trkpt>
      <trkpt lat="45.62494" lon="6.52276">
        <ele>1933.4</ele>
        <time>2025-02-20T14:10:29Z</time>
      </trkpt>
      <trkpt lat="45.62494" lon="6.52277">
        <ele>1933.4</ele>
        <time>2025-02-20T14:10:30Z</time>
      </trkpt>
      <trkpt lat="45.62493" lon="6.52277">
        <ele>1933.4</ele>
        <time>2025-02-20T14:10:31Z</time>
      </trkpt>
      <trkpt lat="45.62493" lon="6.52277">
        <ele>1933.4</ele>
        <time>2025-02-20T14:10:32Z</time>
      </trkpt>
      <trkpt lat="45.62492" lon="6.52278">
        <ele>1934.2</ele>
        <time>2025-02-20T14:10:33Z</time>
      </trkpt>
      <trkpt lat="45.62492" lon="6.52278">
        <ele>1934.2</ele>
        <time>2025-02-20T14:10:34Z</time>
      </trkpt>
      <trkpt lat="45.62492" lon="6.52278">
        <ele>1934.2</ele>
        <time>2025-02-20T14:10:35Z</time>
      </trkpt>
      <trkpt lat="45.62492" lon="6.52278">
        <ele>1933.4</ele>
        <time>2025-02-20T14:10:36Z</time>
      </trkpt>
      <trkpt lat="45.62492" lon="6.52278">
        <ele>1934.6</ele>
        <time>2025-02-20T14:10:37Z</time>
      </trkpt>
      <trkpt lat="45.62491" lon="6.5228">
        <ele>1934.6</ele>
        <time>2025-02-20T14:10:38Z</time>
      </trkpt>
      <trkpt lat="45.62491" lon="6.5228">
        <ele>1934.6</ele>
        <time>2025-02-20T14:10:39Z</time>
      </trkpt>
      <trkpt lat="45.62491" lon="6.5228">
        <ele>1934.6</ele>
        <time>2025-02-20T14:10:40Z</time>
      </trkpt>
      <trkpt lat="45.62491" lon="6.5228">
        <ele>1934.8</ele>
        <time>2025-02-20T14:10:41Z</time>
      </trkpt>
      <trkpt lat="45.62491" lon="6.5228">
        <ele>1934.8</ele>
        <time>2025-02-20T14:10:42Z</time>
      </trkpt>
      <trkpt lat="45.62491" lon="6.5228">
        <ele>1934.8</ele>
        <time>2025-02-20T14:10:43Z</time>
      </trkpt>
      <trkpt lat="45.62491" lon="6.5228">
        <ele>1934.8</ele>
        <time>2025-02-20T14:10:44Z</time>
      </trkpt>
      <trkpt lat="45.62491" lon="6.5228">
        <ele>1934.4</ele>
        <time>2025-02-20T14:10:45Z</time>
      </trkpt>
      <trkpt lat="45.62491" lon="6.5228">
        <ele>1934.4</ele>
        <time>2025-02-20T14:10:46Z</time>
      </trkpt>
      <trkpt lat="45.62491" lon="6.5228">
        <ele>1934.4</ele>
        <time>2025-02-20T14:10:47Z</time>
      </trkpt>
      <trkpt lat="45.62491" lon="6.5228">
        <ele>1934.4</ele>
        <time>2025-02-20T14:10:48Z</time>
      </trkpt>
      <trkpt lat="45.62491" lon="6.5228">
        <ele>1935.4</ele>
        <time>2025-02-20T14:10:49Z</time>
      </trkpt>
      <trkpt lat="45.62491" lon="6.5228">
        <ele>1935.4</ele>
        <time>2025-02-20T14:10:50Z</time>
      </trkpt>
      <trkpt lat="45.62491" lon="6.5228">
        <ele>1935.4</ele>
        <time>2025-02-20T14:10:51Z</time>
      </trkpt>
      <trkpt lat="45.62491" lon="6.5228">
        <ele>1935.4</ele>
        <time>2025-02-20T14:10:52Z</time>
      </trkpt>
      <trkpt lat="45.62491" lon="6.5228">
        <ele>1935</ele>
        <time>2025-02-20T14:10:53Z</time>
      </trkpt>
      <trkpt lat="45.62491" lon="6.5228">
        <ele>1935</ele>
        <time>2025-02-20T14:10:54Z</time>
      </trkpt>
      <trkpt lat="45.62491" lon="6.5228">
        <ele>1935</ele>
        <time>2025-02-20T14:10:55Z</time>
      </trkpt>
      <trkpt lat="45.62491" lon="6.5228">
        <ele>1936</ele>
        <time>2025-02-20T14:10:56Z</time>
      </trkpt>
      <trkpt lat="45.62491" lon="6.5228">
        <ele>1935.6</ele>
        <time>2025-02-20T14:10:57Z</time>
      </trkpt>
      <trkpt lat="45.62491" lon="6.5228">
        <ele>1935.6</ele>
        <time>2025-02-20T14:10:58Z</time>
      </trkpt>
      <trkpt lat="45.62491" lon="6.5228">
        <ele>1935.6</ele>
        <time>2025-02-20T14:10:59Z</time>
      </trkpt>
      <trkpt lat="45.62491" lon="6.5228">
        <ele>1935.6</ele>
        <time>2025-02-20T14:11:00Z</time>
      </trkpt>
      <trkpt lat="45.62491" lon="6.5228">
        <ele>1936.2</ele>
        <time>2025-02-20T14:11:01Z</time>
      </trkpt>
      <trkpt lat="45.62491" lon="6.5228">
        <ele>1936.2</ele>
        <time>2025-02-20T14:11:02Z</time>
      </trkpt>
      <trkpt lat="45.62491" lon="6.5228">
        <ele>1936.2</ele>
        <time>2025-02-20T14:11:03Z</time>
      </trkpt>
      <trkpt lat="45.62491" lon="6.5228">
        <ele>1937.2</ele>
        <time>2025-02-20T14:11:04Z</time>
      </trkpt>
      <trkpt lat="45.62491" lon="6.5228">
        <ele>1936.8</ele>
        <time>2025-02-20T14:11:05Z</time>
      </trkpt>
      <trkpt lat="45.62491" lon="6.5228">
        <ele>1936.8</ele>
        <time>2025-02-20T14:11:06Z</time>
      </trkpt>
      <trkpt lat="45.62491" lon="6.5228">
        <ele>1936.8</ele>
        <time>2025-02-20T14:11:07Z</time>
      </trkpt>
      <trkpt lat="45.62493" lon="6.5229">
        <ele>1936.8</ele>
        <time>2025-02-20T14:11:08Z</time>
      </trkpt>
      <trkpt lat="45.62494" lon="6.52289">
        <ele>1936.8</ele>
        <time>2025-02-20T14:11:09Z</time>
      </trkpt>
      <trkpt lat="45.62494" lon="6.52289">
        <ele>1936.8</ele>
        <time>2025-02-20T14:11:10Z</time>
      </trkpt>
      <trkpt lat="45.62494" lon="6.52289">
        <ele>1936.8</ele>
        <time>2025-02-20T14:11:11Z</time>
      </trkpt>
      <trkpt lat="45.62494" lon="6.52289">
        <ele>1937.8</ele>
        <time>2025-02-20T14:11:12Z</time>
      </trkpt>
      <trkpt lat="45.62494" lon="6.52289">
        <ele>1938.2</ele>
        <time>2025-02-20T14:11:13Z</time>
      </trkpt>
      <trkpt lat="45.62496" lon="6.5229">
        <ele>1938.2</ele>
        <time>2025-02-20T14:11:14Z</time>
      </trkpt>
      <trkpt lat="45.62496" lon="6.5229">
        <ele>1938.2</ele>
        <time>2025-02-20T14:11:15Z</time>
      </trkpt>
      <trkpt lat="45.62496" lon="6.5229">
        <ele>1938.2</ele>
        <time>2025-02-20T14:11:16Z</time>
      </trkpt>
      <trkpt lat="45.62496" lon="6.5229">
        <ele>1938.2</ele>
        <time>2025-02-20T14:11:17Z</time>
      </trkpt>
      <trkpt lat="45.62497" lon="6.52289">
        <ele>1938.2</ele>
        <time>2025-02-20T14:11:18Z</time>
      </trkpt>
      <trkpt lat="45.62498" lon="6.5229">
        <ele>1938.2</ele>
        <time>2025-02-20T14:11:19Z</time>
      </trkpt>
      <trkpt lat="45.62498" lon="6.5229">
        <ele>1937.8</ele>
        <time>2025-02-20T14:11:20Z</time>
      </trkpt>
      <trkpt lat="45.62498" lon="6.5229">
        <ele>1938.2</ele>
        <time>2025-02-20T14:11:21Z</time>
      </trkpt>
      <trkpt lat="45.62499" lon="6.5229">
        <ele>1938.2</ele>
        <time>2025-02-20T14:11:22Z</time>
      </trkpt>
      <trkpt lat="45.62499" lon="6.5229">
        <ele>1938.2</ele>
        <time>2025-02-20T14:11:23Z</time>
      </trkpt>
      <trkpt lat="45.62499" lon="6.5229">
        <ele>1938.2</ele>
        <time>2025-02-20T14:11:24Z</time>
      </trkpt>
      <trkpt lat="45.62499" lon="6.5229">
        <ele>1939</ele>
        <time>2025-02-20T14:11:25Z</time>
      </trkpt>
      <trkpt lat="45.62499" lon="6.5229">
        <ele>1939</ele>
        <time>2025-02-20T14:11:26Z</time>
      </trkpt>
      <trkpt lat="45.62499" lon="6.52291">
        <ele>1939</ele>
        <time>2025-02-20T14:11:27Z</time>
      </trkpt>
      <trkpt lat="45.62499" lon="6.52292">
        <ele>1939</ele>
        <time>2025-02-20T14:11:28Z</time>
      </trkpt>
      <trkpt lat="45.62499" lon="6.52292">
        <ele>1940.2</ele>
        <time>2025-02-20T14:11:29Z</time>
      </trkpt>
      <trkpt lat="45.62499" lon="6.52294">
        <ele>1940.2</ele>
        <time>2025-02-20T14:11:30Z</time>
      </trkpt>
      <trkpt lat="45.62499" lon="6.52294">
        <ele>1940.2</ele>
        <time>2025-02-20T14:11:31Z</time>
      </trkpt>
      <trkpt lat="45.62499" lon="6.52294">
        <ele>1940.2</ele>
        <time>2025-02-20T14:11:32Z</time>
      </trkpt>
      <trkpt lat="45.62499" lon="6.52295">
        <ele>1939.2</ele>
        <time>2025-02-20T14:11:33Z</time>
      </trkpt>
      <trkpt lat="45.62499" lon="6.52295">
        <ele>1939.2</ele>
        <time>2025-02-20T14:11:34Z</time>
      </trkpt>
      <trkpt lat="45.62499" lon="6.52296">
        <ele>1939.2</ele>
        <time>2025-02-20T14:11:35Z</time>
      </trkpt>
      <trkpt lat="45.62499" lon="6.52296">
        <ele>1940.2</ele>
        <time>2025-02-20T14:11:36Z</time>
      </trkpt>
      <trkpt lat="45.62499" lon="6.52297">
        <ele>1939.6</ele>
        <time>2025-02-20T14:11:37Z</time>
      </trkpt>
      <trkpt lat="45.62499" lon="6.52297">
        <ele>1939.6</ele>
        <time>2025-02-20T14:11:38Z</time>
      </trkpt>
      <trkpt lat="45.62499" lon="6.52297">
        <ele>1939.6</ele>
        <time>2025-02-20T14:11:39Z</time>
      </trkpt>
      <trkpt lat="45.62499" lon="6.52297">
        <ele>1940.6</ele>
        <time>2025-02-20T14:11:40Z</time>
      </trkpt>
      <trkpt lat="45.62499" lon="6.52297">
        <ele>1941.6</ele>
        <time>2025-02-20T14:11:41Z</time>
      </trkpt>
      <trkpt lat="45.62499" lon="6.523">
        <ele>1941.6</ele>
        <time>2025-02-20T14:11:42Z</time>
      </trkpt>
      <trkpt lat="45.625" lon="6.523">
        <ele>1941.6</ele>
        <time>2025-02-20T14:11:43Z</time>
      </trkpt>
      <trkpt lat="45.625" lon="6.52301">
        <ele>1941</ele>
        <time>2025-02-20T14:11:44Z</time>
      </trkpt>
      <trkpt lat="45.625" lon="6.52301">
        <ele>1941</ele>
        <time>2025-02-20T14:11:45Z</time>
      </trkpt>
      <trkpt lat="45.625" lon="6.52301">
        <ele>1941</ele>
        <time>2025-02-20T14:11:46Z</time>
      </trkpt>
      <trkpt lat="45.625" lon="6.52301">
        <ele>1941</ele>
        <time>2025-02-20T14:11:47Z</time>
      </trkpt>
      <trkpt lat="45.625" lon="6.52301">
        <ele>1942</ele>
        <time>2025-02-20T14:11:48Z</time>
      </trkpt>
      <trkpt lat="45.625" lon="6.52303">
        <ele>1942.2</ele>
        <time>2025-02-20T14:11:49Z</time>
      </trkpt>
      <trkpt lat="45.625" lon="6.52303">
        <ele>1942.2</ele>
        <time>2025-02-20T14:11:50Z</time>
      </trkpt>
      <trkpt lat="45.625" lon="6.52303">
        <ele>1942.2</ele>
        <time>2025-02-20T14:11:51Z</time>
      </trkpt>
      <trkpt lat="45.625" lon="6.52303">
        <ele>1941.8</ele>
        <time>2025-02-20T14:11:52Z</time>
      </trkpt>
      <trkpt lat="45.625" lon="6.52303">
        <ele>1943.4</ele>
        <time>2025-02-20T14:11:53Z</time>
      </trkpt>
      <trkpt lat="45.62501" lon="6.52305">
        <ele>1943.4</ele>
        <time>2025-02-20T14:11:54Z</time>
      </trkpt>
      <trkpt lat="45.62501" lon="6.52305">
        <ele>1943.4</ele>
        <time>2025-02-20T14:11:55Z</time>
      </trkpt>
      <trkpt lat="45.62502" lon="6.52306">
        <ele>1942.4</ele>
        <time>2025-02-20T14:11:56Z</time>
      </trkpt>
      <trkpt lat="45.62502" lon="6.52306">
        <ele>1942.8</ele>
        <time>2025-02-20T14:11:57Z</time>
      </trkpt>
      <trkpt lat="45.62502" lon="6.52307">
        <ele>1942.8</ele>
        <time>2025-02-20T14:11:58Z</time>
      </trkpt>
      <trkpt lat="45.62502" lon="6.52307">
        <ele>1942.8</ele>
        <time>2025-02-20T14:11:59Z</time>
      </trkpt>
      <trkpt lat="45.62502" lon="6.52307">
        <ele>1943.8</ele>
        <time>2025-02-20T14:12:00Z</time>
      </trkpt>
      <trkpt lat="45.62502" lon="6.52307">
        <ele>1942.2</ele>
        <time>2025-02-20T14:12:01Z</time>
      </trkpt>
      <trkpt lat="45.62502" lon="6.52307">
        <ele>1942.2</ele>
        <time>2025-02-20T14:12:02Z</time>
      </trkpt>
      <trkpt lat="45.62502" lon="6.52307">
        <ele>1942.2</ele>
        <time>2025-02-20T14:12:03Z</time>
      </trkpt>
      <trkpt lat="45.62502" lon="6.52307">
        <ele>1943.2</ele>
        <time>2025-02-20T14:12:04Z</time>
      </trkpt>
      <trkpt lat="45.62502" lon="6.52307">
        <ele>1944.4</ele>
        <time>2025-02-20T14:12:05Z</time>
      </trkpt>
      <trkpt lat="45.62502" lon="6.52307">
        <ele>1944.4</ele>
        <time>2025-02-20T14:12:06Z</time>
      </trkpt>
      <trkpt lat="45.62502" lon="6.52307">
        <ele>1944.4</ele>
        <time>2025-02-20T14:12:07Z</time>
      </trkpt>
      <trkpt lat="45.62505" lon="6.52307">
        <ele>1944.4</ele>
        <time>2025-02-20T14:12:08Z</time>
      </trkpt>
      <trkpt lat="45.62505" lon="6.52307">
        <ele>1944</ele>
        <time>2025-02-20T14:12:09Z</time>
      </trkpt>
      <trkpt lat="45.62505" lon="6.52307">
        <ele>1944</ele>
        <time>2025-02-20T14:12:10Z</time>
      </trkpt>
      <trkpt lat="45.62505" lon="6.52307">
        <ele>1944</ele>
        <time>2025-02-20T14:12:11Z</time>
      </trkpt>
      <trkpt lat="45.62505" lon="6.52307">
        <ele>1944</ele>
        <time>2025-02-20T14:12:12Z</time>
      </trkpt>
      <trkpt lat="45.62507" lon="6.52305">
        <ele>1945.2</ele>
        <time>2025-02-20T14:12:13Z</time>
      </trkpt>
      <trkpt lat="45.62507" lon="6.52305">
        <ele>1945.2</ele>
        <time>2025-02-20T14:12:14Z</time>
      </trkpt>
      <trkpt lat="45.62507" lon="6.52305">
        <ele>1945.2</ele>
        <time>2025-02-20T14:12:15Z</time>
      </trkpt>
      <trkpt lat="45.62507" lon="6.52305">
        <ele>1945</ele>
        <time>2025-02-20T14:12:16Z</time>
      </trkpt>
      <trkpt lat="45.62508" lon="6.52304">
        <ele>1945</ele>
        <time>2025-02-20T14:12:17Z</time>
      </trkpt>
      <trkpt lat="45.62508" lon="6.52303">
        <ele>1945</ele>
        <time>2025-02-20T14:12:18Z</time>
      </trkpt>
      <trkpt lat="45.62508" lon="6.52303">
        <ele>1945</ele>
        <time>2025-02-20T14:12:19Z</time>
      </trkpt>
      <trkpt lat="45.62508" lon="6.52301">
        <ele>1946</ele>
        <time>2025-02-20T14:12:20Z</time>
      </trkpt>
      <trkpt lat="45.62508" lon="6.52301">
        <ele>1946</ele>
        <time>2025-02-20T14:12:21Z</time>
      </trkpt>
      <trkpt lat="45.62509" lon="6.52301">
        <ele>1946</ele>
        <time>2025-02-20T14:12:22Z</time>
      </trkpt>
      <trkpt lat="45.62509" lon="6.523">
        <ele>1946</ele>
        <time>2025-02-20T14:12:23Z</time>
      </trkpt>
      <trkpt lat="45.6251" lon="6.523">
        <ele>1945.8</ele>
        <time>2025-02-20T14:12:24Z</time>
      </trkpt>
      <trkpt lat="45.6251" lon="6.523">
        <ele>1946</ele>
        <time>2025-02-20T14:12:25Z</time>
      </trkpt>
      <trkpt lat="45.6251" lon="6.523">
        <ele>1946</ele>
        <time>2025-02-20T14:12:26Z</time>
      </trkpt>
      <trkpt lat="45.62511" lon="6.52299">
        <ele>1946</ele>
        <time>2025-02-20T14:12:27Z</time>
      </trkpt>
      <trkpt lat="45.62511" lon="6.52299">
        <ele>1946.8</ele>
        <time>2025-02-20T14:12:28Z</time>
      </trkpt>
      <trkpt lat="45.62511" lon="6.52298">
        <ele>1946.4</ele>
        <time>2025-02-20T14:12:29Z</time>
      </trkpt>
      <trkpt lat="45.62512" lon="6.52298">
        <ele>1946.4</ele>
        <time>2025-02-20T14:12:30Z</time>
      </trkpt>
      <trkpt lat="45.62512" lon="6.52298">
        <ele>1946.4</ele>
        <time>2025-02-20T14:12:31Z</time>
      </trkpt>
      <trkpt lat="45.62513" lon="6.52297">
        <ele>1946.4</ele>
        <time>2025-02-20T14:12:32Z</time>
      </trkpt>
      <trkpt lat="45.62513" lon="6.52297">
        <ele>1947.6</ele>
        <time>2025-02-20T14:12:33Z</time>
      </trkpt>
      <trkpt lat="45.62513" lon="6.52297">
        <ele>1947.6</ele>
        <time>2025-02-20T14:12:34Z</time>
      </trkpt>
      <trkpt lat="45.62513" lon="6.52297">
        <ele>1947.6</ele>
        <time>2025-02-20T14:12:35Z</time>
      </trkpt>
      <trkpt lat="45.62513" lon="6.52297">
        <ele>1947.6</ele>
        <time>2025-02-20T14:12:36Z</time>
      </trkpt>
      <trkpt lat="45.62513" lon="6.52297">
        <ele>1948.2</ele>
        <time>2025-02-20T14:12:37Z</time>
      </trkpt>
      <trkpt lat="45.62515" lon="6.52295">
        <ele>1948.2</ele>
        <time>2025-02-20T14:12:38Z</time>
      </trkpt>
      <trkpt lat="45.62515" lon="6.52295">
        <ele>1948.2</ele>
        <time>2025-02-20T14:12:39Z</time>
      </trkpt>
      <trkpt lat="45.62516" lon="6.52295">
        <ele>1948.2</ele>
        <time>2025-02-20T14:12:40Z</time>
      </trkpt>
      <trkpt lat="45.62516" lon="6.52295">
        <ele>1948</ele>
        <time>2025-02-20T14:12:41Z</time>
      </trkpt>
      <trkpt lat="45.62517" lon="6.52294">
        <ele>1948</ele>
        <time>2025-02-20T14:12:42Z</time>
      </trkpt>
      <trkpt lat="45.62517" lon="6.52294">
        <ele>1948</ele>
        <time>2025-02-20T14:12:43Z</time>
      </trkpt>
      <trkpt lat="45.62517" lon="6.52294">
        <ele>1949</ele>
        <time>2025-02-20T14:12:44Z</time>
      </trkpt>
      <trkpt lat="45.62517" lon="6.52293">
        <ele>1948.6</ele>
        <time>2025-02-20T14:12:45Z</time>
      </trkpt>
      <trkpt lat="45.62517" lon="6.52293">
        <ele>1948.6</ele>
        <time>2025-02-20T14:12:46Z</time>
      </trkpt>
      <trkpt lat="45.62517" lon="6.52293">
        <ele>1948.6</ele>
        <time>2025-02-20T14:12:47Z</time>
      </trkpt>
      <trkpt lat="45.62517" lon="6.52293">
        <ele>1948.6</ele>
        <time>2025-02-20T14:12:48Z</time>
      </trkpt>
      <trkpt lat="45.62517" lon="6.52293">
        <ele>1950.2</ele>
        <time>2025-02-20T14:12:49Z</time>
      </trkpt>
      <trkpt lat="45.62519" lon="6.52291">
        <ele>1950.2</ele>
        <time>2025-02-20T14:12:50Z</time>
      </trkpt>
      <trkpt lat="45.62518" lon="6.52291">
        <ele>1950.2</ele>
        <time>2025-02-20T14:12:51Z</time>
      </trkpt>
      <trkpt lat="45.62519" lon="6.52291">
        <ele>1950.2</ele>
        <time>2025-02-20T14:12:52Z</time>
      </trkpt>
      <trkpt lat="45.6252" lon="6.5229">
        <ele>1949.8</ele>
        <time>2025-02-20T14:12:53Z</time>
      </trkpt>
      <trkpt lat="45.6252" lon="6.5229">
        <ele>1949.8</ele>
        <time>2025-02-20T14:12:54Z</time>
      </trkpt>
      <trkpt lat="45.6252" lon="6.5229">
        <ele>1949.8</ele>
        <time>2025-02-20T14:12:55Z</time>
      </trkpt>
      <trkpt lat="45.62521" lon="6.52289">
        <ele>1950.8</ele>
        <time>2025-02-20T14:12:56Z</time>
      </trkpt>
      <trkpt lat="45.62521" lon="6.52288">
        <ele>1950.2</ele>
        <time>2025-02-20T14:12:57Z</time>
      </trkpt>
      <trkpt lat="45.62521" lon="6.52288">
        <ele>1950.2</ele>
        <time>2025-02-20T14:12:58Z</time>
      </trkpt>
      <trkpt lat="45.62521" lon="6.52288">
        <ele>1950.2</ele>
        <time>2025-02-20T14:12:59Z</time>
      </trkpt>
      <trkpt lat="45.62521" lon="6.52288">
        <ele>1950.2</ele>
        <time>2025-02-20T14:13:00Z</time>
      </trkpt>
      <trkpt lat="45.62521" lon="6.52288">
        <ele>1951.4</ele>
        <time>2025-02-20T14:13:01Z</time>
      </trkpt>
      <trkpt lat="45.62523" lon="6.52287">
        <ele>1951.4</ele>
        <time>2025-02-20T14:13:02Z</time>
      </trkpt>
      <trkpt lat="45.62523" lon="6.52286">
        <ele>1951.4</ele>
        <time>2025-02-20T14:13:03Z</time>
      </trkpt>
      <trkpt lat="45.62523" lon="6.52286">
        <ele>1951.4</ele>
        <time>2025-02-20T14:13:04Z</time>
      </trkpt>
      <trkpt lat="45.62524" lon="6.52286">
        <ele>1951.6</ele>
        <time>2025-02-20T14:13:05Z</time>
      </trkpt>
      <trkpt lat="45.62525" lon="6.52285">
        <ele>1951.6</ele>
        <time>2025-02-20T14:13:06Z</time>
      </trkpt>
      <trkpt lat="45.62525" lon="6.52285">
        <ele>1951.6</ele>
        <time>2025-02-20T14:13:07Z</time>
      </trkpt>
      <trkpt lat="45.62526" lon="6.52285">
        <ele>1951.6</ele>
        <time>2025-02-20T14:13:08Z</time>
      </trkpt>
      <trkpt lat="45.62526" lon="6.52285">
        <ele>1951.4</ele>
        <time>2025-02-20T14:13:09Z</time>
      </trkpt>
      <trkpt lat="45.62526" lon="6.52285">
        <ele>1951.4</ele>
        <time>2025-02-20T14:13:10Z</time>
      </trkpt>
      <trkpt lat="45.62527" lon="6.52284">
        <ele>1951.4</ele>
        <time>2025-02-20T14:13:11Z</time>
      </trkpt>
      <trkpt lat="45.62528" lon="6.52284">
        <ele>1952.2</ele>
        <time>2025-02-20T14:13:12Z</time>
      </trkpt>
      <trkpt lat="45.62528" lon="6.52284">
        <ele>1952.4</ele>
        <time>2025-02-20T14:13:13Z</time>
      </trkpt>
      <trkpt lat="45.62528" lon="6.52284">
        <ele>1952.4</ele>
        <time>2025-02-20T14:13:14Z</time>
      </trkpt>
      <trkpt lat="45.62529" lon="6.52283">
        <ele>1952.4</ele>
        <time>2025-02-20T14:13:15Z</time>
      </trkpt>
      <trkpt lat="45.62529" lon="6.52283">
        <ele>1952.4</ele>
        <time>2025-02-20T14:13:16Z</time>
      </trkpt>
      <trkpt lat="45.62529" lon="6.52283">
        <ele>1951.8</ele>
        <time>2025-02-20T14:13:17Z</time>
      </trkpt>
      <trkpt lat="45.62529" lon="6.52283">
        <ele>1951.8</ele>
        <time>2025-02-20T14:13:18Z</time>
      </trkpt>
      <trkpt lat="45.62529" lon="6.52283">
        <ele>1951.8</ele>
        <time>2025-02-20T14:13:19Z</time>
      </trkpt>
      <trkpt lat="45.6253" lon="6.52282">
        <ele>1951.8</ele>
        <time>2025-02-20T14:13:20Z</time>
      </trkpt>
      <trkpt lat="45.62531" lon="6.52282">
        <ele>1954</ele>
        <time>2025-02-20T14:13:21Z</time>
      </trkpt>
      <trkpt lat="45.62531" lon="6.52281">
        <ele>1954</ele>
        <time>2025-02-20T14:13:22Z</time>
      </trkpt>
      <trkpt lat="45.62532" lon="6.52282">
        <ele>1954</ele>
        <time>2025-02-20T14:13:23Z</time>
      </trkpt>
      <trkpt lat="45.62532" lon="6.52282">
        <ele>1953.4</ele>
        <time>2025-02-20T14:13:24Z</time>
      </trkpt>
      <trkpt lat="45.62533" lon="6.52282">
        <ele>1953.4</ele>
        <time>2025-02-20T14:13:25Z</time>
      </trkpt>
      <trkpt lat="45.62533" lon="6.52282">
        <ele>1953.4</ele>
        <time>2025-02-20T14:13:26Z</time>
      </trkpt>
      <trkpt lat="45.62533" lon="6.52282">
        <ele>1953.4</ele>
        <time>2025-02-20T14:13:27Z</time>
      </trkpt>
      <trkpt lat="45.62533" lon="6.52282">
        <ele>1954.4</ele>
        <time>2025-02-20T14:13:28Z</time>
      </trkpt>
      <trkpt lat="45.62533" lon="6.52282">
        <ele>1954.6</ele>
        <time>2025-02-20T14:13:29Z</time>
      </trkpt>
      <trkpt lat="45.62533" lon="6.52282">
        <ele>1954.6</ele>
        <time>2025-02-20T14:13:30Z</time>
      </trkpt>
      <trkpt lat="45.62533" lon="6.52282">
        <ele>1954.6</ele>
        <time>2025-02-20T14:13:31Z</time>
      </trkpt>
      <trkpt lat="45.62533" lon="6.52282">
        <ele>1954.2</ele>
        <time>2025-02-20T14:13:32Z</time>
      </trkpt>
      <trkpt lat="45.62533" lon="6.52282">
        <ele>1954.2</ele>
        <time>2025-02-20T14:13:33Z</time>
      </trkpt>
      <trkpt lat="45.62533" lon="6.52282">
        <ele>1954.2</ele>
        <time>2025-02-20T14:13:34Z</time>
      </trkpt>
      <trkpt lat="45.62533" lon="6.52282">
        <ele>1954.2</ele>
        <time>2025-02-20T14:13:35Z</time>
      </trkpt>
      <trkpt lat="45.62533" lon="6.52282">
        <ele>1955.2</ele>
        <time>2025-02-20T14:13:36Z</time>
      </trkpt>
      <trkpt lat="45.62533" lon="6.52282">
        <ele>1955.2</ele>
        <time>2025-02-20T14:13:37Z</time>
      </trkpt>
      <trkpt lat="45.62533" lon="6.52282">
        <ele>1955.2</ele>
        <time>2025-02-20T14:13:38Z</time>
      </trkpt>
      <trkpt lat="45.62533" lon="6.52282">
        <ele>1955.2</ele>
        <time>2025-02-20T14:13:39Z</time>
      </trkpt>
      <trkpt lat="45.62533" lon="6.52282">
        <ele>1954.6</ele>
        <time>2025-02-20T14:13:40Z</time>
      </trkpt>
      <trkpt lat="45.62537" lon="6.5228">
        <ele>1955.4</ele>
        <time>2025-02-20T14:13:41Z</time>
      </trkpt>
      <trkpt lat="45.62537" lon="6.5228">
        <ele>1955.4</ele>
        <time>2025-02-20T14:13:42Z</time>
      </trkpt>
      <trkpt lat="45.62538" lon="6.52279">
        <ele>1955.4</ele>
        <time>2025-02-20T14:13:43Z</time>
      </trkpt>
      <trkpt lat="45.62538" lon="6.52279">
        <ele>1955.8</ele>
        <time>2025-02-20T14:13:44Z</time>
      </trkpt>
      <trkpt lat="45.62538" lon="6.52279">
        <ele>1955</ele>
        <time>2025-02-20T14:13:45Z</time>
      </trkpt>
      <trkpt lat="45.62539" lon="6.52279">
        <ele>1955</ele>
        <time>2025-02-20T14:13:46Z</time>
      </trkpt>
      <trkpt lat="45.6254" lon="6.52278">
        <ele>1955</ele>
        <time>2025-02-20T14:13:47Z</time>
      </trkpt>
      <trkpt lat="45.6254" lon="6.52279">
        <ele>1956</ele>
        <time>2025-02-20T14:13:48Z</time>
      </trkpt>
      <trkpt lat="45.6254" lon="6.52279">
        <ele>1956.8</ele>
        <time>2025-02-20T14:13:49Z</time>
      </trkpt>
      <trkpt lat="45.62541" lon="6.52278">
        <ele>1956.8</ele>
        <time>2025-02-20T14:13:50Z</time>
      </trkpt>
      <trkpt lat="45.62541" lon="6.52277">
        <ele>1956.8</ele>
        <time>2025-02-20T14:13:51Z</time>
      </trkpt>
      <trkpt lat="45.62541" lon="6.52277">
        <ele>1955.8</ele>
        <time>2025-02-20T14:13:52Z</time>
      </trkpt>
      <trkpt lat="45.62541" lon="6.52277">
        <ele>1956.8</ele>
        <time>2025-02-20T14:13:53Z</time>
      </trkpt>
      <trkpt lat="45.62541" lon="6.52277">
        <ele>1956.8</ele>
        <time>2025-02-20T14:13:54Z</time>
      </trkpt>
      <trkpt lat="45.62541" lon="6.52277">
        <ele>1956.8</ele>
        <time>2025-02-20T14:13:55Z</time>
      </trkpt>
      <trkpt lat="45.62541" lon="6.52277">
        <ele>1956.8</ele>
        <time>2025-02-20T14:13:56Z</time>
      </trkpt>
      <trkpt lat="45.62543" lon="6.52277">
        <ele>1956.4</ele>
        <time>2025-02-20T14:13:57Z</time>
      </trkpt>
      <trkpt lat="45.62543" lon="6.52277">
        <ele>1956.4</ele>
        <time>2025-02-20T14:13:58Z</time>
      </trkpt>
      <trkpt lat="45.62543" lon="6.52277">
        <ele>1956.4</ele>
        <time>2025-02-20T14:13:59Z</time>
      </trkpt>
      <trkpt lat="45.62544" lon="6.52276">
        <ele>1957.4</ele>
        <time>2025-02-20T14:14:00Z</time>
      </trkpt>
      <trkpt lat="45.62544" lon="6.52276">
        <ele>1957.6</ele>
        <time>2025-02-20T14:14:01Z</time>
      </trkpt>
      <trkpt lat="45.62544" lon="6.52276">
        <ele>1957.6</ele>
        <time>2025-02-20T14:14:02Z</time>
      </trkpt>
      <trkpt lat="45.62544" lon="6.52276">
        <ele>1957.6</ele>
        <time>2025-02-20T14:14:03Z</time>
      </trkpt>
      <trkpt lat="45.62544" lon="6.52276">
        <ele>1957.6</ele>
        <time>2025-02-20T14:14:04Z</time>
      </trkpt>
      <trkpt lat="45.62544" lon="6.52276">
        <ele>1958.2</ele>
        <time>2025-02-20T14:14:05Z</time>
      </trkpt>
      <trkpt lat="45.62544" lon="6.52276">
        <ele>1958.2</ele>
        <time>2025-02-20T14:14:06Z</time>
      </trkpt>
      <trkpt lat="45.62544" lon="6.52276">
        <ele>1958.2</ele>
        <time>2025-02-20T14:14:07Z</time>
      </trkpt>
      <trkpt lat="45.62544" lon="6.52276">
        <ele>1958.2</ele>
        <time>2025-02-20T14:14:08Z</time>
      </trkpt>
      <trkpt lat="45.62544" lon="6.52276">
        <ele>1957.6</ele>
        <time>2025-02-20T14:14:09Z</time>
      </trkpt>
      <trkpt lat="45.62544" lon="6.52276">
        <ele>1957.6</ele>
        <time>2025-02-20T14:14:10Z</time>
      </trkpt>
      <trkpt lat="45.62544" lon="6.52276">
        <ele>1957.6</ele>
        <time>2025-02-20T14:14:11Z</time>
      </trkpt>
      <trkpt lat="45.62544" lon="6.52276">
        <ele>1958.6</ele>
        <time>2025-02-20T14:14:12Z</time>
      </trkpt>
      <trkpt lat="45.62544" lon="6.52276">
        <ele>1959</ele>
        <time>2025-02-20T14:14:13Z</time>
      </trkpt>
      <trkpt lat="45.62544" lon="6.52276">
        <ele>1959</ele>
        <time>2025-02-20T14:14:14Z</time>
      </trkpt>
      <trkpt lat="45.62544" lon="6.52276">
        <ele>1959</ele>
        <time>2025-02-20T14:14:15Z</time>
      </trkpt>
      <trkpt lat="45.62544" lon="6.52276">
        <ele>1959</ele>
        <time>2025-02-20T14:14:16Z</time>
      </trkpt>
      <trkpt lat="45.62544" lon="6.52276">
        <ele>1959.4</ele>
        <time>2025-02-20T14:14:17Z</time>
      </trkpt>
      <trkpt lat="45.62544" lon="6.52276">
        <ele>1959.4</ele>
        <time>2025-02-20T14:14:18Z</time>
      </trkpt>
      <trkpt lat="45.62544" lon="6.52276">
        <ele>1959.4</ele>
        <time>2025-02-20T14:14:19Z</time>
      </trkpt>
      <trkpt lat="45.62544" lon="6.52276">
        <ele>1959.4</ele>
        <time>2025-02-20T14:14:20Z</time>
      </trkpt>
      <trkpt lat="45.62544" lon="6.52276">
        <ele>1960.2</ele>
        <time>2025-02-20T14:14:21Z</time>
      </trkpt>
      <trkpt lat="45.62547" lon="6.52274">
        <ele>1960.2</ele>
        <time>2025-02-20T14:14:22Z</time>
      </trkpt>
      <trkpt lat="45.62547" lon="6.52275">
        <ele>1960.2</ele>
        <time>2025-02-20T14:14:23Z</time>
      </trkpt>
      <trkpt lat="45.62548" lon="6.52276">
        <ele>1960</ele>
        <time>2025-02-20T14:14:24Z</time>
      </trkpt>
      <trkpt lat="45.62548" lon="6.52276">
        <ele>1959.2</ele>
        <time>2025-02-20T14:14:25Z</time>
      </trkpt>
      <trkpt lat="45.62548" lon="6.52276">
        <ele>1959.2</ele>
        <time>2025-02-20T14:14:26Z</time>
      </trkpt>
      <trkpt lat="45.62548" lon="6.52278">
        <ele>1959.2</ele>
        <time>2025-02-20T14:14:27Z</time>
      </trkpt>
      <trkpt lat="45.62548" lon="6.52278">
        <ele>1960.2</ele>
        <time>2025-02-20T14:14:28Z</time>
      </trkpt>
      <trkpt lat="45.62548" lon="6.5228">
        <ele>1960</ele>
        <time>2025-02-20T14:14:29Z</time>
      </trkpt>
      <trkpt lat="45.62548" lon="6.5228">
        <ele>1960</ele>
        <time>2025-02-20T14:14:30Z</time>
      </trkpt>
      <trkpt lat="45.62548" lon="6.52281">
        <ele>1960</ele>
        <time>2025-02-20T14:14:31Z</time>
      </trkpt>
      <trkpt lat="45.62548" lon="6.52282">
        <ele>1960</ele>
        <time>2025-02-20T14:14:32Z</time>
      </trkpt>
      <trkpt lat="45.62547" lon="6.52283">
        <ele>1960.8</ele>
        <time>2025-02-20T14:14:33Z</time>
      </trkpt>
      <trkpt lat="45.62547" lon="6.52283">
        <ele>1960.8</ele>
        <time>2025-02-20T14:14:34Z</time>
      </trkpt>
      <trkpt lat="45.62547" lon="6.52283">
        <ele>1960.8</ele>
        <time>2025-02-20T14:14:35Z</time>
      </trkpt>
      <trkpt lat="45.62547" lon="6.52285">
        <ele>1960.8</ele>
        <time>2025-02-20T14:14:36Z</time>
      </trkpt>
      <trkpt lat="45.62547" lon="6.52285">
        <ele>1961.4</ele>
        <time>2025-02-20T14:14:37Z</time>
      </trkpt>
      <trkpt lat="45.62547" lon="6.52286">
        <ele>1961.4</ele>
        <time>2025-02-20T14:14:38Z</time>
      </trkpt>
      <trkpt lat="45.62547" lon="6.52286">
        <ele>1961.4</ele>
        <time>2025-02-20T14:14:39Z</time>
      </trkpt>
      <trkpt lat="45.62546" lon="6.52287">
        <ele>1961.4</ele>
        <time>2025-02-20T14:14:40Z</time>
      </trkpt>
      <trkpt lat="45.62546" lon="6.52288">
        <ele>1961.8</ele>
        <time>2025-02-20T14:14:41Z</time>
      </trkpt>
      <trkpt lat="45.62546" lon="6.52288">
        <ele>1961.8</ele>
        <time>2025-02-20T14:14:42Z</time>
      </trkpt>
      <trkpt lat="45.62546" lon="6.52289">
        <ele>1961.8</ele>
        <time>2025-02-20T14:14:43Z</time>
      </trkpt>
      <trkpt lat="45.62546" lon="6.5229">
        <ele>1961.8</ele>
        <time>2025-02-20T14:14:44Z</time>
      </trkpt>
      <trkpt lat="45.62546" lon="6.52291">
        <ele>1961.8</ele>
        <time>2025-02-20T14:14:45Z</time>
      </trkpt>
      <trkpt lat="45.62546" lon="6.52291">
        <ele>1961.8</ele>
        <time>2025-02-20T14:14:46Z</time>
      </trkpt>
      <trkpt lat="45.62546" lon="6.52292">
        <ele>1961.8</ele>
        <time>2025-02-20T14:14:47Z</time>
      </trkpt>
      <trkpt lat="45.62546" lon="6.52293">
        <ele>1961.8</ele>
        <time>2025-02-20T14:14:48Z</time>
      </trkpt>
      <trkpt lat="45.62546" lon="6.52293">
        <ele>1963.2</ele>
        <time>2025-02-20T14:14:49Z</time>
      </trkpt>
      <trkpt lat="45.62546" lon="6.52294">
        <ele>1963.2</ele>
        <time>2025-02-20T14:14:50Z</time>
      </trkpt>
      <trkpt lat="45.62546" lon="6.52294">
        <ele>1963.2</ele>
        <time>2025-02-20T14:14:51Z</time>
      </trkpt>
      <trkpt lat="45.62545" lon="6.52295">
        <ele>1963</ele>
        <time>2025-02-20T14:14:52Z</time>
      </trkpt>
      <trkpt lat="45.62545" lon="6.52295">
        <ele>1962.4</ele>
        <time>2025-02-20T14:14:53Z</time>
      </trkpt>
      <trkpt lat="45.62545" lon="6.52296">
        <ele>1962.4</ele>
        <time>2025-02-20T14:14:54Z</time>
      </trkpt>
      <trkpt lat="45.62545" lon="6.52297">
        <ele>1962.4</ele>
        <time>2025-02-20T14:14:55Z</time>
      </trkpt>
      <trkpt lat="45.62545" lon="6.52298">
        <ele>1963.4</ele>
        <time>2025-02-20T14:14:56Z</time>
      </trkpt>
      <trkpt lat="45.62545" lon="6.52299">
        <ele>1963</ele>
        <time>2025-02-20T14:14:57Z</time>
      </trkpt>
      <trkpt lat="45.62544" lon="6.52299">
        <ele>1963</ele>
        <time>2025-02-20T14:14:58Z</time>
      </trkpt>
      <trkpt lat="45.62544" lon="6.523">
        <ele>1963</ele>
        <time>2025-02-20T14:14:59Z</time>
      </trkpt>
      <trkpt lat="45.62544" lon="6.523">
        <ele>1963</ele>
        <time>2025-02-20T14:15:00Z</time>
      </trkpt>
      <trkpt lat="45.62544" lon="6.52301">
        <ele>1963.4</ele>
        <time>2025-02-20T14:15:01Z</time>
      </trkpt>
      <trkpt lat="45.62544" lon="6.52302">
        <ele>1963.4</ele>
        <time>2025-02-20T14:15:02Z</time>
      </trkpt>
      <trkpt lat="45.62544" lon="6.52302">
        <ele>1963.4</ele>
        <time>2025-02-20T14:15:03Z</time>
      </trkpt>
      <trkpt lat="45.62544" lon="6.52303">
        <ele>1963.4</ele>
        <time>2025-02-20T14:15:04Z</time>
      </trkpt>
      <trkpt lat="45.62544" lon="6.52303">
        <ele>1965.4</ele>
        <time>2025-02-20T14:15:05Z</time>
      </trkpt>
      <trkpt lat="45.62544" lon="6.52303">
        <ele>1965.4</ele>
        <time>2025-02-20T14:15:06Z</time>
      </trkpt>
      <trkpt lat="45.62544" lon="6.52303">
        <ele>1965.4</ele>
        <time>2025-02-20T14:15:07Z</time>
      </trkpt>
      <trkpt lat="45.62543" lon="6.52306">
        <ele>1964.4</ele>
        <time>2025-02-20T14:15:08Z</time>
      </trkpt>
      <trkpt lat="45.62544" lon="6.52306">
        <ele>1964.4</ele>
        <time>2025-02-20T14:15:09Z</time>
      </trkpt>
      <trkpt lat="45.62544" lon="6.52307">
        <ele>1964.4</ele>
        <time>2025-02-20T14:15:10Z</time>
      </trkpt>
      <trkpt lat="45.62544" lon="6.52307">
        <ele>1964.4</ele>
        <time>2025-02-20T14:15:11Z</time>
      </trkpt>
      <trkpt lat="45.62544" lon="6.52307">
        <ele>1965.4</ele>
        <time>2025-02-20T14:15:12Z</time>
      </trkpt>
      <trkpt lat="45.62544" lon="6.52307">
        <ele>1965.8</ele>
        <time>2025-02-20T14:15:13Z</time>
      </trkpt>
      <trkpt lat="45.62544" lon="6.52307">
        <ele>1965.8</ele>
        <time>2025-02-20T14:15:14Z</time>
      </trkpt>
      <trkpt lat="45.62544" lon="6.52307">
        <ele>1965.8</ele>
        <time>2025-02-20T14:15:15Z</time>
      </trkpt>
      <trkpt lat="45.62544" lon="6.52307">
        <ele>1965.8</ele>
        <time>2025-02-20T14:15:16Z</time>
      </trkpt>
      <trkpt lat="45.62544" lon="6.52307">
        <ele>1967</ele>
        <time>2025-02-20T14:15:17Z</time>
      </trkpt>
      <trkpt lat="45.62544" lon="6.52307">
        <ele>1967</ele>
        <time>2025-02-20T14:15:18Z</time>
      </trkpt>
      <trkpt lat="45.62544" lon="6.52307">
        <ele>1967</ele>
        <time>2025-02-20T14:15:19Z</time>
      </trkpt>
      <trkpt lat="45.62544" lon="6.52307">
        <ele>1966.4</ele>
        <time>2025-02-20T14:15:20Z</time>
      </trkpt>
      <trkpt lat="45.62544" lon="6.52307">
        <ele>1966.8</ele>
        <time>2025-02-20T14:15:21Z</time>
      </trkpt>
      <trkpt lat="45.62544" lon="6.52307">
        <ele>1966.8</ele>
        <time>2025-02-20T14:15:22Z</time>
      </trkpt>
      <trkpt lat="45.62544" lon="6.52307">
        <ele>1966.8</ele>
        <time>2025-02-20T14:15:23Z</time>
      </trkpt>
      <trkpt lat="45.62544" lon="6.52307">
        <ele>1966.8</ele>
        <time>2025-02-20T14:15:24Z</time>
      </trkpt>
      <trkpt lat="45.62544" lon="6.52307">
        <ele>1966.8</ele>
        <time>2025-02-20T14:15:25Z</time>
      </trkpt>
      <trkpt lat="45.62544" lon="6.52307">
        <ele>1966.8</ele>
        <time>2025-02-20T14:15:26Z</time>
      </trkpt>
      <trkpt lat="45.62546" lon="6.5231">
        <ele>1966.8</ele>
        <time>2025-02-20T14:15:27Z</time>
      </trkpt>
      <trkpt lat="45.62545" lon="6.5231">
        <ele>1966.8</ele>
        <time>2025-02-20T14:15:28Z</time>
      </trkpt>
      <trkpt lat="45.62546" lon="6.52309">
        <ele>1967.6</ele>
        <time>2025-02-20T14:15:29Z</time>
      </trkpt>
      <trkpt lat="45.62545" lon="6.52309">
        <ele>1967.6</ele>
        <time>2025-02-20T14:15:30Z</time>
      </trkpt>
      <trkpt lat="45.62545" lon="6.52309">
        <ele>1967.6</ele>
        <time>2025-02-20T14:15:31Z</time>
      </trkpt>
      <trkpt lat="45.62545" lon="6.52309">
        <ele>1967.6</ele>
        <time>2025-02-20T14:15:32Z</time>
      </trkpt>
      <trkpt lat="45.62545" lon="6.52309">
        <ele>1967.4</ele>
        <time>2025-02-20T14:15:33Z</time>
      </trkpt>
      <trkpt lat="45.62545" lon="6.52309">
        <ele>1967.4</ele>
        <time>2025-02-20T14:15:34Z</time>
      </trkpt>
      <trkpt lat="45.62545" lon="6.52309">
        <ele>1967.4</ele>
        <time>2025-02-20T14:15:35Z</time>
      </trkpt>
      <trkpt lat="45.62548" lon="6.52307">
        <ele>1968.4</ele>
        <time>2025-02-20T14:15:36Z</time>
      </trkpt>
      <trkpt lat="45.62548" lon="6.52306">
        <ele>1968.8</ele>
        <time>2025-02-20T14:15:37Z</time>
      </trkpt>
      <trkpt lat="45.62548" lon="6.52306">
        <ele>1968.8</ele>
        <time>2025-02-20T14:15:38Z</time>
      </trkpt>
      <trkpt lat="45.62548" lon="6.52306">
        <ele>1968.8</ele>
        <time>2025-02-20T14:15:39Z</time>
      </trkpt>
      <trkpt lat="45.62549" lon="6.52304">
        <ele>1967.8</ele>
        <time>2025-02-20T14:15:40Z</time>
      </trkpt>
      <trkpt lat="45.6255" lon="6.52304">
        <ele>1969.2</ele>
        <time>2025-02-20T14:15:41Z</time>
      </trkpt>
      <trkpt lat="45.6255" lon="6.52304">
        <ele>1969.2</ele>
        <time>2025-02-20T14:15:42Z</time>
      </trkpt>
      <trkpt lat="45.6255" lon="6.52304">
        <ele>1969.2</ele>
        <time>2025-02-20T14:15:43Z</time>
      </trkpt>
      <trkpt lat="45.62551" lon="6.52304">
        <ele>1969.2</ele>
        <time>2025-02-20T14:15:44Z</time>
      </trkpt>
      <trkpt lat="45.62551" lon="6.52303">
        <ele>1969.6</ele>
        <time>2025-02-20T14:15:45Z</time>
      </trkpt>
      <trkpt lat="45.62552" lon="6.52303">
        <ele>1969.6</ele>
        <time>2025-02-20T14:15:46Z</time>
      </trkpt>
      <trkpt lat="45.62553" lon="6.52303">
        <ele>1969.6</ele>
        <time>2025-02-20T14:15:47Z</time>
      </trkpt>
      <trkpt lat="45.62553" lon="6.52303">
        <ele>1969.6</ele>
        <time>2025-02-20T14:15:48Z</time>
      </trkpt>
      <trkpt lat="45.62554" lon="6.52303">
        <ele>1969.6</ele>
        <time>2025-02-20T14:15:49Z</time>
      </trkpt>
      <trkpt lat="45.62554" lon="6.52303">
        <ele>1969.6</ele>
        <time>2025-02-20T14:15:50Z</time>
      </trkpt>
      <trkpt lat="45.62554" lon="6.52303">
        <ele>1969.6</ele>
        <time>2025-02-20T14:15:51Z</time>
      </trkpt>
      <trkpt lat="45.62555" lon="6.52303">
        <ele>1970.6</ele>
        <time>2025-02-20T14:15:52Z</time>
      </trkpt>
      <trkpt lat="45.62555" lon="6.52303">
        <ele>1971</ele>
        <time>2025-02-20T14:15:53Z</time>
      </trkpt>
      <trkpt lat="45.62555" lon="6.52303">
        <ele>1971</ele>
        <time>2025-02-20T14:15:54Z</time>
      </trkpt>
      <trkpt lat="45.62555" lon="6.52303">
        <ele>1971</ele>
        <time>2025-02-20T14:15:55Z</time>
      </trkpt>
      <trkpt lat="45.62555" lon="6.52303">
        <ele>1970.4</ele>
        <time>2025-02-20T14:15:56Z</time>
      </trkpt>
      <trkpt lat="45.62555" lon="6.52303">
        <ele>1971</ele>
        <time>2025-02-20T14:15:57Z</time>
      </trkpt>
      <trkpt lat="45.62555" lon="6.52303">
        <ele>1971</ele>
        <time>2025-02-20T14:15:58Z</time>
      </trkpt>
      <trkpt lat="45.62555" lon="6.52303">
        <ele>1971</ele>
        <time>2025-02-20T14:15:59Z</time>
      </trkpt>
      <trkpt lat="45.62555" lon="6.52303">
        <ele>1971.4</ele>
        <time>2025-02-20T14:16:00Z</time>
      </trkpt>
      <trkpt lat="45.62559" lon="6.52302">
        <ele>1970.4</ele>
        <time>2025-02-20T14:16:01Z</time>
      </trkpt>
      <trkpt lat="45.62559" lon="6.52302">
        <ele>1970.4</ele>
        <time>2025-02-20T14:16:02Z</time>
      </trkpt>
      <trkpt lat="45.62559" lon="6.52302">
        <ele>1970.4</ele>
        <time>2025-02-20T14:16:03Z</time>
      </trkpt>
      <trkpt lat="45.6256" lon="6.52302">
        <ele>1970.4</ele>
        <time>2025-02-20T14:16:04Z</time>
      </trkpt>
      <trkpt lat="45.62561" lon="6.52302">
        <ele>1972</ele>
        <time>2025-02-20T14:16:05Z</time>
      </trkpt>
      <trkpt lat="45.62561" lon="6.52302">
        <ele>1972</ele>
        <time>2025-02-20T14:16:06Z</time>
      </trkpt>
      <trkpt lat="45.62561" lon="6.52302">
        <ele>1972</ele>
        <time>2025-02-20T14:16:07Z</time>
      </trkpt>
      <trkpt lat="45.62561" lon="6.52302">
        <ele>1972</ele>
        <time>2025-02-20T14:16:08Z</time>
      </trkpt>
      <trkpt lat="45.62562" lon="6.52302">
        <ele>1971.2</ele>
        <time>2025-02-20T14:16:09Z</time>
      </trkpt>
      <trkpt lat="45.62562" lon="6.52302">
        <ele>1971.2</ele>
        <time>2025-02-20T14:16:10Z</time>
      </trkpt>
      <trkpt lat="45.62562" lon="6.52302">
        <ele>1971.2</ele>
        <time>2025-02-20T14:16:11Z</time>
      </trkpt>
      <trkpt lat="45.62562" lon="6.52302">
        <ele>1972.2</ele>
        <time>2025-02-20T14:16:12Z</time>
      </trkpt>
      <trkpt lat="45.62563" lon="6.52302">
        <ele>1972.4</ele>
        <time>2025-02-20T14:16:13Z</time>
      </trkpt>
      <trkpt lat="45.62564" lon="6.52302">
        <ele>1972.4</ele>
        <time>2025-02-20T14:16:14Z</time>
      </trkpt>
      <trkpt lat="45.62564" lon="6.52302">
        <ele>1972.4</ele>
        <time>2025-02-20T14:16:15Z</time>
      </trkpt>
      <trkpt lat="45.62564" lon="6.52302">
        <ele>1972.2</ele>
        <time>2025-02-20T14:16:16Z</time>
      </trkpt>
      <trkpt lat="45.62564" lon="6.52302">
        <ele>1972.8</ele>
        <time>2025-02-20T14:16:17Z</time>
      </trkpt>
      <trkpt lat="45.62566" lon="6.52301">
        <ele>1972.8</ele>
        <time>2025-02-20T14:16:18Z</time>
      </trkpt>
      <trkpt lat="45.62566" lon="6.52301">
        <ele>1972.8</ele>
        <time>2025-02-20T14:16:19Z</time>
      </trkpt>
      <trkpt lat="45.62566" lon="6.52301">
        <ele>1972.8</ele>
        <time>2025-02-20T14:16:20Z</time>
      </trkpt>
      <trkpt lat="45.62566" lon="6.52301">
        <ele>1972.4</ele>
        <time>2025-02-20T14:16:21Z</time>
      </trkpt>
      <trkpt lat="45.62566" lon="6.52301">
        <ele>1972.4</ele>
        <time>2025-02-20T14:16:22Z</time>
      </trkpt>
      <trkpt lat="45.62566" lon="6.52301">
        <ele>1972.4</ele>
        <time>2025-02-20T14:16:23Z</time>
      </trkpt>
      <trkpt lat="45.62566" lon="6.52301">
        <ele>1973.4</ele>
        <time>2025-02-20T14:16:24Z</time>
      </trkpt>
      <trkpt lat="45.62566" lon="6.52301">
        <ele>1974.2</ele>
        <time>2025-02-20T14:16:25Z</time>
      </trkpt>
      <trkpt lat="45.62566" lon="6.52301">
        <ele>1974.2</ele>
        <time>2025-02-20T14:16:26Z</time>
      </trkpt>
      <trkpt lat="45.62569" lon="6.523">
        <ele>1974.2</ele>
        <time>2025-02-20T14:16:27Z</time>
      </trkpt>
      <trkpt lat="45.6257" lon="6.523">
        <ele>1974.2</ele>
        <time>2025-02-20T14:16:28Z</time>
      </trkpt>
      <trkpt lat="45.6257" lon="6.523">
        <ele>1973.8</ele>
        <time>2025-02-20T14:16:29Z</time>
      </trkpt>
      <trkpt lat="45.62571" lon="6.523">
        <ele>1973.8</ele>
        <time>2025-02-20T14:16:30Z</time>
      </trkpt>
      <trkpt lat="45.62571" lon="6.52299">
        <ele>1973.8</ele>
        <time>2025-02-20T14:16:31Z</time>
      </trkpt>
      <trkpt lat="45.62572" lon="6.52299">
        <ele>1974.8</ele>
        <time>2025-02-20T14:16:32Z</time>
      </trkpt>
      <trkpt lat="45.62572" lon="6.52299">
        <ele>1975</ele>
        <time>2025-02-20T14:16:33Z</time>
      </trkpt>
      <trkpt lat="45.62572" lon="6.52299">
        <ele>1975</ele>
        <time>2025-02-20T14:16:34Z</time>
      </trkpt>
      <trkpt lat="45.62572" lon="6.52299">
        <ele>1975</ele>
        <time>2025-02-20T14:16:35Z</time>
      </trkpt>
      <trkpt lat="45.62573" lon="6.52299">
        <ele>1974.4</ele>
        <time>2025-02-20T14:16:36Z</time>
      </trkpt>
      <trkpt lat="45.62573" lon="6.52298">
        <ele>1975.2</ele>
        <time>2025-02-20T14:16:37Z</time>
      </trkpt>
      <trkpt lat="45.62573" lon="6.52299">
        <ele>1975.2</ele>
        <time>2025-02-20T14:16:38Z</time>
      </trkpt>
      <trkpt lat="45.62574" lon="6.52298">
        <ele>1975.2</ele>
        <time>2025-02-20T14:16:39Z</time>
      </trkpt>
      <trkpt lat="45.62574" lon="6.52298">
        <ele>1975.6</ele>
        <time>2025-02-20T14:16:40Z</time>
      </trkpt>
      <trkpt lat="45.62574" lon="6.52298">
        <ele>1974.8</ele>
        <time>2025-02-20T14:16:41Z</time>
      </trkpt>
      <trkpt lat="45.62574" lon="6.52298">
        <ele>1974.8</ele>
        <time>2025-02-20T14:16:42Z</time>
      </trkpt>
      <trkpt lat="45.62574" lon="6.52298">
        <ele>1974.8</ele>
        <time>2025-02-20T14:16:43Z</time>
      </trkpt>
      <trkpt lat="45.62574" lon="6.52298">
        <ele>1975.8</ele>
        <time>2025-02-20T14:16:44Z</time>
      </trkpt>
      <trkpt lat="45.62574" lon="6.52298">
        <ele>1976.2</ele>
        <time>2025-02-20T14:16:45Z</time>
      </trkpt>
      <trkpt lat="45.62574" lon="6.52298">
        <ele>1976.2</ele>
        <time>2025-02-20T14:16:46Z</time>
      </trkpt>
      <trkpt lat="45.62574" lon="6.52298">
        <ele>1976.2</ele>
        <time>2025-02-20T14:16:47Z</time>
      </trkpt>
      <trkpt lat="45.62574" lon="6.52298">
        <ele>1976.2</ele>
        <time>2025-02-20T14:16:48Z</time>
      </trkpt>
      <trkpt lat="45.62574" lon="6.52298">
        <ele>1976.2</ele>
        <time>2025-02-20T14:16:49Z</time>
      </trkpt>
      <trkpt lat="45.62574" lon="6.52298">
        <ele>1976.2</ele>
        <time>2025-02-20T14:16:50Z</time>
      </trkpt>
      <trkpt lat="45.62574" lon="6.52298">
        <ele>1976.2</ele>
        <time>2025-02-20T14:16:51Z</time>
      </trkpt>
      <trkpt lat="45.62574" lon="6.52298">
        <ele>1976.2</ele>
        <time>2025-02-20T14:16:52Z</time>
      </trkpt>
      <trkpt lat="45.62574" lon="6.52298">
        <ele>1976.6</ele>
        <time>2025-02-20T14:16:53Z</time>
      </trkpt>
      <trkpt lat="45.62575" lon="6.52297">
        <ele>1976.6</ele>
        <time>2025-02-20T14:16:54Z</time>
      </trkpt>
      <trkpt lat="45.62575" lon="6.52298">
        <ele>1976.6</ele>
        <time>2025-02-20T14:16:55Z</time>
      </trkpt>
      <trkpt lat="45.62575" lon="6.52299">
        <ele>1976.6</ele>
        <time>2025-02-20T14:16:56Z</time>
      </trkpt>
      <trkpt lat="45.62575" lon="6.523">
        <ele>1977</ele>
        <time>2025-02-20T14:16:57Z</time>
      </trkpt>
      <trkpt lat="45.62575" lon="6.523">
        <ele>1977</ele>
        <time>2025-02-20T14:16:58Z</time>
      </trkpt>
      <trkpt lat="45.62575" lon="6.52301">
        <ele>1977</ele>
        <time>2025-02-20T14:16:59Z</time>
      </trkpt>
      <trkpt lat="45.62575" lon="6.52301">
        <ele>1977</ele>
        <time>2025-02-20T14:17:00Z</time>
      </trkpt>
      <trkpt lat="45.62575" lon="6.52303">
        <ele>1977</ele>
        <time>2025-02-20T14:17:01Z</time>
      </trkpt>
      <trkpt lat="45.62575" lon="6.52303">
        <ele>1977</ele>
        <time>2025-02-20T14:17:02Z</time>
      </trkpt>
      <trkpt lat="45.62575" lon="6.52303">
        <ele>1977</ele>
        <time>2025-02-20T14:17:03Z</time>
      </trkpt>
      <trkpt lat="45.62575" lon="6.52305">
        <ele>1977</ele>
        <time>2025-02-20T14:17:04Z</time>
      </trkpt>
      <trkpt lat="45.62575" lon="6.52305">
        <ele>1978.4</ele>
        <time>2025-02-20T14:17:05Z</time>
      </trkpt>
      <trkpt lat="45.62575" lon="6.52306">
        <ele>1978.4</ele>
        <time>2025-02-20T14:17:06Z</time>
      </trkpt>
      <trkpt lat="45.62575" lon="6.52307">
        <ele>1978.4</ele>
        <time>2025-02-20T14:17:07Z</time>
      </trkpt>
      <trkpt lat="45.62575" lon="6.52307">
        <ele>1978.4</ele>
        <time>2025-02-20T14:17:08Z</time>
      </trkpt>
      <trkpt lat="45.62576" lon="6.52308">
        <ele>1978.2</ele>
        <time>2025-02-20T14:17:09Z</time>
      </trkpt>
      <trkpt lat="45.62576" lon="6.52309">
        <ele>1978.2</ele>
        <time>2025-02-20T14:17:10Z</time>
      </trkpt>
      <trkpt lat="45.62576" lon="6.5231">
        <ele>1978.2</ele>
        <time>2025-02-20T14:17:11Z</time>
      </trkpt>
      <trkpt lat="45.62576" lon="6.5231">
        <ele>1978.8</ele>
        <time>2025-02-20T14:17:12Z</time>
      </trkpt>
      <trkpt lat="45.62576" lon="6.52311">
        <ele>1978.4</ele>
        <time>2025-02-20T14:17:13Z</time>
      </trkpt>
      <trkpt lat="45.62576" lon="6.52311">
        <ele>1978.4</ele>
        <time>2025-02-20T14:17:14Z</time>
      </trkpt>
      <trkpt lat="45.62576" lon="6.52311">
        <ele>1978.4</ele>
        <time>2025-02-20T14:17:15Z</time>
      </trkpt>
      <trkpt lat="45.62576" lon="6.52311">
        <ele>1978.4</ele>
        <time>2025-02-20T14:17:16Z</time>
      </trkpt>
      <trkpt lat="45.62576" lon="6.52311">
        <ele>1980</ele>
        <time>2025-02-20T14:17:17Z</time>
      </trkpt>
      <trkpt lat="45.62576" lon="6.52314">
        <ele>1980</ele>
        <time>2025-02-20T14:17:18Z</time>
      </trkpt>
      <trkpt lat="45.62576" lon="6.52314">
        <ele>1980</ele>
        <time>2025-02-20T14:17:19Z</time>
      </trkpt>
      <trkpt lat="45.62576" lon="6.52315">
        <ele>1980</ele>
        <time>2025-02-20T14:17:20Z</time>
      </trkpt>
      <trkpt lat="45.62576" lon="6.52315">
        <ele>1979.4</ele>
        <time>2025-02-20T14:17:21Z</time>
      </trkpt>
      <trkpt lat="45.62576" lon="6.52315">
        <ele>1979.4</ele>
        <time>2025-02-20T14:17:22Z</time>
      </trkpt>
      <trkpt lat="45.62576" lon="6.52316">
        <ele>1979.4</ele>
        <time>2025-02-20T14:17:23Z</time>
      </trkpt>
      <trkpt lat="45.62576" lon="6.52317">
        <ele>1980</ele>
        <time>2025-02-20T14:17:24Z</time>
      </trkpt>
      <trkpt lat="45.62576" lon="6.52318">
        <ele>1979.2</ele>
        <time>2025-02-20T14:17:25Z</time>
      </trkpt>
      <trkpt lat="45.62576" lon="6.52318">
        <ele>1979.2</ele>
        <time>2025-02-20T14:17:26Z</time>
      </trkpt>
      <trkpt lat="45.62575" lon="6.52319">
        <ele>1979.2</ele>
        <time>2025-02-20T14:17:27Z</time>
      </trkpt>
      <trkpt lat="45.62575" lon="6.52319">
        <ele>1979.8</ele>
        <time>2025-02-20T14:17:28Z</time>
      </trkpt>
      <trkpt lat="45.62575" lon="6.52319">
        <ele>1981</ele>
        <time>2025-02-20T14:17:29Z</time>
      </trkpt>
      <trkpt lat="45.62575" lon="6.5232">
        <ele>1981</ele>
        <time>2025-02-20T14:17:30Z</time>
      </trkpt>
      <trkpt lat="45.62575" lon="6.52321">
        <ele>1981</ele>
        <time>2025-02-20T14:17:31Z</time>
      </trkpt>
      <trkpt lat="45.62575" lon="6.52322">
        <ele>1980.4</ele>
        <time>2025-02-20T14:17:32Z</time>
      </trkpt>
      <trkpt lat="45.62576" lon="6.52322">
        <ele>1980</ele>
        <time>2025-02-20T14:17:33Z</time>
      </trkpt>
      <trkpt lat="45.62575" lon="6.52323">
        <ele>1980</ele>
        <time>2025-02-20T14:17:34Z</time>
      </trkpt>
      <trkpt lat="45.62576" lon="6.52324">
        <ele>1980</ele>
        <time>2025-02-20T14:17:35Z</time>
      </trkpt>
      <trkpt lat="45.62576" lon="6.52324">
        <ele>1981</ele>
        <time>2025-02-20T14:17:36Z</time>
      </trkpt>
      <trkpt lat="45.62575" lon="6.52326">
        <ele>1981.6</ele>
        <time>2025-02-20T14:17:37Z</time>
      </trkpt>
      <trkpt lat="45.62575" lon="6.52326">
        <ele>1981.6</ele>
        <time>2025-02-20T14:17:38Z</time>
      </trkpt>
      <trkpt lat="45.62575" lon="6.52327">
        <ele>1981.6</ele>
        <time>2025-02-20T14:17:39Z</time>
      </trkpt>
      <trkpt lat="45.62575" lon="6.52327">
        <ele>1981.6</ele>
        <time>2025-02-20T14:17:40Z</time>
      </trkpt>
      <trkpt lat="45.62575" lon="6.52328">
        <ele>1982.4</ele>
        <time>2025-02-20T14:17:41Z</time>
      </trkpt>
      <trkpt lat="45.62575" lon="6.52329">
        <ele>1982.4</ele>
        <time>2025-02-20T14:17:42Z</time>
      </trkpt>
      <trkpt lat="45.62575" lon="6.52329">
        <ele>1982.4</ele>
        <time>2025-02-20T14:17:43Z</time>
      </trkpt>
      <trkpt lat="45.62575" lon="6.5233">
        <ele>1982.4</ele>
        <time>2025-02-20T14:17:44Z</time>
      </trkpt>
      <trkpt lat="45.62575" lon="6.52331">
        <ele>1981.8</ele>
        <time>2025-02-20T14:17:45Z</time>
      </trkpt>
      <trkpt lat="45.62575" lon="6.52332">
        <ele>1981.8</ele>
        <time>2025-02-20T14:17:46Z</time>
      </trkpt>
      <trkpt lat="45.62575" lon="6.52332">
        <ele>1981.8</ele>
        <time>2025-02-20T14:17:47Z</time>
      </trkpt>
      <trkpt lat="45.62575" lon="6.52332">
        <ele>1981.8</ele>
        <time>2025-02-20T14:17:48Z</time>
      </trkpt>
      <trkpt lat="45.62575" lon="6.52334">
        <ele>1983</ele>
        <time>2025-02-20T14:17:49Z</time>
      </trkpt>
      <trkpt lat="45.62576" lon="6.52334">
        <ele>1983</ele>
        <time>2025-02-20T14:17:50Z</time>
      </trkpt>
      <trkpt lat="45.62575" lon="6.52335">
        <ele>1983</ele>
        <time>2025-02-20T14:17:51Z</time>
      </trkpt>
      <trkpt lat="45.62576" lon="6.52335">
        <ele>1982.2</ele>
        <time>2025-02-20T14:17:52Z</time>
      </trkpt>
      <trkpt lat="45.62576" lon="6.52336">
        <ele>1983.4</ele>
        <time>2025-02-20T14:17:53Z</time>
      </trkpt>
      <trkpt lat="45.62576" lon="6.52337">
        <ele>1983.4</ele>
        <time>2025-02-20T14:17:54Z</time>
      </trkpt>
      <trkpt lat="45.62576" lon="6.52337">
        <ele>1983.4</ele>
        <time>2025-02-20T14:17:55Z</time>
      </trkpt>
      <trkpt lat="45.62576" lon="6.52338">
        <ele>1983.4</ele>
        <time>2025-02-20T14:17:56Z</time>
      </trkpt>
      <trkpt lat="45.62576" lon="6.52338">
        <ele>1984.4</ele>
        <time>2025-02-20T14:17:57Z</time>
      </trkpt>
      <trkpt lat="45.62576" lon="6.52339">
        <ele>1984.4</ele>
        <time>2025-02-20T14:17:58Z</time>
      </trkpt>
      <trkpt lat="45.62576" lon="6.52339">
        <ele>1984.4</ele>
        <time>2025-02-20T14:17:59Z</time>
      </trkpt>
      <trkpt lat="45.62575" lon="6.5234">
        <ele>1983.6</ele>
        <time>2025-02-20T14:18:00Z</time>
      </trkpt>
      <trkpt lat="45.62576" lon="6.52341">
        <ele>1982.8</ele>
        <time>2025-02-20T14:18:01Z</time>
      </trkpt>
      <trkpt lat="45.62576" lon="6.52341">
        <ele>1982.8</ele>
        <time>2025-02-20T14:18:02Z</time>
      </trkpt>
      <trkpt lat="45.62576" lon="6.52341">
        <ele>1982.8</ele>
        <time>2025-02-20T14:18:03Z</time>
      </trkpt>
      <trkpt lat="45.62576" lon="6.52341">
        <ele>1983.8</ele>
        <time>2025-02-20T14:18:04Z</time>
      </trkpt>
      <trkpt lat="45.62576" lon="6.52341">
        <ele>1984.4</ele>
        <time>2025-02-20T14:18:05Z</time>
      </trkpt>
      <trkpt lat="45.62576" lon="6.52341">
        <ele>1984.4</ele>
        <time>2025-02-20T14:18:06Z</time>
      </trkpt>
      <trkpt lat="45.62576" lon="6.52341">
        <ele>1984.4</ele>
        <time>2025-02-20T14:18:07Z</time>
      </trkpt>
      <trkpt lat="45.62576" lon="6.52341">
        <ele>1984.2</ele>
        <time>2025-02-20T14:18:08Z</time>
      </trkpt>
      <trkpt lat="45.62576" lon="6.52341">
        <ele>1984.2</ele>
        <time>2025-02-20T14:18:09Z</time>
      </trkpt>
      <trkpt lat="45.62576" lon="6.52341">
        <ele>1984.2</ele>
        <time>2025-02-20T14:18:10Z</time>
      </trkpt>
      <trkpt lat="45.62576" lon="6.52341">
        <ele>1984.2</ele>
        <time>2025-02-20T14:18:11Z</time>
      </trkpt>
      <trkpt lat="45.62576" lon="6.52341">
        <ele>1984</ele>
        <time>2025-02-20T14:18:12Z</time>
      </trkpt>
      <trkpt lat="45.62576" lon="6.52341">
        <ele>1984.2</ele>
        <time>2025-02-20T14:18:13Z</time>
      </trkpt>
      <trkpt lat="45.62576" lon="6.52341">
        <ele>1984.2</ele>
        <time>2025-02-20T14:18:14Z</time>
      </trkpt>
      <trkpt lat="45.62576" lon="6.52341">
        <ele>1984.2</ele>
        <time>2025-02-20T14:18:15Z</time>
      </trkpt>
      <trkpt lat="45.62576" lon="6.52341">
        <ele>1984.2</ele>
        <time>2025-02-20T14:18:16Z</time>
      </trkpt>
      <trkpt lat="45.62576" lon="6.52341">
        <ele>1984.2</ele>
        <time>2025-02-20T14:18:17Z</time>
      </trkpt>
      <trkpt lat="45.62576" lon="6.52341">
        <ele>1984.2</ele>
        <time>2025-02-20T14:18:18Z</time>
      </trkpt>
      <trkpt lat="45.62576" lon="6.52341">
        <ele>1984.2</ele>
        <time>2025-02-20T14:18:19Z</time>
      </trkpt>
      <trkpt lat="45.62576" lon="6.52341">
        <ele>1984.6</ele>
        <time>2025-02-20T14:18:20Z</time>
      </trkpt>
      <trkpt lat="45.62576" lon="6.52341">
        <ele>1983.4</ele>
        <time>2025-02-20T14:18:21Z</time>
      </trkpt>
      <trkpt lat="45.62576" lon="6.52341">
        <ele>1983.4</ele>
        <time>2025-02-20T14:18:22Z</time>
      </trkpt>
      <trkpt lat="45.62576" lon="6.52341">
        <ele>1983.4</ele>
        <time>2025-02-20T14:18:23Z</time>
      </trkpt>
      <trkpt lat="45.62575" lon="6.52343">
        <ele>1984.2</ele>
        <time>2025-02-20T14:18:24Z</time>
      </trkpt>
      <trkpt lat="45.62575" lon="6.52343">
        <ele>1984.2</ele>
        <time>2025-02-20T14:18:25Z</time>
      </trkpt>
      <trkpt lat="45.62575" lon="6.52345">
        <ele>1984.2</ele>
        <time>2025-02-20T14:18:26Z</time>
      </trkpt>
      <trkpt lat="45.62574" lon="6.52345">
        <ele>1984.2</ele>
        <time>2025-02-20T14:18:27Z</time>
      </trkpt>
      <trkpt lat="45.62575" lon="6.52346">
        <ele>1984.2</ele>
        <time>2025-02-20T14:18:28Z</time>
      </trkpt>
      <trkpt lat="45.62574" lon="6.52347">
        <ele>1984.6</ele>
        <time>2025-02-20T14:18:29Z</time>
      </trkpt>
      <trkpt lat="45.62574" lon="6.52348">
        <ele>1984.6</ele>
        <time>2025-02-20T14:18:30Z</time>
      </trkpt>
      <trkpt lat="45.62574" lon="6.52348">
        <ele>1984.6</ele>
        <time>2025-02-20T14:18:31Z</time>
      </trkpt>
      <trkpt lat="45.62574" lon="6.52348">
        <ele>1985.6</ele>
        <time>2025-02-20T14:18:32Z</time>
      </trkpt>
      <trkpt lat="45.62574" lon="6.52348">
        <ele>1986.4</ele>
        <time>2025-02-20T14:18:33Z</time>
      </trkpt>
      <trkpt lat="45.62574" lon="6.52348">
        <ele>1986.4</ele>
        <time>2025-02-20T14:18:34Z</time>
      </trkpt>
      <trkpt lat="45.62574" lon="6.52348">
        <ele>1986.4</ele>
        <time>2025-02-20T14:18:35Z</time>
      </trkpt>
      <trkpt lat="45.62574" lon="6.52348">
        <ele>1986.6</ele>
        <time>2025-02-20T14:18:36Z</time>
      </trkpt>
      <trkpt lat="45.62576" lon="6.52349">
        <ele>1987.4</ele>
        <time>2025-02-20T14:18:37Z</time>
      </trkpt>
      <trkpt lat="45.62577" lon="6.52349">
        <ele>1987.4</ele>
        <time>2025-02-20T14:18:38Z</time>
      </trkpt>
      <trkpt lat="45.62577" lon="6.52349">
        <ele>1987.4</ele>
        <time>2025-02-20T14:18:39Z</time>
      </trkpt>
      <trkpt lat="45.62578" lon="6.52349">
        <ele>1987.4</ele>
        <time>2025-02-20T14:18:40Z</time>
      </trkpt>
      <trkpt lat="45.62578" lon="6.52349">
        <ele>1987.8</ele>
        <time>2025-02-20T14:18:41Z</time>
      </trkpt>
      <trkpt lat="45.62579" lon="6.52349">
        <ele>1987.8</ele>
        <time>2025-02-20T14:18:42Z</time>
      </trkpt>
      <trkpt lat="45.6258" lon="6.52349">
        <ele>1987.8</ele>
        <time>2025-02-20T14:18:43Z</time>
      </trkpt>
      <trkpt lat="45.62581" lon="6.52349">
        <ele>1988.6</ele>
        <time>2025-02-20T14:18:44Z</time>
      </trkpt>
      <trkpt lat="45.62581" lon="6.52349">
        <ele>1989</ele>
        <time>2025-02-20T14:18:45Z</time>
      </trkpt>
      <trkpt lat="45.62582" lon="6.52349">
        <ele>1989</ele>
        <time>2025-02-20T14:18:46Z</time>
      </trkpt>
      <trkpt lat="45.62583" lon="6.52349">
        <ele>1989</ele>
        <time>2025-02-20T14:18:47Z</time>
      </trkpt>
      <trkpt lat="45.62583" lon="6.52349">
        <ele>1989</ele>
        <time>2025-02-20T14:18:48Z</time>
      </trkpt>
      <trkpt lat="45.62584" lon="6.52349">
        <ele>1988.8</ele>
        <time>2025-02-20T14:18:49Z</time>
      </trkpt>
      <trkpt lat="45.62584" lon="6.52349">
        <ele>1988.8</ele>
        <time>2025-02-20T14:18:50Z</time>
      </trkpt>
      <trkpt lat="45.62585" lon="6.52349">
        <ele>1988.8</ele>
        <time>2025-02-20T14:18:51Z</time>
      </trkpt>
      <trkpt lat="45.62585" lon="6.52349">
        <ele>1988.8</ele>
        <time>2025-02-20T14:18:52Z</time>
      </trkpt>
      <trkpt lat="45.62585" lon="6.52349">
        <ele>1988</ele>
        <time>2025-02-20T14:18:53Z</time>
      </trkpt>
      <trkpt lat="45.62586" lon="6.52349">
        <ele>1988</ele>
        <time>2025-02-20T14:18:54Z</time>
      </trkpt>
      <trkpt lat="45.62586" lon="6.52349">
        <ele>1988</ele>
        <time>2025-02-20T14:18:55Z</time>
      </trkpt>
      <trkpt lat="45.62587" lon="6.52349">
        <ele>1989</ele>
        <time>2025-02-20T14:18:56Z</time>
      </trkpt>
      <trkpt lat="45.62587" lon="6.52349">
        <ele>1989.6</ele>
        <time>2025-02-20T14:18:57Z</time>
      </trkpt>
      <trkpt lat="45.62587" lon="6.52349">
        <ele>1989.6</ele>
        <time>2025-02-20T14:18:58Z</time>
      </trkpt>
      <trkpt lat="45.62587" lon="6.52349">
        <ele>1989.6</ele>
        <time>2025-02-20T14:18:59Z</time>
      </trkpt>
      <trkpt lat="45.62588" lon="6.52349">
        <ele>1990</ele>
        <time>2025-02-20T14:19:00Z</time>
      </trkpt>
      <trkpt lat="45.62588" lon="6.52348">
        <ele>1990.2</ele>
        <time>2025-02-20T14:19:01Z</time>
      </trkpt>
      <trkpt lat="45.62589" lon="6.52348">
        <ele>1990.2</ele>
        <time>2025-02-20T14:19:02Z</time>
      </trkpt>
      <trkpt lat="45.62589" lon="6.52348">
        <ele>1990.2</ele>
        <time>2025-02-20T14:19:03Z</time>
      </trkpt>
      <trkpt lat="45.6259" lon="6.52348">
        <ele>1990.2</ele>
        <time>2025-02-20T14:19:04Z</time>
      </trkpt>
      <trkpt lat="45.6259" lon="6.52347">
        <ele>1989.8</ele>
        <time>2025-02-20T14:19:05Z</time>
      </trkpt>
      <trkpt lat="45.6259" lon="6.52347">
        <ele>1989.8</ele>
        <time>2025-02-20T14:19:06Z</time>
      </trkpt>
      <trkpt lat="45.62591" lon="6.52347">
        <ele>1989.8</ele>
        <time>2025-02-20T14:19:07Z</time>
      </trkpt>
      <trkpt lat="45.62591" lon="6.52347">
        <ele>1989.8</ele>
        <time>2025-02-20T14:19:08Z</time>
      </trkpt>
      <trkpt lat="45.62592" lon="6.52347">
        <ele>1990.6</ele>
        <time>2025-02-20T14:19:09Z</time>
      </trkpt>
      <trkpt lat="45.62592" lon="6.52347">
        <ele>1990.6</ele>
        <time>2025-02-20T14:19:10Z</time>
      </trkpt>
      <trkpt lat="45.62593" lon="6.52346">
        <ele>1990.6</ele>
        <time>2025-02-20T14:19:11Z</time>
      </trkpt>
      <trkpt lat="45.62593" lon="6.52346">
        <ele>1991.6</ele>
        <time>2025-02-20T14:19:12Z</time>
      </trkpt>
      <trkpt lat="45.62594" lon="6.52346">
        <ele>1991.6</ele>
        <time>2025-02-20T14:19:13Z</time>
      </trkpt>
      <trkpt lat="45.62594" lon="6.52346">
        <ele>1991.6</ele>
        <time>2025-02-20T14:19:14Z</time>
      </trkpt>
      <trkpt lat="45.62594" lon="6.52348">
        <ele>1991.6</ele>
        <time>2025-02-20T14:19:15Z</time>
      </trkpt>
      <trkpt lat="45.62594" lon="6.52348">
        <ele>1991.6</ele>
        <time>2025-02-20T14:19:16Z</time>
      </trkpt>
      <trkpt lat="45.62594" lon="6.52349">
        <ele>1990.8</ele>
        <time>2025-02-20T14:19:17Z</time>
      </trkpt>
      <trkpt lat="45.62595" lon="6.52349">
        <ele>1990.8</ele>
        <time>2025-02-20T14:19:18Z</time>
      </trkpt>
      <trkpt lat="45.62595" lon="6.5235">
        <ele>1990.8</ele>
        <time>2025-02-20T14:19:19Z</time>
      </trkpt>
      <trkpt lat="45.62595" lon="6.52351">
        <ele>1991</ele>
        <time>2025-02-20T14:19:20Z</time>
      </trkpt>
      <trkpt lat="45.62595" lon="6.52352">
        <ele>1992.2</ele>
        <time>2025-02-20T14:19:21Z</time>
      </trkpt>
      <trkpt lat="45.62595" lon="6.52352">
        <ele>1992.2</ele>
        <time>2025-02-20T14:19:22Z</time>
      </trkpt>
      <trkpt lat="45.62595" lon="6.52353">
        <ele>1992.2</ele>
        <time>2025-02-20T14:19:23Z</time>
      </trkpt>
      <trkpt lat="45.62596" lon="6.52354">
        <ele>1992.2</ele>
        <time>2025-02-20T14:19:24Z</time>
      </trkpt>
      <trkpt lat="45.62596" lon="6.52355">
        <ele>1993</ele>
        <time>2025-02-20T14:19:25Z</time>
      </trkpt>
      <trkpt lat="45.62596" lon="6.52355">
        <ele>1993</ele>
        <time>2025-02-20T14:19:26Z</time>
      </trkpt>
      <trkpt lat="45.62596" lon="6.52356">
        <ele>1993</ele>
        <time>2025-02-20T14:19:27Z</time>
      </trkpt>
      <trkpt lat="45.62596" lon="6.52357">
        <ele>1993</ele>
        <time>2025-02-20T14:19:28Z</time>
      </trkpt>
      <trkpt lat="45.62596" lon="6.52357">
        <ele>1993.4</ele>
        <time>2025-02-20T14:19:29Z</time>
      </trkpt>
      <trkpt lat="45.62596" lon="6.52358">
        <ele>1993.4</ele>
        <time>2025-02-20T14:19:30Z</time>
      </trkpt>
      <trkpt lat="45.62596" lon="6.52359">
        <ele>1993.4</ele>
        <time>2025-02-20T14:19:31Z</time>
      </trkpt>
      <trkpt lat="45.62596" lon="6.5236">
        <ele>1993</ele>
        <time>2025-02-20T14:19:32Z</time>
      </trkpt>
      <trkpt lat="45.62596" lon="6.5236">
        <ele>1992.8</ele>
        <time>2025-02-20T14:19:33Z</time>
      </trkpt>
      <trkpt lat="45.62596" lon="6.52361">
        <ele>1992.8</ele>
        <time>2025-02-20T14:19:34Z</time>
      </trkpt>
      <trkpt lat="45.62596" lon="6.52362">
        <ele>1992.8</ele>
        <time>2025-02-20T14:19:35Z</time>
      </trkpt>
      <trkpt lat="45.62596" lon="6.52362">
        <ele>1993.8</ele>
        <time>2025-02-20T14:19:36Z</time>
      </trkpt>
      <trkpt lat="45.62596" lon="6.52363">
        <ele>1994.4</ele>
        <time>2025-02-20T14:19:37Z</time>
      </trkpt>
      <trkpt lat="45.62596" lon="6.52363">
        <ele>1994.4</ele>
        <time>2025-02-20T14:19:38Z</time>
      </trkpt>
      <trkpt lat="45.62596" lon="6.52365">
        <ele>1994.4</ele>
        <time>2025-02-20T14:19:39Z</time>
      </trkpt>
      <trkpt lat="45.62596" lon="6.52365">
        <ele>1994.8</ele>
        <time>2025-02-20T14:19:40Z</time>
      </trkpt>
      <trkpt lat="45.62597" lon="6.52367">
        <ele>1994.6</ele>
        <time>2025-02-20T14:19:41Z</time>
      </trkpt>
      <trkpt lat="45.62597" lon="6.52367">
        <ele>1994.6</ele>
        <time>2025-02-20T14:19:42Z</time>
      </trkpt>
      <trkpt lat="45.62597" lon="6.52368">
        <ele>1994.6</ele>
        <time>2025-02-20T14:19:43Z</time>
      </trkpt>
      <trkpt lat="45.62597" lon="6.52368">
        <ele>1994.4</ele>
        <time>2025-02-20T14:19:44Z</time>
      </trkpt>
      <trkpt lat="45.62597" lon="6.5237">
        <ele>1994.4</ele>
        <time>2025-02-20T14:19:45Z</time>
      </trkpt>
      <trkpt lat="45.62597" lon="6.52371">
        <ele>1994.4</ele>
        <time>2025-02-20T14:19:46Z</time>
      </trkpt>
      <trkpt lat="45.62598" lon="6.52372">
        <ele>1994.4</ele>
        <time>2025-02-20T14:19:47Z</time>
      </trkpt>
      <trkpt lat="45.62598" lon="6.52372">
        <ele>1994.4</ele>
        <time>2025-02-20T14:19:48Z</time>
      </trkpt>
      <trkpt lat="45.62598" lon="6.52373">
        <ele>1994.8</ele>
        <time>2025-02-20T14:19:49Z</time>
      </trkpt>
      <trkpt lat="45.62598" lon="6.52374">
        <ele>1994.8</ele>
        <time>2025-02-20T14:19:50Z</time>
      </trkpt>
      <trkpt lat="45.62599" lon="6.52375">
        <ele>1994.8</ele>
        <time>2025-02-20T14:19:51Z</time>
      </trkpt>
      <trkpt lat="45.62599" lon="6.52375">
        <ele>1994.8</ele>
        <time>2025-02-20T14:19:52Z</time>
      </trkpt>
      <trkpt lat="45.62599" lon="6.52376">
        <ele>1995.2</ele>
        <time>2025-02-20T14:19:53Z</time>
      </trkpt>
      <trkpt lat="45.62599" lon="6.52377">
        <ele>1995.2</ele>
        <time>2025-02-20T14:19:54Z</time>
      </trkpt>
      <trkpt lat="45.626" lon="6.52377">
        <ele>1995.2</ele>
        <time>2025-02-20T14:19:55Z</time>
      </trkpt>
      <trkpt lat="45.626" lon="6.52378">
        <ele>1995.2</ele>
        <time>2025-02-20T14:19:56Z</time>
      </trkpt>
      <trkpt lat="45.626" lon="6.52379">
        <ele>1995.6</ele>
        <time>2025-02-20T14:19:57Z</time>
      </trkpt>
      <trkpt lat="45.626" lon="6.52379">
        <ele>1995.6</ele>
        <time>2025-02-20T14:19:58Z</time>
      </trkpt>
      <trkpt lat="45.62601" lon="6.5238">
        <ele>1995.6</ele>
        <time>2025-02-20T14:19:59Z</time>
      </trkpt>
      <trkpt lat="45.62602" lon="6.52381">
        <ele>1996.6</ele>
        <time>2025-02-20T14:20:00Z</time>
      </trkpt>
      <trkpt lat="45.62602" lon="6.52381">
        <ele>1996.8</ele>
        <time>2025-02-20T14:20:01Z</time>
      </trkpt>
      <trkpt lat="45.62603" lon="6.52382">
        <ele>1996.8</ele>
        <time>2025-02-20T14:20:02Z</time>
      </trkpt>
      <trkpt lat="45.62603" lon="6.52382">
        <ele>1996.8</ele>
        <time>2025-02-20T14:20:03Z</time>
      </trkpt>
      <trkpt lat="45.62603" lon="6.52383">
        <ele>1997.6</ele>
        <time>2025-02-20T14:20:04Z</time>
      </trkpt>
      <trkpt lat="45.62603" lon="6.52384">
        <ele>1997</ele>
        <time>2025-02-20T14:20:05Z</time>
      </trkpt>
      <trkpt lat="45.62604" lon="6.52384">
        <ele>1997</ele>
        <time>2025-02-20T14:20:06Z</time>
      </trkpt>
      <trkpt lat="45.62604" lon="6.52384">
        <ele>1997</ele>
        <time>2025-02-20T14:20:07Z</time>
      </trkpt>
      <trkpt lat="45.62605" lon="6.52385">
        <ele>1997</ele>
        <time>2025-02-20T14:20:08Z</time>
      </trkpt>
      <trkpt lat="45.62605" lon="6.52385">
        <ele>1997</ele>
        <time>2025-02-20T14:20:09Z</time>
      </trkpt>
      <trkpt lat="45.62606" lon="6.52385">
        <ele>1997</ele>
        <time>2025-02-20T14:20:10Z</time>
      </trkpt>
      <trkpt lat="45.62606" lon="6.52385">
        <ele>1997</ele>
        <time>2025-02-20T14:20:11Z</time>
      </trkpt>
      <trkpt lat="45.62606" lon="6.52386">
        <ele>1997</ele>
        <time>2025-02-20T14:20:12Z</time>
      </trkpt>
      <trkpt lat="45.62606" lon="6.52386">
        <ele>1997.4</ele>
        <time>2025-02-20T14:20:13Z</time>
      </trkpt>
      <trkpt lat="45.62607" lon="6.52387">
        <ele>1997.4</ele>
        <time>2025-02-20T14:20:14Z</time>
      </trkpt>
      <trkpt lat="45.62608" lon="6.52387">
        <ele>1997.4</ele>
        <time>2025-02-20T14:20:15Z</time>
      </trkpt>
      <trkpt lat="45.62608" lon="6.52388">
        <ele>1997.4</ele>
        <time>2025-02-20T14:20:16Z</time>
      </trkpt>
      <trkpt lat="45.62608" lon="6.52388">
        <ele>1998.4</ele>
        <time>2025-02-20T14:20:17Z</time>
      </trkpt>
      <trkpt lat="45.62609" lon="6.52389">
        <ele>1998.4</ele>
        <time>2025-02-20T14:20:18Z</time>
      </trkpt>
      <trkpt lat="45.62609" lon="6.5239">
        <ele>1998.4</ele>
        <time>2025-02-20T14:20:19Z</time>
      </trkpt>
      <trkpt lat="45.62609" lon="6.5239">
        <ele>1998.4</ele>
        <time>2025-02-20T14:20:20Z</time>
      </trkpt>
      <trkpt lat="45.6261" lon="6.52391">
        <ele>1997.6</ele>
        <time>2025-02-20T14:20:21Z</time>
      </trkpt>
      <trkpt lat="45.6261" lon="6.52392">
        <ele>1997.6</ele>
        <time>2025-02-20T14:20:22Z</time>
      </trkpt>
      <trkpt lat="45.62611" lon="6.52392">
        <ele>1997.6</ele>
        <time>2025-02-20T14:20:23Z</time>
      </trkpt>
      <trkpt lat="45.62611" lon="6.52393">
        <ele>1997.6</ele>
        <time>2025-02-20T14:20:24Z</time>
      </trkpt>
      <trkpt lat="45.62612" lon="6.52393">
        <ele>1998.4</ele>
        <time>2025-02-20T14:20:25Z</time>
      </trkpt>
      <trkpt lat="45.62612" lon="6.52394">
        <ele>1998.4</ele>
        <time>2025-02-20T14:20:26Z</time>
      </trkpt>
      <trkpt lat="45.62613" lon="6.52394">
        <ele>1998.4</ele>
        <time>2025-02-20T14:20:27Z</time>
      </trkpt>
      <trkpt lat="45.62614" lon="6.52395">
        <ele>1999.2</ele>
        <time>2025-02-20T14:20:28Z</time>
      </trkpt>
      <trkpt lat="45.62614" lon="6.52395">
        <ele>1998.6</ele>
        <time>2025-02-20T14:20:29Z</time>
      </trkpt>
      <trkpt lat="45.62615" lon="6.52396">
        <ele>1998.6</ele>
        <time>2025-02-20T14:20:30Z</time>
      </trkpt>
      <trkpt lat="45.62615" lon="6.52396">
        <ele>1998.6</ele>
        <time>2025-02-20T14:20:31Z</time>
      </trkpt>
      <trkpt lat="45.62616" lon="6.52397">
        <ele>1998.6</ele>
        <time>2025-02-20T14:20:32Z</time>
      </trkpt>
      <trkpt lat="45.62617" lon="6.52398">
        <ele>1999.2</ele>
        <time>2025-02-20T14:20:33Z</time>
      </trkpt>
      <trkpt lat="45.62617" lon="6.52399">
        <ele>1999.2</ele>
        <time>2025-02-20T14:20:34Z</time>
      </trkpt>
      <trkpt lat="45.62617" lon="6.52399">
        <ele>1999.2</ele>
        <time>2025-02-20T14:20:35Z</time>
      </trkpt>
      <trkpt lat="45.62618" lon="6.524">
        <ele>1999.2</ele>
        <time>2025-02-20T14:20:36Z</time>
      </trkpt>
      <trkpt lat="45.62619" lon="6.524">
        <ele>1999.2</ele>
        <time>2025-02-20T14:20:37Z</time>
      </trkpt>
      <trkpt lat="45.6262" lon="6.52401">
        <ele>1999.2</ele>
        <time>2025-02-20T14:20:38Z</time>
      </trkpt>
      <trkpt lat="45.62621" lon="6.52402">
        <ele>1999.2</ele>
        <time>2025-02-20T14:20:39Z</time>
      </trkpt>
      <trkpt lat="45.62621" lon="6.52402">
        <ele>1999.2</ele>
        <time>2025-02-20T14:20:40Z</time>
      </trkpt>
      <trkpt lat="45.62622" lon="6.52403">
        <ele>1998</ele>
        <time>2025-02-20T14:20:41Z</time>
      </trkpt>
      <trkpt lat="45.62623" lon="6.52403">
        <ele>1998</ele>
        <time>2025-02-20T14:20:42Z</time>
      </trkpt>
      <trkpt lat="45.62623" lon="6.52404">
        <ele>1998</ele>
        <time>2025-02-20T14:20:43Z</time>
      </trkpt>
      <trkpt lat="45.62624" lon="6.52405">
        <ele>1999</ele>
        <time>2025-02-20T14:20:44Z</time>
      </trkpt>
      <trkpt lat="45.62624" lon="6.52405">
        <ele>1998.8</ele>
        <time>2025-02-20T14:20:45Z</time>
      </trkpt>
      <trkpt lat="45.62626" lon="6.52406">
        <ele>1998.8</ele>
        <time>2025-02-20T14:20:46Z</time>
      </trkpt>
      <trkpt lat="45.62626" lon="6.52407">
        <ele>1998.8</ele>
        <time>2025-02-20T14:20:47Z</time>
      </trkpt>
      <trkpt lat="45.62626" lon="6.52407">
        <ele>1999.4</ele>
        <time>2025-02-20T14:20:48Z</time>
      </trkpt>
      <trkpt lat="45.62626" lon="6.52408">
        <ele>2000</ele>
        <time>2025-02-20T14:20:49Z</time>
      </trkpt>
      <trkpt lat="45.62627" lon="6.52409">
        <ele>2000</ele>
        <time>2025-02-20T14:20:50Z</time>
      </trkpt>
      <trkpt lat="45.62628" lon="6.5241">
        <ele>2000</ele>
        <time>2025-02-20T14:20:51Z</time>
      </trkpt>
      <trkpt lat="45.62628" lon="6.52411">
        <ele>2000</ele>
        <time>2025-02-20T14:20:52Z</time>
      </trkpt>
      <trkpt lat="45.62629" lon="6.52411">
        <ele>1999.8</ele>
        <time>2025-02-20T14:20:53Z</time>
      </trkpt>
      <trkpt lat="45.62629" lon="6.52412">
        <ele>1999.8</ele>
        <time>2025-02-20T14:20:54Z</time>
      </trkpt>
      <trkpt lat="45.6263" lon="6.52413">
        <ele>1999.8</ele>
        <time>2025-02-20T14:20:55Z</time>
      </trkpt>
      <trkpt lat="45.6263" lon="6.52413">
        <ele>1999.8</ele>
        <time>2025-02-20T14:20:56Z</time>
      </trkpt>
      <trkpt lat="45.62631" lon="6.52414">
        <ele>1999.6</ele>
        <time>2025-02-20T14:20:57Z</time>
      </trkpt>
      <trkpt lat="45.62632" lon="6.52415">
        <ele>1999.6</ele>
        <time>2025-02-20T14:20:58Z</time>
      </trkpt>
      <trkpt lat="45.62633" lon="6.52416">
        <ele>1999.6</ele>
        <time>2025-02-20T14:20:59Z</time>
      </trkpt>
      <trkpt lat="45.62633" lon="6.52417">
        <ele>2000</ele>
        <time>2025-02-20T14:21:00Z</time>
      </trkpt>
      <trkpt lat="45.62634" lon="6.52417">
        <ele>1999.6</ele>
        <time>2025-02-20T14:21:01Z</time>
      </trkpt>
      <trkpt lat="45.62635" lon="6.52418">
        <ele>1999.6</ele>
        <time>2025-02-20T14:21:02Z</time>
      </trkpt>
      <trkpt lat="45.62636" lon="6.52419">
        <ele>1999.6</ele>
        <time>2025-02-20T14:21:03Z</time>
      </trkpt>
      <trkpt lat="45.62636" lon="6.5242">
        <ele>1999.6</ele>
        <time>2025-02-20T14:21:04Z</time>
      </trkpt>
      <trkpt lat="45.62637" lon="6.5242">
        <ele>1999.8</ele>
        <time>2025-02-20T14:21:05Z</time>
      </trkpt>
      <trkpt lat="45.62638" lon="6.52421">
        <ele>1999.8</ele>
        <time>2025-02-20T14:21:06Z</time>
      </trkpt>
      <trkpt lat="45.62638" lon="6.52422">
        <ele>1999.8</ele>
        <time>2025-02-20T14:21:07Z</time>
      </trkpt>
      <trkpt lat="45.62639" lon="6.52423">
        <ele>1999.8</ele>
        <time>2025-02-20T14:21:08Z</time>
      </trkpt>
      <trkpt lat="45.62639" lon="6.52424">
        <ele>2000</ele>
        <time>2025-02-20T14:21:09Z</time>
      </trkpt>
      <trkpt lat="45.6264" lon="6.52425">
        <ele>2000</ele>
        <time>2025-02-20T14:21:10Z</time>
      </trkpt>
      <trkpt lat="45.62641" lon="6.52426">
        <ele>2000</ele>
        <time>2025-02-20T14:21:11Z</time>
      </trkpt>
      <trkpt lat="45.62641" lon="6.52427">
        <ele>2000</ele>
        <time>2025-02-20T14:21:12Z</time>
      </trkpt>
      <trkpt lat="45.62642" lon="6.52428">
        <ele>1999.8</ele>
        <time>2025-02-20T14:21:13Z</time>
      </trkpt>
      <trkpt lat="45.62642" lon="6.52428">
        <ele>1999.8</ele>
        <time>2025-02-20T14:21:14Z</time>
      </trkpt>
      <trkpt lat="45.62643" lon="6.52429">
        <ele>1999.8</ele>
        <time>2025-02-20T14:21:15Z</time>
      </trkpt>
      <trkpt lat="45.62643" lon="6.5243">
        <ele>1999.8</ele>
        <time>2025-02-20T14:21:16Z</time>
      </trkpt>
      <trkpt lat="45.62643" lon="6.52431">
        <ele>1999</ele>
        <time>2025-02-20T14:21:17Z</time>
      </trkpt>
      <trkpt lat="45.62644" lon="6.52432">
        <ele>1999</ele>
        <time>2025-02-20T14:21:18Z</time>
      </trkpt>
      <trkpt lat="45.62644" lon="6.52433">
        <ele>1999</ele>
        <time>2025-02-20T14:21:19Z</time>
      </trkpt>
      <trkpt lat="45.62644" lon="6.52434">
        <ele>2000</ele>
        <time>2025-02-20T14:21:20Z</time>
      </trkpt>
      <trkpt lat="45.62644" lon="6.52435">
        <ele>2000.8</ele>
        <time>2025-02-20T14:21:21Z</time>
      </trkpt>
      <trkpt lat="45.62644" lon="6.52435">
        <ele>2000.8</ele>
        <time>2025-02-20T14:21:22Z</time>
      </trkpt>
      <trkpt lat="45.62645" lon="6.52436">
        <ele>2000.8</ele>
        <time>2025-02-20T14:21:23Z</time>
      </trkpt>
      <trkpt lat="45.62645" lon="6.52437">
        <ele>2000</ele>
        <time>2025-02-20T14:21:24Z</time>
      </trkpt>
      <trkpt lat="45.62645" lon="6.52438">
        <ele>2000</ele>
        <time>2025-02-20T14:21:25Z</time>
      </trkpt>
      <trkpt lat="45.62645" lon="6.52438">
        <ele>2000</ele>
        <time>2025-02-20T14:21:26Z</time>
      </trkpt>
      <trkpt lat="45.62646" lon="6.52439">
        <ele>2000</ele>
        <time>2025-02-20T14:21:27Z</time>
      </trkpt>
      <trkpt lat="45.62646" lon="6.5244">
        <ele>2000</ele>
        <time>2025-02-20T14:21:28Z</time>
      </trkpt>
      <trkpt lat="45.62647" lon="6.52441">
        <ele>2000</ele>
        <time>2025-02-20T14:21:29Z</time>
      </trkpt>
      <trkpt lat="45.62647" lon="6.52441">
        <ele>2000</ele>
        <time>2025-02-20T14:21:30Z</time>
      </trkpt>
      <trkpt lat="45.62647" lon="6.52442">
        <ele>2000</ele>
        <time>2025-02-20T14:21:31Z</time>
      </trkpt>
      <trkpt lat="45.62648" lon="6.52443">
        <ele>2001</ele>
        <time>2025-02-20T14:21:32Z</time>
      </trkpt>
      <trkpt lat="45.62648" lon="6.52443">
        <ele>2000.6</ele>
        <time>2025-02-20T14:21:33Z</time>
      </trkpt>
      <trkpt lat="45.62648" lon="6.52444">
        <ele>2000.6</ele>
        <time>2025-02-20T14:21:34Z</time>
      </trkpt>
      <trkpt lat="45.62648" lon="6.52445">
        <ele>2000.6</ele>
        <time>2025-02-20T14:21:35Z</time>
      </trkpt>
      <trkpt lat="45.62649" lon="6.52445">
        <ele>2001.6</ele>
        <time>2025-02-20T14:21:36Z</time>
      </trkpt>
      <trkpt lat="45.62649" lon="6.52446">
        <ele>2001.8</ele>
        <time>2025-02-20T14:21:37Z</time>
      </trkpt>
      <trkpt lat="45.62649" lon="6.52446">
        <ele>2001.8</ele>
        <time>2025-02-20T14:21:38Z</time>
      </trkpt>
      <trkpt lat="45.6265" lon="6.52448">
        <ele>2001.8</ele>
        <time>2025-02-20T14:21:39Z</time>
      </trkpt>
      <trkpt lat="45.6265" lon="6.52448">
        <ele>2002.6</ele>
        <time>2025-02-20T14:21:40Z</time>
      </trkpt>
      <trkpt lat="45.6265" lon="6.52449">
        <ele>2002</ele>
        <time>2025-02-20T14:21:41Z</time>
      </trkpt>
      <trkpt lat="45.6265" lon="6.52449">
        <ele>2002</ele>
        <time>2025-02-20T14:21:42Z</time>
      </trkpt>
      <trkpt lat="45.6265" lon="6.5245">
        <ele>2002</ele>
        <time>2025-02-20T14:21:43Z</time>
      </trkpt>
      <trkpt lat="45.6265" lon="6.52451">
        <ele>2002.2</ele>
        <time>2025-02-20T14:21:44Z</time>
      </trkpt>
      <trkpt lat="45.6265" lon="6.52452">
        <ele>2002.8</ele>
        <time>2025-02-20T14:21:45Z</time>
      </trkpt>
      <trkpt lat="45.62651" lon="6.52452">
        <ele>2002.8</ele>
        <time>2025-02-20T14:21:46Z</time>
      </trkpt>
      <trkpt lat="45.62651" lon="6.52453">
        <ele>2002.8</ele>
        <time>2025-02-20T14:21:47Z</time>
      </trkpt>
      <trkpt lat="45.62651" lon="6.52453">
        <ele>2002.4</ele>
        <time>2025-02-20T14:21:48Z</time>
      </trkpt>
      <trkpt lat="45.62651" lon="6.52454">
        <ele>2004</ele>
        <time>2025-02-20T14:21:49Z</time>
      </trkpt>
      <trkpt lat="45.62651" lon="6.52455">
        <ele>2004</ele>
        <time>2025-02-20T14:21:50Z</time>
      </trkpt>
      <trkpt lat="45.62651" lon="6.52455">
        <ele>2004</ele>
        <time>2025-02-20T14:21:51Z</time>
      </trkpt>
      <trkpt lat="45.62651" lon="6.52456">
        <ele>2004</ele>
        <time>2025-02-20T14:21:52Z</time>
      </trkpt>
      <trkpt lat="45.62651" lon="6.52456">
        <ele>2004</ele>
        <time>2025-02-20T14:21:53Z</time>
      </trkpt>
      <trkpt lat="45.62651" lon="6.52457">
        <ele>2004</ele>
        <time>2025-02-20T14:21:54Z</time>
      </trkpt>
      <trkpt lat="45.62651" lon="6.52458">
        <ele>2004</ele>
        <time>2025-02-20T14:21:55Z</time>
      </trkpt>
      <trkpt lat="45.62652" lon="6.52459">
        <ele>2004</ele>
        <time>2025-02-20T14:21:56Z</time>
      </trkpt>
      <trkpt lat="45.62652" lon="6.52459">
        <ele>2004</ele>
        <time>2025-02-20T14:21:57Z</time>
      </trkpt>
      <trkpt lat="45.62651" lon="6.5246">
        <ele>2004</ele>
        <time>2025-02-20T14:21:58Z</time>
      </trkpt>
      <trkpt lat="45.62652" lon="6.52461">
        <ele>2004</ele>
        <time>2025-02-20T14:21:59Z</time>
      </trkpt>
      <trkpt lat="45.62652" lon="6.52461">
        <ele>2005</ele>
        <time>2025-02-20T14:22:00Z</time>
      </trkpt>
      <trkpt lat="45.62652" lon="6.52462">
        <ele>2005.4</ele>
        <time>2025-02-20T14:22:01Z</time>
      </trkpt>
      <trkpt lat="45.62652" lon="6.52463">
        <ele>2005.4</ele>
        <time>2025-02-20T14:22:02Z</time>
      </trkpt>
      <trkpt lat="45.62652" lon="6.52464">
        <ele>2005.4</ele>
        <time>2025-02-20T14:22:03Z</time>
      </trkpt>
      <trkpt lat="45.62652" lon="6.52464">
        <ele>2004.4</ele>
        <time>2025-02-20T14:22:04Z</time>
      </trkpt>
      <trkpt lat="45.62652" lon="6.52465">
        <ele>2006</ele>
        <time>2025-02-20T14:22:05Z</time>
      </trkpt>
      <trkpt lat="45.62652" lon="6.52465">
        <ele>2006</ele>
        <time>2025-02-20T14:22:06Z</time>
      </trkpt>
      <trkpt lat="45.62652" lon="6.52465">
        <ele>2006</ele>
        <time>2025-02-20T14:22:07Z</time>
      </trkpt>
      <trkpt lat="45.62652" lon="6.52467">
        <ele>2006</ele>
        <time>2025-02-20T14:22:08Z</time>
      </trkpt>
      <trkpt lat="45.62653" lon="6.52467">
        <ele>2006.4</ele>
        <time>2025-02-20T14:22:09Z</time>
      </trkpt>
      <trkpt lat="45.62653" lon="6.52468">
        <ele>2006.4</ele>
        <time>2025-02-20T14:22:10Z</time>
      </trkpt>
      <trkpt lat="45.62653" lon="6.52468">
        <ele>2006.4</ele>
        <time>2025-02-20T14:22:11Z</time>
      </trkpt>
      <trkpt lat="45.62653" lon="6.52469">
        <ele>2006</ele>
        <time>2025-02-20T14:22:12Z</time>
      </trkpt>
      <trkpt lat="45.62654" lon="6.52469">
        <ele>2006</ele>
        <time>2025-02-20T14:22:13Z</time>
      </trkpt>
      <trkpt lat="45.62654" lon="6.5247">
        <ele>2006</ele>
        <time>2025-02-20T14:22:14Z</time>
      </trkpt>
      <trkpt lat="45.62654" lon="6.52471">
        <ele>2006</ele>
        <time>2025-02-20T14:22:15Z</time>
      </trkpt>
      <trkpt lat="45.62654" lon="6.52471">
        <ele>2006.6</ele>
        <time>2025-02-20T14:22:16Z</time>
      </trkpt>
      <trkpt lat="45.62654" lon="6.52472">
        <ele>2006.8</ele>
        <time>2025-02-20T14:22:17Z</time>
      </trkpt>
      <trkpt lat="45.62654" lon="6.52473">
        <ele>2006.8</ele>
        <time>2025-02-20T14:22:18Z</time>
      </trkpt>
      <trkpt lat="45.62654" lon="6.52473">
        <ele>2006.8</ele>
        <time>2025-02-20T14:22:19Z</time>
      </trkpt>
      <trkpt lat="45.62654" lon="6.52474">
        <ele>2006.8</ele>
        <time>2025-02-20T14:22:20Z</time>
      </trkpt>
      <trkpt lat="45.62654" lon="6.52474">
        <ele>2008.2</ele>
        <time>2025-02-20T14:22:21Z</time>
      </trkpt>
      <trkpt lat="45.62655" lon="6.52475">
        <ele>2008.2</ele>
        <time>2025-02-20T14:22:22Z</time>
      </trkpt>
      <trkpt lat="45.62655" lon="6.52475">
        <ele>2008.2</ele>
        <time>2025-02-20T14:22:23Z</time>
      </trkpt>
      <trkpt lat="45.62655" lon="6.52475">
        <ele>2008.2</ele>
        <time>2025-02-20T14:22:24Z</time>
      </trkpt>
      <trkpt lat="45.62655" lon="6.52476">
        <ele>2008.2</ele>
        <time>2025-02-20T14:22:25Z</time>
      </trkpt>
      <trkpt lat="45.62655" lon="6.52477">
        <ele>2008.2</ele>
        <time>2025-02-20T14:22:26Z</time>
      </trkpt>
      <trkpt lat="45.62656" lon="6.52477">
        <ele>2008.2</ele>
        <time>2025-02-20T14:22:27Z</time>
      </trkpt>
      <trkpt lat="45.62656" lon="6.52477">
        <ele>2008.2</ele>
        <time>2025-02-20T14:22:28Z</time>
      </trkpt>
      <trkpt lat="45.62656" lon="6.52478">
        <ele>2008.4</ele>
        <time>2025-02-20T14:22:29Z</time>
      </trkpt>
      <trkpt lat="45.62656" lon="6.52479">
        <ele>2008.4</ele>
        <time>2025-02-20T14:22:30Z</time>
      </trkpt>
      <trkpt lat="45.62656" lon="6.52479">
        <ele>2008.4</ele>
        <time>2025-02-20T14:22:31Z</time>
      </trkpt>
      <trkpt lat="45.62657" lon="6.5248">
        <ele>2008.4</ele>
        <time>2025-02-20T14:22:32Z</time>
      </trkpt>
      <trkpt lat="45.62657" lon="6.5248">
        <ele>2008.8</ele>
        <time>2025-02-20T14:22:33Z</time>
      </trkpt>
      <trkpt lat="45.62657" lon="6.52481">
        <ele>2008.8</ele>
        <time>2025-02-20T14:22:34Z</time>
      </trkpt>
      <trkpt lat="45.62657" lon="6.52481">
        <ele>2008.8</ele>
        <time>2025-02-20T14:22:35Z</time>
      </trkpt>
      <trkpt lat="45.62658" lon="6.52482">
        <ele>2008.8</ele>
        <time>2025-02-20T14:22:36Z</time>
      </trkpt>
      <trkpt lat="45.62658" lon="6.52482">
        <ele>2009</ele>
        <time>2025-02-20T14:22:37Z</time>
      </trkpt>
      <trkpt lat="45.62658" lon="6.52483">
        <ele>2009</ele>
        <time>2025-02-20T14:22:38Z</time>
      </trkpt>
      <trkpt lat="45.62658" lon="6.52483">
        <ele>2009</ele>
        <time>2025-02-20T14:22:39Z</time>
      </trkpt>
      <trkpt lat="45.62658" lon="6.52483">
        <ele>2009.8</ele>
        <time>2025-02-20T14:22:40Z</time>
      </trkpt>
      <trkpt lat="45.62659" lon="6.52485">
        <ele>2010</ele>
        <time>2025-02-20T14:22:41Z</time>
      </trkpt>
      <trkpt lat="45.62659" lon="6.52485">
        <ele>2010</ele>
        <time>2025-02-20T14:22:42Z</time>
      </trkpt>
      <trkpt lat="45.6266" lon="6.52485">
        <ele>2010</ele>
        <time>2025-02-20T14:22:43Z</time>
      </trkpt>
      <trkpt lat="45.6266" lon="6.52486">
        <ele>2009</ele>
        <time>2025-02-20T14:22:44Z</time>
      </trkpt>
      <trkpt lat="45.6266" lon="6.52486">
        <ele>2010.4</ele>
        <time>2025-02-20T14:22:45Z</time>
      </trkpt>
      <trkpt lat="45.6266" lon="6.52487">
        <ele>2010.4</ele>
        <time>2025-02-20T14:22:46Z</time>
      </trkpt>
      <trkpt lat="45.6266" lon="6.52487">
        <ele>2010.4</ele>
        <time>2025-02-20T14:22:47Z</time>
      </trkpt>
      <trkpt lat="45.62661" lon="6.52488">
        <ele>2010.4</ele>
        <time>2025-02-20T14:22:48Z</time>
      </trkpt>
      <trkpt lat="45.62661" lon="6.52488">
        <ele>2010.2</ele>
        <time>2025-02-20T14:22:49Z</time>
      </trkpt>
      <trkpt lat="45.62661" lon="6.52489">
        <ele>2010.2</ele>
        <time>2025-02-20T14:22:50Z</time>
      </trkpt>
      <trkpt lat="45.62661" lon="6.52489">
        <ele>2010.2</ele>
        <time>2025-02-20T14:22:51Z</time>
      </trkpt>
      <trkpt lat="45.62661" lon="6.5249">
        <ele>2010.2</ele>
        <time>2025-02-20T14:22:52Z</time>
      </trkpt>
      <trkpt lat="45.62662" lon="6.52491">
        <ele>2011</ele>
        <time>2025-02-20T14:22:53Z</time>
      </trkpt>
      <trkpt lat="45.62662" lon="6.52491">
        <ele>2011</ele>
        <time>2025-02-20T14:22:54Z</time>
      </trkpt>
      <trkpt lat="45.62662" lon="6.52492">
        <ele>2011</ele>
        <time>2025-02-20T14:22:55Z</time>
      </trkpt>
      <trkpt lat="45.62662" lon="6.52492">
        <ele>2011</ele>
        <time>2025-02-20T14:22:56Z</time>
      </trkpt>
      <trkpt lat="45.62663" lon="6.52493">
        <ele>2011</ele>
        <time>2025-02-20T14:22:57Z</time>
      </trkpt>
      <trkpt lat="45.62663" lon="6.52493">
        <ele>2011</ele>
        <time>2025-02-20T14:22:58Z</time>
      </trkpt>
      <trkpt lat="45.62663" lon="6.52493">
        <ele>2011</ele>
        <time>2025-02-20T14:22:59Z</time>
      </trkpt>
      <trkpt lat="45.62663" lon="6.52494">
        <ele>2011</ele>
        <time>2025-02-20T14:23:00Z</time>
      </trkpt>
      <trkpt lat="45.62663" lon="6.52495">
        <ele>2012.2</ele>
        <time>2025-02-20T14:23:01Z</time>
      </trkpt>
      <trkpt lat="45.62663" lon="6.52495">
        <ele>2012.2</ele>
        <time>2025-02-20T14:23:02Z</time>
      </trkpt>
      <trkpt lat="45.62663" lon="6.52495">
        <ele>2012.2</ele>
        <time>2025-02-20T14:23:03Z</time>
      </trkpt>
      <trkpt lat="45.62663" lon="6.52495">
        <ele>2012</ele>
        <time>2025-02-20T14:23:04Z</time>
      </trkpt>
      <trkpt lat="45.62663" lon="6.52495">
        <ele>2012.4</ele>
        <time>2025-02-20T14:23:05Z</time>
      </trkpt>
      <trkpt lat="45.62663" lon="6.52495">
        <ele>2012.4</ele>
        <time>2025-02-20T14:23:06Z</time>
      </trkpt>
      <trkpt lat="45.62663" lon="6.52495">
        <ele>2012.4</ele>
        <time>2025-02-20T14:23:07Z</time>
      </trkpt>
      <trkpt lat="45.62663" lon="6.52495">
        <ele>2013.4</ele>
        <time>2025-02-20T14:23:08Z</time>
      </trkpt>
      <trkpt lat="45.62663" lon="6.52495">
        <ele>2013.2</ele>
        <time>2025-02-20T14:23:09Z</time>
      </trkpt>
      <trkpt lat="45.62663" lon="6.52495">
        <ele>2013.2</ele>
        <time>2025-02-20T14:23:10Z</time>
      </trkpt>
      <trkpt lat="45.62663" lon="6.52496">
        <ele>2013.2</ele>
        <time>2025-02-20T14:23:11Z</time>
      </trkpt>
      <trkpt lat="45.62663" lon="6.52495">
        <ele>2013.2</ele>
        <time>2025-02-20T14:23:12Z</time>
      </trkpt>
      <trkpt lat="45.62663" lon="6.52495">
        <ele>2013.6</ele>
        <time>2025-02-20T14:23:13Z</time>
      </trkpt>
      <trkpt lat="45.62663" lon="6.52495">
        <ele>2013.6</ele>
        <time>2025-02-20T14:23:14Z</time>
      </trkpt>
      <trkpt lat="45.62663" lon="6.52495">
        <ele>2013.6</ele>
        <time>2025-02-20T14:23:15Z</time>
      </trkpt>
      <trkpt lat="45.62663" lon="6.52494">
        <ele>2014.2</ele>
        <time>2025-02-20T14:23:16Z</time>
      </trkpt>
      <trkpt lat="45.62663" lon="6.52494">
        <ele>2013.6</ele>
        <time>2025-02-20T14:23:17Z</time>
      </trkpt>
      <trkpt lat="45.62664" lon="6.52494">
        <ele>2013.6</ele>
        <time>2025-02-20T14:23:18Z</time>
      </trkpt>
      <trkpt lat="45.62664" lon="6.52493">
        <ele>2013.6</ele>
        <time>2025-02-20T14:23:19Z</time>
      </trkpt>
      <trkpt lat="45.62665" lon="6.52493">
        <ele>2013.6</ele>
        <time>2025-02-20T14:23:20Z</time>
      </trkpt>
      <trkpt lat="45.62665" lon="6.52493">
        <ele>2014.4</ele>
        <time>2025-02-20T14:23:21Z</time>
      </trkpt>
      <trkpt lat="45.62665" lon="6.52493">
        <ele>2014.4</ele>
        <time>2025-02-20T14:23:22Z</time>
      </trkpt>
      <trkpt lat="45.62666" lon="6.52492">
        <ele>2014.4</ele>
        <time>2025-02-20T14:23:23Z</time>
      </trkpt>
      <trkpt lat="45.62666" lon="6.52491">
        <ele>2014.6</ele>
        <time>2025-02-20T14:23:24Z</time>
      </trkpt>
      <trkpt lat="45.62667" lon="6.52491">
        <ele>2013.4</ele>
        <time>2025-02-20T14:23:25Z</time>
      </trkpt>
      <trkpt lat="45.62667" lon="6.52491">
        <ele>2013.4</ele>
        <time>2025-02-20T14:23:26Z</time>
      </trkpt>
      <trkpt lat="45.62667" lon="6.52491">
        <ele>2013.4</ele>
        <time>2025-02-20T14:23:27Z</time>
      </trkpt>
      <trkpt lat="45.62668" lon="6.52489">
        <ele>2014.4</ele>
        <time>2025-02-20T14:23:28Z</time>
      </trkpt>
      <trkpt lat="45.62668" lon="6.52489">
        <ele>2015.8</ele>
        <time>2025-02-20T14:23:29Z</time>
      </trkpt>
      <trkpt lat="45.62668" lon="6.52489">
        <ele>2015.8</ele>
        <time>2025-02-20T14:23:30Z</time>
      </trkpt>
      <trkpt lat="45.62668" lon="6.52489">
        <ele>2015.8</ele>
        <time>2025-02-20T14:23:31Z</time>
      </trkpt>
      <trkpt lat="45.62669" lon="6.52487">
        <ele>2015.8</ele>
        <time>2025-02-20T14:23:32Z</time>
      </trkpt>
      <trkpt lat="45.62669" lon="6.52487">
        <ele>2015</ele>
        <time>2025-02-20T14:23:33Z</time>
      </trkpt>
      <trkpt lat="45.6267" lon="6.52486">
        <ele>2015</ele>
        <time>2025-02-20T14:23:34Z</time>
      </trkpt>
      <trkpt lat="45.62671" lon="6.52486">
        <ele>2015</ele>
        <time>2025-02-20T14:23:35Z</time>
      </trkpt>
      <trkpt lat="45.62671" lon="6.52486">
        <ele>2015</ele>
        <time>2025-02-20T14:23:36Z</time>
      </trkpt>
      <trkpt lat="45.62671" lon="6.52486">
        <ele>2016.6</ele>
        <time>2025-02-20T14:23:37Z</time>
      </trkpt>
      <trkpt lat="45.62671" lon="6.52486">
        <ele>2016.6</ele>
        <time>2025-02-20T14:23:38Z</time>
      </trkpt>
      <trkpt lat="45.62673" lon="6.52485">
        <ele>2016.6</ele>
        <time>2025-02-20T14:23:39Z</time>
      </trkpt>
      <trkpt lat="45.62673" lon="6.52485">
        <ele>2017.2</ele>
        <time>2025-02-20T14:23:40Z</time>
      </trkpt>
      <trkpt lat="45.62674" lon="6.52485">
        <ele>2016</ele>
        <time>2025-02-20T14:23:41Z</time>
      </trkpt>
      <trkpt lat="45.62674" lon="6.52485">
        <ele>2016</ele>
        <time>2025-02-20T14:23:42Z</time>
      </trkpt>
      <trkpt lat="45.62674" lon="6.52485">
        <ele>2016</ele>
        <time>2025-02-20T14:23:43Z</time>
      </trkpt>
      <trkpt lat="45.62675" lon="6.52483">
        <ele>2017</ele>
        <time>2025-02-20T14:23:44Z</time>
      </trkpt>
      <trkpt lat="45.62675" lon="6.52483">
        <ele>2017.8</ele>
        <time>2025-02-20T14:23:45Z</time>
      </trkpt>
      <trkpt lat="45.62675" lon="6.52483">
        <ele>2017.8</ele>
        <time>2025-02-20T14:23:46Z</time>
      </trkpt>
      <trkpt lat="45.62675" lon="6.52483">
        <ele>2017.8</ele>
        <time>2025-02-20T14:23:47Z</time>
      </trkpt>
      <trkpt lat="45.62676" lon="6.52482">
        <ele>2016.8</ele>
        <time>2025-02-20T14:23:48Z</time>
      </trkpt>
      <trkpt lat="45.62676" lon="6.52482">
        <ele>2017.2</ele>
        <time>2025-02-20T14:23:49Z</time>
      </trkpt>
      <trkpt lat="45.62676" lon="6.52482">
        <ele>2017.2</ele>
        <time>2025-02-20T14:23:50Z</time>
      </trkpt>
      <trkpt lat="45.62676" lon="6.52482">
        <ele>2017.2</ele>
        <time>2025-02-20T14:23:51Z</time>
      </trkpt>
      <trkpt lat="45.62676" lon="6.52482">
        <ele>2018.2</ele>
        <time>2025-02-20T14:23:52Z</time>
      </trkpt>
      <trkpt lat="45.62676" lon="6.52482">
        <ele>2019.2</ele>
        <time>2025-02-20T14:23:53Z</time>
      </trkpt>
      <trkpt lat="45.62676" lon="6.52482">
        <ele>2019.2</ele>
        <time>2025-02-20T14:23:54Z</time>
      </trkpt>
      <trkpt lat="45.62676" lon="6.52482">
        <ele>2019.2</ele>
        <time>2025-02-20T14:23:55Z</time>
      </trkpt>
      <trkpt lat="45.62676" lon="6.52482">
        <ele>2018.4</ele>
        <time>2025-02-20T14:23:56Z</time>
      </trkpt>
      <trkpt lat="45.62676" lon="6.52482">
        <ele>2018</ele>
        <time>2025-02-20T14:23:57Z</time>
      </trkpt>
      <trkpt lat="45.62676" lon="6.52482">
        <ele>2018</ele>
        <time>2025-02-20T14:23:58Z</time>
      </trkpt>
      <trkpt lat="45.62676" lon="6.52482">
        <ele>2018</ele>
        <time>2025-02-20T14:23:59Z</time>
      </trkpt>
      <trkpt lat="45.62676" lon="6.52482">
        <ele>2018.8</ele>
        <time>2025-02-20T14:24:00Z</time>
      </trkpt>
      <trkpt lat="45.62676" lon="6.52482">
        <ele>2019.8</ele>
        <time>2025-02-20T14:24:01Z</time>
      </trkpt>
      <trkpt lat="45.6268" lon="6.52478">
        <ele>2019.8</ele>
        <time>2025-02-20T14:24:02Z</time>
      </trkpt>
      <trkpt lat="45.6268" lon="6.52478">
        <ele>2019.8</ele>
        <time>2025-02-20T14:24:03Z</time>
      </trkpt>
      <trkpt lat="45.62681" lon="6.52477">
        <ele>2018.8</ele>
        <time>2025-02-20T14:24:04Z</time>
      </trkpt>
      <trkpt lat="45.62683" lon="6.52478">
        <ele>2018.8</ele>
        <time>2025-02-20T14:24:05Z</time>
      </trkpt>
      <trkpt lat="45.62683" lon="6.52477">
        <ele>2018.8</ele>
        <time>2025-02-20T14:24:06Z</time>
      </trkpt>
      <trkpt lat="45.62683" lon="6.52477">
        <ele>2018.8</ele>
        <time>2025-02-20T14:24:07Z</time>
      </trkpt>
      <trkpt lat="45.62683" lon="6.52477">
        <ele>2019.8</ele>
        <time>2025-02-20T14:24:08Z</time>
      </trkpt>
      <trkpt lat="45.62686" lon="6.52477">
        <ele>2020</ele>
        <time>2025-02-20T14:24:09Z</time>
      </trkpt>
      <trkpt lat="45.62686" lon="6.52477">
        <ele>2020</ele>
        <time>2025-02-20T14:24:10Z</time>
      </trkpt>
      <trkpt lat="45.62686" lon="6.52477">
        <ele>2020</ele>
        <time>2025-02-20T14:24:11Z</time>
      </trkpt>
      <trkpt lat="45.62686" lon="6.52476">
        <ele>2020</ele>
        <time>2025-02-20T14:24:12Z</time>
      </trkpt>
      <trkpt lat="45.62686" lon="6.52475">
        <ele>2019.6</ele>
        <time>2025-02-20T14:24:13Z</time>
      </trkpt>
      <trkpt lat="45.62687" lon="6.52475">
        <ele>2019.6</ele>
        <time>2025-02-20T14:24:14Z</time>
      </trkpt>
      <trkpt lat="45.62687" lon="6.52475">
        <ele>2019.6</ele>
        <time>2025-02-20T14:24:15Z</time>
      </trkpt>
      <trkpt lat="45.62688" lon="6.52473">
        <ele>2020.6</ele>
        <time>2025-02-20T14:24:16Z</time>
      </trkpt>
      <trkpt lat="45.62688" lon="6.52473">
        <ele>2021.2</ele>
        <time>2025-02-20T14:24:17Z</time>
      </trkpt>
      <trkpt lat="45.62689" lon="6.52472">
        <ele>2021.2</ele>
        <time>2025-02-20T14:24:18Z</time>
      </trkpt>
      <trkpt lat="45.62689" lon="6.52472">
        <ele>2021.2</ele>
        <time>2025-02-20T14:24:19Z</time>
      </trkpt>
      <trkpt lat="45.62689" lon="6.52471">
        <ele>2021.2</ele>
        <time>2025-02-20T14:24:20Z</time>
      </trkpt>
      <trkpt lat="45.6269" lon="6.52471">
        <ele>2020.8</ele>
        <time>2025-02-20T14:24:21Z</time>
      </trkpt>
      <trkpt lat="45.6269" lon="6.5247">
        <ele>2020.8</ele>
        <time>2025-02-20T14:24:22Z</time>
      </trkpt>
      <trkpt lat="45.62691" lon="6.5247">
        <ele>2020.8</ele>
        <time>2025-02-20T14:24:23Z</time>
      </trkpt>
      <trkpt lat="45.62692" lon="6.52469">
        <ele>2020.8</ele>
        <time>2025-02-20T14:24:24Z</time>
      </trkpt>
      <trkpt lat="45.62692" lon="6.52469">
        <ele>2021.8</ele>
        <time>2025-02-20T14:24:25Z</time>
      </trkpt>
      <trkpt lat="45.62692" lon="6.52468">
        <ele>2021.8</ele>
        <time>2025-02-20T14:24:26Z</time>
      </trkpt>
      <trkpt lat="45.62693" lon="6.52468">
        <ele>2021.8</ele>
        <time>2025-02-20T14:24:27Z</time>
      </trkpt>
      <trkpt lat="45.62693" lon="6.52467">
        <ele>2022.2</ele>
        <time>2025-02-20T14:24:28Z</time>
      </trkpt>
      <trkpt lat="45.62693" lon="6.52466">
        <ele>2021.4</ele>
        <time>2025-02-20T14:24:29Z</time>
      </trkpt>
      <trkpt lat="45.62693" lon="6.52466">
        <ele>2021.4</ele>
        <time>2025-02-20T14:24:30Z</time>
      </trkpt>
      <trkpt lat="45.62693" lon="6.52466">
        <ele>2021.4</ele>
        <time>2025-02-20T14:24:31Z</time>
      </trkpt>
      <trkpt lat="45.62693" lon="6.52466">
        <ele>2022</ele>
        <time>2025-02-20T14:24:32Z</time>
      </trkpt>
      <trkpt lat="45.62693" lon="6.52466">
        <ele>2022.6</ele>
        <time>2025-02-20T14:24:33Z</time>
      </trkpt>
      <trkpt lat="45.62693" lon="6.52466">
        <ele>2022.6</ele>
        <time>2025-02-20T14:24:34Z</time>
      </trkpt>
      <trkpt lat="45.62693" lon="6.52466">
        <ele>2022.6</ele>
        <time>2025-02-20T14:24:35Z</time>
      </trkpt>
      <trkpt lat="45.62693" lon="6.52466">
        <ele>2023.4</ele>
        <time>2025-02-20T14:24:36Z</time>
      </trkpt>
      <trkpt lat="45.62693" lon="6.52466">
        <ele>2023.4</ele>
        <time>2025-02-20T14:24:37Z</time>
      </trkpt>
      <trkpt lat="45.62694" lon="6.52463">
        <ele>2023.4</ele>
        <time>2025-02-20T14:24:38Z</time>
      </trkpt>
      <trkpt lat="45.62695" lon="6.52462">
        <ele>2023.4</ele>
        <time>2025-02-20T14:24:39Z</time>
      </trkpt>
      <trkpt lat="45.62695" lon="6.52461">
        <ele>2022.8</ele>
        <time>2025-02-20T14:24:40Z</time>
      </trkpt>
      <trkpt lat="45.62695" lon="6.52461">
        <ele>2022.8</ele>
        <time>2025-02-20T14:24:41Z</time>
      </trkpt>
      <trkpt lat="45.62696" lon="6.5246">
        <ele>2022.8</ele>
        <time>2025-02-20T14:24:42Z</time>
      </trkpt>
      <trkpt lat="45.62696" lon="6.52459">
        <ele>2022.8</ele>
        <time>2025-02-20T14:24:43Z</time>
      </trkpt>
      <trkpt lat="45.62696" lon="6.52459">
        <ele>2023.8</ele>
        <time>2025-02-20T14:24:44Z</time>
      </trkpt>
      <trkpt lat="45.62696" lon="6.52458">
        <ele>2024.2</ele>
        <time>2025-02-20T14:24:45Z</time>
      </trkpt>
      <trkpt lat="45.62696" lon="6.52458">
        <ele>2024.2</ele>
        <time>2025-02-20T14:24:46Z</time>
      </trkpt>
      <trkpt lat="45.62696" lon="6.52456">
        <ele>2024.2</ele>
        <time>2025-02-20T14:24:47Z</time>
      </trkpt>
      <trkpt lat="45.62697" lon="6.52456">
        <ele>2024.2</ele>
        <time>2025-02-20T14:24:48Z</time>
      </trkpt>
      <trkpt lat="45.62697" lon="6.52455">
        <ele>2024</ele>
        <time>2025-02-20T14:24:49Z</time>
      </trkpt>
      <trkpt lat="45.62697" lon="6.52455">
        <ele>2024</ele>
        <time>2025-02-20T14:24:50Z</time>
      </trkpt>
      <trkpt lat="45.62698" lon="6.52454">
        <ele>2024</ele>
        <time>2025-02-20T14:24:51Z</time>
      </trkpt>
      <trkpt lat="45.62698" lon="6.52453">
        <ele>2024.8</ele>
        <time>2025-02-20T14:24:52Z</time>
      </trkpt>
      <trkpt lat="45.62699" lon="6.52453">
        <ele>2025.2</ele>
        <time>2025-02-20T14:24:53Z</time>
      </trkpt>
      <trkpt lat="45.62699" lon="6.52452">
        <ele>2025.2</ele>
        <time>2025-02-20T14:24:54Z</time>
      </trkpt>
      <trkpt lat="45.62699" lon="6.52452">
        <ele>2025.2</ele>
        <time>2025-02-20T14:24:55Z</time>
      </trkpt>
      <trkpt lat="45.627" lon="6.52452">
        <ele>2025.2</ele>
        <time>2025-02-20T14:24:56Z</time>
      </trkpt>
      <trkpt lat="45.627" lon="6.52451">
        <ele>2025.6</ele>
        <time>2025-02-20T14:24:57Z</time>
      </trkpt>
      <trkpt lat="45.62701" lon="6.52451">
        <ele>2025.6</ele>
        <time>2025-02-20T14:24:58Z</time>
      </trkpt>
      <trkpt lat="45.62701" lon="6.52451">
        <ele>2025.6</ele>
        <time>2025-02-20T14:24:59Z</time>
      </trkpt>
      <trkpt lat="45.62701" lon="6.52451">
        <ele>2025.6</ele>
        <time>2025-02-20T14:25:00Z</time>
      </trkpt>
      <trkpt lat="45.62702" lon="6.5245">
        <ele>2026.2</ele>
        <time>2025-02-20T14:25:01Z</time>
      </trkpt>
      <trkpt lat="45.62702" lon="6.5245">
        <ele>2026.2</ele>
        <time>2025-02-20T14:25:02Z</time>
      </trkpt>
      <trkpt lat="45.62702" lon="6.5245">
        <ele>2026.2</ele>
        <time>2025-02-20T14:25:03Z</time>
      </trkpt>
      <trkpt lat="45.62702" lon="6.5245">
        <ele>2026.2</ele>
        <time>2025-02-20T14:25:04Z</time>
      </trkpt>
      <trkpt lat="45.62702" lon="6.52449">
        <ele>2025.6</ele>
        <time>2025-02-20T14:25:05Z</time>
      </trkpt>
      <trkpt lat="45.62703" lon="6.5245">
        <ele>2025.6</ele>
        <time>2025-02-20T14:25:06Z</time>
      </trkpt>
      <trkpt lat="45.62703" lon="6.5245">
        <ele>2025.6</ele>
        <time>2025-02-20T14:25:07Z</time>
      </trkpt>
      <trkpt lat="45.62702" lon="6.52451">
        <ele>2026.4</ele>
        <time>2025-02-20T14:25:08Z</time>
      </trkpt>
      <trkpt lat="45.62703" lon="6.52451">
        <ele>2026.6</ele>
        <time>2025-02-20T14:25:09Z</time>
      </trkpt>
      <trkpt lat="45.62703" lon="6.52452">
        <ele>2026.6</ele>
        <time>2025-02-20T14:25:10Z</time>
      </trkpt>
      <trkpt lat="45.62703" lon="6.52452">
        <ele>2026.6</ele>
        <time>2025-02-20T14:25:11Z</time>
      </trkpt>
      <trkpt lat="45.62703" lon="6.52453">
        <ele>2026.6</ele>
        <time>2025-02-20T14:25:12Z</time>
      </trkpt>
      <trkpt lat="45.62703" lon="6.52453">
        <ele>2026.8</ele>
        <time>2025-02-20T14:25:13Z</time>
      </trkpt>
      <trkpt lat="45.62703" lon="6.52453">
        <ele>2026.8</ele>
        <time>2025-02-20T14:25:14Z</time>
      </trkpt>
      <trkpt lat="45.62703" lon="6.52455">
        <ele>2026.8</ele>
        <time>2025-02-20T14:25:15Z</time>
      </trkpt>
      <trkpt lat="45.62703" lon="6.52455">
        <ele>2027.6</ele>
        <time>2025-02-20T14:25:16Z</time>
      </trkpt>
      <trkpt lat="45.62704" lon="6.52456">
        <ele>2027</ele>
        <time>2025-02-20T14:25:17Z</time>
      </trkpt>
      <trkpt lat="45.62704" lon="6.52457">
        <ele>2027</ele>
        <time>2025-02-20T14:25:18Z</time>
      </trkpt>
      <trkpt lat="45.62704" lon="6.52457">
        <ele>2027</ele>
        <time>2025-02-20T14:25:19Z</time>
      </trkpt>
      <trkpt lat="45.62704" lon="6.52457">
        <ele>2027</ele>
        <time>2025-02-20T14:25:20Z</time>
      </trkpt>
      <trkpt lat="45.62704" lon="6.52457">
        <ele>2029.4</ele>
        <time>2025-02-20T14:25:21Z</time>
      </trkpt>
      <trkpt lat="45.62704" lon="6.52459">
        <ele>2029.4</ele>
        <time>2025-02-20T14:25:22Z</time>
      </trkpt>
      <trkpt lat="45.62704" lon="6.52459">
        <ele>2029.4</ele>
        <time>2025-02-20T14:25:23Z</time>
      </trkpt>
      <trkpt lat="45.62705" lon="6.5246">
        <ele>2028.4</ele>
        <time>2025-02-20T14:25:24Z</time>
      </trkpt>
      <trkpt lat="45.62705" lon="6.5246">
        <ele>2027</ele>
        <time>2025-02-20T14:25:25Z</time>
      </trkpt>
      <trkpt lat="45.62705" lon="6.5246">
        <ele>2027</ele>
        <time>2025-02-20T14:25:26Z</time>
      </trkpt>
      <trkpt lat="45.62705" lon="6.5246">
        <ele>2027</ele>
        <time>2025-02-20T14:25:27Z</time>
      </trkpt>
      <trkpt lat="45.62705" lon="6.5246">
        <ele>2028</ele>
        <time>2025-02-20T14:25:28Z</time>
      </trkpt>
      <trkpt lat="45.62707" lon="6.52463">
        <ele>2029.2</ele>
        <time>2025-02-20T14:25:29Z</time>
      </trkpt>
      <trkpt lat="45.62707" lon="6.52463">
        <ele>2029.2</ele>
        <time>2025-02-20T14:25:30Z</time>
      </trkpt>
      <trkpt lat="45.62708" lon="6.52464">
        <ele>2029.2</ele>
        <time>2025-02-20T14:25:31Z</time>
      </trkpt>
      <trkpt lat="45.62708" lon="6.52464">
        <ele>2029.4</ele>
        <time>2025-02-20T14:25:32Z</time>
      </trkpt>
      <trkpt lat="45.62708" lon="6.52465">
        <ele>2029.4</ele>
        <time>2025-02-20T14:25:33Z</time>
      </trkpt>
      <trkpt lat="45.62708" lon="6.52465">
        <ele>2029.4</ele>
        <time>2025-02-20T14:25:34Z</time>
      </trkpt>
      <trkpt lat="45.62708" lon="6.52465">
        <ele>2029.4</ele>
        <time>2025-02-20T14:25:35Z</time>
      </trkpt>
      <trkpt lat="45.62708" lon="6.52465">
        <ele>2030.4</ele>
        <time>2025-02-20T14:25:36Z</time>
      </trkpt>
      <trkpt lat="45.62708" lon="6.52465">
        <ele>2030.4</ele>
        <time>2025-02-20T14:25:37Z</time>
      </trkpt>
      <trkpt lat="45.62709" lon="6.52468">
        <ele>2030.4</ele>
        <time>2025-02-20T14:25:38Z</time>
      </trkpt>
      <trkpt lat="45.62709" lon="6.52468">
        <ele>2030.4</ele>
        <time>2025-02-20T14:25:39Z</time>
      </trkpt>
      <trkpt lat="45.62709" lon="6.52468">
        <ele>2029.6</ele>
        <time>2025-02-20T14:25:40Z</time>
      </trkpt>
      <trkpt lat="45.62709" lon="6.52468">
        <ele>2030.4</ele>
        <time>2025-02-20T14:25:41Z</time>
      </trkpt>
      <trkpt lat="45.62709" lon="6.52468">
        <ele>2030.4</ele>
        <time>2025-02-20T14:25:42Z</time>
      </trkpt>
      <trkpt lat="45.62709" lon="6.52468">
        <ele>2030.4</ele>
        <time>2025-02-20T14:25:43Z</time>
      </trkpt>
      <trkpt lat="45.62709" lon="6.52468">
        <ele>2030.4</ele>
        <time>2025-02-20T14:25:44Z</time>
      </trkpt>
      <trkpt lat="45.62709" lon="6.52468">
        <ele>2030.4</ele>
        <time>2025-02-20T14:25:45Z</time>
      </trkpt>
      <trkpt lat="45.62709" lon="6.52468">
        <ele>2030.4</ele>
        <time>2025-02-20T14:25:46Z</time>
      </trkpt>
      <trkpt lat="45.62709" lon="6.52468">
        <ele>2030.4</ele>
        <time>2025-02-20T14:25:47Z</time>
      </trkpt>
      <trkpt lat="45.62709" lon="6.52468">
        <ele>2030.4</ele>
        <time>2025-02-20T14:25:48Z</time>
      </trkpt>
      <trkpt lat="45.62709" lon="6.52468">
        <ele>2031</ele>
        <time>2025-02-20T14:25:49Z</time>
      </trkpt>
      <trkpt lat="45.62709" lon="6.52468">
        <ele>2031</ele>
        <time>2025-02-20T14:25:50Z</time>
      </trkpt>
      <trkpt lat="45.62709" lon="6.52468">
        <ele>2031</ele>
        <time>2025-02-20T14:25:51Z</time>
      </trkpt>
      <trkpt lat="45.62709" lon="6.52468">
        <ele>2031</ele>
        <time>2025-02-20T14:25:52Z</time>
      </trkpt>
      <trkpt lat="45.62709" lon="6.52468">
        <ele>2031.4</ele>
        <time>2025-02-20T14:25:53Z</time>
      </trkpt>
      <trkpt lat="45.62709" lon="6.52468">
        <ele>2031.4</ele>
        <time>2025-02-20T14:25:54Z</time>
      </trkpt>
      <trkpt lat="45.62709" lon="6.52468">
        <ele>2031.4</ele>
        <time>2025-02-20T14:25:55Z</time>
      </trkpt>
      <trkpt lat="45.62709" lon="6.52469">
        <ele>2031.4</ele>
        <time>2025-02-20T14:25:56Z</time>
      </trkpt>
      <trkpt lat="45.62708" lon="6.52469">
        <ele>2030.6</ele>
        <time>2025-02-20T14:25:57Z</time>
      </trkpt>
      <trkpt lat="45.62708" lon="6.52469">
        <ele>2030.6</ele>
        <time>2025-02-20T14:25:58Z</time>
      </trkpt>
      <trkpt lat="45.62708" lon="6.52469">
        <ele>2030.6</ele>
        <time>2025-02-20T14:25:59Z</time>
      </trkpt>
      <trkpt lat="45.62709" lon="6.52472">
        <ele>2031.6</ele>
        <time>2025-02-20T14:26:00Z</time>
      </trkpt>
      <trkpt lat="45.62709" lon="6.52473">
        <ele>2031.8</ele>
        <time>2025-02-20T14:26:01Z</time>
      </trkpt>
      <trkpt lat="45.62709" lon="6.52474">
        <ele>2031.8</ele>
        <time>2025-02-20T14:26:02Z</time>
      </trkpt>
      <trkpt lat="45.62709" lon="6.52475">
        <ele>2031.8</ele>
        <time>2025-02-20T14:26:03Z</time>
      </trkpt>
      <trkpt lat="45.62709" lon="6.52475">
        <ele>2032.2</ele>
        <time>2025-02-20T14:26:04Z</time>
      </trkpt>
      <trkpt lat="45.62709" lon="6.52475">
        <ele>2032</ele>
        <time>2025-02-20T14:26:05Z</time>
      </trkpt>
      <trkpt lat="45.62709" lon="6.52475">
        <ele>2032</ele>
        <time>2025-02-20T14:26:06Z</time>
      </trkpt>
      <trkpt lat="45.62708" lon="6.52477">
        <ele>2032</ele>
        <time>2025-02-20T14:26:07Z</time>
      </trkpt>
      <trkpt lat="45.62708" lon="6.52478">
        <ele>2032</ele>
        <time>2025-02-20T14:26:08Z</time>
      </trkpt>
      <trkpt lat="45.62708" lon="6.52478">
        <ele>2033.4</ele>
        <time>2025-02-20T14:26:09Z</time>
      </trkpt>
      <trkpt lat="45.62709" lon="6.52479">
        <ele>2033.4</ele>
        <time>2025-02-20T14:26:10Z</time>
      </trkpt>
      <trkpt lat="45.62709" lon="6.5248">
        <ele>2033.4</ele>
        <time>2025-02-20T14:26:11Z</time>
      </trkpt>
      <trkpt lat="45.62709" lon="6.5248">
        <ele>2033.6</ele>
        <time>2025-02-20T14:26:12Z</time>
      </trkpt>
      <trkpt lat="45.62708" lon="6.52481">
        <ele>2034.2</ele>
        <time>2025-02-20T14:26:13Z</time>
      </trkpt>
      <trkpt lat="45.62708" lon="6.52481">
        <ele>2034.2</ele>
        <time>2025-02-20T14:26:14Z</time>
      </trkpt>
      <trkpt lat="45.62708" lon="6.52481">
        <ele>2034.2</ele>
        <time>2025-02-20T14:26:15Z</time>
      </trkpt>
      <trkpt lat="45.62709" lon="6.52483">
        <ele>2034.2</ele>
        <time>2025-02-20T14:26:16Z</time>
      </trkpt>
      <trkpt lat="45.62709" lon="6.52483">
        <ele>2034.4</ele>
        <time>2025-02-20T14:26:17Z</time>
      </trkpt>
      <trkpt lat="45.62709" lon="6.52484">
        <ele>2034.4</ele>
        <time>2025-02-20T14:26:18Z</time>
      </trkpt>
      <trkpt lat="45.62709" lon="6.52485">
        <ele>2034.4</ele>
        <time>2025-02-20T14:26:19Z</time>
      </trkpt>
      <trkpt lat="45.62709" lon="6.52486">
        <ele>2034.4</ele>
        <time>2025-02-20T14:26:20Z</time>
      </trkpt>
      <trkpt lat="45.62709" lon="6.52486">
        <ele>2033.8</ele>
        <time>2025-02-20T14:26:21Z</time>
      </trkpt>
      <trkpt lat="45.62709" lon="6.52487">
        <ele>2033.8</ele>
        <time>2025-02-20T14:26:22Z</time>
      </trkpt>
      <trkpt lat="45.62708" lon="6.52487">
        <ele>2033.8</ele>
        <time>2025-02-20T14:26:23Z</time>
      </trkpt>
      <trkpt lat="45.62708" lon="6.52487">
        <ele>2034.8</ele>
        <time>2025-02-20T14:26:24Z</time>
      </trkpt>
      <trkpt lat="45.62709" lon="6.52489">
        <ele>2035.6</ele>
        <time>2025-02-20T14:26:25Z</time>
      </trkpt>
      <trkpt lat="45.62708" lon="6.52491">
        <ele>2035.6</ele>
        <time>2025-02-20T14:26:26Z</time>
      </trkpt>
      <trkpt lat="45.62709" lon="6.52491">
        <ele>2035.6</ele>
        <time>2025-02-20T14:26:27Z</time>
      </trkpt>
      <trkpt lat="45.62709" lon="6.52493">
        <ele>2036.2</ele>
        <time>2025-02-20T14:26:28Z</time>
      </trkpt>
      <trkpt lat="45.62709" lon="6.52494">
        <ele>2036.2</ele>
        <time>2025-02-20T14:26:29Z</time>
      </trkpt>
      <trkpt lat="45.62709" lon="6.52494">
        <ele>2036.2</ele>
        <time>2025-02-20T14:26:30Z</time>
      </trkpt>
      <trkpt lat="45.62709" lon="6.52495">
        <ele>2036.2</ele>
        <time>2025-02-20T14:26:31Z</time>
      </trkpt>
      <trkpt lat="45.62709" lon="6.52496">
        <ele>2036.2</ele>
        <time>2025-02-20T14:26:32Z</time>
      </trkpt>
      <trkpt lat="45.6271" lon="6.52497">
        <ele>2035.8</ele>
        <time>2025-02-20T14:26:33Z</time>
      </trkpt>
      <trkpt lat="45.6271" lon="6.52497">
        <ele>2035.8</ele>
        <time>2025-02-20T14:26:34Z</time>
      </trkpt>
      <trkpt lat="45.6271" lon="6.52498">
        <ele>2035.8</ele>
        <time>2025-02-20T14:26:35Z</time>
      </trkpt>
      <trkpt lat="45.6271" lon="6.52499">
        <ele>2035.8</ele>
        <time>2025-02-20T14:26:36Z</time>
      </trkpt>
      <trkpt lat="45.6271" lon="6.52499">
        <ele>2037.4</ele>
        <time>2025-02-20T14:26:37Z</time>
      </trkpt>
      <trkpt lat="45.6271" lon="6.52499">
        <ele>2037.4</ele>
        <time>2025-02-20T14:26:38Z</time>
      </trkpt>
      <trkpt lat="45.6271" lon="6.52499">
        <ele>2037.4</ele>
        <time>2025-02-20T14:26:39Z</time>
      </trkpt>
      <trkpt lat="45.62712" lon="6.52501">
        <ele>2037.4</ele>
        <time>2025-02-20T14:26:40Z</time>
      </trkpt>
      <trkpt lat="45.62713" lon="6.52501">
        <ele>2038</ele>
        <time>2025-02-20T14:26:41Z</time>
      </trkpt>
      <trkpt lat="45.62713" lon="6.52501">
        <ele>2038</ele>
        <time>2025-02-20T14:26:42Z</time>
      </trkpt>
      <trkpt lat="45.62713" lon="6.52501">
        <ele>2038</ele>
        <time>2025-02-20T14:26:43Z</time>
      </trkpt>
      <trkpt lat="45.62713" lon="6.52502">
        <ele>2038.6</ele>
        <time>2025-02-20T14:26:44Z</time>
      </trkpt>
      <trkpt lat="45.62713" lon="6.52503">
        <ele>2038.4</ele>
        <time>2025-02-20T14:26:45Z</time>
      </trkpt>
      <trkpt lat="45.62714" lon="6.52503">
        <ele>2038.4</ele>
        <time>2025-02-20T14:26:46Z</time>
      </trkpt>
      <trkpt lat="45.62714" lon="6.52504">
        <ele>2038.4</ele>
        <time>2025-02-20T14:26:47Z</time>
      </trkpt>
      <trkpt lat="45.62715" lon="6.52504">
        <ele>2038.4</ele>
        <time>2025-02-20T14:26:48Z</time>
      </trkpt>
      <trkpt lat="45.62715" lon="6.52504">
        <ele>2038.8</ele>
        <time>2025-02-20T14:26:49Z</time>
      </trkpt>
      <trkpt lat="45.62715" lon="6.52504">
        <ele>2038.8</ele>
        <time>2025-02-20T14:26:50Z</time>
      </trkpt>
      <trkpt lat="45.62715" lon="6.52504">
        <ele>2038.8</ele>
        <time>2025-02-20T14:26:51Z</time>
      </trkpt>
      <trkpt lat="45.62715" lon="6.52504">
        <ele>2038.8</ele>
        <time>2025-02-20T14:26:52Z</time>
      </trkpt>
      <trkpt lat="45.62715" lon="6.52504">
        <ele>2039.2</ele>
        <time>2025-02-20T14:26:53Z</time>
      </trkpt>
      <trkpt lat="45.62715" lon="6.52504">
        <ele>2039.2</ele>
        <time>2025-02-20T14:26:54Z</time>
      </trkpt>
      <trkpt lat="45.62715" lon="6.52504">
        <ele>2039.2</ele>
        <time>2025-02-20T14:26:55Z</time>
      </trkpt>
      <trkpt lat="45.62715" lon="6.52504">
        <ele>2039.8</ele>
        <time>2025-02-20T14:26:56Z</time>
      </trkpt>
      <trkpt lat="45.62715" lon="6.52504">
        <ele>2040</ele>
        <time>2025-02-20T14:26:57Z</time>
      </trkpt>
      <trkpt lat="45.62715" lon="6.52504">
        <ele>2040</ele>
        <time>2025-02-20T14:26:58Z</time>
      </trkpt>
      <trkpt lat="45.62718" lon="6.52506">
        <ele>2040</ele>
        <time>2025-02-20T14:26:59Z</time>
      </trkpt>
      <trkpt lat="45.62719" lon="6.52506">
        <ele>2040</ele>
        <time>2025-02-20T14:27:00Z</time>
      </trkpt>
      <trkpt lat="45.62719" lon="6.52506">
        <ele>2038.6</ele>
        <time>2025-02-20T14:27:01Z</time>
      </trkpt>
      <trkpt lat="45.62719" lon="6.52506">
        <ele>2038.6</ele>
        <time>2025-02-20T14:27:02Z</time>
      </trkpt>
      <trkpt lat="45.62719" lon="6.52506">
        <ele>2038.6</ele>
        <time>2025-02-20T14:27:03Z</time>
      </trkpt>
      <trkpt lat="45.62719" lon="6.52506">
        <ele>2039.6</ele>
        <time>2025-02-20T14:27:04Z</time>
      </trkpt>
      <trkpt lat="45.6272" lon="6.52504">
        <ele>2040</ele>
        <time>2025-02-20T14:27:05Z</time>
      </trkpt>
      <trkpt lat="45.6272" lon="6.52503">
        <ele>2040</ele>
        <time>2025-02-20T14:27:06Z</time>
      </trkpt>
      <trkpt lat="45.62721" lon="6.52503">
        <ele>2040</ele>
        <time>2025-02-20T14:27:07Z</time>
      </trkpt>
      <trkpt lat="45.62721" lon="6.52502">
        <ele>2040</ele>
        <time>2025-02-20T14:27:08Z</time>
      </trkpt>
      <trkpt lat="45.62722" lon="6.52501">
        <ele>2040.6</ele>
        <time>2025-02-20T14:27:09Z</time>
      </trkpt>
      <trkpt lat="45.62722" lon="6.525">
        <ele>2040.6</ele>
        <time>2025-02-20T14:27:10Z</time>
      </trkpt>
      <trkpt lat="45.62722" lon="6.525">
        <ele>2040.6</ele>
        <time>2025-02-20T14:27:11Z</time>
      </trkpt>
      <trkpt lat="45.62722" lon="6.52499">
        <ele>2040.6</ele>
        <time>2025-02-20T14:27:12Z</time>
      </trkpt>
      <trkpt lat="45.62722" lon="6.52499">
        <ele>2041.2</ele>
        <time>2025-02-20T14:27:13Z</time>
      </trkpt>
      <trkpt lat="45.62722" lon="6.52499">
        <ele>2041.2</ele>
        <time>2025-02-20T14:27:14Z</time>
      </trkpt>
      <trkpt lat="45.62724" lon="6.52499">
        <ele>2041.2</ele>
        <time>2025-02-20T14:27:15Z</time>
      </trkpt>
      <trkpt lat="45.62724" lon="6.52499">
        <ele>2041.2</ele>
        <time>2025-02-20T14:27:16Z</time>
      </trkpt>
      <trkpt lat="45.62725" lon="6.52499">
        <ele>2042.2</ele>
        <time>2025-02-20T14:27:17Z</time>
      </trkpt>
      <trkpt lat="45.62725" lon="6.52498">
        <ele>2042.2</ele>
        <time>2025-02-20T14:27:18Z</time>
      </trkpt>
      <trkpt lat="45.62725" lon="6.52498">
        <ele>2042.2</ele>
        <time>2025-02-20T14:27:19Z</time>
      </trkpt>
      <trkpt lat="45.62726" lon="6.52498">
        <ele>2042.2</ele>
        <time>2025-02-20T14:27:20Z</time>
      </trkpt>
      <trkpt lat="45.62726" lon="6.52497">
        <ele>2042.4</ele>
        <time>2025-02-20T14:27:21Z</time>
      </trkpt>
      <trkpt lat="45.62727" lon="6.52496">
        <ele>2042.4</ele>
        <time>2025-02-20T14:27:22Z</time>
      </trkpt>
      <trkpt lat="45.62727" lon="6.52496">
        <ele>2042.4</ele>
        <time>2025-02-20T14:27:23Z</time>
      </trkpt>
      <trkpt lat="45.62728" lon="6.52496">
        <ele>2042.4</ele>
        <time>2025-02-20T14:27:24Z</time>
      </trkpt>
      <trkpt lat="45.62727" lon="6.52495">
        <ele>2042.8</ele>
        <time>2025-02-20T14:27:25Z</time>
      </trkpt>
      <trkpt lat="45.62728" lon="6.52494">
        <ele>2042.8</ele>
        <time>2025-02-20T14:27:26Z</time>
      </trkpt>
      <trkpt lat="45.62728" lon="6.52494">
        <ele>2042.8</ele>
        <time>2025-02-20T14:27:27Z</time>
      </trkpt>
      <trkpt lat="45.62728" lon="6.52493">
        <ele>2042</ele>
        <time>2025-02-20T14:27:28Z</time>
      </trkpt>
      <trkpt lat="45.62728" lon="6.52493">
        <ele>2042.6</ele>
        <time>2025-02-20T14:27:29Z</time>
      </trkpt>
      <trkpt lat="45.62729" lon="6.52492">
        <ele>2042.6</ele>
        <time>2025-02-20T14:27:30Z</time>
      </trkpt>
      <trkpt lat="45.62729" lon="6.52492">
        <ele>2042.6</ele>
        <time>2025-02-20T14:27:31Z</time>
      </trkpt>
      <trkpt lat="45.62729" lon="6.52492">
        <ele>2042.6</ele>
        <time>2025-02-20T14:27:32Z</time>
      </trkpt>
      <trkpt lat="45.62729" lon="6.52492">
        <ele>2043.6</ele>
        <time>2025-02-20T14:27:33Z</time>
      </trkpt>
      <trkpt lat="45.62729" lon="6.52492">
        <ele>2043.6</ele>
        <time>2025-02-20T14:27:34Z</time>
      </trkpt>
      <trkpt lat="45.6273" lon="6.52489">
        <ele>2043.6</ele>
        <time>2025-02-20T14:27:35Z</time>
      </trkpt>
      <trkpt lat="45.6273" lon="6.52489">
        <ele>2044.6</ele>
        <time>2025-02-20T14:27:36Z</time>
      </trkpt>
      <trkpt lat="45.62731" lon="6.52489">
        <ele>2044.6</ele>
        <time>2025-02-20T14:27:37Z</time>
      </trkpt>
      <trkpt lat="45.62731" lon="6.52488">
        <ele>2044.6</ele>
        <time>2025-02-20T14:27:38Z</time>
      </trkpt>
      <trkpt lat="45.62732" lon="6.52488">
        <ele>2044.6</ele>
        <time>2025-02-20T14:27:39Z</time>
      </trkpt>
      <trkpt lat="45.62732" lon="6.52488">
        <ele>2044.6</ele>
        <time>2025-02-20T14:27:40Z</time>
      </trkpt>
      <trkpt lat="45.62733" lon="6.52488">
        <ele>2043.6</ele>
        <time>2025-02-20T14:27:41Z</time>
      </trkpt>
      <trkpt lat="45.62734" lon="6.52489">
        <ele>2043.6</ele>
        <time>2025-02-20T14:27:42Z</time>
      </trkpt>
      <trkpt lat="45.62734" lon="6.52489">
        <ele>2043.6</ele>
        <time>2025-02-20T14:27:43Z</time>
      </trkpt>
      <trkpt lat="45.62734" lon="6.52489">
        <ele>2044.4</ele>
        <time>2025-02-20T14:27:44Z</time>
      </trkpt>
      <trkpt lat="45.62735" lon="6.5249">
        <ele>2044.4</ele>
        <time>2025-02-20T14:27:45Z</time>
      </trkpt>
      <trkpt lat="45.62735" lon="6.5249">
        <ele>2044.4</ele>
        <time>2025-02-20T14:27:46Z</time>
      </trkpt>
      <trkpt lat="45.62735" lon="6.5249">
        <ele>2044.4</ele>
        <time>2025-02-20T14:27:47Z</time>
      </trkpt>
      <trkpt lat="45.62735" lon="6.5249">
        <ele>2044.6</ele>
        <time>2025-02-20T14:27:48Z</time>
      </trkpt>
      <trkpt lat="45.62737" lon="6.52491">
        <ele>2045.2</ele>
        <time>2025-02-20T14:27:49Z</time>
      </trkpt>
      <trkpt lat="45.62737" lon="6.52492">
        <ele>2045.2</ele>
        <time>2025-02-20T14:27:50Z</time>
      </trkpt>
      <trkpt lat="45.62737" lon="6.52493">
        <ele>2045.2</ele>
        <time>2025-02-20T14:27:51Z</time>
      </trkpt>
      <trkpt lat="45.62738" lon="6.52493">
        <ele>2045.2</ele>
        <time>2025-02-20T14:27:52Z</time>
      </trkpt>
      <trkpt lat="45.62738" lon="6.52494">
        <ele>2045.8</ele>
        <time>2025-02-20T14:27:53Z</time>
      </trkpt>
      <trkpt lat="45.62738" lon="6.52495">
        <ele>2045.8</ele>
        <time>2025-02-20T14:27:54Z</time>
      </trkpt>
      <trkpt lat="45.62738" lon="6.52495">
        <ele>2045.8</ele>
        <time>2025-02-20T14:27:55Z</time>
      </trkpt>
      <trkpt lat="45.62738" lon="6.52495">
        <ele>2045.8</ele>
        <time>2025-02-20T14:27:56Z</time>
      </trkpt>
      <trkpt lat="45.62738" lon="6.52496">
        <ele>2046</ele>
        <time>2025-02-20T14:27:57Z</time>
      </trkpt>
      <trkpt lat="45.62738" lon="6.52496">
        <ele>2046</ele>
        <time>2025-02-20T14:27:58Z</time>
      </trkpt>
      <trkpt lat="45.62739" lon="6.52497">
        <ele>2046</ele>
        <time>2025-02-20T14:27:59Z</time>
      </trkpt>
      <trkpt lat="45.62739" lon="6.52497">
        <ele>2046.6</ele>
        <time>2025-02-20T14:28:00Z</time>
      </trkpt>
      <trkpt lat="45.62739" lon="6.52498">
        <ele>2046.2</ele>
        <time>2025-02-20T14:28:01Z</time>
      </trkpt>
      <trkpt lat="45.6274" lon="6.52498">
        <ele>2046.2</ele>
        <time>2025-02-20T14:28:02Z</time>
      </trkpt>
      <trkpt lat="45.6274" lon="6.52499">
        <ele>2046.2</ele>
        <time>2025-02-20T14:28:03Z</time>
      </trkpt>
      <trkpt lat="45.6274" lon="6.525">
        <ele>2047.2</ele>
        <time>2025-02-20T14:28:04Z</time>
      </trkpt>
      <trkpt lat="45.62741" lon="6.525">
        <ele>2046.8</ele>
        <time>2025-02-20T14:28:05Z</time>
      </trkpt>
      <trkpt lat="45.62741" lon="6.52501">
        <ele>2046.8</ele>
        <time>2025-02-20T14:28:06Z</time>
      </trkpt>
      <trkpt lat="45.62741" lon="6.52502">
        <ele>2046.8</ele>
        <time>2025-02-20T14:28:07Z</time>
      </trkpt>
      <trkpt lat="45.62742" lon="6.52502">
        <ele>2047.6</ele>
        <time>2025-02-20T14:28:08Z</time>
      </trkpt>
      <trkpt lat="45.62742" lon="6.52502">
        <ele>2046.8</ele>
        <time>2025-02-20T14:28:09Z</time>
      </trkpt>
      <trkpt lat="45.62742" lon="6.52503">
        <ele>2046.8</ele>
        <time>2025-02-20T14:28:10Z</time>
      </trkpt>
      <trkpt lat="45.62743" lon="6.52503">
        <ele>2046.8</ele>
        <time>2025-02-20T14:28:11Z</time>
      </trkpt>
      <trkpt lat="45.62744" lon="6.52505">
        <ele>2046.8</ele>
        <time>2025-02-20T14:28:12Z</time>
      </trkpt>
      <trkpt lat="45.62744" lon="6.52505">
        <ele>2048.2</ele>
        <time>2025-02-20T14:28:13Z</time>
      </trkpt>
      <trkpt lat="45.62744" lon="6.52505">
        <ele>2048.2</ele>
        <time>2025-02-20T14:28:14Z</time>
      </trkpt>
      <trkpt lat="45.62745" lon="6.52506">
        <ele>2048.2</ele>
        <time>2025-02-20T14:28:15Z</time>
      </trkpt>
      <trkpt lat="45.62746" lon="6.52507">
        <ele>2047.6</ele>
        <time>2025-02-20T14:28:16Z</time>
      </trkpt>
      <trkpt lat="45.62746" lon="6.52507">
        <ele>2047.6</ele>
        <time>2025-02-20T14:28:17Z</time>
      </trkpt>
      <trkpt lat="45.62747" lon="6.52508">
        <ele>2047.6</ele>
        <time>2025-02-20T14:28:18Z</time>
      </trkpt>
      <trkpt lat="45.62747" lon="6.52509">
        <ele>2047.6</ele>
        <time>2025-02-20T14:28:19Z</time>
      </trkpt>
      <trkpt lat="45.62747" lon="6.52509">
        <ele>2047.6</ele>
        <time>2025-02-20T14:28:20Z</time>
      </trkpt>
      <trkpt lat="45.62748" lon="6.5251">
        <ele>2047.8</ele>
        <time>2025-02-20T14:28:21Z</time>
      </trkpt>
      <trkpt lat="45.62748" lon="6.52511">
        <ele>2047.8</ele>
        <time>2025-02-20T14:28:22Z</time>
      </trkpt>
      <trkpt lat="45.62749" lon="6.52511">
        <ele>2047.8</ele>
        <time>2025-02-20T14:28:23Z</time>
      </trkpt>
      <trkpt lat="45.62749" lon="6.52512">
        <ele>2047.8</ele>
        <time>2025-02-20T14:28:24Z</time>
      </trkpt>
      <trkpt lat="45.6275" lon="6.52513">
        <ele>2047.6</ele>
        <time>2025-02-20T14:28:25Z</time>
      </trkpt>
      <trkpt lat="45.6275" lon="6.52513">
        <ele>2047.6</ele>
        <time>2025-02-20T14:28:26Z</time>
      </trkpt>
      <trkpt lat="45.62751" lon="6.52514">
        <ele>2047.6</ele>
        <time>2025-02-20T14:28:27Z</time>
      </trkpt>
      <trkpt lat="45.62751" lon="6.52514">
        <ele>2048.2</ele>
        <time>2025-02-20T14:28:28Z</time>
      </trkpt>
      <trkpt lat="45.62752" lon="6.52515">
        <ele>2047.4</ele>
        <time>2025-02-20T14:28:29Z</time>
      </trkpt>
      <trkpt lat="45.62751" lon="6.52515">
        <ele>2047.4</ele>
        <time>2025-02-20T14:28:30Z</time>
      </trkpt>
      <trkpt lat="45.62751" lon="6.52515">
        <ele>2047.4</ele>
        <time>2025-02-20T14:28:31Z</time>
      </trkpt>
      <trkpt lat="45.62751" lon="6.52515">
        <ele>2048</ele>
        <time>2025-02-20T14:28:32Z</time>
      </trkpt>
      <trkpt lat="45.62751" lon="6.52515">
        <ele>2047.6</ele>
        <time>2025-02-20T14:28:33Z</time>
      </trkpt>
      <trkpt lat="45.62751" lon="6.52515">
        <ele>2047.6</ele>
        <time>2025-02-20T14:28:34Z</time>
      </trkpt>
      <trkpt lat="45.62751" lon="6.52515">
        <ele>2047.6</ele>
        <time>2025-02-20T14:28:35Z</time>
      </trkpt>
      <trkpt lat="45.62754" lon="6.52517">
        <ele>2048.6</ele>
        <time>2025-02-20T14:28:36Z</time>
      </trkpt>
      <trkpt lat="45.62755" lon="6.52518">
        <ele>2048.8</ele>
        <time>2025-02-20T14:28:37Z</time>
      </trkpt>
      <trkpt lat="45.62755" lon="6.52518">
        <ele>2048.8</ele>
        <time>2025-02-20T14:28:38Z</time>
      </trkpt>
      <trkpt lat="45.62755" lon="6.52518">
        <ele>2048.8</ele>
        <time>2025-02-20T14:28:39Z</time>
      </trkpt>
      <trkpt lat="45.62755" lon="6.52519">
        <ele>2048.8</ele>
        <time>2025-02-20T14:28:40Z</time>
      </trkpt>
      <trkpt lat="45.62756" lon="6.52518">
        <ele>2048.4</ele>
        <time>2025-02-20T14:28:41Z</time>
      </trkpt>
      <trkpt lat="45.62756" lon="6.52518">
        <ele>2048.4</ele>
        <time>2025-02-20T14:28:42Z</time>
      </trkpt>
      <trkpt lat="45.62757" lon="6.52519">
        <ele>2048.4</ele>
        <time>2025-02-20T14:28:43Z</time>
      </trkpt>
      <trkpt lat="45.62758" lon="6.52519">
        <ele>2049.4</ele>
        <time>2025-02-20T14:28:44Z</time>
      </trkpt>
      <trkpt lat="45.62758" lon="6.5252">
        <ele>2049.8</ele>
        <time>2025-02-20T14:28:45Z</time>
      </trkpt>
      <trkpt lat="45.62758" lon="6.5252">
        <ele>2049.8</ele>
        <time>2025-02-20T14:28:46Z</time>
      </trkpt>
      <trkpt lat="45.62758" lon="6.52521">
        <ele>2049.8</ele>
        <time>2025-02-20T14:28:47Z</time>
      </trkpt>
      <trkpt lat="45.62759" lon="6.52522">
        <ele>2049.8</ele>
        <time>2025-02-20T14:28:48Z</time>
      </trkpt>
      <trkpt lat="45.62758" lon="6.52522">
        <ele>2050.8</ele>
        <time>2025-02-20T14:28:49Z</time>
      </trkpt>
      <trkpt lat="45.62758" lon="6.52522">
        <ele>2050.8</ele>
        <time>2025-02-20T14:28:50Z</time>
      </trkpt>
      <trkpt lat="45.62758" lon="6.52522">
        <ele>2050.8</ele>
        <time>2025-02-20T14:28:51Z</time>
      </trkpt>
      <trkpt lat="45.62759" lon="6.52523">
        <ele>2050.8</ele>
        <time>2025-02-20T14:28:52Z</time>
      </trkpt>
      <trkpt lat="45.6276" lon="6.52524">
        <ele>2051</ele>
        <time>2025-02-20T14:28:53Z</time>
      </trkpt>
      <trkpt lat="45.62761" lon="6.52525">
        <ele>2051</ele>
        <time>2025-02-20T14:28:54Z</time>
      </trkpt>
      <trkpt lat="45.62762" lon="6.52526">
        <ele>2051</ele>
        <time>2025-02-20T14:28:55Z</time>
      </trkpt>
      <trkpt lat="45.62763" lon="6.52527">
        <ele>2051.4</ele>
        <time>2025-02-20T14:28:56Z</time>
      </trkpt>
      <trkpt lat="45.62763" lon="6.52527">
        <ele>2051.4</ele>
        <time>2025-02-20T14:28:57Z</time>
      </trkpt>
      <trkpt lat="45.62764" lon="6.52528">
        <ele>2051.4</ele>
        <time>2025-02-20T14:28:58Z</time>
      </trkpt>
      <trkpt lat="45.62765" lon="6.52528">
        <ele>2051.4</ele>
        <time>2025-02-20T14:28:59Z</time>
      </trkpt>
      <trkpt lat="45.62765" lon="6.52529">
        <ele>2051.4</ele>
        <time>2025-02-20T14:29:00Z</time>
      </trkpt>
      <trkpt lat="45.62765" lon="6.52529">
        <ele>2052.6</ele>
        <time>2025-02-20T14:29:01Z</time>
      </trkpt>
      <trkpt lat="45.62765" lon="6.52529">
        <ele>2052.6</ele>
        <time>2025-02-20T14:29:02Z</time>
      </trkpt>
      <trkpt lat="45.62765" lon="6.52529">
        <ele>2052.6</ele>
        <time>2025-02-20T14:29:03Z</time>
      </trkpt>
      <trkpt lat="45.62767" lon="6.5253">
        <ele>2052.6</ele>
        <time>2025-02-20T14:29:04Z</time>
      </trkpt>
      <trkpt lat="45.62767" lon="6.5253">
        <ele>2052.6</ele>
        <time>2025-02-20T14:29:05Z</time>
      </trkpt>
      <trkpt lat="45.62767" lon="6.5253">
        <ele>2052.6</ele>
        <time>2025-02-20T14:29:06Z</time>
      </trkpt>
      <trkpt lat="45.62767" lon="6.5253">
        <ele>2052.6</ele>
        <time>2025-02-20T14:29:07Z</time>
      </trkpt>
      <trkpt lat="45.62767" lon="6.5253">
        <ele>2052.6</ele>
        <time>2025-02-20T14:29:08Z</time>
      </trkpt>
      <trkpt lat="45.62767" lon="6.5253">
        <ele>2052.6</ele>
        <time>2025-02-20T14:29:09Z</time>
      </trkpt>
      <trkpt lat="45.62769" lon="6.52531">
        <ele>2052.6</ele>
        <time>2025-02-20T14:29:10Z</time>
      </trkpt>
      <trkpt lat="45.6277" lon="6.52532">
        <ele>2052.6</ele>
        <time>2025-02-20T14:29:11Z</time>
      </trkpt>
      <trkpt lat="45.6277" lon="6.52531">
        <ele>2052.8</ele>
        <time>2025-02-20T14:29:12Z</time>
      </trkpt>
      <trkpt lat="45.62771" lon="6.52532">
        <ele>2053.2</ele>
        <time>2025-02-20T14:29:13Z</time>
      </trkpt>
      <trkpt lat="45.62771" lon="6.52533">
        <ele>2053.2</ele>
        <time>2025-02-20T14:29:14Z</time>
      </trkpt>
      <trkpt lat="45.62772" lon="6.52534">
        <ele>2053.2</ele>
        <time>2025-02-20T14:29:15Z</time>
      </trkpt>
      <trkpt lat="45.62772" lon="6.52535">
        <ele>2053.2</ele>
        <time>2025-02-20T14:29:16Z</time>
      </trkpt>
      <trkpt lat="45.62772" lon="6.52535">
        <ele>2053</ele>
        <time>2025-02-20T14:29:17Z</time>
      </trkpt>
      <trkpt lat="45.62773" lon="6.52534">
        <ele>2053</ele>
        <time>2025-02-20T14:29:18Z</time>
      </trkpt>
      <trkpt lat="45.62774" lon="6.52535">
        <ele>2053</ele>
        <time>2025-02-20T14:29:19Z</time>
      </trkpt>
      <trkpt lat="45.62774" lon="6.52535">
        <ele>2053</ele>
        <time>2025-02-20T14:29:20Z</time>
      </trkpt>
      <trkpt lat="45.62775" lon="6.52536">
        <ele>2053.6</ele>
        <time>2025-02-20T14:29:21Z</time>
      </trkpt>
      <trkpt lat="45.62776" lon="6.52537">
        <ele>2053.6</ele>
        <time>2025-02-20T14:29:22Z</time>
      </trkpt>
      <trkpt lat="45.62776" lon="6.52537">
        <ele>2053.6</ele>
        <time>2025-02-20T14:29:23Z</time>
      </trkpt>
      <trkpt lat="45.62776" lon="6.52537">
        <ele>2053.2</ele>
        <time>2025-02-20T14:29:24Z</time>
      </trkpt>
      <trkpt lat="45.62778" lon="6.52539">
        <ele>2053.6</ele>
        <time>2025-02-20T14:29:25Z</time>
      </trkpt>
      <trkpt lat="45.62778" lon="6.52539">
        <ele>2053.6</ele>
        <time>2025-02-20T14:29:26Z</time>
      </trkpt>
      <trkpt lat="45.62779" lon="6.5254">
        <ele>2053.6</ele>
        <time>2025-02-20T14:29:27Z</time>
      </trkpt>
      <trkpt lat="45.62779" lon="6.5254">
        <ele>2054.6</ele>
        <time>2025-02-20T14:29:28Z</time>
      </trkpt>
      <trkpt lat="45.62779" lon="6.5254">
        <ele>2053.8</ele>
        <time>2025-02-20T14:29:29Z</time>
      </trkpt>
      <trkpt lat="45.62779" lon="6.5254">
        <ele>2053.8</ele>
        <time>2025-02-20T14:29:30Z</time>
      </trkpt>
      <trkpt lat="45.62781" lon="6.52542">
        <ele>2053.8</ele>
        <time>2025-02-20T14:29:31Z</time>
      </trkpt>
      <trkpt lat="45.62782" lon="6.52543">
        <ele>2054.6</ele>
        <time>2025-02-20T14:29:32Z</time>
      </trkpt>
      <trkpt lat="45.62782" lon="6.52543">
        <ele>2055</ele>
        <time>2025-02-20T14:29:33Z</time>
      </trkpt>
      <trkpt lat="45.62782" lon="6.52544">
        <ele>2055</ele>
        <time>2025-02-20T14:29:34Z</time>
      </trkpt>
      <trkpt lat="45.62783" lon="6.52545">
        <ele>2055</ele>
        <time>2025-02-20T14:29:35Z</time>
      </trkpt>
      <trkpt lat="45.62784" lon="6.52546">
        <ele>2055.6</ele>
        <time>2025-02-20T14:29:36Z</time>
      </trkpt>
      <trkpt lat="45.62784" lon="6.52547">
        <ele>2055.4</ele>
        <time>2025-02-20T14:29:37Z</time>
      </trkpt>
      <trkpt lat="45.62785" lon="6.52547">
        <ele>2055.4</ele>
        <time>2025-02-20T14:29:38Z</time>
      </trkpt>
      <trkpt lat="45.62785" lon="6.52547">
        <ele>2055.4</ele>
        <time>2025-02-20T14:29:39Z</time>
      </trkpt>
      <trkpt lat="45.62785" lon="6.52548">
        <ele>2055.4</ele>
        <time>2025-02-20T14:29:40Z</time>
      </trkpt>
      <trkpt lat="45.62786" lon="6.52549">
        <ele>2055.2</ele>
        <time>2025-02-20T14:29:41Z</time>
      </trkpt>
      <trkpt lat="45.62786" lon="6.5255">
        <ele>2055.2</ele>
        <time>2025-02-20T14:29:42Z</time>
      </trkpt>
      <trkpt lat="45.62787" lon="6.52551">
        <ele>2055.2</ele>
        <time>2025-02-20T14:29:43Z</time>
      </trkpt>
      <trkpt lat="45.62787" lon="6.52552">
        <ele>2056.2</ele>
        <time>2025-02-20T14:29:44Z</time>
      </trkpt>
      <trkpt lat="45.62788" lon="6.52552">
        <ele>2056</ele>
        <time>2025-02-20T14:29:45Z</time>
      </trkpt>
      <trkpt lat="45.62788" lon="6.52553">
        <ele>2056</ele>
        <time>2025-02-20T14:29:46Z</time>
      </trkpt>
      <trkpt lat="45.62788" lon="6.52554">
        <ele>2056</ele>
        <time>2025-02-20T14:29:47Z</time>
      </trkpt>
      <trkpt lat="45.62788" lon="6.52555">
        <ele>2056</ele>
        <time>2025-02-20T14:29:48Z</time>
      </trkpt>
      <trkpt lat="45.62789" lon="6.52555">
        <ele>2056</ele>
        <time>2025-02-20T14:29:49Z</time>
      </trkpt>
      <trkpt lat="45.6279" lon="6.52556">
        <ele>2056</ele>
        <time>2025-02-20T14:29:50Z</time>
      </trkpt>
      <trkpt lat="45.6279" lon="6.52557">
        <ele>2056</ele>
        <time>2025-02-20T14:29:51Z</time>
      </trkpt>
      <trkpt lat="45.62791" lon="6.52558">
        <ele>2057</ele>
        <time>2025-02-20T14:29:52Z</time>
      </trkpt>
      <trkpt lat="45.62791" lon="6.52558">
        <ele>2056.8</ele>
        <time>2025-02-20T14:29:53Z</time>
      </trkpt>
      <trkpt lat="45.62791" lon="6.52559">
        <ele>2056.8</ele>
        <time>2025-02-20T14:29:54Z</time>
      </trkpt>
      <trkpt lat="45.62791" lon="6.52559">
        <ele>2056.8</ele>
        <time>2025-02-20T14:29:55Z</time>
      </trkpt>
      <trkpt lat="45.62792" lon="6.5256">
        <ele>2057.4</ele>
        <time>2025-02-20T14:29:56Z</time>
      </trkpt>
      <trkpt lat="45.62792" lon="6.5256">
        <ele>2058</ele>
        <time>2025-02-20T14:29:57Z</time>
      </trkpt>
      <trkpt lat="45.62792" lon="6.52561">
        <ele>2058</ele>
        <time>2025-02-20T14:29:58Z</time>
      </trkpt>
      <trkpt lat="45.62793" lon="6.52561">
        <ele>2058</ele>
        <time>2025-02-20T14:29:59Z</time>
      </trkpt>
      <trkpt lat="45.62793" lon="6.52562">
        <ele>2058</ele>
        <time>2025-02-20T14:30:00Z</time>
      </trkpt>
      <trkpt lat="45.62793" lon="6.52562">
        <ele>2058.6</ele>
        <time>2025-02-20T14:30:01Z</time>
      </trkpt>
      <trkpt lat="45.62793" lon="6.52562">
        <ele>2058.6</ele>
        <time>2025-02-20T14:30:02Z</time>
      </trkpt>
      <trkpt lat="45.62793" lon="6.52563">
        <ele>2058.6</ele>
        <time>2025-02-20T14:30:03Z</time>
      </trkpt>
      <trkpt lat="45.62794" lon="6.52564">
        <ele>2057.8</ele>
        <time>2025-02-20T14:30:04Z</time>
      </trkpt>
      <trkpt lat="45.62794" lon="6.52565">
        <ele>2058.6</ele>
        <time>2025-02-20T14:30:05Z</time>
      </trkpt>
      <trkpt lat="45.62794" lon="6.52565">
        <ele>2058.6</ele>
        <time>2025-02-20T14:30:06Z</time>
      </trkpt>
      <trkpt lat="45.62794" lon="6.52566">
        <ele>2058.6</ele>
        <time>2025-02-20T14:30:07Z</time>
      </trkpt>
      <trkpt lat="45.62794" lon="6.52567">
        <ele>2058.6</ele>
        <time>2025-02-20T14:30:08Z</time>
      </trkpt>
      <trkpt lat="45.62793" lon="6.52567">
        <ele>2058.8</ele>
        <time>2025-02-20T14:30:09Z</time>
      </trkpt>
      <trkpt lat="45.62793" lon="6.52568">
        <ele>2058.8</ele>
        <time>2025-02-20T14:30:10Z</time>
      </trkpt>
      <trkpt lat="45.62793" lon="6.52569">
        <ele>2058.8</ele>
        <time>2025-02-20T14:30:11Z</time>
      </trkpt>
      <trkpt lat="45.62793" lon="6.5257">
        <ele>2059.4</ele>
        <time>2025-02-20T14:30:12Z</time>
      </trkpt>
      <trkpt lat="45.62793" lon="6.5257">
        <ele>2058.8</ele>
        <time>2025-02-20T14:30:13Z</time>
      </trkpt>
      <trkpt lat="45.62793" lon="6.5257">
        <ele>2058.8</ele>
        <time>2025-02-20T14:30:14Z</time>
      </trkpt>
      <trkpt lat="45.62793" lon="6.5257">
        <ele>2058.8</ele>
        <time>2025-02-20T14:30:15Z</time>
      </trkpt>
      <trkpt lat="45.62793" lon="6.5257">
        <ele>2059</ele>
        <time>2025-02-20T14:30:16Z</time>
      </trkpt>
      <trkpt lat="45.62793" lon="6.52572">
        <ele>2059.8</ele>
        <time>2025-02-20T14:30:17Z</time>
      </trkpt>
      <trkpt lat="45.62793" lon="6.52573">
        <ele>2059.8</ele>
        <time>2025-02-20T14:30:18Z</time>
      </trkpt>
      <trkpt lat="45.62792" lon="6.52573">
        <ele>2059.8</ele>
        <time>2025-02-20T14:30:19Z</time>
      </trkpt>
      <trkpt lat="45.62792" lon="6.52574">
        <ele>2059.8</ele>
        <time>2025-02-20T14:30:20Z</time>
      </trkpt>
      <trkpt lat="45.62792" lon="6.52575">
        <ele>2060</ele>
        <time>2025-02-20T14:30:21Z</time>
      </trkpt>
      <trkpt lat="45.62792" lon="6.52575">
        <ele>2060</ele>
        <time>2025-02-20T14:30:22Z</time>
      </trkpt>
      <trkpt lat="45.62791" lon="6.52576">
        <ele>2060</ele>
        <time>2025-02-20T14:30:23Z</time>
      </trkpt>
      <trkpt lat="45.62791" lon="6.52576">
        <ele>2060</ele>
        <time>2025-02-20T14:30:24Z</time>
      </trkpt>
      <trkpt lat="45.62791" lon="6.52577">
        <ele>2061.6</ele>
        <time>2025-02-20T14:30:25Z</time>
      </trkpt>
      <trkpt lat="45.6279" lon="6.52578">
        <ele>2061.6</ele>
        <time>2025-02-20T14:30:26Z</time>
      </trkpt>
      <trkpt lat="45.6279" lon="6.52578">
        <ele>2061.6</ele>
        <time>2025-02-20T14:30:27Z</time>
      </trkpt>
      <trkpt lat="45.6279" lon="6.52579">
        <ele>2061.6</ele>
        <time>2025-02-20T14:30:28Z</time>
      </trkpt>
      <trkpt lat="45.6279" lon="6.5258">
        <ele>2061.8</ele>
        <time>2025-02-20T14:30:29Z</time>
      </trkpt>
      <trkpt lat="45.62789" lon="6.52581">
        <ele>2061.8</ele>
        <time>2025-02-20T14:30:30Z</time>
      </trkpt>
      <trkpt lat="45.62789" lon="6.52581">
        <ele>2061.8</ele>
        <time>2025-02-20T14:30:31Z</time>
      </trkpt>
      <trkpt lat="45.62789" lon="6.52582">
        <ele>2061.8</ele>
        <time>2025-02-20T14:30:32Z</time>
      </trkpt>
      <trkpt lat="45.62789" lon="6.52583">
        <ele>2062.8</ele>
        <time>2025-02-20T14:30:33Z</time>
      </trkpt>
      <trkpt lat="45.62788" lon="6.52583">
        <ele>2062.8</ele>
        <time>2025-02-20T14:30:34Z</time>
      </trkpt>
      <trkpt lat="45.62788" lon="6.52584">
        <ele>2062.8</ele>
        <time>2025-02-20T14:30:35Z</time>
      </trkpt>
      <trkpt lat="45.62788" lon="6.52585">
        <ele>2062.8</ele>
        <time>2025-02-20T14:30:36Z</time>
      </trkpt>
      <trkpt lat="45.62788" lon="6.52586">
        <ele>2063</ele>
        <time>2025-02-20T14:30:37Z</time>
      </trkpt>
      <trkpt lat="45.62788" lon="6.52587">
        <ele>2063</ele>
        <time>2025-02-20T14:30:38Z</time>
      </trkpt>
      <trkpt lat="45.62788" lon="6.52587">
        <ele>2063</ele>
        <time>2025-02-20T14:30:39Z</time>
      </trkpt>
      <trkpt lat="45.62789" lon="6.52588">
        <ele>2063</ele>
        <time>2025-02-20T14:30:40Z</time>
      </trkpt>
      <trkpt lat="45.62788" lon="6.52588">
        <ele>2063.2</ele>
        <time>2025-02-20T14:30:41Z</time>
      </trkpt>
      <trkpt lat="45.62788" lon="6.52589">
        <ele>2063.2</ele>
        <time>2025-02-20T14:30:42Z</time>
      </trkpt>
      <trkpt lat="45.62789" lon="6.5259">
        <ele>2063.2</ele>
        <time>2025-02-20T14:30:43Z</time>
      </trkpt>
      <trkpt lat="45.62789" lon="6.52591">
        <ele>2063</ele>
        <time>2025-02-20T14:30:44Z</time>
      </trkpt>
      <trkpt lat="45.6279" lon="6.52591">
        <ele>2062.6</ele>
        <time>2025-02-20T14:30:45Z</time>
      </trkpt>
      <trkpt lat="45.6279" lon="6.52592">
        <ele>2062.6</ele>
        <time>2025-02-20T14:30:46Z</time>
      </trkpt>
      <trkpt lat="45.62791" lon="6.52593">
        <ele>2062.6</ele>
        <time>2025-02-20T14:30:47Z</time>
      </trkpt>
      <trkpt lat="45.62791" lon="6.52593">
        <ele>2063.6</ele>
        <time>2025-02-20T14:30:48Z</time>
      </trkpt>
      <trkpt lat="45.62791" lon="6.52593">
        <ele>2063.4</ele>
        <time>2025-02-20T14:30:49Z</time>
      </trkpt>
      <trkpt lat="45.62791" lon="6.52595">
        <ele>2063.4</ele>
        <time>2025-02-20T14:30:50Z</time>
      </trkpt>
      <trkpt lat="45.62791" lon="6.52595">
        <ele>2063.4</ele>
        <time>2025-02-20T14:30:51Z</time>
      </trkpt>
      <trkpt lat="45.62791" lon="6.52595">
        <ele>2064.4</ele>
        <time>2025-02-20T14:30:52Z</time>
      </trkpt>
      <trkpt lat="45.62791" lon="6.52595">
        <ele>2064.2</ele>
        <time>2025-02-20T14:30:53Z</time>
      </trkpt>
      <trkpt lat="45.62792" lon="6.52596">
        <ele>2064.2</ele>
        <time>2025-02-20T14:30:54Z</time>
      </trkpt>
      <trkpt lat="45.62793" lon="6.52597">
        <ele>2064.2</ele>
        <time>2025-02-20T14:30:55Z</time>
      </trkpt>
      <trkpt lat="45.62793" lon="6.52597">
        <ele>2064.2</ele>
        <time>2025-02-20T14:30:56Z</time>
      </trkpt>
      <trkpt lat="45.62793" lon="6.52597">
        <ele>2064.6</ele>
        <time>2025-02-20T14:30:57Z</time>
      </trkpt>
      <trkpt lat="45.62793" lon="6.52597">
        <ele>2064.6</ele>
        <time>2025-02-20T14:30:58Z</time>
      </trkpt>
      <trkpt lat="45.62793" lon="6.52597">
        <ele>2064.6</ele>
        <time>2025-02-20T14:30:59Z</time>
      </trkpt>
      <trkpt lat="45.62793" lon="6.52597">
        <ele>2065.6</ele>
        <time>2025-02-20T14:31:00Z</time>
      </trkpt>
      <trkpt lat="45.62793" lon="6.52597">
        <ele>2064.8</ele>
        <time>2025-02-20T14:31:01Z</time>
      </trkpt>
      <trkpt lat="45.62793" lon="6.52597">
        <ele>2064.8</ele>
        <time>2025-02-20T14:31:02Z</time>
      </trkpt>
      <trkpt lat="45.62793" lon="6.52597">
        <ele>2064.8</ele>
        <time>2025-02-20T14:31:03Z</time>
      </trkpt>
      <trkpt lat="45.62793" lon="6.52597">
        <ele>2065.8</ele>
        <time>2025-02-20T14:31:04Z</time>
      </trkpt>
      <trkpt lat="45.62793" lon="6.52597">
        <ele>2066</ele>
        <time>2025-02-20T14:31:05Z</time>
      </trkpt>
      <trkpt lat="45.62793" lon="6.52597">
        <ele>2066</ele>
        <time>2025-02-20T14:31:06Z</time>
      </trkpt>
      <trkpt lat="45.62793" lon="6.52597">
        <ele>2066</ele>
        <time>2025-02-20T14:31:07Z</time>
      </trkpt>
      <trkpt lat="45.62793" lon="6.52597">
        <ele>2067</ele>
        <time>2025-02-20T14:31:08Z</time>
      </trkpt>
      <trkpt lat="45.62795" lon="6.52596">
        <ele>2066.2</ele>
        <time>2025-02-20T14:31:09Z</time>
      </trkpt>
      <trkpt lat="45.62796" lon="6.52596">
        <ele>2066.2</ele>
        <time>2025-02-20T14:31:10Z</time>
      </trkpt>
      <trkpt lat="45.62796" lon="6.52596">
        <ele>2066.2</ele>
        <time>2025-02-20T14:31:11Z</time>
      </trkpt>
      <trkpt lat="45.62797" lon="6.52596">
        <ele>2066.8</ele>
        <time>2025-02-20T14:31:12Z</time>
      </trkpt>
      <trkpt lat="45.62798" lon="6.52596">
        <ele>2067</ele>
        <time>2025-02-20T14:31:13Z</time>
      </trkpt>
      <trkpt lat="45.62799" lon="6.52597">
        <ele>2067</ele>
        <time>2025-02-20T14:31:14Z</time>
      </trkpt>
      <trkpt lat="45.628" lon="6.52597">
        <ele>2067</ele>
        <time>2025-02-20T14:31:15Z</time>
      </trkpt>
      <trkpt lat="45.62801" lon="6.52597">
        <ele>2067.8</ele>
        <time>2025-02-20T14:31:16Z</time>
      </trkpt>
      <trkpt lat="45.62802" lon="6.52597">
        <ele>2067.4</ele>
        <time>2025-02-20T14:31:17Z</time>
      </trkpt>
      <trkpt lat="45.62802" lon="6.52596">
        <ele>2067.4</ele>
        <time>2025-02-20T14:31:18Z</time>
      </trkpt>
      <trkpt lat="45.62802" lon="6.52596">
        <ele>2067.4</ele>
        <time>2025-02-20T14:31:19Z</time>
      </trkpt>
      <trkpt lat="45.62803" lon="6.52597">
        <ele>2067.4</ele>
        <time>2025-02-20T14:31:20Z</time>
      </trkpt>
      <trkpt lat="45.62804" lon="6.52597">
        <ele>2067.2</ele>
        <time>2025-02-20T14:31:21Z</time>
      </trkpt>
      <trkpt lat="45.62804" lon="6.52597">
        <ele>2067.2</ele>
        <time>2025-02-20T14:31:22Z</time>
      </trkpt>
      <trkpt lat="45.62805" lon="6.52597">
        <ele>2067.2</ele>
        <time>2025-02-20T14:31:23Z</time>
      </trkpt>
      <trkpt lat="45.62806" lon="6.52597">
        <ele>2067.2</ele>
        <time>2025-02-20T14:31:24Z</time>
      </trkpt>
      <trkpt lat="45.62806" lon="6.52597">
        <ele>2067.8</ele>
        <time>2025-02-20T14:31:25Z</time>
      </trkpt>
      <trkpt lat="45.62806" lon="6.52597">
        <ele>2067.8</ele>
        <time>2025-02-20T14:31:26Z</time>
      </trkpt>
      <trkpt lat="45.62806" lon="6.52597">
        <ele>2067.8</ele>
        <time>2025-02-20T14:31:27Z</time>
      </trkpt>
      <trkpt lat="45.62806" lon="6.52597">
        <ele>2067.8</ele>
        <time>2025-02-20T14:31:28Z</time>
      </trkpt>
      <trkpt lat="45.62806" lon="6.52597">
        <ele>2069</ele>
        <time>2025-02-20T14:31:29Z</time>
      </trkpt>
      <trkpt lat="45.62806" lon="6.52597">
        <ele>2069</ele>
        <time>2025-02-20T14:31:30Z</time>
      </trkpt>
      <trkpt lat="45.62806" lon="6.52597">
        <ele>2069</ele>
        <time>2025-02-20T14:31:31Z</time>
      </trkpt>
      <trkpt lat="45.62806" lon="6.52597">
        <ele>2069</ele>
        <time>2025-02-20T14:31:32Z</time>
      </trkpt>
      <trkpt lat="45.62806" lon="6.52597">
        <ele>2069</ele>
        <time>2025-02-20T14:31:33Z</time>
      </trkpt>
      <trkpt lat="45.62806" lon="6.52597">
        <ele>2069</ele>
        <time>2025-02-20T14:31:34Z</time>
      </trkpt>
      <trkpt lat="45.62806" lon="6.52597">
        <ele>2069</ele>
        <time>2025-02-20T14:31:35Z</time>
      </trkpt>
      <trkpt lat="45.62806" lon="6.52597">
        <ele>2069</ele>
        <time>2025-02-20T14:31:36Z</time>
      </trkpt>
      <trkpt lat="45.62806" lon="6.52597">
        <ele>2068.8</ele>
        <time>2025-02-20T14:31:37Z</time>
      </trkpt>
      <trkpt lat="45.62806" lon="6.52597">
        <ele>2068.8</ele>
        <time>2025-02-20T14:31:38Z</time>
      </trkpt>
      <trkpt lat="45.62806" lon="6.52597">
        <ele>2068.8</ele>
        <time>2025-02-20T14:31:39Z</time>
      </trkpt>
      <trkpt lat="45.62806" lon="6.52597">
        <ele>2068.8</ele>
        <time>2025-02-20T14:31:40Z</time>
      </trkpt>
      <trkpt lat="45.62806" lon="6.52597">
        <ele>2068.8</ele>
        <time>2025-02-20T14:31:41Z</time>
      </trkpt>
      <trkpt lat="45.62811" lon="6.52597">
        <ele>2068.8</ele>
        <time>2025-02-20T14:31:42Z</time>
      </trkpt>
      <trkpt lat="45.62812" lon="6.52597">
        <ele>2068.8</ele>
        <time>2025-02-20T14:31:43Z</time>
      </trkpt>
      <trkpt lat="45.62813" lon="6.52597">
        <ele>2069.8</ele>
        <time>2025-02-20T14:31:44Z</time>
      </trkpt>
      <trkpt lat="45.62814" lon="6.52598">
        <ele>2070</ele>
        <time>2025-02-20T14:31:45Z</time>
      </trkpt>
      <trkpt lat="45.62814" lon="6.52598">
        <ele>2070</ele>
        <time>2025-02-20T14:31:46Z</time>
      </trkpt>
      <trkpt lat="45.62814" lon="6.52598">
        <ele>2070</ele>
        <time>2025-02-20T14:31:47Z</time>
      </trkpt>
      <trkpt lat="45.62816" lon="6.52598">
        <ele>2071</ele>
        <time>2025-02-20T14:31:48Z</time>
      </trkpt>
      <trkpt lat="45.62816" lon="6.52597">
        <ele>2069.8</ele>
        <time>2025-02-20T14:31:49Z</time>
      </trkpt>
      <trkpt lat="45.62816" lon="6.52597">
        <ele>2069.8</ele>
        <time>2025-02-20T14:31:50Z</time>
      </trkpt>
      <trkpt lat="45.62816" lon="6.52597">
        <ele>2069.8</ele>
        <time>2025-02-20T14:31:51Z</time>
      </trkpt>
      <trkpt lat="45.62817" lon="6.52599">
        <ele>2069.8</ele>
        <time>2025-02-20T14:31:52Z</time>
      </trkpt>
      <trkpt lat="45.62817" lon="6.526">
        <ele>2070.2</ele>
        <time>2025-02-20T14:31:53Z</time>
      </trkpt>
      <trkpt lat="45.62818" lon="6.52601">
        <ele>2070.2</ele>
        <time>2025-02-20T14:31:54Z</time>
      </trkpt>
      <trkpt lat="45.62818" lon="6.52601">
        <ele>2070.2</ele>
        <time>2025-02-20T14:31:55Z</time>
      </trkpt>
      <trkpt lat="45.62819" lon="6.52601">
        <ele>2070.2</ele>
        <time>2025-02-20T14:31:56Z</time>
      </trkpt>
      <trkpt lat="45.62819" lon="6.52601">
        <ele>2071.4</ele>
        <time>2025-02-20T14:31:57Z</time>
      </trkpt>
      <trkpt lat="45.6282" lon="6.52601">
        <ele>2071.4</ele>
        <time>2025-02-20T14:31:58Z</time>
      </trkpt>
      <trkpt lat="45.62821" lon="6.52601">
        <ele>2071.4</ele>
        <time>2025-02-20T14:31:59Z</time>
      </trkpt>
      <trkpt lat="45.62821" lon="6.52601">
        <ele>2071.4</ele>
        <time>2025-02-20T14:32:00Z</time>
      </trkpt>
      <trkpt lat="45.62822" lon="6.52602">
        <ele>2072</ele>
        <time>2025-02-20T14:32:01Z</time>
      </trkpt>
      <trkpt lat="45.62822" lon="6.52602">
        <ele>2072</ele>
        <time>2025-02-20T14:32:02Z</time>
      </trkpt>
      <trkpt lat="45.62823" lon="6.52603">
        <ele>2072</ele>
        <time>2025-02-20T14:32:03Z</time>
      </trkpt>
      <trkpt lat="45.62822" lon="6.52603">
        <ele>2072.2</ele>
        <time>2025-02-20T14:32:04Z</time>
      </trkpt>
      <trkpt lat="45.62823" lon="6.52603">
        <ele>2072.6</ele>
        <time>2025-02-20T14:32:05Z</time>
      </trkpt>
      <trkpt lat="45.62824" lon="6.52603">
        <ele>2072.6</ele>
        <time>2025-02-20T14:32:06Z</time>
      </trkpt>
      <trkpt lat="45.62824" lon="6.52603">
        <ele>2072.6</ele>
        <time>2025-02-20T14:32:07Z</time>
      </trkpt>
      <trkpt lat="45.62824" lon="6.52603">
        <ele>2072.6</ele>
        <time>2025-02-20T14:32:08Z</time>
      </trkpt>
      <trkpt lat="45.62824" lon="6.52603">
        <ele>2073</ele>
        <time>2025-02-20T14:32:09Z</time>
      </trkpt>
      <trkpt lat="45.62824" lon="6.52603">
        <ele>2073</ele>
        <time>2025-02-20T14:32:10Z</time>
      </trkpt>
      <trkpt lat="45.62824" lon="6.52603">
        <ele>2073</ele>
        <time>2025-02-20T14:32:11Z</time>
      </trkpt>
      <trkpt lat="45.62825" lon="6.52603">
        <ele>2072</ele>
        <time>2025-02-20T14:32:12Z</time>
      </trkpt>
      <trkpt lat="45.62826" lon="6.52604">
        <ele>2072.4</ele>
        <time>2025-02-20T14:32:13Z</time>
      </trkpt>
      <trkpt lat="45.62826" lon="6.52604">
        <ele>2072.4</ele>
        <time>2025-02-20T14:32:14Z</time>
      </trkpt>
      <trkpt lat="45.62826" lon="6.52604">
        <ele>2072.4</ele>
        <time>2025-02-20T14:32:15Z</time>
      </trkpt>
      <trkpt lat="45.62827" lon="6.52603">
        <ele>2072.4</ele>
        <time>2025-02-20T14:32:16Z</time>
      </trkpt>
      <trkpt lat="45.62827" lon="6.52603">
        <ele>2072</ele>
        <time>2025-02-20T14:32:17Z</time>
      </trkpt>
      <trkpt lat="45.62828" lon="6.52605">
        <ele>2072</ele>
        <time>2025-02-20T14:32:18Z</time>
      </trkpt>
      <trkpt lat="45.62828" lon="6.52605">
        <ele>2072</ele>
        <time>2025-02-20T14:32:19Z</time>
      </trkpt>
      <trkpt lat="45.62829" lon="6.52606">
        <ele>2073</ele>
        <time>2025-02-20T14:32:20Z</time>
      </trkpt>
      <trkpt lat="45.62829" lon="6.52607">
        <ele>2072.4</ele>
        <time>2025-02-20T14:32:21Z</time>
      </trkpt>
      <trkpt lat="45.62828" lon="6.52607">
        <ele>2072.4</ele>
        <time>2025-02-20T14:32:22Z</time>
      </trkpt>
      <trkpt lat="45.62828" lon="6.52607">
        <ele>2072.4</ele>
        <time>2025-02-20T14:32:23Z</time>
      </trkpt>
      <trkpt lat="45.62828" lon="6.52608">
        <ele>2073.4</ele>
        <time>2025-02-20T14:32:24Z</time>
      </trkpt>
      <trkpt lat="45.62827" lon="6.52609">
        <ele>2073</ele>
        <time>2025-02-20T14:32:25Z</time>
      </trkpt>
      <trkpt lat="45.62827" lon="6.5261">
        <ele>2073</ele>
        <time>2025-02-20T14:32:26Z</time>
      </trkpt>
      <trkpt lat="45.62827" lon="6.5261">
        <ele>2073</ele>
        <time>2025-02-20T14:32:27Z</time>
      </trkpt>
      <trkpt lat="45.62827" lon="6.52611">
        <ele>2074</ele>
        <time>2025-02-20T14:32:28Z</time>
      </trkpt>
      <trkpt lat="45.62827" lon="6.52611">
        <ele>2074.6</ele>
        <time>2025-02-20T14:32:29Z</time>
      </trkpt>
      <trkpt lat="45.62826" lon="6.52612">
        <ele>2074.6</ele>
        <time>2025-02-20T14:32:30Z</time>
      </trkpt>
      <trkpt lat="45.62826" lon="6.52612">
        <ele>2074.6</ele>
        <time>2025-02-20T14:32:31Z</time>
      </trkpt>
      <trkpt lat="45.62826" lon="6.52613">
        <ele>2074.8</ele>
        <time>2025-02-20T14:32:32Z</time>
      </trkpt>
      <trkpt lat="45.62826" lon="6.52613">
        <ele>2076</ele>
        <time>2025-02-20T14:32:33Z</time>
      </trkpt>
      <trkpt lat="45.62826" lon="6.52613">
        <ele>2076</ele>
        <time>2025-02-20T14:32:34Z</time>
      </trkpt>
      <trkpt lat="45.62826" lon="6.52613">
        <ele>2076</ele>
        <time>2025-02-20T14:32:35Z</time>
      </trkpt>
      <trkpt lat="45.62826" lon="6.52613">
        <ele>2076</ele>
        <time>2025-02-20T14:32:36Z</time>
      </trkpt>
      <trkpt lat="45.62826" lon="6.52613">
        <ele>2076.8</ele>
        <time>2025-02-20T14:32:37Z</time>
      </trkpt>
      <trkpt lat="45.62826" lon="6.52614">
        <ele>2076.8</ele>
        <time>2025-02-20T14:32:38Z</time>
      </trkpt>
      <trkpt lat="45.62826" lon="6.52614">
        <ele>2076.8</ele>
        <time>2025-02-20T14:32:39Z</time>
      </trkpt>
      <trkpt lat="45.62826" lon="6.52616">
        <ele>2076.8</ele>
        <time>2025-02-20T14:32:40Z</time>
      </trkpt>
      <trkpt lat="45.62826" lon="6.52617">
        <ele>2077</ele>
        <time>2025-02-20T14:32:41Z</time>
      </trkpt>
      <trkpt lat="45.62826" lon="6.52618">
        <ele>2077</ele>
        <time>2025-02-20T14:32:42Z</time>
      </trkpt>
      <trkpt lat="45.62827" lon="6.52618">
        <ele>2077</ele>
        <time>2025-02-20T14:32:43Z</time>
      </trkpt>
      <trkpt lat="45.62827" lon="6.5262">
        <ele>2077</ele>
        <time>2025-02-20T14:32:44Z</time>
      </trkpt>
      <trkpt lat="45.62827" lon="6.52621">
        <ele>2076.6</ele>
        <time>2025-02-20T14:32:45Z</time>
      </trkpt>
      <trkpt lat="45.62828" lon="6.52621">
        <ele>2076.6</ele>
        <time>2025-02-20T14:32:46Z</time>
      </trkpt>
      <trkpt lat="45.62827" lon="6.52621">
        <ele>2076.6</ele>
        <time>2025-02-20T14:32:47Z</time>
      </trkpt>
      <trkpt lat="45.62827" lon="6.52621">
        <ele>2077.2</ele>
        <time>2025-02-20T14:32:48Z</time>
      </trkpt>
      <trkpt lat="45.62827" lon="6.52621">
        <ele>2076.8</ele>
        <time>2025-02-20T14:32:49Z</time>
      </trkpt>
      <trkpt lat="45.62827" lon="6.52621">
        <ele>2076.8</ele>
        <time>2025-02-20T14:32:50Z</time>
      </trkpt>
      <trkpt lat="45.62827" lon="6.52621">
        <ele>2076.8</ele>
        <time>2025-02-20T14:32:51Z</time>
      </trkpt>
      <trkpt lat="45.62827" lon="6.52621">
        <ele>2077.8</ele>
        <time>2025-02-20T14:32:52Z</time>
      </trkpt>
      <trkpt lat="45.62827" lon="6.52621">
        <ele>2077.8</ele>
        <time>2025-02-20T14:32:53Z</time>
      </trkpt>
      <trkpt lat="45.62827" lon="6.52621">
        <ele>2077.8</ele>
        <time>2025-02-20T14:32:54Z</time>
      </trkpt>
      <trkpt lat="45.62827" lon="6.52621">
        <ele>2077.8</ele>
        <time>2025-02-20T14:32:55Z</time>
      </trkpt>
      <trkpt lat="45.62827" lon="6.52621">
        <ele>2078.2</ele>
        <time>2025-02-20T14:32:56Z</time>
      </trkpt>
      <trkpt lat="45.62827" lon="6.52621">
        <ele>2078.4</ele>
        <time>2025-02-20T14:32:57Z</time>
      </trkpt>
      <trkpt lat="45.62827" lon="6.52621">
        <ele>2078.4</ele>
        <time>2025-02-20T14:32:58Z</time>
      </trkpt>
      <trkpt lat="45.62827" lon="6.52621">
        <ele>2078.4</ele>
        <time>2025-02-20T14:32:59Z</time>
      </trkpt>
      <trkpt lat="45.62827" lon="6.52621">
        <ele>2078.4</ele>
        <time>2025-02-20T14:33:00Z</time>
      </trkpt>
      <trkpt lat="45.62827" lon="6.52621">
        <ele>2078</ele>
        <time>2025-02-20T14:33:01Z</time>
      </trkpt>
      <trkpt lat="45.62827" lon="6.52621">
        <ele>2078</ele>
        <time>2025-02-20T14:33:02Z</time>
      </trkpt>
      <trkpt lat="45.62827" lon="6.52621">
        <ele>2078</ele>
        <time>2025-02-20T14:33:03Z</time>
      </trkpt>
      <trkpt lat="45.62827" lon="6.52621">
        <ele>2078</ele>
        <time>2025-02-20T14:33:04Z</time>
      </trkpt>
      <trkpt lat="45.62836" lon="6.52627">
        <ele>2080</ele>
        <time>2025-02-20T14:33:05Z</time>
      </trkpt>
      <trkpt lat="45.62837" lon="6.52627">
        <ele>2080</ele>
        <time>2025-02-20T14:33:06Z</time>
      </trkpt>
      <trkpt lat="45.62837" lon="6.52627">
        <ele>2080</ele>
        <time>2025-02-20T14:33:07Z</time>
      </trkpt>
      <trkpt lat="45.62838" lon="6.52628">
        <ele>2079.4</ele>
        <time>2025-02-20T14:33:08Z</time>
      </trkpt>
      <trkpt lat="45.62839" lon="6.52628">
        <ele>2079.4</ele>
        <time>2025-02-20T14:33:09Z</time>
      </trkpt>
      <trkpt lat="45.62839" lon="6.52628">
        <ele>2079.4</ele>
        <time>2025-02-20T14:33:10Z</time>
      </trkpt>
      <trkpt lat="45.6284" lon="6.52628">
        <ele>2079.4</ele>
        <time>2025-02-20T14:33:11Z</time>
      </trkpt>
      <trkpt lat="45.6284" lon="6.52629">
        <ele>2080.4</ele>
        <time>2025-02-20T14:33:12Z</time>
      </trkpt>
      <trkpt lat="45.62841" lon="6.52629">
        <ele>2079.4</ele>
        <time>2025-02-20T14:33:13Z</time>
      </trkpt>
      <trkpt lat="45.62841" lon="6.52629">
        <ele>2079.4</ele>
        <time>2025-02-20T14:33:14Z</time>
      </trkpt>
      <trkpt lat="45.62841" lon="6.52629">
        <ele>2079.4</ele>
        <time>2025-02-20T14:33:15Z</time>
      </trkpt>
      <trkpt lat="45.62841" lon="6.5263">
        <ele>2080.4</ele>
        <time>2025-02-20T14:33:16Z</time>
      </trkpt>
      <trkpt lat="45.62841" lon="6.5263">
        <ele>2080.4</ele>
        <time>2025-02-20T14:33:17Z</time>
      </trkpt>
      <trkpt lat="45.62842" lon="6.52631">
        <ele>2080.4</ele>
        <time>2025-02-20T14:33:18Z</time>
      </trkpt>
      <trkpt lat="45.62842" lon="6.52631">
        <ele>2080.4</ele>
        <time>2025-02-20T14:33:19Z</time>
      </trkpt>
      <trkpt lat="45.62843" lon="6.52632">
        <ele>2081.4</ele>
        <time>2025-02-20T14:33:20Z</time>
      </trkpt>
      <trkpt lat="45.62843" lon="6.52632">
        <ele>2080.8</ele>
        <time>2025-02-20T14:33:21Z</time>
      </trkpt>
      <trkpt lat="45.62843" lon="6.52633">
        <ele>2080.8</ele>
        <time>2025-02-20T14:33:22Z</time>
      </trkpt>
      <trkpt lat="45.62844" lon="6.52634">
        <ele>2080.8</ele>
        <time>2025-02-20T14:33:23Z</time>
      </trkpt>
      <trkpt lat="45.62844" lon="6.52634">
        <ele>2080.8</ele>
        <time>2025-02-20T14:33:24Z</time>
      </trkpt>
      <trkpt lat="45.62844" lon="6.52634">
        <ele>2080.6</ele>
        <time>2025-02-20T14:33:25Z</time>
      </trkpt>
      <trkpt lat="45.62844" lon="6.52635">
        <ele>2080.6</ele>
        <time>2025-02-20T14:33:26Z</time>
      </trkpt>
      <trkpt lat="45.62845" lon="6.52636">
        <ele>2080.6</ele>
        <time>2025-02-20T14:33:27Z</time>
      </trkpt>
      <trkpt lat="45.62845" lon="6.52637">
        <ele>2080.6</ele>
        <time>2025-02-20T14:33:28Z</time>
      </trkpt>
      <trkpt lat="45.62845" lon="6.52637">
        <ele>2081.4</ele>
        <time>2025-02-20T14:33:29Z</time>
      </trkpt>
      <trkpt lat="45.62845" lon="6.52637">
        <ele>2081.4</ele>
        <time>2025-02-20T14:33:30Z</time>
      </trkpt>
      <trkpt lat="45.62845" lon="6.52637">
        <ele>2081.4</ele>
        <time>2025-02-20T14:33:31Z</time>
      </trkpt>
      <trkpt lat="45.62845" lon="6.52637">
        <ele>2081.4</ele>
        <time>2025-02-20T14:33:32Z</time>
      </trkpt>
      <trkpt lat="45.62845" lon="6.52637">
        <ele>2081.6</ele>
        <time>2025-02-20T14:33:33Z</time>
      </trkpt>
      <trkpt lat="45.62845" lon="6.52637">
        <ele>2081.6</ele>
        <time>2025-02-20T14:33:34Z</time>
      </trkpt>
      <trkpt lat="45.62845" lon="6.52638">
        <ele>2081.6</ele>
        <time>2025-02-20T14:33:35Z</time>
      </trkpt>
      <trkpt lat="45.62845" lon="6.52638">
        <ele>2081.6</ele>
        <time>2025-02-20T14:33:36Z</time>
      </trkpt>
      <trkpt lat="45.62846" lon="6.52639">
        <ele>2082.2</ele>
        <time>2025-02-20T14:33:37Z</time>
      </trkpt>
      <trkpt lat="45.62846" lon="6.5264">
        <ele>2082.2</ele>
        <time>2025-02-20T14:33:38Z</time>
      </trkpt>
      <trkpt lat="45.62847" lon="6.5264">
        <ele>2082.2</ele>
        <time>2025-02-20T14:33:39Z</time>
      </trkpt>
      <trkpt lat="45.62847" lon="6.52641">
        <ele>2082.2</ele>
        <time>2025-02-20T14:33:40Z</time>
      </trkpt>
      <trkpt lat="45.62847" lon="6.52641">
        <ele>2081.8</ele>
        <time>2025-02-20T14:33:41Z</time>
      </trkpt>
      <trkpt lat="45.62847" lon="6.52642">
        <ele>2081.8</ele>
        <time>2025-02-20T14:33:42Z</time>
      </trkpt>
      <trkpt lat="45.62847" lon="6.52643">
        <ele>2081.8</ele>
        <time>2025-02-20T14:33:43Z</time>
      </trkpt>
      <trkpt lat="45.62848" lon="6.52644">
        <ele>2082.4</ele>
        <time>2025-02-20T14:33:44Z</time>
      </trkpt>
      <trkpt lat="45.62848" lon="6.52644">
        <ele>2082.6</ele>
        <time>2025-02-20T14:33:45Z</time>
      </trkpt>
      <trkpt lat="45.62848" lon="6.52645">
        <ele>2082.6</ele>
        <time>2025-02-20T14:33:46Z</time>
      </trkpt>
      <trkpt lat="45.62848" lon="6.52646">
        <ele>2082.6</ele>
        <time>2025-02-20T14:33:47Z</time>
      </trkpt>
      <trkpt lat="45.62848" lon="6.52647">
        <ele>2083.6</ele>
        <time>2025-02-20T14:33:48Z</time>
      </trkpt>
      <trkpt lat="45.62848" lon="6.52647">
        <ele>2083.2</ele>
        <time>2025-02-20T14:33:49Z</time>
      </trkpt>
      <trkpt lat="45.62848" lon="6.52648">
        <ele>2083.2</ele>
        <time>2025-02-20T14:33:50Z</time>
      </trkpt>
      <trkpt lat="45.62849" lon="6.52649">
        <ele>2083.2</ele>
        <time>2025-02-20T14:33:51Z</time>
      </trkpt>
      <trkpt lat="45.62849" lon="6.5265">
        <ele>2084.2</ele>
        <time>2025-02-20T14:33:52Z</time>
      </trkpt>
      <trkpt lat="45.6285" lon="6.52651">
        <ele>2084.2</ele>
        <time>2025-02-20T14:33:53Z</time>
      </trkpt>
      <trkpt lat="45.62849" lon="6.52651">
        <ele>2084.2</ele>
        <time>2025-02-20T14:33:54Z</time>
      </trkpt>
      <trkpt lat="45.6285" lon="6.52652">
        <ele>2084.2</ele>
        <time>2025-02-20T14:33:55Z</time>
      </trkpt>
      <trkpt lat="45.62849" lon="6.52652">
        <ele>2084.6</ele>
        <time>2025-02-20T14:33:56Z</time>
      </trkpt>
      <trkpt lat="45.6285" lon="6.52653">
        <ele>2083.8</ele>
        <time>2025-02-20T14:33:57Z</time>
      </trkpt>
      <trkpt lat="45.6285" lon="6.52653">
        <ele>2083.8</ele>
        <time>2025-02-20T14:33:58Z</time>
      </trkpt>
      <trkpt lat="45.6285" lon="6.52654">
        <ele>2083.8</ele>
        <time>2025-02-20T14:33:59Z</time>
      </trkpt>
      <trkpt lat="45.6285" lon="6.52655">
        <ele>2083.8</ele>
        <time>2025-02-20T14:34:00Z</time>
      </trkpt>
      <trkpt lat="45.6285" lon="6.52656">
        <ele>2085.6</ele>
        <time>2025-02-20T14:34:01Z</time>
      </trkpt>
      <trkpt lat="45.6285" lon="6.52656">
        <ele>2085.6</ele>
        <time>2025-02-20T14:34:02Z</time>
      </trkpt>
      <trkpt lat="45.6285" lon="6.52656">
        <ele>2085.6</ele>
        <time>2025-02-20T14:34:03Z</time>
      </trkpt>
      <trkpt lat="45.6285" lon="6.52656">
        <ele>2085.6</ele>
        <time>2025-02-20T14:34:04Z</time>
      </trkpt>
      <trkpt lat="45.6285" lon="6.52658">
        <ele>2086</ele>
        <time>2025-02-20T14:34:05Z</time>
      </trkpt>
      <trkpt lat="45.6285" lon="6.52659">
        <ele>2086</ele>
        <time>2025-02-20T14:34:06Z</time>
      </trkpt>
      <trkpt lat="45.6285" lon="6.5266">
        <ele>2086</ele>
        <time>2025-02-20T14:34:07Z</time>
      </trkpt>
      <trkpt lat="45.6285" lon="6.5266">
        <ele>2086</ele>
        <time>2025-02-20T14:34:08Z</time>
      </trkpt>
      <trkpt lat="45.62851" lon="6.52661">
        <ele>2086.2</ele>
        <time>2025-02-20T14:34:09Z</time>
      </trkpt>
      <trkpt lat="45.62851" lon="6.52662">
        <ele>2086.2</ele>
        <time>2025-02-20T14:34:10Z</time>
      </trkpt>
      <trkpt lat="45.62851" lon="6.52663">
        <ele>2086.2</ele>
        <time>2025-02-20T14:34:11Z</time>
      </trkpt>
      <trkpt lat="45.62851" lon="6.52663">
        <ele>2086.2</ele>
        <time>2025-02-20T14:34:12Z</time>
      </trkpt>
      <trkpt lat="45.62851" lon="6.52663">
        <ele>2086.4</ele>
        <time>2025-02-20T14:34:13Z</time>
      </trkpt>
      <trkpt lat="45.62851" lon="6.52663">
        <ele>2086.4</ele>
        <time>2025-02-20T14:34:14Z</time>
      </trkpt>
      <trkpt lat="45.62851" lon="6.52663">
        <ele>2086.4</ele>
        <time>2025-02-20T14:34:15Z</time>
      </trkpt>
      <trkpt lat="45.62851" lon="6.52665">
        <ele>2086.4</ele>
        <time>2025-02-20T14:34:16Z</time>
      </trkpt>
      <trkpt lat="45.62851" lon="6.52665">
        <ele>2087</ele>
        <time>2025-02-20T14:34:17Z</time>
      </trkpt>
      <trkpt lat="45.62851" lon="6.52665">
        <ele>2087</ele>
        <time>2025-02-20T14:34:18Z</time>
      </trkpt>
      <trkpt lat="45.62851" lon="6.52665">
        <ele>2087</ele>
        <time>2025-02-20T14:34:19Z</time>
      </trkpt>
      <trkpt lat="45.62851" lon="6.52665">
        <ele>2087.8</ele>
        <time>2025-02-20T14:34:20Z</time>
      </trkpt>
      <trkpt lat="45.62851" lon="6.52667">
        <ele>2087.6</ele>
        <time>2025-02-20T14:34:21Z</time>
      </trkpt>
      <trkpt lat="45.62851" lon="6.52668">
        <ele>2087.6</ele>
        <time>2025-02-20T14:34:22Z</time>
      </trkpt>
      <trkpt lat="45.62851" lon="6.52668">
        <ele>2087.6</ele>
        <time>2025-02-20T14:34:23Z</time>
      </trkpt>
      <trkpt lat="45.62851" lon="6.52669">
        <ele>2087.6</ele>
        <time>2025-02-20T14:34:24Z</time>
      </trkpt>
      <trkpt lat="45.62851" lon="6.52669">
        <ele>2087.4</ele>
        <time>2025-02-20T14:34:25Z</time>
      </trkpt>
      <trkpt lat="45.62851" lon="6.52669">
        <ele>2087.4</ele>
        <time>2025-02-20T14:34:26Z</time>
      </trkpt>
      <trkpt lat="45.62851" lon="6.52669">
        <ele>2087.4</ele>
        <time>2025-02-20T14:34:27Z</time>
      </trkpt>
      <trkpt lat="45.62851" lon="6.52669">
        <ele>2088</ele>
        <time>2025-02-20T14:34:28Z</time>
      </trkpt>
      <trkpt lat="45.62851" lon="6.52669">
        <ele>2089.8</ele>
        <time>2025-02-20T14:34:29Z</time>
      </trkpt>
      <trkpt lat="45.62851" lon="6.52669">
        <ele>2089.8</ele>
        <time>2025-02-20T14:34:30Z</time>
      </trkpt>
      <trkpt lat="45.62851" lon="6.52669">
        <ele>2089.8</ele>
        <time>2025-02-20T14:34:31Z</time>
      </trkpt>
      <trkpt lat="45.62853" lon="6.52672">
        <ele>2088.8</ele>
        <time>2025-02-20T14:34:32Z</time>
      </trkpt>
      <trkpt lat="45.62853" lon="6.52672">
        <ele>2089</ele>
        <time>2025-02-20T14:34:33Z</time>
      </trkpt>
      <trkpt lat="45.62853" lon="6.52673">
        <ele>2089</ele>
        <time>2025-02-20T14:34:34Z</time>
      </trkpt>
      <trkpt lat="45.62854" lon="6.52673">
        <ele>2089</ele>
        <time>2025-02-20T14:34:35Z</time>
      </trkpt>
      <trkpt lat="45.62855" lon="6.52673">
        <ele>2089</ele>
        <time>2025-02-20T14:34:36Z</time>
      </trkpt>
      <trkpt lat="45.62855" lon="6.52674">
        <ele>2089</ele>
        <time>2025-02-20T14:34:37Z</time>
      </trkpt>
      <trkpt lat="45.62856" lon="6.52674">
        <ele>2089</ele>
        <time>2025-02-20T14:34:38Z</time>
      </trkpt>
      <trkpt lat="45.62856" lon="6.52675">
        <ele>2089</ele>
        <time>2025-02-20T14:34:39Z</time>
      </trkpt>
      <trkpt lat="45.62856" lon="6.52674">
        <ele>2090</ele>
        <time>2025-02-20T14:34:40Z</time>
      </trkpt>
      <trkpt lat="45.62856" lon="6.52674">
        <ele>2090.4</ele>
        <time>2025-02-20T14:34:41Z</time>
      </trkpt>
      <trkpt lat="45.62856" lon="6.52675">
        <ele>2090.4</ele>
        <time>2025-02-20T14:34:42Z</time>
      </trkpt>
      <trkpt lat="45.62857" lon="6.52676">
        <ele>2090.4</ele>
        <time>2025-02-20T14:34:43Z</time>
      </trkpt>
      <trkpt lat="45.62857" lon="6.52677">
        <ele>2090.4</ele>
        <time>2025-02-20T14:34:44Z</time>
      </trkpt>
      <trkpt lat="45.62857" lon="6.52677">
        <ele>2090.8</ele>
        <time>2025-02-20T14:34:45Z</time>
      </trkpt>
      <trkpt lat="45.62857" lon="6.52678">
        <ele>2090.8</ele>
        <time>2025-02-20T14:34:46Z</time>
      </trkpt>
      <trkpt lat="45.62857" lon="6.52678">
        <ele>2090.8</ele>
        <time>2025-02-20T14:34:47Z</time>
      </trkpt>
      <trkpt lat="45.62857" lon="6.52679">
        <ele>2090.8</ele>
        <time>2025-02-20T14:34:48Z</time>
      </trkpt>
      <trkpt lat="45.62858" lon="6.52679">
        <ele>2091.6</ele>
        <time>2025-02-20T14:34:49Z</time>
      </trkpt>
      <trkpt lat="45.62859" lon="6.52681">
        <ele>2091.6</ele>
        <time>2025-02-20T14:34:50Z</time>
      </trkpt>
      <trkpt lat="45.62859" lon="6.52681">
        <ele>2091.6</ele>
        <time>2025-02-20T14:34:51Z</time>
      </trkpt>
      <trkpt lat="45.62859" lon="6.52682">
        <ele>2090.6</ele>
        <time>2025-02-20T14:34:52Z</time>
      </trkpt>
      <trkpt lat="45.62859" lon="6.52683">
        <ele>2090.4</ele>
        <time>2025-02-20T14:34:53Z</time>
      </trkpt>
      <trkpt lat="45.62859" lon="6.52683">
        <ele>2090.4</ele>
        <time>2025-02-20T14:34:54Z</time>
      </trkpt>
      <trkpt lat="45.62859" lon="6.52683">
        <ele>2090.4</ele>
        <time>2025-02-20T14:34:55Z</time>
      </trkpt>
      <trkpt lat="45.62859" lon="6.52683">
        <ele>2091.4</ele>
        <time>2025-02-20T14:34:56Z</time>
      </trkpt>
      <trkpt lat="45.6286" lon="6.52685">
        <ele>2091.4</ele>
        <time>2025-02-20T14:34:57Z</time>
      </trkpt>
      <trkpt lat="45.6286" lon="6.52686">
        <ele>2091.4</ele>
        <time>2025-02-20T14:34:58Z</time>
      </trkpt>
      <trkpt lat="45.6286" lon="6.52687">
        <ele>2091.4</ele>
        <time>2025-02-20T14:34:59Z</time>
      </trkpt>
      <trkpt lat="45.6286" lon="6.52687">
        <ele>2092</ele>
        <time>2025-02-20T14:35:00Z</time>
      </trkpt>
      <trkpt lat="45.62861" lon="6.52688">
        <ele>2091.8</ele>
        <time>2025-02-20T14:35:01Z</time>
      </trkpt>
      <trkpt lat="45.6286" lon="6.52688">
        <ele>2091.8</ele>
        <time>2025-02-20T14:35:02Z</time>
      </trkpt>
      <trkpt lat="45.6286" lon="6.52688">
        <ele>2091.8</ele>
        <time>2025-02-20T14:35:03Z</time>
      </trkpt>
      <trkpt lat="45.6286" lon="6.52688">
        <ele>2091.8</ele>
        <time>2025-02-20T14:35:04Z</time>
      </trkpt>
      <trkpt lat="45.62861" lon="6.52691">
        <ele>2092.6</ele>
        <time>2025-02-20T14:35:05Z</time>
      </trkpt>
      <trkpt lat="45.62861" lon="6.52692">
        <ele>2092.6</ele>
        <time>2025-02-20T14:35:06Z</time>
      </trkpt>
      <trkpt lat="45.62862" lon="6.52692">
        <ele>2092.6</ele>
        <time>2025-02-20T14:35:07Z</time>
      </trkpt>
      <trkpt lat="45.62862" lon="6.52693">
        <ele>2092.6</ele>
        <time>2025-02-20T14:35:08Z</time>
      </trkpt>
      <trkpt lat="45.62863" lon="6.52693">
        <ele>2093.2</ele>
        <time>2025-02-20T14:35:09Z</time>
      </trkpt>
      <trkpt lat="45.62863" lon="6.52694">
        <ele>2093.2</ele>
        <time>2025-02-20T14:35:10Z</time>
      </trkpt>
      <trkpt lat="45.62863" lon="6.52694">
        <ele>2093.2</ele>
        <time>2025-02-20T14:35:11Z</time>
      </trkpt>
      <trkpt lat="45.62864" lon="6.52695">
        <ele>2093.4</ele>
        <time>2025-02-20T14:35:12Z</time>
      </trkpt>
      <trkpt lat="45.62864" lon="6.52696">
        <ele>2093</ele>
        <time>2025-02-20T14:35:13Z</time>
      </trkpt>
      <trkpt lat="45.62864" lon="6.52696">
        <ele>2093</ele>
        <time>2025-02-20T14:35:14Z</time>
      </trkpt>
      <trkpt lat="45.62865" lon="6.52696">
        <ele>2093</ele>
        <time>2025-02-20T14:35:15Z</time>
      </trkpt>
      <trkpt lat="45.62865" lon="6.52697">
        <ele>2093</ele>
        <time>2025-02-20T14:35:16Z</time>
      </trkpt>
      <trkpt lat="45.62865" lon="6.52698">
        <ele>2092.8</ele>
        <time>2025-02-20T14:35:17Z</time>
      </trkpt>
      <trkpt lat="45.62865" lon="6.52698">
        <ele>2092.8</ele>
        <time>2025-02-20T14:35:18Z</time>
      </trkpt>
      <trkpt lat="45.62865" lon="6.52698">
        <ele>2092.8</ele>
        <time>2025-02-20T14:35:19Z</time>
      </trkpt>
      <trkpt lat="45.62866" lon="6.527">
        <ele>2093.8</ele>
        <time>2025-02-20T14:35:20Z</time>
      </trkpt>
      <trkpt lat="45.62866" lon="6.527">
        <ele>2093.8</ele>
        <time>2025-02-20T14:35:21Z</time>
      </trkpt>
      <trkpt lat="45.62866" lon="6.527">
        <ele>2093.8</ele>
        <time>2025-02-20T14:35:22Z</time>
      </trkpt>
      <trkpt lat="45.62866" lon="6.527">
        <ele>2093.8</ele>
        <time>2025-02-20T14:35:23Z</time>
      </trkpt>
      <trkpt lat="45.62866" lon="6.527">
        <ele>2094.8</ele>
        <time>2025-02-20T14:35:24Z</time>
      </trkpt>
      <trkpt lat="45.62866" lon="6.527">
        <ele>2094.6</ele>
        <time>2025-02-20T14:35:25Z</time>
      </trkpt>
      <trkpt lat="45.62866" lon="6.527">
        <ele>2094.6</ele>
        <time>2025-02-20T14:35:26Z</time>
      </trkpt>
      <trkpt lat="45.62866" lon="6.527">
        <ele>2094.6</ele>
        <time>2025-02-20T14:35:27Z</time>
      </trkpt>
      <trkpt lat="45.62866" lon="6.527">
        <ele>2095</ele>
        <time>2025-02-20T14:35:28Z</time>
      </trkpt>
      <trkpt lat="45.62867" lon="6.527">
        <ele>2095</ele>
        <time>2025-02-20T14:35:29Z</time>
      </trkpt>
      <trkpt lat="45.62868" lon="6.52701">
        <ele>2095</ele>
        <time>2025-02-20T14:35:30Z</time>
      </trkpt>
      <trkpt lat="45.62869" lon="6.52703">
        <ele>2095</ele>
        <time>2025-02-20T14:35:31Z</time>
      </trkpt>
      <trkpt lat="45.6287" lon="6.52703">
        <ele>2095</ele>
        <time>2025-02-20T14:35:32Z</time>
      </trkpt>
      <trkpt lat="45.62869" lon="6.52705">
        <ele>2094.6</ele>
        <time>2025-02-20T14:35:33Z</time>
      </trkpt>
      <trkpt lat="45.6287" lon="6.52706">
        <ele>2094.6</ele>
        <time>2025-02-20T14:35:34Z</time>
      </trkpt>
      <trkpt lat="45.6287" lon="6.52706">
        <ele>2094.6</ele>
        <time>2025-02-20T14:35:35Z</time>
      </trkpt>
      <trkpt lat="45.6287" lon="6.52706">
        <ele>2094.6</ele>
        <time>2025-02-20T14:35:36Z</time>
      </trkpt>
      <trkpt lat="45.62871" lon="6.52708">
        <ele>2095.4</ele>
        <time>2025-02-20T14:35:37Z</time>
      </trkpt>
      <trkpt lat="45.62872" lon="6.52709">
        <ele>2095.4</ele>
        <time>2025-02-20T14:35:38Z</time>
      </trkpt>
      <trkpt lat="45.62872" lon="6.5271">
        <ele>2095.4</ele>
        <time>2025-02-20T14:35:39Z</time>
      </trkpt>
      <trkpt lat="45.62872" lon="6.5271">
        <ele>2095.4</ele>
        <time>2025-02-20T14:35:40Z</time>
      </trkpt>
      <trkpt lat="45.62871" lon="6.52711">
        <ele>2096.8</ele>
        <time>2025-02-20T14:35:41Z</time>
      </trkpt>
      <trkpt lat="45.62872" lon="6.52712">
        <ele>2096.8</ele>
        <time>2025-02-20T14:35:42Z</time>
      </trkpt>
      <trkpt lat="45.62872" lon="6.52712">
        <ele>2096.8</ele>
        <time>2025-02-20T14:35:43Z</time>
      </trkpt>
      <trkpt lat="45.62873" lon="6.52713">
        <ele>2095.8</ele>
        <time>2025-02-20T14:35:44Z</time>
      </trkpt>
      <trkpt lat="45.62873" lon="6.52714">
        <ele>2096.6</ele>
        <time>2025-02-20T14:35:45Z</time>
      </trkpt>
      <trkpt lat="45.62873" lon="6.52714">
        <ele>2096.6</ele>
        <time>2025-02-20T14:35:46Z</time>
      </trkpt>
      <trkpt lat="45.62873" lon="6.52714">
        <ele>2096.6</ele>
        <time>2025-02-20T14:35:47Z</time>
      </trkpt>
      <trkpt lat="45.62873" lon="6.52716">
        <ele>2096.4</ele>
        <time>2025-02-20T14:35:48Z</time>
      </trkpt>
      <trkpt lat="45.62873" lon="6.52718">
        <ele>2096.8</ele>
        <time>2025-02-20T14:35:49Z</time>
      </trkpt>
      <trkpt lat="45.62875" lon="6.52719">
        <ele>2096.8</ele>
        <time>2025-02-20T14:35:50Z</time>
      </trkpt>
      <trkpt lat="45.62875" lon="6.52719">
        <ele>2096.8</ele>
        <time>2025-02-20T14:35:51Z</time>
      </trkpt>
      <trkpt lat="45.62876" lon="6.5272">
        <ele>2096.2</ele>
        <time>2025-02-20T14:35:52Z</time>
      </trkpt>
      <trkpt lat="45.62876" lon="6.5272">
        <ele>2096.2</ele>
        <time>2025-02-20T14:35:53Z</time>
      </trkpt>
      <trkpt lat="45.62877" lon="6.52721">
        <ele>2096.2</ele>
        <time>2025-02-20T14:35:54Z</time>
      </trkpt>
      <trkpt lat="45.62877" lon="6.52722">
        <ele>2096.2</ele>
        <time>2025-02-20T14:35:55Z</time>
      </trkpt>
      <trkpt lat="45.62877" lon="6.52722">
        <ele>2096.2</ele>
        <time>2025-02-20T14:35:56Z</time>
      </trkpt>
      <trkpt lat="45.62877" lon="6.52722">
        <ele>2097</ele>
        <time>2025-02-20T14:35:57Z</time>
      </trkpt>
      <trkpt lat="45.62877" lon="6.52722">
        <ele>2097</ele>
        <time>2025-02-20T14:35:58Z</time>
      </trkpt>
      <trkpt lat="45.62877" lon="6.52722">
        <ele>2097</ele>
        <time>2025-02-20T14:35:59Z</time>
      </trkpt>
      <trkpt lat="45.62877" lon="6.52722">
        <ele>2097.8</ele>
        <time>2025-02-20T14:36:00Z</time>
      </trkpt>
      <trkpt lat="45.62878" lon="6.52725">
        <ele>2097.8</ele>
        <time>2025-02-20T14:36:01Z</time>
      </trkpt>
      <trkpt lat="45.62878" lon="6.52727">
        <ele>2097.8</ele>
        <time>2025-02-20T14:36:02Z</time>
      </trkpt>
      <trkpt lat="45.62878" lon="6.52728">
        <ele>2097.8</ele>
        <time>2025-02-20T14:36:03Z</time>
      </trkpt>
      <trkpt lat="45.62878" lon="6.52729">
        <ele>2097.8</ele>
        <time>2025-02-20T14:36:04Z</time>
      </trkpt>
      <trkpt lat="45.62879" lon="6.52729">
        <ele>2098</ele>
        <time>2025-02-20T14:36:05Z</time>
      </trkpt>
      <trkpt lat="45.6288" lon="6.52729">
        <ele>2098</ele>
        <time>2025-02-20T14:36:06Z</time>
      </trkpt>
      <trkpt lat="45.62881" lon="6.52729">
        <ele>2098</ele>
        <time>2025-02-20T14:36:07Z</time>
      </trkpt>
      <trkpt lat="45.62881" lon="6.52729">
        <ele>2098</ele>
        <time>2025-02-20T14:36:08Z</time>
      </trkpt>
      <trkpt lat="45.62882" lon="6.5273">
        <ele>2098.2</ele>
        <time>2025-02-20T14:36:09Z</time>
      </trkpt>
      <trkpt lat="45.62883" lon="6.5273">
        <ele>2098.2</ele>
        <time>2025-02-20T14:36:10Z</time>
      </trkpt>
      <trkpt lat="45.62883" lon="6.5273">
        <ele>2098.2</ele>
        <time>2025-02-20T14:36:11Z</time>
      </trkpt>
      <trkpt lat="45.62884" lon="6.52731">
        <ele>2098.2</ele>
        <time>2025-02-20T14:36:12Z</time>
      </trkpt>
      <trkpt lat="45.62884" lon="6.52731">
        <ele>2098.8</ele>
        <time>2025-02-20T14:36:13Z</time>
      </trkpt>
      <trkpt lat="45.62884" lon="6.52731">
        <ele>2098.8</ele>
        <time>2025-02-20T14:36:14Z</time>
      </trkpt>
      <trkpt lat="45.62885" lon="6.52731">
        <ele>2098.8</ele>
        <time>2025-02-20T14:36:15Z</time>
      </trkpt>
      <trkpt lat="45.62885" lon="6.5273">
        <ele>2098.8</ele>
        <time>2025-02-20T14:36:16Z</time>
      </trkpt>
      <trkpt lat="45.62885" lon="6.5273">
        <ele>2099</ele>
        <time>2025-02-20T14:36:17Z</time>
      </trkpt>
      <trkpt lat="45.62885" lon="6.52729">
        <ele>2099</ele>
        <time>2025-02-20T14:36:18Z</time>
      </trkpt>
      <trkpt lat="45.62886" lon="6.5273">
        <ele>2099</ele>
        <time>2025-02-20T14:36:19Z</time>
      </trkpt>
      <trkpt lat="45.62886" lon="6.5273">
        <ele>2099</ele>
        <time>2025-02-20T14:36:20Z</time>
      </trkpt>
      <trkpt lat="45.62887" lon="6.52729">
        <ele>2100</ele>
        <time>2025-02-20T14:36:21Z</time>
      </trkpt>
      <trkpt lat="45.62888" lon="6.52729">
        <ele>2100</ele>
        <time>2025-02-20T14:36:22Z</time>
      </trkpt>
      <trkpt lat="45.62888" lon="6.52729">
        <ele>2100</ele>
        <time>2025-02-20T14:36:23Z</time>
      </trkpt>
      <trkpt lat="45.62889" lon="6.52729">
        <ele>2100</ele>
        <time>2025-02-20T14:36:24Z</time>
      </trkpt>
      <trkpt lat="45.6289" lon="6.52728">
        <ele>2101</ele>
        <time>2025-02-20T14:36:25Z</time>
      </trkpt>
      <trkpt lat="45.62891" lon="6.52728">
        <ele>2101</ele>
        <time>2025-02-20T14:36:26Z</time>
      </trkpt>
      <trkpt lat="45.62892" lon="6.52728">
        <ele>2101</ele>
        <time>2025-02-20T14:36:27Z</time>
      </trkpt>
      <trkpt lat="45.62892" lon="6.52728">
        <ele>2101</ele>
        <time>2025-02-20T14:36:28Z</time>
      </trkpt>
      <trkpt lat="45.62893" lon="6.52728">
        <ele>2101.2</ele>
        <time>2025-02-20T14:36:29Z</time>
      </trkpt>
      <trkpt lat="45.62894" lon="6.52728">
        <ele>2101.2</ele>
        <time>2025-02-20T14:36:30Z</time>
      </trkpt>
      <trkpt lat="45.62894" lon="6.52727">
        <ele>2101.2</ele>
        <time>2025-02-20T14:36:31Z</time>
      </trkpt>
      <trkpt lat="45.62895" lon="6.52727">
        <ele>2101.2</ele>
        <time>2025-02-20T14:36:32Z</time>
      </trkpt>
      <trkpt lat="45.62895" lon="6.52726">
        <ele>2101.4</ele>
        <time>2025-02-20T14:36:33Z</time>
      </trkpt>
      <trkpt lat="45.62895" lon="6.52727">
        <ele>2101.4</ele>
        <time>2025-02-20T14:36:34Z</time>
      </trkpt>
      <trkpt lat="45.62895" lon="6.52726">
        <ele>2101.4</ele>
        <time>2025-02-20T14:36:35Z</time>
      </trkpt>
      <trkpt lat="45.62896" lon="6.52727">
        <ele>2101.2</ele>
        <time>2025-02-20T14:36:36Z</time>
      </trkpt>
      <trkpt lat="45.62897" lon="6.52727">
        <ele>2100.6</ele>
        <time>2025-02-20T14:36:37Z</time>
      </trkpt>
      <trkpt lat="45.62897" lon="6.52727">
        <ele>2100.6</ele>
        <time>2025-02-20T14:36:38Z</time>
      </trkpt>
      <trkpt lat="45.62897" lon="6.52727">
        <ele>2100.6</ele>
        <time>2025-02-20T14:36:39Z</time>
      </trkpt>
      <trkpt lat="45.62898" lon="6.52729">
        <ele>2101.6</ele>
        <time>2025-02-20T14:36:40Z</time>
      </trkpt>
      <trkpt lat="45.62898" lon="6.5273">
        <ele>2101.2</ele>
        <time>2025-02-20T14:36:41Z</time>
      </trkpt>
      <trkpt lat="45.62899" lon="6.5273">
        <ele>2101.2</ele>
        <time>2025-02-20T14:36:42Z</time>
      </trkpt>
      <trkpt lat="45.62899" lon="6.5273">
        <ele>2101.2</ele>
        <time>2025-02-20T14:36:43Z</time>
      </trkpt>
      <trkpt lat="45.62899" lon="6.52731">
        <ele>2102.2</ele>
        <time>2025-02-20T14:36:44Z</time>
      </trkpt>
      <trkpt lat="45.62899" lon="6.52731">
        <ele>2101.8</ele>
        <time>2025-02-20T14:36:45Z</time>
      </trkpt>
      <trkpt lat="45.62899" lon="6.52731">
        <ele>2101.8</ele>
        <time>2025-02-20T14:36:46Z</time>
      </trkpt>
      <trkpt lat="45.62899" lon="6.52731">
        <ele>2101.8</ele>
        <time>2025-02-20T14:36:47Z</time>
      </trkpt>
      <trkpt lat="45.62899" lon="6.52731">
        <ele>2102.8</ele>
        <time>2025-02-20T14:36:48Z</time>
      </trkpt>
      <trkpt lat="45.62899" lon="6.52731">
        <ele>2102.8</ele>
        <time>2025-02-20T14:36:49Z</time>
      </trkpt>
      <trkpt lat="45.62899" lon="6.52731">
        <ele>2102.8</ele>
        <time>2025-02-20T14:36:50Z</time>
      </trkpt>
      <trkpt lat="45.62899" lon="6.52731">
        <ele>2102.8</ele>
        <time>2025-02-20T14:36:51Z</time>
      </trkpt>
      <trkpt lat="45.62899" lon="6.52731">
        <ele>2103.8</ele>
        <time>2025-02-20T14:36:52Z</time>
      </trkpt>
      <trkpt lat="45.62899" lon="6.52735">
        <ele>2103.6</ele>
        <time>2025-02-20T14:36:53Z</time>
      </trkpt>
      <trkpt lat="45.629" lon="6.52737">
        <ele>2103.6</ele>
        <time>2025-02-20T14:36:54Z</time>
      </trkpt>
      <trkpt lat="45.629" lon="6.52738">
        <ele>2103.6</ele>
        <time>2025-02-20T14:36:55Z</time>
      </trkpt>
      <trkpt lat="45.629" lon="6.52738">
        <ele>2104.6</ele>
        <time>2025-02-20T14:36:56Z</time>
      </trkpt>
      <trkpt lat="45.62901" lon="6.5274">
        <ele>2104.2</ele>
        <time>2025-02-20T14:36:57Z</time>
      </trkpt>
      <trkpt lat="45.62901" lon="6.52741">
        <ele>2104.2</ele>
        <time>2025-02-20T14:36:58Z</time>
      </trkpt>
      <trkpt lat="45.62902" lon="6.52742">
        <ele>2104.2</ele>
        <time>2025-02-20T14:36:59Z</time>
      </trkpt>
      <trkpt lat="45.62902" lon="6.52742">
        <ele>2104.2</ele>
        <time>2025-02-20T14:37:00Z</time>
      </trkpt>
      <trkpt lat="45.62902" lon="6.52743">
        <ele>2104.4</ele>
        <time>2025-02-20T14:37:01Z</time>
      </trkpt>
      <trkpt lat="45.62902" lon="6.52743">
        <ele>2104.4</ele>
        <time>2025-02-20T14:37:02Z</time>
      </trkpt>
      <trkpt lat="45.62902" lon="6.52743">
        <ele>2104.4</ele>
        <time>2025-02-20T14:37:03Z</time>
      </trkpt>
      <trkpt lat="45.62902" lon="6.52743">
        <ele>2104.4</ele>
        <time>2025-02-20T14:37:04Z</time>
      </trkpt>
      <trkpt lat="45.62902" lon="6.52743">
        <ele>2105.4</ele>
        <time>2025-02-20T14:37:05Z</time>
      </trkpt>
      <trkpt lat="45.62902" lon="6.52743">
        <ele>2105.4</ele>
        <time>2025-02-20T14:37:06Z</time>
      </trkpt>
      <trkpt lat="45.62902" lon="6.52743">
        <ele>2105.4</ele>
        <time>2025-02-20T14:37:07Z</time>
      </trkpt>
      <trkpt lat="45.62902" lon="6.52743">
        <ele>2105.4</ele>
        <time>2025-02-20T14:37:08Z</time>
      </trkpt>
      <trkpt lat="45.62902" lon="6.52743">
        <ele>2106.2</ele>
        <time>2025-02-20T14:37:09Z</time>
      </trkpt>
      <trkpt lat="45.62902" lon="6.52743">
        <ele>2106.2</ele>
        <time>2025-02-20T14:37:10Z</time>
      </trkpt>
      <trkpt lat="45.62902" lon="6.52743">
        <ele>2106.2</ele>
        <time>2025-02-20T14:37:11Z</time>
      </trkpt>
      <trkpt lat="45.62902" lon="6.52743">
        <ele>2106.2</ele>
        <time>2025-02-20T14:37:12Z</time>
      </trkpt>
      <trkpt lat="45.62902" lon="6.52743">
        <ele>2106</ele>
        <time>2025-02-20T14:37:13Z</time>
      </trkpt>
      <trkpt lat="45.62904" lon="6.52747">
        <ele>2106</ele>
        <time>2025-02-20T14:37:14Z</time>
      </trkpt>
      <trkpt lat="45.62905" lon="6.52747">
        <ele>2106</ele>
        <time>2025-02-20T14:37:15Z</time>
      </trkpt>
      <trkpt lat="45.62906" lon="6.52749">
        <ele>2105.8</ele>
        <time>2025-02-20T14:37:16Z</time>
      </trkpt>
      <trkpt lat="45.62906" lon="6.5275">
        <ele>2105.4</ele>
        <time>2025-02-20T14:37:17Z</time>
      </trkpt>
      <trkpt lat="45.62906" lon="6.52751">
        <ele>2105.4</ele>
        <time>2025-02-20T14:37:18Z</time>
      </trkpt>
      <trkpt lat="45.62906" lon="6.52752">
        <ele>2105.4</ele>
        <time>2025-02-20T14:37:19Z</time>
      </trkpt>
      <trkpt lat="45.62906" lon="6.52753">
        <ele>2106.4</ele>
        <time>2025-02-20T14:37:20Z</time>
      </trkpt>
      <trkpt lat="45.62907" lon="6.52753">
        <ele>2106.4</ele>
        <time>2025-02-20T14:37:21Z</time>
      </trkpt>
      <trkpt lat="45.62907" lon="6.52753">
        <ele>2106.4</ele>
        <time>2025-02-20T14:37:22Z</time>
      </trkpt>
      <trkpt lat="45.62908" lon="6.52754">
        <ele>2106.4</ele>
        <time>2025-02-20T14:37:23Z</time>
      </trkpt>
      <trkpt lat="45.62909" lon="6.52755">
        <ele>2107.4</ele>
        <time>2025-02-20T14:37:24Z</time>
      </trkpt>
      <trkpt lat="45.62909" lon="6.52756">
        <ele>2106.8</ele>
        <time>2025-02-20T14:37:25Z</time>
      </trkpt>
      <trkpt lat="45.6291" lon="6.52755">
        <ele>2106.8</ele>
        <time>2025-02-20T14:37:26Z</time>
      </trkpt>
      <trkpt lat="45.6291" lon="6.52755">
        <ele>2106.8</ele>
        <time>2025-02-20T14:37:27Z</time>
      </trkpt>
      <trkpt lat="45.6291" lon="6.52755">
        <ele>2106.8</ele>
        <time>2025-02-20T14:37:28Z</time>
      </trkpt>
      <trkpt lat="45.6291" lon="6.52755">
        <ele>2107.6</ele>
        <time>2025-02-20T14:37:29Z</time>
      </trkpt>
      <trkpt lat="45.6291" lon="6.52755">
        <ele>2107.6</ele>
        <time>2025-02-20T14:37:30Z</time>
      </trkpt>
      <trkpt lat="45.6291" lon="6.52755">
        <ele>2107.6</ele>
        <time>2025-02-20T14:37:31Z</time>
      </trkpt>
      <trkpt lat="45.6291" lon="6.52755">
        <ele>2108.6</ele>
        <time>2025-02-20T14:37:32Z</time>
      </trkpt>
      <trkpt lat="45.6291" lon="6.52755">
        <ele>2108.2</ele>
        <time>2025-02-20T14:37:33Z</time>
      </trkpt>
      <trkpt lat="45.6291" lon="6.52755">
        <ele>2108.2</ele>
        <time>2025-02-20T14:37:34Z</time>
      </trkpt>
      <trkpt lat="45.6291" lon="6.52755">
        <ele>2108.2</ele>
        <time>2025-02-20T14:37:35Z</time>
      </trkpt>
      <trkpt lat="45.62912" lon="6.52755">
        <ele>2108.2</ele>
        <time>2025-02-20T14:37:36Z</time>
      </trkpt>
      <trkpt lat="45.62912" lon="6.52756">
        <ele>2108.2</ele>
        <time>2025-02-20T14:37:37Z</time>
      </trkpt>
      <trkpt lat="45.62913" lon="6.52758">
        <ele>2108.2</ele>
        <time>2025-02-20T14:37:38Z</time>
      </trkpt>
      <trkpt lat="45.62914" lon="6.52758">
        <ele>2108.2</ele>
        <time>2025-02-20T14:37:39Z</time>
      </trkpt>
      <trkpt lat="45.62914" lon="6.52759">
        <ele>2109.2</ele>
        <time>2025-02-20T14:37:40Z</time>
      </trkpt>
      <trkpt lat="45.62914" lon="6.52759">
        <ele>2110</ele>
        <time>2025-02-20T14:37:41Z</time>
      </trkpt>
      <trkpt lat="45.62914" lon="6.52759">
        <ele>2110</ele>
        <time>2025-02-20T14:37:42Z</time>
      </trkpt>
      <trkpt lat="45.62914" lon="6.52759">
        <ele>2110</ele>
        <time>2025-02-20T14:37:43Z</time>
      </trkpt>
      <trkpt lat="45.62914" lon="6.52759">
        <ele>2110</ele>
        <time>2025-02-20T14:37:44Z</time>
      </trkpt>
      <trkpt lat="45.62914" lon="6.52759">
        <ele>2109</ele>
        <time>2025-02-20T14:37:45Z</time>
      </trkpt>
      <trkpt lat="45.62914" lon="6.52759">
        <ele>2109</ele>
        <time>2025-02-20T14:37:46Z</time>
      </trkpt>
      <trkpt lat="45.62916" lon="6.5276">
        <ele>2109</ele>
        <time>2025-02-20T14:37:47Z</time>
      </trkpt>
      <trkpt lat="45.62916" lon="6.52761">
        <ele>2110</ele>
        <time>2025-02-20T14:37:48Z</time>
      </trkpt>
      <trkpt lat="45.62916" lon="6.52761">
        <ele>2109.8</ele>
        <time>2025-02-20T14:37:49Z</time>
      </trkpt>
      <trkpt lat="45.62916" lon="6.52761">
        <ele>2109.8</ele>
        <time>2025-02-20T14:37:50Z</time>
      </trkpt>
      <trkpt lat="45.62917" lon="6.52763">
        <ele>2109.8</ele>
        <time>2025-02-20T14:37:51Z</time>
      </trkpt>
      <trkpt lat="45.62918" lon="6.52763">
        <ele>2109.8</ele>
        <time>2025-02-20T14:37:52Z</time>
      </trkpt>
      <trkpt lat="45.62918" lon="6.52763">
        <ele>2110</ele>
        <time>2025-02-20T14:37:53Z</time>
      </trkpt>
      <trkpt lat="45.62918" lon="6.52763">
        <ele>2110</ele>
        <time>2025-02-20T14:37:54Z</time>
      </trkpt>
      <trkpt lat="45.62919" lon="6.52765">
        <ele>2110</ele>
        <time>2025-02-20T14:37:55Z</time>
      </trkpt>
      <trkpt lat="45.62919" lon="6.52765">
        <ele>2110</ele>
        <time>2025-02-20T14:37:56Z</time>
      </trkpt>
      <trkpt lat="45.6292" lon="6.52765">
        <ele>2110.2</ele>
        <time>2025-02-20T14:37:57Z</time>
      </trkpt>
      <trkpt lat="45.62921" lon="6.52765">
        <ele>2110.2</ele>
        <time>2025-02-20T14:37:58Z</time>
      </trkpt>
      <trkpt lat="45.62921" lon="6.52766">
        <ele>2110.2</ele>
        <time>2025-02-20T14:37:59Z</time>
      </trkpt>
      <trkpt lat="45.62921" lon="6.52766">
        <ele>2110.2</ele>
        <time>2025-02-20T14:38:00Z</time>
      </trkpt>
      <trkpt lat="45.62922" lon="6.52767">
        <ele>2111.6</ele>
        <time>2025-02-20T14:38:01Z</time>
      </trkpt>
      <trkpt lat="45.62923" lon="6.52767">
        <ele>2111.6</ele>
        <time>2025-02-20T14:38:02Z</time>
      </trkpt>
      <trkpt lat="45.62924" lon="6.52767">
        <ele>2111.6</ele>
        <time>2025-02-20T14:38:03Z</time>
      </trkpt>
      <trkpt lat="45.62924" lon="6.52767">
        <ele>2111.6</ele>
        <time>2025-02-20T14:38:04Z</time>
      </trkpt>
      <trkpt lat="45.62925" lon="6.52768">
        <ele>2112</ele>
        <time>2025-02-20T14:38:05Z</time>
      </trkpt>
      <trkpt lat="45.62925" lon="6.52768">
        <ele>2112</ele>
        <time>2025-02-20T14:38:06Z</time>
      </trkpt>
      <trkpt lat="45.62925" lon="6.52768">
        <ele>2112</ele>
        <time>2025-02-20T14:38:07Z</time>
      </trkpt>
      <trkpt lat="45.62926" lon="6.52769">
        <ele>2113</ele>
        <time>2025-02-20T14:38:08Z</time>
      </trkpt>
      <trkpt lat="45.62927" lon="6.5277">
        <ele>2111.8</ele>
        <time>2025-02-20T14:38:09Z</time>
      </trkpt>
      <trkpt lat="45.62928" lon="6.52771">
        <ele>2111.8</ele>
        <time>2025-02-20T14:38:10Z</time>
      </trkpt>
      <trkpt lat="45.62928" lon="6.52771">
        <ele>2111.8</ele>
        <time>2025-02-20T14:38:11Z</time>
      </trkpt>
      <trkpt lat="45.62928" lon="6.52772">
        <ele>2111.8</ele>
        <time>2025-02-20T14:38:12Z</time>
      </trkpt>
      <trkpt lat="45.62929" lon="6.52772">
        <ele>2111.6</ele>
        <time>2025-02-20T14:38:13Z</time>
      </trkpt>
      <trkpt lat="45.62929" lon="6.52773">
        <ele>2111.6</ele>
        <time>2025-02-20T14:38:14Z</time>
      </trkpt>
      <trkpt lat="45.6293" lon="6.52773">
        <ele>2111.6</ele>
        <time>2025-02-20T14:38:15Z</time>
      </trkpt>
      <trkpt lat="45.6293" lon="6.52773">
        <ele>2112.6</ele>
        <time>2025-02-20T14:38:16Z</time>
      </trkpt>
      <trkpt lat="45.6293" lon="6.52773">
        <ele>2112</ele>
        <time>2025-02-20T14:38:17Z</time>
      </trkpt>
      <trkpt lat="45.62931" lon="6.52774">
        <ele>2112</ele>
        <time>2025-02-20T14:38:18Z</time>
      </trkpt>
      <trkpt lat="45.62932" lon="6.52774">
        <ele>2112</ele>
        <time>2025-02-20T14:38:19Z</time>
      </trkpt>
      <trkpt lat="45.62933" lon="6.52774">
        <ele>2113</ele>
        <time>2025-02-20T14:38:20Z</time>
      </trkpt>
      <trkpt lat="45.62933" lon="6.52775">
        <ele>2112.6</ele>
        <time>2025-02-20T14:38:21Z</time>
      </trkpt>
      <trkpt lat="45.62934" lon="6.52775">
        <ele>2112.6</ele>
        <time>2025-02-20T14:38:22Z</time>
      </trkpt>
      <trkpt lat="45.62934" lon="6.52775">
        <ele>2112.6</ele>
        <time>2025-02-20T14:38:23Z</time>
      </trkpt>
      <trkpt lat="45.62935" lon="6.52775">
        <ele>2113.6</ele>
        <time>2025-02-20T14:38:24Z</time>
      </trkpt>
      <trkpt lat="45.62935" lon="6.52775">
        <ele>2113.2</ele>
        <time>2025-02-20T14:38:25Z</time>
      </trkpt>
      <trkpt lat="45.62935" lon="6.52775">
        <ele>2113.2</ele>
        <time>2025-02-20T14:38:26Z</time>
      </trkpt>
      <trkpt lat="45.62935" lon="6.52775">
        <ele>2113.2</ele>
        <time>2025-02-20T14:38:27Z</time>
      </trkpt>
      <trkpt lat="45.62935" lon="6.52775">
        <ele>2114.2</ele>
        <time>2025-02-20T14:38:28Z</time>
      </trkpt>
      <trkpt lat="45.62935" lon="6.52775">
        <ele>2114.6</ele>
        <time>2025-02-20T14:38:29Z</time>
      </trkpt>
      <trkpt lat="45.62937" lon="6.52776">
        <ele>2114.6</ele>
        <time>2025-02-20T14:38:30Z</time>
      </trkpt>
      <trkpt lat="45.62938" lon="6.52777">
        <ele>2114.6</ele>
        <time>2025-02-20T14:38:31Z</time>
      </trkpt>
      <trkpt lat="45.62938" lon="6.52777">
        <ele>2114.6</ele>
        <time>2025-02-20T14:38:32Z</time>
      </trkpt>
      <trkpt lat="45.62938" lon="6.52777">
        <ele>2114.8</ele>
        <time>2025-02-20T14:38:33Z</time>
      </trkpt>
      <trkpt lat="45.62938" lon="6.52777">
        <ele>2114.8</ele>
        <time>2025-02-20T14:38:34Z</time>
      </trkpt>
      <trkpt lat="45.62938" lon="6.52777">
        <ele>2114.8</ele>
        <time>2025-02-20T14:38:35Z</time>
      </trkpt>
      <trkpt lat="45.62938" lon="6.52777">
        <ele>2114.8</ele>
        <time>2025-02-20T14:38:36Z</time>
      </trkpt>
      <trkpt lat="45.62938" lon="6.52777">
        <ele>2115.4</ele>
        <time>2025-02-20T14:38:37Z</time>
      </trkpt>
      <trkpt lat="45.62938" lon="6.52777">
        <ele>2115.4</ele>
        <time>2025-02-20T14:38:38Z</time>
      </trkpt>
      <trkpt lat="45.62941" lon="6.5278">
        <ele>2115.4</ele>
        <time>2025-02-20T14:38:39Z</time>
      </trkpt>
      <trkpt lat="45.62942" lon="6.5278">
        <ele>2116</ele>
        <time>2025-02-20T14:38:40Z</time>
      </trkpt>
      <trkpt lat="45.62943" lon="6.5278">
        <ele>2115.8</ele>
        <time>2025-02-20T14:38:41Z</time>
      </trkpt>
      <trkpt lat="45.62943" lon="6.52781">
        <ele>2115.8</ele>
        <time>2025-02-20T14:38:42Z</time>
      </trkpt>
      <trkpt lat="45.62944" lon="6.52782">
        <ele>2115.8</ele>
        <time>2025-02-20T14:38:43Z</time>
      </trkpt>
      <trkpt lat="45.62945" lon="6.52781">
        <ele>2116.4</ele>
        <time>2025-02-20T14:38:44Z</time>
      </trkpt>
      <trkpt lat="45.62945" lon="6.52781">
        <ele>2115.8</ele>
        <time>2025-02-20T14:38:45Z</time>
      </trkpt>
      <trkpt lat="45.62945" lon="6.52781">
        <ele>2115.8</ele>
        <time>2025-02-20T14:38:46Z</time>
      </trkpt>
      <trkpt lat="45.62947" lon="6.52783">
        <ele>2115.8</ele>
        <time>2025-02-20T14:38:47Z</time>
      </trkpt>
      <trkpt lat="45.62947" lon="6.52784">
        <ele>2115.8</ele>
        <time>2025-02-20T14:38:48Z</time>
      </trkpt>
      <trkpt lat="45.62947" lon="6.52784">
        <ele>2116.4</ele>
        <time>2025-02-20T14:38:49Z</time>
      </trkpt>
      <trkpt lat="45.62948" lon="6.52784">
        <ele>2116.4</ele>
        <time>2025-02-20T14:38:50Z</time>
      </trkpt>
      <trkpt lat="45.62948" lon="6.52785">
        <ele>2116.4</ele>
        <time>2025-02-20T14:38:51Z</time>
      </trkpt>
      <trkpt lat="45.62948" lon="6.52785">
        <ele>2116.4</ele>
        <time>2025-02-20T14:38:52Z</time>
      </trkpt>
      <trkpt lat="45.62948" lon="6.52785">
        <ele>2117.6</ele>
        <time>2025-02-20T14:38:53Z</time>
      </trkpt>
      <trkpt lat="45.62949" lon="6.52786">
        <ele>2117.6</ele>
        <time>2025-02-20T14:38:54Z</time>
      </trkpt>
      <trkpt lat="45.62949" lon="6.52787">
        <ele>2117.6</ele>
        <time>2025-02-20T14:38:55Z</time>
      </trkpt>
      <trkpt lat="45.62949" lon="6.52787">
        <ele>2117.6</ele>
        <time>2025-02-20T14:38:56Z</time>
      </trkpt>
      <trkpt lat="45.6295" lon="6.52787">
        <ele>2118</ele>
        <time>2025-02-20T14:38:57Z</time>
      </trkpt>
      <trkpt lat="45.6295" lon="6.52788">
        <ele>2118</ele>
        <time>2025-02-20T14:38:58Z</time>
      </trkpt>
      <trkpt lat="45.6295" lon="6.52788">
        <ele>2118</ele>
        <time>2025-02-20T14:38:59Z</time>
      </trkpt>
      <trkpt lat="45.62951" lon="6.52789">
        <ele>2117.8</ele>
        <time>2025-02-20T14:39:00Z</time>
      </trkpt>
      <trkpt lat="45.62951" lon="6.52789">
        <ele>2117.2</ele>
        <time>2025-02-20T14:39:01Z</time>
      </trkpt>
      <trkpt lat="45.62952" lon="6.52789">
        <ele>2117.2</ele>
        <time>2025-02-20T14:39:02Z</time>
      </trkpt>
      <trkpt lat="45.62952" lon="6.5279">
        <ele>2117.2</ele>
        <time>2025-02-20T14:39:03Z</time>
      </trkpt>
      <trkpt lat="45.62952" lon="6.5279">
        <ele>2118.2</ele>
        <time>2025-02-20T14:39:04Z</time>
      </trkpt>
      <trkpt lat="45.62953" lon="6.5279">
        <ele>2118.2</ele>
        <time>2025-02-20T14:39:05Z</time>
      </trkpt>
      <trkpt lat="45.62953" lon="6.5279">
        <ele>2118.2</ele>
        <time>2025-02-20T14:39:06Z</time>
      </trkpt>
      <trkpt lat="45.62954" lon="6.52791">
        <ele>2118.2</ele>
        <time>2025-02-20T14:39:07Z</time>
      </trkpt>
      <trkpt lat="45.62954" lon="6.52791">
        <ele>2119.2</ele>
        <time>2025-02-20T14:39:08Z</time>
      </trkpt>
      <trkpt lat="45.62954" lon="6.52791">
        <ele>2119.2</ele>
        <time>2025-02-20T14:39:09Z</time>
      </trkpt>
      <trkpt lat="45.62954" lon="6.52791">
        <ele>2119.2</ele>
        <time>2025-02-20T14:39:10Z</time>
      </trkpt>
      <trkpt lat="45.62954" lon="6.52791">
        <ele>2119.2</ele>
        <time>2025-02-20T14:39:11Z</time>
      </trkpt>
      <trkpt lat="45.62954" lon="6.52791">
        <ele>2119.2</ele>
        <time>2025-02-20T14:39:12Z</time>
      </trkpt>
      <trkpt lat="45.62955" lon="6.52793">
        <ele>2119.6</ele>
        <time>2025-02-20T14:39:13Z</time>
      </trkpt>
      <trkpt lat="45.62955" lon="6.52794">
        <ele>2119.6</ele>
        <time>2025-02-20T14:39:14Z</time>
      </trkpt>
      <trkpt lat="45.62955" lon="6.52794">
        <ele>2119.6</ele>
        <time>2025-02-20T14:39:15Z</time>
      </trkpt>
      <trkpt lat="45.62955" lon="6.52794">
        <ele>2119.6</ele>
        <time>2025-02-20T14:39:16Z</time>
      </trkpt>
      <trkpt lat="45.62956" lon="6.52794">
        <ele>2120.2</ele>
        <time>2025-02-20T14:39:17Z</time>
      </trkpt>
      <trkpt lat="45.62956" lon="6.52794">
        <ele>2120.2</ele>
        <time>2025-02-20T14:39:18Z</time>
      </trkpt>
      <trkpt lat="45.62956" lon="6.52794">
        <ele>2120.2</ele>
        <time>2025-02-20T14:39:19Z</time>
      </trkpt>
      <trkpt lat="45.62956" lon="6.52796">
        <ele>2120.2</ele>
        <time>2025-02-20T14:39:20Z</time>
      </trkpt>
      <trkpt lat="45.62957" lon="6.52796">
        <ele>2121</ele>
        <time>2025-02-20T14:39:21Z</time>
      </trkpt>
      <trkpt lat="45.62957" lon="6.52797">
        <ele>2121</ele>
        <time>2025-02-20T14:39:22Z</time>
      </trkpt>
      <trkpt lat="45.62958" lon="6.52797">
        <ele>2121</ele>
        <time>2025-02-20T14:39:23Z</time>
      </trkpt>
      <trkpt lat="45.62959" lon="6.52799">
        <ele>2120.2</ele>
        <time>2025-02-20T14:39:24Z</time>
      </trkpt>
      <trkpt lat="45.62959" lon="6.52799">
        <ele>2121</ele>
        <time>2025-02-20T14:39:25Z</time>
      </trkpt>
      <trkpt lat="45.62959" lon="6.52799">
        <ele>2121</ele>
        <time>2025-02-20T14:39:26Z</time>
      </trkpt>
      <trkpt lat="45.62959" lon="6.52799">
        <ele>2121</ele>
        <time>2025-02-20T14:39:27Z</time>
      </trkpt>
      <trkpt lat="45.6296" lon="6.52801">
        <ele>2121</ele>
        <time>2025-02-20T14:39:28Z</time>
      </trkpt>
      <trkpt lat="45.62959" lon="6.52802">
        <ele>2120.8</ele>
        <time>2025-02-20T14:39:29Z</time>
      </trkpt>
      <trkpt lat="45.62959" lon="6.52802">
        <ele>2120.8</ele>
        <time>2025-02-20T14:39:30Z</time>
      </trkpt>
      <trkpt lat="45.62959" lon="6.52802">
        <ele>2120.8</ele>
        <time>2025-02-20T14:39:31Z</time>
      </trkpt>
      <trkpt lat="45.6296" lon="6.52805">
        <ele>2121.6</ele>
        <time>2025-02-20T14:39:32Z</time>
      </trkpt>
      <trkpt lat="45.6296" lon="6.52805">
        <ele>2121.6</ele>
        <time>2025-02-20T14:39:33Z</time>
      </trkpt>
      <trkpt lat="45.62961" lon="6.52806">
        <ele>2121.6</ele>
        <time>2025-02-20T14:39:34Z</time>
      </trkpt>
      <trkpt lat="45.62961" lon="6.52806">
        <ele>2121.6</ele>
        <time>2025-02-20T14:39:35Z</time>
      </trkpt>
      <trkpt lat="45.62961" lon="6.52806">
        <ele>2121.6</ele>
        <time>2025-02-20T14:39:36Z</time>
      </trkpt>
      <trkpt lat="45.62961" lon="6.52806">
        <ele>2122.4</ele>
        <time>2025-02-20T14:39:37Z</time>
      </trkpt>
      <trkpt lat="45.62961" lon="6.52806">
        <ele>2122.4</ele>
        <time>2025-02-20T14:39:38Z</time>
      </trkpt>
      <trkpt lat="45.62962" lon="6.52809">
        <ele>2122.4</ele>
        <time>2025-02-20T14:39:39Z</time>
      </trkpt>
      <trkpt lat="45.62962" lon="6.52809">
        <ele>2123.4</ele>
        <time>2025-02-20T14:39:40Z</time>
      </trkpt>
      <trkpt lat="45.62962" lon="6.52809">
        <ele>2123.6</ele>
        <time>2025-02-20T14:39:41Z</time>
      </trkpt>
      <trkpt lat="45.62962" lon="6.52809">
        <ele>2123.6</ele>
        <time>2025-02-20T14:39:42Z</time>
      </trkpt>
      <trkpt lat="45.62964" lon="6.5281">
        <ele>2123.6</ele>
        <time>2025-02-20T14:39:43Z</time>
      </trkpt>
      <trkpt lat="45.62964" lon="6.52811">
        <ele>2123.6</ele>
        <time>2025-02-20T14:39:44Z</time>
      </trkpt>
      <trkpt lat="45.62965" lon="6.52811">
        <ele>2122.8</ele>
        <time>2025-02-20T14:39:45Z</time>
      </trkpt>
      <trkpt lat="45.62965" lon="6.52812">
        <ele>2122.8</ele>
        <time>2025-02-20T14:39:46Z</time>
      </trkpt>
      <trkpt lat="45.62965" lon="6.52812">
        <ele>2122.8</ele>
        <time>2025-02-20T14:39:47Z</time>
      </trkpt>
      <trkpt lat="45.62966" lon="6.52812">
        <ele>2122.8</ele>
        <time>2025-02-20T14:39:48Z</time>
      </trkpt>
      <trkpt lat="45.62967" lon="6.52813">
        <ele>2125</ele>
        <time>2025-02-20T14:39:49Z</time>
      </trkpt>
      <trkpt lat="45.62968" lon="6.52813">
        <ele>2125</ele>
        <time>2025-02-20T14:39:50Z</time>
      </trkpt>
      <trkpt lat="45.62969" lon="6.52813">
        <ele>2125</ele>
        <time>2025-02-20T14:39:51Z</time>
      </trkpt>
      <trkpt lat="45.62969" lon="6.52813">
        <ele>2125</ele>
        <time>2025-02-20T14:39:52Z</time>
      </trkpt>
      <trkpt lat="45.62969" lon="6.52813">
        <ele>2125.4</ele>
        <time>2025-02-20T14:39:53Z</time>
      </trkpt>
      <trkpt lat="45.62969" lon="6.52813">
        <ele>2125.4</ele>
        <time>2025-02-20T14:39:54Z</time>
      </trkpt>
      <trkpt lat="45.6297" lon="6.52814">
        <ele>2125.4</ele>
        <time>2025-02-20T14:39:55Z</time>
      </trkpt>
      <trkpt lat="45.6297" lon="6.52815">
        <ele>2125.4</ele>
        <time>2025-02-20T14:39:56Z</time>
      </trkpt>
      <trkpt lat="45.62971" lon="6.52815">
        <ele>2125.4</ele>
        <time>2025-02-20T14:39:57Z</time>
      </trkpt>
      <trkpt lat="45.62972" lon="6.52816">
        <ele>2125.4</ele>
        <time>2025-02-20T14:39:58Z</time>
      </trkpt>
      <trkpt lat="45.62972" lon="6.52816">
        <ele>2125.4</ele>
        <time>2025-02-20T14:39:59Z</time>
      </trkpt>
      <trkpt lat="45.62972" lon="6.52816">
        <ele>2125.4</ele>
        <time>2025-02-20T14:40:00Z</time>
      </trkpt>
      <trkpt lat="45.62972" lon="6.52816">
        <ele>2125.4</ele>
        <time>2025-02-20T14:40:01Z</time>
      </trkpt>
      <trkpt lat="45.62973" lon="6.52816">
        <ele>2125.4</ele>
        <time>2025-02-20T14:40:02Z</time>
      </trkpt>
      <trkpt lat="45.62973" lon="6.52816">
        <ele>2125.4</ele>
        <time>2025-02-20T14:40:03Z</time>
      </trkpt>
      <trkpt lat="45.62973" lon="6.52816">
        <ele>2126.4</ele>
        <time>2025-02-20T14:40:04Z</time>
      </trkpt>
      <trkpt lat="45.62973" lon="6.52816">
        <ele>2126.6</ele>
        <time>2025-02-20T14:40:05Z</time>
      </trkpt>
      <trkpt lat="45.62973" lon="6.52816">
        <ele>2126.6</ele>
        <time>2025-02-20T14:40:06Z</time>
      </trkpt>
      <trkpt lat="45.62975" lon="6.52818">
        <ele>2126.6</ele>
        <time>2025-02-20T14:40:07Z</time>
      </trkpt>
      <trkpt lat="45.62975" lon="6.52817">
        <ele>2127</ele>
        <time>2025-02-20T14:40:08Z</time>
      </trkpt>
      <trkpt lat="45.62976" lon="6.52818">
        <ele>2126.2</ele>
        <time>2025-02-20T14:40:09Z</time>
      </trkpt>
      <trkpt lat="45.62976" lon="6.52818">
        <ele>2126.2</ele>
        <time>2025-02-20T14:40:10Z</time>
      </trkpt>
      <trkpt lat="45.62976" lon="6.52818">
        <ele>2126.2</ele>
        <time>2025-02-20T14:40:11Z</time>
      </trkpt>
      <trkpt lat="45.62976" lon="6.52818">
        <ele>2127.2</ele>
        <time>2025-02-20T14:40:12Z</time>
      </trkpt>
      <trkpt lat="45.62977" lon="6.52818">
        <ele>2126.8</ele>
        <time>2025-02-20T14:40:13Z</time>
      </trkpt>
      <trkpt lat="45.62977" lon="6.52818">
        <ele>2126.8</ele>
        <time>2025-02-20T14:40:14Z</time>
      </trkpt>
      <trkpt lat="45.62978" lon="6.52819">
        <ele>2126.8</ele>
        <time>2025-02-20T14:40:15Z</time>
      </trkpt>
      <trkpt lat="45.62979" lon="6.52819">
        <ele>2127</ele>
        <time>2025-02-20T14:40:16Z</time>
      </trkpt>
      <trkpt lat="45.62979" lon="6.52819">
        <ele>2127</ele>
        <time>2025-02-20T14:40:17Z</time>
      </trkpt>
      <trkpt lat="45.62979" lon="6.52819">
        <ele>2127</ele>
        <time>2025-02-20T14:40:18Z</time>
      </trkpt>
      <trkpt lat="45.62979" lon="6.52819">
        <ele>2127</ele>
        <time>2025-02-20T14:40:19Z</time>
      </trkpt>
      <trkpt lat="45.62979" lon="6.52819">
        <ele>2127.2</ele>
        <time>2025-02-20T14:40:20Z</time>
      </trkpt>
      <trkpt lat="45.62981" lon="6.5282">
        <ele>2127.6</ele>
        <time>2025-02-20T14:40:21Z</time>
      </trkpt>
      <trkpt lat="45.62982" lon="6.52819">
        <ele>2127.6</ele>
        <time>2025-02-20T14:40:22Z</time>
      </trkpt>
      <trkpt lat="45.62983" lon="6.52819">
        <ele>2127.6</ele>
        <time>2025-02-20T14:40:23Z</time>
      </trkpt>
      <trkpt lat="45.62983" lon="6.52819">
        <ele>2128.6</ele>
        <time>2025-02-20T14:40:24Z</time>
      </trkpt>
      <trkpt lat="45.62983" lon="6.5282">
        <ele>2128.4</ele>
        <time>2025-02-20T14:40:25Z</time>
      </trkpt>
      <trkpt lat="45.62983" lon="6.52819">
        <ele>2128.4</ele>
        <time>2025-02-20T14:40:26Z</time>
      </trkpt>
      <trkpt lat="45.62984" lon="6.5282">
        <ele>2128.4</ele>
        <time>2025-02-20T14:40:27Z</time>
      </trkpt>
      <trkpt lat="45.62984" lon="6.5282">
        <ele>2129.2</ele>
        <time>2025-02-20T14:40:28Z</time>
      </trkpt>
      <trkpt lat="45.62984" lon="6.5282">
        <ele>2129</ele>
        <time>2025-02-20T14:40:29Z</time>
      </trkpt>
      <trkpt lat="45.62985" lon="6.5282">
        <ele>2129</ele>
        <time>2025-02-20T14:40:30Z</time>
      </trkpt>
      <trkpt lat="45.62986" lon="6.5282">
        <ele>2129</ele>
        <time>2025-02-20T14:40:31Z</time>
      </trkpt>
      <trkpt lat="45.62986" lon="6.5282">
        <ele>2129</ele>
        <time>2025-02-20T14:40:32Z</time>
      </trkpt>
      <trkpt lat="45.62987" lon="6.5282">
        <ele>2128.6</ele>
        <time>2025-02-20T14:40:33Z</time>
      </trkpt>
      <trkpt lat="45.62988" lon="6.5282">
        <ele>2128.6</ele>
        <time>2025-02-20T14:40:34Z</time>
      </trkpt>
      <trkpt lat="45.62988" lon="6.5282">
        <ele>2128.6</ele>
        <time>2025-02-20T14:40:35Z</time>
      </trkpt>
      <trkpt lat="45.62989" lon="6.52821">
        <ele>2129.6</ele>
        <time>2025-02-20T14:40:36Z</time>
      </trkpt>
      <trkpt lat="45.62989" lon="6.52821">
        <ele>2129.2</ele>
        <time>2025-02-20T14:40:37Z</time>
      </trkpt>
      <trkpt lat="45.6299" lon="6.52821">
        <ele>2129.2</ele>
        <time>2025-02-20T14:40:38Z</time>
      </trkpt>
      <trkpt lat="45.6299" lon="6.52822">
        <ele>2129.2</ele>
        <time>2025-02-20T14:40:39Z</time>
      </trkpt>
      <trkpt lat="45.62991" lon="6.52822">
        <ele>2129.2</ele>
        <time>2025-02-20T14:40:40Z</time>
      </trkpt>
      <trkpt lat="45.62991" lon="6.52822">
        <ele>2129.4</ele>
        <time>2025-02-20T14:40:41Z</time>
      </trkpt>
      <trkpt lat="45.62991" lon="6.52822">
        <ele>2129.4</ele>
        <time>2025-02-20T14:40:42Z</time>
      </trkpt>
      <trkpt lat="45.62992" lon="6.52823">
        <ele>2129.4</ele>
        <time>2025-02-20T14:40:43Z</time>
      </trkpt>
      <trkpt lat="45.62993" lon="6.52823">
        <ele>2130.4</ele>
        <time>2025-02-20T14:40:44Z</time>
      </trkpt>
      <trkpt lat="45.62993" lon="6.52823">
        <ele>2129.8</ele>
        <time>2025-02-20T14:40:45Z</time>
      </trkpt>
      <trkpt lat="45.62994" lon="6.52823">
        <ele>2129.8</ele>
        <time>2025-02-20T14:40:46Z</time>
      </trkpt>
      <trkpt lat="45.62994" lon="6.52823">
        <ele>2129.8</ele>
        <time>2025-02-20T14:40:47Z</time>
      </trkpt>
      <trkpt lat="45.62995" lon="6.52823">
        <ele>2130.6</ele>
        <time>2025-02-20T14:40:48Z</time>
      </trkpt>
      <trkpt lat="45.62995" lon="6.52823">
        <ele>2131</ele>
        <time>2025-02-20T14:40:49Z</time>
      </trkpt>
      <trkpt lat="45.62996" lon="6.52823">
        <ele>2131</ele>
        <time>2025-02-20T14:40:50Z</time>
      </trkpt>
      <trkpt lat="45.62996" lon="6.52823">
        <ele>2131</ele>
        <time>2025-02-20T14:40:51Z</time>
      </trkpt>
      <trkpt lat="45.62996" lon="6.52823">
        <ele>2131.6</ele>
        <time>2025-02-20T14:40:52Z</time>
      </trkpt>
      <trkpt lat="45.62997" lon="6.52825">
        <ele>2130.8</ele>
        <time>2025-02-20T14:40:53Z</time>
      </trkpt>
      <trkpt lat="45.62997" lon="6.52825">
        <ele>2130.8</ele>
        <time>2025-02-20T14:40:54Z</time>
      </trkpt>
      <trkpt lat="45.62997" lon="6.52825">
        <ele>2130.8</ele>
        <time>2025-02-20T14:40:55Z</time>
      </trkpt>
      <trkpt lat="45.62997" lon="6.52825">
        <ele>2130.8</ele>
        <time>2025-02-20T14:40:56Z</time>
      </trkpt>
      <trkpt lat="45.62997" lon="6.52825">
        <ele>2131.6</ele>
        <time>2025-02-20T14:40:57Z</time>
      </trkpt>
      <trkpt lat="45.62997" lon="6.52825">
        <ele>2131.6</ele>
        <time>2025-02-20T14:40:58Z</time>
      </trkpt>
      <trkpt lat="45.62997" lon="6.52825">
        <ele>2131.6</ele>
        <time>2025-02-20T14:40:59Z</time>
      </trkpt>
      <trkpt lat="45.62997" lon="6.52825">
        <ele>2131.6</ele>
        <time>2025-02-20T14:41:00Z</time>
      </trkpt>
      <trkpt lat="45.62997" lon="6.52825">
        <ele>2132.8</ele>
        <time>2025-02-20T14:41:01Z</time>
      </trkpt>
      <trkpt lat="45.62999" lon="6.52827">
        <ele>2132.8</ele>
        <time>2025-02-20T14:41:02Z</time>
      </trkpt>
      <trkpt lat="45.63" lon="6.52828">
        <ele>2132.8</ele>
        <time>2025-02-20T14:41:03Z</time>
      </trkpt>
      <trkpt lat="45.63" lon="6.52828">
        <ele>2132.4</ele>
        <time>2025-02-20T14:41:04Z</time>
      </trkpt>
      <trkpt lat="45.63" lon="6.52828">
        <ele>2131.8</ele>
        <time>2025-02-20T14:41:05Z</time>
      </trkpt>
      <trkpt lat="45.63" lon="6.52828">
        <ele>2131.8</ele>
        <time>2025-02-20T14:41:06Z</time>
      </trkpt>
      <trkpt lat="45.63" lon="6.52828">
        <ele>2131.8</ele>
        <time>2025-02-20T14:41:07Z</time>
      </trkpt>
      <trkpt lat="45.63" lon="6.52828">
        <ele>2132.8</ele>
        <time>2025-02-20T14:41:08Z</time>
      </trkpt>
      <trkpt lat="45.63" lon="6.52828">
        <ele>2133</ele>
        <time>2025-02-20T14:41:09Z</time>
      </trkpt>
      <trkpt lat="45.63" lon="6.52828">
        <ele>2133</ele>
        <time>2025-02-20T14:41:10Z</time>
      </trkpt>
      <trkpt lat="45.63001" lon="6.52832">
        <ele>2133</ele>
        <time>2025-02-20T14:41:11Z</time>
      </trkpt>
      <trkpt lat="45.63001" lon="6.52832">
        <ele>2133</ele>
        <time>2025-02-20T14:41:12Z</time>
      </trkpt>
      <trkpt lat="45.63001" lon="6.52832">
        <ele>2133.6</ele>
        <time>2025-02-20T14:41:13Z</time>
      </trkpt>
      <trkpt lat="45.63001" lon="6.52832">
        <ele>2133.6</ele>
        <time>2025-02-20T14:41:14Z</time>
      </trkpt>
      <trkpt lat="45.63001" lon="6.52834">
        <ele>2133.6</ele>
        <time>2025-02-20T14:41:15Z</time>
      </trkpt>
      <trkpt lat="45.63" lon="6.52835">
        <ele>2133.6</ele>
        <time>2025-02-20T14:41:16Z</time>
      </trkpt>
      <trkpt lat="45.63" lon="6.52836">
        <ele>2134.8</ele>
        <time>2025-02-20T14:41:17Z</time>
      </trkpt>
      <trkpt lat="45.63001" lon="6.52837">
        <ele>2134.8</ele>
        <time>2025-02-20T14:41:18Z</time>
      </trkpt>
      <trkpt lat="45.63" lon="6.52837">
        <ele>2134.8</ele>
        <time>2025-02-20T14:41:19Z</time>
      </trkpt>
      <trkpt lat="45.63" lon="6.52837">
        <ele>2134.8</ele>
        <time>2025-02-20T14:41:20Z</time>
      </trkpt>
      <trkpt lat="45.63" lon="6.52837">
        <ele>2135.2</ele>
        <time>2025-02-20T14:41:21Z</time>
      </trkpt>
      <trkpt lat="45.63" lon="6.52839">
        <ele>2135.2</ele>
        <time>2025-02-20T14:41:22Z</time>
      </trkpt>
      <trkpt lat="45.63" lon="6.5284">
        <ele>2135.2</ele>
        <time>2025-02-20T14:41:23Z</time>
      </trkpt>
      <trkpt lat="45.63" lon="6.52841">
        <ele>2134.2</ele>
        <time>2025-02-20T14:41:24Z</time>
      </trkpt>
      <trkpt lat="45.62999" lon="6.52841">
        <ele>2134.6</ele>
        <time>2025-02-20T14:41:25Z</time>
      </trkpt>
      <trkpt lat="45.62999" lon="6.52841">
        <ele>2134.6</ele>
        <time>2025-02-20T14:41:26Z</time>
      </trkpt>
      <trkpt lat="45.62999" lon="6.52841">
        <ele>2134.6</ele>
        <time>2025-02-20T14:41:27Z</time>
      </trkpt>
      <trkpt lat="45.62999" lon="6.52841">
        <ele>2135.6</ele>
        <time>2025-02-20T14:41:28Z</time>
      </trkpt>
      <trkpt lat="45.63" lon="6.52844">
        <ele>2135.8</ele>
        <time>2025-02-20T14:41:29Z</time>
      </trkpt>
      <trkpt lat="45.63" lon="6.52844">
        <ele>2135.8</ele>
        <time>2025-02-20T14:41:30Z</time>
      </trkpt>
      <trkpt lat="45.63" lon="6.52844">
        <ele>2135.8</ele>
        <time>2025-02-20T14:41:31Z</time>
      </trkpt>
      <trkpt lat="45.63" lon="6.52844">
        <ele>2136.6</ele>
        <time>2025-02-20T14:41:32Z</time>
      </trkpt>
      <trkpt lat="45.63001" lon="6.52844">
        <ele>2135.8</ele>
        <time>2025-02-20T14:41:33Z</time>
      </trkpt>
      <trkpt lat="45.63002" lon="6.52844">
        <ele>2135.8</ele>
        <time>2025-02-20T14:41:34Z</time>
      </trkpt>
      <trkpt lat="45.63002" lon="6.52844">
        <ele>2135.8</ele>
        <time>2025-02-20T14:41:35Z</time>
      </trkpt>
      <trkpt lat="45.63003" lon="6.52844">
        <ele>2135.8</ele>
        <time>2025-02-20T14:41:36Z</time>
      </trkpt>
      <trkpt lat="45.63004" lon="6.52844">
        <ele>2136.6</ele>
        <time>2025-02-20T14:41:37Z</time>
      </trkpt>
      <trkpt lat="45.63003" lon="6.52844">
        <ele>2136.6</ele>
        <time>2025-02-20T14:41:38Z</time>
      </trkpt>
      <trkpt lat="45.63004" lon="6.52844">
        <ele>2136.6</ele>
        <time>2025-02-20T14:41:39Z</time>
      </trkpt>
      <trkpt lat="45.63005" lon="6.52843">
        <ele>2136.6</ele>
        <time>2025-02-20T14:41:40Z</time>
      </trkpt>
      <trkpt lat="45.63005" lon="6.52843">
        <ele>2137.4</ele>
        <time>2025-02-20T14:41:41Z</time>
      </trkpt>
      <trkpt lat="45.63005" lon="6.52843">
        <ele>2137.4</ele>
        <time>2025-02-20T14:41:42Z</time>
      </trkpt>
      <trkpt lat="45.63006" lon="6.52843">
        <ele>2137.4</ele>
        <time>2025-02-20T14:41:43Z</time>
      </trkpt>
      <trkpt lat="45.63007" lon="6.52842">
        <ele>2137.4</ele>
        <time>2025-02-20T14:41:44Z</time>
      </trkpt>
      <trkpt lat="45.63007" lon="6.52842">
        <ele>2138.4</ele>
        <time>2025-02-20T14:41:45Z</time>
      </trkpt>
      <trkpt lat="45.63008" lon="6.52842">
        <ele>2138.4</ele>
        <time>2025-02-20T14:41:46Z</time>
      </trkpt>
      <trkpt lat="45.63008" lon="6.52842">
        <ele>2138.4</ele>
        <time>2025-02-20T14:41:47Z</time>
      </trkpt>
      <trkpt lat="45.63008" lon="6.52842">
        <ele>2137.8</ele>
        <time>2025-02-20T14:41:48Z</time>
      </trkpt>
      <trkpt lat="45.63008" lon="6.52842">
        <ele>2139</ele>
        <time>2025-02-20T14:41:49Z</time>
      </trkpt>
      <trkpt lat="45.63008" lon="6.52842">
        <ele>2139</ele>
        <time>2025-02-20T14:41:50Z</time>
      </trkpt>
      <trkpt lat="45.63008" lon="6.52842">
        <ele>2139</ele>
        <time>2025-02-20T14:41:51Z</time>
      </trkpt>
      <trkpt lat="45.63008" lon="6.52842">
        <ele>2138.4</ele>
        <time>2025-02-20T14:41:52Z</time>
      </trkpt>
      <trkpt lat="45.63008" lon="6.52842">
        <ele>2138</ele>
        <time>2025-02-20T14:41:53Z</time>
      </trkpt>
      <trkpt lat="45.63008" lon="6.52842">
        <ele>2138</ele>
        <time>2025-02-20T14:41:54Z</time>
      </trkpt>
      <trkpt lat="45.63008" lon="6.52842">
        <ele>2138</ele>
        <time>2025-02-20T14:41:55Z</time>
      </trkpt>
      <trkpt lat="45.63012" lon="6.52842">
        <ele>2138</ele>
        <time>2025-02-20T14:41:56Z</time>
      </trkpt>
      <trkpt lat="45.63012" lon="6.52842">
        <ele>2138.6</ele>
        <time>2025-02-20T14:41:57Z</time>
      </trkpt>
      <trkpt lat="45.63013" lon="6.52841">
        <ele>2138.6</ele>
        <time>2025-02-20T14:41:58Z</time>
      </trkpt>
      <trkpt lat="45.63013" lon="6.52841">
        <ele>2138.6</ele>
        <time>2025-02-20T14:41:59Z</time>
      </trkpt>
      <trkpt lat="45.63014" lon="6.52841">
        <ele>2138.6</ele>
        <time>2025-02-20T14:42:00Z</time>
      </trkpt>
      <trkpt lat="45.63014" lon="6.52841">
        <ele>2137.8</ele>
        <time>2025-02-20T14:42:01Z</time>
      </trkpt>
      <trkpt lat="45.63014" lon="6.52841">
        <ele>2137.8</ele>
        <time>2025-02-20T14:42:02Z</time>
      </trkpt>
      <trkpt lat="45.63014" lon="6.52841">
        <ele>2137.8</ele>
        <time>2025-02-20T14:42:03Z</time>
      </trkpt>
      <trkpt lat="45.63014" lon="6.52841">
        <ele>2138.8</ele>
        <time>2025-02-20T14:42:04Z</time>
      </trkpt>
      <trkpt lat="45.63014" lon="6.52841">
        <ele>2138.8</ele>
        <time>2025-02-20T14:42:05Z</time>
      </trkpt>
      <trkpt lat="45.63016" lon="6.5284">
        <ele>2138.8</ele>
        <time>2025-02-20T14:42:06Z</time>
      </trkpt>
      <trkpt lat="45.63016" lon="6.5284">
        <ele>2138.8</ele>
        <time>2025-02-20T14:42:07Z</time>
      </trkpt>
      <trkpt lat="45.63016" lon="6.5284">
        <ele>2139.8</ele>
        <time>2025-02-20T14:42:08Z</time>
      </trkpt>
      <trkpt lat="45.63016" lon="6.52839">
        <ele>2139.2</ele>
        <time>2025-02-20T14:42:09Z</time>
      </trkpt>
      <trkpt lat="45.63016" lon="6.52839">
        <ele>2139.2</ele>
        <time>2025-02-20T14:42:10Z</time>
      </trkpt>
      <trkpt lat="45.63017" lon="6.52839">
        <ele>2139.2</ele>
        <time>2025-02-20T14:42:11Z</time>
      </trkpt>
      <trkpt lat="45.63017" lon="6.52839">
        <ele>2139.4</ele>
        <time>2025-02-20T14:42:12Z</time>
      </trkpt>
      <trkpt lat="45.63017" lon="6.52839">
        <ele>2140.8</ele>
        <time>2025-02-20T14:42:13Z</time>
      </trkpt>
      <trkpt lat="45.63017" lon="6.52839">
        <ele>2140.8</ele>
        <time>2025-02-20T14:42:14Z</time>
      </trkpt>
      <trkpt lat="45.63017" lon="6.52839">
        <ele>2140.8</ele>
        <time>2025-02-20T14:42:15Z</time>
      </trkpt>
      <trkpt lat="45.63017" lon="6.52839">
        <ele>2140.8</ele>
        <time>2025-02-20T14:42:16Z</time>
      </trkpt>
      <trkpt lat="45.63017" lon="6.52839">
        <ele>2140.4</ele>
        <time>2025-02-20T14:42:17Z</time>
      </trkpt>
      <trkpt lat="45.6302" lon="6.52838">
        <ele>2140.4</ele>
        <time>2025-02-20T14:42:18Z</time>
      </trkpt>
      <trkpt lat="45.6302" lon="6.52838">
        <ele>2140.4</ele>
        <time>2025-02-20T14:42:19Z</time>
      </trkpt>
      <trkpt lat="45.6302" lon="6.52836">
        <ele>2140.4</ele>
        <time>2025-02-20T14:42:20Z</time>
      </trkpt>
      <trkpt lat="45.6302" lon="6.52836">
        <ele>2141.6</ele>
        <time>2025-02-20T14:42:21Z</time>
      </trkpt>
      <trkpt lat="45.6302" lon="6.52836">
        <ele>2141.6</ele>
        <time>2025-02-20T14:42:22Z</time>
      </trkpt>
      <trkpt lat="45.63021" lon="6.52836">
        <ele>2141.6</ele>
        <time>2025-02-20T14:42:23Z</time>
      </trkpt>
      <trkpt lat="45.63021" lon="6.52836">
        <ele>2141.6</ele>
        <time>2025-02-20T14:42:24Z</time>
      </trkpt>
      <trkpt lat="45.63021" lon="6.52836">
        <ele>2142</ele>
        <time>2025-02-20T14:42:25Z</time>
      </trkpt>
      <trkpt lat="45.63021" lon="6.52836">
        <ele>2142</ele>
        <time>2025-02-20T14:42:26Z</time>
      </trkpt>
      <trkpt lat="45.63021" lon="6.52836">
        <ele>2142</ele>
        <time>2025-02-20T14:42:27Z</time>
      </trkpt>
      <trkpt lat="45.63023" lon="6.52837">
        <ele>2142</ele>
        <time>2025-02-20T14:42:28Z</time>
      </trkpt>
      <trkpt lat="45.63023" lon="6.52838">
        <ele>2142.8</ele>
        <time>2025-02-20T14:42:29Z</time>
      </trkpt>
      <trkpt lat="45.63024" lon="6.52839">
        <ele>2142.8</ele>
        <time>2025-02-20T14:42:30Z</time>
      </trkpt>
      <trkpt lat="45.63024" lon="6.52839">
        <ele>2142.8</ele>
        <time>2025-02-20T14:42:31Z</time>
      </trkpt>
      <trkpt lat="45.63024" lon="6.52839">
        <ele>2142.6</ele>
        <time>2025-02-20T14:42:32Z</time>
      </trkpt>
      <trkpt lat="45.63024" lon="6.52839">
        <ele>2141.8</ele>
        <time>2025-02-20T14:42:33Z</time>
      </trkpt>
      <trkpt lat="45.63024" lon="6.52839">
        <ele>2141.8</ele>
        <time>2025-02-20T14:42:34Z</time>
      </trkpt>
      <trkpt lat="45.63024" lon="6.52839">
        <ele>2141.8</ele>
        <time>2025-02-20T14:42:35Z</time>
      </trkpt>
      <trkpt lat="45.63024" lon="6.52839">
        <ele>2142.8</ele>
        <time>2025-02-20T14:42:36Z</time>
      </trkpt>
      <trkpt lat="45.63027" lon="6.52841">
        <ele>2143.6</ele>
        <time>2025-02-20T14:42:37Z</time>
      </trkpt>
      <trkpt lat="45.63026" lon="6.52842">
        <ele>2143.6</ele>
        <time>2025-02-20T14:42:38Z</time>
      </trkpt>
      <trkpt lat="45.63027" lon="6.52842">
        <ele>2143.6</ele>
        <time>2025-02-20T14:42:39Z</time>
      </trkpt>
      <trkpt lat="45.63027" lon="6.52842">
        <ele>2143.8</ele>
        <time>2025-02-20T14:42:40Z</time>
      </trkpt>
      <trkpt lat="45.63028" lon="6.52843">
        <ele>2143.6</ele>
        <time>2025-02-20T14:42:41Z</time>
      </trkpt>
      <trkpt lat="45.63028" lon="6.52844">
        <ele>2143.6</ele>
        <time>2025-02-20T14:42:42Z</time>
      </trkpt>
      <trkpt lat="45.63028" lon="6.52845">
        <ele>2143.6</ele>
        <time>2025-02-20T14:42:43Z</time>
      </trkpt>
      <trkpt lat="45.63028" lon="6.52845">
        <ele>2143.6</ele>
        <time>2025-02-20T14:42:44Z</time>
      </trkpt>
      <trkpt lat="45.63028" lon="6.52846">
        <ele>2144.6</ele>
        <time>2025-02-20T14:42:45Z</time>
      </trkpt>
      <trkpt lat="45.63028" lon="6.52846">
        <ele>2144.6</ele>
        <time>2025-02-20T14:42:46Z</time>
      </trkpt>
      <trkpt lat="45.63028" lon="6.52846">
        <ele>2144.6</ele>
        <time>2025-02-20T14:42:47Z</time>
      </trkpt>
      <trkpt lat="45.6303" lon="6.52847">
        <ele>2144.6</ele>
        <time>2025-02-20T14:42:48Z</time>
      </trkpt>
      <trkpt lat="45.6303" lon="6.52846">
        <ele>2145.2</ele>
        <time>2025-02-20T14:42:49Z</time>
      </trkpt>
      <trkpt lat="45.6303" lon="6.52846">
        <ele>2145.2</ele>
        <time>2025-02-20T14:42:50Z</time>
      </trkpt>
      <trkpt lat="45.6303" lon="6.52846">
        <ele>2145.2</ele>
        <time>2025-02-20T14:42:51Z</time>
      </trkpt>
      <trkpt lat="45.6303" lon="6.52846">
        <ele>2145.2</ele>
        <time>2025-02-20T14:42:52Z</time>
      </trkpt>
      <trkpt lat="45.6303" lon="6.52846">
        <ele>2144.6</ele>
        <time>2025-02-20T14:42:53Z</time>
      </trkpt>
      <trkpt lat="45.63032" lon="6.52847">
        <ele>2144.6</ele>
        <time>2025-02-20T14:42:54Z</time>
      </trkpt>
      <trkpt lat="45.63033" lon="6.52847">
        <ele>2144.6</ele>
        <time>2025-02-20T14:42:55Z</time>
      </trkpt>
      <trkpt lat="45.63033" lon="6.52847">
        <ele>2145.6</ele>
        <time>2025-02-20T14:42:56Z</time>
      </trkpt>
      <trkpt lat="45.63033" lon="6.52847">
        <ele>2145.6</ele>
        <time>2025-02-20T14:42:57Z</time>
      </trkpt>
      <trkpt lat="45.63034" lon="6.52847">
        <ele>2145.6</ele>
        <time>2025-02-20T14:42:58Z</time>
      </trkpt>
      <trkpt lat="45.63034" lon="6.52847">
        <ele>2145.6</ele>
        <time>2025-02-20T14:42:59Z</time>
      </trkpt>
      <trkpt lat="45.63034" lon="6.52847">
        <ele>2146.6</ele>
        <time>2025-02-20T14:43:00Z</time>
      </trkpt>
      <trkpt lat="45.63036" lon="6.52847">
        <ele>2146.6</ele>
        <time>2025-02-20T14:43:01Z</time>
      </trkpt>
      <trkpt lat="45.63036" lon="6.52847">
        <ele>2146.6</ele>
        <time>2025-02-20T14:43:02Z</time>
      </trkpt>
      <trkpt lat="45.63037" lon="6.52846">
        <ele>2146.6</ele>
        <time>2025-02-20T14:43:03Z</time>
      </trkpt>
      <trkpt lat="45.63037" lon="6.52846">
        <ele>2146.6</ele>
        <time>2025-02-20T14:43:04Z</time>
      </trkpt>
      <trkpt lat="45.63038" lon="6.52846">
        <ele>2146.2</ele>
        <time>2025-02-20T14:43:05Z</time>
      </trkpt>
      <trkpt lat="45.63038" lon="6.52845">
        <ele>2146.2</ele>
        <time>2025-02-20T14:43:06Z</time>
      </trkpt>
      <trkpt lat="45.63039" lon="6.52845">
        <ele>2146.2</ele>
        <time>2025-02-20T14:43:07Z</time>
      </trkpt>
      <trkpt lat="45.63039" lon="6.52845">
        <ele>2146.2</ele>
        <time>2025-02-20T14:43:08Z</time>
      </trkpt>
      <trkpt lat="45.63039" lon="6.52845">
        <ele>2147.6</ele>
        <time>2025-02-20T14:43:09Z</time>
      </trkpt>
      <trkpt lat="45.63039" lon="6.52843">
        <ele>2147.6</ele>
        <time>2025-02-20T14:43:10Z</time>
      </trkpt>
      <trkpt lat="45.63039" lon="6.52843">
        <ele>2147.6</ele>
        <time>2025-02-20T14:43:11Z</time>
      </trkpt>
      <trkpt lat="45.6304" lon="6.52842">
        <ele>2147.6</ele>
        <time>2025-02-20T14:43:12Z</time>
      </trkpt>
      <trkpt lat="45.6304" lon="6.52842">
        <ele>2147.8</ele>
        <time>2025-02-20T14:43:13Z</time>
      </trkpt>
      <trkpt lat="45.6304" lon="6.52841">
        <ele>2147.8</ele>
        <time>2025-02-20T14:43:14Z</time>
      </trkpt>
      <trkpt lat="45.6304" lon="6.5284">
        <ele>2147.8</ele>
        <time>2025-02-20T14:43:15Z</time>
      </trkpt>
      <trkpt lat="45.63041" lon="6.5284">
        <ele>2147.8</ele>
        <time>2025-02-20T14:43:16Z</time>
      </trkpt>
      <trkpt lat="45.63041" lon="6.52839">
        <ele>2147.4</ele>
        <time>2025-02-20T14:43:17Z</time>
      </trkpt>
      <trkpt lat="45.63041" lon="6.52839">
        <ele>2147.4</ele>
        <time>2025-02-20T14:43:18Z</time>
      </trkpt>
      <trkpt lat="45.63041" lon="6.52838">
        <ele>2147.4</ele>
        <time>2025-02-20T14:43:19Z</time>
      </trkpt>
      <trkpt lat="45.63041" lon="6.52838">
        <ele>2148.4</ele>
        <time>2025-02-20T14:43:20Z</time>
      </trkpt>
      <trkpt lat="45.63041" lon="6.52838">
        <ele>2148.4</ele>
        <time>2025-02-20T14:43:21Z</time>
      </trkpt>
      <trkpt lat="45.63041" lon="6.52838">
        <ele>2148.4</ele>
        <time>2025-02-20T14:43:22Z</time>
      </trkpt>
      <trkpt lat="45.63041" lon="6.52838">
        <ele>2148.4</ele>
        <time>2025-02-20T14:43:23Z</time>
      </trkpt>
      <trkpt lat="45.63041" lon="6.52838">
        <ele>2149.2</ele>
        <time>2025-02-20T14:43:24Z</time>
      </trkpt>
      <trkpt lat="45.63042" lon="6.52835">
        <ele>2148.2</ele>
        <time>2025-02-20T14:43:25Z</time>
      </trkpt>
      <trkpt lat="45.63042" lon="6.52835">
        <ele>2148.2</ele>
        <time>2025-02-20T14:43:26Z</time>
      </trkpt>
      <trkpt lat="45.63042" lon="6.52835">
        <ele>2148.2</ele>
        <time>2025-02-20T14:43:27Z</time>
      </trkpt>
      <trkpt lat="45.63042" lon="6.52835">
        <ele>2148.2</ele>
        <time>2025-02-20T14:43:28Z</time>
      </trkpt>
      <trkpt lat="45.63042" lon="6.52833">
        <ele>2149.6</ele>
        <time>2025-02-20T14:43:29Z</time>
      </trkpt>
      <trkpt lat="45.63043" lon="6.52832">
        <ele>2149.6</ele>
        <time>2025-02-20T14:43:30Z</time>
      </trkpt>
      <trkpt lat="45.63043" lon="6.52832">
        <ele>2149.6</ele>
        <time>2025-02-20T14:43:31Z</time>
      </trkpt>
      <trkpt lat="45.63043" lon="6.52832">
        <ele>2149.6</ele>
        <time>2025-02-20T14:43:32Z</time>
      </trkpt>
      <trkpt lat="45.63043" lon="6.52832">
        <ele>2150.8</ele>
        <time>2025-02-20T14:43:33Z</time>
      </trkpt>
      <trkpt lat="45.63045" lon="6.52831">
        <ele>2150.8</ele>
        <time>2025-02-20T14:43:34Z</time>
      </trkpt>
      <trkpt lat="45.63045" lon="6.52832">
        <ele>2150.8</ele>
        <time>2025-02-20T14:43:35Z</time>
      </trkpt>
      <trkpt lat="45.63046" lon="6.52832">
        <ele>2150.8</ele>
        <time>2025-02-20T14:43:36Z</time>
      </trkpt>
      <trkpt lat="45.63046" lon="6.52832">
        <ele>2150.2</ele>
        <time>2025-02-20T14:43:37Z</time>
      </trkpt>
      <trkpt lat="45.63046" lon="6.52832">
        <ele>2150.2</ele>
        <time>2025-02-20T14:43:38Z</time>
      </trkpt>
      <trkpt lat="45.63046" lon="6.52832">
        <ele>2150.2</ele>
        <time>2025-02-20T14:43:39Z</time>
      </trkpt>
      <trkpt lat="45.63046" lon="6.52832">
        <ele>2150.2</ele>
        <time>2025-02-20T14:43:40Z</time>
      </trkpt>
      <trkpt lat="45.63048" lon="6.52833">
        <ele>2150.4</ele>
        <time>2025-02-20T14:43:41Z</time>
      </trkpt>
      <trkpt lat="45.63049" lon="6.52833">
        <ele>2150.4</ele>
        <time>2025-02-20T14:43:42Z</time>
      </trkpt>
      <trkpt lat="45.63049" lon="6.52833">
        <ele>2150.4</ele>
        <time>2025-02-20T14:43:43Z</time>
      </trkpt>
      <trkpt lat="45.63049" lon="6.52833">
        <ele>2150.4</ele>
        <time>2025-02-20T14:43:44Z</time>
      </trkpt>
      <trkpt lat="45.6305" lon="6.52835">
        <ele>2151.8</ele>
        <time>2025-02-20T14:43:45Z</time>
      </trkpt>
      <trkpt lat="45.63051" lon="6.52835">
        <ele>2151.8</ele>
        <time>2025-02-20T14:43:46Z</time>
      </trkpt>
      <trkpt lat="45.63051" lon="6.52836">
        <ele>2151.8</ele>
        <time>2025-02-20T14:43:47Z</time>
      </trkpt>
      <trkpt lat="45.63051" lon="6.52837">
        <ele>2151.8</ele>
        <time>2025-02-20T14:43:48Z</time>
      </trkpt>
      <trkpt lat="45.63051" lon="6.52837">
        <ele>2152.2</ele>
        <time>2025-02-20T14:43:49Z</time>
      </trkpt>
      <trkpt lat="45.63051" lon="6.52837">
        <ele>2152.2</ele>
        <time>2025-02-20T14:43:50Z</time>
      </trkpt>
      <trkpt lat="45.63051" lon="6.52837">
        <ele>2152.2</ele>
        <time>2025-02-20T14:43:51Z</time>
      </trkpt>
      <trkpt lat="45.63051" lon="6.5284">
        <ele>2152.2</ele>
        <time>2025-02-20T14:43:52Z</time>
      </trkpt>
      <trkpt lat="45.63052" lon="6.5284">
        <ele>2151.6</ele>
        <time>2025-02-20T14:43:53Z</time>
      </trkpt>
      <trkpt lat="45.63052" lon="6.5284">
        <ele>2151.6</ele>
        <time>2025-02-20T14:43:54Z</time>
      </trkpt>
      <trkpt lat="45.63052" lon="6.52841">
        <ele>2151.6</ele>
        <time>2025-02-20T14:43:55Z</time>
      </trkpt>
      <trkpt lat="45.63052" lon="6.52842">
        <ele>2152.6</ele>
        <time>2025-02-20T14:43:56Z</time>
      </trkpt>
      <trkpt lat="45.63053" lon="6.52842">
        <ele>2151.8</ele>
        <time>2025-02-20T14:43:57Z</time>
      </trkpt>
      <trkpt lat="45.63053" lon="6.52842">
        <ele>2151.8</ele>
        <time>2025-02-20T14:43:58Z</time>
      </trkpt>
      <trkpt lat="45.63053" lon="6.52842">
        <ele>2151.8</ele>
        <time>2025-02-20T14:43:59Z</time>
      </trkpt>
      <trkpt lat="45.63053" lon="6.52844">
        <ele>2152.8</ele>
        <time>2025-02-20T14:44:00Z</time>
      </trkpt>
      <trkpt lat="45.63053" lon="6.52845">
        <ele>2153.4</ele>
        <time>2025-02-20T14:44:01Z</time>
      </trkpt>
      <trkpt lat="45.63054" lon="6.52846">
        <ele>2153.4</ele>
        <time>2025-02-20T14:44:02Z</time>
      </trkpt>
      <trkpt lat="45.63054" lon="6.52847">
        <ele>2153.4</ele>
        <time>2025-02-20T14:44:03Z</time>
      </trkpt>
      <trkpt lat="45.63054" lon="6.52847">
        <ele>2154</ele>
        <time>2025-02-20T14:44:04Z</time>
      </trkpt>
      <trkpt lat="45.63054" lon="6.52849">
        <ele>2154</ele>
        <time>2025-02-20T14:44:05Z</time>
      </trkpt>
      <trkpt lat="45.63055" lon="6.52849">
        <ele>2154</ele>
        <time>2025-02-20T14:44:06Z</time>
      </trkpt>
      <trkpt lat="45.63055" lon="6.5285">
        <ele>2154</ele>
        <time>2025-02-20T14:44:07Z</time>
      </trkpt>
      <trkpt lat="45.63055" lon="6.52851">
        <ele>2154</ele>
        <time>2025-02-20T14:44:08Z</time>
      </trkpt>
      <trkpt lat="45.63056" lon="6.52852">
        <ele>2154</ele>
        <time>2025-02-20T14:44:09Z</time>
      </trkpt>
      <trkpt lat="45.63055" lon="6.52852">
        <ele>2154</ele>
        <time>2025-02-20T14:44:10Z</time>
      </trkpt>
      <trkpt lat="45.63056" lon="6.52853">
        <ele>2154</ele>
        <time>2025-02-20T14:44:11Z</time>
      </trkpt>
      <trkpt lat="45.63056" lon="6.52854">
        <ele>2153.6</ele>
        <time>2025-02-20T14:44:12Z</time>
      </trkpt>
      <trkpt lat="45.63056" lon="6.52855">
        <ele>2154</ele>
        <time>2025-02-20T14:44:13Z</time>
      </trkpt>
      <trkpt lat="45.63057" lon="6.52855">
        <ele>2154</ele>
        <time>2025-02-20T14:44:14Z</time>
      </trkpt>
      <trkpt lat="45.63057" lon="6.52856">
        <ele>2154</ele>
        <time>2025-02-20T14:44:15Z</time>
      </trkpt>
      <trkpt lat="45.63058" lon="6.52857">
        <ele>2155</ele>
        <time>2025-02-20T14:44:16Z</time>
      </trkpt>
      <trkpt lat="45.63058" lon="6.52857">
        <ele>2156</ele>
        <time>2025-02-20T14:44:17Z</time>
      </trkpt>
      <trkpt lat="45.63058" lon="6.52858">
        <ele>2156</ele>
        <time>2025-02-20T14:44:18Z</time>
      </trkpt>
      <trkpt lat="45.63058" lon="6.52859">
        <ele>2156</ele>
        <time>2025-02-20T14:44:19Z</time>
      </trkpt>
      <trkpt lat="45.63059" lon="6.5286">
        <ele>2155.2</ele>
        <time>2025-02-20T14:44:20Z</time>
      </trkpt>
      <trkpt lat="45.63059" lon="6.5286">
        <ele>2154.6</ele>
        <time>2025-02-20T14:44:21Z</time>
      </trkpt>
      <trkpt lat="45.63059" lon="6.5286">
        <ele>2154.6</ele>
        <time>2025-02-20T14:44:22Z</time>
      </trkpt>
      <trkpt lat="45.63059" lon="6.52861">
        <ele>2154.6</ele>
        <time>2025-02-20T14:44:23Z</time>
      </trkpt>
      <trkpt lat="45.63059" lon="6.52861">
        <ele>2155.6</ele>
        <time>2025-02-20T14:44:24Z</time>
      </trkpt>
      <trkpt lat="45.63059" lon="6.52862">
        <ele>2156</ele>
        <time>2025-02-20T14:44:25Z</time>
      </trkpt>
      <trkpt lat="45.63059" lon="6.52862">
        <ele>2156</ele>
        <time>2025-02-20T14:44:26Z</time>
      </trkpt>
      <trkpt lat="45.63059" lon="6.52863">
        <ele>2156</ele>
        <time>2025-02-20T14:44:27Z</time>
      </trkpt>
      <trkpt lat="45.6306" lon="6.52864">
        <ele>2156</ele>
        <time>2025-02-20T14:44:28Z</time>
      </trkpt>
      <trkpt lat="45.6306" lon="6.52864">
        <ele>2157.2</ele>
        <time>2025-02-20T14:44:29Z</time>
      </trkpt>
      <trkpt lat="45.6306" lon="6.52864">
        <ele>2157.2</ele>
        <time>2025-02-20T14:44:30Z</time>
      </trkpt>
      <trkpt lat="45.6306" lon="6.52864">
        <ele>2157.2</ele>
        <time>2025-02-20T14:44:31Z</time>
      </trkpt>
      <trkpt lat="45.6306" lon="6.52868">
        <ele>2157.2</ele>
        <time>2025-02-20T14:44:32Z</time>
      </trkpt>
      <trkpt lat="45.63059" lon="6.52869">
        <ele>2156.8</ele>
        <time>2025-02-20T14:44:33Z</time>
      </trkpt>
      <trkpt lat="45.6306" lon="6.5287">
        <ele>2156.8</ele>
        <time>2025-02-20T14:44:34Z</time>
      </trkpt>
      <trkpt lat="45.6306" lon="6.5287">
        <ele>2156.8</ele>
        <time>2025-02-20T14:44:35Z</time>
      </trkpt>
      <trkpt lat="45.6306" lon="6.5287">
        <ele>2156.8</ele>
        <time>2025-02-20T14:44:36Z</time>
      </trkpt>
      <trkpt lat="45.6306" lon="6.5287">
        <ele>2157</ele>
        <time>2025-02-20T14:44:37Z</time>
      </trkpt>
      <trkpt lat="45.6306" lon="6.5287">
        <ele>2157</ele>
        <time>2025-02-20T14:44:38Z</time>
      </trkpt>
      <trkpt lat="45.6306" lon="6.5287">
        <ele>2157</ele>
        <time>2025-02-20T14:44:39Z</time>
      </trkpt>
      <trkpt lat="45.6306" lon="6.5287">
        <ele>2157</ele>
        <time>2025-02-20T14:44:40Z</time>
      </trkpt>
      <trkpt lat="45.6306" lon="6.5287">
        <ele>2158.8</ele>
        <time>2025-02-20T14:44:41Z</time>
      </trkpt>
      <trkpt lat="45.6306" lon="6.5287">
        <ele>2158.8</ele>
        <time>2025-02-20T14:44:42Z</time>
      </trkpt>
      <trkpt lat="45.6306" lon="6.5287">
        <ele>2158.8</ele>
        <time>2025-02-20T14:44:43Z</time>
      </trkpt>
      <trkpt lat="45.6306" lon="6.5287">
        <ele>2158</ele>
        <time>2025-02-20T14:44:44Z</time>
      </trkpt>
      <trkpt lat="45.6306" lon="6.5287">
        <ele>2157.4</ele>
        <time>2025-02-20T14:44:45Z</time>
      </trkpt>
      <trkpt lat="45.6306" lon="6.5287">
        <ele>2157.4</ele>
        <time>2025-02-20T14:44:46Z</time>
      </trkpt>
      <trkpt lat="45.63062" lon="6.52866">
        <ele>2157.4</ele>
        <time>2025-02-20T14:44:47Z</time>
      </trkpt>
      <trkpt lat="45.63061" lon="6.52866">
        <ele>2158.4</ele>
        <time>2025-02-20T14:44:48Z</time>
      </trkpt>
      <trkpt lat="45.63062" lon="6.52865">
        <ele>2157.8</ele>
        <time>2025-02-20T14:44:49Z</time>
      </trkpt>
      <trkpt lat="45.63062" lon="6.52865">
        <ele>2157.8</ele>
        <time>2025-02-20T14:44:50Z</time>
      </trkpt>
      <trkpt lat="45.63062" lon="6.52865">
        <ele>2157.8</ele>
        <time>2025-02-20T14:44:51Z</time>
      </trkpt>
      <trkpt lat="45.63062" lon="6.52865">
        <ele>2157.8</ele>
        <time>2025-02-20T14:44:52Z</time>
      </trkpt>
      <trkpt lat="45.63062" lon="6.52865">
        <ele>2159.6</ele>
        <time>2025-02-20T14:44:53Z</time>
      </trkpt>
      <trkpt lat="45.63062" lon="6.52865">
        <ele>2159.6</ele>
        <time>2025-02-20T14:44:54Z</time>
      </trkpt>
      <trkpt lat="45.63062" lon="6.52865">
        <ele>2159.6</ele>
        <time>2025-02-20T14:44:55Z</time>
      </trkpt>
      <trkpt lat="45.63063" lon="6.52863">
        <ele>2159.6</ele>
        <time>2025-02-20T14:44:56Z</time>
      </trkpt>
      <trkpt lat="45.63064" lon="6.52862">
        <ele>2158.8</ele>
        <time>2025-02-20T14:44:57Z</time>
      </trkpt>
      <trkpt lat="45.63064" lon="6.52862">
        <ele>2158.8</ele>
        <time>2025-02-20T14:44:58Z</time>
      </trkpt>
      <trkpt lat="45.63064" lon="6.52862">
        <ele>2158.8</ele>
        <time>2025-02-20T14:44:59Z</time>
      </trkpt>
      <trkpt lat="45.63064" lon="6.52862">
        <ele>2159.8</ele>
        <time>2025-02-20T14:45:00Z</time>
      </trkpt>
      <trkpt lat="45.63066" lon="6.52859">
        <ele>2160.8</ele>
        <time>2025-02-20T14:45:01Z</time>
      </trkpt>
      <trkpt lat="45.63066" lon="6.52859">
        <ele>2160.8</ele>
        <time>2025-02-20T14:45:02Z</time>
      </trkpt>
      <trkpt lat="45.63066" lon="6.52858">
        <ele>2160.8</ele>
        <time>2025-02-20T14:45:03Z</time>
      </trkpt>
      <trkpt lat="45.63067" lon="6.52858">
        <ele>2160.2</ele>
        <time>2025-02-20T14:45:04Z</time>
      </trkpt>
      <trkpt lat="45.63067" lon="6.52858">
        <ele>2159.8</ele>
        <time>2025-02-20T14:45:05Z</time>
      </trkpt>
      <trkpt lat="45.63068" lon="6.52857">
        <ele>2159.8</ele>
        <time>2025-02-20T14:45:06Z</time>
      </trkpt>
      <trkpt lat="45.63068" lon="6.52857">
        <ele>2159.8</ele>
        <time>2025-02-20T14:45:07Z</time>
      </trkpt>
      <trkpt lat="45.63068" lon="6.52856">
        <ele>2159.8</ele>
        <time>2025-02-20T14:45:08Z</time>
      </trkpt>
      <trkpt lat="45.63068" lon="6.52856">
        <ele>2161</ele>
        <time>2025-02-20T14:45:09Z</time>
      </trkpt>
      <trkpt lat="45.63068" lon="6.52856">
        <ele>2161</ele>
        <time>2025-02-20T14:45:10Z</time>
      </trkpt>
      <trkpt lat="45.63068" lon="6.52856">
        <ele>2161</ele>
        <time>2025-02-20T14:45:11Z</time>
      </trkpt>
      <trkpt lat="45.6307" lon="6.52855">
        <ele>2161</ele>
        <time>2025-02-20T14:45:12Z</time>
      </trkpt>
      <trkpt lat="45.63071" lon="6.52854">
        <ele>2162</ele>
        <time>2025-02-20T14:45:13Z</time>
      </trkpt>
      <trkpt lat="45.63071" lon="6.52854">
        <ele>2162</ele>
        <time>2025-02-20T14:45:14Z</time>
      </trkpt>
      <trkpt lat="45.63071" lon="6.52853">
        <ele>2162</ele>
        <time>2025-02-20T14:45:15Z</time>
      </trkpt>
      <trkpt lat="45.63072" lon="6.52853">
        <ele>2161.8</ele>
        <time>2025-02-20T14:45:16Z</time>
      </trkpt>
      <trkpt lat="45.63072" lon="6.52852">
        <ele>2161.8</ele>
        <time>2025-02-20T14:45:17Z</time>
      </trkpt>
      <trkpt lat="45.63072" lon="6.52852">
        <ele>2161.8</ele>
        <time>2025-02-20T14:45:18Z</time>
      </trkpt>
      <trkpt lat="45.63073" lon="6.52851">
        <ele>2161.8</ele>
        <time>2025-02-20T14:45:19Z</time>
      </trkpt>
      <trkpt lat="45.63073" lon="6.52851">
        <ele>2162.8</ele>
        <time>2025-02-20T14:45:20Z</time>
      </trkpt>
      <trkpt lat="45.63074" lon="6.52851">
        <ele>2162</ele>
        <time>2025-02-20T14:45:21Z</time>
      </trkpt>
      <trkpt lat="45.63074" lon="6.52851">
        <ele>2162</ele>
        <time>2025-02-20T14:45:22Z</time>
      </trkpt>
      <trkpt lat="45.63074" lon="6.52851">
        <ele>2162</ele>
        <time>2025-02-20T14:45:23Z</time>
      </trkpt>
      <trkpt lat="45.63074" lon="6.52851">
        <ele>2162.8</ele>
        <time>2025-02-20T14:45:24Z</time>
      </trkpt>
      <trkpt lat="45.63074" lon="6.52851">
        <ele>2163.4</ele>
        <time>2025-02-20T14:45:25Z</time>
      </trkpt>
      <trkpt lat="45.63074" lon="6.52851">
        <ele>2163.4</ele>
        <time>2025-02-20T14:45:26Z</time>
      </trkpt>
      <trkpt lat="45.63074" lon="6.52851">
        <ele>2163.4</ele>
        <time>2025-02-20T14:45:27Z</time>
      </trkpt>
      <trkpt lat="45.63076" lon="6.5285">
        <ele>2163.4</ele>
        <time>2025-02-20T14:45:28Z</time>
      </trkpt>
      <trkpt lat="45.63076" lon="6.5285">
        <ele>2162</ele>
        <time>2025-02-20T14:45:29Z</time>
      </trkpt>
      <trkpt lat="45.63076" lon="6.5285">
        <ele>2162</ele>
        <time>2025-02-20T14:45:30Z</time>
      </trkpt>
      <trkpt lat="45.63076" lon="6.5285">
        <ele>2162</ele>
        <time>2025-02-20T14:45:31Z</time>
      </trkpt>
      <trkpt lat="45.63076" lon="6.5285">
        <ele>2163</ele>
        <time>2025-02-20T14:45:32Z</time>
      </trkpt>
      <trkpt lat="45.63076" lon="6.5285">
        <ele>2164.4</ele>
        <time>2025-02-20T14:45:33Z</time>
      </trkpt>
      <trkpt lat="45.63076" lon="6.5285">
        <ele>2164.4</ele>
        <time>2025-02-20T14:45:34Z</time>
      </trkpt>
      <trkpt lat="45.63076" lon="6.5285">
        <ele>2164.4</ele>
        <time>2025-02-20T14:45:35Z</time>
      </trkpt>
      <trkpt lat="45.63076" lon="6.5285">
        <ele>2164.4</ele>
        <time>2025-02-20T14:45:36Z</time>
      </trkpt>
      <trkpt lat="45.63076" lon="6.5285">
        <ele>2165.4</ele>
        <time>2025-02-20T14:45:37Z</time>
      </trkpt>
      <trkpt lat="45.63078" lon="6.52851">
        <ele>2165.4</ele>
        <time>2025-02-20T14:45:38Z</time>
      </trkpt>
      <trkpt lat="45.63078" lon="6.52851">
        <ele>2165.4</ele>
        <time>2025-02-20T14:45:39Z</time>
      </trkpt>
      <trkpt lat="45.63078" lon="6.52851">
        <ele>2165.4</ele>
        <time>2025-02-20T14:45:40Z</time>
      </trkpt>
      <trkpt lat="45.63078" lon="6.52851">
        <ele>2166</ele>
        <time>2025-02-20T14:45:41Z</time>
      </trkpt>
      <trkpt lat="45.63078" lon="6.52851">
        <ele>2166</ele>
        <time>2025-02-20T14:45:42Z</time>
      </trkpt>
      <trkpt lat="45.63078" lon="6.52851">
        <ele>2166</ele>
        <time>2025-02-20T14:45:43Z</time>
      </trkpt>
      <trkpt lat="45.63078" lon="6.52851">
        <ele>2165</ele>
        <time>2025-02-20T14:45:44Z</time>
      </trkpt>
      <trkpt lat="45.63078" lon="6.52851">
        <ele>2166</ele>
        <time>2025-02-20T14:45:45Z</time>
      </trkpt>
      <trkpt lat="45.63078" lon="6.52851">
        <ele>2166</ele>
        <time>2025-02-20T14:45:46Z</time>
      </trkpt>
      <trkpt lat="45.63078" lon="6.52851">
        <ele>2166</ele>
        <time>2025-02-20T14:45:47Z</time>
      </trkpt>
      <trkpt lat="45.63083" lon="6.52849">
        <ele>2166</ele>
        <time>2025-02-20T14:45:48Z</time>
      </trkpt>
      <trkpt lat="45.63083" lon="6.52849">
        <ele>2165.2</ele>
        <time>2025-02-20T14:45:49Z</time>
      </trkpt>
      <trkpt lat="45.63083" lon="6.52849">
        <ele>2165.2</ele>
        <time>2025-02-20T14:45:50Z</time>
      </trkpt>
      <trkpt lat="45.63083" lon="6.52849">
        <ele>2165.2</ele>
        <time>2025-02-20T14:45:51Z</time>
      </trkpt>
      <trkpt lat="45.63083" lon="6.52849">
        <ele>2166.2</ele>
        <time>2025-02-20T14:45:52Z</time>
      </trkpt>
      <trkpt lat="45.63084" lon="6.52847">
        <ele>2166.4</ele>
        <time>2025-02-20T14:45:53Z</time>
      </trkpt>
      <trkpt lat="45.63084" lon="6.52847">
        <ele>2166.4</ele>
        <time>2025-02-20T14:45:54Z</time>
      </trkpt>
      <trkpt lat="45.63084" lon="6.52847">
        <ele>2166.4</ele>
        <time>2025-02-20T14:45:55Z</time>
      </trkpt>
      <trkpt lat="45.63084" lon="6.52847">
        <ele>2166.4</ele>
        <time>2025-02-20T14:45:56Z</time>
      </trkpt>
      <trkpt lat="45.63084" lon="6.52847">
        <ele>2167.8</ele>
        <time>2025-02-20T14:45:57Z</time>
      </trkpt>
      <trkpt lat="45.63085" lon="6.52846">
        <ele>2167.8</ele>
        <time>2025-02-20T14:45:58Z</time>
      </trkpt>
      <trkpt lat="45.63085" lon="6.52846">
        <ele>2167.8</ele>
        <time>2025-02-20T14:45:59Z</time>
      </trkpt>
      <trkpt lat="45.63085" lon="6.52846">
        <ele>2167.2</ele>
        <time>2025-02-20T14:46:00Z</time>
      </trkpt>
      <trkpt lat="45.63085" lon="6.52846">
        <ele>2167.4</ele>
        <time>2025-02-20T14:46:01Z</time>
      </trkpt>
      <trkpt lat="45.63085" lon="6.52846">
        <ele>2167.4</ele>
        <time>2025-02-20T14:46:02Z</time>
      </trkpt>
      <trkpt lat="45.63087" lon="6.52844">
        <ele>2167.4</ele>
        <time>2025-02-20T14:46:03Z</time>
      </trkpt>
      <trkpt lat="45.63087" lon="6.52844">
        <ele>2168</ele>
        <time>2025-02-20T14:46:04Z</time>
      </trkpt>
      <trkpt lat="45.63087" lon="6.52844">
        <ele>2168</ele>
        <time>2025-02-20T14:46:05Z</time>
      </trkpt>
      <trkpt lat="45.63087" lon="6.52844">
        <ele>2168</ele>
        <time>2025-02-20T14:46:06Z</time>
      </trkpt>
      <trkpt lat="45.63087" lon="6.52844">
        <ele>2168</ele>
        <time>2025-02-20T14:46:07Z</time>
      </trkpt>
      <trkpt lat="45.63089" lon="6.52843">
        <ele>2168</ele>
        <time>2025-02-20T14:46:08Z</time>
      </trkpt>
      <trkpt lat="45.63088" lon="6.52843">
        <ele>2169.2</ele>
        <time>2025-02-20T14:46:09Z</time>
      </trkpt>
      <trkpt lat="45.63089" lon="6.52843">
        <ele>2169.2</ele>
        <time>2025-02-20T14:46:10Z</time>
      </trkpt>
      <trkpt lat="45.6309" lon="6.52843">
        <ele>2169.2</ele>
        <time>2025-02-20T14:46:11Z</time>
      </trkpt>
      <trkpt lat="45.63089" lon="6.52844">
        <ele>2168.8</ele>
        <time>2025-02-20T14:46:12Z</time>
      </trkpt>
      <trkpt lat="45.6309" lon="6.52843">
        <ele>2168.4</ele>
        <time>2025-02-20T14:46:13Z</time>
      </trkpt>
      <trkpt lat="45.6309" lon="6.52843">
        <ele>2168.4</ele>
        <time>2025-02-20T14:46:14Z</time>
      </trkpt>
      <trkpt lat="45.63091" lon="6.52844">
        <ele>2168.4</ele>
        <time>2025-02-20T14:46:15Z</time>
      </trkpt>
      <trkpt lat="45.63091" lon="6.52844">
        <ele>2169.2</ele>
        <time>2025-02-20T14:46:16Z</time>
      </trkpt>
      <trkpt lat="45.63092" lon="6.52844">
        <ele>2169.2</ele>
        <time>2025-02-20T14:46:17Z</time>
      </trkpt>
      <trkpt lat="45.63092" lon="6.52844">
        <ele>2169.2</ele>
        <time>2025-02-20T14:46:18Z</time>
      </trkpt>
      <trkpt lat="45.63092" lon="6.52845">
        <ele>2169.2</ele>
        <time>2025-02-20T14:46:19Z</time>
      </trkpt>
      <trkpt lat="45.63093" lon="6.52845">
        <ele>2169.2</ele>
        <time>2025-02-20T14:46:20Z</time>
      </trkpt>
      <trkpt lat="45.63093" lon="6.52845">
        <ele>2170.6</ele>
        <time>2025-02-20T14:46:21Z</time>
      </trkpt>
      <trkpt lat="45.63093" lon="6.52846">
        <ele>2170.6</ele>
        <time>2025-02-20T14:46:22Z</time>
      </trkpt>
      <trkpt lat="45.63093" lon="6.52846">
        <ele>2170.6</ele>
        <time>2025-02-20T14:46:23Z</time>
      </trkpt>
      <trkpt lat="45.63093" lon="6.52848">
        <ele>2170.2</ele>
        <time>2025-02-20T14:46:24Z</time>
      </trkpt>
      <trkpt lat="45.63093" lon="6.52848">
        <ele>2169.2</ele>
        <time>2025-02-20T14:46:25Z</time>
      </trkpt>
      <trkpt lat="45.63094" lon="6.52849">
        <ele>2169.2</ele>
        <time>2025-02-20T14:46:26Z</time>
      </trkpt>
      <trkpt lat="45.63094" lon="6.52849">
        <ele>2169.2</ele>
        <time>2025-02-20T14:46:27Z</time>
      </trkpt>
      <trkpt lat="45.63094" lon="6.5285">
        <ele>2170.2</ele>
        <time>2025-02-20T14:46:28Z</time>
      </trkpt>
      <trkpt lat="45.63095" lon="6.52851">
        <ele>2170</ele>
        <time>2025-02-20T14:46:29Z</time>
      </trkpt>
      <trkpt lat="45.63095" lon="6.52851">
        <ele>2170</ele>
        <time>2025-02-20T14:46:30Z</time>
      </trkpt>
      <trkpt lat="45.63096" lon="6.52851">
        <ele>2170</ele>
        <time>2025-02-20T14:46:31Z</time>
      </trkpt>
      <trkpt lat="45.63096" lon="6.52851">
        <ele>2170.8</ele>
        <time>2025-02-20T14:46:32Z</time>
      </trkpt>
      <trkpt lat="45.63096" lon="6.52851">
        <ele>2170.2</ele>
        <time>2025-02-20T14:46:33Z</time>
      </trkpt>
      <trkpt lat="45.63096" lon="6.52851">
        <ele>2170.2</ele>
        <time>2025-02-20T14:46:34Z</time>
      </trkpt>
      <trkpt lat="45.63096" lon="6.52851">
        <ele>2170.2</ele>
        <time>2025-02-20T14:46:35Z</time>
      </trkpt>
      <trkpt lat="45.63096" lon="6.52851">
        <ele>2170.2</ele>
        <time>2025-02-20T14:46:36Z</time>
      </trkpt>
      <trkpt lat="45.63096" lon="6.52851">
        <ele>2171.4</ele>
        <time>2025-02-20T14:46:37Z</time>
      </trkpt>
      <trkpt lat="45.63096" lon="6.52851">
        <ele>2171.4</ele>
        <time>2025-02-20T14:46:38Z</time>
      </trkpt>
      <trkpt lat="45.63096" lon="6.52851">
        <ele>2171.4</ele>
        <time>2025-02-20T14:46:39Z</time>
      </trkpt>
      <trkpt lat="45.63096" lon="6.52851">
        <ele>2171.4</ele>
        <time>2025-02-20T14:46:40Z</time>
      </trkpt>
      <trkpt lat="45.63096" lon="6.52851">
        <ele>2170.8</ele>
        <time>2025-02-20T14:46:41Z</time>
      </trkpt>
      <trkpt lat="45.63099" lon="6.52855">
        <ele>2170.8</ele>
        <time>2025-02-20T14:46:42Z</time>
      </trkpt>
      <trkpt lat="45.631" lon="6.52856">
        <ele>2170.8</ele>
        <time>2025-02-20T14:46:43Z</time>
      </trkpt>
      <trkpt lat="45.631" lon="6.52856">
        <ele>2171.8</ele>
        <time>2025-02-20T14:46:44Z</time>
      </trkpt>
      <trkpt lat="45.631" lon="6.52856">
        <ele>2172.4</ele>
        <time>2025-02-20T14:46:45Z</time>
      </trkpt>
      <trkpt lat="45.631" lon="6.52856">
        <ele>2172.4</ele>
        <time>2025-02-20T14:46:46Z</time>
      </trkpt>
      <trkpt lat="45.631" lon="6.52856">
        <ele>2172.4</ele>
        <time>2025-02-20T14:46:47Z</time>
      </trkpt>
      <trkpt lat="45.631" lon="6.52856">
        <ele>2172.6</ele>
        <time>2025-02-20T14:46:48Z</time>
      </trkpt>
      <trkpt lat="45.631" lon="6.52856">
        <ele>2172.4</ele>
        <time>2025-02-20T14:46:49Z</time>
      </trkpt>
      <trkpt lat="45.631" lon="6.52856">
        <ele>2172.4</ele>
        <time>2025-02-20T14:46:50Z</time>
      </trkpt>
      <trkpt lat="45.631" lon="6.52856">
        <ele>2172.4</ele>
        <time>2025-02-20T14:46:51Z</time>
      </trkpt>
      <trkpt lat="45.631" lon="6.52856">
        <ele>2172.4</ele>
        <time>2025-02-20T14:46:52Z</time>
      </trkpt>
      <trkpt lat="45.631" lon="6.52856">
        <ele>2173.6</ele>
        <time>2025-02-20T14:46:53Z</time>
      </trkpt>
      <trkpt lat="45.631" lon="6.52856">
        <ele>2173.6</ele>
        <time>2025-02-20T14:46:54Z</time>
      </trkpt>
      <trkpt lat="45.631" lon="6.52856">
        <ele>2173.6</ele>
        <time>2025-02-20T14:46:55Z</time>
      </trkpt>
      <trkpt lat="45.631" lon="6.52856">
        <ele>2174.4</ele>
        <time>2025-02-20T14:46:56Z</time>
      </trkpt>
      <trkpt lat="45.631" lon="6.52856">
        <ele>2173.8</ele>
        <time>2025-02-20T14:46:57Z</time>
      </trkpt>
      <trkpt lat="45.631" lon="6.52856">
        <ele>2173.8</ele>
        <time>2025-02-20T14:46:58Z</time>
      </trkpt>
      <trkpt lat="45.631" lon="6.52856">
        <ele>2173.8</ele>
        <time>2025-02-20T14:46:59Z</time>
      </trkpt>
      <trkpt lat="45.631" lon="6.52856">
        <ele>2173.8</ele>
        <time>2025-02-20T14:47:00Z</time>
      </trkpt>
      <trkpt lat="45.631" lon="6.52856">
        <ele>2174.2</ele>
        <time>2025-02-20T14:47:01Z</time>
      </trkpt>
      <trkpt lat="45.631" lon="6.52856">
        <ele>2174.2</ele>
        <time>2025-02-20T14:47:02Z</time>
      </trkpt>
      <trkpt lat="45.631" lon="6.52856">
        <ele>2174.2</ele>
        <time>2025-02-20T14:47:03Z</time>
      </trkpt>
      <trkpt lat="45.631" lon="6.52856">
        <ele>2174.6</ele>
        <time>2025-02-20T14:47:04Z</time>
      </trkpt>
      <trkpt lat="45.631" lon="6.52856">
        <ele>2174.6</ele>
        <time>2025-02-20T14:47:05Z</time>
      </trkpt>
      <trkpt lat="45.631" lon="6.52856">
        <ele>2174.6</ele>
        <time>2025-02-20T14:47:06Z</time>
      </trkpt>
      <trkpt lat="45.631" lon="6.52856">
        <ele>2174.6</ele>
        <time>2025-02-20T14:47:07Z</time>
      </trkpt>
      <trkpt lat="45.631" lon="6.52856">
        <ele>2174.6</ele>
        <time>2025-02-20T14:47:08Z</time>
      </trkpt>
      <trkpt lat="45.631" lon="6.52856">
        <ele>2175.8</ele>
        <time>2025-02-20T14:47:09Z</time>
      </trkpt>
      <trkpt lat="45.631" lon="6.52856">
        <ele>2175.8</ele>
        <time>2025-02-20T14:47:10Z</time>
      </trkpt>
      <trkpt lat="45.631" lon="6.52856">
        <ele>2175.8</ele>
        <time>2025-02-20T14:47:11Z</time>
      </trkpt>
      <trkpt lat="45.6311" lon="6.52858">
        <ele>2175.2</ele>
        <time>2025-02-20T14:47:12Z</time>
      </trkpt>
      <trkpt lat="45.6311" lon="6.52857">
        <ele>2175.2</ele>
        <time>2025-02-20T14:47:13Z</time>
      </trkpt>
      <trkpt lat="45.6311" lon="6.52857">
        <ele>2175.2</ele>
        <time>2025-02-20T14:47:14Z</time>
      </trkpt>
      <trkpt lat="45.6311" lon="6.52857">
        <ele>2175.2</ele>
        <time>2025-02-20T14:47:15Z</time>
      </trkpt>
      <trkpt lat="45.6311" lon="6.52857">
        <ele>2176.2</ele>
        <time>2025-02-20T14:47:16Z</time>
      </trkpt>
      <trkpt lat="45.63113" lon="6.52858">
        <ele>2176.6</ele>
        <time>2025-02-20T14:47:17Z</time>
      </trkpt>
      <trkpt lat="45.63113" lon="6.52858">
        <ele>2176.6</ele>
        <time>2025-02-20T14:47:18Z</time>
      </trkpt>
      <trkpt lat="45.63114" lon="6.52858">
        <ele>2176.6</ele>
        <time>2025-02-20T14:47:19Z</time>
      </trkpt>
      <trkpt lat="45.63115" lon="6.52858">
        <ele>2176.6</ele>
        <time>2025-02-20T14:47:20Z</time>
      </trkpt>
      <trkpt lat="45.63115" lon="6.52858">
        <ele>2176.4</ele>
        <time>2025-02-20T14:47:21Z</time>
      </trkpt>
      <trkpt lat="45.63115" lon="6.52858">
        <ele>2176.4</ele>
        <time>2025-02-20T14:47:22Z</time>
      </trkpt>
      <trkpt lat="45.63115" lon="6.52858">
        <ele>2176.4</ele>
        <time>2025-02-20T14:47:23Z</time>
      </trkpt>
      <trkpt lat="45.63115" lon="6.52858">
        <ele>2177.4</ele>
        <time>2025-02-20T14:47:24Z</time>
      </trkpt>
      <trkpt lat="45.63115" lon="6.52858">
        <ele>2177.6</ele>
        <time>2025-02-20T14:47:25Z</time>
      </trkpt>
      <trkpt lat="45.63117" lon="6.52858">
        <ele>2177.6</ele>
        <time>2025-02-20T14:47:26Z</time>
      </trkpt>
      <trkpt lat="45.63117" lon="6.52858">
        <ele>2177.6</ele>
        <time>2025-02-20T14:47:27Z</time>
      </trkpt>
      <trkpt lat="45.63118" lon="6.52858">
        <ele>2176.8</ele>
        <time>2025-02-20T14:47:28Z</time>
      </trkpt>
      <trkpt lat="45.63118" lon="6.52858">
        <ele>2177</ele>
        <time>2025-02-20T14:47:29Z</time>
      </trkpt>
      <trkpt lat="45.63118" lon="6.52858">
        <ele>2177</ele>
        <time>2025-02-20T14:47:30Z</time>
      </trkpt>
      <trkpt lat="45.63118" lon="6.52858">
        <ele>2177</ele>
        <time>2025-02-20T14:47:31Z</time>
      </trkpt>
      <trkpt lat="45.63118" lon="6.52858">
        <ele>2178</ele>
        <time>2025-02-20T14:47:32Z</time>
      </trkpt>
      <trkpt lat="45.63118" lon="6.52858">
        <ele>2178.4</ele>
        <time>2025-02-20T14:47:33Z</time>
      </trkpt>
      <trkpt lat="45.63118" lon="6.52858">
        <ele>2178.4</ele>
        <time>2025-02-20T14:47:34Z</time>
      </trkpt>
      <trkpt lat="45.63118" lon="6.52858">
        <ele>2178.4</ele>
        <time>2025-02-20T14:47:35Z</time>
      </trkpt>
      <trkpt lat="45.63118" lon="6.52858">
        <ele>2179.4</ele>
        <time>2025-02-20T14:47:36Z</time>
      </trkpt>
      <trkpt lat="45.63118" lon="6.52858">
        <ele>2178.2</ele>
        <time>2025-02-20T14:47:37Z</time>
      </trkpt>
      <trkpt lat="45.63118" lon="6.52858">
        <ele>2178.2</ele>
        <time>2025-02-20T14:47:38Z</time>
      </trkpt>
      <trkpt lat="45.63118" lon="6.52858">
        <ele>2178.2</ele>
        <time>2025-02-20T14:47:39Z</time>
      </trkpt>
      <trkpt lat="45.63118" lon="6.52858">
        <ele>2178.2</ele>
        <time>2025-02-20T14:47:40Z</time>
      </trkpt>
      <trkpt lat="45.63118" lon="6.52858">
        <ele>2179</ele>
        <time>2025-02-20T14:47:41Z</time>
      </trkpt>
      <trkpt lat="45.63118" lon="6.52858">
        <ele>2179</ele>
        <time>2025-02-20T14:47:42Z</time>
      </trkpt>
      <trkpt lat="45.63118" lon="6.52858">
        <ele>2179</ele>
        <time>2025-02-20T14:47:43Z</time>
      </trkpt>
      <trkpt lat="45.63118" lon="6.52858">
        <ele>2179</ele>
        <time>2025-02-20T14:47:44Z</time>
      </trkpt>
      <trkpt lat="45.63118" lon="6.52858">
        <ele>2180.2</ele>
        <time>2025-02-20T14:47:45Z</time>
      </trkpt>
      <trkpt lat="45.63118" lon="6.52858">
        <ele>2180.2</ele>
        <time>2025-02-20T14:47:46Z</time>
      </trkpt>
      <trkpt lat="45.63118" lon="6.52858">
        <ele>2180.2</ele>
        <time>2025-02-20T14:47:47Z</time>
      </trkpt>
      <trkpt lat="45.63118" lon="6.52858">
        <ele>2180.2</ele>
        <time>2025-02-20T14:47:48Z</time>
      </trkpt>
      <trkpt lat="45.63118" lon="6.52858">
        <ele>2179.2</ele>
        <time>2025-02-20T14:47:49Z</time>
      </trkpt>
      <trkpt lat="45.63127" lon="6.52856">
        <ele>2179.2</ele>
        <time>2025-02-20T14:47:50Z</time>
      </trkpt>
      <trkpt lat="45.63127" lon="6.52856">
        <ele>2179.2</ele>
        <time>2025-02-20T14:47:51Z</time>
      </trkpt>
      <trkpt lat="45.63127" lon="6.52856">
        <ele>2180.2</ele>
        <time>2025-02-20T14:47:52Z</time>
      </trkpt>
      <trkpt lat="45.63127" lon="6.52856">
        <ele>2180.6</ele>
        <time>2025-02-20T14:47:53Z</time>
      </trkpt>
      <trkpt lat="45.63127" lon="6.52856">
        <ele>2180.6</ele>
        <time>2025-02-20T14:47:54Z</time>
      </trkpt>
      <trkpt lat="45.63127" lon="6.52856">
        <ele>2180.6</ele>
        <time>2025-02-20T14:47:55Z</time>
      </trkpt>
      <trkpt lat="45.63127" lon="6.52856">
        <ele>2181</ele>
        <time>2025-02-20T14:47:56Z</time>
      </trkpt>
      <trkpt lat="45.63127" lon="6.52856">
        <ele>2180.8</ele>
        <time>2025-02-20T14:47:57Z</time>
      </trkpt>
      <trkpt lat="45.63127" lon="6.52856">
        <ele>2180.8</ele>
        <time>2025-02-20T14:47:58Z</time>
      </trkpt>
      <trkpt lat="45.6313" lon="6.52855">
        <ele>2180.8</ele>
        <time>2025-02-20T14:47:59Z</time>
      </trkpt>
      <trkpt lat="45.63131" lon="6.52855">
        <ele>2180.8</ele>
        <time>2025-02-20T14:48:00Z</time>
      </trkpt>
      <trkpt lat="45.63131" lon="6.52855">
        <ele>2181.2</ele>
        <time>2025-02-20T14:48:01Z</time>
      </trkpt>
      <trkpt lat="45.63131" lon="6.52855">
        <ele>2181.2</ele>
        <time>2025-02-20T14:48:02Z</time>
      </trkpt>
      <trkpt lat="45.63133" lon="6.52853">
        <ele>2181.2</ele>
        <time>2025-02-20T14:48:03Z</time>
      </trkpt>
      <trkpt lat="45.63133" lon="6.52853">
        <ele>2181</ele>
        <time>2025-02-20T14:48:04Z</time>
      </trkpt>
      <trkpt lat="45.63134" lon="6.52852">
        <ele>2181.8</ele>
        <time>2025-02-20T14:48:05Z</time>
      </trkpt>
      <trkpt lat="45.63135" lon="6.52852">
        <ele>2181.8</ele>
        <time>2025-02-20T14:48:06Z</time>
      </trkpt>
      <trkpt lat="45.63135" lon="6.52852">
        <ele>2181.8</ele>
        <time>2025-02-20T14:48:07Z</time>
      </trkpt>
      <trkpt lat="45.63135" lon="6.52851">
        <ele>2181.8</ele>
        <time>2025-02-20T14:48:08Z</time>
      </trkpt>
      <trkpt lat="45.63135" lon="6.52851">
        <ele>2182.4</ele>
        <time>2025-02-20T14:48:09Z</time>
      </trkpt>
      <trkpt lat="45.63135" lon="6.52851">
        <ele>2182.4</ele>
        <time>2025-02-20T14:48:10Z</time>
      </trkpt>
      <trkpt lat="45.63135" lon="6.52851">
        <ele>2182.4</ele>
        <time>2025-02-20T14:48:11Z</time>
      </trkpt>
      <trkpt lat="45.63135" lon="6.52851">
        <ele>2182.4</ele>
        <time>2025-02-20T14:48:12Z</time>
      </trkpt>
      <trkpt lat="45.63135" lon="6.52851">
        <ele>2183.6</ele>
        <time>2025-02-20T14:48:13Z</time>
      </trkpt>
      <trkpt lat="45.63135" lon="6.52851">
        <ele>2183.6</ele>
        <time>2025-02-20T14:48:14Z</time>
      </trkpt>
      <trkpt lat="45.63135" lon="6.52851">
        <ele>2183.6</ele>
        <time>2025-02-20T14:48:15Z</time>
      </trkpt>
      <trkpt lat="45.63135" lon="6.52851">
        <ele>2182.6</ele>
        <time>2025-02-20T14:48:16Z</time>
      </trkpt>
      <trkpt lat="45.63135" lon="6.52851">
        <ele>2182.4</ele>
        <time>2025-02-20T14:48:17Z</time>
      </trkpt>
      <trkpt lat="45.63135" lon="6.52851">
        <ele>2182.4</ele>
        <time>2025-02-20T14:48:18Z</time>
      </trkpt>
      <trkpt lat="45.63138" lon="6.52851">
        <ele>2182.4</ele>
        <time>2025-02-20T14:48:19Z</time>
      </trkpt>
      <trkpt lat="45.63139" lon="6.52851">
        <ele>2182.4</ele>
        <time>2025-02-20T14:48:20Z</time>
      </trkpt>
      <trkpt lat="45.63139" lon="6.52851">
        <ele>2183.6</ele>
        <time>2025-02-20T14:48:21Z</time>
      </trkpt>
      <trkpt lat="45.6314" lon="6.5285">
        <ele>2183.6</ele>
        <time>2025-02-20T14:48:22Z</time>
      </trkpt>
      <trkpt lat="45.6314" lon="6.5285">
        <ele>2183.6</ele>
        <time>2025-02-20T14:48:23Z</time>
      </trkpt>
      <trkpt lat="45.63141" lon="6.52849">
        <ele>2183.6</ele>
        <time>2025-02-20T14:48:24Z</time>
      </trkpt>
      <trkpt lat="45.63141" lon="6.52849">
        <ele>2183.6</ele>
        <time>2025-02-20T14:48:25Z</time>
      </trkpt>
      <trkpt lat="45.63142" lon="6.52849">
        <ele>2183.6</ele>
        <time>2025-02-20T14:48:26Z</time>
      </trkpt>
      <trkpt lat="45.63142" lon="6.52849">
        <ele>2183.6</ele>
        <time>2025-02-20T14:48:27Z</time>
      </trkpt>
      <trkpt lat="45.63143" lon="6.52849">
        <ele>2183.6</ele>
        <time>2025-02-20T14:48:28Z</time>
      </trkpt>
      <trkpt lat="45.63143" lon="6.52848">
        <ele>2185.2</ele>
        <time>2025-02-20T14:48:29Z</time>
      </trkpt>
      <trkpt lat="45.63144" lon="6.52848">
        <ele>2185.2</ele>
        <time>2025-02-20T14:48:30Z</time>
      </trkpt>
      <trkpt lat="45.63144" lon="6.52848">
        <ele>2185.2</ele>
        <time>2025-02-20T14:48:31Z</time>
      </trkpt>
      <trkpt lat="45.63144" lon="6.52848">
        <ele>2185</ele>
        <time>2025-02-20T14:48:32Z</time>
      </trkpt>
      <trkpt lat="45.63144" lon="6.52848">
        <ele>2184.6</ele>
        <time>2025-02-20T14:48:33Z</time>
      </trkpt>
      <trkpt lat="45.63144" lon="6.52848">
        <ele>2184.6</ele>
        <time>2025-02-20T14:48:34Z</time>
      </trkpt>
      <trkpt lat="45.63145" lon="6.52846">
        <ele>2184.6</ele>
        <time>2025-02-20T14:48:35Z</time>
      </trkpt>
      <trkpt lat="45.63145" lon="6.52845">
        <ele>2185.4</ele>
        <time>2025-02-20T14:48:36Z</time>
      </trkpt>
      <trkpt lat="45.63146" lon="6.52845">
        <ele>2185</ele>
        <time>2025-02-20T14:48:37Z</time>
      </trkpt>
      <trkpt lat="45.63146" lon="6.52844">
        <ele>2185</ele>
        <time>2025-02-20T14:48:38Z</time>
      </trkpt>
      <trkpt lat="45.63146" lon="6.52844">
        <ele>2185</ele>
        <time>2025-02-20T14:48:39Z</time>
      </trkpt>
      <trkpt lat="45.63146" lon="6.52843">
        <ele>2186</ele>
        <time>2025-02-20T14:48:40Z</time>
      </trkpt>
      <trkpt lat="45.63146" lon="6.52842">
        <ele>2186.8</ele>
        <time>2025-02-20T14:48:41Z</time>
      </trkpt>
      <trkpt lat="45.63147" lon="6.52842">
        <ele>2186.8</ele>
        <time>2025-02-20T14:48:42Z</time>
      </trkpt>
      <trkpt lat="45.63147" lon="6.52842">
        <ele>2186.8</ele>
        <time>2025-02-20T14:48:43Z</time>
      </trkpt>
      <trkpt lat="45.63147" lon="6.52842">
        <ele>2185.8</ele>
        <time>2025-02-20T14:48:44Z</time>
      </trkpt>
      <trkpt lat="45.63147" lon="6.52842">
        <ele>2186.4</ele>
        <time>2025-02-20T14:48:45Z</time>
      </trkpt>
      <trkpt lat="45.63147" lon="6.52842">
        <ele>2186.4</ele>
        <time>2025-02-20T14:48:46Z</time>
      </trkpt>
      <trkpt lat="45.63148" lon="6.52843">
        <ele>2186.4</ele>
        <time>2025-02-20T14:48:47Z</time>
      </trkpt>
      <trkpt lat="45.63149" lon="6.52845">
        <ele>2186.4</ele>
        <time>2025-02-20T14:48:48Z</time>
      </trkpt>
      <trkpt lat="45.63149" lon="6.52845">
        <ele>2187.6</ele>
        <time>2025-02-20T14:48:49Z</time>
      </trkpt>
      <trkpt lat="45.63149" lon="6.52845">
        <ele>2187.6</ele>
        <time>2025-02-20T14:48:50Z</time>
      </trkpt>
      <trkpt lat="45.63149" lon="6.52845">
        <ele>2187.6</ele>
        <time>2025-02-20T14:48:51Z</time>
      </trkpt>
      <trkpt lat="45.63149" lon="6.52845">
        <ele>2187.6</ele>
        <time>2025-02-20T14:48:52Z</time>
      </trkpt>
      <trkpt lat="45.63149" lon="6.52845">
        <ele>2187.6</ele>
        <time>2025-02-20T14:48:53Z</time>
      </trkpt>
      <trkpt lat="45.6315" lon="6.52847">
        <ele>2187.6</ele>
        <time>2025-02-20T14:48:54Z</time>
      </trkpt>
      <trkpt lat="45.6315" lon="6.52848">
        <ele>2187.6</ele>
        <time>2025-02-20T14:48:55Z</time>
      </trkpt>
      <trkpt lat="45.63151" lon="6.52849">
        <ele>2187</ele>
        <time>2025-02-20T14:48:56Z</time>
      </trkpt>
      <trkpt lat="45.63151" lon="6.52849">
        <ele>2187.6</ele>
        <time>2025-02-20T14:48:57Z</time>
      </trkpt>
      <trkpt lat="45.63151" lon="6.52851">
        <ele>2187.6</ele>
        <time>2025-02-20T14:48:58Z</time>
      </trkpt>
      <trkpt lat="45.63152" lon="6.52851">
        <ele>2187.6</ele>
        <time>2025-02-20T14:48:59Z</time>
      </trkpt>
      <trkpt lat="45.63152" lon="6.52853">
        <ele>2187.6</ele>
        <time>2025-02-20T14:49:00Z</time>
      </trkpt>
      <trkpt lat="45.63153" lon="6.52853">
        <ele>2187.6</ele>
        <time>2025-02-20T14:49:01Z</time>
      </trkpt>
      <trkpt lat="45.63153" lon="6.52854">
        <ele>2187.6</ele>
        <time>2025-02-20T14:49:02Z</time>
      </trkpt>
      <trkpt lat="45.63153" lon="6.52855">
        <ele>2187.6</ele>
        <time>2025-02-20T14:49:03Z</time>
      </trkpt>
      <trkpt lat="45.63153" lon="6.52856">
        <ele>2187.6</ele>
        <time>2025-02-20T14:49:04Z</time>
      </trkpt>
      <trkpt lat="45.63154" lon="6.52857">
        <ele>2187.8</ele>
        <time>2025-02-20T14:49:05Z</time>
      </trkpt>
      <trkpt lat="45.63154" lon="6.52857">
        <ele>2187.8</ele>
        <time>2025-02-20T14:49:06Z</time>
      </trkpt>
      <trkpt lat="45.63154" lon="6.52857">
        <ele>2187.8</ele>
        <time>2025-02-20T14:49:07Z</time>
      </trkpt>
      <trkpt lat="45.63154" lon="6.52857">
        <ele>2188.8</ele>
        <time>2025-02-20T14:49:08Z</time>
      </trkpt>
      <trkpt lat="45.63154" lon="6.52857">
        <ele>2189</ele>
        <time>2025-02-20T14:49:09Z</time>
      </trkpt>
      <trkpt lat="45.63154" lon="6.52857">
        <ele>2189</ele>
        <time>2025-02-20T14:49:10Z</time>
      </trkpt>
      <trkpt lat="45.63154" lon="6.5286">
        <ele>2189</ele>
        <time>2025-02-20T14:49:11Z</time>
      </trkpt>
      <trkpt lat="45.63155" lon="6.52859">
        <ele>2189.2</ele>
        <time>2025-02-20T14:49:12Z</time>
      </trkpt>
      <trkpt lat="45.63154" lon="6.52861">
        <ele>2188.8</ele>
        <time>2025-02-20T14:49:13Z</time>
      </trkpt>
      <trkpt lat="45.63155" lon="6.52861">
        <ele>2188.8</ele>
        <time>2025-02-20T14:49:14Z</time>
      </trkpt>
      <trkpt lat="45.63155" lon="6.52861">
        <ele>2188.8</ele>
        <time>2025-02-20T14:49:15Z</time>
      </trkpt>
      <trkpt lat="45.63155" lon="6.52861">
        <ele>2188.8</ele>
        <time>2025-02-20T14:49:16Z</time>
      </trkpt>
      <trkpt lat="45.63155" lon="6.52861">
        <ele>2189.6</ele>
        <time>2025-02-20T14:49:17Z</time>
      </trkpt>
      <trkpt lat="45.63155" lon="6.52861">
        <ele>2189.6</ele>
        <time>2025-02-20T14:49:18Z</time>
      </trkpt>
      <trkpt lat="45.63155" lon="6.52861">
        <ele>2189.6</ele>
        <time>2025-02-20T14:49:19Z</time>
      </trkpt>
      <trkpt lat="45.63156" lon="6.52867">
        <ele>2190.4</ele>
        <time>2025-02-20T14:49:20Z</time>
      </trkpt>
      <trkpt lat="45.63156" lon="6.52868">
        <ele>2190.8</ele>
        <time>2025-02-20T14:49:21Z</time>
      </trkpt>
      <trkpt lat="45.63156" lon="6.52869">
        <ele>2190.8</ele>
        <time>2025-02-20T14:49:22Z</time>
      </trkpt>
      <trkpt lat="45.63156" lon="6.5287">
        <ele>2190.8</ele>
        <time>2025-02-20T14:49:23Z</time>
      </trkpt>
      <trkpt lat="45.63157" lon="6.52872">
        <ele>2190.8</ele>
        <time>2025-02-20T14:49:24Z</time>
      </trkpt>
      <trkpt lat="45.63157" lon="6.52872">
        <ele>2190.2</ele>
        <time>2025-02-20T14:49:25Z</time>
      </trkpt>
      <trkpt lat="45.63157" lon="6.52873">
        <ele>2190.2</ele>
        <time>2025-02-20T14:49:26Z</time>
      </trkpt>
      <trkpt lat="45.63157" lon="6.52873">
        <ele>2190.2</ele>
        <time>2025-02-20T14:49:27Z</time>
      </trkpt>
      <trkpt lat="45.63157" lon="6.52874">
        <ele>2190.4</ele>
        <time>2025-02-20T14:49:28Z</time>
      </trkpt>
      <trkpt lat="45.63157" lon="6.52874">
        <ele>2190.6</ele>
        <time>2025-02-20T14:49:29Z</time>
      </trkpt>
      <trkpt lat="45.63158" lon="6.52874">
        <ele>2190.6</ele>
        <time>2025-02-20T14:49:30Z</time>
      </trkpt>
      <trkpt lat="45.63158" lon="6.52874">
        <ele>2190.6</ele>
        <time>2025-02-20T14:49:31Z</time>
      </trkpt>
      <trkpt lat="45.63158" lon="6.52874">
        <ele>2191.6</ele>
        <time>2025-02-20T14:49:32Z</time>
      </trkpt>
      <trkpt lat="45.63158" lon="6.52874">
        <ele>2191.8</ele>
        <time>2025-02-20T14:49:33Z</time>
      </trkpt>
      <trkpt lat="45.63158" lon="6.52874">
        <ele>2191.8</ele>
        <time>2025-02-20T14:49:34Z</time>
      </trkpt>
      <trkpt lat="45.63158" lon="6.52874">
        <ele>2191.8</ele>
        <time>2025-02-20T14:49:35Z</time>
      </trkpt>
      <trkpt lat="45.63158" lon="6.52874">
        <ele>2192</ele>
        <time>2025-02-20T14:49:36Z</time>
      </trkpt>
      <trkpt lat="45.63158" lon="6.52874">
        <ele>2192.6</ele>
        <time>2025-02-20T14:49:37Z</time>
      </trkpt>
      <trkpt lat="45.63158" lon="6.52874">
        <ele>2192.6</ele>
        <time>2025-02-20T14:49:38Z</time>
      </trkpt>
      <trkpt lat="45.63158" lon="6.52874">
        <ele>2192.6</ele>
        <time>2025-02-20T14:49:39Z</time>
      </trkpt>
      <trkpt lat="45.63158" lon="6.52874">
        <ele>2192.6</ele>
        <time>2025-02-20T14:49:40Z</time>
      </trkpt>
      <trkpt lat="45.63159" lon="6.52873">
        <ele>2193</ele>
        <time>2025-02-20T14:49:41Z</time>
      </trkpt>
      <trkpt lat="45.63159" lon="6.52873">
        <ele>2193</ele>
        <time>2025-02-20T14:49:42Z</time>
      </trkpt>
      <trkpt lat="45.63159" lon="6.52873">
        <ele>2193</ele>
        <time>2025-02-20T14:49:43Z</time>
      </trkpt>
      <trkpt lat="45.63159" lon="6.52873">
        <ele>2193</ele>
        <time>2025-02-20T14:49:44Z</time>
      </trkpt>
      <trkpt lat="45.63159" lon="6.52873">
        <ele>2193.2</ele>
        <time>2025-02-20T14:49:45Z</time>
      </trkpt>
      <trkpt lat="45.63159" lon="6.52873">
        <ele>2193.2</ele>
        <time>2025-02-20T14:49:46Z</time>
      </trkpt>
      <trkpt lat="45.63159" lon="6.52873">
        <ele>2193.2</ele>
        <time>2025-02-20T14:49:47Z</time>
      </trkpt>
      <trkpt lat="45.63161" lon="6.52873">
        <ele>2193.2</ele>
        <time>2025-02-20T14:49:48Z</time>
      </trkpt>
      <trkpt lat="45.63161" lon="6.52873">
        <ele>2192.8</ele>
        <time>2025-02-20T14:49:49Z</time>
      </trkpt>
      <trkpt lat="45.63161" lon="6.52873">
        <ele>2192.8</ele>
        <time>2025-02-20T14:49:50Z</time>
      </trkpt>
      <trkpt lat="45.63161" lon="6.52873">
        <ele>2192.8</ele>
        <time>2025-02-20T14:49:51Z</time>
      </trkpt>
      <trkpt lat="45.63161" lon="6.52873">
        <ele>2193.8</ele>
        <time>2025-02-20T14:49:52Z</time>
      </trkpt>
      <trkpt lat="45.63161" lon="6.52873">
        <ele>2194.2</ele>
        <time>2025-02-20T14:49:53Z</time>
      </trkpt>
      <trkpt lat="45.63161" lon="6.52873">
        <ele>2194.2</ele>
        <time>2025-02-20T14:49:54Z</time>
      </trkpt>
      <trkpt lat="45.63161" lon="6.52873">
        <ele>2194.2</ele>
        <time>2025-02-20T14:49:55Z</time>
      </trkpt>
      <trkpt lat="45.63161" lon="6.52873">
        <ele>2195</ele>
        <time>2025-02-20T14:49:56Z</time>
      </trkpt>
      <trkpt lat="45.63161" lon="6.52873">
        <ele>2195.2</ele>
        <time>2025-02-20T14:49:57Z</time>
      </trkpt>
      <trkpt lat="45.63161" lon="6.52873">
        <ele>2195.2</ele>
        <time>2025-02-20T14:49:58Z</time>
      </trkpt>
      <trkpt lat="45.63165" lon="6.52872">
        <ele>2195.2</ele>
        <time>2025-02-20T14:49:59Z</time>
      </trkpt>
      <trkpt lat="45.63166" lon="6.52872">
        <ele>2195.2</ele>
        <time>2025-02-20T14:50:00Z</time>
      </trkpt>
      <trkpt lat="45.63166" lon="6.52872">
        <ele>2194.6</ele>
        <time>2025-02-20T14:50:01Z</time>
      </trkpt>
      <trkpt lat="45.63166" lon="6.52872">
        <ele>2194.6</ele>
        <time>2025-02-20T14:50:02Z</time>
      </trkpt>
      <trkpt lat="45.63166" lon="6.52872">
        <ele>2194.6</ele>
        <time>2025-02-20T14:50:03Z</time>
      </trkpt>
      <trkpt lat="45.63168" lon="6.52874">
        <ele>2195.6</ele>
        <time>2025-02-20T14:50:04Z</time>
      </trkpt>
      <trkpt lat="45.63168" lon="6.52873">
        <ele>2196.4</ele>
        <time>2025-02-20T14:50:05Z</time>
      </trkpt>
      <trkpt lat="45.63168" lon="6.52873">
        <ele>2196.4</ele>
        <time>2025-02-20T14:50:06Z</time>
      </trkpt>
      <trkpt lat="45.63168" lon="6.52873">
        <ele>2196.4</ele>
        <time>2025-02-20T14:50:07Z</time>
      </trkpt>
      <trkpt lat="45.63168" lon="6.52873">
        <ele>2195.8</ele>
        <time>2025-02-20T14:50:08Z</time>
      </trkpt>
      <trkpt lat="45.63168" lon="6.52873">
        <ele>2195.2</ele>
        <time>2025-02-20T14:50:09Z</time>
      </trkpt>
      <trkpt lat="45.63168" lon="6.52873">
        <ele>2195.2</ele>
        <time>2025-02-20T14:50:10Z</time>
      </trkpt>
      <trkpt lat="45.63168" lon="6.52873">
        <ele>2195.2</ele>
        <time>2025-02-20T14:50:11Z</time>
      </trkpt>
      <trkpt lat="45.6317" lon="6.52874">
        <ele>2196.2</ele>
        <time>2025-02-20T14:50:12Z</time>
      </trkpt>
      <trkpt lat="45.63171" lon="6.52874">
        <ele>2197.4</ele>
        <time>2025-02-20T14:50:13Z</time>
      </trkpt>
      <trkpt lat="45.63171" lon="6.52874">
        <ele>2197.4</ele>
        <time>2025-02-20T14:50:14Z</time>
      </trkpt>
      <trkpt lat="45.63171" lon="6.52874">
        <ele>2197.4</ele>
        <time>2025-02-20T14:50:15Z</time>
      </trkpt>
      <trkpt lat="45.63171" lon="6.52874">
        <ele>2197.4</ele>
        <time>2025-02-20T14:50:16Z</time>
      </trkpt>
      <trkpt lat="45.63171" lon="6.52874">
        <ele>2196.8</ele>
        <time>2025-02-20T14:50:17Z</time>
      </trkpt>
      <trkpt lat="45.63171" lon="6.52874">
        <ele>2196.8</ele>
        <time>2025-02-20T14:50:18Z</time>
      </trkpt>
      <trkpt lat="45.63171" lon="6.52874">
        <ele>2196.8</ele>
        <time>2025-02-20T14:50:19Z</time>
      </trkpt>
      <trkpt lat="45.63171" lon="6.52874">
        <ele>2197.6</ele>
        <time>2025-02-20T14:50:20Z</time>
      </trkpt>
      <trkpt lat="45.63171" lon="6.52874">
        <ele>2198.6</ele>
        <time>2025-02-20T14:50:21Z</time>
      </trkpt>
      <trkpt lat="45.63173" lon="6.52876">
        <ele>2198.6</ele>
        <time>2025-02-20T14:50:22Z</time>
      </trkpt>
      <trkpt lat="45.63173" lon="6.52876">
        <ele>2198.6</ele>
        <time>2025-02-20T14:50:23Z</time>
      </trkpt>
      <trkpt lat="45.63174" lon="6.52877">
        <ele>2198.6</ele>
        <time>2025-02-20T14:50:24Z</time>
      </trkpt>
      <trkpt lat="45.63174" lon="6.52878">
        <ele>2198.2</ele>
        <time>2025-02-20T14:50:25Z</time>
      </trkpt>
      <trkpt lat="45.63174" lon="6.52879">
        <ele>2198.2</ele>
        <time>2025-02-20T14:50:26Z</time>
      </trkpt>
      <trkpt lat="45.63174" lon="6.5288">
        <ele>2198.2</ele>
        <time>2025-02-20T14:50:27Z</time>
      </trkpt>
      <trkpt lat="45.63174" lon="6.52882">
        <ele>2198.2</ele>
        <time>2025-02-20T14:50:28Z</time>
      </trkpt>
      <trkpt lat="45.63174" lon="6.52883">
        <ele>2198</ele>
        <time>2025-02-20T14:50:29Z</time>
      </trkpt>
      <trkpt lat="45.63174" lon="6.52884">
        <ele>2198</ele>
        <time>2025-02-20T14:50:30Z</time>
      </trkpt>
      <trkpt lat="45.63174" lon="6.52884">
        <ele>2198</ele>
        <time>2025-02-20T14:50:31Z</time>
      </trkpt>
      <trkpt lat="45.63175" lon="6.52886">
        <ele>2199</ele>
        <time>2025-02-20T14:50:32Z</time>
      </trkpt>
      <trkpt lat="45.63175" lon="6.52886">
        <ele>2199.2</ele>
        <time>2025-02-20T14:50:33Z</time>
      </trkpt>
      <trkpt lat="45.63175" lon="6.52887">
        <ele>2199.2</ele>
        <time>2025-02-20T14:50:34Z</time>
      </trkpt>
      <trkpt lat="45.63175" lon="6.52888">
        <ele>2199.2</ele>
        <time>2025-02-20T14:50:35Z</time>
      </trkpt>
      <trkpt lat="45.63175" lon="6.52888">
        <ele>2199.2</ele>
        <time>2025-02-20T14:50:36Z</time>
      </trkpt>
      <trkpt lat="45.63175" lon="6.52888">
        <ele>2199.8</ele>
        <time>2025-02-20T14:50:37Z</time>
      </trkpt>
      <trkpt lat="45.63175" lon="6.52888">
        <ele>2199.8</ele>
        <time>2025-02-20T14:50:38Z</time>
      </trkpt>
      <trkpt lat="45.63175" lon="6.52888">
        <ele>2199.8</ele>
        <time>2025-02-20T14:50:39Z</time>
      </trkpt>
      <trkpt lat="45.63175" lon="6.52888">
        <ele>2200.8</ele>
        <time>2025-02-20T14:50:40Z</time>
      </trkpt>
      <trkpt lat="45.63177" lon="6.52893">
        <ele>2200.8</ele>
        <time>2025-02-20T14:50:41Z</time>
      </trkpt>
      <trkpt lat="45.63177" lon="6.52893">
        <ele>2200.8</ele>
        <time>2025-02-20T14:50:42Z</time>
      </trkpt>
      <trkpt lat="45.63178" lon="6.52893">
        <ele>2200.8</ele>
        <time>2025-02-20T14:50:43Z</time>
      </trkpt>
      <trkpt lat="45.63178" lon="6.52893">
        <ele>2200.8</ele>
        <time>2025-02-20T14:50:44Z</time>
      </trkpt>
      <trkpt lat="45.63178" lon="6.52893">
        <ele>2200.6</ele>
        <time>2025-02-20T14:50:45Z</time>
      </trkpt>
      <trkpt lat="45.63178" lon="6.52893">
        <ele>2200.6</ele>
        <time>2025-02-20T14:50:46Z</time>
      </trkpt>
      <trkpt lat="45.63178" lon="6.52893">
        <ele>2200.6</ele>
        <time>2025-02-20T14:50:47Z</time>
      </trkpt>
      <trkpt lat="45.63179" lon="6.52895">
        <ele>2200.6</ele>
        <time>2025-02-20T14:50:48Z</time>
      </trkpt>
      <trkpt lat="45.63178" lon="6.52896">
        <ele>2201.8</ele>
        <time>2025-02-20T14:50:49Z</time>
      </trkpt>
      <trkpt lat="45.63179" lon="6.52897">
        <ele>2201.8</ele>
        <time>2025-02-20T14:50:50Z</time>
      </trkpt>
      <trkpt lat="45.63178" lon="6.52897">
        <ele>2201.8</ele>
        <time>2025-02-20T14:50:51Z</time>
      </trkpt>
      <trkpt lat="45.63178" lon="6.52898">
        <ele>2201.8</ele>
        <time>2025-02-20T14:50:52Z</time>
      </trkpt>
      <trkpt lat="45.63178" lon="6.52899">
        <ele>2202.6</ele>
        <time>2025-02-20T14:50:53Z</time>
      </trkpt>
      <trkpt lat="45.63178" lon="6.529">
        <ele>2202.6</ele>
        <time>2025-02-20T14:50:54Z</time>
      </trkpt>
      <trkpt lat="45.63178" lon="6.52901">
        <ele>2202.6</ele>
        <time>2025-02-20T14:50:55Z</time>
      </trkpt>
      <trkpt lat="45.63178" lon="6.52902">
        <ele>2202.6</ele>
        <time>2025-02-20T14:50:56Z</time>
      </trkpt>
      <trkpt lat="45.63178" lon="6.52902">
        <ele>2202.8</ele>
        <time>2025-02-20T14:50:57Z</time>
      </trkpt>
      <trkpt lat="45.63178" lon="6.52903">
        <ele>2202.8</ele>
        <time>2025-02-20T14:50:58Z</time>
      </trkpt>
      <trkpt lat="45.63178" lon="6.52904">
        <ele>2202.8</ele>
        <time>2025-02-20T14:50:59Z</time>
      </trkpt>
      <trkpt lat="45.63178" lon="6.52904">
        <ele>2203</ele>
        <time>2025-02-20T14:51:00Z</time>
      </trkpt>
      <trkpt lat="45.63178" lon="6.52905">
        <ele>2203.8</ele>
        <time>2025-02-20T14:51:01Z</time>
      </trkpt>
      <trkpt lat="45.63178" lon="6.52906">
        <ele>2203.8</ele>
        <time>2025-02-20T14:51:02Z</time>
      </trkpt>
      <trkpt lat="45.63178" lon="6.52906">
        <ele>2203.8</ele>
        <time>2025-02-20T14:51:03Z</time>
      </trkpt>
      <trkpt lat="45.63179" lon="6.52907">
        <ele>2202.8</ele>
        <time>2025-02-20T14:51:04Z</time>
      </trkpt>
      <trkpt lat="45.63179" lon="6.52907">
        <ele>2203.6</ele>
        <time>2025-02-20T14:51:05Z</time>
      </trkpt>
      <trkpt lat="45.6318" lon="6.52908">
        <ele>2203.6</ele>
        <time>2025-02-20T14:51:06Z</time>
      </trkpt>
      <trkpt lat="45.6318" lon="6.52908">
        <ele>2203.6</ele>
        <time>2025-02-20T14:51:07Z</time>
      </trkpt>
      <trkpt lat="45.6318" lon="6.52908">
        <ele>2203.6</ele>
        <time>2025-02-20T14:51:08Z</time>
      </trkpt>
      <trkpt lat="45.63181" lon="6.52908">
        <ele>2203.4</ele>
        <time>2025-02-20T14:51:09Z</time>
      </trkpt>
      <trkpt lat="45.63181" lon="6.52909">
        <ele>2203.4</ele>
        <time>2025-02-20T14:51:10Z</time>
      </trkpt>
      <trkpt lat="45.63181" lon="6.52909">
        <ele>2203.4</ele>
        <time>2025-02-20T14:51:11Z</time>
      </trkpt>
      <trkpt lat="45.63181" lon="6.52909">
        <ele>2203.4</ele>
        <time>2025-02-20T14:51:12Z</time>
      </trkpt>
      <trkpt lat="45.63181" lon="6.52909">
        <ele>2203.4</ele>
        <time>2025-02-20T14:51:13Z</time>
      </trkpt>
      <trkpt lat="45.63183" lon="6.52909">
        <ele>2203.4</ele>
        <time>2025-02-20T14:51:14Z</time>
      </trkpt>
      <trkpt lat="45.63183" lon="6.5291">
        <ele>2203.4</ele>
        <time>2025-02-20T14:51:15Z</time>
      </trkpt>
      <trkpt lat="45.63184" lon="6.5291">
        <ele>2204</ele>
        <time>2025-02-20T14:51:16Z</time>
      </trkpt>
      <trkpt lat="45.63184" lon="6.5291">
        <ele>2204.4</ele>
        <time>2025-02-20T14:51:17Z</time>
      </trkpt>
      <trkpt lat="45.63185" lon="6.52911">
        <ele>2204.4</ele>
        <time>2025-02-20T14:51:18Z</time>
      </trkpt>
      <trkpt lat="45.63186" lon="6.52911">
        <ele>2204.4</ele>
        <time>2025-02-20T14:51:19Z</time>
      </trkpt>
      <trkpt lat="45.63186" lon="6.52911">
        <ele>2204.4</ele>
        <time>2025-02-20T14:51:20Z</time>
      </trkpt>
      <trkpt lat="45.63187" lon="6.52911">
        <ele>2204.8</ele>
        <time>2025-02-20T14:51:21Z</time>
      </trkpt>
      <trkpt lat="45.63187" lon="6.52912">
        <ele>2204.8</ele>
        <time>2025-02-20T14:51:22Z</time>
      </trkpt>
      <trkpt lat="45.63187" lon="6.52912">
        <ele>2204.8</ele>
        <time>2025-02-20T14:51:23Z</time>
      </trkpt>
      <trkpt lat="45.63187" lon="6.52912">
        <ele>2203.8</ele>
        <time>2025-02-20T14:51:24Z</time>
      </trkpt>
      <trkpt lat="45.63188" lon="6.52913">
        <ele>2204.6</ele>
        <time>2025-02-20T14:51:25Z</time>
      </trkpt>
      <trkpt lat="45.63188" lon="6.52913">
        <ele>2204.6</ele>
        <time>2025-02-20T14:51:26Z</time>
      </trkpt>
      <trkpt lat="45.63188" lon="6.52913">
        <ele>2204.6</ele>
        <time>2025-02-20T14:51:27Z</time>
      </trkpt>
      <trkpt lat="45.63188" lon="6.52913">
        <ele>2204.6</ele>
        <time>2025-02-20T14:51:28Z</time>
      </trkpt>
      <trkpt lat="45.63189" lon="6.52915">
        <ele>2204.8</ele>
        <time>2025-02-20T14:51:29Z</time>
      </trkpt>
      <trkpt lat="45.63189" lon="6.52916">
        <ele>2204.8</ele>
        <time>2025-02-20T14:51:30Z</time>
      </trkpt>
      <trkpt lat="45.63189" lon="6.52917">
        <ele>2204.8</ele>
        <time>2025-02-20T14:51:31Z</time>
      </trkpt>
      <trkpt lat="45.63189" lon="6.52918">
        <ele>2204.8</ele>
        <time>2025-02-20T14:51:32Z</time>
      </trkpt>
      <trkpt lat="45.63189" lon="6.52919">
        <ele>2205.8</ele>
        <time>2025-02-20T14:51:33Z</time>
      </trkpt>
      <trkpt lat="45.63189" lon="6.52919">
        <ele>2205.8</ele>
        <time>2025-02-20T14:51:34Z</time>
      </trkpt>
      <trkpt lat="45.6319" lon="6.52919">
        <ele>2205.8</ele>
        <time>2025-02-20T14:51:35Z</time>
      </trkpt>
      <trkpt lat="45.6319" lon="6.52919">
        <ele>2205.8</ele>
        <time>2025-02-20T14:51:36Z</time>
      </trkpt>
      <trkpt lat="45.6319" lon="6.52921">
        <ele>2206.2</ele>
        <time>2025-02-20T14:51:37Z</time>
      </trkpt>
      <trkpt lat="45.6319" lon="6.52921">
        <ele>2206.2</ele>
        <time>2025-02-20T14:51:38Z</time>
      </trkpt>
      <trkpt lat="45.6319" lon="6.52921">
        <ele>2206.2</ele>
        <time>2025-02-20T14:51:39Z</time>
      </trkpt>
      <trkpt lat="45.6319" lon="6.52921">
        <ele>2206.8</ele>
        <time>2025-02-20T14:51:40Z</time>
      </trkpt>
      <trkpt lat="45.63191" lon="6.52923">
        <ele>2206.4</ele>
        <time>2025-02-20T14:51:41Z</time>
      </trkpt>
      <trkpt lat="45.63191" lon="6.52924">
        <ele>2206.4</ele>
        <time>2025-02-20T14:51:42Z</time>
      </trkpt>
      <trkpt lat="45.63192" lon="6.52925">
        <ele>2206.4</ele>
        <time>2025-02-20T14:51:43Z</time>
      </trkpt>
      <trkpt lat="45.63192" lon="6.52925">
        <ele>2207.4</ele>
        <time>2025-02-20T14:51:44Z</time>
      </trkpt>
      <trkpt lat="45.63193" lon="6.52926">
        <ele>2206.6</ele>
        <time>2025-02-20T14:51:45Z</time>
      </trkpt>
      <trkpt lat="45.63194" lon="6.52926">
        <ele>2206.6</ele>
        <time>2025-02-20T14:51:46Z</time>
      </trkpt>
      <trkpt lat="45.63194" lon="6.52927">
        <ele>2206.6</ele>
        <time>2025-02-20T14:51:47Z</time>
      </trkpt>
      <trkpt lat="45.63194" lon="6.52927">
        <ele>2207.6</ele>
        <time>2025-02-20T14:51:48Z</time>
      </trkpt>
      <trkpt lat="45.63195" lon="6.52928">
        <ele>2207.6</ele>
        <time>2025-02-20T14:51:49Z</time>
      </trkpt>
      <trkpt lat="45.63196" lon="6.52928">
        <ele>2207.6</ele>
        <time>2025-02-20T14:51:50Z</time>
      </trkpt>
      <trkpt lat="45.63196" lon="6.52928">
        <ele>2207.6</ele>
        <time>2025-02-20T14:51:51Z</time>
      </trkpt>
      <trkpt lat="45.63196" lon="6.52929">
        <ele>2208.6</ele>
        <time>2025-02-20T14:51:52Z</time>
      </trkpt>
      <trkpt lat="45.63197" lon="6.52929">
        <ele>2207.6</ele>
        <time>2025-02-20T14:51:53Z</time>
      </trkpt>
      <trkpt lat="45.63197" lon="6.52929">
        <ele>2207.6</ele>
        <time>2025-02-20T14:51:54Z</time>
      </trkpt>
      <trkpt lat="45.63197" lon="6.52929">
        <ele>2207.6</ele>
        <time>2025-02-20T14:51:55Z</time>
      </trkpt>
      <trkpt lat="45.63197" lon="6.52929">
        <ele>2207.6</ele>
        <time>2025-02-20T14:51:56Z</time>
      </trkpt>
      <trkpt lat="45.63197" lon="6.52929">
        <ele>2208.6</ele>
        <time>2025-02-20T14:51:57Z</time>
      </trkpt>
      <trkpt lat="45.63198" lon="6.52929">
        <ele>2208.6</ele>
        <time>2025-02-20T14:51:58Z</time>
      </trkpt>
      <trkpt lat="45.63199" lon="6.5293">
        <ele>2208.6</ele>
        <time>2025-02-20T14:51:59Z</time>
      </trkpt>
      <trkpt lat="45.63199" lon="6.5293">
        <ele>2208.6</ele>
        <time>2025-02-20T14:52:00Z</time>
      </trkpt>
      <trkpt lat="45.632" lon="6.52931">
        <ele>2209.2</ele>
        <time>2025-02-20T14:52:01Z</time>
      </trkpt>
      <trkpt lat="45.63201" lon="6.52931">
        <ele>2209.2</ele>
        <time>2025-02-20T14:52:02Z</time>
      </trkpt>
      <trkpt lat="45.63201" lon="6.52932">
        <ele>2209.2</ele>
        <time>2025-02-20T14:52:03Z</time>
      </trkpt>
      <trkpt lat="45.63202" lon="6.52933">
        <ele>2209.2</ele>
        <time>2025-02-20T14:52:04Z</time>
      </trkpt>
      <trkpt lat="45.63202" lon="6.52934">
        <ele>2209.8</ele>
        <time>2025-02-20T14:52:05Z</time>
      </trkpt>
      <trkpt lat="45.63203" lon="6.52934">
        <ele>2209.8</ele>
        <time>2025-02-20T14:52:06Z</time>
      </trkpt>
      <trkpt lat="45.63203" lon="6.52935">
        <ele>2209.8</ele>
        <time>2025-02-20T14:52:07Z</time>
      </trkpt>
      <trkpt lat="45.63203" lon="6.52936">
        <ele>2209.8</ele>
        <time>2025-02-20T14:52:08Z</time>
      </trkpt>
      <trkpt lat="45.63204" lon="6.52936">
        <ele>2209.8</ele>
        <time>2025-02-20T14:52:09Z</time>
      </trkpt>
      <trkpt lat="45.63205" lon="6.52937">
        <ele>2209.8</ele>
        <time>2025-02-20T14:52:10Z</time>
      </trkpt>
      <trkpt lat="45.63206" lon="6.52937">
        <ele>2209.8</ele>
        <time>2025-02-20T14:52:11Z</time>
      </trkpt>
      <trkpt lat="45.63206" lon="6.52938">
        <ele>2210</ele>
        <time>2025-02-20T14:52:12Z</time>
      </trkpt>
      <trkpt lat="45.63206" lon="6.52938">
        <ele>2210.4</ele>
        <time>2025-02-20T14:52:13Z</time>
      </trkpt>
      <trkpt lat="45.63206" lon="6.52938">
        <ele>2210.4</ele>
        <time>2025-02-20T14:52:14Z</time>
      </trkpt>
      <trkpt lat="45.63207" lon="6.52939">
        <ele>2210.4</ele>
        <time>2025-02-20T14:52:15Z</time>
      </trkpt>
      <trkpt lat="45.63208" lon="6.52939">
        <ele>2210.4</ele>
        <time>2025-02-20T14:52:16Z</time>
      </trkpt>
      <trkpt lat="45.63209" lon="6.5294">
        <ele>2210.8</ele>
        <time>2025-02-20T14:52:17Z</time>
      </trkpt>
      <trkpt lat="45.6321" lon="6.5294">
        <ele>2210.8</ele>
        <time>2025-02-20T14:52:18Z</time>
      </trkpt>
      <trkpt lat="45.6321" lon="6.5294">
        <ele>2210.8</ele>
        <time>2025-02-20T14:52:19Z</time>
      </trkpt>
      <trkpt lat="45.6321" lon="6.5294">
        <ele>2210.8</ele>
        <time>2025-02-20T14:52:20Z</time>
      </trkpt>
      <trkpt lat="45.63211" lon="6.52942">
        <ele>2210.2</ele>
        <time>2025-02-20T14:52:21Z</time>
      </trkpt>
      <trkpt lat="45.63212" lon="6.52942">
        <ele>2210.2</ele>
        <time>2025-02-20T14:52:22Z</time>
      </trkpt>
      <trkpt lat="45.63212" lon="6.52943">
        <ele>2210.2</ele>
        <time>2025-02-20T14:52:23Z</time>
      </trkpt>
      <trkpt lat="45.63212" lon="6.52943">
        <ele>2210.2</ele>
        <time>2025-02-20T14:52:24Z</time>
      </trkpt>
      <trkpt lat="45.63213" lon="6.52944">
        <ele>2211</ele>
        <time>2025-02-20T14:52:25Z</time>
      </trkpt>
      <trkpt lat="45.63214" lon="6.52944">
        <ele>2211</ele>
        <time>2025-02-20T14:52:26Z</time>
      </trkpt>
      <trkpt lat="45.63214" lon="6.52944">
        <ele>2211</ele>
        <time>2025-02-20T14:52:27Z</time>
      </trkpt>
      <trkpt lat="45.63214" lon="6.52944">
        <ele>2211.4</ele>
        <time>2025-02-20T14:52:28Z</time>
      </trkpt>
      <trkpt lat="45.63216" lon="6.52944">
        <ele>2212.2</ele>
        <time>2025-02-20T14:52:29Z</time>
      </trkpt>
      <trkpt lat="45.63216" lon="6.52944">
        <ele>2212.2</ele>
        <time>2025-02-20T14:52:30Z</time>
      </trkpt>
      <trkpt lat="45.63217" lon="6.52945">
        <ele>2212.2</ele>
        <time>2025-02-20T14:52:31Z</time>
      </trkpt>
      <trkpt lat="45.63218" lon="6.52946">
        <ele>2212.2</ele>
        <time>2025-02-20T14:52:32Z</time>
      </trkpt>
      <trkpt lat="45.63219" lon="6.52946">
        <ele>2212</ele>
        <time>2025-02-20T14:52:33Z</time>
      </trkpt>
      <trkpt lat="45.63219" lon="6.52947">
        <ele>2212</ele>
        <time>2025-02-20T14:52:34Z</time>
      </trkpt>
      <trkpt lat="45.6322" lon="6.52947">
        <ele>2212</ele>
        <time>2025-02-20T14:52:35Z</time>
      </trkpt>
      <trkpt lat="45.6322" lon="6.52948">
        <ele>2212</ele>
        <time>2025-02-20T14:52:36Z</time>
      </trkpt>
      <trkpt lat="45.63221" lon="6.52948">
        <ele>2211.8</ele>
        <time>2025-02-20T14:52:37Z</time>
      </trkpt>
      <trkpt lat="45.63221" lon="6.52948">
        <ele>2211.8</ele>
        <time>2025-02-20T14:52:38Z</time>
      </trkpt>
      <trkpt lat="45.63222" lon="6.52949">
        <ele>2211.8</ele>
        <time>2025-02-20T14:52:39Z</time>
      </trkpt>
      <trkpt lat="45.63223" lon="6.52949">
        <ele>2211.8</ele>
        <time>2025-02-20T14:52:40Z</time>
      </trkpt>
      <trkpt lat="45.63223" lon="6.52949">
        <ele>2213</ele>
        <time>2025-02-20T14:52:41Z</time>
      </trkpt>
      <trkpt lat="45.63223" lon="6.5295">
        <ele>2213</ele>
        <time>2025-02-20T14:52:42Z</time>
      </trkpt>
      <trkpt lat="45.63223" lon="6.5295">
        <ele>2213</ele>
        <time>2025-02-20T14:52:43Z</time>
      </trkpt>
      <trkpt lat="45.63223" lon="6.5295">
        <ele>2213</ele>
        <time>2025-02-20T14:52:44Z</time>
      </trkpt>
      <trkpt lat="45.63225" lon="6.52951">
        <ele>2213.6</ele>
        <time>2025-02-20T14:52:45Z</time>
      </trkpt>
      <trkpt lat="45.63226" lon="6.52951">
        <ele>2213.6</ele>
        <time>2025-02-20T14:52:46Z</time>
      </trkpt>
      <trkpt lat="45.63226" lon="6.52952">
        <ele>2213.6</ele>
        <time>2025-02-20T14:52:47Z</time>
      </trkpt>
      <trkpt lat="45.63226" lon="6.52952">
        <ele>2212.8</ele>
        <time>2025-02-20T14:52:48Z</time>
      </trkpt>
      <trkpt lat="45.63226" lon="6.52952">
        <ele>2213.8</ele>
        <time>2025-02-20T14:52:49Z</time>
      </trkpt>
      <trkpt lat="45.63226" lon="6.52952">
        <ele>2213.8</ele>
        <time>2025-02-20T14:52:50Z</time>
      </trkpt>
      <trkpt lat="45.63226" lon="6.52952">
        <ele>2213.8</ele>
        <time>2025-02-20T14:52:51Z</time>
      </trkpt>
      <trkpt lat="45.63226" lon="6.52952">
        <ele>2213.8</ele>
        <time>2025-02-20T14:52:52Z</time>
      </trkpt>
      <trkpt lat="45.63229" lon="6.52955">
        <ele>2214.4</ele>
        <time>2025-02-20T14:52:53Z</time>
      </trkpt>
      <trkpt lat="45.63229" lon="6.52955">
        <ele>2214.4</ele>
        <time>2025-02-20T14:52:54Z</time>
      </trkpt>
      <trkpt lat="45.6323" lon="6.52956">
        <ele>2214.4</ele>
        <time>2025-02-20T14:52:55Z</time>
      </trkpt>
      <trkpt lat="45.6323" lon="6.52956">
        <ele>2214.4</ele>
        <time>2025-02-20T14:52:56Z</time>
      </trkpt>
      <trkpt lat="45.6323" lon="6.52957">
        <ele>2214</ele>
        <time>2025-02-20T14:52:57Z</time>
      </trkpt>
      <trkpt lat="45.63231" lon="6.52957">
        <ele>2214</ele>
        <time>2025-02-20T14:52:58Z</time>
      </trkpt>
      <trkpt lat="45.63231" lon="6.52957">
        <ele>2214</ele>
        <time>2025-02-20T14:52:59Z</time>
      </trkpt>
      <trkpt lat="45.63232" lon="6.52957">
        <ele>2214</ele>
        <time>2025-02-20T14:53:00Z</time>
      </trkpt>
      <trkpt lat="45.63232" lon="6.52957">
        <ele>2214.2</ele>
        <time>2025-02-20T14:53:01Z</time>
      </trkpt>
      <trkpt lat="45.63233" lon="6.52958">
        <ele>2214.2</ele>
        <time>2025-02-20T14:53:02Z</time>
      </trkpt>
      <trkpt lat="45.63233" lon="6.52959">
        <ele>2214.2</ele>
        <time>2025-02-20T14:53:03Z</time>
      </trkpt>
      <trkpt lat="45.63234" lon="6.52959">
        <ele>2215.2</ele>
        <time>2025-02-20T14:53:04Z</time>
      </trkpt>
      <trkpt lat="45.63234" lon="6.5296">
        <ele>2215.8</ele>
        <time>2025-02-20T14:53:05Z</time>
      </trkpt>
      <trkpt lat="45.63234" lon="6.5296">
        <ele>2215.8</ele>
        <time>2025-02-20T14:53:06Z</time>
      </trkpt>
      <trkpt lat="45.63234" lon="6.5296">
        <ele>2215.8</ele>
        <time>2025-02-20T14:53:07Z</time>
      </trkpt>
      <trkpt lat="45.63235" lon="6.5296">
        <ele>2215.8</ele>
        <time>2025-02-20T14:53:08Z</time>
      </trkpt>
      <trkpt lat="45.63235" lon="6.52961">
        <ele>2216.2</ele>
        <time>2025-02-20T14:53:09Z</time>
      </trkpt>
      <trkpt lat="45.63235" lon="6.52962">
        <ele>2216.2</ele>
        <time>2025-02-20T14:53:10Z</time>
      </trkpt>
      <trkpt lat="45.63236" lon="6.52962">
        <ele>2216.2</ele>
        <time>2025-02-20T14:53:11Z</time>
      </trkpt>
      <trkpt lat="45.63236" lon="6.52962">
        <ele>2215.2</ele>
        <time>2025-02-20T14:53:12Z</time>
      </trkpt>
      <trkpt lat="45.63236" lon="6.52962">
        <ele>2215.4</ele>
        <time>2025-02-20T14:53:13Z</time>
      </trkpt>
      <trkpt lat="45.63236" lon="6.52962">
        <ele>2215.4</ele>
        <time>2025-02-20T14:53:14Z</time>
      </trkpt>
      <trkpt lat="45.63238" lon="6.52963">
        <ele>2215.4</ele>
        <time>2025-02-20T14:53:15Z</time>
      </trkpt>
      <trkpt lat="45.63238" lon="6.52964">
        <ele>2215.4</ele>
        <time>2025-02-20T14:53:16Z</time>
      </trkpt>
      <trkpt lat="45.63239" lon="6.52964">
        <ele>2216.6</ele>
        <time>2025-02-20T14:53:17Z</time>
      </trkpt>
      <trkpt lat="45.6324" lon="6.52965">
        <ele>2216.6</ele>
        <time>2025-02-20T14:53:18Z</time>
      </trkpt>
      <trkpt lat="45.6324" lon="6.52965">
        <ele>2216.6</ele>
        <time>2025-02-20T14:53:19Z</time>
      </trkpt>
      <trkpt lat="45.63241" lon="6.52965">
        <ele>2217.6</ele>
        <time>2025-02-20T14:53:20Z</time>
      </trkpt>
      <trkpt lat="45.63241" lon="6.52965">
        <ele>2217</ele>
        <time>2025-02-20T14:53:21Z</time>
      </trkpt>
      <trkpt lat="45.63241" lon="6.52966">
        <ele>2217</ele>
        <time>2025-02-20T14:53:22Z</time>
      </trkpt>
      <trkpt lat="45.63242" lon="6.52966">
        <ele>2217</ele>
        <time>2025-02-20T14:53:23Z</time>
      </trkpt>
      <trkpt lat="45.63242" lon="6.52967">
        <ele>2217.8</ele>
        <time>2025-02-20T14:53:24Z</time>
      </trkpt>
      <trkpt lat="45.63243" lon="6.52967">
        <ele>2216.4</ele>
        <time>2025-02-20T14:53:25Z</time>
      </trkpt>
      <trkpt lat="45.63243" lon="6.52968">
        <ele>2216.4</ele>
        <time>2025-02-20T14:53:26Z</time>
      </trkpt>
      <trkpt lat="45.63244" lon="6.52968">
        <ele>2216.4</ele>
        <time>2025-02-20T14:53:27Z</time>
      </trkpt>
      <trkpt lat="45.63244" lon="6.52968">
        <ele>2216.4</ele>
        <time>2025-02-20T14:53:28Z</time>
      </trkpt>
      <trkpt lat="45.63244" lon="6.52969">
        <ele>2217</ele>
        <time>2025-02-20T14:53:29Z</time>
      </trkpt>
      <trkpt lat="45.63245" lon="6.52969">
        <ele>2217</ele>
        <time>2025-02-20T14:53:30Z</time>
      </trkpt>
      <trkpt lat="45.63245" lon="6.52969">
        <ele>2217</ele>
        <time>2025-02-20T14:53:31Z</time>
      </trkpt>
      <trkpt lat="45.63246" lon="6.5297">
        <ele>2217.8</ele>
        <time>2025-02-20T14:53:32Z</time>
      </trkpt>
      <trkpt lat="45.63247" lon="6.52971">
        <ele>2217.6</ele>
        <time>2025-02-20T14:53:33Z</time>
      </trkpt>
      <trkpt lat="45.63247" lon="6.52971">
        <ele>2217.6</ele>
        <time>2025-02-20T14:53:34Z</time>
      </trkpt>
      <trkpt lat="45.63247" lon="6.52971">
        <ele>2217.6</ele>
        <time>2025-02-20T14:53:35Z</time>
      </trkpt>
      <trkpt lat="45.63247" lon="6.52971">
        <ele>2218</ele>
        <time>2025-02-20T14:53:36Z</time>
      </trkpt>
      <trkpt lat="45.63247" lon="6.52971">
        <ele>2218.4</ele>
        <time>2025-02-20T14:53:37Z</time>
      </trkpt>
      <trkpt lat="45.63247" lon="6.52971">
        <ele>2218.4</ele>
        <time>2025-02-20T14:53:38Z</time>
      </trkpt>
      <trkpt lat="45.63247" lon="6.52971">
        <ele>2218.4</ele>
        <time>2025-02-20T14:53:39Z</time>
      </trkpt>
      <trkpt lat="45.63247" lon="6.52971">
        <ele>2218.8</ele>
        <time>2025-02-20T14:53:40Z</time>
      </trkpt>
      <trkpt lat="45.63247" lon="6.52971">
        <ele>2219.2</ele>
        <time>2025-02-20T14:53:41Z</time>
      </trkpt>
      <trkpt lat="45.63249" lon="6.52974">
        <ele>2219.2</ele>
        <time>2025-02-20T14:53:42Z</time>
      </trkpt>
      <trkpt lat="45.6325" lon="6.52973">
        <ele>2219.2</ele>
        <time>2025-02-20T14:53:43Z</time>
      </trkpt>
      <trkpt lat="45.6325" lon="6.52973">
        <ele>2219.2</ele>
        <time>2025-02-20T14:53:44Z</time>
      </trkpt>
      <trkpt lat="45.6325" lon="6.52973">
        <ele>2219.8</ele>
        <time>2025-02-20T14:53:45Z</time>
      </trkpt>
      <trkpt lat="45.63252" lon="6.52975">
        <ele>2219.8</ele>
        <time>2025-02-20T14:53:46Z</time>
      </trkpt>
      <trkpt lat="45.63253" lon="6.52974">
        <ele>2219.8</ele>
        <time>2025-02-20T14:53:47Z</time>
      </trkpt>
      <trkpt lat="45.63253" lon="6.52974">
        <ele>2219.8</ele>
        <time>2025-02-20T14:53:48Z</time>
      </trkpt>
      <trkpt lat="45.63253" lon="6.52974">
        <ele>2219.8</ele>
        <time>2025-02-20T14:53:49Z</time>
      </trkpt>
      <trkpt lat="45.63253" lon="6.52974">
        <ele>2219.8</ele>
        <time>2025-02-20T14:53:50Z</time>
      </trkpt>
      <trkpt lat="45.63253" lon="6.52974">
        <ele>2219.8</ele>
        <time>2025-02-20T14:53:51Z</time>
      </trkpt>
      <trkpt lat="45.63255" lon="6.52976">
        <ele>2219.8</ele>
        <time>2025-02-20T14:53:52Z</time>
      </trkpt>
      <trkpt lat="45.63256" lon="6.52976">
        <ele>2220.2</ele>
        <time>2025-02-20T14:53:53Z</time>
      </trkpt>
      <trkpt lat="45.63256" lon="6.52976">
        <ele>2220.2</ele>
        <time>2025-02-20T14:53:54Z</time>
      </trkpt>
      <trkpt lat="45.63256" lon="6.52976">
        <ele>2220.2</ele>
        <time>2025-02-20T14:53:55Z</time>
      </trkpt>
      <trkpt lat="45.63256" lon="6.52976">
        <ele>2220.2</ele>
        <time>2025-02-20T14:53:56Z</time>
      </trkpt>
      <trkpt lat="45.63258" lon="6.52977">
        <ele>2220.2</ele>
        <time>2025-02-20T14:53:57Z</time>
      </trkpt>
      <trkpt lat="45.63258" lon="6.52977">
        <ele>2220.2</ele>
        <time>2025-02-20T14:53:58Z</time>
      </trkpt>
      <trkpt lat="45.63259" lon="6.52978">
        <ele>2220.2</ele>
        <time>2025-02-20T14:53:59Z</time>
      </trkpt>
      <trkpt lat="45.63259" lon="6.52978">
        <ele>2220.2</ele>
        <time>2025-02-20T14:54:00Z</time>
      </trkpt>
      <trkpt lat="45.63259" lon="6.52978">
        <ele>2220.4</ele>
        <time>2025-02-20T14:54:01Z</time>
      </trkpt>
      <trkpt lat="45.63259" lon="6.52978">
        <ele>2220.4</ele>
        <time>2025-02-20T14:54:02Z</time>
      </trkpt>
      <trkpt lat="45.63261" lon="6.52979">
        <ele>2220.4</ele>
        <time>2025-02-20T14:54:03Z</time>
      </trkpt>
      <trkpt lat="45.63261" lon="6.52979">
        <ele>2221.4</ele>
        <time>2025-02-20T14:54:04Z</time>
      </trkpt>
      <trkpt lat="45.63261" lon="6.52979">
        <ele>2221.6</ele>
        <time>2025-02-20T14:54:05Z</time>
      </trkpt>
      <trkpt lat="45.63261" lon="6.52979">
        <ele>2221.6</ele>
        <time>2025-02-20T14:54:06Z</time>
      </trkpt>
      <trkpt lat="45.63261" lon="6.52979">
        <ele>2221.6</ele>
        <time>2025-02-20T14:54:07Z</time>
      </trkpt>
      <trkpt lat="45.63261" lon="6.52979">
        <ele>2221.6</ele>
        <time>2025-02-20T14:54:08Z</time>
      </trkpt>
      <trkpt lat="45.63261" lon="6.52979">
        <ele>2222</ele>
        <time>2025-02-20T14:54:09Z</time>
      </trkpt>
      <trkpt lat="45.63261" lon="6.52979">
        <ele>2222</ele>
        <time>2025-02-20T14:54:10Z</time>
      </trkpt>
      <trkpt lat="45.63261" lon="6.52979">
        <ele>2222</ele>
        <time>2025-02-20T14:54:11Z</time>
      </trkpt>
      <trkpt lat="45.63261" lon="6.52979">
        <ele>2222</ele>
        <time>2025-02-20T14:54:12Z</time>
      </trkpt>
      <trkpt lat="45.63261" lon="6.52979">
        <ele>2222</ele>
        <time>2025-02-20T14:54:13Z</time>
      </trkpt>
      <trkpt lat="45.63261" lon="6.52979">
        <ele>2222</ele>
        <time>2025-02-20T14:54:14Z</time>
      </trkpt>
      <trkpt lat="45.63261" lon="6.52979">
        <ele>2222</ele>
        <time>2025-02-20T14:54:15Z</time>
      </trkpt>
      <trkpt lat="45.63261" lon="6.52979">
        <ele>2222</ele>
        <time>2025-02-20T14:54:16Z</time>
      </trkpt>
      <trkpt lat="45.63265" lon="6.52983">
        <ele>2222.2</ele>
        <time>2025-02-20T14:54:17Z</time>
      </trkpt>
      <trkpt lat="45.63266" lon="6.52983">
        <ele>2222.2</ele>
        <time>2025-02-20T14:54:18Z</time>
      </trkpt>
      <trkpt lat="45.63266" lon="6.52983">
        <ele>2222.2</ele>
        <time>2025-02-20T14:54:19Z</time>
      </trkpt>
      <trkpt lat="45.63267" lon="6.52983">
        <ele>2222.2</ele>
        <time>2025-02-20T14:54:20Z</time>
      </trkpt>
      <trkpt lat="45.63268" lon="6.52983">
        <ele>2221.4</ele>
        <time>2025-02-20T14:54:21Z</time>
      </trkpt>
      <trkpt lat="45.63269" lon="6.52984">
        <ele>2221.4</ele>
        <time>2025-02-20T14:54:22Z</time>
      </trkpt>
      <trkpt lat="45.6327" lon="6.52983">
        <ele>2221.4</ele>
        <time>2025-02-20T14:54:23Z</time>
      </trkpt>
      <trkpt lat="45.63271" lon="6.52983">
        <ele>2222.4</ele>
        <time>2025-02-20T14:54:24Z</time>
      </trkpt>
      <trkpt lat="45.63271" lon="6.52983">
        <ele>2223.4</ele>
        <time>2025-02-20T14:54:25Z</time>
      </trkpt>
      <trkpt lat="45.63271" lon="6.52983">
        <ele>2223.4</ele>
        <time>2025-02-20T14:54:26Z</time>
      </trkpt>
      <trkpt lat="45.63273" lon="6.52984">
        <ele>2223.4</ele>
        <time>2025-02-20T14:54:27Z</time>
      </trkpt>
      <trkpt lat="45.63274" lon="6.52984">
        <ele>2223.4</ele>
        <time>2025-02-20T14:54:28Z</time>
      </trkpt>
      <trkpt lat="45.63274" lon="6.52984">
        <ele>2223.8</ele>
        <time>2025-02-20T14:54:29Z</time>
      </trkpt>
      <trkpt lat="45.63275" lon="6.52984">
        <ele>2223.8</ele>
        <time>2025-02-20T14:54:30Z</time>
      </trkpt>
      <trkpt lat="45.63275" lon="6.52984">
        <ele>2223.8</ele>
        <time>2025-02-20T14:54:31Z</time>
      </trkpt>
      <trkpt lat="45.63276" lon="6.52985">
        <ele>2222.8</ele>
        <time>2025-02-20T14:54:32Z</time>
      </trkpt>
      <trkpt lat="45.63277" lon="6.52986">
        <ele>2223.2</ele>
        <time>2025-02-20T14:54:33Z</time>
      </trkpt>
      <trkpt lat="45.63277" lon="6.52986">
        <ele>2223.2</ele>
        <time>2025-02-20T14:54:34Z</time>
      </trkpt>
      <trkpt lat="45.63278" lon="6.52986">
        <ele>2223.2</ele>
        <time>2025-02-20T14:54:35Z</time>
      </trkpt>
      <trkpt lat="45.63279" lon="6.52986">
        <ele>2223.8</ele>
        <time>2025-02-20T14:54:36Z</time>
      </trkpt>
      <trkpt lat="45.63279" lon="6.52986">
        <ele>2223.8</ele>
        <time>2025-02-20T14:54:37Z</time>
      </trkpt>
      <trkpt lat="45.6328" lon="6.52986">
        <ele>2223.8</ele>
        <time>2025-02-20T14:54:38Z</time>
      </trkpt>
      <trkpt lat="45.63281" lon="6.52986">
        <ele>2223.8</ele>
        <time>2025-02-20T14:54:39Z</time>
      </trkpt>
      <trkpt lat="45.63281" lon="6.52986">
        <ele>2223.8</ele>
        <time>2025-02-20T14:54:40Z</time>
      </trkpt>
      <trkpt lat="45.63282" lon="6.52986">
        <ele>2224.8</ele>
        <time>2025-02-20T14:54:41Z</time>
      </trkpt>
      <trkpt lat="45.63283" lon="6.52986">
        <ele>2224.8</ele>
        <time>2025-02-20T14:54:42Z</time>
      </trkpt>
      <trkpt lat="45.63283" lon="6.52986">
        <ele>2224.8</ele>
        <time>2025-02-20T14:54:43Z</time>
      </trkpt>
      <trkpt lat="45.63283" lon="6.52986">
        <ele>2224.8</ele>
        <time>2025-02-20T14:54:44Z</time>
      </trkpt>
      <trkpt lat="45.63283" lon="6.52986">
        <ele>2225</ele>
        <time>2025-02-20T14:54:45Z</time>
      </trkpt>
      <trkpt lat="45.63283" lon="6.52986">
        <ele>2225</ele>
        <time>2025-02-20T14:54:46Z</time>
      </trkpt>
      <trkpt lat="45.63283" lon="6.52986">
        <ele>2225</ele>
        <time>2025-02-20T14:54:47Z</time>
      </trkpt>
      <trkpt lat="45.63283" lon="6.52986">
        <ele>2225</ele>
        <time>2025-02-20T14:54:48Z</time>
      </trkpt>
      <trkpt lat="45.63285" lon="6.52984">
        <ele>2225.4</ele>
        <time>2025-02-20T14:54:49Z</time>
      </trkpt>
      <trkpt lat="45.63286" lon="6.52984">
        <ele>2225.4</ele>
        <time>2025-02-20T14:54:50Z</time>
      </trkpt>
      <trkpt lat="45.63287" lon="6.52984">
        <ele>2225.4</ele>
        <time>2025-02-20T14:54:51Z</time>
      </trkpt>
      <trkpt lat="45.63287" lon="6.52984">
        <ele>2225.4</ele>
        <time>2025-02-20T14:54:52Z</time>
      </trkpt>
      <trkpt lat="45.63288" lon="6.52984">
        <ele>2226.6</ele>
        <time>2025-02-20T14:54:53Z</time>
      </trkpt>
      <trkpt lat="45.63288" lon="6.52984">
        <ele>2226.6</ele>
        <time>2025-02-20T14:54:54Z</time>
      </trkpt>
      <trkpt lat="45.63288" lon="6.52984">
        <ele>2226.6</ele>
        <time>2025-02-20T14:54:55Z</time>
      </trkpt>
      <trkpt lat="45.63289" lon="6.52983">
        <ele>2226.2</ele>
        <time>2025-02-20T14:54:56Z</time>
      </trkpt>
      <trkpt lat="45.63289" lon="6.52984">
        <ele>2227.2</ele>
        <time>2025-02-20T14:54:57Z</time>
      </trkpt>
      <trkpt lat="45.6329" lon="6.52984">
        <ele>2227.2</ele>
        <time>2025-02-20T14:54:58Z</time>
      </trkpt>
      <trkpt lat="45.6329" lon="6.52984">
        <ele>2227.2</ele>
        <time>2025-02-20T14:54:59Z</time>
      </trkpt>
      <trkpt lat="45.63291" lon="6.52984">
        <ele>2227.2</ele>
        <time>2025-02-20T14:55:00Z</time>
      </trkpt>
      <trkpt lat="45.63291" lon="6.52984">
        <ele>2227.6</ele>
        <time>2025-02-20T14:55:01Z</time>
      </trkpt>
      <trkpt lat="45.63291" lon="6.52984">
        <ele>2227.6</ele>
        <time>2025-02-20T14:55:02Z</time>
      </trkpt>
      <trkpt lat="45.63291" lon="6.52984">
        <ele>2227.6</ele>
        <time>2025-02-20T14:55:03Z</time>
      </trkpt>
      <trkpt lat="45.63291" lon="6.52984">
        <ele>2227.6</ele>
        <time>2025-02-20T14:55:04Z</time>
      </trkpt>
      <trkpt lat="45.63291" lon="6.52984">
        <ele>2228</ele>
        <time>2025-02-20T14:55:05Z</time>
      </trkpt>
      <trkpt lat="45.63291" lon="6.52984">
        <ele>2228</ele>
        <time>2025-02-20T14:55:06Z</time>
      </trkpt>
      <trkpt lat="45.63294" lon="6.52983">
        <ele>2228</ele>
        <time>2025-02-20T14:55:07Z</time>
      </trkpt>
      <trkpt lat="45.63294" lon="6.52984">
        <ele>2227</ele>
        <time>2025-02-20T14:55:08Z</time>
      </trkpt>
      <trkpt lat="45.63295" lon="6.52984">
        <ele>2227.2</ele>
        <time>2025-02-20T14:55:09Z</time>
      </trkpt>
      <trkpt lat="45.63295" lon="6.52984">
        <ele>2227.2</ele>
        <time>2025-02-20T14:55:10Z</time>
      </trkpt>
      <trkpt lat="45.63296" lon="6.52984">
        <ele>2227.2</ele>
        <time>2025-02-20T14:55:11Z</time>
      </trkpt>
      <trkpt lat="45.63296" lon="6.52984">
        <ele>2227.8</ele>
        <time>2025-02-20T14:55:12Z</time>
      </trkpt>
      <trkpt lat="45.63297" lon="6.52984">
        <ele>2227.2</ele>
        <time>2025-02-20T14:55:13Z</time>
      </trkpt>
      <trkpt lat="45.63297" lon="6.52985">
        <ele>2227.2</ele>
        <time>2025-02-20T14:55:14Z</time>
      </trkpt>
      <trkpt lat="45.63297" lon="6.52985">
        <ele>2227.2</ele>
        <time>2025-02-20T14:55:15Z</time>
      </trkpt>
      <trkpt lat="45.63297" lon="6.52985">
        <ele>2227.2</ele>
        <time>2025-02-20T14:55:16Z</time>
      </trkpt>
      <trkpt lat="45.63297" lon="6.52985">
        <ele>2229</ele>
        <time>2025-02-20T14:55:17Z</time>
      </trkpt>
      <trkpt lat="45.63297" lon="6.52985">
        <ele>2229</ele>
        <time>2025-02-20T14:55:18Z</time>
      </trkpt>
      <trkpt lat="45.63299" lon="6.52985">
        <ele>2229</ele>
        <time>2025-02-20T14:55:19Z</time>
      </trkpt>
      <trkpt lat="45.63299" lon="6.52985">
        <ele>2228.2</ele>
        <time>2025-02-20T14:55:20Z</time>
      </trkpt>
      <trkpt lat="45.633" lon="6.52986">
        <ele>2228.8</ele>
        <time>2025-02-20T14:55:21Z</time>
      </trkpt>
      <trkpt lat="45.633" lon="6.52986">
        <ele>2228.8</ele>
        <time>2025-02-20T14:55:22Z</time>
      </trkpt>
      <trkpt lat="45.633" lon="6.52986">
        <ele>2228.8</ele>
        <time>2025-02-20T14:55:23Z</time>
      </trkpt>
      <trkpt lat="45.63301" lon="6.52987">
        <ele>2229.4</ele>
        <time>2025-02-20T14:55:24Z</time>
      </trkpt>
      <trkpt lat="45.63302" lon="6.52987">
        <ele>2228</ele>
        <time>2025-02-20T14:55:25Z</time>
      </trkpt>
      <trkpt lat="45.63302" lon="6.52987">
        <ele>2228</ele>
        <time>2025-02-20T14:55:26Z</time>
      </trkpt>
      <trkpt lat="45.63303" lon="6.52987">
        <ele>2228</ele>
        <time>2025-02-20T14:55:27Z</time>
      </trkpt>
      <trkpt lat="45.63303" lon="6.52987">
        <ele>2229</ele>
        <time>2025-02-20T14:55:28Z</time>
      </trkpt>
      <trkpt lat="45.63304" lon="6.52988">
        <ele>2229.8</ele>
        <time>2025-02-20T14:55:29Z</time>
      </trkpt>
      <trkpt lat="45.63304" lon="6.52988">
        <ele>2229.8</ele>
        <time>2025-02-20T14:55:30Z</time>
      </trkpt>
      <trkpt lat="45.63305" lon="6.52988">
        <ele>2229.8</ele>
        <time>2025-02-20T14:55:31Z</time>
      </trkpt>
      <trkpt lat="45.63305" lon="6.52988">
        <ele>2228.8</ele>
        <time>2025-02-20T14:55:32Z</time>
      </trkpt>
      <trkpt lat="45.63306" lon="6.52988">
        <ele>2230.2</ele>
        <time>2025-02-20T14:55:33Z</time>
      </trkpt>
      <trkpt lat="45.63306" lon="6.52988">
        <ele>2230.2</ele>
        <time>2025-02-20T14:55:34Z</time>
      </trkpt>
      <trkpt lat="45.63307" lon="6.52988">
        <ele>2230.2</ele>
        <time>2025-02-20T14:55:35Z</time>
      </trkpt>
      <trkpt lat="45.63308" lon="6.52988">
        <ele>2230.2</ele>
        <time>2025-02-20T14:55:36Z</time>
      </trkpt>
      <trkpt lat="45.63309" lon="6.52989">
        <ele>2230.2</ele>
        <time>2025-02-20T14:55:37Z</time>
      </trkpt>
      <trkpt lat="45.6331" lon="6.52989">
        <ele>2230.2</ele>
        <time>2025-02-20T14:55:38Z</time>
      </trkpt>
      <trkpt lat="45.63311" lon="6.52989">
        <ele>2230.2</ele>
        <time>2025-02-20T14:55:39Z</time>
      </trkpt>
      <trkpt lat="45.63311" lon="6.52989">
        <ele>2230.2</ele>
        <time>2025-02-20T14:55:40Z</time>
      </trkpt>
      <trkpt lat="45.63312" lon="6.5299">
        <ele>2230.2</ele>
        <time>2025-02-20T14:55:41Z</time>
      </trkpt>
      <trkpt lat="45.63313" lon="6.5299">
        <ele>2230.2</ele>
        <time>2025-02-20T14:55:42Z</time>
      </trkpt>
      <trkpt lat="45.63313" lon="6.52991">
        <ele>2230.2</ele>
        <time>2025-02-20T14:55:43Z</time>
      </trkpt>
      <trkpt lat="45.63314" lon="6.52991">
        <ele>2231</ele>
        <time>2025-02-20T14:55:44Z</time>
      </trkpt>
      <trkpt lat="45.63314" lon="6.52992">
        <ele>2230</ele>
        <time>2025-02-20T14:55:45Z</time>
      </trkpt>
      <trkpt lat="45.63314" lon="6.52992">
        <ele>2230</ele>
        <time>2025-02-20T14:55:46Z</time>
      </trkpt>
      <trkpt lat="45.63314" lon="6.52992">
        <ele>2230</ele>
        <time>2025-02-20T14:55:47Z</time>
      </trkpt>
      <trkpt lat="45.63316" lon="6.52993">
        <ele>2231</ele>
        <time>2025-02-20T14:55:48Z</time>
      </trkpt>
      <trkpt lat="45.63316" lon="6.52994">
        <ele>2231.6</ele>
        <time>2025-02-20T14:55:49Z</time>
      </trkpt>
      <trkpt lat="45.63317" lon="6.52994">
        <ele>2231.6</ele>
        <time>2025-02-20T14:55:50Z</time>
      </trkpt>
      <trkpt lat="45.63318" lon="6.52994">
        <ele>2231.6</ele>
        <time>2025-02-20T14:55:51Z</time>
      </trkpt>
      <trkpt lat="45.63319" lon="6.52994">
        <ele>2231.6</ele>
        <time>2025-02-20T14:55:52Z</time>
      </trkpt>
      <trkpt lat="45.63319" lon="6.52994">
        <ele>2231.4</ele>
        <time>2025-02-20T14:55:53Z</time>
      </trkpt>
      <trkpt lat="45.6332" lon="6.52994">
        <ele>2231.4</ele>
        <time>2025-02-20T14:55:54Z</time>
      </trkpt>
      <trkpt lat="45.6332" lon="6.52994">
        <ele>2231.4</ele>
        <time>2025-02-20T14:55:55Z</time>
      </trkpt>
      <trkpt lat="45.63321" lon="6.52994">
        <ele>2231.4</ele>
        <time>2025-02-20T14:55:56Z</time>
      </trkpt>
      <trkpt lat="45.63322" lon="6.52994">
        <ele>2232.4</ele>
        <time>2025-02-20T14:55:57Z</time>
      </trkpt>
      <trkpt lat="45.63323" lon="6.52995">
        <ele>2232.4</ele>
        <time>2025-02-20T14:55:58Z</time>
      </trkpt>
      <trkpt lat="45.63323" lon="6.52994">
        <ele>2232.4</ele>
        <time>2025-02-20T14:55:59Z</time>
      </trkpt>
      <trkpt lat="45.63324" lon="6.52995">
        <ele>2232.4</ele>
        <time>2025-02-20T14:56:00Z</time>
      </trkpt>
      <trkpt lat="45.63325" lon="6.52995">
        <ele>2232.2</ele>
        <time>2025-02-20T14:56:01Z</time>
      </trkpt>
      <trkpt lat="45.63325" lon="6.52995">
        <ele>2232.2</ele>
        <time>2025-02-20T14:56:02Z</time>
      </trkpt>
      <trkpt lat="45.63327" lon="6.52995">
        <ele>2232.2</ele>
        <time>2025-02-20T14:56:03Z</time>
      </trkpt>
      <trkpt lat="45.63327" lon="6.52995">
        <ele>2232.2</ele>
        <time>2025-02-20T14:56:04Z</time>
      </trkpt>
      <trkpt lat="45.63328" lon="6.52995">
        <ele>2232.4</ele>
        <time>2025-02-20T14:56:05Z</time>
      </trkpt>
      <trkpt lat="45.63329" lon="6.52995">
        <ele>2232.4</ele>
        <time>2025-02-20T14:56:06Z</time>
      </trkpt>
      <trkpt lat="45.63329" lon="6.52996">
        <ele>2232.4</ele>
        <time>2025-02-20T14:56:07Z</time>
      </trkpt>
      <trkpt lat="45.6333" lon="6.52996">
        <ele>2232.4</ele>
        <time>2025-02-20T14:56:08Z</time>
      </trkpt>
      <trkpt lat="45.63331" lon="6.52996">
        <ele>2233.2</ele>
        <time>2025-02-20T14:56:09Z</time>
      </trkpt>
      <trkpt lat="45.63332" lon="6.52996">
        <ele>2233.2</ele>
        <time>2025-02-20T14:56:10Z</time>
      </trkpt>
      <trkpt lat="45.63333" lon="6.52997">
        <ele>2233.2</ele>
        <time>2025-02-20T14:56:11Z</time>
      </trkpt>
      <trkpt lat="45.63334" lon="6.52997">
        <ele>2233.2</ele>
        <time>2025-02-20T14:56:12Z</time>
      </trkpt>
      <trkpt lat="45.63335" lon="6.52997">
        <ele>2233.2</ele>
        <time>2025-02-20T14:56:13Z</time>
      </trkpt>
      <trkpt lat="45.63335" lon="6.52998">
        <ele>2233.2</ele>
        <time>2025-02-20T14:56:14Z</time>
      </trkpt>
      <trkpt lat="45.63336" lon="6.52998">
        <ele>2233.2</ele>
        <time>2025-02-20T14:56:15Z</time>
      </trkpt>
      <trkpt lat="45.63337" lon="6.52998">
        <ele>2233.2</ele>
        <time>2025-02-20T14:56:16Z</time>
      </trkpt>
      <trkpt lat="45.63338" lon="6.52998">
        <ele>2233.2</ele>
        <time>2025-02-20T14:56:17Z</time>
      </trkpt>
      <trkpt lat="45.63339" lon="6.52999">
        <ele>2233.2</ele>
        <time>2025-02-20T14:56:18Z</time>
      </trkpt>
      <trkpt lat="45.63339" lon="6.52999">
        <ele>2233.2</ele>
        <time>2025-02-20T14:56:19Z</time>
      </trkpt>
      <trkpt lat="45.6334" lon="6.53">
        <ele>2233.2</ele>
        <time>2025-02-20T14:56:20Z</time>
      </trkpt>
      <trkpt lat="45.63341" lon="6.53">
        <ele>2233.2</ele>
        <time>2025-02-20T14:56:21Z</time>
      </trkpt>
      <trkpt lat="45.63342" lon="6.53">
        <ele>2233.2</ele>
        <time>2025-02-20T14:56:22Z</time>
      </trkpt>
      <trkpt lat="45.63342" lon="6.53">
        <ele>2233.2</ele>
        <time>2025-02-20T14:56:23Z</time>
      </trkpt>
      <trkpt lat="45.63343" lon="6.53">
        <ele>2233.2</ele>
        <time>2025-02-20T14:56:24Z</time>
      </trkpt>
      <trkpt lat="45.63344" lon="6.53">
        <ele>2234.2</ele>
        <time>2025-02-20T14:56:25Z</time>
      </trkpt>
      <trkpt lat="45.63344" lon="6.53">
        <ele>2234.2</ele>
        <time>2025-02-20T14:56:26Z</time>
      </trkpt>
      <trkpt lat="45.63345" lon="6.53001">
        <ele>2234.2</ele>
        <time>2025-02-20T14:56:27Z</time>
      </trkpt>
      <trkpt lat="45.63346" lon="6.53001">
        <ele>2234.2</ele>
        <time>2025-02-20T14:56:28Z</time>
      </trkpt>
      <trkpt lat="45.63347" lon="6.53001">
        <ele>2234.4</ele>
        <time>2025-02-20T14:56:29Z</time>
      </trkpt>
      <trkpt lat="45.63348" lon="6.53002">
        <ele>2234.4</ele>
        <time>2025-02-20T14:56:30Z</time>
      </trkpt>
      <trkpt lat="45.63348" lon="6.53002">
        <ele>2234.4</ele>
        <time>2025-02-20T14:56:31Z</time>
      </trkpt>
      <trkpt lat="45.63349" lon="6.53002">
        <ele>2234.4</ele>
        <time>2025-02-20T14:56:32Z</time>
      </trkpt>
      <trkpt lat="45.6335" lon="6.53003">
        <ele>2235.2</ele>
        <time>2025-02-20T14:56:33Z</time>
      </trkpt>
      <trkpt lat="45.6335" lon="6.53003">
        <ele>2235.2</ele>
        <time>2025-02-20T14:56:34Z</time>
      </trkpt>
      <trkpt lat="45.63351" lon="6.53003">
        <ele>2235.2</ele>
        <time>2025-02-20T14:56:35Z</time>
      </trkpt>
      <trkpt lat="45.63352" lon="6.53003">
        <ele>2235</ele>
        <time>2025-02-20T14:56:36Z</time>
      </trkpt>
      <trkpt lat="45.63352" lon="6.53004">
        <ele>2234</ele>
        <time>2025-02-20T14:56:37Z</time>
      </trkpt>
      <trkpt lat="45.63353" lon="6.53004">
        <ele>2234</ele>
        <time>2025-02-20T14:56:38Z</time>
      </trkpt>
      <trkpt lat="45.63354" lon="6.53005">
        <ele>2234</ele>
        <time>2025-02-20T14:56:39Z</time>
      </trkpt>
      <trkpt lat="45.63354" lon="6.53005">
        <ele>2234</ele>
        <time>2025-02-20T14:56:40Z</time>
      </trkpt>
      <trkpt lat="45.63355" lon="6.53005">
        <ele>2235.6</ele>
        <time>2025-02-20T14:56:41Z</time>
      </trkpt>
      <trkpt lat="45.63355" lon="6.53005">
        <ele>2235.6</ele>
        <time>2025-02-20T14:56:42Z</time>
      </trkpt>
      <trkpt lat="45.63356" lon="6.53006">
        <ele>2235.6</ele>
        <time>2025-02-20T14:56:43Z</time>
      </trkpt>
      <trkpt lat="45.63357" lon="6.53006">
        <ele>2235.4</ele>
        <time>2025-02-20T14:56:44Z</time>
      </trkpt>
      <trkpt lat="45.63358" lon="6.53006">
        <ele>2235.6</ele>
        <time>2025-02-20T14:56:45Z</time>
      </trkpt>
      <trkpt lat="45.63358" lon="6.53007">
        <ele>2235.6</ele>
        <time>2025-02-20T14:56:46Z</time>
      </trkpt>
      <trkpt lat="45.63359" lon="6.53007">
        <ele>2235.6</ele>
        <time>2025-02-20T14:56:47Z</time>
      </trkpt>
      <trkpt lat="45.6336" lon="6.53008">
        <ele>2235.6</ele>
        <time>2025-02-20T14:56:48Z</time>
      </trkpt>
      <trkpt lat="45.6336" lon="6.53008">
        <ele>2235.2</ele>
        <time>2025-02-20T14:56:49Z</time>
      </trkpt>
      <trkpt lat="45.63361" lon="6.53009">
        <ele>2235.2</ele>
        <time>2025-02-20T14:56:50Z</time>
      </trkpt>
      <trkpt lat="45.63362" lon="6.53009">
        <ele>2235.2</ele>
        <time>2025-02-20T14:56:51Z</time>
      </trkpt>
      <trkpt lat="45.63363" lon="6.5301">
        <ele>2235.6</ele>
        <time>2025-02-20T14:56:52Z</time>
      </trkpt>
      <trkpt lat="45.63363" lon="6.5301">
        <ele>2235.4</ele>
        <time>2025-02-20T14:56:53Z</time>
      </trkpt>
      <trkpt lat="45.63364" lon="6.5301">
        <ele>2235.4</ele>
        <time>2025-02-20T14:56:54Z</time>
      </trkpt>
      <trkpt lat="45.63365" lon="6.53011">
        <ele>2235.4</ele>
        <time>2025-02-20T14:56:55Z</time>
      </trkpt>
      <trkpt lat="45.63366" lon="6.53011">
        <ele>2235.8</ele>
        <time>2025-02-20T14:56:56Z</time>
      </trkpt>
      <trkpt lat="45.63366" lon="6.53012">
        <ele>2236.4</ele>
        <time>2025-02-20T14:56:57Z</time>
      </trkpt>
      <trkpt lat="45.63367" lon="6.53013">
        <ele>2236.4</ele>
        <time>2025-02-20T14:56:58Z</time>
      </trkpt>
      <trkpt lat="45.63368" lon="6.53013">
        <ele>2236.4</ele>
        <time>2025-02-20T14:56:59Z</time>
      </trkpt>
      <trkpt lat="45.63369" lon="6.53014">
        <ele>2236.4</ele>
        <time>2025-02-20T14:57:00Z</time>
      </trkpt>
      <trkpt lat="45.63369" lon="6.53014">
        <ele>2236</ele>
        <time>2025-02-20T14:57:01Z</time>
      </trkpt>
      <trkpt lat="45.6337" lon="6.53015">
        <ele>2236</ele>
        <time>2025-02-20T14:57:02Z</time>
      </trkpt>
      <trkpt lat="45.6337" lon="6.53015">
        <ele>2236</ele>
        <time>2025-02-20T14:57:03Z</time>
      </trkpt>
      <trkpt lat="45.63371" lon="6.53016">
        <ele>2236.2</ele>
        <time>2025-02-20T14:57:04Z</time>
      </trkpt>
      <trkpt lat="45.63372" lon="6.53017">
        <ele>2237.4</ele>
        <time>2025-02-20T14:57:05Z</time>
      </trkpt>
      <trkpt lat="45.63373" lon="6.53017">
        <ele>2237.4</ele>
        <time>2025-02-20T14:57:06Z</time>
      </trkpt>
      <trkpt lat="45.63373" lon="6.53018">
        <ele>2237.4</ele>
        <time>2025-02-20T14:57:07Z</time>
      </trkpt>
      <trkpt lat="45.63374" lon="6.53019">
        <ele>2237.4</ele>
        <time>2025-02-20T14:57:08Z</time>
      </trkpt>
      <trkpt lat="45.63374" lon="6.53019">
        <ele>2237.6</ele>
        <time>2025-02-20T14:57:09Z</time>
      </trkpt>
      <trkpt lat="45.63375" lon="6.5302">
        <ele>2237.6</ele>
        <time>2025-02-20T14:57:10Z</time>
      </trkpt>
      <trkpt lat="45.63376" lon="6.5302">
        <ele>2237.6</ele>
        <time>2025-02-20T14:57:11Z</time>
      </trkpt>
      <trkpt lat="45.63376" lon="6.53021">
        <ele>2237.6</ele>
        <time>2025-02-20T14:57:12Z</time>
      </trkpt>
      <trkpt lat="45.63377" lon="6.53021">
        <ele>2238.2</ele>
        <time>2025-02-20T14:57:13Z</time>
      </trkpt>
      <trkpt lat="45.63378" lon="6.53022">
        <ele>2238.2</ele>
        <time>2025-02-20T14:57:14Z</time>
      </trkpt>
      <trkpt lat="45.63378" lon="6.53023">
        <ele>2238.2</ele>
        <time>2025-02-20T14:57:15Z</time>
      </trkpt>
      <trkpt lat="45.63379" lon="6.53023">
        <ele>2238.2</ele>
        <time>2025-02-20T14:57:16Z</time>
      </trkpt>
      <trkpt lat="45.6338" lon="6.53024">
        <ele>2238.4</ele>
        <time>2025-02-20T14:57:17Z</time>
      </trkpt>
      <trkpt lat="45.6338" lon="6.53024">
        <ele>2238.4</ele>
        <time>2025-02-20T14:57:18Z</time>
      </trkpt>
      <trkpt lat="45.63381" lon="6.53024">
        <ele>2238.4</ele>
        <time>2025-02-20T14:57:19Z</time>
      </trkpt>
      <trkpt lat="45.63382" lon="6.53025">
        <ele>2238.4</ele>
        <time>2025-02-20T14:57:20Z</time>
      </trkpt>
      <trkpt lat="45.63383" lon="6.53025">
        <ele>2238.8</ele>
        <time>2025-02-20T14:57:21Z</time>
      </trkpt>
      <trkpt lat="45.63383" lon="6.53026">
        <ele>2238.8</ele>
        <time>2025-02-20T14:57:22Z</time>
      </trkpt>
      <trkpt lat="45.63384" lon="6.53026">
        <ele>2238.8</ele>
        <time>2025-02-20T14:57:23Z</time>
      </trkpt>
      <trkpt lat="45.63384" lon="6.53026">
        <ele>2238.8</ele>
        <time>2025-02-20T14:57:24Z</time>
      </trkpt>
      <trkpt lat="45.63385" lon="6.53027">
        <ele>2238.8</ele>
        <time>2025-02-20T14:57:25Z</time>
      </trkpt>
      <trkpt lat="45.63386" lon="6.53027">
        <ele>2238.8</ele>
        <time>2025-02-20T14:57:26Z</time>
      </trkpt>
      <trkpt lat="45.63386" lon="6.53028">
        <ele>2238.8</ele>
        <time>2025-02-20T14:57:27Z</time>
      </trkpt>
      <trkpt lat="45.63387" lon="6.53028">
        <ele>2238.8</ele>
        <time>2025-02-20T14:57:28Z</time>
      </trkpt>
      <trkpt lat="45.63388" lon="6.53028">
        <ele>2238.4</ele>
        <time>2025-02-20T14:57:29Z</time>
      </trkpt>
      <trkpt lat="45.63389" lon="6.53028">
        <ele>2238.4</ele>
        <time>2025-02-20T14:57:30Z</time>
      </trkpt>
      <trkpt lat="45.6339" lon="6.53028">
        <ele>2238.4</ele>
        <time>2025-02-20T14:57:31Z</time>
      </trkpt>
      <trkpt lat="45.6339" lon="6.53029">
        <ele>2238.4</ele>
        <time>2025-02-20T14:57:32Z</time>
      </trkpt>
      <trkpt lat="45.63391" lon="6.53029">
        <ele>2239</ele>
        <time>2025-02-20T14:57:33Z</time>
      </trkpt>
      <trkpt lat="45.63392" lon="6.53029">
        <ele>2239</ele>
        <time>2025-02-20T14:57:34Z</time>
      </trkpt>
      <trkpt lat="45.63393" lon="6.53029">
        <ele>2239</ele>
        <time>2025-02-20T14:57:35Z</time>
      </trkpt>
      <trkpt lat="45.63393" lon="6.53029">
        <ele>2238.8</ele>
        <time>2025-02-20T14:57:36Z</time>
      </trkpt>
      <trkpt lat="45.63394" lon="6.5303">
        <ele>2239.8</ele>
        <time>2025-02-20T14:57:37Z</time>
      </trkpt>
      <trkpt lat="45.63395" lon="6.5303">
        <ele>2239.8</ele>
        <time>2025-02-20T14:57:38Z</time>
      </trkpt>
      <trkpt lat="45.63395" lon="6.5303">
        <ele>2239.8</ele>
        <time>2025-02-20T14:57:39Z</time>
      </trkpt>
      <trkpt lat="45.63395" lon="6.5303">
        <ele>2239.6</ele>
        <time>2025-02-20T14:57:40Z</time>
      </trkpt>
      <trkpt lat="45.63395" lon="6.5303">
        <ele>2239.4</ele>
        <time>2025-02-20T14:57:41Z</time>
      </trkpt>
      <trkpt lat="45.63395" lon="6.5303">
        <ele>2239.4</ele>
        <time>2025-02-20T14:57:42Z</time>
      </trkpt>
      <trkpt lat="45.63395" lon="6.5303">
        <ele>2239.4</ele>
        <time>2025-02-20T14:57:43Z</time>
      </trkpt>
      <trkpt lat="45.63395" lon="6.5303">
        <ele>2238.4</ele>
        <time>2025-02-20T14:57:44Z</time>
      </trkpt>
      <trkpt lat="45.63395" lon="6.5303">
        <ele>2239</ele>
        <time>2025-02-20T14:57:45Z</time>
      </trkpt>
      <trkpt lat="45.63395" lon="6.5303">
        <ele>2239</ele>
        <time>2025-02-20T14:57:46Z</time>
      </trkpt>
      <trkpt lat="45.63395" lon="6.5303">
        <ele>2239</ele>
        <time>2025-02-20T14:57:47Z</time>
      </trkpt>
      <trkpt lat="45.63395" lon="6.5303">
        <ele>2239</ele>
        <time>2025-02-20T14:57:48Z</time>
      </trkpt>
      <trkpt lat="45.63395" lon="6.5303">
        <ele>2239.6</ele>
        <time>2025-02-20T14:57:49Z</time>
      </trkpt>
      <trkpt lat="45.63396" lon="6.53029">
        <ele>2239.6</ele>
        <time>2025-02-20T14:57:50Z</time>
      </trkpt>
      <trkpt lat="45.63397" lon="6.5303">
        <ele>2239.6</ele>
        <time>2025-02-20T14:57:51Z</time>
      </trkpt>
      <trkpt lat="45.63398" lon="6.5303">
        <ele>2239.6</ele>
        <time>2025-02-20T14:57:52Z</time>
      </trkpt>
      <trkpt lat="45.63399" lon="6.5303">
        <ele>2239.8</ele>
        <time>2025-02-20T14:57:53Z</time>
      </trkpt>
      <trkpt lat="45.634" lon="6.53031">
        <ele>2239.8</ele>
        <time>2025-02-20T14:57:54Z</time>
      </trkpt>
      <trkpt lat="45.63401" lon="6.53031">
        <ele>2239.8</ele>
        <time>2025-02-20T14:57:55Z</time>
      </trkpt>
      <trkpt lat="45.63401" lon="6.53032">
        <ele>2238.8</ele>
        <time>2025-02-20T14:57:56Z</time>
      </trkpt>
      <trkpt lat="45.63402" lon="6.53032">
        <ele>2239.6</ele>
        <time>2025-02-20T14:57:57Z</time>
      </trkpt>
      <trkpt lat="45.63403" lon="6.53033">
        <ele>2239.6</ele>
        <time>2025-02-20T14:57:58Z</time>
      </trkpt>
      <trkpt lat="45.63403" lon="6.53033">
        <ele>2239.6</ele>
        <time>2025-02-20T14:57:59Z</time>
      </trkpt>
      <trkpt lat="45.63404" lon="6.53034">
        <ele>2239.6</ele>
        <time>2025-02-20T14:58:00Z</time>
      </trkpt>
      <trkpt lat="45.63405" lon="6.53035">
        <ele>2239.8</ele>
        <time>2025-02-20T14:58:01Z</time>
      </trkpt>
      <trkpt lat="45.63406" lon="6.53036">
        <ele>2239.8</ele>
        <time>2025-02-20T14:58:02Z</time>
      </trkpt>
      <trkpt lat="45.63406" lon="6.53036">
        <ele>2239.8</ele>
        <time>2025-02-20T14:58:03Z</time>
      </trkpt>
      <trkpt lat="45.63407" lon="6.53037">
        <ele>2239.8</ele>
        <time>2025-02-20T14:58:04Z</time>
      </trkpt>
      <trkpt lat="45.63408" lon="6.53038">
        <ele>2239.6</ele>
        <time>2025-02-20T14:58:05Z</time>
      </trkpt>
      <trkpt lat="45.63409" lon="6.53038">
        <ele>2239.6</ele>
        <time>2025-02-20T14:58:06Z</time>
      </trkpt>
      <trkpt lat="45.63409" lon="6.53038">
        <ele>2239.6</ele>
        <time>2025-02-20T14:58:07Z</time>
      </trkpt>
      <trkpt lat="45.63409" lon="6.53038">
        <ele>2239.6</ele>
        <time>2025-02-20T14:58:08Z</time>
      </trkpt>
      <trkpt lat="45.63409" lon="6.53038">
        <ele>2239.4</ele>
        <time>2025-02-20T14:58:09Z</time>
      </trkpt>
      <trkpt lat="45.63409" lon="6.53038">
        <ele>2239.4</ele>
        <time>2025-02-20T14:58:10Z</time>
      </trkpt>
      <trkpt lat="45.63409" lon="6.53038">
        <ele>2239.4</ele>
        <time>2025-02-20T14:58:11Z</time>
      </trkpt>
      <trkpt lat="45.63409" lon="6.53038">
        <ele>2239.2</ele>
        <time>2025-02-20T14:58:12Z</time>
      </trkpt>
      <trkpt lat="45.63409" lon="6.53038">
        <ele>2238.2</ele>
        <time>2025-02-20T14:58:13Z</time>
      </trkpt>
      <trkpt lat="45.63409" lon="6.53038">
        <ele>2238.2</ele>
        <time>2025-02-20T14:58:14Z</time>
      </trkpt>
      <trkpt lat="45.63409" lon="6.53038">
        <ele>2238.2</ele>
        <time>2025-02-20T14:58:15Z</time>
      </trkpt>
      <trkpt lat="45.63409" lon="6.53038">
        <ele>2238.2</ele>
        <time>2025-02-20T14:58:16Z</time>
      </trkpt>
      <trkpt lat="45.63409" lon="6.53038">
        <ele>2238.2</ele>
        <time>2025-02-20T14:58:17Z</time>
      </trkpt>
      <trkpt lat="45.63409" lon="6.53038">
        <ele>2238.2</ele>
        <time>2025-02-20T14:58:18Z</time>
      </trkpt>
      <trkpt lat="45.63409" lon="6.53038">
        <ele>2238.2</ele>
        <time>2025-02-20T14:58:19Z</time>
      </trkpt>
      <trkpt lat="45.63409" lon="6.53038">
        <ele>2238.8</ele>
        <time>2025-02-20T14:58:20Z</time>
      </trkpt>
      <trkpt lat="45.63409" lon="6.53038">
        <ele>2238.4</ele>
        <time>2025-02-20T14:58:21Z</time>
      </trkpt>
      <trkpt lat="45.63409" lon="6.53038">
        <ele>2238.4</ele>
        <time>2025-02-20T14:58:22Z</time>
      </trkpt>
      <trkpt lat="45.63409" lon="6.53038">
        <ele>2238.4</ele>
        <time>2025-02-20T14:58:23Z</time>
      </trkpt>
      <trkpt lat="45.63409" lon="6.53038">
        <ele>2238.4</ele>
        <time>2025-02-20T14:58:24Z</time>
      </trkpt>
      <trkpt lat="45.63409" lon="6.53038">
        <ele>2238.4</ele>
        <time>2025-02-20T14:58:25Z</time>
      </trkpt>
      <trkpt lat="45.63409" lon="6.53038">
        <ele>2238.4</ele>
        <time>2025-02-20T14:58:26Z</time>
      </trkpt>
      <trkpt lat="45.63409" lon="6.53038">
        <ele>2238.4</ele>
        <time>2025-02-20T14:58:27Z</time>
      </trkpt>
      <trkpt lat="45.63409" lon="6.53038">
        <ele>2238.8</ele>
        <time>2025-02-20T14:58:28Z</time>
      </trkpt>
      <trkpt lat="45.63409" lon="6.53038">
        <ele>2238.8</ele>
        <time>2025-02-20T14:58:29Z</time>
      </trkpt>
      <trkpt lat="45.63409" lon="6.53038">
        <ele>2238.8</ele>
        <time>2025-02-20T14:58:30Z</time>
      </trkpt>
      <trkpt lat="45.63409" lon="6.53038">
        <ele>2238.8</ele>
        <time>2025-02-20T14:58:31Z</time>
      </trkpt>
      <trkpt lat="45.63409" lon="6.53038">
        <ele>2238.6</ele>
        <time>2025-02-20T14:58:32Z</time>
      </trkpt>
      <trkpt lat="45.63409" lon="6.53038">
        <ele>2238.6</ele>
        <time>2025-02-20T14:58:33Z</time>
      </trkpt>
      <trkpt lat="45.63409" lon="6.53038">
        <ele>2238.6</ele>
        <time>2025-02-20T14:58:34Z</time>
      </trkpt>
      <trkpt lat="45.63409" lon="6.53038">
        <ele>2238.6</ele>
        <time>2025-02-20T14:58:35Z</time>
      </trkpt>
      <trkpt lat="45.63409" lon="6.53038">
        <ele>2238.6</ele>
        <time>2025-02-20T14:58:36Z</time>
      </trkpt>
      <trkpt lat="45.63409" lon="6.53038">
        <ele>2238.2</ele>
        <time>2025-02-20T14:58:37Z</time>
      </trkpt>
      <trkpt lat="45.63409" lon="6.53038">
        <ele>2238.2</ele>
        <time>2025-02-20T14:58:38Z</time>
      </trkpt>
      <trkpt lat="45.63409" lon="6.53038">
        <ele>2238.2</ele>
        <time>2025-02-20T14:58:39Z</time>
      </trkpt>
      <trkpt lat="45.63409" lon="6.53038">
        <ele>2238.8</ele>
        <time>2025-02-20T14:58:40Z</time>
      </trkpt>
      <trkpt lat="45.63409" lon="6.53038">
        <ele>2239.6</ele>
        <time>2025-02-20T14:58:41Z</time>
      </trkpt>
      <trkpt lat="45.63409" lon="6.53038">
        <ele>2239.6</ele>
        <time>2025-02-20T14:58:42Z</time>
      </trkpt>
      <trkpt lat="45.63409" lon="6.53038">
        <ele>2239.6</ele>
        <time>2025-02-20T14:58:43Z</time>
      </trkpt>
      <trkpt lat="45.63409" lon="6.53038">
        <ele>2238.6</ele>
        <time>2025-02-20T14:58:44Z</time>
      </trkpt>
      <trkpt lat="45.63409" lon="6.53038">
        <ele>2238.6</ele>
        <time>2025-02-20T14:58:45Z</time>
      </trkpt>
      <trkpt lat="45.63409" lon="6.53038">
        <ele>2238.6</ele>
        <time>2025-02-20T14:58:46Z</time>
      </trkpt>
      <trkpt lat="45.63409" lon="6.53038">
        <ele>2238.6</ele>
        <time>2025-02-20T14:58:47Z</time>
      </trkpt>
      <trkpt lat="45.63409" lon="6.53038">
        <ele>2238.6</ele>
        <time>2025-02-20T14:58:48Z</time>
      </trkpt>
      <trkpt lat="45.63409" lon="6.53038">
        <ele>2239</ele>
        <time>2025-02-20T14:58:49Z</time>
      </trkpt>
      <trkpt lat="45.63409" lon="6.53038">
        <ele>2239</ele>
        <time>2025-02-20T14:58:50Z</time>
      </trkpt>
      <trkpt lat="45.63409" lon="6.53038">
        <ele>2239</ele>
        <time>2025-02-20T14:58:51Z</time>
      </trkpt>
      <trkpt lat="45.63409" lon="6.53038">
        <ele>2238.4</ele>
        <time>2025-02-20T14:58:52Z</time>
      </trkpt>
      <trkpt lat="45.63409" lon="6.53038">
        <ele>2238.4</ele>
        <time>2025-02-20T14:58:53Z</time>
      </trkpt>
      <trkpt lat="45.63409" lon="6.53038">
        <ele>2238.4</ele>
        <time>2025-02-20T14:58:54Z</time>
      </trkpt>
      <trkpt lat="45.63409" lon="6.53038">
        <ele>2238.4</ele>
        <time>2025-02-20T14:58:55Z</time>
      </trkpt>
      <trkpt lat="45.63409" lon="6.53038">
        <ele>2238.4</ele>
        <time>2025-02-20T14:58:56Z</time>
      </trkpt>
      <trkpt lat="45.63409" lon="6.53038">
        <ele>2240.2</ele>
        <time>2025-02-20T14:58:57Z</time>
      </trkpt>
      <trkpt lat="45.63409" lon="6.53038">
        <ele>2240.2</ele>
        <time>2025-02-20T14:58:58Z</time>
      </trkpt>
      <trkpt lat="45.63409" lon="6.53038">
        <ele>2240.2</ele>
        <time>2025-02-20T14:58:59Z</time>
      </trkpt>
      <trkpt lat="45.63409" lon="6.53038">
        <ele>2239.2</ele>
        <time>2025-02-20T14:59:00Z</time>
      </trkpt>
      <trkpt lat="45.63409" lon="6.53038">
        <ele>2239</ele>
        <time>2025-02-20T14:59:01Z</time>
      </trkpt>
      <trkpt lat="45.63409" lon="6.53038">
        <ele>2239</ele>
        <time>2025-02-20T14:59:02Z</time>
      </trkpt>
      <trkpt lat="45.63409" lon="6.53038">
        <ele>2239</ele>
        <time>2025-02-20T14:59:03Z</time>
      </trkpt>
      <trkpt lat="45.63409" lon="6.53038">
        <ele>2238.6</ele>
        <time>2025-02-20T14:59:04Z</time>
      </trkpt>
      <trkpt lat="45.63409" lon="6.53038">
        <ele>2238.6</ele>
        <time>2025-02-20T14:59:05Z</time>
      </trkpt>
      <trkpt lat="45.63409" lon="6.53038">
        <ele>2238.6</ele>
        <time>2025-02-20T14:59:06Z</time>
      </trkpt>
      <trkpt lat="45.63409" lon="6.53038">
        <ele>2238.6</ele>
        <time>2025-02-20T14:59:07Z</time>
      </trkpt>
      <trkpt lat="45.63409" lon="6.53038">
        <ele>2238.6</ele>
        <time>2025-02-20T14:59:08Z</time>
      </trkpt>
      <trkpt lat="45.63409" lon="6.53038">
        <ele>2238.4</ele>
        <time>2025-02-20T14:59:09Z</time>
      </trkpt>
      <trkpt lat="45.63409" lon="6.53038">
        <ele>2238.4</ele>
        <time>2025-02-20T14:59:10Z</time>
      </trkpt>
      <trkpt lat="45.63409" lon="6.53038">
        <ele>2238.4</ele>
        <time>2025-02-20T14:59:11Z</time>
      </trkpt>
      <trkpt lat="45.63409" lon="6.53038">
        <ele>2238.4</ele>
        <time>2025-02-20T14:59:12Z</time>
      </trkpt>
      <trkpt lat="45.63409" lon="6.53038">
        <ele>2238.6</ele>
        <time>2025-02-20T14:59:13Z</time>
      </trkpt>
      <trkpt lat="45.63409" lon="6.53038">
        <ele>2238.6</ele>
        <time>2025-02-20T14:59:14Z</time>
      </trkpt>
      <trkpt lat="45.63409" lon="6.53038">
        <ele>2238.6</ele>
        <time>2025-02-20T14:59:15Z</time>
      </trkpt>
      <trkpt lat="45.63409" lon="6.53038">
        <ele>2238.6</ele>
        <time>2025-02-20T14:59:16Z</time>
      </trkpt>
      <trkpt lat="45.63409" lon="6.53038">
        <ele>2238.4</ele>
        <time>2025-02-20T14:59:17Z</time>
      </trkpt>
      <trkpt lat="45.63409" lon="6.53038">
        <ele>2238.4</ele>
        <time>2025-02-20T14:59:18Z</time>
      </trkpt>
      <trkpt lat="45.63409" lon="6.53038">
        <ele>2238.4</ele>
        <time>2025-02-20T14:59:19Z</time>
      </trkpt>
      <trkpt lat="45.63409" lon="6.53038">
        <ele>2238.4</ele>
        <time>2025-02-20T14:59:20Z</time>
      </trkpt>
      <trkpt lat="45.63409" lon="6.53038">
        <ele>2238.2</ele>
        <time>2025-02-20T14:59:21Z</time>
      </trkpt>
      <trkpt lat="45.63409" lon="6.53038">
        <ele>2238.2</ele>
        <time>2025-02-20T14:59:22Z</time>
      </trkpt>
      <trkpt lat="45.63409" lon="6.53038">
        <ele>2238.2</ele>
        <time>2025-02-20T14:59:23Z</time>
      </trkpt>
      <trkpt lat="45.63409" lon="6.53038">
        <ele>2238.4</ele>
        <time>2025-02-20T14:59:24Z</time>
      </trkpt>
      <trkpt lat="45.63409" lon="6.53038">
        <ele>2238.4</ele>
        <time>2025-02-20T14:59:25Z</time>
      </trkpt>
      <trkpt lat="45.63409" lon="6.53038">
        <ele>2238.4</ele>
        <time>2025-02-20T14:59:26Z</time>
      </trkpt>
      <trkpt lat="45.63409" lon="6.53038">
        <ele>2238.4</ele>
        <time>2025-02-20T14:59:27Z</time>
      </trkpt>
      <trkpt lat="45.63409" lon="6.53038">
        <ele>2238.4</ele>
        <time>2025-02-20T14:59:28Z</time>
      </trkpt>
      <trkpt lat="45.63409" lon="6.53038">
        <ele>2238.6</ele>
        <time>2025-02-20T14:59:29Z</time>
      </trkpt>
      <trkpt lat="45.63409" lon="6.53038">
        <ele>2238.6</ele>
        <time>2025-02-20T14:59:30Z</time>
      </trkpt>
      <trkpt lat="45.63409" lon="6.53038">
        <ele>2238.6</ele>
        <time>2025-02-20T14:59:31Z</time>
      </trkpt>
      <trkpt lat="45.63409" lon="6.53038">
        <ele>2238.6</ele>
        <time>2025-02-20T14:59:32Z</time>
      </trkpt>
      <trkpt lat="45.63409" lon="6.53038">
        <ele>2238.4</ele>
        <time>2025-02-20T14:59:33Z</time>
      </trkpt>
      <trkpt lat="45.63409" lon="6.53038">
        <ele>2238.4</ele>
        <time>2025-02-20T14:59:34Z</time>
      </trkpt>
      <trkpt lat="45.63409" lon="6.53038">
        <ele>2238.4</ele>
        <time>2025-02-20T14:59:35Z</time>
      </trkpt>
      <trkpt lat="45.63409" lon="6.53038">
        <ele>2238.4</ele>
        <time>2025-02-20T14:59:36Z</time>
      </trkpt>
      <trkpt lat="45.63409" lon="6.53038">
        <ele>2238.4</ele>
        <time>2025-02-20T14:59:37Z</time>
      </trkpt>
      <trkpt lat="45.63409" lon="6.53038">
        <ele>2238.4</ele>
        <time>2025-02-20T14:59:38Z</time>
      </trkpt>
      <trkpt lat="45.63409" lon="6.53038">
        <ele>2238.4</ele>
        <time>2025-02-20T14:59:39Z</time>
      </trkpt>
      <trkpt lat="45.63409" lon="6.53038">
        <ele>2238.8</ele>
        <time>2025-02-20T14:59:40Z</time>
      </trkpt>
      <trkpt lat="45.63409" lon="6.53038">
        <ele>2238.8</ele>
        <time>2025-02-20T14:59:41Z</time>
      </trkpt>
      <trkpt lat="45.63409" lon="6.53038">
        <ele>2238.8</ele>
        <time>2025-02-20T14:59:42Z</time>
      </trkpt>
      <trkpt lat="45.63409" lon="6.53038">
        <ele>2238.8</ele>
        <time>2025-02-20T14:59:43Z</time>
      </trkpt>
      <trkpt lat="45.63409" lon="6.53038">
        <ele>2238.4</ele>
        <time>2025-02-20T14:59:44Z</time>
      </trkpt>
      <trkpt lat="45.63409" lon="6.53038">
        <ele>2238.6</ele>
        <time>2025-02-20T14:59:45Z</time>
      </trkpt>
      <trkpt lat="45.63409" lon="6.53038">
        <ele>2238.6</ele>
        <time>2025-02-20T14:59:46Z</time>
      </trkpt>
      <trkpt lat="45.63409" lon="6.53038">
        <ele>2238.6</ele>
        <time>2025-02-20T14:59:47Z</time>
      </trkpt>
      <trkpt lat="45.63409" lon="6.53038">
        <ele>2238.6</ele>
        <time>2025-02-20T14:59:48Z</time>
      </trkpt>
      <trkpt lat="45.63409" lon="6.53038">
        <ele>2238.4</ele>
        <time>2025-02-20T14:59:49Z</time>
      </trkpt>
      <trkpt lat="45.63409" lon="6.53038">
        <ele>2238.4</ele>
        <time>2025-02-20T14:59:50Z</time>
      </trkpt>
      <trkpt lat="45.63409" lon="6.53038">
        <ele>2238.4</ele>
        <time>2025-02-20T14:59:51Z</time>
      </trkpt>
      <trkpt lat="45.63409" lon="6.53038">
        <ele>2238.6</ele>
        <time>2025-02-20T14:59:52Z</time>
      </trkpt>
      <trkpt lat="45.63409" lon="6.53038">
        <ele>2238.8</ele>
        <time>2025-02-20T14:59:53Z</time>
      </trkpt>
      <trkpt lat="45.63409" lon="6.53038">
        <ele>2238.8</ele>
        <time>2025-02-20T14:59:54Z</time>
      </trkpt>
      <trkpt lat="45.63409" lon="6.53038">
        <ele>2238.8</ele>
        <time>2025-02-20T14:59:55Z</time>
      </trkpt>
      <trkpt lat="45.63409" lon="6.53038">
        <ele>2238.8</ele>
        <time>2025-02-20T14:59:56Z</time>
      </trkpt>
      <trkpt lat="45.63409" lon="6.53038">
        <ele>2238.8</ele>
        <time>2025-02-20T14:59:57Z</time>
      </trkpt>
      <trkpt lat="45.63409" lon="6.53038">
        <ele>2238.8</ele>
        <time>2025-02-20T14:59:58Z</time>
      </trkpt>
      <trkpt lat="45.63409" lon="6.53038">
        <ele>2238.8</ele>
        <time>2025-02-20T14:59:59Z</time>
      </trkpt>
      <trkpt lat="45.63409" lon="6.53038">
        <ele>2238</ele>
        <time>2025-02-20T15:00:00Z</time>
      </trkpt>
      <trkpt lat="45.63409" lon="6.53038">
        <ele>2238.4</ele>
        <time>2025-02-20T15:00:01Z</time>
      </trkpt>
      <trkpt lat="45.63409" lon="6.53038">
        <ele>2238.4</ele>
        <time>2025-02-20T15:00:02Z</time>
      </trkpt>
      <trkpt lat="45.63409" lon="6.53038">
        <ele>2238.4</ele>
        <time>2025-02-20T15:00:03Z</time>
      </trkpt>
      <trkpt lat="45.63409" lon="6.53038">
        <ele>2238.4</ele>
        <time>2025-02-20T15:00:04Z</time>
      </trkpt>
      <trkpt lat="45.63409" lon="6.53038">
        <ele>2237.8</ele>
        <time>2025-02-20T15:00:05Z</time>
      </trkpt>
      <trkpt lat="45.63409" lon="6.53038">
        <ele>2237.8</ele>
        <time>2025-02-20T15:00:06Z</time>
      </trkpt>
      <trkpt lat="45.63409" lon="6.53038">
        <ele>2237.8</ele>
        <time>2025-02-20T15:00:07Z</time>
      </trkpt>
      <trkpt lat="45.63409" lon="6.53038">
        <ele>2238.8</ele>
        <time>2025-02-20T15:00:08Z</time>
      </trkpt>
      <trkpt lat="45.63409" lon="6.53038">
        <ele>2238.6</ele>
        <time>2025-02-20T15:00:09Z</time>
      </trkpt>
      <trkpt lat="45.63409" lon="6.53038">
        <ele>2238.6</ele>
        <time>2025-02-20T15:00:10Z</time>
      </trkpt>
      <trkpt lat="45.63409" lon="6.53038">
        <ele>2238.6</ele>
        <time>2025-02-20T15:00:11Z</time>
      </trkpt>
      <trkpt lat="45.6341" lon="6.53039">
        <ele>2238.6</ele>
        <time>2025-02-20T15:00:12Z</time>
      </trkpt>
      <trkpt lat="45.63409" lon="6.5304">
        <ele>2239.2</ele>
        <time>2025-02-20T15:00:13Z</time>
      </trkpt>
      <trkpt lat="45.63409" lon="6.5304">
        <ele>2239.2</ele>
        <time>2025-02-20T15:00:14Z</time>
      </trkpt>
      <trkpt lat="45.63409" lon="6.5304">
        <ele>2239.2</ele>
        <time>2025-02-20T15:00:15Z</time>
      </trkpt>
      <trkpt lat="45.63409" lon="6.5304">
        <ele>2238.8</ele>
        <time>2025-02-20T15:00:16Z</time>
      </trkpt>
      <trkpt lat="45.63409" lon="6.5304">
        <ele>2239.2</ele>
        <time>2025-02-20T15:00:17Z</time>
      </trkpt>
      <trkpt lat="45.63409" lon="6.5304">
        <ele>2239.2</ele>
        <time>2025-02-20T15:00:18Z</time>
      </trkpt>
      <trkpt lat="45.63409" lon="6.5304">
        <ele>2239.2</ele>
        <time>2025-02-20T15:00:19Z</time>
      </trkpt>
      <trkpt lat="45.63409" lon="6.5304">
        <ele>2238.4</ele>
        <time>2025-02-20T15:00:20Z</time>
      </trkpt>
      <trkpt lat="45.63409" lon="6.5304">
        <ele>2238.8</ele>
        <time>2025-02-20T15:00:21Z</time>
      </trkpt>
      <trkpt lat="45.63409" lon="6.5304">
        <ele>2238.8</ele>
        <time>2025-02-20T15:00:22Z</time>
      </trkpt>
      <trkpt lat="45.63409" lon="6.5304">
        <ele>2238.8</ele>
        <time>2025-02-20T15:00:23Z</time>
      </trkpt>
      <trkpt lat="45.63409" lon="6.5304">
        <ele>2238.2</ele>
        <time>2025-02-20T15:00:24Z</time>
      </trkpt>
      <trkpt lat="45.63409" lon="6.5304">
        <ele>2238.4</ele>
        <time>2025-02-20T15:00:25Z</time>
      </trkpt>
      <trkpt lat="45.63409" lon="6.5304">
        <ele>2238.4</ele>
        <time>2025-02-20T15:00:26Z</time>
      </trkpt>
      <trkpt lat="45.63409" lon="6.5304">
        <ele>2238.4</ele>
        <time>2025-02-20T15:00:27Z</time>
      </trkpt>
      <trkpt lat="45.63409" lon="6.5304">
        <ele>2238.4</ele>
        <time>2025-02-20T15:00:28Z</time>
      </trkpt>
      <trkpt lat="45.63409" lon="6.5304">
        <ele>2238.6</ele>
        <time>2025-02-20T15:00:29Z</time>
      </trkpt>
      <trkpt lat="45.63409" lon="6.5304">
        <ele>2238.6</ele>
        <time>2025-02-20T15:00:30Z</time>
      </trkpt>
      <trkpt lat="45.63409" lon="6.5304">
        <ele>2238.6</ele>
        <time>2025-02-20T15:00:31Z</time>
      </trkpt>
      <trkpt lat="45.63409" lon="6.5304">
        <ele>2238.6</ele>
        <time>2025-02-20T15:00:32Z</time>
      </trkpt>
      <trkpt lat="45.63409" lon="6.5304">
        <ele>2238.6</ele>
        <time>2025-02-20T15:00:33Z</time>
      </trkpt>
      <trkpt lat="45.63409" lon="6.5304">
        <ele>2238.6</ele>
        <time>2025-02-20T15:00:34Z</time>
      </trkpt>
      <trkpt lat="45.63409" lon="6.5304">
        <ele>2238.6</ele>
        <time>2025-02-20T15:00:35Z</time>
      </trkpt>
      <trkpt lat="45.63409" lon="6.5304">
        <ele>2238.6</ele>
        <time>2025-02-20T15:00:36Z</time>
      </trkpt>
      <trkpt lat="45.63409" lon="6.5304">
        <ele>2238.6</ele>
        <time>2025-02-20T15:00:37Z</time>
      </trkpt>
      <trkpt lat="45.63409" lon="6.5304">
        <ele>2238.6</ele>
        <time>2025-02-20T15:00:38Z</time>
      </trkpt>
      <trkpt lat="45.63409" lon="6.5304">
        <ele>2238.6</ele>
        <time>2025-02-20T15:00:39Z</time>
      </trkpt>
      <trkpt lat="45.63409" lon="6.5304">
        <ele>2238.6</ele>
        <time>2025-02-20T15:00:40Z</time>
      </trkpt>
      <trkpt lat="45.63409" lon="6.5304">
        <ele>2238.6</ele>
        <time>2025-02-20T15:00:41Z</time>
      </trkpt>
      <trkpt lat="45.63409" lon="6.5304">
        <ele>2238.6</ele>
        <time>2025-02-20T15:00:42Z</time>
      </trkpt>
      <trkpt lat="45.63409" lon="6.5304">
        <ele>2238.6</ele>
        <time>2025-02-20T15:00:43Z</time>
      </trkpt>
      <trkpt lat="45.63409" lon="6.5304">
        <ele>2238.6</ele>
        <time>2025-02-20T15:00:44Z</time>
      </trkpt>
      <trkpt lat="45.63409" lon="6.5304">
        <ele>2238.6</ele>
        <time>2025-02-20T15:00:45Z</time>
      </trkpt>
      <trkpt lat="45.63409" lon="6.5304">
        <ele>2238.6</ele>
        <time>2025-02-20T15:00:46Z</time>
      </trkpt>
      <trkpt lat="45.63409" lon="6.5304">
        <ele>2238.6</ele>
        <time>2025-02-20T15:00:47Z</time>
      </trkpt>
      <trkpt lat="45.63409" lon="6.5304">
        <ele>2238.6</ele>
        <time>2025-02-20T15:00:48Z</time>
      </trkpt>
      <trkpt lat="45.63409" lon="6.5304">
        <ele>2238.2</ele>
        <time>2025-02-20T15:00:49Z</time>
      </trkpt>
      <trkpt lat="45.63409" lon="6.5304">
        <ele>2238.2</ele>
        <time>2025-02-20T15:00:50Z</time>
      </trkpt>
      <trkpt lat="45.63409" lon="6.5304">
        <ele>2238.2</ele>
        <time>2025-02-20T15:00:51Z</time>
      </trkpt>
      <trkpt lat="45.63409" lon="6.5304">
        <ele>2238.2</ele>
        <time>2025-02-20T15:00:52Z</time>
      </trkpt>
      <trkpt lat="45.63409" lon="6.5304">
        <ele>2238</ele>
        <time>2025-02-20T15:00:53Z</time>
      </trkpt>
      <trkpt lat="45.63409" lon="6.5304">
        <ele>2238</ele>
        <time>2025-02-20T15:00:54Z</time>
      </trkpt>
      <trkpt lat="45.63409" lon="6.5304">
        <ele>2238</ele>
        <time>2025-02-20T15:00:55Z</time>
      </trkpt>
      <trkpt lat="45.63409" lon="6.5304">
        <ele>2238.4</ele>
        <time>2025-02-20T15:00:56Z</time>
      </trkpt>
      <trkpt lat="45.63409" lon="6.5304">
        <ele>2238.4</ele>
        <time>2025-02-20T15:00:57Z</time>
      </trkpt>
      <trkpt lat="45.63409" lon="6.5304">
        <ele>2238.4</ele>
        <time>2025-02-20T15:00:58Z</time>
      </trkpt>
      <trkpt lat="45.63409" lon="6.5304">
        <ele>2238.4</ele>
        <time>2025-02-20T15:00:59Z</time>
      </trkpt>
      <trkpt lat="45.63409" lon="6.5304">
        <ele>2238.4</ele>
        <time>2025-02-20T15:01:00Z</time>
      </trkpt>
      <trkpt lat="45.63409" lon="6.5304">
        <ele>2239</ele>
        <time>2025-02-20T15:01:01Z</time>
      </trkpt>
      <trkpt lat="45.63409" lon="6.5304">
        <ele>2239</ele>
        <time>2025-02-20T15:01:02Z</time>
      </trkpt>
      <trkpt lat="45.63409" lon="6.5304">
        <ele>2239</ele>
        <time>2025-02-20T15:01:03Z</time>
      </trkpt>
      <trkpt lat="45.63409" lon="6.5304">
        <ele>2238.6</ele>
        <time>2025-02-20T15:01:04Z</time>
      </trkpt>
      <trkpt lat="45.63409" lon="6.5304">
        <ele>2238.8</ele>
        <time>2025-02-20T15:01:05Z</time>
      </trkpt>
      <trkpt lat="45.63409" lon="6.5304">
        <ele>2238.8</ele>
        <time>2025-02-20T15:01:06Z</time>
      </trkpt>
      <trkpt lat="45.63409" lon="6.5304">
        <ele>2238.8</ele>
        <time>2025-02-20T15:01:07Z</time>
      </trkpt>
      <trkpt lat="45.63409" lon="6.5304">
        <ele>2238.2</ele>
        <time>2025-02-20T15:01:08Z</time>
      </trkpt>
      <trkpt lat="45.63409" lon="6.5304">
        <ele>2238.4</ele>
        <time>2025-02-20T15:01:09Z</time>
      </trkpt>
      <trkpt lat="45.63409" lon="6.5304">
        <ele>2238.4</ele>
        <time>2025-02-20T15:01:10Z</time>
      </trkpt>
      <trkpt lat="45.63409" lon="6.5304">
        <ele>2238.4</ele>
        <time>2025-02-20T15:01:11Z</time>
      </trkpt>
      <trkpt lat="45.63409" lon="6.5304">
        <ele>2238.4</ele>
        <time>2025-02-20T15:01:12Z</time>
      </trkpt>
      <trkpt lat="45.63409" lon="6.5304">
        <ele>2238.6</ele>
        <time>2025-02-20T15:01:13Z</time>
      </trkpt>
      <trkpt lat="45.63409" lon="6.5304">
        <ele>2238.6</ele>
        <time>2025-02-20T15:01:14Z</time>
      </trkpt>
      <trkpt lat="45.63409" lon="6.5304">
        <ele>2238.6</ele>
        <time>2025-02-20T15:01:15Z</time>
      </trkpt>
      <trkpt lat="45.63409" lon="6.5304">
        <ele>2238.6</ele>
        <time>2025-02-20T15:01:16Z</time>
      </trkpt>
      <trkpt lat="45.63409" lon="6.5304">
        <ele>2238.6</ele>
        <time>2025-02-20T15:01:17Z</time>
      </trkpt>
      <trkpt lat="45.63409" lon="6.5304">
        <ele>2238.6</ele>
        <time>2025-02-20T15:01:18Z</time>
      </trkpt>
      <trkpt lat="45.63409" lon="6.5304">
        <ele>2238.6</ele>
        <time>2025-02-20T15:01:19Z</time>
      </trkpt>
      <trkpt lat="45.63409" lon="6.5304">
        <ele>2238.4</ele>
        <time>2025-02-20T15:01:20Z</time>
      </trkpt>
      <trkpt lat="45.63409" lon="6.5304">
        <ele>2238.8</ele>
        <time>2025-02-20T15:01:21Z</time>
      </trkpt>
      <trkpt lat="45.63409" lon="6.5304">
        <ele>2238.8</ele>
        <time>2025-02-20T15:01:22Z</time>
      </trkpt>
      <trkpt lat="45.63409" lon="6.5304">
        <ele>2238.8</ele>
        <time>2025-02-20T15:01:23Z</time>
      </trkpt>
      <trkpt lat="45.63409" lon="6.5304">
        <ele>2237.8</ele>
        <time>2025-02-20T15:01:24Z</time>
      </trkpt>
      <trkpt lat="45.63409" lon="6.5304">
        <ele>2238.8</ele>
        <time>2025-02-20T15:01:25Z</time>
      </trkpt>
      <trkpt lat="45.63409" lon="6.5304">
        <ele>2238.8</ele>
        <time>2025-02-20T15:01:26Z</time>
      </trkpt>
      <trkpt lat="45.63409" lon="6.5304">
        <ele>2238.8</ele>
        <time>2025-02-20T15:01:27Z</time>
      </trkpt>
      <trkpt lat="45.63409" lon="6.5304">
        <ele>2238.8</ele>
        <time>2025-02-20T15:01:28Z</time>
      </trkpt>
      <trkpt lat="45.6341" lon="6.5304">
        <ele>2238.2</ele>
        <time>2025-02-20T15:01:29Z</time>
      </trkpt>
      <trkpt lat="45.6341" lon="6.5304">
        <ele>2238.2</ele>
        <time>2025-02-20T15:01:30Z</time>
      </trkpt>
      <trkpt lat="45.6341" lon="6.5304">
        <ele>2238.2</ele>
        <time>2025-02-20T15:01:31Z</time>
      </trkpt>
      <trkpt lat="45.63411" lon="6.53039">
        <ele>2238.2</ele>
        <time>2025-02-20T15:01:32Z</time>
      </trkpt>
      <trkpt lat="45.63411" lon="6.53039">
        <ele>2238.6</ele>
        <time>2025-02-20T15:01:33Z</time>
      </trkpt>
      <trkpt lat="45.63411" lon="6.53039">
        <ele>2238.6</ele>
        <time>2025-02-20T15:01:34Z</time>
      </trkpt>
      <trkpt lat="45.63411" lon="6.53039">
        <ele>2238.6</ele>
        <time>2025-02-20T15:01:35Z</time>
      </trkpt>
      <trkpt lat="45.63411" lon="6.53039">
        <ele>2238.6</ele>
        <time>2025-02-20T15:01:36Z</time>
      </trkpt>
      <trkpt lat="45.63411" lon="6.53039">
        <ele>2237.8</ele>
        <time>2025-02-20T15:01:37Z</time>
      </trkpt>
      <trkpt lat="45.63411" lon="6.53039">
        <ele>2237.8</ele>
        <time>2025-02-20T15:01:38Z</time>
      </trkpt>
      <trkpt lat="45.63411" lon="6.53039">
        <ele>2237.8</ele>
        <time>2025-02-20T15:01:39Z</time>
      </trkpt>
      <trkpt lat="45.63411" lon="6.53039">
        <ele>2238.4</ele>
        <time>2025-02-20T15:01:40Z</time>
      </trkpt>
      <trkpt lat="45.63411" lon="6.53039">
        <ele>2238.4</ele>
        <time>2025-02-20T15:01:41Z</time>
      </trkpt>
      <trkpt lat="45.63411" lon="6.53039">
        <ele>2238.4</ele>
        <time>2025-02-20T15:01:42Z</time>
      </trkpt>
      <trkpt lat="45.63411" lon="6.53039">
        <ele>2238.4</ele>
        <time>2025-02-20T15:01:43Z</time>
      </trkpt>
      <trkpt lat="45.63411" lon="6.53039">
        <ele>2238.4</ele>
        <time>2025-02-20T15:01:44Z</time>
      </trkpt>
      <trkpt lat="45.63411" lon="6.53039">
        <ele>2238</ele>
        <time>2025-02-20T15:01:45Z</time>
      </trkpt>
      <trkpt lat="45.63411" lon="6.53039">
        <ele>2238</ele>
        <time>2025-02-20T15:01:46Z</time>
      </trkpt>
      <trkpt lat="45.63411" lon="6.53039">
        <ele>2238</ele>
        <time>2025-02-20T15:01:47Z</time>
      </trkpt>
      <trkpt lat="45.63411" lon="6.53039">
        <ele>2239</ele>
        <time>2025-02-20T15:01:48Z</time>
      </trkpt>
      <trkpt lat="45.63411" lon="6.53039">
        <ele>2239</ele>
        <time>2025-02-20T15:01:49Z</time>
      </trkpt>
      <trkpt lat="45.63411" lon="6.53039">
        <ele>2239</ele>
        <time>2025-02-20T15:01:50Z</time>
      </trkpt>
      <trkpt lat="45.63411" lon="6.53039">
        <ele>2239</ele>
        <time>2025-02-20T15:01:51Z</time>
      </trkpt>
      <trkpt lat="45.63411" lon="6.53039">
        <ele>2238</ele>
        <time>2025-02-20T15:01:52Z</time>
      </trkpt>
      <trkpt lat="45.63411" lon="6.53039">
        <ele>2237.8</ele>
        <time>2025-02-20T15:01:53Z</time>
      </trkpt>
      <trkpt lat="45.63411" lon="6.53039">
        <ele>2237.8</ele>
        <time>2025-02-20T15:01:54Z</time>
      </trkpt>
      <trkpt lat="45.63411" lon="6.53039">
        <ele>2237.8</ele>
        <time>2025-02-20T15:01:55Z</time>
      </trkpt>
      <trkpt lat="45.63411" lon="6.53039">
        <ele>2238.6</ele>
        <time>2025-02-20T15:01:56Z</time>
      </trkpt>
      <trkpt lat="45.63411" lon="6.53039">
        <ele>2238</ele>
        <time>2025-02-20T15:01:57Z</time>
      </trkpt>
      <trkpt lat="45.63411" lon="6.53039">
        <ele>2238</ele>
        <time>2025-02-20T15:01:58Z</time>
      </trkpt>
      <trkpt lat="45.63411" lon="6.53039">
        <ele>2238</ele>
        <time>2025-02-20T15:01:59Z</time>
      </trkpt>
      <trkpt lat="45.63411" lon="6.53039">
        <ele>2238</ele>
        <time>2025-02-20T15:02:00Z</time>
      </trkpt>
      <trkpt lat="45.63411" lon="6.53039">
        <ele>2238.8</ele>
        <time>2025-02-20T15:02:01Z</time>
      </trkpt>
      <trkpt lat="45.63411" lon="6.53039">
        <ele>2238.8</ele>
        <time>2025-02-20T15:02:02Z</time>
      </trkpt>
      <trkpt lat="45.63411" lon="6.53039">
        <ele>2238.8</ele>
        <time>2025-02-20T15:02:03Z</time>
      </trkpt>
      <trkpt lat="45.63411" lon="6.53039">
        <ele>2238.8</ele>
        <time>2025-02-20T15:02:04Z</time>
      </trkpt>
      <trkpt lat="45.63411" lon="6.53039">
        <ele>2238.4</ele>
        <time>2025-02-20T15:02:05Z</time>
      </trkpt>
      <trkpt lat="45.63411" lon="6.53039">
        <ele>2238.4</ele>
        <time>2025-02-20T15:02:06Z</time>
      </trkpt>
      <trkpt lat="45.63411" lon="6.53039">
        <ele>2238.4</ele>
        <time>2025-02-20T15:02:07Z</time>
      </trkpt>
      <trkpt lat="45.63411" lon="6.53039">
        <ele>2238.2</ele>
        <time>2025-02-20T15:02:08Z</time>
      </trkpt>
      <trkpt lat="45.63411" lon="6.53039">
        <ele>2239.6</ele>
        <time>2025-02-20T15:02:09Z</time>
      </trkpt>
      <trkpt lat="45.63411" lon="6.53039">
        <ele>2239.6</ele>
        <time>2025-02-20T15:02:10Z</time>
      </trkpt>
      <trkpt lat="45.63411" lon="6.53039">
        <ele>2239.6</ele>
        <time>2025-02-20T15:02:11Z</time>
      </trkpt>
      <trkpt lat="45.63411" lon="6.53039">
        <ele>2239.6</ele>
        <time>2025-02-20T15:02:12Z</time>
      </trkpt>
      <trkpt lat="45.63411" lon="6.53039">
        <ele>2238.8</ele>
        <time>2025-02-20T15:02:13Z</time>
      </trkpt>
      <trkpt lat="45.63411" lon="6.53039">
        <ele>2238.8</ele>
        <time>2025-02-20T15:02:14Z</time>
      </trkpt>
      <trkpt lat="45.63411" lon="6.53039">
        <ele>2238.8</ele>
        <time>2025-02-20T15:02:15Z</time>
      </trkpt>
      <trkpt lat="45.63411" lon="6.53039">
        <ele>2238.8</ele>
        <time>2025-02-20T15:02:16Z</time>
      </trkpt>
      <trkpt lat="45.63411" lon="6.53039">
        <ele>2238.6</ele>
        <time>2025-02-20T15:02:17Z</time>
      </trkpt>
      <trkpt lat="45.63411" lon="6.53039">
        <ele>2238.6</ele>
        <time>2025-02-20T15:02:18Z</time>
      </trkpt>
      <trkpt lat="45.63411" lon="6.53039">
        <ele>2238.6</ele>
        <time>2025-02-20T15:02:19Z</time>
      </trkpt>
      <trkpt lat="45.63411" lon="6.53039">
        <ele>2238.6</ele>
        <time>2025-02-20T15:02:20Z</time>
      </trkpt>
      <trkpt lat="45.63411" lon="6.53039">
        <ele>2238.6</ele>
        <time>2025-02-20T15:02:21Z</time>
      </trkpt>
      <trkpt lat="45.63411" lon="6.53039">
        <ele>2238.6</ele>
        <time>2025-02-20T15:02:22Z</time>
      </trkpt>
      <trkpt lat="45.63411" lon="6.53039">
        <ele>2238.6</ele>
        <time>2025-02-20T15:02:23Z</time>
      </trkpt>
      <trkpt lat="45.63411" lon="6.53039">
        <ele>2238.6</ele>
        <time>2025-02-20T15:02:24Z</time>
      </trkpt>
      <trkpt lat="45.63411" lon="6.53039">
        <ele>2238.6</ele>
        <time>2025-02-20T15:02:25Z</time>
      </trkpt>
      <trkpt lat="45.63411" lon="6.53039">
        <ele>2238.6</ele>
        <time>2025-02-20T15:02:26Z</time>
      </trkpt>
      <trkpt lat="45.63411" lon="6.53039">
        <ele>2238.6</ele>
        <time>2025-02-20T15:02:27Z</time>
      </trkpt>
      <trkpt lat="45.63411" lon="6.53039">
        <ele>2238.6</ele>
        <time>2025-02-20T15:02:28Z</time>
      </trkpt>
      <trkpt lat="45.63411" lon="6.53039">
        <ele>2238.4</ele>
        <time>2025-02-20T15:02:29Z</time>
      </trkpt>
      <trkpt lat="45.63411" lon="6.53039">
        <ele>2238.4</ele>
        <time>2025-02-20T15:02:30Z</time>
      </trkpt>
      <trkpt lat="45.63411" lon="6.53039">
        <ele>2238.4</ele>
        <time>2025-02-20T15:02:31Z</time>
      </trkpt>
      <trkpt lat="45.63411" lon="6.53039">
        <ele>2238.4</ele>
        <time>2025-02-20T15:02:32Z</time>
      </trkpt>
      <trkpt lat="45.63411" lon="6.53039">
        <ele>2239</ele>
        <time>2025-02-20T15:02:33Z</time>
      </trkpt>
      <trkpt lat="45.63411" lon="6.53039">
        <ele>2239</ele>
        <time>2025-02-20T15:02:34Z</time>
      </trkpt>
      <trkpt lat="45.63411" lon="6.53039">
        <ele>2239</ele>
        <time>2025-02-20T15:02:35Z</time>
      </trkpt>
      <trkpt lat="45.63411" lon="6.53039">
        <ele>2238.8</ele>
        <time>2025-02-20T15:02:36Z</time>
      </trkpt>
      <trkpt lat="45.63411" lon="6.53039">
        <ele>2238.8</ele>
        <time>2025-02-20T15:02:37Z</time>
      </trkpt>
      <trkpt lat="45.63411" lon="6.53039">
        <ele>2238.8</ele>
        <time>2025-02-20T15:02:38Z</time>
      </trkpt>
      <trkpt lat="45.63411" lon="6.53039">
        <ele>2238.8</ele>
        <time>2025-02-20T15:02:39Z</time>
      </trkpt>
      <trkpt lat="45.63411" lon="6.53039">
        <ele>2238.8</ele>
        <time>2025-02-20T15:02:40Z</time>
      </trkpt>
      <trkpt lat="45.63411" lon="6.53039">
        <ele>2238.6</ele>
        <time>2025-02-20T15:02:41Z</time>
      </trkpt>
      <trkpt lat="45.63411" lon="6.53039">
        <ele>2238.6</ele>
        <time>2025-02-20T15:02:42Z</time>
      </trkpt>
      <trkpt lat="45.63411" lon="6.53039">
        <ele>2238.6</ele>
        <time>2025-02-20T15:02:43Z</time>
      </trkpt>
      <trkpt lat="45.63411" lon="6.53039">
        <ele>2238.2</ele>
        <time>2025-02-20T15:02:44Z</time>
      </trkpt>
      <trkpt lat="45.63411" lon="6.53039">
        <ele>2238.8</ele>
        <time>2025-02-20T15:02:45Z</time>
      </trkpt>
      <trkpt lat="45.63411" lon="6.53039">
        <ele>2238.8</ele>
        <time>2025-02-20T15:02:46Z</time>
      </trkpt>
      <trkpt lat="45.63411" lon="6.53039">
        <ele>2238.8</ele>
        <time>2025-02-20T15:02:47Z</time>
      </trkpt>
      <trkpt lat="45.63411" lon="6.53039">
        <ele>2238.8</ele>
        <time>2025-02-20T15:02:48Z</time>
      </trkpt>
      <trkpt lat="45.63411" lon="6.53039">
        <ele>2240</ele>
        <time>2025-02-20T15:02:49Z</time>
      </trkpt>
      <trkpt lat="45.63411" lon="6.53039">
        <ele>2240</ele>
        <time>2025-02-20T15:02:50Z</time>
      </trkpt>
      <trkpt lat="45.63411" lon="6.53039">
        <ele>2240</ele>
        <time>2025-02-20T15:02:51Z</time>
      </trkpt>
      <trkpt lat="45.63411" lon="6.53039">
        <ele>2239</ele>
        <time>2025-02-20T15:02:52Z</time>
      </trkpt>
      <trkpt lat="45.63411" lon="6.53039">
        <ele>2239.2</ele>
        <time>2025-02-20T15:02:53Z</time>
      </trkpt>
      <trkpt lat="45.63411" lon="6.53039">
        <ele>2239.2</ele>
        <time>2025-02-20T15:02:54Z</time>
      </trkpt>
      <trkpt lat="45.63411" lon="6.53039">
        <ele>2239.2</ele>
        <time>2025-02-20T15:02:55Z</time>
      </trkpt>
      <trkpt lat="45.63411" lon="6.53039">
        <ele>2239.2</ele>
        <time>2025-02-20T15:02:56Z</time>
      </trkpt>
      <trkpt lat="45.63411" lon="6.53039">
        <ele>2238.8</ele>
        <time>2025-02-20T15:02:57Z</time>
      </trkpt>
      <trkpt lat="45.63411" lon="6.53039">
        <ele>2238.8</ele>
        <time>2025-02-20T15:02:58Z</time>
      </trkpt>
      <trkpt lat="45.63411" lon="6.53039">
        <ele>2238.8</ele>
        <time>2025-02-20T15:02:59Z</time>
      </trkpt>
      <trkpt lat="45.63411" lon="6.53039">
        <ele>2239.2</ele>
        <time>2025-02-20T15:03:00Z</time>
      </trkpt>
      <trkpt lat="45.63411" lon="6.53039">
        <ele>2238.4</ele>
        <time>2025-02-20T15:03:01Z</time>
      </trkpt>
      <trkpt lat="45.63411" lon="6.53039">
        <ele>2238.4</ele>
        <time>2025-02-20T15:03:02Z</time>
      </trkpt>
      <trkpt lat="45.63411" lon="6.53039">
        <ele>2238.4</ele>
        <time>2025-02-20T15:03:03Z</time>
      </trkpt>
      <trkpt lat="45.63411" lon="6.53039">
        <ele>2238.4</ele>
        <time>2025-02-20T15:03:04Z</time>
      </trkpt>
      <trkpt lat="45.63411" lon="6.53039">
        <ele>2238.8</ele>
        <time>2025-02-20T15:03:05Z</time>
      </trkpt>
      <trkpt lat="45.63411" lon="6.53039">
        <ele>2238.8</ele>
        <time>2025-02-20T15:03:06Z</time>
      </trkpt>
      <trkpt lat="45.63411" lon="6.53039">
        <ele>2238.8</ele>
        <time>2025-02-20T15:03:07Z</time>
      </trkpt>
      <trkpt lat="45.63411" lon="6.53039">
        <ele>2238.6</ele>
        <time>2025-02-20T15:03:08Z</time>
      </trkpt>
      <trkpt lat="45.63411" lon="6.53039">
        <ele>2238.2</ele>
        <time>2025-02-20T15:03:09Z</time>
      </trkpt>
      <trkpt lat="45.63411" lon="6.53039">
        <ele>2238.2</ele>
        <time>2025-02-20T15:03:10Z</time>
      </trkpt>
      <trkpt lat="45.63411" lon="6.53039">
        <ele>2238.2</ele>
        <time>2025-02-20T15:03:11Z</time>
      </trkpt>
      <trkpt lat="45.63411" lon="6.53039">
        <ele>2238.4</ele>
        <time>2025-02-20T15:03:12Z</time>
      </trkpt>
      <trkpt lat="45.63411" lon="6.53039">
        <ele>2239.4</ele>
        <time>2025-02-20T15:03:13Z</time>
      </trkpt>
      <trkpt lat="45.63411" lon="6.53039">
        <ele>2239.4</ele>
        <time>2025-02-20T15:03:14Z</time>
      </trkpt>
      <trkpt lat="45.63411" lon="6.53039">
        <ele>2239.4</ele>
        <time>2025-02-20T15:03:15Z</time>
      </trkpt>
      <trkpt lat="45.63411" lon="6.53039">
        <ele>2238.6</ele>
        <time>2025-02-20T15:03:16Z</time>
      </trkpt>
      <trkpt lat="45.63411" lon="6.53039">
        <ele>2238.2</ele>
        <time>2025-02-20T15:03:17Z</time>
      </trkpt>
      <trkpt lat="45.63411" lon="6.53039">
        <ele>2238.2</ele>
        <time>2025-02-20T15:03:18Z</time>
      </trkpt>
      <trkpt lat="45.63411" lon="6.53039">
        <ele>2238.2</ele>
        <time>2025-02-20T15:03:19Z</time>
      </trkpt>
      <trkpt lat="45.63411" lon="6.53039">
        <ele>2238.8</ele>
        <time>2025-02-20T15:03:20Z</time>
      </trkpt>
      <trkpt lat="45.63411" lon="6.53039">
        <ele>2238.8</ele>
        <time>2025-02-20T15:03:21Z</time>
      </trkpt>
      <trkpt lat="45.63411" lon="6.53039">
        <ele>2238.8</ele>
        <time>2025-02-20T15:03:22Z</time>
      </trkpt>
      <trkpt lat="45.63411" lon="6.53039">
        <ele>2238.8</ele>
        <time>2025-02-20T15:03:23Z</time>
      </trkpt>
      <trkpt lat="45.63411" lon="6.53039">
        <ele>2238.8</ele>
        <time>2025-02-20T15:03:24Z</time>
      </trkpt>
      <trkpt lat="45.63411" lon="6.53039">
        <ele>2238.6</ele>
        <time>2025-02-20T15:03:25Z</time>
      </trkpt>
      <trkpt lat="45.63411" lon="6.53039">
        <ele>2238.6</ele>
        <time>2025-02-20T15:03:26Z</time>
      </trkpt>
      <trkpt lat="45.63411" lon="6.53039">
        <ele>2238.6</ele>
        <time>2025-02-20T15:03:27Z</time>
      </trkpt>
      <trkpt lat="45.63411" lon="6.53039">
        <ele>2238.6</ele>
        <time>2025-02-20T15:03:28Z</time>
      </trkpt>
      <trkpt lat="45.63411" lon="6.53039">
        <ele>2238.8</ele>
        <time>2025-02-20T15:03:29Z</time>
      </trkpt>
      <trkpt lat="45.63411" lon="6.53039">
        <ele>2238.8</ele>
        <time>2025-02-20T15:03:30Z</time>
      </trkpt>
      <trkpt lat="45.63411" lon="6.53039">
        <ele>2238.8</ele>
        <time>2025-02-20T15:03:31Z</time>
      </trkpt>
      <trkpt lat="45.63411" lon="6.53039">
        <ele>2238.8</ele>
        <time>2025-02-20T15:03:32Z</time>
      </trkpt>
      <trkpt lat="45.63411" lon="6.53039">
        <ele>2238.6</ele>
        <time>2025-02-20T15:03:33Z</time>
      </trkpt>
      <trkpt lat="45.63411" lon="6.53039">
        <ele>2238.6</ele>
        <time>2025-02-20T15:03:34Z</time>
      </trkpt>
      <trkpt lat="45.63411" lon="6.53039">
        <ele>2238.6</ele>
        <time>2025-02-20T15:03:35Z</time>
      </trkpt>
      <trkpt lat="45.63411" lon="6.53039">
        <ele>2238.6</ele>
        <time>2025-02-20T15:03:36Z</time>
      </trkpt>
      <trkpt lat="45.63411" lon="6.53039">
        <ele>2238.8</ele>
        <time>2025-02-20T15:03:37Z</time>
      </trkpt>
      <trkpt lat="45.63411" lon="6.53039">
        <ele>2238.8</ele>
        <time>2025-02-20T15:03:38Z</time>
      </trkpt>
      <trkpt lat="45.63411" lon="6.53039">
        <ele>2238.8</ele>
        <time>2025-02-20T15:03:39Z</time>
      </trkpt>
      <trkpt lat="45.63411" lon="6.53039">
        <ele>2238.8</ele>
        <time>2025-02-20T15:03:40Z</time>
      </trkpt>
      <trkpt lat="45.63411" lon="6.53039">
        <ele>2238.4</ele>
        <time>2025-02-20T15:03:41Z</time>
      </trkpt>
      <trkpt lat="45.63411" lon="6.53039">
        <ele>2238.4</ele>
        <time>2025-02-20T15:03:42Z</time>
      </trkpt>
      <trkpt lat="45.63411" lon="6.53039">
        <ele>2238.4</ele>
        <time>2025-02-20T15:03:43Z</time>
      </trkpt>
      <trkpt lat="45.63411" lon="6.53039">
        <ele>2239</ele>
        <time>2025-02-20T15:03:44Z</time>
      </trkpt>
      <trkpt lat="45.63411" lon="6.53039">
        <ele>2238.8</ele>
        <time>2025-02-20T15:03:45Z</time>
      </trkpt>
      <trkpt lat="45.63411" lon="6.53039">
        <ele>2238.8</ele>
        <time>2025-02-20T15:03:46Z</time>
      </trkpt>
      <trkpt lat="45.63411" lon="6.53039">
        <ele>2238.8</ele>
        <time>2025-02-20T15:03:47Z</time>
      </trkpt>
      <trkpt lat="45.63411" lon="6.53039">
        <ele>2238.8</ele>
        <time>2025-02-20T15:03:48Z</time>
      </trkpt>
      <trkpt lat="45.63411" lon="6.53039">
        <ele>2239</ele>
        <time>2025-02-20T15:03:49Z</time>
      </trkpt>
      <trkpt lat="45.63411" lon="6.53039">
        <ele>2239</ele>
        <time>2025-02-20T15:03:50Z</time>
      </trkpt>
      <trkpt lat="45.63411" lon="6.53039">
        <ele>2239</ele>
        <time>2025-02-20T15:03:51Z</time>
      </trkpt>
      <trkpt lat="45.63411" lon="6.53039">
        <ele>2238.6</ele>
        <time>2025-02-20T15:03:52Z</time>
      </trkpt>
      <trkpt lat="45.63411" lon="6.53039">
        <ele>2238.6</ele>
        <time>2025-02-20T15:03:53Z</time>
      </trkpt>
      <trkpt lat="45.63411" lon="6.53039">
        <ele>2238.6</ele>
        <time>2025-02-20T15:03:54Z</time>
      </trkpt>
      <trkpt lat="45.63411" lon="6.53039">
        <ele>2238.6</ele>
        <time>2025-02-20T15:03:55Z</time>
      </trkpt>
      <trkpt lat="45.63411" lon="6.53039">
        <ele>2238.6</ele>
        <time>2025-02-20T15:03:56Z</time>
      </trkpt>
      <trkpt lat="45.63411" lon="6.53039">
        <ele>2238.8</ele>
        <time>2025-02-20T15:03:57Z</time>
      </trkpt>
      <trkpt lat="45.63411" lon="6.53039">
        <ele>2238.8</ele>
        <time>2025-02-20T15:03:58Z</time>
      </trkpt>
      <trkpt lat="45.63411" lon="6.53039">
        <ele>2238.8</ele>
        <time>2025-02-20T15:03:59Z</time>
      </trkpt>
      <trkpt lat="45.63411" lon="6.53039">
        <ele>2238.4</ele>
        <time>2025-02-20T15:04:00Z</time>
      </trkpt>
      <trkpt lat="45.63411" lon="6.53039">
        <ele>2238.4</ele>
        <time>2025-02-20T15:04:01Z</time>
      </trkpt>
      <trkpt lat="45.63411" lon="6.53039">
        <ele>2238.4</ele>
        <time>2025-02-20T15:04:02Z</time>
      </trkpt>
      <trkpt lat="45.63411" lon="6.53039">
        <ele>2238.4</ele>
        <time>2025-02-20T15:04:03Z</time>
      </trkpt>
      <trkpt lat="45.63411" lon="6.53039">
        <ele>2238.4</ele>
        <time>2025-02-20T15:04:04Z</time>
      </trkpt>
      <trkpt lat="45.63411" lon="6.53039">
        <ele>2239</ele>
        <time>2025-02-20T15:04:05Z</time>
      </trkpt>
      <trkpt lat="45.63411" lon="6.53039">
        <ele>2239</ele>
        <time>2025-02-20T15:04:06Z</time>
      </trkpt>
      <trkpt lat="45.63411" lon="6.53039">
        <ele>2239</ele>
        <time>2025-02-20T15:04:07Z</time>
      </trkpt>
      <trkpt lat="45.63411" lon="6.53039">
        <ele>2238.6</ele>
        <time>2025-02-20T15:04:08Z</time>
      </trkpt>
      <trkpt lat="45.63411" lon="6.53039">
        <ele>2238.4</ele>
        <time>2025-02-20T15:04:09Z</time>
      </trkpt>
      <trkpt lat="45.63411" lon="6.53039">
        <ele>2238.4</ele>
        <time>2025-02-20T15:04:10Z</time>
      </trkpt>
      <trkpt lat="45.63411" lon="6.53039">
        <ele>2238.4</ele>
        <time>2025-02-20T15:04:11Z</time>
      </trkpt>
      <trkpt lat="45.63411" lon="6.53039">
        <ele>2239</ele>
        <time>2025-02-20T15:04:12Z</time>
      </trkpt>
      <trkpt lat="45.63411" lon="6.53039">
        <ele>2238.4</ele>
        <time>2025-02-20T15:04:13Z</time>
      </trkpt>
      <trkpt lat="45.63411" lon="6.53039">
        <ele>2238.4</ele>
        <time>2025-02-20T15:04:14Z</time>
      </trkpt>
      <trkpt lat="45.63411" lon="6.53039">
        <ele>2238.4</ele>
        <time>2025-02-20T15:04:15Z</time>
      </trkpt>
      <trkpt lat="45.63411" lon="6.53039">
        <ele>2238.8</ele>
        <time>2025-02-20T15:04:16Z</time>
      </trkpt>
      <trkpt lat="45.63411" lon="6.53039">
        <ele>2238.2</ele>
        <time>2025-02-20T15:04:17Z</time>
      </trkpt>
      <trkpt lat="45.63411" lon="6.53039">
        <ele>2238.2</ele>
        <time>2025-02-20T15:04:18Z</time>
      </trkpt>
      <trkpt lat="45.63411" lon="6.53039">
        <ele>2238.2</ele>
        <time>2025-02-20T15:04:19Z</time>
      </trkpt>
      <trkpt lat="45.63411" lon="6.53039">
        <ele>2238.2</ele>
        <time>2025-02-20T15:04:20Z</time>
      </trkpt>
      <trkpt lat="45.63411" lon="6.53039">
        <ele>2238.4</ele>
        <time>2025-02-20T15:04:21Z</time>
      </trkpt>
      <trkpt lat="45.63411" lon="6.53039">
        <ele>2238.4</ele>
        <time>2025-02-20T15:04:22Z</time>
      </trkpt>
      <trkpt lat="45.63411" lon="6.53039">
        <ele>2238.4</ele>
        <time>2025-02-20T15:04:23Z</time>
      </trkpt>
      <trkpt lat="45.63411" lon="6.53039">
        <ele>2238.4</ele>
        <time>2025-02-20T15:04:24Z</time>
      </trkpt>
      <trkpt lat="45.63411" lon="6.53039">
        <ele>2238.6</ele>
        <time>2025-02-20T15:04:25Z</time>
      </trkpt>
      <trkpt lat="45.63411" lon="6.53039">
        <ele>2238.6</ele>
        <time>2025-02-20T15:04:26Z</time>
      </trkpt>
      <trkpt lat="45.63411" lon="6.53039">
        <ele>2238.6</ele>
        <time>2025-02-20T15:04:27Z</time>
      </trkpt>
      <trkpt lat="45.63411" lon="6.53039">
        <ele>2238.6</ele>
        <time>2025-02-20T15:04:28Z</time>
      </trkpt>
      <trkpt lat="45.63411" lon="6.53039">
        <ele>2238.6</ele>
        <time>2025-02-20T15:04:29Z</time>
      </trkpt>
      <trkpt lat="45.63411" lon="6.53039">
        <ele>2238.6</ele>
        <time>2025-02-20T15:04:30Z</time>
      </trkpt>
      <trkpt lat="45.63411" lon="6.53039">
        <ele>2238.6</ele>
        <time>2025-02-20T15:04:31Z</time>
      </trkpt>
      <trkpt lat="45.63411" lon="6.53039">
        <ele>2238.6</ele>
        <time>2025-02-20T15:04:32Z</time>
      </trkpt>
      <trkpt lat="45.63411" lon="6.53039">
        <ele>2238.6</ele>
        <time>2025-02-20T15:04:33Z</time>
      </trkpt>
      <trkpt lat="45.63411" lon="6.53039">
        <ele>2238.6</ele>
        <time>2025-02-20T15:04:34Z</time>
      </trkpt>
      <trkpt lat="45.63411" lon="6.53039">
        <ele>2238.6</ele>
        <time>2025-02-20T15:04:35Z</time>
      </trkpt>
      <trkpt lat="45.63411" lon="6.53039">
        <ele>2238.6</ele>
        <time>2025-02-20T15:04:36Z</time>
      </trkpt>
      <trkpt lat="45.63411" lon="6.53039">
        <ele>2238.8</ele>
        <time>2025-02-20T15:04:37Z</time>
      </trkpt>
      <trkpt lat="45.63411" lon="6.53039">
        <ele>2238.8</ele>
        <time>2025-02-20T15:04:38Z</time>
      </trkpt>
      <trkpt lat="45.63411" lon="6.53039">
        <ele>2238.8</ele>
        <time>2025-02-20T15:04:39Z</time>
      </trkpt>
      <trkpt lat="45.63411" lon="6.53039">
        <ele>2238.8</ele>
        <time>2025-02-20T15:04:40Z</time>
      </trkpt>
      <trkpt lat="45.63411" lon="6.53039">
        <ele>2238.6</ele>
        <time>2025-02-20T15:04:41Z</time>
      </trkpt>
      <trkpt lat="45.63411" lon="6.53039">
        <ele>2238.6</ele>
        <time>2025-02-20T15:04:42Z</time>
      </trkpt>
      <trkpt lat="45.63411" lon="6.53039">
        <ele>2238.6</ele>
        <time>2025-02-20T15:04:43Z</time>
      </trkpt>
      <trkpt lat="45.63411" lon="6.53039">
        <ele>2238.2</ele>
        <time>2025-02-20T15:04:44Z</time>
      </trkpt>
      <trkpt lat="45.63411" lon="6.53039">
        <ele>2238.8</ele>
        <time>2025-02-20T15:04:45Z</time>
      </trkpt>
      <trkpt lat="45.63411" lon="6.53039">
        <ele>2238.8</ele>
        <time>2025-02-20T15:04:46Z</time>
      </trkpt>
      <trkpt lat="45.63411" lon="6.53039">
        <ele>2238.8</ele>
        <time>2025-02-20T15:04:47Z</time>
      </trkpt>
      <trkpt lat="45.63411" lon="6.53039">
        <ele>2238.8</ele>
        <time>2025-02-20T15:04:48Z</time>
      </trkpt>
      <trkpt lat="45.63411" lon="6.53039">
        <ele>2238.4</ele>
        <time>2025-02-20T15:04:49Z</time>
      </trkpt>
      <trkpt lat="45.63411" lon="6.53039">
        <ele>2238.4</ele>
        <time>2025-02-20T15:04:50Z</time>
      </trkpt>
      <trkpt lat="45.63411" lon="6.53039">
        <ele>2238.4</ele>
        <time>2025-02-20T15:04:51Z</time>
      </trkpt>
      <trkpt lat="45.63411" lon="6.53039">
        <ele>2238.4</ele>
        <time>2025-02-20T15:04:52Z</time>
      </trkpt>
      <trkpt lat="45.63411" lon="6.53039">
        <ele>2238.2</ele>
        <time>2025-02-20T15:04:53Z</time>
      </trkpt>
      <trkpt lat="45.63411" lon="6.53039">
        <ele>2238.2</ele>
        <time>2025-02-20T15:04:54Z</time>
      </trkpt>
      <trkpt lat="45.63411" lon="6.53039">
        <ele>2238.2</ele>
        <time>2025-02-20T15:04:55Z</time>
      </trkpt>
      <trkpt lat="45.63411" lon="6.53039">
        <ele>2238.2</ele>
        <time>2025-02-20T15:04:56Z</time>
      </trkpt>
      <trkpt lat="45.63411" lon="6.53039">
        <ele>2238.2</ele>
        <time>2025-02-20T15:04:57Z</time>
      </trkpt>
      <trkpt lat="45.63411" lon="6.53039">
        <ele>2238.2</ele>
        <time>2025-02-20T15:04:58Z</time>
      </trkpt>
      <trkpt lat="45.63411" lon="6.53039">
        <ele>2238.2</ele>
        <time>2025-02-20T15:04:59Z</time>
      </trkpt>
      <trkpt lat="45.63411" lon="6.53039">
        <ele>2238.2</ele>
        <time>2025-02-20T15:05:00Z</time>
      </trkpt>
      <trkpt lat="45.63411" lon="6.53039">
        <ele>2238.6</ele>
        <time>2025-02-20T15:05:01Z</time>
      </trkpt>
      <trkpt lat="45.63411" lon="6.53039">
        <ele>2238.6</ele>
        <time>2025-02-20T15:05:02Z</time>
      </trkpt>
      <trkpt lat="45.63411" lon="6.53039">
        <ele>2238.6</ele>
        <time>2025-02-20T15:05:03Z</time>
      </trkpt>
      <trkpt lat="45.63411" lon="6.53039">
        <ele>2238.6</ele>
        <time>2025-02-20T15:05:04Z</time>
      </trkpt>
      <trkpt lat="45.63411" lon="6.53039">
        <ele>2238.2</ele>
        <time>2025-02-20T15:05:05Z</time>
      </trkpt>
      <trkpt lat="45.63411" lon="6.53039">
        <ele>2238.2</ele>
        <time>2025-02-20T15:05:06Z</time>
      </trkpt>
      <trkpt lat="45.63411" lon="6.53039">
        <ele>2238.2</ele>
        <time>2025-02-20T15:05:07Z</time>
      </trkpt>
      <trkpt lat="45.63411" lon="6.53039">
        <ele>2238.2</ele>
        <time>2025-02-20T15:05:08Z</time>
      </trkpt>
      <trkpt lat="45.63411" lon="6.53039">
        <ele>2238.8</ele>
        <time>2025-02-20T15:05:09Z</time>
      </trkpt>
      <trkpt lat="45.63411" lon="6.53039">
        <ele>2238.8</ele>
        <time>2025-02-20T15:05:10Z</time>
      </trkpt>
      <trkpt lat="45.63411" lon="6.53039">
        <ele>2238.8</ele>
        <time>2025-02-20T15:05:11Z</time>
      </trkpt>
      <trkpt lat="45.63411" lon="6.53039">
        <ele>2238.8</ele>
        <time>2025-02-20T15:05:12Z</time>
      </trkpt>
      <trkpt lat="45.63411" lon="6.53039">
        <ele>2238.4</ele>
        <time>2025-02-20T15:05:13Z</time>
      </trkpt>
      <trkpt lat="45.63411" lon="6.53039">
        <ele>2238.4</ele>
        <time>2025-02-20T15:05:14Z</time>
      </trkpt>
      <trkpt lat="45.63411" lon="6.53039">
        <ele>2238.4</ele>
        <time>2025-02-20T15:05:15Z</time>
      </trkpt>
      <trkpt lat="45.63411" lon="6.53039">
        <ele>2238.2</ele>
        <time>2025-02-20T15:05:16Z</time>
      </trkpt>
      <trkpt lat="45.63411" lon="6.53039">
        <ele>2238.2</ele>
        <time>2025-02-20T15:05:17Z</time>
      </trkpt>
      <trkpt lat="45.63411" lon="6.53039">
        <ele>2238.2</ele>
        <time>2025-02-20T15:05:18Z</time>
      </trkpt>
      <trkpt lat="45.63411" lon="6.53039">
        <ele>2238.2</ele>
        <time>2025-02-20T15:05:19Z</time>
      </trkpt>
      <trkpt lat="45.63411" lon="6.53039">
        <ele>2238.2</ele>
        <time>2025-02-20T15:05:20Z</time>
      </trkpt>
      <trkpt lat="45.63411" lon="6.53039">
        <ele>2238</ele>
        <time>2025-02-20T15:05:21Z</time>
      </trkpt>
      <trkpt lat="45.63411" lon="6.53039">
        <ele>2238</ele>
        <time>2025-02-20T15:05:22Z</time>
      </trkpt>
      <trkpt lat="45.63411" lon="6.53039">
        <ele>2238</ele>
        <time>2025-02-20T15:05:23Z</time>
      </trkpt>
      <trkpt lat="45.63411" lon="6.53039">
        <ele>2238</ele>
        <time>2025-02-20T15:05:24Z</time>
      </trkpt>
      <trkpt lat="45.63411" lon="6.53039">
        <ele>2237.8</ele>
        <time>2025-02-20T15:05:25Z</time>
      </trkpt>
      <trkpt lat="45.63411" lon="6.53039">
        <ele>2237.8</ele>
        <time>2025-02-20T15:05:26Z</time>
      </trkpt>
      <trkpt lat="45.63411" lon="6.53039">
        <ele>2237.8</ele>
        <time>2025-02-20T15:05:27Z</time>
      </trkpt>
      <trkpt lat="45.63411" lon="6.53039">
        <ele>2238.4</ele>
        <time>2025-02-20T15:05:28Z</time>
      </trkpt>
      <trkpt lat="45.63411" lon="6.53039">
        <ele>2238</ele>
        <time>2025-02-20T15:05:29Z</time>
      </trkpt>
      <trkpt lat="45.63411" lon="6.53039">
        <ele>2238</ele>
        <time>2025-02-20T15:05:30Z</time>
      </trkpt>
      <trkpt lat="45.63411" lon="6.53039">
        <ele>2238</ele>
        <time>2025-02-20T15:05:31Z</time>
      </trkpt>
      <trkpt lat="45.63411" lon="6.53039">
        <ele>2238.4</ele>
        <time>2025-02-20T15:05:32Z</time>
      </trkpt>
      <trkpt lat="45.63411" lon="6.53039">
        <ele>2238.4</ele>
        <time>2025-02-20T15:05:33Z</time>
      </trkpt>
      <trkpt lat="45.63411" lon="6.53039">
        <ele>2238.4</ele>
        <time>2025-02-20T15:05:34Z</time>
      </trkpt>
      <trkpt lat="45.63411" lon="6.53039">
        <ele>2238.4</ele>
        <time>2025-02-20T15:05:35Z</time>
      </trkpt>
      <trkpt lat="45.63411" lon="6.53039">
        <ele>2238.4</ele>
        <time>2025-02-20T15:05:36Z</time>
      </trkpt>
      <trkpt lat="45.63411" lon="6.53039">
        <ele>2238</ele>
        <time>2025-02-20T15:05:37Z</time>
      </trkpt>
      <trkpt lat="45.63411" lon="6.53039">
        <ele>2238</ele>
        <time>2025-02-20T15:05:38Z</time>
      </trkpt>
      <trkpt lat="45.63411" lon="6.53039">
        <ele>2238</ele>
        <time>2025-02-20T15:05:39Z</time>
      </trkpt>
      <trkpt lat="45.63411" lon="6.53039">
        <ele>2238</ele>
        <time>2025-02-20T15:05:40Z</time>
      </trkpt>
      <trkpt lat="45.63411" lon="6.53039">
        <ele>2238.2</ele>
        <time>2025-02-20T15:05:41Z</time>
      </trkpt>
      <trkpt lat="45.63411" lon="6.53039">
        <ele>2238.2</ele>
        <time>2025-02-20T15:05:42Z</time>
      </trkpt>
      <trkpt lat="45.63411" lon="6.53039">
        <ele>2238.2</ele>
        <time>2025-02-20T15:05:43Z</time>
      </trkpt>
      <trkpt lat="45.63411" lon="6.53039">
        <ele>2238.2</ele>
        <time>2025-02-20T15:05:44Z</time>
      </trkpt>
      <trkpt lat="45.63411" lon="6.53039">
        <ele>2238.4</ele>
        <time>2025-02-20T15:05:45Z</time>
      </trkpt>
      <trkpt lat="45.63411" lon="6.53039">
        <ele>2238.4</ele>
        <time>2025-02-20T15:05:46Z</time>
      </trkpt>
      <trkpt lat="45.63411" lon="6.53039">
        <ele>2238.4</ele>
        <time>2025-02-20T15:05:47Z</time>
      </trkpt>
      <trkpt lat="45.63411" lon="6.53039">
        <ele>2238.4</ele>
        <time>2025-02-20T15:05:48Z</time>
      </trkpt>
      <trkpt lat="45.63411" lon="6.53039">
        <ele>2238.6</ele>
        <time>2025-02-20T15:05:49Z</time>
      </trkpt>
      <trkpt lat="45.63411" lon="6.53039">
        <ele>2238.6</ele>
        <time>2025-02-20T15:05:50Z</time>
      </trkpt>
      <trkpt lat="45.63411" lon="6.53039">
        <ele>2238.6</ele>
        <time>2025-02-20T15:05:51Z</time>
      </trkpt>
      <trkpt lat="45.63411" lon="6.53039">
        <ele>2238.6</ele>
        <time>2025-02-20T15:05:52Z</time>
      </trkpt>
      <trkpt lat="45.63411" lon="6.53039">
        <ele>2238.4</ele>
        <time>2025-02-20T15:05:53Z</time>
      </trkpt>
      <trkpt lat="45.63411" lon="6.53039">
        <ele>2238.4</ele>
        <time>2025-02-20T15:05:54Z</time>
      </trkpt>
      <trkpt lat="45.63411" lon="6.53039">
        <ele>2238.4</ele>
        <time>2025-02-20T15:05:55Z</time>
      </trkpt>
      <trkpt lat="45.63411" lon="6.53039">
        <ele>2238.4</ele>
        <time>2025-02-20T15:05:56Z</time>
      </trkpt>
      <trkpt lat="45.63411" lon="6.53039">
        <ele>2239</ele>
        <time>2025-02-20T15:05:57Z</time>
      </trkpt>
      <trkpt lat="45.63411" lon="6.53039">
        <ele>2239</ele>
        <time>2025-02-20T15:05:58Z</time>
      </trkpt>
      <trkpt lat="45.63411" lon="6.53039">
        <ele>2239</ele>
        <time>2025-02-20T15:05:59Z</time>
      </trkpt>
      <trkpt lat="45.63411" lon="6.53039">
        <ele>2239</ele>
        <time>2025-02-20T15:06:00Z</time>
      </trkpt>
      <trkpt lat="45.63411" lon="6.53039">
        <ele>2238.2</ele>
        <time>2025-02-20T15:06:01Z</time>
      </trkpt>
      <trkpt lat="45.63411" lon="6.53039">
        <ele>2238.2</ele>
        <time>2025-02-20T15:06:02Z</time>
      </trkpt>
      <trkpt lat="45.63411" lon="6.53039">
        <ele>2238.2</ele>
        <time>2025-02-20T15:06:03Z</time>
      </trkpt>
      <trkpt lat="45.63411" lon="6.53039">
        <ele>2238.2</ele>
        <time>2025-02-20T15:06:04Z</time>
      </trkpt>
      <trkpt lat="45.63411" lon="6.53039">
        <ele>2239.2</ele>
        <time>2025-02-20T15:06:05Z</time>
      </trkpt>
      <trkpt lat="45.63411" lon="6.53039">
        <ele>2239.2</ele>
        <time>2025-02-20T15:06:06Z</time>
      </trkpt>
      <trkpt lat="45.63411" lon="6.53039">
        <ele>2239.2</ele>
        <time>2025-02-20T15:06:07Z</time>
      </trkpt>
      <trkpt lat="45.63411" lon="6.53039">
        <ele>2238.6</ele>
        <time>2025-02-20T15:06:08Z</time>
      </trkpt>
      <trkpt lat="45.63411" lon="6.53039">
        <ele>2238.8</ele>
        <time>2025-02-20T15:06:09Z</time>
      </trkpt>
      <trkpt lat="45.63411" lon="6.53039">
        <ele>2238.8</ele>
        <time>2025-02-20T15:06:10Z</time>
      </trkpt>
      <trkpt lat="45.63411" lon="6.53039">
        <ele>2238.8</ele>
        <time>2025-02-20T15:06:11Z</time>
      </trkpt>
      <trkpt lat="45.63411" lon="6.53039">
        <ele>2238.8</ele>
        <time>2025-02-20T15:06:12Z</time>
      </trkpt>
      <trkpt lat="45.63411" lon="6.53039">
        <ele>2238.4</ele>
        <time>2025-02-20T15:06:13Z</time>
      </trkpt>
      <trkpt lat="45.63411" lon="6.53039">
        <ele>2238.4</ele>
        <time>2025-02-20T15:06:14Z</time>
      </trkpt>
      <trkpt lat="45.63411" lon="6.53039">
        <ele>2238.4</ele>
        <time>2025-02-20T15:06:15Z</time>
      </trkpt>
      <trkpt lat="45.63411" lon="6.53039">
        <ele>2238.2</ele>
        <time>2025-02-20T15:06:16Z</time>
      </trkpt>
      <trkpt lat="45.63411" lon="6.53039">
        <ele>2238.2</ele>
        <time>2025-02-20T15:06:17Z</time>
      </trkpt>
      <trkpt lat="45.63411" lon="6.53039">
        <ele>2238.2</ele>
        <time>2025-02-20T15:06:18Z</time>
      </trkpt>
      <trkpt lat="45.63411" lon="6.53039">
        <ele>2238.2</ele>
        <time>2025-02-20T15:06:19Z</time>
      </trkpt>
      <trkpt lat="45.63411" lon="6.53039">
        <ele>2238.2</ele>
        <time>2025-02-20T15:06:20Z</time>
      </trkpt>
      <trkpt lat="45.63411" lon="6.53039">
        <ele>2238</ele>
        <time>2025-02-20T15:06:21Z</time>
      </trkpt>
      <trkpt lat="45.63411" lon="6.53039">
        <ele>2238</ele>
        <time>2025-02-20T15:06:22Z</time>
      </trkpt>
      <trkpt lat="45.63411" lon="6.53039">
        <ele>2238</ele>
        <time>2025-02-20T15:06:23Z</time>
      </trkpt>
      <trkpt lat="45.63411" lon="6.53039">
        <ele>2238.4</ele>
        <time>2025-02-20T15:06:24Z</time>
      </trkpt>
      <trkpt lat="45.63411" lon="6.53039">
        <ele>2238.2</ele>
        <time>2025-02-20T15:06:25Z</time>
      </trkpt>
      <trkpt lat="45.63411" lon="6.53039">
        <ele>2238.2</ele>
        <time>2025-02-20T15:06:26Z</time>
      </trkpt>
      <trkpt lat="45.63411" lon="6.53039">
        <ele>2238.2</ele>
        <time>2025-02-20T15:06:27Z</time>
      </trkpt>
      <trkpt lat="45.63411" lon="6.53039">
        <ele>2238.2</ele>
        <time>2025-02-20T15:06:28Z</time>
      </trkpt>
      <trkpt lat="45.63411" lon="6.53039">
        <ele>2238.2</ele>
        <time>2025-02-20T15:06:29Z</time>
      </trkpt>
      <trkpt lat="45.63411" lon="6.53039">
        <ele>2238.2</ele>
        <time>2025-02-20T15:06:30Z</time>
      </trkpt>
      <trkpt lat="45.63411" lon="6.53039">
        <ele>2238.2</ele>
        <time>2025-02-20T15:06:31Z</time>
      </trkpt>
      <trkpt lat="45.63411" lon="6.53039">
        <ele>2238.6</ele>
        <time>2025-02-20T15:06:32Z</time>
      </trkpt>
      <trkpt lat="45.63411" lon="6.53039">
        <ele>2238.8</ele>
        <time>2025-02-20T15:06:33Z</time>
      </trkpt>
      <trkpt lat="45.63411" lon="6.53039">
        <ele>2238.8</ele>
        <time>2025-02-20T15:06:34Z</time>
      </trkpt>
      <trkpt lat="45.63411" lon="6.53039">
        <ele>2238.8</ele>
        <time>2025-02-20T15:06:35Z</time>
      </trkpt>
      <trkpt lat="45.63411" lon="6.53039">
        <ele>2237.8</ele>
        <time>2025-02-20T15:06:36Z</time>
      </trkpt>
      <trkpt lat="45.63411" lon="6.53039">
        <ele>2238</ele>
        <time>2025-02-20T15:06:37Z</time>
      </trkpt>
      <trkpt lat="45.63411" lon="6.53039">
        <ele>2238</ele>
        <time>2025-02-20T15:06:38Z</time>
      </trkpt>
      <trkpt lat="45.63411" lon="6.53039">
        <ele>2238</ele>
        <time>2025-02-20T15:06:39Z</time>
      </trkpt>
      <trkpt lat="45.63411" lon="6.53039">
        <ele>2238.4</ele>
        <time>2025-02-20T15:06:40Z</time>
      </trkpt>
      <trkpt lat="45.63411" lon="6.53039">
        <ele>2238.2</ele>
        <time>2025-02-20T15:06:41Z</time>
      </trkpt>
      <trkpt lat="45.63411" lon="6.53039">
        <ele>2238.2</ele>
        <time>2025-02-20T15:06:42Z</time>
      </trkpt>
      <trkpt lat="45.63411" lon="6.53039">
        <ele>2238.2</ele>
        <time>2025-02-20T15:06:43Z</time>
      </trkpt>
      <trkpt lat="45.63411" lon="6.53039">
        <ele>2238.2</ele>
        <time>2025-02-20T15:06:44Z</time>
      </trkpt>
      <trkpt lat="45.63411" lon="6.53039">
        <ele>2238</ele>
        <time>2025-02-20T15:06:45Z</time>
      </trkpt>
      <trkpt lat="45.63411" lon="6.53039">
        <ele>2238</ele>
        <time>2025-02-20T15:06:46Z</time>
      </trkpt>
      <trkpt lat="45.63411" lon="6.53039">
        <ele>2238</ele>
        <time>2025-02-20T15:06:47Z</time>
      </trkpt>
      <trkpt lat="45.63411" lon="6.53039">
        <ele>2238.2</ele>
        <time>2025-02-20T15:06:48Z</time>
      </trkpt>
      <trkpt lat="45.63411" lon="6.53039">
        <ele>2238</ele>
        <time>2025-02-20T15:06:49Z</time>
      </trkpt>
      <trkpt lat="45.63411" lon="6.53039">
        <ele>2238</ele>
        <time>2025-02-20T15:06:50Z</time>
      </trkpt>
      <trkpt lat="45.63411" lon="6.53039">
        <ele>2238</ele>
        <time>2025-02-20T15:06:51Z</time>
      </trkpt>
      <trkpt lat="45.63411" lon="6.53039">
        <ele>2238.8</ele>
        <time>2025-02-20T15:06:52Z</time>
      </trkpt>
      <trkpt lat="45.63411" lon="6.53039">
        <ele>2238.2</ele>
        <time>2025-02-20T15:06:53Z</time>
      </trkpt>
      <trkpt lat="45.63411" lon="6.53039">
        <ele>2238.2</ele>
        <time>2025-02-20T15:06:54Z</time>
      </trkpt>
      <trkpt lat="45.63411" lon="6.53039">
        <ele>2238.2</ele>
        <time>2025-02-20T15:06:55Z</time>
      </trkpt>
      <trkpt lat="45.63411" lon="6.53039">
        <ele>2238.2</ele>
        <time>2025-02-20T15:06:56Z</time>
      </trkpt>
      <trkpt lat="45.63411" lon="6.53039">
        <ele>2238.2</ele>
        <time>2025-02-20T15:06:57Z</time>
      </trkpt>
      <trkpt lat="45.63411" lon="6.53039">
        <ele>2238.2</ele>
        <time>2025-02-20T15:06:58Z</time>
      </trkpt>
      <trkpt lat="45.63411" lon="6.53039">
        <ele>2238.2</ele>
        <time>2025-02-20T15:06:59Z</time>
      </trkpt>
      <trkpt lat="45.63411" lon="6.53039">
        <ele>2238.2</ele>
        <time>2025-02-20T15:07:00Z</time>
      </trkpt>
      <trkpt lat="45.63411" lon="6.53039">
        <ele>2238</ele>
        <time>2025-02-20T15:07:01Z</time>
      </trkpt>
      <trkpt lat="45.63411" lon="6.53039">
        <ele>2238</ele>
        <time>2025-02-20T15:07:02Z</time>
      </trkpt>
      <trkpt lat="45.63411" lon="6.53039">
        <ele>2238</ele>
        <time>2025-02-20T15:07:03Z</time>
      </trkpt>
      <trkpt lat="45.63411" lon="6.53039">
        <ele>2238</ele>
        <time>2025-02-20T15:07:04Z</time>
      </trkpt>
      <trkpt lat="45.63411" lon="6.53039">
        <ele>2238.2</ele>
        <time>2025-02-20T15:07:05Z</time>
      </trkpt>
      <trkpt lat="45.63411" lon="6.53039">
        <ele>2238.2</ele>
        <time>2025-02-20T15:07:06Z</time>
      </trkpt>
      <trkpt lat="45.63411" lon="6.53039">
        <ele>2238.2</ele>
        <time>2025-02-20T15:07:07Z</time>
      </trkpt>
      <trkpt lat="45.63411" lon="6.53039">
        <ele>2238.2</ele>
        <time>2025-02-20T15:07:08Z</time>
      </trkpt>
      <trkpt lat="45.63411" lon="6.53039">
        <ele>2238.2</ele>
        <time>2025-02-20T15:07:09Z</time>
      </trkpt>
      <trkpt lat="45.63411" lon="6.53039">
        <ele>2238.2</ele>
        <time>2025-02-20T15:07:10Z</time>
      </trkpt>
      <trkpt lat="45.63411" lon="6.53039">
        <ele>2238.2</ele>
        <time>2025-02-20T15:07:11Z</time>
      </trkpt>
      <trkpt lat="45.63411" lon="6.53039">
        <ele>2238.2</ele>
        <time>2025-02-20T15:07:12Z</time>
      </trkpt>
      <trkpt lat="45.63411" lon="6.53039">
        <ele>2237.8</ele>
        <time>2025-02-20T15:07:13Z</time>
      </trkpt>
      <trkpt lat="45.63411" lon="6.53039">
        <ele>2237.8</ele>
        <time>2025-02-20T15:07:14Z</time>
      </trkpt>
      <trkpt lat="45.63411" lon="6.53039">
        <ele>2237.8</ele>
        <time>2025-02-20T15:07:15Z</time>
      </trkpt>
      <trkpt lat="45.63411" lon="6.53039">
        <ele>2238</ele>
        <time>2025-02-20T15:07:16Z</time>
      </trkpt>
      <trkpt lat="45.63411" lon="6.53039">
        <ele>2238</ele>
        <time>2025-02-20T15:07:17Z</time>
      </trkpt>
      <trkpt lat="45.63411" lon="6.53039">
        <ele>2238</ele>
        <time>2025-02-20T15:07:18Z</time>
      </trkpt>
      <trkpt lat="45.63411" lon="6.53039">
        <ele>2238</ele>
        <time>2025-02-20T15:07:19Z</time>
      </trkpt>
      <trkpt lat="45.63411" lon="6.53039">
        <ele>2238</ele>
        <time>2025-02-20T15:07:20Z</time>
      </trkpt>
      <trkpt lat="45.63411" lon="6.53039">
        <ele>2238.4</ele>
        <time>2025-02-20T15:07:21Z</time>
      </trkpt>
      <trkpt lat="45.63411" lon="6.53039">
        <ele>2238.4</ele>
        <time>2025-02-20T15:07:22Z</time>
      </trkpt>
      <trkpt lat="45.63411" lon="6.53039">
        <ele>2238.4</ele>
        <time>2025-02-20T15:07:23Z</time>
      </trkpt>
      <trkpt lat="45.63411" lon="6.53039">
        <ele>2238</ele>
        <time>2025-02-20T15:07:24Z</time>
      </trkpt>
      <trkpt lat="45.63411" lon="6.53039">
        <ele>2237.6</ele>
        <time>2025-02-20T15:07:25Z</time>
      </trkpt>
      <trkpt lat="45.63411" lon="6.53039">
        <ele>2237.6</ele>
        <time>2025-02-20T15:07:26Z</time>
      </trkpt>
      <trkpt lat="45.63411" lon="6.53039">
        <ele>2237.6</ele>
        <time>2025-02-20T15:07:27Z</time>
      </trkpt>
      <trkpt lat="45.63411" lon="6.53039">
        <ele>2237.8</ele>
        <time>2025-02-20T15:07:28Z</time>
      </trkpt>
      <trkpt lat="45.63411" lon="6.53039">
        <ele>2238.2</ele>
        <time>2025-02-20T15:07:29Z</time>
      </trkpt>
      <trkpt lat="45.63411" lon="6.53039">
        <ele>2238.2</ele>
        <time>2025-02-20T15:07:30Z</time>
      </trkpt>
      <trkpt lat="45.63411" lon="6.53039">
        <ele>2238.2</ele>
        <time>2025-02-20T15:07:31Z</time>
      </trkpt>
      <trkpt lat="45.63411" lon="6.53039">
        <ele>2238.2</ele>
        <time>2025-02-20T15:07:32Z</time>
      </trkpt>
      <trkpt lat="45.63411" lon="6.53039">
        <ele>2238</ele>
        <time>2025-02-20T15:07:33Z</time>
      </trkpt>
      <trkpt lat="45.63411" lon="6.53039">
        <ele>2238</ele>
        <time>2025-02-20T15:07:34Z</time>
      </trkpt>
      <trkpt lat="45.63411" lon="6.53039">
        <ele>2238</ele>
        <time>2025-02-20T15:07:35Z</time>
      </trkpt>
      <trkpt lat="45.63411" lon="6.53039">
        <ele>2238</ele>
        <time>2025-02-20T15:07:36Z</time>
      </trkpt>
      <trkpt lat="45.63411" lon="6.53039">
        <ele>2238</ele>
        <time>2025-02-20T15:07:37Z</time>
      </trkpt>
      <trkpt lat="45.63411" lon="6.53039">
        <ele>2238</ele>
        <time>2025-02-20T15:07:38Z</time>
      </trkpt>
      <trkpt lat="45.63411" lon="6.53039">
        <ele>2238</ele>
        <time>2025-02-20T15:07:39Z</time>
      </trkpt>
      <trkpt lat="45.63411" lon="6.53039">
        <ele>2238</ele>
        <time>2025-02-20T15:07:40Z</time>
      </trkpt>
      <trkpt lat="45.63411" lon="6.53039">
        <ele>2238.4</ele>
        <time>2025-02-20T15:07:41Z</time>
      </trkpt>
      <trkpt lat="45.63411" lon="6.53039">
        <ele>2238.4</ele>
        <time>2025-02-20T15:07:42Z</time>
      </trkpt>
      <trkpt lat="45.63411" lon="6.53039">
        <ele>2238.4</ele>
        <time>2025-02-20T15:07:43Z</time>
      </trkpt>
      <trkpt lat="45.63411" lon="6.53039">
        <ele>2238.4</ele>
        <time>2025-02-20T15:07:44Z</time>
      </trkpt>
      <trkpt lat="45.63411" lon="6.53039">
        <ele>2237.8</ele>
        <time>2025-02-20T15:07:45Z</time>
      </trkpt>
      <trkpt lat="45.63411" lon="6.53039">
        <ele>2237.8</ele>
        <time>2025-02-20T15:07:46Z</time>
      </trkpt>
      <trkpt lat="45.63411" lon="6.53039">
        <ele>2237.8</ele>
        <time>2025-02-20T15:07:47Z</time>
      </trkpt>
      <trkpt lat="45.63411" lon="6.53039">
        <ele>2238.2</ele>
        <time>2025-02-20T15:07:48Z</time>
      </trkpt>
      <trkpt lat="45.63411" lon="6.53039">
        <ele>2238.6</ele>
        <time>2025-02-20T15:07:49Z</time>
      </trkpt>
      <trkpt lat="45.63411" lon="6.53039">
        <ele>2238.6</ele>
        <time>2025-02-20T15:07:50Z</time>
      </trkpt>
      <trkpt lat="45.63411" lon="6.53039">
        <ele>2238.6</ele>
        <time>2025-02-20T15:07:51Z</time>
      </trkpt>
      <trkpt lat="45.63411" lon="6.53039">
        <ele>2238.6</ele>
        <time>2025-02-20T15:07:52Z</time>
      </trkpt>
      <trkpt lat="45.63411" lon="6.53039">
        <ele>2238.6</ele>
        <time>2025-02-20T15:07:53Z</time>
      </trkpt>
      <trkpt lat="45.63411" lon="6.53039">
        <ele>2238.6</ele>
        <time>2025-02-20T15:07:54Z</time>
      </trkpt>
      <trkpt lat="45.63411" lon="6.53039">
        <ele>2238.6</ele>
        <time>2025-02-20T15:07:55Z</time>
      </trkpt>
      <trkpt lat="45.63411" lon="6.53039">
        <ele>2238.2</ele>
        <time>2025-02-20T15:07:56Z</time>
      </trkpt>
      <trkpt lat="45.63411" lon="6.53039">
        <ele>2238</ele>
        <time>2025-02-20T15:07:57Z</time>
      </trkpt>
      <trkpt lat="45.63411" lon="6.53039">
        <ele>2238</ele>
        <time>2025-02-20T15:07:58Z</time>
      </trkpt>
      <trkpt lat="45.63411" lon="6.53039">
        <ele>2238</ele>
        <time>2025-02-20T15:07:59Z</time>
      </trkpt>
      <trkpt lat="45.63411" lon="6.53039">
        <ele>2238.6</ele>
        <time>2025-02-20T15:08:00Z</time>
      </trkpt>
      <trkpt lat="45.63411" lon="6.53039">
        <ele>2238.6</ele>
        <time>2025-02-20T15:08:01Z</time>
      </trkpt>
      <trkpt lat="45.63411" lon="6.53039">
        <ele>2238.6</ele>
        <time>2025-02-20T15:08:02Z</time>
      </trkpt>
      <trkpt lat="45.63411" lon="6.53039">
        <ele>2238.6</ele>
        <time>2025-02-20T15:08:03Z</time>
      </trkpt>
      <trkpt lat="45.63411" lon="6.53039">
        <ele>2238.2</ele>
        <time>2025-02-20T15:08:04Z</time>
      </trkpt>
      <trkpt lat="45.63411" lon="6.53039">
        <ele>2238.4</ele>
        <time>2025-02-20T15:08:05Z</time>
      </trkpt>
      <trkpt lat="45.63411" lon="6.53039">
        <ele>2238.4</ele>
        <time>2025-02-20T15:08:06Z</time>
      </trkpt>
      <trkpt lat="45.63411" lon="6.53039">
        <ele>2238.4</ele>
        <time>2025-02-20T15:08:07Z</time>
      </trkpt>
      <trkpt lat="45.63411" lon="6.53039">
        <ele>2238.4</ele>
        <time>2025-02-20T15:08:08Z</time>
      </trkpt>
      <trkpt lat="45.63411" lon="6.53039">
        <ele>2238</ele>
        <time>2025-02-20T15:08:09Z</time>
      </trkpt>
      <trkpt lat="45.63411" lon="6.53039">
        <ele>2238</ele>
        <time>2025-02-20T15:08:10Z</time>
      </trkpt>
      <trkpt lat="45.63411" lon="6.53039">
        <ele>2238</ele>
        <time>2025-02-20T15:08:11Z</time>
      </trkpt>
      <trkpt lat="45.63411" lon="6.53039">
        <ele>2238</ele>
        <time>2025-02-20T15:08:12Z</time>
      </trkpt>
      <trkpt lat="45.63411" lon="6.53039">
        <ele>2237.4</ele>
        <time>2025-02-20T15:08:13Z</time>
      </trkpt>
      <trkpt lat="45.63411" lon="6.53039">
        <ele>2237.4</ele>
        <time>2025-02-20T15:08:14Z</time>
      </trkpt>
      <trkpt lat="45.63411" lon="6.53039">
        <ele>2237.4</ele>
        <time>2025-02-20T15:08:15Z</time>
      </trkpt>
      <trkpt lat="45.63411" lon="6.53039">
        <ele>2237.8</ele>
        <time>2025-02-20T15:08:16Z</time>
      </trkpt>
      <trkpt lat="45.63411" lon="6.53039">
        <ele>2237.8</ele>
        <time>2025-02-20T15:08:17Z</time>
      </trkpt>
      <trkpt lat="45.63411" lon="6.53039">
        <ele>2237.8</ele>
        <time>2025-02-20T15:08:18Z</time>
      </trkpt>
      <trkpt lat="45.63411" lon="6.53039">
        <ele>2237.8</ele>
        <time>2025-02-20T15:08:19Z</time>
      </trkpt>
      <trkpt lat="45.63411" lon="6.53039">
        <ele>2237.6</ele>
        <time>2025-02-20T15:08:20Z</time>
      </trkpt>
      <trkpt lat="45.63411" lon="6.53039">
        <ele>2237.6</ele>
        <time>2025-02-20T15:08:21Z</time>
      </trkpt>
      <trkpt lat="45.63411" lon="6.53039">
        <ele>2237.6</ele>
        <time>2025-02-20T15:08:22Z</time>
      </trkpt>
      <trkpt lat="45.63411" lon="6.53039">
        <ele>2237.6</ele>
        <time>2025-02-20T15:08:23Z</time>
      </trkpt>
      <trkpt lat="45.63411" lon="6.53039">
        <ele>2237.6</ele>
        <time>2025-02-20T15:08:24Z</time>
      </trkpt>
      <trkpt lat="45.63411" lon="6.53039">
        <ele>2237.4</ele>
        <time>2025-02-20T15:08:25Z</time>
      </trkpt>
      <trkpt lat="45.63411" lon="6.53039">
        <ele>2237.4</ele>
        <time>2025-02-20T15:08:26Z</time>
      </trkpt>
      <trkpt lat="45.63411" lon="6.53039">
        <ele>2237.4</ele>
        <time>2025-02-20T15:08:27Z</time>
      </trkpt>
      <trkpt lat="45.63411" lon="6.53039">
        <ele>2237.4</ele>
        <time>2025-02-20T15:08:28Z</time>
      </trkpt>
      <trkpt lat="45.63411" lon="6.53039">
        <ele>2237.8</ele>
        <time>2025-02-20T15:08:29Z</time>
      </trkpt>
      <trkpt lat="45.63411" lon="6.53039">
        <ele>2237.8</ele>
        <time>2025-02-20T15:08:30Z</time>
      </trkpt>
      <trkpt lat="45.63411" lon="6.53039">
        <ele>2237.8</ele>
        <time>2025-02-20T15:08:31Z</time>
      </trkpt>
      <trkpt lat="45.63411" lon="6.53039">
        <ele>2237.8</ele>
        <time>2025-02-20T15:08:32Z</time>
      </trkpt>
      <trkpt lat="45.63411" lon="6.53039">
        <ele>2237.6</ele>
        <time>2025-02-20T15:08:33Z</time>
      </trkpt>
      <trkpt lat="45.63411" lon="6.53039">
        <ele>2237.6</ele>
        <time>2025-02-20T15:08:34Z</time>
      </trkpt>
      <trkpt lat="45.63411" lon="6.53039">
        <ele>2237.6</ele>
        <time>2025-02-20T15:08:35Z</time>
      </trkpt>
      <trkpt lat="45.63411" lon="6.53039">
        <ele>2237.6</ele>
        <time>2025-02-20T15:08:36Z</time>
      </trkpt>
      <trkpt lat="45.63411" lon="6.53039">
        <ele>2237.8</ele>
        <time>2025-02-20T15:08:37Z</time>
      </trkpt>
      <trkpt lat="45.63411" lon="6.53039">
        <ele>2237.8</ele>
        <time>2025-02-20T15:08:38Z</time>
      </trkpt>
      <trkpt lat="45.63411" lon="6.53039">
        <ele>2237.8</ele>
        <time>2025-02-20T15:08:39Z</time>
      </trkpt>
      <trkpt lat="45.63411" lon="6.53039">
        <ele>2237.8</ele>
        <time>2025-02-20T15:08:40Z</time>
      </trkpt>
      <trkpt lat="45.63417" lon="6.53044">
        <ele>2238.2</ele>
        <time>2025-02-20T15:08:41Z</time>
      </trkpt>
      <trkpt lat="45.63417" lon="6.53045">
        <ele>2238.2</ele>
        <time>2025-02-20T15:08:42Z</time>
      </trkpt>
      <trkpt lat="45.63418" lon="6.53045">
        <ele>2238.2</ele>
        <time>2025-02-20T15:08:43Z</time>
      </trkpt>
      <trkpt lat="45.63418" lon="6.53046">
        <ele>2238.2</ele>
        <time>2025-02-20T15:08:44Z</time>
      </trkpt>
      <trkpt lat="45.63419" lon="6.53046">
        <ele>2238</ele>
        <time>2025-02-20T15:08:45Z</time>
      </trkpt>
      <trkpt lat="45.63419" lon="6.53046">
        <ele>2238</ele>
        <time>2025-02-20T15:08:46Z</time>
      </trkpt>
      <trkpt lat="45.63419" lon="6.53046">
        <ele>2238</ele>
        <time>2025-02-20T15:08:47Z</time>
      </trkpt>
      <trkpt lat="45.63421" lon="6.53046">
        <ele>2237.6</ele>
        <time>2025-02-20T15:08:48Z</time>
      </trkpt>
      <trkpt lat="45.63421" lon="6.53046">
        <ele>2236.8</ele>
        <time>2025-02-20T15:08:49Z</time>
      </trkpt>
      <trkpt lat="45.63421" lon="6.53046">
        <ele>2236.8</ele>
        <time>2025-02-20T15:08:50Z</time>
      </trkpt>
      <trkpt lat="45.63421" lon="6.53046">
        <ele>2236.8</ele>
        <time>2025-02-20T15:08:51Z</time>
      </trkpt>
      <trkpt lat="45.63421" lon="6.53046">
        <ele>2237.8</ele>
        <time>2025-02-20T15:08:52Z</time>
      </trkpt>
      <trkpt lat="45.63421" lon="6.53046">
        <ele>2237.4</ele>
        <time>2025-02-20T15:08:53Z</time>
      </trkpt>
      <trkpt lat="45.63421" lon="6.53046">
        <ele>2237.4</ele>
        <time>2025-02-20T15:08:54Z</time>
      </trkpt>
      <trkpt lat="45.63421" lon="6.53046">
        <ele>2237.4</ele>
        <time>2025-02-20T15:08:55Z</time>
      </trkpt>
      <trkpt lat="45.63421" lon="6.53046">
        <ele>2237.4</ele>
        <time>2025-02-20T15:08:56Z</time>
      </trkpt>
      <trkpt lat="45.63421" lon="6.53046">
        <ele>2237</ele>
        <time>2025-02-20T15:08:57Z</time>
      </trkpt>
      <trkpt lat="45.63421" lon="6.53046">
        <ele>2237</ele>
        <time>2025-02-20T15:08:58Z</time>
      </trkpt>
      <trkpt lat="45.63421" lon="6.53046">
        <ele>2237</ele>
        <time>2025-02-20T15:08:59Z</time>
      </trkpt>
      <trkpt lat="45.63423" lon="6.53047">
        <ele>2237.4</ele>
        <time>2025-02-20T15:09:00Z</time>
      </trkpt>
      <trkpt lat="45.63423" lon="6.53048">
        <ele>2237.4</ele>
        <time>2025-02-20T15:09:01Z</time>
      </trkpt>
      <trkpt lat="45.63424" lon="6.53048">
        <ele>2237.4</ele>
        <time>2025-02-20T15:09:02Z</time>
      </trkpt>
      <trkpt lat="45.63424" lon="6.53048">
        <ele>2237.4</ele>
        <time>2025-02-20T15:09:03Z</time>
      </trkpt>
      <trkpt lat="45.63425" lon="6.53048">
        <ele>2237.4</ele>
        <time>2025-02-20T15:09:04Z</time>
      </trkpt>
      <trkpt lat="45.63426" lon="6.53049">
        <ele>2237.2</ele>
        <time>2025-02-20T15:09:05Z</time>
      </trkpt>
      <trkpt lat="45.63426" lon="6.53049">
        <ele>2237.2</ele>
        <time>2025-02-20T15:09:06Z</time>
      </trkpt>
      <trkpt lat="45.63427" lon="6.53049">
        <ele>2237.2</ele>
        <time>2025-02-20T15:09:07Z</time>
      </trkpt>
      <trkpt lat="45.63427" lon="6.53049">
        <ele>2237.2</ele>
        <time>2025-02-20T15:09:08Z</time>
      </trkpt>
      <trkpt lat="45.63428" lon="6.5305">
        <ele>2237.2</ele>
        <time>2025-02-20T15:09:09Z</time>
      </trkpt>
      <trkpt lat="45.63429" lon="6.5305">
        <ele>2237.2</ele>
        <time>2025-02-20T15:09:10Z</time>
      </trkpt>
      <trkpt lat="45.63429" lon="6.5305">
        <ele>2237.2</ele>
        <time>2025-02-20T15:09:11Z</time>
      </trkpt>
      <trkpt lat="45.63429" lon="6.5305">
        <ele>2237.2</ele>
        <time>2025-02-20T15:09:12Z</time>
      </trkpt>
      <trkpt lat="45.63429" lon="6.5305">
        <ele>2237.2</ele>
        <time>2025-02-20T15:09:13Z</time>
      </trkpt>
      <trkpt lat="45.63429" lon="6.5305">
        <ele>2237.2</ele>
        <time>2025-02-20T15:09:14Z</time>
      </trkpt>
      <trkpt lat="45.63429" lon="6.5305">
        <ele>2237.2</ele>
        <time>2025-02-20T15:09:15Z</time>
      </trkpt>
      <trkpt lat="45.63429" lon="6.5305">
        <ele>2236.8</ele>
        <time>2025-02-20T15:09:16Z</time>
      </trkpt>
      <trkpt lat="45.63429" lon="6.5305">
        <ele>2236.8</ele>
        <time>2025-02-20T15:09:17Z</time>
      </trkpt>
      <trkpt lat="45.63429" lon="6.5305">
        <ele>2236.8</ele>
        <time>2025-02-20T15:09:18Z</time>
      </trkpt>
      <trkpt lat="45.63429" lon="6.5305">
        <ele>2236.8</ele>
        <time>2025-02-20T15:09:19Z</time>
      </trkpt>
      <trkpt lat="45.63429" lon="6.5305">
        <ele>2236.8</ele>
        <time>2025-02-20T15:09:20Z</time>
      </trkpt>
      <trkpt lat="45.63429" lon="6.5305">
        <ele>2236.8</ele>
        <time>2025-02-20T15:09:21Z</time>
      </trkpt>
      <trkpt lat="45.63429" lon="6.5305">
        <ele>2236.8</ele>
        <time>2025-02-20T15:09:22Z</time>
      </trkpt>
      <trkpt lat="45.63429" lon="6.5305">
        <ele>2236.8</ele>
        <time>2025-02-20T15:09:23Z</time>
      </trkpt>
      <trkpt lat="45.63429" lon="6.5305">
        <ele>2236.8</ele>
        <time>2025-02-20T15:09:24Z</time>
      </trkpt>
      <trkpt lat="45.63431" lon="6.53049">
        <ele>2236.6</ele>
        <time>2025-02-20T15:09:25Z</time>
      </trkpt>
      <trkpt lat="45.63432" lon="6.5305">
        <ele>2236.6</ele>
        <time>2025-02-20T15:09:26Z</time>
      </trkpt>
      <trkpt lat="45.63433" lon="6.5305">
        <ele>2236.6</ele>
        <time>2025-02-20T15:09:27Z</time>
      </trkpt>
      <trkpt lat="45.63434" lon="6.5305">
        <ele>2236.6</ele>
        <time>2025-02-20T15:09:28Z</time>
      </trkpt>
      <trkpt lat="45.63435" lon="6.53051">
        <ele>2236.2</ele>
        <time>2025-02-20T15:09:29Z</time>
      </trkpt>
      <trkpt lat="45.63436" lon="6.53052">
        <ele>2236.2</ele>
        <time>2025-02-20T15:09:30Z</time>
      </trkpt>
      <trkpt lat="45.63437" lon="6.53053">
        <ele>2236.2</ele>
        <time>2025-02-20T15:09:31Z</time>
      </trkpt>
      <trkpt lat="45.63439" lon="6.53054">
        <ele>2236.2</ele>
        <time>2025-02-20T15:09:32Z</time>
      </trkpt>
      <trkpt lat="45.63439" lon="6.53055">
        <ele>2236.2</ele>
        <time>2025-02-20T15:09:33Z</time>
      </trkpt>
      <trkpt lat="45.6344" lon="6.53055">
        <ele>2236.2</ele>
        <time>2025-02-20T15:09:34Z</time>
      </trkpt>
      <trkpt lat="45.6344" lon="6.53055">
        <ele>2236.2</ele>
        <time>2025-02-20T15:09:35Z</time>
      </trkpt>
      <trkpt lat="45.6344" lon="6.53055">
        <ele>2235.4</ele>
        <time>2025-02-20T15:09:36Z</time>
      </trkpt>
      <trkpt lat="45.63441" lon="6.53057">
        <ele>2235.4</ele>
        <time>2025-02-20T15:09:37Z</time>
      </trkpt>
      <trkpt lat="45.63442" lon="6.53058">
        <ele>2235.4</ele>
        <time>2025-02-20T15:09:38Z</time>
      </trkpt>
      <trkpt lat="45.63442" lon="6.53058">
        <ele>2235.4</ele>
        <time>2025-02-20T15:09:39Z</time>
      </trkpt>
      <trkpt lat="45.63443" lon="6.53059">
        <ele>2235.4</ele>
        <time>2025-02-20T15:09:40Z</time>
      </trkpt>
      <trkpt lat="45.63443" lon="6.53059">
        <ele>2235.2</ele>
        <time>2025-02-20T15:09:41Z</time>
      </trkpt>
      <trkpt lat="45.63443" lon="6.53059">
        <ele>2235.2</ele>
        <time>2025-02-20T15:09:42Z</time>
      </trkpt>
      <trkpt lat="45.63443" lon="6.53059">
        <ele>2235.2</ele>
        <time>2025-02-20T15:09:43Z</time>
      </trkpt>
      <trkpt lat="45.63443" lon="6.53059">
        <ele>2235.2</ele>
        <time>2025-02-20T15:09:44Z</time>
      </trkpt>
      <trkpt lat="45.63443" lon="6.53059">
        <ele>2235.4</ele>
        <time>2025-02-20T15:09:45Z</time>
      </trkpt>
      <trkpt lat="45.63443" lon="6.53059">
        <ele>2235.4</ele>
        <time>2025-02-20T15:09:46Z</time>
      </trkpt>
      <trkpt lat="45.63443" lon="6.53059">
        <ele>2235.4</ele>
        <time>2025-02-20T15:09:47Z</time>
      </trkpt>
      <trkpt lat="45.63443" lon="6.53059">
        <ele>2235.8</ele>
        <time>2025-02-20T15:09:48Z</time>
      </trkpt>
      <trkpt lat="45.63443" lon="6.53059">
        <ele>2235.8</ele>
        <time>2025-02-20T15:09:49Z</time>
      </trkpt>
      <trkpt lat="45.63443" lon="6.53059">
        <ele>2235.8</ele>
        <time>2025-02-20T15:09:50Z</time>
      </trkpt>
      <trkpt lat="45.63443" lon="6.53059">
        <ele>2235.8</ele>
        <time>2025-02-20T15:09:51Z</time>
      </trkpt>
      <trkpt lat="45.63443" lon="6.53059">
        <ele>2235.8</ele>
        <time>2025-02-20T15:09:52Z</time>
      </trkpt>
      <trkpt lat="45.63443" lon="6.53059">
        <ele>2235.6</ele>
        <time>2025-02-20T15:09:53Z</time>
      </trkpt>
      <trkpt lat="45.63443" lon="6.53059">
        <ele>2235.6</ele>
        <time>2025-02-20T15:09:54Z</time>
      </trkpt>
      <trkpt lat="45.63443" lon="6.53059">
        <ele>2235.6</ele>
        <time>2025-02-20T15:09:55Z</time>
      </trkpt>
      <trkpt lat="45.63443" lon="6.53059">
        <ele>2235.6</ele>
        <time>2025-02-20T15:09:56Z</time>
      </trkpt>
      <trkpt lat="45.63443" lon="6.53059">
        <ele>2235.8</ele>
        <time>2025-02-20T15:09:57Z</time>
      </trkpt>
      <trkpt lat="45.63443" lon="6.53059">
        <ele>2235.8</ele>
        <time>2025-02-20T15:09:58Z</time>
      </trkpt>
      <trkpt lat="45.63443" lon="6.53059">
        <ele>2235.8</ele>
        <time>2025-02-20T15:09:59Z</time>
      </trkpt>
      <trkpt lat="45.63443" lon="6.53059">
        <ele>2235.6</ele>
        <time>2025-02-20T15:10:00Z</time>
      </trkpt>
      <trkpt lat="45.63443" lon="6.53059">
        <ele>2235.2</ele>
        <time>2025-02-20T15:10:01Z</time>
      </trkpt>
      <trkpt lat="45.63443" lon="6.53059">
        <ele>2235.2</ele>
        <time>2025-02-20T15:10:02Z</time>
      </trkpt>
      <trkpt lat="45.63443" lon="6.53059">
        <ele>2235.2</ele>
        <time>2025-02-20T15:10:03Z</time>
      </trkpt>
      <trkpt lat="45.63443" lon="6.53059">
        <ele>2235.2</ele>
        <time>2025-02-20T15:10:04Z</time>
      </trkpt>
      <trkpt lat="45.63443" lon="6.53059">
        <ele>2235.2</ele>
        <time>2025-02-20T15:10:05Z</time>
      </trkpt>
      <trkpt lat="45.63443" lon="6.53059">
        <ele>2235.2</ele>
        <time>2025-02-20T15:10:06Z</time>
      </trkpt>
      <trkpt lat="45.63443" lon="6.53059">
        <ele>2235.2</ele>
        <time>2025-02-20T15:10:07Z</time>
      </trkpt>
      <trkpt lat="45.63443" lon="6.53059">
        <ele>2235.6</ele>
        <time>2025-02-20T15:10:08Z</time>
      </trkpt>
      <trkpt lat="45.63443" lon="6.53059">
        <ele>2235.6</ele>
        <time>2025-02-20T15:10:09Z</time>
      </trkpt>
      <trkpt lat="45.63443" lon="6.53059">
        <ele>2235.6</ele>
        <time>2025-02-20T15:10:10Z</time>
      </trkpt>
      <trkpt lat="45.63443" lon="6.53059">
        <ele>2235.6</ele>
        <time>2025-02-20T15:10:11Z</time>
      </trkpt>
      <trkpt lat="45.63443" lon="6.53059">
        <ele>2235.6</ele>
        <time>2025-02-20T15:10:12Z</time>
      </trkpt>
      <trkpt lat="45.63443" lon="6.53059">
        <ele>2235.2</ele>
        <time>2025-02-20T15:10:13Z</time>
      </trkpt>
      <trkpt lat="45.63443" lon="6.53059">
        <ele>2235.2</ele>
        <time>2025-02-20T15:10:14Z</time>
      </trkpt>
      <trkpt lat="45.63443" lon="6.53059">
        <ele>2235.2</ele>
        <time>2025-02-20T15:10:15Z</time>
      </trkpt>
      <trkpt lat="45.63443" lon="6.53059">
        <ele>2235.6</ele>
        <time>2025-02-20T15:10:16Z</time>
      </trkpt>
      <trkpt lat="45.63443" lon="6.53059">
        <ele>2235.8</ele>
        <time>2025-02-20T15:10:17Z</time>
      </trkpt>
      <trkpt lat="45.63443" lon="6.53059">
        <ele>2235.8</ele>
        <time>2025-02-20T15:10:18Z</time>
      </trkpt>
      <trkpt lat="45.63443" lon="6.53059">
        <ele>2235.8</ele>
        <time>2025-02-20T15:10:19Z</time>
      </trkpt>
      <trkpt lat="45.63443" lon="6.53059">
        <ele>2235.8</ele>
        <time>2025-02-20T15:10:20Z</time>
      </trkpt>
      <trkpt lat="45.63443" lon="6.53059">
        <ele>2235.4</ele>
        <time>2025-02-20T15:10:21Z</time>
      </trkpt>
      <trkpt lat="45.63443" lon="6.53059">
        <ele>2235.4</ele>
        <time>2025-02-20T15:10:22Z</time>
      </trkpt>
      <trkpt lat="45.63443" lon="6.53059">
        <ele>2235.4</ele>
        <time>2025-02-20T15:10:23Z</time>
      </trkpt>
      <trkpt lat="45.63443" lon="6.53059">
        <ele>2235.4</ele>
        <time>2025-02-20T15:10:24Z</time>
      </trkpt>
      <trkpt lat="45.63443" lon="6.53059">
        <ele>2235.4</ele>
        <time>2025-02-20T15:10:25Z</time>
      </trkpt>
      <trkpt lat="45.63443" lon="6.53059">
        <ele>2235.4</ele>
        <time>2025-02-20T15:10:26Z</time>
      </trkpt>
      <trkpt lat="45.63443" lon="6.53059">
        <ele>2235.4</ele>
        <time>2025-02-20T15:10:27Z</time>
      </trkpt>
      <trkpt lat="45.63443" lon="6.53059">
        <ele>2235.4</ele>
        <time>2025-02-20T15:10:28Z</time>
      </trkpt>
      <trkpt lat="45.63443" lon="6.53059">
        <ele>2235.2</ele>
        <time>2025-02-20T15:10:29Z</time>
      </trkpt>
      <trkpt lat="45.63443" lon="6.53059">
        <ele>2235.2</ele>
        <time>2025-02-20T15:10:30Z</time>
      </trkpt>
      <trkpt lat="45.63443" lon="6.53059">
        <ele>2235.2</ele>
        <time>2025-02-20T15:10:31Z</time>
      </trkpt>
      <trkpt lat="45.63443" lon="6.53059">
        <ele>2235.4</ele>
        <time>2025-02-20T15:10:32Z</time>
      </trkpt>
      <trkpt lat="45.63443" lon="6.53059">
        <ele>2235.6</ele>
        <time>2025-02-20T15:10:33Z</time>
      </trkpt>
      <trkpt lat="45.63443" lon="6.53059">
        <ele>2235.6</ele>
        <time>2025-02-20T15:10:34Z</time>
      </trkpt>
      <trkpt lat="45.63443" lon="6.53059">
        <ele>2235.6</ele>
        <time>2025-02-20T15:10:35Z</time>
      </trkpt>
      <trkpt lat="45.63443" lon="6.53059">
        <ele>2235.6</ele>
        <time>2025-02-20T15:10:36Z</time>
      </trkpt>
      <trkpt lat="45.63443" lon="6.53059">
        <ele>2235</ele>
        <time>2025-02-20T15:10:37Z</time>
      </trkpt>
      <trkpt lat="45.63443" lon="6.53059">
        <ele>2235</ele>
        <time>2025-02-20T15:10:38Z</time>
      </trkpt>
      <trkpt lat="45.63443" lon="6.53059">
        <ele>2235</ele>
        <time>2025-02-20T15:10:39Z</time>
      </trkpt>
      <trkpt lat="45.63443" lon="6.53059">
        <ele>2235.6</ele>
        <time>2025-02-20T15:10:40Z</time>
      </trkpt>
      <trkpt lat="45.63443" lon="6.53059">
        <ele>2235.6</ele>
        <time>2025-02-20T15:10:41Z</time>
      </trkpt>
      <trkpt lat="45.63443" lon="6.53059">
        <ele>2235.6</ele>
        <time>2025-02-20T15:10:42Z</time>
      </trkpt>
      <trkpt lat="45.63443" lon="6.53059">
        <ele>2235.6</ele>
        <time>2025-02-20T15:10:43Z</time>
      </trkpt>
      <trkpt lat="45.63443" lon="6.53059">
        <ele>2235.6</ele>
        <time>2025-02-20T15:10:44Z</time>
      </trkpt>
      <trkpt lat="45.63443" lon="6.53059">
        <ele>2235.6</ele>
        <time>2025-02-20T15:10:45Z</time>
      </trkpt>
      <trkpt lat="45.63443" lon="6.53059">
        <ele>2235.6</ele>
        <time>2025-02-20T15:10:46Z</time>
      </trkpt>
      <trkpt lat="45.63443" lon="6.53059">
        <ele>2235.6</ele>
        <time>2025-02-20T15:10:47Z</time>
      </trkpt>
      <trkpt lat="45.63443" lon="6.53059">
        <ele>2235.6</ele>
        <time>2025-02-20T15:10:48Z</time>
      </trkpt>
      <trkpt lat="45.63443" lon="6.53059">
        <ele>2235.4</ele>
        <time>2025-02-20T15:10:49Z</time>
      </trkpt>
      <trkpt lat="45.63443" lon="6.53059">
        <ele>2235.4</ele>
        <time>2025-02-20T15:10:50Z</time>
      </trkpt>
      <trkpt lat="45.63443" lon="6.53059">
        <ele>2235.4</ele>
        <time>2025-02-20T15:10:51Z</time>
      </trkpt>
      <trkpt lat="45.63443" lon="6.53059">
        <ele>2235.4</ele>
        <time>2025-02-20T15:10:52Z</time>
      </trkpt>
      <trkpt lat="45.63443" lon="6.53059">
        <ele>2235.4</ele>
        <time>2025-02-20T15:10:53Z</time>
      </trkpt>
      <trkpt lat="45.63443" lon="6.53059">
        <ele>2235.4</ele>
        <time>2025-02-20T15:10:54Z</time>
      </trkpt>
      <trkpt lat="45.63443" lon="6.53059">
        <ele>2235.4</ele>
        <time>2025-02-20T15:10:55Z</time>
      </trkpt>
      <trkpt lat="45.63443" lon="6.53059">
        <ele>2235.4</ele>
        <time>2025-02-20T15:10:56Z</time>
      </trkpt>
      <trkpt lat="45.63443" lon="6.53059">
        <ele>2235.4</ele>
        <time>2025-02-20T15:10:57Z</time>
      </trkpt>
      <trkpt lat="45.63443" lon="6.53059">
        <ele>2235.4</ele>
        <time>2025-02-20T15:10:58Z</time>
      </trkpt>
      <trkpt lat="45.63443" lon="6.53059">
        <ele>2235.4</ele>
        <time>2025-02-20T15:10:59Z</time>
      </trkpt>
      <trkpt lat="45.63443" lon="6.53059">
        <ele>2235.2</ele>
        <time>2025-02-20T15:11:00Z</time>
      </trkpt>
      <trkpt lat="45.63443" lon="6.53059">
        <ele>2235.2</ele>
        <time>2025-02-20T15:11:01Z</time>
      </trkpt>
      <trkpt lat="45.63443" lon="6.53059">
        <ele>2235.2</ele>
        <time>2025-02-20T15:11:02Z</time>
      </trkpt>
      <trkpt lat="45.63443" lon="6.53059">
        <ele>2235.2</ele>
        <time>2025-02-20T15:11:03Z</time>
      </trkpt>
      <trkpt lat="45.63443" lon="6.53059">
        <ele>2235.2</ele>
        <time>2025-02-20T15:11:04Z</time>
      </trkpt>
      <trkpt lat="45.63443" lon="6.53059">
        <ele>2235.6</ele>
        <time>2025-02-20T15:11:05Z</time>
      </trkpt>
      <trkpt lat="45.63443" lon="6.53059">
        <ele>2235.6</ele>
        <time>2025-02-20T15:11:06Z</time>
      </trkpt>
      <trkpt lat="45.63443" lon="6.53059">
        <ele>2235.6</ele>
        <time>2025-02-20T15:11:07Z</time>
      </trkpt>
      <trkpt lat="45.63443" lon="6.53059">
        <ele>2235</ele>
        <time>2025-02-20T15:11:08Z</time>
      </trkpt>
      <trkpt lat="45.63443" lon="6.53059">
        <ele>2235.2</ele>
        <time>2025-02-20T15:11:09Z</time>
      </trkpt>
      <trkpt lat="45.63443" lon="6.53059">
        <ele>2235.2</ele>
        <time>2025-02-20T15:11:10Z</time>
      </trkpt>
      <trkpt lat="45.63443" lon="6.53059">
        <ele>2235.2</ele>
        <time>2025-02-20T15:11:11Z</time>
      </trkpt>
      <trkpt lat="45.63443" lon="6.53059">
        <ele>2235.2</ele>
        <time>2025-02-20T15:11:12Z</time>
      </trkpt>
      <trkpt lat="45.63443" lon="6.53059">
        <ele>2235.6</ele>
        <time>2025-02-20T15:11:13Z</time>
      </trkpt>
      <trkpt lat="45.63443" lon="6.53059">
        <ele>2235.6</ele>
        <time>2025-02-20T15:11:14Z</time>
      </trkpt>
      <trkpt lat="45.63443" lon="6.53059">
        <ele>2235.6</ele>
        <time>2025-02-20T15:11:15Z</time>
      </trkpt>
      <trkpt lat="45.63443" lon="6.53059">
        <ele>2235.4</ele>
        <time>2025-02-20T15:11:16Z</time>
      </trkpt>
      <trkpt lat="45.63443" lon="6.53059">
        <ele>2235.2</ele>
        <time>2025-02-20T15:11:17Z</time>
      </trkpt>
      <trkpt lat="45.63443" lon="6.53059">
        <ele>2235.2</ele>
        <time>2025-02-20T15:11:18Z</time>
      </trkpt>
      <trkpt lat="45.63443" lon="6.53059">
        <ele>2235.2</ele>
        <time>2025-02-20T15:11:19Z</time>
      </trkpt>
      <trkpt lat="45.63443" lon="6.53059">
        <ele>2235</ele>
        <time>2025-02-20T15:11:20Z</time>
      </trkpt>
      <trkpt lat="45.63443" lon="6.53059">
        <ele>2235.6</ele>
        <time>2025-02-20T15:11:21Z</time>
      </trkpt>
      <trkpt lat="45.63443" lon="6.53059">
        <ele>2235.6</ele>
        <time>2025-02-20T15:11:22Z</time>
      </trkpt>
      <trkpt lat="45.63443" lon="6.53059">
        <ele>2235.6</ele>
        <time>2025-02-20T15:11:23Z</time>
      </trkpt>
      <trkpt lat="45.63443" lon="6.53059">
        <ele>2235.2</ele>
        <time>2025-02-20T15:11:24Z</time>
      </trkpt>
      <trkpt lat="45.63443" lon="6.53059">
        <ele>2235</ele>
        <time>2025-02-20T15:11:25Z</time>
      </trkpt>
      <trkpt lat="45.63443" lon="6.53059">
        <ele>2235</ele>
        <time>2025-02-20T15:11:26Z</time>
      </trkpt>
      <trkpt lat="45.63443" lon="6.53059">
        <ele>2235</ele>
        <time>2025-02-20T15:11:27Z</time>
      </trkpt>
      <trkpt lat="45.63443" lon="6.53059">
        <ele>2235</ele>
        <time>2025-02-20T15:11:28Z</time>
      </trkpt>
      <trkpt lat="45.63443" lon="6.53059">
        <ele>2235.4</ele>
        <time>2025-02-20T15:11:29Z</time>
      </trkpt>
      <trkpt lat="45.63443" lon="6.53059">
        <ele>2235.4</ele>
        <time>2025-02-20T15:11:30Z</time>
      </trkpt>
      <trkpt lat="45.63443" lon="6.53059">
        <ele>2235.4</ele>
        <time>2025-02-20T15:11:31Z</time>
      </trkpt>
      <trkpt lat="45.63443" lon="6.53059">
        <ele>2235.4</ele>
        <time>2025-02-20T15:11:32Z</time>
      </trkpt>
      <trkpt lat="45.63443" lon="6.53059">
        <ele>2235.8</ele>
        <time>2025-02-20T15:11:33Z</time>
      </trkpt>
      <trkpt lat="45.63443" lon="6.53059">
        <ele>2235.8</ele>
        <time>2025-02-20T15:11:34Z</time>
      </trkpt>
      <trkpt lat="45.63443" lon="6.53059">
        <ele>2235.8</ele>
        <time>2025-02-20T15:11:35Z</time>
      </trkpt>
      <trkpt lat="45.63443" lon="6.53059">
        <ele>2235</ele>
        <time>2025-02-20T15:11:36Z</time>
      </trkpt>
      <trkpt lat="45.63443" lon="6.53059">
        <ele>2235.2</ele>
        <time>2025-02-20T15:11:37Z</time>
      </trkpt>
      <trkpt lat="45.63443" lon="6.53059">
        <ele>2235.2</ele>
        <time>2025-02-20T15:11:38Z</time>
      </trkpt>
      <trkpt lat="45.63443" lon="6.53059">
        <ele>2235.2</ele>
        <time>2025-02-20T15:11:39Z</time>
      </trkpt>
      <trkpt lat="45.63443" lon="6.53059">
        <ele>2235.4</ele>
        <time>2025-02-20T15:11:40Z</time>
      </trkpt>
      <trkpt lat="45.63443" lon="6.53059">
        <ele>2235.6</ele>
        <time>2025-02-20T15:11:41Z</time>
      </trkpt>
      <trkpt lat="45.63443" lon="6.53059">
        <ele>2235.6</ele>
        <time>2025-02-20T15:11:42Z</time>
      </trkpt>
      <trkpt lat="45.63443" lon="6.53059">
        <ele>2235.6</ele>
        <time>2025-02-20T15:11:43Z</time>
      </trkpt>
      <trkpt lat="45.63443" lon="6.53059">
        <ele>2235.6</ele>
        <time>2025-02-20T15:11:44Z</time>
      </trkpt>
      <trkpt lat="45.63443" lon="6.53059">
        <ele>2235.8</ele>
        <time>2025-02-20T15:11:45Z</time>
      </trkpt>
      <trkpt lat="45.63443" lon="6.53059">
        <ele>2235.8</ele>
        <time>2025-02-20T15:11:46Z</time>
      </trkpt>
      <trkpt lat="45.63443" lon="6.53059">
        <ele>2235.8</ele>
        <time>2025-02-20T15:11:47Z</time>
      </trkpt>
      <trkpt lat="45.63443" lon="6.53059">
        <ele>2235.6</ele>
        <time>2025-02-20T15:11:48Z</time>
      </trkpt>
      <trkpt lat="45.63443" lon="6.53059">
        <ele>2235.2</ele>
        <time>2025-02-20T15:11:49Z</time>
      </trkpt>
      <trkpt lat="45.63443" lon="6.53059">
        <ele>2235.2</ele>
        <time>2025-02-20T15:11:50Z</time>
      </trkpt>
      <trkpt lat="45.63443" lon="6.53059">
        <ele>2235.2</ele>
        <time>2025-02-20T15:11:51Z</time>
      </trkpt>
      <trkpt lat="45.63443" lon="6.53059">
        <ele>2235.2</ele>
        <time>2025-02-20T15:11:52Z</time>
      </trkpt>
      <trkpt lat="45.63443" lon="6.53059">
        <ele>2235.8</ele>
        <time>2025-02-20T15:11:53Z</time>
      </trkpt>
      <trkpt lat="45.63443" lon="6.53059">
        <ele>2235.8</ele>
        <time>2025-02-20T15:11:54Z</time>
      </trkpt>
      <trkpt lat="45.63443" lon="6.53059">
        <ele>2235.8</ele>
        <time>2025-02-20T15:11:55Z</time>
      </trkpt>
      <trkpt lat="45.63443" lon="6.53059">
        <ele>2235.4</ele>
        <time>2025-02-20T15:11:56Z</time>
      </trkpt>
      <trkpt lat="45.63443" lon="6.53059">
        <ele>2235.4</ele>
        <time>2025-02-20T15:11:57Z</time>
      </trkpt>
      <trkpt lat="45.63443" lon="6.53059">
        <ele>2235.4</ele>
        <time>2025-02-20T15:11:58Z</time>
      </trkpt>
      <trkpt lat="45.63443" lon="6.53059">
        <ele>2235.4</ele>
        <time>2025-02-20T15:11:59Z</time>
      </trkpt>
      <trkpt lat="45.63443" lon="6.53059">
        <ele>2235.6</ele>
        <time>2025-02-20T15:12:00Z</time>
      </trkpt>
      <trkpt lat="45.63443" lon="6.53059">
        <ele>2235.8</ele>
        <time>2025-02-20T15:12:01Z</time>
      </trkpt>
      <trkpt lat="45.63443" lon="6.53059">
        <ele>2235.8</ele>
        <time>2025-02-20T15:12:02Z</time>
      </trkpt>
      <trkpt lat="45.63443" lon="6.53059">
        <ele>2235.8</ele>
        <time>2025-02-20T15:12:03Z</time>
      </trkpt>
      <trkpt lat="45.63443" lon="6.53059">
        <ele>2235.8</ele>
        <time>2025-02-20T15:12:04Z</time>
      </trkpt>
      <trkpt lat="45.63443" lon="6.53059">
        <ele>2235.2</ele>
        <time>2025-02-20T15:12:05Z</time>
      </trkpt>
      <trkpt lat="45.63443" lon="6.53059">
        <ele>2235.2</ele>
        <time>2025-02-20T15:12:06Z</time>
      </trkpt>
      <trkpt lat="45.63443" lon="6.53059">
        <ele>2235.2</ele>
        <time>2025-02-20T15:12:07Z</time>
      </trkpt>
      <trkpt lat="45.63443" lon="6.53059">
        <ele>2235.2</ele>
        <time>2025-02-20T15:12:08Z</time>
      </trkpt>
      <trkpt lat="45.63443" lon="6.53059">
        <ele>2235.2</ele>
        <time>2025-02-20T15:12:09Z</time>
      </trkpt>
      <trkpt lat="45.63443" lon="6.53059">
        <ele>2235.2</ele>
        <time>2025-02-20T15:12:10Z</time>
      </trkpt>
      <trkpt lat="45.63443" lon="6.53059">
        <ele>2235.2</ele>
        <time>2025-02-20T15:12:11Z</time>
      </trkpt>
      <trkpt lat="45.63443" lon="6.53059">
        <ele>2235.2</ele>
        <time>2025-02-20T15:12:12Z</time>
      </trkpt>
      <trkpt lat="45.63443" lon="6.53059">
        <ele>2235.4</ele>
        <time>2025-02-20T15:12:13Z</time>
      </trkpt>
      <trkpt lat="45.63443" lon="6.53059">
        <ele>2235.4</ele>
        <time>2025-02-20T15:12:14Z</time>
      </trkpt>
      <trkpt lat="45.63443" lon="6.53059">
        <ele>2235.4</ele>
        <time>2025-02-20T15:12:15Z</time>
      </trkpt>
      <trkpt lat="45.63443" lon="6.53059">
        <ele>2235.2</ele>
        <time>2025-02-20T15:12:16Z</time>
      </trkpt>
      <trkpt lat="45.63443" lon="6.53059">
        <ele>2235.4</ele>
        <time>2025-02-20T15:12:17Z</time>
      </trkpt>
      <trkpt lat="45.63443" lon="6.53059">
        <ele>2235.4</ele>
        <time>2025-02-20T15:12:18Z</time>
      </trkpt>
      <trkpt lat="45.63443" lon="6.53059">
        <ele>2235.4</ele>
        <time>2025-02-20T15:12:19Z</time>
      </trkpt>
      <trkpt lat="45.63443" lon="6.53059">
        <ele>2235.4</ele>
        <time>2025-02-20T15:12:20Z</time>
      </trkpt>
      <trkpt lat="45.63443" lon="6.53059">
        <ele>2235.6</ele>
        <time>2025-02-20T15:12:21Z</time>
      </trkpt>
      <trkpt lat="45.63443" lon="6.53059">
        <ele>2235.6</ele>
        <time>2025-02-20T15:12:22Z</time>
      </trkpt>
      <trkpt lat="45.63443" lon="6.53059">
        <ele>2235.6</ele>
        <time>2025-02-20T15:12:23Z</time>
      </trkpt>
      <trkpt lat="45.63443" lon="6.53059">
        <ele>2235.6</ele>
        <time>2025-02-20T15:12:24Z</time>
      </trkpt>
      <trkpt lat="45.63443" lon="6.53059">
        <ele>2235.6</ele>
        <time>2025-02-20T15:12:25Z</time>
      </trkpt>
      <trkpt lat="45.63443" lon="6.53059">
        <ele>2235.6</ele>
        <time>2025-02-20T15:12:26Z</time>
      </trkpt>
      <trkpt lat="45.63443" lon="6.53059">
        <ele>2235.6</ele>
        <time>2025-02-20T15:12:27Z</time>
      </trkpt>
      <trkpt lat="45.63443" lon="6.53059">
        <ele>2235.6</ele>
        <time>2025-02-20T15:12:28Z</time>
      </trkpt>
      <trkpt lat="45.63443" lon="6.53059">
        <ele>2235.4</ele>
        <time>2025-02-20T15:12:29Z</time>
      </trkpt>
      <trkpt lat="45.63443" lon="6.53059">
        <ele>2235.4</ele>
        <time>2025-02-20T15:12:30Z</time>
      </trkpt>
      <trkpt lat="45.63443" lon="6.53059">
        <ele>2235.4</ele>
        <time>2025-02-20T15:12:31Z</time>
      </trkpt>
      <trkpt lat="45.63443" lon="6.53059">
        <ele>2235.4</ele>
        <time>2025-02-20T15:12:32Z</time>
      </trkpt>
      <trkpt lat="45.63443" lon="6.53059">
        <ele>2235</ele>
        <time>2025-02-20T15:12:33Z</time>
      </trkpt>
      <trkpt lat="45.63443" lon="6.53059">
        <ele>2235</ele>
        <time>2025-02-20T15:12:34Z</time>
      </trkpt>
      <trkpt lat="45.63443" lon="6.53059">
        <ele>2235</ele>
        <time>2025-02-20T15:12:35Z</time>
      </trkpt>
      <trkpt lat="45.63443" lon="6.53059">
        <ele>2235</ele>
        <time>2025-02-20T15:12:36Z</time>
      </trkpt>
      <trkpt lat="45.63443" lon="6.53059">
        <ele>2235.6</ele>
        <time>2025-02-20T15:12:37Z</time>
      </trkpt>
      <trkpt lat="45.63443" lon="6.53059">
        <ele>2235.6</ele>
        <time>2025-02-20T15:12:38Z</time>
      </trkpt>
      <trkpt lat="45.63443" lon="6.53059">
        <ele>2235.6</ele>
        <time>2025-02-20T15:12:39Z</time>
      </trkpt>
      <trkpt lat="45.63443" lon="6.53059">
        <ele>2235.6</ele>
        <time>2025-02-20T15:12:40Z</time>
      </trkpt>
      <trkpt lat="45.63443" lon="6.53059">
        <ele>2235</ele>
        <time>2025-02-20T15:12:41Z</time>
      </trkpt>
      <trkpt lat="45.63443" lon="6.53059">
        <ele>2235</ele>
        <time>2025-02-20T15:12:42Z</time>
      </trkpt>
      <trkpt lat="45.63443" lon="6.53059">
        <ele>2235</ele>
        <time>2025-02-20T15:12:43Z</time>
      </trkpt>
      <trkpt lat="45.63443" lon="6.53059">
        <ele>2235.2</ele>
        <time>2025-02-20T15:12:44Z</time>
      </trkpt>
      <trkpt lat="45.63443" lon="6.53059">
        <ele>2235.4</ele>
        <time>2025-02-20T15:12:45Z</time>
      </trkpt>
      <trkpt lat="45.63443" lon="6.53059">
        <ele>2235.4</ele>
        <time>2025-02-20T15:12:46Z</time>
      </trkpt>
      <trkpt lat="45.63443" lon="6.53059">
        <ele>2235.4</ele>
        <time>2025-02-20T15:12:47Z</time>
      </trkpt>
      <trkpt lat="45.63443" lon="6.53059">
        <ele>2235.4</ele>
        <time>2025-02-20T15:12:48Z</time>
      </trkpt>
      <trkpt lat="45.63443" lon="6.53059">
        <ele>2235</ele>
        <time>2025-02-20T15:12:49Z</time>
      </trkpt>
      <trkpt lat="45.63443" lon="6.53059">
        <ele>2235</ele>
        <time>2025-02-20T15:12:50Z</time>
      </trkpt>
      <trkpt lat="45.63443" lon="6.53059">
        <ele>2235</ele>
        <time>2025-02-20T15:12:51Z</time>
      </trkpt>
      <trkpt lat="45.63443" lon="6.53059">
        <ele>2235</ele>
        <time>2025-02-20T15:12:52Z</time>
      </trkpt>
      <trkpt lat="45.63443" lon="6.53059">
        <ele>2235.2</ele>
        <time>2025-02-20T15:12:53Z</time>
      </trkpt>
      <trkpt lat="45.63443" lon="6.53059">
        <ele>2235.2</ele>
        <time>2025-02-20T15:12:54Z</time>
      </trkpt>
      <trkpt lat="45.63443" lon="6.53059">
        <ele>2235.2</ele>
        <time>2025-02-20T15:12:55Z</time>
      </trkpt>
      <trkpt lat="45.63443" lon="6.53059">
        <ele>2235.4</ele>
        <time>2025-02-20T15:12:56Z</time>
      </trkpt>
      <trkpt lat="45.63443" lon="6.53059">
        <ele>2235.2</ele>
        <time>2025-02-20T15:12:57Z</time>
      </trkpt>
      <trkpt lat="45.63443" lon="6.53059">
        <ele>2235.2</ele>
        <time>2025-02-20T15:12:58Z</time>
      </trkpt>
      <trkpt lat="45.63443" lon="6.53059">
        <ele>2235.2</ele>
        <time>2025-02-20T15:12:59Z</time>
      </trkpt>
      <trkpt lat="45.63443" lon="6.53059">
        <ele>2235.2</ele>
        <time>2025-02-20T15:13:00Z</time>
      </trkpt>
      <trkpt lat="45.63443" lon="6.53059">
        <ele>2235.6</ele>
        <time>2025-02-20T15:13:01Z</time>
      </trkpt>
      <trkpt lat="45.63443" lon="6.53059">
        <ele>2235.6</ele>
        <time>2025-02-20T15:13:02Z</time>
      </trkpt>
      <trkpt lat="45.63443" lon="6.53059">
        <ele>2235.6</ele>
        <time>2025-02-20T15:13:03Z</time>
      </trkpt>
      <trkpt lat="45.63443" lon="6.53059">
        <ele>2235.2</ele>
        <time>2025-02-20T15:13:04Z</time>
      </trkpt>
      <trkpt lat="45.63443" lon="6.53059">
        <ele>2235</ele>
        <time>2025-02-20T15:13:05Z</time>
      </trkpt>
      <trkpt lat="45.63443" lon="6.53059">
        <ele>2235</ele>
        <time>2025-02-20T15:13:06Z</time>
      </trkpt>
      <trkpt lat="45.63443" lon="6.53059">
        <ele>2235</ele>
        <time>2025-02-20T15:13:07Z</time>
      </trkpt>
      <trkpt lat="45.63443" lon="6.53059">
        <ele>2235.2</ele>
        <time>2025-02-20T15:13:08Z</time>
      </trkpt>
      <trkpt lat="45.63443" lon="6.53059">
        <ele>2235.2</ele>
        <time>2025-02-20T15:13:09Z</time>
      </trkpt>
      <trkpt lat="45.63443" lon="6.53059">
        <ele>2235.2</ele>
        <time>2025-02-20T15:13:10Z</time>
      </trkpt>
      <trkpt lat="45.63443" lon="6.53059">
        <ele>2235.2</ele>
        <time>2025-02-20T15:13:11Z</time>
      </trkpt>
      <trkpt lat="45.63443" lon="6.53059">
        <ele>2235.2</ele>
        <time>2025-02-20T15:13:12Z</time>
      </trkpt>
      <trkpt lat="45.63443" lon="6.53059">
        <ele>2235.2</ele>
        <time>2025-02-20T15:13:13Z</time>
      </trkpt>
      <trkpt lat="45.63443" lon="6.53059">
        <ele>2235.2</ele>
        <time>2025-02-20T15:13:14Z</time>
      </trkpt>
      <trkpt lat="45.63443" lon="6.53059">
        <ele>2235.2</ele>
        <time>2025-02-20T15:13:15Z</time>
      </trkpt>
      <trkpt lat="45.63443" lon="6.53059">
        <ele>2235.8</ele>
        <time>2025-02-20T15:13:16Z</time>
      </trkpt>
      <trkpt lat="45.63443" lon="6.53059">
        <ele>2235.6</ele>
        <time>2025-02-20T15:13:17Z</time>
      </trkpt>
      <trkpt lat="45.63443" lon="6.53059">
        <ele>2235.6</ele>
        <time>2025-02-20T15:13:18Z</time>
      </trkpt>
      <trkpt lat="45.63443" lon="6.53059">
        <ele>2235.6</ele>
        <time>2025-02-20T15:13:19Z</time>
      </trkpt>
      <trkpt lat="45.63443" lon="6.53059">
        <ele>2235.2</ele>
        <time>2025-02-20T15:13:20Z</time>
      </trkpt>
      <trkpt lat="45.63443" lon="6.53059">
        <ele>2235.6</ele>
        <time>2025-02-20T15:13:21Z</time>
      </trkpt>
      <trkpt lat="45.63443" lon="6.53059">
        <ele>2235.6</ele>
        <time>2025-02-20T15:13:22Z</time>
      </trkpt>
      <trkpt lat="45.63443" lon="6.53059">
        <ele>2235.6</ele>
        <time>2025-02-20T15:13:23Z</time>
      </trkpt>
      <trkpt lat="45.63443" lon="6.53059">
        <ele>2235.2</ele>
        <time>2025-02-20T15:13:24Z</time>
      </trkpt>
      <trkpt lat="45.63443" lon="6.53059">
        <ele>2235.6</ele>
        <time>2025-02-20T15:13:25Z</time>
      </trkpt>
      <trkpt lat="45.63443" lon="6.53059">
        <ele>2235.6</ele>
        <time>2025-02-20T15:13:26Z</time>
      </trkpt>
      <trkpt lat="45.63443" lon="6.53059">
        <ele>2235.6</ele>
        <time>2025-02-20T15:13:27Z</time>
      </trkpt>
      <trkpt lat="45.63443" lon="6.53059">
        <ele>2235.4</ele>
        <time>2025-02-20T15:13:28Z</time>
      </trkpt>
      <trkpt lat="45.63443" lon="6.53059">
        <ele>2235.4</ele>
        <time>2025-02-20T15:13:29Z</time>
      </trkpt>
      <trkpt lat="45.63443" lon="6.53059">
        <ele>2235.4</ele>
        <time>2025-02-20T15:13:30Z</time>
      </trkpt>
      <trkpt lat="45.63443" lon="6.53059">
        <ele>2235.4</ele>
        <time>2025-02-20T15:13:31Z</time>
      </trkpt>
      <trkpt lat="45.63443" lon="6.53059">
        <ele>2235.4</ele>
        <time>2025-02-20T15:13:32Z</time>
      </trkpt>
      <trkpt lat="45.63443" lon="6.53059">
        <ele>2235.4</ele>
        <time>2025-02-20T15:13:33Z</time>
      </trkpt>
      <trkpt lat="45.63443" lon="6.53059">
        <ele>2235.4</ele>
        <time>2025-02-20T15:13:34Z</time>
      </trkpt>
      <trkpt lat="45.63443" lon="6.53059">
        <ele>2235.4</ele>
        <time>2025-02-20T15:13:35Z</time>
      </trkpt>
      <trkpt lat="45.63443" lon="6.53059">
        <ele>2235.2</ele>
        <time>2025-02-20T15:13:36Z</time>
      </trkpt>
      <trkpt lat="45.63443" lon="6.53059">
        <ele>2235.4</ele>
        <time>2025-02-20T15:13:37Z</time>
      </trkpt>
      <trkpt lat="45.63443" lon="6.53059">
        <ele>2235.4</ele>
        <time>2025-02-20T15:13:38Z</time>
      </trkpt>
      <trkpt lat="45.63443" lon="6.53059">
        <ele>2235.4</ele>
        <time>2025-02-20T15:13:39Z</time>
      </trkpt>
      <trkpt lat="45.63443" lon="6.53059">
        <ele>2235.4</ele>
        <time>2025-02-20T15:13:40Z</time>
      </trkpt>
      <trkpt lat="45.63443" lon="6.53059">
        <ele>2235.6</ele>
        <time>2025-02-20T15:13:41Z</time>
      </trkpt>
      <trkpt lat="45.63443" lon="6.53059">
        <ele>2235.6</ele>
        <time>2025-02-20T15:13:42Z</time>
      </trkpt>
      <trkpt lat="45.63443" lon="6.53059">
        <ele>2235.6</ele>
        <time>2025-02-20T15:13:43Z</time>
      </trkpt>
      <trkpt lat="45.63443" lon="6.53059">
        <ele>2235.2</ele>
        <time>2025-02-20T15:13:44Z</time>
      </trkpt>
      <trkpt lat="45.63443" lon="6.53059">
        <ele>2235.4</ele>
        <time>2025-02-20T15:13:45Z</time>
      </trkpt>
      <trkpt lat="45.63443" lon="6.53059">
        <ele>2235.4</ele>
        <time>2025-02-20T15:13:46Z</time>
      </trkpt>
      <trkpt lat="45.63443" lon="6.53059">
        <ele>2235.4</ele>
        <time>2025-02-20T15:13:47Z</time>
      </trkpt>
      <trkpt lat="45.63443" lon="6.53059">
        <ele>2235.4</ele>
        <time>2025-02-20T15:13:48Z</time>
      </trkpt>
      <trkpt lat="45.63443" lon="6.53059">
        <ele>2235.4</ele>
        <time>2025-02-20T15:13:49Z</time>
      </trkpt>
      <trkpt lat="45.63443" lon="6.53059">
        <ele>2235.4</ele>
        <time>2025-02-20T15:13:50Z</time>
      </trkpt>
      <trkpt lat="45.63443" lon="6.53059">
        <ele>2235.4</ele>
        <time>2025-02-20T15:13:51Z</time>
      </trkpt>
      <trkpt lat="45.63443" lon="6.53059">
        <ele>2235.6</ele>
        <time>2025-02-20T15:13:52Z</time>
      </trkpt>
      <trkpt lat="45.63443" lon="6.53059">
        <ele>2235.6</ele>
        <time>2025-02-20T15:13:53Z</time>
      </trkpt>
      <trkpt lat="45.63443" lon="6.53059">
        <ele>2235.6</ele>
        <time>2025-02-20T15:13:54Z</time>
      </trkpt>
      <trkpt lat="45.63443" lon="6.53059">
        <ele>2235.6</ele>
        <time>2025-02-20T15:13:55Z</time>
      </trkpt>
      <trkpt lat="45.63443" lon="6.53059">
        <ele>2235.6</ele>
        <time>2025-02-20T15:13:56Z</time>
      </trkpt>
      <trkpt lat="45.63443" lon="6.53059">
        <ele>2235.8</ele>
        <time>2025-02-20T15:13:57Z</time>
      </trkpt>
      <trkpt lat="45.63443" lon="6.53059">
        <ele>2235.8</ele>
        <time>2025-02-20T15:13:58Z</time>
      </trkpt>
      <trkpt lat="45.63443" lon="6.53059">
        <ele>2235.8</ele>
        <time>2025-02-20T15:13:59Z</time>
      </trkpt>
      <trkpt lat="45.63443" lon="6.53059">
        <ele>2235.4</ele>
        <time>2025-02-20T15:14:00Z</time>
      </trkpt>
      <trkpt lat="45.63443" lon="6.53059">
        <ele>2235.4</ele>
        <time>2025-02-20T15:14:01Z</time>
      </trkpt>
      <trkpt lat="45.63443" lon="6.53059">
        <ele>2235.4</ele>
        <time>2025-02-20T15:14:02Z</time>
      </trkpt>
      <trkpt lat="45.63443" lon="6.53059">
        <ele>2235.4</ele>
        <time>2025-02-20T15:14:03Z</time>
      </trkpt>
      <trkpt lat="45.63443" lon="6.53059">
        <ele>2235.4</ele>
        <time>2025-02-20T15:14:04Z</time>
      </trkpt>
      <trkpt lat="45.63443" lon="6.53059">
        <ele>2236</ele>
        <time>2025-02-20T15:14:05Z</time>
      </trkpt>
      <trkpt lat="45.63443" lon="6.53059">
        <ele>2236</ele>
        <time>2025-02-20T15:14:06Z</time>
      </trkpt>
      <trkpt lat="45.63443" lon="6.53059">
        <ele>2236</ele>
        <time>2025-02-20T15:14:07Z</time>
      </trkpt>
      <trkpt lat="45.63443" lon="6.53059">
        <ele>2235.4</ele>
        <time>2025-02-20T15:14:08Z</time>
      </trkpt>
      <trkpt lat="45.63443" lon="6.53059">
        <ele>2235.6</ele>
        <time>2025-02-20T15:14:09Z</time>
      </trkpt>
      <trkpt lat="45.63443" lon="6.53059">
        <ele>2235.6</ele>
        <time>2025-02-20T15:14:10Z</time>
      </trkpt>
      <trkpt lat="45.63443" lon="6.53059">
        <ele>2235.6</ele>
        <time>2025-02-20T15:14:11Z</time>
      </trkpt>
      <trkpt lat="45.63443" lon="6.53059">
        <ele>2235.4</ele>
        <time>2025-02-20T15:14:12Z</time>
      </trkpt>
      <trkpt lat="45.63443" lon="6.53059">
        <ele>2235.8</ele>
        <time>2025-02-20T15:14:13Z</time>
      </trkpt>
      <trkpt lat="45.63443" lon="6.53059">
        <ele>2235.8</ele>
        <time>2025-02-20T15:14:14Z</time>
      </trkpt>
      <trkpt lat="45.63443" lon="6.53059">
        <ele>2235.8</ele>
        <time>2025-02-20T15:14:15Z</time>
      </trkpt>
      <trkpt lat="45.63443" lon="6.53059">
        <ele>2235.8</ele>
        <time>2025-02-20T15:14:16Z</time>
      </trkpt>
      <trkpt lat="45.63443" lon="6.53059">
        <ele>2235.6</ele>
        <time>2025-02-20T15:14:17Z</time>
      </trkpt>
      <trkpt lat="45.63443" lon="6.53059">
        <ele>2235.6</ele>
        <time>2025-02-20T15:14:18Z</time>
      </trkpt>
      <trkpt lat="45.63443" lon="6.53059">
        <ele>2235.6</ele>
        <time>2025-02-20T15:14:19Z</time>
      </trkpt>
      <trkpt lat="45.63443" lon="6.53059">
        <ele>2235.2</ele>
        <time>2025-02-20T15:14:20Z</time>
      </trkpt>
      <trkpt lat="45.63443" lon="6.53059">
        <ele>2235.2</ele>
        <time>2025-02-20T15:14:21Z</time>
      </trkpt>
      <trkpt lat="45.63443" lon="6.53059">
        <ele>2235.2</ele>
        <time>2025-02-20T15:14:22Z</time>
      </trkpt>
      <trkpt lat="45.63443" lon="6.53059">
        <ele>2235.2</ele>
        <time>2025-02-20T15:14:23Z</time>
      </trkpt>
      <trkpt lat="45.63443" lon="6.53059">
        <ele>2235.2</ele>
        <time>2025-02-20T15:14:24Z</time>
      </trkpt>
      <trkpt lat="45.63443" lon="6.53059">
        <ele>2235.4</ele>
        <time>2025-02-20T15:14:25Z</time>
      </trkpt>
      <trkpt lat="45.63443" lon="6.53059">
        <ele>2235.4</ele>
        <time>2025-02-20T15:14:26Z</time>
      </trkpt>
      <trkpt lat="45.63443" lon="6.53059">
        <ele>2235.4</ele>
        <time>2025-02-20T15:14:27Z</time>
      </trkpt>
      <trkpt lat="45.63443" lon="6.53059">
        <ele>2235.4</ele>
        <time>2025-02-20T15:14:28Z</time>
      </trkpt>
      <trkpt lat="45.63443" lon="6.53059">
        <ele>2235.4</ele>
        <time>2025-02-20T15:14:29Z</time>
      </trkpt>
      <trkpt lat="45.63443" lon="6.53059">
        <ele>2235.4</ele>
        <time>2025-02-20T15:14:30Z</time>
      </trkpt>
      <trkpt lat="45.63443" lon="6.53059">
        <ele>2235.4</ele>
        <time>2025-02-20T15:14:31Z</time>
      </trkpt>
      <trkpt lat="45.63443" lon="6.53059">
        <ele>2235.4</ele>
        <time>2025-02-20T15:14:32Z</time>
      </trkpt>
      <trkpt lat="45.63443" lon="6.53059">
        <ele>2235.4</ele>
        <time>2025-02-20T15:14:33Z</time>
      </trkpt>
      <trkpt lat="45.63443" lon="6.53059">
        <ele>2235.4</ele>
        <time>2025-02-20T15:14:34Z</time>
      </trkpt>
      <trkpt lat="45.63443" lon="6.53059">
        <ele>2235.4</ele>
        <time>2025-02-20T15:14:35Z</time>
      </trkpt>
      <trkpt lat="45.63443" lon="6.53059">
        <ele>2235.4</ele>
        <time>2025-02-20T15:14:36Z</time>
      </trkpt>
      <trkpt lat="45.63443" lon="6.53059">
        <ele>2235.2</ele>
        <time>2025-02-20T15:14:37Z</time>
      </trkpt>
      <trkpt lat="45.63443" lon="6.53059">
        <ele>2235.2</ele>
        <time>2025-02-20T15:14:38Z</time>
      </trkpt>
      <trkpt lat="45.63443" lon="6.53059">
        <ele>2235.2</ele>
        <time>2025-02-20T15:14:39Z</time>
      </trkpt>
      <trkpt lat="45.63443" lon="6.53059">
        <ele>2235.2</ele>
        <time>2025-02-20T15:14:40Z</time>
      </trkpt>
      <trkpt lat="45.63443" lon="6.53059">
        <ele>2235</ele>
        <time>2025-02-20T15:14:41Z</time>
      </trkpt>
      <trkpt lat="45.63443" lon="6.53059">
        <ele>2235</ele>
        <time>2025-02-20T15:14:42Z</time>
      </trkpt>
      <trkpt lat="45.63443" lon="6.53059">
        <ele>2235</ele>
        <time>2025-02-20T15:14:43Z</time>
      </trkpt>
      <trkpt lat="45.63443" lon="6.53059">
        <ele>2235.4</ele>
        <time>2025-02-20T15:14:44Z</time>
      </trkpt>
      <trkpt lat="45.63443" lon="6.53059">
        <ele>2235.4</ele>
        <time>2025-02-20T15:14:45Z</time>
      </trkpt>
      <trkpt lat="45.63443" lon="6.53059">
        <ele>2235.4</ele>
        <time>2025-02-20T15:14:46Z</time>
      </trkpt>
      <trkpt lat="45.63443" lon="6.53059">
        <ele>2235.4</ele>
        <time>2025-02-20T15:14:47Z</time>
      </trkpt>
      <trkpt lat="45.63443" lon="6.53059">
        <ele>2234.8</ele>
        <time>2025-02-20T15:14:48Z</time>
      </trkpt>
      <trkpt lat="45.63443" lon="6.53059">
        <ele>2235</ele>
        <time>2025-02-20T15:14:49Z</time>
      </trkpt>
      <trkpt lat="45.63443" lon="6.53059">
        <ele>2235</ele>
        <time>2025-02-20T15:14:50Z</time>
      </trkpt>
      <trkpt lat="45.63443" lon="6.53059">
        <ele>2235</ele>
        <time>2025-02-20T15:14:51Z</time>
      </trkpt>
      <trkpt lat="45.63443" lon="6.53059">
        <ele>2235</ele>
        <time>2025-02-20T15:14:52Z</time>
      </trkpt>
      <trkpt lat="45.63443" lon="6.53059">
        <ele>2235.4</ele>
        <time>2025-02-20T15:14:53Z</time>
      </trkpt>
      <trkpt lat="45.63443" lon="6.53059">
        <ele>2235.4</ele>
        <time>2025-02-20T15:14:54Z</time>
      </trkpt>
      <trkpt lat="45.63443" lon="6.53059">
        <ele>2235.4</ele>
        <time>2025-02-20T15:14:55Z</time>
      </trkpt>
      <trkpt lat="45.63443" lon="6.53059">
        <ele>2235.4</ele>
        <time>2025-02-20T15:14:56Z</time>
      </trkpt>
      <trkpt lat="45.63443" lon="6.53059">
        <ele>2235.2</ele>
        <time>2025-02-20T15:14:57Z</time>
      </trkpt>
      <trkpt lat="45.63443" lon="6.53059">
        <ele>2235.2</ele>
        <time>2025-02-20T15:14:58Z</time>
      </trkpt>
      <trkpt lat="45.63443" lon="6.53059">
        <ele>2235.2</ele>
        <time>2025-02-20T15:14:59Z</time>
      </trkpt>
      <trkpt lat="45.63443" lon="6.53059">
        <ele>2235.2</ele>
        <time>2025-02-20T15:15:00Z</time>
      </trkpt>
      <trkpt lat="45.63443" lon="6.53059">
        <ele>2235.2</ele>
        <time>2025-02-20T15:15:01Z</time>
      </trkpt>
      <trkpt lat="45.63443" lon="6.53059">
        <ele>2235.2</ele>
        <time>2025-02-20T15:15:02Z</time>
      </trkpt>
      <trkpt lat="45.63443" lon="6.53059">
        <ele>2235.2</ele>
        <time>2025-02-20T15:15:03Z</time>
      </trkpt>
      <trkpt lat="45.63443" lon="6.53059">
        <ele>2235.2</ele>
        <time>2025-02-20T15:15:04Z</time>
      </trkpt>
      <trkpt lat="45.63443" lon="6.53059">
        <ele>2235.2</ele>
        <time>2025-02-20T15:15:05Z</time>
      </trkpt>
      <trkpt lat="45.63443" lon="6.53059">
        <ele>2235.2</ele>
        <time>2025-02-20T15:15:06Z</time>
      </trkpt>
      <trkpt lat="45.63443" lon="6.53059">
        <ele>2235.2</ele>
        <time>2025-02-20T15:15:07Z</time>
      </trkpt>
      <trkpt lat="45.63443" lon="6.53059">
        <ele>2235.4</ele>
        <time>2025-02-20T15:15:08Z</time>
      </trkpt>
      <trkpt lat="45.63443" lon="6.53059">
        <ele>2235.8</ele>
        <time>2025-02-20T15:15:09Z</time>
      </trkpt>
      <trkpt lat="45.63443" lon="6.53059">
        <ele>2235.8</ele>
        <time>2025-02-20T15:15:10Z</time>
      </trkpt>
      <trkpt lat="45.63443" lon="6.53059">
        <ele>2235.8</ele>
        <time>2025-02-20T15:15:11Z</time>
      </trkpt>
      <trkpt lat="45.63443" lon="6.53059">
        <ele>2235.8</ele>
        <time>2025-02-20T15:15:12Z</time>
      </trkpt>
      <trkpt lat="45.63443" lon="6.53059">
        <ele>2235.4</ele>
        <time>2025-02-20T15:15:13Z</time>
      </trkpt>
      <trkpt lat="45.63443" lon="6.53059">
        <ele>2235.4</ele>
        <time>2025-02-20T15:15:14Z</time>
      </trkpt>
      <trkpt lat="45.63443" lon="6.53059">
        <ele>2235.4</ele>
        <time>2025-02-20T15:15:15Z</time>
      </trkpt>
      <trkpt lat="45.63443" lon="6.53059">
        <ele>2235.4</ele>
        <time>2025-02-20T15:15:16Z</time>
      </trkpt>
      <trkpt lat="45.63443" lon="6.53059">
        <ele>2235.4</ele>
        <time>2025-02-20T15:15:17Z</time>
      </trkpt>
      <trkpt lat="45.63443" lon="6.53059">
        <ele>2235.4</ele>
        <time>2025-02-20T15:15:18Z</time>
      </trkpt>
      <trkpt lat="45.63443" lon="6.53059">
        <ele>2235.4</ele>
        <time>2025-02-20T15:15:19Z</time>
      </trkpt>
      <trkpt lat="45.63443" lon="6.53059">
        <ele>2235.2</ele>
        <time>2025-02-20T15:15:20Z</time>
      </trkpt>
      <trkpt lat="45.63443" lon="6.53059">
        <ele>2235.6</ele>
        <time>2025-02-20T15:15:21Z</time>
      </trkpt>
      <trkpt lat="45.63443" lon="6.53059">
        <ele>2235.6</ele>
        <time>2025-02-20T15:15:22Z</time>
      </trkpt>
      <trkpt lat="45.63443" lon="6.53059">
        <ele>2235.6</ele>
        <time>2025-02-20T15:15:23Z</time>
      </trkpt>
      <trkpt lat="45.63443" lon="6.53059">
        <ele>2235.6</ele>
        <time>2025-02-20T15:15:24Z</time>
      </trkpt>
      <trkpt lat="45.63443" lon="6.53059">
        <ele>2235.4</ele>
        <time>2025-02-20T15:15:25Z</time>
      </trkpt>
      <trkpt lat="45.63443" lon="6.53059">
        <ele>2235.4</ele>
        <time>2025-02-20T15:15:26Z</time>
      </trkpt>
      <trkpt lat="45.63443" lon="6.53059">
        <ele>2235.4</ele>
        <time>2025-02-20T15:15:27Z</time>
      </trkpt>
      <trkpt lat="45.63443" lon="6.53059">
        <ele>2235.4</ele>
        <time>2025-02-20T15:15:28Z</time>
      </trkpt>
      <trkpt lat="45.63443" lon="6.53059">
        <ele>2235.4</ele>
        <time>2025-02-20T15:15:29Z</time>
      </trkpt>
      <trkpt lat="45.63443" lon="6.53059">
        <ele>2235.4</ele>
        <time>2025-02-20T15:15:30Z</time>
      </trkpt>
      <trkpt lat="45.63443" lon="6.53059">
        <ele>2235.4</ele>
        <time>2025-02-20T15:15:31Z</time>
      </trkpt>
      <trkpt lat="45.63443" lon="6.53059">
        <ele>2235.4</ele>
        <time>2025-02-20T15:15:32Z</time>
      </trkpt>
      <trkpt lat="45.63443" lon="6.53059">
        <ele>2235.6</ele>
        <time>2025-02-20T15:15:33Z</time>
      </trkpt>
      <trkpt lat="45.63443" lon="6.53059">
        <ele>2235.6</ele>
        <time>2025-02-20T15:15:34Z</time>
      </trkpt>
      <trkpt lat="45.63443" lon="6.53059">
        <ele>2235.6</ele>
        <time>2025-02-20T15:15:35Z</time>
      </trkpt>
      <trkpt lat="45.63443" lon="6.53059">
        <ele>2235.6</ele>
        <time>2025-02-20T15:15:36Z</time>
      </trkpt>
      <trkpt lat="45.63443" lon="6.53059">
        <ele>2235.2</ele>
        <time>2025-02-20T15:15:37Z</time>
      </trkpt>
      <trkpt lat="45.63443" lon="6.53059">
        <ele>2235.2</ele>
        <time>2025-02-20T15:15:38Z</time>
      </trkpt>
      <trkpt lat="45.63443" lon="6.53059">
        <ele>2235.2</ele>
        <time>2025-02-20T15:15:39Z</time>
      </trkpt>
      <trkpt lat="45.63443" lon="6.53059">
        <ele>2235.2</ele>
        <time>2025-02-20T15:15:40Z</time>
      </trkpt>
      <trkpt lat="45.63443" lon="6.53059">
        <ele>2235.2</ele>
        <time>2025-02-20T15:15:41Z</time>
      </trkpt>
      <trkpt lat="45.63443" lon="6.53059">
        <ele>2235.2</ele>
        <time>2025-02-20T15:15:42Z</time>
      </trkpt>
      <trkpt lat="45.63443" lon="6.53059">
        <ele>2235.2</ele>
        <time>2025-02-20T15:15:43Z</time>
      </trkpt>
      <trkpt lat="45.63443" lon="6.53059">
        <ele>2235.4</ele>
        <time>2025-02-20T15:15:44Z</time>
      </trkpt>
      <trkpt lat="45.63443" lon="6.53059">
        <ele>2235.4</ele>
        <time>2025-02-20T15:15:45Z</time>
      </trkpt>
      <trkpt lat="45.63443" lon="6.53059">
        <ele>2235.4</ele>
        <time>2025-02-20T15:15:46Z</time>
      </trkpt>
      <trkpt lat="45.63443" lon="6.53059">
        <ele>2235.4</ele>
        <time>2025-02-20T15:15:47Z</time>
      </trkpt>
      <trkpt lat="45.63443" lon="6.53059">
        <ele>2235.4</ele>
        <time>2025-02-20T15:15:48Z</time>
      </trkpt>
      <trkpt lat="45.63443" lon="6.53059">
        <ele>2235.2</ele>
        <time>2025-02-20T15:15:49Z</time>
      </trkpt>
      <trkpt lat="45.63443" lon="6.53059">
        <ele>2235.2</ele>
        <time>2025-02-20T15:15:50Z</time>
      </trkpt>
      <trkpt lat="45.63443" lon="6.53059">
        <ele>2235.2</ele>
        <time>2025-02-20T15:15:51Z</time>
      </trkpt>
      <trkpt lat="45.63443" lon="6.53059">
        <ele>2235.2</ele>
        <time>2025-02-20T15:15:52Z</time>
      </trkpt>
      <trkpt lat="45.63443" lon="6.53059">
        <ele>2236.2</ele>
        <time>2025-02-20T15:15:53Z</time>
      </trkpt>
      <trkpt lat="45.63443" lon="6.53059">
        <ele>2236.2</ele>
        <time>2025-02-20T15:15:54Z</time>
      </trkpt>
      <trkpt lat="45.63443" lon="6.53059">
        <ele>2236.2</ele>
        <time>2025-02-20T15:15:55Z</time>
      </trkpt>
      <trkpt lat="45.63443" lon="6.53059">
        <ele>2235.2</ele>
        <time>2025-02-20T15:15:56Z</time>
      </trkpt>
      <trkpt lat="45.63443" lon="6.53059">
        <ele>2235.6</ele>
        <time>2025-02-20T15:15:57Z</time>
      </trkpt>
      <trkpt lat="45.63443" lon="6.53059">
        <ele>2235.6</ele>
        <time>2025-02-20T15:15:58Z</time>
      </trkpt>
      <trkpt lat="45.63443" lon="6.53059">
        <ele>2235.6</ele>
        <time>2025-02-20T15:15:59Z</time>
      </trkpt>
      <trkpt lat="45.63443" lon="6.53059">
        <ele>2235.6</ele>
        <time>2025-02-20T15:16:00Z</time>
      </trkpt>
      <trkpt lat="45.63443" lon="6.53059">
        <ele>2235.4</ele>
        <time>2025-02-20T15:16:01Z</time>
      </trkpt>
      <trkpt lat="45.63443" lon="6.53059">
        <ele>2235.4</ele>
        <time>2025-02-20T15:16:02Z</time>
      </trkpt>
      <trkpt lat="45.63443" lon="6.53059">
        <ele>2235.4</ele>
        <time>2025-02-20T15:16:03Z</time>
      </trkpt>
      <trkpt lat="45.63443" lon="6.53059">
        <ele>2235.4</ele>
        <time>2025-02-20T15:16:04Z</time>
      </trkpt>
      <trkpt lat="45.63443" lon="6.53059">
        <ele>2235.6</ele>
        <time>2025-02-20T15:16:05Z</time>
      </trkpt>
      <trkpt lat="45.63443" lon="6.53059">
        <ele>2235.6</ele>
        <time>2025-02-20T15:16:06Z</time>
      </trkpt>
      <trkpt lat="45.63443" lon="6.53059">
        <ele>2235.6</ele>
        <time>2025-02-20T15:16:07Z</time>
      </trkpt>
      <trkpt lat="45.63443" lon="6.53059">
        <ele>2235.6</ele>
        <time>2025-02-20T15:16:08Z</time>
      </trkpt>
      <trkpt lat="45.63443" lon="6.53059">
        <ele>2235.6</ele>
        <time>2025-02-20T15:16:09Z</time>
      </trkpt>
      <trkpt lat="45.63443" lon="6.53059">
        <ele>2235.6</ele>
        <time>2025-02-20T15:16:10Z</time>
      </trkpt>
      <trkpt lat="45.63443" lon="6.53059">
        <ele>2235.6</ele>
        <time>2025-02-20T15:16:11Z</time>
      </trkpt>
      <trkpt lat="45.63443" lon="6.53059">
        <ele>2235.4</ele>
        <time>2025-02-20T15:16:12Z</time>
      </trkpt>
      <trkpt lat="45.63443" lon="6.53059">
        <ele>2235.4</ele>
        <time>2025-02-20T15:16:13Z</time>
      </trkpt>
      <trkpt lat="45.63443" lon="6.53059">
        <ele>2235.4</ele>
        <time>2025-02-20T15:16:14Z</time>
      </trkpt>
      <trkpt lat="45.63443" lon="6.53059">
        <ele>2235.4</ele>
        <time>2025-02-20T15:16:15Z</time>
      </trkpt>
      <trkpt lat="45.63443" lon="6.53059">
        <ele>2235.4</ele>
        <time>2025-02-20T15:16:16Z</time>
      </trkpt>
      <trkpt lat="45.63443" lon="6.53059">
        <ele>2235.4</ele>
        <time>2025-02-20T15:16:17Z</time>
      </trkpt>
      <trkpt lat="45.63443" lon="6.53059">
        <ele>2235.4</ele>
        <time>2025-02-20T15:16:18Z</time>
      </trkpt>
      <trkpt lat="45.63443" lon="6.53059">
        <ele>2235.4</ele>
        <time>2025-02-20T15:16:19Z</time>
      </trkpt>
      <trkpt lat="45.63443" lon="6.53059">
        <ele>2235</ele>
        <time>2025-02-20T15:16:20Z</time>
      </trkpt>
      <trkpt lat="45.63443" lon="6.53059">
        <ele>2235.2</ele>
        <time>2025-02-20T15:16:21Z</time>
      </trkpt>
      <trkpt lat="45.63443" lon="6.53059">
        <ele>2235.2</ele>
        <time>2025-02-20T15:16:22Z</time>
      </trkpt>
      <trkpt lat="45.63443" lon="6.53059">
        <ele>2235.2</ele>
        <time>2025-02-20T15:16:23Z</time>
      </trkpt>
      <trkpt lat="45.63443" lon="6.53059">
        <ele>2235.2</ele>
        <time>2025-02-20T15:16:24Z</time>
      </trkpt>
      <trkpt lat="45.63444" lon="6.53069">
        <ele>2235</ele>
        <time>2025-02-20T15:16:25Z</time>
      </trkpt>
      <trkpt lat="45.63445" lon="6.53069">
        <ele>2235</ele>
        <time>2025-02-20T15:16:26Z</time>
      </trkpt>
      <trkpt lat="45.63445" lon="6.53069">
        <ele>2235</ele>
        <time>2025-02-20T15:16:27Z</time>
      </trkpt>
      <trkpt lat="45.63446" lon="6.53068">
        <ele>2235</ele>
        <time>2025-02-20T15:16:28Z</time>
      </trkpt>
      <trkpt lat="45.63446" lon="6.53068">
        <ele>2235.2</ele>
        <time>2025-02-20T15:16:29Z</time>
      </trkpt>
      <trkpt lat="45.63446" lon="6.53068">
        <ele>2235.2</ele>
        <time>2025-02-20T15:16:30Z</time>
      </trkpt>
      <trkpt lat="45.63446" lon="6.53068">
        <ele>2235.2</ele>
        <time>2025-02-20T15:16:31Z</time>
      </trkpt>
      <trkpt lat="45.63446" lon="6.53068">
        <ele>2235.2</ele>
        <time>2025-02-20T15:16:32Z</time>
      </trkpt>
      <trkpt lat="45.63446" lon="6.53068">
        <ele>2235.2</ele>
        <time>2025-02-20T15:16:33Z</time>
      </trkpt>
      <trkpt lat="45.63446" lon="6.53068">
        <ele>2235.2</ele>
        <time>2025-02-20T15:16:34Z</time>
      </trkpt>
      <trkpt lat="45.63446" lon="6.53068">
        <ele>2235.2</ele>
        <time>2025-02-20T15:16:35Z</time>
      </trkpt>
      <trkpt lat="45.63446" lon="6.53068">
        <ele>2235</ele>
        <time>2025-02-20T15:16:36Z</time>
      </trkpt>
      <trkpt lat="45.63446" lon="6.53068">
        <ele>2235.4</ele>
        <time>2025-02-20T15:16:37Z</time>
      </trkpt>
      <trkpt lat="45.63446" lon="6.53068">
        <ele>2235.4</ele>
        <time>2025-02-20T15:16:38Z</time>
      </trkpt>
      <trkpt lat="45.63446" lon="6.53068">
        <ele>2235.4</ele>
        <time>2025-02-20T15:16:39Z</time>
      </trkpt>
      <trkpt lat="45.63446" lon="6.53068">
        <ele>2235.4</ele>
        <time>2025-02-20T15:16:40Z</time>
      </trkpt>
      <trkpt lat="45.63446" lon="6.53068">
        <ele>2235.2</ele>
        <time>2025-02-20T15:16:41Z</time>
      </trkpt>
      <trkpt lat="45.63446" lon="6.53068">
        <ele>2235.2</ele>
        <time>2025-02-20T15:16:42Z</time>
      </trkpt>
      <trkpt lat="45.63446" lon="6.53068">
        <ele>2235.2</ele>
        <time>2025-02-20T15:16:43Z</time>
      </trkpt>
      <trkpt lat="45.63446" lon="6.53068">
        <ele>2235.2</ele>
        <time>2025-02-20T15:16:44Z</time>
      </trkpt>
      <trkpt lat="45.63446" lon="6.53068">
        <ele>2235.4</ele>
        <time>2025-02-20T15:16:45Z</time>
      </trkpt>
      <trkpt lat="45.63446" lon="6.53068">
        <ele>2235.4</ele>
        <time>2025-02-20T15:16:46Z</time>
      </trkpt>
      <trkpt lat="45.63446" lon="6.53068">
        <ele>2235.4</ele>
        <time>2025-02-20T15:16:47Z</time>
      </trkpt>
      <trkpt lat="45.63446" lon="6.53068">
        <ele>2235.4</ele>
        <time>2025-02-20T15:16:48Z</time>
      </trkpt>
      <trkpt lat="45.63446" lon="6.53068">
        <ele>2235.4</ele>
        <time>2025-02-20T15:16:49Z</time>
      </trkpt>
      <trkpt lat="45.63446" lon="6.53068">
        <ele>2235.4</ele>
        <time>2025-02-20T15:16:50Z</time>
      </trkpt>
      <trkpt lat="45.63446" lon="6.53068">
        <ele>2235.4</ele>
        <time>2025-02-20T15:16:51Z</time>
      </trkpt>
      <trkpt lat="45.63446" lon="6.53068">
        <ele>2235.4</ele>
        <time>2025-02-20T15:16:52Z</time>
      </trkpt>
      <trkpt lat="45.63446" lon="6.53068">
        <ele>2235.4</ele>
        <time>2025-02-20T15:16:53Z</time>
      </trkpt>
      <trkpt lat="45.63446" lon="6.53068">
        <ele>2235.4</ele>
        <time>2025-02-20T15:16:54Z</time>
      </trkpt>
      <trkpt lat="45.63448" lon="6.53069">
        <ele>2235.4</ele>
        <time>2025-02-20T15:16:55Z</time>
      </trkpt>
      <trkpt lat="45.63449" lon="6.5307">
        <ele>2235.4</ele>
        <time>2025-02-20T15:16:56Z</time>
      </trkpt>
      <trkpt lat="45.6345" lon="6.5307">
        <ele>2235.4</ele>
        <time>2025-02-20T15:16:57Z</time>
      </trkpt>
      <trkpt lat="45.63451" lon="6.5307">
        <ele>2235.4</ele>
        <time>2025-02-20T15:16:58Z</time>
      </trkpt>
      <trkpt lat="45.63452" lon="6.53071">
        <ele>2235.4</ele>
        <time>2025-02-20T15:16:59Z</time>
      </trkpt>
      <trkpt lat="45.63453" lon="6.53071">
        <ele>2234.4</ele>
        <time>2025-02-20T15:17:00Z</time>
      </trkpt>
      <trkpt lat="45.63456" lon="6.53073">
        <ele>2233.6</ele>
        <time>2025-02-20T15:17:01Z</time>
      </trkpt>
      <trkpt lat="45.63458" lon="6.53075">
        <ele>2233.6</ele>
        <time>2025-02-20T15:17:02Z</time>
      </trkpt>
      <trkpt lat="45.63461" lon="6.53077">
        <ele>2233.6</ele>
        <time>2025-02-20T15:17:03Z</time>
      </trkpt>
      <trkpt lat="45.63464" lon="6.53079">
        <ele>2233.6</ele>
        <time>2025-02-20T15:17:04Z</time>
      </trkpt>
      <trkpt lat="45.63466" lon="6.53083">
        <ele>2232.8</ele>
        <time>2025-02-20T15:17:05Z</time>
      </trkpt>
      <trkpt lat="45.63468" lon="6.53085">
        <ele>2232.8</ele>
        <time>2025-02-20T15:17:06Z</time>
      </trkpt>
      <trkpt lat="45.63471" lon="6.53087">
        <ele>2232.8</ele>
        <time>2025-02-20T15:17:07Z</time>
      </trkpt>
      <trkpt lat="45.63473" lon="6.5309">
        <ele>2231.8</ele>
        <time>2025-02-20T15:17:08Z</time>
      </trkpt>
      <trkpt lat="45.63476" lon="6.53092">
        <ele>2231.4</ele>
        <time>2025-02-20T15:17:09Z</time>
      </trkpt>
      <trkpt lat="45.63478" lon="6.53094">
        <ele>2231.4</ele>
        <time>2025-02-20T15:17:10Z</time>
      </trkpt>
      <trkpt lat="45.63481" lon="6.53097">
        <ele>2231.4</ele>
        <time>2025-02-20T15:17:11Z</time>
      </trkpt>
      <trkpt lat="45.63483" lon="6.53099">
        <ele>2230.4</ele>
        <time>2025-02-20T15:17:12Z</time>
      </trkpt>
      <trkpt lat="45.63486" lon="6.53096">
        <ele>2228</ele>
        <time>2025-02-20T15:17:13Z</time>
      </trkpt>
      <trkpt lat="45.63487" lon="6.53092">
        <ele>2228</ele>
        <time>2025-02-20T15:17:14Z</time>
      </trkpt>
      <trkpt lat="45.6349" lon="6.53087">
        <ele>2228</ele>
        <time>2025-02-20T15:17:15Z</time>
      </trkpt>
      <trkpt lat="45.6349" lon="6.5308">
        <ele>2227</ele>
        <time>2025-02-20T15:17:16Z</time>
      </trkpt>
      <trkpt lat="45.63488" lon="6.53075">
        <ele>2219.4</ele>
        <time>2025-02-20T15:17:17Z</time>
      </trkpt>
      <trkpt lat="45.63489" lon="6.53071">
        <ele>2219.4</ele>
        <time>2025-02-20T15:17:18Z</time>
      </trkpt>
      <trkpt lat="45.63492" lon="6.53072">
        <ele>2219.4</ele>
        <time>2025-02-20T15:17:19Z</time>
      </trkpt>
      <trkpt lat="45.63493" lon="6.53075">
        <ele>2219.4</ele>
        <time>2025-02-20T15:17:20Z</time>
      </trkpt>
      <trkpt lat="45.63495" lon="6.53078">
        <ele>2216.4</ele>
        <time>2025-02-20T15:17:21Z</time>
      </trkpt>
      <trkpt lat="45.63497" lon="6.53081">
        <ele>2216.4</ele>
        <time>2025-02-20T15:17:22Z</time>
      </trkpt>
      <trkpt lat="45.63499" lon="6.53083">
        <ele>2216.4</ele>
        <time>2025-02-20T15:17:23Z</time>
      </trkpt>
      <trkpt lat="45.63501" lon="6.53084">
        <ele>2215.4</ele>
        <time>2025-02-20T15:17:24Z</time>
      </trkpt>
      <trkpt lat="45.63505" lon="6.53084">
        <ele>2214.6</ele>
        <time>2025-02-20T15:17:25Z</time>
      </trkpt>
      <trkpt lat="45.63508" lon="6.53078">
        <ele>2214.6</ele>
        <time>2025-02-20T15:17:26Z</time>
      </trkpt>
      <trkpt lat="45.63512" lon="6.53072">
        <ele>2214.6</ele>
        <time>2025-02-20T15:17:27Z</time>
      </trkpt>
      <trkpt lat="45.63516" lon="6.53067">
        <ele>2213.6</ele>
        <time>2025-02-20T15:17:28Z</time>
      </trkpt>
      <trkpt lat="45.6352" lon="6.53065">
        <ele>2210.6</ele>
        <time>2025-02-20T15:17:29Z</time>
      </trkpt>
      <trkpt lat="45.63524" lon="6.53063">
        <ele>2210.6</ele>
        <time>2025-02-20T15:17:30Z</time>
      </trkpt>
      <trkpt lat="45.63528" lon="6.53061">
        <ele>2210.6</ele>
        <time>2025-02-20T15:17:31Z</time>
      </trkpt>
      <trkpt lat="45.63531" lon="6.53059">
        <ele>2210.6</ele>
        <time>2025-02-20T15:17:32Z</time>
      </trkpt>
      <trkpt lat="45.63535" lon="6.53058">
        <ele>2209.2</ele>
        <time>2025-02-20T15:17:33Z</time>
      </trkpt>
      <trkpt lat="45.63538" lon="6.53055">
        <ele>2209.2</ele>
        <time>2025-02-20T15:17:34Z</time>
      </trkpt>
      <trkpt lat="45.63541" lon="6.53053">
        <ele>2209.2</ele>
        <time>2025-02-20T15:17:35Z</time>
      </trkpt>
      <trkpt lat="45.63544" lon="6.53052">
        <ele>2208.2</ele>
        <time>2025-02-20T15:17:36Z</time>
      </trkpt>
      <trkpt lat="45.63546" lon="6.53051">
        <ele>2207.4</ele>
        <time>2025-02-20T15:17:37Z</time>
      </trkpt>
      <trkpt lat="45.63548" lon="6.53049">
        <ele>2207.4</ele>
        <time>2025-02-20T15:17:38Z</time>
      </trkpt>
      <trkpt lat="45.63551" lon="6.53049">
        <ele>2207.4</ele>
        <time>2025-02-20T15:17:39Z</time>
      </trkpt>
      <trkpt lat="45.63553" lon="6.53049">
        <ele>2206.8</ele>
        <time>2025-02-20T15:17:40Z</time>
      </trkpt>
      <trkpt lat="45.63553" lon="6.53053">
        <ele>2205.6</ele>
        <time>2025-02-20T15:17:41Z</time>
      </trkpt>
      <trkpt lat="45.63551" lon="6.53057">
        <ele>2205.6</ele>
        <time>2025-02-20T15:17:42Z</time>
      </trkpt>
      <trkpt lat="45.63549" lon="6.53062">
        <ele>2205.6</ele>
        <time>2025-02-20T15:17:43Z</time>
      </trkpt>
      <trkpt lat="45.63547" lon="6.53067">
        <ele>2204.6</ele>
        <time>2025-02-20T15:17:44Z</time>
      </trkpt>
      <trkpt lat="45.63545" lon="6.53071">
        <ele>2202.4</ele>
        <time>2025-02-20T15:17:45Z</time>
      </trkpt>
      <trkpt lat="45.63544" lon="6.53074">
        <ele>2202.4</ele>
        <time>2025-02-20T15:17:46Z</time>
      </trkpt>
      <trkpt lat="45.63544" lon="6.53077">
        <ele>2202.4</ele>
        <time>2025-02-20T15:17:47Z</time>
      </trkpt>
      <trkpt lat="45.63544" lon="6.5308">
        <ele>2201.8</ele>
        <time>2025-02-20T15:17:48Z</time>
      </trkpt>
      <trkpt lat="45.63543" lon="6.53084">
        <ele>2201.2</ele>
        <time>2025-02-20T15:17:49Z</time>
      </trkpt>
      <trkpt lat="45.63543" lon="6.53089">
        <ele>2201.2</ele>
        <time>2025-02-20T15:17:50Z</time>
      </trkpt>
      <trkpt lat="45.63544" lon="6.53092">
        <ele>2201.2</ele>
        <time>2025-02-20T15:17:51Z</time>
      </trkpt>
      <trkpt lat="45.63544" lon="6.53096">
        <ele>2201.2</ele>
        <time>2025-02-20T15:17:52Z</time>
      </trkpt>
      <trkpt lat="45.63544" lon="6.531">
        <ele>2200.2</ele>
        <time>2025-02-20T15:17:53Z</time>
      </trkpt>
      <trkpt lat="45.63545" lon="6.53105">
        <ele>2200.2</ele>
        <time>2025-02-20T15:17:54Z</time>
      </trkpt>
      <trkpt lat="45.63546" lon="6.5311">
        <ele>2200.2</ele>
        <time>2025-02-20T15:17:55Z</time>
      </trkpt>
      <trkpt lat="45.63546" lon="6.53113">
        <ele>2199.2</ele>
        <time>2025-02-20T15:17:56Z</time>
      </trkpt>
      <trkpt lat="45.63547" lon="6.53116">
        <ele>2198.4</ele>
        <time>2025-02-20T15:17:57Z</time>
      </trkpt>
      <trkpt lat="45.63548" lon="6.53119">
        <ele>2198.4</ele>
        <time>2025-02-20T15:17:58Z</time>
      </trkpt>
      <trkpt lat="45.63549" lon="6.53122">
        <ele>2198.4</ele>
        <time>2025-02-20T15:17:59Z</time>
      </trkpt>
      <trkpt lat="45.6355" lon="6.53125">
        <ele>2197.8</ele>
        <time>2025-02-20T15:18:00Z</time>
      </trkpt>
      <trkpt lat="45.63551" lon="6.53129">
        <ele>2197.8</ele>
        <time>2025-02-20T15:18:01Z</time>
      </trkpt>
      <trkpt lat="45.63552" lon="6.53132">
        <ele>2197.8</ele>
        <time>2025-02-20T15:18:02Z</time>
      </trkpt>
      <trkpt lat="45.63553" lon="6.53136">
        <ele>2197.8</ele>
        <time>2025-02-20T15:18:03Z</time>
      </trkpt>
      <trkpt lat="45.63553" lon="6.5314">
        <ele>2196.8</ele>
        <time>2025-02-20T15:18:04Z</time>
      </trkpt>
      <trkpt lat="45.63553" lon="6.53144">
        <ele>2195.2</ele>
        <time>2025-02-20T15:18:05Z</time>
      </trkpt>
      <trkpt lat="45.63554" lon="6.53148">
        <ele>2195.2</ele>
        <time>2025-02-20T15:18:06Z</time>
      </trkpt>
      <trkpt lat="45.63555" lon="6.53152">
        <ele>2195.2</ele>
        <time>2025-02-20T15:18:07Z</time>
      </trkpt>
      <trkpt lat="45.63557" lon="6.53156">
        <ele>2195.2</ele>
        <time>2025-02-20T15:18:08Z</time>
      </trkpt>
      <trkpt lat="45.63558" lon="6.53161">
        <ele>2194.2</ele>
        <time>2025-02-20T15:18:09Z</time>
      </trkpt>
      <trkpt lat="45.63559" lon="6.53164">
        <ele>2194.2</ele>
        <time>2025-02-20T15:18:10Z</time>
      </trkpt>
      <trkpt lat="45.6356" lon="6.53169">
        <ele>2194.2</ele>
        <time>2025-02-20T15:18:11Z</time>
      </trkpt>
      <trkpt lat="45.63561" lon="6.53173">
        <ele>2193.2</ele>
        <time>2025-02-20T15:18:12Z</time>
      </trkpt>
      <trkpt lat="45.63562" lon="6.53177">
        <ele>2192.4</ele>
        <time>2025-02-20T15:18:13Z</time>
      </trkpt>
      <trkpt lat="45.63564" lon="6.53181">
        <ele>2192.4</ele>
        <time>2025-02-20T15:18:14Z</time>
      </trkpt>
      <trkpt lat="45.63566" lon="6.53185">
        <ele>2192.4</ele>
        <time>2025-02-20T15:18:15Z</time>
      </trkpt>
      <trkpt lat="45.63568" lon="6.53188">
        <ele>2191.4</ele>
        <time>2025-02-20T15:18:16Z</time>
      </trkpt>
      <trkpt lat="45.6357" lon="6.53192">
        <ele>2190</ele>
        <time>2025-02-20T15:18:17Z</time>
      </trkpt>
      <trkpt lat="45.63573" lon="6.53196">
        <ele>2190</ele>
        <time>2025-02-20T15:18:18Z</time>
      </trkpt>
      <trkpt lat="45.63575" lon="6.53202">
        <ele>2190</ele>
        <time>2025-02-20T15:18:19Z</time>
      </trkpt>
      <trkpt lat="45.63578" lon="6.53207">
        <ele>2189</ele>
        <time>2025-02-20T15:18:20Z</time>
      </trkpt>
      <trkpt lat="45.6358" lon="6.53213">
        <ele>2187</ele>
        <time>2025-02-20T15:18:21Z</time>
      </trkpt>
      <trkpt lat="45.63583" lon="6.53218">
        <ele>2187</ele>
        <time>2025-02-20T15:18:22Z</time>
      </trkpt>
      <trkpt lat="45.63587" lon="6.53218">
        <ele>2187</ele>
        <time>2025-02-20T15:18:23Z</time>
      </trkpt>
      <trkpt lat="45.63593" lon="6.5322">
        <ele>2186</ele>
        <time>2025-02-20T15:18:24Z</time>
      </trkpt>
      <trkpt lat="45.63596" lon="6.53226">
        <ele>2181.6</ele>
        <time>2025-02-20T15:18:25Z</time>
      </trkpt>
      <trkpt lat="45.636" lon="6.53229">
        <ele>2181.6</ele>
        <time>2025-02-20T15:18:26Z</time>
      </trkpt>
      <trkpt lat="45.63605" lon="6.53226">
        <ele>2181.6</ele>
        <time>2025-02-20T15:18:27Z</time>
      </trkpt>
      <trkpt lat="45.63611" lon="6.53225">
        <ele>2180.6</ele>
        <time>2025-02-20T15:18:28Z</time>
      </trkpt>
      <trkpt lat="45.63617" lon="6.5323">
        <ele>2173.8</ele>
        <time>2025-02-20T15:18:29Z</time>
      </trkpt>
      <trkpt lat="45.63621" lon="6.53237">
        <ele>2173.8</ele>
        <time>2025-02-20T15:18:30Z</time>
      </trkpt>
      <trkpt lat="45.63625" lon="6.53244">
        <ele>2173.8</ele>
        <time>2025-02-20T15:18:31Z</time>
      </trkpt>
      <trkpt lat="45.63628" lon="6.5325">
        <ele>2172.8</ele>
        <time>2025-02-20T15:18:32Z</time>
      </trkpt>
      <trkpt lat="45.63633" lon="6.53254">
        <ele>2167.8</ele>
        <time>2025-02-20T15:18:33Z</time>
      </trkpt>
      <trkpt lat="45.63639" lon="6.53252">
        <ele>2167.8</ele>
        <time>2025-02-20T15:18:34Z</time>
      </trkpt>
      <trkpt lat="45.63646" lon="6.53251">
        <ele>2167.8</ele>
        <time>2025-02-20T15:18:35Z</time>
      </trkpt>
      <trkpt lat="45.63653" lon="6.53254">
        <ele>2166.8</ele>
        <time>2025-02-20T15:18:36Z</time>
      </trkpt>
      <trkpt lat="45.63658" lon="6.5326">
        <ele>2161.8</ele>
        <time>2025-02-20T15:18:37Z</time>
      </trkpt>
      <trkpt lat="45.63662" lon="6.53267">
        <ele>2161.8</ele>
        <time>2025-02-20T15:18:38Z</time>
      </trkpt>
      <trkpt lat="45.63665" lon="6.53272">
        <ele>2161.8</ele>
        <time>2025-02-20T15:18:39Z</time>
      </trkpt>
      <trkpt lat="45.63667" lon="6.53275">
        <ele>2160.8</ele>
        <time>2025-02-20T15:18:40Z</time>
      </trkpt>
      <trkpt lat="45.6367" lon="6.53274">
        <ele>2158.4</ele>
        <time>2025-02-20T15:18:41Z</time>
      </trkpt>
      <trkpt lat="45.63671" lon="6.5327">
        <ele>2158.4</ele>
        <time>2025-02-20T15:18:42Z</time>
      </trkpt>
      <trkpt lat="45.6367" lon="6.53269">
        <ele>2158.4</ele>
        <time>2025-02-20T15:18:43Z</time>
      </trkpt>
      <trkpt lat="45.63671" lon="6.53268">
        <ele>2157.4</ele>
        <time>2025-02-20T15:18:44Z</time>
      </trkpt>
      <trkpt lat="45.63671" lon="6.53268">
        <ele>2157.2</ele>
        <time>2025-02-20T15:18:45Z</time>
      </trkpt>
      <trkpt lat="45.63671" lon="6.53268">
        <ele>2157.2</ele>
        <time>2025-02-20T15:18:46Z</time>
      </trkpt>
      <trkpt lat="45.63671" lon="6.53268">
        <ele>2157.2</ele>
        <time>2025-02-20T15:18:47Z</time>
      </trkpt>
      <trkpt lat="45.63671" lon="6.53268">
        <ele>2157.2</ele>
        <time>2025-02-20T15:18:48Z</time>
      </trkpt>
      <trkpt lat="45.63671" lon="6.53268">
        <ele>2157.8</ele>
        <time>2025-02-20T15:18:49Z</time>
      </trkpt>
      <trkpt lat="45.63671" lon="6.53268">
        <ele>2157.8</ele>
        <time>2025-02-20T15:18:50Z</time>
      </trkpt>
      <trkpt lat="45.63671" lon="6.53268">
        <ele>2157.8</ele>
        <time>2025-02-20T15:18:51Z</time>
      </trkpt>
      <trkpt lat="45.63671" lon="6.53268">
        <ele>2157.2</ele>
        <time>2025-02-20T15:18:52Z</time>
      </trkpt>
      <trkpt lat="45.63671" lon="6.53268">
        <ele>2157</ele>
        <time>2025-02-20T15:18:53Z</time>
      </trkpt>
      <trkpt lat="45.63671" lon="6.53268">
        <ele>2157</ele>
        <time>2025-02-20T15:18:54Z</time>
      </trkpt>
      <trkpt lat="45.63671" lon="6.53268">
        <ele>2157</ele>
        <time>2025-02-20T15:18:55Z</time>
      </trkpt>
      <trkpt lat="45.63671" lon="6.53268">
        <ele>2157</ele>
        <time>2025-02-20T15:18:56Z</time>
      </trkpt>
      <trkpt lat="45.63671" lon="6.53268">
        <ele>2156.8</ele>
        <time>2025-02-20T15:18:57Z</time>
      </trkpt>
      <trkpt lat="45.63671" lon="6.53268">
        <ele>2156.8</ele>
        <time>2025-02-20T15:18:58Z</time>
      </trkpt>
      <trkpt lat="45.63671" lon="6.53268">
        <ele>2156.8</ele>
        <time>2025-02-20T15:18:59Z</time>
      </trkpt>
      <trkpt lat="45.63671" lon="6.53268">
        <ele>2156.8</ele>
        <time>2025-02-20T15:19:00Z</time>
      </trkpt>
      <trkpt lat="45.63671" lon="6.53268">
        <ele>2157</ele>
        <time>2025-02-20T15:19:01Z</time>
      </trkpt>
      <trkpt lat="45.63672" lon="6.53265">
        <ele>2157</ele>
        <time>2025-02-20T15:19:02Z</time>
      </trkpt>
      <trkpt lat="45.63674" lon="6.53265">
        <ele>2157</ele>
        <time>2025-02-20T15:19:03Z</time>
      </trkpt>
      <trkpt lat="45.63675" lon="6.53266">
        <ele>2156</ele>
        <time>2025-02-20T15:19:04Z</time>
      </trkpt>
      <trkpt lat="45.63676" lon="6.53267">
        <ele>2154.8</ele>
        <time>2025-02-20T15:19:05Z</time>
      </trkpt>
      <trkpt lat="45.63678" lon="6.53268">
        <ele>2154.8</ele>
        <time>2025-02-20T15:19:06Z</time>
      </trkpt>
      <trkpt lat="45.6368" lon="6.53268">
        <ele>2154.8</ele>
        <time>2025-02-20T15:19:07Z</time>
      </trkpt>
      <trkpt lat="45.63683" lon="6.53269">
        <ele>2154.8</ele>
        <time>2025-02-20T15:19:08Z</time>
      </trkpt>
      <trkpt lat="45.63686" lon="6.53269">
        <ele>2153.2</ele>
        <time>2025-02-20T15:19:09Z</time>
      </trkpt>
      <trkpt lat="45.63689" lon="6.53267">
        <ele>2153.2</ele>
        <time>2025-02-20T15:19:10Z</time>
      </trkpt>
      <trkpt lat="45.63688" lon="6.53263">
        <ele>2153.2</ele>
        <time>2025-02-20T15:19:11Z</time>
      </trkpt>
      <trkpt lat="45.63688" lon="6.53259">
        <ele>2152.2</ele>
        <time>2025-02-20T15:19:12Z</time>
      </trkpt>
      <trkpt lat="45.63689" lon="6.53255">
        <ele>2150.4</ele>
        <time>2025-02-20T15:19:13Z</time>
      </trkpt>
      <trkpt lat="45.63693" lon="6.53256">
        <ele>2150.4</ele>
        <time>2025-02-20T15:19:14Z</time>
      </trkpt>
      <trkpt lat="45.63695" lon="6.53258">
        <ele>2150.4</ele>
        <time>2025-02-20T15:19:15Z</time>
      </trkpt>
      <trkpt lat="45.63697" lon="6.53259">
        <ele>2149.4</ele>
        <time>2025-02-20T15:19:16Z</time>
      </trkpt>
      <trkpt lat="45.63699" lon="6.5326">
        <ele>2145.6</ele>
        <time>2025-02-20T15:19:17Z</time>
      </trkpt>
      <trkpt lat="45.63702" lon="6.53259">
        <ele>2145.6</ele>
        <time>2025-02-20T15:19:18Z</time>
      </trkpt>
      <trkpt lat="45.63703" lon="6.53254">
        <ele>2145.6</ele>
        <time>2025-02-20T15:19:19Z</time>
      </trkpt>
      <trkpt lat="45.63701" lon="6.53249">
        <ele>2144.6</ele>
        <time>2025-02-20T15:19:20Z</time>
      </trkpt>
      <trkpt lat="45.63704" lon="6.53248">
        <ele>2140.8</ele>
        <time>2025-02-20T15:19:21Z</time>
      </trkpt>
      <trkpt lat="45.63707" lon="6.53251">
        <ele>2140.8</ele>
        <time>2025-02-20T15:19:22Z</time>
      </trkpt>
      <trkpt lat="45.63709" lon="6.53253">
        <ele>2140.8</ele>
        <time>2025-02-20T15:19:23Z</time>
      </trkpt>
      <trkpt lat="45.63711" lon="6.53256">
        <ele>2139.8</ele>
        <time>2025-02-20T15:19:24Z</time>
      </trkpt>
      <trkpt lat="45.63714" lon="6.53258">
        <ele>2137.4</ele>
        <time>2025-02-20T15:19:25Z</time>
      </trkpt>
      <trkpt lat="45.63717" lon="6.53261">
        <ele>2137.4</ele>
        <time>2025-02-20T15:19:26Z</time>
      </trkpt>
      <trkpt lat="45.6372" lon="6.53263">
        <ele>2137.4</ele>
        <time>2025-02-20T15:19:27Z</time>
      </trkpt>
      <trkpt lat="45.63724" lon="6.53264">
        <ele>2136.4</ele>
        <time>2025-02-20T15:19:28Z</time>
      </trkpt>
      <trkpt lat="45.63731" lon="6.53263">
        <ele>2134.8</ele>
        <time>2025-02-20T15:19:29Z</time>
      </trkpt>
      <trkpt lat="45.63738" lon="6.5326">
        <ele>2134.8</ele>
        <time>2025-02-20T15:19:30Z</time>
      </trkpt>
      <trkpt lat="45.63743" lon="6.5326">
        <ele>2134.8</ele>
        <time>2025-02-20T15:19:31Z</time>
      </trkpt>
      <trkpt lat="45.63747" lon="6.53263">
        <ele>2133.8</ele>
        <time>2025-02-20T15:19:32Z</time>
      </trkpt>
      <trkpt lat="45.6375" lon="6.53268">
        <ele>2130.8</ele>
        <time>2025-02-20T15:19:33Z</time>
      </trkpt>
      <trkpt lat="45.63754" lon="6.53275">
        <ele>2130.8</ele>
        <time>2025-02-20T15:19:34Z</time>
      </trkpt>
      <trkpt lat="45.63758" lon="6.53284">
        <ele>2130.8</ele>
        <time>2025-02-20T15:19:35Z</time>
      </trkpt>
      <trkpt lat="45.63762" lon="6.53289">
        <ele>2129.8</ele>
        <time>2025-02-20T15:19:36Z</time>
      </trkpt>
      <trkpt lat="45.63767" lon="6.53292">
        <ele>2126.8</ele>
        <time>2025-02-20T15:19:37Z</time>
      </trkpt>
      <trkpt lat="45.63774" lon="6.53292">
        <ele>2126.8</ele>
        <time>2025-02-20T15:19:38Z</time>
      </trkpt>
      <trkpt lat="45.63779" lon="6.53296">
        <ele>2126.8</ele>
        <time>2025-02-20T15:19:39Z</time>
      </trkpt>
      <trkpt lat="45.63782" lon="6.533">
        <ele>2126.8</ele>
        <time>2025-02-20T15:19:40Z</time>
      </trkpt>
      <trkpt lat="45.63787" lon="6.53303">
        <ele>2122.6</ele>
        <time>2025-02-20T15:19:41Z</time>
      </trkpt>
      <trkpt lat="45.63793" lon="6.53303">
        <ele>2122.6</ele>
        <time>2025-02-20T15:19:42Z</time>
      </trkpt>
      <trkpt lat="45.63799" lon="6.53304">
        <ele>2122.6</ele>
        <time>2025-02-20T15:19:43Z</time>
      </trkpt>
      <trkpt lat="45.63803" lon="6.5331">
        <ele>2121.6</ele>
        <time>2025-02-20T15:19:44Z</time>
      </trkpt>
      <trkpt lat="45.63805" lon="6.53316">
        <ele>2118.6</ele>
        <time>2025-02-20T15:19:45Z</time>
      </trkpt>
      <trkpt lat="45.63809" lon="6.53319">
        <ele>2118.6</ele>
        <time>2025-02-20T15:19:46Z</time>
      </trkpt>
      <trkpt lat="45.63815" lon="6.53319">
        <ele>2118.6</ele>
        <time>2025-02-20T15:19:47Z</time>
      </trkpt>
      <trkpt lat="45.6382" lon="6.53321">
        <ele>2117.6</ele>
        <time>2025-02-20T15:19:48Z</time>
      </trkpt>
      <trkpt lat="45.63823" lon="6.53325">
        <ele>2116.6</ele>
        <time>2025-02-20T15:19:49Z</time>
      </trkpt>
      <trkpt lat="45.63825" lon="6.53332">
        <ele>2116.6</ele>
        <time>2025-02-20T15:19:50Z</time>
      </trkpt>
      <trkpt lat="45.63825" lon="6.53338">
        <ele>2116.6</ele>
        <time>2025-02-20T15:19:51Z</time>
      </trkpt>
      <trkpt lat="45.63827" lon="6.53342">
        <ele>2115.6</ele>
        <time>2025-02-20T15:19:52Z</time>
      </trkpt>
      <trkpt lat="45.6383" lon="6.53344">
        <ele>2114</ele>
        <time>2025-02-20T15:19:53Z</time>
      </trkpt>
      <trkpt lat="45.63834" lon="6.53344">
        <ele>2114</ele>
        <time>2025-02-20T15:19:54Z</time>
      </trkpt>
      <trkpt lat="45.63838" lon="6.53345">
        <ele>2114</ele>
        <time>2025-02-20T15:19:55Z</time>
      </trkpt>
      <trkpt lat="45.6384" lon="6.53348">
        <ele>2113</ele>
        <time>2025-02-20T15:19:56Z</time>
      </trkpt>
      <trkpt lat="45.63839" lon="6.53356">
        <ele>2111.2</ele>
        <time>2025-02-20T15:19:57Z</time>
      </trkpt>
      <trkpt lat="45.63838" lon="6.53362">
        <ele>2111.2</ele>
        <time>2025-02-20T15:19:58Z</time>
      </trkpt>
      <trkpt lat="45.63839" lon="6.53366">
        <ele>2111.2</ele>
        <time>2025-02-20T15:19:59Z</time>
      </trkpt>
      <trkpt lat="45.63843" lon="6.53365">
        <ele>2110.2</ele>
        <time>2025-02-20T15:20:00Z</time>
      </trkpt>
      <trkpt lat="45.63847" lon="6.53362">
        <ele>2107.8</ele>
        <time>2025-02-20T15:20:01Z</time>
      </trkpt>
      <trkpt lat="45.63849" lon="6.53363">
        <ele>2107.8</ele>
        <time>2025-02-20T15:20:02Z</time>
      </trkpt>
      <trkpt lat="45.63851" lon="6.53364">
        <ele>2107.8</ele>
        <time>2025-02-20T15:20:03Z</time>
      </trkpt>
      <trkpt lat="45.63851" lon="6.53368">
        <ele>2107.6</ele>
        <time>2025-02-20T15:20:04Z</time>
      </trkpt>
      <trkpt lat="45.6385" lon="6.53373">
        <ele>2107.2</ele>
        <time>2025-02-20T15:20:05Z</time>
      </trkpt>
      <trkpt lat="45.63848" lon="6.53377">
        <ele>2107.2</ele>
        <time>2025-02-20T15:20:06Z</time>
      </trkpt>
      <trkpt lat="45.63849" lon="6.5338">
        <ele>2107.2</ele>
        <time>2025-02-20T15:20:07Z</time>
      </trkpt>
      <trkpt lat="45.63851" lon="6.53382">
        <ele>2106.2</ele>
        <time>2025-02-20T15:20:08Z</time>
      </trkpt>
      <trkpt lat="45.63855" lon="6.53383">
        <ele>2104</ele>
        <time>2025-02-20T15:20:09Z</time>
      </trkpt>
      <trkpt lat="45.6386" lon="6.53383">
        <ele>2104</ele>
        <time>2025-02-20T15:20:10Z</time>
      </trkpt>
      <trkpt lat="45.63863" lon="6.53384">
        <ele>2104</ele>
        <time>2025-02-20T15:20:11Z</time>
      </trkpt>
      <trkpt lat="45.63864" lon="6.53385">
        <ele>2103</ele>
        <time>2025-02-20T15:20:12Z</time>
      </trkpt>
      <trkpt lat="45.63866" lon="6.53386">
        <ele>2102</ele>
        <time>2025-02-20T15:20:13Z</time>
      </trkpt>
      <trkpt lat="45.63867" lon="6.53386">
        <ele>2102</ele>
        <time>2025-02-20T15:20:14Z</time>
      </trkpt>
      <trkpt lat="45.63868" lon="6.53387">
        <ele>2102</ele>
        <time>2025-02-20T15:20:15Z</time>
      </trkpt>
      <trkpt lat="45.6387" lon="6.53388">
        <ele>2102</ele>
        <time>2025-02-20T15:20:16Z</time>
      </trkpt>
      <trkpt lat="45.63872" lon="6.5339">
        <ele>2100</ele>
        <time>2025-02-20T15:20:17Z</time>
      </trkpt>
      <trkpt lat="45.63873" lon="6.5339">
        <ele>2100</ele>
        <time>2025-02-20T15:20:18Z</time>
      </trkpt>
      <trkpt lat="45.63873" lon="6.5339">
        <ele>2100</ele>
        <time>2025-02-20T15:20:19Z</time>
      </trkpt>
      <trkpt lat="45.63873" lon="6.5339">
        <ele>2100.2</ele>
        <time>2025-02-20T15:20:20Z</time>
      </trkpt>
      <trkpt lat="45.63873" lon="6.5339">
        <ele>2100.4</ele>
        <time>2025-02-20T15:20:21Z</time>
      </trkpt>
      <trkpt lat="45.63873" lon="6.5339">
        <ele>2100.4</ele>
        <time>2025-02-20T15:20:22Z</time>
      </trkpt>
      <trkpt lat="45.63873" lon="6.5339">
        <ele>2100.4</ele>
        <time>2025-02-20T15:20:23Z</time>
      </trkpt>
      <trkpt lat="45.63873" lon="6.5339">
        <ele>2100.4</ele>
        <time>2025-02-20T15:20:24Z</time>
      </trkpt>
      <trkpt lat="45.63874" lon="6.5339">
        <ele>2099.6</ele>
        <time>2025-02-20T15:20:25Z</time>
      </trkpt>
      <trkpt lat="45.63874" lon="6.5339">
        <ele>2099.6</ele>
        <time>2025-02-20T15:20:26Z</time>
      </trkpt>
      <trkpt lat="45.63875" lon="6.53391">
        <ele>2099.6</ele>
        <time>2025-02-20T15:20:27Z</time>
      </trkpt>
      <trkpt lat="45.63876" lon="6.53391">
        <ele>2098.6</ele>
        <time>2025-02-20T15:20:28Z</time>
      </trkpt>
      <trkpt lat="45.63877" lon="6.53393">
        <ele>2098.2</ele>
        <time>2025-02-20T15:20:29Z</time>
      </trkpt>
      <trkpt lat="45.63877" lon="6.53397">
        <ele>2098.2</ele>
        <time>2025-02-20T15:20:30Z</time>
      </trkpt>
      <trkpt lat="45.63874" lon="6.53399">
        <ele>2098.2</ele>
        <time>2025-02-20T15:20:31Z</time>
      </trkpt>
      <trkpt lat="45.63871" lon="6.534">
        <ele>2098.2</ele>
        <time>2025-02-20T15:20:32Z</time>
      </trkpt>
      <trkpt lat="45.63871" lon="6.53402">
        <ele>2094.8</ele>
        <time>2025-02-20T15:20:33Z</time>
      </trkpt>
      <trkpt lat="45.63872" lon="6.53405">
        <ele>2094.8</ele>
        <time>2025-02-20T15:20:34Z</time>
      </trkpt>
      <trkpt lat="45.63874" lon="6.53407">
        <ele>2094.8</ele>
        <time>2025-02-20T15:20:35Z</time>
      </trkpt>
      <trkpt lat="45.63877" lon="6.53406">
        <ele>2093.8</ele>
        <time>2025-02-20T15:20:36Z</time>
      </trkpt>
      <trkpt lat="45.63878" lon="6.53407">
        <ele>2092.2</ele>
        <time>2025-02-20T15:20:37Z</time>
      </trkpt>
      <trkpt lat="45.6388" lon="6.53409">
        <ele>2092.2</ele>
        <time>2025-02-20T15:20:38Z</time>
      </trkpt>
      <trkpt lat="45.63879" lon="6.53413">
        <ele>2092.2</ele>
        <time>2025-02-20T15:20:39Z</time>
      </trkpt>
      <trkpt lat="45.63878" lon="6.53419">
        <ele>2092.2</ele>
        <time>2025-02-20T15:20:40Z</time>
      </trkpt>
      <trkpt lat="45.63879" lon="6.53422">
        <ele>2089.6</ele>
        <time>2025-02-20T15:20:41Z</time>
      </trkpt>
      <trkpt lat="45.63881" lon="6.53425">
        <ele>2089.6</ele>
        <time>2025-02-20T15:20:42Z</time>
      </trkpt>
      <trkpt lat="45.63885" lon="6.53424">
        <ele>2089.6</ele>
        <time>2025-02-20T15:20:43Z</time>
      </trkpt>
      <trkpt lat="45.63888" lon="6.53423">
        <ele>2088.6</ele>
        <time>2025-02-20T15:20:44Z</time>
      </trkpt>
      <trkpt lat="45.6389" lon="6.53425">
        <ele>2087</ele>
        <time>2025-02-20T15:20:45Z</time>
      </trkpt>
      <trkpt lat="45.6389" lon="6.53429">
        <ele>2087</ele>
        <time>2025-02-20T15:20:46Z</time>
      </trkpt>
      <trkpt lat="45.63888" lon="6.53433">
        <ele>2087</ele>
        <time>2025-02-20T15:20:47Z</time>
      </trkpt>
      <trkpt lat="45.63888" lon="6.53435">
        <ele>2087</ele>
        <time>2025-02-20T15:20:48Z</time>
      </trkpt>
      <trkpt lat="45.63889" lon="6.53437">
        <ele>2085.8</ele>
        <time>2025-02-20T15:20:49Z</time>
      </trkpt>
      <trkpt lat="45.63891" lon="6.53438">
        <ele>2085.8</ele>
        <time>2025-02-20T15:20:50Z</time>
      </trkpt>
      <trkpt lat="45.63895" lon="6.53438">
        <ele>2085.8</ele>
        <time>2025-02-20T15:20:51Z</time>
      </trkpt>
      <trkpt lat="45.63898" lon="6.53436">
        <ele>2084.8</ele>
        <time>2025-02-20T15:20:52Z</time>
      </trkpt>
      <trkpt lat="45.63899" lon="6.53436">
        <ele>2083.8</ele>
        <time>2025-02-20T15:20:53Z</time>
      </trkpt>
      <trkpt lat="45.639" lon="6.53436">
        <ele>2083.8</ele>
        <time>2025-02-20T15:20:54Z</time>
      </trkpt>
      <trkpt lat="45.639" lon="6.53436">
        <ele>2083.8</ele>
        <time>2025-02-20T15:20:55Z</time>
      </trkpt>
      <trkpt lat="45.639" lon="6.53436">
        <ele>2083.2</ele>
        <time>2025-02-20T15:20:56Z</time>
      </trkpt>
      <trkpt lat="45.63902" lon="6.53437">
        <ele>2082.8</ele>
        <time>2025-02-20T15:20:57Z</time>
      </trkpt>
      <trkpt lat="45.63903" lon="6.53437">
        <ele>2082.8</ele>
        <time>2025-02-20T15:20:58Z</time>
      </trkpt>
      <trkpt lat="45.63904" lon="6.53438">
        <ele>2082.8</ele>
        <time>2025-02-20T15:20:59Z</time>
      </trkpt>
      <trkpt lat="45.63906" lon="6.53439">
        <ele>2082.8</ele>
        <time>2025-02-20T15:21:00Z</time>
      </trkpt>
      <trkpt lat="45.63907" lon="6.53439">
        <ele>2081.6</ele>
        <time>2025-02-20T15:21:01Z</time>
      </trkpt>
      <trkpt lat="45.63907" lon="6.53439">
        <ele>2081.6</ele>
        <time>2025-02-20T15:21:02Z</time>
      </trkpt>
      <trkpt lat="45.63907" lon="6.53439">
        <ele>2081.6</ele>
        <time>2025-02-20T15:21:03Z</time>
      </trkpt>
      <trkpt lat="45.63909" lon="6.53439">
        <ele>2081.6</ele>
        <time>2025-02-20T15:21:04Z</time>
      </trkpt>
      <trkpt lat="45.6391" lon="6.53441">
        <ele>2080.2</ele>
        <time>2025-02-20T15:21:05Z</time>
      </trkpt>
      <trkpt lat="45.63911" lon="6.53442">
        <ele>2080.2</ele>
        <time>2025-02-20T15:21:06Z</time>
      </trkpt>
      <trkpt lat="45.63912" lon="6.53444">
        <ele>2080.2</ele>
        <time>2025-02-20T15:21:07Z</time>
      </trkpt>
      <trkpt lat="45.63913" lon="6.53446">
        <ele>2080.2</ele>
        <time>2025-02-20T15:21:08Z</time>
      </trkpt>
      <trkpt lat="45.63914" lon="6.53448">
        <ele>2078.4</ele>
        <time>2025-02-20T15:21:09Z</time>
      </trkpt>
      <trkpt lat="45.63915" lon="6.5345">
        <ele>2078.4</ele>
        <time>2025-02-20T15:21:10Z</time>
      </trkpt>
      <trkpt lat="45.63916" lon="6.53451">
        <ele>2078.4</ele>
        <time>2025-02-20T15:21:11Z</time>
      </trkpt>
      <trkpt lat="45.63917" lon="6.53453">
        <ele>2077.4</ele>
        <time>2025-02-20T15:21:12Z</time>
      </trkpt>
      <trkpt lat="45.63918" lon="6.53455">
        <ele>2076.2</ele>
        <time>2025-02-20T15:21:13Z</time>
      </trkpt>
      <trkpt lat="45.63919" lon="6.53458">
        <ele>2076.2</ele>
        <time>2025-02-20T15:21:14Z</time>
      </trkpt>
      <trkpt lat="45.63918" lon="6.53461">
        <ele>2076.2</ele>
        <time>2025-02-20T15:21:15Z</time>
      </trkpt>
      <trkpt lat="45.63919" lon="6.53464">
        <ele>2075.2</ele>
        <time>2025-02-20T15:21:16Z</time>
      </trkpt>
      <trkpt lat="45.63919" lon="6.53466">
        <ele>2072</ele>
        <time>2025-02-20T15:21:17Z</time>
      </trkpt>
      <trkpt lat="45.6392" lon="6.53468">
        <ele>2072</ele>
        <time>2025-02-20T15:21:18Z</time>
      </trkpt>
      <trkpt lat="45.6392" lon="6.53469">
        <ele>2072</ele>
        <time>2025-02-20T15:21:19Z</time>
      </trkpt>
      <trkpt lat="45.63921" lon="6.5347">
        <ele>2071</ele>
        <time>2025-02-20T15:21:20Z</time>
      </trkpt>
      <trkpt lat="45.63921" lon="6.5347">
        <ele>2071.6</ele>
        <time>2025-02-20T15:21:21Z</time>
      </trkpt>
      <trkpt lat="45.63921" lon="6.53471">
        <ele>2071.6</ele>
        <time>2025-02-20T15:21:22Z</time>
      </trkpt>
      <trkpt lat="45.6392" lon="6.53473">
        <ele>2071.6</ele>
        <time>2025-02-20T15:21:23Z</time>
      </trkpt>
      <trkpt lat="45.63918" lon="6.53477">
        <ele>2070.6</ele>
        <time>2025-02-20T15:21:24Z</time>
      </trkpt>
      <trkpt lat="45.63914" lon="6.53482">
        <ele>2067.6</ele>
        <time>2025-02-20T15:21:25Z</time>
      </trkpt>
      <trkpt lat="45.63912" lon="6.53485">
        <ele>2067.6</ele>
        <time>2025-02-20T15:21:26Z</time>
      </trkpt>
      <trkpt lat="45.63912" lon="6.53488">
        <ele>2067.6</ele>
        <time>2025-02-20T15:21:27Z</time>
      </trkpt>
      <trkpt lat="45.63912" lon="6.53491">
        <ele>2067</ele>
        <time>2025-02-20T15:21:28Z</time>
      </trkpt>
      <trkpt lat="45.63912" lon="6.53496">
        <ele>2066.6</ele>
        <time>2025-02-20T15:21:29Z</time>
      </trkpt>
      <trkpt lat="45.63914" lon="6.535">
        <ele>2066.6</ele>
        <time>2025-02-20T15:21:30Z</time>
      </trkpt>
      <trkpt lat="45.63915" lon="6.53505">
        <ele>2066.6</ele>
        <time>2025-02-20T15:21:31Z</time>
      </trkpt>
      <trkpt lat="45.63916" lon="6.53508">
        <ele>2065.8</ele>
        <time>2025-02-20T15:21:32Z</time>
      </trkpt>
      <trkpt lat="45.63918" lon="6.53511">
        <ele>2064.6</ele>
        <time>2025-02-20T15:21:33Z</time>
      </trkpt>
      <trkpt lat="45.6392" lon="6.53516">
        <ele>2064.6</ele>
        <time>2025-02-20T15:21:34Z</time>
      </trkpt>
      <trkpt lat="45.63921" lon="6.53519">
        <ele>2064.6</ele>
        <time>2025-02-20T15:21:35Z</time>
      </trkpt>
      <trkpt lat="45.63924" lon="6.53522">
        <ele>2063.6</ele>
        <time>2025-02-20T15:21:36Z</time>
      </trkpt>
      <trkpt lat="45.63926" lon="6.53525">
        <ele>2060.8</ele>
        <time>2025-02-20T15:21:37Z</time>
      </trkpt>
      <trkpt lat="45.63929" lon="6.53529">
        <ele>2060.8</ele>
        <time>2025-02-20T15:21:38Z</time>
      </trkpt>
      <trkpt lat="45.63932" lon="6.53533">
        <ele>2060.8</ele>
        <time>2025-02-20T15:21:39Z</time>
      </trkpt>
      <trkpt lat="45.63935" lon="6.53537">
        <ele>2059.8</ele>
        <time>2025-02-20T15:21:40Z</time>
      </trkpt>
      <trkpt lat="45.63936" lon="6.53542">
        <ele>2057.4</ele>
        <time>2025-02-20T15:21:41Z</time>
      </trkpt>
      <trkpt lat="45.63938" lon="6.53547">
        <ele>2057.4</ele>
        <time>2025-02-20T15:21:42Z</time>
      </trkpt>
      <trkpt lat="45.6394" lon="6.53552">
        <ele>2057.4</ele>
        <time>2025-02-20T15:21:43Z</time>
      </trkpt>
      <trkpt lat="45.63941" lon="6.53555">
        <ele>2056.4</ele>
        <time>2025-02-20T15:21:44Z</time>
      </trkpt>
      <trkpt lat="45.63941" lon="6.53559">
        <ele>2055.2</ele>
        <time>2025-02-20T15:21:45Z</time>
      </trkpt>
      <trkpt lat="45.63941" lon="6.53561">
        <ele>2055.2</ele>
        <time>2025-02-20T15:21:46Z</time>
      </trkpt>
      <trkpt lat="45.63941" lon="6.53562">
        <ele>2055.2</ele>
        <time>2025-02-20T15:21:47Z</time>
      </trkpt>
      <trkpt lat="45.63941" lon="6.53562">
        <ele>2054.2</ele>
        <time>2025-02-20T15:21:48Z</time>
      </trkpt>
      <trkpt lat="45.63941" lon="6.53562">
        <ele>2053.6</ele>
        <time>2025-02-20T15:21:49Z</time>
      </trkpt>
      <trkpt lat="45.63941" lon="6.53562">
        <ele>2053.6</ele>
        <time>2025-02-20T15:21:50Z</time>
      </trkpt>
      <trkpt lat="45.63941" lon="6.53562">
        <ele>2053.6</ele>
        <time>2025-02-20T15:21:51Z</time>
      </trkpt>
      <trkpt lat="45.63941" lon="6.53562">
        <ele>2054.4</ele>
        <time>2025-02-20T15:21:52Z</time>
      </trkpt>
      <trkpt lat="45.63941" lon="6.53562">
        <ele>2054</ele>
        <time>2025-02-20T15:21:53Z</time>
      </trkpt>
      <trkpt lat="45.63941" lon="6.53562">
        <ele>2054</ele>
        <time>2025-02-20T15:21:54Z</time>
      </trkpt>
      <trkpt lat="45.63941" lon="6.53562">
        <ele>2054</ele>
        <time>2025-02-20T15:21:55Z</time>
      </trkpt>
      <trkpt lat="45.63942" lon="6.53562">
        <ele>2053.2</ele>
        <time>2025-02-20T15:21:56Z</time>
      </trkpt>
      <trkpt lat="45.63945" lon="6.5356">
        <ele>2051.8</ele>
        <time>2025-02-20T15:21:57Z</time>
      </trkpt>
      <trkpt lat="45.63948" lon="6.5356">
        <ele>2051.8</ele>
        <time>2025-02-20T15:21:58Z</time>
      </trkpt>
      <trkpt lat="45.63952" lon="6.53565">
        <ele>2051.8</ele>
        <time>2025-02-20T15:21:59Z</time>
      </trkpt>
      <trkpt lat="45.63952" lon="6.5357">
        <ele>2051.8</ele>
        <time>2025-02-20T15:22:00Z</time>
      </trkpt>
      <trkpt lat="45.63953" lon="6.53574">
        <ele>2049.2</ele>
        <time>2025-02-20T15:22:01Z</time>
      </trkpt>
      <trkpt lat="45.63953" lon="6.53577">
        <ele>2049.2</ele>
        <time>2025-02-20T15:22:02Z</time>
      </trkpt>
      <trkpt lat="45.63953" lon="6.53578">
        <ele>2049.2</ele>
        <time>2025-02-20T15:22:03Z</time>
      </trkpt>
      <trkpt lat="45.63953" lon="6.53578">
        <ele>2048.6</ele>
        <time>2025-02-20T15:22:04Z</time>
      </trkpt>
      <trkpt lat="45.63953" lon="6.53578">
        <ele>2048.6</ele>
        <time>2025-02-20T15:22:05Z</time>
      </trkpt>
      <trkpt lat="45.63953" lon="6.53578">
        <ele>2048.6</ele>
        <time>2025-02-20T15:22:06Z</time>
      </trkpt>
      <trkpt lat="45.63953" lon="6.53578">
        <ele>2048.6</ele>
        <time>2025-02-20T15:22:07Z</time>
      </trkpt>
      <trkpt lat="45.63953" lon="6.53578">
        <ele>2048.6</ele>
        <time>2025-02-20T15:22:08Z</time>
      </trkpt>
      <trkpt lat="45.63953" lon="6.53578">
        <ele>2048.2</ele>
        <time>2025-02-20T15:22:09Z</time>
      </trkpt>
      <trkpt lat="45.63953" lon="6.53578">
        <ele>2048.2</ele>
        <time>2025-02-20T15:22:10Z</time>
      </trkpt>
      <trkpt lat="45.63953" lon="6.53578">
        <ele>2048.2</ele>
        <time>2025-02-20T15:22:11Z</time>
      </trkpt>
      <trkpt lat="45.63953" lon="6.53578">
        <ele>2048.4</ele>
        <time>2025-02-20T15:22:12Z</time>
      </trkpt>
      <trkpt lat="45.63953" lon="6.53578">
        <ele>2048.8</ele>
        <time>2025-02-20T15:22:13Z</time>
      </trkpt>
      <trkpt lat="45.63953" lon="6.53578">
        <ele>2048.8</ele>
        <time>2025-02-20T15:22:14Z</time>
      </trkpt>
      <trkpt lat="45.63953" lon="6.53578">
        <ele>2048.8</ele>
        <time>2025-02-20T15:22:15Z</time>
      </trkpt>
      <trkpt lat="45.63953" lon="6.53578">
        <ele>2048.2</ele>
        <time>2025-02-20T15:22:16Z</time>
      </trkpt>
      <trkpt lat="45.63953" lon="6.53578">
        <ele>2048.4</ele>
        <time>2025-02-20T15:22:17Z</time>
      </trkpt>
      <trkpt lat="45.63953" lon="6.53578">
        <ele>2048.4</ele>
        <time>2025-02-20T15:22:18Z</time>
      </trkpt>
      <trkpt lat="45.63953" lon="6.53578">
        <ele>2048.4</ele>
        <time>2025-02-20T15:22:19Z</time>
      </trkpt>
      <trkpt lat="45.63953" lon="6.53578">
        <ele>2048.4</ele>
        <time>2025-02-20T15:22:20Z</time>
      </trkpt>
      <trkpt lat="45.63953" lon="6.53578">
        <ele>2048</ele>
        <time>2025-02-20T15:22:21Z</time>
      </trkpt>
      <trkpt lat="45.63953" lon="6.53578">
        <ele>2048</ele>
        <time>2025-02-20T15:22:22Z</time>
      </trkpt>
      <trkpt lat="45.63956" lon="6.5358">
        <ele>2048</ele>
        <time>2025-02-20T15:22:23Z</time>
      </trkpt>
      <trkpt lat="45.63958" lon="6.53579">
        <ele>2048</ele>
        <time>2025-02-20T15:22:24Z</time>
      </trkpt>
      <trkpt lat="45.63962" lon="6.53579">
        <ele>2046.4</ele>
        <time>2025-02-20T15:22:25Z</time>
      </trkpt>
      <trkpt lat="45.63965" lon="6.53583">
        <ele>2046.4</ele>
        <time>2025-02-20T15:22:26Z</time>
      </trkpt>
      <trkpt lat="45.63965" lon="6.53587">
        <ele>2046.4</ele>
        <time>2025-02-20T15:22:27Z</time>
      </trkpt>
      <trkpt lat="45.63965" lon="6.53591">
        <ele>2045.4</ele>
        <time>2025-02-20T15:22:28Z</time>
      </trkpt>
      <trkpt lat="45.63966" lon="6.53596">
        <ele>2041.4</ele>
        <time>2025-02-20T15:22:29Z</time>
      </trkpt>
      <trkpt lat="45.63968" lon="6.53599">
        <ele>2041.4</ele>
        <time>2025-02-20T15:22:30Z</time>
      </trkpt>
      <trkpt lat="45.63972" lon="6.53598">
        <ele>2041.4</ele>
        <time>2025-02-20T15:22:31Z</time>
      </trkpt>
      <trkpt lat="45.63975" lon="6.53597">
        <ele>2041.4</ele>
        <time>2025-02-20T15:22:32Z</time>
      </trkpt>
      <trkpt lat="45.63979" lon="6.53601">
        <ele>2037</ele>
        <time>2025-02-20T15:22:33Z</time>
      </trkpt>
      <trkpt lat="45.63978" lon="6.53607">
        <ele>2037</ele>
        <time>2025-02-20T15:22:34Z</time>
      </trkpt>
      <trkpt lat="45.63977" lon="6.53611">
        <ele>2037</ele>
        <time>2025-02-20T15:22:35Z</time>
      </trkpt>
      <trkpt lat="45.63976" lon="6.53617">
        <ele>2036</ele>
        <time>2025-02-20T15:22:36Z</time>
      </trkpt>
      <trkpt lat="45.63976" lon="6.53621">
        <ele>2033.4</ele>
        <time>2025-02-20T15:22:37Z</time>
      </trkpt>
      <trkpt lat="45.6398" lon="6.53623">
        <ele>2033.4</ele>
        <time>2025-02-20T15:22:38Z</time>
      </trkpt>
      <trkpt lat="45.63984" lon="6.53626">
        <ele>2033.4</ele>
        <time>2025-02-20T15:22:39Z</time>
      </trkpt>
      <trkpt lat="45.63985" lon="6.53632">
        <ele>2033.4</ele>
        <time>2025-02-20T15:22:40Z</time>
      </trkpt>
      <trkpt lat="45.63985" lon="6.53637">
        <ele>2031.6</ele>
        <time>2025-02-20T15:22:41Z</time>
      </trkpt>
      <trkpt lat="45.63986" lon="6.53641">
        <ele>2031.6</ele>
        <time>2025-02-20T15:22:42Z</time>
      </trkpt>
      <trkpt lat="45.63988" lon="6.53645">
        <ele>2031.6</ele>
        <time>2025-02-20T15:22:43Z</time>
      </trkpt>
      <trkpt lat="45.63991" lon="6.53646">
        <ele>2030.6</ele>
        <time>2025-02-20T15:22:44Z</time>
      </trkpt>
      <trkpt lat="45.63995" lon="6.53646">
        <ele>2029.4</ele>
        <time>2025-02-20T15:22:45Z</time>
      </trkpt>
      <trkpt lat="45.64" lon="6.53648">
        <ele>2029.4</ele>
        <time>2025-02-20T15:22:46Z</time>
      </trkpt>
      <trkpt lat="45.64001" lon="6.53653">
        <ele>2029.4</ele>
        <time>2025-02-20T15:22:47Z</time>
      </trkpt>
      <trkpt lat="45.64001" lon="6.53658">
        <ele>2028.4</ele>
        <time>2025-02-20T15:22:48Z</time>
      </trkpt>
      <trkpt lat="45.64003" lon="6.53664">
        <ele>2025.4</ele>
        <time>2025-02-20T15:22:49Z</time>
      </trkpt>
      <trkpt lat="45.64007" lon="6.53667">
        <ele>2025.4</ele>
        <time>2025-02-20T15:22:50Z</time>
      </trkpt>
      <trkpt lat="45.64011" lon="6.53669">
        <ele>2025.4</ele>
        <time>2025-02-20T15:22:51Z</time>
      </trkpt>
      <trkpt lat="45.64017" lon="6.5367">
        <ele>2024.4</ele>
        <time>2025-02-20T15:22:52Z</time>
      </trkpt>
      <trkpt lat="45.64021" lon="6.53673">
        <ele>2021.6</ele>
        <time>2025-02-20T15:22:53Z</time>
      </trkpt>
      <trkpt lat="45.64022" lon="6.53679">
        <ele>2021.6</ele>
        <time>2025-02-20T15:22:54Z</time>
      </trkpt>
      <trkpt lat="45.64023" lon="6.53687">
        <ele>2021.6</ele>
        <time>2025-02-20T15:22:55Z</time>
      </trkpt>
      <trkpt lat="45.64022" lon="6.53695">
        <ele>2021.6</ele>
        <time>2025-02-20T15:22:56Z</time>
      </trkpt>
      <trkpt lat="45.64022" lon="6.53702">
        <ele>2019.4</ele>
        <time>2025-02-20T15:22:57Z</time>
      </trkpt>
      <trkpt lat="45.64024" lon="6.53706">
        <ele>2019.4</ele>
        <time>2025-02-20T15:22:58Z</time>
      </trkpt>
      <trkpt lat="45.64025" lon="6.53709">
        <ele>2019.4</ele>
        <time>2025-02-20T15:22:59Z</time>
      </trkpt>
      <trkpt lat="45.64027" lon="6.53713">
        <ele>2018.4</ele>
        <time>2025-02-20T15:23:00Z</time>
      </trkpt>
      <trkpt lat="45.64031" lon="6.53718">
        <ele>2015.8</ele>
        <time>2025-02-20T15:23:01Z</time>
      </trkpt>
      <trkpt lat="45.64033" lon="6.53723">
        <ele>2015.8</ele>
        <time>2025-02-20T15:23:02Z</time>
      </trkpt>
      <trkpt lat="45.64037" lon="6.53727">
        <ele>2015.8</ele>
        <time>2025-02-20T15:23:03Z</time>
      </trkpt>
      <trkpt lat="45.64044" lon="6.53732">
        <ele>2014.8</ele>
        <time>2025-02-20T15:23:04Z</time>
      </trkpt>
      <trkpt lat="45.6405" lon="6.53735">
        <ele>2011.6</ele>
        <time>2025-02-20T15:23:05Z</time>
      </trkpt>
      <trkpt lat="45.64054" lon="6.53737">
        <ele>2011.6</ele>
        <time>2025-02-20T15:23:06Z</time>
      </trkpt>
      <trkpt lat="45.64058" lon="6.5374">
        <ele>2011.6</ele>
        <time>2025-02-20T15:23:07Z</time>
      </trkpt>
      <trkpt lat="45.64062" lon="6.53744">
        <ele>2010.6</ele>
        <time>2025-02-20T15:23:08Z</time>
      </trkpt>
      <trkpt lat="45.64067" lon="6.53749">
        <ele>2009.8</ele>
        <time>2025-02-20T15:23:09Z</time>
      </trkpt>
      <trkpt lat="45.64072" lon="6.53755">
        <ele>2009.8</ele>
        <time>2025-02-20T15:23:10Z</time>
      </trkpt>
      <trkpt lat="45.64078" lon="6.5376">
        <ele>2009.8</ele>
        <time>2025-02-20T15:23:11Z</time>
      </trkpt>
      <trkpt lat="45.64084" lon="6.53766">
        <ele>2008.8</ele>
        <time>2025-02-20T15:23:12Z</time>
      </trkpt>
      <trkpt lat="45.6409" lon="6.53773">
        <ele>2006.2</ele>
        <time>2025-02-20T15:23:13Z</time>
      </trkpt>
      <trkpt lat="45.64095" lon="6.53778">
        <ele>2006.2</ele>
        <time>2025-02-20T15:23:14Z</time>
      </trkpt>
      <trkpt lat="45.641" lon="6.53784">
        <ele>2006.2</ele>
        <time>2025-02-20T15:23:15Z</time>
      </trkpt>
      <trkpt lat="45.64104" lon="6.53791">
        <ele>2005.2</ele>
        <time>2025-02-20T15:23:16Z</time>
      </trkpt>
      <trkpt lat="45.64108" lon="6.53797">
        <ele>2003</ele>
        <time>2025-02-20T15:23:17Z</time>
      </trkpt>
      <trkpt lat="45.64112" lon="6.53804">
        <ele>2003</ele>
        <time>2025-02-20T15:23:18Z</time>
      </trkpt>
      <trkpt lat="45.64115" lon="6.53812">
        <ele>2003</ele>
        <time>2025-02-20T15:23:19Z</time>
      </trkpt>
      <trkpt lat="45.64119" lon="6.53819">
        <ele>2002</ele>
        <time>2025-02-20T15:23:20Z</time>
      </trkpt>
      <trkpt lat="45.64123" lon="6.53825">
        <ele>1998.6</ele>
        <time>2025-02-20T15:23:21Z</time>
      </trkpt>
      <trkpt lat="45.64126" lon="6.53831">
        <ele>1998.6</ele>
        <time>2025-02-20T15:23:22Z</time>
      </trkpt>
      <trkpt lat="45.64129" lon="6.53836">
        <ele>1998.6</ele>
        <time>2025-02-20T15:23:23Z</time>
      </trkpt>
      <trkpt lat="45.64132" lon="6.53839">
        <ele>1998.6</ele>
        <time>2025-02-20T15:23:24Z</time>
      </trkpt>
      <trkpt lat="45.64135" lon="6.53841">
        <ele>1998.2</ele>
        <time>2025-02-20T15:23:25Z</time>
      </trkpt>
      <trkpt lat="45.64136" lon="6.53841">
        <ele>1998.2</ele>
        <time>2025-02-20T15:23:26Z</time>
      </trkpt>
      <trkpt lat="45.64138" lon="6.53841">
        <ele>1998.2</ele>
        <time>2025-02-20T15:23:27Z</time>
      </trkpt>
      <trkpt lat="45.64138" lon="6.53841">
        <ele>1998.6</ele>
        <time>2025-02-20T15:23:28Z</time>
      </trkpt>
      <trkpt lat="45.64138" lon="6.53841">
        <ele>1998.8</ele>
        <time>2025-02-20T15:23:29Z</time>
      </trkpt>
      <trkpt lat="45.64138" lon="6.53841">
        <ele>1998.8</ele>
        <time>2025-02-20T15:23:30Z</time>
      </trkpt>
      <trkpt lat="45.64138" lon="6.53841">
        <ele>1998.8</ele>
        <time>2025-02-20T15:23:31Z</time>
      </trkpt>
      <trkpt lat="45.64138" lon="6.53841">
        <ele>1998.8</ele>
        <time>2025-02-20T15:23:32Z</time>
      </trkpt>
      <trkpt lat="45.64138" lon="6.53841">
        <ele>1998.8</ele>
        <time>2025-02-20T15:23:33Z</time>
      </trkpt>
      <trkpt lat="45.64138" lon="6.53841">
        <ele>1998.8</ele>
        <time>2025-02-20T15:23:34Z</time>
      </trkpt>
      <trkpt lat="45.64138" lon="6.53841">
        <ele>1998.8</ele>
        <time>2025-02-20T15:23:35Z</time>
      </trkpt>
      <trkpt lat="45.64138" lon="6.53841">
        <ele>1998.8</ele>
        <time>2025-02-20T15:23:36Z</time>
      </trkpt>
      <trkpt lat="45.64138" lon="6.53841">
        <ele>1998.4</ele>
        <time>2025-02-20T15:23:37Z</time>
      </trkpt>
      <trkpt lat="45.64138" lon="6.53841">
        <ele>1998.4</ele>
        <time>2025-02-20T15:23:38Z</time>
      </trkpt>
      <trkpt lat="45.64138" lon="6.53841">
        <ele>1998.4</ele>
        <time>2025-02-20T15:23:39Z</time>
      </trkpt>
      <trkpt lat="45.64138" lon="6.53841">
        <ele>1998.4</ele>
        <time>2025-02-20T15:23:40Z</time>
      </trkpt>
      <trkpt lat="45.64138" lon="6.53841">
        <ele>1997.8</ele>
        <time>2025-02-20T15:23:41Z</time>
      </trkpt>
      <trkpt lat="45.64138" lon="6.53841">
        <ele>1997.8</ele>
        <time>2025-02-20T15:23:42Z</time>
      </trkpt>
      <trkpt lat="45.64138" lon="6.53841">
        <ele>1997.8</ele>
        <time>2025-02-20T15:23:43Z</time>
      </trkpt>
      <trkpt lat="45.64138" lon="6.53841">
        <ele>1998.8</ele>
        <time>2025-02-20T15:23:44Z</time>
      </trkpt>
      <trkpt lat="45.64138" lon="6.53841">
        <ele>1998.6</ele>
        <time>2025-02-20T15:23:45Z</time>
      </trkpt>
      <trkpt lat="45.64138" lon="6.53841">
        <ele>1998.6</ele>
        <time>2025-02-20T15:23:46Z</time>
      </trkpt>
      <trkpt lat="45.64138" lon="6.53841">
        <ele>1998.6</ele>
        <time>2025-02-20T15:23:47Z</time>
      </trkpt>
      <trkpt lat="45.64138" lon="6.53841">
        <ele>1998.4</ele>
        <time>2025-02-20T15:23:48Z</time>
      </trkpt>
      <trkpt lat="45.64138" lon="6.53841">
        <ele>1998.4</ele>
        <time>2025-02-20T15:23:49Z</time>
      </trkpt>
      <trkpt lat="45.64138" lon="6.53841">
        <ele>1998.4</ele>
        <time>2025-02-20T15:23:50Z</time>
      </trkpt>
      <trkpt lat="45.64138" lon="6.53841">
        <ele>1998.4</ele>
        <time>2025-02-20T15:23:51Z</time>
      </trkpt>
      <trkpt lat="45.64138" lon="6.53841">
        <ele>1998</ele>
        <time>2025-02-20T15:23:52Z</time>
      </trkpt>
      <trkpt lat="45.64138" lon="6.53841">
        <ele>1998.6</ele>
        <time>2025-02-20T15:23:53Z</time>
      </trkpt>
      <trkpt lat="45.64138" lon="6.53841">
        <ele>1998.6</ele>
        <time>2025-02-20T15:23:54Z</time>
      </trkpt>
      <trkpt lat="45.64138" lon="6.53841">
        <ele>1998.6</ele>
        <time>2025-02-20T15:23:55Z</time>
      </trkpt>
      <trkpt lat="45.64138" lon="6.53841">
        <ele>1998.4</ele>
        <time>2025-02-20T15:23:56Z</time>
      </trkpt>
      <trkpt lat="45.64138" lon="6.53841">
        <ele>1998.2</ele>
        <time>2025-02-20T15:23:57Z</time>
      </trkpt>
      <trkpt lat="45.64138" lon="6.53841">
        <ele>1998.2</ele>
        <time>2025-02-20T15:23:58Z</time>
      </trkpt>
      <trkpt lat="45.64138" lon="6.53841">
        <ele>1998.2</ele>
        <time>2025-02-20T15:23:59Z</time>
      </trkpt>
      <trkpt lat="45.64138" lon="6.53841">
        <ele>1998.2</ele>
        <time>2025-02-20T15:24:00Z</time>
      </trkpt>
      <trkpt lat="45.64138" lon="6.53841">
        <ele>1998.2</ele>
        <time>2025-02-20T15:24:01Z</time>
      </trkpt>
      <trkpt lat="45.64138" lon="6.53841">
        <ele>1998.2</ele>
        <time>2025-02-20T15:24:02Z</time>
      </trkpt>
      <trkpt lat="45.64138" lon="6.53841">
        <ele>1998.2</ele>
        <time>2025-02-20T15:24:03Z</time>
      </trkpt>
      <trkpt lat="45.64138" lon="6.53841">
        <ele>1998.2</ele>
        <time>2025-02-20T15:24:04Z</time>
      </trkpt>
      <trkpt lat="45.64138" lon="6.53841">
        <ele>1998.6</ele>
        <time>2025-02-20T15:24:05Z</time>
      </trkpt>
      <trkpt lat="45.64138" lon="6.53841">
        <ele>1998.6</ele>
        <time>2025-02-20T15:24:06Z</time>
      </trkpt>
      <trkpt lat="45.64138" lon="6.53841">
        <ele>1998.6</ele>
        <time>2025-02-20T15:24:07Z</time>
      </trkpt>
      <trkpt lat="45.64138" lon="6.53841">
        <ele>1998</ele>
        <time>2025-02-20T15:24:08Z</time>
      </trkpt>
      <trkpt lat="45.64138" lon="6.53841">
        <ele>1997.2</ele>
        <time>2025-02-20T15:24:09Z</time>
      </trkpt>
      <trkpt lat="45.64138" lon="6.53841">
        <ele>1997.2</ele>
        <time>2025-02-20T15:24:10Z</time>
      </trkpt>
      <trkpt lat="45.64138" lon="6.53841">
        <ele>1997.2</ele>
        <time>2025-02-20T15:24:11Z</time>
      </trkpt>
      <trkpt lat="45.64138" lon="6.53841">
        <ele>1997.6</ele>
        <time>2025-02-20T15:24:12Z</time>
      </trkpt>
      <trkpt lat="45.64138" lon="6.53841">
        <ele>1997.8</ele>
        <time>2025-02-20T15:24:13Z</time>
      </trkpt>
      <trkpt lat="45.64138" lon="6.53841">
        <ele>1997.8</ele>
        <time>2025-02-20T15:24:14Z</time>
      </trkpt>
      <trkpt lat="45.64138" lon="6.53841">
        <ele>1997.8</ele>
        <time>2025-02-20T15:24:15Z</time>
      </trkpt>
      <trkpt lat="45.64138" lon="6.53841">
        <ele>1997.8</ele>
        <time>2025-02-20T15:24:16Z</time>
      </trkpt>
      <trkpt lat="45.64138" lon="6.53841">
        <ele>1998.2</ele>
        <time>2025-02-20T15:24:17Z</time>
      </trkpt>
      <trkpt lat="45.64138" lon="6.53841">
        <ele>1998.2</ele>
        <time>2025-02-20T15:24:18Z</time>
      </trkpt>
      <trkpt lat="45.64138" lon="6.53841">
        <ele>1998.2</ele>
        <time>2025-02-20T15:24:19Z</time>
      </trkpt>
      <trkpt lat="45.64138" lon="6.53841">
        <ele>1998.2</ele>
        <time>2025-02-20T15:24:20Z</time>
      </trkpt>
      <trkpt lat="45.64138" lon="6.53841">
        <ele>1997.8</ele>
        <time>2025-02-20T15:24:21Z</time>
      </trkpt>
      <trkpt lat="45.64138" lon="6.53841">
        <ele>1997.8</ele>
        <time>2025-02-20T15:24:22Z</time>
      </trkpt>
      <trkpt lat="45.64138" lon="6.53841">
        <ele>1997.8</ele>
        <time>2025-02-20T15:24:23Z</time>
      </trkpt>
      <trkpt lat="45.64138" lon="6.53841">
        <ele>1997.8</ele>
        <time>2025-02-20T15:24:24Z</time>
      </trkpt>
      <trkpt lat="45.64138" lon="6.53841">
        <ele>1997.4</ele>
        <time>2025-02-20T15:24:25Z</time>
      </trkpt>
      <trkpt lat="45.64138" lon="6.53841">
        <ele>1997.4</ele>
        <time>2025-02-20T15:24:26Z</time>
      </trkpt>
      <trkpt lat="45.64138" lon="6.53841">
        <ele>1997.4</ele>
        <time>2025-02-20T15:24:27Z</time>
      </trkpt>
      <trkpt lat="45.64138" lon="6.53841">
        <ele>1997.6</ele>
        <time>2025-02-20T15:24:28Z</time>
      </trkpt>
      <trkpt lat="45.64138" lon="6.53841">
        <ele>1997</ele>
        <time>2025-02-20T15:24:29Z</time>
      </trkpt>
      <trkpt lat="45.64138" lon="6.53841">
        <ele>1997</ele>
        <time>2025-02-20T15:24:30Z</time>
      </trkpt>
      <trkpt lat="45.64138" lon="6.53841">
        <ele>1997</ele>
        <time>2025-02-20T15:24:31Z</time>
      </trkpt>
      <trkpt lat="45.64138" lon="6.53841">
        <ele>1997.2</ele>
        <time>2025-02-20T15:24:32Z</time>
      </trkpt>
      <trkpt lat="45.64138" lon="6.53841">
        <ele>1997.6</ele>
        <time>2025-02-20T15:24:33Z</time>
      </trkpt>
      <trkpt lat="45.64138" lon="6.53841">
        <ele>1997.6</ele>
        <time>2025-02-20T15:24:34Z</time>
      </trkpt>
      <trkpt lat="45.64138" lon="6.53841">
        <ele>1997.6</ele>
        <time>2025-02-20T15:24:35Z</time>
      </trkpt>
      <trkpt lat="45.64138" lon="6.53841">
        <ele>1997.6</ele>
        <time>2025-02-20T15:24:36Z</time>
      </trkpt>
      <trkpt lat="45.64138" lon="6.53841">
        <ele>1997.4</ele>
        <time>2025-02-20T15:24:37Z</time>
      </trkpt>
      <trkpt lat="45.64138" lon="6.53841">
        <ele>1997.4</ele>
        <time>2025-02-20T15:24:38Z</time>
      </trkpt>
      <trkpt lat="45.64138" lon="6.53841">
        <ele>1997.4</ele>
        <time>2025-02-20T15:24:39Z</time>
      </trkpt>
      <trkpt lat="45.64138" lon="6.53841">
        <ele>1997.8</ele>
        <time>2025-02-20T15:24:40Z</time>
      </trkpt>
      <trkpt lat="45.64138" lon="6.53841">
        <ele>1998.4</ele>
        <time>2025-02-20T15:24:41Z</time>
      </trkpt>
      <trkpt lat="45.64138" lon="6.53841">
        <ele>1998.4</ele>
        <time>2025-02-20T15:24:42Z</time>
      </trkpt>
      <trkpt lat="45.64138" lon="6.53841">
        <ele>1998.4</ele>
        <time>2025-02-20T15:24:43Z</time>
      </trkpt>
      <trkpt lat="45.64138" lon="6.53841">
        <ele>1998.4</ele>
        <time>2025-02-20T15:24:44Z</time>
      </trkpt>
      <trkpt lat="45.64138" lon="6.53841">
        <ele>1997.8</ele>
        <time>2025-02-20T15:24:45Z</time>
      </trkpt>
      <trkpt lat="45.64138" lon="6.53841">
        <ele>1997.8</ele>
        <time>2025-02-20T15:24:46Z</time>
      </trkpt>
      <trkpt lat="45.64138" lon="6.53841">
        <ele>1997.8</ele>
        <time>2025-02-20T15:24:47Z</time>
      </trkpt>
      <trkpt lat="45.64138" lon="6.53841">
        <ele>1997.8</ele>
        <time>2025-02-20T15:24:48Z</time>
      </trkpt>
      <trkpt lat="45.64138" lon="6.53841">
        <ele>1997.8</ele>
        <time>2025-02-20T15:24:49Z</time>
      </trkpt>
      <trkpt lat="45.64138" lon="6.53841">
        <ele>1997.8</ele>
        <time>2025-02-20T15:24:50Z</time>
      </trkpt>
      <trkpt lat="45.64138" lon="6.53841">
        <ele>1997.8</ele>
        <time>2025-02-20T15:24:51Z</time>
      </trkpt>
      <trkpt lat="45.64138" lon="6.53841">
        <ele>1997.8</ele>
        <time>2025-02-20T15:24:52Z</time>
      </trkpt>
      <trkpt lat="45.64138" lon="6.53841">
        <ele>1997.8</ele>
        <time>2025-02-20T15:24:53Z</time>
      </trkpt>
      <trkpt lat="45.64138" lon="6.53841">
        <ele>1997.8</ele>
        <time>2025-02-20T15:24:54Z</time>
      </trkpt>
      <trkpt lat="45.64138" lon="6.53841">
        <ele>1997.8</ele>
        <time>2025-02-20T15:24:55Z</time>
      </trkpt>
      <trkpt lat="45.64138" lon="6.53841">
        <ele>1998</ele>
        <time>2025-02-20T15:24:56Z</time>
      </trkpt>
      <trkpt lat="45.64138" lon="6.53841">
        <ele>1998.6</ele>
        <time>2025-02-20T15:24:57Z</time>
      </trkpt>
      <trkpt lat="45.64138" lon="6.53841">
        <ele>1998.6</ele>
        <time>2025-02-20T15:24:58Z</time>
      </trkpt>
      <trkpt lat="45.64138" lon="6.53841">
        <ele>1998.6</ele>
        <time>2025-02-20T15:24:59Z</time>
      </trkpt>
      <trkpt lat="45.64138" lon="6.53841">
        <ele>1998.6</ele>
        <time>2025-02-20T15:25:00Z</time>
      </trkpt>
      <trkpt lat="45.64138" lon="6.53841">
        <ele>1998.4</ele>
        <time>2025-02-20T15:25:01Z</time>
      </trkpt>
      <trkpt lat="45.64138" lon="6.53841">
        <ele>1998.4</ele>
        <time>2025-02-20T15:25:02Z</time>
      </trkpt>
      <trkpt lat="45.64144" lon="6.53836">
        <ele>1998.4</ele>
        <time>2025-02-20T15:25:03Z</time>
      </trkpt>
      <trkpt lat="45.64144" lon="6.53836">
        <ele>1998</ele>
        <time>2025-02-20T15:25:04Z</time>
      </trkpt>
      <trkpt lat="45.64144" lon="6.53836">
        <ele>1997.6</ele>
        <time>2025-02-20T15:25:05Z</time>
      </trkpt>
      <trkpt lat="45.64144" lon="6.53836">
        <ele>1997.6</ele>
        <time>2025-02-20T15:25:06Z</time>
      </trkpt>
      <trkpt lat="45.64144" lon="6.53836">
        <ele>1997.6</ele>
        <time>2025-02-20T15:25:07Z</time>
      </trkpt>
      <trkpt lat="45.64144" lon="6.53836">
        <ele>1997.6</ele>
        <time>2025-02-20T15:25:08Z</time>
      </trkpt>
      <trkpt lat="45.64144" lon="6.53836">
        <ele>1997</ele>
        <time>2025-02-20T15:25:09Z</time>
      </trkpt>
      <trkpt lat="45.64144" lon="6.53836">
        <ele>1997</ele>
        <time>2025-02-20T15:25:10Z</time>
      </trkpt>
      <trkpt lat="45.64144" lon="6.53836">
        <ele>1997</ele>
        <time>2025-02-20T15:25:11Z</time>
      </trkpt>
      <trkpt lat="45.64144" lon="6.53836">
        <ele>1997</ele>
        <time>2025-02-20T15:25:12Z</time>
      </trkpt>
      <trkpt lat="45.64144" lon="6.53836">
        <ele>1997</ele>
        <time>2025-02-20T15:25:13Z</time>
      </trkpt>
      <trkpt lat="45.64144" lon="6.53836">
        <ele>1997</ele>
        <time>2025-02-20T15:25:14Z</time>
      </trkpt>
      <trkpt lat="45.64144" lon="6.53836">
        <ele>1997</ele>
        <time>2025-02-20T15:25:15Z</time>
      </trkpt>
      <trkpt lat="45.64144" lon="6.53836">
        <ele>1997</ele>
        <time>2025-02-20T15:25:16Z</time>
      </trkpt>
      <trkpt lat="45.64144" lon="6.53836">
        <ele>1997</ele>
        <time>2025-02-20T15:25:17Z</time>
      </trkpt>
      <trkpt lat="45.64144" lon="6.53836">
        <ele>1997</ele>
        <time>2025-02-20T15:25:18Z</time>
      </trkpt>
      <trkpt lat="45.64144" lon="6.53836">
        <ele>1997</ele>
        <time>2025-02-20T15:25:19Z</time>
      </trkpt>
      <trkpt lat="45.64144" lon="6.53836">
        <ele>1997</ele>
        <time>2025-02-20T15:25:20Z</time>
      </trkpt>
      <trkpt lat="45.64144" lon="6.53836">
        <ele>1997.8</ele>
        <time>2025-02-20T15:25:21Z</time>
      </trkpt>
      <trkpt lat="45.64144" lon="6.53836">
        <ele>1997.8</ele>
        <time>2025-02-20T15:25:22Z</time>
      </trkpt>
      <trkpt lat="45.64144" lon="6.53836">
        <ele>1997.8</ele>
        <time>2025-02-20T15:25:23Z</time>
      </trkpt>
      <trkpt lat="45.64144" lon="6.53836">
        <ele>1997.2</ele>
        <time>2025-02-20T15:25:24Z</time>
      </trkpt>
      <trkpt lat="45.64144" lon="6.53836">
        <ele>1997.2</ele>
        <time>2025-02-20T15:25:25Z</time>
      </trkpt>
      <trkpt lat="45.64144" lon="6.53836">
        <ele>1997.2</ele>
        <time>2025-02-20T15:25:26Z</time>
      </trkpt>
      <trkpt lat="45.64144" lon="6.53836">
        <ele>1997.2</ele>
        <time>2025-02-20T15:25:27Z</time>
      </trkpt>
      <trkpt lat="45.64144" lon="6.53836">
        <ele>1997.2</ele>
        <time>2025-02-20T15:25:28Z</time>
      </trkpt>
      <trkpt lat="45.64144" lon="6.53836">
        <ele>1997</ele>
        <time>2025-02-20T15:25:29Z</time>
      </trkpt>
      <trkpt lat="45.64144" lon="6.53836">
        <ele>1997</ele>
        <time>2025-02-20T15:25:30Z</time>
      </trkpt>
      <trkpt lat="45.64144" lon="6.53836">
        <ele>1997</ele>
        <time>2025-02-20T15:25:31Z</time>
      </trkpt>
      <trkpt lat="45.64144" lon="6.53836">
        <ele>1997.2</ele>
        <time>2025-02-20T15:25:32Z</time>
      </trkpt>
      <trkpt lat="45.64144" lon="6.53836">
        <ele>1997.6</ele>
        <time>2025-02-20T15:25:33Z</time>
      </trkpt>
      <trkpt lat="45.64144" lon="6.53836">
        <ele>1997.6</ele>
        <time>2025-02-20T15:25:34Z</time>
      </trkpt>
      <trkpt lat="45.64144" lon="6.53836">
        <ele>1997.6</ele>
        <time>2025-02-20T15:25:35Z</time>
      </trkpt>
      <trkpt lat="45.64144" lon="6.53836">
        <ele>1997.2</ele>
        <time>2025-02-20T15:25:36Z</time>
      </trkpt>
      <trkpt lat="45.64144" lon="6.53836">
        <ele>1997</ele>
        <time>2025-02-20T15:25:37Z</time>
      </trkpt>
      <trkpt lat="45.64144" lon="6.53836">
        <ele>1997</ele>
        <time>2025-02-20T15:25:38Z</time>
      </trkpt>
      <trkpt lat="45.64144" lon="6.53836">
        <ele>1997</ele>
        <time>2025-02-20T15:25:39Z</time>
      </trkpt>
      <trkpt lat="45.64144" lon="6.53836">
        <ele>1997</ele>
        <time>2025-02-20T15:25:40Z</time>
      </trkpt>
      <trkpt lat="45.64144" lon="6.53836">
        <ele>1997</ele>
        <time>2025-02-20T15:25:41Z</time>
      </trkpt>
      <trkpt lat="45.64144" lon="6.53836">
        <ele>1997</ele>
        <time>2025-02-20T15:25:42Z</time>
      </trkpt>
      <trkpt lat="45.64144" lon="6.53836">
        <ele>1997</ele>
        <time>2025-02-20T15:25:43Z</time>
      </trkpt>
      <trkpt lat="45.64144" lon="6.53836">
        <ele>1997.2</ele>
        <time>2025-02-20T15:25:44Z</time>
      </trkpt>
      <trkpt lat="45.64144" lon="6.53836">
        <ele>1997</ele>
        <time>2025-02-20T15:25:45Z</time>
      </trkpt>
      <trkpt lat="45.64144" lon="6.53836">
        <ele>1997</ele>
        <time>2025-02-20T15:25:46Z</time>
      </trkpt>
      <trkpt lat="45.64144" lon="6.53836">
        <ele>1997</ele>
        <time>2025-02-20T15:25:47Z</time>
      </trkpt>
      <trkpt lat="45.64144" lon="6.53836">
        <ele>1997</ele>
        <time>2025-02-20T15:25:48Z</time>
      </trkpt>
      <trkpt lat="45.64144" lon="6.53836">
        <ele>1997</ele>
        <time>2025-02-20T15:25:49Z</time>
      </trkpt>
      <trkpt lat="45.64144" lon="6.53836">
        <ele>1997</ele>
        <time>2025-02-20T15:25:50Z</time>
      </trkpt>
      <trkpt lat="45.64144" lon="6.53836">
        <ele>1997</ele>
        <time>2025-02-20T15:25:51Z</time>
      </trkpt>
      <trkpt lat="45.64144" lon="6.53836">
        <ele>1997.4</ele>
        <time>2025-02-20T15:25:52Z</time>
      </trkpt>
      <trkpt lat="45.64144" lon="6.53836">
        <ele>1997.2</ele>
        <time>2025-02-20T15:25:53Z</time>
      </trkpt>
      <trkpt lat="45.64144" lon="6.53836">
        <ele>1997.2</ele>
        <time>2025-02-20T15:25:54Z</time>
      </trkpt>
      <trkpt lat="45.64144" lon="6.53836">
        <ele>1997.2</ele>
        <time>2025-02-20T15:25:55Z</time>
      </trkpt>
      <trkpt lat="45.64144" lon="6.53836">
        <ele>1997.2</ele>
        <time>2025-02-20T15:25:56Z</time>
      </trkpt>
      <trkpt lat="45.64144" lon="6.53836">
        <ele>1996.8</ele>
        <time>2025-02-20T15:25:57Z</time>
      </trkpt>
      <trkpt lat="45.64144" lon="6.53836">
        <ele>1996.8</ele>
        <time>2025-02-20T15:25:58Z</time>
      </trkpt>
      <trkpt lat="45.64144" lon="6.53836">
        <ele>1996.8</ele>
        <time>2025-02-20T15:25:59Z</time>
      </trkpt>
      <trkpt lat="45.64144" lon="6.53836">
        <ele>1997.2</ele>
        <time>2025-02-20T15:26:00Z</time>
      </trkpt>
      <trkpt lat="45.64144" lon="6.53836">
        <ele>1997</ele>
        <time>2025-02-20T15:26:01Z</time>
      </trkpt>
      <trkpt lat="45.64144" lon="6.53836">
        <ele>1997</ele>
        <time>2025-02-20T15:26:02Z</time>
      </trkpt>
      <trkpt lat="45.64144" lon="6.53836">
        <ele>1997</ele>
        <time>2025-02-20T15:26:03Z</time>
      </trkpt>
      <trkpt lat="45.64144" lon="6.53836">
        <ele>1997</ele>
        <time>2025-02-20T15:26:04Z</time>
      </trkpt>
      <trkpt lat="45.64144" lon="6.53836">
        <ele>1997.2</ele>
        <time>2025-02-20T15:26:05Z</time>
      </trkpt>
      <trkpt lat="45.64144" lon="6.53836">
        <ele>1997.2</ele>
        <time>2025-02-20T15:26:06Z</time>
      </trkpt>
      <trkpt lat="45.64144" lon="6.53836">
        <ele>1997.2</ele>
        <time>2025-02-20T15:26:07Z</time>
      </trkpt>
      <trkpt lat="45.64144" lon="6.53836">
        <ele>1997.2</ele>
        <time>2025-02-20T15:26:08Z</time>
      </trkpt>
      <trkpt lat="45.64144" lon="6.53836">
        <ele>1997</ele>
        <time>2025-02-20T15:26:09Z</time>
      </trkpt>
      <trkpt lat="45.64144" lon="6.53836">
        <ele>1997</ele>
        <time>2025-02-20T15:26:10Z</time>
      </trkpt>
      <trkpt lat="45.64144" lon="6.53836">
        <ele>1997</ele>
        <time>2025-02-20T15:26:11Z</time>
      </trkpt>
      <trkpt lat="45.64144" lon="6.53836">
        <ele>1997</ele>
        <time>2025-02-20T15:26:12Z</time>
      </trkpt>
      <trkpt lat="45.64144" lon="6.53836">
        <ele>1997.8</ele>
        <time>2025-02-20T15:26:13Z</time>
      </trkpt>
      <trkpt lat="45.64144" lon="6.53836">
        <ele>1997.8</ele>
        <time>2025-02-20T15:26:14Z</time>
      </trkpt>
      <trkpt lat="45.64144" lon="6.53836">
        <ele>1997.8</ele>
        <time>2025-02-20T15:26:15Z</time>
      </trkpt>
      <trkpt lat="45.64144" lon="6.53836">
        <ele>1997.6</ele>
        <time>2025-02-20T15:26:16Z</time>
      </trkpt>
      <trkpt lat="45.64144" lon="6.53836">
        <ele>1997.2</ele>
        <time>2025-02-20T15:26:17Z</time>
      </trkpt>
      <trkpt lat="45.64144" lon="6.53836">
        <ele>1997.2</ele>
        <time>2025-02-20T15:26:18Z</time>
      </trkpt>
      <trkpt lat="45.64144" lon="6.53836">
        <ele>1997.2</ele>
        <time>2025-02-20T15:26:19Z</time>
      </trkpt>
      <trkpt lat="45.64144" lon="6.53836">
        <ele>1997.2</ele>
        <time>2025-02-20T15:26:20Z</time>
      </trkpt>
      <trkpt lat="45.64144" lon="6.53836">
        <ele>1997.4</ele>
        <time>2025-02-20T15:26:21Z</time>
      </trkpt>
      <trkpt lat="45.64144" lon="6.53836">
        <ele>1997.4</ele>
        <time>2025-02-20T15:26:22Z</time>
      </trkpt>
      <trkpt lat="45.64144" lon="6.53836">
        <ele>1997.4</ele>
        <time>2025-02-20T15:26:23Z</time>
      </trkpt>
      <trkpt lat="45.64144" lon="6.53836">
        <ele>1997.4</ele>
        <time>2025-02-20T15:26:24Z</time>
      </trkpt>
      <trkpt lat="45.64144" lon="6.53836">
        <ele>1997.2</ele>
        <time>2025-02-20T15:26:25Z</time>
      </trkpt>
      <trkpt lat="45.64144" lon="6.53836">
        <ele>1997.2</ele>
        <time>2025-02-20T15:26:26Z</time>
      </trkpt>
      <trkpt lat="45.64144" lon="6.53836">
        <ele>1997.2</ele>
        <time>2025-02-20T15:26:27Z</time>
      </trkpt>
      <trkpt lat="45.64144" lon="6.53836">
        <ele>1996.6</ele>
        <time>2025-02-20T15:26:28Z</time>
      </trkpt>
      <trkpt lat="45.64144" lon="6.53836">
        <ele>1996.4</ele>
        <time>2025-02-20T15:26:29Z</time>
      </trkpt>
      <trkpt lat="45.64144" lon="6.53836">
        <ele>1996.4</ele>
        <time>2025-02-20T15:26:30Z</time>
      </trkpt>
      <trkpt lat="45.64144" lon="6.53836">
        <ele>1996.4</ele>
        <time>2025-02-20T15:26:31Z</time>
      </trkpt>
      <trkpt lat="45.64144" lon="6.53836">
        <ele>1996.4</ele>
        <time>2025-02-20T15:26:32Z</time>
      </trkpt>
      <trkpt lat="45.64142" lon="6.53839">
        <ele>1996.6</ele>
        <time>2025-02-20T15:26:33Z</time>
      </trkpt>
      <trkpt lat="45.64143" lon="6.5384">
        <ele>1996.6</ele>
        <time>2025-02-20T15:26:34Z</time>
      </trkpt>
      <trkpt lat="45.64143" lon="6.5384">
        <ele>1996.6</ele>
        <time>2025-02-20T15:26:35Z</time>
      </trkpt>
      <trkpt lat="45.64143" lon="6.5384">
        <ele>1996.6</ele>
        <time>2025-02-20T15:26:36Z</time>
      </trkpt>
      <trkpt lat="45.64143" lon="6.5384">
        <ele>1996.2</ele>
        <time>2025-02-20T15:26:37Z</time>
      </trkpt>
      <trkpt lat="45.64143" lon="6.5384">
        <ele>1996.2</ele>
        <time>2025-02-20T15:26:38Z</time>
      </trkpt>
      <trkpt lat="45.64143" lon="6.5384">
        <ele>1996.2</ele>
        <time>2025-02-20T15:26:39Z</time>
      </trkpt>
      <trkpt lat="45.64143" lon="6.5384">
        <ele>1996.2</ele>
        <time>2025-02-20T15:26:40Z</time>
      </trkpt>
      <trkpt lat="45.64143" lon="6.5384">
        <ele>1996.6</ele>
        <time>2025-02-20T15:26:41Z</time>
      </trkpt>
      <trkpt lat="45.64143" lon="6.5384">
        <ele>1996.6</ele>
        <time>2025-02-20T15:26:42Z</time>
      </trkpt>
      <trkpt lat="45.64143" lon="6.5384">
        <ele>1996.6</ele>
        <time>2025-02-20T15:26:43Z</time>
      </trkpt>
      <trkpt lat="45.64143" lon="6.5384">
        <ele>1996.6</ele>
        <time>2025-02-20T15:26:44Z</time>
      </trkpt>
      <trkpt lat="45.64143" lon="6.5384">
        <ele>1996.4</ele>
        <time>2025-02-20T15:26:45Z</time>
      </trkpt>
      <trkpt lat="45.64143" lon="6.5384">
        <ele>1996.4</ele>
        <time>2025-02-20T15:26:46Z</time>
      </trkpt>
      <trkpt lat="45.64144" lon="6.5384">
        <ele>1996.4</ele>
        <time>2025-02-20T15:26:47Z</time>
      </trkpt>
      <trkpt lat="45.64145" lon="6.53841">
        <ele>1996.4</ele>
        <time>2025-02-20T15:26:48Z</time>
      </trkpt>
      <trkpt lat="45.64145" lon="6.53841">
        <ele>1995.2</ele>
        <time>2025-02-20T15:26:49Z</time>
      </trkpt>
      <trkpt lat="45.64145" lon="6.53841">
        <ele>1995.2</ele>
        <time>2025-02-20T15:26:50Z</time>
      </trkpt>
      <trkpt lat="45.64145" lon="6.53841">
        <ele>1995.2</ele>
        <time>2025-02-20T15:26:51Z</time>
      </trkpt>
      <trkpt lat="45.64145" lon="6.53841">
        <ele>1996.2</ele>
        <time>2025-02-20T15:26:52Z</time>
      </trkpt>
      <trkpt lat="45.64145" lon="6.53841">
        <ele>1995.8</ele>
        <time>2025-02-20T15:26:53Z</time>
      </trkpt>
      <trkpt lat="45.64145" lon="6.53841">
        <ele>1995.8</ele>
        <time>2025-02-20T15:26:54Z</time>
      </trkpt>
      <trkpt lat="45.64145" lon="6.53841">
        <ele>1995.8</ele>
        <time>2025-02-20T15:26:55Z</time>
      </trkpt>
      <trkpt lat="45.64145" lon="6.53841">
        <ele>1995.8</ele>
        <time>2025-02-20T15:26:56Z</time>
      </trkpt>
      <trkpt lat="45.64145" lon="6.53841">
        <ele>1995.8</ele>
        <time>2025-02-20T15:26:57Z</time>
      </trkpt>
      <trkpt lat="45.64145" lon="6.53841">
        <ele>1995.8</ele>
        <time>2025-02-20T15:26:58Z</time>
      </trkpt>
      <trkpt lat="45.64145" lon="6.53841">
        <ele>1995.8</ele>
        <time>2025-02-20T15:26:59Z</time>
      </trkpt>
      <trkpt lat="45.64145" lon="6.53841">
        <ele>1996</ele>
        <time>2025-02-20T15:27:00Z</time>
      </trkpt>
      <trkpt lat="45.64146" lon="6.53844">
        <ele>1995.4</ele>
        <time>2025-02-20T15:27:01Z</time>
      </trkpt>
      <trkpt lat="45.64147" lon="6.53845">
        <ele>1995.4</ele>
        <time>2025-02-20T15:27:02Z</time>
      </trkpt>
      <trkpt lat="45.64148" lon="6.53845">
        <ele>1995.4</ele>
        <time>2025-02-20T15:27:03Z</time>
      </trkpt>
      <trkpt lat="45.64148" lon="6.53846">
        <ele>1994.4</ele>
        <time>2025-02-20T15:27:04Z</time>
      </trkpt>
      <trkpt lat="45.64149" lon="6.53849">
        <ele>1993.6</ele>
        <time>2025-02-20T15:27:05Z</time>
      </trkpt>
      <trkpt lat="45.6415" lon="6.53854">
        <ele>1993.6</ele>
        <time>2025-02-20T15:27:06Z</time>
      </trkpt>
      <trkpt lat="45.64147" lon="6.53859">
        <ele>1993.6</ele>
        <time>2025-02-20T15:27:07Z</time>
      </trkpt>
      <trkpt lat="45.64144" lon="6.53861">
        <ele>1993.6</ele>
        <time>2025-02-20T15:27:08Z</time>
      </trkpt>
      <trkpt lat="45.64142" lon="6.53861">
        <ele>1991.2</ele>
        <time>2025-02-20T15:27:09Z</time>
      </trkpt>
      <trkpt lat="45.64141" lon="6.53862">
        <ele>1991.2</ele>
        <time>2025-02-20T15:27:10Z</time>
      </trkpt>
      <trkpt lat="45.6414" lon="6.53863">
        <ele>1991.2</ele>
        <time>2025-02-20T15:27:11Z</time>
      </trkpt>
      <trkpt lat="45.6414" lon="6.53866">
        <ele>1990.2</ele>
        <time>2025-02-20T15:27:12Z</time>
      </trkpt>
      <trkpt lat="45.64141" lon="6.53871">
        <ele>1989.8</ele>
        <time>2025-02-20T15:27:13Z</time>
      </trkpt>
      <trkpt lat="45.64143" lon="6.53874">
        <ele>1989.8</ele>
        <time>2025-02-20T15:27:14Z</time>
      </trkpt>
      <trkpt lat="45.64146" lon="6.53876">
        <ele>1989.8</ele>
        <time>2025-02-20T15:27:15Z</time>
      </trkpt>
      <trkpt lat="45.64149" lon="6.53878">
        <ele>1988.8</ele>
        <time>2025-02-20T15:27:16Z</time>
      </trkpt>
      <trkpt lat="45.64151" lon="6.5388">
        <ele>1987</ele>
        <time>2025-02-20T15:27:17Z</time>
      </trkpt>
      <trkpt lat="45.64153" lon="6.53881">
        <ele>1987</ele>
        <time>2025-02-20T15:27:18Z</time>
      </trkpt>
      <trkpt lat="45.64154" lon="6.53884">
        <ele>1987</ele>
        <time>2025-02-20T15:27:19Z</time>
      </trkpt>
      <trkpt lat="45.64155" lon="6.53887">
        <ele>1987</ele>
        <time>2025-02-20T15:27:20Z</time>
      </trkpt>
      <trkpt lat="45.64153" lon="6.53891">
        <ele>1985.6</ele>
        <time>2025-02-20T15:27:21Z</time>
      </trkpt>
      <trkpt lat="45.6415" lon="6.53892">
        <ele>1985.6</ele>
        <time>2025-02-20T15:27:22Z</time>
      </trkpt>
      <trkpt lat="45.64147" lon="6.53891">
        <ele>1985.6</ele>
        <time>2025-02-20T15:27:23Z</time>
      </trkpt>
      <trkpt lat="45.64144" lon="6.5389">
        <ele>1985.6</ele>
        <time>2025-02-20T15:27:24Z</time>
      </trkpt>
      <trkpt lat="45.64142" lon="6.53891">
        <ele>1984</ele>
        <time>2025-02-20T15:27:25Z</time>
      </trkpt>
      <trkpt lat="45.64139" lon="6.53893">
        <ele>1984</ele>
        <time>2025-02-20T15:27:26Z</time>
      </trkpt>
      <trkpt lat="45.64137" lon="6.53896">
        <ele>1984</ele>
        <time>2025-02-20T15:27:27Z</time>
      </trkpt>
      <trkpt lat="45.64137" lon="6.53901">
        <ele>1983</ele>
        <time>2025-02-20T15:27:28Z</time>
      </trkpt>
      <trkpt lat="45.64141" lon="6.53905">
        <ele>1981.6</ele>
        <time>2025-02-20T15:27:29Z</time>
      </trkpt>
      <trkpt lat="45.64145" lon="6.53906">
        <ele>1981.6</ele>
        <time>2025-02-20T15:27:30Z</time>
      </trkpt>
      <trkpt lat="45.64149" lon="6.53907">
        <ele>1981.6</ele>
        <time>2025-02-20T15:27:31Z</time>
      </trkpt>
      <trkpt lat="45.64151" lon="6.53908">
        <ele>1980.6</ele>
        <time>2025-02-20T15:27:32Z</time>
      </trkpt>
      <trkpt lat="45.64153" lon="6.53909">
        <ele>1979</ele>
        <time>2025-02-20T15:27:33Z</time>
      </trkpt>
      <trkpt lat="45.64156" lon="6.53913">
        <ele>1979</ele>
        <time>2025-02-20T15:27:34Z</time>
      </trkpt>
      <trkpt lat="45.64157" lon="6.53919">
        <ele>1979</ele>
        <time>2025-02-20T15:27:35Z</time>
      </trkpt>
      <trkpt lat="45.64159" lon="6.53926">
        <ele>1978</ele>
        <time>2025-02-20T15:27:36Z</time>
      </trkpt>
      <trkpt lat="45.64163" lon="6.53933">
        <ele>1972.4</ele>
        <time>2025-02-20T15:27:37Z</time>
      </trkpt>
      <trkpt lat="45.64168" lon="6.53938">
        <ele>1972.4</ele>
        <time>2025-02-20T15:27:38Z</time>
      </trkpt>
      <trkpt lat="45.64172" lon="6.53942">
        <ele>1972.4</ele>
        <time>2025-02-20T15:27:39Z</time>
      </trkpt>
      <trkpt lat="45.64174" lon="6.53946">
        <ele>1971.4</ele>
        <time>2025-02-20T15:27:40Z</time>
      </trkpt>
      <trkpt lat="45.64177" lon="6.53951">
        <ele>1970.4</ele>
        <time>2025-02-20T15:27:41Z</time>
      </trkpt>
      <trkpt lat="45.64178" lon="6.53957">
        <ele>1970.4</ele>
        <time>2025-02-20T15:27:42Z</time>
      </trkpt>
      <trkpt lat="45.6418" lon="6.53964">
        <ele>1970.4</ele>
        <time>2025-02-20T15:27:43Z</time>
      </trkpt>
      <trkpt lat="45.64183" lon="6.53969">
        <ele>1969.4</ele>
        <time>2025-02-20T15:27:44Z</time>
      </trkpt>
      <trkpt lat="45.64186" lon="6.53975">
        <ele>1965.8</ele>
        <time>2025-02-20T15:27:45Z</time>
      </trkpt>
      <trkpt lat="45.64188" lon="6.5398">
        <ele>1965.8</ele>
        <time>2025-02-20T15:27:46Z</time>
      </trkpt>
      <trkpt lat="45.64191" lon="6.53985">
        <ele>1965.8</ele>
        <time>2025-02-20T15:27:47Z</time>
      </trkpt>
      <trkpt lat="45.64194" lon="6.5399">
        <ele>1965.8</ele>
        <time>2025-02-20T15:27:48Z</time>
      </trkpt>
      <trkpt lat="45.64197" lon="6.53995">
        <ele>1964.2</ele>
        <time>2025-02-20T15:27:49Z</time>
      </trkpt>
      <trkpt lat="45.64201" lon="6.54">
        <ele>1964.2</ele>
        <time>2025-02-20T15:27:50Z</time>
      </trkpt>
      <trkpt lat="45.64204" lon="6.54005">
        <ele>1964.2</ele>
        <time>2025-02-20T15:27:51Z</time>
      </trkpt>
      <trkpt lat="45.64207" lon="6.54009">
        <ele>1963.2</ele>
        <time>2025-02-20T15:27:52Z</time>
      </trkpt>
      <trkpt lat="45.6421" lon="6.54012">
        <ele>1962.4</ele>
        <time>2025-02-20T15:27:53Z</time>
      </trkpt>
      <trkpt lat="45.64212" lon="6.54014">
        <ele>1962.4</ele>
        <time>2025-02-20T15:27:54Z</time>
      </trkpt>
      <trkpt lat="45.64215" lon="6.54016">
        <ele>1962.4</ele>
        <time>2025-02-20T15:27:55Z</time>
      </trkpt>
      <trkpt lat="45.64216" lon="6.5402">
        <ele>1961.4</ele>
        <time>2025-02-20T15:27:56Z</time>
      </trkpt>
      <trkpt lat="45.64214" lon="6.54023">
        <ele>1960.2</ele>
        <time>2025-02-20T15:27:57Z</time>
      </trkpt>
      <trkpt lat="45.64211" lon="6.54025">
        <ele>1960.2</ele>
        <time>2025-02-20T15:27:58Z</time>
      </trkpt>
      <trkpt lat="45.64207" lon="6.54025">
        <ele>1960.2</ele>
        <time>2025-02-20T15:27:59Z</time>
      </trkpt>
      <trkpt lat="45.64205" lon="6.54025">
        <ele>1959.2</ele>
        <time>2025-02-20T15:28:00Z</time>
      </trkpt>
      <trkpt lat="45.64202" lon="6.54026">
        <ele>1957</ele>
        <time>2025-02-20T15:28:01Z</time>
      </trkpt>
      <trkpt lat="45.642" lon="6.54031">
        <ele>1957</ele>
        <time>2025-02-20T15:28:02Z</time>
      </trkpt>
      <trkpt lat="45.64202" lon="6.54036">
        <ele>1957</ele>
        <time>2025-02-20T15:28:03Z</time>
      </trkpt>
      <trkpt lat="45.64205" lon="6.54038">
        <ele>1956</ele>
        <time>2025-02-20T15:28:04Z</time>
      </trkpt>
      <trkpt lat="45.64208" lon="6.5404">
        <ele>1952.4</ele>
        <time>2025-02-20T15:28:05Z</time>
      </trkpt>
      <trkpt lat="45.64212" lon="6.54042">
        <ele>1952.4</ele>
        <time>2025-02-20T15:28:06Z</time>
      </trkpt>
      <trkpt lat="45.64214" lon="6.54043">
        <ele>1952.4</ele>
        <time>2025-02-20T15:28:07Z</time>
      </trkpt>
      <trkpt lat="45.64217" lon="6.54044">
        <ele>1951.4</ele>
        <time>2025-02-20T15:28:08Z</time>
      </trkpt>
      <trkpt lat="45.6422" lon="6.54047">
        <ele>1951</ele>
        <time>2025-02-20T15:28:09Z</time>
      </trkpt>
      <trkpt lat="45.64223" lon="6.5405">
        <ele>1951</ele>
        <time>2025-02-20T15:28:10Z</time>
      </trkpt>
      <trkpt lat="45.64226" lon="6.54052">
        <ele>1951</ele>
        <time>2025-02-20T15:28:11Z</time>
      </trkpt>
      <trkpt lat="45.64229" lon="6.54055">
        <ele>1950</ele>
        <time>2025-02-20T15:28:12Z</time>
      </trkpt>
      <trkpt lat="45.6423" lon="6.5406">
        <ele>1948.4</ele>
        <time>2025-02-20T15:28:13Z</time>
      </trkpt>
      <trkpt lat="45.64226" lon="6.54065">
        <ele>1948.4</ele>
        <time>2025-02-20T15:28:14Z</time>
      </trkpt>
      <trkpt lat="45.64222" lon="6.54065">
        <ele>1948.4</ele>
        <time>2025-02-20T15:28:15Z</time>
      </trkpt>
      <trkpt lat="45.6422" lon="6.54065">
        <ele>1947.4</ele>
        <time>2025-02-20T15:28:16Z</time>
      </trkpt>
      <trkpt lat="45.64217" lon="6.54065">
        <ele>1943.8</ele>
        <time>2025-02-20T15:28:17Z</time>
      </trkpt>
      <trkpt lat="45.64215" lon="6.54068">
        <ele>1943.8</ele>
        <time>2025-02-20T15:28:18Z</time>
      </trkpt>
      <trkpt lat="45.64213" lon="6.54074">
        <ele>1943.8</ele>
        <time>2025-02-20T15:28:19Z</time>
      </trkpt>
      <trkpt lat="45.64215" lon="6.54083">
        <ele>1942.8</ele>
        <time>2025-02-20T15:28:20Z</time>
      </trkpt>
      <trkpt lat="45.6422" lon="6.54088">
        <ele>1938.6</ele>
        <time>2025-02-20T15:28:21Z</time>
      </trkpt>
      <trkpt lat="45.64225" lon="6.54092">
        <ele>1938.6</ele>
        <time>2025-02-20T15:28:22Z</time>
      </trkpt>
      <trkpt lat="45.64229" lon="6.54093">
        <ele>1938.6</ele>
        <time>2025-02-20T15:28:23Z</time>
      </trkpt>
      <trkpt lat="45.64233" lon="6.54094">
        <ele>1937.6</ele>
        <time>2025-02-20T15:28:24Z</time>
      </trkpt>
      <trkpt lat="45.64236" lon="6.54095">
        <ele>1934.4</ele>
        <time>2025-02-20T15:28:25Z</time>
      </trkpt>
      <trkpt lat="45.64238" lon="6.54096">
        <ele>1934.4</ele>
        <time>2025-02-20T15:28:26Z</time>
      </trkpt>
      <trkpt lat="45.6424" lon="6.54095">
        <ele>1934.4</ele>
        <time>2025-02-20T15:28:27Z</time>
      </trkpt>
      <trkpt lat="45.64241" lon="6.54095">
        <ele>1934.6</ele>
        <time>2025-02-20T15:28:28Z</time>
      </trkpt>
      <trkpt lat="45.6424" lon="6.54095">
        <ele>1935.6</ele>
        <time>2025-02-20T15:28:29Z</time>
      </trkpt>
      <trkpt lat="45.6424" lon="6.54095">
        <ele>1935.6</ele>
        <time>2025-02-20T15:28:30Z</time>
      </trkpt>
      <trkpt lat="45.6424" lon="6.54095">
        <ele>1935.6</ele>
        <time>2025-02-20T15:28:31Z</time>
      </trkpt>
      <trkpt lat="45.6424" lon="6.54095">
        <ele>1934.6</ele>
        <time>2025-02-20T15:28:32Z</time>
      </trkpt>
      <trkpt lat="45.6424" lon="6.54095">
        <ele>1935.2</ele>
        <time>2025-02-20T15:28:33Z</time>
      </trkpt>
      <trkpt lat="45.6424" lon="6.54095">
        <ele>1935.2</ele>
        <time>2025-02-20T15:28:34Z</time>
      </trkpt>
      <trkpt lat="45.64241" lon="6.54093">
        <ele>1935.2</ele>
        <time>2025-02-20T15:28:35Z</time>
      </trkpt>
      <trkpt lat="45.64244" lon="6.54096">
        <ele>1934.2</ele>
        <time>2025-02-20T15:28:36Z</time>
      </trkpt>
      <trkpt lat="45.64245" lon="6.54097">
        <ele>1934</ele>
        <time>2025-02-20T15:28:37Z</time>
      </trkpt>
      <trkpt lat="45.64247" lon="6.54099">
        <ele>1934</ele>
        <time>2025-02-20T15:28:38Z</time>
      </trkpt>
      <trkpt lat="45.64251" lon="6.54101">
        <ele>1934</ele>
        <time>2025-02-20T15:28:39Z</time>
      </trkpt>
      <trkpt lat="45.64254" lon="6.54103">
        <ele>1934</ele>
        <time>2025-02-20T15:28:40Z</time>
      </trkpt>
      <trkpt lat="45.64256" lon="6.54106">
        <ele>1932</ele>
        <time>2025-02-20T15:28:41Z</time>
      </trkpt>
      <trkpt lat="45.6426" lon="6.54108">
        <ele>1932</ele>
        <time>2025-02-20T15:28:42Z</time>
      </trkpt>
      <trkpt lat="45.64263" lon="6.54109">
        <ele>1932</ele>
        <time>2025-02-20T15:28:43Z</time>
      </trkpt>
      <trkpt lat="45.64265" lon="6.54111">
        <ele>1931</ele>
        <time>2025-02-20T15:28:44Z</time>
      </trkpt>
      <trkpt lat="45.64268" lon="6.54112">
        <ele>1930.2</ele>
        <time>2025-02-20T15:28:45Z</time>
      </trkpt>
      <trkpt lat="45.64271" lon="6.54113">
        <ele>1930.2</ele>
        <time>2025-02-20T15:28:46Z</time>
      </trkpt>
      <trkpt lat="45.64273" lon="6.54115">
        <ele>1930.2</ele>
        <time>2025-02-20T15:28:47Z</time>
      </trkpt>
      <trkpt lat="45.64274" lon="6.5412">
        <ele>1929.2</ele>
        <time>2025-02-20T15:28:48Z</time>
      </trkpt>
      <trkpt lat="45.64271" lon="6.54125">
        <ele>1927.4</ele>
        <time>2025-02-20T15:28:49Z</time>
      </trkpt>
      <trkpt lat="45.64266" lon="6.54127">
        <ele>1927.4</ele>
        <time>2025-02-20T15:28:50Z</time>
      </trkpt>
      <trkpt lat="45.64262" lon="6.54127">
        <ele>1927.4</ele>
        <time>2025-02-20T15:28:51Z</time>
      </trkpt>
      <trkpt lat="45.64259" lon="6.54125">
        <ele>1926.4</ele>
        <time>2025-02-20T15:28:52Z</time>
      </trkpt>
      <trkpt lat="45.64257" lon="6.54125">
        <ele>1924.2</ele>
        <time>2025-02-20T15:28:53Z</time>
      </trkpt>
      <trkpt lat="45.64255" lon="6.54126">
        <ele>1924.2</ele>
        <time>2025-02-20T15:28:54Z</time>
      </trkpt>
      <trkpt lat="45.64253" lon="6.5413">
        <ele>1924.2</ele>
        <time>2025-02-20T15:28:55Z</time>
      </trkpt>
      <trkpt lat="45.64254" lon="6.54135">
        <ele>1923.2</ele>
        <time>2025-02-20T15:28:56Z</time>
      </trkpt>
      <trkpt lat="45.64258" lon="6.54137">
        <ele>1921</ele>
        <time>2025-02-20T15:28:57Z</time>
      </trkpt>
      <trkpt lat="45.64261" lon="6.54138">
        <ele>1921</ele>
        <time>2025-02-20T15:28:58Z</time>
      </trkpt>
      <trkpt lat="45.64264" lon="6.5414">
        <ele>1921</ele>
        <time>2025-02-20T15:28:59Z</time>
      </trkpt>
      <trkpt lat="45.64266" lon="6.54141">
        <ele>1920.4</ele>
        <time>2025-02-20T15:29:00Z</time>
      </trkpt>
      <trkpt lat="45.64269" lon="6.54142">
        <ele>1919.8</ele>
        <time>2025-02-20T15:29:01Z</time>
      </trkpt>
      <trkpt lat="45.64272" lon="6.54143">
        <ele>1919.8</ele>
        <time>2025-02-20T15:29:02Z</time>
      </trkpt>
      <trkpt lat="45.64275" lon="6.54147">
        <ele>1919.8</ele>
        <time>2025-02-20T15:29:03Z</time>
      </trkpt>
      <trkpt lat="45.64279" lon="6.54149">
        <ele>1918.8</ele>
        <time>2025-02-20T15:29:04Z</time>
      </trkpt>
      <trkpt lat="45.64282" lon="6.54154">
        <ele>1918</ele>
        <time>2025-02-20T15:29:05Z</time>
      </trkpt>
      <trkpt lat="45.64286" lon="6.54157">
        <ele>1918</ele>
        <time>2025-02-20T15:29:06Z</time>
      </trkpt>
      <trkpt lat="45.6429" lon="6.54161">
        <ele>1918</ele>
        <time>2025-02-20T15:29:07Z</time>
      </trkpt>
      <trkpt lat="45.64294" lon="6.54164">
        <ele>1917</ele>
        <time>2025-02-20T15:29:08Z</time>
      </trkpt>
      <trkpt lat="45.64297" lon="6.54167">
        <ele>1915.8</ele>
        <time>2025-02-20T15:29:09Z</time>
      </trkpt>
      <trkpt lat="45.643" lon="6.5417">
        <ele>1915.8</ele>
        <time>2025-02-20T15:29:10Z</time>
      </trkpt>
      <trkpt lat="45.64303" lon="6.54172">
        <ele>1915.8</ele>
        <time>2025-02-20T15:29:11Z</time>
      </trkpt>
      <trkpt lat="45.64305" lon="6.54174">
        <ele>1914.8</ele>
        <time>2025-02-20T15:29:12Z</time>
      </trkpt>
      <trkpt lat="45.64307" lon="6.54174">
        <ele>1913.6</ele>
        <time>2025-02-20T15:29:13Z</time>
      </trkpt>
      <trkpt lat="45.64308" lon="6.54175">
        <ele>1913.6</ele>
        <time>2025-02-20T15:29:14Z</time>
      </trkpt>
      <trkpt lat="45.6431" lon="6.54176">
        <ele>1913.6</ele>
        <time>2025-02-20T15:29:15Z</time>
      </trkpt>
      <trkpt lat="45.64311" lon="6.54177">
        <ele>1913.8</ele>
        <time>2025-02-20T15:29:16Z</time>
      </trkpt>
      <trkpt lat="45.64311" lon="6.54177">
        <ele>1914.4</ele>
        <time>2025-02-20T15:29:17Z</time>
      </trkpt>
      <trkpt lat="45.64311" lon="6.54177">
        <ele>1914.4</ele>
        <time>2025-02-20T15:29:18Z</time>
      </trkpt>
      <trkpt lat="45.64311" lon="6.54177">
        <ele>1914.4</ele>
        <time>2025-02-20T15:29:19Z</time>
      </trkpt>
      <trkpt lat="45.64311" lon="6.54177">
        <ele>1914</ele>
        <time>2025-02-20T15:29:20Z</time>
      </trkpt>
      <trkpt lat="45.64311" lon="6.54177">
        <ele>1913.6</ele>
        <time>2025-02-20T15:29:21Z</time>
      </trkpt>
      <trkpt lat="45.64311" lon="6.54177">
        <ele>1913.6</ele>
        <time>2025-02-20T15:29:22Z</time>
      </trkpt>
      <trkpt lat="45.64311" lon="6.54177">
        <ele>1913.6</ele>
        <time>2025-02-20T15:29:23Z</time>
      </trkpt>
      <trkpt lat="45.64314" lon="6.54176">
        <ele>1913.6</ele>
        <time>2025-02-20T15:29:24Z</time>
      </trkpt>
      <trkpt lat="45.64315" lon="6.54176">
        <ele>1913.4</ele>
        <time>2025-02-20T15:29:25Z</time>
      </trkpt>
      <trkpt lat="45.64316" lon="6.54177">
        <ele>1913.4</ele>
        <time>2025-02-20T15:29:26Z</time>
      </trkpt>
      <trkpt lat="45.64319" lon="6.54179">
        <ele>1913.4</ele>
        <time>2025-02-20T15:29:27Z</time>
      </trkpt>
      <trkpt lat="45.64322" lon="6.54182">
        <ele>1912.4</ele>
        <time>2025-02-20T15:29:28Z</time>
      </trkpt>
      <trkpt lat="45.64325" lon="6.54185">
        <ele>1911.8</ele>
        <time>2025-02-20T15:29:29Z</time>
      </trkpt>
      <trkpt lat="45.64327" lon="6.54188">
        <ele>1911.8</ele>
        <time>2025-02-20T15:29:30Z</time>
      </trkpt>
      <trkpt lat="45.6433" lon="6.5419">
        <ele>1911.8</ele>
        <time>2025-02-20T15:29:31Z</time>
      </trkpt>
      <trkpt lat="45.64331" lon="6.54191">
        <ele>1911.4</ele>
        <time>2025-02-20T15:29:32Z</time>
      </trkpt>
      <trkpt lat="45.64333" lon="6.54194">
        <ele>1910</ele>
        <time>2025-02-20T15:29:33Z</time>
      </trkpt>
      <trkpt lat="45.64335" lon="6.54195">
        <ele>1910</ele>
        <time>2025-02-20T15:29:34Z</time>
      </trkpt>
      <trkpt lat="45.64335" lon="6.54194">
        <ele>1910</ele>
        <time>2025-02-20T15:29:35Z</time>
      </trkpt>
      <trkpt lat="45.64335" lon="6.54194">
        <ele>1910</ele>
        <time>2025-02-20T15:29:36Z</time>
      </trkpt>
      <trkpt lat="45.64335" lon="6.54194">
        <ele>1910</ele>
        <time>2025-02-20T15:29:37Z</time>
      </trkpt>
      <trkpt lat="45.64335" lon="6.54194">
        <ele>1910</ele>
        <time>2025-02-20T15:29:38Z</time>
      </trkpt>
      <trkpt lat="45.64335" lon="6.54194">
        <ele>1910</ele>
        <time>2025-02-20T15:29:39Z</time>
      </trkpt>
      <trkpt lat="45.64335" lon="6.54194">
        <ele>1909.6</ele>
        <time>2025-02-20T15:29:40Z</time>
      </trkpt>
      <trkpt lat="45.64335" lon="6.54194">
        <ele>1909.8</ele>
        <time>2025-02-20T15:29:41Z</time>
      </trkpt>
      <trkpt lat="45.64335" lon="6.54194">
        <ele>1909.8</ele>
        <time>2025-02-20T15:29:42Z</time>
      </trkpt>
      <trkpt lat="45.64335" lon="6.54194">
        <ele>1909.8</ele>
        <time>2025-02-20T15:29:43Z</time>
      </trkpt>
      <trkpt lat="45.64336" lon="6.54195">
        <ele>1909.8</ele>
        <time>2025-02-20T15:29:44Z</time>
      </trkpt>
      <trkpt lat="45.64337" lon="6.54197">
        <ele>1908.6</ele>
        <time>2025-02-20T15:29:45Z</time>
      </trkpt>
      <trkpt lat="45.64338" lon="6.54199">
        <ele>1908.6</ele>
        <time>2025-02-20T15:29:46Z</time>
      </trkpt>
      <trkpt lat="45.6434" lon="6.54203">
        <ele>1908.6</ele>
        <time>2025-02-20T15:29:47Z</time>
      </trkpt>
      <trkpt lat="45.64343" lon="6.54205">
        <ele>1908.6</ele>
        <time>2025-02-20T15:29:48Z</time>
      </trkpt>
      <trkpt lat="45.64345" lon="6.54206">
        <ele>1906.6</ele>
        <time>2025-02-20T15:29:49Z</time>
      </trkpt>
      <trkpt lat="45.64349" lon="6.5421">
        <ele>1906.6</ele>
        <time>2025-02-20T15:29:50Z</time>
      </trkpt>
      <trkpt lat="45.64352" lon="6.54213">
        <ele>1906.6</ele>
        <time>2025-02-20T15:29:51Z</time>
      </trkpt>
      <trkpt lat="45.64356" lon="6.54214">
        <ele>1905.6</ele>
        <time>2025-02-20T15:29:52Z</time>
      </trkpt>
      <trkpt lat="45.6436" lon="6.54215">
        <ele>1905.2</ele>
        <time>2025-02-20T15:29:53Z</time>
      </trkpt>
      <trkpt lat="45.64363" lon="6.54217">
        <ele>1905.2</ele>
        <time>2025-02-20T15:29:54Z</time>
      </trkpt>
      <trkpt lat="45.64366" lon="6.54218">
        <ele>1905.2</ele>
        <time>2025-02-20T15:29:55Z</time>
      </trkpt>
      <trkpt lat="45.64369" lon="6.5422">
        <ele>1904.2</ele>
        <time>2025-02-20T15:29:56Z</time>
      </trkpt>
      <trkpt lat="45.64372" lon="6.54222">
        <ele>1903.2</ele>
        <time>2025-02-20T15:29:57Z</time>
      </trkpt>
      <trkpt lat="45.64378" lon="6.54227">
        <ele>1903.2</ele>
        <time>2025-02-20T15:29:58Z</time>
      </trkpt>
      <trkpt lat="45.64384" lon="6.54231">
        <ele>1903.2</ele>
        <time>2025-02-20T15:29:59Z</time>
      </trkpt>
      <trkpt lat="45.64389" lon="6.54235">
        <ele>1902.2</ele>
        <time>2025-02-20T15:30:00Z</time>
      </trkpt>
      <trkpt lat="45.64394" lon="6.54235">
        <ele>1898.8</ele>
        <time>2025-02-20T15:30:01Z</time>
      </trkpt>
      <trkpt lat="45.64397" lon="6.54236">
        <ele>1898.8</ele>
        <time>2025-02-20T15:30:02Z</time>
      </trkpt>
      <trkpt lat="45.644" lon="6.54236">
        <ele>1898.8</ele>
        <time>2025-02-20T15:30:03Z</time>
      </trkpt>
      <trkpt lat="45.64402" lon="6.54237">
        <ele>1898.2</ele>
        <time>2025-02-20T15:30:04Z</time>
      </trkpt>
      <trkpt lat="45.64404" lon="6.54237">
        <ele>1897.6</ele>
        <time>2025-02-20T15:30:05Z</time>
      </trkpt>
      <trkpt lat="45.64405" lon="6.54237">
        <ele>1897.6</ele>
        <time>2025-02-20T15:30:06Z</time>
      </trkpt>
      <trkpt lat="45.64406" lon="6.54236">
        <ele>1897.6</ele>
        <time>2025-02-20T15:30:07Z</time>
      </trkpt>
      <trkpt lat="45.64407" lon="6.54236">
        <ele>1897</ele>
        <time>2025-02-20T15:30:08Z</time>
      </trkpt>
      <trkpt lat="45.64407" lon="6.54236">
        <ele>1897.2</ele>
        <time>2025-02-20T15:30:09Z</time>
      </trkpt>
      <trkpt lat="45.64407" lon="6.54236">
        <ele>1897.2</ele>
        <time>2025-02-20T15:30:10Z</time>
      </trkpt>
      <trkpt lat="45.64407" lon="6.54236">
        <ele>1897.2</ele>
        <time>2025-02-20T15:30:11Z</time>
      </trkpt>
      <trkpt lat="45.64407" lon="6.54236">
        <ele>1897.4</ele>
        <time>2025-02-20T15:30:12Z</time>
      </trkpt>
      <trkpt lat="45.64407" lon="6.54236">
        <ele>1897.4</ele>
        <time>2025-02-20T15:30:13Z</time>
      </trkpt>
      <trkpt lat="45.64407" lon="6.54236">
        <ele>1897.4</ele>
        <time>2025-02-20T15:30:14Z</time>
      </trkpt>
      <trkpt lat="45.64407" lon="6.54236">
        <ele>1897.4</ele>
        <time>2025-02-20T15:30:15Z</time>
      </trkpt>
      <trkpt lat="45.64407" lon="6.54236">
        <ele>1897.4</ele>
        <time>2025-02-20T15:30:16Z</time>
      </trkpt>
      <trkpt lat="45.64407" lon="6.54236">
        <ele>1897.4</ele>
        <time>2025-02-20T15:30:17Z</time>
      </trkpt>
      <trkpt lat="45.64407" lon="6.54236">
        <ele>1897.4</ele>
        <time>2025-02-20T15:30:18Z</time>
      </trkpt>
      <trkpt lat="45.64407" lon="6.54236">
        <ele>1897.4</ele>
        <time>2025-02-20T15:30:19Z</time>
      </trkpt>
      <trkpt lat="45.64407" lon="6.54236">
        <ele>1897.4</ele>
        <time>2025-02-20T15:30:20Z</time>
      </trkpt>
      <trkpt lat="45.64407" lon="6.54236">
        <ele>1897.4</ele>
        <time>2025-02-20T15:30:21Z</time>
      </trkpt>
      <trkpt lat="45.64407" lon="6.54236">
        <ele>1897.4</ele>
        <time>2025-02-20T15:30:22Z</time>
      </trkpt>
      <trkpt lat="45.64407" lon="6.54236">
        <ele>1897.4</ele>
        <time>2025-02-20T15:30:23Z</time>
      </trkpt>
      <trkpt lat="45.64407" lon="6.54236">
        <ele>1897.4</ele>
        <time>2025-02-20T15:30:24Z</time>
      </trkpt>
      <trkpt lat="45.64407" lon="6.54236">
        <ele>1898</ele>
        <time>2025-02-20T15:30:25Z</time>
      </trkpt>
      <trkpt lat="45.64407" lon="6.54236">
        <ele>1898</ele>
        <time>2025-02-20T15:30:26Z</time>
      </trkpt>
      <trkpt lat="45.64407" lon="6.54236">
        <ele>1898</ele>
        <time>2025-02-20T15:30:27Z</time>
      </trkpt>
      <trkpt lat="45.64411" lon="6.54233">
        <ele>1897.4</ele>
        <time>2025-02-20T15:30:28Z</time>
      </trkpt>
      <trkpt lat="45.64412" lon="6.54233">
        <ele>1897.4</ele>
        <time>2025-02-20T15:30:29Z</time>
      </trkpt>
      <trkpt lat="45.64413" lon="6.54233">
        <ele>1897.4</ele>
        <time>2025-02-20T15:30:30Z</time>
      </trkpt>
      <trkpt lat="45.64414" lon="6.54232">
        <ele>1897.4</ele>
        <time>2025-02-20T15:30:31Z</time>
      </trkpt>
      <trkpt lat="45.64415" lon="6.54232">
        <ele>1897.4</ele>
        <time>2025-02-20T15:30:32Z</time>
      </trkpt>
      <trkpt lat="45.64415" lon="6.54232">
        <ele>1897.4</ele>
        <time>2025-02-20T15:30:33Z</time>
      </trkpt>
      <trkpt lat="45.64416" lon="6.54231">
        <ele>1897.4</ele>
        <time>2025-02-20T15:30:34Z</time>
      </trkpt>
      <trkpt lat="45.64417" lon="6.54231">
        <ele>1897.4</ele>
        <time>2025-02-20T15:30:35Z</time>
      </trkpt>
      <trkpt lat="45.64417" lon="6.54231">
        <ele>1896.6</ele>
        <time>2025-02-20T15:30:36Z</time>
      </trkpt>
      <trkpt lat="45.64418" lon="6.5423">
        <ele>1896.6</ele>
        <time>2025-02-20T15:30:37Z</time>
      </trkpt>
      <trkpt lat="45.64419" lon="6.54231">
        <ele>1896.6</ele>
        <time>2025-02-20T15:30:38Z</time>
      </trkpt>
      <trkpt lat="45.64421" lon="6.54231">
        <ele>1896.6</ele>
        <time>2025-02-20T15:30:39Z</time>
      </trkpt>
      <trkpt lat="45.64422" lon="6.54231">
        <ele>1896</ele>
        <time>2025-02-20T15:30:40Z</time>
      </trkpt>
      <trkpt lat="45.64422" lon="6.54231">
        <ele>1896.4</ele>
        <time>2025-02-20T15:30:41Z</time>
      </trkpt>
      <trkpt lat="45.64422" lon="6.54231">
        <ele>1896.4</ele>
        <time>2025-02-20T15:30:42Z</time>
      </trkpt>
      <trkpt lat="45.64423" lon="6.5423">
        <ele>1896.4</ele>
        <time>2025-02-20T15:30:43Z</time>
      </trkpt>
      <trkpt lat="45.64424" lon="6.5423">
        <ele>1895.8</ele>
        <time>2025-02-20T15:30:44Z</time>
      </trkpt>
      <trkpt lat="45.64425" lon="6.5423">
        <ele>1895.4</ele>
        <time>2025-02-20T15:30:45Z</time>
      </trkpt>
      <trkpt lat="45.64426" lon="6.5423">
        <ele>1895.4</ele>
        <time>2025-02-20T15:30:46Z</time>
      </trkpt>
      <trkpt lat="45.64427" lon="6.5423">
        <ele>1895.4</ele>
        <time>2025-02-20T15:30:47Z</time>
      </trkpt>
      <trkpt lat="45.64428" lon="6.5423">
        <ele>1895.4</ele>
        <time>2025-02-20T15:30:48Z</time>
      </trkpt>
      <trkpt lat="45.64429" lon="6.5423">
        <ele>1894</ele>
        <time>2025-02-20T15:30:49Z</time>
      </trkpt>
      <trkpt lat="45.64431" lon="6.5423">
        <ele>1894</ele>
        <time>2025-02-20T15:30:50Z</time>
      </trkpt>
      <trkpt lat="45.64432" lon="6.5423">
        <ele>1894</ele>
        <time>2025-02-20T15:30:51Z</time>
      </trkpt>
      <trkpt lat="45.64435" lon="6.54231">
        <ele>1894</ele>
        <time>2025-02-20T15:30:52Z</time>
      </trkpt>
      <trkpt lat="45.64437" lon="6.5423">
        <ele>1893.8</ele>
        <time>2025-02-20T15:30:53Z</time>
      </trkpt>
      <trkpt lat="45.6444" lon="6.5423">
        <ele>1893.8</ele>
        <time>2025-02-20T15:30:54Z</time>
      </trkpt>
      <trkpt lat="45.64442" lon="6.5423">
        <ele>1893.8</ele>
        <time>2025-02-20T15:30:55Z</time>
      </trkpt>
      <trkpt lat="45.64444" lon="6.5423">
        <ele>1893</ele>
        <time>2025-02-20T15:30:56Z</time>
      </trkpt>
      <trkpt lat="45.64446" lon="6.5423">
        <ele>1892</ele>
        <time>2025-02-20T15:30:57Z</time>
      </trkpt>
      <trkpt lat="45.64448" lon="6.5423">
        <ele>1892</ele>
        <time>2025-02-20T15:30:58Z</time>
      </trkpt>
      <trkpt lat="45.6445" lon="6.5423">
        <ele>1892</ele>
        <time>2025-02-20T15:30:59Z</time>
      </trkpt>
      <trkpt lat="45.64453" lon="6.54229">
        <ele>1892</ele>
        <time>2025-02-20T15:31:00Z</time>
      </trkpt>
      <trkpt lat="45.64455" lon="6.54228">
        <ele>1891.4</ele>
        <time>2025-02-20T15:31:01Z</time>
      </trkpt>
      <trkpt lat="45.64457" lon="6.54226">
        <ele>1891.4</ele>
        <time>2025-02-20T15:31:02Z</time>
      </trkpt>
      <trkpt lat="45.64458" lon="6.54225">
        <ele>1891.4</ele>
        <time>2025-02-20T15:31:03Z</time>
      </trkpt>
      <trkpt lat="45.64459" lon="6.54223">
        <ele>1891.4</ele>
        <time>2025-02-20T15:31:04Z</time>
      </trkpt>
      <trkpt lat="45.64459" lon="6.54223">
        <ele>1891.8</ele>
        <time>2025-02-20T15:31:05Z</time>
      </trkpt>
      <trkpt lat="45.64459" lon="6.54223">
        <ele>1891.8</ele>
        <time>2025-02-20T15:31:06Z</time>
      </trkpt>
      <trkpt lat="45.64459" lon="6.54223">
        <ele>1891.8</ele>
        <time>2025-02-20T15:31:07Z</time>
      </trkpt>
      <trkpt lat="45.64459" lon="6.54223">
        <ele>1891.8</ele>
        <time>2025-02-20T15:31:08Z</time>
      </trkpt>
      <trkpt lat="45.64459" lon="6.54223">
        <ele>1891.6</ele>
        <time>2025-02-20T15:31:09Z</time>
      </trkpt>
      <trkpt lat="45.64459" lon="6.54223">
        <ele>1891.6</ele>
        <time>2025-02-20T15:31:10Z</time>
      </trkpt>
      <trkpt lat="45.64459" lon="6.54223">
        <ele>1891.6</ele>
        <time>2025-02-20T15:31:11Z</time>
      </trkpt>
      <trkpt lat="45.64459" lon="6.54223">
        <ele>1892.2</ele>
        <time>2025-02-20T15:31:12Z</time>
      </trkpt>
      <trkpt lat="45.64459" lon="6.54223">
        <ele>1891.2</ele>
        <time>2025-02-20T15:31:13Z</time>
      </trkpt>
      <trkpt lat="45.6446" lon="6.54222">
        <ele>1891.2</ele>
        <time>2025-02-20T15:31:14Z</time>
      </trkpt>
      <trkpt lat="45.6446" lon="6.54221">
        <ele>1891.2</ele>
        <time>2025-02-20T15:31:15Z</time>
      </trkpt>
      <trkpt lat="45.6446" lon="6.5422">
        <ele>1891.2</ele>
        <time>2025-02-20T15:31:16Z</time>
      </trkpt>
      <trkpt lat="45.6446" lon="6.5422">
        <ele>1892.6</ele>
        <time>2025-02-20T15:31:17Z</time>
      </trkpt>
      <trkpt lat="45.64461" lon="6.54219">
        <ele>1892.6</ele>
        <time>2025-02-20T15:31:18Z</time>
      </trkpt>
      <trkpt lat="45.64462" lon="6.54218">
        <ele>1892.6</ele>
        <time>2025-02-20T15:31:19Z</time>
      </trkpt>
      <trkpt lat="45.64462" lon="6.54217">
        <ele>1892.4</ele>
        <time>2025-02-20T15:31:20Z</time>
      </trkpt>
      <trkpt lat="45.64463" lon="6.54217">
        <ele>1892.6</ele>
        <time>2025-02-20T15:31:21Z</time>
      </trkpt>
      <trkpt lat="45.64465" lon="6.54216">
        <ele>1892.6</ele>
        <time>2025-02-20T15:31:22Z</time>
      </trkpt>
      <trkpt lat="45.64466" lon="6.54215">
        <ele>1892.6</ele>
        <time>2025-02-20T15:31:23Z</time>
      </trkpt>
      <trkpt lat="45.64469" lon="6.54213">
        <ele>1891.6</ele>
        <time>2025-02-20T15:31:24Z</time>
      </trkpt>
      <trkpt lat="45.64472" lon="6.5421">
        <ele>1890.6</ele>
        <time>2025-02-20T15:31:25Z</time>
      </trkpt>
      <trkpt lat="45.64476" lon="6.54208">
        <ele>1890.6</ele>
        <time>2025-02-20T15:31:26Z</time>
      </trkpt>
      <trkpt lat="45.64482" lon="6.54206">
        <ele>1890.6</ele>
        <time>2025-02-20T15:31:27Z</time>
      </trkpt>
      <trkpt lat="45.64487" lon="6.54203">
        <ele>1889.6</ele>
        <time>2025-02-20T15:31:28Z</time>
      </trkpt>
      <trkpt lat="45.64489" lon="6.542">
        <ele>1887.8</ele>
        <time>2025-02-20T15:31:29Z</time>
      </trkpt>
      <trkpt lat="45.64489" lon="6.54197">
        <ele>1887.8</ele>
        <time>2025-02-20T15:31:30Z</time>
      </trkpt>
      <trkpt lat="45.6449" lon="6.54195">
        <ele>1887.8</ele>
        <time>2025-02-20T15:31:31Z</time>
      </trkpt>
      <trkpt lat="45.6449" lon="6.54192">
        <ele>1887.8</ele>
        <time>2025-02-20T15:31:32Z</time>
      </trkpt>
      <trkpt lat="45.64491" lon="6.5419">
        <ele>1886</ele>
        <time>2025-02-20T15:31:33Z</time>
      </trkpt>
      <trkpt lat="45.64494" lon="6.54187">
        <ele>1886</ele>
        <time>2025-02-20T15:31:34Z</time>
      </trkpt>
      <trkpt lat="45.64495" lon="6.54185">
        <ele>1886</ele>
        <time>2025-02-20T15:31:35Z</time>
      </trkpt>
      <trkpt lat="45.64495" lon="6.54184">
        <ele>1885</ele>
        <time>2025-02-20T15:31:36Z</time>
      </trkpt>
      <trkpt lat="45.64495" lon="6.54183">
        <ele>1883.6</ele>
        <time>2025-02-20T15:31:37Z</time>
      </trkpt>
      <trkpt lat="45.64495" lon="6.54183">
        <ele>1883.6</ele>
        <time>2025-02-20T15:31:38Z</time>
      </trkpt>
      <trkpt lat="45.64495" lon="6.54183">
        <ele>1883.6</ele>
        <time>2025-02-20T15:31:39Z</time>
      </trkpt>
      <trkpt lat="45.64495" lon="6.54183">
        <ele>1883.6</ele>
        <time>2025-02-20T15:31:40Z</time>
      </trkpt>
      <trkpt lat="45.64495" lon="6.54183">
        <ele>1883</ele>
        <time>2025-02-20T15:31:41Z</time>
      </trkpt>
      <trkpt lat="45.64495" lon="6.54183">
        <ele>1883</ele>
        <time>2025-02-20T15:31:42Z</time>
      </trkpt>
      <trkpt lat="45.64495" lon="6.54181">
        <ele>1883</ele>
        <time>2025-02-20T15:31:43Z</time>
      </trkpt>
      <trkpt lat="45.64494" lon="6.5418">
        <ele>1883</ele>
        <time>2025-02-20T15:31:44Z</time>
      </trkpt>
      <trkpt lat="45.64494" lon="6.54179">
        <ele>1882.6</ele>
        <time>2025-02-20T15:31:45Z</time>
      </trkpt>
      <trkpt lat="45.64494" lon="6.54178">
        <ele>1882.6</ele>
        <time>2025-02-20T15:31:46Z</time>
      </trkpt>
      <trkpt lat="45.64493" lon="6.54177">
        <ele>1882.6</ele>
        <time>2025-02-20T15:31:47Z</time>
      </trkpt>
      <trkpt lat="45.64493" lon="6.54177">
        <ele>1881.6</ele>
        <time>2025-02-20T15:31:48Z</time>
      </trkpt>
      <trkpt lat="45.64493" lon="6.54177">
        <ele>1882</ele>
        <time>2025-02-20T15:31:49Z</time>
      </trkpt>
      <trkpt lat="45.64493" lon="6.54177">
        <ele>1882</ele>
        <time>2025-02-20T15:31:50Z</time>
      </trkpt>
      <trkpt lat="45.64493" lon="6.54177">
        <ele>1882</ele>
        <time>2025-02-20T15:31:51Z</time>
      </trkpt>
      <trkpt lat="45.64493" lon="6.54177">
        <ele>1881.8</ele>
        <time>2025-02-20T15:31:52Z</time>
      </trkpt>
      <trkpt lat="45.64493" lon="6.54177">
        <ele>1882</ele>
        <time>2025-02-20T15:31:53Z</time>
      </trkpt>
      <trkpt lat="45.64493" lon="6.54177">
        <ele>1882</ele>
        <time>2025-02-20T15:31:54Z</time>
      </trkpt>
      <trkpt lat="45.64493" lon="6.54177">
        <ele>1882</ele>
        <time>2025-02-20T15:31:55Z</time>
      </trkpt>
      <trkpt lat="45.64493" lon="6.54177">
        <ele>1882</ele>
        <time>2025-02-20T15:31:56Z</time>
      </trkpt>
      <trkpt lat="45.64493" lon="6.54177">
        <ele>1881.8</ele>
        <time>2025-02-20T15:31:57Z</time>
      </trkpt>
      <trkpt lat="45.64493" lon="6.54177">
        <ele>1881.8</ele>
        <time>2025-02-20T15:31:58Z</time>
      </trkpt>
      <trkpt lat="45.64493" lon="6.54177">
        <ele>1881.8</ele>
        <time>2025-02-20T15:31:59Z</time>
      </trkpt>
      <trkpt lat="45.64493" lon="6.54177">
        <ele>1881.8</ele>
        <time>2025-02-20T15:32:00Z</time>
      </trkpt>
      <trkpt lat="45.64493" lon="6.54175">
        <ele>1882.2</ele>
        <time>2025-02-20T15:32:01Z</time>
      </trkpt>
      <trkpt lat="45.64493" lon="6.54174">
        <ele>1882.2</ele>
        <time>2025-02-20T15:32:02Z</time>
      </trkpt>
      <trkpt lat="45.64493" lon="6.54172">
        <ele>1882.2</ele>
        <time>2025-02-20T15:32:03Z</time>
      </trkpt>
      <trkpt lat="45.64493" lon="6.54172">
        <ele>1881.2</ele>
        <time>2025-02-20T15:32:04Z</time>
      </trkpt>
      <trkpt lat="45.64493" lon="6.54171">
        <ele>1881.2</ele>
        <time>2025-02-20T15:32:05Z</time>
      </trkpt>
      <trkpt lat="45.64493" lon="6.54171">
        <ele>1881.2</ele>
        <time>2025-02-20T15:32:06Z</time>
      </trkpt>
      <trkpt lat="45.64494" lon="6.54169">
        <ele>1881.2</ele>
        <time>2025-02-20T15:32:07Z</time>
      </trkpt>
      <trkpt lat="45.64496" lon="6.54168">
        <ele>1880.4</ele>
        <time>2025-02-20T15:32:08Z</time>
      </trkpt>
      <trkpt lat="45.64497" lon="6.5417">
        <ele>1877.6</ele>
        <time>2025-02-20T15:32:09Z</time>
      </trkpt>
      <trkpt lat="45.64498" lon="6.54171">
        <ele>1877.6</ele>
        <time>2025-02-20T15:32:10Z</time>
      </trkpt>
      <trkpt lat="45.64499" lon="6.54171">
        <ele>1877.6</ele>
        <time>2025-02-20T15:32:11Z</time>
      </trkpt>
      <trkpt lat="45.64499" lon="6.54171">
        <ele>1876.8</ele>
        <time>2025-02-20T15:32:12Z</time>
      </trkpt>
      <trkpt lat="45.64499" lon="6.54171">
        <ele>1876.4</ele>
        <time>2025-02-20T15:32:13Z</time>
      </trkpt>
      <trkpt lat="45.64501" lon="6.54169">
        <ele>1876.4</ele>
        <time>2025-02-20T15:32:14Z</time>
      </trkpt>
      <trkpt lat="45.64502" lon="6.54167">
        <ele>1876.4</ele>
        <time>2025-02-20T15:32:15Z</time>
      </trkpt>
      <trkpt lat="45.64501" lon="6.54165">
        <ele>1875.4</ele>
        <time>2025-02-20T15:32:16Z</time>
      </trkpt>
      <trkpt lat="45.64501" lon="6.54162">
        <ele>1873</ele>
        <time>2025-02-20T15:32:17Z</time>
      </trkpt>
      <trkpt lat="45.64501" lon="6.54159">
        <ele>1873</ele>
        <time>2025-02-20T15:32:18Z</time>
      </trkpt>
      <trkpt lat="45.64501" lon="6.54155">
        <ele>1873</ele>
        <time>2025-02-20T15:32:19Z</time>
      </trkpt>
      <trkpt lat="45.645" lon="6.5415">
        <ele>1872</ele>
        <time>2025-02-20T15:32:20Z</time>
      </trkpt>
      <trkpt lat="45.64499" lon="6.54146">
        <ele>1869.2</ele>
        <time>2025-02-20T15:32:21Z</time>
      </trkpt>
      <trkpt lat="45.64498" lon="6.54141">
        <ele>1869.2</ele>
        <time>2025-02-20T15:32:22Z</time>
      </trkpt>
      <trkpt lat="45.64497" lon="6.54137">
        <ele>1869.2</ele>
        <time>2025-02-20T15:32:23Z</time>
      </trkpt>
      <trkpt lat="45.64497" lon="6.54133">
        <ele>1868.2</ele>
        <time>2025-02-20T15:32:24Z</time>
      </trkpt>
      <trkpt lat="45.64496" lon="6.5413">
        <ele>1866</ele>
        <time>2025-02-20T15:32:25Z</time>
      </trkpt>
      <trkpt lat="45.64496" lon="6.54125">
        <ele>1866</ele>
        <time>2025-02-20T15:32:26Z</time>
      </trkpt>
      <trkpt lat="45.64496" lon="6.5412">
        <ele>1866</ele>
        <time>2025-02-20T15:32:27Z</time>
      </trkpt>
      <trkpt lat="45.64496" lon="6.54114">
        <ele>1865</ele>
        <time>2025-02-20T15:32:28Z</time>
      </trkpt>
      <trkpt lat="45.64495" lon="6.5411">
        <ele>1863.8</ele>
        <time>2025-02-20T15:32:29Z</time>
      </trkpt>
      <trkpt lat="45.64495" lon="6.54108">
        <ele>1863.8</ele>
        <time>2025-02-20T15:32:30Z</time>
      </trkpt>
      <trkpt lat="45.64494" lon="6.54107">
        <ele>1863.8</ele>
        <time>2025-02-20T15:32:31Z</time>
      </trkpt>
      <trkpt lat="45.64494" lon="6.54107">
        <ele>1863.4</ele>
        <time>2025-02-20T15:32:32Z</time>
      </trkpt>
      <trkpt lat="45.64494" lon="6.54107">
        <ele>1862.8</ele>
        <time>2025-02-20T15:32:33Z</time>
      </trkpt>
      <trkpt lat="45.64494" lon="6.54107">
        <ele>1862.8</ele>
        <time>2025-02-20T15:32:34Z</time>
      </trkpt>
      <trkpt lat="45.64494" lon="6.54107">
        <ele>1862.8</ele>
        <time>2025-02-20T15:32:35Z</time>
      </trkpt>
      <trkpt lat="45.64494" lon="6.54107">
        <ele>1862.6</ele>
        <time>2025-02-20T15:32:36Z</time>
      </trkpt>
      <trkpt lat="45.64494" lon="6.54107">
        <ele>1862.8</ele>
        <time>2025-02-20T15:32:37Z</time>
      </trkpt>
      <trkpt lat="45.64494" lon="6.54107">
        <ele>1862.8</ele>
        <time>2025-02-20T15:32:38Z</time>
      </trkpt>
      <trkpt lat="45.64494" lon="6.54107">
        <ele>1862.8</ele>
        <time>2025-02-20T15:32:39Z</time>
      </trkpt>
      <trkpt lat="45.64494" lon="6.54107">
        <ele>1862.2</ele>
        <time>2025-02-20T15:32:40Z</time>
      </trkpt>
      <trkpt lat="45.64494" lon="6.54107">
        <ele>1862.8</ele>
        <time>2025-02-20T15:32:41Z</time>
      </trkpt>
      <trkpt lat="45.64494" lon="6.54107">
        <ele>1862.8</ele>
        <time>2025-02-20T15:32:42Z</time>
      </trkpt>
      <trkpt lat="45.64494" lon="6.54107">
        <ele>1862.8</ele>
        <time>2025-02-20T15:32:43Z</time>
      </trkpt>
      <trkpt lat="45.64494" lon="6.54107">
        <ele>1862.8</ele>
        <time>2025-02-20T15:32:44Z</time>
      </trkpt>
      <trkpt lat="45.64495" lon="6.54105">
        <ele>1862.6</ele>
        <time>2025-02-20T15:32:45Z</time>
      </trkpt>
      <trkpt lat="45.64495" lon="6.541">
        <ele>1862.6</ele>
        <time>2025-02-20T15:32:46Z</time>
      </trkpt>
      <trkpt lat="45.64496" lon="6.54096">
        <ele>1862.6</ele>
        <time>2025-02-20T15:32:47Z</time>
      </trkpt>
      <trkpt lat="45.64498" lon="6.54093">
        <ele>1861.6</ele>
        <time>2025-02-20T15:32:48Z</time>
      </trkpt>
      <trkpt lat="45.64502" lon="6.5409">
        <ele>1861.4</ele>
        <time>2025-02-20T15:32:49Z</time>
      </trkpt>
      <trkpt lat="45.64505" lon="6.54091">
        <ele>1861.4</ele>
        <time>2025-02-20T15:32:50Z</time>
      </trkpt>
      <trkpt lat="45.64506" lon="6.54094">
        <ele>1861.4</ele>
        <time>2025-02-20T15:32:51Z</time>
      </trkpt>
      <trkpt lat="45.64506" lon="6.54095">
        <ele>1860.4</ele>
        <time>2025-02-20T15:32:52Z</time>
      </trkpt>
      <trkpt lat="45.64506" lon="6.54094">
        <ele>1858.6</ele>
        <time>2025-02-20T15:32:53Z</time>
      </trkpt>
      <trkpt lat="45.64506" lon="6.54094">
        <ele>1858.6</ele>
        <time>2025-02-20T15:32:54Z</time>
      </trkpt>
      <trkpt lat="45.64506" lon="6.54094">
        <ele>1858.6</ele>
        <time>2025-02-20T15:32:55Z</time>
      </trkpt>
      <trkpt lat="45.64506" lon="6.54094">
        <ele>1858.6</ele>
        <time>2025-02-20T15:32:56Z</time>
      </trkpt>
      <trkpt lat="45.64506" lon="6.54094">
        <ele>1858.4</ele>
        <time>2025-02-20T15:32:57Z</time>
      </trkpt>
      <trkpt lat="45.64506" lon="6.54094">
        <ele>1858.4</ele>
        <time>2025-02-20T15:32:58Z</time>
      </trkpt>
      <trkpt lat="45.64506" lon="6.54094">
        <ele>1858.4</ele>
        <time>2025-02-20T15:32:59Z</time>
      </trkpt>
      <trkpt lat="45.64506" lon="6.54094">
        <ele>1858.8</ele>
        <time>2025-02-20T15:33:00Z</time>
      </trkpt>
      <trkpt lat="45.64506" lon="6.54094">
        <ele>1858.6</ele>
        <time>2025-02-20T15:33:01Z</time>
      </trkpt>
      <trkpt lat="45.64507" lon="6.54095">
        <ele>1858.6</ele>
        <time>2025-02-20T15:33:02Z</time>
      </trkpt>
      <trkpt lat="45.64507" lon="6.54097">
        <ele>1858.6</ele>
        <time>2025-02-20T15:33:03Z</time>
      </trkpt>
      <trkpt lat="45.64508" lon="6.541">
        <ele>1858.6</ele>
        <time>2025-02-20T15:33:04Z</time>
      </trkpt>
      <trkpt lat="45.64508" lon="6.54103">
        <ele>1857.4</ele>
        <time>2025-02-20T15:33:05Z</time>
      </trkpt>
      <trkpt lat="45.64508" lon="6.54104">
        <ele>1857.4</ele>
        <time>2025-02-20T15:33:06Z</time>
      </trkpt>
      <trkpt lat="45.64508" lon="6.54103">
        <ele>1857.4</ele>
        <time>2025-02-20T15:33:07Z</time>
      </trkpt>
      <trkpt lat="45.64508" lon="6.54103">
        <ele>1857.2</ele>
        <time>2025-02-20T15:33:08Z</time>
      </trkpt>
      <trkpt lat="45.64508" lon="6.54103">
        <ele>1857.6</ele>
        <time>2025-02-20T15:33:09Z</time>
      </trkpt>
      <trkpt lat="45.64508" lon="6.54103">
        <ele>1857.6</ele>
        <time>2025-02-20T15:33:10Z</time>
      </trkpt>
      <trkpt lat="45.64508" lon="6.54103">
        <ele>1857.6</ele>
        <time>2025-02-20T15:33:11Z</time>
      </trkpt>
      <trkpt lat="45.64508" lon="6.54103">
        <ele>1856.6</ele>
        <time>2025-02-20T15:33:12Z</time>
      </trkpt>
      <trkpt lat="45.64508" lon="6.54103">
        <ele>1857</ele>
        <time>2025-02-20T15:33:13Z</time>
      </trkpt>
      <trkpt lat="45.64508" lon="6.54103">
        <ele>1857</ele>
        <time>2025-02-20T15:33:14Z</time>
      </trkpt>
      <trkpt lat="45.64508" lon="6.54103">
        <ele>1857</ele>
        <time>2025-02-20T15:33:15Z</time>
      </trkpt>
      <trkpt lat="45.64509" lon="6.54105">
        <ele>1857</ele>
        <time>2025-02-20T15:33:16Z</time>
      </trkpt>
      <trkpt lat="45.64509" lon="6.54107">
        <ele>1856.6</ele>
        <time>2025-02-20T15:33:17Z</time>
      </trkpt>
      <trkpt lat="45.6451" lon="6.54109">
        <ele>1856.6</ele>
        <time>2025-02-20T15:33:18Z</time>
      </trkpt>
      <trkpt lat="45.6451" lon="6.5411">
        <ele>1856.6</ele>
        <time>2025-02-20T15:33:19Z</time>
      </trkpt>
      <trkpt lat="45.64511" lon="6.54112">
        <ele>1856</ele>
        <time>2025-02-20T15:33:20Z</time>
      </trkpt>
      <trkpt lat="45.64512" lon="6.54114">
        <ele>1855.4</ele>
        <time>2025-02-20T15:33:21Z</time>
      </trkpt>
      <trkpt lat="45.64513" lon="6.54116">
        <ele>1855.4</ele>
        <time>2025-02-20T15:33:22Z</time>
      </trkpt>
      <trkpt lat="45.64513" lon="6.54116">
        <ele>1855.4</ele>
        <time>2025-02-20T15:33:23Z</time>
      </trkpt>
      <trkpt lat="45.64513" lon="6.54116">
        <ele>1855.4</ele>
        <time>2025-02-20T15:33:24Z</time>
      </trkpt>
      <trkpt lat="45.64513" lon="6.54116">
        <ele>1855</ele>
        <time>2025-02-20T15:33:25Z</time>
      </trkpt>
      <trkpt lat="45.64513" lon="6.54116">
        <ele>1855</ele>
        <time>2025-02-20T15:33:26Z</time>
      </trkpt>
      <trkpt lat="45.64513" lon="6.54116">
        <ele>1855</ele>
        <time>2025-02-20T15:33:27Z</time>
      </trkpt>
      <trkpt lat="45.64513" lon="6.54116">
        <ele>1855</ele>
        <time>2025-02-20T15:33:28Z</time>
      </trkpt>
      <trkpt lat="45.64513" lon="6.54116">
        <ele>1854.6</ele>
        <time>2025-02-20T15:33:29Z</time>
      </trkpt>
      <trkpt lat="45.64513" lon="6.54116">
        <ele>1854.6</ele>
        <time>2025-02-20T15:33:30Z</time>
      </trkpt>
      <trkpt lat="45.64513" lon="6.54116">
        <ele>1854.6</ele>
        <time>2025-02-20T15:33:31Z</time>
      </trkpt>
      <trkpt lat="45.64513" lon="6.54116">
        <ele>1854.6</ele>
        <time>2025-02-20T15:33:32Z</time>
      </trkpt>
      <trkpt lat="45.64513" lon="6.54116">
        <ele>1854.6</ele>
        <time>2025-02-20T15:33:33Z</time>
      </trkpt>
      <trkpt lat="45.64513" lon="6.54116">
        <ele>1854.6</ele>
        <time>2025-02-20T15:33:34Z</time>
      </trkpt>
      <trkpt lat="45.64513" lon="6.54116">
        <ele>1854.6</ele>
        <time>2025-02-20T15:33:35Z</time>
      </trkpt>
      <trkpt lat="45.64513" lon="6.54116">
        <ele>1855.6</ele>
        <time>2025-02-20T15:33:36Z</time>
      </trkpt>
      <trkpt lat="45.64513" lon="6.54116">
        <ele>1855</ele>
        <time>2025-02-20T15:33:37Z</time>
      </trkpt>
      <trkpt lat="45.64513" lon="6.54116">
        <ele>1855</ele>
        <time>2025-02-20T15:33:38Z</time>
      </trkpt>
      <trkpt lat="45.64513" lon="6.54116">
        <ele>1855</ele>
        <time>2025-02-20T15:33:39Z</time>
      </trkpt>
      <trkpt lat="45.64513" lon="6.54116">
        <ele>1854</ele>
        <time>2025-02-20T15:33:40Z</time>
      </trkpt>
      <trkpt lat="45.64513" lon="6.54116">
        <ele>1854.4</ele>
        <time>2025-02-20T15:33:41Z</time>
      </trkpt>
      <trkpt lat="45.64513" lon="6.54116">
        <ele>1854.4</ele>
        <time>2025-02-20T15:33:42Z</time>
      </trkpt>
      <trkpt lat="45.64513" lon="6.54116">
        <ele>1854.4</ele>
        <time>2025-02-20T15:33:43Z</time>
      </trkpt>
      <trkpt lat="45.64515" lon="6.54119">
        <ele>1854.4</ele>
        <time>2025-02-20T15:33:44Z</time>
      </trkpt>
      <trkpt lat="45.64516" lon="6.54121">
        <ele>1853.2</ele>
        <time>2025-02-20T15:33:45Z</time>
      </trkpt>
      <trkpt lat="45.64516" lon="6.54121">
        <ele>1853.2</ele>
        <time>2025-02-20T15:33:46Z</time>
      </trkpt>
      <trkpt lat="45.64516" lon="6.54121">
        <ele>1853.2</ele>
        <time>2025-02-20T15:33:47Z</time>
      </trkpt>
      <trkpt lat="45.64516" lon="6.54121">
        <ele>1853.6</ele>
        <time>2025-02-20T15:33:48Z</time>
      </trkpt>
      <trkpt lat="45.64516" lon="6.54121">
        <ele>1853.8</ele>
        <time>2025-02-20T15:33:49Z</time>
      </trkpt>
      <trkpt lat="45.64516" lon="6.54121">
        <ele>1853.8</ele>
        <time>2025-02-20T15:33:50Z</time>
      </trkpt>
      <trkpt lat="45.64516" lon="6.54121">
        <ele>1853.8</ele>
        <time>2025-02-20T15:33:51Z</time>
      </trkpt>
      <trkpt lat="45.64516" lon="6.54121">
        <ele>1853.8</ele>
        <time>2025-02-20T15:33:52Z</time>
      </trkpt>
      <trkpt lat="45.64516" lon="6.54121">
        <ele>1853.4</ele>
        <time>2025-02-20T15:33:53Z</time>
      </trkpt>
      <trkpt lat="45.64516" lon="6.54121">
        <ele>1853.4</ele>
        <time>2025-02-20T15:33:54Z</time>
      </trkpt>
      <trkpt lat="45.64516" lon="6.54121">
        <ele>1853.4</ele>
        <time>2025-02-20T15:33:55Z</time>
      </trkpt>
      <trkpt lat="45.64517" lon="6.54124">
        <ele>1853.4</ele>
        <time>2025-02-20T15:33:56Z</time>
      </trkpt>
      <trkpt lat="45.64518" lon="6.54127">
        <ele>1851.8</ele>
        <time>2025-02-20T15:33:57Z</time>
      </trkpt>
      <trkpt lat="45.64519" lon="6.54129">
        <ele>1851.8</ele>
        <time>2025-02-20T15:33:58Z</time>
      </trkpt>
      <trkpt lat="45.64521" lon="6.54132">
        <ele>1851.8</ele>
        <time>2025-02-20T15:33:59Z</time>
      </trkpt>
      <trkpt lat="45.64523" lon="6.54134">
        <ele>1850.8</ele>
        <time>2025-02-20T15:34:00Z</time>
      </trkpt>
      <trkpt lat="45.64524" lon="6.54136">
        <ele>1847.2</ele>
        <time>2025-02-20T15:34:01Z</time>
      </trkpt>
      <trkpt lat="45.64525" lon="6.54135">
        <ele>1847.2</ele>
        <time>2025-02-20T15:34:02Z</time>
      </trkpt>
      <trkpt lat="45.64526" lon="6.54135">
        <ele>1847.2</ele>
        <time>2025-02-20T15:34:03Z</time>
      </trkpt>
      <trkpt lat="45.64526" lon="6.54135">
        <ele>1847.2</ele>
        <time>2025-02-20T15:34:04Z</time>
      </trkpt>
      <trkpt lat="45.64527" lon="6.54135">
        <ele>1846.6</ele>
        <time>2025-02-20T15:34:05Z</time>
      </trkpt>
      <trkpt lat="45.6453" lon="6.54135">
        <ele>1846.6</ele>
        <time>2025-02-20T15:34:06Z</time>
      </trkpt>
      <trkpt lat="45.6453" lon="6.54133">
        <ele>1846.6</ele>
        <time>2025-02-20T15:34:07Z</time>
      </trkpt>
      <trkpt lat="45.6453" lon="6.54132">
        <ele>1845.6</ele>
        <time>2025-02-20T15:34:08Z</time>
      </trkpt>
      <trkpt lat="45.6453" lon="6.54131">
        <ele>1843</ele>
        <time>2025-02-20T15:34:09Z</time>
      </trkpt>
      <trkpt lat="45.64531" lon="6.54129">
        <ele>1843</ele>
        <time>2025-02-20T15:34:10Z</time>
      </trkpt>
      <trkpt lat="45.64532" lon="6.54128">
        <ele>1843</ele>
        <time>2025-02-20T15:34:11Z</time>
      </trkpt>
      <trkpt lat="45.64534" lon="6.54127">
        <ele>1843</ele>
        <time>2025-02-20T15:34:12Z</time>
      </trkpt>
      <trkpt lat="45.64535" lon="6.5413">
        <ele>1841</ele>
        <time>2025-02-20T15:34:13Z</time>
      </trkpt>
      <trkpt lat="45.64536" lon="6.54132">
        <ele>1841</ele>
        <time>2025-02-20T15:34:14Z</time>
      </trkpt>
      <trkpt lat="45.64538" lon="6.54132">
        <ele>1841</ele>
        <time>2025-02-20T15:34:15Z</time>
      </trkpt>
      <trkpt lat="45.64541" lon="6.54131">
        <ele>1840</ele>
        <time>2025-02-20T15:34:16Z</time>
      </trkpt>
      <trkpt lat="45.6454" lon="6.54127">
        <ele>1837.4</ele>
        <time>2025-02-20T15:34:17Z</time>
      </trkpt>
      <trkpt lat="45.6454" lon="6.54122">
        <ele>1837.4</ele>
        <time>2025-02-20T15:34:18Z</time>
      </trkpt>
      <trkpt lat="45.64541" lon="6.54122">
        <ele>1837.4</ele>
        <time>2025-02-20T15:34:19Z</time>
      </trkpt>
      <trkpt lat="45.64544" lon="6.54126">
        <ele>1836.4</ele>
        <time>2025-02-20T15:34:20Z</time>
      </trkpt>
      <trkpt lat="45.64545" lon="6.54127">
        <ele>1832</ele>
        <time>2025-02-20T15:34:21Z</time>
      </trkpt>
      <trkpt lat="45.64546" lon="6.54128">
        <ele>1832</ele>
        <time>2025-02-20T15:34:22Z</time>
      </trkpt>
      <trkpt lat="45.64548" lon="6.54129">
        <ele>1832</ele>
        <time>2025-02-20T15:34:23Z</time>
      </trkpt>
      <trkpt lat="45.64549" lon="6.54127">
        <ele>1831</ele>
        <time>2025-02-20T15:34:24Z</time>
      </trkpt>
      <trkpt lat="45.64549" lon="6.54125">
        <ele>1829.8</ele>
        <time>2025-02-20T15:34:25Z</time>
      </trkpt>
      <trkpt lat="45.6455" lon="6.54125">
        <ele>1829.8</ele>
        <time>2025-02-20T15:34:26Z</time>
      </trkpt>
      <trkpt lat="45.64552" lon="6.54125">
        <ele>1829.8</ele>
        <time>2025-02-20T15:34:27Z</time>
      </trkpt>
      <trkpt lat="45.64553" lon="6.54127">
        <ele>1828.8</ele>
        <time>2025-02-20T15:34:28Z</time>
      </trkpt>
      <trkpt lat="45.64554" lon="6.54128">
        <ele>1826.6</ele>
        <time>2025-02-20T15:34:29Z</time>
      </trkpt>
      <trkpt lat="45.64555" lon="6.54129">
        <ele>1826.6</ele>
        <time>2025-02-20T15:34:30Z</time>
      </trkpt>
      <trkpt lat="45.64556" lon="6.5413">
        <ele>1826.6</ele>
        <time>2025-02-20T15:34:31Z</time>
      </trkpt>
      <trkpt lat="45.64557" lon="6.54131">
        <ele>1825.6</ele>
        <time>2025-02-20T15:34:32Z</time>
      </trkpt>
      <trkpt lat="45.64557" lon="6.5413">
        <ele>1825.4</ele>
        <time>2025-02-20T15:34:33Z</time>
      </trkpt>
      <trkpt lat="45.64557" lon="6.54131">
        <ele>1825.4</ele>
        <time>2025-02-20T15:34:34Z</time>
      </trkpt>
      <trkpt lat="45.64557" lon="6.54131">
        <ele>1825.4</ele>
        <time>2025-02-20T15:34:35Z</time>
      </trkpt>
      <trkpt lat="45.64557" lon="6.54131">
        <ele>1825.4</ele>
        <time>2025-02-20T15:34:36Z</time>
      </trkpt>
      <trkpt lat="45.64557" lon="6.54131">
        <ele>1825.8</ele>
        <time>2025-02-20T15:34:37Z</time>
      </trkpt>
      <trkpt lat="45.64557" lon="6.54131">
        <ele>1825.8</ele>
        <time>2025-02-20T15:34:38Z</time>
      </trkpt>
      <trkpt lat="45.64557" lon="6.54131">
        <ele>1825.8</ele>
        <time>2025-02-20T15:34:39Z</time>
      </trkpt>
      <trkpt lat="45.64557" lon="6.54131">
        <ele>1825.8</ele>
        <time>2025-02-20T15:34:40Z</time>
      </trkpt>
      <trkpt lat="45.64557" lon="6.54131">
        <ele>1825.4</ele>
        <time>2025-02-20T15:34:41Z</time>
      </trkpt>
      <trkpt lat="45.64557" lon="6.54131">
        <ele>1825.4</ele>
        <time>2025-02-20T15:34:42Z</time>
      </trkpt>
      <trkpt lat="45.64557" lon="6.54131">
        <ele>1825.4</ele>
        <time>2025-02-20T15:34:43Z</time>
      </trkpt>
      <trkpt lat="45.64557" lon="6.54131">
        <ele>1825.4</ele>
        <time>2025-02-20T15:34:44Z</time>
      </trkpt>
      <trkpt lat="45.64557" lon="6.54131">
        <ele>1825.4</ele>
        <time>2025-02-20T15:34:45Z</time>
      </trkpt>
      <trkpt lat="45.64557" lon="6.54131">
        <ele>1825.4</ele>
        <time>2025-02-20T15:34:46Z</time>
      </trkpt>
      <trkpt lat="45.64557" lon="6.54131">
        <ele>1825.4</ele>
        <time>2025-02-20T15:34:47Z</time>
      </trkpt>
      <trkpt lat="45.64557" lon="6.54131">
        <ele>1825.6</ele>
        <time>2025-02-20T15:34:48Z</time>
      </trkpt>
      <trkpt lat="45.64557" lon="6.54131">
        <ele>1825.4</ele>
        <time>2025-02-20T15:34:49Z</time>
      </trkpt>
      <trkpt lat="45.64557" lon="6.54131">
        <ele>1825.4</ele>
        <time>2025-02-20T15:34:50Z</time>
      </trkpt>
      <trkpt lat="45.64557" lon="6.54131">
        <ele>1825.4</ele>
        <time>2025-02-20T15:34:51Z</time>
      </trkpt>
      <trkpt lat="45.64557" lon="6.54131">
        <ele>1825.4</ele>
        <time>2025-02-20T15:34:52Z</time>
      </trkpt>
      <trkpt lat="45.64557" lon="6.54131">
        <ele>1825.4</ele>
        <time>2025-02-20T15:34:53Z</time>
      </trkpt>
      <trkpt lat="45.64557" lon="6.54131">
        <ele>1825.4</ele>
        <time>2025-02-20T15:34:54Z</time>
      </trkpt>
      <trkpt lat="45.64557" lon="6.54131">
        <ele>1825.4</ele>
        <time>2025-02-20T15:34:55Z</time>
      </trkpt>
      <trkpt lat="45.64557" lon="6.54131">
        <ele>1825.4</ele>
        <time>2025-02-20T15:34:56Z</time>
      </trkpt>
      <trkpt lat="45.64557" lon="6.54131">
        <ele>1825.4</ele>
        <time>2025-02-20T15:34:57Z</time>
      </trkpt>
      <trkpt lat="45.64557" lon="6.54131">
        <ele>1825.4</ele>
        <time>2025-02-20T15:34:58Z</time>
      </trkpt>
      <trkpt lat="45.64557" lon="6.54131">
        <ele>1825.4</ele>
        <time>2025-02-20T15:34:59Z</time>
      </trkpt>
      <trkpt lat="45.64557" lon="6.54131">
        <ele>1825.4</ele>
        <time>2025-02-20T15:35:00Z</time>
      </trkpt>
      <trkpt lat="45.64557" lon="6.54131">
        <ele>1825.4</ele>
        <time>2025-02-20T15:35:01Z</time>
      </trkpt>
      <trkpt lat="45.64557" lon="6.54131">
        <ele>1825.4</ele>
        <time>2025-02-20T15:35:02Z</time>
      </trkpt>
      <trkpt lat="45.64557" lon="6.54131">
        <ele>1825.4</ele>
        <time>2025-02-20T15:35:03Z</time>
      </trkpt>
      <trkpt lat="45.64557" lon="6.54131">
        <ele>1825.4</ele>
        <time>2025-02-20T15:35:04Z</time>
      </trkpt>
      <trkpt lat="45.64557" lon="6.54131">
        <ele>1825.4</ele>
        <time>2025-02-20T15:35:05Z</time>
      </trkpt>
      <trkpt lat="45.64557" lon="6.54131">
        <ele>1825.4</ele>
        <time>2025-02-20T15:35:06Z</time>
      </trkpt>
      <trkpt lat="45.64557" lon="6.54131">
        <ele>1825.4</ele>
        <time>2025-02-20T15:35:07Z</time>
      </trkpt>
      <trkpt lat="45.64557" lon="6.54131">
        <ele>1825.4</ele>
        <time>2025-02-20T15:35:08Z</time>
      </trkpt>
      <trkpt lat="45.64563" lon="6.54122">
        <ele>1824.6</ele>
        <time>2025-02-20T15:35:09Z</time>
      </trkpt>
      <trkpt lat="45.64564" lon="6.54122">
        <ele>1824.6</ele>
        <time>2025-02-20T15:35:10Z</time>
      </trkpt>
      <trkpt lat="45.64566" lon="6.54123">
        <ele>1824.6</ele>
        <time>2025-02-20T15:35:11Z</time>
      </trkpt>
      <trkpt lat="45.64569" lon="6.54123">
        <ele>1823.6</ele>
        <time>2025-02-20T15:35:12Z</time>
      </trkpt>
      <trkpt lat="45.64571" lon="6.54124">
        <ele>1822.2</ele>
        <time>2025-02-20T15:35:13Z</time>
      </trkpt>
      <trkpt lat="45.64575" lon="6.54125">
        <ele>1822.2</ele>
        <time>2025-02-20T15:35:14Z</time>
      </trkpt>
      <trkpt lat="45.64578" lon="6.54127">
        <ele>1822.2</ele>
        <time>2025-02-20T15:35:15Z</time>
      </trkpt>
      <trkpt lat="45.64582" lon="6.5413">
        <ele>1821.2</ele>
        <time>2025-02-20T15:35:16Z</time>
      </trkpt>
      <trkpt lat="45.64585" lon="6.54131">
        <ele>1818.4</ele>
        <time>2025-02-20T15:35:17Z</time>
      </trkpt>
      <trkpt lat="45.64588" lon="6.54133">
        <ele>1818.4</ele>
        <time>2025-02-20T15:35:18Z</time>
      </trkpt>
      <trkpt lat="45.64591" lon="6.54135">
        <ele>1818.4</ele>
        <time>2025-02-20T15:35:19Z</time>
      </trkpt>
      <trkpt lat="45.64593" lon="6.54137">
        <ele>1817.4</ele>
        <time>2025-02-20T15:35:20Z</time>
      </trkpt>
      <trkpt lat="45.64594" lon="6.54139">
        <ele>1815.2</ele>
        <time>2025-02-20T15:35:21Z</time>
      </trkpt>
      <trkpt lat="45.64596" lon="6.54141">
        <ele>1815.2</ele>
        <time>2025-02-20T15:35:22Z</time>
      </trkpt>
      <trkpt lat="45.64597" lon="6.54143">
        <ele>1815.2</ele>
        <time>2025-02-20T15:35:23Z</time>
      </trkpt>
      <trkpt lat="45.64599" lon="6.54145">
        <ele>1815.2</ele>
        <time>2025-02-20T15:35:24Z</time>
      </trkpt>
      <trkpt lat="45.64601" lon="6.54146">
        <ele>1814</ele>
        <time>2025-02-20T15:35:25Z</time>
      </trkpt>
      <trkpt lat="45.64603" lon="6.54147">
        <ele>1814</ele>
        <time>2025-02-20T15:35:26Z</time>
      </trkpt>
      <trkpt lat="45.64604" lon="6.54147">
        <ele>1814</ele>
        <time>2025-02-20T15:35:27Z</time>
      </trkpt>
      <trkpt lat="45.64605" lon="6.54147">
        <ele>1814</ele>
        <time>2025-02-20T15:35:28Z</time>
      </trkpt>
      <trkpt lat="45.64606" lon="6.54148">
        <ele>1814</ele>
        <time>2025-02-20T15:35:29Z</time>
      </trkpt>
      <trkpt lat="45.64608" lon="6.54148">
        <ele>1814</ele>
        <time>2025-02-20T15:35:30Z</time>
      </trkpt>
      <trkpt lat="45.6461" lon="6.54149">
        <ele>1814</ele>
        <time>2025-02-20T15:35:31Z</time>
      </trkpt>
      <trkpt lat="45.64613" lon="6.5415">
        <ele>1813</ele>
        <time>2025-02-20T15:35:32Z</time>
      </trkpt>
      <trkpt lat="45.64614" lon="6.54152">
        <ele>1812.2</ele>
        <time>2025-02-20T15:35:33Z</time>
      </trkpt>
      <trkpt lat="45.64616" lon="6.54153">
        <ele>1812.2</ele>
        <time>2025-02-20T15:35:34Z</time>
      </trkpt>
      <trkpt lat="45.64617" lon="6.54153">
        <ele>1812.2</ele>
        <time>2025-02-20T15:35:35Z</time>
      </trkpt>
      <trkpt lat="45.64619" lon="6.54154">
        <ele>1812.2</ele>
        <time>2025-02-20T15:35:36Z</time>
      </trkpt>
      <trkpt lat="45.64621" lon="6.54155">
        <ele>1811.6</ele>
        <time>2025-02-20T15:35:37Z</time>
      </trkpt>
      <trkpt lat="45.64624" lon="6.54157">
        <ele>1811.6</ele>
        <time>2025-02-20T15:35:38Z</time>
      </trkpt>
      <trkpt lat="45.64628" lon="6.54159">
        <ele>1811.6</ele>
        <time>2025-02-20T15:35:39Z</time>
      </trkpt>
      <trkpt lat="45.64631" lon="6.54162">
        <ele>1810.6</ele>
        <time>2025-02-20T15:35:40Z</time>
      </trkpt>
      <trkpt lat="45.64633" lon="6.54164">
        <ele>1807.6</ele>
        <time>2025-02-20T15:35:41Z</time>
      </trkpt>
      <trkpt lat="45.64636" lon="6.54166">
        <ele>1807.6</ele>
        <time>2025-02-20T15:35:42Z</time>
      </trkpt>
      <trkpt lat="45.64639" lon="6.54169">
        <ele>1807.6</ele>
        <time>2025-02-20T15:35:43Z</time>
      </trkpt>
      <trkpt lat="45.64642" lon="6.54171">
        <ele>1806.6</ele>
        <time>2025-02-20T15:35:44Z</time>
      </trkpt>
      <trkpt lat="45.64644" lon="6.54172">
        <ele>1804.4</ele>
        <time>2025-02-20T15:35:45Z</time>
      </trkpt>
      <trkpt lat="45.64645" lon="6.54173">
        <ele>1804.4</ele>
        <time>2025-02-20T15:35:46Z</time>
      </trkpt>
      <trkpt lat="45.64647" lon="6.54175">
        <ele>1804.4</ele>
        <time>2025-02-20T15:35:47Z</time>
      </trkpt>
      <trkpt lat="45.64649" lon="6.54177">
        <ele>1804.4</ele>
        <time>2025-02-20T15:35:48Z</time>
      </trkpt>
      <trkpt lat="45.64651" lon="6.54177">
        <ele>1803.2</ele>
        <time>2025-02-20T15:35:49Z</time>
      </trkpt>
      <trkpt lat="45.64653" lon="6.54179">
        <ele>1803.2</ele>
        <time>2025-02-20T15:35:50Z</time>
      </trkpt>
      <trkpt lat="45.64654" lon="6.5418">
        <ele>1803.2</ele>
        <time>2025-02-20T15:35:51Z</time>
      </trkpt>
      <trkpt lat="45.64656" lon="6.54181">
        <ele>1802.2</ele>
        <time>2025-02-20T15:35:52Z</time>
      </trkpt>
      <trkpt lat="45.64658" lon="6.54182">
        <ele>1800.8</ele>
        <time>2025-02-20T15:35:53Z</time>
      </trkpt>
      <trkpt lat="45.64662" lon="6.54182">
        <ele>1800.8</ele>
        <time>2025-02-20T15:35:54Z</time>
      </trkpt>
      <trkpt lat="45.64666" lon="6.54181">
        <ele>1800.8</ele>
        <time>2025-02-20T15:35:55Z</time>
      </trkpt>
      <trkpt lat="45.64669" lon="6.54182">
        <ele>1800.8</ele>
        <time>2025-02-20T15:35:56Z</time>
      </trkpt>
      <trkpt lat="45.64672" lon="6.54183">
        <ele>1797.8</ele>
        <time>2025-02-20T15:35:57Z</time>
      </trkpt>
      <trkpt lat="45.64674" lon="6.54184">
        <ele>1797.8</ele>
        <time>2025-02-20T15:35:58Z</time>
      </trkpt>
      <trkpt lat="45.64676" lon="6.54186">
        <ele>1797.8</ele>
        <time>2025-02-20T15:35:59Z</time>
      </trkpt>
      <trkpt lat="45.64677" lon="6.54188">
        <ele>1797.8</ele>
        <time>2025-02-20T15:36:00Z</time>
      </trkpt>
      <trkpt lat="45.64678" lon="6.54188">
        <ele>1797.4</ele>
        <time>2025-02-20T15:36:01Z</time>
      </trkpt>
      <trkpt lat="45.64679" lon="6.54187">
        <ele>1797.4</ele>
        <time>2025-02-20T15:36:02Z</time>
      </trkpt>
      <trkpt lat="45.64679" lon="6.54187">
        <ele>1797.4</ele>
        <time>2025-02-20T15:36:03Z</time>
      </trkpt>
      <trkpt lat="45.64679" lon="6.54187">
        <ele>1797.6</ele>
        <time>2025-02-20T15:36:04Z</time>
      </trkpt>
      <trkpt lat="45.64679" lon="6.54187">
        <ele>1798</ele>
        <time>2025-02-20T15:36:05Z</time>
      </trkpt>
      <trkpt lat="45.64679" lon="6.54187">
        <ele>1798</ele>
        <time>2025-02-20T15:36:06Z</time>
      </trkpt>
      <trkpt lat="45.64679" lon="6.54187">
        <ele>1798</ele>
        <time>2025-02-20T15:36:07Z</time>
      </trkpt>
      <trkpt lat="45.64679" lon="6.54187">
        <ele>1797</ele>
        <time>2025-02-20T15:36:08Z</time>
      </trkpt>
      <trkpt lat="45.64682" lon="6.5419">
        <ele>1799.2</ele>
        <time>2025-02-20T15:36:09Z</time>
      </trkpt>
      <trkpt lat="45.64684" lon="6.5419">
        <ele>1799.2</ele>
        <time>2025-02-20T15:36:10Z</time>
      </trkpt>
      <trkpt lat="45.64684" lon="6.5419">
        <ele>1799.2</ele>
        <time>2025-02-20T15:36:11Z</time>
      </trkpt>
      <trkpt lat="45.64684" lon="6.5419">
        <ele>1798.2</ele>
        <time>2025-02-20T15:36:12Z</time>
      </trkpt>
      <trkpt lat="45.64688" lon="6.54191">
        <ele>1798.6</ele>
        <time>2025-02-20T15:36:13Z</time>
      </trkpt>
      <trkpt lat="45.6469" lon="6.54191">
        <ele>1798.6</ele>
        <time>2025-02-20T15:36:14Z</time>
      </trkpt>
      <trkpt lat="45.64692" lon="6.54192">
        <ele>1798.6</ele>
        <time>2025-02-20T15:36:15Z</time>
      </trkpt>
      <trkpt lat="45.64694" lon="6.54193">
        <ele>1797.6</ele>
        <time>2025-02-20T15:36:16Z</time>
      </trkpt>
      <trkpt lat="45.64696" lon="6.54193">
        <ele>1796.4</ele>
        <time>2025-02-20T15:36:17Z</time>
      </trkpt>
      <trkpt lat="45.64696" lon="6.54193">
        <ele>1796.4</ele>
        <time>2025-02-20T15:36:18Z</time>
      </trkpt>
      <trkpt lat="45.64697" lon="6.54195">
        <ele>1796.4</ele>
        <time>2025-02-20T15:36:19Z</time>
      </trkpt>
      <trkpt lat="45.64697" lon="6.54196">
        <ele>1796.8</ele>
        <time>2025-02-20T15:36:20Z</time>
      </trkpt>
      <trkpt lat="45.64697" lon="6.54196">
        <ele>1796.8</ele>
        <time>2025-02-20T15:36:21Z</time>
      </trkpt>
      <trkpt lat="45.64697" lon="6.54196">
        <ele>1796.8</ele>
        <time>2025-02-20T15:36:22Z</time>
      </trkpt>
      <trkpt lat="45.64697" lon="6.54196">
        <ele>1796.8</ele>
        <time>2025-02-20T15:36:23Z</time>
      </trkpt>
      <trkpt lat="45.64697" lon="6.54196">
        <ele>1797</ele>
        <time>2025-02-20T15:36:24Z</time>
      </trkpt>
      <trkpt lat="45.64697" lon="6.54196">
        <ele>1797</ele>
        <time>2025-02-20T15:36:25Z</time>
      </trkpt>
      <trkpt lat="45.64697" lon="6.54196">
        <ele>1797</ele>
        <time>2025-02-20T15:36:26Z</time>
      </trkpt>
      <trkpt lat="45.64697" lon="6.54196">
        <ele>1797</ele>
        <time>2025-02-20T15:36:27Z</time>
      </trkpt>
      <trkpt lat="45.64697" lon="6.54196">
        <ele>1797</ele>
        <time>2025-02-20T15:36:28Z</time>
      </trkpt>
      <trkpt lat="45.64697" lon="6.54196">
        <ele>1797.2</ele>
        <time>2025-02-20T15:36:29Z</time>
      </trkpt>
      <trkpt lat="45.64697" lon="6.54196">
        <ele>1797.2</ele>
        <time>2025-02-20T15:36:30Z</time>
      </trkpt>
      <trkpt lat="45.64697" lon="6.54196">
        <ele>1797.2</ele>
        <time>2025-02-20T15:36:31Z</time>
      </trkpt>
      <trkpt lat="45.64697" lon="6.54196">
        <ele>1797.2</ele>
        <time>2025-02-20T15:36:32Z</time>
      </trkpt>
      <trkpt lat="45.64697" lon="6.54196">
        <ele>1797</ele>
        <time>2025-02-20T15:36:33Z</time>
      </trkpt>
      <trkpt lat="45.64697" lon="6.54196">
        <ele>1797</ele>
        <time>2025-02-20T15:36:34Z</time>
      </trkpt>
      <trkpt lat="45.64697" lon="6.54196">
        <ele>1797</ele>
        <time>2025-02-20T15:36:35Z</time>
      </trkpt>
      <trkpt lat="45.64697" lon="6.54196">
        <ele>1796.8</ele>
        <time>2025-02-20T15:36:36Z</time>
      </trkpt>
      <trkpt lat="45.64697" lon="6.54196">
        <ele>1796.2</ele>
        <time>2025-02-20T15:36:37Z</time>
      </trkpt>
      <trkpt lat="45.6469" lon="6.54216">
        <ele>1796.2</ele>
        <time>2025-02-20T15:36:38Z</time>
      </trkpt>
      <trkpt lat="45.64691" lon="6.54219">
        <ele>1796.2</ele>
        <time>2025-02-20T15:36:39Z</time>
      </trkpt>
      <trkpt lat="45.64692" lon="6.54222">
        <ele>1796.2</ele>
        <time>2025-02-20T15:36:40Z</time>
      </trkpt>
      <trkpt lat="45.64693" lon="6.54224">
        <ele>1794.6</ele>
        <time>2025-02-20T15:36:41Z</time>
      </trkpt>
      <trkpt lat="45.64695" lon="6.54226">
        <ele>1794.6</ele>
        <time>2025-02-20T15:36:42Z</time>
      </trkpt>
      <trkpt lat="45.64696" lon="6.54229">
        <ele>1794.6</ele>
        <time>2025-02-20T15:36:43Z</time>
      </trkpt>
      <trkpt lat="45.64698" lon="6.54232">
        <ele>1793.6</ele>
        <time>2025-02-20T15:36:44Z</time>
      </trkpt>
      <trkpt lat="45.647" lon="6.54234">
        <ele>1791.8</ele>
        <time>2025-02-20T15:36:45Z</time>
      </trkpt>
      <trkpt lat="45.64701" lon="6.54238">
        <ele>1791.8</ele>
        <time>2025-02-20T15:36:46Z</time>
      </trkpt>
      <trkpt lat="45.64703" lon="6.54241">
        <ele>1791.8</ele>
        <time>2025-02-20T15:36:47Z</time>
      </trkpt>
      <trkpt lat="45.64705" lon="6.54245">
        <ele>1790.8</ele>
        <time>2025-02-20T15:36:48Z</time>
      </trkpt>
      <trkpt lat="45.64707" lon="6.54248">
        <ele>1789.4</ele>
        <time>2025-02-20T15:36:49Z</time>
      </trkpt>
      <trkpt lat="45.64709" lon="6.54252">
        <ele>1789.4</ele>
        <time>2025-02-20T15:36:50Z</time>
      </trkpt>
      <trkpt lat="45.64711" lon="6.54255">
        <ele>1789.4</ele>
        <time>2025-02-20T15:36:51Z</time>
      </trkpt>
      <trkpt lat="45.64713" lon="6.54257">
        <ele>1788.4</ele>
        <time>2025-02-20T15:36:52Z</time>
      </trkpt>
      <trkpt lat="45.64714" lon="6.54259">
        <ele>1787.2</ele>
        <time>2025-02-20T15:36:53Z</time>
      </trkpt>
      <trkpt lat="45.64717" lon="6.54262">
        <ele>1787.2</ele>
        <time>2025-02-20T15:36:54Z</time>
      </trkpt>
      <trkpt lat="45.64719" lon="6.54265">
        <ele>1787.2</ele>
        <time>2025-02-20T15:36:55Z</time>
      </trkpt>
      <trkpt lat="45.6472" lon="6.54271">
        <ele>1786.2</ele>
        <time>2025-02-20T15:36:56Z</time>
      </trkpt>
      <trkpt lat="45.6472" lon="6.54275">
        <ele>1784</ele>
        <time>2025-02-20T15:36:57Z</time>
      </trkpt>
      <trkpt lat="45.64722" lon="6.54277">
        <ele>1784</ele>
        <time>2025-02-20T15:36:58Z</time>
      </trkpt>
      <trkpt lat="45.64723" lon="6.54279">
        <ele>1784</ele>
        <time>2025-02-20T15:36:59Z</time>
      </trkpt>
      <trkpt lat="45.64723" lon="6.5428">
        <ele>1783</ele>
        <time>2025-02-20T15:37:00Z</time>
      </trkpt>
      <trkpt lat="45.64724" lon="6.54282">
        <ele>1782.4</ele>
        <time>2025-02-20T15:37:01Z</time>
      </trkpt>
      <trkpt lat="45.64725" lon="6.54284">
        <ele>1782.4</ele>
        <time>2025-02-20T15:37:02Z</time>
      </trkpt>
      <trkpt lat="45.64726" lon="6.54285">
        <ele>1782.4</ele>
        <time>2025-02-20T15:37:03Z</time>
      </trkpt>
      <trkpt lat="45.64726" lon="6.54287">
        <ele>1781.8</ele>
        <time>2025-02-20T15:37:04Z</time>
      </trkpt>
      <trkpt lat="45.64728" lon="6.5429">
        <ele>1781.8</ele>
        <time>2025-02-20T15:37:05Z</time>
      </trkpt>
      <trkpt lat="45.64729" lon="6.54293">
        <ele>1781.8</ele>
        <time>2025-02-20T15:37:06Z</time>
      </trkpt>
      <trkpt lat="45.6473" lon="6.54297">
        <ele>1781.8</ele>
        <time>2025-02-20T15:37:07Z</time>
      </trkpt>
      <trkpt lat="45.6473" lon="6.54297">
        <ele>1780.8</ele>
        <time>2025-02-20T15:37:08Z</time>
      </trkpt>
      <trkpt lat="45.64731" lon="6.54298">
        <ele>1779.2</ele>
        <time>2025-02-20T15:37:09Z</time>
      </trkpt>
      <trkpt lat="45.64733" lon="6.54298">
        <ele>1779.2</ele>
        <time>2025-02-20T15:37:10Z</time>
      </trkpt>
      <trkpt lat="45.64734" lon="6.54299">
        <ele>1779.2</ele>
        <time>2025-02-20T15:37:11Z</time>
      </trkpt>
      <trkpt lat="45.64736" lon="6.54301">
        <ele>1778.6</ele>
        <time>2025-02-20T15:37:12Z</time>
      </trkpt>
      <trkpt lat="45.64738" lon="6.54303">
        <ele>1778</ele>
        <time>2025-02-20T15:37:13Z</time>
      </trkpt>
      <trkpt lat="45.64739" lon="6.54307">
        <ele>1778</ele>
        <time>2025-02-20T15:37:14Z</time>
      </trkpt>
      <trkpt lat="45.64739" lon="6.54309">
        <ele>1778</ele>
        <time>2025-02-20T15:37:15Z</time>
      </trkpt>
      <trkpt lat="45.6474" lon="6.5431">
        <ele>1778</ele>
        <time>2025-02-20T15:37:16Z</time>
      </trkpt>
      <trkpt lat="45.6474" lon="6.5431">
        <ele>1776.6</ele>
        <time>2025-02-20T15:37:17Z</time>
      </trkpt>
      <trkpt lat="45.6474" lon="6.5431">
        <ele>1776.6</ele>
        <time>2025-02-20T15:37:18Z</time>
      </trkpt>
      <trkpt lat="45.6474" lon="6.5431">
        <ele>1776.6</ele>
        <time>2025-02-20T15:37:19Z</time>
      </trkpt>
      <trkpt lat="45.6474" lon="6.5431">
        <ele>1776.6</ele>
        <time>2025-02-20T15:37:20Z</time>
      </trkpt>
      <trkpt lat="45.6474" lon="6.54314">
        <ele>1776.6</ele>
        <time>2025-02-20T15:37:21Z</time>
      </trkpt>
      <trkpt lat="45.6474" lon="6.54316">
        <ele>1776.6</ele>
        <time>2025-02-20T15:37:22Z</time>
      </trkpt>
      <trkpt lat="45.64742" lon="6.54317">
        <ele>1776.6</ele>
        <time>2025-02-20T15:37:23Z</time>
      </trkpt>
      <trkpt lat="45.64746" lon="6.54314">
        <ele>1775.6</ele>
        <time>2025-02-20T15:37:24Z</time>
      </trkpt>
      <trkpt lat="45.64747" lon="6.54312">
        <ele>1771.4</ele>
        <time>2025-02-20T15:37:25Z</time>
      </trkpt>
      <trkpt lat="45.64745" lon="6.54313">
        <ele>1771.4</ele>
        <time>2025-02-20T15:37:26Z</time>
      </trkpt>
      <trkpt lat="45.64743" lon="6.54315">
        <ele>1771.4</ele>
        <time>2025-02-20T15:37:27Z</time>
      </trkpt>
      <trkpt lat="45.64743" lon="6.54314">
        <ele>1771.4</ele>
        <time>2025-02-20T15:37:28Z</time>
      </trkpt>
      <trkpt lat="45.64744" lon="6.54314">
        <ele>1770</ele>
        <time>2025-02-20T15:37:29Z</time>
      </trkpt>
      <trkpt lat="45.64745" lon="6.54318">
        <ele>1770</ele>
        <time>2025-02-20T15:37:30Z</time>
      </trkpt>
      <trkpt lat="45.64747" lon="6.54321">
        <ele>1770</ele>
        <time>2025-02-20T15:37:31Z</time>
      </trkpt>
      <trkpt lat="45.64748" lon="6.54322">
        <ele>1769</ele>
        <time>2025-02-20T15:37:32Z</time>
      </trkpt>
      <trkpt lat="45.64749" lon="6.54324">
        <ele>1766.4</ele>
        <time>2025-02-20T15:37:33Z</time>
      </trkpt>
      <trkpt lat="45.6475" lon="6.54325">
        <ele>1766.4</ele>
        <time>2025-02-20T15:37:34Z</time>
      </trkpt>
      <trkpt lat="45.64754" lon="6.54324">
        <ele>1766.4</ele>
        <time>2025-02-20T15:37:35Z</time>
      </trkpt>
      <trkpt lat="45.64754" lon="6.54321">
        <ele>1765.4</ele>
        <time>2025-02-20T15:37:36Z</time>
      </trkpt>
      <trkpt lat="45.64754" lon="6.54318">
        <ele>1760.8</ele>
        <time>2025-02-20T15:37:37Z</time>
      </trkpt>
      <trkpt lat="45.64755" lon="6.54316">
        <ele>1760.8</ele>
        <time>2025-02-20T15:37:38Z</time>
      </trkpt>
      <trkpt lat="45.64755" lon="6.54315">
        <ele>1760.8</ele>
        <time>2025-02-20T15:37:39Z</time>
      </trkpt>
      <trkpt lat="45.64756" lon="6.54314">
        <ele>1760.8</ele>
        <time>2025-02-20T15:37:40Z</time>
      </trkpt>
      <trkpt lat="45.64757" lon="6.54315">
        <ele>1758.6</ele>
        <time>2025-02-20T15:37:41Z</time>
      </trkpt>
      <trkpt lat="45.64758" lon="6.54317">
        <ele>1758.6</ele>
        <time>2025-02-20T15:37:42Z</time>
      </trkpt>
      <trkpt lat="45.64759" lon="6.54318">
        <ele>1758.6</ele>
        <time>2025-02-20T15:37:43Z</time>
      </trkpt>
      <trkpt lat="45.64761" lon="6.54319">
        <ele>1758.6</ele>
        <time>2025-02-20T15:37:44Z</time>
      </trkpt>
      <trkpt lat="45.64762" lon="6.54319">
        <ele>1757</ele>
        <time>2025-02-20T15:37:45Z</time>
      </trkpt>
      <trkpt lat="45.64763" lon="6.5432">
        <ele>1757</ele>
        <time>2025-02-20T15:37:46Z</time>
      </trkpt>
      <trkpt lat="45.64766" lon="6.54318">
        <ele>1757</ele>
        <time>2025-02-20T15:37:47Z</time>
      </trkpt>
      <trkpt lat="45.64766" lon="6.54312">
        <ele>1756</ele>
        <time>2025-02-20T15:37:48Z</time>
      </trkpt>
      <trkpt lat="45.64766" lon="6.54309">
        <ele>1753</ele>
        <time>2025-02-20T15:37:49Z</time>
      </trkpt>
      <trkpt lat="45.64766" lon="6.54307">
        <ele>1753</ele>
        <time>2025-02-20T15:37:50Z</time>
      </trkpt>
      <trkpt lat="45.64766" lon="6.54306">
        <ele>1753</ele>
        <time>2025-02-20T15:37:51Z</time>
      </trkpt>
      <trkpt lat="45.64766" lon="6.54306">
        <ele>1752.4</ele>
        <time>2025-02-20T15:37:52Z</time>
      </trkpt>
      <trkpt lat="45.64766" lon="6.54305">
        <ele>1752.2</ele>
        <time>2025-02-20T15:37:53Z</time>
      </trkpt>
      <trkpt lat="45.64766" lon="6.54303">
        <ele>1752.2</ele>
        <time>2025-02-20T15:37:54Z</time>
      </trkpt>
      <trkpt lat="45.64768" lon="6.54304">
        <ele>1752.2</ele>
        <time>2025-02-20T15:37:55Z</time>
      </trkpt>
      <trkpt lat="45.6477" lon="6.54305">
        <ele>1751.2</ele>
        <time>2025-02-20T15:37:56Z</time>
      </trkpt>
      <trkpt lat="45.6477" lon="6.54307">
        <ele>1749.2</ele>
        <time>2025-02-20T15:37:57Z</time>
      </trkpt>
      <trkpt lat="45.64772" lon="6.54308">
        <ele>1749.2</ele>
        <time>2025-02-20T15:37:58Z</time>
      </trkpt>
      <trkpt lat="45.64773" lon="6.5431">
        <ele>1749.2</ele>
        <time>2025-02-20T15:37:59Z</time>
      </trkpt>
      <trkpt lat="45.64774" lon="6.54311">
        <ele>1748.2</ele>
        <time>2025-02-20T15:38:00Z</time>
      </trkpt>
      <trkpt lat="45.64776" lon="6.54309">
        <ele>1746.8</ele>
        <time>2025-02-20T15:38:01Z</time>
      </trkpt>
      <trkpt lat="45.64775" lon="6.54306">
        <ele>1746.8</ele>
        <time>2025-02-20T15:38:02Z</time>
      </trkpt>
      <trkpt lat="45.64774" lon="6.54304">
        <ele>1746.8</ele>
        <time>2025-02-20T15:38:03Z</time>
      </trkpt>
      <trkpt lat="45.64774" lon="6.54303">
        <ele>1745.8</ele>
        <time>2025-02-20T15:38:04Z</time>
      </trkpt>
      <trkpt lat="45.64774" lon="6.54301">
        <ele>1744.8</ele>
        <time>2025-02-20T15:38:05Z</time>
      </trkpt>
      <trkpt lat="45.64774" lon="6.54298">
        <ele>1744.8</ele>
        <time>2025-02-20T15:38:06Z</time>
      </trkpt>
      <trkpt lat="45.64774" lon="6.54296">
        <ele>1744.8</ele>
        <time>2025-02-20T15:38:07Z</time>
      </trkpt>
      <trkpt lat="45.64775" lon="6.54292">
        <ele>1743.8</ele>
        <time>2025-02-20T15:38:08Z</time>
      </trkpt>
      <trkpt lat="45.64777" lon="6.54291">
        <ele>1742.4</ele>
        <time>2025-02-20T15:38:09Z</time>
      </trkpt>
      <trkpt lat="45.6478" lon="6.54294">
        <ele>1742.4</ele>
        <time>2025-02-20T15:38:10Z</time>
      </trkpt>
      <trkpt lat="45.64782" lon="6.54297">
        <ele>1742.4</ele>
        <time>2025-02-20T15:38:11Z</time>
      </trkpt>
      <trkpt lat="45.64782" lon="6.54298">
        <ele>1741.4</ele>
        <time>2025-02-20T15:38:12Z</time>
      </trkpt>
      <trkpt lat="45.64783" lon="6.54299">
        <ele>1739.2</ele>
        <time>2025-02-20T15:38:13Z</time>
      </trkpt>
      <trkpt lat="45.64784" lon="6.54301">
        <ele>1739.2</ele>
        <time>2025-02-20T15:38:14Z</time>
      </trkpt>
      <trkpt lat="45.64784" lon="6.54303">
        <ele>1739.2</ele>
        <time>2025-02-20T15:38:15Z</time>
      </trkpt>
      <trkpt lat="45.64787" lon="6.54303">
        <ele>1739.2</ele>
        <time>2025-02-20T15:38:16Z</time>
      </trkpt>
      <trkpt lat="45.64788" lon="6.54302">
        <ele>1736.6</ele>
        <time>2025-02-20T15:38:17Z</time>
      </trkpt>
      <trkpt lat="45.64789" lon="6.543">
        <ele>1736.6</ele>
        <time>2025-02-20T15:38:18Z</time>
      </trkpt>
      <trkpt lat="45.6479" lon="6.54299">
        <ele>1736.6</ele>
        <time>2025-02-20T15:38:19Z</time>
      </trkpt>
      <trkpt lat="45.64793" lon="6.54296">
        <ele>1735.6</ele>
        <time>2025-02-20T15:38:20Z</time>
      </trkpt>
      <trkpt lat="45.64795" lon="6.54298">
        <ele>1734.2</ele>
        <time>2025-02-20T15:38:21Z</time>
      </trkpt>
      <trkpt lat="45.64796" lon="6.543">
        <ele>1734.2</ele>
        <time>2025-02-20T15:38:22Z</time>
      </trkpt>
      <trkpt lat="45.64796" lon="6.543">
        <ele>1734.2</ele>
        <time>2025-02-20T15:38:23Z</time>
      </trkpt>
      <trkpt lat="45.64797" lon="6.54299">
        <ele>1733.2</ele>
        <time>2025-02-20T15:38:24Z</time>
      </trkpt>
      <trkpt lat="45.64797" lon="6.54299">
        <ele>1732</ele>
        <time>2025-02-20T15:38:25Z</time>
      </trkpt>
      <trkpt lat="45.64797" lon="6.54299">
        <ele>1732</ele>
        <time>2025-02-20T15:38:26Z</time>
      </trkpt>
      <trkpt lat="45.64797" lon="6.54299">
        <ele>1732</ele>
        <time>2025-02-20T15:38:27Z</time>
      </trkpt>
      <trkpt lat="45.64797" lon="6.54299">
        <ele>1732</ele>
        <time>2025-02-20T15:38:28Z</time>
      </trkpt>
      <trkpt lat="45.64798" lon="6.54301">
        <ele>1731.8</ele>
        <time>2025-02-20T15:38:29Z</time>
      </trkpt>
      <trkpt lat="45.64798" lon="6.54302">
        <ele>1731.8</ele>
        <time>2025-02-20T15:38:30Z</time>
      </trkpt>
      <trkpt lat="45.64797" lon="6.54303">
        <ele>1731.8</ele>
        <time>2025-02-20T15:38:31Z</time>
      </trkpt>
      <trkpt lat="45.64798" lon="6.54303">
        <ele>1731.4</ele>
        <time>2025-02-20T15:38:32Z</time>
      </trkpt>
      <trkpt lat="45.64798" lon="6.54303">
        <ele>1730.6</ele>
        <time>2025-02-20T15:38:33Z</time>
      </trkpt>
      <trkpt lat="45.64798" lon="6.54303">
        <ele>1730.6</ele>
        <time>2025-02-20T15:38:34Z</time>
      </trkpt>
      <trkpt lat="45.64798" lon="6.54303">
        <ele>1730.6</ele>
        <time>2025-02-20T15:38:35Z</time>
      </trkpt>
      <trkpt lat="45.64798" lon="6.54303">
        <ele>1731.2</ele>
        <time>2025-02-20T15:38:36Z</time>
      </trkpt>
      <trkpt lat="45.64798" lon="6.54303">
        <ele>1730.8</ele>
        <time>2025-02-20T15:38:37Z</time>
      </trkpt>
      <trkpt lat="45.64798" lon="6.54303">
        <ele>1730.8</ele>
        <time>2025-02-20T15:38:38Z</time>
      </trkpt>
      <trkpt lat="45.64798" lon="6.54303">
        <ele>1730.8</ele>
        <time>2025-02-20T15:38:39Z</time>
      </trkpt>
      <trkpt lat="45.64798" lon="6.54303">
        <ele>1731.2</ele>
        <time>2025-02-20T15:38:40Z</time>
      </trkpt>
      <trkpt lat="45.64798" lon="6.54303">
        <ele>1731</ele>
        <time>2025-02-20T15:38:41Z</time>
      </trkpt>
      <trkpt lat="45.64798" lon="6.54303">
        <ele>1731</ele>
        <time>2025-02-20T15:38:42Z</time>
      </trkpt>
      <trkpt lat="45.64798" lon="6.54303">
        <ele>1731</ele>
        <time>2025-02-20T15:38:43Z</time>
      </trkpt>
      <trkpt lat="45.64798" lon="6.54303">
        <ele>1731</ele>
        <time>2025-02-20T15:38:44Z</time>
      </trkpt>
      <trkpt lat="45.64798" lon="6.54303">
        <ele>1731</ele>
        <time>2025-02-20T15:38:45Z</time>
      </trkpt>
      <trkpt lat="45.64798" lon="6.54303">
        <ele>1731</ele>
        <time>2025-02-20T15:38:46Z</time>
      </trkpt>
      <trkpt lat="45.64798" lon="6.54303">
        <ele>1731</ele>
        <time>2025-02-20T15:38:47Z</time>
      </trkpt>
      <trkpt lat="45.64798" lon="6.54303">
        <ele>1731</ele>
        <time>2025-02-20T15:38:48Z</time>
      </trkpt>
      <trkpt lat="45.64803" lon="6.54301">
        <ele>1730.6</ele>
        <time>2025-02-20T15:38:49Z</time>
      </trkpt>
      <trkpt lat="45.64805" lon="6.54301">
        <ele>1730.6</ele>
        <time>2025-02-20T15:38:50Z</time>
      </trkpt>
      <trkpt lat="45.64807" lon="6.54302">
        <ele>1730.6</ele>
        <time>2025-02-20T15:38:51Z</time>
      </trkpt>
      <trkpt lat="45.64809" lon="6.543">
        <ele>1729.8</ele>
        <time>2025-02-20T15:38:52Z</time>
      </trkpt>
      <trkpt lat="45.64812" lon="6.54302">
        <ele>1727.6</ele>
        <time>2025-02-20T15:38:53Z</time>
      </trkpt>
      <trkpt lat="45.64812" lon="6.54304">
        <ele>1727.6</ele>
        <time>2025-02-20T15:38:54Z</time>
      </trkpt>
      <trkpt lat="45.64814" lon="6.54308">
        <ele>1727.6</ele>
        <time>2025-02-20T15:38:55Z</time>
      </trkpt>
      <trkpt lat="45.64817" lon="6.54309">
        <ele>1726.6</ele>
        <time>2025-02-20T15:38:56Z</time>
      </trkpt>
      <trkpt lat="45.64819" lon="6.54307">
        <ele>1724.2</ele>
        <time>2025-02-20T15:38:57Z</time>
      </trkpt>
      <trkpt lat="45.64821" lon="6.54309">
        <ele>1724.2</ele>
        <time>2025-02-20T15:38:58Z</time>
      </trkpt>
      <trkpt lat="45.64824" lon="6.54313">
        <ele>1724.2</ele>
        <time>2025-02-20T15:38:59Z</time>
      </trkpt>
      <trkpt lat="45.64824" lon="6.54318">
        <ele>1723.2</ele>
        <time>2025-02-20T15:39:00Z</time>
      </trkpt>
      <trkpt lat="45.64825" lon="6.54322">
        <ele>1720.4</ele>
        <time>2025-02-20T15:39:01Z</time>
      </trkpt>
      <trkpt lat="45.64828" lon="6.54326">
        <ele>1720.4</ele>
        <time>2025-02-20T15:39:02Z</time>
      </trkpt>
      <trkpt lat="45.6483" lon="6.54328">
        <ele>1720.4</ele>
        <time>2025-02-20T15:39:03Z</time>
      </trkpt>
      <trkpt lat="45.64832" lon="6.54331">
        <ele>1719.4</ele>
        <time>2025-02-20T15:39:04Z</time>
      </trkpt>
      <trkpt lat="45.64835" lon="6.54334">
        <ele>1718</ele>
        <time>2025-02-20T15:39:05Z</time>
      </trkpt>
      <trkpt lat="45.64838" lon="6.54337">
        <ele>1718</ele>
        <time>2025-02-20T15:39:06Z</time>
      </trkpt>
      <trkpt lat="45.64841" lon="6.54341">
        <ele>1718</ele>
        <time>2025-02-20T15:39:07Z</time>
      </trkpt>
      <trkpt lat="45.64844" lon="6.54345">
        <ele>1717</ele>
        <time>2025-02-20T15:39:08Z</time>
      </trkpt>
      <trkpt lat="45.64847" lon="6.54349">
        <ele>1715.6</ele>
        <time>2025-02-20T15:39:09Z</time>
      </trkpt>
      <trkpt lat="45.6485" lon="6.54353">
        <ele>1715.6</ele>
        <time>2025-02-20T15:39:10Z</time>
      </trkpt>
      <trkpt lat="45.64853" lon="6.54356">
        <ele>1715.6</ele>
        <time>2025-02-20T15:39:11Z</time>
      </trkpt>
      <trkpt lat="45.64855" lon="6.54359">
        <ele>1714.6</ele>
        <time>2025-02-20T15:39:12Z</time>
      </trkpt>
      <trkpt lat="45.64857" lon="6.54362">
        <ele>1712.6</ele>
        <time>2025-02-20T15:39:13Z</time>
      </trkpt>
      <trkpt lat="45.6486" lon="6.54366">
        <ele>1712.6</ele>
        <time>2025-02-20T15:39:14Z</time>
      </trkpt>
      <trkpt lat="45.64863" lon="6.5437">
        <ele>1712.6</ele>
        <time>2025-02-20T15:39:15Z</time>
      </trkpt>
      <trkpt lat="45.64865" lon="6.54374">
        <ele>1711.8</ele>
        <time>2025-02-20T15:39:16Z</time>
      </trkpt>
      <trkpt lat="45.64868" lon="6.54378">
        <ele>1711.2</ele>
        <time>2025-02-20T15:39:17Z</time>
      </trkpt>
      <trkpt lat="45.64871" lon="6.54382">
        <ele>1711.2</ele>
        <time>2025-02-20T15:39:18Z</time>
      </trkpt>
      <trkpt lat="45.64874" lon="6.54387">
        <ele>1711.2</ele>
        <time>2025-02-20T15:39:19Z</time>
      </trkpt>
      <trkpt lat="45.64876" lon="6.54391">
        <ele>1710.2</ele>
        <time>2025-02-20T15:39:20Z</time>
      </trkpt>
      <trkpt lat="45.64877" lon="6.54394">
        <ele>1708.4</ele>
        <time>2025-02-20T15:39:21Z</time>
      </trkpt>
      <trkpt lat="45.64878" lon="6.54395">
        <ele>1708.4</ele>
        <time>2025-02-20T15:39:22Z</time>
      </trkpt>
      <trkpt lat="45.64878" lon="6.54394">
        <ele>1708.4</ele>
        <time>2025-02-20T15:39:23Z</time>
      </trkpt>
      <trkpt lat="45.64878" lon="6.54394">
        <ele>1708.4</ele>
        <time>2025-02-20T15:39:24Z</time>
      </trkpt>
      <trkpt lat="45.64878" lon="6.54394">
        <ele>1708.8</ele>
        <time>2025-02-20T15:39:25Z</time>
      </trkpt>
      <trkpt lat="45.64878" lon="6.54394">
        <ele>1708.8</ele>
        <time>2025-02-20T15:39:26Z</time>
      </trkpt>
      <trkpt lat="45.64878" lon="6.54394">
        <ele>1708.8</ele>
        <time>2025-02-20T15:39:27Z</time>
      </trkpt>
      <trkpt lat="45.64878" lon="6.54394">
        <ele>1708.8</ele>
        <time>2025-02-20T15:39:28Z</time>
      </trkpt>
      <trkpt lat="45.64878" lon="6.54394">
        <ele>1708.4</ele>
        <time>2025-02-20T15:39:29Z</time>
      </trkpt>
      <trkpt lat="45.64878" lon="6.54394">
        <ele>1708.4</ele>
        <time>2025-02-20T15:39:30Z</time>
      </trkpt>
      <trkpt lat="45.64878" lon="6.54394">
        <ele>1708.4</ele>
        <time>2025-02-20T15:39:31Z</time>
      </trkpt>
      <trkpt lat="45.64878" lon="6.54392">
        <ele>1707.8</ele>
        <time>2025-02-20T15:39:32Z</time>
      </trkpt>
      <trkpt lat="45.64878" lon="6.54388">
        <ele>1707</ele>
        <time>2025-02-20T15:39:33Z</time>
      </trkpt>
      <trkpt lat="45.64878" lon="6.54386">
        <ele>1707</ele>
        <time>2025-02-20T15:39:34Z</time>
      </trkpt>
      <trkpt lat="45.64878" lon="6.54384">
        <ele>1707</ele>
        <time>2025-02-20T15:39:35Z</time>
      </trkpt>
      <trkpt lat="45.64878" lon="6.54383">
        <ele>1707</ele>
        <time>2025-02-20T15:39:36Z</time>
      </trkpt>
      <trkpt lat="45.64878" lon="6.54381">
        <ele>1704.2</ele>
        <time>2025-02-20T15:39:37Z</time>
      </trkpt>
      <trkpt lat="45.64879" lon="6.54377">
        <ele>1704.2</ele>
        <time>2025-02-20T15:39:38Z</time>
      </trkpt>
      <trkpt lat="45.64882" lon="6.54378">
        <ele>1704.2</ele>
        <time>2025-02-20T15:39:39Z</time>
      </trkpt>
      <trkpt lat="45.64884" lon="6.54381">
        <ele>1704.2</ele>
        <time>2025-02-20T15:39:40Z</time>
      </trkpt>
      <trkpt lat="45.64886" lon="6.54383">
        <ele>1701.8</ele>
        <time>2025-02-20T15:39:41Z</time>
      </trkpt>
      <trkpt lat="45.64888" lon="6.54387">
        <ele>1701.8</ele>
        <time>2025-02-20T15:39:42Z</time>
      </trkpt>
      <trkpt lat="45.6489" lon="6.5439">
        <ele>1701.8</ele>
        <time>2025-02-20T15:39:43Z</time>
      </trkpt>
      <trkpt lat="45.64892" lon="6.54392">
        <ele>1700.8</ele>
        <time>2025-02-20T15:39:44Z</time>
      </trkpt>
      <trkpt lat="45.64894" lon="6.54396">
        <ele>1699.6</ele>
        <time>2025-02-20T15:39:45Z</time>
      </trkpt>
      <trkpt lat="45.64896" lon="6.54398">
        <ele>1699.6</ele>
        <time>2025-02-20T15:39:46Z</time>
      </trkpt>
      <trkpt lat="45.64898" lon="6.54402">
        <ele>1699.6</ele>
        <time>2025-02-20T15:39:47Z</time>
      </trkpt>
      <trkpt lat="45.64901" lon="6.54405">
        <ele>1698.6</ele>
        <time>2025-02-20T15:39:48Z</time>
      </trkpt>
      <trkpt lat="45.64903" lon="6.54409">
        <ele>1697</ele>
        <time>2025-02-20T15:39:49Z</time>
      </trkpt>
      <trkpt lat="45.64907" lon="6.54414">
        <ele>1697</ele>
        <time>2025-02-20T15:39:50Z</time>
      </trkpt>
      <trkpt lat="45.64911" lon="6.5442">
        <ele>1697</ele>
        <time>2025-02-20T15:39:51Z</time>
      </trkpt>
      <trkpt lat="45.64913" lon="6.54425">
        <ele>1696</ele>
        <time>2025-02-20T15:39:52Z</time>
      </trkpt>
      <trkpt lat="45.64914" lon="6.54427">
        <ele>1692.8</ele>
        <time>2025-02-20T15:39:53Z</time>
      </trkpt>
      <trkpt lat="45.64915" lon="6.54429">
        <ele>1692.8</ele>
        <time>2025-02-20T15:39:54Z</time>
      </trkpt>
      <trkpt lat="45.64916" lon="6.54429">
        <ele>1692.8</ele>
        <time>2025-02-20T15:39:55Z</time>
      </trkpt>
      <trkpt lat="45.64918" lon="6.5443">
        <ele>1692.8</ele>
        <time>2025-02-20T15:39:56Z</time>
      </trkpt>
      <trkpt lat="45.64921" lon="6.54433">
        <ele>1691</ele>
        <time>2025-02-20T15:39:57Z</time>
      </trkpt>
      <trkpt lat="45.64923" lon="6.54435">
        <ele>1691</ele>
        <time>2025-02-20T15:39:58Z</time>
      </trkpt>
      <trkpt lat="45.64924" lon="6.54436">
        <ele>1691</ele>
        <time>2025-02-20T15:39:59Z</time>
      </trkpt>
      <trkpt lat="45.64925" lon="6.54436">
        <ele>1690</ele>
        <time>2025-02-20T15:40:00Z</time>
      </trkpt>
      <trkpt lat="45.64926" lon="6.54438">
        <ele>1689.2</ele>
        <time>2025-02-20T15:40:01Z</time>
      </trkpt>
      <trkpt lat="45.64929" lon="6.5444">
        <ele>1689.2</ele>
        <time>2025-02-20T15:40:02Z</time>
      </trkpt>
      <trkpt lat="45.64931" lon="6.54441">
        <ele>1689.2</ele>
        <time>2025-02-20T15:40:03Z</time>
      </trkpt>
      <trkpt lat="45.64935" lon="6.54444">
        <ele>1688.2</ele>
        <time>2025-02-20T15:40:04Z</time>
      </trkpt>
      <trkpt lat="45.64936" lon="6.54446">
        <ele>1687.4</ele>
        <time>2025-02-20T15:40:05Z</time>
      </trkpt>
      <trkpt lat="45.64936" lon="6.54446">
        <ele>1687.4</ele>
        <time>2025-02-20T15:40:06Z</time>
      </trkpt>
      <trkpt lat="45.64936" lon="6.54446">
        <ele>1687.4</ele>
        <time>2025-02-20T15:40:07Z</time>
      </trkpt>
      <trkpt lat="45.64936" lon="6.54446">
        <ele>1687.6</ele>
        <time>2025-02-20T15:40:08Z</time>
      </trkpt>
      <trkpt lat="45.64936" lon="6.54446">
        <ele>1687.6</ele>
        <time>2025-02-20T15:40:09Z</time>
      </trkpt>
      <trkpt lat="45.64936" lon="6.54446">
        <ele>1687.6</ele>
        <time>2025-02-20T15:40:10Z</time>
      </trkpt>
      <trkpt lat="45.64936" lon="6.54446">
        <ele>1687.6</ele>
        <time>2025-02-20T15:40:11Z</time>
      </trkpt>
      <trkpt lat="45.64936" lon="6.54446">
        <ele>1687.4</ele>
        <time>2025-02-20T15:40:12Z</time>
      </trkpt>
      <trkpt lat="45.64936" lon="6.54446">
        <ele>1686.8</ele>
        <time>2025-02-20T15:40:13Z</time>
      </trkpt>
      <trkpt lat="45.64936" lon="6.54446">
        <ele>1686.8</ele>
        <time>2025-02-20T15:40:14Z</time>
      </trkpt>
      <trkpt lat="45.64936" lon="6.54446">
        <ele>1686.8</ele>
        <time>2025-02-20T15:40:15Z</time>
      </trkpt>
      <trkpt lat="45.64941" lon="6.5445">
        <ele>1686.8</ele>
        <time>2025-02-20T15:40:16Z</time>
      </trkpt>
      <trkpt lat="45.64942" lon="6.54451">
        <ele>1686.4</ele>
        <time>2025-02-20T15:40:17Z</time>
      </trkpt>
      <trkpt lat="45.64942" lon="6.54453">
        <ele>1686.4</ele>
        <time>2025-02-20T15:40:18Z</time>
      </trkpt>
      <trkpt lat="45.64944" lon="6.54454">
        <ele>1686.4</ele>
        <time>2025-02-20T15:40:19Z</time>
      </trkpt>
      <trkpt lat="45.64946" lon="6.54458">
        <ele>1685.4</ele>
        <time>2025-02-20T15:40:20Z</time>
      </trkpt>
      <trkpt lat="45.64948" lon="6.54462">
        <ele>1684.2</ele>
        <time>2025-02-20T15:40:21Z</time>
      </trkpt>
      <trkpt lat="45.64951" lon="6.54464">
        <ele>1684.2</ele>
        <time>2025-02-20T15:40:22Z</time>
      </trkpt>
      <trkpt lat="45.64953" lon="6.54466">
        <ele>1684.2</ele>
        <time>2025-02-20T15:40:23Z</time>
      </trkpt>
      <trkpt lat="45.64954" lon="6.54467">
        <ele>1683.2</ele>
        <time>2025-02-20T15:40:24Z</time>
      </trkpt>
      <trkpt lat="45.64955" lon="6.54468">
        <ele>1682.6</ele>
        <time>2025-02-20T15:40:25Z</time>
      </trkpt>
      <trkpt lat="45.64958" lon="6.54467">
        <ele>1682.6</ele>
        <time>2025-02-20T15:40:26Z</time>
      </trkpt>
      <trkpt lat="45.64959" lon="6.54464">
        <ele>1682.6</ele>
        <time>2025-02-20T15:40:27Z</time>
      </trkpt>
      <trkpt lat="45.64959" lon="6.54462">
        <ele>1681.6</ele>
        <time>2025-02-20T15:40:28Z</time>
      </trkpt>
      <trkpt lat="45.6496" lon="6.54462">
        <ele>1678.8</ele>
        <time>2025-02-20T15:40:29Z</time>
      </trkpt>
      <trkpt lat="45.64961" lon="6.54463">
        <ele>1678.8</ele>
        <time>2025-02-20T15:40:30Z</time>
      </trkpt>
      <trkpt lat="45.64962" lon="6.54464">
        <ele>1678.8</ele>
        <time>2025-02-20T15:40:31Z</time>
      </trkpt>
      <trkpt lat="45.64963" lon="6.54466">
        <ele>1677.8</ele>
        <time>2025-02-20T15:40:32Z</time>
      </trkpt>
      <trkpt lat="45.64964" lon="6.54468">
        <ele>1674.2</ele>
        <time>2025-02-20T15:40:33Z</time>
      </trkpt>
      <trkpt lat="45.64966" lon="6.5447">
        <ele>1674.2</ele>
        <time>2025-02-20T15:40:34Z</time>
      </trkpt>
      <trkpt lat="45.64967" lon="6.54471">
        <ele>1674.2</ele>
        <time>2025-02-20T15:40:35Z</time>
      </trkpt>
      <trkpt lat="45.64969" lon="6.54472">
        <ele>1674.2</ele>
        <time>2025-02-20T15:40:36Z</time>
      </trkpt>
      <trkpt lat="45.64972" lon="6.54472">
        <ele>1674</ele>
        <time>2025-02-20T15:40:37Z</time>
      </trkpt>
      <trkpt lat="45.64976" lon="6.54473">
        <ele>1674</ele>
        <time>2025-02-20T15:40:38Z</time>
      </trkpt>
      <trkpt lat="45.64976" lon="6.54473">
        <ele>1674</ele>
        <time>2025-02-20T15:40:39Z</time>
      </trkpt>
      <trkpt lat="45.64977" lon="6.54472">
        <ele>1673</ele>
        <time>2025-02-20T15:40:40Z</time>
      </trkpt>
      <trkpt lat="45.64977" lon="6.54472">
        <ele>1672.2</ele>
        <time>2025-02-20T15:40:41Z</time>
      </trkpt>
      <trkpt lat="45.64977" lon="6.54472">
        <ele>1672.2</ele>
        <time>2025-02-20T15:40:42Z</time>
      </trkpt>
      <trkpt lat="45.64977" lon="6.54472">
        <ele>1672.2</ele>
        <time>2025-02-20T15:40:43Z</time>
      </trkpt>
      <trkpt lat="45.64977" lon="6.54472">
        <ele>1672.2</ele>
        <time>2025-02-20T15:40:44Z</time>
      </trkpt>
      <trkpt lat="45.64977" lon="6.54472">
        <ele>1672.2</ele>
        <time>2025-02-20T15:40:45Z</time>
      </trkpt>
      <trkpt lat="45.64981" lon="6.54477">
        <ele>1672.2</ele>
        <time>2025-02-20T15:40:46Z</time>
      </trkpt>
      <trkpt lat="45.64982" lon="6.54478">
        <ele>1672.2</ele>
        <time>2025-02-20T15:40:47Z</time>
      </trkpt>
      <trkpt lat="45.64984" lon="6.54479">
        <ele>1672.2</ele>
        <time>2025-02-20T15:40:48Z</time>
      </trkpt>
      <trkpt lat="45.64985" lon="6.5448">
        <ele>1670.8</ele>
        <time>2025-02-20T15:40:49Z</time>
      </trkpt>
      <trkpt lat="45.64987" lon="6.54483">
        <ele>1670.8</ele>
        <time>2025-02-20T15:40:50Z</time>
      </trkpt>
      <trkpt lat="45.64989" lon="6.54481">
        <ele>1670.8</ele>
        <time>2025-02-20T15:40:51Z</time>
      </trkpt>
      <trkpt lat="45.64992" lon="6.54482">
        <ele>1669.8</ele>
        <time>2025-02-20T15:40:52Z</time>
      </trkpt>
      <trkpt lat="45.64994" lon="6.54486">
        <ele>1667.8</ele>
        <time>2025-02-20T15:40:53Z</time>
      </trkpt>
      <trkpt lat="45.64995" lon="6.5449">
        <ele>1667.8</ele>
        <time>2025-02-20T15:40:54Z</time>
      </trkpt>
      <trkpt lat="45.64995" lon="6.5449">
        <ele>1667.8</ele>
        <time>2025-02-20T15:40:55Z</time>
      </trkpt>
      <trkpt lat="45.64996" lon="6.54491">
        <ele>1666.8</ele>
        <time>2025-02-20T15:40:56Z</time>
      </trkpt>
      <trkpt lat="45.64996" lon="6.54491">
        <ele>1666.2</ele>
        <time>2025-02-20T15:40:57Z</time>
      </trkpt>
      <trkpt lat="45.64997" lon="6.54492">
        <ele>1666.2</ele>
        <time>2025-02-20T15:40:58Z</time>
      </trkpt>
      <trkpt lat="45.64999" lon="6.54494">
        <ele>1666.2</ele>
        <time>2025-02-20T15:40:59Z</time>
      </trkpt>
      <trkpt lat="45.65" lon="6.54495">
        <ele>1665.2</ele>
        <time>2025-02-20T15:41:00Z</time>
      </trkpt>
      <trkpt lat="45.65003" lon="6.54495">
        <ele>1664.2</ele>
        <time>2025-02-20T15:41:01Z</time>
      </trkpt>
      <trkpt lat="45.65005" lon="6.54492">
        <ele>1664.2</ele>
        <time>2025-02-20T15:41:02Z</time>
      </trkpt>
      <trkpt lat="45.65007" lon="6.54492">
        <ele>1664.2</ele>
        <time>2025-02-20T15:41:03Z</time>
      </trkpt>
      <trkpt lat="45.65009" lon="6.54496">
        <ele>1663.2</ele>
        <time>2025-02-20T15:41:04Z</time>
      </trkpt>
      <trkpt lat="45.6501" lon="6.54498">
        <ele>1660.4</ele>
        <time>2025-02-20T15:41:05Z</time>
      </trkpt>
      <trkpt lat="45.65011" lon="6.54499">
        <ele>1660.4</ele>
        <time>2025-02-20T15:41:06Z</time>
      </trkpt>
      <trkpt lat="45.65014" lon="6.54501">
        <ele>1660.4</ele>
        <time>2025-02-20T15:41:07Z</time>
      </trkpt>
      <trkpt lat="45.65017" lon="6.54499">
        <ele>1659.4</ele>
        <time>2025-02-20T15:41:08Z</time>
      </trkpt>
      <trkpt lat="45.65019" lon="6.54497">
        <ele>1658</ele>
        <time>2025-02-20T15:41:09Z</time>
      </trkpt>
      <trkpt lat="45.65019" lon="6.54499">
        <ele>1658</ele>
        <time>2025-02-20T15:41:10Z</time>
      </trkpt>
      <trkpt lat="45.6502" lon="6.545">
        <ele>1658</ele>
        <time>2025-02-20T15:41:11Z</time>
      </trkpt>
      <trkpt lat="45.6502" lon="6.545">
        <ele>1657</ele>
        <time>2025-02-20T15:41:12Z</time>
      </trkpt>
      <trkpt lat="45.6502" lon="6.545">
        <ele>1656.8</ele>
        <time>2025-02-20T15:41:13Z</time>
      </trkpt>
      <trkpt lat="45.65021" lon="6.54502">
        <ele>1656.8</ele>
        <time>2025-02-20T15:41:14Z</time>
      </trkpt>
      <trkpt lat="45.65022" lon="6.54504">
        <ele>1656.8</ele>
        <time>2025-02-20T15:41:15Z</time>
      </trkpt>
      <trkpt lat="45.65024" lon="6.54504">
        <ele>1656.8</ele>
        <time>2025-02-20T15:41:16Z</time>
      </trkpt>
      <trkpt lat="45.65025" lon="6.54505">
        <ele>1655</ele>
        <time>2025-02-20T15:41:17Z</time>
      </trkpt>
      <trkpt lat="45.65027" lon="6.54507">
        <ele>1655</ele>
        <time>2025-02-20T15:41:18Z</time>
      </trkpt>
      <trkpt lat="45.65028" lon="6.54509">
        <ele>1655</ele>
        <time>2025-02-20T15:41:19Z</time>
      </trkpt>
      <trkpt lat="45.65028" lon="6.5451">
        <ele>1654</ele>
        <time>2025-02-20T15:41:20Z</time>
      </trkpt>
      <trkpt lat="45.65029" lon="6.54513">
        <ele>1652.4</ele>
        <time>2025-02-20T15:41:21Z</time>
      </trkpt>
      <trkpt lat="45.6503" lon="6.54514">
        <ele>1652.4</ele>
        <time>2025-02-20T15:41:22Z</time>
      </trkpt>
      <trkpt lat="45.6503" lon="6.54514">
        <ele>1652.4</ele>
        <time>2025-02-20T15:41:23Z</time>
      </trkpt>
      <trkpt lat="45.6503" lon="6.54514">
        <ele>1652.4</ele>
        <time>2025-02-20T15:41:24Z</time>
      </trkpt>
      <trkpt lat="45.65031" lon="6.54513">
        <ele>1651.6</ele>
        <time>2025-02-20T15:41:25Z</time>
      </trkpt>
      <trkpt lat="45.65031" lon="6.54514">
        <ele>1651.6</ele>
        <time>2025-02-20T15:41:26Z</time>
      </trkpt>
      <trkpt lat="45.65031" lon="6.54514">
        <ele>1651.6</ele>
        <time>2025-02-20T15:41:27Z</time>
      </trkpt>
      <trkpt lat="45.65032" lon="6.54513">
        <ele>1651.6</ele>
        <time>2025-02-20T15:41:28Z</time>
      </trkpt>
      <trkpt lat="45.65033" lon="6.54513">
        <ele>1651.2</ele>
        <time>2025-02-20T15:41:29Z</time>
      </trkpt>
      <trkpt lat="45.65034" lon="6.54513">
        <ele>1651.2</ele>
        <time>2025-02-20T15:41:30Z</time>
      </trkpt>
      <trkpt lat="45.65035" lon="6.54513">
        <ele>1651.2</ele>
        <time>2025-02-20T15:41:31Z</time>
      </trkpt>
      <trkpt lat="45.65037" lon="6.54515">
        <ele>1650.2</ele>
        <time>2025-02-20T15:41:32Z</time>
      </trkpt>
      <trkpt lat="45.65037" lon="6.54517">
        <ele>1649.2</ele>
        <time>2025-02-20T15:41:33Z</time>
      </trkpt>
      <trkpt lat="45.65037" lon="6.54517">
        <ele>1649.2</ele>
        <time>2025-02-20T15:41:34Z</time>
      </trkpt>
      <trkpt lat="45.65037" lon="6.54517">
        <ele>1649.2</ele>
        <time>2025-02-20T15:41:35Z</time>
      </trkpt>
      <trkpt lat="45.65037" lon="6.54517">
        <ele>1648.4</ele>
        <time>2025-02-20T15:41:36Z</time>
      </trkpt>
      <trkpt lat="45.65037" lon="6.54517">
        <ele>1648.6</ele>
        <time>2025-02-20T15:41:37Z</time>
      </trkpt>
      <trkpt lat="45.65037" lon="6.54517">
        <ele>1648.6</ele>
        <time>2025-02-20T15:41:38Z</time>
      </trkpt>
      <trkpt lat="45.65037" lon="6.54517">
        <ele>1648.6</ele>
        <time>2025-02-20T15:41:39Z</time>
      </trkpt>
      <trkpt lat="45.65037" lon="6.54517">
        <ele>1648.6</ele>
        <time>2025-02-20T15:41:40Z</time>
      </trkpt>
      <trkpt lat="45.65037" lon="6.54517">
        <ele>1648</ele>
        <time>2025-02-20T15:41:41Z</time>
      </trkpt>
      <trkpt lat="45.65042" lon="6.54521">
        <ele>1648</ele>
        <time>2025-02-20T15:41:42Z</time>
      </trkpt>
      <trkpt lat="45.65043" lon="6.54522">
        <ele>1648</ele>
        <time>2025-02-20T15:41:43Z</time>
      </trkpt>
      <trkpt lat="45.65044" lon="6.54523">
        <ele>1647.4</ele>
        <time>2025-02-20T15:41:44Z</time>
      </trkpt>
      <trkpt lat="45.65044" lon="6.54523">
        <ele>1646.8</ele>
        <time>2025-02-20T15:41:45Z</time>
      </trkpt>
      <trkpt lat="45.65044" lon="6.54523">
        <ele>1646.8</ele>
        <time>2025-02-20T15:41:46Z</time>
      </trkpt>
      <trkpt lat="45.65044" lon="6.54523">
        <ele>1646.8</ele>
        <time>2025-02-20T15:41:47Z</time>
      </trkpt>
      <trkpt lat="45.65044" lon="6.54523">
        <ele>1646.8</ele>
        <time>2025-02-20T15:41:48Z</time>
      </trkpt>
      <trkpt lat="45.65044" lon="6.54523">
        <ele>1647</ele>
        <time>2025-02-20T15:41:49Z</time>
      </trkpt>
      <trkpt lat="45.65044" lon="6.54523">
        <ele>1647</ele>
        <time>2025-02-20T15:41:50Z</time>
      </trkpt>
      <trkpt lat="45.65044" lon="6.54523">
        <ele>1647</ele>
        <time>2025-02-20T15:41:51Z</time>
      </trkpt>
      <trkpt lat="45.65044" lon="6.54523">
        <ele>1647</ele>
        <time>2025-02-20T15:41:52Z</time>
      </trkpt>
      <trkpt lat="45.65044" lon="6.54523">
        <ele>1647.2</ele>
        <time>2025-02-20T15:41:53Z</time>
      </trkpt>
      <trkpt lat="45.65044" lon="6.54523">
        <ele>1647.2</ele>
        <time>2025-02-20T15:41:54Z</time>
      </trkpt>
      <trkpt lat="45.65044" lon="6.54523">
        <ele>1647.2</ele>
        <time>2025-02-20T15:41:55Z</time>
      </trkpt>
      <trkpt lat="45.65044" lon="6.54523">
        <ele>1647.2</ele>
        <time>2025-02-20T15:41:56Z</time>
      </trkpt>
      <trkpt lat="45.65044" lon="6.54523">
        <ele>1647</ele>
        <time>2025-02-20T15:41:57Z</time>
      </trkpt>
      <trkpt lat="45.65044" lon="6.54523">
        <ele>1647</ele>
        <time>2025-02-20T15:41:58Z</time>
      </trkpt>
      <trkpt lat="45.65047" lon="6.54525">
        <ele>1647</ele>
        <time>2025-02-20T15:41:59Z</time>
      </trkpt>
      <trkpt lat="45.65049" lon="6.54528">
        <ele>1646</ele>
        <time>2025-02-20T15:42:00Z</time>
      </trkpt>
      <trkpt lat="45.6505" lon="6.5453">
        <ele>1646.2</ele>
        <time>2025-02-20T15:42:01Z</time>
      </trkpt>
      <trkpt lat="45.6505" lon="6.5453">
        <ele>1646.2</ele>
        <time>2025-02-20T15:42:02Z</time>
      </trkpt>
      <trkpt lat="45.6505" lon="6.5453">
        <ele>1646.2</ele>
        <time>2025-02-20T15:42:03Z</time>
      </trkpt>
      <trkpt lat="45.6505" lon="6.5453">
        <ele>1646.2</ele>
        <time>2025-02-20T15:42:04Z</time>
      </trkpt>
      <trkpt lat="45.6505" lon="6.5453">
        <ele>1645.6</ele>
        <time>2025-02-20T15:42:05Z</time>
      </trkpt>
      <trkpt lat="45.6505" lon="6.5453">
        <ele>1645.6</ele>
        <time>2025-02-20T15:42:06Z</time>
      </trkpt>
      <trkpt lat="45.6505" lon="6.5453">
        <ele>1645.6</ele>
        <time>2025-02-20T15:42:07Z</time>
      </trkpt>
      <trkpt lat="45.6505" lon="6.5453">
        <ele>1644.6</ele>
        <time>2025-02-20T15:42:08Z</time>
      </trkpt>
      <trkpt lat="45.6505" lon="6.5453">
        <ele>1643.6</ele>
        <time>2025-02-20T15:42:09Z</time>
      </trkpt>
      <trkpt lat="45.65053" lon="6.54532">
        <ele>1643.6</ele>
        <time>2025-02-20T15:42:10Z</time>
      </trkpt>
      <trkpt lat="45.65056" lon="6.54535">
        <ele>1643.6</ele>
        <time>2025-02-20T15:42:11Z</time>
      </trkpt>
      <trkpt lat="45.65057" lon="6.54536">
        <ele>1642.6</ele>
        <time>2025-02-20T15:42:12Z</time>
      </trkpt>
      <trkpt lat="45.65059" lon="6.54537">
        <ele>1641.8</ele>
        <time>2025-02-20T15:42:13Z</time>
      </trkpt>
      <trkpt lat="45.65059" lon="6.54537">
        <ele>1641.8</ele>
        <time>2025-02-20T15:42:14Z</time>
      </trkpt>
      <trkpt lat="45.6506" lon="6.54538">
        <ele>1641.8</ele>
        <time>2025-02-20T15:42:15Z</time>
      </trkpt>
      <trkpt lat="45.65061" lon="6.5454">
        <ele>1640.8</ele>
        <time>2025-02-20T15:42:16Z</time>
      </trkpt>
      <trkpt lat="45.65064" lon="6.54541">
        <ele>1638.8</ele>
        <time>2025-02-20T15:42:17Z</time>
      </trkpt>
      <trkpt lat="45.65065" lon="6.54543">
        <ele>1638.8</ele>
        <time>2025-02-20T15:42:18Z</time>
      </trkpt>
      <trkpt lat="45.65065" lon="6.54544">
        <ele>1638.8</ele>
        <time>2025-02-20T15:42:19Z</time>
      </trkpt>
      <trkpt lat="45.65065" lon="6.54544">
        <ele>1638</ele>
        <time>2025-02-20T15:42:20Z</time>
      </trkpt>
      <trkpt lat="45.65065" lon="6.54544">
        <ele>1637.6</ele>
        <time>2025-02-20T15:42:21Z</time>
      </trkpt>
      <trkpt lat="45.65065" lon="6.54544">
        <ele>1637.6</ele>
        <time>2025-02-20T15:42:22Z</time>
      </trkpt>
      <trkpt lat="45.65065" lon="6.54544">
        <ele>1637.6</ele>
        <time>2025-02-20T15:42:23Z</time>
      </trkpt>
      <trkpt lat="45.65065" lon="6.54544">
        <ele>1637.6</ele>
        <time>2025-02-20T15:42:24Z</time>
      </trkpt>
      <trkpt lat="45.65065" lon="6.54544">
        <ele>1638</ele>
        <time>2025-02-20T15:42:25Z</time>
      </trkpt>
      <trkpt lat="45.65065" lon="6.54544">
        <ele>1638</ele>
        <time>2025-02-20T15:42:26Z</time>
      </trkpt>
      <trkpt lat="45.65065" lon="6.54544">
        <ele>1638</ele>
        <time>2025-02-20T15:42:27Z</time>
      </trkpt>
      <trkpt lat="45.65065" lon="6.54544">
        <ele>1637.4</ele>
        <time>2025-02-20T15:42:28Z</time>
      </trkpt>
      <trkpt lat="45.65065" lon="6.54544">
        <ele>1637.4</ele>
        <time>2025-02-20T15:42:29Z</time>
      </trkpt>
      <trkpt lat="45.65065" lon="6.54544">
        <ele>1637.4</ele>
        <time>2025-02-20T15:42:30Z</time>
      </trkpt>
      <trkpt lat="45.65065" lon="6.54544">
        <ele>1637.4</ele>
        <time>2025-02-20T15:42:31Z</time>
      </trkpt>
      <trkpt lat="45.65065" lon="6.54544">
        <ele>1636.4</ele>
        <time>2025-02-20T15:42:32Z</time>
      </trkpt>
      <trkpt lat="45.65065" lon="6.54544">
        <ele>1637</ele>
        <time>2025-02-20T15:42:33Z</time>
      </trkpt>
      <trkpt lat="45.65067" lon="6.54543">
        <ele>1637</ele>
        <time>2025-02-20T15:42:34Z</time>
      </trkpt>
      <trkpt lat="45.65068" lon="6.54544">
        <ele>1637</ele>
        <time>2025-02-20T15:42:35Z</time>
      </trkpt>
      <trkpt lat="45.65068" lon="6.54544">
        <ele>1636</ele>
        <time>2025-02-20T15:42:36Z</time>
      </trkpt>
      <trkpt lat="45.65069" lon="6.54543">
        <ele>1635.8</ele>
        <time>2025-02-20T15:42:37Z</time>
      </trkpt>
      <trkpt lat="45.6507" lon="6.54543">
        <ele>1635.8</ele>
        <time>2025-02-20T15:42:38Z</time>
      </trkpt>
      <trkpt lat="45.6507" lon="6.54542">
        <ele>1635.8</ele>
        <time>2025-02-20T15:42:39Z</time>
      </trkpt>
      <trkpt lat="45.65071" lon="6.54542">
        <ele>1634.8</ele>
        <time>2025-02-20T15:42:40Z</time>
      </trkpt>
      <trkpt lat="45.65071" lon="6.54542">
        <ele>1634.6</ele>
        <time>2025-02-20T15:42:41Z</time>
      </trkpt>
      <trkpt lat="45.65071" lon="6.54542">
        <ele>1634.6</ele>
        <time>2025-02-20T15:42:42Z</time>
      </trkpt>
      <trkpt lat="45.65072" lon="6.54542">
        <ele>1634.6</ele>
        <time>2025-02-20T15:42:43Z</time>
      </trkpt>
      <trkpt lat="45.65072" lon="6.54541">
        <ele>1634.6</ele>
        <time>2025-02-20T15:42:44Z</time>
      </trkpt>
      <trkpt lat="45.65073" lon="6.5454">
        <ele>1634.2</ele>
        <time>2025-02-20T15:42:45Z</time>
      </trkpt>
      <trkpt lat="45.65073" lon="6.5454">
        <ele>1634.2</ele>
        <time>2025-02-20T15:42:46Z</time>
      </trkpt>
      <trkpt lat="45.65074" lon="6.54538">
        <ele>1634.2</ele>
        <time>2025-02-20T15:42:47Z</time>
      </trkpt>
      <trkpt lat="45.65075" lon="6.54537">
        <ele>1633.4</ele>
        <time>2025-02-20T15:42:48Z</time>
      </trkpt>
      <trkpt lat="45.65077" lon="6.54535">
        <ele>1632.6</ele>
        <time>2025-02-20T15:42:49Z</time>
      </trkpt>
      <trkpt lat="45.65077" lon="6.54534">
        <ele>1632.6</ele>
        <time>2025-02-20T15:42:50Z</time>
      </trkpt>
      <trkpt lat="45.65077" lon="6.54535">
        <ele>1632.6</ele>
        <time>2025-02-20T15:42:51Z</time>
      </trkpt>
      <trkpt lat="45.65077" lon="6.54535">
        <ele>1632.6</ele>
        <time>2025-02-20T15:42:52Z</time>
      </trkpt>
      <trkpt lat="45.65078" lon="6.54534">
        <ele>1632.4</ele>
        <time>2025-02-20T15:42:53Z</time>
      </trkpt>
      <trkpt lat="45.65079" lon="6.54534">
        <ele>1632.4</ele>
        <time>2025-02-20T15:42:54Z</time>
      </trkpt>
      <trkpt lat="45.65079" lon="6.54534">
        <ele>1632.4</ele>
        <time>2025-02-20T15:42:55Z</time>
      </trkpt>
      <trkpt lat="45.65079" lon="6.54534">
        <ele>1632.2</ele>
        <time>2025-02-20T15:42:56Z</time>
      </trkpt>
      <trkpt lat="45.65079" lon="6.54534">
        <ele>1632</ele>
        <time>2025-02-20T15:42:57Z</time>
      </trkpt>
      <trkpt lat="45.65079" lon="6.54534">
        <ele>1632</ele>
        <time>2025-02-20T15:42:58Z</time>
      </trkpt>
      <trkpt lat="45.65079" lon="6.54534">
        <ele>1632</ele>
        <time>2025-02-20T15:42:59Z</time>
      </trkpt>
      <trkpt lat="45.65079" lon="6.54534">
        <ele>1632</ele>
        <time>2025-02-20T15:43:00Z</time>
      </trkpt>
      <trkpt lat="45.65079" lon="6.54534">
        <ele>1631.8</ele>
        <time>2025-02-20T15:43:01Z</time>
      </trkpt>
      <trkpt lat="45.65079" lon="6.54534">
        <ele>1631.8</ele>
        <time>2025-02-20T15:43:02Z</time>
      </trkpt>
      <trkpt lat="45.65079" lon="6.54534">
        <ele>1631.8</ele>
        <time>2025-02-20T15:43:03Z</time>
      </trkpt>
      <trkpt lat="45.65079" lon="6.54534">
        <ele>1631.8</ele>
        <time>2025-02-20T15:43:04Z</time>
      </trkpt>
      <trkpt lat="45.65079" lon="6.54534">
        <ele>1631.8</ele>
        <time>2025-02-20T15:43:05Z</time>
      </trkpt>
      <trkpt lat="45.65079" lon="6.54534">
        <ele>1631.8</ele>
        <time>2025-02-20T15:43:06Z</time>
      </trkpt>
      <trkpt lat="45.65079" lon="6.54534">
        <ele>1631.8</ele>
        <time>2025-02-20T15:43:07Z</time>
      </trkpt>
      <trkpt lat="45.65079" lon="6.54534">
        <ele>1631.8</ele>
        <time>2025-02-20T15:43:08Z</time>
      </trkpt>
      <trkpt lat="45.65079" lon="6.54534">
        <ele>1631.6</ele>
        <time>2025-02-20T15:43:09Z</time>
      </trkpt>
      <trkpt lat="45.65079" lon="6.54534">
        <ele>1631.6</ele>
        <time>2025-02-20T15:43:10Z</time>
      </trkpt>
      <trkpt lat="45.65079" lon="6.54534">
        <ele>1631.6</ele>
        <time>2025-02-20T15:43:11Z</time>
      </trkpt>
      <trkpt lat="45.65079" lon="6.54534">
        <ele>1631.6</ele>
        <time>2025-02-20T15:43:12Z</time>
      </trkpt>
      <trkpt lat="45.65079" lon="6.54534">
        <ele>1632</ele>
        <time>2025-02-20T15:43:13Z</time>
      </trkpt>
      <trkpt lat="45.65079" lon="6.54534">
        <ele>1632</ele>
        <time>2025-02-20T15:43:14Z</time>
      </trkpt>
      <trkpt lat="45.65079" lon="6.54534">
        <ele>1632</ele>
        <time>2025-02-20T15:43:15Z</time>
      </trkpt>
      <trkpt lat="45.65079" lon="6.54534">
        <ele>1631.8</ele>
        <time>2025-02-20T15:43:16Z</time>
      </trkpt>
      <trkpt lat="45.65079" lon="6.5454">
        <ele>1631.8</ele>
        <time>2025-02-20T15:43:17Z</time>
      </trkpt>
      <trkpt lat="45.65082" lon="6.54544">
        <ele>1631.8</ele>
        <time>2025-02-20T15:43:18Z</time>
      </trkpt>
      <trkpt lat="45.65085" lon="6.54547">
        <ele>1631.8</ele>
        <time>2025-02-20T15:43:19Z</time>
      </trkpt>
      <trkpt lat="45.65086" lon="6.54548">
        <ele>1630.8</ele>
        <time>2025-02-20T15:43:20Z</time>
      </trkpt>
      <trkpt lat="45.65087" lon="6.54548">
        <ele>1629</ele>
        <time>2025-02-20T15:43:21Z</time>
      </trkpt>
      <trkpt lat="45.65087" lon="6.54549">
        <ele>1629</ele>
        <time>2025-02-20T15:43:22Z</time>
      </trkpt>
      <trkpt lat="45.65088" lon="6.54551">
        <ele>1629</ele>
        <time>2025-02-20T15:43:23Z</time>
      </trkpt>
      <trkpt lat="45.65089" lon="6.54552">
        <ele>1628</ele>
        <time>2025-02-20T15:43:24Z</time>
      </trkpt>
      <trkpt lat="45.6509" lon="6.54553">
        <ele>1627.8</ele>
        <time>2025-02-20T15:43:25Z</time>
      </trkpt>
      <trkpt lat="45.65091" lon="6.54555">
        <ele>1627.8</ele>
        <time>2025-02-20T15:43:26Z</time>
      </trkpt>
      <trkpt lat="45.65093" lon="6.54556">
        <ele>1627.8</ele>
        <time>2025-02-20T15:43:27Z</time>
      </trkpt>
      <trkpt lat="45.65093" lon="6.54557">
        <ele>1626.8</ele>
        <time>2025-02-20T15:43:28Z</time>
      </trkpt>
      <trkpt lat="45.65094" lon="6.54557">
        <ele>1626.4</ele>
        <time>2025-02-20T15:43:29Z</time>
      </trkpt>
      <trkpt lat="45.65094" lon="6.54557">
        <ele>1626.4</ele>
        <time>2025-02-20T15:43:30Z</time>
      </trkpt>
      <trkpt lat="45.65094" lon="6.54557">
        <ele>1626.4</ele>
        <time>2025-02-20T15:43:31Z</time>
      </trkpt>
      <trkpt lat="45.65094" lon="6.54557">
        <ele>1626.8</ele>
        <time>2025-02-20T15:43:32Z</time>
      </trkpt>
      <trkpt lat="45.65094" lon="6.54557">
        <ele>1626.8</ele>
        <time>2025-02-20T15:43:33Z</time>
      </trkpt>
      <trkpt lat="45.65094" lon="6.54557">
        <ele>1626.8</ele>
        <time>2025-02-20T15:43:34Z</time>
      </trkpt>
      <trkpt lat="45.65094" lon="6.54557">
        <ele>1626.8</ele>
        <time>2025-02-20T15:43:35Z</time>
      </trkpt>
      <trkpt lat="45.65094" lon="6.54557">
        <ele>1626.6</ele>
        <time>2025-02-20T15:43:36Z</time>
      </trkpt>
      <trkpt lat="45.65094" lon="6.54557">
        <ele>1627.2</ele>
        <time>2025-02-20T15:43:37Z</time>
      </trkpt>
      <trkpt lat="45.65094" lon="6.54557">
        <ele>1627.2</ele>
        <time>2025-02-20T15:43:38Z</time>
      </trkpt>
      <trkpt lat="45.65094" lon="6.54557">
        <ele>1627.2</ele>
        <time>2025-02-20T15:43:39Z</time>
      </trkpt>
      <trkpt lat="45.65094" lon="6.54557">
        <ele>1626.6</ele>
        <time>2025-02-20T15:43:40Z</time>
      </trkpt>
      <trkpt lat="45.65094" lon="6.54557">
        <ele>1627</ele>
        <time>2025-02-20T15:43:41Z</time>
      </trkpt>
      <trkpt lat="45.65094" lon="6.54557">
        <ele>1627</ele>
        <time>2025-02-20T15:43:42Z</time>
      </trkpt>
      <trkpt lat="45.65094" lon="6.54557">
        <ele>1627</ele>
        <time>2025-02-20T15:43:43Z</time>
      </trkpt>
      <trkpt lat="45.65094" lon="6.54557">
        <ele>1626.2</ele>
        <time>2025-02-20T15:43:44Z</time>
      </trkpt>
      <trkpt lat="45.65097" lon="6.54558">
        <ele>1625.6</ele>
        <time>2025-02-20T15:43:45Z</time>
      </trkpt>
      <trkpt lat="45.65098" lon="6.54559">
        <ele>1625.6</ele>
        <time>2025-02-20T15:43:46Z</time>
      </trkpt>
      <trkpt lat="45.65098" lon="6.54559">
        <ele>1625.6</ele>
        <time>2025-02-20T15:43:47Z</time>
      </trkpt>
      <trkpt lat="45.65098" lon="6.54559">
        <ele>1626.6</ele>
        <time>2025-02-20T15:43:48Z</time>
      </trkpt>
      <trkpt lat="45.65098" lon="6.54559">
        <ele>1626.2</ele>
        <time>2025-02-20T15:43:49Z</time>
      </trkpt>
      <trkpt lat="45.65098" lon="6.54559">
        <ele>1626.2</ele>
        <time>2025-02-20T15:43:50Z</time>
      </trkpt>
      <trkpt lat="45.65098" lon="6.54559">
        <ele>1626.2</ele>
        <time>2025-02-20T15:43:51Z</time>
      </trkpt>
      <trkpt lat="45.65098" lon="6.54559">
        <ele>1626.6</ele>
        <time>2025-02-20T15:43:52Z</time>
      </trkpt>
      <trkpt lat="45.65098" lon="6.54559">
        <ele>1626.4</ele>
        <time>2025-02-20T15:43:53Z</time>
      </trkpt>
      <trkpt lat="45.65098" lon="6.54559">
        <ele>1626.4</ele>
        <time>2025-02-20T15:43:54Z</time>
      </trkpt>
      <trkpt lat="45.65098" lon="6.54559">
        <ele>1626.4</ele>
        <time>2025-02-20T15:43:55Z</time>
      </trkpt>
      <trkpt lat="45.65096" lon="6.54561">
        <ele>1626.4</ele>
        <time>2025-02-20T15:43:56Z</time>
      </trkpt>
      <trkpt lat="45.65097" lon="6.54567">
        <ele>1625.8</ele>
        <time>2025-02-20T15:43:57Z</time>
      </trkpt>
      <trkpt lat="45.65098" lon="6.54571">
        <ele>1625.8</ele>
        <time>2025-02-20T15:43:58Z</time>
      </trkpt>
      <trkpt lat="45.651" lon="6.54573">
        <ele>1625.8</ele>
        <time>2025-02-20T15:43:59Z</time>
      </trkpt>
      <trkpt lat="45.65101" lon="6.54574">
        <ele>1624.8</ele>
        <time>2025-02-20T15:44:00Z</time>
      </trkpt>
      <trkpt lat="45.65102" lon="6.54575">
        <ele>1624.4</ele>
        <time>2025-02-20T15:44:01Z</time>
      </trkpt>
      <trkpt lat="45.65103" lon="6.54576">
        <ele>1624.4</ele>
        <time>2025-02-20T15:44:02Z</time>
      </trkpt>
      <trkpt lat="45.65105" lon="6.54579">
        <ele>1624.4</ele>
        <time>2025-02-20T15:44:03Z</time>
      </trkpt>
      <trkpt lat="45.65106" lon="6.54582">
        <ele>1623.4</ele>
        <time>2025-02-20T15:44:04Z</time>
      </trkpt>
      <trkpt lat="45.65107" lon="6.54585">
        <ele>1620.8</ele>
        <time>2025-02-20T15:44:05Z</time>
      </trkpt>
      <trkpt lat="45.65108" lon="6.54588">
        <ele>1620.8</ele>
        <time>2025-02-20T15:44:06Z</time>
      </trkpt>
      <trkpt lat="45.65107" lon="6.5459">
        <ele>1620.8</ele>
        <time>2025-02-20T15:44:07Z</time>
      </trkpt>
      <trkpt lat="45.65107" lon="6.54591">
        <ele>1620</ele>
        <time>2025-02-20T15:44:08Z</time>
      </trkpt>
      <trkpt lat="45.65108" lon="6.54592">
        <ele>1620</ele>
        <time>2025-02-20T15:44:09Z</time>
      </trkpt>
      <trkpt lat="45.65108" lon="6.54593">
        <ele>1620</ele>
        <time>2025-02-20T15:44:10Z</time>
      </trkpt>
      <trkpt lat="45.65109" lon="6.54594">
        <ele>1620</ele>
        <time>2025-02-20T15:44:11Z</time>
      </trkpt>
      <trkpt lat="45.65111" lon="6.54597">
        <ele>1619.6</ele>
        <time>2025-02-20T15:44:12Z</time>
      </trkpt>
      <trkpt lat="45.65113" lon="6.54598">
        <ele>1618</ele>
        <time>2025-02-20T15:44:13Z</time>
      </trkpt>
      <trkpt lat="45.65115" lon="6.54598">
        <ele>1618</ele>
        <time>2025-02-20T15:44:14Z</time>
      </trkpt>
      <trkpt lat="45.65116" lon="6.54598">
        <ele>1618</ele>
        <time>2025-02-20T15:44:15Z</time>
      </trkpt>
      <trkpt lat="45.65116" lon="6.54598">
        <ele>1617</ele>
        <time>2025-02-20T15:44:16Z</time>
      </trkpt>
      <trkpt lat="45.65116" lon="6.54598">
        <ele>1616.2</ele>
        <time>2025-02-20T15:44:17Z</time>
      </trkpt>
      <trkpt lat="45.65116" lon="6.54598">
        <ele>1616.2</ele>
        <time>2025-02-20T15:44:18Z</time>
      </trkpt>
      <trkpt lat="45.65116" lon="6.54598">
        <ele>1616.2</ele>
        <time>2025-02-20T15:44:19Z</time>
      </trkpt>
      <trkpt lat="45.65116" lon="6.54598">
        <ele>1616.2</ele>
        <time>2025-02-20T15:44:20Z</time>
      </trkpt>
      <trkpt lat="45.65116" lon="6.54598">
        <ele>1617</ele>
        <time>2025-02-20T15:44:21Z</time>
      </trkpt>
      <trkpt lat="45.65116" lon="6.54598">
        <ele>1617</ele>
        <time>2025-02-20T15:44:22Z</time>
      </trkpt>
      <trkpt lat="45.65116" lon="6.54598">
        <ele>1617</ele>
        <time>2025-02-20T15:44:23Z</time>
      </trkpt>
      <trkpt lat="45.65116" lon="6.54598">
        <ele>1616</ele>
        <time>2025-02-20T15:44:24Z</time>
      </trkpt>
      <trkpt lat="45.65116" lon="6.54598">
        <ele>1615.6</ele>
        <time>2025-02-20T15:44:25Z</time>
      </trkpt>
      <trkpt lat="45.65117" lon="6.54599">
        <ele>1615.6</ele>
        <time>2025-02-20T15:44:26Z</time>
      </trkpt>
      <trkpt lat="45.65117" lon="6.546">
        <ele>1615.6</ele>
        <time>2025-02-20T15:44:27Z</time>
      </trkpt>
      <trkpt lat="45.65117" lon="6.546">
        <ele>1615.6</ele>
        <time>2025-02-20T15:44:28Z</time>
      </trkpt>
      <trkpt lat="45.65118" lon="6.54601">
        <ele>1615.6</ele>
        <time>2025-02-20T15:44:29Z</time>
      </trkpt>
      <trkpt lat="45.6512" lon="6.54602">
        <ele>1615.6</ele>
        <time>2025-02-20T15:44:30Z</time>
      </trkpt>
      <trkpt lat="45.65121" lon="6.54604">
        <ele>1615.6</ele>
        <time>2025-02-20T15:44:31Z</time>
      </trkpt>
      <trkpt lat="45.65121" lon="6.54605">
        <ele>1614.6</ele>
        <time>2025-02-20T15:44:32Z</time>
      </trkpt>
      <trkpt lat="45.65123" lon="6.54606">
        <ele>1613.2</ele>
        <time>2025-02-20T15:44:33Z</time>
      </trkpt>
      <trkpt lat="45.65125" lon="6.54608">
        <ele>1613.2</ele>
        <time>2025-02-20T15:44:34Z</time>
      </trkpt>
      <trkpt lat="45.65126" lon="6.54612">
        <ele>1613.2</ele>
        <time>2025-02-20T15:44:35Z</time>
      </trkpt>
      <trkpt lat="45.65129" lon="6.54615">
        <ele>1612.2</ele>
        <time>2025-02-20T15:44:36Z</time>
      </trkpt>
      <trkpt lat="45.65129" lon="6.54617">
        <ele>1610.4</ele>
        <time>2025-02-20T15:44:37Z</time>
      </trkpt>
      <trkpt lat="45.6513" lon="6.54619">
        <ele>1610.4</ele>
        <time>2025-02-20T15:44:38Z</time>
      </trkpt>
      <trkpt lat="45.65133" lon="6.5462">
        <ele>1610.4</ele>
        <time>2025-02-20T15:44:39Z</time>
      </trkpt>
      <trkpt lat="45.65136" lon="6.54623">
        <ele>1609.4</ele>
        <time>2025-02-20T15:44:40Z</time>
      </trkpt>
      <trkpt lat="45.65138" lon="6.54624">
        <ele>1608</ele>
        <time>2025-02-20T15:44:41Z</time>
      </trkpt>
      <trkpt lat="45.65139" lon="6.54625">
        <ele>1608</ele>
        <time>2025-02-20T15:44:42Z</time>
      </trkpt>
      <trkpt lat="45.65139" lon="6.54625">
        <ele>1608</ele>
        <time>2025-02-20T15:44:43Z</time>
      </trkpt>
      <trkpt lat="45.65139" lon="6.54625">
        <ele>1607.8</ele>
        <time>2025-02-20T15:44:44Z</time>
      </trkpt>
      <trkpt lat="45.65139" lon="6.54625">
        <ele>1607.4</ele>
        <time>2025-02-20T15:44:45Z</time>
      </trkpt>
      <trkpt lat="45.65139" lon="6.54625">
        <ele>1607.4</ele>
        <time>2025-02-20T15:44:46Z</time>
      </trkpt>
      <trkpt lat="45.65141" lon="6.54627">
        <ele>1607.4</ele>
        <time>2025-02-20T15:44:47Z</time>
      </trkpt>
      <trkpt lat="45.65142" lon="6.54626">
        <ele>1606.8</ele>
        <time>2025-02-20T15:44:48Z</time>
      </trkpt>
      <trkpt lat="45.65143" lon="6.54626">
        <ele>1607.6</ele>
        <time>2025-02-20T15:44:49Z</time>
      </trkpt>
      <trkpt lat="45.65144" lon="6.54629">
        <ele>1607.6</ele>
        <time>2025-02-20T15:44:50Z</time>
      </trkpt>
      <trkpt lat="45.65147" lon="6.54629">
        <ele>1607.6</ele>
        <time>2025-02-20T15:44:51Z</time>
      </trkpt>
      <trkpt lat="45.65151" lon="6.54632">
        <ele>1606.6</ele>
        <time>2025-02-20T15:44:52Z</time>
      </trkpt>
      <trkpt lat="45.65153" lon="6.54636">
        <ele>1603</ele>
        <time>2025-02-20T15:44:53Z</time>
      </trkpt>
      <trkpt lat="45.65156" lon="6.54637">
        <ele>1603</ele>
        <time>2025-02-20T15:44:54Z</time>
      </trkpt>
      <trkpt lat="45.65158" lon="6.54639">
        <ele>1603</ele>
        <time>2025-02-20T15:44:55Z</time>
      </trkpt>
      <trkpt lat="45.65161" lon="6.54639">
        <ele>1602</ele>
        <time>2025-02-20T15:44:56Z</time>
      </trkpt>
      <trkpt lat="45.65162" lon="6.54639">
        <ele>1600.8</ele>
        <time>2025-02-20T15:44:57Z</time>
      </trkpt>
      <trkpt lat="45.65164" lon="6.5464">
        <ele>1600.8</ele>
        <time>2025-02-20T15:44:58Z</time>
      </trkpt>
      <trkpt lat="45.65165" lon="6.5464">
        <ele>1600.8</ele>
        <time>2025-02-20T15:44:59Z</time>
      </trkpt>
      <trkpt lat="45.65166" lon="6.5464">
        <ele>1600</ele>
        <time>2025-02-20T15:45:00Z</time>
      </trkpt>
      <trkpt lat="45.65168" lon="6.54643">
        <ele>1599.8</ele>
        <time>2025-02-20T15:45:01Z</time>
      </trkpt>
      <trkpt lat="45.65169" lon="6.54645">
        <ele>1599.8</ele>
        <time>2025-02-20T15:45:02Z</time>
      </trkpt>
      <trkpt lat="45.6517" lon="6.54646">
        <ele>1599.8</ele>
        <time>2025-02-20T15:45:03Z</time>
      </trkpt>
      <trkpt lat="45.65171" lon="6.54646">
        <ele>1599.2</ele>
        <time>2025-02-20T15:45:04Z</time>
      </trkpt>
      <trkpt lat="45.65171" lon="6.54646">
        <ele>1599.4</ele>
        <time>2025-02-20T15:45:05Z</time>
      </trkpt>
      <trkpt lat="45.65171" lon="6.54646">
        <ele>1599.4</ele>
        <time>2025-02-20T15:45:06Z</time>
      </trkpt>
      <trkpt lat="45.65171" lon="6.54646">
        <ele>1599.4</ele>
        <time>2025-02-20T15:45:07Z</time>
      </trkpt>
      <trkpt lat="45.65171" lon="6.54646">
        <ele>1598.6</ele>
        <time>2025-02-20T15:45:08Z</time>
      </trkpt>
      <trkpt lat="45.65174" lon="6.54646">
        <ele>1597.2</ele>
        <time>2025-02-20T15:45:09Z</time>
      </trkpt>
      <trkpt lat="45.65178" lon="6.54648">
        <ele>1597.2</ele>
        <time>2025-02-20T15:45:10Z</time>
      </trkpt>
      <trkpt lat="45.65179" lon="6.5465">
        <ele>1597.2</ele>
        <time>2025-02-20T15:45:11Z</time>
      </trkpt>
      <trkpt lat="45.6518" lon="6.54651">
        <ele>1597.2</ele>
        <time>2025-02-20T15:45:12Z</time>
      </trkpt>
      <trkpt lat="45.6518" lon="6.54651">
        <ele>1596</ele>
        <time>2025-02-20T15:45:13Z</time>
      </trkpt>
      <trkpt lat="45.6518" lon="6.54651">
        <ele>1596</ele>
        <time>2025-02-20T15:45:14Z</time>
      </trkpt>
      <trkpt lat="45.6518" lon="6.54651">
        <ele>1596</ele>
        <time>2025-02-20T15:45:15Z</time>
      </trkpt>
      <trkpt lat="45.6518" lon="6.54651">
        <ele>1596</ele>
        <time>2025-02-20T15:45:16Z</time>
      </trkpt>
      <trkpt lat="45.6518" lon="6.54651">
        <ele>1596.2</ele>
        <time>2025-02-20T15:45:17Z</time>
      </trkpt>
      <trkpt lat="45.6518" lon="6.54651">
        <ele>1596.2</ele>
        <time>2025-02-20T15:45:18Z</time>
      </trkpt>
      <trkpt lat="45.6518" lon="6.54651">
        <ele>1596.2</ele>
        <time>2025-02-20T15:45:19Z</time>
      </trkpt>
      <trkpt lat="45.6518" lon="6.54651">
        <ele>1596.2</ele>
        <time>2025-02-20T15:45:20Z</time>
      </trkpt>
      <trkpt lat="45.6518" lon="6.54651">
        <ele>1595.6</ele>
        <time>2025-02-20T15:45:21Z</time>
      </trkpt>
      <trkpt lat="45.6518" lon="6.54651">
        <ele>1595.6</ele>
        <time>2025-02-20T15:45:22Z</time>
      </trkpt>
      <trkpt lat="45.6518" lon="6.54651">
        <ele>1595.6</ele>
        <time>2025-02-20T15:45:23Z</time>
      </trkpt>
      <trkpt lat="45.6518" lon="6.54651">
        <ele>1595.6</ele>
        <time>2025-02-20T15:45:24Z</time>
      </trkpt>
      <trkpt lat="45.6518" lon="6.54651">
        <ele>1595.2</ele>
        <time>2025-02-20T15:45:25Z</time>
      </trkpt>
      <trkpt lat="45.6518" lon="6.54651">
        <ele>1595.2</ele>
        <time>2025-02-20T15:45:26Z</time>
      </trkpt>
      <trkpt lat="45.6518" lon="6.54651">
        <ele>1595.2</ele>
        <time>2025-02-20T15:45:27Z</time>
      </trkpt>
      <trkpt lat="45.65184" lon="6.54654">
        <ele>1595.2</ele>
        <time>2025-02-20T15:45:28Z</time>
      </trkpt>
      <trkpt lat="45.65185" lon="6.54655">
        <ele>1595.4</ele>
        <time>2025-02-20T15:45:29Z</time>
      </trkpt>
      <trkpt lat="45.65185" lon="6.54655">
        <ele>1595.4</ele>
        <time>2025-02-20T15:45:30Z</time>
      </trkpt>
      <trkpt lat="45.65185" lon="6.54655">
        <ele>1595.4</ele>
        <time>2025-02-20T15:45:31Z</time>
      </trkpt>
      <trkpt lat="45.65185" lon="6.54655">
        <ele>1595.4</ele>
        <time>2025-02-20T15:45:32Z</time>
      </trkpt>
      <trkpt lat="45.65185" lon="6.54655">
        <ele>1595.2</ele>
        <time>2025-02-20T15:45:33Z</time>
      </trkpt>
      <trkpt lat="45.65186" lon="6.54655">
        <ele>1595.2</ele>
        <time>2025-02-20T15:45:34Z</time>
      </trkpt>
      <trkpt lat="45.65187" lon="6.54656">
        <ele>1595.2</ele>
        <time>2025-02-20T15:45:35Z</time>
      </trkpt>
      <trkpt lat="45.65188" lon="6.54658">
        <ele>1594.4</ele>
        <time>2025-02-20T15:45:36Z</time>
      </trkpt>
      <trkpt lat="45.65188" lon="6.54659">
        <ele>1594</ele>
        <time>2025-02-20T15:45:37Z</time>
      </trkpt>
      <trkpt lat="45.65188" lon="6.5466">
        <ele>1594</ele>
        <time>2025-02-20T15:45:38Z</time>
      </trkpt>
      <trkpt lat="45.65188" lon="6.5466">
        <ele>1594</ele>
        <time>2025-02-20T15:45:39Z</time>
      </trkpt>
      <trkpt lat="45.65188" lon="6.5466">
        <ele>1593.6</ele>
        <time>2025-02-20T15:45:40Z</time>
      </trkpt>
      <trkpt lat="45.65188" lon="6.5466">
        <ele>1594.4</ele>
        <time>2025-02-20T15:45:41Z</time>
      </trkpt>
      <trkpt lat="45.65188" lon="6.5466">
        <ele>1594.4</ele>
        <time>2025-02-20T15:45:42Z</time>
      </trkpt>
      <trkpt lat="45.65188" lon="6.5466">
        <ele>1594.4</ele>
        <time>2025-02-20T15:45:43Z</time>
      </trkpt>
      <trkpt lat="45.65188" lon="6.5466">
        <ele>1594</ele>
        <time>2025-02-20T15:45:44Z</time>
      </trkpt>
      <trkpt lat="45.65188" lon="6.5466">
        <ele>1593.8</ele>
        <time>2025-02-20T15:45:45Z</time>
      </trkpt>
      <trkpt lat="45.65188" lon="6.5466">
        <ele>1593.8</ele>
        <time>2025-02-20T15:45:46Z</time>
      </trkpt>
      <trkpt lat="45.65188" lon="6.5466">
        <ele>1593.8</ele>
        <time>2025-02-20T15:45:47Z</time>
      </trkpt>
      <trkpt lat="45.65188" lon="6.5466">
        <ele>1594.4</ele>
        <time>2025-02-20T15:45:48Z</time>
      </trkpt>
      <trkpt lat="45.65188" lon="6.5466">
        <ele>1594.6</ele>
        <time>2025-02-20T15:45:49Z</time>
      </trkpt>
      <trkpt lat="45.65188" lon="6.5466">
        <ele>1594.6</ele>
        <time>2025-02-20T15:45:50Z</time>
      </trkpt>
      <trkpt lat="45.65188" lon="6.5466">
        <ele>1594.6</ele>
        <time>2025-02-20T15:45:51Z</time>
      </trkpt>
      <trkpt lat="45.65188" lon="6.5466">
        <ele>1593.6</ele>
        <time>2025-02-20T15:45:52Z</time>
      </trkpt>
      <trkpt lat="45.65189" lon="6.54662">
        <ele>1592.8</ele>
        <time>2025-02-20T15:45:53Z</time>
      </trkpt>
      <trkpt lat="45.65191" lon="6.54663">
        <ele>1592.8</ele>
        <time>2025-02-20T15:45:54Z</time>
      </trkpt>
      <trkpt lat="45.65192" lon="6.54665">
        <ele>1592.8</ele>
        <time>2025-02-20T15:45:55Z</time>
      </trkpt>
      <trkpt lat="45.65193" lon="6.54667">
        <ele>1591.8</ele>
        <time>2025-02-20T15:45:56Z</time>
      </trkpt>
      <trkpt lat="45.65195" lon="6.54667">
        <ele>1591</ele>
        <time>2025-02-20T15:45:57Z</time>
      </trkpt>
      <trkpt lat="45.65198" lon="6.54668">
        <ele>1591</ele>
        <time>2025-02-20T15:45:58Z</time>
      </trkpt>
      <trkpt lat="45.652" lon="6.5467">
        <ele>1591</ele>
        <time>2025-02-20T15:45:59Z</time>
      </trkpt>
      <trkpt lat="45.65202" lon="6.54671">
        <ele>1590</ele>
        <time>2025-02-20T15:46:00Z</time>
      </trkpt>
      <trkpt lat="45.65203" lon="6.54674">
        <ele>1588.2</ele>
        <time>2025-02-20T15:46:01Z</time>
      </trkpt>
      <trkpt lat="45.65205" lon="6.54678">
        <ele>1588.2</ele>
        <time>2025-02-20T15:46:02Z</time>
      </trkpt>
      <trkpt lat="45.65205" lon="6.54679">
        <ele>1588.2</ele>
        <time>2025-02-20T15:46:03Z</time>
      </trkpt>
      <trkpt lat="45.65206" lon="6.54679">
        <ele>1587.2</ele>
        <time>2025-02-20T15:46:04Z</time>
      </trkpt>
      <trkpt lat="45.65206" lon="6.54681">
        <ele>1586.8</ele>
        <time>2025-02-20T15:46:05Z</time>
      </trkpt>
      <trkpt lat="45.65206" lon="6.54682">
        <ele>1586.8</ele>
        <time>2025-02-20T15:46:06Z</time>
      </trkpt>
      <trkpt lat="45.65206" lon="6.54683">
        <ele>1586.8</ele>
        <time>2025-02-20T15:46:07Z</time>
      </trkpt>
      <trkpt lat="45.65206" lon="6.54685">
        <ele>1586.8</ele>
        <time>2025-02-20T15:46:08Z</time>
      </trkpt>
      <trkpt lat="45.65207" lon="6.54686">
        <ele>1584.4</ele>
        <time>2025-02-20T15:46:09Z</time>
      </trkpt>
      <trkpt lat="45.65207" lon="6.54687">
        <ele>1584.4</ele>
        <time>2025-02-20T15:46:10Z</time>
      </trkpt>
      <trkpt lat="45.65207" lon="6.54689">
        <ele>1584.4</ele>
        <time>2025-02-20T15:46:11Z</time>
      </trkpt>
      <trkpt lat="45.65208" lon="6.54691">
        <ele>1584.4</ele>
        <time>2025-02-20T15:46:12Z</time>
      </trkpt>
      <trkpt lat="45.65208" lon="6.54692">
        <ele>1584.2</ele>
        <time>2025-02-20T15:46:13Z</time>
      </trkpt>
      <trkpt lat="45.65208" lon="6.54692">
        <ele>1584.2</ele>
        <time>2025-02-20T15:46:14Z</time>
      </trkpt>
      <trkpt lat="45.65208" lon="6.54692">
        <ele>1584.2</ele>
        <time>2025-02-20T15:46:15Z</time>
      </trkpt>
      <trkpt lat="45.65208" lon="6.54692">
        <ele>1583.4</ele>
        <time>2025-02-20T15:46:16Z</time>
      </trkpt>
      <trkpt lat="45.65208" lon="6.54692">
        <ele>1583.4</ele>
        <time>2025-02-20T15:46:17Z</time>
      </trkpt>
      <trkpt lat="45.65208" lon="6.54692">
        <ele>1583.4</ele>
        <time>2025-02-20T15:46:18Z</time>
      </trkpt>
      <trkpt lat="45.65208" lon="6.54692">
        <ele>1583.4</ele>
        <time>2025-02-20T15:46:19Z</time>
      </trkpt>
      <trkpt lat="45.65208" lon="6.54692">
        <ele>1583.4</ele>
        <time>2025-02-20T15:46:20Z</time>
      </trkpt>
      <trkpt lat="45.65208" lon="6.54692">
        <ele>1583.4</ele>
        <time>2025-02-20T15:46:21Z</time>
      </trkpt>
      <trkpt lat="45.65208" lon="6.54692">
        <ele>1583.4</ele>
        <time>2025-02-20T15:46:22Z</time>
      </trkpt>
      <trkpt lat="45.65208" lon="6.54692">
        <ele>1583.4</ele>
        <time>2025-02-20T15:46:23Z</time>
      </trkpt>
      <trkpt lat="45.65208" lon="6.54692">
        <ele>1583.4</ele>
        <time>2025-02-20T15:46:24Z</time>
      </trkpt>
      <trkpt lat="45.65208" lon="6.54692">
        <ele>1583.2</ele>
        <time>2025-02-20T15:46:25Z</time>
      </trkpt>
      <trkpt lat="45.65208" lon="6.54692">
        <ele>1583.2</ele>
        <time>2025-02-20T15:46:26Z</time>
      </trkpt>
      <trkpt lat="45.65208" lon="6.54692">
        <ele>1583.2</ele>
        <time>2025-02-20T15:46:27Z</time>
      </trkpt>
      <trkpt lat="45.65208" lon="6.54692">
        <ele>1583.4</ele>
        <time>2025-02-20T15:46:28Z</time>
      </trkpt>
      <trkpt lat="45.65208" lon="6.54692">
        <ele>1583</ele>
        <time>2025-02-20T15:46:29Z</time>
      </trkpt>
      <trkpt lat="45.65208" lon="6.54692">
        <ele>1583</ele>
        <time>2025-02-20T15:46:30Z</time>
      </trkpt>
      <trkpt lat="45.65208" lon="6.54692">
        <ele>1583</ele>
        <time>2025-02-20T15:46:31Z</time>
      </trkpt>
      <trkpt lat="45.65208" lon="6.54692">
        <ele>1583.2</ele>
        <time>2025-02-20T15:46:32Z</time>
      </trkpt>
      <trkpt lat="45.65208" lon="6.54692">
        <ele>1583.4</ele>
        <time>2025-02-20T15:46:33Z</time>
      </trkpt>
      <trkpt lat="45.65208" lon="6.54692">
        <ele>1583.4</ele>
        <time>2025-02-20T15:46:34Z</time>
      </trkpt>
      <trkpt lat="45.65208" lon="6.54692">
        <ele>1583.4</ele>
        <time>2025-02-20T15:46:35Z</time>
      </trkpt>
      <trkpt lat="45.65208" lon="6.54692">
        <ele>1582.8</ele>
        <time>2025-02-20T15:46:36Z</time>
      </trkpt>
      <trkpt lat="45.65208" lon="6.54692">
        <ele>1583.2</ele>
        <time>2025-02-20T15:46:37Z</time>
      </trkpt>
      <trkpt lat="45.65208" lon="6.54692">
        <ele>1583.2</ele>
        <time>2025-02-20T15:46:38Z</time>
      </trkpt>
      <trkpt lat="45.65208" lon="6.54692">
        <ele>1583.2</ele>
        <time>2025-02-20T15:46:39Z</time>
      </trkpt>
      <trkpt lat="45.65208" lon="6.54692">
        <ele>1583.2</ele>
        <time>2025-02-20T15:46:40Z</time>
      </trkpt>
      <trkpt lat="45.65208" lon="6.54692">
        <ele>1583.2</ele>
        <time>2025-02-20T15:46:41Z</time>
      </trkpt>
      <trkpt lat="45.65208" lon="6.54692">
        <ele>1583.2</ele>
        <time>2025-02-20T15:46:42Z</time>
      </trkpt>
      <trkpt lat="45.65208" lon="6.54692">
        <ele>1583.2</ele>
        <time>2025-02-20T15:46:43Z</time>
      </trkpt>
      <trkpt lat="45.65208" lon="6.54692">
        <ele>1583.2</ele>
        <time>2025-02-20T15:46:44Z</time>
      </trkpt>
      <trkpt lat="45.65208" lon="6.54692">
        <ele>1583.2</ele>
        <time>2025-02-20T15:46:45Z</time>
      </trkpt>
      <trkpt lat="45.65208" lon="6.54692">
        <ele>1583.2</ele>
        <time>2025-02-20T15:46:46Z</time>
      </trkpt>
      <trkpt lat="45.65208" lon="6.54692">
        <ele>1583.2</ele>
        <time>2025-02-20T15:46:47Z</time>
      </trkpt>
      <trkpt lat="45.65208" lon="6.54692">
        <ele>1583.2</ele>
        <time>2025-02-20T15:46:48Z</time>
      </trkpt>
      <trkpt lat="45.65208" lon="6.54692">
        <ele>1583</ele>
        <time>2025-02-20T15:46:49Z</time>
      </trkpt>
      <trkpt lat="45.65208" lon="6.54692">
        <ele>1583</ele>
        <time>2025-02-20T15:46:50Z</time>
      </trkpt>
      <trkpt lat="45.65208" lon="6.54692">
        <ele>1583</ele>
        <time>2025-02-20T15:46:51Z</time>
      </trkpt>
      <trkpt lat="45.65208" lon="6.54692">
        <ele>1583</ele>
        <time>2025-02-20T15:46:52Z</time>
      </trkpt>
      <trkpt lat="45.65208" lon="6.54692">
        <ele>1583</ele>
        <time>2025-02-20T15:46:53Z</time>
      </trkpt>
      <trkpt lat="45.65208" lon="6.54692">
        <ele>1583</ele>
        <time>2025-02-20T15:46:54Z</time>
      </trkpt>
      <trkpt lat="45.65208" lon="6.54692">
        <ele>1583</ele>
        <time>2025-02-20T15:46:55Z</time>
      </trkpt>
      <trkpt lat="45.65208" lon="6.54692">
        <ele>1583</ele>
        <time>2025-02-20T15:46:56Z</time>
      </trkpt>
      <trkpt lat="45.65208" lon="6.54692">
        <ele>1583.2</ele>
        <time>2025-02-20T15:46:57Z</time>
      </trkpt>
      <trkpt lat="45.65208" lon="6.54692">
        <ele>1583.2</ele>
        <time>2025-02-20T15:46:58Z</time>
      </trkpt>
      <trkpt lat="45.65216" lon="6.54692">
        <ele>1583.2</ele>
        <time>2025-02-20T15:46:59Z</time>
      </trkpt>
      <trkpt lat="45.65215" lon="6.54694">
        <ele>1583.2</ele>
        <time>2025-02-20T15:47:00Z</time>
      </trkpt>
      <trkpt lat="45.65215" lon="6.54696">
        <ele>1581.6</ele>
        <time>2025-02-20T15:47:01Z</time>
      </trkpt>
      <trkpt lat="45.65215" lon="6.54696">
        <ele>1581.6</ele>
        <time>2025-02-20T15:47:02Z</time>
      </trkpt>
      <trkpt lat="45.65215" lon="6.54696">
        <ele>1581.6</ele>
        <time>2025-02-20T15:47:03Z</time>
      </trkpt>
      <trkpt lat="45.65215" lon="6.54696">
        <ele>1580.8</ele>
        <time>2025-02-20T15:47:04Z</time>
      </trkpt>
      <trkpt lat="45.65215" lon="6.54696">
        <ele>1580.6</ele>
        <time>2025-02-20T15:47:05Z</time>
      </trkpt>
      <trkpt lat="45.65215" lon="6.54696">
        <ele>1580.6</ele>
        <time>2025-02-20T15:47:06Z</time>
      </trkpt>
      <trkpt lat="45.65215" lon="6.54696">
        <ele>1580.6</ele>
        <time>2025-02-20T15:47:07Z</time>
      </trkpt>
      <trkpt lat="45.65215" lon="6.54696">
        <ele>1580.6</ele>
        <time>2025-02-20T15:47:08Z</time>
      </trkpt>
      <trkpt lat="45.65215" lon="6.54696">
        <ele>1580.4</ele>
        <time>2025-02-20T15:47:09Z</time>
      </trkpt>
      <trkpt lat="45.65215" lon="6.54696">
        <ele>1580.4</ele>
        <time>2025-02-20T15:47:10Z</time>
      </trkpt>
      <trkpt lat="45.65215" lon="6.54696">
        <ele>1580.4</ele>
        <time>2025-02-20T15:47:11Z</time>
      </trkpt>
      <trkpt lat="45.65215" lon="6.54696">
        <ele>1580.6</ele>
        <time>2025-02-20T15:47:12Z</time>
      </trkpt>
      <trkpt lat="45.65215" lon="6.54696">
        <ele>1579.6</ele>
        <time>2025-02-20T15:47:13Z</time>
      </trkpt>
      <trkpt lat="45.65215" lon="6.54696">
        <ele>1579.6</ele>
        <time>2025-02-20T15:47:14Z</time>
      </trkpt>
      <trkpt lat="45.65215" lon="6.54696">
        <ele>1579.6</ele>
        <time>2025-02-20T15:47:15Z</time>
      </trkpt>
      <trkpt lat="45.65215" lon="6.54696">
        <ele>1579.6</ele>
        <time>2025-02-20T15:47:16Z</time>
      </trkpt>
      <trkpt lat="45.65215" lon="6.54696">
        <ele>1580.4</ele>
        <time>2025-02-20T15:47:17Z</time>
      </trkpt>
      <trkpt lat="45.65215" lon="6.54696">
        <ele>1580.4</ele>
        <time>2025-02-20T15:47:18Z</time>
      </trkpt>
      <trkpt lat="45.65215" lon="6.54696">
        <ele>1580.4</ele>
        <time>2025-02-20T15:47:19Z</time>
      </trkpt>
      <trkpt lat="45.65215" lon="6.54696">
        <ele>1580.4</ele>
        <time>2025-02-20T15:47:20Z</time>
      </trkpt>
      <trkpt lat="45.65215" lon="6.54696">
        <ele>1580.2</ele>
        <time>2025-02-20T15:47:21Z</time>
      </trkpt>
      <trkpt lat="45.65215" lon="6.54696">
        <ele>1580.2</ele>
        <time>2025-02-20T15:47:22Z</time>
      </trkpt>
      <trkpt lat="45.65215" lon="6.54696">
        <ele>1580.2</ele>
        <time>2025-02-20T15:47:23Z</time>
      </trkpt>
      <trkpt lat="45.65215" lon="6.54696">
        <ele>1580.2</ele>
        <time>2025-02-20T15:47:24Z</time>
      </trkpt>
      <trkpt lat="45.65215" lon="6.54696">
        <ele>1580</ele>
        <time>2025-02-20T15:47:25Z</time>
      </trkpt>
      <trkpt lat="45.65215" lon="6.54696">
        <ele>1580</ele>
        <time>2025-02-20T15:47:26Z</time>
      </trkpt>
      <trkpt lat="45.65215" lon="6.54696">
        <ele>1580</ele>
        <time>2025-02-20T15:47:27Z</time>
      </trkpt>
      <trkpt lat="45.65215" lon="6.54696">
        <ele>1580.6</ele>
        <time>2025-02-20T15:47:28Z</time>
      </trkpt>
      <trkpt lat="45.65215" lon="6.54696">
        <ele>1580.6</ele>
        <time>2025-02-20T15:47:29Z</time>
      </trkpt>
      <trkpt lat="45.65215" lon="6.54696">
        <ele>1580.6</ele>
        <time>2025-02-20T15:47:30Z</time>
      </trkpt>
      <trkpt lat="45.65215" lon="6.54696">
        <ele>1580.6</ele>
        <time>2025-02-20T15:47:31Z</time>
      </trkpt>
      <trkpt lat="45.65215" lon="6.54696">
        <ele>1580.4</ele>
        <time>2025-02-20T15:47:32Z</time>
      </trkpt>
      <trkpt lat="45.65215" lon="6.54696">
        <ele>1580.4</ele>
        <time>2025-02-20T15:47:33Z</time>
      </trkpt>
      <trkpt lat="45.65215" lon="6.54696">
        <ele>1580.4</ele>
        <time>2025-02-20T15:47:34Z</time>
      </trkpt>
      <trkpt lat="45.65215" lon="6.54696">
        <ele>1580.4</ele>
        <time>2025-02-20T15:47:35Z</time>
      </trkpt>
      <trkpt lat="45.65215" lon="6.54696">
        <ele>1580.4</ele>
        <time>2025-02-20T15:47:36Z</time>
      </trkpt>
      <trkpt lat="45.65215" lon="6.54696">
        <ele>1580.6</ele>
        <time>2025-02-20T15:47:37Z</time>
      </trkpt>
      <trkpt lat="45.65215" lon="6.54696">
        <ele>1580.6</ele>
        <time>2025-02-20T15:47:38Z</time>
      </trkpt>
      <trkpt lat="45.65215" lon="6.54696">
        <ele>1580.6</ele>
        <time>2025-02-20T15:47:39Z</time>
      </trkpt>
      <trkpt lat="45.65215" lon="6.54696">
        <ele>1580.4</ele>
        <time>2025-02-20T15:47:40Z</time>
      </trkpt>
      <trkpt lat="45.65215" lon="6.54696">
        <ele>1580.4</ele>
        <time>2025-02-20T15:47:41Z</time>
      </trkpt>
      <trkpt lat="45.65215" lon="6.54696">
        <ele>1580.4</ele>
        <time>2025-02-20T15:47:42Z</time>
      </trkpt>
      <trkpt lat="45.65213" lon="6.54705">
        <ele>1580.4</ele>
        <time>2025-02-20T15:47:43Z</time>
      </trkpt>
      <trkpt lat="45.65213" lon="6.54703">
        <ele>1579.4</ele>
        <time>2025-02-20T15:47:44Z</time>
      </trkpt>
      <trkpt lat="45.65213" lon="6.54703">
        <ele>1581</ele>
        <time>2025-02-20T15:47:45Z</time>
      </trkpt>
      <trkpt lat="45.65213" lon="6.54703">
        <ele>1581</ele>
        <time>2025-02-20T15:47:46Z</time>
      </trkpt>
      <trkpt lat="45.65213" lon="6.54705">
        <ele>1581</ele>
        <time>2025-02-20T15:47:47Z</time>
      </trkpt>
      <trkpt lat="45.65213" lon="6.54705">
        <ele>1580</ele>
        <time>2025-02-20T15:47:48Z</time>
      </trkpt>
      <trkpt lat="45.65213" lon="6.54705">
        <ele>1579.2</ele>
        <time>2025-02-20T15:47:49Z</time>
      </trkpt>
      <trkpt lat="45.65213" lon="6.54705">
        <ele>1579.2</ele>
        <time>2025-02-20T15:47:50Z</time>
      </trkpt>
      <trkpt lat="45.65213" lon="6.54705">
        <ele>1579.2</ele>
        <time>2025-02-20T15:47:51Z</time>
      </trkpt>
      <trkpt lat="45.65213" lon="6.54705">
        <ele>1579.2</ele>
        <time>2025-02-20T15:47:52Z</time>
      </trkpt>
      <trkpt lat="45.65213" lon="6.54705">
        <ele>1579.2</ele>
        <time>2025-02-20T15:47:53Z</time>
      </trkpt>
      <trkpt lat="45.65213" lon="6.54705">
        <ele>1579.2</ele>
        <time>2025-02-20T15:47:54Z</time>
      </trkpt>
      <trkpt lat="45.65213" lon="6.54705">
        <ele>1579.2</ele>
        <time>2025-02-20T15:47:55Z</time>
      </trkpt>
      <trkpt lat="45.65213" lon="6.54705">
        <ele>1578.2</ele>
        <time>2025-02-20T15:47:56Z</time>
      </trkpt>
      <trkpt lat="45.65213" lon="6.54705">
        <ele>1578.2</ele>
        <time>2025-02-20T15:47:57Z</time>
      </trkpt>
      <trkpt lat="45.65214" lon="6.54707">
        <ele>1578.2</ele>
        <time>2025-02-20T15:47:58Z</time>
      </trkpt>
      <trkpt lat="45.65214" lon="6.54708">
        <ele>1578.2</ele>
        <time>2025-02-20T15:47:59Z</time>
      </trkpt>
      <trkpt lat="45.65215" lon="6.54709">
        <ele>1577.2</ele>
        <time>2025-02-20T15:48:00Z</time>
      </trkpt>
      <trkpt lat="45.65216" lon="6.5471">
        <ele>1576.8</ele>
        <time>2025-02-20T15:48:01Z</time>
      </trkpt>
      <trkpt lat="45.65216" lon="6.5471">
        <ele>1576.8</ele>
        <time>2025-02-20T15:48:02Z</time>
      </trkpt>
      <trkpt lat="45.65217" lon="6.54711">
        <ele>1576.8</ele>
        <time>2025-02-20T15:48:03Z</time>
      </trkpt>
      <trkpt lat="45.65218" lon="6.54712">
        <ele>1576.2</ele>
        <time>2025-02-20T15:48:04Z</time>
      </trkpt>
      <trkpt lat="45.65219" lon="6.54712">
        <ele>1576.4</ele>
        <time>2025-02-20T15:48:05Z</time>
      </trkpt>
      <trkpt lat="45.65219" lon="6.54713">
        <ele>1576.4</ele>
        <time>2025-02-20T15:48:06Z</time>
      </trkpt>
      <trkpt lat="45.65219" lon="6.54714">
        <ele>1576.4</ele>
        <time>2025-02-20T15:48:07Z</time>
      </trkpt>
      <trkpt lat="45.6522" lon="6.54715">
        <ele>1576</ele>
        <time>2025-02-20T15:48:08Z</time>
      </trkpt>
      <trkpt lat="45.65221" lon="6.54715">
        <ele>1575</ele>
        <time>2025-02-20T15:48:09Z</time>
      </trkpt>
      <trkpt lat="45.65221" lon="6.54715">
        <ele>1575</ele>
        <time>2025-02-20T15:48:10Z</time>
      </trkpt>
      <trkpt lat="45.65221" lon="6.54715">
        <ele>1575</ele>
        <time>2025-02-20T15:48:11Z</time>
      </trkpt>
      <trkpt lat="45.65221" lon="6.54715">
        <ele>1574.8</ele>
        <time>2025-02-20T15:48:12Z</time>
      </trkpt>
      <trkpt lat="45.65221" lon="6.54715">
        <ele>1575.4</ele>
        <time>2025-02-20T15:48:13Z</time>
      </trkpt>
      <trkpt lat="45.65221" lon="6.54715">
        <ele>1575.4</ele>
        <time>2025-02-20T15:48:14Z</time>
      </trkpt>
      <trkpt lat="45.65221" lon="6.54715">
        <ele>1575.4</ele>
        <time>2025-02-20T15:48:15Z</time>
      </trkpt>
      <trkpt lat="45.65221" lon="6.5472">
        <ele>1575.2</ele>
        <time>2025-02-20T15:48:16Z</time>
      </trkpt>
      <trkpt lat="45.65222" lon="6.54721">
        <ele>1574.6</ele>
        <time>2025-02-20T15:48:17Z</time>
      </trkpt>
      <trkpt lat="45.65222" lon="6.54722">
        <ele>1574.6</ele>
        <time>2025-02-20T15:48:18Z</time>
      </trkpt>
      <trkpt lat="45.65222" lon="6.54722">
        <ele>1574.6</ele>
        <time>2025-02-20T15:48:19Z</time>
      </trkpt>
      <trkpt lat="45.65223" lon="6.54724">
        <ele>1574.6</ele>
        <time>2025-02-20T15:48:20Z</time>
      </trkpt>
      <trkpt lat="45.65223" lon="6.54725">
        <ele>1573.8</ele>
        <time>2025-02-20T15:48:21Z</time>
      </trkpt>
      <trkpt lat="45.65223" lon="6.54726">
        <ele>1573.8</ele>
        <time>2025-02-20T15:48:22Z</time>
      </trkpt>
      <trkpt lat="45.65224" lon="6.54727">
        <ele>1573.8</ele>
        <time>2025-02-20T15:48:23Z</time>
      </trkpt>
      <trkpt lat="45.65225" lon="6.5473">
        <ele>1573.8</ele>
        <time>2025-02-20T15:48:24Z</time>
      </trkpt>
      <trkpt lat="45.65226" lon="6.54732">
        <ele>1570.8</ele>
        <time>2025-02-20T15:48:25Z</time>
      </trkpt>
      <trkpt lat="45.65225" lon="6.54733">
        <ele>1570.8</ele>
        <time>2025-02-20T15:48:26Z</time>
      </trkpt>
      <trkpt lat="45.65225" lon="6.54733">
        <ele>1570.8</ele>
        <time>2025-02-20T15:48:27Z</time>
      </trkpt>
      <trkpt lat="45.65225" lon="6.54733">
        <ele>1571.8</ele>
        <time>2025-02-20T15:48:28Z</time>
      </trkpt>
      <trkpt lat="45.65225" lon="6.54733">
        <ele>1571.6</ele>
        <time>2025-02-20T15:48:29Z</time>
      </trkpt>
      <trkpt lat="45.65225" lon="6.54733">
        <ele>1571.6</ele>
        <time>2025-02-20T15:48:30Z</time>
      </trkpt>
      <trkpt lat="45.65225" lon="6.54733">
        <ele>1571.6</ele>
        <time>2025-02-20T15:48:31Z</time>
      </trkpt>
      <trkpt lat="45.65225" lon="6.54733">
        <ele>1572</ele>
        <time>2025-02-20T15:48:32Z</time>
      </trkpt>
      <trkpt lat="45.65225" lon="6.54733">
        <ele>1571.2</ele>
        <time>2025-02-20T15:48:33Z</time>
      </trkpt>
      <trkpt lat="45.65225" lon="6.54739">
        <ele>1571.2</ele>
        <time>2025-02-20T15:48:34Z</time>
      </trkpt>
      <trkpt lat="45.65225" lon="6.54739">
        <ele>1571.2</ele>
        <time>2025-02-20T15:48:35Z</time>
      </trkpt>
      <trkpt lat="45.65226" lon="6.54739">
        <ele>1571.2</ele>
        <time>2025-02-20T15:48:36Z</time>
      </trkpt>
      <trkpt lat="45.65226" lon="6.54739">
        <ele>1571.8</ele>
        <time>2025-02-20T15:48:37Z</time>
      </trkpt>
      <trkpt lat="45.65226" lon="6.54739">
        <ele>1571.8</ele>
        <time>2025-02-20T15:48:38Z</time>
      </trkpt>
      <trkpt lat="45.65228" lon="6.5474">
        <ele>1571.8</ele>
        <time>2025-02-20T15:48:39Z</time>
      </trkpt>
      <trkpt lat="45.65231" lon="6.54744">
        <ele>1570.8</ele>
        <time>2025-02-20T15:48:40Z</time>
      </trkpt>
      <trkpt lat="45.65235" lon="6.54746">
        <ele>1568.6</ele>
        <time>2025-02-20T15:48:41Z</time>
      </trkpt>
      <trkpt lat="45.65237" lon="6.54748">
        <ele>1568.6</ele>
        <time>2025-02-20T15:48:42Z</time>
      </trkpt>
      <trkpt lat="45.65237" lon="6.54749">
        <ele>1568.6</ele>
        <time>2025-02-20T15:48:43Z</time>
      </trkpt>
      <trkpt lat="45.65237" lon="6.5475">
        <ele>1568.6</ele>
        <time>2025-02-20T15:48:44Z</time>
      </trkpt>
      <trkpt lat="45.65237" lon="6.5475">
        <ele>1568.2</ele>
        <time>2025-02-20T15:48:45Z</time>
      </trkpt>
      <trkpt lat="45.65238" lon="6.54752">
        <ele>1568.2</ele>
        <time>2025-02-20T15:48:46Z</time>
      </trkpt>
      <trkpt lat="45.65239" lon="6.54756">
        <ele>1568.2</ele>
        <time>2025-02-20T15:48:47Z</time>
      </trkpt>
      <trkpt lat="45.65241" lon="6.54758">
        <ele>1567.2</ele>
        <time>2025-02-20T15:48:48Z</time>
      </trkpt>
      <trkpt lat="45.65243" lon="6.54762">
        <ele>1565.6</ele>
        <time>2025-02-20T15:48:49Z</time>
      </trkpt>
      <trkpt lat="45.65247" lon="6.54765">
        <ele>1565.6</ele>
        <time>2025-02-20T15:48:50Z</time>
      </trkpt>
      <trkpt lat="45.65249" lon="6.54769">
        <ele>1565.6</ele>
        <time>2025-02-20T15:48:51Z</time>
      </trkpt>
      <trkpt lat="45.6525" lon="6.54769">
        <ele>1565</ele>
        <time>2025-02-20T15:48:52Z</time>
      </trkpt>
      <trkpt lat="45.6525" lon="6.54769">
        <ele>1564.6</ele>
        <time>2025-02-20T15:48:53Z</time>
      </trkpt>
      <trkpt lat="45.6525" lon="6.54769">
        <ele>1564.6</ele>
        <time>2025-02-20T15:48:54Z</time>
      </trkpt>
      <trkpt lat="45.6525" lon="6.54769">
        <ele>1564.6</ele>
        <time>2025-02-20T15:48:55Z</time>
      </trkpt>
      <trkpt lat="45.6525" lon="6.54769">
        <ele>1564.6</ele>
        <time>2025-02-20T15:48:56Z</time>
      </trkpt>
      <trkpt lat="45.6525" lon="6.54769">
        <ele>1564.6</ele>
        <time>2025-02-20T15:48:57Z</time>
      </trkpt>
      <trkpt lat="45.6525" lon="6.54769">
        <ele>1564.6</ele>
        <time>2025-02-20T15:48:58Z</time>
      </trkpt>
      <trkpt lat="45.6525" lon="6.54769">
        <ele>1564.6</ele>
        <time>2025-02-20T15:48:59Z</time>
      </trkpt>
      <trkpt lat="45.6525" lon="6.54769">
        <ele>1564.6</ele>
        <time>2025-02-20T15:49:00Z</time>
      </trkpt>
      <trkpt lat="45.6525" lon="6.54769">
        <ele>1564.6</ele>
        <time>2025-02-20T15:49:01Z</time>
      </trkpt>
      <trkpt lat="45.6525" lon="6.54769">
        <ele>1564.6</ele>
        <time>2025-02-20T15:49:02Z</time>
      </trkpt>
      <trkpt lat="45.6525" lon="6.54769">
        <ele>1564.6</ele>
        <time>2025-02-20T15:49:03Z</time>
      </trkpt>
      <trkpt lat="45.6525" lon="6.54769">
        <ele>1564.6</ele>
        <time>2025-02-20T15:49:04Z</time>
      </trkpt>
      <trkpt lat="45.6525" lon="6.54769">
        <ele>1565</ele>
        <time>2025-02-20T15:49:05Z</time>
      </trkpt>
      <trkpt lat="45.6525" lon="6.54769">
        <ele>1565</ele>
        <time>2025-02-20T15:49:06Z</time>
      </trkpt>
      <trkpt lat="45.6525" lon="6.54769">
        <ele>1565</ele>
        <time>2025-02-20T15:49:07Z</time>
      </trkpt>
      <trkpt lat="45.6525" lon="6.54769">
        <ele>1565</ele>
        <time>2025-02-20T15:49:08Z</time>
      </trkpt>
      <trkpt lat="45.6525" lon="6.54769">
        <ele>1565.2</ele>
        <time>2025-02-20T15:49:09Z</time>
      </trkpt>
      <trkpt lat="45.6525" lon="6.54769">
        <ele>1565.2</ele>
        <time>2025-02-20T15:49:10Z</time>
      </trkpt>
      <trkpt lat="45.6525" lon="6.54769">
        <ele>1565.2</ele>
        <time>2025-02-20T15:49:11Z</time>
      </trkpt>
      <trkpt lat="45.6525" lon="6.54769">
        <ele>1565.2</ele>
        <time>2025-02-20T15:49:12Z</time>
      </trkpt>
      <trkpt lat="45.6525" lon="6.54769">
        <ele>1565</ele>
        <time>2025-02-20T15:49:13Z</time>
      </trkpt>
      <trkpt lat="45.6525" lon="6.54769">
        <ele>1565</ele>
        <time>2025-02-20T15:49:14Z</time>
      </trkpt>
      <trkpt lat="45.6525" lon="6.54769">
        <ele>1565</ele>
        <time>2025-02-20T15:49:15Z</time>
      </trkpt>
      <trkpt lat="45.6525" lon="6.54769">
        <ele>1565</ele>
        <time>2025-02-20T15:49:16Z</time>
      </trkpt>
      <trkpt lat="45.6525" lon="6.54769">
        <ele>1564.8</ele>
        <time>2025-02-20T15:49:17Z</time>
      </trkpt>
      <trkpt lat="45.6525" lon="6.54769">
        <ele>1564.8</ele>
        <time>2025-02-20T15:49:18Z</time>
      </trkpt>
      <trkpt lat="45.6525" lon="6.54769">
        <ele>1564.8</ele>
        <time>2025-02-20T15:49:19Z</time>
      </trkpt>
      <trkpt lat="45.6525" lon="6.54769">
        <ele>1564.8</ele>
        <time>2025-02-20T15:49:20Z</time>
      </trkpt>
      <trkpt lat="45.6525" lon="6.54769">
        <ele>1565.2</ele>
        <time>2025-02-20T15:49:21Z</time>
      </trkpt>
      <trkpt lat="45.6525" lon="6.54769">
        <ele>1565.2</ele>
        <time>2025-02-20T15:49:22Z</time>
      </trkpt>
      <trkpt lat="45.6525" lon="6.54769">
        <ele>1565.2</ele>
        <time>2025-02-20T15:49:23Z</time>
      </trkpt>
      <trkpt lat="45.6525" lon="6.54769">
        <ele>1564.6</ele>
        <time>2025-02-20T15:49:24Z</time>
      </trkpt>
      <trkpt lat="45.6525" lon="6.54769">
        <ele>1564.8</ele>
        <time>2025-02-20T15:49:25Z</time>
      </trkpt>
      <trkpt lat="45.6525" lon="6.54769">
        <ele>1564.8</ele>
        <time>2025-02-20T15:49:26Z</time>
      </trkpt>
      <trkpt lat="45.6525" lon="6.54769">
        <ele>1564.8</ele>
        <time>2025-02-20T15:49:27Z</time>
      </trkpt>
      <trkpt lat="45.6525" lon="6.54769">
        <ele>1564.8</ele>
        <time>2025-02-20T15:49:28Z</time>
      </trkpt>
      <trkpt lat="45.6525" lon="6.54769">
        <ele>1565.4</ele>
        <time>2025-02-20T15:49:29Z</time>
      </trkpt>
      <trkpt lat="45.6525" lon="6.54769">
        <ele>1565.4</ele>
        <time>2025-02-20T15:49:30Z</time>
      </trkpt>
      <trkpt lat="45.6525" lon="6.54769">
        <ele>1565.4</ele>
        <time>2025-02-20T15:49:31Z</time>
      </trkpt>
      <trkpt lat="45.6525" lon="6.54769">
        <ele>1564.6</ele>
        <time>2025-02-20T15:49:32Z</time>
      </trkpt>
      <trkpt lat="45.6525" lon="6.54769">
        <ele>1564.6</ele>
        <time>2025-02-20T15:49:33Z</time>
      </trkpt>
      <trkpt lat="45.6525" lon="6.54769">
        <ele>1564.6</ele>
        <time>2025-02-20T15:49:34Z</time>
      </trkpt>
      <trkpt lat="45.6525" lon="6.54769">
        <ele>1564.6</ele>
        <time>2025-02-20T15:49:35Z</time>
      </trkpt>
      <trkpt lat="45.6525" lon="6.54769">
        <ele>1564.4</ele>
        <time>2025-02-20T15:49:36Z</time>
      </trkpt>
      <trkpt lat="45.6525" lon="6.54769">
        <ele>1563.8</ele>
        <time>2025-02-20T15:49:37Z</time>
      </trkpt>
      <trkpt lat="45.6525" lon="6.54769">
        <ele>1563.8</ele>
        <time>2025-02-20T15:49:38Z</time>
      </trkpt>
      <trkpt lat="45.6525" lon="6.54769">
        <ele>1563.8</ele>
        <time>2025-02-20T15:49:39Z</time>
      </trkpt>
      <trkpt lat="45.6525" lon="6.54769">
        <ele>1564.4</ele>
        <time>2025-02-20T15:49:40Z</time>
      </trkpt>
      <trkpt lat="45.6525" lon="6.54769">
        <ele>1564.2</ele>
        <time>2025-02-20T15:49:41Z</time>
      </trkpt>
      <trkpt lat="45.6525" lon="6.54769">
        <ele>1564.2</ele>
        <time>2025-02-20T15:49:42Z</time>
      </trkpt>
      <trkpt lat="45.6525" lon="6.54769">
        <ele>1564.2</ele>
        <time>2025-02-20T15:49:43Z</time>
      </trkpt>
      <trkpt lat="45.6525" lon="6.54769">
        <ele>1564.2</ele>
        <time>2025-02-20T15:49:44Z</time>
      </trkpt>
      <trkpt lat="45.6525" lon="6.54769">
        <ele>1564</ele>
        <time>2025-02-20T15:49:45Z</time>
      </trkpt>
      <trkpt lat="45.6525" lon="6.54769">
        <ele>1564</ele>
        <time>2025-02-20T15:49:46Z</time>
      </trkpt>
      <trkpt lat="45.6525" lon="6.54769">
        <ele>1564</ele>
        <time>2025-02-20T15:49:47Z</time>
      </trkpt>
      <trkpt lat="45.6525" lon="6.54769">
        <ele>1564</ele>
        <time>2025-02-20T15:49:48Z</time>
      </trkpt>
      <trkpt lat="45.6525" lon="6.54769">
        <ele>1564.2</ele>
        <time>2025-02-20T15:49:49Z</time>
      </trkpt>
      <trkpt lat="45.6525" lon="6.54769">
        <ele>1564.2</ele>
        <time>2025-02-20T15:49:50Z</time>
      </trkpt>
      <trkpt lat="45.6525" lon="6.54769">
        <ele>1564.2</ele>
        <time>2025-02-20T15:49:51Z</time>
      </trkpt>
      <trkpt lat="45.6525" lon="6.54769">
        <ele>1564.2</ele>
        <time>2025-02-20T15:49:52Z</time>
      </trkpt>
      <trkpt lat="45.6525" lon="6.54769">
        <ele>1563.8</ele>
        <time>2025-02-20T15:49:53Z</time>
      </trkpt>
      <trkpt lat="45.6525" lon="6.54769">
        <ele>1563.8</ele>
        <time>2025-02-20T15:49:54Z</time>
      </trkpt>
      <trkpt lat="45.6525" lon="6.54769">
        <ele>1563.8</ele>
        <time>2025-02-20T15:49:55Z</time>
      </trkpt>
      <trkpt lat="45.6525" lon="6.54769">
        <ele>1563.8</ele>
        <time>2025-02-20T15:49:56Z</time>
      </trkpt>
      <trkpt lat="45.6525" lon="6.54769">
        <ele>1564.2</ele>
        <time>2025-02-20T15:49:57Z</time>
      </trkpt>
      <trkpt lat="45.6525" lon="6.54769">
        <ele>1564.2</ele>
        <time>2025-02-20T15:49:58Z</time>
      </trkpt>
      <trkpt lat="45.6525" lon="6.54769">
        <ele>1564.2</ele>
        <time>2025-02-20T15:49:59Z</time>
      </trkpt>
      <trkpt lat="45.6525" lon="6.54769">
        <ele>1564.6</ele>
        <time>2025-02-20T15:50:00Z</time>
      </trkpt>
      <trkpt lat="45.6525" lon="6.54769">
        <ele>1564.4</ele>
        <time>2025-02-20T15:50:01Z</time>
      </trkpt>
      <trkpt lat="45.6525" lon="6.54769">
        <ele>1564.4</ele>
        <time>2025-02-20T15:50:02Z</time>
      </trkpt>
      <trkpt lat="45.6525" lon="6.54769">
        <ele>1564.4</ele>
        <time>2025-02-20T15:50:03Z</time>
      </trkpt>
      <trkpt lat="45.6525" lon="6.54769">
        <ele>1563.8</ele>
        <time>2025-02-20T15:50:04Z</time>
      </trkpt>
      <trkpt lat="45.6525" lon="6.54769">
        <ele>1563.6</ele>
        <time>2025-02-20T15:50:05Z</time>
      </trkpt>
      <trkpt lat="45.65253" lon="6.5477">
        <ele>1563.6</ele>
        <time>2025-02-20T15:50:06Z</time>
      </trkpt>
      <trkpt lat="45.65254" lon="6.5477">
        <ele>1563.6</ele>
        <time>2025-02-20T15:50:07Z</time>
      </trkpt>
      <trkpt lat="45.65254" lon="6.5477">
        <ele>1563.6</ele>
        <time>2025-02-20T15:50:08Z</time>
      </trkpt>
      <trkpt lat="45.65255" lon="6.54769">
        <ele>1563</ele>
        <time>2025-02-20T15:50:09Z</time>
      </trkpt>
      <trkpt lat="45.65255" lon="6.54769">
        <ele>1563</ele>
        <time>2025-02-20T15:50:10Z</time>
      </trkpt>
      <trkpt lat="45.65255" lon="6.54769">
        <ele>1563</ele>
        <time>2025-02-20T15:50:11Z</time>
      </trkpt>
      <trkpt lat="45.65255" lon="6.54769">
        <ele>1563</ele>
        <time>2025-02-20T15:50:12Z</time>
      </trkpt>
      <trkpt lat="45.65255" lon="6.54769">
        <ele>1563.2</ele>
        <time>2025-02-20T15:50:13Z</time>
      </trkpt>
      <trkpt lat="45.65255" lon="6.54769">
        <ele>1563.2</ele>
        <time>2025-02-20T15:50:14Z</time>
      </trkpt>
      <trkpt lat="45.65255" lon="6.54769">
        <ele>1563.2</ele>
        <time>2025-02-20T15:50:15Z</time>
      </trkpt>
      <trkpt lat="45.65255" lon="6.54769">
        <ele>1563.2</ele>
        <time>2025-02-20T15:50:16Z</time>
      </trkpt>
      <trkpt lat="45.65255" lon="6.54769">
        <ele>1562.8</ele>
        <time>2025-02-20T15:50:17Z</time>
      </trkpt>
      <trkpt lat="45.65255" lon="6.54769">
        <ele>1562.8</ele>
        <time>2025-02-20T15:50:18Z</time>
      </trkpt>
      <trkpt lat="45.65255" lon="6.54769">
        <ele>1562.8</ele>
        <time>2025-02-20T15:50:19Z</time>
      </trkpt>
      <trkpt lat="45.65255" lon="6.54769">
        <ele>1562.8</ele>
        <time>2025-02-20T15:50:20Z</time>
      </trkpt>
      <trkpt lat="45.65255" lon="6.54769">
        <ele>1562.6</ele>
        <time>2025-02-20T15:50:21Z</time>
      </trkpt>
      <trkpt lat="45.65255" lon="6.54769">
        <ele>1562.6</ele>
        <time>2025-02-20T15:50:22Z</time>
      </trkpt>
      <trkpt lat="45.65255" lon="6.54769">
        <ele>1562.6</ele>
        <time>2025-02-20T15:50:23Z</time>
      </trkpt>
      <trkpt lat="45.65255" lon="6.54769">
        <ele>1562.6</ele>
        <time>2025-02-20T15:50:24Z</time>
      </trkpt>
      <trkpt lat="45.65255" lon="6.54769">
        <ele>1562.2</ele>
        <time>2025-02-20T15:50:25Z</time>
      </trkpt>
      <trkpt lat="45.65257" lon="6.5477">
        <ele>1562.2</ele>
        <time>2025-02-20T15:50:26Z</time>
      </trkpt>
      <trkpt lat="45.65257" lon="6.54771">
        <ele>1562.2</ele>
        <time>2025-02-20T15:50:27Z</time>
      </trkpt>
      <trkpt lat="45.65256" lon="6.5477">
        <ele>1562.2</ele>
        <time>2025-02-20T15:50:28Z</time>
      </trkpt>
      <trkpt lat="45.65256" lon="6.54771">
        <ele>1562.2</ele>
        <time>2025-02-20T15:50:29Z</time>
      </trkpt>
      <trkpt lat="45.65256" lon="6.54771">
        <ele>1562.2</ele>
        <time>2025-02-20T15:50:30Z</time>
      </trkpt>
      <trkpt lat="45.65256" lon="6.54771">
        <ele>1562.2</ele>
        <time>2025-02-20T15:50:31Z</time>
      </trkpt>
      <trkpt lat="45.65256" lon="6.54771">
        <ele>1561.2</ele>
        <time>2025-02-20T15:50:32Z</time>
      </trkpt>
      <trkpt lat="45.65256" lon="6.54771">
        <ele>1560.6</ele>
        <time>2025-02-20T15:50:33Z</time>
      </trkpt>
      <trkpt lat="45.65256" lon="6.54771">
        <ele>1560.6</ele>
        <time>2025-02-20T15:50:34Z</time>
      </trkpt>
      <trkpt lat="45.65256" lon="6.54771">
        <ele>1560.6</ele>
        <time>2025-02-20T15:50:35Z</time>
      </trkpt>
      <trkpt lat="45.65256" lon="6.54771">
        <ele>1560.6</ele>
        <time>2025-02-20T15:50:36Z</time>
      </trkpt>
      <trkpt lat="45.65256" lon="6.54771">
        <ele>1560.6</ele>
        <time>2025-02-20T15:50:37Z</time>
      </trkpt>
      <trkpt lat="45.65256" lon="6.54771">
        <ele>1560.6</ele>
        <time>2025-02-20T15:50:38Z</time>
      </trkpt>
      <trkpt lat="45.65256" lon="6.54771">
        <ele>1560.6</ele>
        <time>2025-02-20T15:50:39Z</time>
      </trkpt>
      <trkpt lat="45.65256" lon="6.54771">
        <ele>1560.6</ele>
        <time>2025-02-20T15:50:40Z</time>
      </trkpt>
      <trkpt lat="45.65256" lon="6.54771">
        <ele>1560</ele>
        <time>2025-02-20T15:50:41Z</time>
      </trkpt>
      <trkpt lat="45.65256" lon="6.54771">
        <ele>1560</ele>
        <time>2025-02-20T15:50:42Z</time>
      </trkpt>
      <trkpt lat="45.65256" lon="6.54771">
        <ele>1560</ele>
        <time>2025-02-20T15:50:43Z</time>
      </trkpt>
      <trkpt lat="45.65256" lon="6.54771">
        <ele>1560</ele>
        <time>2025-02-20T15:50:44Z</time>
      </trkpt>
      <trkpt lat="45.65256" lon="6.54771">
        <ele>1559.2</ele>
        <time>2025-02-20T15:50:45Z</time>
      </trkpt>
      <trkpt lat="45.65256" lon="6.54771">
        <ele>1559.2</ele>
        <time>2025-02-20T15:50:46Z</time>
      </trkpt>
      <trkpt lat="45.65256" lon="6.54771">
        <ele>1559.2</ele>
        <time>2025-02-20T15:50:47Z</time>
      </trkpt>
      <trkpt lat="45.65256" lon="6.54771">
        <ele>1559.2</ele>
        <time>2025-02-20T15:50:48Z</time>
      </trkpt>
      <trkpt lat="45.65256" lon="6.54771">
        <ele>1559</ele>
        <time>2025-02-20T15:50:49Z</time>
      </trkpt>
      <trkpt lat="45.65256" lon="6.54771">
        <ele>1559</ele>
        <time>2025-02-20T15:50:50Z</time>
      </trkpt>
      <trkpt lat="45.65256" lon="6.54771">
        <ele>1559</ele>
        <time>2025-02-20T15:50:51Z</time>
      </trkpt>
      <trkpt lat="45.65256" lon="6.54771">
        <ele>1559</ele>
        <time>2025-02-20T15:50:52Z</time>
      </trkpt>
      <trkpt lat="45.65256" lon="6.54771">
        <ele>1559.2</ele>
        <time>2025-02-20T15:50:53Z</time>
      </trkpt>
      <trkpt lat="45.65256" lon="6.54771">
        <ele>1559.2</ele>
        <time>2025-02-20T15:50:54Z</time>
      </trkpt>
      <trkpt lat="45.65256" lon="6.54771">
        <ele>1559.2</ele>
        <time>2025-02-20T15:50:55Z</time>
      </trkpt>
      <trkpt lat="45.65256" lon="6.54771">
        <ele>1558.2</ele>
        <time>2025-02-20T15:50:56Z</time>
      </trkpt>
      <trkpt lat="45.65256" lon="6.54771">
        <ele>1558.2</ele>
        <time>2025-02-20T15:50:57Z</time>
      </trkpt>
      <trkpt lat="45.65256" lon="6.54771">
        <ele>1558.2</ele>
        <time>2025-02-20T15:50:58Z</time>
      </trkpt>
      <trkpt lat="45.65256" lon="6.54771">
        <ele>1558.2</ele>
        <time>2025-02-20T15:50:59Z</time>
      </trkpt>
      <trkpt lat="45.65256" lon="6.54771">
        <ele>1558.2</ele>
        <time>2025-02-20T15:51:00Z</time>
      </trkpt>
      <trkpt lat="45.65256" lon="6.54771">
        <ele>1557.8</ele>
        <time>2025-02-20T15:51:01Z</time>
      </trkpt>
      <trkpt lat="45.65256" lon="6.54771">
        <ele>1557.8</ele>
        <time>2025-02-20T15:51:02Z</time>
      </trkpt>
      <trkpt lat="45.65256" lon="6.54771">
        <ele>1557.8</ele>
        <time>2025-02-20T15:51:03Z</time>
      </trkpt>
      <trkpt lat="45.65256" lon="6.54771">
        <ele>1557.2</ele>
        <time>2025-02-20T15:51:04Z</time>
      </trkpt>
      <trkpt lat="45.65256" lon="6.54771">
        <ele>1557</ele>
        <time>2025-02-20T15:51:05Z</time>
      </trkpt>
      <trkpt lat="45.65256" lon="6.54771">
        <ele>1557</ele>
        <time>2025-02-20T15:51:06Z</time>
      </trkpt>
      <trkpt lat="45.65256" lon="6.54771">
        <ele>1557</ele>
        <time>2025-02-20T15:51:07Z</time>
      </trkpt>
      <trkpt lat="45.65256" lon="6.54771">
        <ele>1557</ele>
        <time>2025-02-20T15:51:08Z</time>
      </trkpt>
      <trkpt lat="45.65256" lon="6.54771">
        <ele>1557.4</ele>
        <time>2025-02-20T15:51:09Z</time>
      </trkpt>
      <trkpt lat="45.65256" lon="6.54771">
        <ele>1557.4</ele>
        <time>2025-02-20T15:51:10Z</time>
      </trkpt>
      <trkpt lat="45.65256" lon="6.54771">
        <ele>1557.4</ele>
        <time>2025-02-20T15:51:11Z</time>
      </trkpt>
      <trkpt lat="45.65256" lon="6.54771">
        <ele>1557.4</ele>
        <time>2025-02-20T15:51:12Z</time>
      </trkpt>
      <trkpt lat="45.65256" lon="6.54771">
        <ele>1557.2</ele>
        <time>2025-02-20T15:51:13Z</time>
      </trkpt>
      <trkpt lat="45.65256" lon="6.54771">
        <ele>1557.2</ele>
        <time>2025-02-20T15:51:14Z</time>
      </trkpt>
      <trkpt lat="45.65256" lon="6.54771">
        <ele>1557.2</ele>
        <time>2025-02-20T15:51:15Z</time>
      </trkpt>
      <trkpt lat="45.65256" lon="6.54771">
        <ele>1557.2</ele>
        <time>2025-02-20T15:51:16Z</time>
      </trkpt>
      <trkpt lat="45.65256" lon="6.54771">
        <ele>1557.6</ele>
        <time>2025-02-20T15:51:17Z</time>
      </trkpt>
      <trkpt lat="45.65256" lon="6.54771">
        <ele>1557.6</ele>
        <time>2025-02-20T15:51:18Z</time>
      </trkpt>
      <trkpt lat="45.65256" lon="6.54771">
        <ele>1557.6</ele>
        <time>2025-02-20T15:51:19Z</time>
      </trkpt>
      <trkpt lat="45.65256" lon="6.54771">
        <ele>1556.6</ele>
        <time>2025-02-20T15:51:20Z</time>
      </trkpt>
      <trkpt lat="45.65256" lon="6.54771">
        <ele>1555.2</ele>
        <time>2025-02-20T15:51:21Z</time>
      </trkpt>
      <trkpt lat="45.65256" lon="6.54771">
        <ele>1555.2</ele>
        <time>2025-02-20T15:51:22Z</time>
      </trkpt>
      <trkpt lat="45.65256" lon="6.54771">
        <ele>1555.2</ele>
        <time>2025-02-20T15:51:23Z</time>
      </trkpt>
      <trkpt lat="45.65256" lon="6.54771">
        <ele>1555.2</ele>
        <time>2025-02-20T15:51:24Z</time>
      </trkpt>
      <trkpt lat="45.65261" lon="6.54782">
        <ele>1554.6</ele>
        <time>2025-02-20T15:51:25Z</time>
      </trkpt>
      <trkpt lat="45.65261" lon="6.54782">
        <ele>1554.6</ele>
        <time>2025-02-20T15:51:26Z</time>
      </trkpt>
      <trkpt lat="45.65261" lon="6.54782">
        <ele>1554.6</ele>
        <time>2025-02-20T15:51:27Z</time>
      </trkpt>
      <trkpt lat="45.65261" lon="6.54782">
        <ele>1554.6</ele>
        <time>2025-02-20T15:51:28Z</time>
      </trkpt>
      <trkpt lat="45.65261" lon="6.54782">
        <ele>1554.8</ele>
        <time>2025-02-20T15:51:29Z</time>
      </trkpt>
      <trkpt lat="45.65261" lon="6.54782">
        <ele>1554.8</ele>
        <time>2025-02-20T15:51:30Z</time>
      </trkpt>
      <trkpt lat="45.65261" lon="6.54782">
        <ele>1554.8</ele>
        <time>2025-02-20T15:51:31Z</time>
      </trkpt>
      <trkpt lat="45.65261" lon="6.54782">
        <ele>1553.8</ele>
        <time>2025-02-20T15:51:32Z</time>
      </trkpt>
      <trkpt lat="45.65261" lon="6.54782">
        <ele>1553.2</ele>
        <time>2025-02-20T15:51:33Z</time>
      </trkpt>
      <trkpt lat="45.65261" lon="6.54782">
        <ele>1553.2</ele>
        <time>2025-02-20T15:51:34Z</time>
      </trkpt>
      <trkpt lat="45.65261" lon="6.54782">
        <ele>1553.2</ele>
        <time>2025-02-20T15:51:35Z</time>
      </trkpt>
      <trkpt lat="45.65261" lon="6.54782">
        <ele>1553.2</ele>
        <time>2025-02-20T15:51:36Z</time>
      </trkpt>
      <trkpt lat="45.65261" lon="6.54782">
        <ele>1553.2</ele>
        <time>2025-02-20T15:51:37Z</time>
      </trkpt>
      <trkpt lat="45.65261" lon="6.54782">
        <ele>1553.2</ele>
        <time>2025-02-20T15:51:38Z</time>
      </trkpt>
      <trkpt lat="45.65261" lon="6.54782">
        <ele>1553.2</ele>
        <time>2025-02-20T15:51:39Z</time>
      </trkpt>
      <trkpt lat="45.65262" lon="6.54786">
        <ele>1553.2</ele>
        <time>2025-02-20T15:51:40Z</time>
      </trkpt>
      <trkpt lat="45.65262" lon="6.54786">
        <ele>1554.4</ele>
        <time>2025-02-20T15:51:41Z</time>
      </trkpt>
      <trkpt lat="45.65262" lon="6.54786">
        <ele>1554.4</ele>
        <time>2025-02-20T15:51:42Z</time>
      </trkpt>
      <trkpt lat="45.65262" lon="6.54786">
        <ele>1554.4</ele>
        <time>2025-02-20T15:51:43Z</time>
      </trkpt>
      <trkpt lat="45.65262" lon="6.54786">
        <ele>1553.4</ele>
        <time>2025-02-20T15:51:44Z</time>
      </trkpt>
      <trkpt lat="45.65262" lon="6.54786">
        <ele>1551.4</ele>
        <time>2025-02-20T15:51:45Z</time>
      </trkpt>
      <trkpt lat="45.65262" lon="6.54786">
        <ele>1551.4</ele>
        <time>2025-02-20T15:51:46Z</time>
      </trkpt>
      <trkpt lat="45.65262" lon="6.54786">
        <ele>1551.4</ele>
        <time>2025-02-20T15:51:47Z</time>
      </trkpt>
      <trkpt lat="45.65262" lon="6.54786">
        <ele>1551.8</ele>
        <time>2025-02-20T15:51:48Z</time>
      </trkpt>
      <trkpt lat="45.65262" lon="6.54786">
        <ele>1552</ele>
        <time>2025-02-20T15:51:49Z</time>
      </trkpt>
      <trkpt lat="45.65262" lon="6.54786">
        <ele>1552</ele>
        <time>2025-02-20T15:51:50Z</time>
      </trkpt>
      <trkpt lat="45.65262" lon="6.54786">
        <ele>1552</ele>
        <time>2025-02-20T15:51:51Z</time>
      </trkpt>
      <trkpt lat="45.65262" lon="6.54786">
        <ele>1551</ele>
        <time>2025-02-20T15:51:52Z</time>
      </trkpt>
      <trkpt lat="45.65262" lon="6.54786">
        <ele>1551.6</ele>
        <time>2025-02-20T15:51:53Z</time>
      </trkpt>
      <trkpt lat="45.65262" lon="6.54786">
        <ele>1551.6</ele>
        <time>2025-02-20T15:51:54Z</time>
      </trkpt>
      <trkpt lat="45.65262" lon="6.54786">
        <ele>1551.6</ele>
        <time>2025-02-20T15:51:55Z</time>
      </trkpt>
      <trkpt lat="45.65262" lon="6.54786">
        <ele>1551.6</ele>
        <time>2025-02-20T15:51:56Z</time>
      </trkpt>
      <trkpt lat="45.65262" lon="6.54786">
        <ele>1551.8</ele>
        <time>2025-02-20T15:51:57Z</time>
      </trkpt>
      <trkpt lat="45.65262" lon="6.54786">
        <ele>1551.8</ele>
        <time>2025-02-20T15:51:58Z</time>
      </trkpt>
      <trkpt lat="45.65262" lon="6.54786">
        <ele>1551.8</ele>
        <time>2025-02-20T15:51:59Z</time>
      </trkpt>
      <trkpt lat="45.65266" lon="6.54794">
        <ele>1551.2</ele>
        <time>2025-02-20T15:52:00Z</time>
      </trkpt>
      <trkpt lat="45.65265" lon="6.54795">
        <ele>1550.2</ele>
        <time>2025-02-20T15:52:01Z</time>
      </trkpt>
      <trkpt lat="45.65265" lon="6.54796">
        <ele>1550.2</ele>
        <time>2025-02-20T15:52:02Z</time>
      </trkpt>
      <trkpt lat="45.65265" lon="6.54796">
        <ele>1550.2</ele>
        <time>2025-02-20T15:52:03Z</time>
      </trkpt>
      <trkpt lat="45.65265" lon="6.54796">
        <ele>1550.2</ele>
        <time>2025-02-20T15:52:04Z</time>
      </trkpt>
      <trkpt lat="45.65265" lon="6.54796">
        <ele>1548.8</ele>
        <time>2025-02-20T15:52:05Z</time>
      </trkpt>
      <trkpt lat="45.65265" lon="6.54796">
        <ele>1548.8</ele>
        <time>2025-02-20T15:52:06Z</time>
      </trkpt>
      <trkpt lat="45.65265" lon="6.54796">
        <ele>1548.8</ele>
        <time>2025-02-20T15:52:07Z</time>
      </trkpt>
      <trkpt lat="45.65265" lon="6.54796">
        <ele>1549.2</ele>
        <time>2025-02-20T15:52:08Z</time>
      </trkpt>
      <trkpt lat="45.65265" lon="6.54796">
        <ele>1549</ele>
        <time>2025-02-20T15:52:09Z</time>
      </trkpt>
      <trkpt lat="45.65265" lon="6.54796">
        <ele>1549</ele>
        <time>2025-02-20T15:52:10Z</time>
      </trkpt>
      <trkpt lat="45.65265" lon="6.54796">
        <ele>1549</ele>
        <time>2025-02-20T15:52:11Z</time>
      </trkpt>
      <trkpt lat="45.65271" lon="6.548">
        <ele>1548.4</ele>
        <time>2025-02-20T15:52:12Z</time>
      </trkpt>
      <trkpt lat="45.6527" lon="6.54801">
        <ele>1547.8</ele>
        <time>2025-02-20T15:52:13Z</time>
      </trkpt>
      <trkpt lat="45.6527" lon="6.54801">
        <ele>1547.8</ele>
        <time>2025-02-20T15:52:14Z</time>
      </trkpt>
      <trkpt lat="45.65271" lon="6.54802">
        <ele>1547.8</ele>
        <time>2025-02-20T15:52:15Z</time>
      </trkpt>
      <trkpt lat="45.65271" lon="6.54802">
        <ele>1547.8</ele>
        <time>2025-02-20T15:52:16Z</time>
      </trkpt>
      <trkpt lat="45.65271" lon="6.54803">
        <ele>1545.6</ele>
        <time>2025-02-20T15:52:17Z</time>
      </trkpt>
      <trkpt lat="45.65272" lon="6.54803">
        <ele>1545.6</ele>
        <time>2025-02-20T15:52:18Z</time>
      </trkpt>
      <trkpt lat="45.65272" lon="6.54803">
        <ele>1545.6</ele>
        <time>2025-02-20T15:52:19Z</time>
      </trkpt>
      <trkpt lat="45.65272" lon="6.54803">
        <ele>1545.6</ele>
        <time>2025-02-20T15:52:20Z</time>
      </trkpt>
      <trkpt lat="45.65272" lon="6.54803">
        <ele>1545.8</ele>
        <time>2025-02-20T15:52:21Z</time>
      </trkpt>
      <trkpt lat="45.6527" lon="6.54805">
        <ele>1545.8</ele>
        <time>2025-02-20T15:52:22Z</time>
      </trkpt>
      <trkpt lat="45.6527" lon="6.54806">
        <ele>1545.8</ele>
        <time>2025-02-20T15:52:23Z</time>
      </trkpt>
      <trkpt lat="45.6527" lon="6.54806">
        <ele>1544.8</ele>
        <time>2025-02-20T15:52:24Z</time>
      </trkpt>
      <trkpt lat="45.6527" lon="6.54806">
        <ele>1545</ele>
        <time>2025-02-20T15:52:25Z</time>
      </trkpt>
      <trkpt lat="45.6527" lon="6.54806">
        <ele>1545</ele>
        <time>2025-02-20T15:52:26Z</time>
      </trkpt>
      <trkpt lat="45.6527" lon="6.54806">
        <ele>1545</ele>
        <time>2025-02-20T15:52:27Z</time>
      </trkpt>
      <trkpt lat="45.6527" lon="6.54806">
        <ele>1544.8</ele>
        <time>2025-02-20T15:52:28Z</time>
      </trkpt>
      <trkpt lat="45.6527" lon="6.54806">
        <ele>1544.2</ele>
        <time>2025-02-20T15:52:29Z</time>
      </trkpt>
      <trkpt lat="45.6527" lon="6.54806">
        <ele>1544.2</ele>
        <time>2025-02-20T15:52:30Z</time>
      </trkpt>
      <trkpt lat="45.6527" lon="6.54806">
        <ele>1544.2</ele>
        <time>2025-02-20T15:52:31Z</time>
      </trkpt>
      <trkpt lat="45.6527" lon="6.54806">
        <ele>1544.8</ele>
        <time>2025-02-20T15:52:32Z</time>
      </trkpt>
      <trkpt lat="45.6527" lon="6.54806">
        <ele>1544.6</ele>
        <time>2025-02-20T15:52:33Z</time>
      </trkpt>
      <trkpt lat="45.6527" lon="6.54806">
        <ele>1544.6</ele>
        <time>2025-02-20T15:52:34Z</time>
      </trkpt>
      <trkpt lat="45.6527" lon="6.54806">
        <ele>1544.6</ele>
        <time>2025-02-20T15:52:35Z</time>
      </trkpt>
      <trkpt lat="45.6527" lon="6.54806">
        <ele>1544.6</ele>
        <time>2025-02-20T15:52:36Z</time>
      </trkpt>
      <trkpt lat="45.6527" lon="6.54806">
        <ele>1544.4</ele>
        <time>2025-02-20T15:52:37Z</time>
      </trkpt>
      <trkpt lat="45.6527" lon="6.54806">
        <ele>1544.4</ele>
        <time>2025-02-20T15:52:38Z</time>
      </trkpt>
      <trkpt lat="45.6527" lon="6.54806">
        <ele>1544.4</ele>
        <time>2025-02-20T15:52:39Z</time>
      </trkpt>
      <trkpt lat="45.6527" lon="6.54806">
        <ele>1544.4</ele>
        <time>2025-02-20T15:52:40Z</time>
      </trkpt>
      <trkpt lat="45.6527" lon="6.54806">
        <ele>1544.2</ele>
        <time>2025-02-20T15:52:41Z</time>
      </trkpt>
      <trkpt lat="45.6527" lon="6.54806">
        <ele>1544.2</ele>
        <time>2025-02-20T15:52:42Z</time>
      </trkpt>
      <trkpt lat="45.6527" lon="6.54806">
        <ele>1544.2</ele>
        <time>2025-02-20T15:52:43Z</time>
      </trkpt>
      <trkpt lat="45.6527" lon="6.54806">
        <ele>1544.2</ele>
        <time>2025-02-20T15:52:44Z</time>
      </trkpt>
      <trkpt lat="45.6527" lon="6.54806">
        <ele>1544.6</ele>
        <time>2025-02-20T15:52:45Z</time>
      </trkpt>
      <trkpt lat="45.6527" lon="6.54806">
        <ele>1544.6</ele>
        <time>2025-02-20T15:52:46Z</time>
      </trkpt>
      <trkpt lat="45.6527" lon="6.54806">
        <ele>1544.6</ele>
        <time>2025-02-20T15:52:47Z</time>
      </trkpt>
      <trkpt lat="45.6527" lon="6.54806">
        <ele>1544.4</ele>
        <time>2025-02-20T15:52:48Z</time>
      </trkpt>
      <trkpt lat="45.6527" lon="6.54806">
        <ele>1544.2</ele>
        <time>2025-02-20T15:52:49Z</time>
      </trkpt>
      <trkpt lat="45.6527" lon="6.54806">
        <ele>1544.2</ele>
        <time>2025-02-20T15:52:50Z</time>
      </trkpt>
      <trkpt lat="45.6527" lon="6.54806">
        <ele>1544.2</ele>
        <time>2025-02-20T15:52:51Z</time>
      </trkpt>
      <trkpt lat="45.6527" lon="6.54806">
        <ele>1544.2</ele>
        <time>2025-02-20T15:52:52Z</time>
      </trkpt>
      <trkpt lat="45.6527" lon="6.54806">
        <ele>1544.2</ele>
        <time>2025-02-20T15:52:53Z</time>
      </trkpt>
      <trkpt lat="45.65269" lon="6.54809">
        <ele>1544.2</ele>
        <time>2025-02-20T15:52:54Z</time>
      </trkpt>
      <trkpt lat="45.65269" lon="6.54809">
        <ele>1544.2</ele>
        <time>2025-02-20T15:52:55Z</time>
      </trkpt>
      <trkpt lat="45.65268" lon="6.54809">
        <ele>1543.2</ele>
        <time>2025-02-20T15:52:56Z</time>
      </trkpt>
      <trkpt lat="45.65268" lon="6.5481">
        <ele>1542.4</ele>
        <time>2025-02-20T15:52:57Z</time>
      </trkpt>
      <trkpt lat="45.65268" lon="6.54812">
        <ele>1542.4</ele>
        <time>2025-02-20T15:52:58Z</time>
      </trkpt>
      <trkpt lat="45.65268" lon="6.54815">
        <ele>1542.4</ele>
        <time>2025-02-20T15:52:59Z</time>
      </trkpt>
      <trkpt lat="45.65268" lon="6.54817">
        <ele>1541.4</ele>
        <time>2025-02-20T15:53:00Z</time>
      </trkpt>
      <trkpt lat="45.65268" lon="6.54819">
        <ele>1540.2</ele>
        <time>2025-02-20T15:53:01Z</time>
      </trkpt>
      <trkpt lat="45.65269" lon="6.54822">
        <ele>1540.2</ele>
        <time>2025-02-20T15:53:02Z</time>
      </trkpt>
      <trkpt lat="45.65269" lon="6.54824">
        <ele>1540.2</ele>
        <time>2025-02-20T15:53:03Z</time>
      </trkpt>
      <trkpt lat="45.65269" lon="6.54827">
        <ele>1539.2</ele>
        <time>2025-02-20T15:53:04Z</time>
      </trkpt>
      <trkpt lat="45.65268" lon="6.54829">
        <ele>1536.8</ele>
        <time>2025-02-20T15:53:05Z</time>
      </trkpt>
      <trkpt lat="45.65269" lon="6.54832">
        <ele>1536.8</ele>
        <time>2025-02-20T15:53:06Z</time>
      </trkpt>
      <trkpt lat="45.65269" lon="6.54833">
        <ele>1536.8</ele>
        <time>2025-02-20T15:53:07Z</time>
      </trkpt>
      <trkpt lat="45.65269" lon="6.54834">
        <ele>1536.8</ele>
        <time>2025-02-20T15:53:08Z</time>
      </trkpt>
      <trkpt lat="45.65269" lon="6.54834">
        <ele>1535.2</ele>
        <time>2025-02-20T15:53:09Z</time>
      </trkpt>
      <trkpt lat="45.65269" lon="6.54834">
        <ele>1535.2</ele>
        <time>2025-02-20T15:53:10Z</time>
      </trkpt>
      <trkpt lat="45.65269" lon="6.54834">
        <ele>1535.2</ele>
        <time>2025-02-20T15:53:11Z</time>
      </trkpt>
      <trkpt lat="45.65269" lon="6.54834">
        <ele>1535.4</ele>
        <time>2025-02-20T15:53:12Z</time>
      </trkpt>
      <trkpt lat="45.65269" lon="6.54834">
        <ele>1534.8</ele>
        <time>2025-02-20T15:53:13Z</time>
      </trkpt>
      <trkpt lat="45.65269" lon="6.54834">
        <ele>1534.8</ele>
        <time>2025-02-20T15:53:14Z</time>
      </trkpt>
      <trkpt lat="45.65272" lon="6.54837">
        <ele>1534.8</ele>
        <time>2025-02-20T15:53:15Z</time>
      </trkpt>
      <trkpt lat="45.65275" lon="6.54842">
        <ele>1533.8</ele>
        <time>2025-02-20T15:53:16Z</time>
      </trkpt>
      <trkpt lat="45.65276" lon="6.54845">
        <ele>1532.4</ele>
        <time>2025-02-20T15:53:17Z</time>
      </trkpt>
      <trkpt lat="45.65276" lon="6.54845">
        <ele>1532.4</ele>
        <time>2025-02-20T15:53:18Z</time>
      </trkpt>
      <trkpt lat="45.65276" lon="6.54845">
        <ele>1532.4</ele>
        <time>2025-02-20T15:53:19Z</time>
      </trkpt>
      <trkpt lat="45.65276" lon="6.54845">
        <ele>1531.4</ele>
        <time>2025-02-20T15:53:20Z</time>
      </trkpt>
      <trkpt lat="45.65276" lon="6.54845">
        <ele>1531.2</ele>
        <time>2025-02-20T15:53:21Z</time>
      </trkpt>
      <trkpt lat="45.65279" lon="6.54849">
        <ele>1531.2</ele>
        <time>2025-02-20T15:53:22Z</time>
      </trkpt>
      <trkpt lat="45.6528" lon="6.54853">
        <ele>1531.2</ele>
        <time>2025-02-20T15:53:23Z</time>
      </trkpt>
      <trkpt lat="45.6528" lon="6.54857">
        <ele>1531.2</ele>
        <time>2025-02-20T15:53:24Z</time>
      </trkpt>
      <trkpt lat="45.65281" lon="6.54858">
        <ele>1529</ele>
        <time>2025-02-20T15:53:25Z</time>
      </trkpt>
      <trkpt lat="45.65281" lon="6.54858">
        <ele>1529</ele>
        <time>2025-02-20T15:53:26Z</time>
      </trkpt>
      <trkpt lat="45.65282" lon="6.54861">
        <ele>1529</ele>
        <time>2025-02-20T15:53:27Z</time>
      </trkpt>
      <trkpt lat="45.65282" lon="6.54862">
        <ele>1528</ele>
        <time>2025-02-20T15:53:28Z</time>
      </trkpt>
      <trkpt lat="45.65283" lon="6.54864">
        <ele>1527</ele>
        <time>2025-02-20T15:53:29Z</time>
      </trkpt>
      <trkpt lat="45.65285" lon="6.54866">
        <ele>1527</ele>
        <time>2025-02-20T15:53:30Z</time>
      </trkpt>
      <trkpt lat="45.65286" lon="6.54868">
        <ele>1527</ele>
        <time>2025-02-20T15:53:31Z</time>
      </trkpt>
      <trkpt lat="45.65287" lon="6.5487">
        <ele>1526</ele>
        <time>2025-02-20T15:53:32Z</time>
      </trkpt>
      <trkpt lat="45.65288" lon="6.54873">
        <ele>1523.4</ele>
        <time>2025-02-20T15:53:33Z</time>
      </trkpt>
      <trkpt lat="45.65289" lon="6.54876">
        <ele>1523.4</ele>
        <time>2025-02-20T15:53:34Z</time>
      </trkpt>
      <trkpt lat="45.65289" lon="6.54879">
        <ele>1523.4</ele>
        <time>2025-02-20T15:53:35Z</time>
      </trkpt>
      <trkpt lat="45.65289" lon="6.5488">
        <ele>1523.4</ele>
        <time>2025-02-20T15:53:36Z</time>
      </trkpt>
      <trkpt lat="45.65291" lon="6.54882">
        <ele>1522.4</ele>
        <time>2025-02-20T15:53:37Z</time>
      </trkpt>
      <trkpt lat="45.65292" lon="6.54883">
        <ele>1522.4</ele>
        <time>2025-02-20T15:53:38Z</time>
      </trkpt>
      <trkpt lat="45.65295" lon="6.54883">
        <ele>1522.4</ele>
        <time>2025-02-20T15:53:39Z</time>
      </trkpt>
      <trkpt lat="45.65296" lon="6.54885">
        <ele>1521.4</ele>
        <time>2025-02-20T15:53:40Z</time>
      </trkpt>
      <trkpt lat="45.65298" lon="6.54886">
        <ele>1520.4</ele>
        <time>2025-02-20T15:53:41Z</time>
      </trkpt>
      <trkpt lat="45.65298" lon="6.54887">
        <ele>1520.4</ele>
        <time>2025-02-20T15:53:42Z</time>
      </trkpt>
      <trkpt lat="45.65298" lon="6.54888">
        <ele>1520.4</ele>
        <time>2025-02-20T15:53:43Z</time>
      </trkpt>
      <trkpt lat="45.65299" lon="6.54889">
        <ele>1519.4</ele>
        <time>2025-02-20T15:53:44Z</time>
      </trkpt>
      <trkpt lat="45.65299" lon="6.54891">
        <ele>1518.2</ele>
        <time>2025-02-20T15:53:45Z</time>
      </trkpt>
      <trkpt lat="45.65299" lon="6.54894">
        <ele>1518.2</ele>
        <time>2025-02-20T15:53:46Z</time>
      </trkpt>
      <trkpt lat="45.653" lon="6.54897">
        <ele>1518.2</ele>
        <time>2025-02-20T15:53:47Z</time>
      </trkpt>
      <trkpt lat="45.65301" lon="6.54901">
        <ele>1517.2</ele>
        <time>2025-02-20T15:53:48Z</time>
      </trkpt>
      <trkpt lat="45.65301" lon="6.54903">
        <ele>1516.4</ele>
        <time>2025-02-20T15:53:49Z</time>
      </trkpt>
      <trkpt lat="45.65302" lon="6.54906">
        <ele>1516.4</ele>
        <time>2025-02-20T15:53:50Z</time>
      </trkpt>
      <trkpt lat="45.65303" lon="6.54909">
        <ele>1516.4</ele>
        <time>2025-02-20T15:53:51Z</time>
      </trkpt>
      <trkpt lat="45.65305" lon="6.5491">
        <ele>1515.6</ele>
        <time>2025-02-20T15:53:52Z</time>
      </trkpt>
      <trkpt lat="45.65306" lon="6.54912">
        <ele>1514.8</ele>
        <time>2025-02-20T15:53:53Z</time>
      </trkpt>
      <trkpt lat="45.65307" lon="6.54914">
        <ele>1514.8</ele>
        <time>2025-02-20T15:53:54Z</time>
      </trkpt>
      <trkpt lat="45.65309" lon="6.54916">
        <ele>1514.8</ele>
        <time>2025-02-20T15:53:55Z</time>
      </trkpt>
      <trkpt lat="45.6531" lon="6.54918">
        <ele>1513.8</ele>
        <time>2025-02-20T15:53:56Z</time>
      </trkpt>
      <trkpt lat="45.65313" lon="6.54919">
        <ele>1512.8</ele>
        <time>2025-02-20T15:53:57Z</time>
      </trkpt>
      <trkpt lat="45.65315" lon="6.54921">
        <ele>1512.8</ele>
        <time>2025-02-20T15:53:58Z</time>
      </trkpt>
      <trkpt lat="45.65316" lon="6.5492">
        <ele>1512.8</ele>
        <time>2025-02-20T15:53:59Z</time>
      </trkpt>
      <trkpt lat="45.65317" lon="6.54921">
        <ele>1512.2</ele>
        <time>2025-02-20T15:54:00Z</time>
      </trkpt>
      <trkpt lat="45.65318" lon="6.5492">
        <ele>1512</ele>
        <time>2025-02-20T15:54:01Z</time>
      </trkpt>
      <trkpt lat="45.65319" lon="6.54921">
        <ele>1512</ele>
        <time>2025-02-20T15:54:02Z</time>
      </trkpt>
      <trkpt lat="45.65321" lon="6.54922">
        <ele>1512</ele>
        <time>2025-02-20T15:54:03Z</time>
      </trkpt>
      <trkpt lat="45.65323" lon="6.54925">
        <ele>1511</ele>
        <time>2025-02-20T15:54:04Z</time>
      </trkpt>
      <trkpt lat="45.65324" lon="6.54927">
        <ele>1508.4</ele>
        <time>2025-02-20T15:54:05Z</time>
      </trkpt>
      <trkpt lat="45.65327" lon="6.54929">
        <ele>1508.4</ele>
        <time>2025-02-20T15:54:06Z</time>
      </trkpt>
      <trkpt lat="45.65329" lon="6.54927">
        <ele>1508.4</ele>
        <time>2025-02-20T15:54:07Z</time>
      </trkpt>
      <trkpt lat="45.65332" lon="6.54927">
        <ele>1507.4</ele>
        <time>2025-02-20T15:54:08Z</time>
      </trkpt>
      <trkpt lat="45.65334" lon="6.5493">
        <ele>1505.8</ele>
        <time>2025-02-20T15:54:09Z</time>
      </trkpt>
      <trkpt lat="45.65336" lon="6.54933">
        <ele>1505.8</ele>
        <time>2025-02-20T15:54:10Z</time>
      </trkpt>
      <trkpt lat="45.65337" lon="6.54935">
        <ele>1505.8</ele>
        <time>2025-02-20T15:54:11Z</time>
      </trkpt>
      <trkpt lat="45.65337" lon="6.54935">
        <ele>1505.2</ele>
        <time>2025-02-20T15:54:12Z</time>
      </trkpt>
      <trkpt lat="45.65337" lon="6.54935">
        <ele>1505.4</ele>
        <time>2025-02-20T15:54:13Z</time>
      </trkpt>
      <trkpt lat="45.65337" lon="6.54935">
        <ele>1505.4</ele>
        <time>2025-02-20T15:54:14Z</time>
      </trkpt>
      <trkpt lat="45.65337" lon="6.54935">
        <ele>1505.4</ele>
        <time>2025-02-20T15:54:15Z</time>
      </trkpt>
      <trkpt lat="45.65337" lon="6.54935">
        <ele>1505.4</ele>
        <time>2025-02-20T15:54:16Z</time>
      </trkpt>
      <trkpt lat="45.65337" lon="6.54935">
        <ele>1505.4</ele>
        <time>2025-02-20T15:54:17Z</time>
      </trkpt>
      <trkpt lat="45.65337" lon="6.54935">
        <ele>1505.4</ele>
        <time>2025-02-20T15:54:18Z</time>
      </trkpt>
      <trkpt lat="45.65337" lon="6.54935">
        <ele>1505.4</ele>
        <time>2025-02-20T15:54:19Z</time>
      </trkpt>
      <trkpt lat="45.65337" lon="6.54935">
        <ele>1505.4</ele>
        <time>2025-02-20T15:54:20Z</time>
      </trkpt>
      <trkpt lat="45.65337" lon="6.54935">
        <ele>1505.6</ele>
        <time>2025-02-20T15:54:21Z</time>
      </trkpt>
      <trkpt lat="45.65337" lon="6.54935">
        <ele>1505.6</ele>
        <time>2025-02-20T15:54:22Z</time>
      </trkpt>
      <trkpt lat="45.65337" lon="6.54935">
        <ele>1505.6</ele>
        <time>2025-02-20T15:54:23Z</time>
      </trkpt>
      <trkpt lat="45.65337" lon="6.54935">
        <ele>1505.6</ele>
        <time>2025-02-20T15:54:24Z</time>
      </trkpt>
      <trkpt lat="45.65337" lon="6.54935">
        <ele>1505.6</ele>
        <time>2025-02-20T15:54:25Z</time>
      </trkpt>
      <trkpt lat="45.65337" lon="6.54935">
        <ele>1505.6</ele>
        <time>2025-02-20T15:54:26Z</time>
      </trkpt>
      <trkpt lat="45.65337" lon="6.54935">
        <ele>1505.6</ele>
        <time>2025-02-20T15:54:27Z</time>
      </trkpt>
      <trkpt lat="45.65337" lon="6.54935">
        <ele>1505.6</ele>
        <time>2025-02-20T15:54:28Z</time>
      </trkpt>
      <trkpt lat="45.65337" lon="6.54935">
        <ele>1505.6</ele>
        <time>2025-02-20T15:54:29Z</time>
      </trkpt>
      <trkpt lat="45.65337" lon="6.54935">
        <ele>1505.6</ele>
        <time>2025-02-20T15:54:30Z</time>
      </trkpt>
      <trkpt lat="45.65337" lon="6.54935">
        <ele>1505.6</ele>
        <time>2025-02-20T15:54:31Z</time>
      </trkpt>
      <trkpt lat="45.65337" lon="6.54935">
        <ele>1505.6</ele>
        <time>2025-02-20T15:54:32Z</time>
      </trkpt>
      <trkpt lat="45.65337" lon="6.54935">
        <ele>1505.2</ele>
        <time>2025-02-20T15:54:33Z</time>
      </trkpt>
      <trkpt lat="45.65337" lon="6.54935">
        <ele>1505.2</ele>
        <time>2025-02-20T15:54:34Z</time>
      </trkpt>
      <trkpt lat="45.65337" lon="6.54935">
        <ele>1505.2</ele>
        <time>2025-02-20T15:54:35Z</time>
      </trkpt>
      <trkpt lat="45.65337" lon="6.54935">
        <ele>1505.4</ele>
        <time>2025-02-20T15:54:36Z</time>
      </trkpt>
      <trkpt lat="45.65337" lon="6.54935">
        <ele>1505.6</ele>
        <time>2025-02-20T15:54:37Z</time>
      </trkpt>
      <trkpt lat="45.65337" lon="6.54935">
        <ele>1505.6</ele>
        <time>2025-02-20T15:54:38Z</time>
      </trkpt>
      <trkpt lat="45.65337" lon="6.54935">
        <ele>1505.6</ele>
        <time>2025-02-20T15:54:39Z</time>
      </trkpt>
      <trkpt lat="45.65337" lon="6.54935">
        <ele>1505.6</ele>
        <time>2025-02-20T15:54:40Z</time>
      </trkpt>
      <trkpt lat="45.65337" lon="6.54935">
        <ele>1505.4</ele>
        <time>2025-02-20T15:54:41Z</time>
      </trkpt>
      <trkpt lat="45.65337" lon="6.54935">
        <ele>1505.4</ele>
        <time>2025-02-20T15:54:42Z</time>
      </trkpt>
      <trkpt lat="45.65337" lon="6.54935">
        <ele>1505.4</ele>
        <time>2025-02-20T15:54:43Z</time>
      </trkpt>
      <trkpt lat="45.65337" lon="6.54935">
        <ele>1505.4</ele>
        <time>2025-02-20T15:54:44Z</time>
      </trkpt>
      <trkpt lat="45.65337" lon="6.54935">
        <ele>1505.2</ele>
        <time>2025-02-20T15:54:45Z</time>
      </trkpt>
      <trkpt lat="45.65337" lon="6.54935">
        <ele>1505.2</ele>
        <time>2025-02-20T15:54:46Z</time>
      </trkpt>
      <trkpt lat="45.65337" lon="6.54935">
        <ele>1505.2</ele>
        <time>2025-02-20T15:54:47Z</time>
      </trkpt>
      <trkpt lat="45.65337" lon="6.54935">
        <ele>1505.2</ele>
        <time>2025-02-20T15:54:48Z</time>
      </trkpt>
      <trkpt lat="45.65337" lon="6.54935">
        <ele>1505</ele>
        <time>2025-02-20T15:54:49Z</time>
      </trkpt>
      <trkpt lat="45.65337" lon="6.54935">
        <ele>1505</ele>
        <time>2025-02-20T15:54:50Z</time>
      </trkpt>
      <trkpt lat="45.65337" lon="6.54935">
        <ele>1505</ele>
        <time>2025-02-20T15:54:51Z</time>
      </trkpt>
      <trkpt lat="45.65337" lon="6.54935">
        <ele>1505.2</ele>
        <time>2025-02-20T15:54:52Z</time>
      </trkpt>
      <trkpt lat="45.65337" lon="6.54935">
        <ele>1505.2</ele>
        <time>2025-02-20T15:54:53Z</time>
      </trkpt>
      <trkpt lat="45.65337" lon="6.54935">
        <ele>1505.2</ele>
        <time>2025-02-20T15:54:54Z</time>
      </trkpt>
      <trkpt lat="45.65337" lon="6.54935">
        <ele>1505.2</ele>
        <time>2025-02-20T15:54:55Z</time>
      </trkpt>
      <trkpt lat="45.65337" lon="6.54935">
        <ele>1505.4</ele>
        <time>2025-02-20T15:54:56Z</time>
      </trkpt>
      <trkpt lat="45.65337" lon="6.54935">
        <ele>1505.2</ele>
        <time>2025-02-20T15:54:57Z</time>
      </trkpt>
      <trkpt lat="45.65337" lon="6.54935">
        <ele>1505.2</ele>
        <time>2025-02-20T15:54:58Z</time>
      </trkpt>
      <trkpt lat="45.65337" lon="6.54935">
        <ele>1505.2</ele>
        <time>2025-02-20T15:54:59Z</time>
      </trkpt>
      <trkpt lat="45.65337" lon="6.54935">
        <ele>1505.2</ele>
        <time>2025-02-20T15:55:00Z</time>
      </trkpt>
      <trkpt lat="45.65337" lon="6.54935">
        <ele>1505.4</ele>
        <time>2025-02-20T15:55:01Z</time>
      </trkpt>
      <trkpt lat="45.65337" lon="6.54935">
        <ele>1505.4</ele>
        <time>2025-02-20T15:55:02Z</time>
      </trkpt>
      <trkpt lat="45.65337" lon="6.54935">
        <ele>1505.4</ele>
        <time>2025-02-20T15:55:03Z</time>
      </trkpt>
      <trkpt lat="45.65337" lon="6.54935">
        <ele>1505.2</ele>
        <time>2025-02-20T15:55:04Z</time>
      </trkpt>
      <trkpt lat="45.65337" lon="6.54935">
        <ele>1505</ele>
        <time>2025-02-20T15:55:05Z</time>
      </trkpt>
      <trkpt lat="45.65337" lon="6.54935">
        <ele>1505</ele>
        <time>2025-02-20T15:55:06Z</time>
      </trkpt>
      <trkpt lat="45.65337" lon="6.54935">
        <ele>1505</ele>
        <time>2025-02-20T15:55:07Z</time>
      </trkpt>
      <trkpt lat="45.65337" lon="6.54935">
        <ele>1505.6</ele>
        <time>2025-02-20T15:55:08Z</time>
      </trkpt>
      <trkpt lat="45.65337" lon="6.54935">
        <ele>1505.6</ele>
        <time>2025-02-20T15:55:09Z</time>
      </trkpt>
      <trkpt lat="45.65337" lon="6.54935">
        <ele>1505.6</ele>
        <time>2025-02-20T15:55:10Z</time>
      </trkpt>
      <trkpt lat="45.65337" lon="6.54935">
        <ele>1505.6</ele>
        <time>2025-02-20T15:55:11Z</time>
      </trkpt>
      <trkpt lat="45.65337" lon="6.54935">
        <ele>1505.6</ele>
        <time>2025-02-20T15:55:12Z</time>
      </trkpt>
      <trkpt lat="45.65337" lon="6.54935">
        <ele>1505.4</ele>
        <time>2025-02-20T15:55:13Z</time>
      </trkpt>
      <trkpt lat="45.65337" lon="6.54935">
        <ele>1505.4</ele>
        <time>2025-02-20T15:55:14Z</time>
      </trkpt>
      <trkpt lat="45.65337" lon="6.54935">
        <ele>1505.4</ele>
        <time>2025-02-20T15:55:15Z</time>
      </trkpt>
      <trkpt lat="45.65337" lon="6.54935">
        <ele>1505.4</ele>
        <time>2025-02-20T15:55:16Z</time>
      </trkpt>
      <trkpt lat="45.65337" lon="6.54935">
        <ele>1505.8</ele>
        <time>2025-02-20T15:55:17Z</time>
      </trkpt>
      <trkpt lat="45.65337" lon="6.54935">
        <ele>1505.8</ele>
        <time>2025-02-20T15:55:18Z</time>
      </trkpt>
      <trkpt lat="45.65337" lon="6.54935">
        <ele>1505.8</ele>
        <time>2025-02-20T15:55:19Z</time>
      </trkpt>
      <trkpt lat="45.65337" lon="6.54935">
        <ele>1505.2</ele>
        <time>2025-02-20T15:55:20Z</time>
      </trkpt>
      <trkpt lat="45.65337" lon="6.54935">
        <ele>1505.4</ele>
        <time>2025-02-20T15:55:21Z</time>
      </trkpt>
      <trkpt lat="45.65337" lon="6.54935">
        <ele>1505.4</ele>
        <time>2025-02-20T15:55:22Z</time>
      </trkpt>
      <trkpt lat="45.65337" lon="6.54935">
        <ele>1505.4</ele>
        <time>2025-02-20T15:55:23Z</time>
      </trkpt>
      <trkpt lat="45.65337" lon="6.54935">
        <ele>1505.4</ele>
        <time>2025-02-20T15:55:24Z</time>
      </trkpt>
      <trkpt lat="45.65337" lon="6.54935">
        <ele>1505.4</ele>
        <time>2025-02-20T15:55:25Z</time>
      </trkpt>
      <trkpt lat="45.65337" lon="6.54935">
        <ele>1505.4</ele>
        <time>2025-02-20T15:55:26Z</time>
      </trkpt>
      <trkpt lat="45.65337" lon="6.54935">
        <ele>1505.4</ele>
        <time>2025-02-20T15:55:27Z</time>
      </trkpt>
      <trkpt lat="45.65337" lon="6.54935">
        <ele>1505.4</ele>
        <time>2025-02-20T15:55:28Z</time>
      </trkpt>
      <trkpt lat="45.65337" lon="6.54935">
        <ele>1505.6</ele>
        <time>2025-02-20T15:55:29Z</time>
      </trkpt>
      <trkpt lat="45.65337" lon="6.54935">
        <ele>1505.6</ele>
        <time>2025-02-20T15:55:30Z</time>
      </trkpt>
      <trkpt lat="45.65337" lon="6.54935">
        <ele>1505.6</ele>
        <time>2025-02-20T15:55:31Z</time>
      </trkpt>
      <trkpt lat="45.65337" lon="6.54935">
        <ele>1505.6</ele>
        <time>2025-02-20T15:55:32Z</time>
      </trkpt>
      <trkpt lat="45.65337" lon="6.54935">
        <ele>1505.2</ele>
        <time>2025-02-20T15:55:33Z</time>
      </trkpt>
      <trkpt lat="45.65337" lon="6.54935">
        <ele>1505.2</ele>
        <time>2025-02-20T15:55:34Z</time>
      </trkpt>
      <trkpt lat="45.65337" lon="6.54935">
        <ele>1505.2</ele>
        <time>2025-02-20T15:55:35Z</time>
      </trkpt>
      <trkpt lat="45.65337" lon="6.54935">
        <ele>1505.2</ele>
        <time>2025-02-20T15:55:36Z</time>
      </trkpt>
      <trkpt lat="45.65337" lon="6.54935">
        <ele>1505</ele>
        <time>2025-02-20T15:55:37Z</time>
      </trkpt>
      <trkpt lat="45.65337" lon="6.54935">
        <ele>1505</ele>
        <time>2025-02-20T15:55:38Z</time>
      </trkpt>
      <trkpt lat="45.65337" lon="6.54935">
        <ele>1505</ele>
        <time>2025-02-20T15:55:39Z</time>
      </trkpt>
      <trkpt lat="45.65337" lon="6.54935">
        <ele>1505</ele>
        <time>2025-02-20T15:55:40Z</time>
      </trkpt>
      <trkpt lat="45.65337" lon="6.54935">
        <ele>1505.6</ele>
        <time>2025-02-20T15:55:41Z</time>
      </trkpt>
      <trkpt lat="45.65337" lon="6.54935">
        <ele>1505.6</ele>
        <time>2025-02-20T15:55:42Z</time>
      </trkpt>
      <trkpt lat="45.65337" lon="6.54935">
        <ele>1505.6</ele>
        <time>2025-02-20T15:55:43Z</time>
      </trkpt>
      <trkpt lat="45.65337" lon="6.54935">
        <ele>1505.4</ele>
        <time>2025-02-20T15:55:44Z</time>
      </trkpt>
      <trkpt lat="45.65337" lon="6.54935">
        <ele>1505</ele>
        <time>2025-02-20T15:55:45Z</time>
      </trkpt>
      <trkpt lat="45.65337" lon="6.54935">
        <ele>1505</ele>
        <time>2025-02-20T15:55:46Z</time>
      </trkpt>
      <trkpt lat="45.65337" lon="6.54935">
        <ele>1505</ele>
        <time>2025-02-20T15:55:47Z</time>
      </trkpt>
      <trkpt lat="45.65337" lon="6.54935">
        <ele>1505</ele>
        <time>2025-02-20T15:55:48Z</time>
      </trkpt>
      <trkpt lat="45.65337" lon="6.54935">
        <ele>1505</ele>
        <time>2025-02-20T15:55:49Z</time>
      </trkpt>
      <trkpt lat="45.65337" lon="6.54935">
        <ele>1505</ele>
        <time>2025-02-20T15:55:50Z</time>
      </trkpt>
      <trkpt lat="45.65337" lon="6.54935">
        <ele>1505</ele>
        <time>2025-02-20T15:55:51Z</time>
      </trkpt>
      <trkpt lat="45.65337" lon="6.54935">
        <ele>1505</ele>
        <time>2025-02-20T15:55:52Z</time>
      </trkpt>
      <trkpt lat="45.65337" lon="6.54935">
        <ele>1505</ele>
        <time>2025-02-20T15:55:53Z</time>
      </trkpt>
      <trkpt lat="45.65337" lon="6.54935">
        <ele>1505</ele>
        <time>2025-02-20T15:55:54Z</time>
      </trkpt>
      <trkpt lat="45.65337" lon="6.54935">
        <ele>1505</ele>
        <time>2025-02-20T15:55:55Z</time>
      </trkpt>
      <trkpt lat="45.65337" lon="6.54935">
        <ele>1505</ele>
        <time>2025-02-20T15:55:56Z</time>
      </trkpt>
      <trkpt lat="45.65337" lon="6.54935">
        <ele>1505</ele>
        <time>2025-02-20T15:55:57Z</time>
      </trkpt>
      <trkpt lat="45.65337" lon="6.54935">
        <ele>1505</ele>
        <time>2025-02-20T15:55:58Z</time>
      </trkpt>
      <trkpt lat="45.65337" lon="6.54935">
        <ele>1505</ele>
        <time>2025-02-20T15:55:59Z</time>
      </trkpt>
      <trkpt lat="45.65337" lon="6.54935">
        <ele>1505</ele>
        <time>2025-02-20T15:56:00Z</time>
      </trkpt>
      <trkpt lat="45.65337" lon="6.54935">
        <ele>1505.4</ele>
        <time>2025-02-20T15:56:01Z</time>
      </trkpt>
      <trkpt lat="45.65337" lon="6.54935">
        <ele>1505.4</ele>
        <time>2025-02-20T15:56:02Z</time>
      </trkpt>
      <trkpt lat="45.65337" lon="6.54935">
        <ele>1505.4</ele>
        <time>2025-02-20T15:56:03Z</time>
      </trkpt>
      <trkpt lat="45.65337" lon="6.54935">
        <ele>1505</ele>
        <time>2025-02-20T15:56:04Z</time>
      </trkpt>
      <trkpt lat="45.65337" lon="6.54935">
        <ele>1505</ele>
        <time>2025-02-20T15:56:05Z</time>
      </trkpt>
      <trkpt lat="45.65337" lon="6.54935">
        <ele>1505</ele>
        <time>2025-02-20T15:56:06Z</time>
      </trkpt>
      <trkpt lat="45.65337" lon="6.54935">
        <ele>1505</ele>
        <time>2025-02-20T15:56:07Z</time>
      </trkpt>
      <trkpt lat="45.65337" lon="6.54935">
        <ele>1505</ele>
        <time>2025-02-20T15:56:08Z</time>
      </trkpt>
      <trkpt lat="45.65337" lon="6.54935">
        <ele>1505.4</ele>
        <time>2025-02-20T15:56:09Z</time>
      </trkpt>
      <trkpt lat="45.65337" lon="6.54935">
        <ele>1505.4</ele>
        <time>2025-02-20T15:56:10Z</time>
      </trkpt>
      <trkpt lat="45.65337" lon="6.54935">
        <ele>1505.4</ele>
        <time>2025-02-20T15:56:11Z</time>
      </trkpt>
      <trkpt lat="45.65337" lon="6.54935">
        <ele>1505.4</ele>
        <time>2025-02-20T15:56:12Z</time>
      </trkpt>
      <trkpt lat="45.65337" lon="6.54935">
        <ele>1505</ele>
        <time>2025-02-20T15:56:13Z</time>
      </trkpt>
      <trkpt lat="45.65337" lon="6.54935">
        <ele>1505</ele>
        <time>2025-02-20T15:56:14Z</time>
      </trkpt>
      <trkpt lat="45.65337" lon="6.54935">
        <ele>1505</ele>
        <time>2025-02-20T15:56:15Z</time>
      </trkpt>
      <trkpt lat="45.65337" lon="6.54935">
        <ele>1505</ele>
        <time>2025-02-20T15:56:16Z</time>
      </trkpt>
      <trkpt lat="45.65337" lon="6.54935">
        <ele>1504.8</ele>
        <time>2025-02-20T15:56:17Z</time>
      </trkpt>
      <trkpt lat="45.65337" lon="6.54935">
        <ele>1504.8</ele>
        <time>2025-02-20T15:56:18Z</time>
      </trkpt>
      <trkpt lat="45.65337" lon="6.54935">
        <ele>1504.8</ele>
        <time>2025-02-20T15:56:19Z</time>
      </trkpt>
      <trkpt lat="45.65337" lon="6.54935">
        <ele>1504.8</ele>
        <time>2025-02-20T15:56:20Z</time>
      </trkpt>
      <trkpt lat="45.65337" lon="6.54935">
        <ele>1505</ele>
        <time>2025-02-20T15:56:21Z</time>
      </trkpt>
      <trkpt lat="45.65337" lon="6.54935">
        <ele>1505</ele>
        <time>2025-02-20T15:56:22Z</time>
      </trkpt>
      <trkpt lat="45.65337" lon="6.54935">
        <ele>1505</ele>
        <time>2025-02-20T15:56:23Z</time>
      </trkpt>
      <trkpt lat="45.65337" lon="6.54935">
        <ele>1505</ele>
        <time>2025-02-20T15:56:24Z</time>
      </trkpt>
      <trkpt lat="45.65337" lon="6.54935">
        <ele>1505</ele>
        <time>2025-02-20T15:56:25Z</time>
      </trkpt>
      <trkpt lat="45.65337" lon="6.54935">
        <ele>1505</ele>
        <time>2025-02-20T15:56:26Z</time>
      </trkpt>
      <trkpt lat="45.65337" lon="6.54935">
        <ele>1505</ele>
        <time>2025-02-20T15:56:27Z</time>
      </trkpt>
      <trkpt lat="45.65337" lon="6.54935">
        <ele>1505</ele>
        <time>2025-02-20T15:56:28Z</time>
      </trkpt>
      <trkpt lat="45.65337" lon="6.54935">
        <ele>1505.2</ele>
        <time>2025-02-20T15:56:29Z</time>
      </trkpt>
      <trkpt lat="45.65337" lon="6.54935">
        <ele>1505.2</ele>
        <time>2025-02-20T15:56:30Z</time>
      </trkpt>
      <trkpt lat="45.65337" lon="6.54935">
        <ele>1505.2</ele>
        <time>2025-02-20T15:56:31Z</time>
      </trkpt>
      <trkpt lat="45.65337" lon="6.54935">
        <ele>1505.2</ele>
        <time>2025-02-20T15:56:32Z</time>
      </trkpt>
      <trkpt lat="45.65337" lon="6.54935">
        <ele>1505.4</ele>
        <time>2025-02-20T15:56:33Z</time>
      </trkpt>
      <trkpt lat="45.65337" lon="6.54935">
        <ele>1505.4</ele>
        <time>2025-02-20T15:56:34Z</time>
      </trkpt>
      <trkpt lat="45.65337" lon="6.54935">
        <ele>1505.4</ele>
        <time>2025-02-20T15:56:35Z</time>
      </trkpt>
      <trkpt lat="45.65337" lon="6.54935">
        <ele>1505</ele>
        <time>2025-02-20T15:56:36Z</time>
      </trkpt>
      <trkpt lat="45.65337" lon="6.54935">
        <ele>1505</ele>
        <time>2025-02-20T15:56:37Z</time>
      </trkpt>
      <trkpt lat="45.65337" lon="6.54935">
        <ele>1505</ele>
        <time>2025-02-20T15:56:38Z</time>
      </trkpt>
      <trkpt lat="45.65337" lon="6.54935">
        <ele>1505</ele>
        <time>2025-02-20T15:56:39Z</time>
      </trkpt>
      <trkpt lat="45.65337" lon="6.54935">
        <ele>1505.2</ele>
        <time>2025-02-20T15:56:40Z</time>
      </trkpt>
      <trkpt lat="45.65337" lon="6.54935">
        <ele>1505</ele>
        <time>2025-02-20T15:56:41Z</time>
      </trkpt>
      <trkpt lat="45.65337" lon="6.54935">
        <ele>1505</ele>
        <time>2025-02-20T15:56:42Z</time>
      </trkpt>
      <trkpt lat="45.65337" lon="6.54935">
        <ele>1505</ele>
        <time>2025-02-20T15:56:43Z</time>
      </trkpt>
      <trkpt lat="45.65337" lon="6.54935">
        <ele>1505.4</ele>
        <time>2025-02-20T15:56:44Z</time>
      </trkpt>
      <trkpt lat="45.65337" lon="6.54935">
        <ele>1505.6</ele>
        <time>2025-02-20T15:56:45Z</time>
      </trkpt>
      <trkpt lat="45.65337" lon="6.54935">
        <ele>1505.6</ele>
        <time>2025-02-20T15:56:46Z</time>
      </trkpt>
      <trkpt lat="45.65337" lon="6.54935">
        <ele>1505.6</ele>
        <time>2025-02-20T15:56:47Z</time>
      </trkpt>
      <trkpt lat="45.65337" lon="6.54935">
        <ele>1505.6</ele>
        <time>2025-02-20T15:56:48Z</time>
      </trkpt>
      <trkpt lat="45.65337" lon="6.54935">
        <ele>1505.2</ele>
        <time>2025-02-20T15:56:49Z</time>
      </trkpt>
      <trkpt lat="45.65337" lon="6.54935">
        <ele>1505.2</ele>
        <time>2025-02-20T15:56:50Z</time>
      </trkpt>
      <trkpt lat="45.65337" lon="6.54935">
        <ele>1505.2</ele>
        <time>2025-02-20T15:56:51Z</time>
      </trkpt>
      <trkpt lat="45.65337" lon="6.54935">
        <ele>1505.2</ele>
        <time>2025-02-20T15:56:52Z</time>
      </trkpt>
      <trkpt lat="45.65337" lon="6.54935">
        <ele>1505.2</ele>
        <time>2025-02-20T15:56:53Z</time>
      </trkpt>
      <trkpt lat="45.65337" lon="6.54935">
        <ele>1505.2</ele>
        <time>2025-02-20T15:56:54Z</time>
      </trkpt>
      <trkpt lat="45.65337" lon="6.54935">
        <ele>1505.2</ele>
        <time>2025-02-20T15:56:55Z</time>
      </trkpt>
      <trkpt lat="45.65337" lon="6.54935">
        <ele>1505.4</ele>
        <time>2025-02-20T15:56:56Z</time>
      </trkpt>
      <trkpt lat="45.65337" lon="6.54935">
        <ele>1505.4</ele>
        <time>2025-02-20T15:56:57Z</time>
      </trkpt>
      <trkpt lat="45.65337" lon="6.54935">
        <ele>1505.4</ele>
        <time>2025-02-20T15:56:58Z</time>
      </trkpt>
      <trkpt lat="45.65337" lon="6.54935">
        <ele>1505.4</ele>
        <time>2025-02-20T15:56:59Z</time>
      </trkpt>
      <trkpt lat="45.65337" lon="6.54935">
        <ele>1505.2</ele>
        <time>2025-02-20T15:57:00Z</time>
      </trkpt>
      <trkpt lat="45.65337" lon="6.54935">
        <ele>1505.2</ele>
        <time>2025-02-20T15:57:01Z</time>
      </trkpt>
      <trkpt lat="45.65337" lon="6.54935">
        <ele>1505.2</ele>
        <time>2025-02-20T15:57:02Z</time>
      </trkpt>
      <trkpt lat="45.65337" lon="6.54935">
        <ele>1505.2</ele>
        <time>2025-02-20T15:57:03Z</time>
      </trkpt>
      <trkpt lat="45.65337" lon="6.54935">
        <ele>1505.2</ele>
        <time>2025-02-20T15:57:04Z</time>
      </trkpt>
      <trkpt lat="45.65337" lon="6.54935">
        <ele>1505.2</ele>
        <time>2025-02-20T15:57:05Z</time>
      </trkpt>
      <trkpt lat="45.65337" lon="6.54935">
        <ele>1505.2</ele>
        <time>2025-02-20T15:57:06Z</time>
      </trkpt>
      <trkpt lat="45.65337" lon="6.54935">
        <ele>1505.2</ele>
        <time>2025-02-20T15:57:07Z</time>
      </trkpt>
      <trkpt lat="45.65337" lon="6.54935">
        <ele>1505.2</ele>
        <time>2025-02-20T15:57:08Z</time>
      </trkpt>
      <trkpt lat="45.65337" lon="6.54935">
        <ele>1505.4</ele>
        <time>2025-02-20T15:57:09Z</time>
      </trkpt>
      <trkpt lat="45.65337" lon="6.54935">
        <ele>1505.4</ele>
        <time>2025-02-20T15:57:10Z</time>
      </trkpt>
      <trkpt lat="45.65337" lon="6.54935">
        <ele>1505.4</ele>
        <time>2025-02-20T15:57:11Z</time>
      </trkpt>
      <trkpt lat="45.65337" lon="6.54935">
        <ele>1504.8</ele>
        <time>2025-02-20T15:57:12Z</time>
      </trkpt>
      <trkpt lat="45.65337" lon="6.54935">
        <ele>1505</ele>
        <time>2025-02-20T15:57:13Z</time>
      </trkpt>
      <trkpt lat="45.65337" lon="6.54935">
        <ele>1505</ele>
        <time>2025-02-20T15:57:14Z</time>
      </trkpt>
      <trkpt lat="45.65337" lon="6.54935">
        <ele>1505</ele>
        <time>2025-02-20T15:57:15Z</time>
      </trkpt>
      <trkpt lat="45.65337" lon="6.54935">
        <ele>1505.2</ele>
        <time>2025-02-20T15:57:16Z</time>
      </trkpt>
      <trkpt lat="45.65337" lon="6.54935">
        <ele>1505.6</ele>
        <time>2025-02-20T15:57:17Z</time>
      </trkpt>
      <trkpt lat="45.65337" lon="6.54935">
        <ele>1505.6</ele>
        <time>2025-02-20T15:57:18Z</time>
      </trkpt>
      <trkpt lat="45.65337" lon="6.54935">
        <ele>1505.6</ele>
        <time>2025-02-20T15:57:19Z</time>
      </trkpt>
      <trkpt lat="45.65337" lon="6.54935">
        <ele>1505</ele>
        <time>2025-02-20T15:57:20Z</time>
      </trkpt>
      <trkpt lat="45.65337" lon="6.54935">
        <ele>1504.8</ele>
        <time>2025-02-20T15:57:21Z</time>
      </trkpt>
      <trkpt lat="45.65337" lon="6.54935">
        <ele>1504.8</ele>
        <time>2025-02-20T15:57:22Z</time>
      </trkpt>
      <trkpt lat="45.65337" lon="6.54935">
        <ele>1504.8</ele>
        <time>2025-02-20T15:57:23Z</time>
      </trkpt>
      <trkpt lat="45.65337" lon="6.54935">
        <ele>1505</ele>
        <time>2025-02-20T15:57:24Z</time>
      </trkpt>
      <trkpt lat="45.65337" lon="6.54935">
        <ele>1504.6</ele>
        <time>2025-02-20T15:57:25Z</time>
      </trkpt>
      <trkpt lat="45.65337" lon="6.54935">
        <ele>1504.6</ele>
        <time>2025-02-20T15:57:26Z</time>
      </trkpt>
      <trkpt lat="45.65337" lon="6.54935">
        <ele>1504.6</ele>
        <time>2025-02-20T15:57:27Z</time>
      </trkpt>
      <trkpt lat="45.65337" lon="6.54935">
        <ele>1504.8</ele>
        <time>2025-02-20T15:57:28Z</time>
      </trkpt>
      <trkpt lat="45.65337" lon="6.54935">
        <ele>1505</ele>
        <time>2025-02-20T15:57:29Z</time>
      </trkpt>
      <trkpt lat="45.65337" lon="6.54935">
        <ele>1505</ele>
        <time>2025-02-20T15:57:30Z</time>
      </trkpt>
      <trkpt lat="45.65337" lon="6.54935">
        <ele>1505</ele>
        <time>2025-02-20T15:57:31Z</time>
      </trkpt>
      <trkpt lat="45.65337" lon="6.54935">
        <ele>1505</ele>
        <time>2025-02-20T15:57:32Z</time>
      </trkpt>
      <trkpt lat="45.65337" lon="6.54935">
        <ele>1504.8</ele>
        <time>2025-02-20T15:57:33Z</time>
      </trkpt>
      <trkpt lat="45.65337" lon="6.54935">
        <ele>1504.8</ele>
        <time>2025-02-20T15:57:34Z</time>
      </trkpt>
      <trkpt lat="45.65337" lon="6.54935">
        <ele>1504.8</ele>
        <time>2025-02-20T15:57:35Z</time>
      </trkpt>
      <trkpt lat="45.65337" lon="6.54935">
        <ele>1505.2</ele>
        <time>2025-02-20T15:57:36Z</time>
      </trkpt>
      <trkpt lat="45.65337" lon="6.54935">
        <ele>1505.2</ele>
        <time>2025-02-20T15:57:37Z</time>
      </trkpt>
      <trkpt lat="45.65337" lon="6.54935">
        <ele>1505.2</ele>
        <time>2025-02-20T15:57:38Z</time>
      </trkpt>
      <trkpt lat="45.65337" lon="6.54935">
        <ele>1505.2</ele>
        <time>2025-02-20T15:57:39Z</time>
      </trkpt>
      <trkpt lat="45.65337" lon="6.54935">
        <ele>1505.2</ele>
        <time>2025-02-20T15:57:40Z</time>
      </trkpt>
      <trkpt lat="45.65337" lon="6.54935">
        <ele>1504.8</ele>
        <time>2025-02-20T15:57:41Z</time>
      </trkpt>
      <trkpt lat="45.65337" lon="6.54935">
        <ele>1504.8</ele>
        <time>2025-02-20T15:57:42Z</time>
      </trkpt>
      <trkpt lat="45.65337" lon="6.54935">
        <ele>1504.8</ele>
        <time>2025-02-20T15:57:43Z</time>
      </trkpt>
      <trkpt lat="45.65337" lon="6.54935">
        <ele>1505</ele>
        <time>2025-02-20T15:57:44Z</time>
      </trkpt>
      <trkpt lat="45.65337" lon="6.54935">
        <ele>1505.2</ele>
        <time>2025-02-20T15:57:45Z</time>
      </trkpt>
      <trkpt lat="45.65337" lon="6.54935">
        <ele>1505.2</ele>
        <time>2025-02-20T15:57:46Z</time>
      </trkpt>
      <trkpt lat="45.65337" lon="6.54935">
        <ele>1505.2</ele>
        <time>2025-02-20T15:57:47Z</time>
      </trkpt>
      <trkpt lat="45.65337" lon="6.54935">
        <ele>1505.2</ele>
        <time>2025-02-20T15:57:48Z</time>
      </trkpt>
      <trkpt lat="45.65337" lon="6.54935">
        <ele>1504.8</ele>
        <time>2025-02-20T15:57:49Z</time>
      </trkpt>
      <trkpt lat="45.65337" lon="6.54935">
        <ele>1504.8</ele>
        <time>2025-02-20T15:57:50Z</time>
      </trkpt>
      <trkpt lat="45.65337" lon="6.54935">
        <ele>1504.8</ele>
        <time>2025-02-20T15:57:51Z</time>
      </trkpt>
      <trkpt lat="45.65337" lon="6.54935">
        <ele>1504.8</ele>
        <time>2025-02-20T15:57:52Z</time>
      </trkpt>
      <trkpt lat="45.65337" lon="6.54935">
        <ele>1505</ele>
        <time>2025-02-20T15:57:53Z</time>
      </trkpt>
      <trkpt lat="45.65337" lon="6.54935">
        <ele>1505</ele>
        <time>2025-02-20T15:57:54Z</time>
      </trkpt>
      <trkpt lat="45.65337" lon="6.54935">
        <ele>1505</ele>
        <time>2025-02-20T15:57:55Z</time>
      </trkpt>
      <trkpt lat="45.65337" lon="6.54935">
        <ele>1505</ele>
        <time>2025-02-20T15:57:56Z</time>
      </trkpt>
      <trkpt lat="45.65337" lon="6.54935">
        <ele>1504.8</ele>
        <time>2025-02-20T15:57:57Z</time>
      </trkpt>
      <trkpt lat="45.65337" lon="6.54935">
        <ele>1504.8</ele>
        <time>2025-02-20T15:57:58Z</time>
      </trkpt>
      <trkpt lat="45.65337" lon="6.54935">
        <ele>1504.8</ele>
        <time>2025-02-20T15:57:59Z</time>
      </trkpt>
      <trkpt lat="45.65337" lon="6.54935">
        <ele>1504.8</ele>
        <time>2025-02-20T15:58:00Z</time>
      </trkpt>
      <trkpt lat="45.65337" lon="6.54935">
        <ele>1505</ele>
        <time>2025-02-20T15:58:01Z</time>
      </trkpt>
      <trkpt lat="45.65337" lon="6.54935">
        <ele>1505</ele>
        <time>2025-02-20T15:58:02Z</time>
      </trkpt>
      <trkpt lat="45.65337" lon="6.54935">
        <ele>1505</ele>
        <time>2025-02-20T15:58:03Z</time>
      </trkpt>
      <trkpt lat="45.65337" lon="6.54935">
        <ele>1505</ele>
        <time>2025-02-20T15:58:04Z</time>
      </trkpt>
      <trkpt lat="45.65337" lon="6.54935">
        <ele>1505</ele>
        <time>2025-02-20T15:58:05Z</time>
      </trkpt>
      <trkpt lat="45.65337" lon="6.54935">
        <ele>1505</ele>
        <time>2025-02-20T15:58:06Z</time>
      </trkpt>
      <trkpt lat="45.65337" lon="6.54935">
        <ele>1505</ele>
        <time>2025-02-20T15:58:07Z</time>
      </trkpt>
      <trkpt lat="45.65337" lon="6.54935">
        <ele>1505</ele>
        <time>2025-02-20T15:58:08Z</time>
      </trkpt>
      <trkpt lat="45.65337" lon="6.54935">
        <ele>1505.2</ele>
        <time>2025-02-20T15:58:09Z</time>
      </trkpt>
      <trkpt lat="45.65337" lon="6.54935">
        <ele>1505.2</ele>
        <time>2025-02-20T15:58:10Z</time>
      </trkpt>
      <trkpt lat="45.65337" lon="6.54935">
        <ele>1505.2</ele>
        <time>2025-02-20T15:58:11Z</time>
      </trkpt>
      <trkpt lat="45.65337" lon="6.54935">
        <ele>1505.2</ele>
        <time>2025-02-20T15:58:12Z</time>
      </trkpt>
      <trkpt lat="45.65337" lon="6.54935">
        <ele>1505.2</ele>
        <time>2025-02-20T15:58:13Z</time>
      </trkpt>
      <trkpt lat="45.65337" lon="6.54935">
        <ele>1505.2</ele>
        <time>2025-02-20T15:58:14Z</time>
      </trkpt>
      <trkpt lat="45.65337" lon="6.54935">
        <ele>1505.2</ele>
        <time>2025-02-20T15:58:15Z</time>
      </trkpt>
      <trkpt lat="45.65337" lon="6.54935">
        <ele>1504.8</ele>
        <time>2025-02-20T15:58:16Z</time>
      </trkpt>
      <trkpt lat="45.65337" lon="6.54935">
        <ele>1504.8</ele>
        <time>2025-02-20T15:58:17Z</time>
      </trkpt>
      <trkpt lat="45.65351" lon="6.5495">
        <ele>1504.8</ele>
        <time>2025-02-20T15:58:18Z</time>
      </trkpt>
      <trkpt lat="45.65352" lon="6.54952">
        <ele>1504.8</ele>
        <time>2025-02-20T15:58:19Z</time>
      </trkpt>
      <trkpt lat="45.65354" lon="6.54951">
        <ele>1503.8</ele>
        <time>2025-02-20T15:58:20Z</time>
      </trkpt>
      <trkpt lat="45.65356" lon="6.54954">
        <ele>1501.4</ele>
        <time>2025-02-20T15:58:21Z</time>
      </trkpt>
      <trkpt lat="45.65357" lon="6.54955">
        <ele>1501.4</ele>
        <time>2025-02-20T15:58:22Z</time>
      </trkpt>
      <trkpt lat="45.65357" lon="6.54957">
        <ele>1501.4</ele>
        <time>2025-02-20T15:58:23Z</time>
      </trkpt>
      <trkpt lat="45.65361" lon="6.54958">
        <ele>1501.4</ele>
        <time>2025-02-20T15:58:24Z</time>
      </trkpt>
      <trkpt lat="45.65364" lon="6.5496">
        <ele>1499.2</ele>
        <time>2025-02-20T15:58:25Z</time>
      </trkpt>
      <trkpt lat="45.65367" lon="6.54962">
        <ele>1499.2</ele>
        <time>2025-02-20T15:58:26Z</time>
      </trkpt>
      <trkpt lat="45.65371" lon="6.54962">
        <ele>1499.2</ele>
        <time>2025-02-20T15:58:27Z</time>
      </trkpt>
      <trkpt lat="45.65373" lon="6.54963">
        <ele>1498.2</ele>
        <time>2025-02-20T15:58:28Z</time>
      </trkpt>
      <trkpt lat="45.65375" lon="6.54966">
        <ele>1495.6</ele>
        <time>2025-02-20T15:58:29Z</time>
      </trkpt>
      <trkpt lat="45.65378" lon="6.54967">
        <ele>1495.6</ele>
        <time>2025-02-20T15:58:30Z</time>
      </trkpt>
      <trkpt lat="45.65381" lon="6.54969">
        <ele>1495.6</ele>
        <time>2025-02-20T15:58:31Z</time>
      </trkpt>
      <trkpt lat="45.65381" lon="6.54972">
        <ele>1494.6</ele>
        <time>2025-02-20T15:58:32Z</time>
      </trkpt>
      <trkpt lat="45.65382" lon="6.54975">
        <ele>1492.4</ele>
        <time>2025-02-20T15:58:33Z</time>
      </trkpt>
      <trkpt lat="45.65384" lon="6.54977">
        <ele>1492.4</ele>
        <time>2025-02-20T15:58:34Z</time>
      </trkpt>
      <trkpt lat="45.65386" lon="6.54977">
        <ele>1492.4</ele>
        <time>2025-02-20T15:58:35Z</time>
      </trkpt>
      <trkpt lat="45.65388" lon="6.54977">
        <ele>1491.4</ele>
        <time>2025-02-20T15:58:36Z</time>
      </trkpt>
      <trkpt lat="45.65389" lon="6.54977">
        <ele>1488.4</ele>
        <time>2025-02-20T15:58:37Z</time>
      </trkpt>
      <trkpt lat="45.65392" lon="6.54978">
        <ele>1488.4</ele>
        <time>2025-02-20T15:58:38Z</time>
      </trkpt>
      <trkpt lat="45.65394" lon="6.5498">
        <ele>1488.4</ele>
        <time>2025-02-20T15:58:39Z</time>
      </trkpt>
      <trkpt lat="45.65396" lon="6.54982">
        <ele>1487.4</ele>
        <time>2025-02-20T15:58:40Z</time>
      </trkpt>
      <trkpt lat="45.65399" lon="6.54984">
        <ele>1486</ele>
        <time>2025-02-20T15:58:41Z</time>
      </trkpt>
      <trkpt lat="45.65403" lon="6.54985">
        <ele>1486</ele>
        <time>2025-02-20T15:58:42Z</time>
      </trkpt>
      <trkpt lat="45.65406" lon="6.54984">
        <ele>1486</ele>
        <time>2025-02-20T15:58:43Z</time>
      </trkpt>
      <trkpt lat="45.6541" lon="6.54985">
        <ele>1485</ele>
        <time>2025-02-20T15:58:44Z</time>
      </trkpt>
      <trkpt lat="45.65411" lon="6.54988">
        <ele>1480.4</ele>
        <time>2025-02-20T15:58:45Z</time>
      </trkpt>
      <trkpt lat="45.65412" lon="6.54988">
        <ele>1480.4</ele>
        <time>2025-02-20T15:58:46Z</time>
      </trkpt>
      <trkpt lat="45.65413" lon="6.54988">
        <ele>1480.4</ele>
        <time>2025-02-20T15:58:47Z</time>
      </trkpt>
      <trkpt lat="45.65413" lon="6.54988">
        <ele>1480.4</ele>
        <time>2025-02-20T15:58:48Z</time>
      </trkpt>
      <trkpt lat="45.65413" lon="6.54988">
        <ele>1480.6</ele>
        <time>2025-02-20T15:58:49Z</time>
      </trkpt>
      <trkpt lat="45.65415" lon="6.54988">
        <ele>1480.6</ele>
        <time>2025-02-20T15:58:50Z</time>
      </trkpt>
      <trkpt lat="45.65415" lon="6.54988">
        <ele>1480.6</ele>
        <time>2025-02-20T15:58:51Z</time>
      </trkpt>
      <trkpt lat="45.65416" lon="6.54988">
        <ele>1479.6</ele>
        <time>2025-02-20T15:58:52Z</time>
      </trkpt>
      <trkpt lat="45.65416" lon="6.54988">
        <ele>1479.6</ele>
        <time>2025-02-20T15:58:53Z</time>
      </trkpt>
      <trkpt lat="45.65416" lon="6.54988">
        <ele>1479.6</ele>
        <time>2025-02-20T15:58:54Z</time>
      </trkpt>
      <trkpt lat="45.65416" lon="6.54988">
        <ele>1479.6</ele>
        <time>2025-02-20T15:58:55Z</time>
      </trkpt>
      <trkpt lat="45.65416" lon="6.54988">
        <ele>1479.6</ele>
        <time>2025-02-20T15:58:56Z</time>
      </trkpt>
      <trkpt lat="45.65416" lon="6.54988">
        <ele>1479</ele>
        <time>2025-02-20T15:58:57Z</time>
      </trkpt>
      <trkpt lat="45.65416" lon="6.54988">
        <ele>1479</ele>
        <time>2025-02-20T15:58:58Z</time>
      </trkpt>
      <trkpt lat="45.65418" lon="6.54988">
        <ele>1479</ele>
        <time>2025-02-20T15:58:59Z</time>
      </trkpt>
      <trkpt lat="45.65421" lon="6.54989">
        <ele>1479</ele>
        <time>2025-02-20T15:59:00Z</time>
      </trkpt>
      <trkpt lat="45.65424" lon="6.54993">
        <ele>1476.4</ele>
        <time>2025-02-20T15:59:01Z</time>
      </trkpt>
      <trkpt lat="45.65427" lon="6.54997">
        <ele>1476.4</ele>
        <time>2025-02-20T15:59:02Z</time>
      </trkpt>
      <trkpt lat="45.65429" lon="6.54997">
        <ele>1476.4</ele>
        <time>2025-02-20T15:59:03Z</time>
      </trkpt>
      <trkpt lat="45.65432" lon="6.54997">
        <ele>1475.4</ele>
        <time>2025-02-20T15:59:04Z</time>
      </trkpt>
      <trkpt lat="45.65434" lon="6.54997">
        <ele>1472.8</ele>
        <time>2025-02-20T15:59:05Z</time>
      </trkpt>
      <trkpt lat="45.65436" lon="6.54998">
        <ele>1472.8</ele>
        <time>2025-02-20T15:59:06Z</time>
      </trkpt>
      <trkpt lat="45.65439" lon="6.54999">
        <ele>1472.8</ele>
        <time>2025-02-20T15:59:07Z</time>
      </trkpt>
      <trkpt lat="45.65441" lon="6.54998">
        <ele>1472.8</ele>
        <time>2025-02-20T15:59:08Z</time>
      </trkpt>
      <trkpt lat="45.65443" lon="6.54999">
        <ele>1471.4</ele>
        <time>2025-02-20T15:59:09Z</time>
      </trkpt>
      <trkpt lat="45.65445" lon="6.55">
        <ele>1471.4</ele>
        <time>2025-02-20T15:59:10Z</time>
      </trkpt>
      <trkpt lat="45.65446" lon="6.55001">
        <ele>1471.4</ele>
        <time>2025-02-20T15:59:11Z</time>
      </trkpt>
      <trkpt lat="45.65448" lon="6.55002">
        <ele>1470.4</ele>
        <time>2025-02-20T15:59:12Z</time>
      </trkpt>
      <trkpt lat="45.65451" lon="6.55004">
        <ele>1468.6</ele>
        <time>2025-02-20T15:59:13Z</time>
      </trkpt>
      <trkpt lat="45.65456" lon="6.55006">
        <ele>1468.6</ele>
        <time>2025-02-20T15:59:14Z</time>
      </trkpt>
      <trkpt lat="45.6546" lon="6.55007">
        <ele>1468.6</ele>
        <time>2025-02-20T15:59:15Z</time>
      </trkpt>
      <trkpt lat="45.65462" lon="6.55007">
        <ele>1468.4</ele>
        <time>2025-02-20T15:59:16Z</time>
      </trkpt>
      <trkpt lat="45.65464" lon="6.55007">
        <ele>1466</ele>
        <time>2025-02-20T15:59:17Z</time>
      </trkpt>
      <trkpt lat="45.65465" lon="6.55006">
        <ele>1466</ele>
        <time>2025-02-20T15:59:18Z</time>
      </trkpt>
      <trkpt lat="45.65466" lon="6.55005">
        <ele>1466</ele>
        <time>2025-02-20T15:59:19Z</time>
      </trkpt>
      <trkpt lat="45.65466" lon="6.55005">
        <ele>1467</ele>
        <time>2025-02-20T15:59:20Z</time>
      </trkpt>
      <trkpt lat="45.65466" lon="6.55005">
        <ele>1467.6</ele>
        <time>2025-02-20T15:59:21Z</time>
      </trkpt>
      <trkpt lat="45.65466" lon="6.55005">
        <ele>1467.6</ele>
        <time>2025-02-20T15:59:22Z</time>
      </trkpt>
      <trkpt lat="45.65466" lon="6.55005">
        <ele>1467.6</ele>
        <time>2025-02-20T15:59:23Z</time>
      </trkpt>
      <trkpt lat="45.65466" lon="6.55005">
        <ele>1467.4</ele>
        <time>2025-02-20T15:59:24Z</time>
      </trkpt>
      <trkpt lat="45.65466" lon="6.55005">
        <ele>1467.4</ele>
        <time>2025-02-20T15:59:25Z</time>
      </trkpt>
      <trkpt lat="45.65466" lon="6.55005">
        <ele>1467.4</ele>
        <time>2025-02-20T15:59:26Z</time>
      </trkpt>
      <trkpt lat="45.65466" lon="6.55005">
        <ele>1467.4</ele>
        <time>2025-02-20T15:59:27Z</time>
      </trkpt>
      <trkpt lat="45.65466" lon="6.55005">
        <ele>1467.4</ele>
        <time>2025-02-20T15:59:28Z</time>
      </trkpt>
      <trkpt lat="45.65466" lon="6.55005">
        <ele>1467.2</ele>
        <time>2025-02-20T15:59:29Z</time>
      </trkpt>
      <trkpt lat="45.65466" lon="6.55005">
        <ele>1467.2</ele>
        <time>2025-02-20T15:59:30Z</time>
      </trkpt>
      <trkpt lat="45.65466" lon="6.55005">
        <ele>1467.2</ele>
        <time>2025-02-20T15:59:31Z</time>
      </trkpt>
      <trkpt lat="45.65466" lon="6.55005">
        <ele>1467.2</ele>
        <time>2025-02-20T15:59:32Z</time>
      </trkpt>
      <trkpt lat="45.65466" lon="6.55005">
        <ele>1466.6</ele>
        <time>2025-02-20T15:59:33Z</time>
      </trkpt>
      <trkpt lat="45.65469" lon="6.5501">
        <ele>1466.6</ele>
        <time>2025-02-20T15:59:34Z</time>
      </trkpt>
      <trkpt lat="45.65469" lon="6.55011">
        <ele>1466.6</ele>
        <time>2025-02-20T15:59:35Z</time>
      </trkpt>
      <trkpt lat="45.65471" lon="6.55011">
        <ele>1467</ele>
        <time>2025-02-20T15:59:36Z</time>
      </trkpt>
      <trkpt lat="45.65473" lon="6.55009">
        <ele>1466.8</ele>
        <time>2025-02-20T15:59:37Z</time>
      </trkpt>
      <trkpt lat="45.65475" lon="6.55008">
        <ele>1466.8</ele>
        <time>2025-02-20T15:59:38Z</time>
      </trkpt>
      <trkpt lat="45.65477" lon="6.55007">
        <ele>1466.8</ele>
        <time>2025-02-20T15:59:39Z</time>
      </trkpt>
      <trkpt lat="45.6548" lon="6.55005">
        <ele>1465.8</ele>
        <time>2025-02-20T15:59:40Z</time>
      </trkpt>
      <trkpt lat="45.65483" lon="6.55004">
        <ele>1464.2</ele>
        <time>2025-02-20T15:59:41Z</time>
      </trkpt>
      <trkpt lat="45.65486" lon="6.55002">
        <ele>1464.2</ele>
        <time>2025-02-20T15:59:42Z</time>
      </trkpt>
      <trkpt lat="45.65491" lon="6.55001">
        <ele>1464.2</ele>
        <time>2025-02-20T15:59:43Z</time>
      </trkpt>
      <trkpt lat="45.65494" lon="6.55001">
        <ele>1463.2</ele>
        <time>2025-02-20T15:59:44Z</time>
      </trkpt>
      <trkpt lat="45.65498" lon="6.55001">
        <ele>1460.2</ele>
        <time>2025-02-20T15:59:45Z</time>
      </trkpt>
      <trkpt lat="45.65502" lon="6.55001">
        <ele>1460.2</ele>
        <time>2025-02-20T15:59:46Z</time>
      </trkpt>
      <trkpt lat="45.65504" lon="6.55001">
        <ele>1460.2</ele>
        <time>2025-02-20T15:59:47Z</time>
      </trkpt>
      <trkpt lat="45.65506" lon="6.55002">
        <ele>1459.2</ele>
        <time>2025-02-20T15:59:48Z</time>
      </trkpt>
      <trkpt lat="45.65508" lon="6.55002">
        <ele>1458</ele>
        <time>2025-02-20T15:59:49Z</time>
      </trkpt>
      <trkpt lat="45.65511" lon="6.55003">
        <ele>1458</ele>
        <time>2025-02-20T15:59:50Z</time>
      </trkpt>
      <trkpt lat="45.65513" lon="6.55003">
        <ele>1458</ele>
        <time>2025-02-20T15:59:51Z</time>
      </trkpt>
      <trkpt lat="45.65516" lon="6.55005">
        <ele>1457</ele>
        <time>2025-02-20T15:59:52Z</time>
      </trkpt>
      <trkpt lat="45.65517" lon="6.55008">
        <ele>1455.2</ele>
        <time>2025-02-20T15:59:53Z</time>
      </trkpt>
      <trkpt lat="45.65518" lon="6.55015">
        <ele>1455.2</ele>
        <time>2025-02-20T15:59:54Z</time>
      </trkpt>
      <trkpt lat="45.65522" lon="6.55022">
        <ele>1455.2</ele>
        <time>2025-02-20T15:59:55Z</time>
      </trkpt>
      <trkpt lat="45.65526" lon="6.55026">
        <ele>1455.2</ele>
        <time>2025-02-20T15:59:56Z</time>
      </trkpt>
      <trkpt lat="45.65528" lon="6.55029">
        <ele>1450.2</ele>
        <time>2025-02-20T15:59:57Z</time>
      </trkpt>
      <trkpt lat="45.6553" lon="6.55033">
        <ele>1450.2</ele>
        <time>2025-02-20T15:59:58Z</time>
      </trkpt>
      <trkpt lat="45.65532" lon="6.55037">
        <ele>1450.2</ele>
        <time>2025-02-20T15:59:59Z</time>
      </trkpt>
      <trkpt lat="45.65533" lon="6.5504">
        <ele>1450.2</ele>
        <time>2025-02-20T16:00:00Z</time>
      </trkpt>
      <trkpt lat="45.65535" lon="6.55042">
        <ele>1447.6</ele>
        <time>2025-02-20T16:00:01Z</time>
      </trkpt>
      <trkpt lat="45.65537" lon="6.55045">
        <ele>1447.6</ele>
        <time>2025-02-20T16:00:02Z</time>
      </trkpt>
      <trkpt lat="45.6554" lon="6.55049">
        <ele>1447.6</ele>
        <time>2025-02-20T16:00:03Z</time>
      </trkpt>
      <trkpt lat="45.65542" lon="6.55054">
        <ele>1446.6</ele>
        <time>2025-02-20T16:00:04Z</time>
      </trkpt>
      <trkpt lat="45.65542" lon="6.55059">
        <ele>1444.4</ele>
        <time>2025-02-20T16:00:05Z</time>
      </trkpt>
      <trkpt lat="45.65542" lon="6.55061">
        <ele>1444.4</ele>
        <time>2025-02-20T16:00:06Z</time>
      </trkpt>
      <trkpt lat="45.65542" lon="6.55061">
        <ele>1444.4</ele>
        <time>2025-02-20T16:00:07Z</time>
      </trkpt>
      <trkpt lat="45.65542" lon="6.55063">
        <ele>1445.4</ele>
        <time>2025-02-20T16:00:08Z</time>
      </trkpt>
      <trkpt lat="45.65541" lon="6.55067">
        <ele>1444.6</ele>
        <time>2025-02-20T16:00:09Z</time>
      </trkpt>
      <trkpt lat="45.65542" lon="6.55072">
        <ele>1444.6</ele>
        <time>2025-02-20T16:00:10Z</time>
      </trkpt>
      <trkpt lat="45.65543" lon="6.55079">
        <ele>1444.6</ele>
        <time>2025-02-20T16:00:11Z</time>
      </trkpt>
      <trkpt lat="45.65545" lon="6.55086">
        <ele>1443.6</ele>
        <time>2025-02-20T16:00:12Z</time>
      </trkpt>
      <trkpt lat="45.65546" lon="6.55092">
        <ele>1442.4</ele>
        <time>2025-02-20T16:00:13Z</time>
      </trkpt>
      <trkpt lat="45.65546" lon="6.55096">
        <ele>1442.4</ele>
        <time>2025-02-20T16:00:14Z</time>
      </trkpt>
      <trkpt lat="45.65548" lon="6.55099">
        <ele>1442.4</ele>
        <time>2025-02-20T16:00:15Z</time>
      </trkpt>
      <trkpt lat="45.65549" lon="6.551">
        <ele>1441.4</ele>
        <time>2025-02-20T16:00:16Z</time>
      </trkpt>
      <trkpt lat="45.65549" lon="6.551">
        <ele>1440.8</ele>
        <time>2025-02-20T16:00:17Z</time>
      </trkpt>
      <trkpt lat="45.65549" lon="6.551">
        <ele>1440.8</ele>
        <time>2025-02-20T16:00:18Z</time>
      </trkpt>
      <trkpt lat="45.65549" lon="6.551">
        <ele>1440.8</ele>
        <time>2025-02-20T16:00:19Z</time>
      </trkpt>
      <trkpt lat="45.65549" lon="6.551">
        <ele>1440.4</ele>
        <time>2025-02-20T16:00:20Z</time>
      </trkpt>
      <trkpt lat="45.65549" lon="6.551">
        <ele>1440.6</ele>
        <time>2025-02-20T16:00:21Z</time>
      </trkpt>
      <trkpt lat="45.65549" lon="6.551">
        <ele>1440.6</ele>
        <time>2025-02-20T16:00:22Z</time>
      </trkpt>
      <trkpt lat="45.65549" lon="6.551">
        <ele>1440.6</ele>
        <time>2025-02-20T16:00:23Z</time>
      </trkpt>
      <trkpt lat="45.65549" lon="6.551">
        <ele>1440.6</ele>
        <time>2025-02-20T16:00:24Z</time>
      </trkpt>
      <trkpt lat="45.65549" lon="6.551">
        <ele>1440.4</ele>
        <time>2025-02-20T16:00:25Z</time>
      </trkpt>
      <trkpt lat="45.65549" lon="6.551">
        <ele>1440.4</ele>
        <time>2025-02-20T16:00:26Z</time>
      </trkpt>
      <trkpt lat="45.65549" lon="6.551">
        <ele>1440.4</ele>
        <time>2025-02-20T16:00:27Z</time>
      </trkpt>
      <trkpt lat="45.65549" lon="6.551">
        <ele>1440.4</ele>
        <time>2025-02-20T16:00:28Z</time>
      </trkpt>
      <trkpt lat="45.65549" lon="6.551">
        <ele>1440.8</ele>
        <time>2025-02-20T16:00:29Z</time>
      </trkpt>
      <trkpt lat="45.65549" lon="6.551">
        <ele>1440.8</ele>
        <time>2025-02-20T16:00:30Z</time>
      </trkpt>
      <trkpt lat="45.65549" lon="6.551">
        <ele>1440.8</ele>
        <time>2025-02-20T16:00:31Z</time>
      </trkpt>
      <trkpt lat="45.65549" lon="6.551">
        <ele>1440.8</ele>
        <time>2025-02-20T16:00:32Z</time>
      </trkpt>
      <trkpt lat="45.65549" lon="6.551">
        <ele>1440.6</ele>
        <time>2025-02-20T16:00:33Z</time>
      </trkpt>
      <trkpt lat="45.65549" lon="6.551">
        <ele>1440.6</ele>
        <time>2025-02-20T16:00:34Z</time>
      </trkpt>
      <trkpt lat="45.65549" lon="6.551">
        <ele>1440.6</ele>
        <time>2025-02-20T16:00:35Z</time>
      </trkpt>
      <trkpt lat="45.65549" lon="6.551">
        <ele>1440.6</ele>
        <time>2025-02-20T16:00:36Z</time>
      </trkpt>
      <trkpt lat="45.65549" lon="6.551">
        <ele>1440.2</ele>
        <time>2025-02-20T16:00:37Z</time>
      </trkpt>
      <trkpt lat="45.65549" lon="6.551">
        <ele>1440.2</ele>
        <time>2025-02-20T16:00:38Z</time>
      </trkpt>
      <trkpt lat="45.65549" lon="6.551">
        <ele>1440.2</ele>
        <time>2025-02-20T16:00:39Z</time>
      </trkpt>
      <trkpt lat="45.65549" lon="6.551">
        <ele>1440.2</ele>
        <time>2025-02-20T16:00:40Z</time>
      </trkpt>
      <trkpt lat="45.65549" lon="6.551">
        <ele>1440.4</ele>
        <time>2025-02-20T16:00:41Z</time>
      </trkpt>
      <trkpt lat="45.65549" lon="6.551">
        <ele>1440.4</ele>
        <time>2025-02-20T16:00:42Z</time>
      </trkpt>
      <trkpt lat="45.65549" lon="6.551">
        <ele>1440.4</ele>
        <time>2025-02-20T16:00:43Z</time>
      </trkpt>
      <trkpt lat="45.65549" lon="6.551">
        <ele>1440.4</ele>
        <time>2025-02-20T16:00:44Z</time>
      </trkpt>
      <trkpt lat="45.65549" lon="6.551">
        <ele>1440.4</ele>
        <time>2025-02-20T16:00:45Z</time>
      </trkpt>
      <trkpt lat="45.65549" lon="6.551">
        <ele>1440.4</ele>
        <time>2025-02-20T16:00:46Z</time>
      </trkpt>
      <trkpt lat="45.65549" lon="6.551">
        <ele>1440.4</ele>
        <time>2025-02-20T16:00:47Z</time>
      </trkpt>
      <trkpt lat="45.65549" lon="6.551">
        <ele>1440.2</ele>
        <time>2025-02-20T16:00:48Z</time>
      </trkpt>
      <trkpt lat="45.65549" lon="6.551">
        <ele>1440.4</ele>
        <time>2025-02-20T16:00:49Z</time>
      </trkpt>
      <trkpt lat="45.65549" lon="6.551">
        <ele>1440.4</ele>
        <time>2025-02-20T16:00:50Z</time>
      </trkpt>
      <trkpt lat="45.65549" lon="6.551">
        <ele>1440.4</ele>
        <time>2025-02-20T16:00:51Z</time>
      </trkpt>
      <trkpt lat="45.65549" lon="6.551">
        <ele>1440.4</ele>
        <time>2025-02-20T16:00:52Z</time>
      </trkpt>
      <trkpt lat="45.65549" lon="6.551">
        <ele>1440.2</ele>
        <time>2025-02-20T16:00:53Z</time>
      </trkpt>
      <trkpt lat="45.65552" lon="6.55102">
        <ele>1440.2</ele>
        <time>2025-02-20T16:00:54Z</time>
      </trkpt>
      <trkpt lat="45.65553" lon="6.55104">
        <ele>1440.2</ele>
        <time>2025-02-20T16:00:55Z</time>
      </trkpt>
      <trkpt lat="45.65555" lon="6.55108">
        <ele>1439.8</ele>
        <time>2025-02-20T16:00:56Z</time>
      </trkpt>
      <trkpt lat="45.65558" lon="6.55112">
        <ele>1439</ele>
        <time>2025-02-20T16:00:57Z</time>
      </trkpt>
      <trkpt lat="45.65559" lon="6.55117">
        <ele>1439</ele>
        <time>2025-02-20T16:00:58Z</time>
      </trkpt>
      <trkpt lat="45.65563" lon="6.55119">
        <ele>1439</ele>
        <time>2025-02-20T16:00:59Z</time>
      </trkpt>
      <trkpt lat="45.65568" lon="6.55122">
        <ele>1438</ele>
        <time>2025-02-20T16:01:00Z</time>
      </trkpt>
      <trkpt lat="45.65571" lon="6.55128">
        <ele>1435.4</ele>
        <time>2025-02-20T16:01:01Z</time>
      </trkpt>
      <trkpt lat="45.65575" lon="6.55132">
        <ele>1435.4</ele>
        <time>2025-02-20T16:01:02Z</time>
      </trkpt>
      <trkpt lat="45.65578" lon="6.55138">
        <ele>1435.4</ele>
        <time>2025-02-20T16:01:03Z</time>
      </trkpt>
      <trkpt lat="45.65581" lon="6.55141">
        <ele>1434.4</ele>
        <time>2025-02-20T16:01:04Z</time>
      </trkpt>
      <trkpt lat="45.65586" lon="6.55143">
        <ele>1430</ele>
        <time>2025-02-20T16:01:05Z</time>
      </trkpt>
      <trkpt lat="45.65588" lon="6.55148">
        <ele>1430</ele>
        <time>2025-02-20T16:01:06Z</time>
      </trkpt>
      <trkpt lat="45.65593" lon="6.5515">
        <ele>1430</ele>
        <time>2025-02-20T16:01:07Z</time>
      </trkpt>
      <trkpt lat="45.65597" lon="6.55151">
        <ele>1429</ele>
        <time>2025-02-20T16:01:08Z</time>
      </trkpt>
      <trkpt lat="45.65599" lon="6.55157">
        <ele>1426</ele>
        <time>2025-02-20T16:01:09Z</time>
      </trkpt>
      <trkpt lat="45.65603" lon="6.55159">
        <ele>1426</ele>
        <time>2025-02-20T16:01:10Z</time>
      </trkpt>
      <trkpt lat="45.65608" lon="6.55161">
        <ele>1426</ele>
        <time>2025-02-20T16:01:11Z</time>
      </trkpt>
      <trkpt lat="45.6561" lon="6.55167">
        <ele>1425</ele>
        <time>2025-02-20T16:01:12Z</time>
      </trkpt>
      <trkpt lat="45.65615" lon="6.5517">
        <ele>1421.8</ele>
        <time>2025-02-20T16:01:13Z</time>
      </trkpt>
      <trkpt lat="45.65619" lon="6.5517">
        <ele>1421.8</ele>
        <time>2025-02-20T16:01:14Z</time>
      </trkpt>
      <trkpt lat="45.65623" lon="6.55176">
        <ele>1421.8</ele>
        <time>2025-02-20T16:01:15Z</time>
      </trkpt>
      <trkpt lat="45.65628" lon="6.55179">
        <ele>1420.8</ele>
        <time>2025-02-20T16:01:16Z</time>
      </trkpt>
      <trkpt lat="45.65632" lon="6.55178">
        <ele>1418</ele>
        <time>2025-02-20T16:01:17Z</time>
      </trkpt>
      <trkpt lat="45.65635" lon="6.55182">
        <ele>1418</ele>
        <time>2025-02-20T16:01:18Z</time>
      </trkpt>
      <trkpt lat="45.65639" lon="6.55184">
        <ele>1418</ele>
        <time>2025-02-20T16:01:19Z</time>
      </trkpt>
      <trkpt lat="45.65645" lon="6.55183">
        <ele>1417</ele>
        <time>2025-02-20T16:01:20Z</time>
      </trkpt>
      <trkpt lat="45.6565" lon="6.55185">
        <ele>1413.8</ele>
        <time>2025-02-20T16:01:21Z</time>
      </trkpt>
      <trkpt lat="45.65654" lon="6.55184">
        <ele>1413.8</ele>
        <time>2025-02-20T16:01:22Z</time>
      </trkpt>
      <trkpt lat="45.65658" lon="6.5518">
        <ele>1413.8</ele>
        <time>2025-02-20T16:01:23Z</time>
      </trkpt>
      <trkpt lat="45.65663" lon="6.55181">
        <ele>1412.8</ele>
        <time>2025-02-20T16:01:24Z</time>
      </trkpt>
      <trkpt lat="45.65668" lon="6.5518">
        <ele>1409.8</ele>
        <time>2025-02-20T16:01:25Z</time>
      </trkpt>
      <trkpt lat="45.65671" lon="6.55176">
        <ele>1409.8</ele>
        <time>2025-02-20T16:01:26Z</time>
      </trkpt>
      <trkpt lat="45.65676" lon="6.55175">
        <ele>1409.8</ele>
        <time>2025-02-20T16:01:27Z</time>
      </trkpt>
      <trkpt lat="45.65681" lon="6.55172">
        <ele>1408.8</ele>
        <time>2025-02-20T16:01:28Z</time>
      </trkpt>
      <trkpt lat="45.65685" lon="6.55174">
        <ele>1406.6</ele>
        <time>2025-02-20T16:01:29Z</time>
      </trkpt>
      <trkpt lat="45.65689" lon="6.55172">
        <ele>1406.6</ele>
        <time>2025-02-20T16:01:30Z</time>
      </trkpt>
      <trkpt lat="45.65693" lon="6.55175">
        <ele>1406.6</ele>
        <time>2025-02-20T16:01:31Z</time>
      </trkpt>
      <trkpt lat="45.65697" lon="6.55176">
        <ele>1405.6</ele>
        <time>2025-02-20T16:01:32Z</time>
      </trkpt>
      <trkpt lat="45.657" lon="6.55178">
        <ele>1404.2</ele>
        <time>2025-02-20T16:01:33Z</time>
      </trkpt>
      <trkpt lat="45.65703" lon="6.55178">
        <ele>1404.2</ele>
        <time>2025-02-20T16:01:34Z</time>
      </trkpt>
      <trkpt lat="45.65706" lon="6.55178">
        <ele>1404.2</ele>
        <time>2025-02-20T16:01:35Z</time>
      </trkpt>
      <trkpt lat="45.65709" lon="6.55178">
        <ele>1404.2</ele>
        <time>2025-02-20T16:01:36Z</time>
      </trkpt>
      <trkpt lat="45.65713" lon="6.55178">
        <ele>1401.6</ele>
        <time>2025-02-20T16:01:37Z</time>
      </trkpt>
      <trkpt lat="45.65716" lon="6.5518">
        <ele>1401.6</ele>
        <time>2025-02-20T16:01:38Z</time>
      </trkpt>
      <trkpt lat="45.65721" lon="6.5518">
        <ele>1401.6</ele>
        <time>2025-02-20T16:01:39Z</time>
      </trkpt>
      <trkpt lat="45.65725" lon="6.55182">
        <ele>1400.6</ele>
        <time>2025-02-20T16:01:40Z</time>
      </trkpt>
      <trkpt lat="45.65731" lon="6.55182">
        <ele>1398.2</ele>
        <time>2025-02-20T16:01:41Z</time>
      </trkpt>
      <trkpt lat="45.65733" lon="6.55183">
        <ele>1398.2</ele>
        <time>2025-02-20T16:01:42Z</time>
      </trkpt>
      <trkpt lat="45.65737" lon="6.55182">
        <ele>1398.2</ele>
        <time>2025-02-20T16:01:43Z</time>
      </trkpt>
      <trkpt lat="45.6574" lon="6.55183">
        <ele>1397.2</ele>
        <time>2025-02-20T16:01:44Z</time>
      </trkpt>
      <trkpt lat="45.65744" lon="6.55184">
        <ele>1393</ele>
        <time>2025-02-20T16:01:45Z</time>
      </trkpt>
      <trkpt lat="45.65749" lon="6.55185">
        <ele>1393</ele>
        <time>2025-02-20T16:01:46Z</time>
      </trkpt>
      <trkpt lat="45.65753" lon="6.55186">
        <ele>1393</ele>
        <time>2025-02-20T16:01:47Z</time>
      </trkpt>
      <trkpt lat="45.65757" lon="6.55186">
        <ele>1392</ele>
        <time>2025-02-20T16:01:48Z</time>
      </trkpt>
      <trkpt lat="45.65761" lon="6.55185">
        <ele>1390</ele>
        <time>2025-02-20T16:01:49Z</time>
      </trkpt>
      <trkpt lat="45.65763" lon="6.55187">
        <ele>1390</ele>
        <time>2025-02-20T16:01:50Z</time>
      </trkpt>
      <trkpt lat="45.65768" lon="6.55189">
        <ele>1390</ele>
        <time>2025-02-20T16:01:51Z</time>
      </trkpt>
      <trkpt lat="45.65772" lon="6.55188">
        <ele>1389</ele>
        <time>2025-02-20T16:01:52Z</time>
      </trkpt>
      <trkpt lat="45.65775" lon="6.5519">
        <ele>1385.4</ele>
        <time>2025-02-20T16:01:53Z</time>
      </trkpt>
      <trkpt lat="45.6578" lon="6.55192">
        <ele>1385.4</ele>
        <time>2025-02-20T16:01:54Z</time>
      </trkpt>
      <trkpt lat="45.65784" lon="6.5519">
        <ele>1385.4</ele>
        <time>2025-02-20T16:01:55Z</time>
      </trkpt>
      <trkpt lat="45.65788" lon="6.55194">
        <ele>1384.4</ele>
        <time>2025-02-20T16:01:56Z</time>
      </trkpt>
      <trkpt lat="45.65793" lon="6.55194">
        <ele>1380.8</ele>
        <time>2025-02-20T16:01:57Z</time>
      </trkpt>
      <trkpt lat="45.65797" lon="6.55192">
        <ele>1380.8</ele>
        <time>2025-02-20T16:01:58Z</time>
      </trkpt>
      <trkpt lat="45.65801" lon="6.55193">
        <ele>1380.8</ele>
        <time>2025-02-20T16:01:59Z</time>
      </trkpt>
      <trkpt lat="45.65805" lon="6.55194">
        <ele>1379.8</ele>
        <time>2025-02-20T16:02:00Z</time>
      </trkpt>
      <trkpt lat="45.6581" lon="6.55194">
        <ele>1376.6</ele>
        <time>2025-02-20T16:02:01Z</time>
      </trkpt>
      <trkpt lat="45.65815" lon="6.55195">
        <ele>1376.6</ele>
        <time>2025-02-20T16:02:02Z</time>
      </trkpt>
      <trkpt lat="45.6582" lon="6.55195">
        <ele>1376.6</ele>
        <time>2025-02-20T16:02:03Z</time>
      </trkpt>
      <trkpt lat="45.65823" lon="6.55197">
        <ele>1375.6</ele>
        <time>2025-02-20T16:02:04Z</time>
      </trkpt>
      <trkpt lat="45.65826" lon="6.55202">
        <ele>1371.8</ele>
        <time>2025-02-20T16:02:05Z</time>
      </trkpt>
      <trkpt lat="45.65829" lon="6.55207">
        <ele>1371.8</ele>
        <time>2025-02-20T16:02:06Z</time>
      </trkpt>
      <trkpt lat="45.6583" lon="6.55212">
        <ele>1371.8</ele>
        <time>2025-02-20T16:02:07Z</time>
      </trkpt>
      <trkpt lat="45.6583" lon="6.55215">
        <ele>1370.8</ele>
        <time>2025-02-20T16:02:08Z</time>
      </trkpt>
      <trkpt lat="45.65833" lon="6.55217">
        <ele>1368.8</ele>
        <time>2025-02-20T16:02:09Z</time>
      </trkpt>
      <trkpt lat="45.65836" lon="6.5522">
        <ele>1368.8</ele>
        <time>2025-02-20T16:02:10Z</time>
      </trkpt>
      <trkpt lat="45.65838" lon="6.55224">
        <ele>1368.8</ele>
        <time>2025-02-20T16:02:11Z</time>
      </trkpt>
      <trkpt lat="45.6584" lon="6.55227">
        <ele>1367.8</ele>
        <time>2025-02-20T16:02:12Z</time>
      </trkpt>
      <trkpt lat="45.65844" lon="6.55231">
        <ele>1365.2</ele>
        <time>2025-02-20T16:02:13Z</time>
      </trkpt>
      <trkpt lat="45.65846" lon="6.55235">
        <ele>1365.2</ele>
        <time>2025-02-20T16:02:14Z</time>
      </trkpt>
      <trkpt lat="45.6585" lon="6.55237">
        <ele>1365.2</ele>
        <time>2025-02-20T16:02:15Z</time>
      </trkpt>
      <trkpt lat="45.65853" lon="6.55242">
        <ele>1364.2</ele>
        <time>2025-02-20T16:02:16Z</time>
      </trkpt>
      <trkpt lat="45.65856" lon="6.55246">
        <ele>1360.2</ele>
        <time>2025-02-20T16:02:17Z</time>
      </trkpt>
      <trkpt lat="45.6586" lon="6.55245">
        <ele>1360.2</ele>
        <time>2025-02-20T16:02:18Z</time>
      </trkpt>
      <trkpt lat="45.65863" lon="6.55246">
        <ele>1360.2</ele>
        <time>2025-02-20T16:02:19Z</time>
      </trkpt>
      <trkpt lat="45.65867" lon="6.55247">
        <ele>1359.2</ele>
        <time>2025-02-20T16:02:20Z</time>
      </trkpt>
      <trkpt lat="45.6587" lon="6.55245">
        <ele>1357</ele>
        <time>2025-02-20T16:02:21Z</time>
      </trkpt>
      <trkpt lat="45.65874" lon="6.55244">
        <ele>1357</ele>
        <time>2025-02-20T16:02:22Z</time>
      </trkpt>
      <trkpt lat="45.65879" lon="6.55245">
        <ele>1357</ele>
        <time>2025-02-20T16:02:23Z</time>
      </trkpt>
      <trkpt lat="45.65883" lon="6.55246">
        <ele>1356</ele>
        <time>2025-02-20T16:02:24Z</time>
      </trkpt>
      <trkpt lat="45.65888" lon="6.55249">
        <ele>1351.6</ele>
        <time>2025-02-20T16:02:25Z</time>
      </trkpt>
      <trkpt lat="45.65893" lon="6.5525">
        <ele>1351.6</ele>
        <time>2025-02-20T16:02:26Z</time>
      </trkpt>
      <trkpt lat="45.65897" lon="6.5525">
        <ele>1351.6</ele>
        <time>2025-02-20T16:02:27Z</time>
      </trkpt>
      <trkpt lat="45.65901" lon="6.5525">
        <ele>1350.6</ele>
        <time>2025-02-20T16:02:28Z</time>
      </trkpt>
      <trkpt lat="45.65904" lon="6.55251">
        <ele>1347.8</ele>
        <time>2025-02-20T16:02:29Z</time>
      </trkpt>
      <trkpt lat="45.65908" lon="6.55252">
        <ele>1347.8</ele>
        <time>2025-02-20T16:02:30Z</time>
      </trkpt>
      <trkpt lat="45.6591" lon="6.55249">
        <ele>1347.8</ele>
        <time>2025-02-20T16:02:31Z</time>
      </trkpt>
      <trkpt lat="45.65912" lon="6.55244">
        <ele>1346.8</ele>
        <time>2025-02-20T16:02:32Z</time>
      </trkpt>
      <trkpt lat="45.65915" lon="6.55242">
        <ele>1343.2</ele>
        <time>2025-02-20T16:02:33Z</time>
      </trkpt>
      <trkpt lat="45.65917" lon="6.55241">
        <ele>1343.2</ele>
        <time>2025-02-20T16:02:34Z</time>
      </trkpt>
      <trkpt lat="45.65918" lon="6.55241">
        <ele>1343.2</ele>
        <time>2025-02-20T16:02:35Z</time>
      </trkpt>
      <trkpt lat="45.65918" lon="6.55241">
        <ele>1344.2</ele>
        <time>2025-02-20T16:02:36Z</time>
      </trkpt>
      <trkpt lat="45.65918" lon="6.55241">
        <ele>1344.2</ele>
        <time>2025-02-20T16:02:37Z</time>
      </trkpt>
      <trkpt lat="45.65918" lon="6.55241">
        <ele>1344.2</ele>
        <time>2025-02-20T16:02:38Z</time>
      </trkpt>
      <trkpt lat="45.65918" lon="6.55241">
        <ele>1344.2</ele>
        <time>2025-02-20T16:02:39Z</time>
      </trkpt>
      <trkpt lat="45.65918" lon="6.55241">
        <ele>1344.2</ele>
        <time>2025-02-20T16:02:40Z</time>
      </trkpt>
      <trkpt lat="45.65918" lon="6.55241">
        <ele>1344</ele>
        <time>2025-02-20T16:02:41Z</time>
      </trkpt>
      <trkpt lat="45.65918" lon="6.55241">
        <ele>1344</ele>
        <time>2025-02-20T16:02:42Z</time>
      </trkpt>
      <trkpt lat="45.65918" lon="6.55241">
        <ele>1344</ele>
        <time>2025-02-20T16:02:43Z</time>
      </trkpt>
      <trkpt lat="45.65918" lon="6.55241">
        <ele>1344</ele>
        <time>2025-02-20T16:02:44Z</time>
      </trkpt>
      <trkpt lat="45.65918" lon="6.55241">
        <ele>1344.6</ele>
        <time>2025-02-20T16:02:45Z</time>
      </trkpt>
      <trkpt lat="45.65918" lon="6.55241">
        <ele>1344.6</ele>
        <time>2025-02-20T16:02:46Z</time>
      </trkpt>
      <trkpt lat="45.65918" lon="6.55241">
        <ele>1344.6</ele>
        <time>2025-02-20T16:02:47Z</time>
      </trkpt>
      <trkpt lat="45.65918" lon="6.55241">
        <ele>1344.6</ele>
        <time>2025-02-20T16:02:48Z</time>
      </trkpt>
      <trkpt lat="45.65918" lon="6.55241">
        <ele>1343.6</ele>
        <time>2025-02-20T16:02:49Z</time>
      </trkpt>
      <trkpt lat="45.65918" lon="6.55241">
        <ele>1343.6</ele>
        <time>2025-02-20T16:02:50Z</time>
      </trkpt>
      <trkpt lat="45.65922" lon="6.55238">
        <ele>1343.6</ele>
        <time>2025-02-20T16:02:51Z</time>
      </trkpt>
      <trkpt lat="45.65921" lon="6.55236">
        <ele>1343.6</ele>
        <time>2025-02-20T16:02:52Z</time>
      </trkpt>
      <trkpt lat="45.65919" lon="6.55233">
        <ele>1342.4</ele>
        <time>2025-02-20T16:02:53Z</time>
      </trkpt>
      <trkpt lat="45.65917" lon="6.5523">
        <ele>1342.4</ele>
        <time>2025-02-20T16:02:54Z</time>
      </trkpt>
      <trkpt lat="45.65915" lon="6.55226">
        <ele>1342.4</ele>
        <time>2025-02-20T16:02:55Z</time>
      </trkpt>
      <trkpt lat="45.65913" lon="6.55221">
        <ele>1341.4</ele>
        <time>2025-02-20T16:02:56Z</time>
      </trkpt>
      <trkpt lat="45.65911" lon="6.55216">
        <ele>1339.4</ele>
        <time>2025-02-20T16:02:57Z</time>
      </trkpt>
      <trkpt lat="45.65912" lon="6.5521">
        <ele>1339.4</ele>
        <time>2025-02-20T16:02:58Z</time>
      </trkpt>
      <trkpt lat="45.65915" lon="6.55207">
        <ele>1339.4</ele>
        <time>2025-02-20T16:02:59Z</time>
      </trkpt>
      <trkpt lat="45.65918" lon="6.55206">
        <ele>1338.4</ele>
        <time>2025-02-20T16:03:00Z</time>
      </trkpt>
      <trkpt lat="45.65922" lon="6.55207">
        <ele>1336.4</ele>
        <time>2025-02-20T16:03:01Z</time>
      </trkpt>
      <trkpt lat="45.65926" lon="6.55209">
        <ele>1336.4</ele>
        <time>2025-02-20T16:03:02Z</time>
      </trkpt>
      <trkpt lat="45.65931" lon="6.5521">
        <ele>1336.4</ele>
        <time>2025-02-20T16:03:03Z</time>
      </trkpt>
      <trkpt lat="45.65935" lon="6.55213">
        <ele>1335.4</ele>
        <time>2025-02-20T16:03:04Z</time>
      </trkpt>
      <trkpt lat="45.65939" lon="6.55215">
        <ele>1332.2</ele>
        <time>2025-02-20T16:03:05Z</time>
      </trkpt>
      <trkpt lat="45.65941" lon="6.55216">
        <ele>1332.2</ele>
        <time>2025-02-20T16:03:06Z</time>
      </trkpt>
      <trkpt lat="45.65945" lon="6.55217">
        <ele>1332.2</ele>
        <time>2025-02-20T16:03:07Z</time>
      </trkpt>
      <trkpt lat="45.65948" lon="6.5522">
        <ele>1331.2</ele>
        <time>2025-02-20T16:03:08Z</time>
      </trkpt>
      <trkpt lat="45.6595" lon="6.55222">
        <ele>1329</ele>
        <time>2025-02-20T16:03:09Z</time>
      </trkpt>
      <trkpt lat="45.65954" lon="6.55223">
        <ele>1329</ele>
        <time>2025-02-20T16:03:10Z</time>
      </trkpt>
      <trkpt lat="45.65957" lon="6.55226">
        <ele>1329</ele>
        <time>2025-02-20T16:03:11Z</time>
      </trkpt>
      <trkpt lat="45.65961" lon="6.55226">
        <ele>1328</ele>
        <time>2025-02-20T16:03:12Z</time>
      </trkpt>
      <trkpt lat="45.65965" lon="6.55228">
        <ele>1326</ele>
        <time>2025-02-20T16:03:13Z</time>
      </trkpt>
      <trkpt lat="45.6597" lon="6.5523">
        <ele>1326</ele>
        <time>2025-02-20T16:03:14Z</time>
      </trkpt>
      <trkpt lat="45.65974" lon="6.5523">
        <ele>1326</ele>
        <time>2025-02-20T16:03:15Z</time>
      </trkpt>
      <trkpt lat="45.65977" lon="6.55227">
        <ele>1325</ele>
        <time>2025-02-20T16:03:16Z</time>
      </trkpt>
      <trkpt lat="45.65978" lon="6.55223">
        <ele>1321.4</ele>
        <time>2025-02-20T16:03:17Z</time>
      </trkpt>
      <trkpt lat="45.65978" lon="6.55221">
        <ele>1321.4</ele>
        <time>2025-02-20T16:03:18Z</time>
      </trkpt>
      <trkpt lat="45.65976" lon="6.55219">
        <ele>1321.4</ele>
        <time>2025-02-20T16:03:19Z</time>
      </trkpt>
      <trkpt lat="45.65974" lon="6.55216">
        <ele>1320.4</ele>
        <time>2025-02-20T16:03:20Z</time>
      </trkpt>
      <trkpt lat="45.65972" lon="6.55213">
        <ele>1319.4</ele>
        <time>2025-02-20T16:03:21Z</time>
      </trkpt>
      <trkpt lat="45.65969" lon="6.5521">
        <ele>1319.4</ele>
        <time>2025-02-20T16:03:22Z</time>
      </trkpt>
      <trkpt lat="45.65966" lon="6.55205">
        <ele>1319.4</ele>
        <time>2025-02-20T16:03:23Z</time>
      </trkpt>
      <trkpt lat="45.65968" lon="6.552">
        <ele>1318.4</ele>
        <time>2025-02-20T16:03:24Z</time>
      </trkpt>
      <trkpt lat="45.65971" lon="6.55196">
        <ele>1317</ele>
        <time>2025-02-20T16:03:25Z</time>
      </trkpt>
      <trkpt lat="45.65974" lon="6.55197">
        <ele>1317</ele>
        <time>2025-02-20T16:03:26Z</time>
      </trkpt>
      <trkpt lat="45.65977" lon="6.55199">
        <ele>1317</ele>
        <time>2025-02-20T16:03:27Z</time>
      </trkpt>
      <trkpt lat="45.6598" lon="6.552">
        <ele>1316.2</ele>
        <time>2025-02-20T16:03:28Z</time>
      </trkpt>
      <trkpt lat="45.65984" lon="6.55203">
        <ele>1315.4</ele>
        <time>2025-02-20T16:03:29Z</time>
      </trkpt>
      <trkpt lat="45.65986" lon="6.55205">
        <ele>1315.4</ele>
        <time>2025-02-20T16:03:30Z</time>
      </trkpt>
      <trkpt lat="45.65989" lon="6.55206">
        <ele>1315.4</ele>
        <time>2025-02-20T16:03:31Z</time>
      </trkpt>
      <trkpt lat="45.65993" lon="6.55207">
        <ele>1314.4</ele>
        <time>2025-02-20T16:03:32Z</time>
      </trkpt>
      <trkpt lat="45.65995" lon="6.55207">
        <ele>1312.6</ele>
        <time>2025-02-20T16:03:33Z</time>
      </trkpt>
      <trkpt lat="45.65998" lon="6.55208">
        <ele>1312.6</ele>
        <time>2025-02-20T16:03:34Z</time>
      </trkpt>
      <trkpt lat="45.66004" lon="6.55209">
        <ele>1312.6</ele>
        <time>2025-02-20T16:03:35Z</time>
      </trkpt>
      <trkpt lat="45.66008" lon="6.55211">
        <ele>1311.6</ele>
        <time>2025-02-20T16:03:36Z</time>
      </trkpt>
      <trkpt lat="45.66014" lon="6.55212">
        <ele>1310.4</ele>
        <time>2025-02-20T16:03:37Z</time>
      </trkpt>
      <trkpt lat="45.66018" lon="6.55212">
        <ele>1310.4</ele>
        <time>2025-02-20T16:03:38Z</time>
      </trkpt>
      <trkpt lat="45.66021" lon="6.55213">
        <ele>1310.4</ele>
        <time>2025-02-20T16:03:39Z</time>
      </trkpt>
      <trkpt lat="45.66026" lon="6.55212">
        <ele>1309.4</ele>
        <time>2025-02-20T16:03:40Z</time>
      </trkpt>
      <trkpt lat="45.6603" lon="6.55213">
        <ele>1307</ele>
        <time>2025-02-20T16:03:41Z</time>
      </trkpt>
      <trkpt lat="45.66035" lon="6.55213">
        <ele>1307</ele>
        <time>2025-02-20T16:03:42Z</time>
      </trkpt>
      <trkpt lat="45.66039" lon="6.55214">
        <ele>1307</ele>
        <time>2025-02-20T16:03:43Z</time>
      </trkpt>
      <trkpt lat="45.66045" lon="6.55215">
        <ele>1306</ele>
        <time>2025-02-20T16:03:44Z</time>
      </trkpt>
      <trkpt lat="45.6605" lon="6.55216">
        <ele>1302.8</ele>
        <time>2025-02-20T16:03:45Z</time>
      </trkpt>
      <trkpt lat="45.66055" lon="6.55217">
        <ele>1302.8</ele>
        <time>2025-02-20T16:03:46Z</time>
      </trkpt>
      <trkpt lat="45.66061" lon="6.55218">
        <ele>1302.8</ele>
        <time>2025-02-20T16:03:47Z</time>
      </trkpt>
      <trkpt lat="45.66065" lon="6.5522">
        <ele>1301.8</ele>
        <time>2025-02-20T16:03:48Z</time>
      </trkpt>
      <trkpt lat="45.6607" lon="6.5522">
        <ele>1299.4</ele>
        <time>2025-02-20T16:03:49Z</time>
      </trkpt>
      <trkpt lat="45.66075" lon="6.55221">
        <ele>1299.4</ele>
        <time>2025-02-20T16:03:50Z</time>
      </trkpt>
      <trkpt lat="45.66079" lon="6.55221">
        <ele>1299.4</ele>
        <time>2025-02-20T16:03:51Z</time>
      </trkpt>
      <trkpt lat="45.66085" lon="6.55221">
        <ele>1298.4</ele>
        <time>2025-02-20T16:03:52Z</time>
      </trkpt>
      <trkpt lat="45.66089" lon="6.5522">
        <ele>1297</ele>
        <time>2025-02-20T16:03:53Z</time>
      </trkpt>
      <trkpt lat="45.66093" lon="6.5522">
        <ele>1297</ele>
        <time>2025-02-20T16:03:54Z</time>
      </trkpt>
      <trkpt lat="45.66097" lon="6.5522">
        <ele>1297</ele>
        <time>2025-02-20T16:03:55Z</time>
      </trkpt>
      <trkpt lat="45.66101" lon="6.5522">
        <ele>1296</ele>
        <time>2025-02-20T16:03:56Z</time>
      </trkpt>
      <trkpt lat="45.66105" lon="6.55219">
        <ele>1294.8</ele>
        <time>2025-02-20T16:03:57Z</time>
      </trkpt>
      <trkpt lat="45.6611" lon="6.55218">
        <ele>1294.8</ele>
        <time>2025-02-20T16:03:58Z</time>
      </trkpt>
      <trkpt lat="45.66113" lon="6.55217">
        <ele>1294.8</ele>
        <time>2025-02-20T16:03:59Z</time>
      </trkpt>
      <trkpt lat="45.66117" lon="6.55214">
        <ele>1293.8</ele>
        <time>2025-02-20T16:04:00Z</time>
      </trkpt>
      <trkpt lat="45.66121" lon="6.55215">
        <ele>1292</ele>
        <time>2025-02-20T16:04:01Z</time>
      </trkpt>
      <trkpt lat="45.66126" lon="6.55213">
        <ele>1292</ele>
        <time>2025-02-20T16:04:02Z</time>
      </trkpt>
      <trkpt lat="45.66129" lon="6.55213">
        <ele>1292</ele>
        <time>2025-02-20T16:04:03Z</time>
      </trkpt>
      <trkpt lat="45.66133" lon="6.55213">
        <ele>1291</ele>
        <time>2025-02-20T16:04:04Z</time>
      </trkpt>
      <trkpt lat="45.66134" lon="6.55213">
        <ele>1290.4</ele>
        <time>2025-02-20T16:04:05Z</time>
      </trkpt>
      <trkpt lat="45.66137" lon="6.55212">
        <ele>1290.4</ele>
        <time>2025-02-20T16:04:06Z</time>
      </trkpt>
      <trkpt lat="45.66139" lon="6.55211">
        <ele>1290.4</ele>
        <time>2025-02-20T16:04:07Z</time>
      </trkpt>
      <trkpt lat="45.66142" lon="6.55211">
        <ele>1289.4</ele>
        <time>2025-02-20T16:04:08Z</time>
      </trkpt>
      <trkpt lat="45.66144" lon="6.5521">
        <ele>1287.4</ele>
        <time>2025-02-20T16:04:09Z</time>
      </trkpt>
      <trkpt lat="45.66146" lon="6.55209">
        <ele>1287.4</ele>
        <time>2025-02-20T16:04:10Z</time>
      </trkpt>
      <trkpt lat="45.66148" lon="6.55209">
        <ele>1287.4</ele>
        <time>2025-02-20T16:04:11Z</time>
      </trkpt>
      <trkpt lat="45.66149" lon="6.55208">
        <ele>1286.4</ele>
        <time>2025-02-20T16:04:12Z</time>
      </trkpt>
      <trkpt lat="45.6615" lon="6.55207">
        <ele>1286</ele>
        <time>2025-02-20T16:04:13Z</time>
      </trkpt>
      <trkpt lat="45.6615" lon="6.55206">
        <ele>1286</ele>
        <time>2025-02-20T16:04:14Z</time>
      </trkpt>
      <trkpt lat="45.66151" lon="6.55204">
        <ele>1286</ele>
        <time>2025-02-20T16:04:15Z</time>
      </trkpt>
      <trkpt lat="45.66152" lon="6.55204">
        <ele>1285</ele>
        <time>2025-02-20T16:04:16Z</time>
      </trkpt>
      <trkpt lat="45.66152" lon="6.55204">
        <ele>1285</ele>
        <time>2025-02-20T16:04:17Z</time>
      </trkpt>
      <trkpt lat="45.66152" lon="6.55204">
        <ele>1285</ele>
        <time>2025-02-20T16:04:18Z</time>
      </trkpt>
      <trkpt lat="45.66155" lon="6.55203">
        <ele>1285</ele>
        <time>2025-02-20T16:04:19Z</time>
      </trkpt>
      <trkpt lat="45.66155" lon="6.55202">
        <ele>1284.2</ele>
        <time>2025-02-20T16:04:20Z</time>
      </trkpt>
      <trkpt lat="45.66155" lon="6.55199">
        <ele>1284.6</ele>
        <time>2025-02-20T16:04:21Z</time>
      </trkpt>
      <trkpt lat="45.66155" lon="6.55199">
        <ele>1284.6</ele>
        <time>2025-02-20T16:04:22Z</time>
      </trkpt>
      <trkpt lat="45.66155" lon="6.55199">
        <ele>1284.6</ele>
        <time>2025-02-20T16:04:23Z</time>
      </trkpt>
      <trkpt lat="45.66155" lon="6.55199">
        <ele>1284.6</ele>
        <time>2025-02-20T16:04:24Z</time>
      </trkpt>
      <trkpt lat="45.66155" lon="6.55199">
        <ele>1283.4</ele>
        <time>2025-02-20T16:04:25Z</time>
      </trkpt>
      <trkpt lat="45.66155" lon="6.55199">
        <ele>1283.4</ele>
        <time>2025-02-20T16:04:26Z</time>
      </trkpt>
      <trkpt lat="45.66155" lon="6.55199">
        <ele>1283.4</ele>
        <time>2025-02-20T16:04:27Z</time>
      </trkpt>
      <trkpt lat="45.66155" lon="6.55199">
        <ele>1284</ele>
        <time>2025-02-20T16:04:28Z</time>
      </trkpt>
      <trkpt lat="45.66155" lon="6.55199">
        <ele>1284.2</ele>
        <time>2025-02-20T16:04:29Z</time>
      </trkpt>
      <trkpt lat="45.66155" lon="6.55199">
        <ele>1284.2</ele>
        <time>2025-02-20T16:04:30Z</time>
      </trkpt>
      <trkpt lat="45.66155" lon="6.55199">
        <ele>1284.2</ele>
        <time>2025-02-20T16:04:31Z</time>
      </trkpt>
      <trkpt lat="45.66155" lon="6.55199">
        <ele>1284.2</ele>
        <time>2025-02-20T16:04:32Z</time>
      </trkpt>
      <trkpt lat="45.66155" lon="6.55199">
        <ele>1284.6</ele>
        <time>2025-02-20T16:04:33Z</time>
      </trkpt>
      <trkpt lat="45.66155" lon="6.55199">
        <ele>1284.6</ele>
        <time>2025-02-20T16:04:34Z</time>
      </trkpt>
      <trkpt lat="45.66155" lon="6.55199">
        <ele>1284.6</ele>
        <time>2025-02-20T16:04:35Z</time>
      </trkpt>
      <trkpt lat="45.66155" lon="6.55199">
        <ele>1284.6</ele>
        <time>2025-02-20T16:04:36Z</time>
      </trkpt>
      <trkpt lat="45.66155" lon="6.55199">
        <ele>1284.8</ele>
        <time>2025-02-20T16:04:37Z</time>
      </trkpt>
      <trkpt lat="45.66155" lon="6.55199">
        <ele>1284.8</ele>
        <time>2025-02-20T16:04:38Z</time>
      </trkpt>
      <trkpt lat="45.66155" lon="6.55199">
        <ele>1284.8</ele>
        <time>2025-02-20T16:04:39Z</time>
      </trkpt>
      <trkpt lat="45.66155" lon="6.55199">
        <ele>1284.6</ele>
        <time>2025-02-20T16:04:40Z</time>
      </trkpt>
      <trkpt lat="45.66155" lon="6.55199">
        <ele>1284.6</ele>
        <time>2025-02-20T16:04:41Z</time>
      </trkpt>
      <trkpt lat="45.66155" lon="6.55199">
        <ele>1284.6</ele>
        <time>2025-02-20T16:04:42Z</time>
      </trkpt>
      <trkpt lat="45.66155" lon="6.55199">
        <ele>1284.6</ele>
        <time>2025-02-20T16:04:43Z</time>
      </trkpt>
      <trkpt lat="45.66155" lon="6.55199">
        <ele>1285</ele>
        <time>2025-02-20T16:04:44Z</time>
      </trkpt>
      <trkpt lat="45.66155" lon="6.55199">
        <ele>1284</ele>
        <time>2025-02-20T16:04:45Z</time>
      </trkpt>
      <trkpt lat="45.66155" lon="6.55199">
        <ele>1284</ele>
        <time>2025-02-20T16:04:46Z</time>
      </trkpt>
      <trkpt lat="45.66162" lon="6.55194">
        <ele>1284</ele>
        <time>2025-02-20T16:04:47Z</time>
      </trkpt>
      <trkpt lat="45.66164" lon="6.55194">
        <ele>1284</ele>
        <time>2025-02-20T16:04:48Z</time>
      </trkpt>
      <trkpt lat="45.66165" lon="6.55194">
        <ele>1283.8</ele>
        <time>2025-02-20T16:04:49Z</time>
      </trkpt>
      <trkpt lat="45.66166" lon="6.55195">
        <ele>1283.8</ele>
        <time>2025-02-20T16:04:50Z</time>
      </trkpt>
      <trkpt lat="45.66168" lon="6.55194">
        <ele>1283.8</ele>
        <time>2025-02-20T16:04:51Z</time>
      </trkpt>
      <trkpt lat="45.66169" lon="6.55194">
        <ele>1283</ele>
        <time>2025-02-20T16:04:52Z</time>
      </trkpt>
      <trkpt lat="45.6617" lon="6.55195">
        <ele>1283.6</ele>
        <time>2025-02-20T16:04:53Z</time>
      </trkpt>
      <trkpt lat="45.66172" lon="6.55196">
        <ele>1283.6</ele>
        <time>2025-02-20T16:04:54Z</time>
      </trkpt>
      <trkpt lat="45.66173" lon="6.55197">
        <ele>1283.6</ele>
        <time>2025-02-20T16:04:55Z</time>
      </trkpt>
      <trkpt lat="45.66174" lon="6.55198">
        <ele>1283.4</ele>
        <time>2025-02-20T16:04:56Z</time>
      </trkpt>
      <trkpt lat="45.66175" lon="6.55199">
        <ele>1283</ele>
        <time>2025-02-20T16:04:57Z</time>
      </trkpt>
      <trkpt lat="45.66176" lon="6.55199">
        <ele>1283</ele>
        <time>2025-02-20T16:04:58Z</time>
      </trkpt>
      <trkpt lat="45.66177" lon="6.55198">
        <ele>1283</ele>
        <time>2025-02-20T16:04:59Z</time>
      </trkpt>
      <trkpt lat="45.66177" lon="6.55199">
        <ele>1282</ele>
        <time>2025-02-20T16:05:00Z</time>
      </trkpt>
      <trkpt lat="45.66178" lon="6.552">
        <ele>1281.8</ele>
        <time>2025-02-20T16:05:01Z</time>
      </trkpt>
      <trkpt lat="45.66179" lon="6.55199">
        <ele>1281.8</ele>
        <time>2025-02-20T16:05:02Z</time>
      </trkpt>
      <trkpt lat="45.66179" lon="6.55199">
        <ele>1281.8</ele>
        <time>2025-02-20T16:05:03Z</time>
      </trkpt>
      <trkpt lat="45.66179" lon="6.55199">
        <ele>1281.8</ele>
        <time>2025-02-20T16:05:04Z</time>
      </trkpt>
      <trkpt lat="45.66179" lon="6.55199">
        <ele>1281.4</ele>
        <time>2025-02-20T16:05:05Z</time>
      </trkpt>
      <trkpt lat="45.66179" lon="6.55199">
        <ele>1281.4</ele>
        <time>2025-02-20T16:05:06Z</time>
      </trkpt>
      <trkpt lat="45.66179" lon="6.55199">
        <ele>1281.4</ele>
        <time>2025-02-20T16:05:07Z</time>
      </trkpt>
      <trkpt lat="45.66179" lon="6.55199">
        <ele>1281.4</ele>
        <time>2025-02-20T16:05:08Z</time>
      </trkpt>
      <trkpt lat="45.66179" lon="6.55199">
        <ele>1282.6</ele>
        <time>2025-02-20T16:05:09Z</time>
      </trkpt>
      <trkpt lat="45.66179" lon="6.55199">
        <ele>1282.6</ele>
        <time>2025-02-20T16:05:10Z</time>
      </trkpt>
      <trkpt lat="45.66179" lon="6.55199">
        <ele>1282.6</ele>
        <time>2025-02-20T16:05:11Z</time>
      </trkpt>
      <trkpt lat="45.66179" lon="6.55199">
        <ele>1281.8</ele>
        <time>2025-02-20T16:05:12Z</time>
      </trkpt>
      <trkpt lat="45.66179" lon="6.55199">
        <ele>1281.6</ele>
        <time>2025-02-20T16:05:13Z</time>
      </trkpt>
      <trkpt lat="45.66179" lon="6.55199">
        <ele>1281.6</ele>
        <time>2025-02-20T16:05:14Z</time>
      </trkpt>
      <trkpt lat="45.66179" lon="6.55199">
        <ele>1281.6</ele>
        <time>2025-02-20T16:05:15Z</time>
      </trkpt>
      <trkpt lat="45.66179" lon="6.55199">
        <ele>1281.6</ele>
        <time>2025-02-20T16:05:16Z</time>
      </trkpt>
      <trkpt lat="45.66188" lon="6.55203">
        <ele>1281.4</ele>
        <time>2025-02-20T16:05:17Z</time>
      </trkpt>
      <trkpt lat="45.66189" lon="6.55202">
        <ele>1281.4</ele>
        <time>2025-02-20T16:05:18Z</time>
      </trkpt>
      <trkpt lat="45.66192" lon="6.55201">
        <ele>1281.4</ele>
        <time>2025-02-20T16:05:19Z</time>
      </trkpt>
      <trkpt lat="45.66196" lon="6.55201">
        <ele>1280.4</ele>
        <time>2025-02-20T16:05:20Z</time>
      </trkpt>
      <trkpt lat="45.66199" lon="6.55201">
        <ele>1279.8</ele>
        <time>2025-02-20T16:05:21Z</time>
      </trkpt>
      <trkpt lat="45.66201" lon="6.55201">
        <ele>1279.8</ele>
        <time>2025-02-20T16:05:22Z</time>
      </trkpt>
      <trkpt lat="45.66204" lon="6.552">
        <ele>1279.8</ele>
        <time>2025-02-20T16:05:23Z</time>
      </trkpt>
      <trkpt lat="45.66207" lon="6.55199">
        <ele>1279.8</ele>
        <time>2025-02-20T16:05:24Z</time>
      </trkpt>
      <trkpt lat="45.6621" lon="6.55198">
        <ele>1277.8</ele>
        <time>2025-02-20T16:05:25Z</time>
      </trkpt>
      <trkpt lat="45.66214" lon="6.55197">
        <ele>1277.8</ele>
        <time>2025-02-20T16:05:26Z</time>
      </trkpt>
      <trkpt lat="45.66219" lon="6.55197">
        <ele>1277.8</ele>
        <time>2025-02-20T16:05:27Z</time>
      </trkpt>
      <trkpt lat="45.66224" lon="6.55197">
        <ele>1276.8</ele>
        <time>2025-02-20T16:05:28Z</time>
      </trkpt>
      <trkpt lat="45.66228" lon="6.55196">
        <ele>1274.8</ele>
        <time>2025-02-20T16:05:29Z</time>
      </trkpt>
      <trkpt lat="45.66231" lon="6.55194">
        <ele>1274.8</ele>
        <time>2025-02-20T16:05:30Z</time>
      </trkpt>
      <trkpt lat="45.66231" lon="6.5519">
        <ele>1274.8</ele>
        <time>2025-02-20T16:05:31Z</time>
      </trkpt>
      <trkpt lat="45.66231" lon="6.55189">
        <ele>1274.8</ele>
        <time>2025-02-20T16:05:32Z</time>
      </trkpt>
      <trkpt lat="45.66231" lon="6.5519">
        <ele>1274.8</ele>
        <time>2025-02-20T16:05:33Z</time>
      </trkpt>
      <trkpt lat="45.66231" lon="6.5519">
        <ele>1274.8</ele>
        <time>2025-02-20T16:05:34Z</time>
      </trkpt>
      <trkpt lat="45.66231" lon="6.5519">
        <ele>1274.8</ele>
        <time>2025-02-20T16:05:35Z</time>
      </trkpt>
      <trkpt lat="45.66231" lon="6.5519">
        <ele>1274.6</ele>
        <time>2025-02-20T16:05:36Z</time>
      </trkpt>
      <trkpt lat="45.66231" lon="6.5519">
        <ele>1274.4</ele>
        <time>2025-02-20T16:05:37Z</time>
      </trkpt>
      <trkpt lat="45.66231" lon="6.5519">
        <ele>1274.4</ele>
        <time>2025-02-20T16:05:38Z</time>
      </trkpt>
      <trkpt lat="45.66231" lon="6.5519">
        <ele>1274.4</ele>
        <time>2025-02-20T16:05:39Z</time>
      </trkpt>
      <trkpt lat="45.66231" lon="6.5519">
        <ele>1274.4</ele>
        <time>2025-02-20T16:05:40Z</time>
      </trkpt>
      <trkpt lat="45.66231" lon="6.5519">
        <ele>1274</ele>
        <time>2025-02-20T16:05:41Z</time>
      </trkpt>
      <trkpt lat="45.66231" lon="6.5519">
        <ele>1274</ele>
        <time>2025-02-20T16:05:42Z</time>
      </trkpt>
      <trkpt lat="45.66231" lon="6.5519">
        <ele>1274</ele>
        <time>2025-02-20T16:05:43Z</time>
      </trkpt>
      <trkpt lat="45.66231" lon="6.5519">
        <ele>1274.4</ele>
        <time>2025-02-20T16:05:44Z</time>
      </trkpt>
      <trkpt lat="45.66231" lon="6.5519">
        <ele>1274.2</ele>
        <time>2025-02-20T16:05:45Z</time>
      </trkpt>
      <trkpt lat="45.66231" lon="6.5519">
        <ele>1274.2</ele>
        <time>2025-02-20T16:05:46Z</time>
      </trkpt>
      <trkpt lat="45.66231" lon="6.5519">
        <ele>1274.2</ele>
        <time>2025-02-20T16:05:47Z</time>
      </trkpt>
      <trkpt lat="45.66231" lon="6.5519">
        <ele>1274.6</ele>
        <time>2025-02-20T16:05:48Z</time>
      </trkpt>
      <trkpt lat="45.66231" lon="6.5519">
        <ele>1274.8</ele>
        <time>2025-02-20T16:05:49Z</time>
      </trkpt>
      <trkpt lat="45.66231" lon="6.5519">
        <ele>1274.8</ele>
        <time>2025-02-20T16:05:50Z</time>
      </trkpt>
      <trkpt lat="45.66231" lon="6.5519">
        <ele>1274.8</ele>
        <time>2025-02-20T16:05:51Z</time>
      </trkpt>
      <trkpt lat="45.66231" lon="6.5519">
        <ele>1274.8</ele>
        <time>2025-02-20T16:05:52Z</time>
      </trkpt>
      <trkpt lat="45.66231" lon="6.5519">
        <ele>1274.8</ele>
        <time>2025-02-20T16:05:53Z</time>
      </trkpt>
      <trkpt lat="45.66231" lon="6.5519">
        <ele>1274.8</ele>
        <time>2025-02-20T16:05:54Z</time>
      </trkpt>
      <trkpt lat="45.66231" lon="6.5519">
        <ele>1274.8</ele>
        <time>2025-02-20T16:05:55Z</time>
      </trkpt>
      <trkpt lat="45.66231" lon="6.5519">
        <ele>1274.8</ele>
        <time>2025-02-20T16:05:56Z</time>
      </trkpt>
      <trkpt lat="45.66231" lon="6.5519">
        <ele>1275</ele>
        <time>2025-02-20T16:05:57Z</time>
      </trkpt>
      <trkpt lat="45.66231" lon="6.5519">
        <ele>1275</ele>
        <time>2025-02-20T16:05:58Z</time>
      </trkpt>
      <trkpt lat="45.66231" lon="6.5519">
        <ele>1275</ele>
        <time>2025-02-20T16:05:59Z</time>
      </trkpt>
      <trkpt lat="45.66231" lon="6.5519">
        <ele>1275</ele>
        <time>2025-02-20T16:06:00Z</time>
      </trkpt>
      <trkpt lat="45.66231" lon="6.5519">
        <ele>1274.8</ele>
        <time>2025-02-20T16:06:01Z</time>
      </trkpt>
      <trkpt lat="45.66231" lon="6.5519">
        <ele>1274.8</ele>
        <time>2025-02-20T16:06:02Z</time>
      </trkpt>
      <trkpt lat="45.66231" lon="6.5519">
        <ele>1274.8</ele>
        <time>2025-02-20T16:06:03Z</time>
      </trkpt>
      <trkpt lat="45.66231" lon="6.5519">
        <ele>1274.4</ele>
        <time>2025-02-20T16:06:04Z</time>
      </trkpt>
      <trkpt lat="45.66231" lon="6.5519">
        <ele>1274.8</ele>
        <time>2025-02-20T16:06:05Z</time>
      </trkpt>
      <trkpt lat="45.66231" lon="6.5519">
        <ele>1274.8</ele>
        <time>2025-02-20T16:06:06Z</time>
      </trkpt>
      <trkpt lat="45.66232" lon="6.55196">
        <ele>1274.8</ele>
        <time>2025-02-20T16:06:07Z</time>
      </trkpt>
      <trkpt lat="45.66229" lon="6.55195">
        <ele>1273.8</ele>
        <time>2025-02-20T16:06:08Z</time>
      </trkpt>
      <trkpt lat="45.66226" lon="6.55195">
        <ele>1272.4</ele>
        <time>2025-02-20T16:06:09Z</time>
      </trkpt>
      <trkpt lat="45.66223" lon="6.55195">
        <ele>1272.4</ele>
        <time>2025-02-20T16:06:10Z</time>
      </trkpt>
      <trkpt lat="45.66219" lon="6.55193">
        <ele>1272.4</ele>
        <time>2025-02-20T16:06:11Z</time>
      </trkpt>
      <trkpt lat="45.66216" lon="6.55191">
        <ele>1271.4</ele>
        <time>2025-02-20T16:06:12Z</time>
      </trkpt>
      <trkpt lat="45.66213" lon="6.55189">
        <ele>1268.2</ele>
        <time>2025-02-20T16:06:13Z</time>
      </trkpt>
      <trkpt lat="45.66209" lon="6.55186">
        <ele>1268.2</ele>
        <time>2025-02-20T16:06:14Z</time>
      </trkpt>
      <trkpt lat="45.66206" lon="6.55185">
        <ele>1268.2</ele>
        <time>2025-02-20T16:06:15Z</time>
      </trkpt>
      <trkpt lat="45.66203" lon="6.55183">
        <ele>1268.2</ele>
        <time>2025-02-20T16:06:16Z</time>
      </trkpt>
      <trkpt lat="45.66199" lon="6.55182">
        <ele>1266.4</ele>
        <time>2025-02-20T16:06:17Z</time>
      </trkpt>
      <trkpt lat="45.66195" lon="6.55181">
        <ele>1266.4</ele>
        <time>2025-02-20T16:06:18Z</time>
      </trkpt>
      <trkpt lat="45.66192" lon="6.55179">
        <ele>1266.4</ele>
        <time>2025-02-20T16:06:19Z</time>
      </trkpt>
      <trkpt lat="45.66189" lon="6.55178">
        <ele>1265.4</ele>
        <time>2025-02-20T16:06:20Z</time>
      </trkpt>
      <trkpt lat="45.66185" lon="6.55176">
        <ele>1264</ele>
        <time>2025-02-20T16:06:21Z</time>
      </trkpt>
      <trkpt lat="45.66181" lon="6.55174">
        <ele>1264</ele>
        <time>2025-02-20T16:06:22Z</time>
      </trkpt>
      <trkpt lat="45.66178" lon="6.55172">
        <ele>1264</ele>
        <time>2025-02-20T16:06:23Z</time>
      </trkpt>
      <trkpt lat="45.66174" lon="6.5517">
        <ele>1263</ele>
        <time>2025-02-20T16:06:24Z</time>
      </trkpt>
      <trkpt lat="45.66171" lon="6.55168">
        <ele>1261.4</ele>
        <time>2025-02-20T16:06:25Z</time>
      </trkpt>
      <trkpt lat="45.66167" lon="6.55164">
        <ele>1261.4</ele>
        <time>2025-02-20T16:06:26Z</time>
      </trkpt>
      <trkpt lat="45.66164" lon="6.55162">
        <ele>1261.4</ele>
        <time>2025-02-20T16:06:27Z</time>
      </trkpt>
      <trkpt lat="45.66159" lon="6.55158">
        <ele>1260.4</ele>
        <time>2025-02-20T16:06:28Z</time>
      </trkpt>
      <trkpt lat="45.66154" lon="6.55154">
        <ele>1258.4</ele>
        <time>2025-02-20T16:06:29Z</time>
      </trkpt>
      <trkpt lat="45.66149" lon="6.55151">
        <ele>1258.4</ele>
        <time>2025-02-20T16:06:30Z</time>
      </trkpt>
      <trkpt lat="45.66142" lon="6.55146">
        <ele>1258.4</ele>
        <time>2025-02-20T16:06:31Z</time>
      </trkpt>
      <trkpt lat="45.66137" lon="6.55143">
        <ele>1257.4</ele>
        <time>2025-02-20T16:06:32Z</time>
      </trkpt>
      <trkpt lat="45.66131" lon="6.55139">
        <ele>1254</ele>
        <time>2025-02-20T16:06:33Z</time>
      </trkpt>
      <trkpt lat="45.66125" lon="6.55132">
        <ele>1254</ele>
        <time>2025-02-20T16:06:34Z</time>
      </trkpt>
      <trkpt lat="45.66125" lon="6.55129">
        <ele>1254</ele>
        <time>2025-02-20T16:06:35Z</time>
      </trkpt>
      <trkpt lat="45.66126" lon="6.55125">
        <ele>1253</ele>
        <time>2025-02-20T16:06:36Z</time>
      </trkpt>
      <trkpt lat="45.66129" lon="6.55125">
        <ele>1251.6</ele>
        <time>2025-02-20T16:06:37Z</time>
      </trkpt>
      <trkpt lat="45.66131" lon="6.55124">
        <ele>1251.6</ele>
        <time>2025-02-20T16:06:38Z</time>
      </trkpt>
      <trkpt lat="45.66133" lon="6.55124">
        <ele>1251.6</ele>
        <time>2025-02-20T16:06:39Z</time>
      </trkpt>
      <trkpt lat="45.66136" lon="6.55124">
        <ele>1250.6</ele>
        <time>2025-02-20T16:06:40Z</time>
      </trkpt>
      <trkpt lat="45.66139" lon="6.55125">
        <ele>1251</ele>
        <time>2025-02-20T16:06:41Z</time>
      </trkpt>
      <trkpt lat="45.66142" lon="6.55126">
        <ele>1251</ele>
        <time>2025-02-20T16:06:42Z</time>
      </trkpt>
      <trkpt lat="45.66144" lon="6.55124">
        <ele>1251</ele>
        <time>2025-02-20T16:06:43Z</time>
      </trkpt>
      <trkpt lat="45.66148" lon="6.55123">
        <ele>1250</ele>
        <time>2025-02-20T16:06:44Z</time>
      </trkpt>
      <trkpt lat="45.66152" lon="6.55124">
        <ele>1249.2</ele>
        <time>2025-02-20T16:06:45Z</time>
      </trkpt>
      <trkpt lat="45.66155" lon="6.55123">
        <ele>1249.2</ele>
        <time>2025-02-20T16:06:46Z</time>
      </trkpt>
      <trkpt lat="45.66159" lon="6.55123">
        <ele>1249.2</ele>
        <time>2025-02-20T16:06:47Z</time>
      </trkpt>
      <trkpt lat="45.66162" lon="6.55123">
        <ele>1248.2</ele>
        <time>2025-02-20T16:06:48Z</time>
      </trkpt>
      <trkpt lat="45.66165" lon="6.55124">
        <ele>1248.2</ele>
        <time>2025-02-20T16:06:49Z</time>
      </trkpt>
      <trkpt lat="45.66168" lon="6.55123">
        <ele>1248.2</ele>
        <time>2025-02-20T16:06:50Z</time>
      </trkpt>
      <trkpt lat="45.6617" lon="6.55125">
        <ele>1248.2</ele>
        <time>2025-02-20T16:06:51Z</time>
      </trkpt>
      <trkpt lat="45.66172" lon="6.55126">
        <ele>1248.2</ele>
        <time>2025-02-20T16:06:52Z</time>
      </trkpt>
      <trkpt lat="45.66175" lon="6.55127">
        <ele>1248.2</ele>
        <time>2025-02-20T16:06:53Z</time>
      </trkpt>
      <trkpt lat="45.66178" lon="6.55127">
        <ele>1248.2</ele>
        <time>2025-02-20T16:06:54Z</time>
      </trkpt>
      <trkpt lat="45.66182" lon="6.55128">
        <ele>1248.2</ele>
        <time>2025-02-20T16:06:55Z</time>
      </trkpt>
      <trkpt lat="45.66183" lon="6.55128">
        <ele>1247.2</ele>
        <time>2025-02-20T16:06:56Z</time>
      </trkpt>
      <trkpt lat="45.66186" lon="6.55127">
        <ele>1246.6</ele>
        <time>2025-02-20T16:06:57Z</time>
      </trkpt>
      <trkpt lat="45.66189" lon="6.55126">
        <ele>1246.6</ele>
        <time>2025-02-20T16:06:58Z</time>
      </trkpt>
      <trkpt lat="45.6619" lon="6.55126">
        <ele>1246.6</ele>
        <time>2025-02-20T16:06:59Z</time>
      </trkpt>
      <trkpt lat="45.66193" lon="6.55126">
        <ele>1247.6</ele>
        <time>2025-02-20T16:07:00Z</time>
      </trkpt>
      <trkpt lat="45.66194" lon="6.55126">
        <ele>1247.2</ele>
        <time>2025-02-20T16:07:01Z</time>
      </trkpt>
      <trkpt lat="45.66196" lon="6.55126">
        <ele>1247.2</ele>
        <time>2025-02-20T16:07:02Z</time>
      </trkpt>
      <trkpt lat="45.66199" lon="6.55125">
        <ele>1247.2</ele>
        <time>2025-02-20T16:07:03Z</time>
      </trkpt>
      <trkpt lat="45.66201" lon="6.55125">
        <ele>1247.2</ele>
        <time>2025-02-20T16:07:04Z</time>
      </trkpt>
      <trkpt lat="45.66203" lon="6.55125">
        <ele>1246</ele>
        <time>2025-02-20T16:07:05Z</time>
      </trkpt>
      <trkpt lat="45.66205" lon="6.55124">
        <ele>1246</ele>
        <time>2025-02-20T16:07:06Z</time>
      </trkpt>
      <trkpt lat="45.66208" lon="6.55125">
        <ele>1246</ele>
        <time>2025-02-20T16:07:07Z</time>
      </trkpt>
      <trkpt lat="45.6621" lon="6.55124">
        <ele>1246</ele>
        <time>2025-02-20T16:07:08Z</time>
      </trkpt>
      <trkpt lat="45.66213" lon="6.55125">
        <ele>1246.4</ele>
        <time>2025-02-20T16:07:09Z</time>
      </trkpt>
      <trkpt lat="45.66216" lon="6.55125">
        <ele>1246.4</ele>
        <time>2025-02-20T16:07:10Z</time>
      </trkpt>
      <trkpt lat="45.66219" lon="6.55126">
        <ele>1246.4</ele>
        <time>2025-02-20T16:07:11Z</time>
      </trkpt>
      <trkpt lat="45.66221" lon="6.55125">
        <ele>1246.2</ele>
        <time>2025-02-20T16:07:12Z</time>
      </trkpt>
      <trkpt lat="45.66224" lon="6.55125">
        <ele>1246</ele>
        <time>2025-02-20T16:07:13Z</time>
      </trkpt>
      <trkpt lat="45.66226" lon="6.55124">
        <ele>1246</ele>
        <time>2025-02-20T16:07:14Z</time>
      </trkpt>
      <trkpt lat="45.66229" lon="6.55125">
        <ele>1246</ele>
        <time>2025-02-20T16:07:15Z</time>
      </trkpt>
      <trkpt lat="45.66232" lon="6.55124">
        <ele>1246</ele>
        <time>2025-02-20T16:07:16Z</time>
      </trkpt>
      <trkpt lat="45.66235" lon="6.55124">
        <ele>1245.4</ele>
        <time>2025-02-20T16:07:17Z</time>
      </trkpt>
      <trkpt lat="45.66237" lon="6.55124">
        <ele>1245.4</ele>
        <time>2025-02-20T16:07:18Z</time>
      </trkpt>
      <trkpt lat="45.66241" lon="6.55124">
        <ele>1245.4</ele>
        <time>2025-02-20T16:07:19Z</time>
      </trkpt>
      <trkpt lat="45.66246" lon="6.55123">
        <ele>1245.4</ele>
        <time>2025-02-20T16:07:20Z</time>
      </trkpt>
      <trkpt lat="45.66249" lon="6.55122">
        <ele>1244.6</ele>
        <time>2025-02-20T16:07:21Z</time>
      </trkpt>
      <trkpt lat="45.66252" lon="6.55121">
        <ele>1244.6</ele>
        <time>2025-02-20T16:07:22Z</time>
      </trkpt>
      <trkpt lat="45.66255" lon="6.55121">
        <ele>1244.6</ele>
        <time>2025-02-20T16:07:23Z</time>
      </trkpt>
      <trkpt lat="45.66258" lon="6.55121">
        <ele>1244.6</ele>
        <time>2025-02-20T16:07:24Z</time>
      </trkpt>
      <trkpt lat="45.66262" lon="6.55121">
        <ele>1243.8</ele>
        <time>2025-02-20T16:07:25Z</time>
      </trkpt>
      <trkpt lat="45.66265" lon="6.5512">
        <ele>1243.8</ele>
        <time>2025-02-20T16:07:26Z</time>
      </trkpt>
      <trkpt lat="45.66269" lon="6.5512">
        <ele>1243.8</ele>
        <time>2025-02-20T16:07:27Z</time>
      </trkpt>
      <trkpt lat="45.66273" lon="6.55119">
        <ele>1243</ele>
        <time>2025-02-20T16:07:28Z</time>
      </trkpt>
      <trkpt lat="45.66278" lon="6.55119">
        <ele>1242.6</ele>
        <time>2025-02-20T16:07:29Z</time>
      </trkpt>
      <trkpt lat="45.66283" lon="6.55119">
        <ele>1242.6</ele>
        <time>2025-02-20T16:07:30Z</time>
      </trkpt>
      <trkpt lat="45.66288" lon="6.55121">
        <ele>1242.6</ele>
        <time>2025-02-20T16:07:31Z</time>
      </trkpt>
      <trkpt lat="45.66293" lon="6.55122">
        <ele>1242.6</ele>
        <time>2025-02-20T16:07:32Z</time>
      </trkpt>
      <trkpt lat="45.66299" lon="6.55121">
        <ele>1240.2</ele>
        <time>2025-02-20T16:07:33Z</time>
      </trkpt>
      <trkpt lat="45.66302" lon="6.55116">
        <ele>1240.2</ele>
        <time>2025-02-20T16:07:34Z</time>
      </trkpt>
      <trkpt lat="45.66306" lon="6.55112">
        <ele>1240.2</ele>
        <time>2025-02-20T16:07:35Z</time>
      </trkpt>
      <trkpt lat="45.6631" lon="6.55106">
        <ele>1239.2</ele>
        <time>2025-02-20T16:07:36Z</time>
      </trkpt>
      <trkpt lat="45.66314" lon="6.55105">
        <ele>1236.4</ele>
        <time>2025-02-20T16:07:37Z</time>
      </trkpt>
      <trkpt lat="45.66315" lon="6.55102">
        <ele>1236.4</ele>
        <time>2025-02-20T16:07:38Z</time>
      </trkpt>
      <trkpt lat="45.66315" lon="6.55101">
        <ele>1236.4</ele>
        <time>2025-02-20T16:07:39Z</time>
      </trkpt>
      <trkpt lat="45.66316" lon="6.551">
        <ele>1235.4</ele>
        <time>2025-02-20T16:07:40Z</time>
      </trkpt>
      <trkpt lat="45.66316" lon="6.55099">
        <ele>1235.6</ele>
        <time>2025-02-20T16:07:41Z</time>
      </trkpt>
      <trkpt lat="45.66316" lon="6.55099">
        <ele>1235.6</ele>
        <time>2025-02-20T16:07:42Z</time>
      </trkpt>
      <trkpt lat="45.66316" lon="6.55099">
        <ele>1235.6</ele>
        <time>2025-02-20T16:07:43Z</time>
      </trkpt>
      <trkpt lat="45.66316" lon="6.55099">
        <ele>1235.2</ele>
        <time>2025-02-20T16:07:44Z</time>
      </trkpt>
      <trkpt lat="45.66316" lon="6.55099">
        <ele>1235</ele>
        <time>2025-02-20T16:07:45Z</time>
      </trkpt>
      <trkpt lat="45.66316" lon="6.55099">
        <ele>1235</ele>
        <time>2025-02-20T16:07:46Z</time>
      </trkpt>
      <trkpt lat="45.66316" lon="6.55099">
        <ele>1235</ele>
        <time>2025-02-20T16:07:47Z</time>
      </trkpt>
      <trkpt lat="45.66316" lon="6.55099">
        <ele>1235</ele>
        <time>2025-02-20T16:07:48Z</time>
      </trkpt>
      <trkpt lat="45.66316" lon="6.55099">
        <ele>1234.8</ele>
        <time>2025-02-20T16:07:49Z</time>
      </trkpt>
      <trkpt lat="45.66316" lon="6.55099">
        <ele>1234.8</ele>
        <time>2025-02-20T16:07:50Z</time>
      </trkpt>
      <trkpt lat="45.66316" lon="6.55099">
        <ele>1234.8</ele>
        <time>2025-02-20T16:07:51Z</time>
      </trkpt>
      <trkpt lat="45.66316" lon="6.55099">
        <ele>1235.2</ele>
        <time>2025-02-20T16:07:52Z</time>
      </trkpt>
      <trkpt lat="45.66316" lon="6.55099">
        <ele>1235.6</ele>
        <time>2025-02-20T16:07:53Z</time>
      </trkpt>
      <trkpt lat="45.66316" lon="6.55099">
        <ele>1235.6</ele>
        <time>2025-02-20T16:07:54Z</time>
      </trkpt>
      <trkpt lat="45.66316" lon="6.55099">
        <ele>1235.6</ele>
        <time>2025-02-20T16:07:55Z</time>
      </trkpt>
      <trkpt lat="45.66316" lon="6.55099">
        <ele>1235.6</ele>
        <time>2025-02-20T16:07:56Z</time>
      </trkpt>
      <trkpt lat="45.66316" lon="6.55099">
        <ele>1235.2</ele>
        <time>2025-02-20T16:07:57Z</time>
      </trkpt>
      <trkpt lat="45.66316" lon="6.55099">
        <ele>1235.2</ele>
        <time>2025-02-20T16:07:58Z</time>
      </trkpt>
      <trkpt lat="45.66316" lon="6.55099">
        <ele>1235.2</ele>
        <time>2025-02-20T16:07:59Z</time>
      </trkpt>
      <trkpt lat="45.66316" lon="6.55099">
        <ele>1235.2</ele>
        <time>2025-02-20T16:08:00Z</time>
      </trkpt>
      <trkpt lat="45.66316" lon="6.55099">
        <ele>1234.8</ele>
        <time>2025-02-20T16:08:01Z</time>
      </trkpt>
      <trkpt lat="45.66316" lon="6.55099">
        <ele>1234.8</ele>
        <time>2025-02-20T16:08:02Z</time>
      </trkpt>
      <trkpt lat="45.66316" lon="6.55099">
        <ele>1234.8</ele>
        <time>2025-02-20T16:08:03Z</time>
      </trkpt>
      <trkpt lat="45.66316" lon="6.55099">
        <ele>1235.2</ele>
        <time>2025-02-20T16:08:04Z</time>
      </trkpt>
      <trkpt lat="45.66316" lon="6.55099">
        <ele>1235.2</ele>
        <time>2025-02-20T16:08:05Z</time>
      </trkpt>
      <trkpt lat="45.66316" lon="6.55099">
        <ele>1235.2</ele>
        <time>2025-02-20T16:08:06Z</time>
      </trkpt>
      <trkpt lat="45.66316" lon="6.55099">
        <ele>1235.2</ele>
        <time>2025-02-20T16:08:07Z</time>
      </trkpt>
      <trkpt lat="45.66316" lon="6.55099">
        <ele>1235.2</ele>
        <time>2025-02-20T16:08:08Z</time>
      </trkpt>
      <trkpt lat="45.66316" lon="6.55099">
        <ele>1235.2</ele>
        <time>2025-02-20T16:08:09Z</time>
      </trkpt>
      <trkpt lat="45.66316" lon="6.55099">
        <ele>1235.2</ele>
        <time>2025-02-20T16:08:10Z</time>
      </trkpt>
      <trkpt lat="45.66316" lon="6.55099">
        <ele>1235.2</ele>
        <time>2025-02-20T16:08:11Z</time>
      </trkpt>
      <trkpt lat="45.66316" lon="6.55099">
        <ele>1235.2</ele>
        <time>2025-02-20T16:08:12Z</time>
      </trkpt>
      <trkpt lat="45.66316" lon="6.55099">
        <ele>1235</ele>
        <time>2025-02-20T16:08:13Z</time>
      </trkpt>
      <trkpt lat="45.66316" lon="6.55099">
        <ele>1235</ele>
        <time>2025-02-20T16:08:14Z</time>
      </trkpt>
      <trkpt lat="45.66316" lon="6.55099">
        <ele>1235</ele>
        <time>2025-02-20T16:08:15Z</time>
      </trkpt>
      <trkpt lat="45.66316" lon="6.55099">
        <ele>1235</ele>
        <time>2025-02-20T16:08:16Z</time>
      </trkpt>
      <trkpt lat="45.66316" lon="6.55099">
        <ele>1234.8</ele>
        <time>2025-02-20T16:08:17Z</time>
      </trkpt>
      <trkpt lat="45.66316" lon="6.55099">
        <ele>1234.8</ele>
        <time>2025-02-20T16:08:18Z</time>
      </trkpt>
      <trkpt lat="45.66316" lon="6.55099">
        <ele>1234.8</ele>
        <time>2025-02-20T16:08:19Z</time>
      </trkpt>
      <trkpt lat="45.66316" lon="6.55099">
        <ele>1234.8</ele>
        <time>2025-02-20T16:08:20Z</time>
      </trkpt>
      <trkpt lat="45.66316" lon="6.55099">
        <ele>1234.8</ele>
        <time>2025-02-20T16:08:21Z</time>
      </trkpt>
      <trkpt lat="45.66316" lon="6.55099">
        <ele>1234.8</ele>
        <time>2025-02-20T16:08:22Z</time>
      </trkpt>
      <trkpt lat="45.66316" lon="6.55099">
        <ele>1234.8</ele>
        <time>2025-02-20T16:08:23Z</time>
      </trkpt>
      <trkpt lat="45.66316" lon="6.55099">
        <ele>1234.8</ele>
        <time>2025-02-20T16:08:24Z</time>
      </trkpt>
      <trkpt lat="45.66316" lon="6.55099">
        <ele>1235.2</ele>
        <time>2025-02-20T16:08:25Z</time>
      </trkpt>
      <trkpt lat="45.66316" lon="6.55099">
        <ele>1235.2</ele>
        <time>2025-02-20T16:08:26Z</time>
      </trkpt>
      <trkpt lat="45.66316" lon="6.55099">
        <ele>1235.2</ele>
        <time>2025-02-20T16:08:27Z</time>
      </trkpt>
      <trkpt lat="45.66316" lon="6.55099">
        <ele>1234.6</ele>
        <time>2025-02-20T16:08:28Z</time>
      </trkpt>
      <trkpt lat="45.66316" lon="6.55099">
        <ele>1234.8</ele>
        <time>2025-02-20T16:08:29Z</time>
      </trkpt>
      <trkpt lat="45.66316" lon="6.55099">
        <ele>1234.8</ele>
        <time>2025-02-20T16:08:30Z</time>
      </trkpt>
      <trkpt lat="45.66316" lon="6.55099">
        <ele>1234.8</ele>
        <time>2025-02-20T16:08:31Z</time>
      </trkpt>
      <trkpt lat="45.66316" lon="6.55099">
        <ele>1234.8</ele>
        <time>2025-02-20T16:08:32Z</time>
      </trkpt>
      <trkpt lat="45.66316" lon="6.55099">
        <ele>1235</ele>
        <time>2025-02-20T16:08:33Z</time>
      </trkpt>
      <trkpt lat="45.66316" lon="6.55099">
        <ele>1235</ele>
        <time>2025-02-20T16:08:34Z</time>
      </trkpt>
      <trkpt lat="45.66316" lon="6.55099">
        <ele>1235</ele>
        <time>2025-02-20T16:08:35Z</time>
      </trkpt>
      <trkpt lat="45.66316" lon="6.55099">
        <ele>1235</ele>
        <time>2025-02-20T16:08:36Z</time>
      </trkpt>
      <trkpt lat="45.66316" lon="6.55099">
        <ele>1234.8</ele>
        <time>2025-02-20T16:08:37Z</time>
      </trkpt>
      <trkpt lat="45.66316" lon="6.55099">
        <ele>1234.8</ele>
        <time>2025-02-20T16:08:38Z</time>
      </trkpt>
      <trkpt lat="45.66316" lon="6.55099">
        <ele>1234.8</ele>
        <time>2025-02-20T16:08:39Z</time>
      </trkpt>
      <trkpt lat="45.66316" lon="6.55099">
        <ele>1234.8</ele>
        <time>2025-02-20T16:08:40Z</time>
      </trkpt>
      <trkpt lat="45.66316" lon="6.55099">
        <ele>1235.2</ele>
        <time>2025-02-20T16:08:41Z</time>
      </trkpt>
      <trkpt lat="45.66316" lon="6.55099">
        <ele>1235.2</ele>
        <time>2025-02-20T16:08:42Z</time>
      </trkpt>
      <trkpt lat="45.66316" lon="6.55099">
        <ele>1235.2</ele>
        <time>2025-02-20T16:08:43Z</time>
      </trkpt>
      <trkpt lat="45.66316" lon="6.55099">
        <ele>1234.6</ele>
        <time>2025-02-20T16:08:44Z</time>
      </trkpt>
      <trkpt lat="45.66316" lon="6.55099">
        <ele>1234.6</ele>
        <time>2025-02-20T16:08:45Z</time>
      </trkpt>
      <trkpt lat="45.66316" lon="6.55099">
        <ele>1234.6</ele>
        <time>2025-02-20T16:08:46Z</time>
      </trkpt>
      <trkpt lat="45.66316" lon="6.55099">
        <ele>1234.6</ele>
        <time>2025-02-20T16:08:47Z</time>
      </trkpt>
      <trkpt lat="45.66316" lon="6.55099">
        <ele>1234.6</ele>
        <time>2025-02-20T16:08:48Z</time>
      </trkpt>
      <trkpt lat="45.66316" lon="6.55099">
        <ele>1234.8</ele>
        <time>2025-02-20T16:08:49Z</time>
      </trkpt>
      <trkpt lat="45.66316" lon="6.55099">
        <ele>1234.8</ele>
        <time>2025-02-20T16:08:50Z</time>
      </trkpt>
      <trkpt lat="45.66316" lon="6.55099">
        <ele>1234.8</ele>
        <time>2025-02-20T16:08:51Z</time>
      </trkpt>
      <trkpt lat="45.66316" lon="6.55099">
        <ele>1234.8</ele>
        <time>2025-02-20T16:08:52Z</time>
      </trkpt>
      <trkpt lat="45.66316" lon="6.55099">
        <ele>1235</ele>
        <time>2025-02-20T16:08:53Z</time>
      </trkpt>
      <trkpt lat="45.66316" lon="6.55099">
        <ele>1235</ele>
        <time>2025-02-20T16:08:54Z</time>
      </trkpt>
      <trkpt lat="45.66316" lon="6.55099">
        <ele>1235</ele>
        <time>2025-02-20T16:08:55Z</time>
      </trkpt>
      <trkpt lat="45.66316" lon="6.55099">
        <ele>1235</ele>
        <time>2025-02-20T16:08:56Z</time>
      </trkpt>
      <trkpt lat="45.66316" lon="6.55099">
        <ele>1235.2</ele>
        <time>2025-02-20T16:08:57Z</time>
      </trkpt>
      <trkpt lat="45.66316" lon="6.55099">
        <ele>1235.2</ele>
        <time>2025-02-20T16:08:58Z</time>
      </trkpt>
      <trkpt lat="45.66316" lon="6.55099">
        <ele>1235.2</ele>
        <time>2025-02-20T16:08:59Z</time>
      </trkpt>
      <trkpt lat="45.66316" lon="6.55099">
        <ele>1235.2</ele>
        <time>2025-02-20T16:09:00Z</time>
      </trkpt>
      <trkpt lat="45.66316" lon="6.55099">
        <ele>1234.8</ele>
        <time>2025-02-20T16:09:01Z</time>
      </trkpt>
      <trkpt lat="45.66316" lon="6.55099">
        <ele>1234.8</ele>
        <time>2025-02-20T16:09:02Z</time>
      </trkpt>
      <trkpt lat="45.66316" lon="6.55099">
        <ele>1234.8</ele>
        <time>2025-02-20T16:09:03Z</time>
      </trkpt>
      <trkpt lat="45.66316" lon="6.55099">
        <ele>1234.8</ele>
        <time>2025-02-20T16:09:04Z</time>
      </trkpt>
      <trkpt lat="45.66316" lon="6.55099">
        <ele>1234.8</ele>
        <time>2025-02-20T16:09:05Z</time>
      </trkpt>
      <trkpt lat="45.66316" lon="6.55099">
        <ele>1234.8</ele>
        <time>2025-02-20T16:09:06Z</time>
      </trkpt>
      <trkpt lat="45.66316" lon="6.55099">
        <ele>1234.8</ele>
        <time>2025-02-20T16:09:07Z</time>
      </trkpt>
      <trkpt lat="45.66316" lon="6.55099">
        <ele>1234.8</ele>
        <time>2025-02-20T16:09:08Z</time>
      </trkpt>
      <trkpt lat="45.66316" lon="6.55099">
        <ele>1234.6</ele>
        <time>2025-02-20T16:09:09Z</time>
      </trkpt>
      <trkpt lat="45.66316" lon="6.55099">
        <ele>1234.6</ele>
        <time>2025-02-20T16:09:10Z</time>
      </trkpt>
      <trkpt lat="45.66316" lon="6.55099">
        <ele>1234.6</ele>
        <time>2025-02-20T16:09:11Z</time>
      </trkpt>
      <trkpt lat="45.66316" lon="6.55099">
        <ele>1234.6</ele>
        <time>2025-02-20T16:09:12Z</time>
      </trkpt>
      <trkpt lat="45.66316" lon="6.55099">
        <ele>1235.2</ele>
        <time>2025-02-20T16:09:13Z</time>
      </trkpt>
      <trkpt lat="45.66316" lon="6.55099">
        <ele>1235.2</ele>
        <time>2025-02-20T16:09:14Z</time>
      </trkpt>
      <trkpt lat="45.66316" lon="6.55099">
        <ele>1235.2</ele>
        <time>2025-02-20T16:09:15Z</time>
      </trkpt>
      <trkpt lat="45.66316" lon="6.55099">
        <ele>1235.2</ele>
        <time>2025-02-20T16:09:16Z</time>
      </trkpt>
      <trkpt lat="45.66316" lon="6.55099">
        <ele>1235</ele>
        <time>2025-02-20T16:09:17Z</time>
      </trkpt>
      <trkpt lat="45.66316" lon="6.55099">
        <ele>1235</ele>
        <time>2025-02-20T16:09:18Z</time>
      </trkpt>
      <trkpt lat="45.66316" lon="6.55099">
        <ele>1235</ele>
        <time>2025-02-20T16:09:19Z</time>
      </trkpt>
      <trkpt lat="45.66316" lon="6.55099">
        <ele>1235.2</ele>
        <time>2025-02-20T16:09:20Z</time>
      </trkpt>
      <trkpt lat="45.66316" lon="6.55099">
        <ele>1235</ele>
        <time>2025-02-20T16:09:21Z</time>
      </trkpt>
      <trkpt lat="45.66316" lon="6.55099">
        <ele>1235</ele>
        <time>2025-02-20T16:09:22Z</time>
      </trkpt>
      <trkpt lat="45.66316" lon="6.55099">
        <ele>1235</ele>
        <time>2025-02-20T16:09:23Z</time>
      </trkpt>
      <trkpt lat="45.66316" lon="6.55099">
        <ele>1235</ele>
        <time>2025-02-20T16:09:24Z</time>
      </trkpt>
      <trkpt lat="45.66316" lon="6.55099">
        <ele>1235.2</ele>
        <time>2025-02-20T16:09:25Z</time>
      </trkpt>
      <trkpt lat="45.66316" lon="6.55099">
        <ele>1235.2</ele>
        <time>2025-02-20T16:09:26Z</time>
      </trkpt>
      <trkpt lat="45.66316" lon="6.55099">
        <ele>1235.2</ele>
        <time>2025-02-20T16:09:27Z</time>
      </trkpt>
      <trkpt lat="45.66316" lon="6.55099">
        <ele>1235.2</ele>
        <time>2025-02-20T16:09:28Z</time>
      </trkpt>
      <trkpt lat="45.66316" lon="6.55099">
        <ele>1234.6</ele>
        <time>2025-02-20T16:09:29Z</time>
      </trkpt>
      <trkpt lat="45.66316" lon="6.55099">
        <ele>1234.6</ele>
        <time>2025-02-20T16:09:30Z</time>
      </trkpt>
      <trkpt lat="45.66316" lon="6.55099">
        <ele>1234.6</ele>
        <time>2025-02-20T16:09:31Z</time>
      </trkpt>
      <trkpt lat="45.66316" lon="6.55099">
        <ele>1234.6</ele>
        <time>2025-02-20T16:09:32Z</time>
      </trkpt>
      <trkpt lat="45.66316" lon="6.55099">
        <ele>1234.8</ele>
        <time>2025-02-20T16:09:33Z</time>
      </trkpt>
      <trkpt lat="45.66316" lon="6.55099">
        <ele>1234.8</ele>
        <time>2025-02-20T16:09:34Z</time>
      </trkpt>
      <trkpt lat="45.66316" lon="6.55099">
        <ele>1234.8</ele>
        <time>2025-02-20T16:09:35Z</time>
      </trkpt>
      <trkpt lat="45.66316" lon="6.55099">
        <ele>1234.8</ele>
        <time>2025-02-20T16:09:36Z</time>
      </trkpt>
      <trkpt lat="45.66316" lon="6.55099">
        <ele>1234.6</ele>
        <time>2025-02-20T16:09:37Z</time>
      </trkpt>
      <trkpt lat="45.66316" lon="6.55099">
        <ele>1234.6</ele>
        <time>2025-02-20T16:09:38Z</time>
      </trkpt>
      <trkpt lat="45.66316" lon="6.55099">
        <ele>1234.6</ele>
        <time>2025-02-20T16:09:39Z</time>
      </trkpt>
      <trkpt lat="45.66316" lon="6.55099">
        <ele>1234.8</ele>
        <time>2025-02-20T16:09:40Z</time>
      </trkpt>
      <trkpt lat="45.66316" lon="6.55099">
        <ele>1234.6</ele>
        <time>2025-02-20T16:09:41Z</time>
      </trkpt>
      <trkpt lat="45.66316" lon="6.55099">
        <ele>1234.6</ele>
        <time>2025-02-20T16:09:42Z</time>
      </trkpt>
      <trkpt lat="45.66316" lon="6.55099">
        <ele>1234.6</ele>
        <time>2025-02-20T16:09:43Z</time>
      </trkpt>
      <trkpt lat="45.66316" lon="6.55099">
        <ele>1234.6</ele>
        <time>2025-02-20T16:09:44Z</time>
      </trkpt>
      <trkpt lat="45.66316" lon="6.55099">
        <ele>1235.2</ele>
        <time>2025-02-20T16:09:45Z</time>
      </trkpt>
      <trkpt lat="45.66316" lon="6.55099">
        <ele>1235.2</ele>
        <time>2025-02-20T16:09:46Z</time>
      </trkpt>
      <trkpt lat="45.66316" lon="6.55099">
        <ele>1235.2</ele>
        <time>2025-02-20T16:09:47Z</time>
      </trkpt>
      <trkpt lat="45.66316" lon="6.55099">
        <ele>1234.8</ele>
        <time>2025-02-20T16:09:48Z</time>
      </trkpt>
      <trkpt lat="45.66316" lon="6.55099">
        <ele>1234.8</ele>
        <time>2025-02-20T16:09:49Z</time>
      </trkpt>
      <trkpt lat="45.66316" lon="6.55099">
        <ele>1234.8</ele>
        <time>2025-02-20T16:09:50Z</time>
      </trkpt>
      <trkpt lat="45.66316" lon="6.55099">
        <ele>1234.8</ele>
        <time>2025-02-20T16:09:51Z</time>
      </trkpt>
      <trkpt lat="45.66316" lon="6.55099">
        <ele>1234.8</ele>
        <time>2025-02-20T16:09:52Z</time>
      </trkpt>
      <trkpt lat="45.66316" lon="6.55099">
        <ele>1234.8</ele>
        <time>2025-02-20T16:09:53Z</time>
      </trkpt>
      <trkpt lat="45.66316" lon="6.55099">
        <ele>1234.8</ele>
        <time>2025-02-20T16:09:54Z</time>
      </trkpt>
      <trkpt lat="45.66316" lon="6.55099">
        <ele>1234.8</ele>
        <time>2025-02-20T16:09:55Z</time>
      </trkpt>
      <trkpt lat="45.66316" lon="6.55099">
        <ele>1234.8</ele>
        <time>2025-02-20T16:09:56Z</time>
      </trkpt>
      <trkpt lat="45.66316" lon="6.55099">
        <ele>1234.6</ele>
        <time>2025-02-20T16:09:57Z</time>
      </trkpt>
      <trkpt lat="45.66316" lon="6.55099">
        <ele>1234.6</ele>
        <time>2025-02-20T16:09:58Z</time>
      </trkpt>
      <trkpt lat="45.66316" lon="6.55099">
        <ele>1234.6</ele>
        <time>2025-02-20T16:09:59Z</time>
      </trkpt>
      <trkpt lat="45.66316" lon="6.55099">
        <ele>1234.6</ele>
        <time>2025-02-20T16:10:00Z</time>
      </trkpt>
      <trkpt lat="45.66316" lon="6.55099">
        <ele>1235.2</ele>
        <time>2025-02-20T16:10:01Z</time>
      </trkpt>
      <trkpt lat="45.66316" lon="6.55099">
        <ele>1235.2</ele>
        <time>2025-02-20T16:10:02Z</time>
      </trkpt>
      <trkpt lat="45.66316" lon="6.55099">
        <ele>1235.2</ele>
        <time>2025-02-20T16:10:03Z</time>
      </trkpt>
      <trkpt lat="45.66316" lon="6.55099">
        <ele>1235.2</ele>
        <time>2025-02-20T16:10:04Z</time>
      </trkpt>
      <trkpt lat="45.66316" lon="6.55099">
        <ele>1235.2</ele>
        <time>2025-02-20T16:10:05Z</time>
      </trkpt>
      <trkpt lat="45.66316" lon="6.55099">
        <ele>1235.2</ele>
        <time>2025-02-20T16:10:06Z</time>
      </trkpt>
      <trkpt lat="45.66316" lon="6.55099">
        <ele>1235.2</ele>
        <time>2025-02-20T16:10:07Z</time>
      </trkpt>
      <trkpt lat="45.66316" lon="6.55099">
        <ele>1235.2</ele>
        <time>2025-02-20T16:10:08Z</time>
      </trkpt>
      <trkpt lat="45.66316" lon="6.55099">
        <ele>1235.2</ele>
        <time>2025-02-20T16:10:09Z</time>
      </trkpt>
      <trkpt lat="45.66316" lon="6.55099">
        <ele>1235.2</ele>
        <time>2025-02-20T16:10:10Z</time>
      </trkpt>
      <trkpt lat="45.66316" lon="6.55099">
        <ele>1235.2</ele>
        <time>2025-02-20T16:10:11Z</time>
      </trkpt>
      <trkpt lat="45.66316" lon="6.55099">
        <ele>1235.2</ele>
        <time>2025-02-20T16:10:12Z</time>
      </trkpt>
      <trkpt lat="45.66316" lon="6.55099">
        <ele>1235</ele>
        <time>2025-02-20T16:10:13Z</time>
      </trkpt>
      <trkpt lat="45.66316" lon="6.55099">
        <ele>1235</ele>
        <time>2025-02-20T16:10:14Z</time>
      </trkpt>
      <trkpt lat="45.66316" lon="6.55099">
        <ele>1235</ele>
        <time>2025-02-20T16:10:15Z</time>
      </trkpt>
      <trkpt lat="45.66316" lon="6.55099">
        <ele>1235</ele>
        <time>2025-02-20T16:10:16Z</time>
      </trkpt>
      <trkpt lat="45.66316" lon="6.55099">
        <ele>1234.8</ele>
        <time>2025-02-20T16:10:17Z</time>
      </trkpt>
      <trkpt lat="45.66316" lon="6.55099">
        <ele>1234.8</ele>
        <time>2025-02-20T16:10:18Z</time>
      </trkpt>
      <trkpt lat="45.66316" lon="6.55099">
        <ele>1234.8</ele>
        <time>2025-02-20T16:10:19Z</time>
      </trkpt>
      <trkpt lat="45.66316" lon="6.55099">
        <ele>1234.8</ele>
        <time>2025-02-20T16:10:20Z</time>
      </trkpt>
      <trkpt lat="45.66316" lon="6.55099">
        <ele>1234.4</ele>
        <time>2025-02-20T16:10:21Z</time>
      </trkpt>
      <trkpt lat="45.66316" lon="6.55099">
        <ele>1234.4</ele>
        <time>2025-02-20T16:10:22Z</time>
      </trkpt>
      <trkpt lat="45.66316" lon="6.55099">
        <ele>1234.4</ele>
        <time>2025-02-20T16:10:23Z</time>
      </trkpt>
      <trkpt lat="45.66316" lon="6.55099">
        <ele>1234.4</ele>
        <time>2025-02-20T16:10:24Z</time>
      </trkpt>
      <trkpt lat="45.66316" lon="6.55099">
        <ele>1234.6</ele>
        <time>2025-02-20T16:10:25Z</time>
      </trkpt>
      <trkpt lat="45.66316" lon="6.55099">
        <ele>1234.6</ele>
        <time>2025-02-20T16:10:26Z</time>
      </trkpt>
      <trkpt lat="45.66316" lon="6.55099">
        <ele>1234.6</ele>
        <time>2025-02-20T16:10:27Z</time>
      </trkpt>
      <trkpt lat="45.66316" lon="6.55099">
        <ele>1234.6</ele>
        <time>2025-02-20T16:10:28Z</time>
      </trkpt>
      <trkpt lat="45.66336" lon="6.55097">
        <ele>1234.2</ele>
        <time>2025-02-20T16:10:29Z</time>
      </trkpt>
      <trkpt lat="45.66337" lon="6.55093">
        <ele>1234.2</ele>
        <time>2025-02-20T16:10:30Z</time>
      </trkpt>
      <trkpt lat="45.66337" lon="6.55089">
        <ele>1234.2</ele>
        <time>2025-02-20T16:10:31Z</time>
      </trkpt>
      <trkpt lat="45.66335" lon="6.55085">
        <ele>1233.2</ele>
        <time>2025-02-20T16:10:32Z</time>
      </trkpt>
      <trkpt lat="45.66334" lon="6.55079">
        <ele>1230.6</ele>
        <time>2025-02-20T16:10:33Z</time>
      </trkpt>
      <trkpt lat="45.66335" lon="6.55073">
        <ele>1230.6</ele>
        <time>2025-02-20T16:10:34Z</time>
      </trkpt>
      <trkpt lat="45.66334" lon="6.55067">
        <ele>1230.6</ele>
        <time>2025-02-20T16:10:35Z</time>
      </trkpt>
      <trkpt lat="45.66334" lon="6.55059">
        <ele>1229.6</ele>
        <time>2025-02-20T16:10:36Z</time>
      </trkpt>
      <trkpt lat="45.66332" lon="6.55053">
        <ele>1226.4</ele>
        <time>2025-02-20T16:10:37Z</time>
      </trkpt>
      <trkpt lat="45.66333" lon="6.55047">
        <ele>1226.4</ele>
        <time>2025-02-20T16:10:38Z</time>
      </trkpt>
      <trkpt lat="45.66333" lon="6.55039">
        <ele>1226.4</ele>
        <time>2025-02-20T16:10:39Z</time>
      </trkpt>
      <trkpt lat="45.66332" lon="6.55032">
        <ele>1225.4</ele>
        <time>2025-02-20T16:10:40Z</time>
      </trkpt>
      <trkpt lat="45.66332" lon="6.55024">
        <ele>1221.2</ele>
        <time>2025-02-20T16:10:41Z</time>
      </trkpt>
      <trkpt lat="45.6633" lon="6.55017">
        <ele>1221.2</ele>
        <time>2025-02-20T16:10:42Z</time>
      </trkpt>
      <trkpt lat="45.6633" lon="6.55008">
        <ele>1221.2</ele>
        <time>2025-02-20T16:10:43Z</time>
      </trkpt>
      <trkpt lat="45.6633" lon="6.55001">
        <ele>1220.2</ele>
        <time>2025-02-20T16:10:44Z</time>
      </trkpt>
      <trkpt lat="45.66329" lon="6.54994">
        <ele>1216.4</ele>
        <time>2025-02-20T16:10:45Z</time>
      </trkpt>
      <trkpt lat="45.66327" lon="6.54986">
        <ele>1216.4</ele>
        <time>2025-02-20T16:10:46Z</time>
      </trkpt>
      <trkpt lat="45.66329" lon="6.5498">
        <ele>1216.4</ele>
        <time>2025-02-20T16:10:47Z</time>
      </trkpt>
      <trkpt lat="45.66332" lon="6.54973">
        <ele>1215.4</ele>
        <time>2025-02-20T16:10:48Z</time>
      </trkpt>
      <trkpt lat="45.66333" lon="6.54965">
        <ele>1213.6</ele>
        <time>2025-02-20T16:10:49Z</time>
      </trkpt>
      <trkpt lat="45.66332" lon="6.54957">
        <ele>1213.6</ele>
        <time>2025-02-20T16:10:50Z</time>
      </trkpt>
      <trkpt lat="45.66334" lon="6.54948">
        <ele>1213.6</ele>
        <time>2025-02-20T16:10:51Z</time>
      </trkpt>
      <trkpt lat="45.66336" lon="6.54939">
        <ele>1212.6</ele>
        <time>2025-02-20T16:10:52Z</time>
      </trkpt>
      <trkpt lat="45.6634" lon="6.54931">
        <ele>1207.8</ele>
        <time>2025-02-20T16:10:53Z</time>
      </trkpt>
      <trkpt lat="45.66345" lon="6.54925">
        <ele>1207.8</ele>
        <time>2025-02-20T16:10:54Z</time>
      </trkpt>
      <trkpt lat="45.6635" lon="6.54918">
        <ele>1207.8</ele>
        <time>2025-02-20T16:10:55Z</time>
      </trkpt>
      <trkpt lat="45.66356" lon="6.54913">
        <ele>1206.8</ele>
        <time>2025-02-20T16:10:56Z</time>
      </trkpt>
      <trkpt lat="45.66361" lon="6.54907">
        <ele>1204</ele>
        <time>2025-02-20T16:10:57Z</time>
      </trkpt>
      <trkpt lat="45.66366" lon="6.549">
        <ele>1204</ele>
        <time>2025-02-20T16:10:58Z</time>
      </trkpt>
      <trkpt lat="45.66372" lon="6.54895">
        <ele>1204</ele>
        <time>2025-02-20T16:10:59Z</time>
      </trkpt>
      <trkpt lat="45.66377" lon="6.54888">
        <ele>1203</ele>
        <time>2025-02-20T16:11:00Z</time>
      </trkpt>
      <trkpt lat="45.66382" lon="6.54884">
        <ele>1197.8</ele>
        <time>2025-02-20T16:11:01Z</time>
      </trkpt>
      <trkpt lat="45.66388" lon="6.5488">
        <ele>1197.8</ele>
        <time>2025-02-20T16:11:02Z</time>
      </trkpt>
      <trkpt lat="45.66393" lon="6.54873">
        <ele>1197.8</ele>
        <time>2025-02-20T16:11:03Z</time>
      </trkpt>
      <trkpt lat="45.66398" lon="6.54867">
        <ele>1196.8</ele>
        <time>2025-02-20T16:11:04Z</time>
      </trkpt>
      <trkpt lat="45.66404" lon="6.54859">
        <ele>1190.4</ele>
        <time>2025-02-20T16:11:05Z</time>
      </trkpt>
      <trkpt lat="45.66407" lon="6.5485">
        <ele>1190.4</ele>
        <time>2025-02-20T16:11:06Z</time>
      </trkpt>
      <trkpt lat="45.66412" lon="6.54842">
        <ele>1190.4</ele>
        <time>2025-02-20T16:11:07Z</time>
      </trkpt>
      <trkpt lat="45.66418" lon="6.54836">
        <ele>1189.4</ele>
        <time>2025-02-20T16:11:08Z</time>
      </trkpt>
      <trkpt lat="45.66422" lon="6.54825">
        <ele>1184.8</ele>
        <time>2025-02-20T16:11:09Z</time>
      </trkpt>
      <trkpt lat="45.66427" lon="6.54816">
        <ele>1184.8</ele>
        <time>2025-02-20T16:11:10Z</time>
      </trkpt>
      <trkpt lat="45.66434" lon="6.5481">
        <ele>1184.8</ele>
        <time>2025-02-20T16:11:11Z</time>
      </trkpt>
      <trkpt lat="45.66442" lon="6.54803">
        <ele>1183.8</ele>
        <time>2025-02-20T16:11:12Z</time>
      </trkpt>
      <trkpt lat="45.66451" lon="6.54794">
        <ele>1176.6</ele>
        <time>2025-02-20T16:11:13Z</time>
      </trkpt>
      <trkpt lat="45.6646" lon="6.54789">
        <ele>1176.6</ele>
        <time>2025-02-20T16:11:14Z</time>
      </trkpt>
      <trkpt lat="45.66469" lon="6.54784">
        <ele>1176.6</ele>
        <time>2025-02-20T16:11:15Z</time>
      </trkpt>
      <trkpt lat="45.66479" lon="6.54779">
        <ele>1175.6</ele>
        <time>2025-02-20T16:11:16Z</time>
      </trkpt>
      <trkpt lat="45.66488" lon="6.54774">
        <ele>1171.8</ele>
        <time>2025-02-20T16:11:17Z</time>
      </trkpt>
      <trkpt lat="45.66498" lon="6.54768">
        <ele>1171.8</ele>
        <time>2025-02-20T16:11:18Z</time>
      </trkpt>
      <trkpt lat="45.66508" lon="6.5476">
        <ele>1171.8</ele>
        <time>2025-02-20T16:11:19Z</time>
      </trkpt>
      <trkpt lat="45.66516" lon="6.54749">
        <ele>1170.8</ele>
        <time>2025-02-20T16:11:20Z</time>
      </trkpt>
      <trkpt lat="45.66525" lon="6.54738">
        <ele>1164.8</ele>
        <time>2025-02-20T16:11:21Z</time>
      </trkpt>
      <trkpt lat="45.66535" lon="6.5473">
        <ele>1164.8</ele>
        <time>2025-02-20T16:11:22Z</time>
      </trkpt>
      <trkpt lat="45.66545" lon="6.54723">
        <ele>1164.8</ele>
        <time>2025-02-20T16:11:23Z</time>
      </trkpt>
      <trkpt lat="45.66554" lon="6.54712">
        <ele>1163.8</ele>
        <time>2025-02-20T16:11:24Z</time>
      </trkpt>
      <trkpt lat="45.66561" lon="6.54699">
        <ele>1156.8</ele>
        <time>2025-02-20T16:11:25Z</time>
      </trkpt>
      <trkpt lat="45.6657" lon="6.54689">
        <ele>1156.8</ele>
        <time>2025-02-20T16:11:26Z</time>
      </trkpt>
      <trkpt lat="45.66578" lon="6.54678">
        <ele>1156.8</ele>
        <time>2025-02-20T16:11:27Z</time>
      </trkpt>
      <trkpt lat="45.66584" lon="6.54664">
        <ele>1155.8</ele>
        <time>2025-02-20T16:11:28Z</time>
      </trkpt>
      <trkpt lat="45.66591" lon="6.54651">
        <ele>1150.2</ele>
        <time>2025-02-20T16:11:29Z</time>
      </trkpt>
      <trkpt lat="45.66599" lon="6.54638">
        <ele>1150.2</ele>
        <time>2025-02-20T16:11:30Z</time>
      </trkpt>
      <trkpt lat="45.66606" lon="6.54623">
        <ele>1150.2</ele>
        <time>2025-02-20T16:11:31Z</time>
      </trkpt>
      <trkpt lat="45.66612" lon="6.54606">
        <ele>1149.2</ele>
        <time>2025-02-20T16:11:32Z</time>
      </trkpt>
      <trkpt lat="45.66619" lon="6.54592">
        <ele>1144</ele>
        <time>2025-02-20T16:11:33Z</time>
      </trkpt>
      <trkpt lat="45.66628" lon="6.54581">
        <ele>1144</ele>
        <time>2025-02-20T16:11:34Z</time>
      </trkpt>
      <trkpt lat="45.66638" lon="6.54572">
        <ele>1144</ele>
        <time>2025-02-20T16:11:35Z</time>
      </trkpt>
      <trkpt lat="45.6665" lon="6.54566">
        <ele>1143</ele>
        <time>2025-02-20T16:11:36Z</time>
      </trkpt>
      <trkpt lat="45.66661" lon="6.54558">
        <ele>1136.4</ele>
        <time>2025-02-20T16:11:37Z</time>
      </trkpt>
      <trkpt lat="45.66672" lon="6.5455">
        <ele>1136.4</ele>
        <time>2025-02-20T16:11:38Z</time>
      </trkpt>
      <trkpt lat="45.66684" lon="6.54542">
        <ele>1136.4</ele>
        <time>2025-02-20T16:11:39Z</time>
      </trkpt>
      <trkpt lat="45.66695" lon="6.54533">
        <ele>1135.4</ele>
        <time>2025-02-20T16:11:40Z</time>
      </trkpt>
      <trkpt lat="45.66705" lon="6.54525">
        <ele>1131</ele>
        <time>2025-02-20T16:11:41Z</time>
      </trkpt>
      <trkpt lat="45.66715" lon="6.54516">
        <ele>1131</ele>
        <time>2025-02-20T16:11:42Z</time>
      </trkpt>
      <trkpt lat="45.66725" lon="6.54513">
        <ele>1131</ele>
        <time>2025-02-20T16:11:43Z</time>
      </trkpt>
      <trkpt lat="45.66735" lon="6.5451">
        <ele>1130</ele>
        <time>2025-02-20T16:11:44Z</time>
      </trkpt>
      <trkpt lat="45.66743" lon="6.54504">
        <ele>1128.6</ele>
        <time>2025-02-20T16:11:45Z</time>
      </trkpt>
      <trkpt lat="45.6675" lon="6.545">
        <ele>1128.6</ele>
        <time>2025-02-20T16:11:46Z</time>
      </trkpt>
      <trkpt lat="45.66757" lon="6.54496">
        <ele>1128.6</ele>
        <time>2025-02-20T16:11:47Z</time>
      </trkpt>
      <trkpt lat="45.66763" lon="6.54491">
        <ele>1127.6</ele>
        <time>2025-02-20T16:11:48Z</time>
      </trkpt>
      <trkpt lat="45.66769" lon="6.54487">
        <ele>1126.6</ele>
        <time>2025-02-20T16:11:49Z</time>
      </trkpt>
      <trkpt lat="45.66774" lon="6.54483">
        <ele>1126.6</ele>
        <time>2025-02-20T16:11:50Z</time>
      </trkpt>
      <trkpt lat="45.66781" lon="6.54481">
        <ele>1126.6</ele>
        <time>2025-02-20T16:11:51Z</time>
      </trkpt>
      <trkpt lat="45.66786" lon="6.54477">
        <ele>1125.6</ele>
        <time>2025-02-20T16:11:52Z</time>
      </trkpt>
      <trkpt lat="45.66791" lon="6.54472">
        <ele>1122.6</ele>
        <time>2025-02-20T16:11:53Z</time>
      </trkpt>
      <trkpt lat="45.66796" lon="6.54467">
        <ele>1122.6</ele>
        <time>2025-02-20T16:11:54Z</time>
      </trkpt>
      <trkpt lat="45.66801" lon="6.54462">
        <ele>1122.6</ele>
        <time>2025-02-20T16:11:55Z</time>
      </trkpt>
      <trkpt lat="45.66805" lon="6.54458">
        <ele>1123.6</ele>
        <time>2025-02-20T16:11:56Z</time>
      </trkpt>
      <trkpt lat="45.66808" lon="6.54452">
        <ele>1124</ele>
        <time>2025-02-20T16:11:57Z</time>
      </trkpt>
      <trkpt lat="45.66811" lon="6.54447">
        <ele>1124</ele>
        <time>2025-02-20T16:11:58Z</time>
      </trkpt>
      <trkpt lat="45.66814" lon="6.54442">
        <ele>1124</ele>
        <time>2025-02-20T16:11:59Z</time>
      </trkpt>
      <trkpt lat="45.66817" lon="6.54437">
        <ele>1123.8</ele>
        <time>2025-02-20T16:12:00Z</time>
      </trkpt>
      <trkpt lat="45.66821" lon="6.54433">
        <ele>1123.4</ele>
        <time>2025-02-20T16:12:01Z</time>
      </trkpt>
      <trkpt lat="45.66824" lon="6.54429">
        <ele>1123.4</ele>
        <time>2025-02-20T16:12:02Z</time>
      </trkpt>
      <trkpt lat="45.66827" lon="6.54425">
        <ele>1123.4</ele>
        <time>2025-02-20T16:12:03Z</time>
      </trkpt>
      <trkpt lat="45.66831" lon="6.54421">
        <ele>1123.4</ele>
        <time>2025-02-20T16:12:04Z</time>
      </trkpt>
      <trkpt lat="45.66835" lon="6.54417">
        <ele>1123.2</ele>
        <time>2025-02-20T16:12:05Z</time>
      </trkpt>
      <trkpt lat="45.66838" lon="6.54416">
        <ele>1123.2</ele>
        <time>2025-02-20T16:12:06Z</time>
      </trkpt>
      <trkpt lat="45.66842" lon="6.54413">
        <ele>1123.2</ele>
        <time>2025-02-20T16:12:07Z</time>
      </trkpt>
      <trkpt lat="45.66846" lon="6.54412">
        <ele>1122.2</ele>
        <time>2025-02-20T16:12:08Z</time>
      </trkpt>
      <trkpt lat="45.6685" lon="6.5441">
        <ele>1122</ele>
        <time>2025-02-20T16:12:09Z</time>
      </trkpt>
      <trkpt lat="45.66854" lon="6.54409">
        <ele>1122</ele>
        <time>2025-02-20T16:12:10Z</time>
      </trkpt>
      <trkpt lat="45.66857" lon="6.54406">
        <ele>1122</ele>
        <time>2025-02-20T16:12:11Z</time>
      </trkpt>
      <trkpt lat="45.6686" lon="6.54404">
        <ele>1122</ele>
        <time>2025-02-20T16:12:12Z</time>
      </trkpt>
      <trkpt lat="45.66863" lon="6.54401">
        <ele>1120</ele>
        <time>2025-02-20T16:12:13Z</time>
      </trkpt>
      <trkpt lat="45.66866" lon="6.544">
        <ele>1120</ele>
        <time>2025-02-20T16:12:14Z</time>
      </trkpt>
      <trkpt lat="45.6687" lon="6.54398">
        <ele>1120</ele>
        <time>2025-02-20T16:12:15Z</time>
      </trkpt>
      <trkpt lat="45.66874" lon="6.54396">
        <ele>1121</ele>
        <time>2025-02-20T16:12:16Z</time>
      </trkpt>
      <trkpt lat="45.66877" lon="6.54393">
        <ele>1120</ele>
        <time>2025-02-20T16:12:17Z</time>
      </trkpt>
      <trkpt lat="45.66882" lon="6.54391">
        <ele>1120</ele>
        <time>2025-02-20T16:12:18Z</time>
      </trkpt>
      <trkpt lat="45.66886" lon="6.54388">
        <ele>1120</ele>
        <time>2025-02-20T16:12:19Z</time>
      </trkpt>
      <trkpt lat="45.66891" lon="6.54384">
        <ele>1120</ele>
        <time>2025-02-20T16:12:20Z</time>
      </trkpt>
      <trkpt lat="45.66896" lon="6.5438">
        <ele>1119.8</ele>
        <time>2025-02-20T16:12:21Z</time>
      </trkpt>
      <trkpt lat="45.66901" lon="6.54377">
        <ele>1119.8</ele>
        <time>2025-02-20T16:12:22Z</time>
      </trkpt>
      <trkpt lat="45.66905" lon="6.54372">
        <ele>1119.8</ele>
        <time>2025-02-20T16:12:23Z</time>
      </trkpt>
      <trkpt lat="45.66911" lon="6.54369">
        <ele>1118.8</ele>
        <time>2025-02-20T16:12:24Z</time>
      </trkpt>
      <trkpt lat="45.66915" lon="6.54365">
        <ele>1118</ele>
        <time>2025-02-20T16:12:25Z</time>
      </trkpt>
      <trkpt lat="45.6692" lon="6.54363">
        <ele>1118</ele>
        <time>2025-02-20T16:12:26Z</time>
      </trkpt>
      <trkpt lat="45.66925" lon="6.54362">
        <ele>1118</ele>
        <time>2025-02-20T16:12:27Z</time>
      </trkpt>
      <trkpt lat="45.6693" lon="6.54361">
        <ele>1118</ele>
        <time>2025-02-20T16:12:28Z</time>
      </trkpt>
      <trkpt lat="45.66933" lon="6.54361">
        <ele>1117.6</ele>
        <time>2025-02-20T16:12:29Z</time>
      </trkpt>
      <trkpt lat="45.66937" lon="6.54362">
        <ele>1117.6</ele>
        <time>2025-02-20T16:12:30Z</time>
      </trkpt>
      <trkpt lat="45.66942" lon="6.54361">
        <ele>1117.6</ele>
        <time>2025-02-20T16:12:31Z</time>
      </trkpt>
      <trkpt lat="45.66947" lon="6.5436">
        <ele>1116.6</ele>
        <time>2025-02-20T16:12:32Z</time>
      </trkpt>
      <trkpt lat="45.66951" lon="6.54359">
        <ele>1116.2</ele>
        <time>2025-02-20T16:12:33Z</time>
      </trkpt>
      <trkpt lat="45.66956" lon="6.54357">
        <ele>1116.2</ele>
        <time>2025-02-20T16:12:34Z</time>
      </trkpt>
      <trkpt lat="45.6696" lon="6.54355">
        <ele>1116.2</ele>
        <time>2025-02-20T16:12:35Z</time>
      </trkpt>
      <trkpt lat="45.66964" lon="6.54353">
        <ele>1115.8</ele>
        <time>2025-02-20T16:12:36Z</time>
      </trkpt>
      <trkpt lat="45.66968" lon="6.54351">
        <ele>1115</ele>
        <time>2025-02-20T16:12:37Z</time>
      </trkpt>
      <trkpt lat="45.66973" lon="6.5435">
        <ele>1115</ele>
        <time>2025-02-20T16:12:38Z</time>
      </trkpt>
      <trkpt lat="45.66978" lon="6.54349">
        <ele>1115</ele>
        <time>2025-02-20T16:12:39Z</time>
      </trkpt>
      <trkpt lat="45.66982" lon="6.5435">
        <ele>1115</ele>
        <time>2025-02-20T16:12:40Z</time>
      </trkpt>
      <trkpt lat="45.66987" lon="6.54351">
        <ele>1113.8</ele>
        <time>2025-02-20T16:12:41Z</time>
      </trkpt>
      <trkpt lat="45.66992" lon="6.54353">
        <ele>1113.8</ele>
        <time>2025-02-20T16:12:42Z</time>
      </trkpt>
      <trkpt lat="45.66997" lon="6.54354">
        <ele>1113.8</ele>
        <time>2025-02-20T16:12:43Z</time>
      </trkpt>
      <trkpt lat="45.67003" lon="6.54356">
        <ele>1112.8</ele>
        <time>2025-02-20T16:12:44Z</time>
      </trkpt>
      <trkpt lat="45.67008" lon="6.54357">
        <ele>1112.2</ele>
        <time>2025-02-20T16:12:45Z</time>
      </trkpt>
      <trkpt lat="45.67013" lon="6.54357">
        <ele>1112.2</ele>
        <time>2025-02-20T16:12:46Z</time>
      </trkpt>
      <trkpt lat="45.67017" lon="6.54356">
        <ele>1112.2</ele>
        <time>2025-02-20T16:12:47Z</time>
      </trkpt>
      <trkpt lat="45.6702" lon="6.54355">
        <ele>1112.2</ele>
        <time>2025-02-20T16:12:48Z</time>
      </trkpt>
      <trkpt lat="45.67024" lon="6.54353">
        <ele>1112.4</ele>
        <time>2025-02-20T16:12:49Z</time>
      </trkpt>
      <trkpt lat="45.67029" lon="6.54352">
        <ele>1112.4</ele>
        <time>2025-02-20T16:12:50Z</time>
      </trkpt>
      <trkpt lat="45.67035" lon="6.54348">
        <ele>1112.4</ele>
        <time>2025-02-20T16:12:51Z</time>
      </trkpt>
      <trkpt lat="45.6704" lon="6.54344">
        <ele>1111.4</ele>
        <time>2025-02-20T16:12:52Z</time>
      </trkpt>
      <trkpt lat="45.67044" lon="6.54339">
        <ele>1108.6</ele>
        <time>2025-02-20T16:12:53Z</time>
      </trkpt>
      <trkpt lat="45.67049" lon="6.54334">
        <ele>1108.6</ele>
        <time>2025-02-20T16:12:54Z</time>
      </trkpt>
      <trkpt lat="45.67052" lon="6.54329">
        <ele>1108.6</ele>
        <time>2025-02-20T16:12:55Z</time>
      </trkpt>
      <trkpt lat="45.67055" lon="6.54325">
        <ele>1108</ele>
        <time>2025-02-20T16:12:56Z</time>
      </trkpt>
      <trkpt lat="45.67058" lon="6.5432">
        <ele>1107.6</ele>
        <time>2025-02-20T16:12:57Z</time>
      </trkpt>
      <trkpt lat="45.6706" lon="6.54316">
        <ele>1107.6</ele>
        <time>2025-02-20T16:12:58Z</time>
      </trkpt>
      <trkpt lat="45.67064" lon="6.54313">
        <ele>1107.6</ele>
        <time>2025-02-20T16:12:59Z</time>
      </trkpt>
      <trkpt lat="45.67066" lon="6.54309">
        <ele>1107.2</ele>
        <time>2025-02-20T16:13:00Z</time>
      </trkpt>
      <trkpt lat="45.67069" lon="6.54306">
        <ele>1106.8</ele>
        <time>2025-02-20T16:13:01Z</time>
      </trkpt>
      <trkpt lat="45.67072" lon="6.54303">
        <ele>1106.8</ele>
        <time>2025-02-20T16:13:02Z</time>
      </trkpt>
      <trkpt lat="45.67074" lon="6.54301">
        <ele>1106.8</ele>
        <time>2025-02-20T16:13:03Z</time>
      </trkpt>
      <trkpt lat="45.67076" lon="6.54299">
        <ele>1107.4</ele>
        <time>2025-02-20T16:13:04Z</time>
      </trkpt>
      <trkpt lat="45.67079" lon="6.54296">
        <ele>1107.2</ele>
        <time>2025-02-20T16:13:05Z</time>
      </trkpt>
      <trkpt lat="45.67082" lon="6.54294">
        <ele>1107.2</ele>
        <time>2025-02-20T16:13:06Z</time>
      </trkpt>
      <trkpt lat="45.67085" lon="6.54291">
        <ele>1107.2</ele>
        <time>2025-02-20T16:13:07Z</time>
      </trkpt>
      <trkpt lat="45.67088" lon="6.54288">
        <ele>1107.2</ele>
        <time>2025-02-20T16:13:08Z</time>
      </trkpt>
      <trkpt lat="45.6709" lon="6.54285">
        <ele>1106.8</ele>
        <time>2025-02-20T16:13:09Z</time>
      </trkpt>
      <trkpt lat="45.67093" lon="6.54283">
        <ele>1106.8</ele>
        <time>2025-02-20T16:13:10Z</time>
      </trkpt>
      <trkpt lat="45.67096" lon="6.54279">
        <ele>1106.8</ele>
        <time>2025-02-20T16:13:11Z</time>
      </trkpt>
      <trkpt lat="45.67098" lon="6.54276">
        <ele>1106.8</ele>
        <time>2025-02-20T16:13:12Z</time>
      </trkpt>
      <trkpt lat="45.67101" lon="6.54272">
        <ele>1106.2</ele>
        <time>2025-02-20T16:13:13Z</time>
      </trkpt>
      <trkpt lat="45.67103" lon="6.54268">
        <ele>1106.2</ele>
        <time>2025-02-20T16:13:14Z</time>
      </trkpt>
      <trkpt lat="45.67105" lon="6.54265">
        <ele>1106.2</ele>
        <time>2025-02-20T16:13:15Z</time>
      </trkpt>
      <trkpt lat="45.67107" lon="6.54262">
        <ele>1106</ele>
        <time>2025-02-20T16:13:16Z</time>
      </trkpt>
      <trkpt lat="45.67108" lon="6.54259">
        <ele>1106</ele>
        <time>2025-02-20T16:13:17Z</time>
      </trkpt>
      <trkpt lat="45.67109" lon="6.54256">
        <ele>1106</ele>
        <time>2025-02-20T16:13:18Z</time>
      </trkpt>
      <trkpt lat="45.67111" lon="6.54253">
        <ele>1106</ele>
        <time>2025-02-20T16:13:19Z</time>
      </trkpt>
      <trkpt lat="45.67112" lon="6.54249">
        <ele>1106</ele>
        <time>2025-02-20T16:13:20Z</time>
      </trkpt>
      <trkpt lat="45.67114" lon="6.54245">
        <ele>1105.8</ele>
        <time>2025-02-20T16:13:21Z</time>
      </trkpt>
      <trkpt lat="45.67115" lon="6.54241">
        <ele>1105.8</ele>
        <time>2025-02-20T16:13:22Z</time>
      </trkpt>
      <trkpt lat="45.67117" lon="6.54238">
        <ele>1105.8</ele>
        <time>2025-02-20T16:13:23Z</time>
      </trkpt>
      <trkpt lat="45.67119" lon="6.54232">
        <ele>1105</ele>
        <time>2025-02-20T16:13:24Z</time>
      </trkpt>
      <trkpt lat="45.67121" lon="6.54227">
        <ele>1104</ele>
        <time>2025-02-20T16:13:25Z</time>
      </trkpt>
      <trkpt lat="45.67123" lon="6.54221">
        <ele>1104</ele>
        <time>2025-02-20T16:13:26Z</time>
      </trkpt>
      <trkpt lat="45.67125" lon="6.54215">
        <ele>1104</ele>
        <time>2025-02-20T16:13:27Z</time>
      </trkpt>
      <trkpt lat="45.67127" lon="6.54209">
        <ele>1104</ele>
        <time>2025-02-20T16:13:28Z</time>
      </trkpt>
      <trkpt lat="45.6713" lon="6.54204">
        <ele>1103.4</ele>
        <time>2025-02-20T16:13:29Z</time>
      </trkpt>
      <trkpt lat="45.67133" lon="6.54197">
        <ele>1103.4</ele>
        <time>2025-02-20T16:13:30Z</time>
      </trkpt>
      <trkpt lat="45.67135" lon="6.54191">
        <ele>1103.4</ele>
        <time>2025-02-20T16:13:31Z</time>
      </trkpt>
      <trkpt lat="45.67139" lon="6.54185">
        <ele>1102.6</ele>
        <time>2025-02-20T16:13:32Z</time>
      </trkpt>
      <trkpt lat="45.67142" lon="6.54178">
        <ele>1102</ele>
        <time>2025-02-20T16:13:33Z</time>
      </trkpt>
      <trkpt lat="45.67146" lon="6.54171">
        <ele>1102</ele>
        <time>2025-02-20T16:13:34Z</time>
      </trkpt>
      <trkpt lat="45.6715" lon="6.54164">
        <ele>1102</ele>
        <time>2025-02-20T16:13:35Z</time>
      </trkpt>
      <trkpt lat="45.67153" lon="6.54158">
        <ele>1101</ele>
        <time>2025-02-20T16:13:36Z</time>
      </trkpt>
      <trkpt lat="45.67157" lon="6.54152">
        <ele>1099.8</ele>
        <time>2025-02-20T16:13:37Z</time>
      </trkpt>
      <trkpt lat="45.6716" lon="6.54147">
        <ele>1099.8</ele>
        <time>2025-02-20T16:13:38Z</time>
      </trkpt>
      <trkpt lat="45.67163" lon="6.54141">
        <ele>1099.8</ele>
        <time>2025-02-20T16:13:39Z</time>
      </trkpt>
      <trkpt lat="45.67164" lon="6.54136">
        <ele>1099.8</ele>
        <time>2025-02-20T16:13:40Z</time>
      </trkpt>
      <trkpt lat="45.67164" lon="6.54132">
        <ele>1099.2</ele>
        <time>2025-02-20T16:13:41Z</time>
      </trkpt>
      <trkpt lat="45.67165" lon="6.54128">
        <ele>1099.2</ele>
        <time>2025-02-20T16:13:42Z</time>
      </trkpt>
      <trkpt lat="45.67166" lon="6.54125">
        <ele>1099.2</ele>
        <time>2025-02-20T16:13:43Z</time>
      </trkpt>
      <trkpt lat="45.67167" lon="6.54123">
        <ele>1099.2</ele>
        <time>2025-02-20T16:13:44Z</time>
      </trkpt>
      <trkpt lat="45.67168" lon="6.54122">
        <ele>1099.4</ele>
        <time>2025-02-20T16:13:45Z</time>
      </trkpt>
      <trkpt lat="45.67169" lon="6.54121">
        <ele>1099.4</ele>
        <time>2025-02-20T16:13:46Z</time>
      </trkpt>
      <trkpt lat="45.67169" lon="6.5412">
        <ele>1099.4</ele>
        <time>2025-02-20T16:13:47Z</time>
      </trkpt>
      <trkpt lat="45.67169" lon="6.54119">
        <ele>1098.6</ele>
        <time>2025-02-20T16:13:48Z</time>
      </trkpt>
      <trkpt lat="45.67169" lon="6.54119">
        <ele>1098.8</ele>
        <time>2025-02-20T16:13:49Z</time>
      </trkpt>
      <trkpt lat="45.67169" lon="6.54119">
        <ele>1098.8</ele>
        <time>2025-02-20T16:13:50Z</time>
      </trkpt>
      <trkpt lat="45.67169" lon="6.54119">
        <ele>1098.8</ele>
        <time>2025-02-20T16:13:51Z</time>
      </trkpt>
      <trkpt lat="45.67169" lon="6.54119">
        <ele>1098.8</ele>
        <time>2025-02-20T16:13:52Z</time>
      </trkpt>
      <trkpt lat="45.67169" lon="6.54119">
        <ele>1098.6</ele>
        <time>2025-02-20T16:13:53Z</time>
      </trkpt>
      <trkpt lat="45.67169" lon="6.54119">
        <ele>1098.6</ele>
        <time>2025-02-20T16:13:54Z</time>
      </trkpt>
      <trkpt lat="45.67169" lon="6.54119">
        <ele>1098.6</ele>
        <time>2025-02-20T16:13:55Z</time>
      </trkpt>
      <trkpt lat="45.67169" lon="6.54119">
        <ele>1098.6</ele>
        <time>2025-02-20T16:13:56Z</time>
      </trkpt>
      <trkpt lat="45.67169" lon="6.54119">
        <ele>1098.8</ele>
        <time>2025-02-20T16:13:57Z</time>
      </trkpt>
      <trkpt lat="45.67169" lon="6.54119">
        <ele>1098.8</ele>
        <time>2025-02-20T16:13:58Z</time>
      </trkpt>
      <trkpt lat="45.67169" lon="6.54119">
        <ele>1098.8</ele>
        <time>2025-02-20T16:13:59Z</time>
      </trkpt>
      <trkpt lat="45.67169" lon="6.54119">
        <ele>1098.8</ele>
        <time>2025-02-20T16:14:00Z</time>
      </trkpt>
      <trkpt lat="45.67169" lon="6.54119">
        <ele>1098.2</ele>
        <time>2025-02-20T16:14:01Z</time>
      </trkpt>
      <trkpt lat="45.67169" lon="6.54119">
        <ele>1098.2</ele>
        <time>2025-02-20T16:14:02Z</time>
      </trkpt>
      <trkpt lat="45.67169" lon="6.54119">
        <ele>1098.2</ele>
        <time>2025-02-20T16:14:03Z</time>
      </trkpt>
      <trkpt lat="45.67169" lon="6.54119">
        <ele>1098.2</ele>
        <time>2025-02-20T16:14:04Z</time>
      </trkpt>
      <trkpt lat="45.67169" lon="6.54119">
        <ele>1098</ele>
        <time>2025-02-20T16:14:05Z</time>
      </trkpt>
      <trkpt lat="45.67169" lon="6.54119">
        <ele>1098</ele>
        <time>2025-02-20T16:14:06Z</time>
      </trkpt>
      <trkpt lat="45.67169" lon="6.54119">
        <ele>1098</ele>
        <time>2025-02-20T16:14:07Z</time>
      </trkpt>
      <trkpt lat="45.67169" lon="6.54119">
        <ele>1098.8</ele>
        <time>2025-02-20T16:14:08Z</time>
      </trkpt>
      <trkpt lat="45.67169" lon="6.54119">
        <ele>1098.6</ele>
        <time>2025-02-20T16:14:09Z</time>
      </trkpt>
      <trkpt lat="45.67171" lon="6.54114">
        <ele>1098.6</ele>
        <time>2025-02-20T16:14:10Z</time>
      </trkpt>
      <trkpt lat="45.67171" lon="6.54113">
        <ele>1098.6</ele>
        <time>2025-02-20T16:14:11Z</time>
      </trkpt>
      <trkpt lat="45.67171" lon="6.54113">
        <ele>1098.6</ele>
        <time>2025-02-20T16:14:12Z</time>
      </trkpt>
      <trkpt lat="45.67172" lon="6.54112">
        <ele>1098.2</ele>
        <time>2025-02-20T16:14:13Z</time>
      </trkpt>
      <trkpt lat="45.67172" lon="6.54112">
        <ele>1098.2</ele>
        <time>2025-02-20T16:14:14Z</time>
      </trkpt>
      <trkpt lat="45.67172" lon="6.54111">
        <ele>1098.2</ele>
        <time>2025-02-20T16:14:15Z</time>
      </trkpt>
      <trkpt lat="45.67173" lon="6.5411">
        <ele>1098.2</ele>
        <time>2025-02-20T16:14:16Z</time>
      </trkpt>
      <trkpt lat="45.67174" lon="6.54109">
        <ele>1098</ele>
        <time>2025-02-20T16:14:17Z</time>
      </trkpt>
      <trkpt lat="45.67175" lon="6.54109">
        <ele>1098</ele>
        <time>2025-02-20T16:14:18Z</time>
      </trkpt>
      <trkpt lat="45.67176" lon="6.54108">
        <ele>1098</ele>
        <time>2025-02-20T16:14:19Z</time>
      </trkpt>
      <trkpt lat="45.67177" lon="6.54108">
        <ele>1098.2</ele>
        <time>2025-02-20T16:14:20Z</time>
      </trkpt>
      <trkpt lat="45.67178" lon="6.54108">
        <ele>1098.6</ele>
        <time>2025-02-20T16:14:21Z</time>
      </trkpt>
      <trkpt lat="45.67179" lon="6.54108">
        <ele>1098.6</ele>
        <time>2025-02-20T16:14:22Z</time>
      </trkpt>
      <trkpt lat="45.6718" lon="6.54108">
        <ele>1098.6</ele>
        <time>2025-02-20T16:14:23Z</time>
      </trkpt>
      <trkpt lat="45.67181" lon="6.54108">
        <ele>1098.6</ele>
        <time>2025-02-20T16:14:24Z</time>
      </trkpt>
      <trkpt lat="45.67182" lon="6.54108">
        <ele>1097.6</ele>
        <time>2025-02-20T16:14:25Z</time>
      </trkpt>
      <trkpt lat="45.67182" lon="6.54108">
        <ele>1097.6</ele>
        <time>2025-02-20T16:14:26Z</time>
      </trkpt>
      <trkpt lat="45.67183" lon="6.54108">
        <ele>1097.6</ele>
        <time>2025-02-20T16:14:27Z</time>
      </trkpt>
      <trkpt lat="45.67183" lon="6.54108">
        <ele>1097.6</ele>
        <time>2025-02-20T16:14:28Z</time>
      </trkpt>
      <trkpt lat="45.67184" lon="6.5411">
        <ele>1097.4</ele>
        <time>2025-02-20T16:14:29Z</time>
      </trkpt>
      <trkpt lat="45.67185" lon="6.5411">
        <ele>1097.4</ele>
        <time>2025-02-20T16:14:30Z</time>
      </trkpt>
      <trkpt lat="45.67186" lon="6.54111">
        <ele>1097.4</ele>
        <time>2025-02-20T16:14:31Z</time>
      </trkpt>
      <trkpt lat="45.67187" lon="6.54112">
        <ele>1097.4</ele>
        <time>2025-02-20T16:14:32Z</time>
      </trkpt>
      <trkpt lat="45.67188" lon="6.54113">
        <ele>1098.4</ele>
        <time>2025-02-20T16:14:33Z</time>
      </trkpt>
      <trkpt lat="45.67189" lon="6.54114">
        <ele>1098.4</ele>
        <time>2025-02-20T16:14:34Z</time>
      </trkpt>
      <trkpt lat="45.67189" lon="6.54115">
        <ele>1098.4</ele>
        <time>2025-02-20T16:14:35Z</time>
      </trkpt>
      <trkpt lat="45.67189" lon="6.54116">
        <ele>1097.4</ele>
        <time>2025-02-20T16:14:36Z</time>
      </trkpt>
      <trkpt lat="45.6719" lon="6.54117">
        <ele>1097.8</ele>
        <time>2025-02-20T16:14:37Z</time>
      </trkpt>
      <trkpt lat="45.67191" lon="6.54117">
        <ele>1097.8</ele>
        <time>2025-02-20T16:14:38Z</time>
      </trkpt>
      <trkpt lat="45.67191" lon="6.54117">
        <ele>1097.8</ele>
        <time>2025-02-20T16:14:39Z</time>
      </trkpt>
      <trkpt lat="45.67191" lon="6.54117">
        <ele>1097.4</ele>
        <time>2025-02-20T16:14:40Z</time>
      </trkpt>
      <trkpt lat="45.67192" lon="6.54117">
        <ele>1097.4</ele>
        <time>2025-02-20T16:14:41Z</time>
      </trkpt>
      <trkpt lat="45.67193" lon="6.54118">
        <ele>1097.4</ele>
        <time>2025-02-20T16:14:42Z</time>
      </trkpt>
      <trkpt lat="45.67193" lon="6.54118">
        <ele>1097.4</ele>
        <time>2025-02-20T16:14:43Z</time>
      </trkpt>
      <trkpt lat="45.67193" lon="6.54118">
        <ele>1097.4</ele>
        <time>2025-02-20T16:14:44Z</time>
      </trkpt>
      <trkpt lat="45.67193" lon="6.54118">
        <ele>1096.4</ele>
        <time>2025-02-20T16:14:45Z</time>
      </trkpt>
      <trkpt lat="45.67195" lon="6.54119">
        <ele>1096.4</ele>
        <time>2025-02-20T16:14:46Z</time>
      </trkpt>
      <trkpt lat="45.67195" lon="6.5412">
        <ele>1096.4</ele>
        <time>2025-02-20T16:14:47Z</time>
      </trkpt>
      <trkpt lat="45.67196" lon="6.54121">
        <ele>1096.4</ele>
        <time>2025-02-20T16:14:48Z</time>
      </trkpt>
      <trkpt lat="45.67197" lon="6.54121">
        <ele>1096.2</ele>
        <time>2025-02-20T16:14:49Z</time>
      </trkpt>
      <trkpt lat="45.67198" lon="6.54121">
        <ele>1096.2</ele>
        <time>2025-02-20T16:14:50Z</time>
      </trkpt>
      <trkpt lat="45.67199" lon="6.54121">
        <ele>1096.2</ele>
        <time>2025-02-20T16:14:51Z</time>
      </trkpt>
      <trkpt lat="45.67201" lon="6.54122">
        <ele>1096.2</ele>
        <time>2025-02-20T16:14:52Z</time>
      </trkpt>
      <trkpt lat="45.67201" lon="6.54122">
        <ele>1095.4</ele>
        <time>2025-02-20T16:14:53Z</time>
      </trkpt>
      <trkpt lat="45.67201" lon="6.54122">
        <ele>1095.4</ele>
        <time>2025-02-20T16:14:54Z</time>
      </trkpt>
      <trkpt lat="45.67201" lon="6.54122">
        <ele>1095.4</ele>
        <time>2025-02-20T16:14:55Z</time>
      </trkpt>
      <trkpt lat="45.67201" lon="6.54122">
        <ele>1095.8</ele>
        <time>2025-02-20T16:14:56Z</time>
      </trkpt>
      <trkpt lat="45.67201" lon="6.54122">
        <ele>1096.2</ele>
        <time>2025-02-20T16:14:57Z</time>
      </trkpt>
      <trkpt lat="45.67201" lon="6.54122">
        <ele>1096.2</ele>
        <time>2025-02-20T16:14:58Z</time>
      </trkpt>
      <trkpt lat="45.67201" lon="6.54122">
        <ele>1096.2</ele>
        <time>2025-02-20T16:14:59Z</time>
      </trkpt>
      <trkpt lat="45.67201" lon="6.54122">
        <ele>1096.2</ele>
        <time>2025-02-20T16:15:00Z</time>
      </trkpt>
      <trkpt lat="45.67201" lon="6.54122">
        <ele>1095.2</ele>
        <time>2025-02-20T16:15:01Z</time>
      </trkpt>
      <trkpt lat="45.67201" lon="6.54122">
        <ele>1095.2</ele>
        <time>2025-02-20T16:15:02Z</time>
      </trkpt>
      <trkpt lat="45.67201" lon="6.54122">
        <ele>1095.2</ele>
        <time>2025-02-20T16:15:03Z</time>
      </trkpt>
      <trkpt lat="45.67201" lon="6.54122">
        <ele>1095.2</ele>
        <time>2025-02-20T16:15:04Z</time>
      </trkpt>
      <trkpt lat="45.67201" lon="6.54122">
        <ele>1096.2</ele>
        <time>2025-02-20T16:15:05Z</time>
      </trkpt>
      <trkpt lat="45.67201" lon="6.54122">
        <ele>1096.2</ele>
        <time>2025-02-20T16:15:06Z</time>
      </trkpt>
      <trkpt lat="45.67201" lon="6.54122">
        <ele>1096.2</ele>
        <time>2025-02-20T16:15:07Z</time>
      </trkpt>
      <trkpt lat="45.67201" lon="6.54122">
        <ele>1096.2</ele>
        <time>2025-02-20T16:15:08Z</time>
      </trkpt>
      <trkpt lat="45.67201" lon="6.54122">
        <ele>1096</ele>
        <time>2025-02-20T16:15:09Z</time>
      </trkpt>
      <trkpt lat="45.67201" lon="6.54122">
        <ele>1096</ele>
        <time>2025-02-20T16:15:10Z</time>
      </trkpt>
      <trkpt lat="45.67201" lon="6.54122">
        <ele>1096</ele>
        <time>2025-02-20T16:15:11Z</time>
      </trkpt>
      <trkpt lat="45.67201" lon="6.54122">
        <ele>1096</ele>
        <time>2025-02-20T16:15:12Z</time>
      </trkpt>
      <trkpt lat="45.67201" lon="6.54122">
        <ele>1096.6</ele>
        <time>2025-02-20T16:15:13Z</time>
      </trkpt>
      <trkpt lat="45.67202" lon="6.54121">
        <ele>1096.6</ele>
        <time>2025-02-20T16:15:14Z</time>
      </trkpt>
      <trkpt lat="45.67205" lon="6.5412">
        <ele>1096.6</ele>
        <time>2025-02-20T16:15:15Z</time>
      </trkpt>
      <trkpt lat="45.67208" lon="6.54119">
        <ele>1095.6</ele>
        <time>2025-02-20T16:15:16Z</time>
      </trkpt>
      <trkpt lat="45.67211" lon="6.54119">
        <ele>1095.2</ele>
        <time>2025-02-20T16:15:17Z</time>
      </trkpt>
      <trkpt lat="45.67216" lon="6.54118">
        <ele>1095.2</ele>
        <time>2025-02-20T16:15:18Z</time>
      </trkpt>
      <trkpt lat="45.6722" lon="6.54117">
        <ele>1095.2</ele>
        <time>2025-02-20T16:15:19Z</time>
      </trkpt>
      <trkpt lat="45.67225" lon="6.54115">
        <ele>1094.2</ele>
        <time>2025-02-20T16:15:20Z</time>
      </trkpt>
      <trkpt lat="45.67231" lon="6.54113">
        <ele>1093.2</ele>
        <time>2025-02-20T16:15:21Z</time>
      </trkpt>
      <trkpt lat="45.67236" lon="6.54111">
        <ele>1093.2</ele>
        <time>2025-02-20T16:15:22Z</time>
      </trkpt>
      <trkpt lat="45.67242" lon="6.54109">
        <ele>1093.2</ele>
        <time>2025-02-20T16:15:23Z</time>
      </trkpt>
      <trkpt lat="45.67247" lon="6.54109">
        <ele>1092.2</ele>
        <time>2025-02-20T16:15:24Z</time>
      </trkpt>
      <trkpt lat="45.67251" lon="6.54109">
        <ele>1091.2</ele>
        <time>2025-02-20T16:15:25Z</time>
      </trkpt>
      <trkpt lat="45.67256" lon="6.5411">
        <ele>1091.2</ele>
        <time>2025-02-20T16:15:26Z</time>
      </trkpt>
      <trkpt lat="45.6726" lon="6.54112">
        <ele>1091.2</ele>
        <time>2025-02-20T16:15:27Z</time>
      </trkpt>
      <trkpt lat="45.67264" lon="6.54115">
        <ele>1090.6</ele>
        <time>2025-02-20T16:15:28Z</time>
      </trkpt>
      <trkpt lat="45.67268" lon="6.54118">
        <ele>1090.4</ele>
        <time>2025-02-20T16:15:29Z</time>
      </trkpt>
      <trkpt lat="45.67271" lon="6.54124">
        <ele>1090.4</ele>
        <time>2025-02-20T16:15:30Z</time>
      </trkpt>
      <trkpt lat="45.67273" lon="6.54129">
        <ele>1090.4</ele>
        <time>2025-02-20T16:15:31Z</time>
      </trkpt>
      <trkpt lat="45.67275" lon="6.54135">
        <ele>1089.4</ele>
        <time>2025-02-20T16:15:32Z</time>
      </trkpt>
      <trkpt lat="45.67277" lon="6.5414">
        <ele>1088.8</ele>
        <time>2025-02-20T16:15:33Z</time>
      </trkpt>
      <trkpt lat="45.67278" lon="6.54145">
        <ele>1088.8</ele>
        <time>2025-02-20T16:15:34Z</time>
      </trkpt>
      <trkpt lat="45.6728" lon="6.54149">
        <ele>1088.8</ele>
        <time>2025-02-20T16:15:35Z</time>
      </trkpt>
      <trkpt lat="45.67281" lon="6.54154">
        <ele>1088.8</ele>
        <time>2025-02-20T16:15:36Z</time>
      </trkpt>
      <trkpt lat="45.67283" lon="6.54159">
        <ele>1088</ele>
        <time>2025-02-20T16:15:37Z</time>
      </trkpt>
      <trkpt lat="45.67285" lon="6.54164">
        <ele>1088</ele>
        <time>2025-02-20T16:15:38Z</time>
      </trkpt>
      <trkpt lat="45.67287" lon="6.5417">
        <ele>1088</ele>
        <time>2025-02-20T16:15:39Z</time>
      </trkpt>
      <trkpt lat="45.67289" lon="6.54176">
        <ele>1087</ele>
        <time>2025-02-20T16:15:40Z</time>
      </trkpt>
      <trkpt lat="45.67291" lon="6.54181">
        <ele>1086.8</ele>
        <time>2025-02-20T16:15:41Z</time>
      </trkpt>
      <trkpt lat="45.67293" lon="6.54187">
        <ele>1086.8</ele>
        <time>2025-02-20T16:15:42Z</time>
      </trkpt>
      <trkpt lat="45.67295" lon="6.54193">
        <ele>1086.8</ele>
        <time>2025-02-20T16:15:43Z</time>
      </trkpt>
      <trkpt lat="45.67297" lon="6.54199">
        <ele>1085.8</ele>
        <time>2025-02-20T16:15:44Z</time>
      </trkpt>
      <trkpt lat="45.67299" lon="6.54206">
        <ele>1085</ele>
        <time>2025-02-20T16:15:45Z</time>
      </trkpt>
      <trkpt lat="45.67299" lon="6.54214">
        <ele>1085</ele>
        <time>2025-02-20T16:15:46Z</time>
      </trkpt>
      <trkpt lat="45.67299" lon="6.54222">
        <ele>1085</ele>
        <time>2025-02-20T16:15:47Z</time>
      </trkpt>
      <trkpt lat="45.673" lon="6.5423">
        <ele>1084</ele>
        <time>2025-02-20T16:15:48Z</time>
      </trkpt>
      <trkpt lat="45.67299" lon="6.54238">
        <ele>1082.6</ele>
        <time>2025-02-20T16:15:49Z</time>
      </trkpt>
      <trkpt lat="45.673" lon="6.54245">
        <ele>1082.6</ele>
        <time>2025-02-20T16:15:50Z</time>
      </trkpt>
      <trkpt lat="45.67298" lon="6.54254">
        <ele>1082.6</ele>
        <time>2025-02-20T16:15:51Z</time>
      </trkpt>
      <trkpt lat="45.67298" lon="6.54263">
        <ele>1081.6</ele>
        <time>2025-02-20T16:15:52Z</time>
      </trkpt>
      <trkpt lat="45.67297" lon="6.54273">
        <ele>1080.6</ele>
        <time>2025-02-20T16:15:53Z</time>
      </trkpt>
      <trkpt lat="45.67296" lon="6.54284">
        <ele>1080.6</ele>
        <time>2025-02-20T16:15:54Z</time>
      </trkpt>
      <trkpt lat="45.67296" lon="6.54295">
        <ele>1080.6</ele>
        <time>2025-02-20T16:15:55Z</time>
      </trkpt>
      <trkpt lat="45.67298" lon="6.54305">
        <ele>1079.6</ele>
        <time>2025-02-20T16:15:56Z</time>
      </trkpt>
      <trkpt lat="45.67298" lon="6.54316">
        <ele>1076.4</ele>
        <time>2025-02-20T16:15:57Z</time>
      </trkpt>
      <trkpt lat="45.67299" lon="6.54328">
        <ele>1076.4</ele>
        <time>2025-02-20T16:15:58Z</time>
      </trkpt>
      <trkpt lat="45.67299" lon="6.54341">
        <ele>1076.4</ele>
        <time>2025-02-20T16:15:59Z</time>
      </trkpt>
      <trkpt lat="45.67299" lon="6.54351">
        <ele>1075.4</ele>
        <time>2025-02-20T16:16:00Z</time>
      </trkpt>
      <trkpt lat="45.67297" lon="6.54361">
        <ele>1074</ele>
        <time>2025-02-20T16:16:01Z</time>
      </trkpt>
      <trkpt lat="45.67293" lon="6.5437">
        <ele>1074</ele>
        <time>2025-02-20T16:16:02Z</time>
      </trkpt>
      <trkpt lat="45.67291" lon="6.54379">
        <ele>1074</ele>
        <time>2025-02-20T16:16:03Z</time>
      </trkpt>
      <trkpt lat="45.67287" lon="6.54387">
        <ele>1073</ele>
        <time>2025-02-20T16:16:04Z</time>
      </trkpt>
      <trkpt lat="45.67282" lon="6.54397">
        <ele>1071</ele>
        <time>2025-02-20T16:16:05Z</time>
      </trkpt>
      <trkpt lat="45.67282" lon="6.54407">
        <ele>1071</ele>
        <time>2025-02-20T16:16:06Z</time>
      </trkpt>
      <trkpt lat="45.67282" lon="6.54418">
        <ele>1071</ele>
        <time>2025-02-20T16:16:07Z</time>
      </trkpt>
      <trkpt lat="45.6728" lon="6.54428">
        <ele>1070</ele>
        <time>2025-02-20T16:16:08Z</time>
      </trkpt>
      <trkpt lat="45.6728" lon="6.54439">
        <ele>1066.2</ele>
        <time>2025-02-20T16:16:09Z</time>
      </trkpt>
      <trkpt lat="45.67282" lon="6.5445">
        <ele>1066.2</ele>
        <time>2025-02-20T16:16:10Z</time>
      </trkpt>
      <trkpt lat="45.67284" lon="6.54462">
        <ele>1066.2</ele>
        <time>2025-02-20T16:16:11Z</time>
      </trkpt>
      <trkpt lat="45.67285" lon="6.54473">
        <ele>1065.2</ele>
        <time>2025-02-20T16:16:12Z</time>
      </trkpt>
      <trkpt lat="45.67285" lon="6.54485">
        <ele>1061.8</ele>
        <time>2025-02-20T16:16:13Z</time>
      </trkpt>
      <trkpt lat="45.67287" lon="6.54496">
        <ele>1061.8</ele>
        <time>2025-02-20T16:16:14Z</time>
      </trkpt>
      <trkpt lat="45.6729" lon="6.54507">
        <ele>1061.8</ele>
        <time>2025-02-20T16:16:15Z</time>
      </trkpt>
      <trkpt lat="45.67292" lon="6.54517">
        <ele>1061.8</ele>
        <time>2025-02-20T16:16:16Z</time>
      </trkpt>
      <trkpt lat="45.67296" lon="6.54527">
        <ele>1058.6</ele>
        <time>2025-02-20T16:16:17Z</time>
      </trkpt>
      <trkpt lat="45.673" lon="6.54537">
        <ele>1058.6</ele>
        <time>2025-02-20T16:16:18Z</time>
      </trkpt>
      <trkpt lat="45.67303" lon="6.54547">
        <ele>1058.6</ele>
        <time>2025-02-20T16:16:19Z</time>
      </trkpt>
      <trkpt lat="45.67306" lon="6.54556">
        <ele>1057.6</ele>
        <time>2025-02-20T16:16:20Z</time>
      </trkpt>
      <trkpt lat="45.67308" lon="6.54565">
        <ele>1057</ele>
        <time>2025-02-20T16:16:21Z</time>
      </trkpt>
      <trkpt lat="45.67311" lon="6.54575">
        <ele>1057</ele>
        <time>2025-02-20T16:16:22Z</time>
      </trkpt>
      <trkpt lat="45.67313" lon="6.54583">
        <ele>1057</ele>
        <time>2025-02-20T16:16:23Z</time>
      </trkpt>
      <trkpt lat="45.67315" lon="6.54591">
        <ele>1056</ele>
        <time>2025-02-20T16:16:24Z</time>
      </trkpt>
      <trkpt lat="45.67317" lon="6.54599">
        <ele>1054</ele>
        <time>2025-02-20T16:16:25Z</time>
      </trkpt>
      <trkpt lat="45.67318" lon="6.54607">
        <ele>1054</ele>
        <time>2025-02-20T16:16:26Z</time>
      </trkpt>
      <trkpt lat="45.6732" lon="6.54615">
        <ele>1054</ele>
        <time>2025-02-20T16:16:27Z</time>
      </trkpt>
      <trkpt lat="45.67322" lon="6.54623">
        <ele>1053</ele>
        <time>2025-02-20T16:16:28Z</time>
      </trkpt>
      <trkpt lat="45.67323" lon="6.54631">
        <ele>1052.2</ele>
        <time>2025-02-20T16:16:29Z</time>
      </trkpt>
      <trkpt lat="45.67325" lon="6.54638">
        <ele>1052.2</ele>
        <time>2025-02-20T16:16:30Z</time>
      </trkpt>
      <trkpt lat="45.67327" lon="6.54644">
        <ele>1052.2</ele>
        <time>2025-02-20T16:16:31Z</time>
      </trkpt>
      <trkpt lat="45.67329" lon="6.54649">
        <ele>1052.2</ele>
        <time>2025-02-20T16:16:32Z</time>
      </trkpt>
      <trkpt lat="45.67331" lon="6.54654">
        <ele>1051.4</ele>
        <time>2025-02-20T16:16:33Z</time>
      </trkpt>
      <trkpt lat="45.67334" lon="6.54659">
        <ele>1051.4</ele>
        <time>2025-02-20T16:16:34Z</time>
      </trkpt>
      <trkpt lat="45.67336" lon="6.54663">
        <ele>1051.4</ele>
        <time>2025-02-20T16:16:35Z</time>
      </trkpt>
      <trkpt lat="45.67339" lon="6.54667">
        <ele>1051.4</ele>
        <time>2025-02-20T16:16:36Z</time>
      </trkpt>
      <trkpt lat="45.67341" lon="6.54671">
        <ele>1052.4</ele>
        <time>2025-02-20T16:16:37Z</time>
      </trkpt>
      <trkpt lat="45.67344" lon="6.54674">
        <ele>1052.4</ele>
        <time>2025-02-20T16:16:38Z</time>
      </trkpt>
      <trkpt lat="45.67347" lon="6.54677">
        <ele>1052.4</ele>
        <time>2025-02-20T16:16:39Z</time>
      </trkpt>
      <trkpt lat="45.67351" lon="6.54681">
        <ele>1051.4</ele>
        <time>2025-02-20T16:16:40Z</time>
      </trkpt>
      <trkpt lat="45.67354" lon="6.54684">
        <ele>1051.4</ele>
        <time>2025-02-20T16:16:41Z</time>
      </trkpt>
      <trkpt lat="45.67359" lon="6.54686">
        <ele>1051.4</ele>
        <time>2025-02-20T16:16:42Z</time>
      </trkpt>
      <trkpt lat="45.67362" lon="6.54688">
        <ele>1051.4</ele>
        <time>2025-02-20T16:16:43Z</time>
      </trkpt>
      <trkpt lat="45.67366" lon="6.5469">
        <ele>1050.4</ele>
        <time>2025-02-20T16:16:44Z</time>
      </trkpt>
      <trkpt lat="45.6737" lon="6.54691">
        <ele>1049.4</ele>
        <time>2025-02-20T16:16:45Z</time>
      </trkpt>
      <trkpt lat="45.67373" lon="6.54694">
        <ele>1049.4</ele>
        <time>2025-02-20T16:16:46Z</time>
      </trkpt>
      <trkpt lat="45.67377" lon="6.54696">
        <ele>1049.4</ele>
        <time>2025-02-20T16:16:47Z</time>
      </trkpt>
      <trkpt lat="45.6738" lon="6.54698">
        <ele>1049.4</ele>
        <time>2025-02-20T16:16:48Z</time>
      </trkpt>
      <trkpt lat="45.67383" lon="6.54699">
        <ele>1050</ele>
        <time>2025-02-20T16:16:49Z</time>
      </trkpt>
      <trkpt lat="45.67387" lon="6.547">
        <ele>1050</ele>
        <time>2025-02-20T16:16:50Z</time>
      </trkpt>
      <trkpt lat="45.67392" lon="6.54701">
        <ele>1050</ele>
        <time>2025-02-20T16:16:51Z</time>
      </trkpt>
      <trkpt lat="45.67395" lon="6.54702">
        <ele>1049.4</ele>
        <time>2025-02-20T16:16:52Z</time>
      </trkpt>
      <trkpt lat="45.67399" lon="6.54703">
        <ele>1049.4</ele>
        <time>2025-02-20T16:16:53Z</time>
      </trkpt>
      <trkpt lat="45.67402" lon="6.54705">
        <ele>1049.4</ele>
        <time>2025-02-20T16:16:54Z</time>
      </trkpt>
      <trkpt lat="45.67405" lon="6.54706">
        <ele>1049.4</ele>
        <time>2025-02-20T16:16:55Z</time>
      </trkpt>
      <trkpt lat="45.67409" lon="6.54708">
        <ele>1048.4</ele>
        <time>2025-02-20T16:16:56Z</time>
      </trkpt>
      <trkpt lat="45.67412" lon="6.5471">
        <ele>1047.8</ele>
        <time>2025-02-20T16:16:57Z</time>
      </trkpt>
      <trkpt lat="45.67416" lon="6.54714">
        <ele>1047.8</ele>
        <time>2025-02-20T16:16:58Z</time>
      </trkpt>
      <trkpt lat="45.6742" lon="6.5472">
        <ele>1047.8</ele>
        <time>2025-02-20T16:16:59Z</time>
      </trkpt>
      <trkpt lat="45.67423" lon="6.54727">
        <ele>1046.8</ele>
        <time>2025-02-20T16:17:00Z</time>
      </trkpt>
      <trkpt lat="45.67427" lon="6.54737">
        <ele>1044.4</ele>
        <time>2025-02-20T16:17:01Z</time>
      </trkpt>
      <trkpt lat="45.67431" lon="6.54748">
        <ele>1044.4</ele>
        <time>2025-02-20T16:17:02Z</time>
      </trkpt>
      <trkpt lat="45.67435" lon="6.54762">
        <ele>1044.4</ele>
        <time>2025-02-20T16:17:03Z</time>
      </trkpt>
      <trkpt lat="45.67439" lon="6.54775">
        <ele>1043.4</ele>
        <time>2025-02-20T16:17:04Z</time>
      </trkpt>
      <trkpt lat="45.67443" lon="6.54788">
        <ele>1038.2</ele>
        <time>2025-02-20T16:17:05Z</time>
      </trkpt>
      <trkpt lat="45.67448" lon="6.54801">
        <ele>1038.2</ele>
        <time>2025-02-20T16:17:06Z</time>
      </trkpt>
      <trkpt lat="45.67453" lon="6.54814">
        <ele>1038.2</ele>
        <time>2025-02-20T16:17:07Z</time>
      </trkpt>
      <trkpt lat="45.67458" lon="6.54826">
        <ele>1037.2</ele>
        <time>2025-02-20T16:17:08Z</time>
      </trkpt>
      <trkpt lat="45.67464" lon="6.54837">
        <ele>1031.2</ele>
        <time>2025-02-20T16:17:09Z</time>
      </trkpt>
      <trkpt lat="45.67469" lon="6.54848">
        <ele>1031.2</ele>
        <time>2025-02-20T16:17:10Z</time>
      </trkpt>
      <trkpt lat="45.67475" lon="6.54858">
        <ele>1031.2</ele>
        <time>2025-02-20T16:17:11Z</time>
      </trkpt>
      <trkpt lat="45.67482" lon="6.54867">
        <ele>1030.2</ele>
        <time>2025-02-20T16:17:12Z</time>
      </trkpt>
      <trkpt lat="45.67488" lon="6.54875">
        <ele>1026.2</ele>
        <time>2025-02-20T16:17:13Z</time>
      </trkpt>
      <trkpt lat="45.67495" lon="6.54884">
        <ele>1026.2</ele>
        <time>2025-02-20T16:17:14Z</time>
      </trkpt>
      <trkpt lat="45.67501" lon="6.54891">
        <ele>1026.2</ele>
        <time>2025-02-20T16:17:15Z</time>
      </trkpt>
      <trkpt lat="45.67507" lon="6.54898">
        <ele>1025.2</ele>
        <time>2025-02-20T16:17:16Z</time>
      </trkpt>
      <trkpt lat="45.67513" lon="6.54906">
        <ele>1023.6</ele>
        <time>2025-02-20T16:17:17Z</time>
      </trkpt>
      <trkpt lat="45.67517" lon="6.54915">
        <ele>1023.6</ele>
        <time>2025-02-20T16:17:18Z</time>
      </trkpt>
      <trkpt lat="45.67521" lon="6.54923">
        <ele>1023.6</ele>
        <time>2025-02-20T16:17:19Z</time>
      </trkpt>
      <trkpt lat="45.67525" lon="6.54932">
        <ele>1022.6</ele>
        <time>2025-02-20T16:17:20Z</time>
      </trkpt>
      <trkpt lat="45.67528" lon="6.54941">
        <ele>1020.2</ele>
        <time>2025-02-20T16:17:21Z</time>
      </trkpt>
      <trkpt lat="45.67531" lon="6.5495">
        <ele>1020.2</ele>
        <time>2025-02-20T16:17:22Z</time>
      </trkpt>
      <trkpt lat="45.67534" lon="6.54959">
        <ele>1020.2</ele>
        <time>2025-02-20T16:17:23Z</time>
      </trkpt>
      <trkpt lat="45.67537" lon="6.54968">
        <ele>1019.2</ele>
        <time>2025-02-20T16:17:24Z</time>
      </trkpt>
      <trkpt lat="45.6754" lon="6.54976">
        <ele>1017.2</ele>
        <time>2025-02-20T16:17:25Z</time>
      </trkpt>
      <trkpt lat="45.67543" lon="6.54985">
        <ele>1017.2</ele>
        <time>2025-02-20T16:17:26Z</time>
      </trkpt>
      <trkpt lat="45.67546" lon="6.54993">
        <ele>1017.2</ele>
        <time>2025-02-20T16:17:27Z</time>
      </trkpt>
      <trkpt lat="45.67549" lon="6.55002">
        <ele>1016.2</ele>
        <time>2025-02-20T16:17:28Z</time>
      </trkpt>
      <trkpt lat="45.67553" lon="6.55011">
        <ele>1014.4</ele>
        <time>2025-02-20T16:17:29Z</time>
      </trkpt>
      <trkpt lat="45.67557" lon="6.5502">
        <ele>1014.4</ele>
        <time>2025-02-20T16:17:30Z</time>
      </trkpt>
      <trkpt lat="45.6756" lon="6.55029">
        <ele>1014.4</ele>
        <time>2025-02-20T16:17:31Z</time>
      </trkpt>
      <trkpt lat="45.67564" lon="6.55036">
        <ele>1013.4</ele>
        <time>2025-02-20T16:17:32Z</time>
      </trkpt>
      <trkpt lat="45.67568" lon="6.55044">
        <ele>1011.8</ele>
        <time>2025-02-20T16:17:33Z</time>
      </trkpt>
      <trkpt lat="45.67572" lon="6.55053">
        <ele>1011.8</ele>
        <time>2025-02-20T16:17:34Z</time>
      </trkpt>
      <trkpt lat="45.67576" lon="6.55061">
        <ele>1011.8</ele>
        <time>2025-02-20T16:17:35Z</time>
      </trkpt>
      <trkpt lat="45.67579" lon="6.55069">
        <ele>1010.8</ele>
        <time>2025-02-20T16:17:36Z</time>
      </trkpt>
      <trkpt lat="45.67583" lon="6.55079">
        <ele>1007.8</ele>
        <time>2025-02-20T16:17:37Z</time>
      </trkpt>
      <trkpt lat="45.67588" lon="6.55087">
        <ele>1007.8</ele>
        <time>2025-02-20T16:17:38Z</time>
      </trkpt>
      <trkpt lat="45.67593" lon="6.55095">
        <ele>1007.8</ele>
        <time>2025-02-20T16:17:39Z</time>
      </trkpt>
      <trkpt lat="45.67597" lon="6.55103">
        <ele>1006.8</ele>
        <time>2025-02-20T16:17:40Z</time>
      </trkpt>
      <trkpt lat="45.676" lon="6.55108">
        <ele>1006</ele>
        <time>2025-02-20T16:17:41Z</time>
      </trkpt>
      <trkpt lat="45.67603" lon="6.55114">
        <ele>1006</ele>
        <time>2025-02-20T16:17:42Z</time>
      </trkpt>
      <trkpt lat="45.67604" lon="6.5512">
        <ele>1006</ele>
        <time>2025-02-20T16:17:43Z</time>
      </trkpt>
      <trkpt lat="45.67606" lon="6.55125">
        <ele>1006</ele>
        <time>2025-02-20T16:17:44Z</time>
      </trkpt>
      <trkpt lat="45.67606" lon="6.55129">
        <ele>1005.8</ele>
        <time>2025-02-20T16:17:45Z</time>
      </trkpt>
      <trkpt lat="45.67605" lon="6.55134">
        <ele>1005.8</ele>
        <time>2025-02-20T16:17:46Z</time>
      </trkpt>
      <trkpt lat="45.67605" lon="6.55139">
        <ele>1005.8</ele>
        <time>2025-02-20T16:17:47Z</time>
      </trkpt>
      <trkpt lat="45.67607" lon="6.55144">
        <ele>1004.8</ele>
        <time>2025-02-20T16:17:48Z</time>
      </trkpt>
      <trkpt lat="45.67609" lon="6.55149">
        <ele>1004.8</ele>
        <time>2025-02-20T16:17:49Z</time>
      </trkpt>
      <trkpt lat="45.67611" lon="6.55156">
        <ele>1004.8</ele>
        <time>2025-02-20T16:17:50Z</time>
      </trkpt>
      <trkpt lat="45.67615" lon="6.55161">
        <ele>1004.8</ele>
        <time>2025-02-20T16:17:51Z</time>
      </trkpt>
      <trkpt lat="45.67617" lon="6.55169">
        <ele>1003.8</ele>
        <time>2025-02-20T16:17:52Z</time>
      </trkpt>
      <trkpt lat="45.67621" lon="6.55177">
        <ele>1001</ele>
        <time>2025-02-20T16:17:53Z</time>
      </trkpt>
      <trkpt lat="45.67624" lon="6.55185">
        <ele>1001</ele>
        <time>2025-02-20T16:17:54Z</time>
      </trkpt>
      <trkpt lat="45.67626" lon="6.55193">
        <ele>1001</ele>
        <time>2025-02-20T16:17:55Z</time>
      </trkpt>
      <trkpt lat="45.67629" lon="6.552">
        <ele>1001.2</ele>
        <time>2025-02-20T16:17:56Z</time>
      </trkpt>
      <trkpt lat="45.67632" lon="6.55208">
        <ele>1000.2</ele>
        <time>2025-02-20T16:17:57Z</time>
      </trkpt>
      <trkpt lat="45.67634" lon="6.55215">
        <ele>1000.2</ele>
        <time>2025-02-20T16:17:58Z</time>
      </trkpt>
      <trkpt lat="45.67637" lon="6.55222">
        <ele>1000.2</ele>
        <time>2025-02-20T16:17:59Z</time>
      </trkpt>
      <trkpt lat="45.6764" lon="6.55229">
        <ele>999.4</ele>
        <time>2025-02-20T16:18:00Z</time>
      </trkpt>
      <trkpt lat="45.67642" lon="6.55236">
        <ele>999.2</ele>
        <time>2025-02-20T16:18:01Z</time>
      </trkpt>
      <trkpt lat="45.67644" lon="6.55243">
        <ele>999.2</ele>
        <time>2025-02-20T16:18:02Z</time>
      </trkpt>
      <trkpt lat="45.67647" lon="6.5525">
        <ele>999.2</ele>
        <time>2025-02-20T16:18:03Z</time>
      </trkpt>
      <trkpt lat="45.6765" lon="6.55257">
        <ele>998.2</ele>
        <time>2025-02-20T16:18:04Z</time>
      </trkpt>
      <trkpt lat="45.67653" lon="6.55264">
        <ele>998.2</ele>
        <time>2025-02-20T16:18:05Z</time>
      </trkpt>
      <trkpt lat="45.67656" lon="6.5527">
        <ele>998.2</ele>
        <time>2025-02-20T16:18:06Z</time>
      </trkpt>
      <trkpt lat="45.67659" lon="6.55276">
        <ele>998.2</ele>
        <time>2025-02-20T16:18:07Z</time>
      </trkpt>
      <trkpt lat="45.67662" lon="6.55283">
        <ele>997.2</ele>
        <time>2025-02-20T16:18:08Z</time>
      </trkpt>
      <trkpt lat="45.67666" lon="6.55289">
        <ele>995.6</ele>
        <time>2025-02-20T16:18:09Z</time>
      </trkpt>
      <trkpt lat="45.67669" lon="6.55295">
        <ele>995.6</ele>
        <time>2025-02-20T16:18:10Z</time>
      </trkpt>
      <trkpt lat="45.67673" lon="6.55302">
        <ele>995.6</ele>
        <time>2025-02-20T16:18:11Z</time>
      </trkpt>
      <trkpt lat="45.67677" lon="6.55309">
        <ele>994.6</ele>
        <time>2025-02-20T16:18:12Z</time>
      </trkpt>
      <trkpt lat="45.67681" lon="6.55314">
        <ele>993.6</ele>
        <time>2025-02-20T16:18:13Z</time>
      </trkpt>
      <trkpt lat="45.67685" lon="6.55321">
        <ele>993.6</ele>
        <time>2025-02-20T16:18:14Z</time>
      </trkpt>
      <trkpt lat="45.67688" lon="6.55326">
        <ele>993.6</ele>
        <time>2025-02-20T16:18:15Z</time>
      </trkpt>
      <trkpt lat="45.67692" lon="6.55331">
        <ele>994.2</ele>
        <time>2025-02-20T16:18:16Z</time>
      </trkpt>
      <trkpt lat="45.67695" lon="6.55338">
        <ele>994</ele>
        <time>2025-02-20T16:18:17Z</time>
      </trkpt>
      <trkpt lat="45.67699" lon="6.55344">
        <ele>994</ele>
        <time>2025-02-20T16:18:18Z</time>
      </trkpt>
      <trkpt lat="45.67702" lon="6.5535">
        <ele>994</ele>
        <time>2025-02-20T16:18:19Z</time>
      </trkpt>
      <trkpt lat="45.67706" lon="6.55356">
        <ele>993</ele>
        <time>2025-02-20T16:18:20Z</time>
      </trkpt>
      <trkpt lat="45.67708" lon="6.55362">
        <ele>991.8</ele>
        <time>2025-02-20T16:18:21Z</time>
      </trkpt>
      <trkpt lat="45.67712" lon="6.55367">
        <ele>991.8</ele>
        <time>2025-02-20T16:18:22Z</time>
      </trkpt>
      <trkpt lat="45.67715" lon="6.55374">
        <ele>991.8</ele>
        <time>2025-02-20T16:18:23Z</time>
      </trkpt>
      <trkpt lat="45.67719" lon="6.5538">
        <ele>991.8</ele>
        <time>2025-02-20T16:18:24Z</time>
      </trkpt>
      <trkpt lat="45.67723" lon="6.55385">
        <ele>991</ele>
        <time>2025-02-20T16:18:25Z</time>
      </trkpt>
      <trkpt lat="45.67727" lon="6.55389">
        <ele>991</ele>
        <time>2025-02-20T16:18:26Z</time>
      </trkpt>
      <trkpt lat="45.67731" lon="6.55394">
        <ele>991</ele>
        <time>2025-02-20T16:18:27Z</time>
      </trkpt>
      <trkpt lat="45.67735" lon="6.55399">
        <ele>991</ele>
        <time>2025-02-20T16:18:28Z</time>
      </trkpt>
      <trkpt lat="45.67739" lon="6.55404">
        <ele>989.4</ele>
        <time>2025-02-20T16:18:29Z</time>
      </trkpt>
      <trkpt lat="45.67743" lon="6.5541">
        <ele>989.4</ele>
        <time>2025-02-20T16:18:30Z</time>
      </trkpt>
      <trkpt lat="45.67747" lon="6.55416">
        <ele>989.4</ele>
        <time>2025-02-20T16:18:31Z</time>
      </trkpt>
      <trkpt lat="45.67751" lon="6.55422">
        <ele>988.4</ele>
        <time>2025-02-20T16:18:32Z</time>
      </trkpt>
      <trkpt lat="45.67754" lon="6.55428">
        <ele>987.8</ele>
        <time>2025-02-20T16:18:33Z</time>
      </trkpt>
      <trkpt lat="45.67758" lon="6.55433">
        <ele>987.8</ele>
        <time>2025-02-20T16:18:34Z</time>
      </trkpt>
      <trkpt lat="45.67761" lon="6.55438">
        <ele>987.8</ele>
        <time>2025-02-20T16:18:35Z</time>
      </trkpt>
      <trkpt lat="45.67764" lon="6.55444">
        <ele>986.8</ele>
        <time>2025-02-20T16:18:36Z</time>
      </trkpt>
      <trkpt lat="45.67768" lon="6.5545">
        <ele>986.4</ele>
        <time>2025-02-20T16:18:37Z</time>
      </trkpt>
      <trkpt lat="45.67769" lon="6.55455">
        <ele>986.4</ele>
        <time>2025-02-20T16:18:38Z</time>
      </trkpt>
      <trkpt lat="45.67773" lon="6.5546">
        <ele>986.4</ele>
        <time>2025-02-20T16:18:39Z</time>
      </trkpt>
      <trkpt lat="45.67777" lon="6.55466">
        <ele>985.6</ele>
        <time>2025-02-20T16:18:40Z</time>
      </trkpt>
      <trkpt lat="45.67781" lon="6.55471">
        <ele>985.6</ele>
        <time>2025-02-20T16:18:41Z</time>
      </trkpt>
      <trkpt lat="45.67784" lon="6.55475">
        <ele>985.6</ele>
        <time>2025-02-20T16:18:42Z</time>
      </trkpt>
      <trkpt lat="45.67788" lon="6.55479">
        <ele>985.6</ele>
        <time>2025-02-20T16:18:43Z</time>
      </trkpt>
      <trkpt lat="45.67792" lon="6.55484">
        <ele>984.6</ele>
        <time>2025-02-20T16:18:44Z</time>
      </trkpt>
      <trkpt lat="45.67796" lon="6.55489">
        <ele>982.6</ele>
        <time>2025-02-20T16:18:45Z</time>
      </trkpt>
      <trkpt lat="45.67798" lon="6.55493">
        <ele>982.6</ele>
        <time>2025-02-20T16:18:46Z</time>
      </trkpt>
      <trkpt lat="45.67802" lon="6.55497">
        <ele>982.6</ele>
        <time>2025-02-20T16:18:47Z</time>
      </trkpt>
      <trkpt lat="45.67804" lon="6.55501">
        <ele>982.6</ele>
        <time>2025-02-20T16:18:48Z</time>
      </trkpt>
      <trkpt lat="45.67807" lon="6.55506">
        <ele>982.8</ele>
        <time>2025-02-20T16:18:49Z</time>
      </trkpt>
      <trkpt lat="45.67811" lon="6.55509">
        <ele>982.8</ele>
        <time>2025-02-20T16:18:50Z</time>
      </trkpt>
      <trkpt lat="45.67814" lon="6.55514">
        <ele>982.8</ele>
        <time>2025-02-20T16:18:51Z</time>
      </trkpt>
      <trkpt lat="45.67817" lon="6.55519">
        <ele>982.8</ele>
        <time>2025-02-20T16:18:52Z</time>
      </trkpt>
      <trkpt lat="45.67821" lon="6.55524">
        <ele>981.8</ele>
        <time>2025-02-20T16:18:53Z</time>
      </trkpt>
      <trkpt lat="45.67825" lon="6.55528">
        <ele>981.8</ele>
        <time>2025-02-20T16:18:54Z</time>
      </trkpt>
      <trkpt lat="45.67829" lon="6.55532">
        <ele>981.8</ele>
        <time>2025-02-20T16:18:55Z</time>
      </trkpt>
      <trkpt lat="45.67832" lon="6.55537">
        <ele>980.8</ele>
        <time>2025-02-20T16:18:56Z</time>
      </trkpt>
      <trkpt lat="45.67837" lon="6.55541">
        <ele>980.2</ele>
        <time>2025-02-20T16:18:57Z</time>
      </trkpt>
      <trkpt lat="45.67842" lon="6.55544">
        <ele>980.2</ele>
        <time>2025-02-20T16:18:58Z</time>
      </trkpt>
      <trkpt lat="45.67845" lon="6.55548">
        <ele>980.2</ele>
        <time>2025-02-20T16:18:59Z</time>
      </trkpt>
      <trkpt lat="45.6785" lon="6.55551">
        <ele>980.2</ele>
        <time>2025-02-20T16:19:00Z</time>
      </trkpt>
      <trkpt lat="45.67853" lon="6.55555">
        <ele>979</ele>
        <time>2025-02-20T16:19:01Z</time>
      </trkpt>
      <trkpt lat="45.67857" lon="6.55558">
        <ele>979</ele>
        <time>2025-02-20T16:19:02Z</time>
      </trkpt>
      <trkpt lat="45.6786" lon="6.55561">
        <ele>979</ele>
        <time>2025-02-20T16:19:03Z</time>
      </trkpt>
      <trkpt lat="45.67864" lon="6.55565">
        <ele>979</ele>
        <time>2025-02-20T16:19:04Z</time>
      </trkpt>
      <trkpt lat="45.67868" lon="6.55569">
        <ele>977</ele>
        <time>2025-02-20T16:19:05Z</time>
      </trkpt>
      <trkpt lat="45.67872" lon="6.55574">
        <ele>977</ele>
        <time>2025-02-20T16:19:06Z</time>
      </trkpt>
      <trkpt lat="45.67876" lon="6.5558">
        <ele>977</ele>
        <time>2025-02-20T16:19:07Z</time>
      </trkpt>
      <trkpt lat="45.67881" lon="6.55585">
        <ele>977</ele>
        <time>2025-02-20T16:19:08Z</time>
      </trkpt>
      <trkpt lat="45.67885" lon="6.5559">
        <ele>977.4</ele>
        <time>2025-02-20T16:19:09Z</time>
      </trkpt>
      <trkpt lat="45.67889" lon="6.55594">
        <ele>977.4</ele>
        <time>2025-02-20T16:19:10Z</time>
      </trkpt>
      <trkpt lat="45.67893" lon="6.55598">
        <ele>977.4</ele>
        <time>2025-02-20T16:19:11Z</time>
      </trkpt>
      <trkpt lat="45.67897" lon="6.55603">
        <ele>976.4</ele>
        <time>2025-02-20T16:19:12Z</time>
      </trkpt>
      <trkpt lat="45.67901" lon="6.55607">
        <ele>975.2</ele>
        <time>2025-02-20T16:19:13Z</time>
      </trkpt>
      <trkpt lat="45.67906" lon="6.55612">
        <ele>975.2</ele>
        <time>2025-02-20T16:19:14Z</time>
      </trkpt>
      <trkpt lat="45.6791" lon="6.55617">
        <ele>975.2</ele>
        <time>2025-02-20T16:19:15Z</time>
      </trkpt>
      <trkpt lat="45.67915" lon="6.55622">
        <ele>975.2</ele>
        <time>2025-02-20T16:19:16Z</time>
      </trkpt>
      <trkpt lat="45.67919" lon="6.55626">
        <ele>972.6</ele>
        <time>2025-02-20T16:19:17Z</time>
      </trkpt>
      <trkpt lat="45.67924" lon="6.5563">
        <ele>972.6</ele>
        <time>2025-02-20T16:19:18Z</time>
      </trkpt>
      <trkpt lat="45.67929" lon="6.55633">
        <ele>972.6</ele>
        <time>2025-02-20T16:19:19Z</time>
      </trkpt>
      <trkpt lat="45.67932" lon="6.55637">
        <ele>973.2</ele>
        <time>2025-02-20T16:19:20Z</time>
      </trkpt>
      <trkpt lat="45.67937" lon="6.55639">
        <ele>971.6</ele>
        <time>2025-02-20T16:19:21Z</time>
      </trkpt>
      <trkpt lat="45.67939" lon="6.55644">
        <ele>971.6</ele>
        <time>2025-02-20T16:19:22Z</time>
      </trkpt>
      <trkpt lat="45.67943" lon="6.55647">
        <ele>971.6</ele>
        <time>2025-02-20T16:19:23Z</time>
      </trkpt>
      <trkpt lat="45.67947" lon="6.5565">
        <ele>972.4</ele>
        <time>2025-02-20T16:19:24Z</time>
      </trkpt>
      <trkpt lat="45.67951" lon="6.55654">
        <ele>971.6</ele>
        <time>2025-02-20T16:19:25Z</time>
      </trkpt>
      <trkpt lat="45.67954" lon="6.55657">
        <ele>971.6</ele>
        <time>2025-02-20T16:19:26Z</time>
      </trkpt>
      <trkpt lat="45.67957" lon="6.55661">
        <ele>971.6</ele>
        <time>2025-02-20T16:19:27Z</time>
      </trkpt>
      <trkpt lat="45.6796" lon="6.55664">
        <ele>971</ele>
        <time>2025-02-20T16:19:28Z</time>
      </trkpt>
      <trkpt lat="45.67963" lon="6.55667">
        <ele>970.6</ele>
        <time>2025-02-20T16:19:29Z</time>
      </trkpt>
      <trkpt lat="45.67967" lon="6.55672">
        <ele>970.6</ele>
        <time>2025-02-20T16:19:30Z</time>
      </trkpt>
      <trkpt lat="45.67972" lon="6.55676">
        <ele>970.6</ele>
        <time>2025-02-20T16:19:31Z</time>
      </trkpt>
      <trkpt lat="45.67977" lon="6.55681">
        <ele>969.6</ele>
        <time>2025-02-20T16:19:32Z</time>
      </trkpt>
      <trkpt lat="45.67982" lon="6.55685">
        <ele>970.2</ele>
        <time>2025-02-20T16:19:33Z</time>
      </trkpt>
      <trkpt lat="45.67986" lon="6.55689">
        <ele>970.2</ele>
        <time>2025-02-20T16:19:34Z</time>
      </trkpt>
      <trkpt lat="45.67989" lon="6.55692">
        <ele>970.2</ele>
        <time>2025-02-20T16:19:35Z</time>
      </trkpt>
      <trkpt lat="45.67993" lon="6.55695">
        <ele>970.2</ele>
        <time>2025-02-20T16:19:36Z</time>
      </trkpt>
      <trkpt lat="45.67997" lon="6.55697">
        <ele>969.4</ele>
        <time>2025-02-20T16:19:37Z</time>
      </trkpt>
      <trkpt lat="45.68001" lon="6.557">
        <ele>969.4</ele>
        <time>2025-02-20T16:19:38Z</time>
      </trkpt>
      <trkpt lat="45.68005" lon="6.55703">
        <ele>969.4</ele>
        <time>2025-02-20T16:19:39Z</time>
      </trkpt>
      <trkpt lat="45.68008" lon="6.55706">
        <ele>969</ele>
        <time>2025-02-20T16:19:40Z</time>
      </trkpt>
      <trkpt lat="45.68011" lon="6.55709">
        <ele>968.2</ele>
        <time>2025-02-20T16:19:41Z</time>
      </trkpt>
      <trkpt lat="45.68013" lon="6.55711">
        <ele>968.2</ele>
        <time>2025-02-20T16:19:42Z</time>
      </trkpt>
      <trkpt lat="45.68015" lon="6.55713">
        <ele>968.2</ele>
        <time>2025-02-20T16:19:43Z</time>
      </trkpt>
      <trkpt lat="45.68017" lon="6.55714">
        <ele>968.2</ele>
        <time>2025-02-20T16:19:44Z</time>
      </trkpt>
      <trkpt lat="45.68019" lon="6.55715">
        <ele>968.8</ele>
        <time>2025-02-20T16:19:45Z</time>
      </trkpt>
      <trkpt lat="45.6802" lon="6.55716">
        <ele>968.8</ele>
        <time>2025-02-20T16:19:46Z</time>
      </trkpt>
      <trkpt lat="45.68021" lon="6.55719">
        <ele>968.8</ele>
        <time>2025-02-20T16:19:47Z</time>
      </trkpt>
      <trkpt lat="45.68023" lon="6.55721">
        <ele>968.8</ele>
        <time>2025-02-20T16:19:48Z</time>
      </trkpt>
      <trkpt lat="45.68024" lon="6.55725">
        <ele>968.4</ele>
        <time>2025-02-20T16:19:49Z</time>
      </trkpt>
      <trkpt lat="45.68025" lon="6.55729">
        <ele>968.4</ele>
        <time>2025-02-20T16:19:50Z</time>
      </trkpt>
      <trkpt lat="45.68028" lon="6.55734">
        <ele>968.4</ele>
        <time>2025-02-20T16:19:51Z</time>
      </trkpt>
      <trkpt lat="45.68029" lon="6.5574">
        <ele>967.4</ele>
        <time>2025-02-20T16:19:52Z</time>
      </trkpt>
      <trkpt lat="45.68031" lon="6.55748">
        <ele>966.8</ele>
        <time>2025-02-20T16:19:53Z</time>
      </trkpt>
      <trkpt lat="45.68032" lon="6.55755">
        <ele>966.8</ele>
        <time>2025-02-20T16:19:54Z</time>
      </trkpt>
      <trkpt lat="45.68033" lon="6.55763">
        <ele>966.8</ele>
        <time>2025-02-20T16:19:55Z</time>
      </trkpt>
      <trkpt lat="45.68034" lon="6.55772">
        <ele>965.8</ele>
        <time>2025-02-20T16:19:56Z</time>
      </trkpt>
      <trkpt lat="45.68035" lon="6.55782">
        <ele>963.4</ele>
        <time>2025-02-20T16:19:57Z</time>
      </trkpt>
      <trkpt lat="45.68037" lon="6.55792">
        <ele>963.4</ele>
        <time>2025-02-20T16:19:58Z</time>
      </trkpt>
      <trkpt lat="45.68038" lon="6.55802">
        <ele>963.4</ele>
        <time>2025-02-20T16:19:59Z</time>
      </trkpt>
      <trkpt lat="45.6804" lon="6.55812">
        <ele>962.4</ele>
        <time>2025-02-20T16:20:00Z</time>
      </trkpt>
      <trkpt lat="45.68045" lon="6.5582">
        <ele>959.2</ele>
        <time>2025-02-20T16:20:01Z</time>
      </trkpt>
      <trkpt lat="45.6805" lon="6.5583">
        <ele>959.2</ele>
        <time>2025-02-20T16:20:02Z</time>
      </trkpt>
      <trkpt lat="45.68054" lon="6.5584">
        <ele>959.2</ele>
        <time>2025-02-20T16:20:03Z</time>
      </trkpt>
      <trkpt lat="45.68057" lon="6.55851">
        <ele>958.2</ele>
        <time>2025-02-20T16:20:04Z</time>
      </trkpt>
      <trkpt lat="45.68059" lon="6.55862">
        <ele>956.2</ele>
        <time>2025-02-20T16:20:05Z</time>
      </trkpt>
      <trkpt lat="45.68062" lon="6.55874">
        <ele>956.2</ele>
        <time>2025-02-20T16:20:06Z</time>
      </trkpt>
      <trkpt lat="45.68067" lon="6.55884">
        <ele>956.2</ele>
        <time>2025-02-20T16:20:07Z</time>
      </trkpt>
      <trkpt lat="45.6807" lon="6.55895">
        <ele>955.2</ele>
        <time>2025-02-20T16:20:08Z</time>
      </trkpt>
      <trkpt lat="45.68073" lon="6.55906">
        <ele>949.8</ele>
        <time>2025-02-20T16:20:09Z</time>
      </trkpt>
      <trkpt lat="45.68077" lon="6.55917">
        <ele>949.8</ele>
        <time>2025-02-20T16:20:10Z</time>
      </trkpt>
      <trkpt lat="45.68083" lon="6.55924">
        <ele>949.8</ele>
        <time>2025-02-20T16:20:11Z</time>
      </trkpt>
      <trkpt lat="45.6809" lon="6.55926">
        <ele>948.8</ele>
        <time>2025-02-20T16:20:12Z</time>
      </trkpt>
      <trkpt lat="45.68096" lon="6.55929">
        <ele>947.2</ele>
        <time>2025-02-20T16:20:13Z</time>
      </trkpt>
      <trkpt lat="45.68101" lon="6.55931">
        <ele>947.2</ele>
        <time>2025-02-20T16:20:14Z</time>
      </trkpt>
      <trkpt lat="45.68107" lon="6.55936">
        <ele>947.2</ele>
        <time>2025-02-20T16:20:15Z</time>
      </trkpt>
      <trkpt lat="45.68112" lon="6.55942">
        <ele>946.4</ele>
        <time>2025-02-20T16:20:16Z</time>
      </trkpt>
      <trkpt lat="45.68116" lon="6.55947">
        <ele>946.2</ele>
        <time>2025-02-20T16:20:17Z</time>
      </trkpt>
      <trkpt lat="45.6812" lon="6.55951">
        <ele>946.2</ele>
        <time>2025-02-20T16:20:18Z</time>
      </trkpt>
      <trkpt lat="45.68125" lon="6.55955">
        <ele>946.2</ele>
        <time>2025-02-20T16:20:19Z</time>
      </trkpt>
      <trkpt lat="45.68129" lon="6.5596">
        <ele>945.2</ele>
        <time>2025-02-20T16:20:20Z</time>
      </trkpt>
      <trkpt lat="45.68134" lon="6.55966">
        <ele>943.4</ele>
        <time>2025-02-20T16:20:21Z</time>
      </trkpt>
      <trkpt lat="45.68139" lon="6.55972">
        <ele>943.4</ele>
        <time>2025-02-20T16:20:22Z</time>
      </trkpt>
      <trkpt lat="45.68144" lon="6.55978">
        <ele>943.4</ele>
        <time>2025-02-20T16:20:23Z</time>
      </trkpt>
      <trkpt lat="45.68149" lon="6.55984">
        <ele>942.4</ele>
        <time>2025-02-20T16:20:24Z</time>
      </trkpt>
      <trkpt lat="45.68154" lon="6.55989">
        <ele>940.8</ele>
        <time>2025-02-20T16:20:25Z</time>
      </trkpt>
      <trkpt lat="45.6816" lon="6.55995">
        <ele>940.8</ele>
        <time>2025-02-20T16:20:26Z</time>
      </trkpt>
      <trkpt lat="45.68165" lon="6.56001">
        <ele>940.8</ele>
        <time>2025-02-20T16:20:27Z</time>
      </trkpt>
      <trkpt lat="45.6817" lon="6.56008">
        <ele>939.8</ele>
        <time>2025-02-20T16:20:28Z</time>
      </trkpt>
      <trkpt lat="45.68176" lon="6.56014">
        <ele>938</ele>
        <time>2025-02-20T16:20:29Z</time>
      </trkpt>
      <trkpt lat="45.68182" lon="6.56021">
        <ele>938</ele>
        <time>2025-02-20T16:20:30Z</time>
      </trkpt>
      <trkpt lat="45.68188" lon="6.56026">
        <ele>938</ele>
        <time>2025-02-20T16:20:31Z</time>
      </trkpt>
      <trkpt lat="45.68194" lon="6.56031">
        <ele>937</ele>
        <time>2025-02-20T16:20:32Z</time>
      </trkpt>
      <trkpt lat="45.682" lon="6.56036">
        <ele>935.6</ele>
        <time>2025-02-20T16:20:33Z</time>
      </trkpt>
      <trkpt lat="45.68205" lon="6.56042">
        <ele>935.6</ele>
        <time>2025-02-20T16:20:34Z</time>
      </trkpt>
      <trkpt lat="45.68209" lon="6.56048">
        <ele>935.6</ele>
        <time>2025-02-20T16:20:35Z</time>
      </trkpt>
      <trkpt lat="45.68212" lon="6.56056">
        <ele>934.6</ele>
        <time>2025-02-20T16:20:36Z</time>
      </trkpt>
      <trkpt lat="45.68215" lon="6.56063">
        <ele>934</ele>
        <time>2025-02-20T16:20:37Z</time>
      </trkpt>
      <trkpt lat="45.68218" lon="6.56071">
        <ele>934</ele>
        <time>2025-02-20T16:20:38Z</time>
      </trkpt>
      <trkpt lat="45.68221" lon="6.56078">
        <ele>934</ele>
        <time>2025-02-20T16:20:39Z</time>
      </trkpt>
      <trkpt lat="45.68223" lon="6.56085">
        <ele>934</ele>
        <time>2025-02-20T16:20:40Z</time>
      </trkpt>
      <trkpt lat="45.68227" lon="6.56092">
        <ele>932.2</ele>
        <time>2025-02-20T16:20:41Z</time>
      </trkpt>
      <trkpt lat="45.68231" lon="6.56099">
        <ele>932.2</ele>
        <time>2025-02-20T16:20:42Z</time>
      </trkpt>
      <trkpt lat="45.68234" lon="6.56106">
        <ele>932.2</ele>
        <time>2025-02-20T16:20:43Z</time>
      </trkpt>
      <trkpt lat="45.68238" lon="6.56112">
        <ele>931.6</ele>
        <time>2025-02-20T16:20:44Z</time>
      </trkpt>
      <trkpt lat="45.68241" lon="6.56119">
        <ele>931</ele>
        <time>2025-02-20T16:20:45Z</time>
      </trkpt>
      <trkpt lat="45.68244" lon="6.56125">
        <ele>931</ele>
        <time>2025-02-20T16:20:46Z</time>
      </trkpt>
      <trkpt lat="45.68247" lon="6.56131">
        <ele>931</ele>
        <time>2025-02-20T16:20:47Z</time>
      </trkpt>
      <trkpt lat="45.68249" lon="6.56136">
        <ele>930</ele>
        <time>2025-02-20T16:20:48Z</time>
      </trkpt>
      <trkpt lat="45.68252" lon="6.56141">
        <ele>929</ele>
        <time>2025-02-20T16:20:49Z</time>
      </trkpt>
      <trkpt lat="45.68255" lon="6.56145">
        <ele>929</ele>
        <time>2025-02-20T16:20:50Z</time>
      </trkpt>
      <trkpt lat="45.68259" lon="6.56149">
        <ele>929</ele>
        <time>2025-02-20T16:20:51Z</time>
      </trkpt>
      <trkpt lat="45.68263" lon="6.56152">
        <ele>928</ele>
        <time>2025-02-20T16:20:52Z</time>
      </trkpt>
      <trkpt lat="45.68268" lon="6.56156">
        <ele>927.8</ele>
        <time>2025-02-20T16:20:53Z</time>
      </trkpt>
      <trkpt lat="45.68272" lon="6.56159">
        <ele>927.8</ele>
        <time>2025-02-20T16:20:54Z</time>
      </trkpt>
      <trkpt lat="45.68276" lon="6.56163">
        <ele>927.8</ele>
        <time>2025-02-20T16:20:55Z</time>
      </trkpt>
      <trkpt lat="45.6828" lon="6.56167">
        <ele>926.8</ele>
        <time>2025-02-20T16:20:56Z</time>
      </trkpt>
      <trkpt lat="45.68285" lon="6.5617">
        <ele>925.4</ele>
        <time>2025-02-20T16:20:57Z</time>
      </trkpt>
      <trkpt lat="45.68289" lon="6.56173">
        <ele>925.4</ele>
        <time>2025-02-20T16:20:58Z</time>
      </trkpt>
      <trkpt lat="45.68292" lon="6.56178">
        <ele>925.4</ele>
        <time>2025-02-20T16:20:59Z</time>
      </trkpt>
      <trkpt lat="45.68296" lon="6.56181">
        <ele>925.4</ele>
        <time>2025-02-20T16:21:00Z</time>
      </trkpt>
      <trkpt lat="45.68301" lon="6.56185">
        <ele>924.4</ele>
        <time>2025-02-20T16:21:01Z</time>
      </trkpt>
      <trkpt lat="45.68305" lon="6.56189">
        <ele>924.4</ele>
        <time>2025-02-20T16:21:02Z</time>
      </trkpt>
      <trkpt lat="45.68309" lon="6.56193">
        <ele>924.4</ele>
        <time>2025-02-20T16:21:03Z</time>
      </trkpt>
      <trkpt lat="45.68313" lon="6.56197">
        <ele>923.4</ele>
        <time>2025-02-20T16:21:04Z</time>
      </trkpt>
      <trkpt lat="45.68317" lon="6.56202">
        <ele>922.2</ele>
        <time>2025-02-20T16:21:05Z</time>
      </trkpt>
      <trkpt lat="45.68321" lon="6.56208">
        <ele>922.2</ele>
        <time>2025-02-20T16:21:06Z</time>
      </trkpt>
      <trkpt lat="45.68326" lon="6.56212">
        <ele>922.2</ele>
        <time>2025-02-20T16:21:07Z</time>
      </trkpt>
      <trkpt lat="45.68331" lon="6.56216">
        <ele>921.2</ele>
        <time>2025-02-20T16:21:08Z</time>
      </trkpt>
      <trkpt lat="45.68335" lon="6.5622">
        <ele>920.6</ele>
        <time>2025-02-20T16:21:09Z</time>
      </trkpt>
      <trkpt lat="45.6834" lon="6.56223">
        <ele>920.6</ele>
        <time>2025-02-20T16:21:10Z</time>
      </trkpt>
      <trkpt lat="45.68345" lon="6.56226">
        <ele>920.6</ele>
        <time>2025-02-20T16:21:11Z</time>
      </trkpt>
      <trkpt lat="45.6835" lon="6.56229">
        <ele>919.6</ele>
        <time>2025-02-20T16:21:12Z</time>
      </trkpt>
      <trkpt lat="45.68355" lon="6.56232">
        <ele>918.8</ele>
        <time>2025-02-20T16:21:13Z</time>
      </trkpt>
      <trkpt lat="45.68359" lon="6.56235">
        <ele>918.8</ele>
        <time>2025-02-20T16:21:14Z</time>
      </trkpt>
      <trkpt lat="45.68362" lon="6.5624">
        <ele>918.8</ele>
        <time>2025-02-20T16:21:15Z</time>
      </trkpt>
      <trkpt lat="45.68366" lon="6.56243">
        <ele>917.8</ele>
        <time>2025-02-20T16:21:16Z</time>
      </trkpt>
      <trkpt lat="45.68368" lon="6.56245">
        <ele>917.8</ele>
        <time>2025-02-20T16:21:17Z</time>
      </trkpt>
      <trkpt lat="45.6837" lon="6.56246">
        <ele>917.8</ele>
        <time>2025-02-20T16:21:18Z</time>
      </trkpt>
      <trkpt lat="45.68371" lon="6.56248">
        <ele>917.8</ele>
        <time>2025-02-20T16:21:19Z</time>
      </trkpt>
      <trkpt lat="45.68374" lon="6.56248">
        <ele>917.8</ele>
        <time>2025-02-20T16:21:20Z</time>
      </trkpt>
      <trkpt lat="45.68376" lon="6.56248">
        <ele>917.2</ele>
        <time>2025-02-20T16:21:21Z</time>
      </trkpt>
      <trkpt lat="45.68378" lon="6.56249">
        <ele>917.2</ele>
        <time>2025-02-20T16:21:22Z</time>
      </trkpt>
      <trkpt lat="45.68379" lon="6.5625">
        <ele>917.2</ele>
        <time>2025-02-20T16:21:23Z</time>
      </trkpt>
      <trkpt lat="45.68379" lon="6.56251">
        <ele>917.2</ele>
        <time>2025-02-20T16:21:24Z</time>
      </trkpt>
      <trkpt lat="45.68379" lon="6.56251">
        <ele>916.6</ele>
        <time>2025-02-20T16:21:25Z</time>
      </trkpt>
      <trkpt lat="45.68379" lon="6.56251">
        <ele>916.6</ele>
        <time>2025-02-20T16:21:26Z</time>
      </trkpt>
      <trkpt lat="45.68379" lon="6.56251">
        <ele>916.6</ele>
        <time>2025-02-20T16:21:27Z</time>
      </trkpt>
      <trkpt lat="45.68379" lon="6.56251">
        <ele>916.6</ele>
        <time>2025-02-20T16:21:28Z</time>
      </trkpt>
      <trkpt lat="45.68379" lon="6.56251">
        <ele>915.6</ele>
        <time>2025-02-20T16:21:29Z</time>
      </trkpt>
      <trkpt lat="45.68379" lon="6.56251">
        <ele>915.6</ele>
        <time>2025-02-20T16:21:30Z</time>
      </trkpt>
      <trkpt lat="45.68379" lon="6.56251">
        <ele>915.6</ele>
        <time>2025-02-20T16:21:31Z</time>
      </trkpt>
      <trkpt lat="45.68379" lon="6.56251">
        <ele>916.6</ele>
        <time>2025-02-20T16:21:32Z</time>
      </trkpt>
      <trkpt lat="45.68379" lon="6.56251">
        <ele>916.6</ele>
        <time>2025-02-20T16:21:33Z</time>
      </trkpt>
      <trkpt lat="45.68379" lon="6.56251">
        <ele>916.6</ele>
        <time>2025-02-20T16:21:34Z</time>
      </trkpt>
      <trkpt lat="45.68379" lon="6.56251">
        <ele>916.6</ele>
        <time>2025-02-20T16:21:35Z</time>
      </trkpt>
      <trkpt lat="45.68379" lon="6.56251">
        <ele>916.6</ele>
        <time>2025-02-20T16:21:36Z</time>
      </trkpt>
      <trkpt lat="45.68379" lon="6.56251">
        <ele>916.4</ele>
        <time>2025-02-20T16:21:37Z</time>
      </trkpt>
      <trkpt lat="45.68379" lon="6.56251">
        <ele>916.4</ele>
        <time>2025-02-20T16:21:38Z</time>
      </trkpt>
      <trkpt lat="45.68379" lon="6.56251">
        <ele>916.4</ele>
        <time>2025-02-20T16:21:39Z</time>
      </trkpt>
      <trkpt lat="45.68379" lon="6.56251">
        <ele>916.4</ele>
        <time>2025-02-20T16:21:40Z</time>
      </trkpt>
      <trkpt lat="45.68379" lon="6.56251">
        <ele>915.4</ele>
        <time>2025-02-20T16:21:41Z</time>
      </trkpt>
      <trkpt lat="45.68379" lon="6.56251">
        <ele>915.4</ele>
        <time>2025-02-20T16:21:42Z</time>
      </trkpt>
      <trkpt lat="45.68382" lon="6.56252">
        <ele>915.4</ele>
        <time>2025-02-20T16:21:43Z</time>
      </trkpt>
      <trkpt lat="45.68383" lon="6.56251">
        <ele>915.4</ele>
        <time>2025-02-20T16:21:44Z</time>
      </trkpt>
      <trkpt lat="45.68384" lon="6.56252">
        <ele>915.4</ele>
        <time>2025-02-20T16:21:45Z</time>
      </trkpt>
      <trkpt lat="45.68385" lon="6.56253">
        <ele>915.4</ele>
        <time>2025-02-20T16:21:46Z</time>
      </trkpt>
      <trkpt lat="45.68386" lon="6.56255">
        <ele>915.4</ele>
        <time>2025-02-20T16:21:47Z</time>
      </trkpt>
      <trkpt lat="45.68387" lon="6.56257">
        <ele>915.8</ele>
        <time>2025-02-20T16:21:48Z</time>
      </trkpt>
      <trkpt lat="45.68387" lon="6.56258">
        <ele>915.2</ele>
        <time>2025-02-20T16:21:49Z</time>
      </trkpt>
      <trkpt lat="45.68386" lon="6.56258">
        <ele>915.2</ele>
        <time>2025-02-20T16:21:50Z</time>
      </trkpt>
      <trkpt lat="45.68385" lon="6.56257">
        <ele>915.2</ele>
        <time>2025-02-20T16:21:51Z</time>
      </trkpt>
      <trkpt lat="45.68384" lon="6.56258">
        <ele>916.2</ele>
        <time>2025-02-20T16:21:52Z</time>
      </trkpt>
      <trkpt lat="45.68384" lon="6.56258">
        <ele>915.8</ele>
        <time>2025-02-20T16:21:53Z</time>
      </trkpt>
      <trkpt lat="45.68384" lon="6.5626">
        <ele>915.8</ele>
        <time>2025-02-20T16:21:54Z</time>
      </trkpt>
      <trkpt lat="45.68383" lon="6.56262">
        <ele>915.8</ele>
        <time>2025-02-20T16:21:55Z</time>
      </trkpt>
      <trkpt lat="45.68382" lon="6.56262">
        <ele>915.8</ele>
        <time>2025-02-20T16:21:56Z</time>
      </trkpt>
      <trkpt lat="45.68382" lon="6.56262">
        <ele>915.8</ele>
        <time>2025-02-20T16:21:57Z</time>
      </trkpt>
      <trkpt lat="45.68382" lon="6.56262">
        <ele>915.8</ele>
        <time>2025-02-20T16:21:58Z</time>
      </trkpt>
      <trkpt lat="45.68382" lon="6.56262">
        <ele>915.8</ele>
        <time>2025-02-20T16:21:59Z</time>
      </trkpt>
      <trkpt lat="45.68382" lon="6.56262">
        <ele>915.6</ele>
        <time>2025-02-20T16:22:00Z</time>
      </trkpt>
      <trkpt lat="45.68382" lon="6.56262">
        <ele>915.6</ele>
        <time>2025-02-20T16:22:01Z</time>
      </trkpt>
      <trkpt lat="45.68382" lon="6.56262">
        <ele>915.6</ele>
        <time>2025-02-20T16:22:02Z</time>
      </trkpt>
      <trkpt lat="45.68382" lon="6.56262">
        <ele>915.6</ele>
        <time>2025-02-20T16:22:03Z</time>
      </trkpt>
      <trkpt lat="45.68382" lon="6.56262">
        <ele>915.6</ele>
        <time>2025-02-20T16:22:04Z</time>
      </trkpt>
      <trkpt lat="45.68382" lon="6.56262">
        <ele>916.4</ele>
        <time>2025-02-20T16:22:05Z</time>
      </trkpt>
      <trkpt lat="45.68382" lon="6.56262">
        <ele>916.4</ele>
        <time>2025-02-20T16:22:06Z</time>
      </trkpt>
      <trkpt lat="45.68382" lon="6.56262">
        <ele>916.4</ele>
        <time>2025-02-20T16:22:07Z</time>
      </trkpt>
      <trkpt lat="45.68382" lon="6.56262">
        <ele>915.4</ele>
        <time>2025-02-20T16:22:08Z</time>
      </trkpt>
      <trkpt lat="45.68382" lon="6.56262">
        <ele>915.8</ele>
        <time>2025-02-20T16:22:09Z</time>
      </trkpt>
      <trkpt lat="45.68382" lon="6.56262">
        <ele>915.8</ele>
        <time>2025-02-20T16:22:10Z</time>
      </trkpt>
      <trkpt lat="45.68382" lon="6.56262">
        <ele>915.8</ele>
        <time>2025-02-20T16:22:11Z</time>
      </trkpt>
      <trkpt lat="45.68382" lon="6.56262">
        <ele>915.8</ele>
        <time>2025-02-20T16:22:12Z</time>
      </trkpt>
      <trkpt lat="45.68382" lon="6.56262">
        <ele>916.2</ele>
        <time>2025-02-20T16:22:13Z</time>
      </trkpt>
      <trkpt lat="45.68382" lon="6.56262">
        <ele>916.2</ele>
        <time>2025-02-20T16:22:14Z</time>
      </trkpt>
      <trkpt lat="45.68382" lon="6.56262">
        <ele>916.2</ele>
        <time>2025-02-20T16:22:15Z</time>
      </trkpt>
      <trkpt lat="45.68382" lon="6.56262">
        <ele>915.2</ele>
        <time>2025-02-20T16:22:16Z</time>
      </trkpt>
      <trkpt lat="45.68382" lon="6.56262">
        <ele>915.6</ele>
        <time>2025-02-20T16:22:17Z</time>
      </trkpt>
      <trkpt lat="45.68382" lon="6.56262">
        <ele>915.6</ele>
        <time>2025-02-20T16:22:18Z</time>
      </trkpt>
      <trkpt lat="45.68382" lon="6.56262">
        <ele>915.6</ele>
        <time>2025-02-20T16:22:19Z</time>
      </trkpt>
      <trkpt lat="45.68382" lon="6.56262">
        <ele>915.8</ele>
        <time>2025-02-20T16:22:20Z</time>
      </trkpt>
      <trkpt lat="45.68382" lon="6.56262">
        <ele>915.6</ele>
        <time>2025-02-20T16:22:21Z</time>
      </trkpt>
      <trkpt lat="45.68382" lon="6.56262">
        <ele>915.6</ele>
        <time>2025-02-20T16:22:22Z</time>
      </trkpt>
      <trkpt lat="45.68382" lon="6.56262">
        <ele>915.6</ele>
        <time>2025-02-20T16:22:23Z</time>
      </trkpt>
      <trkpt lat="45.68382" lon="6.56262">
        <ele>915.6</ele>
        <time>2025-02-20T16:22:24Z</time>
      </trkpt>
      <trkpt lat="45.68382" lon="6.56262">
        <ele>915.6</ele>
        <time>2025-02-20T16:22:25Z</time>
      </trkpt>
      <trkpt lat="45.68382" lon="6.56262">
        <ele>915.6</ele>
        <time>2025-02-20T16:22:26Z</time>
      </trkpt>
      <trkpt lat="45.68382" lon="6.56262">
        <ele>915.6</ele>
        <time>2025-02-20T16:22:27Z</time>
      </trkpt>
      <trkpt lat="45.68382" lon="6.56262">
        <ele>915.6</ele>
        <time>2025-02-20T16:22:28Z</time>
      </trkpt>
      <trkpt lat="45.68382" lon="6.56262">
        <ele>915.4</ele>
        <time>2025-02-20T16:22:29Z</time>
      </trkpt>
      <trkpt lat="45.68382" lon="6.56262">
        <ele>915.4</ele>
        <time>2025-02-20T16:22:30Z</time>
      </trkpt>
      <trkpt lat="45.68382" lon="6.56262">
        <ele>915.4</ele>
        <time>2025-02-20T16:22:31Z</time>
      </trkpt>
      <trkpt lat="45.68382" lon="6.56262">
        <ele>915.4</ele>
        <time>2025-02-20T16:22:32Z</time>
      </trkpt>
      <trkpt lat="45.68382" lon="6.56262">
        <ele>915.8</ele>
        <time>2025-02-20T16:22:33Z</time>
      </trkpt>
      <trkpt lat="45.68382" lon="6.56262">
        <ele>915.8</ele>
        <time>2025-02-20T16:22:34Z</time>
      </trkpt>
      <trkpt lat="45.68382" lon="6.56262">
        <ele>915.8</ele>
        <time>2025-02-20T16:22:35Z</time>
      </trkpt>
      <trkpt lat="45.68382" lon="6.56262">
        <ele>915.8</ele>
        <time>2025-02-20T16:22:36Z</time>
      </trkpt>
      <trkpt lat="45.68382" lon="6.56262">
        <ele>916</ele>
        <time>2025-02-20T16:22:37Z</time>
      </trkpt>
      <trkpt lat="45.68382" lon="6.56262">
        <ele>916</ele>
        <time>2025-02-20T16:22:38Z</time>
      </trkpt>
      <trkpt lat="45.68382" lon="6.56262">
        <ele>916</ele>
        <time>2025-02-20T16:22:39Z</time>
      </trkpt>
      <trkpt lat="45.68382" lon="6.56262">
        <ele>915.4</ele>
        <time>2025-02-20T16:22:40Z</time>
      </trkpt>
      <trkpt lat="45.68382" lon="6.56262">
        <ele>915.4</ele>
        <time>2025-02-20T16:22:41Z</time>
      </trkpt>
      <trkpt lat="45.68382" lon="6.56262">
        <ele>915.4</ele>
        <time>2025-02-20T16:22:42Z</time>
      </trkpt>
      <trkpt lat="45.68382" lon="6.56262">
        <ele>915.4</ele>
        <time>2025-02-20T16:22:43Z</time>
      </trkpt>
      <trkpt lat="45.68382" lon="6.56262">
        <ele>915.8</ele>
        <time>2025-02-20T16:22:44Z</time>
      </trkpt>
      <trkpt lat="45.68382" lon="6.56262">
        <ele>915.6</ele>
        <time>2025-02-20T16:22:45Z</time>
      </trkpt>
      <trkpt lat="45.68382" lon="6.56262">
        <ele>915.6</ele>
        <time>2025-02-20T16:22:46Z</time>
      </trkpt>
      <trkpt lat="45.68382" lon="6.56262">
        <ele>915.6</ele>
        <time>2025-02-20T16:22:47Z</time>
      </trkpt>
      <trkpt lat="45.68382" lon="6.56262">
        <ele>915.6</ele>
        <time>2025-02-20T16:22:48Z</time>
      </trkpt>
      <trkpt lat="45.68382" lon="6.56262">
        <ele>916</ele>
        <time>2025-02-20T16:22:49Z</time>
      </trkpt>
      <trkpt lat="45.68383" lon="6.56265">
        <ele>916</ele>
        <time>2025-02-20T16:22:50Z</time>
      </trkpt>
      <trkpt lat="45.68384" lon="6.56267">
        <ele>916</ele>
        <time>2025-02-20T16:22:51Z</time>
      </trkpt>
      <trkpt lat="45.68384" lon="6.56268">
        <ele>916</ele>
        <time>2025-02-20T16:22:52Z</time>
      </trkpt>
      <trkpt lat="45.68384" lon="6.56271">
        <ele>915.6</ele>
        <time>2025-02-20T16:22:53Z</time>
      </trkpt>
      <trkpt lat="45.68384" lon="6.56272">
        <ele>915.6</ele>
        <time>2025-02-20T16:22:54Z</time>
      </trkpt>
      <trkpt lat="45.68384" lon="6.56273">
        <ele>915.6</ele>
        <time>2025-02-20T16:22:55Z</time>
      </trkpt>
      <trkpt lat="45.68384" lon="6.56274">
        <ele>915.6</ele>
        <time>2025-02-20T16:22:56Z</time>
      </trkpt>
      <trkpt lat="45.68383" lon="6.56275">
        <ele>915.6</ele>
        <time>2025-02-20T16:22:57Z</time>
      </trkpt>
      <trkpt lat="45.68381" lon="6.56275">
        <ele>915.6</ele>
        <time>2025-02-20T16:22:58Z</time>
      </trkpt>
      <trkpt lat="45.68381" lon="6.56275">
        <ele>915.6</ele>
        <time>2025-02-20T16:22:59Z</time>
      </trkpt>
      <trkpt lat="45.68381" lon="6.56275">
        <ele>915.6</ele>
        <time>2025-02-20T16:23:00Z</time>
      </trkpt>
      <trkpt lat="45.68381" lon="6.56275">
        <ele>916</ele>
        <time>2025-02-20T16:23:01Z</time>
      </trkpt>
      <trkpt lat="45.68381" lon="6.56275">
        <ele>916</ele>
        <time>2025-02-20T16:23:02Z</time>
      </trkpt>
      <trkpt lat="45.68381" lon="6.56275">
        <ele>916</ele>
        <time>2025-02-20T16:23:03Z</time>
      </trkpt>
      <trkpt lat="45.68381" lon="6.56275">
        <ele>915</ele>
        <time>2025-02-20T16:23:04Z</time>
      </trkpt>
      <trkpt lat="45.68381" lon="6.56275">
        <ele>914.6</ele>
        <time>2025-02-20T16:23:05Z</time>
      </trkpt>
      <trkpt lat="45.68381" lon="6.56275">
        <ele>914.6</ele>
        <time>2025-02-20T16:23:06Z</time>
      </trkpt>
      <trkpt lat="45.6838" lon="6.56274">
        <ele>914.6</ele>
        <time>2025-02-20T16:23:07Z</time>
      </trkpt>
      <trkpt lat="45.6838" lon="6.56274">
        <ele>915.4</ele>
        <time>2025-02-20T16:23:08Z</time>
      </trkpt>
      <trkpt lat="45.6838" lon="6.56274">
        <ele>915.8</ele>
        <time>2025-02-20T16:23:09Z</time>
      </trkpt>
      <trkpt lat="45.6838" lon="6.56274">
        <ele>915.8</ele>
        <time>2025-02-20T16:23:10Z</time>
      </trkpt>
      <trkpt lat="45.6838" lon="6.56274">
        <ele>915.8</ele>
        <time>2025-02-20T16:23:11Z</time>
      </trkpt>
      <trkpt lat="45.6838" lon="6.56274">
        <ele>915.4</ele>
        <time>2025-02-20T16:23:12Z</time>
      </trkpt>
      <trkpt lat="45.6838" lon="6.56274">
        <ele>915.4</ele>
        <time>2025-02-20T16:23:13Z</time>
      </trkpt>
      <trkpt lat="45.6838" lon="6.56274">
        <ele>915.4</ele>
        <time>2025-02-20T16:23:14Z</time>
      </trkpt>
    </trkseg>
  </trk>
</gpx>